<?xml version="1.0" encoding="UTF-8"?>
<TrainingCenterDatabase xmlns="http://www.garmin.com/xmlschemas/TrainingCenterDatabase/v2" xmlns:xsi="http://www.w3.org/2001/XMLSchema-instance" xsi:schemaLocation="http://www.garmin.com/xmlschemas/TrainingCenterDatabase/v2 http://www.garmin.com/xmlschemas/TrainingCenterDatabasev2.xsd">
  <Activities>
    <Activity Sport="Other">
      <Id>2022-09-24T13:11:23.000Z</Id>
      <Lap StartTime="2022-09-24T13:11:23.000Z">
        <TotalTimeSeconds>14027</TotalTimeSeconds>
        <DistanceMeters>83210</DistanceMeters>
        <Track>
          <Trackpoint>
            <Time>2022-09-24T13:11:23.000Z</Time>
            <Position>
              <LatitudeDegrees>43.266979157924652099609375</LatitudeDegrees>
              <LongitudeDegrees>-2.9472821764647960662841796875</LongitudeDegrees>
            </Position>
            <DistanceMeters>0</DistanceMeters>
          </Trackpoint>
          <Trackpoint>
            <Time>2022-09-24T13:11:24.000Z</Time>
            <Position>
              <LatitudeDegrees>43.26698175631463527679443359375</LatitudeDegrees>
              <LongitudeDegrees>-2.947278320789337158203125</LongitudeDegrees>
            </Position>
            <DistanceMeters>0.42497238601948</DistanceMeters>
          </Trackpoint>
          <Trackpoint>
            <Time>2022-09-24T13:11:25.000Z</Time>
            <Position>
              <LatitudeDegrees>43.266984522342681884765625</LatitudeDegrees>
              <LongitudeDegrees>-2.94727438129484653472900390625</LongitudeDegrees>
            </Position>
            <DistanceMeters>0.84994477203895</DistanceMeters>
          </Trackpoint>
          <Trackpoint>
            <Time>2022-09-24T13:11:26.000Z</Time>
            <Position>
              <LatitudeDegrees>43.26698787510395050048828125</LatitudeDegrees>
              <LongitudeDegrees>-2.9472697712481021881103515625</LongitudeDegrees>
            </Position>
            <DistanceMeters>1.3704275222993</DistanceMeters>
          </Trackpoint>
          <Trackpoint>
            <Time>2022-09-24T13:11:27.000Z</Time>
            <Position>
              <LatitudeDegrees>43.266991563141345977783203125</LatitudeDegrees>
              <LongitudeDegrees>-2.9472647421061992645263671875</LongitudeDegrees>
            </Position>
            <DistanceMeters>1.9562115310178</DistanceMeters>
          </Trackpoint>
          <Trackpoint>
            <Time>2022-09-24T13:11:28.000Z</Time>
            <Position>
              <LatitudeDegrees>43.266995251178741455078125</LatitudeDegrees>
              <LongitudeDegrees>-2.947259880602359771728515625</LongitudeDegrees>
            </Position>
            <DistanceMeters>2.5263718172377</DistanceMeters>
          </Trackpoint>
          <Trackpoint>
            <Time>2022-09-24T13:11:29.000Z</Time>
            <Position>
              <LatitudeDegrees>43.2669991068542003631591796875</LatitudeDegrees>
              <LongitudeDegrees>-2.9472550190985202789306640625</LongitudeDegrees>
            </Position>
            <DistanceMeters>3.1121558259562</DistanceMeters>
          </Trackpoint>
          <Trackpoint>
            <Time>2022-09-24T13:11:30.000Z</Time>
            <Position>
              <LatitudeDegrees>43.26700321398675441741943359375</LatitudeDegrees>
              <LongitudeDegrees>-2.9472499899566173553466796875</LongitudeDegrees>
            </Position>
            <DistanceMeters>3.7279993212097</DistanceMeters>
          </Trackpoint>
          <Trackpoint>
            <Time>2022-09-24T13:11:31.000Z</Time>
            <Position>
              <LatitudeDegrees>43.26700723730027675628662109375</LatitudeDegrees>
              <LongitudeDegrees>-2.9472452960908412933349609375</LongitudeDegrees>
            </Position>
            <DistanceMeters>4.3137833299281</DistanceMeters>
          </Trackpoint>
          <Trackpoint>
            <Time>2022-09-24T13:11:32.000Z</Time>
            <Position>
              <LatitudeDegrees>43.2670111767947673797607421875</LatitudeDegrees>
              <LongitudeDegrees>-2.947240434587001800537109375</LongitudeDegrees>
            </Position>
            <DistanceMeters>4.9072249709631</DistanceMeters>
          </Trackpoint>
          <Trackpoint>
            <Time>2022-09-24T13:11:33.000Z</Time>
            <Position>
              <LatitudeDegrees>43.2670148648321628570556640625</LatitudeDegrees>
              <LongitudeDegrees>-2.947235740721225738525390625</LongitudeDegrees>
            </Position>
            <DistanceMeters>5.477385257183</DistanceMeters>
          </Trackpoint>
          <Trackpoint>
            <Time>2022-09-24T13:11:34.000Z</Time>
            <Position>
              <LatitudeDegrees>43.26701830141246318817138671875</LatitudeDegrees>
              <LongitudeDegrees>-2.94723079539835453033447265625</LongitudeDegrees>
            </Position>
            <DistanceMeters>6.0314814573995</DistanceMeters>
          </Trackpoint>
          <Trackpoint>
            <Time>2022-09-24T13:11:35.000Z</Time>
            <Position>
              <LatitudeDegrees>43.26702182181179523468017578125</LatitudeDegrees>
              <LongitudeDegrees>-2.9472258500754833221435546875</LongitudeDegrees>
            </Position>
            <DistanceMeters>6.6016417436194</DistanceMeters>
          </Trackpoint>
          <Trackpoint>
            <Time>2022-09-24T13:11:36.000Z</Time>
            <Position>
              <LatitudeDegrees>43.26702500693500041961669921875</LatitudeDegrees>
              <LongitudeDegrees>-2.9472211562097072601318359375</LongitudeDegrees>
            </Position>
            <DistanceMeters>7.1307280974054</DistanceMeters>
          </Trackpoint>
          <Trackpoint>
            <Time>2022-09-24T13:11:37.000Z</Time>
            <Position>
              <LatitudeDegrees>43.267028443515300750732421875</LatitudeDegrees>
              <LongitudeDegrees>-2.94721621088683605194091796875</LongitudeDegrees>
            </Position>
            <DistanceMeters>7.684824297622</DistanceMeters>
          </Trackpoint>
          <Trackpoint>
            <Time>2022-09-24T13:11:38.000Z</Time>
            <Position>
              <LatitudeDegrees>43.2670316286385059356689453125</LatitudeDegrees>
              <LongitudeDegrees>-2.94721151702105998992919921875</LongitudeDegrees>
            </Position>
            <DistanceMeters>8.2053070478824</DistanceMeters>
          </Trackpoint>
          <Trackpoint>
            <Time>2022-09-24T13:11:39.000Z</Time>
            <Position>
              <LatitudeDegrees>43.26703481376171112060546875</LatitudeDegrees>
              <LongitudeDegrees>-2.9472067393362522125244140625</LongitudeDegrees>
            </Position>
            <DistanceMeters>8.7170415658453</DistanceMeters>
          </Trackpoint>
          <Trackpoint>
            <Time>2022-09-24T13:11:40.000Z</Time>
            <Position>
              <LatitudeDegrees>43.26703808270394802093505859375</LatitudeDegrees>
              <LongitudeDegrees>-2.9472018778324127197265625</LongitudeDegrees>
            </Position>
            <DistanceMeters>9.2461279196313</DistanceMeters>
          </Trackpoint>
          <Trackpoint>
            <Time>2022-09-24T13:11:41.000Z</Time>
            <Position>
              <LatitudeDegrees>43.2670423574745655059814453125</LatitudeDegrees>
              <LongitudeDegrees>-2.9471976868808269500732421875</LongitudeDegrees>
            </Position>
            <DistanceMeters>9.8319119283497</DistanceMeters>
          </Trackpoint>
          <Trackpoint>
            <Time>2022-09-24T13:11:42.000Z</Time>
            <Position>
              <LatitudeDegrees>43.26705090701580047607421875</LatitudeDegrees>
              <LongitudeDegrees>-2.94718855060636997222900390625</LongitudeDegrees>
            </Position>
            <DistanceMeters>11.041404542598</DistanceMeters>
          </Trackpoint>
          <Trackpoint>
            <Time>2022-09-24T13:11:43.000Z</Time>
            <Position>
              <LatitudeDegrees>43.267059624195098876953125</LatitudeDegrees>
              <LongitudeDegrees>-2.94717840850353240966796875</LongitudeDegrees>
            </Position>
            <DistanceMeters>12.316321700656</DistanceMeters>
          </Trackpoint>
          <Trackpoint>
            <Time>2022-09-24T13:11:44.000Z</Time>
            <Position>
              <LatitudeDegrees>43.2670675031840801239013671875</LatitudeDegrees>
              <LongitudeDegrees>-2.94716742821037769317626953125</LongitudeDegrees>
            </Position>
            <DistanceMeters>13.566202984941</DistanceMeters>
          </Trackpoint>
          <Trackpoint>
            <Time>2022-09-24T13:11:45.000Z</Time>
            <Position>
              <LatitudeDegrees>43.26707446016371250152587890625</LatitudeDegrees>
              <LongitudeDegrees>-2.94715770520269870758056640625</LongitudeDegrees>
            </Position>
            <DistanceMeters>14.674395385374</DistanceMeters>
          </Trackpoint>
          <Trackpoint>
            <Time>2022-09-24T13:11:46.000Z</Time>
            <Position>
              <LatitudeDegrees>43.267081417143344879150390625</LatitudeDegrees>
              <LongitudeDegrees>-2.94714882038533687591552734375</LongitudeDegrees>
            </Position>
            <DistanceMeters>15.723999751867</DistanceMeters>
          </Trackpoint>
          <Trackpoint>
            <Time>2022-09-24T13:11:47.000Z</Time>
            <Position>
              <LatitudeDegrees>43.26708736829459667205810546875</LatitudeDegrees>
              <LongitudeDegrees>-2.94714085757732391357421875</LongitudeDegrees>
            </Position>
            <DistanceMeters>16.645317930203</DistanceMeters>
          </Trackpoint>
          <Trackpoint>
            <Time>2022-09-24T13:11:48.000Z</Time>
            <Position>
              <LatitudeDegrees>43.2670929841697216033935546875</LatitudeDegrees>
              <LongitudeDegrees>-2.94713272713124752044677734375</LongitudeDegrees>
            </Position>
            <DistanceMeters>17.551815010397</DistanceMeters>
          </Trackpoint>
          <Trackpoint>
            <Time>2022-09-24T13:11:49.000Z</Time>
            <Position>
              <LatitudeDegrees>43.2670980133116245269775390625</LatitudeDegrees>
              <LongitudeDegrees>-2.9471240937709808349609375</LongitudeDegrees>
            </Position>
            <DistanceMeters>18.443244607767</DistanceMeters>
          </Trackpoint>
          <Trackpoint>
            <Time>2022-09-24T13:11:50.000Z</Time>
            <Position>
              <LatitudeDegrees>43.2671037130057811737060546875</LatitudeDegrees>
              <LongitudeDegrees>-2.94711478985846042633056640625</LongitudeDegrees>
            </Position>
            <DistanceMeters>19.430791191958</DistanceMeters>
          </Trackpoint>
          <Trackpoint>
            <Time>2022-09-24T13:11:51.000Z</Time>
            <Position>
              <LatitudeDegrees>43.267109580338001251220703125</LatitudeDegrees>
              <LongitudeDegrees>-2.94710523448884487152099609375</LongitudeDegrees>
            </Position>
            <DistanceMeters>20.440939021816</DistanceMeters>
          </Trackpoint>
          <Trackpoint>
            <Time>2022-09-24T13:11:52.000Z</Time>
            <Position>
              <LatitudeDegrees>43.2671154476702213287353515625</LatitudeDegrees>
              <LongitudeDegrees>-2.94709517620503902435302734375</LongitudeDegrees>
            </Position>
            <DistanceMeters>21.486232879886</DistanceMeters>
          </Trackpoint>
          <Trackpoint>
            <Time>2022-09-24T13:11:53.000Z</Time>
            <Position>
              <LatitudeDegrees>43.2671211473643779754638671875</LatitudeDegrees>
              <LongitudeDegrees>-2.94708545319736003875732421875</LongitudeDegrees>
            </Position>
            <DistanceMeters>22.496380709744</DistanceMeters>
          </Trackpoint>
          <Trackpoint>
            <Time>2022-09-24T13:11:54.000Z</Time>
            <Position>
              <LatitudeDegrees>43.2671271823346614837646484375</LatitudeDegrees>
              <LongitudeDegrees>-2.94707514345645904541015625</LongitudeDegrees>
            </Position>
            <DistanceMeters>23.567277394015</DistanceMeters>
          </Trackpoint>
          <Trackpoint>
            <Time>2022-09-24T13:11:55.000Z</Time>
            <Position>
              <LatitudeDegrees>43.2671332173049449920654296875</LatitudeDegrees>
              <LongitudeDegrees>-2.94706466607749462127685546875</LongitudeDegrees>
            </Position>
            <DistanceMeters>24.646573396634</DistanceMeters>
          </Trackpoint>
          <Trackpoint>
            <Time>2022-09-24T13:11:56.000Z</Time>
            <Position>
              <LatitudeDegrees>43.26713866554200649261474609375</LatitudeDegrees>
              <LongitudeDegrees>-2.94705393724143505096435546875</LongitudeDegrees>
            </Position>
            <DistanceMeters>25.709004361683</DistanceMeters>
          </Trackpoint>
          <Trackpoint>
            <Time>2022-09-24T13:11:57.000Z</Time>
            <Position>
              <LatitudeDegrees>43.26714352704584598541259765625</LatitudeDegrees>
              <LongitudeDegrees>-2.94704270549118518829345703125</LongitudeDegrees>
            </Position>
            <DistanceMeters>26.767177069255</DistanceMeters>
          </Trackpoint>
          <Trackpoint>
            <Time>2022-09-24T13:11:58.000Z</Time>
            <Position>
              <LatitudeDegrees>43.2671479694545269012451171875</LatitudeDegrees>
              <LongitudeDegrees>-2.94703130610287189483642578125</LongitudeDegrees>
            </Position>
            <DistanceMeters>27.816781435748</DistanceMeters>
          </Trackpoint>
          <Trackpoint>
            <Time>2022-09-24T13:11:59.000Z</Time>
            <Position>
              <LatitudeDegrees>43.26715224422514438629150390625</LatitudeDegrees>
              <LongitudeDegrees>-2.94702015817165374755859375</LongitudeDegrees>
            </Position>
            <DistanceMeters>28.835829418453</DistanceMeters>
          </Trackpoint>
          <Trackpoint>
            <Time>2022-09-24T13:12:00.000Z</Time>
            <Position>
              <LatitudeDegrees>43.267156518995761871337890625</LatitudeDegrees>
              <LongitudeDegrees>-2.94700942933559417724609375</LongitudeDegrees>
            </Position>
            <DistanceMeters>29.82793744301</DistanceMeters>
          </Trackpoint>
          <Trackpoint>
            <Time>2022-09-24T13:12:01.000Z</Time>
            <Position>
              <LatitudeDegrees>43.26716129668056964874267578125</LatitudeDegrees>
              <LongitudeDegrees>-2.9469992034137248992919921875</LongitudeDegrees>
            </Position>
            <DistanceMeters>30.815484027201</DistanceMeters>
          </Trackpoint>
          <Trackpoint>
            <Time>2022-09-24T13:12:02.000Z</Time>
            <Position>
              <LatitudeDegrees>43.2671664096415042877197265625</LatitudeDegrees>
              <LongitudeDegrees>-2.94698906131088733673095703125</LongitudeDegrees>
            </Position>
            <DistanceMeters>31.816652587075</DistanceMeters>
          </Trackpoint>
          <Trackpoint>
            <Time>2022-09-24T13:12:03.000Z</Time>
            <Position>
              <LatitudeDegrees>43.2671717740595340728759765625</LatitudeDegrees>
              <LongitudeDegrees>-2.94697866775095462799072265625</LongitudeDegrees>
            </Position>
            <DistanceMeters>32.844523660674</DistanceMeters>
          </Trackpoint>
          <Trackpoint>
            <Time>2022-09-24T13:12:04.000Z</Time>
            <Position>
              <LatitudeDegrees>43.2671774737536907196044921875</LatitudeDegrees>
              <LongitudeDegrees>-2.9469683580100536346435546875</LongitudeDegrees>
            </Position>
            <DistanceMeters>33.885489161195</DistanceMeters>
          </Trackpoint>
          <Trackpoint>
            <Time>2022-09-24T13:12:05.000Z</Time>
            <Position>
              <LatitudeDegrees>43.26718308962881565093994140625</LatitudeDegrees>
              <LongitudeDegrees>-2.9469579644501209259033203125</LongitudeDegrees>
            </Position>
            <DistanceMeters>34.935093527689</DistanceMeters>
          </Trackpoint>
          <Trackpoint>
            <Time>2022-09-24T13:12:06.000Z</Time>
            <Position>
              <LatitudeDegrees>43.2671885378658771514892578125</LatitudeDegrees>
              <LongitudeDegrees>-2.94694782234728336334228515625</LongitudeDegrees>
            </Position>
            <DistanceMeters>35.958562563614</DistanceMeters>
          </Trackpoint>
          <Trackpoint>
            <Time>2022-09-24T13:12:07.000Z</Time>
            <Position>
              <LatitudeDegrees>43.26719348318874835968017578125</LatitudeDegrees>
              <LongitudeDegrees>-2.9469378478825092315673828125</LongitudeDegrees>
            </Position>
            <DistanceMeters>36.936922468281</DistanceMeters>
          </Trackpoint>
          <Trackpoint>
            <Time>2022-09-24T13:12:08.000Z</Time>
            <Position>
              <LatitudeDegrees>43.26719817705452442169189453125</LatitudeDegrees>
              <LongitudeDegrees>-2.9469282925128936767578125</LongitudeDegrees>
            </Position>
            <DistanceMeters>37.867990316839</DistanceMeters>
          </Trackpoint>
          <Trackpoint>
            <Time>2022-09-24T13:12:09.000Z</Time>
            <Position>
              <LatitudeDegrees>43.26720287092030048370361328125</LatitudeDegrees>
              <LongitudeDegrees>-2.94691848568618297576904296875</LongitudeDegrees>
            </Position>
            <DistanceMeters>38.818257460539</DistanceMeters>
          </Trackpoint>
          <Trackpoint>
            <Time>2022-09-24T13:12:10.000Z</Time>
            <Position>
              <LatitudeDegrees>43.26720739714801311492919921875</LatitudeDegrees>
              <LongitudeDegrees>-2.946908511221408843994140625</LongitudeDegrees>
            </Position>
            <DistanceMeters>39.768524604239</DistanceMeters>
          </Trackpoint>
          <Trackpoint>
            <Time>2022-09-24T13:12:11.000Z</Time>
            <Position>
              <LatitudeDegrees>43.26721158809959888458251953125</LatitudeDegrees>
              <LongitudeDegrees>-2.94689870439469814300537109375</LongitudeDegrees>
            </Position>
            <DistanceMeters>40.689842782575</DistanceMeters>
          </Trackpoint>
          <Trackpoint>
            <Time>2022-09-24T13:12:12.000Z</Time>
            <Position>
              <LatitudeDegrees>43.26721577905118465423583984375</LatitudeDegrees>
              <LongitudeDegrees>-2.9468885622918605804443359375</LongitudeDegrees>
            </Position>
            <DistanceMeters>41.640109926275</DistanceMeters>
          </Trackpoint>
          <Trackpoint>
            <Time>2022-09-24T13:12:13.000Z</Time>
            <Position>
              <LatitudeDegrees>43.26721980236470699310302734375</LatitudeDegrees>
              <LongitudeDegrees>-2.9468786716461181640625</LongitudeDegrees>
            </Position>
            <DistanceMeters>42.56142810461</DistanceMeters>
          </Trackpoint>
          <Trackpoint>
            <Time>2022-09-24T13:12:14.000Z</Time>
            <Position>
              <LatitudeDegrees>43.26722390949726104736328125</LatitudeDegrees>
              <LongitudeDegrees>-2.94686852954328060150146484375</LongitudeDegrees>
            </Position>
            <DistanceMeters>43.502144582359</DistanceMeters>
          </Trackpoint>
          <Trackpoint>
            <Time>2022-09-24T13:12:15.000Z</Time>
            <Position>
              <LatitudeDegrees>43.26722801662981510162353515625</LatitudeDegrees>
              <LongitudeDegrees>-2.94685830362141132354736328125</LongitudeDegrees>
            </Position>
            <DistanceMeters>44.442861060107</DistanceMeters>
          </Trackpoint>
          <Trackpoint>
            <Time>2022-09-24T13:12:16.000Z</Time>
            <Position>
              <LatitudeDegrees>43.26723203994333744049072265625</LatitudeDegrees>
              <LongitudeDegrees>-2.946848161518573760986328125</LongitudeDegrees>
            </Position>
            <DistanceMeters>45.378765657309</DistanceMeters>
          </Trackpoint>
          <Trackpoint>
            <Time>2022-09-24T13:12:17.000Z</Time>
            <Position>
              <LatitudeDegrees>43.26723597943782806396484375</LatitudeDegrees>
              <LongitudeDegrees>-2.94683801941573619842529296875</LongitudeDegrees>
            </Position>
            <DistanceMeters>46.314670254511</DistanceMeters>
          </Trackpoint>
          <Trackpoint>
            <Time>2022-09-24T13:12:18.000Z</Time>
            <Position>
              <LatitudeDegrees>43.26723975129425525665283203125</LatitudeDegrees>
              <LongitudeDegrees>-2.94682779349386692047119140625</LongitudeDegrees>
            </Position>
            <DistanceMeters>47.24573810307</DistanceMeters>
          </Trackpoint>
          <Trackpoint>
            <Time>2022-09-24T13:12:19.000Z</Time>
            <Position>
              <LatitudeDegrees>43.2672435231506824493408203125</LatitudeDegrees>
              <LongitudeDegrees>-2.94681739993393421173095703125</LongitudeDegrees>
            </Position>
            <DistanceMeters>48.186454580818</DistanceMeters>
          </Trackpoint>
          <Trackpoint>
            <Time>2022-09-24T13:12:20.000Z</Time>
            <Position>
              <LatitudeDegrees>43.26724712736904621124267578125</LatitudeDegrees>
              <LongitudeDegrees>-2.94680750928819179534912109375</LongitudeDegrees>
            </Position>
            <DistanceMeters>49.077884178188</DistanceMeters>
          </Trackpoint>
          <Trackpoint>
            <Time>2022-09-24T13:12:21.000Z</Time>
            <Position>
              <LatitudeDegrees>43.267250396311283111572265625</LatitudeDegrees>
              <LongitudeDegrees>-2.946797870099544525146484375</LongitudeDegrees>
            </Position>
            <DistanceMeters>49.933124607518</DistanceMeters>
          </Trackpoint>
          <Trackpoint>
            <Time>2022-09-24T13:12:22.000Z</Time>
            <Position>
              <LatitudeDegrees>43.267253749072551727294921875</LatitudeDegrees>
              <LongitudeDegrees>-2.9467883147299289703369140625</LongitudeDegrees>
            </Position>
            <DistanceMeters>50.79362810455</DistanceMeters>
          </Trackpoint>
          <Trackpoint>
            <Time>2022-09-24T13:12:23.000Z</Time>
            <Position>
              <LatitudeDegrees>43.26725685037672519683837890625</LatitudeDegrees>
              <LongitudeDegrees>-2.94677951373159885406494140625</LongitudeDegrees>
            </Position>
            <DistanceMeters>51.577238465756</DistanceMeters>
          </Trackpoint>
          <Trackpoint>
            <Time>2022-09-24T13:12:24.000Z</Time>
            <Position>
              <LatitudeDegrees>43.2672596164047718048095703125</LatitudeDegrees>
              <LongitudeDegrees>-2.94677129946649074554443359375</LongitudeDegrees>
            </Position>
            <DistanceMeters>52.313312230155</DistanceMeters>
          </Trackpoint>
          <Trackpoint>
            <Time>2022-09-24T13:12:25.000Z</Time>
            <Position>
              <LatitudeDegrees>43.26726221479475498199462890625</LatitudeDegrees>
              <LongitudeDegrees>-2.94676325283944606781005859375</LongitudeDegrees>
            </Position>
            <DistanceMeters>53.030748190577</DistanceMeters>
          </Trackpoint>
          <Trackpoint>
            <Time>2022-09-24T13:12:26.000Z</Time>
            <Position>
              <LatitudeDegrees>43.2672648131847381591796875</LatitudeDegrees>
              <LongitudeDegrees>-2.94675487093627452850341796875</LongitudeDegrees>
            </Position>
            <DistanceMeters>53.772930555687</DistanceMeters>
          </Trackpoint>
          <Trackpoint>
            <Time>2022-09-24T13:12:27.000Z</Time>
            <Position>
              <LatitudeDegrees>43.26726741157472133636474609375</LatitudeDegrees>
              <LongitudeDegrees>-2.94674648903310298919677734375</LongitudeDegrees>
            </Position>
            <DistanceMeters>54.509004320087</DistanceMeters>
          </Trackpoint>
          <Trackpoint>
            <Time>2022-09-24T13:12:28.000Z</Time>
            <Position>
              <LatitudeDegrees>43.26726992614567279815673828125</LatitudeDegrees>
              <LongitudeDegrees>-2.9467376880347728729248046875</LongitudeDegrees>
            </Position>
            <DistanceMeters>55.275134184311</DistanceMeters>
          </Trackpoint>
          <Trackpoint>
            <Time>2022-09-24T13:12:29.000Z</Time>
            <Position>
              <LatitudeDegrees>43.26727218925952911376953125</LatitudeDegrees>
              <LongitudeDegrees>-2.94672855176031589508056640625</LongitudeDegrees>
            </Position>
            <DistanceMeters>56.058744545517</DistanceMeters>
          </Trackpoint>
          <Trackpoint>
            <Time>2022-09-24T13:12:30.000Z</Time>
            <Position>
              <LatitudeDegrees>43.26727428473532199859619140625</LatitudeDegrees>
              <LongitudeDegrees>-2.9467192478477954864501953125</LongitudeDegrees>
            </Position>
            <DistanceMeters>56.848095718718</DistanceMeters>
          </Trackpoint>
          <Trackpoint>
            <Time>2022-09-24T13:12:31.000Z</Time>
            <Position>
              <LatitudeDegrees>43.26727629639208316802978515625</LatitudeDegrees>
              <LongitudeDegrees>-2.946709692478179931640625</LongitudeDegrees>
            </Position>
            <DistanceMeters>57.654424128216</DistanceMeters>
          </Trackpoint>
          <Trackpoint>
            <Time>2022-09-24T13:12:32.000Z</Time>
            <Position>
              <LatitudeDegrees>43.2672782242298126220703125</LatitudeDegrees>
              <LongitudeDegrees>-2.946699969470500946044921875</LongitudeDegrees>
            </Position>
            <DistanceMeters>58.471874834285</DistanceMeters>
          </Trackpoint>
          <Trackpoint>
            <Time>2022-09-24T13:12:33.000Z</Time>
            <Position>
              <LatitudeDegrees>43.26728023588657379150390625</LatitudeDegrees>
              <LongitudeDegrees>-2.94669066555798053741455078125</LongitudeDegrees>
            </Position>
            <DistanceMeters>59.255485195491</DistanceMeters>
          </Trackpoint>
          <Trackpoint>
            <Time>2022-09-24T13:12:34.000Z</Time>
            <Position>
              <LatitudeDegrees>43.26728216372430324554443359375</LatitudeDegrees>
              <LongitudeDegrees>-2.94668077491223812103271484375</LongitudeDegrees>
            </Position>
            <DistanceMeters>60.083908885242</DistanceMeters>
          </Trackpoint>
          <Trackpoint>
            <Time>2022-09-24T13:12:35.000Z</Time>
            <Position>
              <LatitudeDegrees>43.2672844268381595611572265625</LatitudeDegrees>
              <LongitudeDegrees>-2.94667038135230541229248046875</LongitudeDegrees>
            </Position>
            <DistanceMeters>60.954843108529</DistanceMeters>
          </Trackpoint>
          <Trackpoint>
            <Time>2022-09-24T13:12:36.000Z</Time>
            <Position>
              <LatitudeDegrees>43.267286606132984161376953125</LatitudeDegrees>
              <LongitudeDegrees>-2.94665940105915069580078125</LongitudeDegrees>
            </Position>
            <DistanceMeters>61.871247554877</DistanceMeters>
          </Trackpoint>
          <Trackpoint>
            <Time>2022-09-24T13:12:37.000Z</Time>
            <Position>
              <LatitudeDegrees>43.26728870160877704620361328125</LatitudeDegrees>
              <LongitudeDegrees>-2.94664791785180568695068359375</LongitudeDegrees>
            </Position>
            <DistanceMeters>62.830970325933</DistanceMeters>
          </Trackpoint>
          <Trackpoint>
            <Time>2022-09-24T13:12:38.000Z</Time>
            <Position>
              <LatitudeDegrees>43.26729088090360164642333984375</LatitudeDegrees>
              <LongitudeDegrees>-2.9466354288160800933837890625</LongitudeDegrees>
            </Position>
            <DistanceMeters>63.871935826454</DistanceMeters>
          </Trackpoint>
          <Trackpoint>
            <Time>2022-09-24T13:12:39.000Z</Time>
            <Position>
              <LatitudeDegrees>43.26729306019842624664306640625</LatitudeDegrees>
              <LongitudeDegrees>-2.9466226883232593536376953125</LongitudeDegrees>
            </Position>
            <DistanceMeters>64.934366791503</DistanceMeters>
          </Trackpoint>
          <Trackpoint>
            <Time>2022-09-24T13:12:40.000Z</Time>
            <Position>
              <LatitudeDegrees>43.267295323312282562255859375</LatitudeDegrees>
              <LongitudeDegrees>-2.946608774363994598388671875</LongitudeDegrees>
            </Position>
            <DistanceMeters>66.090416666597</DistanceMeters>
          </Trackpoint>
          <Trackpoint>
            <Time>2022-09-24T13:12:41.000Z</Time>
            <Position>
              <LatitudeDegrees>43.26729758642613887786865234375</LatitudeDegrees>
              <LongitudeDegrees>-2.94659511186182498931884765625</LongitudeDegrees>
            </Position>
            <DistanceMeters>67.222790657397</DistanceMeters>
          </Trackpoint>
          <Trackpoint>
            <Time>2022-09-24T13:12:42.000Z</Time>
            <Position>
              <LatitudeDegrees>43.267300017178058624267578125</LatitudeDegrees>
              <LongitudeDegrees>-2.94658052735030651092529296875</LongitudeDegrees>
            </Position>
            <DistanceMeters>68.43972637337</DistanceMeters>
          </Trackpoint>
          <Trackpoint>
            <Time>2022-09-24T13:12:43.000Z</Time>
            <Position>
              <LatitudeDegrees>43.2673025317490100860595703125</LatitudeDegrees>
              <LongitudeDegrees>-2.946565188467502593994140625</LongitudeDegrees>
            </Position>
            <DistanceMeters>69.714643531428</DistanceMeters>
          </Trackpoint>
          <Trackpoint>
            <Time>2022-09-24T13:12:44.000Z</Time>
            <Position>
              <LatitudeDegrees>43.2673050463199615478515625</LatitudeDegrees>
              <LongitudeDegrees>-2.946549765765666961669921875</LongitudeDegrees>
            </Position>
            <DistanceMeters>70.99309722099</DistanceMeters>
          </Trackpoint>
          <Trackpoint>
            <Time>2022-09-24T13:12:45.000Z</Time>
            <Position>
              <LatitudeDegrees>43.267308063805103302001953125</LatitudeDegrees>
              <LongitudeDegrees>-2.94653308577835559844970703125</LongitudeDegrees>
            </Position>
            <DistanceMeters>72.389698993828</DistanceMeters>
          </Trackpoint>
          <Trackpoint>
            <Time>2022-09-24T13:12:46.000Z</Time>
            <Position>
              <LatitudeDegrees>43.267311751842498779296875</LatitudeDegrees>
              <LongitudeDegrees>-2.94651632197201251983642578125</LongitudeDegrees>
            </Position>
            <DistanceMeters>73.808750454136</DistanceMeters>
          </Trackpoint>
          <Trackpoint>
            <Time>2022-09-24T13:12:47.000Z</Time>
            <Position>
              <LatitudeDegrees>43.26731669716536998748779296875</LatitudeDegrees>
              <LongitudeDegrees>-2.94649846851825714111328125</LongitudeDegrees>
            </Position>
            <DistanceMeters>75.358589263204</DistanceMeters>
          </Trackpoint>
          <Trackpoint>
            <Time>2022-09-24T13:12:48.000Z</Time>
            <Position>
              <LatitudeDegrees>43.2673219777643680572509765625</LatitudeDegrees>
              <LongitudeDegrees>-2.94648027978837490081787109375</LongitudeDegrees>
            </Position>
            <DistanceMeters>76.948690330528</DistanceMeters>
          </Trackpoint>
          <Trackpoint>
            <Time>2022-09-24T13:12:49.000Z</Time>
            <Position>
              <LatitudeDegrees>43.26732792891561985015869140625</LatitudeDegrees>
              <LongitudeDegrees>-2.94646150432527065277099609375</LongitudeDegrees>
            </Position>
            <DistanceMeters>78.610978931178</DistanceMeters>
          </Trackpoint>
          <Trackpoint>
            <Time>2022-09-24T13:12:50.000Z</Time>
            <Position>
              <LatitudeDegrees>43.26733388006687164306640625</LatitudeDegrees>
              <LongitudeDegrees>-2.94644256122410297393798828125</LongitudeDegrees>
            </Position>
            <DistanceMeters>80.284096888056</DistanceMeters>
          </Trackpoint>
          <Trackpoint>
            <Time>2022-09-24T13:12:51.000Z</Time>
            <Position>
              <LatitudeDegrees>43.26733999885618686676025390625</LatitudeDegrees>
              <LongitudeDegrees>-2.9464231990277767181396484375</LongitudeDegrees>
            </Position>
            <DistanceMeters>81.997215344055</DistanceMeters>
          </Trackpoint>
          <Trackpoint>
            <Time>2022-09-24T13:12:52.000Z</Time>
            <Position>
              <LatitudeDegrees>43.267346285283565521240234375</LatitudeDegrees>
              <LongitudeDegrees>-2.94640333391726016998291015625</LongitudeDegrees>
            </Position>
            <DistanceMeters>83.75199626126</DistanceMeters>
          </Trackpoint>
          <Trackpoint>
            <Time>2022-09-24T13:12:53.000Z</Time>
            <Position>
              <LatitudeDegrees>43.267352320253849029541015625</LatitudeDegrees>
              <LongitudeDegrees>-2.94638288207352161407470703125</LongitudeDegrees>
            </Position>
            <DistanceMeters>85.539913222744</DistanceMeters>
          </Trackpoint>
          <Trackpoint>
            <Time>2022-09-24T13:12:54.000Z</Time>
            <Position>
              <LatitudeDegrees>43.26735860668122768402099609375</LatitudeDegrees>
              <LongitudeDegrees>-2.94636159203946590423583984375</LongitudeDegrees>
            </Position>
            <DistanceMeters>87.402048919861</DistanceMeters>
          </Trackpoint>
          <Trackpoint>
            <Time>2022-09-24T13:12:55.000Z</Time>
            <Position>
              <LatitudeDegrees>43.26736472547054290771484375</LatitudeDegrees>
              <LongitudeDegrees>-2.94634046964347362518310546875</LongitudeDegrees>
            </Position>
            <DistanceMeters>89.24223333086</DistanceMeters>
          </Trackpoint>
          <Trackpoint>
            <Time>2022-09-24T13:12:56.000Z</Time>
            <Position>
              <LatitudeDegrees>43.267371095716953277587890625</LatitudeDegrees>
              <LongitudeDegrees>-2.94631867669522762298583984375</LongitudeDegrees>
            </Position>
            <DistanceMeters>91.145141803179</DistanceMeters>
          </Trackpoint>
          <Trackpoint>
            <Time>2022-09-24T13:12:57.000Z</Time>
            <Position>
              <LatitudeDegrees>43.26737754978239536285400390625</LatitudeDegrees>
              <LongitudeDegrees>-2.9462971352040767669677734375</LongitudeDegrees>
            </Position>
            <DistanceMeters>93.031368226204</DistanceMeters>
          </Trackpoint>
          <Trackpoint>
            <Time>2022-09-24T13:12:58.000Z</Time>
            <Position>
              <LatitudeDegrees>43.2673843391239643096923828125</LatitudeDegrees>
              <LongitudeDegrees>-2.9462753422558307647705078125</LongitudeDegrees>
            </Position>
            <DistanceMeters>94.953164590437</DistanceMeters>
          </Trackpoint>
          <Trackpoint>
            <Time>2022-09-24T13:12:59.000Z</Time>
            <Position>
              <LatitudeDegrees>43.2673910446465015411376953125</LatitudeDegrees>
              <LongitudeDegrees>-2.94625447131693363189697265625</LongitudeDegrees>
            </Position>
            <DistanceMeters>96.805576274891</DistanceMeters>
          </Trackpoint>
          <Trackpoint>
            <Time>2022-09-24T13:13:00.000Z</Time>
            <Position>
              <LatitudeDegrees>43.2673977501690387725830078125</LatitudeDegrees>
              <LongitudeDegrees>-2.94623418711125850677490234375</LongitudeDegrees>
            </Position>
            <DistanceMeters>98.611083847921</DistanceMeters>
          </Trackpoint>
          <Trackpoint>
            <Time>2022-09-24T13:13:01.000Z</Time>
            <Position>
              <LatitudeDegrees>43.26740453951060771942138671875</LatitudeDegrees>
              <LongitudeDegrees>-2.94621390290558338165283203125</LongitudeDegrees>
            </Position>
            <DistanceMeters>100.41909039457</DistanceMeters>
          </Trackpoint>
          <Trackpoint>
            <Time>2022-09-24T13:13:02.000Z</Time>
            <Position>
              <LatitudeDegrees>43.26741124503314495086669921875</LatitudeDegrees>
              <LongitudeDegrees>-2.94619361869990825653076171875</LongitudeDegrees>
            </Position>
            <DistanceMeters>102.22709694121</DistanceMeters>
          </Trackpoint>
          <Trackpoint>
            <Time>2022-09-24T13:13:03.000Z</Time>
            <Position>
              <LatitudeDegrees>43.26741795055568218231201171875</LatitudeDegrees>
              <LongitudeDegrees>-2.946173250675201416015625</LongitudeDegrees>
            </Position>
            <DistanceMeters>104.0400911016</DistanceMeters>
          </Trackpoint>
          <Trackpoint>
            <Time>2022-09-24T13:13:04.000Z</Time>
            <Position>
              <LatitudeDegrees>43.26742482371628284454345703125</LatitudeDegrees>
              <LongitudeDegrees>-2.9461526311933994293212890625</LongitudeDegrees>
            </Position>
            <DistanceMeters>105.87782029548</DistanceMeters>
          </Trackpoint>
          <Trackpoint>
            <Time>2022-09-24T13:13:05.000Z</Time>
            <Position>
              <LatitudeDegrees>43.26743186451494693756103515625</LatitudeDegrees>
              <LongitudeDegrees>-2.9461316764354705810546875</LongitudeDegrees>
            </Position>
            <DistanceMeters>107.74721580842</DistanceMeters>
          </Trackpoint>
          <Trackpoint>
            <Time>2022-09-24T13:13:06.000Z</Time>
            <Position>
              <LatitudeDegrees>43.2674389891326427459716796875</LatitudeDegrees>
              <LongitudeDegrees>-2.94611114077270030975341796875</LongitudeDegrees>
            </Position>
            <DistanceMeters>109.58985216509</DistanceMeters>
          </Trackpoint>
          <Trackpoint>
            <Time>2022-09-24T13:13:07.000Z</Time>
            <Position>
              <LatitudeDegrees>43.267445862293243408203125</LatitudeDegrees>
              <LongitudeDegrees>-2.94609135948121547698974609375</LongitudeDegrees>
            </Position>
            <DistanceMeters>111.36509769147</DistanceMeters>
          </Trackpoint>
          <Trackpoint>
            <Time>2022-09-24T13:13:08.000Z</Time>
            <Position>
              <LatitudeDegrees>43.2674525678157806396484375</LatitudeDegrees>
              <LongitudeDegrees>-2.94607208110392093658447265625</LongitudeDegrees>
            </Position>
            <DistanceMeters>113.0965668305</DistanceMeters>
          </Trackpoint>
          <Trackpoint>
            <Time>2022-09-24T13:13:09.000Z</Time>
            <Position>
              <LatitudeDegrees>43.2674591057002544403076171875</LatitudeDegrees>
              <LongitudeDegrees>-2.946053557097911834716796875</LongitudeDegrees>
            </Position>
            <DistanceMeters>114.76427889939</DistanceMeters>
          </Trackpoint>
          <Trackpoint>
            <Time>2022-09-24T13:13:10.000Z</Time>
            <Position>
              <LatitudeDegrees>43.26746555976569652557373046875</LatitudeDegrees>
              <LongitudeDegrees>-2.946036122739315032958984375</LongitudeDegrees>
            </Position>
            <DistanceMeters>116.348690857</DistanceMeters>
          </Trackpoint>
          <Trackpoint>
            <Time>2022-09-24T13:13:11.000Z</Time>
            <Position>
              <LatitudeDegrees>43.26747209765017032623291015625</LatitudeDegrees>
              <LongitudeDegrees>-2.94601910747587680816650390625</LongitudeDegrees>
            </Position>
            <DistanceMeters>117.90434521674</DistanceMeters>
          </Trackpoint>
          <Trackpoint>
            <Time>2022-09-24T13:13:12.000Z</Time>
            <Position>
              <LatitudeDegrees>43.26747863553464412689208984375</LatitudeDegrees>
              <LongitudeDegrees>-2.9460029304027557373046875</LongitudeDegrees>
            </Position>
            <DistanceMeters>119.40082741113</DistanceMeters>
          </Trackpoint>
          <Trackpoint>
            <Time>2022-09-24T13:13:13.000Z</Time>
            <Position>
              <LatitudeDegrees>43.2674852572381496429443359375</LatitudeDegrees>
              <LongitudeDegrees>-2.9459880106151103973388671875</LongitudeDegrees>
            </Position>
            <DistanceMeters>120.81669356672</DistanceMeters>
          </Trackpoint>
          <Trackpoint>
            <Time>2022-09-24T13:13:14.000Z</Time>
            <Position>
              <LatitudeDegrees>43.26749187894165515899658203125</LatitudeDegrees>
              <LongitudeDegrees>-2.9459734261035919189453125</LongitudeDegrees>
            </Position>
            <DistanceMeters>122.2068145539</DistanceMeters>
          </Trackpoint>
          <Trackpoint>
            <Time>2022-09-24T13:13:15.000Z</Time>
            <Position>
              <LatitudeDegrees>43.2674981653690338134765625</LatitudeDegrees>
              <LongitudeDegrees>-2.94596093706786632537841796875</LongitudeDegrees>
            </Position>
            <DistanceMeters>123.43483033806</DistanceMeters>
          </Trackpoint>
          <Trackpoint>
            <Time>2022-09-24T13:13:16.000Z</Time>
            <Position>
              <LatitudeDegrees>43.26750428415834903717041015625</LatitudeDegrees>
              <LongitudeDegrees>-2.9459497891366481781005859375</LongitudeDegrees>
            </Position>
            <DistanceMeters>124.56720432886</DistanceMeters>
          </Trackpoint>
          <Trackpoint>
            <Time>2022-09-24T13:13:17.000Z</Time>
            <Position>
              <LatitudeDegrees>43.267510235309600830078125</LatitudeDegrees>
              <LongitudeDegrees>-2.945940233767032623291015625</LongitudeDegrees>
            </Position>
            <DistanceMeters>125.58181199422</DistanceMeters>
          </Trackpoint>
          <Trackpoint>
            <Time>2022-09-24T13:13:18.000Z</Time>
            <Position>
              <LatitudeDegrees>43.26751618646085262298583984375</LatitudeDegrees>
              <LongitudeDegrees>-2.94593160040676593780517578125</LongitudeDegrees>
            </Position>
            <DistanceMeters>126.54153476528</DistanceMeters>
          </Trackpoint>
          <Trackpoint>
            <Time>2022-09-24T13:13:19.000Z</Time>
            <Position>
              <LatitudeDegrees>43.2675221376121044158935546875</LatitudeDegrees>
              <LongitudeDegrees>-2.94592439197003841400146484375</LongitudeDegrees>
            </Position>
            <DistanceMeters>127.42277626123</DistanceMeters>
          </Trackpoint>
          <Trackpoint>
            <Time>2022-09-24T13:13:20.000Z</Time>
            <Position>
              <LatitudeDegrees>43.2675321958959102630615234375</LatitudeDegrees>
              <LongitudeDegrees>-2.94590704143047332763671875</LongitudeDegrees>
            </Position>
            <DistanceMeters>129.22076607403</DistanceMeters>
          </Trackpoint>
          <Trackpoint>
            <Time>2022-09-24T13:13:21.000Z</Time>
            <Position>
              <LatitudeDegrees>43.26754250563681125640869140625</LatitudeDegrees>
              <LongitudeDegrees>-2.9458904452621936798095703125</LongitudeDegrees>
            </Position>
            <DistanceMeters>130.98836513762</DistanceMeters>
          </Trackpoint>
          <Trackpoint>
            <Time>2022-09-24T13:13:22.000Z</Time>
            <Position>
              <LatitudeDegrees>43.26755273155868053436279296875</LatitudeDegrees>
              <LongitudeDegrees>-2.94587552547454833984375</LongitudeDegrees>
            </Position>
            <DistanceMeters>132.65065373827</DistanceMeters>
          </Trackpoint>
          <Trackpoint>
            <Time>2022-09-24T13:13:23.000Z</Time>
            <Position>
              <LatitudeDegrees>43.267561532557010650634765625</LatitudeDegrees>
              <LongitudeDegrees>-2.94586270116269588470458984375</LongitudeDegrees>
            </Position>
            <DistanceMeters>134.07921849926</DistanceMeters>
          </Trackpoint>
          <Trackpoint>
            <Time>2022-09-24T13:13:24.000Z</Time>
            <Position>
              <LatitudeDegrees>43.26756647787988185882568359375</LatitudeDegrees>
              <LongitudeDegrees>-2.9458527266979217529296875</LongitudeDegrees>
            </Position>
            <DistanceMeters>135.05295256286</DistanceMeters>
          </Trackpoint>
          <Trackpoint>
            <Time>2022-09-24T13:13:25.000Z</Time>
            <Position>
              <LatitudeDegrees>43.26756916008889675140380859375</LatitudeDegrees>
              <LongitudeDegrees>-2.94584535062313079833984375</LongitudeDegrees>
            </Position>
            <DistanceMeters>135.7248929041</DistanceMeters>
          </Trackpoint>
          <Trackpoint>
            <Time>2022-09-24T13:13:26.000Z</Time>
            <Position>
              <LatitudeDegrees>43.2675707526504993438720703125</LatitudeDegrees>
              <LongitudeDegrees>-2.94584107585251331329345703125</LongitudeDegrees>
            </Position>
            <DistanceMeters>136.10499976158</DistanceMeters>
          </Trackpoint>
          <Trackpoint>
            <Time>2022-09-24T13:13:27.000Z</Time>
            <Position>
              <LatitudeDegrees>43.26757234521210193634033203125</LatitudeDegrees>
              <LongitudeDegrees>-2.94584191404283046722412109375</LongitudeDegrees>
            </Position>
            <DistanceMeters>136.31748595459</DistanceMeters>
          </Trackpoint>
          <Trackpoint>
            <Time>2022-09-24T13:13:28.000Z</Time>
            <Position>
              <LatitudeDegrees>43.26757351867854595184326171875</LatitudeDegrees>
              <LongitudeDegrees>-2.9458473622798919677734375</LongitudeDegrees>
            </Position>
            <DistanceMeters>136.78301987887</DistanceMeters>
          </Trackpoint>
          <Trackpoint>
            <Time>2022-09-24T13:13:29.000Z</Time>
            <Position>
              <LatitudeDegrees>43.267573602497577667236328125</LatitudeDegrees>
              <LongitudeDegrees>-2.94585649855434894561767578125</LongitudeDegrees>
            </Position>
            <DistanceMeters>137.53126097606</DistanceMeters>
          </Trackpoint>
          <Trackpoint>
            <Time>2022-09-24T13:13:30.000Z</Time>
            <Position>
              <LatitudeDegrees>43.26757200993597507476806640625</LatitudeDegrees>
              <LongitudeDegrees>-2.94587007723748683929443359375</LongitudeDegrees>
            </Position>
            <DistanceMeters>138.64757211068</DistanceMeters>
          </Trackpoint>
          <Trackpoint>
            <Time>2022-09-24T13:13:31.000Z</Time>
            <Position>
              <LatitudeDegrees>43.2675707526504993438720703125</LatitudeDegrees>
              <LongitudeDegrees>-2.945880554616451263427734375</LongitudeDegrees>
            </Position>
            <DistanceMeters>139.50807560771</DistanceMeters>
          </Trackpoint>
          <Trackpoint>
            <Time>2022-09-24T13:13:32.000Z</Time>
            <Position>
              <LatitudeDegrees>43.26756999827921390533447265625</LatitudeDegrees>
              <LongitudeDegrees>-2.9458880983293056488037109375</LongitudeDegrees>
            </Position>
            <DistanceMeters>140.12391910297</DistanceMeters>
          </Trackpoint>
          <Trackpoint>
            <Time>2022-09-24T13:13:33.000Z</Time>
            <Position>
              <LatitudeDegrees>43.267570249736309051513671875</LatitudeDegrees>
              <LongitudeDegrees>-2.9458931274712085723876953125</LongitudeDegrees>
            </Position>
            <DistanceMeters>140.53813094784</DistanceMeters>
          </Trackpoint>
          <Trackpoint>
            <Time>2022-09-24T13:13:34.000Z</Time>
            <Position>
              <LatitudeDegrees>43.26757066883146762847900390625</LatitudeDegrees>
              <LongitudeDegrees>-2.94589689932763576507568359375</LongitudeDegrees>
            </Position>
            <DistanceMeters>140.86731314257</DistanceMeters>
          </Trackpoint>
          <Trackpoint>
            <Time>2022-09-24T13:13:35.000Z</Time>
            <Position>
              <LatitudeDegrees>43.26757133938372135162353515625</LatitudeDegrees>
              <LongitudeDegrees>-2.9458994977176189422607421875</LongitudeDegrees>
            </Position>
            <DistanceMeters>141.1187301967</DistanceMeters>
          </Trackpoint>
          <Trackpoint>
            <Time>2022-09-24T13:13:36.000Z</Time>
            <Position>
              <LatitudeDegrees>43.267572261393070220947265625</LatitudeDegrees>
              <LongitudeDegrees>-2.94590025208890438079833984375</LongitudeDegrees>
            </Position>
            <DistanceMeters>141.25311826495</DistanceMeters>
          </Trackpoint>
          <Trackpoint>
            <Time>2022-09-24T13:13:37.000Z</Time>
            <Position>
              <LatitudeDegrees>43.2675734348595142364501953125</LatitudeDegrees>
              <LongitudeDegrees>-2.9459001682698726654052734375</LongitudeDegrees>
            </Position>
            <DistanceMeters>141.3875063332</DistanceMeters>
          </Trackpoint>
          <Trackpoint>
            <Time>2022-09-24T13:13:38.000Z</Time>
            <Position>
              <LatitudeDegrees>43.26757502742111682891845703125</LatitudeDegrees>
              <LongitudeDegrees>-2.945900000631809234619140625</LongitudeDegrees>
            </Position>
            <DistanceMeters>141.55209743057</DistanceMeters>
          </Trackpoint>
          <Trackpoint>
            <Time>2022-09-24T13:13:39.000Z</Time>
            <Position>
              <LatitudeDegrees>43.2675761170685291290283203125</LatitudeDegrees>
              <LongitudeDegrees>-2.94589991681277751922607421875</LongitudeDegrees>
            </Position>
            <DistanceMeters>141.64712414494</DistanceMeters>
          </Trackpoint>
          <Trackpoint>
            <Time>2022-09-24T13:13:40.000Z</Time>
            <Position>
              <LatitudeDegrees>43.2675767876207828521728515625</LatitudeDegrees>
              <LongitudeDegrees>-2.94590276665985584259033203125</LongitudeDegrees>
            </Position>
            <DistanceMeters>141.87989110708</DistanceMeters>
          </Trackpoint>
          <Trackpoint>
            <Time>2022-09-24T13:13:41.000Z</Time>
            <Position>
              <LatitudeDegrees>43.267577625811100006103515625</LatitudeDegrees>
              <LongitudeDegrees>-2.945905029773712158203125</LongitudeDegrees>
            </Position>
            <DistanceMeters>142.11265806922</DistanceMeters>
          </Trackpoint>
          <Trackpoint>
            <Time>2022-09-24T13:13:42.000Z</Time>
            <Position>
              <LatitudeDegrees>43.26757854782044887542724609375</LatitudeDegrees>
              <LongitudeDegrees>-2.945906706154346466064453125</LongitudeDegrees>
            </Position>
            <DistanceMeters>142.30271149796</DistanceMeters>
          </Trackpoint>
          <Trackpoint>
            <Time>2022-09-24T13:13:43.000Z</Time>
            <Position>
              <LatitudeDegrees>43.26757938601076602935791015625</LatitudeDegrees>
              <LongitudeDegrees>-2.9459078796207904815673828125</LongitudeDegrees>
            </Position>
            <DistanceMeters>142.43709956621</DistanceMeters>
          </Trackpoint>
          <Trackpoint>
            <Time>2022-09-24T13:13:44.000Z</Time>
            <Position>
              <LatitudeDegrees>43.267580308020114898681640625</LatitudeDegrees>
              <LongitudeDegrees>-2.9459090530872344970703125</LongitudeDegrees>
            </Position>
            <DistanceMeters>142.57148763446</DistanceMeters>
          </Trackpoint>
          <Trackpoint>
            <Time>2022-09-24T13:13:45.000Z</Time>
            <Position>
              <LatitudeDegrees>43.26758106239140033721923828125</LatitudeDegrees>
              <LongitudeDegrees>-2.945910058915615081787109375</LongitudeDegrees>
            </Position>
            <DistanceMeters>142.7058757027</DistanceMeters>
          </Trackpoint>
          <Trackpoint>
            <Time>2022-09-24T13:13:46.000Z</Time>
            <Position>
              <LatitudeDegrees>43.26758173294365406036376953125</LatitudeDegrees>
              <LongitudeDegrees>-2.94591098092496395111083984375</LongitudeDegrees>
            </Position>
            <DistanceMeters>142.84026377095</DistanceMeters>
          </Trackpoint>
          <Trackpoint>
            <Time>2022-09-24T13:13:47.000Z</Time>
            <Position>
              <LatitudeDegrees>43.2675826549530029296875</LatitudeDegrees>
              <LongitudeDegrees>-2.94591114856302738189697265625</LongitudeDegrees>
            </Position>
            <DistanceMeters>142.93529048532</DistanceMeters>
          </Trackpoint>
          <Trackpoint>
            <Time>2022-09-24T13:13:48.000Z</Time>
            <Position>
              <LatitudeDegrees>43.26758374460041522979736328125</LatitudeDegrees>
              <LongitudeDegrees>-2.94591098092496395111083984375</LongitudeDegrees>
            </Position>
            <DistanceMeters>143.03031719969</DistanceMeters>
          </Trackpoint>
          <Trackpoint>
            <Time>2022-09-24T13:13:49.000Z</Time>
            <Position>
              <LatitudeDegrees>43.26758508570492267608642578125</LatitudeDegrees>
              <LongitudeDegrees>-2.94590997509658336639404296875</LongitudeDegrees>
            </Position>
            <DistanceMeters>143.19490829706</DistanceMeters>
          </Trackpoint>
          <Trackpoint>
            <Time>2022-09-24T13:13:50.000Z</Time>
            <Position>
              <LatitudeDegrees>43.26758642680943012237548828125</LatitudeDegrees>
              <LongitudeDegrees>-2.94590896926820278167724609375</LongitudeDegrees>
            </Position>
            <DistanceMeters>143.3849617258</DistanceMeters>
          </Trackpoint>
          <Trackpoint>
            <Time>2022-09-24T13:13:51.000Z</Time>
            <Position>
              <LatitudeDegrees>43.26758810319006443023681640625</LatitudeDegrees>
              <LongitudeDegrees>-2.94590712524950504302978515625</LongitudeDegrees>
            </Position>
            <DistanceMeters>143.63637877993</DistanceMeters>
          </Trackpoint>
          <Trackpoint>
            <Time>2022-09-24T13:13:52.000Z</Time>
            <Position>
              <LatitudeDegrees>43.26759011484682559967041015625</LatitudeDegrees>
              <LongitudeDegrees>-2.94590410776436328887939453125</LongitudeDegrees>
            </Position>
            <DistanceMeters>143.96556097466</DistanceMeters>
          </Trackpoint>
          <Trackpoint>
            <Time>2022-09-24T13:13:53.000Z</Time>
            <Position>
              <LatitudeDegrees>43.26759229414165019989013671875</LatitudeDegrees>
              <LongitudeDegrees>-2.94590058736503124237060546875</LongitudeDegrees>
            </Position>
            <DistanceMeters>144.34566783214</DistanceMeters>
          </Trackpoint>
          <Trackpoint>
            <Time>2022-09-24T13:13:54.000Z</Time>
            <Position>
              <LatitudeDegrees>43.267594389617443084716796875</LatitudeDegrees>
              <LongitudeDegrees>-2.94589606113731861114501953125</LongitudeDegrees>
            </Position>
            <DistanceMeters>144.78113494378</DistanceMeters>
          </Trackpoint>
          <Trackpoint>
            <Time>2022-09-24T13:13:55.000Z</Time>
            <Position>
              <LatitudeDegrees>43.2675969041883945465087890625</LatitudeDegrees>
              <LongitudeDegrees>-2.9458904452621936798095703125</LongitudeDegrees>
            </Position>
            <DistanceMeters>145.31868721678</DistanceMeters>
          </Trackpoint>
          <Trackpoint>
            <Time>2022-09-24T13:13:56.000Z</Time>
            <Position>
              <LatitudeDegrees>43.2675999216735363006591796875</LatitudeDegrees>
              <LongitudeDegrees>-2.94588332064449787139892578125</LongitudeDegrees>
            </Position>
            <DistanceMeters>145.99062755803</DistanceMeters>
          </Trackpoint>
          <Trackpoint>
            <Time>2022-09-24T13:13:57.000Z</Time>
            <Position>
              <LatitudeDegrees>43.2676029391586780548095703125</LatitudeDegrees>
              <LongitudeDegrees>-2.94587552547454833984375</LongitudeDegrees>
            </Position>
            <DistanceMeters>146.70806351845</DistanceMeters>
          </Trackpoint>
          <Trackpoint>
            <Time>2022-09-24T13:13:58.000Z</Time>
            <Position>
              <LatitudeDegrees>43.26760637573897838592529296875</LatitudeDegrees>
              <LongitudeDegrees>-2.94586680829524993896484375</LongitudeDegrees>
            </Position>
            <DistanceMeters>147.51439192795</DistanceMeters>
          </Trackpoint>
          <Trackpoint>
            <Time>2022-09-24T13:13:59.000Z</Time>
            <Position>
              <LatitudeDegrees>43.26760972850024700164794921875</LatitudeDegrees>
              <LongitudeDegrees>-2.945857755839824676513671875</LongitudeDegrees>
            </Position>
            <DistanceMeters>148.33734741478</DistanceMeters>
          </Trackpoint>
          <Trackpoint>
            <Time>2022-09-24T13:14:00.000Z</Time>
            <Position>
              <LatitudeDegrees>43.26761308126151561737060546875</LatitudeDegrees>
              <LongitudeDegrees>-2.94584861956536769866943359375</LongitudeDegrees>
            </Position>
            <DistanceMeters>149.17120344923</DistanceMeters>
          </Trackpoint>
          <Trackpoint>
            <Time>2022-09-24T13:14:01.000Z</Time>
            <Position>
              <LatitudeDegrees>43.2676166854798793792724609375</LatitudeDegrees>
              <LongitudeDegrees>-2.945838980376720428466796875</LongitudeDegrees>
            </Position>
            <DistanceMeters>150.05244494517</DistanceMeters>
          </Trackpoint>
          <Trackpoint>
            <Time>2022-09-24T13:14:02.000Z</Time>
            <Position>
              <LatitudeDegrees>43.26762079261243343353271484375</LatitudeDegrees>
              <LongitudeDegrees>-2.9458285868167877197265625</LongitudeDegrees>
            </Position>
            <DistanceMeters>151.00745160527</DistanceMeters>
          </Trackpoint>
          <Trackpoint>
            <Time>2022-09-24T13:14:03.000Z</Time>
            <Position>
              <LatitudeDegrees>43.26762481592595577239990234375</LatitudeDegrees>
              <LongitudeDegrees>-2.94581827707588672637939453125</LongitudeDegrees>
            </Position>
            <DistanceMeters>151.94816808302</DistanceMeters>
          </Trackpoint>
          <Trackpoint>
            <Time>2022-09-24T13:14:04.000Z</Time>
            <Position>
              <LatitudeDegrees>43.26762900687754154205322265625</LatitudeDegrees>
              <LongitudeDegrees>-2.94580805115401744842529296875</LongitudeDegrees>
            </Position>
            <DistanceMeters>152.89843522672</DistanceMeters>
          </Trackpoint>
          <Trackpoint>
            <Time>2022-09-24T13:14:05.000Z</Time>
            <Position>
              <LatitudeDegrees>43.26763319782912731170654296875</LatitudeDegrees>
              <LongitudeDegrees>-2.945797741413116455078125</LongitudeDegrees>
            </Position>
            <DistanceMeters>153.84870237042</DistanceMeters>
          </Trackpoint>
          <Trackpoint>
            <Time>2022-09-24T13:14:06.000Z</Time>
            <Position>
              <LatitudeDegrees>43.2676374725997447967529296875</LatitudeDegrees>
              <LongitudeDegrees>-2.94578743167221546173095703125</LongitudeDegrees>
            </Position>
            <DistanceMeters>154.80842514148</DistanceMeters>
          </Trackpoint>
          <Trackpoint>
            <Time>2022-09-24T13:14:07.000Z</Time>
            <Position>
              <LatitudeDegrees>43.26764124445617198944091796875</LatitudeDegrees>
              <LongitudeDegrees>-2.94577737338840961456298828125</LongitudeDegrees>
            </Position>
            <DistanceMeters>155.71988936614</DistanceMeters>
          </Trackpoint>
          <Trackpoint>
            <Time>2022-09-24T13:14:08.000Z</Time>
            <Position>
              <LatitudeDegrees>43.2676448486745357513427734375</LatitudeDegrees>
              <LongitudeDegrees>-2.9457677341997623443603515625</LongitudeDegrees>
            </Position>
            <DistanceMeters>156.59082358943</DistanceMeters>
          </Trackpoint>
          <Trackpoint>
            <Time>2022-09-24T13:14:09.000Z</Time>
            <Position>
              <LatitudeDegrees>43.2676483690738677978515625</LatitudeDegrees>
              <LongitudeDegrees>-2.94575809501111507415771484375</LongitudeDegrees>
            </Position>
            <DistanceMeters>157.46175781272</DistanceMeters>
          </Trackpoint>
          <Trackpoint>
            <Time>2022-09-24T13:14:10.000Z</Time>
            <Position>
              <LatitudeDegrees>43.2676518894731998443603515625</LatitudeDegrees>
              <LongitudeDegrees>-2.94574837200343608856201171875</LongitudeDegrees>
            </Position>
            <DistanceMeters>158.34299930867</DistanceMeters>
          </Trackpoint>
          <Trackpoint>
            <Time>2022-09-24T13:14:11.000Z</Time>
            <Position>
              <LatitudeDegrees>43.267655409872531890869140625</LatitudeDegrees>
              <LongitudeDegrees>-2.945738732814788818359375</LongitudeDegrees>
            </Position>
            <DistanceMeters>159.21393353195</DistanceMeters>
          </Trackpoint>
          <Trackpoint>
            <Time>2022-09-24T13:14:12.000Z</Time>
            <Position>
              <LatitudeDegrees>43.26765884645283222198486328125</LatitudeDegrees>
              <LongitudeDegrees>-2.94572926126420497894287109375</LongitudeDegrees>
            </Position>
            <DistanceMeters>160.06917396128</DistanceMeters>
          </Trackpoint>
          <Trackpoint>
            <Time>2022-09-24T13:14:13.000Z</Time>
            <Position>
              <LatitudeDegrees>43.26766219921410083770751953125</LatitudeDegrees>
              <LongitudeDegrees>-2.9457201249897480010986328125</LongitudeDegrees>
            </Position>
            <DistanceMeters>160.89759765103</DistanceMeters>
          </Trackpoint>
          <Trackpoint>
            <Time>2022-09-24T13:14:14.000Z</Time>
            <Position>
              <LatitudeDegrees>43.267665468156337738037109375</LatitudeDegrees>
              <LongitudeDegrees>-2.94571149162948131561279296875</LongitudeDegrees>
            </Position>
            <DistanceMeters>161.68120801224</DistanceMeters>
          </Trackpoint>
          <Trackpoint>
            <Time>2022-09-24T13:14:15.000Z</Time>
            <Position>
              <LatitudeDegrees>43.26766873709857463836669921875</LatitudeDegrees>
              <LongitudeDegrees>-2.94570294208824634552001953125</LongitudeDegrees>
            </Position>
            <DistanceMeters>162.46481837344</DistanceMeters>
          </Trackpoint>
          <Trackpoint>
            <Time>2022-09-24T13:14:16.000Z</Time>
            <Position>
              <LatitudeDegrees>43.26767183840274810791015625</LatitudeDegrees>
              <LongitudeDegrees>-2.9456944763660430908203125</LongitudeDegrees>
            </Position>
            <DistanceMeters>163.23094823767</DistanceMeters>
          </Trackpoint>
          <Trackpoint>
            <Time>2022-09-24T13:14:17.000Z</Time>
            <Position>
              <LatitudeDegrees>43.2676746882498264312744140625</LatitudeDegrees>
              <LongitudeDegrees>-2.9456859268248081207275390625</LongitudeDegrees>
            </Position>
            <DistanceMeters>163.99116195263</DistanceMeters>
          </Trackpoint>
          <Trackpoint>
            <Time>2022-09-24T13:14:18.000Z</Time>
            <Position>
              <LatitudeDegrees>43.26767762191593647003173828125</LatitudeDegrees>
              <LongitudeDegrees>-2.94567746110260486602783203125</LongitudeDegrees>
            </Position>
            <DistanceMeters>164.75137566759</DistanceMeters>
          </Trackpoint>
          <Trackpoint>
            <Time>2022-09-24T13:14:19.000Z</Time>
            <Position>
              <LatitudeDegrees>43.26768080703914165496826171875</LatitudeDegrees>
              <LongitudeDegrees>-2.9456688277423381805419921875</LongitudeDegrees>
            </Position>
            <DistanceMeters>165.53498602879</DistanceMeters>
          </Trackpoint>
          <Trackpoint>
            <Time>2022-09-24T13:14:20.000Z</Time>
            <Position>
              <LatitudeDegrees>43.2676837407052516937255859375</LatitudeDegrees>
              <LongitudeDegrees>-2.9456604458391666412353515625</LongitudeDegrees>
            </Position>
            <DistanceMeters>166.28322712598</DistanceMeters>
          </Trackpoint>
          <Trackpoint>
            <Time>2022-09-24T13:14:21.000Z</Time>
            <Position>
              <LatitudeDegrees>43.26768667437136173248291015625</LatitudeDegrees>
              <LongitudeDegrees>-2.94565223157405853271484375</LongitudeDegrees>
            </Position>
            <DistanceMeters>167.0254094911</DistanceMeters>
          </Trackpoint>
          <Trackpoint>
            <Time>2022-09-24T13:14:22.000Z</Time>
            <Position>
              <LatitudeDegrees>43.26768935658037662506103515625</LatitudeDegrees>
              <LongitudeDegrees>-2.94564443640410900115966796875</LongitudeDegrees>
            </Position>
            <DistanceMeters>167.72371037751</DistanceMeters>
          </Trackpoint>
          <Trackpoint>
            <Time>2022-09-24T13:14:23.000Z</Time>
            <Position>
              <LatitudeDegrees>43.26769187115132808685302734375</LatitudeDegrees>
              <LongitudeDegrees>-2.9456369765102863311767578125</LongitudeDegrees>
            </Position>
            <DistanceMeters>168.39565071876</DistanceMeters>
          </Trackpoint>
          <Trackpoint>
            <Time>2022-09-24T13:14:24.000Z</Time>
            <Position>
              <LatitudeDegrees>43.26769455336034297943115234375</LatitudeDegrees>
              <LongitudeDegrees>-2.9456299357116222381591796875</LongitudeDegrees>
            </Position>
            <DistanceMeters>169.04015325283</DistanceMeters>
          </Trackpoint>
          <Trackpoint>
            <Time>2022-09-24T13:14:25.000Z</Time>
            <Position>
              <LatitudeDegrees>43.2676971517503261566162109375</LatitudeDegrees>
              <LongitudeDegrees>-2.9456228949129581451416015625</LongitudeDegrees>
            </Position>
            <DistanceMeters>169.6846557869</DistanceMeters>
          </Trackpoint>
          <Trackpoint>
            <Time>2022-09-24T13:14:26.000Z</Time>
            <Position>
              <LatitudeDegrees>43.2677001692354679107666015625</LatitudeDegrees>
              <LongitudeDegrees>-2.9456135071814060211181640625</LongitudeDegrees>
            </Position>
            <DistanceMeters>170.51307947665</DistanceMeters>
          </Trackpoint>
          <Trackpoint>
            <Time>2022-09-24T13:14:27.000Z</Time>
            <Position>
              <LatitudeDegrees>43.2677031867206096649169921875</LatitudeDegrees>
              <LongitudeDegrees>-2.94560420326888561248779296875</LongitudeDegrees>
            </Position>
            <DistanceMeters>171.3415031664</DistanceMeters>
          </Trackpoint>
          <Trackpoint>
            <Time>2022-09-24T13:14:28.000Z</Time>
            <Position>
              <LatitudeDegrees>43.26770603656768798828125</LatitudeDegrees>
              <LongitudeDegrees>-2.94559515081346035003662109375</LongitudeDegrees>
            </Position>
            <DistanceMeters>172.13655370007</DistanceMeters>
          </Trackpoint>
          <Trackpoint>
            <Time>2022-09-24T13:14:29.000Z</Time>
            <Position>
              <LatitudeDegrees>43.267709054052829742431640625</LatitudeDegrees>
              <LongitudeDegrees>-2.9455860145390033721923828125</LongitudeDegrees>
            </Position>
            <DistanceMeters>172.95400440614</DistanceMeters>
          </Trackpoint>
          <Trackpoint>
            <Time>2022-09-24T13:14:30.000Z</Time>
            <Position>
              <LatitudeDegrees>43.2677119038999080657958984375</LatitudeDegrees>
              <LongitudeDegrees>-2.94557712972164154052734375</LongitudeDegrees>
            </Position>
            <DistanceMeters>173.73761476734</DistanceMeters>
          </Trackpoint>
          <Trackpoint>
            <Time>2022-09-24T13:14:31.000Z</Time>
            <Position>
              <LatitudeDegrees>43.26771475374698638916015625</LatitudeDegrees>
              <LongitudeDegrees>-2.945568077266216278076171875</LongitudeDegrees>
            </Position>
            <DistanceMeters>174.532665301</DistanceMeters>
          </Trackpoint>
          <Trackpoint>
            <Time>2022-09-24T13:14:32.000Z</Time>
            <Position>
              <LatitudeDegrees>43.26771819032728672027587890625</LatitudeDegrees>
              <LongitudeDegrees>-2.9455591924488544464111328125</LongitudeDegrees>
            </Position>
            <DistanceMeters>175.35011600707</DistanceMeters>
          </Trackpoint>
          <Trackpoint>
            <Time>2022-09-24T13:14:33.000Z</Time>
            <Position>
              <LatitudeDegrees>43.26772120781242847442626953125</LatitudeDegrees>
              <LongitudeDegrees>-2.94555156491696834564208984375</LongitudeDegrees>
            </Position>
            <DistanceMeters>176.04841689349</DistanceMeters>
          </Trackpoint>
          <Trackpoint>
            <Time>2022-09-24T13:14:34.000Z</Time>
            <Position>
              <LatitudeDegrees>43.26772338710725307464599609375</LatitudeDegrees>
              <LongitudeDegrees>-2.94554519467055797576904296875</LongitudeDegrees>
            </Position>
            <DistanceMeters>176.61857717971</DistanceMeters>
          </Trackpoint>
          <Trackpoint>
            <Time>2022-09-24T13:14:48.000Z</Time>
            <Position>
              <LatitudeDegrees>43.26775364577770233154296875</LatitudeDegrees>
              <LongitudeDegrees>-2.9454418458044528961181640625</LongitudeDegrees>
            </Position>
            <DistanceMeters>185.64661517161</DistanceMeters>
          </Trackpoint>
          <Trackpoint>
            <Time>2022-09-24T13:14:49.000Z</Time>
            <Position>
              <LatitudeDegrees>43.26775724999606609344482421875</LatitudeDegrees>
              <LongitudeDegrees>-2.94543187133967876434326171875</LongitudeDegrees>
            </Position>
            <DistanceMeters>186.54811773952</DistanceMeters>
          </Trackpoint>
          <Trackpoint>
            <Time>2022-09-24T13:14:50.000Z</Time>
            <Position>
              <LatitudeDegrees>43.26776077039539813995361328125</LatitudeDegrees>
              <LongitudeDegrees>-2.9454223997890949249267578125</LongitudeDegrees>
            </Position>
            <DistanceMeters>187.40862123655</DistanceMeters>
          </Trackpoint>
          <Trackpoint>
            <Time>2022-09-24T13:14:51.000Z</Time>
            <Position>
              <LatitudeDegrees>43.2677642069756984710693359375</LatitudeDegrees>
              <LongitudeDegrees>-2.945413179695606231689453125</LongitudeDegrees>
            </Position>
            <DistanceMeters>188.25323714871</DistanceMeters>
          </Trackpoint>
          <Trackpoint>
            <Time>2022-09-24T13:14:52.000Z</Time>
            <Position>
              <LatitudeDegrees>43.2677668891847133636474609375</LatitudeDegrees>
              <LongitudeDegrees>-2.94540538452565670013427734375</LongitudeDegrees>
            </Position>
            <DistanceMeters>188.95153803513</DistanceMeters>
          </Trackpoint>
          <Trackpoint>
            <Time>2022-09-24T13:14:53.000Z</Time>
            <Position>
              <LatitudeDegrees>43.26776965521275997161865234375</LatitudeDegrees>
              <LongitudeDegrees>-2.94539717026054859161376953125</LongitudeDegrees>
            </Position>
            <DistanceMeters>189.68761179953</DistanceMeters>
          </Trackpoint>
          <Trackpoint>
            <Time>2022-09-24T13:14:54.000Z</Time>
            <Position>
              <LatitudeDegrees>43.26777242124080657958984375</LatitudeDegrees>
              <LongitudeDegrees>-2.94538895599544048309326171875</LongitudeDegrees>
            </Position>
            <DistanceMeters>190.42368556393</DistanceMeters>
          </Trackpoint>
          <Trackpoint>
            <Time>2022-09-24T13:14:55.000Z</Time>
            <Position>
              <LatitudeDegrees>43.26777518726885318756103515625</LatitudeDegrees>
              <LongitudeDegrees>-2.94538040645420551300048828125</LongitudeDegrees>
            </Position>
            <DistanceMeters>191.18389927889</DistanceMeters>
          </Trackpoint>
          <Trackpoint>
            <Time>2022-09-24T13:14:56.000Z</Time>
            <Position>
              <LatitudeDegrees>43.2677779532968997955322265625</LatitudeDegrees>
              <LongitudeDegrees>-2.94537185691297054290771484375</LongitudeDegrees>
            </Position>
            <DistanceMeters>191.93815044128</DistanceMeters>
          </Trackpoint>
          <Trackpoint>
            <Time>2022-09-24T13:14:57.000Z</Time>
            <Position>
              <LatitudeDegrees>43.26778071932494640350341796875</LatitudeDegrees>
              <LongitudeDegrees>-2.94536297209560871124267578125</LongitudeDegrees>
            </Position>
            <DistanceMeters>192.72176080249</DistanceMeters>
          </Trackpoint>
          <Trackpoint>
            <Time>2022-09-24T13:14:58.000Z</Time>
            <Position>
              <LatitudeDegrees>43.2677836529910564422607421875</LatitudeDegrees>
              <LongitudeDegrees>-2.9453540034592151641845703125</LongitudeDegrees>
            </Position>
            <DistanceMeters>193.51681133615</DistanceMeters>
          </Trackpoint>
          <Trackpoint>
            <Time>2022-09-24T13:14:59.000Z</Time>
            <Position>
              <LatitudeDegrees>43.267786502838134765625</LatitudeDegrees>
              <LongitudeDegrees>-2.94534503482282161712646484375</LongitudeDegrees>
            </Position>
            <DistanceMeters>194.30616250935</DistanceMeters>
          </Trackpoint>
          <Trackpoint>
            <Time>2022-09-24T13:15:00.000Z</Time>
            <Position>
              <LatitudeDegrees>43.267789520323276519775390625</LatitudeDegrees>
              <LongitudeDegrees>-2.94533581472933292388916015625</LongitudeDegrees>
            </Position>
            <DistanceMeters>195.12361321542</DistanceMeters>
          </Trackpoint>
          <Trackpoint>
            <Time>2022-09-24T13:15:01.000Z</Time>
            <Position>
              <LatitudeDegrees>43.2677923701703548431396484375</LatitudeDegrees>
              <LongitudeDegrees>-2.94532659463584423065185546875</LongitudeDegrees>
            </Position>
            <DistanceMeters>195.9355218189</DistanceMeters>
          </Trackpoint>
          <Trackpoint>
            <Time>2022-09-24T13:15:02.000Z</Time>
            <Position>
              <LatitudeDegrees>43.26779530383646488189697265625</LatitudeDegrees>
              <LongitudeDegrees>-2.94531720690429210662841796875</LongitudeDegrees>
            </Position>
            <DistanceMeters>196.76394550865</DistanceMeters>
          </Trackpoint>
          <Trackpoint>
            <Time>2022-09-24T13:15:03.000Z</Time>
            <Position>
              <LatitudeDegrees>43.26779815368354320526123046875</LatitudeDegrees>
              <LongitudeDegrees>-2.945307902991771697998046875</LongitudeDegrees>
            </Position>
            <DistanceMeters>197.58139621472</DistanceMeters>
          </Trackpoint>
          <Trackpoint>
            <Time>2022-09-24T13:15:04.000Z</Time>
            <Position>
              <LatitudeDegrees>43.26780100353062152862548828125</LatitudeDegrees>
              <LongitudeDegrees>-2.945298515260219573974609375</LongitudeDegrees>
            </Position>
            <DistanceMeters>198.40435170155</DistanceMeters>
          </Trackpoint>
          <Trackpoint>
            <Time>2022-09-24T13:15:05.000Z</Time>
            <Position>
              <LatitudeDegrees>43.26780402101576328277587890625</LatitudeDegrees>
              <LongitudeDegrees>-2.94528854079544544219970703125</LongitudeDegrees>
            </Position>
            <DistanceMeters>199.27528592484</DistanceMeters>
          </Trackpoint>
          <Trackpoint>
            <Time>2022-09-24T13:15:06.000Z</Time>
            <Position>
              <LatitudeDegrees>43.2678067870438098907470703125</LatitudeDegrees>
              <LongitudeDegrees>-2.9452782310545444488525390625</LongitudeDegrees>
            </Position>
            <DistanceMeters>200.16671552221</DistanceMeters>
          </Trackpoint>
          <Trackpoint>
            <Time>2022-09-24T13:15:07.000Z</Time>
            <Position>
              <LatitudeDegrees>43.2678091339766979217529296875</LatitudeDegrees>
              <LongitudeDegrees>-2.94527026824653148651123046875</LongitudeDegrees>
            </Position>
            <DistanceMeters>200.85852044524</DistanceMeters>
          </Trackpoint>
          <Trackpoint>
            <Time>2022-09-24T13:15:08.000Z</Time>
            <Position>
              <LatitudeDegrees>43.2678114809095859527587890625</LatitudeDegrees>
              <LongitudeDegrees>-2.94526205398142337799072265625</LongitudeDegrees>
            </Position>
            <DistanceMeters>201.56963526076</DistanceMeters>
          </Trackpoint>
          <Trackpoint>
            <Time>2022-09-24T13:15:09.000Z</Time>
            <Position>
              <LatitudeDegrees>43.2678138278424739837646484375</LatitudeDegrees>
              <LongitudeDegrees>-2.94525383971631526947021484375</LongitudeDegrees>
            </Position>
            <DistanceMeters>202.28707122118</DistanceMeters>
          </Trackpoint>
          <Trackpoint>
            <Time>2022-09-24T13:15:10.000Z</Time>
            <Position>
              <LatitudeDegrees>43.26781609095633029937744140625</LatitudeDegrees>
              <LongitudeDegrees>-2.94524562545120716094970703125</LongitudeDegrees>
            </Position>
            <DistanceMeters>202.99818603671</DistanceMeters>
          </Trackpoint>
          <Trackpoint>
            <Time>2022-09-24T13:15:11.000Z</Time>
            <Position>
              <LatitudeDegrees>43.26781860552728176116943359375</LatitudeDegrees>
              <LongitudeDegrees>-2.94523741118609905242919921875</LongitudeDegrees>
            </Position>
            <DistanceMeters>203.72188793235</DistanceMeters>
          </Trackpoint>
          <Trackpoint>
            <Time>2022-09-24T13:15:12.000Z</Time>
            <Position>
              <LatitudeDegrees>43.26782128773629665374755859375</LatitudeDegrees>
              <LongitudeDegrees>-2.94522852636873722076416015625</LongitudeDegrees>
            </Position>
            <DistanceMeters>204.49388860936</DistanceMeters>
          </Trackpoint>
          <Trackpoint>
            <Time>2022-09-24T13:15:13.000Z</Time>
            <Position>
              <LatitudeDegrees>43.26782363466918468475341796875</LatitudeDegrees>
              <LongitudeDegrees>-2.945220060646533966064453125</LongitudeDegrees>
            </Position>
            <DistanceMeters>205.22996237376</DistanceMeters>
          </Trackpoint>
          <Trackpoint>
            <Time>2022-09-24T13:15:14.000Z</Time>
            <Position>
              <LatitudeDegrees>43.2678258977830410003662109375</LatitudeDegrees>
              <LongitudeDegrees>-2.9452116787433624267578125</LongitudeDegrees>
            </Position>
            <DistanceMeters>205.95366426939</DistanceMeters>
          </Trackpoint>
          <Trackpoint>
            <Time>2022-09-24T13:15:15.000Z</Time>
            <Position>
              <LatitudeDegrees>43.2678275741636753082275390625</LatitudeDegrees>
              <LongitudeDegrees>-2.9452037997543811798095703125</LongitudeDegrees>
            </Position>
            <DistanceMeters>206.61202865885</DistanceMeters>
          </Trackpoint>
          <Trackpoint>
            <Time>2022-09-24T13:15:16.000Z</Time>
            <Position>
              <LatitudeDegrees>43.267829418182373046875</LatitudeDegrees>
              <LongitudeDegrees>-2.9451960884034633636474609375</LongitudeDegrees>
            </Position>
            <DistanceMeters>207.25653119292</DistanceMeters>
          </Trackpoint>
          <Trackpoint>
            <Time>2022-09-24T13:15:17.000Z</Time>
            <Position>
              <LatitudeDegrees>43.2678312622010707855224609375</LatitudeDegrees>
              <LongitudeDegrees>-2.94518829323351383209228515625</LongitudeDegrees>
            </Position>
            <DistanceMeters>207.91489558238</DistanceMeters>
          </Trackpoint>
          <Trackpoint>
            <Time>2022-09-24T13:15:18.000Z</Time>
            <Position>
              <LatitudeDegrees>43.26783277094364166259765625</LatitudeDegrees>
              <LongitudeDegrees>-2.9451806657016277313232421875</LongitudeDegrees>
            </Position>
            <DistanceMeters>208.55235416141</DistanceMeters>
          </Trackpoint>
          <Trackpoint>
            <Time>2022-09-24T13:15:19.000Z</Time>
            <Position>
              <LatitudeDegrees>43.26783402822911739349365234375</LatitudeDegrees>
              <LongitudeDegrees>-2.94517287053167819976806640625</LongitudeDegrees>
            </Position>
            <DistanceMeters>209.19685669548</DistanceMeters>
          </Trackpoint>
          <Trackpoint>
            <Time>2022-09-24T13:15:20.000Z</Time>
            <Position>
              <LatitudeDegrees>43.26783520169556140899658203125</LatitudeDegrees>
              <LongitudeDegrees>-2.94516532681882381439208984375</LongitudeDegrees>
            </Position>
            <DistanceMeters>209.81998853313</DistanceMeters>
          </Trackpoint>
          <Trackpoint>
            <Time>2022-09-24T13:15:21.000Z</Time>
            <Position>
              <LatitudeDegrees>43.2678362913429737091064453125</LatitudeDegrees>
              <LongitudeDegrees>-2.94515778310596942901611328125</LongitudeDegrees>
            </Position>
            <DistanceMeters>210.43583202838</DistanceMeters>
          </Trackpoint>
          <Trackpoint>
            <Time>2022-09-24T13:15:22.000Z</Time>
            <Position>
              <LatitudeDegrees>43.267837464809417724609375</LatitudeDegrees>
              <LongitudeDegrees>-2.9451501555740833282470703125</LongitudeDegrees>
            </Position>
            <DistanceMeters>211.06616794164</DistanceMeters>
          </Trackpoint>
          <Trackpoint>
            <Time>2022-09-24T13:15:23.000Z</Time>
            <Position>
              <LatitudeDegrees>43.26783872209489345550537109375</LatitudeDegrees>
              <LongitudeDegrees>-2.945142276585102081298828125</LongitudeDegrees>
            </Position>
            <DistanceMeters>211.71763827317</DistanceMeters>
          </Trackpoint>
          <Trackpoint>
            <Time>2022-09-24T13:15:24.000Z</Time>
            <Position>
              <LatitudeDegrees>43.2678401470184326171875</LatitudeDegrees>
              <LongitudeDegrees>-2.9451340623199939727783203125</LongitudeDegrees>
            </Position>
            <DistanceMeters>212.38957861442</DistanceMeters>
          </Trackpoint>
          <Trackpoint>
            <Time>2022-09-24T13:15:25.000Z</Time>
            <Position>
              <LatitudeDegrees>43.26784173958003520965576171875</LatitudeDegrees>
              <LongitudeDegrees>-2.94512593187391757965087890625</LongitudeDegrees>
            </Position>
            <DistanceMeters>213.06820509389</DistanceMeters>
          </Trackpoint>
          <Trackpoint>
            <Time>2022-09-24T13:15:26.000Z</Time>
            <Position>
              <LatitudeDegrees>43.26784308068454265594482421875</LatitudeDegrees>
              <LongitudeDegrees>-2.945118136703968048095703125</LongitudeDegrees>
            </Position>
            <DistanceMeters>213.71967542542</DistanceMeters>
          </Trackpoint>
          <Trackpoint>
            <Time>2022-09-24T13:15:27.000Z</Time>
            <Position>
              <LatitudeDegrees>43.26784475706517696380615234375</LatitudeDegrees>
              <LongitudeDegrees>-2.94511000625789165496826171875</LongitudeDegrees>
            </Position>
            <DistanceMeters>214.40492280782</DistanceMeters>
          </Trackpoint>
          <Trackpoint>
            <Time>2022-09-24T13:15:28.000Z</Time>
            <Position>
              <LatitudeDegrees>43.26784643344581127166748046875</LatitudeDegrees>
              <LongitudeDegrees>-2.94510212726891040802001953125</LongitudeDegrees>
            </Position>
            <DistanceMeters>215.06328719728</DistanceMeters>
          </Trackpoint>
          <Trackpoint>
            <Time>2022-09-24T13:15:29.000Z</Time>
            <Position>
              <LatitudeDegrees>43.26784827746450901031494140625</LatitudeDegrees>
              <LongitudeDegrees>-2.94509374536573886871337890625</LongitudeDegrees>
            </Position>
            <DistanceMeters>215.76802417262</DistanceMeters>
          </Trackpoint>
          <Trackpoint>
            <Time>2022-09-24T13:15:30.000Z</Time>
            <Position>
              <LatitudeDegrees>43.26785020530223846435546875</LatitudeDegrees>
              <LongitudeDegrees>-2.94508536346256732940673828125</LongitudeDegrees>
            </Position>
            <DistanceMeters>216.47913898815</DistanceMeters>
          </Trackpoint>
          <Trackpoint>
            <Time>2022-09-24T13:15:31.000Z</Time>
            <Position>
              <LatitudeDegrees>43.2678520493209362030029296875</LatitudeDegrees>
              <LongitudeDegrees>-2.94507698155939579010009765625</LongitudeDegrees>
            </Position>
            <DistanceMeters>217.19025380368</DistanceMeters>
          </Trackpoint>
          <Trackpoint>
            <Time>2022-09-24T13:15:32.000Z</Time>
            <Position>
              <LatitudeDegrees>43.267853893339633941650390625</LatitudeDegrees>
              <LongitudeDegrees>-2.945068180561065673828125</LongitudeDegrees>
            </Position>
            <DistanceMeters>217.93243616879</DistanceMeters>
          </Trackpoint>
          <Trackpoint>
            <Time>2022-09-24T13:15:33.000Z</Time>
            <Position>
              <LatitudeDegrees>43.2678560726344585418701171875</LatitudeDegrees>
              <LongitudeDegrees>-2.94505887664854526519775390625</LongitudeDegrees>
            </Position>
            <DistanceMeters>218.72748670245</DistanceMeters>
          </Trackpoint>
          <Trackpoint>
            <Time>2022-09-24T13:15:34.000Z</Time>
            <Position>
              <LatitudeDegrees>43.26785825192928314208984375</LatitudeDegrees>
              <LongitudeDegrees>-2.94504982419312000274658203125</LongitudeDegrees>
            </Position>
            <DistanceMeters>219.49948737946</DistanceMeters>
          </Trackpoint>
          <Trackpoint>
            <Time>2022-09-24T13:15:35.000Z</Time>
            <Position>
              <LatitudeDegrees>43.26786051504313945770263671875</LatitudeDegrees>
              <LongitudeDegrees>-2.94504068791866302490234375</LongitudeDegrees>
            </Position>
            <DistanceMeters>220.28309774066</DistanceMeters>
          </Trackpoint>
          <Trackpoint>
            <Time>2022-09-24T13:15:36.000Z</Time>
            <Position>
              <LatitudeDegrees>43.26786269433796405792236328125</LatitudeDegrees>
              <LongitudeDegrees>-2.94503205455839633941650390625</LongitudeDegrees>
            </Position>
            <DistanceMeters>221.03133883786</DistanceMeters>
          </Trackpoint>
          <Trackpoint>
            <Time>2022-09-24T13:15:37.000Z</Time>
            <Position>
              <LatitudeDegrees>43.26786520890891551971435546875</LatitudeDegrees>
              <LongitudeDegrees>-2.94502325356006622314453125</LongitudeDegrees>
            </Position>
            <DistanceMeters>221.80333951486</DistanceMeters>
          </Trackpoint>
          <Trackpoint>
            <Time>2022-09-24T13:15:38.000Z</Time>
            <Position>
              <LatitudeDegrees>43.26786763966083526611328125</LatitudeDegrees>
              <LongitudeDegrees>-2.945014871656894683837890625</LongitudeDegrees>
            </Position>
            <DistanceMeters>222.53941327926</DistanceMeters>
          </Trackpoint>
          <Trackpoint>
            <Time>2022-09-24T13:15:39.000Z</Time>
            <Position>
              <LatitudeDegrees>43.26787032186985015869140625</LatitudeDegrees>
              <LongitudeDegrees>-2.9450063221156597137451171875</LongitudeDegrees>
            </Position>
            <DistanceMeters>223.29962699422</DistanceMeters>
          </Trackpoint>
          <Trackpoint>
            <Time>2022-09-24T13:15:40.000Z</Time>
            <Position>
              <LatitudeDegrees>43.26787308789789676666259765625</LatitudeDegrees>
              <LongitudeDegrees>-2.94499785639345645904541015625</LongitudeDegrees>
            </Position>
            <DistanceMeters>224.05387815661</DistanceMeters>
          </Trackpoint>
          <Trackpoint>
            <Time>2022-09-24T13:15:41.000Z</Time>
            <Position>
              <LatitudeDegrees>43.26787577010691165924072265625</LatitudeDegrees>
              <LongitudeDegrees>-2.94498930685222148895263671875</LongitudeDegrees>
            </Position>
            <DistanceMeters>224.80812931901</DistanceMeters>
          </Trackpoint>
          <Trackpoint>
            <Time>2022-09-24T13:15:42.000Z</Time>
            <Position>
              <LatitudeDegrees>43.26787845231592655181884765625</LatitudeDegrees>
              <LongitudeDegrees>-2.94498075731098651885986328125</LongitudeDegrees>
            </Position>
            <DistanceMeters>225.56834303397</DistanceMeters>
          </Trackpoint>
          <Trackpoint>
            <Time>2022-09-24T13:15:43.000Z</Time>
            <Position>
              <LatitudeDegrees>43.2678815536201000213623046875</LatitudeDegrees>
              <LongitudeDegrees>-2.94497170485556125640869140625</LongitudeDegrees>
            </Position>
            <DistanceMeters>226.37467144346</DistanceMeters>
          </Trackpoint>
          <Trackpoint>
            <Time>2022-09-24T13:15:44.000Z</Time>
            <Position>
              <LatitudeDegrees>43.26788465492427349090576171875</LatitudeDegrees>
              <LongitudeDegrees>-2.94496265240013599395751953125</LongitudeDegrees>
            </Position>
            <DistanceMeters>227.18099985296</DistanceMeters>
          </Trackpoint>
          <Trackpoint>
            <Time>2022-09-24T13:15:45.000Z</Time>
            <Position>
              <LatitudeDegrees>43.26788800768554210662841796875</LatitudeDegrees>
              <LongitudeDegrees>-2.9449530132114887237548828125</LongitudeDegrees>
            </Position>
            <DistanceMeters>228.04150335</DistanceMeters>
          </Trackpoint>
          <Trackpoint>
            <Time>2022-09-24T13:15:46.000Z</Time>
            <Position>
              <LatitudeDegrees>43.26789136044681072235107421875</LatitudeDegrees>
              <LongitudeDegrees>-2.94494387693703174591064453125</LongitudeDegrees>
            </Position>
            <DistanceMeters>228.86992703975</DistanceMeters>
          </Trackpoint>
          <Trackpoint>
            <Time>2022-09-24T13:15:47.000Z</Time>
            <Position>
              <LatitudeDegrees>43.26789504848420619964599609375</LatitudeDegrees>
              <LongitudeDegrees>-2.94493474066257476806640625</LongitudeDegrees>
            </Position>
            <DistanceMeters>229.70918025697</DistanceMeters>
          </Trackpoint>
          <Trackpoint>
            <Time>2022-09-24T13:15:48.000Z</Time>
            <Position>
              <LatitudeDegrees>43.26789890415966510772705078125</LatitudeDegrees>
              <LongitudeDegrees>-2.9449255205690860748291015625</LongitudeDegrees>
            </Position>
            <DistanceMeters>230.56968375401</DistanceMeters>
          </Trackpoint>
          <Trackpoint>
            <Time>2022-09-24T13:15:49.000Z</Time>
            <Position>
              <LatitudeDegrees>43.26790275983512401580810546875</LatitudeDegrees>
              <LongitudeDegrees>-2.94491671957075595855712890625</LongitudeDegrees>
            </Position>
            <DistanceMeters>231.39810744376</DistanceMeters>
          </Trackpoint>
          <Trackpoint>
            <Time>2022-09-24T13:15:50.000Z</Time>
            <Position>
              <LatitudeDegrees>43.26790678314864635467529296875</LatitudeDegrees>
              <LongitudeDegrees>-2.94490733183920383453369140625</LongitudeDegrees>
            </Position>
            <DistanceMeters>232.27934893971</DistanceMeters>
          </Trackpoint>
          <Trackpoint>
            <Time>2022-09-24T13:15:51.000Z</Time>
            <Position>
              <LatitudeDegrees>43.2679107226431369781494140625</LatitudeDegrees>
              <LongitudeDegrees>-2.94489794410765171051025390625</LongitudeDegrees>
            </Position>
            <DistanceMeters>233.16059043565</DistanceMeters>
          </Trackpoint>
          <Trackpoint>
            <Time>2022-09-24T13:15:52.000Z</Time>
            <Position>
              <LatitudeDegrees>43.26791449449956417083740234375</LatitudeDegrees>
              <LongitudeDegrees>-2.94488872401416301727294921875</LongitudeDegrees>
            </Position>
            <DistanceMeters>234.02109393268</DistanceMeters>
          </Trackpoint>
          <Trackpoint>
            <Time>2022-09-24T13:15:53.000Z</Time>
            <Position>
              <LatitudeDegrees>43.2679180987179279327392578125</LatitudeDegrees>
              <LongitudeDegrees>-2.94487983919680118560791015625</LongitudeDegrees>
            </Position>
            <DistanceMeters>234.83854463875</DistanceMeters>
          </Trackpoint>
          <Trackpoint>
            <Time>2022-09-24T13:15:54.000Z</Time>
            <Position>
              <LatitudeDegrees>43.26792187057435512542724609375</LatitudeDegrees>
              <LongitudeDegrees>-2.94487078674137592315673828125</LongitudeDegrees>
            </Position>
            <DistanceMeters>235.67779785598</DistanceMeters>
          </Trackpoint>
          <Trackpoint>
            <Time>2022-09-24T13:15:55.000Z</Time>
            <Position>
              <LatitudeDegrees>43.26792555861175060272216796875</LatitudeDegrees>
              <LongitudeDegrees>-2.94486123137176036834716796875</LongitudeDegrees>
            </Position>
            <DistanceMeters>236.54873207927</DistanceMeters>
          </Trackpoint>
          <Trackpoint>
            <Time>2022-09-24T13:15:56.000Z</Time>
            <Position>
              <LatitudeDegrees>43.26792933046817779541015625</LatitudeDegrees>
              <LongitudeDegrees>-2.94485100544989109039306640625</LongitudeDegrees>
            </Position>
            <DistanceMeters>237.4749379215</DistanceMeters>
          </Trackpoint>
          <Trackpoint>
            <Time>2022-09-24T13:15:57.000Z</Time>
            <Position>
              <LatitudeDegrees>43.26793326996266841888427734375</LatitudeDegrees>
              <LongitudeDegrees>-2.94484077952802181243896484375</LongitudeDegrees>
            </Position>
            <DistanceMeters>238.4108425187</DistanceMeters>
          </Trackpoint>
          <Trackpoint>
            <Time>2022-09-24T13:15:58.000Z</Time>
            <Position>
              <LatitudeDegrees>43.26793729327619075775146484375</LatitudeDegrees>
              <LongitudeDegrees>-2.94483021833002567291259765625</LongitudeDegrees>
            </Position>
            <DistanceMeters>239.37056528975</DistanceMeters>
          </Trackpoint>
          <Trackpoint>
            <Time>2022-09-24T13:15:59.000Z</Time>
            <Position>
              <LatitudeDegrees>43.26794140040874481201171875</LatitudeDegrees>
              <LongitudeDegrees>-2.9448200762271881103515625</LongitudeDegrees>
            </Position>
            <DistanceMeters>240.3112817675</DistanceMeters>
          </Trackpoint>
          <Trackpoint>
            <Time>2022-09-24T13:16:00.000Z</Time>
            <Position>
              <LatitudeDegrees>43.2679455913603305816650390625</LatitudeDegrees>
              <LongitudeDegrees>-2.944809682667255401611328125</LongitudeDegrees>
            </Position>
            <DistanceMeters>241.27100453856</DistanceMeters>
          </Trackpoint>
          <Trackpoint>
            <Time>2022-09-24T13:16:01.000Z</Time>
            <Position>
              <LatitudeDegrees>43.26794969849288463592529296875</LatitudeDegrees>
              <LongitudeDegrees>-2.944799624383449554443359375</LongitudeDegrees>
            </Position>
            <DistanceMeters>242.20690913576</DistanceMeters>
          </Trackpoint>
          <Trackpoint>
            <Time>2022-09-24T13:16:02.000Z</Time>
            <Position>
              <LatitudeDegrees>43.26795388944447040557861328125</LatitudeDegrees>
              <LongitudeDegrees>-2.94478897936642169952392578125</LongitudeDegrees>
            </Position>
            <DistanceMeters>243.18526904043</DistanceMeters>
          </Trackpoint>
          <Trackpoint>
            <Time>2022-09-24T13:16:03.000Z</Time>
            <Position>
              <LatitudeDegrees>43.26795791275799274444580078125</LatitudeDegrees>
              <LongitudeDegrees>-2.94477892108261585235595703125</LongitudeDegrees>
            </Position>
            <DistanceMeters>244.12117363763</DistanceMeters>
          </Trackpoint>
          <Trackpoint>
            <Time>2022-09-24T13:16:04.000Z</Time>
            <Position>
              <LatitudeDegrees>43.2679620198905467987060546875</LatitudeDegrees>
              <LongitudeDegrees>-2.944768778979778289794921875</LongitudeDegrees>
            </Position>
            <DistanceMeters>245.06189011538</DistanceMeters>
          </Trackpoint>
          <Trackpoint>
            <Time>2022-09-24T13:16:05.000Z</Time>
            <Position>
              <LatitudeDegrees>43.2679660432040691375732421875</LatitudeDegrees>
              <LongitudeDegrees>-2.94475897215306758880615234375</LongitudeDegrees>
            </Position>
            <DistanceMeters>245.97335434004</DistanceMeters>
          </Trackpoint>
          <Trackpoint>
            <Time>2022-09-24T13:16:06.000Z</Time>
            <Position>
              <LatitudeDegrees>43.26796998269855976104736328125</LatitudeDegrees>
              <LongitudeDegrees>-2.94474899768829345703125</LongitudeDegrees>
            </Position>
            <DistanceMeters>246.88975878639</DistanceMeters>
          </Trackpoint>
          <Trackpoint>
            <Time>2022-09-24T13:16:07.000Z</Time>
            <Position>
              <LatitudeDegrees>43.26797367073595523834228515625</LatitudeDegrees>
              <LongitudeDegrees>-2.94473902322351932525634765625</LongitudeDegrees>
            </Position>
            <DistanceMeters>247.7912613543</DistanceMeters>
          </Trackpoint>
          <Trackpoint>
            <Time>2022-09-24T13:16:08.000Z</Time>
            <Position>
              <LatitudeDegrees>43.2679771073162555694580078125</LatitudeDegrees>
              <LongitudeDegrees>-2.9447288811206817626953125</LongitudeDegrees>
            </Position>
            <DistanceMeters>248.6977584345</DistanceMeters>
          </Trackpoint>
          <Trackpoint>
            <Time>2022-09-24T13:16:09.000Z</Time>
            <Position>
              <LatitudeDegrees>43.26798020862042903900146484375</LatitudeDegrees>
              <LongitudeDegrees>-2.94471873901784420013427734375</LongitudeDegrees>
            </Position>
            <DistanceMeters>249.58918803187</DistanceMeters>
          </Trackpoint>
          <Trackpoint>
            <Time>2022-09-24T13:16:10.000Z</Time>
            <Position>
              <LatitudeDegrees>43.26798322610557079315185546875</LatitudeDegrees>
              <LongitudeDegrees>-2.944708764553070068359375</LongitudeDegrees>
            </Position>
            <DistanceMeters>250.46012225516</DistanceMeters>
          </Trackpoint>
          <Trackpoint>
            <Time>2022-09-24T13:16:11.000Z</Time>
            <Position>
              <LatitudeDegrees>43.26798624359071254730224609375</LatitudeDegrees>
              <LongitudeDegrees>-2.94469895772635936737060546875</LongitudeDegrees>
            </Position>
            <DistanceMeters>251.32062575219</DistanceMeters>
          </Trackpoint>
          <Trackpoint>
            <Time>2022-09-24T13:16:12.000Z</Time>
            <Position>
              <LatitudeDegrees>43.26798942871391773223876953125</LatitudeDegrees>
              <LongitudeDegrees>-2.94468873180449008941650390625</LongitudeDegrees>
            </Position>
            <DistanceMeters>252.2221283201</DistanceMeters>
          </Trackpoint>
          <Trackpoint>
            <Time>2022-09-24T13:16:13.000Z</Time>
            <Position>
              <LatitudeDegrees>43.2679925300180912017822265625</LatitudeDegrees>
              <LongitudeDegrees>-2.94467917643487453460693359375</LongitudeDegrees>
            </Position>
            <DistanceMeters>253.07207309214</DistanceMeters>
          </Trackpoint>
          <Trackpoint>
            <Time>2022-09-24T13:16:14.000Z</Time>
            <Position>
              <LatitudeDegrees>43.26799563132226467132568359375</LatitudeDegrees>
              <LongitudeDegrees>-2.94466962106525897979736328125</LongitudeDegrees>
            </Position>
            <DistanceMeters>253.92201786418</DistanceMeters>
          </Trackpoint>
          <Trackpoint>
            <Time>2022-09-24T13:16:15.000Z</Time>
            <Position>
              <LatitudeDegrees>43.267998732626438140869140625</LatitudeDegrees>
              <LongitudeDegrees>-2.94466006569564342498779296875</LongitudeDegrees>
            </Position>
            <DistanceMeters>254.77196263622</DistanceMeters>
          </Trackpoint>
          <Trackpoint>
            <Time>2022-09-24T13:16:16.000Z</Time>
            <Position>
              <LatitudeDegrees>43.26800183393061161041259765625</LatitudeDegrees>
              <LongitudeDegrees>-2.94465042650699615478515625</LongitudeDegrees>
            </Position>
            <DistanceMeters>255.62190740826</DistanceMeters>
          </Trackpoint>
          <Trackpoint>
            <Time>2022-09-24T13:16:17.000Z</Time>
            <Position>
              <LatitudeDegrees>43.26800501905381679534912109375</LatitudeDegrees>
              <LongitudeDegrees>-2.94464045204222202301025390625</LongitudeDegrees>
            </Position>
            <DistanceMeters>256.50314890421</DistanceMeters>
          </Trackpoint>
          <Trackpoint>
            <Time>2022-09-24T13:16:18.000Z</Time>
            <Position>
              <LatitudeDegrees>43.26800803653895854949951171875</LatitudeDegrees>
              <LongitudeDegrees>-2.94463022612035274505615234375</LongitudeDegrees>
            </Position>
            <DistanceMeters>257.39457850158</DistanceMeters>
          </Trackpoint>
          <Trackpoint>
            <Time>2022-09-24T13:16:19.000Z</Time>
            <Position>
              <LatitudeDegrees>43.26801113784313201904296875</LatitudeDegrees>
              <LongitudeDegrees>-2.9446200840175151824951171875</LongitudeDegrees>
            </Position>
            <DistanceMeters>258.28600809895</DistanceMeters>
          </Trackpoint>
          <Trackpoint>
            <Time>2022-09-24T13:16:20.000Z</Time>
            <Position>
              <LatitudeDegrees>43.26801382005214691162109375</LatitudeDegrees>
              <LongitudeDegrees>-2.9446100257337093353271484375</LongitudeDegrees>
            </Position>
            <DistanceMeters>259.15694232223</DistanceMeters>
          </Trackpoint>
          <Trackpoint>
            <Time>2022-09-24T13:16:21.000Z</Time>
            <Position>
              <LatitudeDegrees>43.26801692135632038116455078125</LatitudeDegrees>
              <LongitudeDegrees>-2.9445996321737766265869140625</LongitudeDegrees>
            </Position>
            <DistanceMeters>260.0684065469</DistanceMeters>
          </Trackpoint>
          <Trackpoint>
            <Time>2022-09-24T13:16:22.000Z</Time>
            <Position>
              <LatitudeDegrees>43.26801977120339870452880859375</LatitudeDegrees>
              <LongitudeDegrees>-2.94458949007093906402587890625</LongitudeDegrees>
            </Position>
            <DistanceMeters>260.94450956466</DistanceMeters>
          </Trackpoint>
          <Trackpoint>
            <Time>2022-09-24T13:16:23.000Z</Time>
            <Position>
              <LatitudeDegrees>43.26802262105047702789306640625</LatitudeDegrees>
              <LongitudeDegrees>-2.94457926414906978607177734375</LongitudeDegrees>
            </Position>
            <DistanceMeters>261.82575106061</DistanceMeters>
          </Trackpoint>
          <Trackpoint>
            <Time>2022-09-24T13:16:24.000Z</Time>
            <Position>
              <LatitudeDegrees>43.26802530325949192047119140625</LatitudeDegrees>
              <LongitudeDegrees>-2.9445687867701053619384765625</LongitudeDegrees>
            </Position>
            <DistanceMeters>262.72725362852</DistanceMeters>
          </Trackpoint>
          <Trackpoint>
            <Time>2022-09-24T13:16:25.000Z</Time>
            <Position>
              <LatitudeDegrees>43.2680280692875385284423828125</LatitudeDegrees>
              <LongitudeDegrees>-2.9445583932101726531982421875</LongitudeDegrees>
            </Position>
            <DistanceMeters>263.61868322589</DistanceMeters>
          </Trackpoint>
          <Trackpoint>
            <Time>2022-09-24T13:16:26.000Z</Time>
            <Position>
              <LatitudeDegrees>43.2680307514965534210205078125</LatitudeDegrees>
              <LongitudeDegrees>-2.94454808346927165985107421875</LongitudeDegrees>
            </Position>
            <DistanceMeters>264.50503341099</DistanceMeters>
          </Trackpoint>
          <Trackpoint>
            <Time>2022-09-24T13:16:27.000Z</Time>
            <Position>
              <LatitudeDegrees>43.2680334337055683135986328125</LatitudeDegrees>
              <LongitudeDegrees>-2.94453785754740238189697265625</LongitudeDegrees>
            </Position>
            <DistanceMeters>265.38627490694</DistanceMeters>
          </Trackpoint>
          <Trackpoint>
            <Time>2022-09-24T13:16:28.000Z</Time>
            <Position>
              <LatitudeDegrees>43.26803603209555149078369140625</LatitudeDegrees>
              <LongitudeDegrees>-2.94452779926359653472900390625</LongitudeDegrees>
            </Position>
            <DistanceMeters>266.25200947645</DistanceMeters>
          </Trackpoint>
          <Trackpoint>
            <Time>2022-09-24T13:16:29.000Z</Time>
            <Position>
              <LatitudeDegrees>43.26803854666650295257568359375</LatitudeDegrees>
              <LongitudeDegrees>-2.94451774097979068756103515625</LongitudeDegrees>
            </Position>
            <DistanceMeters>267.12294369974</DistanceMeters>
          </Trackpoint>
          <Trackpoint>
            <Time>2022-09-24T13:16:30.000Z</Time>
            <Position>
              <LatitudeDegrees>43.2680411450564861297607421875</LatitudeDegrees>
              <LongitudeDegrees>-2.94450751505792140960693359375</LongitudeDegrees>
            </Position>
            <DistanceMeters>267.9990467175</DistanceMeters>
          </Trackpoint>
          <Trackpoint>
            <Time>2022-09-24T13:16:31.000Z</Time>
            <Position>
              <LatitudeDegrees>43.26804357580840587615966796875</LatitudeDegrees>
              <LongitudeDegrees>-2.9444977082312107086181640625</LongitudeDegrees>
            </Position>
            <DistanceMeters>268.83829993473</DistanceMeters>
          </Trackpoint>
          <Trackpoint>
            <Time>2022-09-24T13:16:32.000Z</Time>
            <Position>
              <LatitudeDegrees>43.2680461741983890533447265625</LatitudeDegrees>
              <LongitudeDegrees>-2.94448806904256343841552734375</LongitudeDegrees>
            </Position>
            <DistanceMeters>269.66672362448</DistanceMeters>
          </Trackpoint>
          <Trackpoint>
            <Time>2022-09-24T13:16:33.000Z</Time>
            <Position>
              <LatitudeDegrees>43.26804868876934051513671875</LatitudeDegrees>
              <LongitudeDegrees>-2.94447851367294788360595703125</LongitudeDegrees>
            </Position>
            <DistanceMeters>270.48417433055</DistanceMeters>
          </Trackpoint>
          <Trackpoint>
            <Time>2022-09-24T13:16:34.000Z</Time>
            <Position>
              <LatitudeDegrees>43.26805111952126026153564453125</LatitudeDegrees>
              <LongitudeDegrees>-2.944469042122364044189453125</LongitudeDegrees>
            </Position>
            <DistanceMeters>271.29608293403</DistanceMeters>
          </Trackpoint>
          <Trackpoint>
            <Time>2022-09-24T13:16:35.000Z</Time>
            <Position>
              <LatitudeDegrees>43.26805363409221172332763671875</LatitudeDegrees>
              <LongitudeDegrees>-2.944459654390811920166015625</LongitudeDegrees>
            </Position>
            <DistanceMeters>272.10241134353</DistanceMeters>
          </Trackpoint>
          <Trackpoint>
            <Time>2022-09-24T13:16:36.000Z</Time>
            <Position>
              <LatitudeDegrees>43.26805631630122661590576171875</LatitudeDegrees>
              <LongitudeDegrees>-2.94445051811635494232177734375</LongitudeDegrees>
            </Position>
            <DistanceMeters>272.8974618772</DistanceMeters>
          </Trackpoint>
          <Trackpoint>
            <Time>2022-09-24T13:16:37.000Z</Time>
            <Position>
              <LatitudeDegrees>43.2680587470531463623046875</LatitudeDegrees>
              <LongitudeDegrees>-2.94444213621318340301513671875</LongitudeDegrees>
            </Position>
            <DistanceMeters>273.62737592021</DistanceMeters>
          </Trackpoint>
          <Trackpoint>
            <Time>2022-09-24T13:16:38.000Z</Time>
            <Position>
              <LatitudeDegrees>43.26806101016700267791748046875</LatitudeDegrees>
              <LongitudeDegrees>-2.94443341903388500213623046875</LongitudeDegrees>
            </Position>
            <DistanceMeters>274.3816270826</DistanceMeters>
          </Trackpoint>
          <Trackpoint>
            <Time>2022-09-24T13:16:39.000Z</Time>
            <Position>
              <LatitudeDegrees>43.268063105642795562744140625</LatitudeDegrees>
              <LongitudeDegrees>-2.9444249533116817474365234375</LongitudeDegrees>
            </Position>
            <DistanceMeters>275.10532897824</DistanceMeters>
          </Trackpoint>
          <Trackpoint>
            <Time>2022-09-24T13:16:40.000Z</Time>
            <Position>
              <LatitudeDegrees>43.2680652849376201629638671875</LatitudeDegrees>
              <LongitudeDegrees>-2.94441631995141506195068359375</LongitudeDegrees>
            </Position>
            <DistanceMeters>275.84140274264</DistanceMeters>
          </Trackpoint>
          <Trackpoint>
            <Time>2022-09-24T13:16:41.000Z</Time>
            <Position>
              <LatitudeDegrees>43.26806746423244476318359375</LatitudeDegrees>
              <LongitudeDegrees>-2.94440793804824352264404296875</LongitudeDegrees>
            </Position>
            <DistanceMeters>276.56510463828</DistanceMeters>
          </Trackpoint>
          <Trackpoint>
            <Time>2022-09-24T13:16:42.000Z</Time>
            <Position>
              <LatitudeDegrees>43.2680696435272693634033203125</LatitudeDegrees>
              <LongitudeDegrees>-2.94439922086894512176513671875</LongitudeDegrees>
            </Position>
            <DistanceMeters>277.31334573547</DistanceMeters>
          </Trackpoint>
          <Trackpoint>
            <Time>2022-09-24T13:16:43.000Z</Time>
            <Position>
              <LatitudeDegrees>43.268071822822093963623046875</LatitudeDegrees>
              <LongitudeDegrees>-2.9443907551467418670654296875</LongitudeDegrees>
            </Position>
            <DistanceMeters>278.04941949987</DistanceMeters>
          </Trackpoint>
          <Trackpoint>
            <Time>2022-09-24T13:16:44.000Z</Time>
            <Position>
              <LatitudeDegrees>43.26807391829788684844970703125</LatitudeDegrees>
              <LongitudeDegrees>-2.94438228942453861236572265625</LongitudeDegrees>
            </Position>
            <DistanceMeters>278.77933354289</DistanceMeters>
          </Trackpoint>
          <Trackpoint>
            <Time>2022-09-24T13:16:45.000Z</Time>
            <Position>
              <LatitudeDegrees>43.26807576231658458709716796875</LatitudeDegrees>
              <LongitudeDegrees>-2.9443736560642719268798828125</LongitudeDegrees>
            </Position>
            <DistanceMeters>279.5092475859</DistanceMeters>
          </Trackpoint>
          <Trackpoint>
            <Time>2022-09-24T13:16:46.000Z</Time>
            <Position>
              <LatitudeDegrees>43.2680776901543140411376953125</LatitudeDegrees>
              <LongitudeDegrees>-2.9443649388849735260009765625</LongitudeDegrees>
            </Position>
            <DistanceMeters>280.2453213503</DistanceMeters>
          </Trackpoint>
          <Trackpoint>
            <Time>2022-09-24T13:16:47.000Z</Time>
            <Position>
              <LatitudeDegrees>43.2680797018110752105712890625</LatitudeDegrees>
              <LongitudeDegrees>-2.94435630552470684051513671875</LongitudeDegrees>
            </Position>
            <DistanceMeters>280.97523539332</DistanceMeters>
          </Trackpoint>
          <Trackpoint>
            <Time>2022-09-24T13:16:48.000Z</Time>
            <Position>
              <LatitudeDegrees>43.2680820487439632415771484375</LatitudeDegrees>
              <LongitudeDegrees>-2.944347672164440155029296875</LongitudeDegrees>
            </Position>
            <DistanceMeters>281.72347649051</DistanceMeters>
          </Trackpoint>
          <Trackpoint>
            <Time>2022-09-24T13:16:49.000Z</Time>
            <Position>
              <LatitudeDegrees>43.268084563314914703369140625</LatitudeDegrees>
              <LongitudeDegrees>-2.94433929026126861572265625</LongitudeDegrees>
            </Position>
            <DistanceMeters>282.45955025491</DistanceMeters>
          </Trackpoint>
          <Trackpoint>
            <Time>2022-09-24T13:16:50.000Z</Time>
            <Position>
              <LatitudeDegrees>43.2680874131619930267333984375</LatitudeDegrees>
              <LongitudeDegrees>-2.94433099217712879180908203125</LongitudeDegrees>
            </Position>
            <DistanceMeters>283.2077913521</DistanceMeters>
          </Trackpoint>
          <Trackpoint>
            <Time>2022-09-24T13:16:51.000Z</Time>
            <Position>
              <LatitudeDegrees>43.2680900953710079193115234375</LatitudeDegrees>
              <LongitudeDegrees>-2.9443226940929889678955078125</LongitudeDegrees>
            </Position>
            <DistanceMeters>283.9438651165</DistanceMeters>
          </Trackpoint>
          <Trackpoint>
            <Time>2022-09-24T13:16:52.000Z</Time>
            <Position>
              <LatitudeDegrees>43.26809269376099109649658203125</LatitudeDegrees>
              <LongitudeDegrees>-2.944314479827880859375</LongitudeDegrees>
            </Position>
            <DistanceMeters>284.66756701214</DistanceMeters>
          </Trackpoint>
          <Trackpoint>
            <Time>2022-09-24T13:16:53.000Z</Time>
            <Position>
              <LatitudeDegrees>43.26809537597000598907470703125</LatitudeDegrees>
              <LongitudeDegrees>-2.944306433200836181640625</LongitudeDegrees>
            </Position>
            <DistanceMeters>285.38500297256</DistanceMeters>
          </Trackpoint>
          <Trackpoint>
            <Time>2022-09-24T13:16:54.000Z</Time>
            <Position>
              <LatitudeDegrees>43.268097974359989166259765625</LatitudeDegrees>
              <LongitudeDegrees>-2.94429863803088665008544921875</LongitudeDegrees>
            </Position>
            <DistanceMeters>286.08330385898</DistanceMeters>
          </Trackpoint>
          <Trackpoint>
            <Time>2022-09-24T13:16:55.000Z</Time>
            <Position>
              <LatitudeDegrees>43.26810040511190891265869140625</LatitudeDegrees>
              <LongitudeDegrees>-2.944290675222873687744140625</LongitudeDegrees>
            </Position>
            <DistanceMeters>286.7816047454</DistanceMeters>
          </Trackpoint>
          <Trackpoint>
            <Time>2022-09-24T13:16:56.000Z</Time>
            <Position>
              <LatitudeDegrees>43.268102668225765228271484375</LatitudeDegrees>
              <LongitudeDegrees>-2.94428271241486072540283203125</LongitudeDegrees>
            </Position>
            <DistanceMeters>287.47990563182</DistanceMeters>
          </Trackpoint>
          <Trackpoint>
            <Time>2022-09-24T13:16:57.000Z</Time>
            <Position>
              <LatitudeDegrees>43.26810493133962154388427734375</LatitudeDegrees>
              <LongitudeDegrees>-2.944274581968784332275390625</LongitudeDegrees>
            </Position>
            <DistanceMeters>288.19102044734</DistanceMeters>
          </Trackpoint>
          <Trackpoint>
            <Time>2022-09-24T13:16:58.000Z</Time>
            <Position>
              <LatitudeDegrees>43.26810711063444614410400390625</LatitudeDegrees>
              <LongitudeDegrees>-2.944266535341739654541015625</LongitudeDegrees>
            </Position>
            <DistanceMeters>288.88282537037</DistanceMeters>
          </Trackpoint>
          <Trackpoint>
            <Time>2022-09-24T13:16:59.000Z</Time>
            <Position>
              <LatitudeDegrees>43.26810928992927074432373046875</LatitudeDegrees>
              <LongitudeDegrees>-2.94425840489566326141357421875</LongitudeDegrees>
            </Position>
            <DistanceMeters>289.58112625679</DistanceMeters>
          </Trackpoint>
          <Trackpoint>
            <Time>2022-09-24T13:17:00.000Z</Time>
            <Position>
              <LatitudeDegrees>43.2681115530431270599365234375</LatitudeDegrees>
              <LongitudeDegrees>-2.9442502744495868682861328125</LongitudeDegrees>
            </Position>
            <DistanceMeters>290.28586323214</DistanceMeters>
          </Trackpoint>
          <Trackpoint>
            <Time>2022-09-24T13:17:01.000Z</Time>
            <Position>
              <LatitudeDegrees>43.26811381615698337554931640625</LatitudeDegrees>
              <LongitudeDegrees>-2.944241724908351898193359375</LongitudeDegrees>
            </Position>
            <DistanceMeters>291.02804559725</DistanceMeters>
          </Trackpoint>
          <Trackpoint>
            <Time>2022-09-24T13:17:02.000Z</Time>
            <Position>
              <LatitudeDegrees>43.26811582781374454498291015625</LatitudeDegrees>
              <LongitudeDegrees>-2.9442335106432437896728515625</LongitudeDegrees>
            </Position>
            <DistanceMeters>291.73916041277</DistanceMeters>
          </Trackpoint>
          <Trackpoint>
            <Time>2022-09-24T13:17:03.000Z</Time>
            <Position>
              <LatitudeDegrees>43.2681179232895374298095703125</LatitudeDegrees>
              <LongitudeDegrees>-2.94422529637813568115234375</LongitudeDegrees>
            </Position>
            <DistanceMeters>292.44389738812</DistanceMeters>
          </Trackpoint>
          <Trackpoint>
            <Time>2022-09-24T13:17:04.000Z</Time>
            <Position>
              <LatitudeDegrees>43.2681202702224254608154296875</LatitudeDegrees>
              <LongitudeDegrees>-2.94421716593205928802490234375</LongitudeDegrees>
            </Position>
            <DistanceMeters>293.15501220364</DistanceMeters>
          </Trackpoint>
          <Trackpoint>
            <Time>2022-09-24T13:17:05.000Z</Time>
            <Position>
              <LatitudeDegrees>43.26812244951725006103515625</LatitudeDegrees>
              <LongitudeDegrees>-2.94420962221920490264892578125</LongitudeDegrees>
            </Position>
            <DistanceMeters>293.81337659311</DistanceMeters>
          </Trackpoint>
          <Trackpoint>
            <Time>2022-09-24T13:17:06.000Z</Time>
            <Position>
              <LatitudeDegrees>43.2681246288120746612548828125</LatitudeDegrees>
              <LongitudeDegrees>-2.944202162325382232666015625</LongitudeDegrees>
            </Position>
            <DistanceMeters>294.46484692464</DistanceMeters>
          </Trackpoint>
          <Trackpoint>
            <Time>2022-09-24T13:17:07.000Z</Time>
            <Position>
              <LatitudeDegrees>43.2681266404688358306884765625</LatitudeDegrees>
              <LongitudeDegrees>-2.94419487006962299346923828125</LongitudeDegrees>
            </Position>
            <DistanceMeters>295.09518283789</DistanceMeters>
          </Trackpoint>
          <Trackpoint>
            <Time>2022-09-24T13:17:08.000Z</Time>
            <Position>
              <LatitudeDegrees>43.2681286521255970001220703125</LatitudeDegrees>
              <LongitudeDegrees>-2.94418749399483203887939453125</LongitudeDegrees>
            </Position>
            <DistanceMeters>295.73968537196</DistanceMeters>
          </Trackpoint>
          <Trackpoint>
            <Time>2022-09-24T13:17:09.000Z</Time>
            <Position>
              <LatitudeDegrees>43.26813057996332645416259765625</LatitudeDegrees>
              <LongitudeDegrees>-2.94418028555810451507568359375</LongitudeDegrees>
            </Position>
            <DistanceMeters>296.37002128521</DistanceMeters>
          </Trackpoint>
          <Trackpoint>
            <Time>2022-09-24T13:17:10.000Z</Time>
            <Position>
              <LatitudeDegrees>43.26813242398202419281005859375</LatitudeDegrees>
              <LongitudeDegrees>-2.94417299330234527587890625</LongitudeDegrees>
            </Position>
            <DistanceMeters>296.99315312286</DistanceMeters>
          </Trackpoint>
          <Trackpoint>
            <Time>2022-09-24T13:17:11.000Z</Time>
            <Position>
              <LatitudeDegrees>43.26813426800072193145751953125</LatitudeDegrees>
              <LongitudeDegrees>-2.9441656172275543212890625</LongitudeDegrees>
            </Position>
            <DistanceMeters>297.62348903611</DistanceMeters>
          </Trackpoint>
          <Trackpoint>
            <Time>2022-09-24T13:17:12.000Z</Time>
            <Position>
              <LatitudeDegrees>43.2681360282003879547119140625</LatitudeDegrees>
              <LongitudeDegrees>-2.9441580735146999359130859375</LongitudeDegrees>
            </Position>
            <DistanceMeters>298.26094761514</DistanceMeters>
          </Trackpoint>
          <Trackpoint>
            <Time>2022-09-24T13:17:13.000Z</Time>
            <Position>
              <LatitudeDegrees>43.2681377045810222625732421875</LatitudeDegrees>
              <LongitudeDegrees>-2.94415078125894069671630859375</LongitudeDegrees>
            </Position>
            <DistanceMeters>298.87679111039</DistanceMeters>
          </Trackpoint>
          <Trackpoint>
            <Time>2022-09-24T13:17:14.000Z</Time>
            <Position>
              <LatitudeDegrees>43.2681393809616565704345703125</LatitudeDegrees>
              <LongitudeDegrees>-2.94414306990802288055419921875</LongitudeDegrees>
            </Position>
            <DistanceMeters>299.52826144192</DistanceMeters>
          </Trackpoint>
          <Trackpoint>
            <Time>2022-09-24T13:17:15.000Z</Time>
            <Position>
              <LatitudeDegrees>43.2681410573422908782958984375</LatitudeDegrees>
              <LongitudeDegrees>-2.944135107100009918212890625</LongitudeDegrees>
            </Position>
            <DistanceMeters>300.20020178317</DistanceMeters>
          </Trackpoint>
          <Trackpoint>
            <Time>2022-09-24T13:17:16.000Z</Time>
            <Position>
              <LatitudeDegrees>43.26814264990389347076416015625</LatitudeDegrees>
              <LongitudeDegrees>-2.94412714429199695587158203125</LongitudeDegrees>
            </Position>
            <DistanceMeters>300.85856617263</DistanceMeters>
          </Trackpoint>
          <Trackpoint>
            <Time>2022-09-24T13:17:17.000Z</Time>
            <Position>
              <LatitudeDegrees>43.26814415864646434783935546875</LatitudeDegrees>
              <LongitudeDegrees>-2.94411909766495227813720703125</LongitudeDegrees>
            </Position>
            <DistanceMeters>301.53050651388</DistanceMeters>
          </Trackpoint>
          <Trackpoint>
            <Time>2022-09-24T13:17:18.000Z</Time>
            <Position>
              <LatitudeDegrees>43.26814566738903522491455078125</LatitudeDegrees>
              <LongitudeDegrees>-2.944110967218875885009765625</LongitudeDegrees>
            </Position>
            <DistanceMeters>302.20913299335</DistanceMeters>
          </Trackpoint>
          <Trackpoint>
            <Time>2022-09-24T13:17:19.000Z</Time>
            <Position>
              <LatitudeDegrees>43.26814717613160610198974609375</LatitudeDegrees>
              <LongitudeDegrees>-2.94410325586795806884765625</LongitudeDegrees>
            </Position>
            <DistanceMeters>302.85363552742</DistanceMeters>
          </Trackpoint>
          <Trackpoint>
            <Time>2022-09-24T13:17:20.000Z</Time>
            <Position>
              <LatitudeDegrees>43.26814885251224040985107421875</LatitudeDegrees>
              <LongitudeDegrees>-2.94409520924091339111328125</LongitudeDegrees>
            </Position>
            <DistanceMeters>303.52557586867</DistanceMeters>
          </Trackpoint>
          <Trackpoint>
            <Time>2022-09-24T13:17:21.000Z</Time>
            <Position>
              <LatitudeDegrees>43.26815069653093814849853515625</LatitudeDegrees>
              <LongitudeDegrees>-2.9440869949758052825927734375</LongitudeDegrees>
            </Position>
            <DistanceMeters>304.22387675509</DistanceMeters>
          </Trackpoint>
          <Trackpoint>
            <Time>2022-09-24T13:17:22.000Z</Time>
            <Position>
              <LatitudeDegrees>43.26815237291157245635986328125</LatitudeDegrees>
              <LongitudeDegrees>-2.9440789483487606048583984375</LongitudeDegrees>
            </Position>
            <DistanceMeters>304.89581709634</DistanceMeters>
          </Trackpoint>
          <Trackpoint>
            <Time>2022-09-24T13:17:23.000Z</Time>
            <Position>
              <LatitudeDegrees>43.268154300749301910400390625</LatitudeDegrees>
              <LongitudeDegrees>-2.94407065026462078094482421875</LongitudeDegrees>
            </Position>
            <DistanceMeters>305.59411798276</DistanceMeters>
          </Trackpoint>
          <Trackpoint>
            <Time>2022-09-24T13:17:24.000Z</Time>
            <Position>
              <LatitudeDegrees>43.268156312406063079833984375</LatitudeDegrees>
              <LongitudeDegrees>-2.9440625198185443878173828125</LongitudeDegrees>
            </Position>
            <DistanceMeters>306.28592290579</DistanceMeters>
          </Trackpoint>
          <Trackpoint>
            <Time>2022-09-24T13:17:25.000Z</Time>
            <Position>
              <LatitudeDegrees>43.2681584917008876800537109375</LatitudeDegrees>
              <LongitudeDegrees>-2.94405405409634113311767578125</LongitudeDegrees>
            </Position>
            <DistanceMeters>307.00962480143</DistanceMeters>
          </Trackpoint>
          <Trackpoint>
            <Time>2022-09-24T13:17:26.000Z</Time>
            <Position>
              <LatitudeDegrees>43.2681606709957122802734375</LatitudeDegrees>
              <LongitudeDegrees>-2.94404600746929645538330078125</LongitudeDegrees>
            </Position>
            <DistanceMeters>307.71436177677</DistanceMeters>
          </Trackpoint>
          <Trackpoint>
            <Time>2022-09-24T13:17:27.000Z</Time>
            <Position>
              <LatitudeDegrees>43.2681628502905368804931640625</LatitudeDegrees>
              <LongitudeDegrees>-2.9440380446612834930419921875</LongitudeDegrees>
            </Position>
            <DistanceMeters>308.41266266319</DistanceMeters>
          </Trackpoint>
          <Trackpoint>
            <Time>2022-09-24T13:17:28.000Z</Time>
            <Position>
              <LatitudeDegrees>43.26816494576632976531982421875</LatitudeDegrees>
              <LongitudeDegrees>-2.94403024949133396148681640625</LongitudeDegrees>
            </Position>
            <DistanceMeters>309.08460300444</DistanceMeters>
          </Trackpoint>
          <Trackpoint>
            <Time>2022-09-24T13:17:29.000Z</Time>
            <Position>
              <LatitudeDegrees>43.268167041242122650146484375</LatitudeDegrees>
              <LongitudeDegrees>-2.9440222866833209991455078125</LongitudeDegrees>
            </Position>
            <DistanceMeters>309.76985038684</DistanceMeters>
          </Trackpoint>
          <Trackpoint>
            <Time>2022-09-24T13:17:30.000Z</Time>
            <Position>
              <LatitudeDegrees>43.268169052898883819580078125</LatitudeDegrees>
              <LongitudeDegrees>-2.9440142400562763214111328125</LongitudeDegrees>
            </Position>
            <DistanceMeters>310.45509776924</DistanceMeters>
          </Trackpoint>
          <Trackpoint>
            <Time>2022-09-24T13:17:31.000Z</Time>
            <Position>
              <LatitudeDegrees>43.2681708969175815582275390625</LatitudeDegrees>
              <LongitudeDegrees>-2.9440055228769779205322265625</LongitudeDegrees>
            </Position>
            <DistanceMeters>311.19117153364</DistanceMeters>
          </Trackpoint>
          <Trackpoint>
            <Time>2022-09-24T13:17:32.000Z</Time>
            <Position>
              <LatitudeDegrees>43.26817282475531101226806640625</LatitudeDegrees>
              <LongitudeDegrees>-2.9439968056976795196533203125</LongitudeDegrees>
            </Position>
            <DistanceMeters>311.92724529804</DistanceMeters>
          </Trackpoint>
          <Trackpoint>
            <Time>2022-09-24T13:17:33.000Z</Time>
            <Position>
              <LatitudeDegrees>43.2681749202311038970947265625</LatitudeDegrees>
              <LongitudeDegrees>-2.9439880885183811187744140625</LongitudeDegrees>
            </Position>
            <DistanceMeters>312.66942766315</DistanceMeters>
          </Trackpoint>
          <Trackpoint>
            <Time>2022-09-24T13:17:34.000Z</Time>
            <Position>
              <LatitudeDegrees>43.2681767642498016357421875</LatitudeDegrees>
              <LongitudeDegrees>-2.94397945515811443328857421875</LongitudeDegrees>
            </Position>
            <DistanceMeters>313.39312955878</DistanceMeters>
          </Trackpoint>
          <Trackpoint>
            <Time>2022-09-24T13:17:35.000Z</Time>
            <Position>
              <LatitudeDegrees>43.26817877590656280517578125</LatitudeDegrees>
              <LongitudeDegrees>-2.94397057034075260162353515625</LongitudeDegrees>
            </Position>
            <DistanceMeters>314.14137065597</DistanceMeters>
          </Trackpoint>
          <Trackpoint>
            <Time>2022-09-24T13:17:36.000Z</Time>
            <Position>
              <LatitudeDegrees>43.26818087138235569000244140625</LatitudeDegrees>
              <LongitudeDegrees>-2.94396185316145420074462890625</LongitudeDegrees>
            </Position>
            <DistanceMeters>314.88355302109</DistanceMeters>
          </Trackpoint>
          <Trackpoint>
            <Time>2022-09-24T13:17:37.000Z</Time>
            <Position>
              <LatitudeDegrees>43.268183134496212005615234375</LatitudeDegrees>
              <LongitudeDegrees>-2.94395313598215579986572265625</LongitudeDegrees>
            </Position>
            <DistanceMeters>315.63179411828</DistanceMeters>
          </Trackpoint>
          <Trackpoint>
            <Time>2022-09-24T13:17:38.000Z</Time>
            <Position>
              <LatitudeDegrees>43.26818556524813175201416015625</LatitudeDegrees>
              <LongitudeDegrees>-2.9439445026218891143798828125</LongitudeDegrees>
            </Position>
            <DistanceMeters>316.38003521547</DistanceMeters>
          </Trackpoint>
          <Trackpoint>
            <Time>2022-09-24T13:17:39.000Z</Time>
            <Position>
              <LatitudeDegrees>43.26818824745714664459228515625</LatitudeDegrees>
              <LongitudeDegrees>-2.94393586926162242889404296875</LongitudeDegrees>
            </Position>
            <DistanceMeters>317.14024893043</DistanceMeters>
          </Trackpoint>
          <Trackpoint>
            <Time>2022-09-24T13:17:40.000Z</Time>
            <Position>
              <LatitudeDegrees>43.2681906782090663909912109375</LatitudeDegrees>
              <LongitudeDegrees>-2.94392748735845088958740234375</LongitudeDegrees>
            </Position>
            <DistanceMeters>317.86395082606</DistanceMeters>
          </Trackpoint>
          <Trackpoint>
            <Time>2022-09-24T13:17:41.000Z</Time>
            <Position>
              <LatitudeDegrees>43.268193192780017852783203125</LatitudeDegrees>
              <LongitudeDegrees>-2.9439190216362476348876953125</LongitudeDegrees>
            </Position>
            <DistanceMeters>318.60613319118</DistanceMeters>
          </Trackpoint>
          <Trackpoint>
            <Time>2022-09-24T13:17:42.000Z</Time>
            <Position>
              <LatitudeDegrees>43.26819579117000102996826171875</LatitudeDegrees>
              <LongitudeDegrees>-2.94391072355210781097412109375</LongitudeDegrees>
            </Position>
            <DistanceMeters>319.34220695557</DistanceMeters>
          </Trackpoint>
          <Trackpoint>
            <Time>2022-09-24T13:17:43.000Z</Time>
            <Position>
              <LatitudeDegrees>43.2681983895599842071533203125</LatitudeDegrees>
              <LongitudeDegrees>-2.9439022578299045562744140625</LongitudeDegrees>
            </Position>
            <DistanceMeters>320.09044805277</DistanceMeters>
          </Trackpoint>
          <Trackpoint>
            <Time>2022-09-24T13:17:44.000Z</Time>
            <Position>
              <LatitudeDegrees>43.2682010717689990997314453125</LatitudeDegrees>
              <LongitudeDegrees>-2.94389362446963787078857421875</LongitudeDegrees>
            </Position>
            <DistanceMeters>320.85657791699</DistanceMeters>
          </Trackpoint>
          <Trackpoint>
            <Time>2022-09-24T13:17:45.000Z</Time>
            <Position>
              <LatitudeDegrees>43.26820367015898227691650390625</LatitudeDegrees>
              <LongitudeDegrees>-2.94388473965227603912353515625</LongitudeDegrees>
            </Position>
            <DistanceMeters>321.63440509686</DistanceMeters>
          </Trackpoint>
          <Trackpoint>
            <Time>2022-09-24T13:17:46.000Z</Time>
            <Position>
              <LatitudeDegrees>43.26820618472993373870849609375</LatitudeDegrees>
              <LongitudeDegrees>-2.9438759386539459228515625</LongitudeDegrees>
            </Position>
            <DistanceMeters>322.40053496109</DistanceMeters>
          </Trackpoint>
          <Trackpoint>
            <Time>2022-09-24T13:17:47.000Z</Time>
            <Position>
              <LatitudeDegrees>43.26820853166282176971435546875</LatitudeDegrees>
              <LongitudeDegrees>-2.9438673891127109527587890625</LongitudeDegrees>
            </Position>
            <DistanceMeters>323.1427173262</DistanceMeters>
          </Trackpoint>
          <Trackpoint>
            <Time>2022-09-24T13:17:48.000Z</Time>
            <Position>
              <LatitudeDegrees>43.2682104595005512237548828125</LatitudeDegrees>
              <LongitudeDegrees>-2.94385808520019054412841796875</LongitudeDegrees>
            </Position>
            <DistanceMeters>323.9263276874</DistanceMeters>
          </Trackpoint>
          <Trackpoint>
            <Time>2022-09-24T13:17:49.000Z</Time>
            <Position>
              <LatitudeDegrees>43.26821230351924896240234375</LatitudeDegrees>
              <LongitudeDegrees>-2.94384903274476528167724609375</LongitudeDegrees>
            </Position>
            <DistanceMeters>324.68654140236</DistanceMeters>
          </Trackpoint>
          <Trackpoint>
            <Time>2022-09-24T13:17:50.000Z</Time>
            <Position>
              <LatitudeDegrees>43.26821439899504184722900390625</LatitudeDegrees>
              <LongitudeDegrees>-2.94384031556546688079833984375</LongitudeDegrees>
            </Position>
            <DistanceMeters>325.42872376747</DistanceMeters>
          </Trackpoint>
          <Trackpoint>
            <Time>2022-09-24T13:17:51.000Z</Time>
            <Position>
              <LatitudeDegrees>43.26821674592792987823486328125</LatitudeDegrees>
              <LongitudeDegrees>-2.94383226893842220306396484375</LongitudeDegrees>
            </Position>
            <DistanceMeters>326.12702465389</DistanceMeters>
          </Trackpoint>
          <Trackpoint>
            <Time>2022-09-24T13:17:52.000Z</Time>
            <Position>
              <LatitudeDegrees>43.2682191766798496246337890625</LatitudeDegrees>
              <LongitudeDegrees>-2.9438244737684726715087890625</LongitudeDegrees>
            </Position>
            <DistanceMeters>326.81227203629</DistanceMeters>
          </Trackpoint>
          <Trackpoint>
            <Time>2022-09-24T13:17:53.000Z</Time>
            <Position>
              <LatitudeDegrees>43.2682215236127376556396484375</LatitudeDegrees>
              <LongitudeDegrees>-2.94381684623658657073974609375</LongitudeDegrees>
            </Position>
            <DistanceMeters>327.47063642575</DistanceMeters>
          </Trackpoint>
          <Trackpoint>
            <Time>2022-09-24T13:17:54.000Z</Time>
            <Position>
              <LatitudeDegrees>43.2682238705456256866455078125</LatitudeDegrees>
              <LongitudeDegrees>-2.94380930252373218536376953125</LongitudeDegrees>
            </Position>
            <DistanceMeters>328.12900081521</DistanceMeters>
          </Trackpoint>
          <Trackpoint>
            <Time>2022-09-24T13:17:55.000Z</Time>
            <Position>
              <LatitudeDegrees>43.26822646893560886383056640625</LatitudeDegrees>
              <LongitudeDegrees>-2.9438003338873386383056640625</LongitudeDegrees>
            </Position>
            <DistanceMeters>328.91261117642</DistanceMeters>
          </Trackpoint>
          <Trackpoint>
            <Time>2022-09-24T13:17:56.000Z</Time>
            <Position>
              <LatitudeDegrees>43.2682295702397823333740234375</LatitudeDegrees>
              <LongitudeDegrees>-2.9437916167080402374267578125</LongitudeDegrees>
            </Position>
            <DistanceMeters>329.69622153762</DistanceMeters>
          </Trackpoint>
          <Trackpoint>
            <Time>2022-09-24T13:17:57.000Z</Time>
            <Position>
              <LatitudeDegrees>43.26823317445814609527587890625</LatitudeDegrees>
              <LongitudeDegrees>-2.94378248043358325958251953125</LongitudeDegrees>
            </Position>
            <DistanceMeters>330.54083744978</DistanceMeters>
          </Trackpoint>
          <Trackpoint>
            <Time>2022-09-24T13:17:58.000Z</Time>
            <Position>
              <LatitudeDegrees>43.2682366110384464263916015625</LatitudeDegrees>
              <LongitudeDegrees>-2.9437738470733165740966796875</LongitudeDegrees>
            </Position>
            <DistanceMeters>331.34154677752</DistanceMeters>
          </Trackpoint>
          <Trackpoint>
            <Time>2022-09-24T13:17:59.000Z</Time>
            <Position>
              <LatitudeDegrees>43.2682399637997150421142578125</LatitudeDegrees>
              <LongitudeDegrees>-2.94376504607498645782470703125</LongitudeDegrees>
            </Position>
            <DistanceMeters>332.14787518702</DistanceMeters>
          </Trackpoint>
          <Trackpoint>
            <Time>2022-09-24T13:18:00.000Z</Time>
            <Position>
              <LatitudeDegrees>43.2682433165609836578369140625</LatitudeDegrees>
              <LongitudeDegrees>-2.94375666417181491851806640625</LongitudeDegrees>
            </Position>
            <DistanceMeters>332.91987586402</DistanceMeters>
          </Trackpoint>
          <Trackpoint>
            <Time>2022-09-24T13:18:01.000Z</Time>
            <Position>
              <LatitudeDegrees>43.26824675314128398895263671875</LatitudeDegrees>
              <LongitudeDegrees>-2.9437480308115482330322265625</LongitudeDegrees>
            </Position>
            <DistanceMeters>333.71492639769</DistanceMeters>
          </Trackpoint>
          <Trackpoint>
            <Time>2022-09-24T13:18:02.000Z</Time>
            <Position>
              <LatitudeDegrees>43.26825010590255260467529296875</LatitudeDegrees>
              <LongitudeDegrees>-2.94373906217515468597412109375</LongitudeDegrees>
            </Position>
            <DistanceMeters>334.53237710375</DistanceMeters>
          </Trackpoint>
          <Trackpoint>
            <Time>2022-09-24T13:18:03.000Z</Time>
            <Position>
              <LatitudeDegrees>43.26825345866382122039794921875</LatitudeDegrees>
              <LongitudeDegrees>-2.94373118318617343902587890625</LongitudeDegrees>
            </Position>
            <DistanceMeters>335.27455946887</DistanceMeters>
          </Trackpoint>
          <Trackpoint>
            <Time>2022-09-24T13:18:04.000Z</Time>
            <Position>
              <LatitudeDegrees>43.268256895244121551513671875</LatitudeDegrees>
              <LongitudeDegrees>-2.9437243938446044921875</LongitudeDegrees>
            </Position>
            <DistanceMeters>335.94649981011</DistanceMeters>
          </Trackpoint>
          <Trackpoint>
            <Time>2022-09-24T13:18:05.000Z</Time>
            <Position>
              <LatitudeDegrees>43.2682580687105655670166015625</LatitudeDegrees>
              <LongitudeDegrees>-2.94372238218784332275390625</LongitudeDegrees>
            </Position>
            <DistanceMeters>336.17926677225</DistanceMeters>
          </Trackpoint>
          <Trackpoint>
            <Time>2022-09-24T13:18:06.000Z</Time>
            <Position>
              <LatitudeDegrees>43.2682590745389461517333984375</LatitudeDegrees>
              <LongitudeDegrees>-2.94372078962624073028564453125</LongitudeDegrees>
            </Position>
            <DistanceMeters>336.36932020099</DistanceMeters>
          </Trackpoint>
          <Trackpoint>
            <Time>2022-09-24T13:18:07.000Z</Time>
            <Position>
              <LatitudeDegrees>43.2682599127292633056640625</LatitudeDegrees>
              <LongitudeDegrees>-2.943719364702701568603515625</LongitudeDegrees>
            </Position>
            <DistanceMeters>336.55937362973</DistanceMeters>
          </Trackpoint>
          <Trackpoint>
            <Time>2022-09-24T13:18:08.000Z</Time>
            <Position>
              <LatitudeDegrees>43.26826058328151702880859375</LatitudeDegrees>
              <LongitudeDegrees>-2.94371810741722583770751953125</LongitudeDegrees>
            </Position>
            <DistanceMeters>336.7239647271</DistanceMeters>
          </Trackpoint>
          <Trackpoint>
            <Time>2022-09-24T13:18:09.000Z</Time>
            <Position>
              <LatitudeDegrees>43.268261253833770751953125</LatitudeDegrees>
              <LongitudeDegrees>-2.94371701776981353759765625</LongitudeDegrees>
            </Position>
            <DistanceMeters>336.85835279535</DistanceMeters>
          </Trackpoint>
          <Trackpoint>
            <Time>2022-09-24T13:18:10.000Z</Time>
            <Position>
              <LatitudeDegrees>43.26826184056699275970458984375</LatitudeDegrees>
              <LongitudeDegrees>-2.94371609576046466827392578125</LongitudeDegrees>
            </Position>
            <DistanceMeters>336.9927408636</DistanceMeters>
          </Trackpoint>
          <Trackpoint>
            <Time>2022-09-24T13:18:11.000Z</Time>
            <Position>
              <LatitudeDegrees>43.26826234348118305206298828125</LatitudeDegrees>
              <LongitudeDegrees>-2.94371525757014751434326171875</LongitudeDegrees>
            </Position>
            <DistanceMeters>337.12712893185</DistanceMeters>
          </Trackpoint>
          <Trackpoint>
            <Time>2022-09-24T13:18:12.000Z</Time>
            <Position>
              <LatitudeDegrees>43.26826686970889568328857421875</LatitudeDegrees>
              <LongitudeDegrees>-2.943707965314388275146484375</LongitudeDegrees>
            </Position>
            <DistanceMeters>337.91073929305</DistanceMeters>
          </Trackpoint>
          <Trackpoint>
            <Time>2022-09-24T13:18:13.000Z</Time>
            <Position>
              <LatitudeDegrees>43.26827089302241802215576171875</LatitudeDegrees>
              <LongitudeDegrees>-2.94370033778250217437744140625</LongitudeDegrees>
            </Position>
            <DistanceMeters>338.67095300801</DistanceMeters>
          </Trackpoint>
          <Trackpoint>
            <Time>2022-09-24T13:18:14.000Z</Time>
            <Position>
              <LatitudeDegrees>43.26827458105981349945068359375</LatitudeDegrees>
              <LongitudeDegrees>-2.94369229115545749664306640625</LongitudeDegrees>
            </Position>
            <DistanceMeters>339.44295368502</DistanceMeters>
          </Trackpoint>
          <Trackpoint>
            <Time>2022-09-24T13:18:15.000Z</Time>
            <Position>
              <LatitudeDegrees>43.26827793382108211517333984375</LatitudeDegrees>
              <LongitudeDegrees>-2.94368541799485683441162109375</LongitudeDegrees>
            </Position>
            <DistanceMeters>340.10814068561</DistanceMeters>
          </Trackpoint>
          <Trackpoint>
            <Time>2022-09-24T13:18:31.000Z</Time>
            <Position>
              <LatitudeDegrees>43.26832336373627185821533203125</LatitudeDegrees>
              <LongitudeDegrees>-2.94357662089169025421142578125</LongitudeDegrees>
            </Position>
            <DistanceMeters>350.27200188689</DistanceMeters>
          </Trackpoint>
          <Trackpoint>
            <Time>2022-09-24T13:18:32.000Z</Time>
            <Position>
              <LatitudeDegrees>43.26832688413560390472412109375</LatitudeDegrees>
              <LongitudeDegrees>-2.94356538914144039154052734375</LongitudeDegrees>
            </Position>
            <DistanceMeters>351.25954847108</DistanceMeters>
          </Trackpoint>
          <Trackpoint>
            <Time>2022-09-24T13:18:33.000Z</Time>
            <Position>
              <LatitudeDegrees>43.26833006925880908966064453125</LatitudeDegrees>
              <LongitudeDegrees>-2.943554408848285675048828125</LongitudeDegrees>
            </Position>
            <DistanceMeters>352.20981561478</DistanceMeters>
          </Trackpoint>
          <Trackpoint>
            <Time>2022-09-24T13:18:34.000Z</Time>
            <Position>
              <LatitudeDegrees>43.26833308674395084381103515625</LatitudeDegrees>
              <LongitudeDegrees>-2.9435431770980358123779296875</LongitudeDegrees>
            </Position>
            <DistanceMeters>353.17890175655</DistanceMeters>
          </Trackpoint>
          <Trackpoint>
            <Time>2022-09-24T13:18:35.000Z</Time>
            <Position>
              <LatitudeDegrees>43.26833610422909259796142578125</LatitudeDegrees>
              <LongitudeDegrees>-2.94353169389069080352783203125</LongitudeDegrees>
            </Position>
            <DistanceMeters>354.16644834074</DistanceMeters>
          </Trackpoint>
          <Trackpoint>
            <Time>2022-09-24T13:18:36.000Z</Time>
            <Position>
              <LatitudeDegrees>43.26833928935229778289794921875</LatitudeDegrees>
              <LongitudeDegrees>-2.9435217194259166717529296875</LongitudeDegrees>
            </Position>
            <DistanceMeters>355.04255135851</DistanceMeters>
          </Trackpoint>
          <Trackpoint>
            <Time>2022-09-24T13:18:37.000Z</Time>
            <Position>
              <LatitudeDegrees>43.26834247447550296783447265625</LatitudeDegrees>
              <LongitudeDegrees>-2.94351182878017425537109375</LongitudeDegrees>
            </Position>
            <DistanceMeters>355.91348558179</DistanceMeters>
          </Trackpoint>
          <Trackpoint>
            <Time>2022-09-24T13:18:38.000Z</Time>
            <Position>
              <LatitudeDegrees>43.26834565959870815277099609375</LatitudeDegrees>
              <LongitudeDegrees>-2.94350135140120983123779296875</LongitudeDegrees>
            </Position>
            <DistanceMeters>356.83480376013</DistanceMeters>
          </Trackpoint>
          <Trackpoint>
            <Time>2022-09-24T13:18:39.000Z</Time>
            <Position>
              <LatitudeDegrees>43.26834884472191333770751953125</LatitudeDegrees>
              <LongitudeDegrees>-2.94349062256515026092529296875</LongitudeDegrees>
            </Position>
            <DistanceMeters>357.77552023788</DistanceMeters>
          </Trackpoint>
          <Trackpoint>
            <Time>2022-09-24T13:18:40.000Z</Time>
            <Position>
              <LatitudeDegrees>43.26835202984511852264404296875</LatitudeDegrees>
              <LongitudeDegrees>-2.9434798099100589752197265625</LongitudeDegrees>
            </Position>
            <DistanceMeters>358.71623671563</DistanceMeters>
          </Trackpoint>
          <Trackpoint>
            <Time>2022-09-24T13:18:41.000Z</Time>
            <Position>
              <LatitudeDegrees>43.26835538260638713836669921875</LatitudeDegrees>
              <LongitudeDegrees>-2.9434687457978725433349609375</LongitudeDegrees>
            </Position>
            <DistanceMeters>359.6853228574</DistanceMeters>
          </Trackpoint>
          <Trackpoint>
            <Time>2022-09-24T13:18:42.000Z</Time>
            <Position>
              <LatitudeDegrees>43.2683586515486240386962890625</LatitudeDegrees>
              <LongitudeDegrees>-2.94345776550471782684326171875</LongitudeDegrees>
            </Position>
            <DistanceMeters>360.64504562845</DistanceMeters>
          </Trackpoint>
          <Trackpoint>
            <Time>2022-09-24T13:18:43.000Z</Time>
            <Position>
              <LatitudeDegrees>43.2683620043098926544189453125</LatitudeDegrees>
              <LongitudeDegrees>-2.94344611465930938720703125</LongitudeDegrees>
            </Position>
            <DistanceMeters>361.65965329381</DistanceMeters>
          </Trackpoint>
          <Trackpoint>
            <Time>2022-09-24T13:18:44.000Z</Time>
            <Position>
              <LatitudeDegrees>43.2683653570711612701416015625</LatitudeDegrees>
              <LongitudeDegrees>-2.943434379994869232177734375</LongitudeDegrees>
            </Position>
            <DistanceMeters>362.68312232974</DistanceMeters>
          </Trackpoint>
          <Trackpoint>
            <Time>2022-09-24T13:18:45.000Z</Time>
            <Position>
              <LatitudeDegrees>43.268368877470493316650390625</LatitudeDegrees>
              <LongitudeDegrees>-2.94342239387333393096923828125</LongitudeDegrees>
            </Position>
            <DistanceMeters>363.72408783026</DistanceMeters>
          </Trackpoint>
          <Trackpoint>
            <Time>2022-09-24T13:18:46.000Z</Time>
            <Position>
              <LatitudeDegrees>43.26837248168885707855224609375</LatitudeDegrees>
              <LongitudeDegrees>-2.9434104077517986297607421875</LongitudeDegrees>
            </Position>
            <DistanceMeters>364.77369219675</DistanceMeters>
          </Trackpoint>
          <Trackpoint>
            <Time>2022-09-24T13:18:47.000Z</Time>
            <Position>
              <LatitudeDegrees>43.268376253545284271240234375</LatitudeDegrees>
              <LongitudeDegrees>-2.943398170173168182373046875</LongitudeDegrees>
            </Position>
            <DistanceMeters>365.84879674275</DistanceMeters>
          </Trackpoint>
          <Trackpoint>
            <Time>2022-09-24T13:18:48.000Z</Time>
            <Position>
              <LatitudeDegrees>43.26838002540171146392822265625</LatitudeDegrees>
              <LongitudeDegrees>-2.9433859325945377349853515625</LongitudeDegrees>
            </Position>
            <DistanceMeters>366.92390128875</DistanceMeters>
          </Trackpoint>
          <Trackpoint>
            <Time>2022-09-24T13:18:49.000Z</Time>
            <Position>
              <LatitudeDegrees>43.26838396489620208740234375</LatitudeDegrees>
              <LongitudeDegrees>-2.943373359739780426025390625</LongitudeDegrees>
            </Position>
            <DistanceMeters>368.03209368918</DistanceMeters>
          </Trackpoint>
          <Trackpoint>
            <Time>2022-09-24T13:18:50.000Z</Time>
            <Position>
              <LatitudeDegrees>43.2683859765529632568359375</LatitudeDegrees>
              <LongitudeDegrees>-2.94336372055113315582275390625</LongitudeDegrees>
            </Position>
            <DistanceMeters>368.84954439525</DistanceMeters>
          </Trackpoint>
          <Trackpoint>
            <Time>2022-09-24T13:18:51.000Z</Time>
            <Position>
              <LatitudeDegrees>43.26838798820972442626953125</LatitudeDegrees>
              <LongitudeDegrees>-2.94335382990539073944091796875</LongitudeDegrees>
            </Position>
            <DistanceMeters>369.6834004297</DistanceMeters>
          </Trackpoint>
          <Trackpoint>
            <Time>2022-09-24T13:18:52.000Z</Time>
            <Position>
              <LatitudeDegrees>43.268389999866485595703125</LatitudeDegrees>
              <LongitudeDegrees>-2.94334427453577518463134765625</LongitudeDegrees>
            </Position>
            <DistanceMeters>370.4897288392</DistanceMeters>
          </Trackpoint>
          <Trackpoint>
            <Time>2022-09-24T13:18:53.000Z</Time>
            <Position>
              <LatitudeDegrees>43.2683921791613101959228515625</LatitudeDegrees>
              <LongitudeDegrees>-2.94333421625196933746337890625</LongitudeDegrees>
            </Position>
            <DistanceMeters>371.35023233623</DistanceMeters>
          </Trackpoint>
          <Trackpoint>
            <Time>2022-09-24T13:18:54.000Z</Time>
            <Position>
              <LatitudeDegrees>43.2683941908180713653564453125</LatitudeDegrees>
              <LongitudeDegrees>-2.943324744701385498046875</LongitudeDegrees>
            </Position>
            <DistanceMeters>372.15094166397</DistanceMeters>
          </Trackpoint>
          <Trackpoint>
            <Time>2022-09-24T13:18:55.000Z</Time>
            <Position>
              <LatitudeDegrees>43.26839628629386425018310546875</LatitudeDegrees>
              <LongitudeDegrees>-2.94331468641757965087890625</LongitudeDegrees>
            </Position>
            <DistanceMeters>373.000886436</DistanceMeters>
          </Trackpoint>
          <Trackpoint>
            <Time>2022-09-24T13:18:56.000Z</Time>
            <Position>
              <LatitudeDegrees>43.2683980464935302734375</LatitudeDegrees>
              <LongitudeDegrees>-2.9433051310479640960693359375</LongitudeDegrees>
            </Position>
            <DistanceMeters>373.79593696967</DistanceMeters>
          </Trackpoint>
          <Trackpoint>
            <Time>2022-09-24T13:18:57.000Z</Time>
            <Position>
              <LatitudeDegrees>43.26839980669319629669189453125</LatitudeDegrees>
              <LongitudeDegrees>-2.9432950727641582489013671875</LongitudeDegrees>
            </Position>
            <DistanceMeters>374.6351901869</DistanceMeters>
          </Trackpoint>
          <Trackpoint>
            <Time>2022-09-24T13:18:58.000Z</Time>
            <Position>
              <LatitudeDegrees>43.2684015668928623199462890625</LatitudeDegrees>
              <LongitudeDegrees>-2.94328509829938411712646484375</LongitudeDegrees>
            </Position>
            <DistanceMeters>375.46361387665</DistanceMeters>
          </Trackpoint>
          <Trackpoint>
            <Time>2022-09-24T13:18:59.000Z</Time>
            <Position>
              <LatitudeDegrees>43.26840341091156005859375</LatitudeDegrees>
              <LongitudeDegrees>-2.9432752914726734161376953125</LongitudeDegrees>
            </Position>
            <DistanceMeters>376.28106458272</DistanceMeters>
          </Trackpoint>
          <Trackpoint>
            <Time>2022-09-24T13:19:00.000Z</Time>
            <Position>
              <LatitudeDegrees>43.26840517111122608184814453125</LatitudeDegrees>
              <LongitudeDegrees>-2.943265736103057861328125</LongitudeDegrees>
            </Position>
            <DistanceMeters>377.07611511638</DistanceMeters>
          </Trackpoint>
          <Trackpoint>
            <Time>2022-09-24T13:19:01.000Z</Time>
            <Position>
              <LatitudeDegrees>43.26840701512992382049560546875</LatitudeDegrees>
              <LongitudeDegrees>-2.943256013095378875732421875</LongitudeDegrees>
            </Position>
            <DistanceMeters>377.8990706032</DistanceMeters>
          </Trackpoint>
          <Trackpoint>
            <Time>2022-09-24T13:19:02.000Z</Time>
            <Position>
              <LatitudeDegrees>43.2684086076915264129638671875</LatitudeDegrees>
              <LongitudeDegrees>-2.943246625363826751708984375</LongitudeDegrees>
            </Position>
            <DistanceMeters>378.6884217764</DistanceMeters>
          </Trackpoint>
          <Trackpoint>
            <Time>2022-09-24T13:19:03.000Z</Time>
            <Position>
              <LatitudeDegrees>43.26841036789119243621826171875</LatitudeDegrees>
              <LongitudeDegrees>-2.94323690235614776611328125</LongitudeDegrees>
            </Position>
            <DistanceMeters>379.50587248247</DistanceMeters>
          </Trackpoint>
          <Trackpoint>
            <Time>2022-09-24T13:19:04.000Z</Time>
            <Position>
              <LatitudeDegrees>43.26841221190989017486572265625</LatitudeDegrees>
              <LongitudeDegrees>-2.94322776608169078826904296875</LongitudeDegrees>
            </Position>
            <DistanceMeters>380.27787315948</DistanceMeters>
          </Trackpoint>
          <Trackpoint>
            <Time>2022-09-24T13:19:05.000Z</Time>
            <Position>
              <LatitudeDegrees>43.26841405592858791351318359375</LatitudeDegrees>
              <LongitudeDegrees>-2.943218462169170379638671875</LongitudeDegrees>
            </Position>
            <DistanceMeters>381.06148352069</DistanceMeters>
          </Trackpoint>
          <Trackpoint>
            <Time>2022-09-24T13:19:06.000Z</Time>
            <Position>
              <LatitudeDegrees>43.26841589994728565216064453125</LatitudeDegrees>
              <LongitudeDegrees>-2.94320949353277683258056640625</LongitudeDegrees>
            </Position>
            <DistanceMeters>381.80972461788</DistanceMeters>
          </Trackpoint>
          <Trackpoint>
            <Time>2022-09-24T13:19:07.000Z</Time>
            <Position>
              <LatitudeDegrees>43.26841774396598339080810546875</LatitudeDegrees>
              <LongitudeDegrees>-2.94320060871541500091552734375</LongitudeDegrees>
            </Position>
            <DistanceMeters>382.55796571507</DistanceMeters>
          </Trackpoint>
          <Trackpoint>
            <Time>2022-09-24T13:19:08.000Z</Time>
            <Position>
              <LatitudeDegrees>43.2684196718037128448486328125</LatitudeDegrees>
              <LongitudeDegrees>-2.9431914724409580230712890625</LongitudeDegrees>
            </Position>
            <DistanceMeters>383.32996639208</DistanceMeters>
          </Trackpoint>
          <Trackpoint>
            <Time>2022-09-24T13:19:09.000Z</Time>
            <Position>
              <LatitudeDegrees>43.268421851098537445068359375</LatitudeDegrees>
              <LongitudeDegrees>-2.943182252347469329833984375</LongitudeDegrees>
            </Position>
            <DistanceMeters>384.11357675328</DistanceMeters>
          </Trackpoint>
          <Trackpoint>
            <Time>2022-09-24T13:19:10.000Z</Time>
            <Position>
              <LatitudeDegrees>43.2684240303933620452880859375</LatitudeDegrees>
              <LongitudeDegrees>-2.94317328371107578277587890625</LongitudeDegrees>
            </Position>
            <DistanceMeters>384.87379046824</DistanceMeters>
          </Trackpoint>
          <Trackpoint>
            <Time>2022-09-24T13:19:11.000Z</Time>
            <Position>
              <LatitudeDegrees>43.268426544964313507080078125</LatitudeDegrees>
              <LongitudeDegrees>-2.94316389597952365875244140625</LongitudeDegrees>
            </Position>
            <DistanceMeters>385.68569907172</DistanceMeters>
          </Trackpoint>
          <Trackpoint>
            <Time>2022-09-24T13:19:12.000Z</Time>
            <Position>
              <LatitudeDegrees>43.26842914335429668426513671875</LatitudeDegrees>
              <LongitudeDegrees>-2.94315484352409839630126953125</LongitudeDegrees>
            </Position>
            <DistanceMeters>386.46930943293</DistanceMeters>
          </Trackpoint>
          <Trackpoint>
            <Time>2022-09-24T13:19:13.000Z</Time>
            <Position>
              <LatitudeDegrees>43.268431909382343292236328125</LatitudeDegrees>
              <LongitudeDegrees>-2.94314562343060970306396484375</LongitudeDegrees>
            </Position>
            <DistanceMeters>387.27563784243</DistanceMeters>
          </Trackpoint>
          <Trackpoint>
            <Time>2022-09-24T13:19:14.000Z</Time>
            <Position>
              <LatitudeDegrees>43.268434591591358184814453125</LatitudeDegrees>
              <LongitudeDegrees>-2.943136990070343017578125</LongitudeDegrees>
            </Position>
            <DistanceMeters>388.03585155739</DistanceMeters>
          </Trackpoint>
          <Trackpoint>
            <Time>2022-09-24T13:19:15.000Z</Time>
            <Position>
              <LatitudeDegrees>43.26843735761940479278564453125</LatitudeDegrees>
              <LongitudeDegrees>-2.943127937614917755126953125</LongitudeDegrees>
            </Position>
            <DistanceMeters>388.81946191859</DistanceMeters>
          </Trackpoint>
          <Trackpoint>
            <Time>2022-09-24T13:19:16.000Z</Time>
            <Position>
              <LatitudeDegrees>43.268439956009387969970703125</LatitudeDegrees>
              <LongitudeDegrees>-2.94311930425465106964111328125</LongitudeDegrees>
            </Position>
            <DistanceMeters>389.57371308099</DistanceMeters>
          </Trackpoint>
          <Trackpoint>
            <Time>2022-09-24T13:19:17.000Z</Time>
            <Position>
              <LatitudeDegrees>43.268442638218402862548828125</LatitudeDegrees>
              <LongitudeDegrees>-2.94311058707535266876220703125</LongitudeDegrees>
            </Position>
            <DistanceMeters>390.33392679595</DistanceMeters>
          </Trackpoint>
          <Trackpoint>
            <Time>2022-09-24T13:19:18.000Z</Time>
            <Position>
              <LatitudeDegrees>43.268445320427417755126953125</LatitudeDegrees>
              <LongitudeDegrees>-2.9431019537150859832763671875</LongitudeDegrees>
            </Position>
            <DistanceMeters>391.09414051091</DistanceMeters>
          </Trackpoint>
          <Trackpoint>
            <Time>2022-09-24T13:19:19.000Z</Time>
            <Position>
              <LatitudeDegrees>43.2684481702744960784912109375</LatitudeDegrees>
              <LongitudeDegrees>-2.94309332035481929779052734375</LongitudeDegrees>
            </Position>
            <DistanceMeters>391.86614118791</DistanceMeters>
          </Trackpoint>
          <Trackpoint>
            <Time>2022-09-24T13:19:20.000Z</Time>
            <Position>
              <LatitudeDegrees>43.26845110394060611724853515625</LatitudeDegrees>
              <LongitudeDegrees>-2.94308493845164775848388671875</LongitudeDegrees>
            </Position>
            <DistanceMeters>392.6143822851</DistanceMeters>
          </Trackpoint>
          <Trackpoint>
            <Time>2022-09-24T13:19:21.000Z</Time>
            <Position>
              <LatitudeDegrees>43.268454037606716156005859375</LatitudeDegrees>
              <LongitudeDegrees>-2.94307655654847621917724609375</LongitudeDegrees>
            </Position>
            <DistanceMeters>393.36262338229</DistanceMeters>
          </Trackpoint>
          <Trackpoint>
            <Time>2022-09-24T13:19:22.000Z</Time>
            <Position>
              <LatitudeDegrees>43.2684568874537944793701171875</LatitudeDegrees>
              <LongitudeDegrees>-2.94306850992143154144287109375</LongitudeDegrees>
            </Position>
            <DistanceMeters>394.08632527793</DistanceMeters>
          </Trackpoint>
          <Trackpoint>
            <Time>2022-09-24T13:19:23.000Z</Time>
            <Position>
              <LatitudeDegrees>43.2684599049389362335205078125</LatitudeDegrees>
              <LongitudeDegrees>-2.94306012801826000213623046875</LongitudeDegrees>
            </Position>
            <DistanceMeters>394.84653899289</DistanceMeters>
          </Trackpoint>
          <Trackpoint>
            <Time>2022-09-24T13:19:24.000Z</Time>
            <Position>
              <LatitudeDegrees>43.2684629224240779876708984375</LatitudeDegrees>
              <LongitudeDegrees>-2.943052165210247039794921875</LongitudeDegrees>
            </Position>
            <DistanceMeters>395.57645303591</DistanceMeters>
          </Trackpoint>
          <Trackpoint>
            <Time>2022-09-24T13:19:25.000Z</Time>
            <Position>
              <LatitudeDegrees>43.26846602372825145721435546875</LatitudeDegrees>
              <LongitudeDegrees>-2.943044118583202362060546875</LongitudeDegrees>
            </Position>
            <DistanceMeters>396.31252680031</DistanceMeters>
          </Trackpoint>
          <Trackpoint>
            <Time>2022-09-24T13:19:26.000Z</Time>
            <Position>
              <LatitudeDegrees>43.26846904121339321136474609375</LatitudeDegrees>
              <LongitudeDegrees>-2.94303632341325283050537109375</LongitudeDegrees>
            </Position>
            <DistanceMeters>397.02364161584</DistanceMeters>
          </Trackpoint>
          <Trackpoint>
            <Time>2022-09-24T13:19:27.000Z</Time>
            <Position>
              <LatitudeDegrees>43.268472142517566680908203125</LatitudeDegrees>
              <LongitudeDegrees>-2.9430281929671764373779296875</LongitudeDegrees>
            </Position>
            <DistanceMeters>397.75971538023</DistanceMeters>
          </Trackpoint>
          <Trackpoint>
            <Time>2022-09-24T13:19:28.000Z</Time>
            <Position>
              <LatitudeDegrees>43.26847516000270843505859375</LatitudeDegrees>
              <LongitudeDegrees>-2.94302039779722690582275390625</LongitudeDegrees>
            </Position>
            <DistanceMeters>398.47083019576</DistanceMeters>
          </Trackpoint>
          <Trackpoint>
            <Time>2022-09-24T13:19:29.000Z</Time>
            <Position>
              <LatitudeDegrees>43.26847842894494533538818359375</LatitudeDegrees>
              <LongitudeDegrees>-2.9430120997130870819091796875</LongitudeDegrees>
            </Position>
            <DistanceMeters>399.23104391072</DistanceMeters>
          </Trackpoint>
          <Trackpoint>
            <Time>2022-09-24T13:19:30.000Z</Time>
            <Position>
              <LatitudeDegrees>43.2684816978871822357177734375</LatitudeDegrees>
              <LongitudeDegrees>-2.9430040530860424041748046875</LongitudeDegrees>
            </Position>
            <DistanceMeters>399.97928500791</DistanceMeters>
          </Trackpoint>
          <Trackpoint>
            <Time>2022-09-24T13:19:31.000Z</Time>
            <Position>
              <LatitudeDegrees>43.26848513446748256683349609375</LatitudeDegrees>
              <LongitudeDegrees>-2.94299558736383914947509765625</LongitudeDegrees>
            </Position>
            <DistanceMeters>400.76863618111</DistanceMeters>
          </Trackpoint>
          <Trackpoint>
            <Time>2022-09-24T13:19:32.000Z</Time>
            <Position>
              <LatitudeDegrees>43.26848857104778289794921875</LatitudeDegrees>
              <LongitudeDegrees>-2.94298745691776275634765625</LongitudeDegrees>
            </Position>
            <DistanceMeters>401.52884989607</DistanceMeters>
          </Trackpoint>
          <Trackpoint>
            <Time>2022-09-24T13:19:33.000Z</Time>
            <Position>
              <LatitudeDegrees>43.268492259085178375244140625</LatitudeDegrees>
              <LongitudeDegrees>-2.94297899119555950164794921875</LongitudeDegrees>
            </Position>
            <DistanceMeters>402.32390042973</DistanceMeters>
          </Trackpoint>
          <Trackpoint>
            <Time>2022-09-24T13:19:34.000Z</Time>
            <Position>
              <LatitudeDegrees>43.26849586330354213714599609375</LatitudeDegrees>
              <LongitudeDegrees>-2.942971028387546539306640625</LongitudeDegrees>
            </Position>
            <DistanceMeters>403.08411414469</DistanceMeters>
          </Trackpoint>
          <Trackpoint>
            <Time>2022-09-24T13:19:35.000Z</Time>
            <Position>
              <LatitudeDegrees>43.268499635159969329833984375</LatitudeDegrees>
              <LongitudeDegrees>-2.9429628141224384307861328125</LongitudeDegrees>
            </Position>
            <DistanceMeters>403.8677245059</DistanceMeters>
          </Trackpoint>
          <Trackpoint>
            <Time>2022-09-24T13:19:36.000Z</Time>
            <Position>
              <LatitudeDegrees>43.26850340701639652252197265625</LatitudeDegrees>
              <LongitudeDegrees>-2.94295527040958404541015625</LongitudeDegrees>
            </Position>
            <DistanceMeters>404.6037982703</DistanceMeters>
          </Trackpoint>
          <Trackpoint>
            <Time>2022-09-24T13:19:37.000Z</Time>
            <Position>
              <LatitudeDegrees>43.26850743032991886138916015625</LatitudeDegrees>
              <LongitudeDegrees>-2.94294722378253936767578125</LongitudeDegrees>
            </Position>
            <DistanceMeters>405.39884880396</DistanceMeters>
          </Trackpoint>
          <Trackpoint>
            <Time>2022-09-24T13:19:38.000Z</Time>
            <Position>
              <LatitudeDegrees>43.26851136982440948486328125</LatitudeDegrees>
              <LongitudeDegrees>-2.9429396800696849822998046875</LongitudeDegrees>
            </Position>
            <DistanceMeters>406.15309996635</DistanceMeters>
          </Trackpoint>
          <Trackpoint>
            <Time>2022-09-24T13:19:39.000Z</Time>
            <Position>
              <LatitudeDegrees>43.26851539313793182373046875</LatitudeDegrees>
              <LongitudeDegrees>-2.94293188489973545074462890625</LongitudeDegrees>
            </Position>
            <DistanceMeters>406.92510064336</DistanceMeters>
          </Trackpoint>
          <Trackpoint>
            <Time>2022-09-24T13:19:40.000Z</Time>
            <Position>
              <LatitudeDegrees>43.26851950027048587799072265625</LatitudeDegrees>
              <LongitudeDegrees>-2.942924089729785919189453125</LongitudeDegrees>
            </Position>
            <DistanceMeters>407.70292782323</DistanceMeters>
          </Trackpoint>
          <Trackpoint>
            <Time>2022-09-24T13:19:41.000Z</Time>
            <Position>
              <LatitudeDegrees>43.26852369122207164764404296875</LatitudeDegrees>
              <LongitudeDegrees>-2.94291612692177295684814453125</LongitudeDegrees>
            </Position>
            <DistanceMeters>408.49797835689</DistanceMeters>
          </Trackpoint>
          <Trackpoint>
            <Time>2022-09-24T13:19:42.000Z</Time>
            <Position>
              <LatitudeDegrees>43.2685279659926891326904296875</LatitudeDegrees>
              <LongitudeDegrees>-2.94290833175182342529296875</LongitudeDegrees>
            </Position>
            <DistanceMeters>409.29302889056</DistanceMeters>
          </Trackpoint>
          <Trackpoint>
            <Time>2022-09-24T13:19:43.000Z</Time>
            <Position>
              <LatitudeDegrees>43.26853257603943347930908203125</LatitudeDegrees>
              <LongitudeDegrees>-2.94290003366768360137939453125</LongitudeDegrees>
            </Position>
            <DistanceMeters>410.13764480272</DistanceMeters>
          </Trackpoint>
          <Trackpoint>
            <Time>2022-09-24T13:19:44.000Z</Time>
            <Position>
              <LatitudeDegrees>43.26853685081005096435546875</LatitudeDegrees>
              <LongitudeDegrees>-2.94289215467870235443115234375</LongitudeDegrees>
            </Position>
            <DistanceMeters>410.93269533638</DistanceMeters>
          </Trackpoint>
          <Trackpoint>
            <Time>2022-09-24T13:19:45.000Z</Time>
            <Position>
              <LatitudeDegrees>43.26854087412357330322265625</LatitudeDegrees>
              <LongitudeDegrees>-2.94288394041359424591064453125</LongitudeDegrees>
            </Position>
            <DistanceMeters>411.73902374588</DistanceMeters>
          </Trackpoint>
          <Trackpoint>
            <Time>2022-09-24T13:19:46.000Z</Time>
            <Position>
              <LatitudeDegrees>43.26854489743709564208984375</LatitudeDegrees>
              <LongitudeDegrees>-2.94287614524364471435546875</LongitudeDegrees>
            </Position>
            <DistanceMeters>412.51102442288</DistanceMeters>
          </Trackpoint>
          <Trackpoint>
            <Time>2022-09-24T13:19:47.000Z</Time>
            <Position>
              <LatitudeDegrees>43.2685487531125545501708984375</LatitudeDegrees>
              <LongitudeDegrees>-2.94286784715950489044189453125</LongitudeDegrees>
            </Position>
            <DistanceMeters>413.31173375062</DistanceMeters>
          </Trackpoint>
          <Trackpoint>
            <Time>2022-09-24T13:19:48.000Z</Time>
            <Position>
              <LatitudeDegrees>43.268552608788013458251953125</LatitudeDegrees>
              <LongitudeDegrees>-2.9428595490753650665283203125</LongitudeDegrees>
            </Position>
            <DistanceMeters>414.10678428428</DistanceMeters>
          </Trackpoint>
          <Trackpoint>
            <Time>2022-09-24T13:19:49.000Z</Time>
            <Position>
              <LatitudeDegrees>43.2685564644634723663330078125</LatitudeDegrees>
              <LongitudeDegrees>-2.94285125099122524261474609375</LongitudeDegrees>
            </Position>
            <DistanceMeters>414.90183481794</DistanceMeters>
          </Trackpoint>
          <Trackpoint>
            <Time>2022-09-24T13:19:50.000Z</Time>
            <Position>
              <LatitudeDegrees>43.268559984862804412841796875</LatitudeDegrees>
              <LongitudeDegrees>-2.94284320436418056488037109375</LongitudeDegrees>
            </Position>
            <DistanceMeters>415.6620485329</DistanceMeters>
          </Trackpoint>
          <Trackpoint>
            <Time>2022-09-24T13:19:51.000Z</Time>
            <Position>
              <LatitudeDegrees>43.26856342144310474395751953125</LatitudeDegrees>
              <LongitudeDegrees>-2.94283515773713588714599609375</LongitudeDegrees>
            </Position>
            <DistanceMeters>416.41028963009</DistanceMeters>
          </Trackpoint>
          <Trackpoint>
            <Time>2022-09-24T13:19:52.000Z</Time>
            <Position>
              <LatitudeDegrees>43.2685665227472782135009765625</LatitudeDegrees>
              <LongitudeDegrees>-2.94282744638621807098388671875</LongitudeDegrees>
            </Position>
            <DistanceMeters>417.12140444562</DistanceMeters>
          </Trackpoint>
          <Trackpoint>
            <Time>2022-09-24T13:19:53.000Z</Time>
            <Position>
              <LatitudeDegrees>43.26856962405145168304443359375</LatitudeDegrees>
              <LongitudeDegrees>-2.94281973503530025482177734375</LongitudeDegrees>
            </Position>
            <DistanceMeters>417.83884040604</DistanceMeters>
          </Trackpoint>
          <Trackpoint>
            <Time>2022-09-24T13:19:54.000Z</Time>
            <Position>
              <LatitudeDegrees>43.26857280917465686798095703125</LatitudeDegrees>
              <LongitudeDegrees>-2.942812107503414154052734375</LongitudeDegrees>
            </Position>
            <DistanceMeters>418.54995522157</DistanceMeters>
          </Trackpoint>
          <Trackpoint>
            <Time>2022-09-24T13:19:55.000Z</Time>
            <Position>
              <LatitudeDegrees>43.2685759104788303375244140625</LatitudeDegrees>
              <LongitudeDegrees>-2.942804396152496337890625</LongitudeDegrees>
            </Position>
            <DistanceMeters>419.2610700371</DistanceMeters>
          </Trackpoint>
          <Trackpoint>
            <Time>2022-09-24T13:19:56.000Z</Time>
            <Position>
              <LatitudeDegrees>43.2685792632400989532470703125</LatitudeDegrees>
              <LongitudeDegrees>-2.94279693625867366790771484375</LongitudeDegrees>
            </Position>
            <DistanceMeters>419.97218485262</DistanceMeters>
          </Trackpoint>
          <Trackpoint>
            <Time>2022-09-24T13:19:57.000Z</Time>
            <Position>
              <LatitudeDegrees>43.2685829512774944305419921875</LatitudeDegrees>
              <LongitudeDegrees>-2.94278888963162899017333984375</LongitudeDegrees>
            </Position>
            <DistanceMeters>420.74418552963</DistanceMeters>
          </Trackpoint>
          <Trackpoint>
            <Time>2022-09-24T13:19:58.000Z</Time>
            <Position>
              <LatitudeDegrees>43.26858655549585819244384765625</LatitudeDegrees>
              <LongitudeDegrees>-2.94278092682361602783203125</LongitudeDegrees>
            </Position>
            <DistanceMeters>421.50439924459</DistanceMeters>
          </Trackpoint>
          <Trackpoint>
            <Time>2022-09-24T13:19:59.000Z</Time>
            <Position>
              <LatitudeDegrees>43.26859024353325366973876953125</LatitudeDegrees>
              <LongitudeDegrees>-2.9427727125585079193115234375</LongitudeDegrees>
            </Position>
            <DistanceMeters>422.2880096058</DistanceMeters>
          </Trackpoint>
          <Trackpoint>
            <Time>2022-09-24T13:20:00.000Z</Time>
            <Position>
              <LatitudeDegrees>43.26859359629452228546142578125</LatitudeDegrees>
              <LongitudeDegrees>-2.94276491738855838775634765625</LongitudeDegrees>
            </Position>
            <DistanceMeters>423.0240833702</DistanceMeters>
          </Trackpoint>
          <Trackpoint>
            <Time>2022-09-24T13:20:01.000Z</Time>
            <Position>
              <LatitudeDegrees>43.26859694905579090118408203125</LatitudeDegrees>
              <LongitudeDegrees>-2.94275703839957714080810546875</LongitudeDegrees>
            </Position>
            <DistanceMeters>423.76015713459</DistanceMeters>
          </Trackpoint>
          <Trackpoint>
            <Time>2022-09-24T13:20:02.000Z</Time>
            <Position>
              <LatitudeDegrees>43.26860013417899608612060546875</LatitudeDegrees>
              <LongitudeDegrees>-2.9427492432296276092529296875</LongitudeDegrees>
            </Position>
            <DistanceMeters>424.48385903023</DistanceMeters>
          </Trackpoint>
          <Trackpoint>
            <Time>2022-09-24T13:20:03.000Z</Time>
            <Position>
              <LatitudeDegrees>43.26860365457832813262939453125</LatitudeDegrees>
              <LongitudeDegrees>-2.942741028964519500732421875</LongitudeDegrees>
            </Position>
            <DistanceMeters>425.25585970724</DistanceMeters>
          </Trackpoint>
          <Trackpoint>
            <Time>2022-09-24T13:20:04.000Z</Time>
            <Position>
              <LatitudeDegrees>43.2686070911586284637451171875</LatitudeDegrees>
              <LongitudeDegrees>-2.94273306615650653839111328125</LongitudeDegrees>
            </Position>
            <DistanceMeters>426.00410080443</DistanceMeters>
          </Trackpoint>
          <Trackpoint>
            <Time>2022-09-24T13:20:05.000Z</Time>
            <Position>
              <LatitudeDegrees>43.2686104439198970794677734375</LatitudeDegrees>
              <LongitudeDegrees>-2.94272518716752529144287109375</LongitudeDegrees>
            </Position>
            <DistanceMeters>426.74628316954</DistanceMeters>
          </Trackpoint>
          <Trackpoint>
            <Time>2022-09-24T13:20:06.000Z</Time>
            <Position>
              <LatitudeDegrees>43.2686141319572925567626953125</LatitudeDegrees>
              <LongitudeDegrees>-2.94271646998822689056396484375</LongitudeDegrees>
            </Position>
            <DistanceMeters>427.56373387561</DistanceMeters>
          </Trackpoint>
          <Trackpoint>
            <Time>2022-09-24T13:20:07.000Z</Time>
            <Position>
              <LatitudeDegrees>43.26861790381371974945068359375</LatitudeDegrees>
              <LongitudeDegrees>-2.94270741753280162811279296875</LongitudeDegrees>
            </Position>
            <DistanceMeters>428.40298709284</DistanceMeters>
          </Trackpoint>
          <Trackpoint>
            <Time>2022-09-24T13:20:08.000Z</Time>
            <Position>
              <LatitudeDegrees>43.26862159185111522674560546875</LatitudeDegrees>
              <LongitudeDegrees>-2.942698784172534942626953125</LongitudeDegrees>
            </Position>
            <DistanceMeters>429.20931550234</DistanceMeters>
          </Trackpoint>
          <Trackpoint>
            <Time>2022-09-24T13:20:09.000Z</Time>
            <Position>
              <LatitudeDegrees>43.26862536370754241943359375</LatitudeDegrees>
              <LongitudeDegrees>-2.9426898993551731109619140625</LongitudeDegrees>
            </Position>
            <DistanceMeters>430.04317153679</DistanceMeters>
          </Trackpoint>
          <Trackpoint>
            <Time>2022-09-24T13:20:10.000Z</Time>
            <Position>
              <LatitudeDegrees>43.26862880028784275054931640625</LatitudeDegrees>
              <LongitudeDegrees>-2.9426815174520015716552734375</LongitudeDegrees>
            </Position>
            <DistanceMeters>430.82099871666</DistanceMeters>
          </Trackpoint>
          <Trackpoint>
            <Time>2022-09-24T13:20:11.000Z</Time>
            <Position>
              <LatitudeDegrees>43.26863206923007965087890625</LatitudeDegrees>
              <LongitudeDegrees>-2.9426728002727031707763671875</LongitudeDegrees>
            </Position>
            <DistanceMeters>431.61604925032</DistanceMeters>
          </Trackpoint>
          <Trackpoint>
            <Time>2022-09-24T13:20:12.000Z</Time>
            <Position>
              <LatitudeDegrees>43.26863500289618968963623046875</LatitudeDegrees>
              <LongitudeDegrees>-2.94266433455049991607666015625</LongitudeDegrees>
            </Position>
            <DistanceMeters>432.37626296528</DistanceMeters>
          </Trackpoint>
          <Trackpoint>
            <Time>2022-09-24T13:20:13.000Z</Time>
            <Position>
              <LatitudeDegrees>43.26863785274326801300048828125</LatitudeDegrees>
              <LongitudeDegrees>-2.9426553659141063690185546875</LongitudeDegrees>
            </Position>
            <DistanceMeters>433.17131349894</DistanceMeters>
          </Trackpoint>
          <Trackpoint>
            <Time>2022-09-24T13:20:14.000Z</Time>
            <Position>
              <LatitudeDegrees>43.268640451133251190185546875</LatitudeDegrees>
              <LongitudeDegrees>-2.9426466487348079681396484375</LongitudeDegrees>
            </Position>
            <DistanceMeters>433.94331417595</DistanceMeters>
          </Trackpoint>
          <Trackpoint>
            <Time>2022-09-24T13:20:15.000Z</Time>
            <Position>
              <LatitudeDegrees>43.26864321716129779815673828125</LatitudeDegrees>
              <LongitudeDegrees>-2.942637763917446136474609375</LongitudeDegrees>
            </Position>
            <DistanceMeters>434.72692453715</DistanceMeters>
          </Trackpoint>
          <Trackpoint>
            <Time>2022-09-24T13:20:16.000Z</Time>
            <Position>
              <LatitudeDegrees>43.26864589937031269073486328125</LatitudeDegrees>
              <LongitudeDegrees>-2.942629046738147735595703125</LongitudeDegrees>
            </Position>
            <DistanceMeters>435.48713825211</DistanceMeters>
          </Trackpoint>
          <Trackpoint>
            <Time>2022-09-24T13:20:17.000Z</Time>
            <Position>
              <LatitudeDegrees>43.26864874921739101409912109375</LatitudeDegrees>
              <LongitudeDegrees>-2.94262024573981761932373046875</LongitudeDegrees>
            </Position>
            <DistanceMeters>436.27074861332</DistanceMeters>
          </Trackpoint>
          <Trackpoint>
            <Time>2022-09-24T13:20:18.000Z</Time>
            <Position>
              <LatitudeDegrees>43.26865159906446933746337890625</LatitudeDegrees>
              <LongitudeDegrees>-2.94261194765567779541015625</LongitudeDegrees>
            </Position>
            <DistanceMeters>437.01898971051</DistanceMeters>
          </Trackpoint>
          <Trackpoint>
            <Time>2022-09-24T13:20:19.000Z</Time>
            <Position>
              <LatitudeDegrees>43.26865444891154766082763671875</LatitudeDegrees>
              <LongitudeDegrees>-2.94260348193347454071044921875</LongitudeDegrees>
            </Position>
            <DistanceMeters>437.77920342547</DistanceMeters>
          </Trackpoint>
          <Trackpoint>
            <Time>2022-09-24T13:20:20.000Z</Time>
            <Position>
              <LatitudeDegrees>43.268657214939594268798828125</LatitudeDegrees>
              <LongitudeDegrees>-2.9425953514873981475830078125</LongitudeDegrees>
            </Position>
            <DistanceMeters>438.50911746849</DistanceMeters>
          </Trackpoint>
          <Trackpoint>
            <Time>2022-09-24T13:20:21.000Z</Time>
            <Position>
              <LatitudeDegrees>43.2686600647866725921630859375</LatitudeDegrees>
              <LongitudeDegrees>-2.94258688576519489288330078125</LongitudeDegrees>
            </Position>
            <DistanceMeters>439.26336863088</DistanceMeters>
          </Trackpoint>
          <Trackpoint>
            <Time>2022-09-24T13:20:22.000Z</Time>
            <Position>
              <LatitudeDegrees>43.26866283081471920013427734375</LatitudeDegrees>
              <LongitudeDegrees>-2.9425789229571819305419921875</LongitudeDegrees>
            </Position>
            <DistanceMeters>439.97448344641</DistanceMeters>
          </Trackpoint>
          <Trackpoint>
            <Time>2022-09-24T13:20:23.000Z</Time>
            <Position>
              <LatitudeDegrees>43.26866568066179752349853515625</LatitudeDegrees>
              <LongitudeDegrees>-2.94257079251110553741455078125</LongitudeDegrees>
            </Position>
            <DistanceMeters>440.70439748942</DistanceMeters>
          </Trackpoint>
          <Trackpoint>
            <Time>2022-09-24T13:20:24.000Z</Time>
            <Position>
              <LatitudeDegrees>43.26866836287081241607666015625</LatitudeDegrees>
              <LongitudeDegrees>-2.94256324879825115203857421875</LongitudeDegrees>
            </Position>
            <DistanceMeters>441.38964487182</DistanceMeters>
          </Trackpoint>
          <Trackpoint>
            <Time>2022-09-24T13:20:25.000Z</Time>
            <Position>
              <LatitudeDegrees>43.268671296536922454833984375</LatitudeDegrees>
              <LongitudeDegrees>-2.9425554536283016204833984375</LongitudeDegrees>
            </Position>
            <DistanceMeters>442.10075968735</DistanceMeters>
          </Trackpoint>
          <Trackpoint>
            <Time>2022-09-24T13:20:26.000Z</Time>
            <Position>
              <LatitudeDegrees>43.26867439784109592437744140625</LatitudeDegrees>
              <LongitudeDegrees>-2.942547909915447235107421875</LongitudeDegrees>
            </Position>
            <DistanceMeters>442.79906057377</DistanceMeters>
          </Trackpoint>
          <Trackpoint>
            <Time>2022-09-24T13:20:27.000Z</Time>
            <Position>
              <LatitudeDegrees>43.26867741532623767852783203125</LatitudeDegrees>
              <LongitudeDegrees>-2.9425400309264659881591796875</LongitudeDegrees>
            </Position>
            <DistanceMeters>443.52276246941</DistanceMeters>
          </Trackpoint>
          <Trackpoint>
            <Time>2022-09-24T13:20:28.000Z</Time>
            <Position>
              <LatitudeDegrees>43.26868060044944286346435546875</LatitudeDegrees>
              <LongitudeDegrees>-2.94253257103264331817626953125</LongitudeDegrees>
            </Position>
            <DistanceMeters>444.22106335582</DistanceMeters>
          </Trackpoint>
          <Trackpoint>
            <Time>2022-09-24T13:20:29.000Z</Time>
            <Position>
              <LatitudeDegrees>43.2686838693916797637939453125</LatitudeDegrees>
              <LongitudeDegrees>-2.94252469204366207122802734375</LongitudeDegrees>
            </Position>
            <DistanceMeters>444.95713712022</DistanceMeters>
          </Trackpoint>
          <Trackpoint>
            <Time>2022-09-24T13:20:30.000Z</Time>
            <Position>
              <LatitudeDegrees>43.26868697069585323333740234375</LatitudeDegrees>
              <LongitudeDegrees>-2.942517064511775970458984375</LongitudeDegrees>
            </Position>
            <DistanceMeters>445.66825193575</DistanceMeters>
          </Trackpoint>
          <Trackpoint>
            <Time>2022-09-24T13:20:31.000Z</Time>
            <Position>
              <LatitudeDegrees>43.26869032345712184906005859375</LatitudeDegrees>
              <LongitudeDegrees>-2.9425091855227947235107421875</LongitudeDegrees>
            </Position>
            <DistanceMeters>446.40432570015</DistanceMeters>
          </Trackpoint>
          <Trackpoint>
            <Time>2022-09-24T13:20:32.000Z</Time>
            <Position>
              <LatitudeDegrees>43.26869367621839046478271484375</LatitudeDegrees>
              <LongitudeDegrees>-2.9425013065338134765625</LongitudeDegrees>
            </Position>
            <DistanceMeters>447.14650806526</DistanceMeters>
          </Trackpoint>
          <Trackpoint>
            <Time>2022-09-24T13:20:33.000Z</Time>
            <Position>
              <LatitudeDegrees>43.2686972804367542266845703125</LatitudeDegrees>
              <LongitudeDegrees>-2.942493259906768798828125</LongitudeDegrees>
            </Position>
            <DistanceMeters>447.91263792949</DistanceMeters>
          </Trackpoint>
          <Trackpoint>
            <Time>2022-09-24T13:20:34.000Z</Time>
            <Position>
              <LatitudeDegrees>43.26870088465511798858642578125</LatitudeDegrees>
              <LongitudeDegrees>-2.94248521327972412109375</LongitudeDegrees>
            </Position>
            <DistanceMeters>448.67876779371</DistanceMeters>
          </Trackpoint>
          <Trackpoint>
            <Time>2022-09-24T13:20:35.000Z</Time>
            <Position>
              <LatitudeDegrees>43.2687043212354183197021484375</LatitudeDegrees>
              <LongitudeDegrees>-2.94247725047171115875244140625</LongitudeDegrees>
            </Position>
            <DistanceMeters>449.42095015882</DistanceMeters>
          </Trackpoint>
          <Trackpoint>
            <Time>2022-09-24T13:20:36.000Z</Time>
            <Position>
              <LatitudeDegrees>43.2687076739966869354248046875</LatitudeDegrees>
              <LongitudeDegrees>-2.9424692876636981964111328125</LongitudeDegrees>
            </Position>
            <DistanceMeters>450.15702392322</DistanceMeters>
          </Trackpoint>
          <Trackpoint>
            <Time>2022-09-24T13:20:37.000Z</Time>
            <Position>
              <LatitudeDegrees>43.268710859119892120361328125</LatitudeDegrees>
              <LongitudeDegrees>-2.9424612410366535186767578125</LongitudeDegrees>
            </Position>
            <DistanceMeters>450.89309768762</DistanceMeters>
          </Trackpoint>
          <Trackpoint>
            <Time>2022-09-24T13:20:38.000Z</Time>
            <Position>
              <LatitudeDegrees>43.26871387660503387451171875</LatitudeDegrees>
              <LongitudeDegrees>-2.94245369732379913330078125</LongitudeDegrees>
            </Position>
            <DistanceMeters>451.59139857404</DistanceMeters>
          </Trackpoint>
          <Trackpoint>
            <Time>2022-09-24T13:20:39.000Z</Time>
            <Position>
              <LatitudeDegrees>43.26871714554727077484130859375</LatitudeDegrees>
              <LongitudeDegrees>-2.942445985972881317138671875</LongitudeDegrees>
            </Position>
            <DistanceMeters>452.31510046968</DistanceMeters>
          </Trackpoint>
          <Trackpoint>
            <Time>2022-09-24T13:20:40.000Z</Time>
            <Position>
              <LatitudeDegrees>43.2687204144895076751708984375</LatitudeDegrees>
              <LongitudeDegrees>-2.942438609898090362548828125</LongitudeDegrees>
            </Position>
            <DistanceMeters>453.01340135609</DistanceMeters>
          </Trackpoint>
          <Trackpoint>
            <Time>2022-09-24T13:20:41.000Z</Time>
            <Position>
              <LatitudeDegrees>43.2687241025269031524658203125</LatitudeDegrees>
              <LongitudeDegrees>-2.9424307309091091156005859375</LongitudeDegrees>
            </Position>
            <DistanceMeters>453.77361507105</DistanceMeters>
          </Trackpoint>
          <Trackpoint>
            <Time>2022-09-24T13:20:42.000Z</Time>
            <Position>
              <LatitudeDegrees>43.26872787438333034515380859375</LatitudeDegrees>
              <LongitudeDegrees>-2.9424230195581912994384765625</LongitudeDegrees>
            </Position>
            <DistanceMeters>454.52185616825</DistanceMeters>
          </Trackpoint>
          <Trackpoint>
            <Time>2022-09-24T13:20:43.000Z</Time>
            <Position>
              <LatitudeDegrees>43.26873189769685268402099609375</LatitudeDegrees>
              <LongitudeDegrees>-2.942415140569210052490234375</LongitudeDegrees>
            </Position>
            <DistanceMeters>455.29968334812</DistanceMeters>
          </Trackpoint>
          <Trackpoint>
            <Time>2022-09-24T13:20:44.000Z</Time>
            <Position>
              <LatitudeDegrees>43.26873575337231159210205078125</LatitudeDegrees>
              <LongitudeDegrees>-2.94240751303732395172119140625</LongitudeDegrees>
            </Position>
            <DistanceMeters>456.04792444531</DistanceMeters>
          </Trackpoint>
          <Trackpoint>
            <Time>2022-09-24T13:20:45.000Z</Time>
            <Position>
              <LatitudeDegrees>43.26873960904777050018310546875</LatitudeDegrees>
              <LongitudeDegrees>-2.94239963404834270477294921875</LongitudeDegrees>
            </Position>
            <DistanceMeters>456.81992512231</DistanceMeters>
          </Trackpoint>
          <Trackpoint>
            <Time>2022-09-24T13:20:46.000Z</Time>
            <Position>
              <LatitudeDegrees>43.2687435485422611236572265625</LatitudeDegrees>
              <LongitudeDegrees>-2.94239175505936145782470703125</LongitudeDegrees>
            </Position>
            <DistanceMeters>457.59192579932</DistanceMeters>
          </Trackpoint>
          <Trackpoint>
            <Time>2022-09-24T13:20:47.000Z</Time>
            <Position>
              <LatitudeDegrees>43.26874740421772003173828125</LatitudeDegrees>
              <LongitudeDegrees>-2.94238471426069736480712890625</LongitudeDegrees>
            </Position>
            <DistanceMeters>458.30304061485</DistanceMeters>
          </Trackpoint>
          <Trackpoint>
            <Time>2022-09-24T13:20:48.000Z</Time>
            <Position>
              <LatitudeDegrees>43.2687509246170520782470703125</LatitudeDegrees>
              <LongitudeDegrees>-2.94237784110009670257568359375</LongitudeDegrees>
            </Position>
            <DistanceMeters>458.98166709432</DistanceMeters>
          </Trackpoint>
          <Trackpoint>
            <Time>2022-09-24T13:20:49.000Z</Time>
            <Position>
              <LatitudeDegrees>43.2687546126544475555419921875</LatitudeDegrees>
              <LongitudeDegrees>-2.94237063266336917877197265625</LongitudeDegrees>
            </Position>
            <DistanceMeters>459.69278190985</DistanceMeters>
          </Trackpoint>
          <Trackpoint>
            <Time>2022-09-24T13:20:50.000Z</Time>
            <Position>
              <LatitudeDegrees>43.26875821687281131744384765625</LatitudeDegrees>
              <LongitudeDegrees>-2.94236342422664165496826171875</LongitudeDegrees>
            </Position>
            <DistanceMeters>460.40389672538</DistanceMeters>
          </Trackpoint>
          <Trackpoint>
            <Time>2022-09-24T13:20:51.000Z</Time>
            <Position>
              <LatitudeDegrees>43.268761821091175079345703125</LatitudeDegrees>
              <LongitudeDegrees>-2.94235554523766040802001953125</LongitudeDegrees>
            </Position>
            <DistanceMeters>461.15814788777</DistanceMeters>
          </Trackpoint>
          <Trackpoint>
            <Time>2022-09-24T13:20:52.000Z</Time>
            <Position>
              <LatitudeDegrees>43.26876559294760227203369140625</LatitudeDegrees>
              <LongitudeDegrees>-2.9423479177057743072509765625</LongitudeDegrees>
            </Position>
            <DistanceMeters>461.90638898496</DistanceMeters>
          </Trackpoint>
          <Trackpoint>
            <Time>2022-09-24T13:20:53.000Z</Time>
            <Position>
              <LatitudeDegrees>43.26876961626112461090087890625</LatitudeDegrees>
              <LongitudeDegrees>-2.94233995489776134490966796875</LongitudeDegrees>
            </Position>
            <DistanceMeters>462.69574015816</DistanceMeters>
          </Trackpoint>
          <Trackpoint>
            <Time>2022-09-24T13:20:54.000Z</Time>
            <Position>
              <LatitudeDegrees>43.2687737233936786651611328125</LatitudeDegrees>
              <LongitudeDegrees>-2.942332327365875244140625</LongitudeDegrees>
            </Position>
            <DistanceMeters>463.46187002238</DistanceMeters>
          </Trackpoint>
          <Trackpoint>
            <Time>2022-09-24T13:20:55.000Z</Time>
            <Position>
              <LatitudeDegrees>43.26877824962139129638671875</LatitudeDegrees>
              <LongitudeDegrees>-2.94232419691979885101318359375</LongitudeDegrees>
            </Position>
            <DistanceMeters>464.29572605683</DistanceMeters>
          </Trackpoint>
          <Trackpoint>
            <Time>2022-09-24T13:20:56.000Z</Time>
            <Position>
              <LatitudeDegrees>43.26878269203007221221923828125</LatitudeDegrees>
              <LongitudeDegrees>-2.94231615029275417327880859375</LongitudeDegrees>
            </Position>
            <DistanceMeters>465.1131767629</DistanceMeters>
          </Trackpoint>
          <Trackpoint>
            <Time>2022-09-24T13:20:57.000Z</Time>
            <Position>
              <LatitudeDegrees>43.268787302076816558837890625</LatitudeDegrees>
              <LongitudeDegrees>-2.9423076845705509185791015625</LongitudeDegrees>
            </Position>
            <DistanceMeters>465.97368025993</DistanceMeters>
          </Trackpoint>
          <Trackpoint>
            <Time>2022-09-24T13:20:58.000Z</Time>
            <Position>
              <LatitudeDegrees>43.26879166066646575927734375</LatitudeDegrees>
              <LongitudeDegrees>-2.94229921884834766387939453125</LongitudeDegrees>
            </Position>
            <DistanceMeters>466.81829617209</DistanceMeters>
          </Trackpoint>
          <Trackpoint>
            <Time>2022-09-24T13:20:59.000Z</Time>
            <Position>
              <LatitudeDegrees>43.2687961868941783905029296875</LatitudeDegrees>
              <LongitudeDegrees>-2.9422902502119541168212890625</LongitudeDegrees>
            </Position>
            <DistanceMeters>467.69953766804</DistanceMeters>
          </Trackpoint>
          <Trackpoint>
            <Time>2022-09-24T13:21:00.000Z</Time>
            <Position>
              <LatitudeDegrees>43.2688005454838275909423828125</LatitudeDegrees>
              <LongitudeDegrees>-2.94228136539459228515625</LongitudeDegrees>
            </Position>
            <DistanceMeters>468.57047189132</DistanceMeters>
          </Trackpoint>
          <Trackpoint>
            <Time>2022-09-24T13:21:01.000Z</Time>
            <Position>
              <LatitudeDegrees>43.26880507171154022216796875</LatitudeDegrees>
              <LongitudeDegrees>-2.94227222912013530731201171875</LongitudeDegrees>
            </Position>
            <DistanceMeters>469.46695212173</DistanceMeters>
          </Trackpoint>
          <Trackpoint>
            <Time>2022-09-24T13:21:02.000Z</Time>
            <Position>
              <LatitudeDegrees>43.26880934648215770721435546875</LatitudeDegrees>
              <LongitudeDegrees>-2.94226334430277347564697265625</LongitudeDegrees>
            </Position>
            <DistanceMeters>470.32745561876</DistanceMeters>
          </Trackpoint>
          <Trackpoint>
            <Time>2022-09-24T13:21:03.000Z</Time>
            <Position>
              <LatitudeDegrees>43.2688136212527751922607421875</LatitudeDegrees>
              <LongitudeDegrees>-2.94225412420928478240966796875</LongitudeDegrees>
            </Position>
            <DistanceMeters>471.21380580386</DistanceMeters>
          </Trackpoint>
          <Trackpoint>
            <Time>2022-09-24T13:21:04.000Z</Time>
            <Position>
              <LatitudeDegrees>43.26881772838532924652099609375</LatitudeDegrees>
              <LongitudeDegrees>-2.9422451555728912353515625</LongitudeDegrees>
            </Position>
            <DistanceMeters>472.06904623319</DistanceMeters>
          </Trackpoint>
          <Trackpoint>
            <Time>2022-09-24T13:21:05.000Z</Time>
            <Position>
              <LatitudeDegrees>43.26882191933691501617431640625</LatitudeDegrees>
              <LongitudeDegrees>-2.942236103117465972900390625</LongitudeDegrees>
            </Position>
            <DistanceMeters>472.93998045648</DistanceMeters>
          </Trackpoint>
          <Trackpoint>
            <Time>2022-09-24T13:21:06.000Z</Time>
            <Position>
              <LatitudeDegrees>43.2688258588314056396484375</LatitudeDegrees>
              <LongitudeDegrees>-2.94222746975719928741455078125</LongitudeDegrees>
            </Position>
            <DistanceMeters>473.76293594331</DistanceMeters>
          </Trackpoint>
          <Trackpoint>
            <Time>2022-09-24T13:21:07.000Z</Time>
            <Position>
              <LatitudeDegrees>43.268829882144927978515625</LatitudeDegrees>
              <LongitudeDegrees>-2.9422188363969326019287109375</LongitudeDegrees>
            </Position>
            <DistanceMeters>474.59135963306</DistanceMeters>
          </Trackpoint>
          <Trackpoint>
            <Time>2022-09-24T13:21:08.000Z</Time>
            <Position>
              <LatitudeDegrees>43.26883398927748203277587890625</LatitudeDegrees>
              <LongitudeDegrees>-2.94221053831279277801513671875</LongitudeDegrees>
            </Position>
            <DistanceMeters>475.40326823654</DistanceMeters>
          </Trackpoint>
          <Trackpoint>
            <Time>2022-09-24T13:21:09.000Z</Time>
            <Position>
              <LatitudeDegrees>43.268838264048099517822265625</LatitudeDegrees>
              <LongitudeDegrees>-2.94220215640962123870849609375</LongitudeDegrees>
            </Position>
            <DistanceMeters>476.23169192629</DistanceMeters>
          </Trackpoint>
          <Trackpoint>
            <Time>2022-09-24T13:21:10.000Z</Time>
            <Position>
              <LatitudeDegrees>43.2688424549996852874755859375</LatitudeDegrees>
              <LongitudeDegrees>-2.9421940259635448455810546875</LongitudeDegrees>
            </Position>
            <DistanceMeters>477.03802033579</DistanceMeters>
          </Trackpoint>
          <Trackpoint>
            <Time>2022-09-24T13:21:11.000Z</Time>
            <Position>
              <LatitudeDegrees>43.26884706504642963409423828125</LatitudeDegrees>
              <LongitudeDegrees>-2.9421853087842464447021484375</LongitudeDegrees>
            </Position>
            <DistanceMeters>477.9037549053</DistanceMeters>
          </Trackpoint>
          <Trackpoint>
            <Time>2022-09-24T13:21:12.000Z</Time>
            <Position>
              <LatitudeDegrees>43.26885159127414226531982421875</LatitudeDegrees>
              <LongitudeDegrees>-2.94217667542397975921630859375</LongitudeDegrees>
            </Position>
            <DistanceMeters>478.75899533463</DistanceMeters>
          </Trackpoint>
          <Trackpoint>
            <Time>2022-09-24T13:21:13.000Z</Time>
            <Position>
              <LatitudeDegrees>43.26885611750185489654541015625</LatitudeDegrees>
              <LongitudeDegrees>-2.94216762296855449676513671875</LongitudeDegrees>
            </Position>
            <DistanceMeters>479.650424932</DistanceMeters>
          </Trackpoint>
          <Trackpoint>
            <Time>2022-09-24T13:21:14.000Z</Time>
            <Position>
              <LatitudeDegrees>43.26886047609150409698486328125</LatitudeDegrees>
              <LongitudeDegrees>-2.942158989608287811279296875</LongitudeDegrees>
            </Position>
            <DistanceMeters>480.50036970404</DistanceMeters>
          </Trackpoint>
          <Trackpoint>
            <Time>2022-09-24T13:21:15.000Z</Time>
            <Position>
              <LatitudeDegrees>43.2688649185001850128173828125</LatitudeDegrees>
              <LongitudeDegrees>-2.9421501047909259796142578125</LongitudeDegrees>
            </Position>
            <DistanceMeters>481.37130392733</DistanceMeters>
          </Trackpoint>
          <Trackpoint>
            <Time>2022-09-24T13:21:16.000Z</Time>
            <Position>
              <LatitudeDegrees>43.26886936090886592864990234375</LatitudeDegrees>
              <LongitudeDegrees>-2.9421413876116275787353515625</LongitudeDegrees>
            </Position>
            <DistanceMeters>482.23180742436</DistanceMeters>
          </Trackpoint>
          <Trackpoint>
            <Time>2022-09-24T13:21:17.000Z</Time>
            <Position>
              <LatitudeDegrees>43.26887388713657855987548828125</LatitudeDegrees>
              <LongitudeDegrees>-2.94213225133717060089111328125</LongitudeDegrees>
            </Position>
            <DistanceMeters>483.13330999227</DistanceMeters>
          </Trackpoint>
          <Trackpoint>
            <Time>2022-09-24T13:21:18.000Z</Time>
            <Position>
              <LatitudeDegrees>43.268878161907196044921875</LatitudeDegrees>
              <LongitudeDegrees>-2.94212336651980876922607421875</LongitudeDegrees>
            </Position>
            <DistanceMeters>483.9938134893</DistanceMeters>
          </Trackpoint>
          <Trackpoint>
            <Time>2022-09-24T13:21:19.000Z</Time>
            <Position>
              <LatitudeDegrees>43.2688823528587818145751953125</LatitudeDegrees>
              <LongitudeDegrees>-2.94211414642632007598876953125</LongitudeDegrees>
            </Position>
            <DistanceMeters>484.87505498525</DistanceMeters>
          </Trackpoint>
          <Trackpoint>
            <Time>2022-09-24T13:21:20.000Z</Time>
            <Position>
              <LatitudeDegrees>43.2688860408961772918701171875</LatitudeDegrees>
              <LongitudeDegrees>-2.9421051777899265289306640625</LongitudeDegrees>
            </Position>
            <DistanceMeters>485.703478675</DistanceMeters>
          </Trackpoint>
          <Trackpoint>
            <Time>2022-09-24T13:21:21.000Z</Time>
            <Position>
              <LatitudeDegrees>43.26888981275260448455810546875</LatitudeDegrees>
              <LongitudeDegrees>-2.9420957900583744049072265625</LongitudeDegrees>
            </Position>
            <DistanceMeters>486.57441289829</DistanceMeters>
          </Trackpoint>
          <Trackpoint>
            <Time>2022-09-24T13:21:22.000Z</Time>
            <Position>
              <LatitudeDegrees>43.268893249332904815673828125</LatitudeDegrees>
              <LongitudeDegrees>-2.942086569964885711669921875</LongitudeDegrees>
            </Position>
            <DistanceMeters>487.41366611552</DistanceMeters>
          </Trackpoint>
          <Trackpoint>
            <Time>2022-09-24T13:21:23.000Z</Time>
            <Position>
              <LatitudeDegrees>43.26889668591320514678955078125</LatitudeDegrees>
              <LongitudeDegrees>-2.9420770145952701568603515625</LongitudeDegrees>
            </Position>
            <DistanceMeters>488.27416961255</DistanceMeters>
          </Trackpoint>
          <Trackpoint>
            <Time>2022-09-24T13:21:24.000Z</Time>
            <Position>
              <LatitudeDegrees>43.26889987103641033172607421875</LatitudeDegrees>
              <LongitudeDegrees>-2.942067794501781463623046875</LongitudeDegrees>
            </Position>
            <DistanceMeters>489.1025933023</DistanceMeters>
          </Trackpoint>
          <Trackpoint>
            <Time>2022-09-24T13:21:25.000Z</Time>
            <Position>
              <LatitudeDegrees>43.268903307616710662841796875</LatitudeDegrees>
              <LongitudeDegrees>-2.94205807149410247802734375</LongitudeDegrees>
            </Position>
            <DistanceMeters>489.97352752559</DistanceMeters>
          </Trackpoint>
          <Trackpoint>
            <Time>2022-09-24T13:21:26.000Z</Time>
            <Position>
              <LatitudeDegrees>43.268906660377979278564453125</LatitudeDegrees>
              <LongitudeDegrees>-2.94204868376255035400390625</LongitudeDegrees>
            </Position>
            <DistanceMeters>490.81814343775</DistanceMeters>
          </Trackpoint>
          <Trackpoint>
            <Time>2022-09-24T13:21:27.000Z</Time>
            <Position>
              <LatitudeDegrees>43.26891026459634304046630859375</LatitudeDegrees>
              <LongitudeDegrees>-2.94203887693583965301513671875</LongitudeDegrees>
            </Position>
            <DistanceMeters>491.70957303512</DistanceMeters>
          </Trackpoint>
          <Trackpoint>
            <Time>2022-09-24T13:21:28.000Z</Time>
            <Position>
              <LatitudeDegrees>43.26891361735761165618896484375</LatitudeDegrees>
              <LongitudeDegrees>-2.9420294053852558135986328125</LongitudeDegrees>
            </Position>
            <DistanceMeters>492.56481346445</DistanceMeters>
          </Trackpoint>
          <Trackpoint>
            <Time>2022-09-24T13:21:29.000Z</Time>
            <Position>
              <LatitudeDegrees>43.2689172215759754180908203125</LatitudeDegrees>
              <LongitudeDegrees>-2.94201976619660854339599609375</LongitudeDegrees>
            </Position>
            <DistanceMeters>493.44091648221</DistanceMeters>
          </Trackpoint>
          <Trackpoint>
            <Time>2022-09-24T13:21:30.000Z</Time>
            <Position>
              <LatitudeDegrees>43.26892065815627574920654296875</LatitudeDegrees>
              <LongitudeDegrees>-2.94201071374118328094482421875</LongitudeDegrees>
            </Position>
            <DistanceMeters>494.26387196904</DistanceMeters>
          </Trackpoint>
          <Trackpoint>
            <Time>2022-09-24T13:21:31.000Z</Time>
            <Position>
              <LatitudeDegrees>43.26892451383173465728759765625</LatitudeDegrees>
              <LongitudeDegrees>-2.94200132600963115692138671875</LongitudeDegrees>
            </Position>
            <DistanceMeters>495.13480619232</DistanceMeters>
          </Trackpoint>
          <Trackpoint>
            <Time>2022-09-24T13:21:32.000Z</Time>
            <Position>
              <LatitudeDegrees>43.26892836950719356536865234375</LatitudeDegrees>
              <LongitudeDegrees>-2.941992692649364471435546875</LongitudeDegrees>
            </Position>
            <DistanceMeters>495.95225689839</DistanceMeters>
          </Trackpoint>
          <Trackpoint>
            <Time>2022-09-24T13:21:33.000Z</Time>
            <Position>
              <LatitudeDegrees>43.268932141363620758056640625</LatitudeDegrees>
              <LongitudeDegrees>-2.94198422692716121673583984375</LongitudeDegrees>
            </Position>
            <DistanceMeters>496.74730743206</DistanceMeters>
          </Trackpoint>
          <Trackpoint>
            <Time>2022-09-24T13:21:34.000Z</Time>
            <Position>
              <LatitudeDegrees>43.26893624849617481231689453125</LatitudeDegrees>
              <LongitudeDegrees>-2.941975928843021392822265625</LongitudeDegrees>
            </Position>
            <DistanceMeters>497.55921603554</DistanceMeters>
          </Trackpoint>
          <Trackpoint>
            <Time>2022-09-24T13:21:35.000Z</Time>
            <Position>
              <LatitudeDegrees>43.2689403556287288665771484375</LatitudeDegrees>
              <LongitudeDegrees>-2.941967546939849853515625</LongitudeDegrees>
            </Position>
            <DistanceMeters>498.37666674161</DistanceMeters>
          </Trackpoint>
          <Trackpoint>
            <Time>2022-09-24T13:21:36.000Z</Time>
            <Position>
              <LatitudeDegrees>43.2689440436661243438720703125</LatitudeDegrees>
              <LongitudeDegrees>-2.9419596679508686065673828125</LongitudeDegrees>
            </Position>
            <DistanceMeters>499.1249078388</DistanceMeters>
          </Trackpoint>
          <Trackpoint>
            <Time>2022-09-24T13:21:37.000Z</Time>
            <Position>
              <LatitudeDegrees>43.26894781552255153656005859375</LatitudeDegrees>
              <LongitudeDegrees>-2.9419516213238239288330078125</LongitudeDegrees>
            </Position>
            <DistanceMeters>499.89690851581</DistanceMeters>
          </Trackpoint>
          <Trackpoint>
            <Time>2022-09-24T13:21:38.000Z</Time>
            <Position>
              <LatitudeDegrees>43.26895125210285186767578125</LatitudeDegrees>
              <LongitudeDegrees>-2.94194382615387439727783203125</LongitudeDegrees>
            </Position>
            <DistanceMeters>500.63298228021</DistanceMeters>
          </Trackpoint>
          <Trackpoint>
            <Time>2022-09-24T13:21:39.000Z</Time>
            <Position>
              <LatitudeDegrees>43.26895468868315219879150390625</LatitudeDegrees>
              <LongitudeDegrees>-2.9419358633458614349365234375</LongitudeDegrees>
            </Position>
            <DistanceMeters>501.3872334426</DistanceMeters>
          </Trackpoint>
          <Trackpoint>
            <Time>2022-09-24T13:21:40.000Z</Time>
            <Position>
              <LatitudeDegrees>43.26895795762538909912109375</LatitudeDegrees>
              <LongitudeDegrees>-2.9419284872710704803466796875</LongitudeDegrees>
            </Position>
            <DistanceMeters>502.09197041794</DistanceMeters>
          </Trackpoint>
          <Trackpoint>
            <Time>2022-09-24T13:21:41.000Z</Time>
            <Position>
              <LatitudeDegrees>43.26896139420568943023681640625</LatitudeDegrees>
              <LongitudeDegrees>-2.9419207759201526641845703125</LongitudeDegrees>
            </Position>
            <DistanceMeters>502.82804418234</DistanceMeters>
          </Trackpoint>
          <Trackpoint>
            <Time>2022-09-24T13:21:42.000Z</Time>
            <Position>
              <LatitudeDegrees>43.26896466314792633056640625</LatitudeDegrees>
              <LongitudeDegrees>-2.9419133998453617095947265625</LongitudeDegrees>
            </Position>
            <DistanceMeters>503.52634506876</DistanceMeters>
          </Trackpoint>
          <Trackpoint>
            <Time>2022-09-24T13:21:43.000Z</Time>
            <Position>
              <LatitudeDegrees>43.2689680159091949462890625</LatitudeDegrees>
              <LongitudeDegrees>-2.94190560467541217803955078125</LongitudeDegrees>
            </Position>
            <DistanceMeters>504.26241883316</DistanceMeters>
          </Trackpoint>
          <Trackpoint>
            <Time>2022-09-24T13:21:44.000Z</Time>
            <Position>
              <LatitudeDegrees>43.2689712010324001312255859375</LatitudeDegrees>
              <LongitudeDegrees>-2.941898144781589508056640625</LongitudeDegrees>
            </Position>
            <DistanceMeters>504.96071971958</DistanceMeters>
          </Trackpoint>
          <Trackpoint>
            <Time>2022-09-24T13:21:45.000Z</Time>
            <Position>
              <LatitudeDegrees>43.2689745537936687469482421875</LatitudeDegrees>
              <LongitudeDegrees>-2.94189034961163997650146484375</LongitudeDegrees>
            </Position>
            <DistanceMeters>505.6906337626</DistanceMeters>
          </Trackpoint>
          <Trackpoint>
            <Time>2022-09-24T13:21:46.000Z</Time>
            <Position>
              <LatitudeDegrees>43.268977738916873931884765625</LatitudeDegrees>
              <LongitudeDegrees>-2.94188247062265872955322265625</LongitudeDegrees>
            </Position>
            <DistanceMeters>506.41433565823</DistanceMeters>
          </Trackpoint>
          <Trackpoint>
            <Time>2022-09-24T13:21:47.000Z</Time>
            <Position>
              <LatitudeDegrees>43.26898100785911083221435546875</LatitudeDegrees>
              <LongitudeDegrees>-2.941874004900455474853515625</LongitudeDegrees>
            </Position>
            <DistanceMeters>507.18633633524</DistanceMeters>
          </Trackpoint>
          <Trackpoint>
            <Time>2022-09-24T13:21:48.000Z</Time>
            <Position>
              <LatitudeDegrees>43.2689839415252208709716796875</LatitudeDegrees>
              <LongitudeDegrees>-2.94186537154018878936767578125</LongitudeDegrees>
            </Position>
            <DistanceMeters>507.95833701225</DistanceMeters>
          </Trackpoint>
          <Trackpoint>
            <Time>2022-09-24T13:21:49.000Z</Time>
            <Position>
              <LatitudeDegrees>43.26898704282939434051513671875</LatitudeDegrees>
              <LongitudeDegrees>-2.9418562352657318115234375</LongitudeDegrees>
            </Position>
            <DistanceMeters>508.77578771832</DistanceMeters>
          </Trackpoint>
          <Trackpoint>
            <Time>2022-09-24T13:21:50.000Z</Time>
            <Position>
              <LatitudeDegrees>43.26898989267647266387939453125</LatitudeDegrees>
              <LongitudeDegrees>-2.94184726662933826446533203125</LongitudeDegrees>
            </Position>
            <DistanceMeters>509.55939807952</DistanceMeters>
          </Trackpoint>
          <Trackpoint>
            <Time>2022-09-24T13:21:51.000Z</Time>
            <Position>
              <LatitudeDegrees>43.2689926587045192718505859375</LatitudeDegrees>
              <LongitudeDegrees>-2.94183838181197643280029296875</LongitudeDegrees>
            </Position>
            <DistanceMeters>510.34300844073</DistanceMeters>
          </Trackpoint>
          <Trackpoint>
            <Time>2022-09-24T13:21:52.000Z</Time>
            <Position>
              <LatitudeDegrees>43.2689953409135341644287109375</LatitudeDegrees>
              <LongitudeDegrees>-2.94182966463267803192138671875</LongitudeDegrees>
            </Position>
            <DistanceMeters>511.10322215569</DistanceMeters>
          </Trackpoint>
          <Trackpoint>
            <Time>2022-09-24T13:21:53.000Z</Time>
            <Position>
              <LatitudeDegrees>43.2689980231225490570068359375</LatitudeDegrees>
              <LongitudeDegrees>-2.941821031272411346435546875</LongitudeDegrees>
            </Position>
            <DistanceMeters>511.85747331808</DistanceMeters>
          </Trackpoint>
          <Trackpoint>
            <Time>2022-09-24T13:21:54.000Z</Time>
            <Position>
              <LatitudeDegrees>43.2690007053315639495849609375</LatitudeDegrees>
              <LongitudeDegrees>-2.94181256555020809173583984375</LongitudeDegrees>
            </Position>
            <DistanceMeters>512.60571441527</DistanceMeters>
          </Trackpoint>
          <Trackpoint>
            <Time>2022-09-24T13:21:55.000Z</Time>
            <Position>
              <LatitudeDegrees>43.26900347135961055755615234375</LatitudeDegrees>
              <LongitudeDegrees>-2.94180401600897312164306640625</LongitudeDegrees>
            </Position>
            <DistanceMeters>513.36592813023</DistanceMeters>
          </Trackpoint>
          <Trackpoint>
            <Time>2022-09-24T13:21:56.000Z</Time>
            <Position>
              <LatitudeDegrees>43.26900615356862545013427734375</LatitudeDegrees>
              <LongitudeDegrees>-2.9417953826487064361572265625</LongitudeDegrees>
            </Position>
            <DistanceMeters>514.12614184519</DistanceMeters>
          </Trackpoint>
          <Trackpoint>
            <Time>2022-09-24T13:21:57.000Z</Time>
            <Position>
              <LatitudeDegrees>43.26900900341570377349853515625</LatitudeDegrees>
              <LongitudeDegrees>-2.94178641401231288909912109375</LongitudeDegrees>
            </Position>
            <DistanceMeters>514.92119237885</DistanceMeters>
          </Trackpoint>
          <Trackpoint>
            <Time>2022-09-24T13:21:58.000Z</Time>
            <Position>
              <LatitudeDegrees>43.269011937081813812255859375</LatitudeDegrees>
              <LongitudeDegrees>-2.9417779482901096343994140625</LongitudeDegrees>
            </Position>
            <DistanceMeters>515.68140609381</DistanceMeters>
          </Trackpoint>
          <Trackpoint>
            <Time>2022-09-24T13:21:59.000Z</Time>
            <Position>
              <LatitudeDegrees>43.26901503838598728179931640625</LatitudeDegrees>
              <LongitudeDegrees>-2.941769063472747802734375</LongitudeDegrees>
            </Position>
            <DistanceMeters>516.47645662748</DistanceMeters>
          </Trackpoint>
          <Trackpoint>
            <Time>2022-09-24T13:22:00.000Z</Time>
            <Position>
              <LatitudeDegrees>43.26901805587112903594970703125</LatitudeDegrees>
              <LongitudeDegrees>-2.94176043011248111724853515625</LongitudeDegrees>
            </Position>
            <DistanceMeters>517.24845730448</DistanceMeters>
          </Trackpoint>
          <Trackpoint>
            <Time>2022-09-24T13:22:01.000Z</Time>
            <Position>
              <LatitudeDegrees>43.26902107335627079010009765625</LatitudeDegrees>
              <LongitudeDegrees>-2.94175154529511928558349609375</LongitudeDegrees>
            </Position>
            <DistanceMeters>518.04350783815</DistanceMeters>
          </Trackpoint>
          <Trackpoint>
            <Time>2022-09-24T13:22:02.000Z</Time>
            <Position>
              <LatitudeDegrees>43.2690238393843173980712890625</LatitudeDegrees>
              <LongitudeDegrees>-2.94174291193485260009765625</LongitudeDegrees>
            </Position>
            <DistanceMeters>518.80372155311</DistanceMeters>
          </Trackpoint>
          <Trackpoint>
            <Time>2022-09-24T13:22:03.000Z</Time>
            <Position>
              <LatitudeDegrees>43.26902660541236400604248046875</LatitudeDegrees>
              <LongitudeDegrees>-2.94173419475555419921875</LongitudeDegrees>
            </Position>
            <DistanceMeters>519.57572223011</DistanceMeters>
          </Trackpoint>
          <Trackpoint>
            <Time>2022-09-24T13:22:04.000Z</Time>
            <Position>
              <LatitudeDegrees>43.269029371440410614013671875</LatitudeDegrees>
              <LongitudeDegrees>-2.94172547757625579833984375</LongitudeDegrees>
            </Position>
            <DistanceMeters>520.34185209434</DistanceMeters>
          </Trackpoint>
          <Trackpoint>
            <Time>2022-09-24T13:22:05.000Z</Time>
            <Position>
              <LatitudeDegrees>43.2690322212874889373779296875</LatitudeDegrees>
              <LongitudeDegrees>-2.9417165927588939666748046875</LongitudeDegrees>
            </Position>
            <DistanceMeters>521.12546245554</DistanceMeters>
          </Trackpoint>
          <Trackpoint>
            <Time>2022-09-24T13:22:06.000Z</Time>
            <Position>
              <LatitudeDegrees>43.2690349034965038299560546875</LatitudeDegrees>
              <LongitudeDegrees>-2.94170804321765899658203125</LongitudeDegrees>
            </Position>
            <DistanceMeters>521.87370355274</DistanceMeters>
          </Trackpoint>
          <Trackpoint>
            <Time>2022-09-24T13:22:07.000Z</Time>
            <Position>
              <LatitudeDegrees>43.26903750188648700714111328125</LatitudeDegrees>
              <LongitudeDegrees>-2.94169940985739231109619140625</LongitudeDegrees>
            </Position>
            <DistanceMeters>522.63391726769</DistanceMeters>
          </Trackpoint>
          <Trackpoint>
            <Time>2022-09-24T13:22:08.000Z</Time>
            <Position>
              <LatitudeDegrees>43.269040100276470184326171875</LatitudeDegrees>
              <LongitudeDegrees>-2.94169069267809391021728515625</LongitudeDegrees>
            </Position>
            <DistanceMeters>523.40004713192</DistanceMeters>
          </Trackpoint>
          <Trackpoint>
            <Time>2022-09-24T13:22:09.000Z</Time>
            <Position>
              <LatitudeDegrees>43.2690426148474216461181640625</LatitudeDegrees>
              <LongitudeDegrees>-2.94168180786073207855224609375</LongitudeDegrees>
            </Position>
            <DistanceMeters>524.17204780893</DistanceMeters>
          </Trackpoint>
          <Trackpoint>
            <Time>2022-09-24T13:22:10.000Z</Time>
            <Position>
              <LatitudeDegrees>43.26904512941837310791015625</LatitudeDegrees>
              <LongitudeDegrees>-2.9416730068624019622802734375</LongitudeDegrees>
            </Position>
            <DistanceMeters>524.93226152389</DistanceMeters>
          </Trackpoint>
          <Trackpoint>
            <Time>2022-09-24T13:22:11.000Z</Time>
            <Position>
              <LatitudeDegrees>43.26904756017029285430908203125</LatitudeDegrees>
              <LongitudeDegrees>-2.9416639544069766998291015625</LongitudeDegrees>
            </Position>
            <DistanceMeters>525.7042622009</DistanceMeters>
          </Trackpoint>
          <Trackpoint>
            <Time>2022-09-24T13:22:12.000Z</Time>
            <Position>
              <LatitudeDegrees>43.269049823284149169921875</LatitudeDegrees>
              <LongitudeDegrees>-2.9416550695896148681640625</LongitudeDegrees>
            </Position>
            <DistanceMeters>526.46447591586</DistanceMeters>
          </Trackpoint>
          <Trackpoint>
            <Time>2022-09-24T13:22:13.000Z</Time>
            <Position>
              <LatitudeDegrees>43.2690520025789737701416015625</LatitudeDegrees>
              <LongitudeDegrees>-2.941646017134189605712890625</LongitudeDegrees>
            </Position>
            <DistanceMeters>527.23647659286</DistanceMeters>
          </Trackpoint>
          <Trackpoint>
            <Time>2022-09-24T13:22:14.000Z</Time>
            <Position>
              <LatitudeDegrees>43.269054181873798370361328125</LatitudeDegrees>
              <LongitudeDegrees>-2.94163671322166919708251953125</LongitudeDegrees>
            </Position>
            <DistanceMeters>528.02582776606</DistanceMeters>
          </Trackpoint>
          <Trackpoint>
            <Time>2022-09-24T13:22:15.000Z</Time>
            <Position>
              <LatitudeDegrees>43.26905610971152782440185546875</LatitudeDegrees>
              <LongitudeDegrees>-2.94162766076624393463134765625</LongitudeDegrees>
            </Position>
            <DistanceMeters>528.78604148102</DistanceMeters>
          </Trackpoint>
          <Trackpoint>
            <Time>2022-09-24T13:22:16.000Z</Time>
            <Position>
              <LatitudeDegrees>43.2690580375492572784423828125</LatitudeDegrees>
              <LongitudeDegrees>-2.9416186921298503875732421875</LongitudeDegrees>
            </Position>
            <DistanceMeters>529.54029264342</DistanceMeters>
          </Trackpoint>
          <Trackpoint>
            <Time>2022-09-24T13:22:17.000Z</Time>
            <Position>
              <LatitudeDegrees>43.2690600492060184478759765625</LatitudeDegrees>
              <LongitudeDegrees>-2.94160955585539340972900390625</LongitudeDegrees>
            </Position>
            <DistanceMeters>530.31229332042</DistanceMeters>
          </Trackpoint>
          <Trackpoint>
            <Time>2022-09-24T13:22:18.000Z</Time>
            <Position>
              <LatitudeDegrees>43.2690620608627796173095703125</LatitudeDegrees>
              <LongitudeDegrees>-2.9416002519428730010986328125</LongitudeDegrees>
            </Position>
            <DistanceMeters>531.09590368163</DistanceMeters>
          </Trackpoint>
          <Trackpoint>
            <Time>2022-09-24T13:22:19.000Z</Time>
            <Position>
              <LatitudeDegrees>43.26906415633857250213623046875</LatitudeDegrees>
              <LongitudeDegrees>-2.941591031849384307861328125</LongitudeDegrees>
            </Position>
            <DistanceMeters>531.88525485483</DistanceMeters>
          </Trackpoint>
          <Trackpoint>
            <Time>2022-09-24T13:22:20.000Z</Time>
            <Position>
              <LatitudeDegrees>43.269066251814365386962890625</LatitudeDegrees>
              <LongitudeDegrees>-2.941581644117832183837890625</LongitudeDegrees>
            </Position>
            <DistanceMeters>532.68030538849</DistanceMeters>
          </Trackpoint>
          <Trackpoint>
            <Time>2022-09-24T13:22:21.000Z</Time>
            <Position>
              <LatitudeDegrees>43.2690684311091899871826171875</LatitudeDegrees>
              <LongitudeDegrees>-2.941572256386280059814453125</LongitudeDegrees>
            </Position>
            <DistanceMeters>533.48101471623</DistanceMeters>
          </Trackpoint>
          <Trackpoint>
            <Time>2022-09-24T13:22:22.000Z</Time>
            <Position>
              <LatitudeDegrees>43.26907069422304630279541015625</LatitudeDegrees>
              <LongitudeDegrees>-2.94156261719763278961181640625</LongitudeDegrees>
            </Position>
            <DistanceMeters>534.2984654223</DistanceMeters>
          </Trackpoint>
          <Trackpoint>
            <Time>2022-09-24T13:22:23.000Z</Time>
            <Position>
              <LatitudeDegrees>43.26907304115593433380126953125</LatitudeDegrees>
              <LongitudeDegrees>-2.941552810370922088623046875</LongitudeDegrees>
            </Position>
            <DistanceMeters>535.13771863952</DistanceMeters>
          </Trackpoint>
          <Trackpoint>
            <Time>2022-09-24T13:22:24.000Z</Time>
            <Position>
              <LatitudeDegrees>43.2690753042697906494140625</LatitudeDegrees>
              <LongitudeDegrees>-2.9415432550013065338134765625</LongitudeDegrees>
            </Position>
            <DistanceMeters>535.94404704902</DistanceMeters>
          </Trackpoint>
          <Trackpoint>
            <Time>2022-09-24T13:22:25.000Z</Time>
            <Position>
              <LatitudeDegrees>43.26907773502171039581298828125</LatitudeDegrees>
              <LongitudeDegrees>-2.94153369963169097900390625</LongitudeDegrees>
            </Position>
            <DistanceMeters>536.76149775509</DistanceMeters>
          </Trackpoint>
          <Trackpoint>
            <Time>2022-09-24T13:22:26.000Z</Time>
            <Position>
              <LatitudeDegrees>43.2690801657736301422119140625</LatitudeDegrees>
              <LongitudeDegrees>-2.941523976624011993408203125</LongitudeDegrees>
            </Position>
            <DistanceMeters>537.59535378954</DistanceMeters>
          </Trackpoint>
          <Trackpoint>
            <Time>2022-09-24T13:22:27.000Z</Time>
            <Position>
              <LatitudeDegrees>43.26908259652554988861083984375</LatitudeDegrees>
              <LongitudeDegrees>-2.94151416979730129241943359375</LongitudeDegrees>
            </Position>
            <DistanceMeters>538.43460700677</DistanceMeters>
          </Trackpoint>
          <Trackpoint>
            <Time>2022-09-24T13:22:28.000Z</Time>
            <Position>
              <LatitudeDegrees>43.269085027277469635009765625</LatitudeDegrees>
              <LongitudeDegrees>-2.9415046982467174530029296875</LongitudeDegrees>
            </Position>
            <DistanceMeters>539.25205771284</DistanceMeters>
          </Trackpoint>
          <Trackpoint>
            <Time>2022-09-24T13:22:29.000Z</Time>
            <Position>
              <LatitudeDegrees>43.26908762566745281219482421875</LatitudeDegrees>
              <LongitudeDegrees>-2.9414953105151653289794921875</LongitudeDegrees>
            </Position>
            <DistanceMeters>540.06950841891</DistanceMeters>
          </Trackpoint>
          <Trackpoint>
            <Time>2022-09-24T13:22:30.000Z</Time>
            <Position>
              <LatitudeDegrees>43.26909014023840427398681640625</LatitudeDegrees>
              <LongitudeDegrees>-2.94148600660264492034912109375</LongitudeDegrees>
            </Position>
            <DistanceMeters>540.8758368284</DistanceMeters>
          </Trackpoint>
          <Trackpoint>
            <Time>2022-09-24T13:22:31.000Z</Time>
            <Position>
              <LatitudeDegrees>43.26909265480935573577880859375</LatitudeDegrees>
              <LongitudeDegrees>-2.94147661887109279632568359375</LongitudeDegrees>
            </Position>
            <DistanceMeters>541.6821652379</DistanceMeters>
          </Trackpoint>
          <Trackpoint>
            <Time>2022-09-24T13:22:32.000Z</Time>
            <Position>
              <LatitudeDegrees>43.26909516938030719757080078125</LatitudeDegrees>
              <LongitudeDegrees>-2.94146664440631866455078125</LongitudeDegrees>
            </Position>
            <DistanceMeters>542.53211000994</DistanceMeters>
          </Trackpoint>
          <Trackpoint>
            <Time>2022-09-24T13:22:33.000Z</Time>
            <Position>
              <LatitudeDegrees>43.26909751631319522857666015625</LatitudeDegrees>
              <LongitudeDegrees>-2.9414570890367031097412109375</LongitudeDegrees>
            </Position>
            <DistanceMeters>543.34956071601</DistanceMeters>
          </Trackpoint>
          <Trackpoint>
            <Time>2022-09-24T13:22:34.000Z</Time>
            <Position>
              <LatitudeDegrees>43.26909986324608325958251953125</LatitudeDegrees>
              <LongitudeDegrees>-2.9414470307528972625732421875</LongitudeDegrees>
            </Position>
            <DistanceMeters>544.21006421304</DistanceMeters>
          </Trackpoint>
          <Trackpoint>
            <Time>2022-09-24T13:22:35.000Z</Time>
            <Position>
              <LatitudeDegrees>43.26910204254090785980224609375</LatitudeDegrees>
              <LongitudeDegrees>-2.941436804831027984619140625</LongitudeDegrees>
            </Position>
            <DistanceMeters>545.07056771007</DistanceMeters>
          </Trackpoint>
          <Trackpoint>
            <Time>2022-09-24T13:22:36.000Z</Time>
            <Position>
              <LatitudeDegrees>43.26910438947379589080810546875</LatitudeDegrees>
              <LongitudeDegrees>-2.941426075994968414306640625</LongitudeDegrees>
            </Position>
            <DistanceMeters>545.97706479027</DistanceMeters>
          </Trackpoint>
          <Trackpoint>
            <Time>2022-09-24T13:22:37.000Z</Time>
            <Position>
              <LatitudeDegrees>43.26910656876862049102783203125</LatitudeDegrees>
              <LongitudeDegrees>-2.94141559861600399017333984375</LongitudeDegrees>
            </Position>
            <DistanceMeters>546.85830628622</DistanceMeters>
          </Trackpoint>
          <Trackpoint>
            <Time>2022-09-24T13:22:38.000Z</Time>
            <Position>
              <LatitudeDegrees>43.26910891570150852203369140625</LatitudeDegrees>
              <LongitudeDegrees>-2.94140486977994441986083984375</LongitudeDegrees>
            </Position>
            <DistanceMeters>547.76977051088</DistanceMeters>
          </Trackpoint>
          <Trackpoint>
            <Time>2022-09-24T13:22:39.000Z</Time>
            <Position>
              <LatitudeDegrees>43.26911126263439655303955078125</LatitudeDegrees>
              <LongitudeDegrees>-2.941393889486789703369140625</LongitudeDegrees>
            </Position>
            <DistanceMeters>548.69108868922</DistanceMeters>
          </Trackpoint>
          <Trackpoint>
            <Time>2022-09-24T13:22:40.000Z</Time>
            <Position>
              <LatitudeDegrees>43.26911352574825286865234375</LatitudeDegrees>
              <LongitudeDegrees>-2.94138349592685699462890625</LongitudeDegrees>
            </Position>
            <DistanceMeters>549.57233018516</DistanceMeters>
          </Trackpoint>
          <Trackpoint>
            <Time>2022-09-24T13:22:41.000Z</Time>
            <Position>
              <LatitudeDegrees>43.2691160403192043304443359375</LatitudeDegrees>
              <LongitudeDegrees>-2.941373102366924285888671875</LongitudeDegrees>
            </Position>
            <DistanceMeters>550.46375978253</DistanceMeters>
          </Trackpoint>
          <Trackpoint>
            <Time>2022-09-24T13:22:42.000Z</Time>
            <Position>
              <LatitudeDegrees>43.26911889016628265380859375</LatitudeDegrees>
              <LongitudeDegrees>-2.941362373530864715576171875</LongitudeDegrees>
            </Position>
            <DistanceMeters>551.39482763109</DistanceMeters>
          </Trackpoint>
          <Trackpoint>
            <Time>2022-09-24T13:22:43.000Z</Time>
            <Position>
              <LatitudeDegrees>43.269121907651424407958984375</LatitudeDegrees>
              <LongitudeDegrees>-2.941351644694805145263671875</LongitudeDegrees>
            </Position>
            <DistanceMeters>552.3307322283</DistanceMeters>
          </Trackpoint>
          <Trackpoint>
            <Time>2022-09-24T13:22:44.000Z</Time>
            <Position>
              <LatitudeDegrees>43.269124925136566162109375</LatitudeDegrees>
              <LongitudeDegrees>-2.94134066440165042877197265625</LongitudeDegrees>
            </Position>
            <DistanceMeters>553.27623609817</DistanceMeters>
          </Trackpoint>
          <Trackpoint>
            <Time>2022-09-24T13:22:45.000Z</Time>
            <Position>
              <LatitudeDegrees>43.26912785880267620086669921875</LatitudeDegrees>
              <LongitudeDegrees>-2.94133010320365428924560546875</LongitudeDegrees>
            </Position>
            <DistanceMeters>554.19755427651</DistanceMeters>
          </Trackpoint>
          <Trackpoint>
            <Time>2022-09-24T13:22:46.000Z</Time>
            <Position>
              <LatitudeDegrees>43.2691311277449131011962890625</LatitudeDegrees>
              <LongitudeDegrees>-2.94131937436759471893310546875</LongitudeDegrees>
            </Position>
            <DistanceMeters>555.13827075426</DistanceMeters>
          </Trackpoint>
          <Trackpoint>
            <Time>2022-09-24T13:22:47.000Z</Time>
            <Position>
              <LatitudeDegrees>43.2691343128681182861328125</LatitudeDegrees>
              <LongitudeDegrees>-2.94130881316959857940673828125</LongitudeDegrees>
            </Position>
            <DistanceMeters>556.06447659648</DistanceMeters>
          </Trackpoint>
          <Trackpoint>
            <Time>2022-09-24T13:22:48.000Z</Time>
            <Position>
              <LatitudeDegrees>43.2691374979913234710693359375</LatitudeDegrees>
              <LongitudeDegrees>-2.94129825197160243988037109375</LongitudeDegrees>
            </Position>
            <DistanceMeters>556.98579477482</DistanceMeters>
          </Trackpoint>
          <Trackpoint>
            <Time>2022-09-24T13:22:49.000Z</Time>
            <Position>
              <LatitudeDegrees>43.26914034783840179443359375</LatitudeDegrees>
              <LongitudeDegrees>-2.941287942230701446533203125</LongitudeDegrees>
            </Position>
            <DistanceMeters>557.87722437219</DistanceMeters>
          </Trackpoint>
          <Trackpoint>
            <Time>2022-09-24T13:22:50.000Z</Time>
            <Position>
              <LatitudeDegrees>43.2691431976854801177978515625</LatitudeDegrees>
              <LongitudeDegrees>-2.9412770457565784454345703125</LongitudeDegrees>
            </Position>
            <DistanceMeters>558.81312896939</DistanceMeters>
          </Trackpoint>
          <Trackpoint>
            <Time>2022-09-24T13:22:51.000Z</Time>
            <Position>
              <LatitudeDegrees>43.26914596371352672576904296875</LatitudeDegrees>
              <LongitudeDegrees>-2.9412661492824554443359375</LongitudeDegrees>
            </Position>
            <DistanceMeters>559.74419681795</DistanceMeters>
          </Trackpoint>
          <Trackpoint>
            <Time>2022-09-24T13:22:52.000Z</Time>
            <Position>
              <LatitudeDegrees>43.2691488973796367645263671875</LatitudeDegrees>
              <LongitudeDegrees>-2.9412549175322055816650390625</LongitudeDegrees>
            </Position>
            <DistanceMeters>560.71328295972</DistanceMeters>
          </Trackpoint>
          <Trackpoint>
            <Time>2022-09-24T13:22:53.000Z</Time>
            <Position>
              <LatitudeDegrees>43.2691519148647785186767578125</LatitudeDegrees>
              <LongitudeDegrees>-2.94124376960098743438720703125</LongitudeDegrees>
            </Position>
            <DistanceMeters>561.67769877965</DistanceMeters>
          </Trackpoint>
          <Trackpoint>
            <Time>2022-09-24T13:22:54.000Z</Time>
            <Position>
              <LatitudeDegrees>43.26915501616895198822021484375</LatitudeDegrees>
              <LongitudeDegrees>-2.9412324540317058563232421875</LongitudeDegrees>
            </Position>
            <DistanceMeters>562.65605868431</DistanceMeters>
          </Trackpoint>
          <Trackpoint>
            <Time>2022-09-24T13:22:55.000Z</Time>
            <Position>
              <LatitudeDegrees>43.269158117473125457763671875</LatitudeDegrees>
              <LongitudeDegrees>-2.94122122228145599365234375</LongitudeDegrees>
            </Position>
            <DistanceMeters>563.63441858898</DistanceMeters>
          </Trackpoint>
          <Trackpoint>
            <Time>2022-09-24T13:22:56.000Z</Time>
            <Position>
              <LatitudeDegrees>43.26916138641536235809326171875</LatitudeDegrees>
              <LongitudeDegrees>-2.9412098228931427001953125</LongitudeDegrees>
            </Position>
            <DistanceMeters>564.62652661354</DistanceMeters>
          </Trackpoint>
          <Trackpoint>
            <Time>2022-09-24T13:22:57.000Z</Time>
            <Position>
              <LatitudeDegrees>43.26916457153856754302978515625</LatitudeDegrees>
              <LongitudeDegrees>-2.94119850732386112213134765625</LongitudeDegrees>
            </Position>
            <DistanceMeters>565.6048865182</DistanceMeters>
          </Trackpoint>
          <Trackpoint>
            <Time>2022-09-24T13:22:58.000Z</Time>
            <Position>
              <LatitudeDegrees>43.269167840480804443359375</LatitudeDegrees>
              <LongitudeDegrees>-2.9411871917545795440673828125</LongitudeDegrees>
            </Position>
            <DistanceMeters>566.5924331024</DistanceMeters>
          </Trackpoint>
          <Trackpoint>
            <Time>2022-09-24T13:22:59.000Z</Time>
            <Position>
              <LatitudeDegrees>43.26917110942304134368896484375</LatitudeDegrees>
              <LongitudeDegrees>-2.94117629528045654296875</LongitudeDegrees>
            </Position>
            <DistanceMeters>567.5427002461</DistanceMeters>
          </Trackpoint>
          <Trackpoint>
            <Time>2022-09-24T13:23:00.000Z</Time>
            <Position>
              <LatitudeDegrees>43.26917412690818309783935546875</LatitudeDegrees>
              <LongitudeDegrees>-2.94116581790149211883544921875</LongitudeDegrees>
            </Position>
            <DistanceMeters>568.45910469244</DistanceMeters>
          </Trackpoint>
          <Trackpoint>
            <Time>2022-09-24T13:23:01.000Z</Time>
            <Position>
              <LatitudeDegrees>43.26917697675526142120361328125</LatitudeDegrees>
              <LongitudeDegrees>-2.9411556757986545562744140625</LongitudeDegrees>
            </Position>
            <DistanceMeters>569.34034618839</DistanceMeters>
          </Trackpoint>
          <Trackpoint>
            <Time>2022-09-24T13:23:02.000Z</Time>
            <Position>
              <LatitudeDegrees>43.2691800780594348907470703125</LatitudeDegrees>
              <LongitudeDegrees>-2.9411454498767852783203125</LongitudeDegrees>
            </Position>
            <DistanceMeters>570.2368264188</DistanceMeters>
          </Trackpoint>
          <Trackpoint>
            <Time>2022-09-24T13:23:03.000Z</Time>
            <Position>
              <LatitudeDegrees>43.26918301172554492950439453125</LatitudeDegrees>
              <LongitudeDegrees>-2.94113564305007457733154296875</LongitudeDegrees>
            </Position>
            <DistanceMeters>571.09732991583</DistanceMeters>
          </Trackpoint>
          <Trackpoint>
            <Time>2022-09-24T13:23:04.000Z</Time>
            <Position>
              <LatitudeDegrees>43.2691861130297183990478515625</LatitudeDegrees>
              <LongitudeDegrees>-2.9411258362233638763427734375</LongitudeDegrees>
            </Position>
            <DistanceMeters>571.96306448534</DistanceMeters>
          </Trackpoint>
          <Trackpoint>
            <Time>2022-09-24T13:23:05.000Z</Time>
            <Position>
              <LatitudeDegrees>43.269189298152923583984375</LatitudeDegrees>
              <LongitudeDegrees>-2.94111586175858974456787109375</LongitudeDegrees>
            </Position>
            <DistanceMeters>572.84430598129</DistanceMeters>
          </Trackpoint>
          <Trackpoint>
            <Time>2022-09-24T13:23:06.000Z</Time>
            <Position>
              <LatitudeDegrees>43.2691924832761287689208984375</LatitudeDegrees>
              <LongitudeDegrees>-2.9411060549318790435791015625</LongitudeDegrees>
            </Position>
            <DistanceMeters>573.71524020458</DistanceMeters>
          </Trackpoint>
          <Trackpoint>
            <Time>2022-09-24T13:23:07.000Z</Time>
            <Position>
              <LatitudeDegrees>43.269195668399333953857421875</LatitudeDegrees>
              <LongitudeDegrees>-2.9410963319242000579833984375</LongitudeDegrees>
            </Position>
            <DistanceMeters>574.57574370161</DistanceMeters>
          </Trackpoint>
          <Trackpoint>
            <Time>2022-09-24T13:23:08.000Z</Time>
            <Position>
              <LatitudeDegrees>43.26919876970350742340087890625</LatitudeDegrees>
              <LongitudeDegrees>-2.94108652509748935699462890625</LongitudeDegrees>
            </Position>
            <DistanceMeters>575.43624719864</DistanceMeters>
          </Trackpoint>
          <Trackpoint>
            <Time>2022-09-24T13:23:09.000Z</Time>
            <Position>
              <LatitudeDegrees>43.2692018710076808929443359375</LatitudeDegrees>
              <LongitudeDegrees>-2.94107680208981037139892578125</LongitudeDegrees>
            </Position>
            <DistanceMeters>576.29675069567</DistanceMeters>
          </Trackpoint>
          <Trackpoint>
            <Time>2022-09-24T13:23:10.000Z</Time>
            <Position>
              <LatitudeDegrees>43.2692048884928226470947265625</LatitudeDegrees>
              <LongitudeDegrees>-2.941067330539226531982421875</LongitudeDegrees>
            </Position>
            <DistanceMeters>577.13060673012</DistanceMeters>
          </Trackpoint>
          <Trackpoint>
            <Time>2022-09-24T13:23:11.000Z</Time>
            <Position>
              <LatitudeDegrees>43.26920807361602783203125</LatitudeDegrees>
              <LongitudeDegrees>-2.94105802662670612335205078125</LongitudeDegrees>
            </Position>
            <DistanceMeters>577.95903041987</DistanceMeters>
          </Trackpoint>
          <Trackpoint>
            <Time>2022-09-24T13:23:12.000Z</Time>
            <Position>
              <LatitudeDegrees>43.2692112587392330169677734375</LatitudeDegrees>
              <LongitudeDegrees>-2.94104830361902713775634765625</LongitudeDegrees>
            </Position>
            <DistanceMeters>578.82996464316</DistanceMeters>
          </Trackpoint>
          <Trackpoint>
            <Time>2022-09-24T13:23:13.000Z</Time>
            <Position>
              <LatitudeDegrees>43.2692146115005016326904296875</LatitudeDegrees>
              <LongitudeDegrees>-2.94103908352553844451904296875</LongitudeDegrees>
            </Position>
            <DistanceMeters>579.66921786039</DistanceMeters>
          </Trackpoint>
          <Trackpoint>
            <Time>2022-09-24T13:23:14.000Z</Time>
            <Position>
              <LatitudeDegrees>43.2692179642617702484130859375</LatitudeDegrees>
              <LongitudeDegrees>-2.94102936051785945892333984375</LongitudeDegrees>
            </Position>
            <DistanceMeters>580.54015208367</DistanceMeters>
          </Trackpoint>
          <Trackpoint>
            <Time>2022-09-24T13:23:15.000Z</Time>
            <Position>
              <LatitudeDegrees>43.2692213170230388641357421875</LatitudeDegrees>
              <LongitudeDegrees>-2.941020391881465911865234375</LongitudeDegrees>
            </Position>
            <DistanceMeters>581.35760278974</DistanceMeters>
          </Trackpoint>
          <Trackpoint>
            <Time>2022-09-24T13:23:16.000Z</Time>
            <Position>
              <LatitudeDegrees>43.26922475360333919525146484375</LatitudeDegrees>
              <LongitudeDegrees>-2.9410111717879772186279296875</LongitudeDegrees>
            </Position>
            <DistanceMeters>582.19685600697</DistanceMeters>
          </Trackpoint>
          <Trackpoint>
            <Time>2022-09-24T13:23:17.000Z</Time>
            <Position>
              <LatitudeDegrees>43.26922810636460781097412109375</LatitudeDegrees>
              <LongitudeDegrees>-2.94100237078964710235595703125</LongitudeDegrees>
            </Position>
            <DistanceMeters>582.99756533471</DistanceMeters>
          </Trackpoint>
          <Trackpoint>
            <Time>2022-09-24T13:23:18.000Z</Time>
            <Position>
              <LatitudeDegrees>43.26923154294490814208984375</LatitudeDegrees>
              <LongitudeDegrees>-2.9409934021532535552978515625</LongitudeDegrees>
            </Position>
            <DistanceMeters>583.81501604078</DistanceMeters>
          </Trackpoint>
          <Trackpoint>
            <Time>2022-09-24T13:23:19.000Z</Time>
            <Position>
              <LatitudeDegrees>43.26923481188714504241943359375</LatitudeDegrees>
              <LongitudeDegrees>-2.940984852612018585205078125</LongitudeDegrees>
            </Position>
            <DistanceMeters>584.59862640198</DistanceMeters>
          </Trackpoint>
          <Trackpoint>
            <Time>2022-09-24T13:23:20.000Z</Time>
            <Position>
              <LatitudeDegrees>43.269237913191318511962890625</LatitudeDegrees>
              <LongitudeDegrees>-2.9409764707088470458984375</LongitudeDegrees>
            </Position>
            <DistanceMeters>585.36475626621</DistanceMeters>
          </Trackpoint>
          <Trackpoint>
            <Time>2022-09-24T13:23:21.000Z</Time>
            <Position>
              <LatitudeDegrees>43.269241265952587127685546875</LatitudeDegrees>
              <LongitudeDegrees>-2.940967418253421783447265625</LongitudeDegrees>
            </Position>
            <DistanceMeters>586.18771175303</DistanceMeters>
          </Trackpoint>
          <Trackpoint>
            <Time>2022-09-24T13:23:22.000Z</Time>
            <Position>
              <LatitudeDegrees>43.2692444510757923126220703125</LatitudeDegrees>
              <LongitudeDegrees>-2.9409578628838062286376953125</LongitudeDegrees>
            </Position>
            <DistanceMeters>587.03765652507</DistanceMeters>
          </Trackpoint>
          <Trackpoint>
            <Time>2022-09-24T13:23:23.000Z</Time>
            <Position>
              <LatitudeDegrees>43.26924763619899749755859375</LatitudeDegrees>
              <LongitudeDegrees>-2.9409488104283809661865234375</LongitudeDegrees>
            </Position>
            <DistanceMeters>587.85510723114</DistanceMeters>
          </Trackpoint>
          <Trackpoint>
            <Time>2022-09-24T13:23:24.000Z</Time>
            <Position>
              <LatitudeDegrees>43.26925090514123439788818359375</LatitudeDegrees>
              <LongitudeDegrees>-2.94093959033489227294921875</LongitudeDegrees>
            </Position>
            <DistanceMeters>588.69436044837</DistanceMeters>
          </Trackpoint>
          <Trackpoint>
            <Time>2022-09-24T13:23:25.000Z</Time>
            <Position>
              <LatitudeDegrees>43.26925409026443958282470703125</LatitudeDegrees>
              <LongitudeDegrees>-2.940930537879467010498046875</LongitudeDegrees>
            </Position>
            <DistanceMeters>589.51181115444</DistanceMeters>
          </Trackpoint>
          <Trackpoint>
            <Time>2022-09-24T13:23:26.000Z</Time>
            <Position>
              <LatitudeDegrees>43.2692575268447399139404296875</LatitudeDegrees>
              <LongitudeDegrees>-2.94092106632888317108154296875</LongitudeDegrees>
            </Position>
            <DistanceMeters>590.36705158377</DistanceMeters>
          </Trackpoint>
          <Trackpoint>
            <Time>2022-09-24T13:23:27.000Z</Time>
            <Position>
              <LatitudeDegrees>43.26926062814891338348388671875</LatitudeDegrees>
              <LongitudeDegrees>-2.94091167859733104705810546875</LongitudeDegrees>
            </Position>
            <DistanceMeters>591.206304801</DistanceMeters>
          </Trackpoint>
          <Trackpoint>
            <Time>2022-09-24T13:23:28.000Z</Time>
            <Position>
              <LatitudeDegrees>43.26926381327211856842041015625</LatitudeDegrees>
              <LongitudeDegrees>-2.94090162031352519989013671875</LongitudeDegrees>
            </Position>
            <DistanceMeters>592.09773439837</DistanceMeters>
          </Trackpoint>
          <Trackpoint>
            <Time>2022-09-24T13:23:29.000Z</Time>
            <Position>
              <LatitudeDegrees>43.26926708221435546875</LatitudeDegrees>
              <LongitudeDegrees>-2.94089139439165592193603515625</LongitudeDegrees>
            </Position>
            <DistanceMeters>593.00423147856</DistanceMeters>
          </Trackpoint>
          <Trackpoint>
            <Time>2022-09-24T13:23:30.000Z</Time>
            <Position>
              <LatitudeDegrees>43.2692702673375606536865234375</LatitudeDegrees>
              <LongitudeDegrees>-2.9408814199268817901611328125</LongitudeDegrees>
            </Position>
            <DistanceMeters>593.88547297451</DistanceMeters>
          </Trackpoint>
          <Trackpoint>
            <Time>2022-09-24T13:23:31.000Z</Time>
            <Position>
              <LatitudeDegrees>43.26927370391786098480224609375</LatitudeDegrees>
              <LongitudeDegrees>-2.94087178073823451995849609375</LongitudeDegrees>
            </Position>
            <DistanceMeters>594.74597647154</DistanceMeters>
          </Trackpoint>
          <Trackpoint>
            <Time>2022-09-24T13:23:32.000Z</Time>
            <Position>
              <LatitudeDegrees>43.26927722431719303131103515625</LatitudeDegrees>
              <LongitudeDegrees>-2.940862141549587249755859375</LongitudeDegrees>
            </Position>
            <DistanceMeters>595.61171104105</DistanceMeters>
          </Trackpoint>
          <Trackpoint>
            <Time>2022-09-24T13:23:33.000Z</Time>
            <Position>
              <LatitudeDegrees>43.269280493259429931640625</LatitudeDegrees>
              <LongitudeDegrees>-2.94085283763706684112548828125</LongitudeDegrees>
            </Position>
            <DistanceMeters>596.45096425828</DistanceMeters>
          </Trackpoint>
          <Trackpoint>
            <Time>2022-09-24T13:23:34.000Z</Time>
            <Position>
              <LatitudeDegrees>43.26928342692553997039794921875</LatitudeDegrees>
              <LongitudeDegrees>-2.9408435337245464324951171875</LongitudeDegrees>
            </Position>
            <DistanceMeters>597.27391974511</DistanceMeters>
          </Trackpoint>
          <Trackpoint>
            <Time>2022-09-24T13:23:35.000Z</Time>
            <Position>
              <LatitudeDegrees>43.269286192953586578369140625</LatitudeDegrees>
              <LongitudeDegrees>-2.9408344812691211700439453125</LongitudeDegrees>
            </Position>
            <DistanceMeters>598.06897027877</DistanceMeters>
          </Trackpoint>
          <Trackpoint>
            <Time>2022-09-24T13:23:36.000Z</Time>
            <Position>
              <LatitudeDegrees>43.2692887075245380401611328125</LatitudeDegrees>
              <LongitudeDegrees>-2.940825261175632476806640625</LongitudeDegrees>
            </Position>
            <DistanceMeters>598.86402081243</DistanceMeters>
          </Trackpoint>
          <Trackpoint>
            <Time>2022-09-24T13:23:37.000Z</Time>
            <Position>
              <LatitudeDegrees>43.26929113827645778656005859375</LatitudeDegrees>
              <LongitudeDegrees>-2.94081629253923892974853515625</LongitudeDegrees>
            </Position>
            <DistanceMeters>599.63602148944</DistanceMeters>
          </Trackpoint>
          <Trackpoint>
            <Time>2022-09-24T13:23:38.000Z</Time>
            <Position>
              <LatitudeDegrees>43.269293569028377532958984375</LatitudeDegrees>
              <LongitudeDegrees>-2.9408076591789722442626953125</LongitudeDegrees>
            </Position>
            <DistanceMeters>600.38426258663</DistanceMeters>
          </Trackpoint>
          <Trackpoint>
            <Time>2022-09-24T13:23:39.000Z</Time>
            <Position>
              <LatitudeDegrees>43.2692960835993289947509765625</LatitudeDegrees>
              <LongitudeDegrees>-2.94079936109483242034912109375</LongitudeDegrees>
            </Position>
            <DistanceMeters>601.10796448227</DistanceMeters>
          </Trackpoint>
          <Trackpoint>
            <Time>2022-09-24T13:23:40.000Z</Time>
            <Position>
              <LatitudeDegrees>43.26929859817028045654296875</LatitudeDegrees>
              <LongitudeDegrees>-2.94079114682972431182861328125</LongitudeDegrees>
            </Position>
            <DistanceMeters>601.8316663779</DistanceMeters>
          </Trackpoint>
          <Trackpoint>
            <Time>2022-09-24T13:23:41.000Z</Time>
            <Position>
              <LatitudeDegrees>43.2693017832934856414794921875</LatitudeDegrees>
              <LongitudeDegrees>-2.94078226201236248016357421875</LongitudeDegrees>
            </Position>
            <DistanceMeters>602.63237570564</DistanceMeters>
          </Trackpoint>
          <Trackpoint>
            <Time>2022-09-24T13:23:42.000Z</Time>
            <Position>
              <LatitudeDegrees>43.26930530369281768798828125</LatitudeDegrees>
              <LongitudeDegrees>-2.9407727904617786407470703125</LongitudeDegrees>
            </Position>
            <DistanceMeters>603.49287920267</DistanceMeters>
          </Trackpoint>
          <Trackpoint>
            <Time>2022-09-24T13:23:43.000Z</Time>
            <Position>
              <LatitudeDegrees>43.2693088240921497344970703125</LatitudeDegrees>
              <LongitudeDegrees>-2.9407634027302265167236328125</LongitudeDegrees>
            </Position>
            <DistanceMeters>604.34282397471</DistanceMeters>
          </Trackpoint>
          <Trackpoint>
            <Time>2022-09-24T13:23:44.000Z</Time>
            <Position>
              <LatitudeDegrees>43.269312679767608642578125</LatitudeDegrees>
              <LongitudeDegrees>-2.94075342826545238494873046875</LongitudeDegrees>
            </Position>
            <DistanceMeters>605.25428819937</DistanceMeters>
          </Trackpoint>
          <Trackpoint>
            <Time>2022-09-24T13:23:45.000Z</Time>
            <Position>
              <LatitudeDegrees>43.2693165354430675506591796875</LatitudeDegrees>
              <LongitudeDegrees>-2.94074336998164653778076171875</LongitudeDegrees>
            </Position>
            <DistanceMeters>606.17560637771</DistanceMeters>
          </Trackpoint>
          <Trackpoint>
            <Time>2022-09-24T13:23:46.000Z</Time>
            <Position>
              <LatitudeDegrees>43.2693195529282093048095703125</LatitudeDegrees>
              <LongitudeDegrees>-2.94073306024074554443359375</LongitudeDegrees>
            </Position>
            <DistanceMeters>607.07710894562</DistanceMeters>
          </Trackpoint>
          <Trackpoint>
            <Time>2022-09-24T13:23:47.000Z</Time>
            <Position>
              <LatitudeDegrees>43.26932265423238277435302734375</LatitudeDegrees>
              <LongitudeDegrees>-2.94072275049984455108642578125</LongitudeDegrees>
            </Position>
            <DistanceMeters>607.97861151354</DistanceMeters>
          </Trackpoint>
          <Trackpoint>
            <Time>2022-09-24T13:23:48.000Z</Time>
            <Position>
              <LatitudeDegrees>43.2693259231746196746826171875</LatitudeDegrees>
              <LongitudeDegrees>-2.940711937844753265380859375</LongitudeDegrees>
            </Position>
            <DistanceMeters>608.92887865724</DistanceMeters>
          </Trackpoint>
          <Trackpoint>
            <Time>2022-09-24T13:23:49.000Z</Time>
            <Position>
              <LatitudeDegrees>43.26932935975492000579833984375</LatitudeDegrees>
              <LongitudeDegrees>-2.94070062227547168731689453125</LongitudeDegrees>
            </Position>
            <DistanceMeters>609.9209866818</DistanceMeters>
          </Trackpoint>
          <Trackpoint>
            <Time>2022-09-24T13:23:50.000Z</Time>
            <Position>
              <LatitudeDegrees>43.26933288015425205230712890625</LatitudeDegrees>
              <LongitudeDegrees>-2.9406894743442535400390625</LongitudeDegrees>
            </Position>
            <DistanceMeters>610.90853326599</DistanceMeters>
          </Trackpoint>
          <Trackpoint>
            <Time>2022-09-24T13:23:51.000Z</Time>
            <Position>
              <LatitudeDegrees>43.26933640055358409881591796875</LatitudeDegrees>
              <LongitudeDegrees>-2.9406782425940036773681640625</LongitudeDegrees>
            </Position>
            <DistanceMeters>611.90518185442</DistanceMeters>
          </Trackpoint>
          <Trackpoint>
            <Time>2022-09-24T13:23:52.000Z</Time>
            <Position>
              <LatitudeDegrees>43.26933975331485271453857421875</LatitudeDegrees>
              <LongitudeDegrees>-2.94066709466278553009033203125</LongitudeDegrees>
            </Position>
            <DistanceMeters>612.88354175909</DistanceMeters>
          </Trackpoint>
          <Trackpoint>
            <Time>2022-09-24T13:23:53.000Z</Time>
            <Position>
              <LatitudeDegrees>43.269343189895153045654296875</LatitudeDegrees>
              <LongitudeDegrees>-2.9406554438173770904541015625</LongitudeDegrees>
            </Position>
            <DistanceMeters>613.90701079502</DistanceMeters>
          </Trackpoint>
          <Trackpoint>
            <Time>2022-09-24T13:23:54.000Z</Time>
            <Position>
              <LatitudeDegrees>43.2693462073802947998046875</LatitudeDegrees>
              <LongitudeDegrees>-2.940645553171634674072265625</LongitudeDegrees>
            </Position>
            <DistanceMeters>614.7779450183</DistanceMeters>
          </Trackpoint>
          <Trackpoint>
            <Time>2022-09-24T13:23:55.000Z</Time>
            <Position>
              <LatitudeDegrees>43.2693490572273731231689453125</LatitudeDegrees>
              <LongitudeDegrees>-2.94063624925911426544189453125</LongitudeDegrees>
            </Position>
            <DistanceMeters>615.59539572437</DistanceMeters>
          </Trackpoint>
          <Trackpoint>
            <Time>2022-09-24T13:23:56.000Z</Time>
            <Position>
              <LatitudeDegrees>43.26935626566410064697265625</LatitudeDegrees>
              <LongitudeDegrees>-2.9406252689659595489501953125</LongitudeDegrees>
            </Position>
            <DistanceMeters>616.78986300234</DistanceMeters>
          </Trackpoint>
          <Trackpoint>
            <Time>2022-09-24T13:23:57.000Z</Time>
            <Position>
              <LatitudeDegrees>43.26936406083405017852783203125</LatitudeDegrees>
              <LongitudeDegrees>-2.940612025558948516845703125</LongitudeDegrees>
            </Position>
            <DistanceMeters>618.17347284841</DistanceMeters>
          </Trackpoint>
          <Trackpoint>
            <Time>2022-09-24T13:23:58.000Z</Time>
            <Position>
              <LatitudeDegrees>43.269372023642063140869140625</LatitudeDegrees>
              <LongitudeDegrees>-2.9405955970287322998046875</LongitudeDegrees>
            </Position>
            <DistanceMeters>619.76924274322</DistanceMeters>
          </Trackpoint>
          <Trackpoint>
            <Time>2022-09-24T13:23:59.000Z</Time>
            <Position>
              <LatitudeDegrees>43.26937931589782238006591796875</LatitudeDegrees>
              <LongitudeDegrees>-2.94057623483240604400634765625</LongitudeDegrees>
            </Position>
            <DistanceMeters>621.53684180681</DistanceMeters>
          </Trackpoint>
          <Trackpoint>
            <Time>2022-09-24T13:24:00.000Z</Time>
            <Position>
              <LatitudeDegrees>43.2693832553923130035400390625</LatitudeDegrees>
              <LongitudeDegrees>-2.94055444188416004180908203125</LongitudeDegrees>
            </Position>
            <DistanceMeters>623.35977025614</DistanceMeters>
          </Trackpoint>
          <Trackpoint>
            <Time>2022-09-24T13:24:01.000Z</Time>
            <Position>
              <LatitudeDegrees>43.26938685961067676544189453125</LatitudeDegrees>
              <LongitudeDegrees>-2.9405313916504383087158203125</LongitudeDegrees>
            </Position>
            <DistanceMeters>625.26978357634</DistanceMeters>
          </Trackpoint>
          <Trackpoint>
            <Time>2022-09-24T13:24:02.000Z</Time>
            <Position>
              <LatitudeDegrees>43.26938903890550136566162109375</LatitudeDegrees>
              <LongitudeDegrees>-2.94050750322639942169189453125</LongitudeDegrees>
            </Position>
            <DistanceMeters>627.22188302549</DistanceMeters>
          </Trackpoint>
          <Trackpoint>
            <Time>2022-09-24T13:24:03.000Z</Time>
            <Position>
              <LatitudeDegrees>43.2693906314671039581298828125</LatitudeDegrees>
              <LongitudeDegrees>-2.94048470444977283477783203125</LongitudeDegrees>
            </Position>
            <DistanceMeters>629.07916308019</DistanceMeters>
          </Trackpoint>
          <Trackpoint>
            <Time>2022-09-24T13:24:04.000Z</Time>
            <Position>
              <LatitudeDegrees>43.26939172111451625823974609375</LatitudeDegrees>
              <LongitudeDegrees>-2.94046349823474884033203125</LongitudeDegrees>
            </Position>
            <DistanceMeters>630.80017007425</DistanceMeters>
          </Trackpoint>
          <Trackpoint>
            <Time>2022-09-24T13:24:05.000Z</Time>
            <Position>
              <LatitudeDegrees>43.269392810761928558349609375</LatitudeDegrees>
              <LongitudeDegrees>-2.94044497422873973846435546875</LongitudeDegrees>
            </Position>
            <DistanceMeters>632.30867239904</DistanceMeters>
          </Trackpoint>
          <Trackpoint>
            <Time>2022-09-24T13:24:06.000Z</Time>
            <Position>
              <LatitudeDegrees>43.26939540915191173553466796875</LatitudeDegrees>
              <LongitudeDegrees>-2.94042955152690410614013671875</LongitudeDegrees>
            </Position>
            <DistanceMeters>633.5906528641</DistanceMeters>
          </Trackpoint>
          <Trackpoint>
            <Time>2022-09-24T13:24:07.000Z</Time>
            <Position>
              <LatitudeDegrees>43.2693980075418949127197265625</LatitudeDegrees>
              <LongitudeDegrees>-2.940414883196353912353515625</LongitudeDegrees>
            </Position>
            <DistanceMeters>634.80758858007</DistanceMeters>
          </Trackpoint>
          <Trackpoint>
            <Time>2022-09-24T13:24:08.000Z</Time>
            <Position>
              <LatitudeDegrees>43.26940077356994152069091796875</LatitudeDegrees>
              <LongitudeDegrees>-2.94040046632289886474609375</LongitudeDegrees>
            </Position>
            <DistanceMeters>636.01708119432</DistanceMeters>
          </Trackpoint>
          <Trackpoint>
            <Time>2022-09-24T13:24:09.000Z</Time>
            <Position>
              <LatitudeDegrees>43.269403539597988128662109375</LatitudeDegrees>
              <LongitudeDegrees>-2.940386720001697540283203125</LongitudeDegrees>
            </Position>
            <DistanceMeters>637.17313106941</DistanceMeters>
          </Trackpoint>
          <Trackpoint>
            <Time>2022-09-24T13:24:10.000Z</Time>
            <Position>
              <LatitudeDegrees>43.26940630562603473663330078125</LatitudeDegrees>
              <LongitudeDegrees>-2.94037322513759136199951171875</LongitudeDegrees>
            </Position>
            <DistanceMeters>638.30948529741</DistanceMeters>
          </Trackpoint>
          <Trackpoint>
            <Time>2022-09-24T13:24:11.000Z</Time>
            <Position>
              <LatitudeDegrees>43.2694090716540813446044921875</LatitudeDegrees>
              <LongitudeDegrees>-2.94035964645445346832275390625</LongitudeDegrees>
            </Position>
            <DistanceMeters>639.44980586985</DistanceMeters>
          </Trackpoint>
          <Trackpoint>
            <Time>2022-09-24T13:24:12.000Z</Time>
            <Position>
              <LatitudeDegrees>43.26941167004406452178955078125</LatitudeDegrees>
              <LongitudeDegrees>-2.94034640304744243621826171875</LongitudeDegrees>
            </Position>
            <DistanceMeters>640.56206504505</DistanceMeters>
          </Trackpoint>
          <Trackpoint>
            <Time>2022-09-24T13:24:13.000Z</Time>
            <Position>
              <LatitudeDegrees>43.26941418461501598358154296875</LatitudeDegrees>
              <LongitudeDegrees>-2.94033341109752655029296875</LongitudeDegrees>
            </Position>
            <DistanceMeters>641.64969550351</DistanceMeters>
          </Trackpoint>
          <Trackpoint>
            <Time>2022-09-24T13:24:14.000Z</Time>
            <Position>
              <LatitudeDegrees>43.26941669918596744537353515625</LatitudeDegrees>
              <LongitudeDegrees>-2.94032041914761066436767578125</LongitudeDegrees>
            </Position>
            <DistanceMeters>642.73316674803</DistanceMeters>
          </Trackpoint>
          <Trackpoint>
            <Time>2022-09-24T13:24:15.000Z</Time>
            <Position>
              <LatitudeDegrees>43.2694194652140140533447265625</LatitudeDegrees>
              <LongitudeDegrees>-2.940307594835758209228515625</LongitudeDegrees>
            </Position>
            <DistanceMeters>643.81663799256</DistanceMeters>
          </Trackpoint>
          <Trackpoint>
            <Time>2022-09-24T13:24:16.000Z</Time>
            <Position>
              <LatitudeDegrees>43.26942239888012409210205078125</LatitudeDegrees>
              <LongitudeDegrees>-2.94029460288584232330322265625</LongitudeDegrees>
            </Position>
            <DistanceMeters>644.91665173951</DistanceMeters>
          </Trackpoint>
          <Trackpoint>
            <Time>2022-09-24T13:24:17.000Z</Time>
            <Position>
              <LatitudeDegrees>43.269425332546234130859375</LatitudeDegrees>
              <LongitudeDegrees>-2.9402819462120532989501953125</LongitudeDegrees>
            </Position>
            <DistanceMeters>645.99175628551</DistanceMeters>
          </Trackpoint>
          <Trackpoint>
            <Time>2022-09-24T13:24:18.000Z</Time>
            <Position>
              <LatitudeDegrees>43.26942868530750274658203125</LatitudeDegrees>
              <LongitudeDegrees>-2.94026903808116912841796875</LongitudeDegrees>
            </Position>
            <DistanceMeters>647.09994868594</DistanceMeters>
          </Trackpoint>
          <Trackpoint>
            <Time>2022-09-24T13:24:19.000Z</Time>
            <Position>
              <LatitudeDegrees>43.26943195424973964691162109375</LatitudeDegrees>
              <LongitudeDegrees>-2.940255962312221527099609375</LongitudeDegrees>
            </Position>
            <DistanceMeters>648.22431993342</DistanceMeters>
          </Trackpoint>
          <Trackpoint>
            <Time>2022-09-24T13:24:20.000Z</Time>
            <Position>
              <LatitudeDegrees>43.269435055553913116455078125</LatitudeDegrees>
              <LongitudeDegrees>-2.940242551267147064208984375</LongitudeDegrees>
            </Position>
            <DistanceMeters>649.36859310202</DistanceMeters>
          </Trackpoint>
          <Trackpoint>
            <Time>2022-09-24T13:24:21.000Z</Time>
            <Position>
              <LatitudeDegrees>43.26943815685808658599853515625</LatitudeDegrees>
              <LongitudeDegrees>-2.94022922404110431671142578125</LongitudeDegrees>
            </Position>
            <DistanceMeters>650.50096709282</DistanceMeters>
          </Trackpoint>
          <Trackpoint>
            <Time>2022-09-24T13:24:22.000Z</Time>
            <Position>
              <LatitudeDegrees>43.26944067142903804779052734375</LatitudeDegrees>
              <LongitudeDegrees>-2.94021614827215671539306640625</LongitudeDegrees>
            </Position>
            <DistanceMeters>651.60098083977</DistanceMeters>
          </Trackpoint>
          <Trackpoint>
            <Time>2022-09-24T13:24:23.000Z</Time>
            <Position>
              <LatitudeDegrees>43.26944268308579921722412109375</LatitudeDegrees>
              <LongitudeDegrees>-2.94020374305546283721923828125</LongitudeDegrees>
            </Position>
            <DistanceMeters>652.63323517878</DistanceMeters>
          </Trackpoint>
          <Trackpoint>
            <Time>2022-09-24T13:24:24.000Z</Time>
            <Position>
              <LatitudeDegrees>43.269444443285465240478515625</LatitudeDegrees>
              <LongitudeDegrees>-2.94019150547683238983154296875</LongitudeDegrees>
            </Position>
            <DistanceMeters>653.64784284414</DistanceMeters>
          </Trackpoint>
          <Trackpoint>
            <Time>2022-09-24T13:24:25.000Z</Time>
            <Position>
              <LatitudeDegrees>43.269445784389972686767578125</LatitudeDegrees>
              <LongitudeDegrees>-2.9401796869933605194091796875</LongitudeDegrees>
            </Position>
            <DistanceMeters>654.62157690774</DistanceMeters>
          </Trackpoint>
          <Trackpoint>
            <Time>2022-09-24T13:24:26.000Z</Time>
            <Position>
              <LatitudeDegrees>43.26944704167544841766357421875</LatitudeDegrees>
              <LongitudeDegrees>-2.9401679523289203643798828125</LongitudeDegrees>
            </Position>
            <DistanceMeters>655.58129967879</DistanceMeters>
          </Trackpoint>
          <Trackpoint>
            <Time>2022-09-24T13:24:27.000Z</Time>
            <Position>
              <LatitudeDegrees>43.26944787986576557159423828125</LatitudeDegrees>
              <LongitudeDegrees>-2.94015705585479736328125</LongitudeDegrees>
            </Position>
            <DistanceMeters>656.47272927616</DistanceMeters>
          </Trackpoint>
          <Trackpoint>
            <Time>2022-09-24T13:24:28.000Z</Time>
            <Position>
              <LatitudeDegrees>43.2694486342370510101318359375</LatitudeDegrees>
              <LongitudeDegrees>-2.94014632701873779296875</LongitudeDegrees>
            </Position>
            <DistanceMeters>657.34883229393</DistanceMeters>
          </Trackpoint>
          <Trackpoint>
            <Time>2022-09-24T13:24:29.000Z</Time>
            <Position>
              <LatitudeDegrees>43.26944905333220958709716796875</LatitudeDegrees>
              <LongitudeDegrees>-2.94013635255396366119384765625</LongitudeDegrees>
            </Position>
            <DistanceMeters>658.15516070343</DistanceMeters>
          </Trackpoint>
          <Trackpoint>
            <Time>2022-09-24T13:24:30.000Z</Time>
            <Position>
              <LatitudeDegrees>43.26944938860833644866943359375</LatitudeDegrees>
              <LongitudeDegrees>-2.94012688100337982177734375</LongitudeDegrees>
            </Position>
            <DistanceMeters>658.92129056765</DistanceMeters>
          </Trackpoint>
          <Trackpoint>
            <Time>2022-09-24T13:24:31.000Z</Time>
            <Position>
              <LatitudeDegrees>43.2694493047893047332763671875</LatitudeDegrees>
              <LongitudeDegrees>-2.9401186667382717132568359375</LongitudeDegrees>
            </Position>
            <DistanceMeters>659.5932309089</DistanceMeters>
          </Trackpoint>
          <Trackpoint>
            <Time>2022-09-24T13:24:32.000Z</Time>
            <Position>
              <LatitudeDegrees>43.26944922097027301788330078125</LatitudeDegrees>
              <LongitudeDegrees>-2.9401106201112270355224609375</LongitudeDegrees>
            </Position>
            <DistanceMeters>660.24470124043</DistanceMeters>
          </Trackpoint>
          <Trackpoint>
            <Time>2022-09-24T13:24:33.000Z</Time>
            <Position>
              <LatitudeDegrees>43.26944880187511444091796875</LatitudeDegrees>
              <LongitudeDegrees>-2.9401035793125629425048828125</LongitudeDegrees>
            </Position>
            <DistanceMeters>660.81486152665</DistanceMeters>
          </Trackpoint>
          <Trackpoint>
            <Time>2022-09-24T13:24:34.000Z</Time>
            <Position>
              <LatitudeDegrees>43.26944871805608272552490234375</LatitudeDegrees>
              <LongitudeDegrees>-2.9400975443422794342041015625</LongitudeDegrees>
            </Position>
            <DistanceMeters>661.29940459754</DistanceMeters>
          </Trackpoint>
          <Trackpoint>
            <Time>2022-09-24T13:24:35.000Z</Time>
            <Position>
              <LatitudeDegrees>43.26944955624639987945556640625</LatitudeDegrees>
              <LongitudeDegrees>-2.9400921799242496490478515625</LongitudeDegrees>
            </Position>
            <DistanceMeters>661.74511939622</DistanceMeters>
          </Trackpoint>
          <Trackpoint>
            <Time>2022-09-24T13:24:36.000Z</Time>
            <Position>
              <LatitudeDegrees>43.26945039443671703338623046875</LatitudeDegrees>
              <LongitudeDegrees>-2.940086312592029571533203125</LongitudeDegrees>
            </Position>
            <DistanceMeters>662.22966246711</DistanceMeters>
          </Trackpoint>
          <Trackpoint>
            <Time>2022-09-24T13:24:37.000Z</Time>
            <Position>
              <LatitudeDegrees>43.269451148808002471923828125</LatitudeDegrees>
              <LongitudeDegrees>-2.94008103199303150177001953125</LongitudeDegrees>
            </Position>
            <DistanceMeters>662.67537726579</DistanceMeters>
          </Trackpoint>
          <Trackpoint>
            <Time>2022-09-24T13:24:38.000Z</Time>
            <Position>
              <LatitudeDegrees>43.2694519869983196258544921875</LatitudeDegrees>
              <LongitudeDegrees>-2.94007591903209686279296875</LongitudeDegrees>
            </Position>
            <DistanceMeters>663.10034965181</DistanceMeters>
          </Trackpoint>
          <Trackpoint>
            <Time>2022-09-24T13:24:39.000Z</Time>
            <Position>
              <LatitudeDegrees>43.269453160464763641357421875</LatitudeDegrees>
              <LongitudeDegrees>-2.94007181189954280853271484375</LongitudeDegrees>
            </Position>
            <DistanceMeters>663.45590705958</DistanceMeters>
          </Trackpoint>
          <Trackpoint>
            <Time>2022-09-24T13:24:40.000Z</Time>
            <Position>
              <LatitudeDegrees>43.269454501569271087646484375</LatitudeDegrees>
              <LongitudeDegrees>-2.9400677047669887542724609375</LongitudeDegrees>
            </Position>
            <DistanceMeters>663.81146446734</DistanceMeters>
          </Trackpoint>
          <Trackpoint>
            <Time>2022-09-24T13:24:41.000Z</Time>
            <Position>
              <LatitudeDegrees>43.26945575885474681854248046875</LatitudeDegrees>
              <LongitudeDegrees>-2.94006326235830783843994140625</LongitudeDegrees>
            </Position>
            <DistanceMeters>664.19157132482</DistanceMeters>
          </Trackpoint>
          <Trackpoint>
            <Time>2022-09-24T13:24:42.000Z</Time>
            <Position>
              <LatitudeDegrees>43.2694573514163494110107421875</LatitudeDegrees>
              <LongitudeDegrees>-2.94005982577800750732421875</LongitudeDegrees>
            </Position>
            <DistanceMeters>664.49207218079</DistanceMeters>
          </Trackpoint>
          <Trackpoint>
            <Time>2022-09-24T13:24:43.000Z</Time>
            <Position>
              <LatitudeDegrees>43.2694590277969837188720703125</LatitudeDegrees>
              <LongitudeDegrees>-2.94005588628351688385009765625</LongitudeDegrees>
            </Position>
            <DistanceMeters>664.84762958855</DistanceMeters>
          </Trackpoint>
          <Trackpoint>
            <Time>2022-09-24T13:24:44.000Z</Time>
            <Position>
              <LatitudeDegrees>43.26946078799664974212646484375</LatitudeDegrees>
              <LongitudeDegrees>-2.94005177915096282958984375</LongitudeDegrees>
            </Position>
            <DistanceMeters>665.22773644603</DistanceMeters>
          </Trackpoint>
          <Trackpoint>
            <Time>2022-09-24T13:24:45.000Z</Time>
            <Position>
              <LatitudeDegrees>43.26946296729147434234619140625</LatitudeDegrees>
              <LongitudeDegrees>-2.940047420561313629150390625</LongitudeDegrees>
            </Position>
            <DistanceMeters>665.65270883205</DistanceMeters>
          </Trackpoint>
          <Trackpoint>
            <Time>2022-09-24T13:24:46.000Z</Time>
            <Position>
              <LatitudeDegrees>43.26946514658629894256591796875</LatitudeDegrees>
              <LongitudeDegrees>-2.94004264287650585174560546875</LongitudeDegrees>
            </Position>
            <DistanceMeters>666.09842363074</DistanceMeters>
          </Trackpoint>
          <Trackpoint>
            <Time>2022-09-24T13:24:47.000Z</Time>
            <Position>
              <LatitudeDegrees>43.269467242062091827392578125</LatitudeDegrees>
              <LongitudeDegrees>-2.940037362277507781982421875</LongitudeDegrees>
            </Position>
            <DistanceMeters>666.59219692283</DistanceMeters>
          </Trackpoint>
          <Trackpoint>
            <Time>2022-09-24T13:24:48.000Z</Time>
            <Position>
              <LatitudeDegrees>43.26946916989982128143310546875</LatitudeDegrees>
              <LongitudeDegrees>-2.94003174640238285064697265625</LongitudeDegrees>
            </Position>
            <DistanceMeters>667.09503103109</DistanceMeters>
          </Trackpoint>
          <Trackpoint>
            <Time>2022-09-24T13:24:49.000Z</Time>
            <Position>
              <LatitudeDegrees>43.26947084628045558929443359375</LatitudeDegrees>
              <LongitudeDegrees>-2.9400261305272579193115234375</LongitudeDegrees>
            </Position>
            <DistanceMeters>667.58880432319</DistanceMeters>
          </Trackpoint>
          <Trackpoint>
            <Time>2022-09-24T13:24:50.000Z</Time>
            <Position>
              <LatitudeDegrees>43.26947252266108989715576171875</LatitudeDegrees>
              <LongitudeDegrees>-2.940019927918910980224609375</LongitudeDegrees>
            </Position>
            <DistanceMeters>668.11789067698</DistanceMeters>
          </Trackpoint>
          <Trackpoint>
            <Time>2022-09-24T13:24:51.000Z</Time>
            <Position>
              <LatitudeDegrees>43.26947428286075592041015625</LatitudeDegrees>
              <LongitudeDegrees>-2.94001380912959575653076171875</LongitudeDegrees>
            </Position>
            <DistanceMeters>668.65544294998</DistanceMeters>
          </Trackpoint>
          <Trackpoint>
            <Time>2022-09-24T13:24:52.000Z</Time>
            <Position>
              <LatitudeDegrees>43.269475959241390228271484375</LatitudeDegrees>
              <LongitudeDegrees>-2.94000727124512195587158203125</LongitudeDegrees>
            </Position>
            <DistanceMeters>669.2256032362</DistanceMeters>
          </Trackpoint>
          <Trackpoint>
            <Time>2022-09-24T13:24:53.000Z</Time>
            <Position>
              <LatitudeDegrees>43.2694776356220245361328125</LatitudeDegrees>
              <LongitudeDegrees>-2.9400006495416164398193359375</LongitudeDegrees>
            </Position>
            <DistanceMeters>669.79576352242</DistanceMeters>
          </Trackpoint>
          <Trackpoint>
            <Time>2022-09-24T13:24:54.000Z</Time>
            <Position>
              <LatitudeDegrees>43.269479312002658843994140625</LatitudeDegrees>
              <LongitudeDegrees>-2.9399939440190792083740234375</LongitudeDegrees>
            </Position>
            <DistanceMeters>670.37378845996</DistanceMeters>
          </Trackpoint>
          <Trackpoint>
            <Time>2022-09-24T13:24:55.000Z</Time>
            <Position>
              <LatitudeDegrees>43.2694811560213565826416015625</LatitudeDegrees>
              <LongitudeDegrees>-2.9399869032204151153564453125</LongitudeDegrees>
            </Position>
            <DistanceMeters>670.97479017191</DistanceMeters>
          </Trackpoint>
          <Trackpoint>
            <Time>2022-09-24T13:24:56.000Z</Time>
            <Position>
              <LatitudeDegrees>43.26948308385908603668212890625</LatitudeDegrees>
              <LongitudeDegrees>-2.93997927568852901458740234375</LongitudeDegrees>
            </Position>
            <DistanceMeters>671.63315456137</DistanceMeters>
          </Trackpoint>
          <Trackpoint>
            <Time>2022-09-24T13:24:57.000Z</Time>
            <Position>
              <LatitudeDegrees>43.26948501169681549072265625</LatitudeDegrees>
              <LongitudeDegrees>-2.939971648156642913818359375</LongitudeDegrees>
            </Position>
            <DistanceMeters>672.2846248929</DistanceMeters>
          </Trackpoint>
          <Trackpoint>
            <Time>2022-09-24T13:24:58.000Z</Time>
            <Position>
              <LatitudeDegrees>43.26948702335357666015625</LatitudeDegrees>
              <LongitudeDegrees>-2.93996368534862995147705078125</LongitudeDegrees>
            </Position>
            <DistanceMeters>672.96325137237</DistanceMeters>
          </Trackpoint>
          <Trackpoint>
            <Time>2022-09-24T13:24:59.000Z</Time>
            <Position>
              <LatitudeDegrees>43.269488699734210968017578125</LatitudeDegrees>
              <LongitudeDegrees>-2.93995597399771213531494140625</LongitudeDegrees>
            </Position>
            <DistanceMeters>673.6147217039</DistanceMeters>
          </Trackpoint>
          <Trackpoint>
            <Time>2022-09-24T13:25:00.000Z</Time>
            <Position>
              <LatitudeDegrees>43.26949045993387699127197265625</LatitudeDegrees>
              <LongitudeDegrees>-2.9399478435516357421875</LongitudeDegrees>
            </Position>
            <DistanceMeters>674.2999690863</DistanceMeters>
          </Trackpoint>
          <Trackpoint>
            <Time>2022-09-24T13:25:01.000Z</Time>
            <Position>
              <LatitudeDegrees>43.2694922201335430145263671875</LatitudeDegrees>
              <LongitudeDegrees>-2.93993937782943248748779296875</LongitudeDegrees>
            </Position>
            <DistanceMeters>675.01108390183</DistanceMeters>
          </Trackpoint>
          <Trackpoint>
            <Time>2022-09-24T13:25:02.000Z</Time>
            <Position>
              <LatitudeDegrees>43.26949414797127246856689453125</LatitudeDegrees>
              <LongitudeDegrees>-2.93993066065013408660888671875</LongitudeDegrees>
            </Position>
            <DistanceMeters>675.74715766623</DistanceMeters>
          </Trackpoint>
          <Trackpoint>
            <Time>2022-09-24T13:25:03.000Z</Time>
            <Position>
              <LatitudeDegrees>43.2694962434470653533935546875</LatitudeDegrees>
              <LongitudeDegrees>-2.93992211110889911651611328125</LongitudeDegrees>
            </Position>
            <DistanceMeters>676.48323143063</DistanceMeters>
          </Trackpoint>
          <Trackpoint>
            <Time>2022-09-24T13:25:04.000Z</Time>
            <Position>
              <LatitudeDegrees>43.26949817128479480743408203125</LatitudeDegrees>
              <LongitudeDegrees>-2.93991322629153728485107421875</LongitudeDegrees>
            </Position>
            <DistanceMeters>677.23748259302</DistanceMeters>
          </Trackpoint>
          <Trackpoint>
            <Time>2022-09-24T13:25:05.000Z</Time>
            <Position>
              <LatitudeDegrees>43.26950035057961940765380859375</LatitudeDegrees>
              <LongitudeDegrees>-2.9399037547409534454345703125</LongitudeDegrees>
            </Position>
            <DistanceMeters>678.04381100252</DistanceMeters>
          </Trackpoint>
          <Trackpoint>
            <Time>2022-09-24T13:25:06.000Z</Time>
            <Position>
              <LatitudeDegrees>43.2695026136934757232666015625</LatitudeDegrees>
              <LongitudeDegrees>-2.93989428319036960601806640625</LongitudeDegrees>
            </Position>
            <DistanceMeters>678.85013941202</DistanceMeters>
          </Trackpoint>
          <Trackpoint>
            <Time>2022-09-24T13:25:07.000Z</Time>
            <Position>
              <LatitudeDegrees>43.2695049606263637542724609375</LatitudeDegrees>
              <LongitudeDegrees>-2.9398846440017223358154296875</LongitudeDegrees>
            </Position>
            <DistanceMeters>679.67856310177</DistanceMeters>
          </Trackpoint>
          <Trackpoint>
            <Time>2022-09-24T13:25:08.000Z</Time>
            <Position>
              <LatitudeDegrees>43.26950722374022006988525390625</LatitudeDegrees>
              <LongitudeDegrees>-2.93987483717501163482666015625</LongitudeDegrees>
            </Position>
            <DistanceMeters>680.517816319</DistanceMeters>
          </Trackpoint>
          <Trackpoint>
            <Time>2022-09-24T13:25:09.000Z</Time>
            <Position>
              <LatitudeDegrees>43.26950940303504467010498046875</LatitudeDegrees>
              <LongitudeDegrees>-2.93986511416733264923095703125</LongitudeDegrees>
            </Position>
            <DistanceMeters>681.34624000875</DistanceMeters>
          </Trackpoint>
          <Trackpoint>
            <Time>2022-09-24T13:25:10.000Z</Time>
            <Position>
              <LatitudeDegrees>43.26951174996793270111083984375</LatitudeDegrees>
              <LongitudeDegrees>-2.9398548044264316558837890625</LongitudeDegrees>
            </Position>
            <DistanceMeters>682.22234302651</DistanceMeters>
          </Trackpoint>
          <Trackpoint>
            <Time>2022-09-24T13:25:11.000Z</Time>
            <Position>
              <LatitudeDegrees>43.26951409690082073211669921875</LatitudeDegrees>
              <LongitudeDegrees>-2.9398440755903720855712890625</LongitudeDegrees>
            </Position>
            <DistanceMeters>683.13380725118</DistanceMeters>
          </Trackpoint>
          <Trackpoint>
            <Time>2022-09-24T13:25:12.000Z</Time>
            <Position>
              <LatitudeDegrees>43.269516527652740478515625</LatitudeDegrees>
              <LongitudeDegrees>-2.93983309529721736907958984375</LongitudeDegrees>
            </Position>
            <DistanceMeters>684.0600130934</DistanceMeters>
          </Trackpoint>
          <Trackpoint>
            <Time>2022-09-24T13:25:13.000Z</Time>
            <Position>
              <LatitudeDegrees>43.26951895840466022491455078125</LatitudeDegrees>
              <LongitudeDegrees>-2.93982203118503093719482421875</LongitudeDegrees>
            </Position>
            <DistanceMeters>684.9959176906</DistanceMeters>
          </Trackpoint>
          <Trackpoint>
            <Time>2022-09-24T13:25:14.000Z</Time>
            <Position>
              <LatitudeDegrees>43.26952147297561168670654296875</LatitudeDegrees>
              <LongitudeDegrees>-2.939811050891876220703125</LongitudeDegrees>
            </Position>
            <DistanceMeters>685.91723586894</DistanceMeters>
          </Trackpoint>
          <Trackpoint>
            <Time>2022-09-24T13:25:15.000Z</Time>
            <Position>
              <LatitudeDegrees>43.2695240713655948638916015625</LatitudeDegrees>
              <LongitudeDegrees>-2.93979923240840435028076171875</LongitudeDegrees>
            </Position>
            <DistanceMeters>686.91388445738</DistanceMeters>
          </Trackpoint>
          <Trackpoint>
            <Time>2022-09-24T13:25:16.000Z</Time>
            <Position>
              <LatitudeDegrees>43.26952650211751461029052734375</LatitudeDegrees>
              <LongitudeDegrees>-2.939787916839122772216796875</LongitudeDegrees>
            </Position>
            <DistanceMeters>687.86889111748</DistanceMeters>
          </Trackpoint>
          <Trackpoint>
            <Time>2022-09-24T13:25:17.000Z</Time>
            <Position>
              <LatitudeDegrees>43.26952901668846607208251953125</LatitudeDegrees>
              <LongitudeDegrees>-2.9397766850888729095458984375</LongitudeDegrees>
            </Position>
            <DistanceMeters>688.81915826118</DistanceMeters>
          </Trackpoint>
          <Trackpoint>
            <Time>2022-09-24T13:25:18.000Z</Time>
            <Position>
              <LatitudeDegrees>43.269531615078449249267578125</LatitudeDegrees>
              <LongitudeDegrees>-2.93976604007184505462646484375</LongitudeDegrees>
            </Position>
            <DistanceMeters>689.72565534137</DistanceMeters>
          </Trackpoint>
          <Trackpoint>
            <Time>2022-09-24T13:25:19.000Z</Time>
            <Position>
              <LatitudeDegrees>43.26953421346843242645263671875</LatitudeDegrees>
              <LongitudeDegrees>-2.93975531123578548431396484375</LongitudeDegrees>
            </Position>
            <DistanceMeters>690.63711956604</DistanceMeters>
          </Trackpoint>
          <Trackpoint>
            <Time>2022-09-24T13:25:20.000Z</Time>
            <Position>
              <LatitudeDegrees>43.2695368118584156036376953125</LatitudeDegrees>
              <LongitudeDegrees>-2.93974466621875762939453125</LongitudeDegrees>
            </Position>
            <DistanceMeters>691.5485837907</DistanceMeters>
          </Trackpoint>
          <Trackpoint>
            <Time>2022-09-24T13:25:21.000Z</Time>
            <Position>
              <LatitudeDegrees>43.269539661705493927001953125</LatitudeDegrees>
              <LongitudeDegrees>-2.93973393738269805908203125</LongitudeDegrees>
            </Position>
            <DistanceMeters>692.47965163926</DistanceMeters>
          </Trackpoint>
          <Trackpoint>
            <Time>2022-09-24T13:25:22.000Z</Time>
            <Position>
              <LatitudeDegrees>43.26954259537160396575927734375</LatitudeDegrees>
              <LongitudeDegrees>-2.93972329236567020416259765625</LongitudeDegrees>
            </Position>
            <DistanceMeters>693.4009698176</DistanceMeters>
          </Trackpoint>
          <Trackpoint>
            <Time>2022-09-24T13:25:23.000Z</Time>
            <Position>
              <LatitudeDegrees>43.26954544521868228912353515625</LatitudeDegrees>
              <LongitudeDegrees>-2.9397123120725154876708984375</LongitudeDegrees>
            </Position>
            <DistanceMeters>694.34168629535</DistanceMeters>
          </Trackpoint>
          <Trackpoint>
            <Time>2022-09-24T13:25:24.000Z</Time>
            <Position>
              <LatitudeDegrees>43.26954804360866546630859375</LatitudeDegrees>
              <LongitudeDegrees>-2.93970175087451934814453125</LongitudeDegrees>
            </Position>
            <DistanceMeters>695.25315052001</DistanceMeters>
          </Trackpoint>
          <Trackpoint>
            <Time>2022-09-24T13:25:25.000Z</Time>
            <Position>
              <LatitudeDegrees>43.2695505581796169281005859375</LatitudeDegrees>
              <LongitudeDegrees>-2.93969060294330120086669921875</LongitudeDegrees>
            </Position>
            <DistanceMeters>696.19865438989</DistanceMeters>
          </Trackpoint>
          <Trackpoint>
            <Time>2022-09-24T13:25:26.000Z</Time>
            <Position>
              <LatitudeDegrees>43.2695527374744415283203125</LatitudeDegrees>
              <LongitudeDegrees>-2.93967937119305133819580078125</LongitudeDegrees>
            </Position>
            <DistanceMeters>697.13937086764</DistanceMeters>
          </Trackpoint>
          <Trackpoint>
            <Time>2022-09-24T13:25:27.000Z</Time>
            <Position>
              <LatitudeDegrees>43.26955474913120269775390625</LatitudeDegrees>
              <LongitudeDegrees>-2.9396677203476428985595703125</LongitudeDegrees>
            </Position>
            <DistanceMeters>698.10845700941</DistanceMeters>
          </Trackpoint>
          <Trackpoint>
            <Time>2022-09-24T13:25:28.000Z</Time>
            <Position>
              <LatitudeDegrees>43.2695565931499004364013671875</LatitudeDegrees>
              <LongitudeDegrees>-2.93965615332126617431640625</LongitudeDegrees>
            </Position>
            <DistanceMeters>699.06817978046</DistanceMeters>
          </Trackpoint>
          <Trackpoint>
            <Time>2022-09-24T13:25:29.000Z</Time>
            <Position>
              <LatitudeDegrees>43.26955835334956645965576171875</LatitudeDegrees>
              <LongitudeDegrees>-2.93964433483779430389404296875</LongitudeDegrees>
            </Position>
            <DistanceMeters>700.04653968513</DistanceMeters>
          </Trackpoint>
          <Trackpoint>
            <Time>2022-09-24T13:25:30.000Z</Time>
            <Position>
              <LatitudeDegrees>43.26956011354923248291015625</LatitudeDegrees>
              <LongitudeDegrees>-2.93963226489722728729248046875</LongitudeDegrees>
            </Position>
            <DistanceMeters>701.04318827357</DistanceMeters>
          </Trackpoint>
          <Trackpoint>
            <Time>2022-09-24T13:25:31.000Z</Time>
            <Position>
              <LatitudeDegrees>43.269561789929866790771484375</LatitudeDegrees>
              <LongitudeDegrees>-2.93962061405181884765625</LongitudeDegrees>
            </Position>
            <DistanceMeters>702.00291104462</DistanceMeters>
          </Trackpoint>
          <Trackpoint>
            <Time>2022-09-24T13:25:32.000Z</Time>
            <Position>
              <LatitudeDegrees>43.2695634663105010986328125</LatitudeDegrees>
              <LongitudeDegrees>-2.9396087117493152618408203125</LongitudeDegrees>
            </Position>
            <DistanceMeters>702.98127094929</DistanceMeters>
          </Trackpoint>
          <Trackpoint>
            <Time>2022-09-24T13:25:33.000Z</Time>
            <Position>
              <LatitudeDegrees>43.26956522651016712188720703125</LatitudeDegrees>
              <LongitudeDegrees>-2.93959672562777996063232421875</LongitudeDegrees>
            </Position>
            <DistanceMeters>703.96881753348</DistanceMeters>
          </Trackpoint>
          <Trackpoint>
            <Time>2022-09-24T13:25:34.000Z</Time>
            <Position>
              <LatitudeDegrees>43.2695669867098331451416015625</LatitudeDegrees>
              <LongitudeDegrees>-2.93958465568721294403076171875</LongitudeDegrees>
            </Position>
            <DistanceMeters>704.96546612192</DistanceMeters>
          </Trackpoint>
          <Trackpoint>
            <Time>2022-09-24T13:25:35.000Z</Time>
            <Position>
              <LatitudeDegrees>43.2695686630904674530029296875</LatitudeDegrees>
              <LongitudeDegrees>-2.93957241810858249664306640625</LongitudeDegrees>
            </Position>
            <DistanceMeters>705.97561395178</DistanceMeters>
          </Trackpoint>
          <Trackpoint>
            <Time>2022-09-24T13:25:36.000Z</Time>
            <Position>
              <LatitudeDegrees>43.26957008801400661468505859375</LatitudeDegrees>
              <LongitudeDegrees>-2.93956051580607891082763671875</LongitudeDegrees>
            </Position>
            <DistanceMeters>706.95397385644</DistanceMeters>
          </Trackpoint>
          <Trackpoint>
            <Time>2022-09-24T13:25:37.000Z</Time>
            <Position>
              <LatitudeDegrees>43.2695716805756092071533203125</LatitudeDegrees>
              <LongitudeDegrees>-2.93954878114163875579833984375</LongitudeDegrees>
            </Position>
            <DistanceMeters>707.91838967637</DistanceMeters>
          </Trackpoint>
          <Trackpoint>
            <Time>2022-09-24T13:25:38.000Z</Time>
            <Position>
              <LatitudeDegrees>43.26957310549914836883544921875</LatitudeDegrees>
              <LongitudeDegrees>-2.9395372979342937469482421875</LongitudeDegrees>
            </Position>
            <DistanceMeters>708.85910615412</DistanceMeters>
          </Trackpoint>
          <Trackpoint>
            <Time>2022-09-24T13:25:39.000Z</Time>
            <Position>
              <LatitudeDegrees>43.2695746980607509613037109375</LatitudeDegrees>
              <LongitudeDegrees>-2.93952615000307559967041015625</LongitudeDegrees>
            </Position>
            <DistanceMeters>709.77551060047</DistanceMeters>
          </Trackpoint>
          <Trackpoint>
            <Time>2022-09-24T13:25:40.000Z</Time>
            <Position>
              <LatitudeDegrees>43.2695763744413852691650390625</LatitudeDegrees>
              <LongitudeDegrees>-2.9395146667957305908203125</LongitudeDegrees>
            </Position>
            <DistanceMeters>710.72577774417</DistanceMeters>
          </Trackpoint>
          <Trackpoint>
            <Time>2022-09-24T13:25:41.000Z</Time>
            <Position>
              <LatitudeDegrees>43.26957796700298786163330078125</LatitudeDegrees>
              <LongitudeDegrees>-2.9395037703216075897216796875</LongitudeDegrees>
            </Position>
            <DistanceMeters>711.62728031208</DistanceMeters>
          </Trackpoint>
          <Trackpoint>
            <Time>2022-09-24T13:25:42.000Z</Time>
            <Position>
              <LatitudeDegrees>43.2695793919265270233154296875</LatitudeDegrees>
              <LongitudeDegrees>-2.939492873847484588623046875</LongitudeDegrees>
            </Position>
            <DistanceMeters>712.52376054249</DistanceMeters>
          </Trackpoint>
          <Trackpoint>
            <Time>2022-09-24T13:25:43.000Z</Time>
            <Position>
              <LatitudeDegrees>43.269580900669097900390625</LatitudeDegrees>
              <LongitudeDegrees>-2.93948172591626644134521484375</LongitudeDegrees>
            </Position>
            <DistanceMeters>713.44016498884</DistanceMeters>
          </Trackpoint>
          <Trackpoint>
            <Time>2022-09-24T13:25:44.000Z</Time>
            <Position>
              <LatitudeDegrees>43.26958232559263706207275390625</LatitudeDegrees>
              <LongitudeDegrees>-2.93947049416601657867431640625</LongitudeDegrees>
            </Position>
            <DistanceMeters>714.36148316717</DistanceMeters>
          </Trackpoint>
          <Trackpoint>
            <Time>2022-09-24T13:25:45.000Z</Time>
            <Position>
              <LatitudeDegrees>43.2695840857923030853271484375</LatitudeDegrees>
              <LongitudeDegrees>-2.93945892713963985443115234375</LongitudeDegrees>
            </Position>
            <DistanceMeters>715.32120593823</DistanceMeters>
          </Trackpoint>
          <Trackpoint>
            <Time>2022-09-24T13:25:46.000Z</Time>
            <Position>
              <LatitudeDegrees>43.2695857621729373931884765625</LatitudeDegrees>
              <LongitudeDegrees>-2.9394477792084217071533203125</LongitudeDegrees>
            </Position>
            <DistanceMeters>716.23761038458</DistanceMeters>
          </Trackpoint>
          <Trackpoint>
            <Time>2022-09-24T13:25:47.000Z</Time>
            <Position>
              <LatitudeDegrees>43.26958735473453998565673828125</LatitudeDegrees>
              <LongitudeDegrees>-2.9394368827342987060546875</LongitudeDegrees>
            </Position>
            <DistanceMeters>717.13409061499</DistanceMeters>
          </Trackpoint>
          <Trackpoint>
            <Time>2022-09-24T13:25:48.000Z</Time>
            <Position>
              <LatitudeDegrees>43.269588947296142578125</LatitudeDegrees>
              <LongitudeDegrees>-2.93942573480308055877685546875</LongitudeDegrees>
            </Position>
            <DistanceMeters>718.05540879332</DistanceMeters>
          </Trackpoint>
          <Trackpoint>
            <Time>2022-09-24T13:25:49.000Z</Time>
            <Position>
              <LatitudeDegrees>43.26959037221968173980712890625</LatitudeDegrees>
              <LongitudeDegrees>-2.93941416777670383453369140625</LongitudeDegrees>
            </Position>
            <DistanceMeters>719.01041545342</DistanceMeters>
          </Trackpoint>
          <Trackpoint>
            <Time>2022-09-24T13:25:50.000Z</Time>
            <Position>
              <LatitudeDegrees>43.2695917971432209014892578125</LatitudeDegrees>
              <LongitudeDegrees>-2.93940268456935882568359375</LongitudeDegrees>
            </Position>
            <DistanceMeters>719.95113193117</DistanceMeters>
          </Trackpoint>
          <Trackpoint>
            <Time>2022-09-24T13:25:51.000Z</Time>
            <Position>
              <LatitudeDegrees>43.26959305442869663238525390625</LatitudeDegrees>
              <LongitudeDegrees>-2.93939120136201381683349609375</LongitudeDegrees>
            </Position>
            <DistanceMeters>720.88703652837</DistanceMeters>
          </Trackpoint>
          <Trackpoint>
            <Time>2022-09-24T13:25:52.000Z</Time>
            <Position>
              <LatitudeDegrees>43.2695941440761089324951171875</LatitudeDegrees>
              <LongitudeDegrees>-2.93938030488789081573486328125</LongitudeDegrees>
            </Position>
            <DistanceMeters>721.77338671347</DistanceMeters>
          </Trackpoint>
          <Trackpoint>
            <Time>2022-09-24T13:25:53.000Z</Time>
            <Position>
              <LatitudeDegrees>43.269595317542552947998046875</LatitudeDegrees>
              <LongitudeDegrees>-2.93936907313764095306396484375</LongitudeDegrees>
            </Position>
            <DistanceMeters>722.69470489181</DistanceMeters>
          </Trackpoint>
          <Trackpoint>
            <Time>2022-09-24T13:25:54.000Z</Time>
            <Position>
              <LatitudeDegrees>43.2695964910089969635009765625</LatitudeDegrees>
              <LongitudeDegrees>-2.93935834430158138275146484375</LongitudeDegrees>
            </Position>
            <DistanceMeters>723.57594638776</DistanceMeters>
          </Trackpoint>
          <Trackpoint>
            <Time>2022-09-24T13:25:55.000Z</Time>
            <Position>
              <LatitudeDegrees>43.26959766447544097900390625</LatitudeDegrees>
              <LongitudeDegrees>-2.93934694491326808929443359375</LongitudeDegrees>
            </Position>
            <DistanceMeters>724.51185098496</DistanceMeters>
          </Trackpoint>
          <Trackpoint>
            <Time>2022-09-24T13:25:56.000Z</Time>
            <Position>
              <LatitudeDegrees>43.26959875412285327911376953125</LatitudeDegrees>
              <LongitudeDegrees>-2.939336299896240234375</LongitudeDegrees>
            </Position>
            <DistanceMeters>725.38278520824</DistanceMeters>
          </Trackpoint>
          <Trackpoint>
            <Time>2022-09-24T13:25:57.000Z</Time>
            <Position>
              <LatitudeDegrees>43.2695998437702655792236328125</LatitudeDegrees>
              <LongitudeDegrees>-2.93932515196502208709716796875</LongitudeDegrees>
            </Position>
            <DistanceMeters>726.29424943291</DistanceMeters>
          </Trackpoint>
          <Trackpoint>
            <Time>2022-09-24T13:25:58.000Z</Time>
            <Position>
              <LatitudeDegrees>43.26960093341767787933349609375</LatitudeDegrees>
              <LongitudeDegrees>-2.93931442312896251678466796875</LongitudeDegrees>
            </Position>
            <DistanceMeters>727.17549092886</DistanceMeters>
          </Trackpoint>
          <Trackpoint>
            <Time>2022-09-24T13:25:59.000Z</Time>
            <Position>
              <LatitudeDegrees>43.26960193924605846405029296875</LatitudeDegrees>
              <LongitudeDegrees>-2.9393032751977443695068359375</LongitudeDegrees>
            </Position>
            <DistanceMeters>728.08695515352</DistanceMeters>
          </Trackpoint>
          <Trackpoint>
            <Time>2022-09-24T13:26:00.000Z</Time>
            <Position>
              <LatitudeDegrees>43.2696028612554073333740234375</LatitudeDegrees>
              <LongitudeDegrees>-2.93929229490458965301513671875</LongitudeDegrees>
            </Position>
            <DistanceMeters>728.97838475089</DistanceMeters>
          </Trackpoint>
          <Trackpoint>
            <Time>2022-09-24T13:26:01.000Z</Time>
            <Position>
              <LatitudeDegrees>43.26960395090281963348388671875</LatitudeDegrees>
              <LongitudeDegrees>-2.9392808116972446441650390625</LongitudeDegrees>
            </Position>
            <DistanceMeters>729.91910122864</DistanceMeters>
          </Trackpoint>
          <Trackpoint>
            <Time>2022-09-24T13:26:02.000Z</Time>
            <Position>
              <LatitudeDegrees>43.26960478909313678741455078125</LatitudeDegrees>
              <LongitudeDegrees>-2.93926983140408992767333984375</LongitudeDegrees>
            </Position>
            <DistanceMeters>730.81053082601</DistanceMeters>
          </Trackpoint>
          <Trackpoint>
            <Time>2022-09-24T13:26:03.000Z</Time>
            <Position>
              <LatitudeDegrees>43.26960562728345394134521484375</LatitudeDegrees>
              <LongitudeDegrees>-2.93925843201577663421630859375</LongitudeDegrees>
            </Position>
            <DistanceMeters>731.73184900435</DistanceMeters>
          </Trackpoint>
          <Trackpoint>
            <Time>2022-09-24T13:26:04.000Z</Time>
            <Position>
              <LatitudeDegrees>43.26960663311183452606201171875</LatitudeDegrees>
              <LongitudeDegrees>-2.93924711644649505615234375</LongitudeDegrees>
            </Position>
            <DistanceMeters>732.65316718268</DistanceMeters>
          </Trackpoint>
          <Trackpoint>
            <Time>2022-09-24T13:26:05.000Z</Time>
            <Position>
              <LatitudeDegrees>43.269607722759246826171875</LatitudeDegrees>
              <LongitudeDegrees>-2.93923513032495975494384765625</LongitudeDegrees>
            </Position>
            <DistanceMeters>733.63152708735</DistanceMeters>
          </Trackpoint>
          <Trackpoint>
            <Time>2022-09-24T13:26:06.000Z</Time>
            <Position>
              <LatitudeDegrees>43.26960881240665912628173828125</LatitudeDegrees>
              <LongitudeDegrees>-2.9392234794795513153076171875</LongitudeDegrees>
            </Position>
            <DistanceMeters>734.58179423105</DistanceMeters>
          </Trackpoint>
          <Trackpoint>
            <Time>2022-09-24T13:26:07.000Z</Time>
            <Position>
              <LatitudeDegrees>43.2696099020540714263916015625</LatitudeDegrees>
              <LongitudeDegrees>-2.9392115771770477294921875</LongitudeDegrees>
            </Position>
            <DistanceMeters>735.55088037282</DistanceMeters>
          </Trackpoint>
          <Trackpoint>
            <Time>2022-09-24T13:26:08.000Z</Time>
            <Position>
              <LatitudeDegrees>43.26961099170148372650146484375</LatitudeDegrees>
              <LongitudeDegrees>-2.93920017778873443603515625</LongitudeDegrees>
            </Position>
            <DistanceMeters>736.48194822138</DistanceMeters>
          </Trackpoint>
          <Trackpoint>
            <Time>2022-09-24T13:26:09.000Z</Time>
            <Position>
              <LatitudeDegrees>43.26961199752986431121826171875</LatitudeDegrees>
              <LongitudeDegrees>-2.93918852694332599639892578125</LongitudeDegrees>
            </Position>
            <DistanceMeters>737.43221536508</DistanceMeters>
          </Trackpoint>
          <Trackpoint>
            <Time>2022-09-24T13:26:10.000Z</Time>
            <Position>
              <LatitudeDegrees>43.269613087177276611328125</LatitudeDegrees>
              <LongitudeDegrees>-2.93917737901210784912109375</LongitudeDegrees>
            </Position>
            <DistanceMeters>738.34367958974</DistanceMeters>
          </Trackpoint>
          <Trackpoint>
            <Time>2022-09-24T13:26:11.000Z</Time>
            <Position>
              <LatitudeDegrees>43.269614093005657196044921875</LatitudeDegrees>
              <LongitudeDegrees>-2.9391659796237945556640625</LongitudeDegrees>
            </Position>
            <DistanceMeters>739.2747474383</DistanceMeters>
          </Trackpoint>
          <Trackpoint>
            <Time>2022-09-24T13:26:12.000Z</Time>
            <Position>
              <LatitudeDegrees>43.26961501501500606536865234375</LatitudeDegrees>
              <LongitudeDegrees>-2.9391547478735446929931640625</LongitudeDegrees>
            </Position>
            <DistanceMeters>740.18621166297</DistanceMeters>
          </Trackpoint>
          <Trackpoint>
            <Time>2022-09-24T13:26:13.000Z</Time>
            <Position>
              <LatitudeDegrees>43.2696159370243549346923828125</LatitudeDegrees>
              <LongitudeDegrees>-2.939143516123294830322265625</LongitudeDegrees>
            </Position>
            <DistanceMeters>741.09767588763</DistanceMeters>
          </Trackpoint>
          <Trackpoint>
            <Time>2022-09-24T13:26:14.000Z</Time>
            <Position>
              <LatitudeDegrees>43.2696166075766086578369140625</LatitudeDegrees>
              <LongitudeDegrees>-2.93913303874433040618896484375</LongitudeDegrees>
            </Position>
            <DistanceMeters>741.94762065967</DistanceMeters>
          </Trackpoint>
          <Trackpoint>
            <Time>2022-09-24T13:26:15.000Z</Time>
            <Position>
              <LatitudeDegrees>43.2696172781288623809814453125</LatitudeDegrees>
              <LongitudeDegrees>-2.93912264518439769744873046875</LongitudeDegrees>
            </Position>
            <DistanceMeters>742.7868738769</DistanceMeters>
          </Trackpoint>
          <Trackpoint>
            <Time>2022-09-24T13:26:16.000Z</Time>
            <Position>
              <LatitudeDegrees>43.26961778104305267333984375</LatitudeDegrees>
              <LongitudeDegrees>-2.9391121678054332733154296875</LongitudeDegrees>
            </Position>
            <DistanceMeters>743.63681864894</DistanceMeters>
          </Trackpoint>
          <Trackpoint>
            <Time>2022-09-24T13:26:17.000Z</Time>
            <Position>
              <LatitudeDegrees>43.2696182839572429656982421875</LatitudeDegrees>
              <LongitudeDegrees>-2.93910152278840541839599609375</LongitudeDegrees>
            </Position>
            <DistanceMeters>744.49732214597</DistanceMeters>
          </Trackpoint>
          <Trackpoint>
            <Time>2022-09-24T13:26:18.000Z</Time>
            <Position>
              <LatitudeDegrees>43.2696189545094966888427734375</LatitudeDegrees>
              <LongitudeDegrees>-2.9390903748571872711181640625</LongitudeDegrees>
            </Position>
            <DistanceMeters>745.40381922616</DistanceMeters>
          </Trackpoint>
          <Trackpoint>
            <Time>2022-09-24T13:26:19.000Z</Time>
            <Position>
              <LatitudeDegrees>43.26961954124271869659423828125</LatitudeDegrees>
              <LongitudeDegrees>-2.93907889164984226226806640625</LongitudeDegrees>
            </Position>
            <DistanceMeters>746.33488707472</DistanceMeters>
          </Trackpoint>
          <Trackpoint>
            <Time>2022-09-24T13:26:20.000Z</Time>
            <Position>
              <LatitudeDegrees>43.26962004415690898895263671875</LatitudeDegrees>
              <LongitudeDegrees>-2.939067073166370391845703125</LongitudeDegrees>
            </Position>
            <DistanceMeters>747.29460984578</DistanceMeters>
          </Trackpoint>
          <Trackpoint>
            <Time>2022-09-24T13:26:21.000Z</Time>
            <Position>
              <LatitudeDegrees>43.26962054707109928131103515625</LatitudeDegrees>
              <LongitudeDegrees>-2.93905525468289852142333984375</LongitudeDegrees>
            </Position>
            <DistanceMeters>748.25433261683</DistanceMeters>
          </Trackpoint>
          <Trackpoint>
            <Time>2022-09-24T13:26:22.000Z</Time>
            <Position>
              <LatitudeDegrees>43.269620798528194427490234375</LatitudeDegrees>
              <LongitudeDegrees>-2.93904335238039493560791015625</LongitudeDegrees>
            </Position>
            <DistanceMeters>749.21405538789</DistanceMeters>
          </Trackpoint>
          <Trackpoint>
            <Time>2022-09-24T13:26:23.000Z</Time>
            <Position>
              <LatitudeDegrees>43.269621469080448150634765625</LatitudeDegrees>
              <LongitudeDegrees>-2.93903119862079620361328125</LongitudeDegrees>
            </Position>
            <DistanceMeters>750.20160197208</DistanceMeters>
          </Trackpoint>
          <Trackpoint>
            <Time>2022-09-24T13:26:24.000Z</Time>
            <Position>
              <LatitudeDegrees>43.2696219719946384429931640625</LatitudeDegrees>
              <LongitudeDegrees>-2.93901904486119747161865234375</LongitudeDegrees>
            </Position>
            <DistanceMeters>751.18914855627</DistanceMeters>
          </Trackpoint>
          <Trackpoint>
            <Time>2022-09-24T13:26:25.000Z</Time>
            <Position>
              <LatitudeDegrees>43.26962222345173358917236328125</LatitudeDegrees>
              <LongitudeDegrees>-2.93900647200644016265869140625</LongitudeDegrees>
            </Position>
            <DistanceMeters>752.2126175922</DistanceMeters>
          </Trackpoint>
          <Trackpoint>
            <Time>2022-09-24T13:26:26.000Z</Time>
            <Position>
              <LatitudeDegrees>43.26962239108979701995849609375</LatitudeDegrees>
              <LongitudeDegrees>-2.938994653522968292236328125</LongitudeDegrees>
            </Position>
            <DistanceMeters>753.17234036325</DistanceMeters>
          </Trackpoint>
          <Trackpoint>
            <Time>2022-09-24T13:26:27.000Z</Time>
            <Position>
              <LatitudeDegrees>43.26962289400398731231689453125</LatitudeDegrees>
              <LongitudeDegrees>-2.93898249976336956024169921875</LongitudeDegrees>
            </Position>
            <DistanceMeters>754.16444838781</DistanceMeters>
          </Trackpoint>
          <Trackpoint>
            <Time>2022-09-24T13:26:28.000Z</Time>
            <Position>
              <LatitudeDegrees>43.26962356455624103546142578125</LatitudeDegrees>
              <LongitudeDegrees>-2.93897009454667568206787109375</LongitudeDegrees>
            </Position>
            <DistanceMeters>755.17011660433</DistanceMeters>
          </Trackpoint>
          <Trackpoint>
            <Time>2022-09-24T13:26:29.000Z</Time>
            <Position>
              <LatitudeDegrees>43.2696239836513996124267578125</LatitudeDegrees>
              <LongitudeDegrees>-2.93895735405385494232177734375</LongitudeDegrees>
            </Position>
            <DistanceMeters>756.20237094333</DistanceMeters>
          </Trackpoint>
          <Trackpoint>
            <Time>2022-09-24T13:26:30.000Z</Time>
            <Position>
              <LatitudeDegrees>43.2696243189275264739990234375</LatitudeDegrees>
              <LongitudeDegrees>-2.9389448650181293487548828125</LongitudeDegrees>
            </Position>
            <DistanceMeters>757.21697860869</DistanceMeters>
          </Trackpoint>
          <Trackpoint>
            <Time>2022-09-24T13:26:31.000Z</Time>
            <Position>
              <LatitudeDegrees>43.26962457038462162017822265625</LatitudeDegrees>
              <LongitudeDegrees>-2.93893287889659404754638671875</LongitudeDegrees>
            </Position>
            <DistanceMeters>758.1907126723</DistanceMeters>
          </Trackpoint>
          <Trackpoint>
            <Time>2022-09-24T13:26:32.000Z</Time>
            <Position>
              <LatitudeDegrees>43.26962457038462162017822265625</LatitudeDegrees>
              <LongitudeDegrees>-2.93892097659409046173095703125</LongitudeDegrees>
            </Position>
            <DistanceMeters>759.15979881407</DistanceMeters>
          </Trackpoint>
          <Trackpoint>
            <Time>2022-09-24T13:26:33.000Z</Time>
            <Position>
              <LatitudeDegrees>43.26962423510849475860595703125</LatitudeDegrees>
              <LongitudeDegrees>-2.93891024775803089141845703125</LongitudeDegrees>
            </Position>
            <DistanceMeters>760.03073303735</DistanceMeters>
          </Trackpoint>
          <Trackpoint>
            <Time>2022-09-24T13:26:34.000Z</Time>
            <Position>
              <LatitudeDegrees>43.2696243189275264739990234375</LatitudeDegrees>
              <LongitudeDegrees>-2.938898764550685882568359375</LongitudeDegrees>
            </Position>
            <DistanceMeters>760.96180088591</DistanceMeters>
          </Trackpoint>
          <Trackpoint>
            <Time>2022-09-24T13:26:35.000Z</Time>
            <Position>
              <LatitudeDegrees>43.269624821841716766357421875</LatitudeDegrees>
              <LongitudeDegrees>-2.93888795189559459686279296875</LongitudeDegrees>
            </Position>
            <DistanceMeters>761.84304238186</DistanceMeters>
          </Trackpoint>
          <Trackpoint>
            <Time>2022-09-24T13:26:36.000Z</Time>
            <Position>
              <LatitudeDegrees>43.26962591148912906646728515625</LatitudeDegrees>
              <LongitudeDegrees>-2.93887571431696414947509765625</LongitudeDegrees>
            </Position>
            <DistanceMeters>762.8396909703</DistanceMeters>
          </Trackpoint>
          <Trackpoint>
            <Time>2022-09-24T13:26:37.000Z</Time>
            <Position>
              <LatitudeDegrees>43.26962641440331935882568359375</LatitudeDegrees>
              <LongitudeDegrees>-2.9388637281954288482666015625</LongitudeDegrees>
            </Position>
            <DistanceMeters>763.8134250339</DistanceMeters>
          </Trackpoint>
          <Trackpoint>
            <Time>2022-09-24T13:26:38.000Z</Time>
            <Position>
              <LatitudeDegrees>43.26962691731750965118408203125</LatitudeDegrees>
              <LongitudeDegrees>-2.93885174207389354705810546875</LongitudeDegrees>
            </Position>
            <DistanceMeters>764.78251117567</DistanceMeters>
          </Trackpoint>
          <Trackpoint>
            <Time>2022-09-24T13:26:39.000Z</Time>
            <Position>
              <LatitudeDegrees>43.2696273364126682281494140625</LatitudeDegrees>
              <LongitudeDegrees>-2.938839755952358245849609375</LongitudeDegrees>
            </Position>
            <DistanceMeters>765.75159731744</DistanceMeters>
          </Trackpoint>
          <Trackpoint>
            <Time>2022-09-24T13:26:40.000Z</Time>
            <Position>
              <LatitudeDegrees>43.2696278393268585205078125</LatitudeDegrees>
              <LongitudeDegrees>-2.93882776983082294464111328125</LongitudeDegrees>
            </Position>
            <DistanceMeters>766.72068345921</DistanceMeters>
          </Trackpoint>
          <Trackpoint>
            <Time>2022-09-24T13:26:41.000Z</Time>
            <Position>
              <LatitudeDegrees>43.269628174602985382080078125</LatitudeDegrees>
              <LongitudeDegrees>-2.93881586752831935882568359375</LongitudeDegrees>
            </Position>
            <DistanceMeters>767.68976960098</DistanceMeters>
          </Trackpoint>
          <Trackpoint>
            <Time>2022-09-24T13:26:42.000Z</Time>
            <Position>
              <LatitudeDegrees>43.26962842606008052825927734375</LatitudeDegrees>
              <LongitudeDegrees>-2.9388038814067840576171875</LongitudeDegrees>
            </Position>
            <DistanceMeters>768.65885574275</DistanceMeters>
          </Trackpoint>
          <Trackpoint>
            <Time>2022-09-24T13:26:43.000Z</Time>
            <Position>
              <LatitudeDegrees>43.26962859369814395904541015625</LatitudeDegrees>
              <LongitudeDegrees>-2.93879206292331218719482421875</LongitudeDegrees>
            </Position>
            <DistanceMeters>769.6185785138</DistanceMeters>
          </Trackpoint>
          <Trackpoint>
            <Time>2022-09-24T13:26:44.000Z</Time>
            <Position>
              <LatitudeDegrees>43.269628845155239105224609375</LatitudeDegrees>
              <LongitudeDegrees>-2.938780076801776885986328125</LongitudeDegrees>
            </Position>
            <DistanceMeters>770.58766465557</DistanceMeters>
          </Trackpoint>
          <Trackpoint>
            <Time>2022-09-24T13:26:45.000Z</Time>
            <Position>
              <LatitudeDegrees>43.269629180431365966796875</LatitudeDegrees>
              <LongitudeDegrees>-2.9387681744992733001708984375</LongitudeDegrees>
            </Position>
            <DistanceMeters>771.5520804755</DistanceMeters>
          </Trackpoint>
          <Trackpoint>
            <Time>2022-09-24T13:26:46.000Z</Time>
            <Position>
              <LatitudeDegrees>43.26962943188846111297607421875</LatitudeDegrees>
              <LongitudeDegrees>-2.93875652365386486053466796875</LongitudeDegrees>
            </Position>
            <DistanceMeters>772.49279695325</DistanceMeters>
          </Trackpoint>
          <Trackpoint>
            <Time>2022-09-24T13:26:47.000Z</Time>
            <Position>
              <LatitudeDegrees>43.26962959952652454376220703125</LatitudeDegrees>
              <LongitudeDegrees>-2.93874529190361499786376953125</LongitudeDegrees>
            </Position>
            <DistanceMeters>773.40426117792</DistanceMeters>
          </Trackpoint>
          <Trackpoint>
            <Time>2022-09-24T13:26:48.000Z</Time>
            <Position>
              <LatitudeDegrees>43.26962985098361968994140625</LatitudeDegrees>
              <LongitudeDegrees>-2.938734479248523712158203125</LongitudeDegrees>
            </Position>
            <DistanceMeters>774.28036419568</DistanceMeters>
          </Trackpoint>
          <Trackpoint>
            <Time>2022-09-24T13:26:49.000Z</Time>
            <Position>
              <LatitudeDegrees>43.26962993480265140533447265625</LatitudeDegrees>
              <LongitudeDegrees>-2.93872316367924213409423828125</LongitudeDegrees>
            </Position>
            <DistanceMeters>775.20168237402</DistanceMeters>
          </Trackpoint>
          <Trackpoint>
            <Time>2022-09-24T13:26:50.000Z</Time>
            <Position>
              <LatitudeDegrees>43.26962993480265140533447265625</LatitudeDegrees>
              <LongitudeDegrees>-2.938711680471897125244140625</LongitudeDegrees>
            </Position>
            <DistanceMeters>776.13275022257</DistanceMeters>
          </Trackpoint>
          <Trackpoint>
            <Time>2022-09-24T13:26:51.000Z</Time>
            <Position>
              <LatitudeDegrees>43.2696300186216831207275390625</LatitudeDegrees>
              <LongitudeDegrees>-2.9387001134455204010009765625</LongitudeDegrees>
            </Position>
            <DistanceMeters>777.07346670032</DistanceMeters>
          </Trackpoint>
          <Trackpoint>
            <Time>2022-09-24T13:26:52.000Z</Time>
            <Position>
              <LatitudeDegrees>43.269630186259746551513671875</LatitudeDegrees>
              <LongitudeDegrees>-2.9386883787810802459716796875</LongitudeDegrees>
            </Position>
            <DistanceMeters>778.02373384402</DistanceMeters>
          </Trackpoint>
          <Trackpoint>
            <Time>2022-09-24T13:26:53.000Z</Time>
            <Position>
              <LatitudeDegrees>43.2696303538978099822998046875</LatitudeDegrees>
              <LongitudeDegrees>-2.93867656029760837554931640625</LongitudeDegrees>
            </Position>
            <DistanceMeters>778.98345661508</DistanceMeters>
          </Trackpoint>
          <Trackpoint>
            <Time>2022-09-24T13:26:54.000Z</Time>
            <Position>
              <LatitudeDegrees>43.2696306891739368438720703125</LatitudeDegrees>
              <LongitudeDegrees>-2.9386644065380096435546875</LongitudeDegrees>
            </Position>
            <DistanceMeters>779.97100319927</DistanceMeters>
          </Trackpoint>
          <Trackpoint>
            <Time>2022-09-24T13:26:55.000Z</Time>
            <Position>
              <LatitudeDegrees>43.26963127590715885162353515625</LatitudeDegrees>
              <LongitudeDegrees>-2.9386518336832523345947265625</LongitudeDegrees>
            </Position>
            <DistanceMeters>780.99447223519</DistanceMeters>
          </Trackpoint>
          <Trackpoint>
            <Time>2022-09-24T13:26:56.000Z</Time>
            <Position>
              <LatitudeDegrees>43.26963177882134914398193359375</LatitudeDegrees>
              <LongitudeDegrees>-2.93863900937139987945556640625</LongitudeDegrees>
            </Position>
            <DistanceMeters>782.03543773572</DistanceMeters>
          </Trackpoint>
          <Trackpoint>
            <Time>2022-09-24T13:26:57.000Z</Time>
            <Position>
              <LatitudeDegrees>43.26963261701166629791259765625</LatitudeDegrees>
              <LongitudeDegrees>-2.93862643651664257049560546875</LongitudeDegrees>
            </Position>
            <DistanceMeters>783.05890677164</DistanceMeters>
          </Trackpoint>
          <Trackpoint>
            <Time>2022-09-24T13:26:58.000Z</Time>
            <Position>
              <LatitudeDegrees>43.26963345520198345184326171875</LatitudeDegrees>
              <LongitudeDegrees>-2.93861403129994869232177734375</LongitudeDegrees>
            </Position>
            <DistanceMeters>784.0690546015</DistanceMeters>
          </Trackpoint>
          <Trackpoint>
            <Time>2022-09-24T13:26:59.000Z</Time>
            <Position>
              <LatitudeDegrees>43.26963395811617374420166015625</LatitudeDegrees>
              <LongitudeDegrees>-2.93860196135938167572021484375</LongitudeDegrees>
            </Position>
            <DistanceMeters>785.04741450617</DistanceMeters>
          </Trackpoint>
          <Trackpoint>
            <Time>2022-09-24T13:27:00.000Z</Time>
            <Position>
              <LatitudeDegrees>43.2696343772113323211669921875</LatitudeDegrees>
              <LongitudeDegrees>-2.93858997523784637451171875</LongitudeDegrees>
            </Position>
            <DistanceMeters>786.01650064794</DistanceMeters>
          </Trackpoint>
          <Trackpoint>
            <Time>2022-09-24T13:27:01.000Z</Time>
            <Position>
              <LatitudeDegrees>43.2696350477635860443115234375</LatitudeDegrees>
              <LongitudeDegrees>-2.9385777376592159271240234375</LongitudeDegrees>
            </Position>
            <DistanceMeters>787.01314923637</DistanceMeters>
          </Trackpoint>
          <Trackpoint>
            <Time>2022-09-24T13:27:02.000Z</Time>
            <Position>
              <LatitudeDegrees>43.26963580213487148284912109375</LatitudeDegrees>
              <LongitudeDegrees>-2.93856541626155376434326171875</LongitudeDegrees>
            </Position>
            <DistanceMeters>788.01431779625</DistanceMeters>
          </Trackpoint>
          <Trackpoint>
            <Time>2022-09-24T13:27:03.000Z</Time>
            <Position>
              <LatitudeDegrees>43.2696367241442203521728515625</LatitudeDegrees>
              <LongitudeDegrees>-2.9385525919497013092041015625</LongitudeDegrees>
            </Position>
            <DistanceMeters>789.05528329677</DistanceMeters>
          </Trackpoint>
          <Trackpoint>
            <Time>2022-09-24T13:27:04.000Z</Time>
            <Position>
              <LatitudeDegrees>43.26963764615356922149658203125</LatitudeDegrees>
              <LongitudeDegrees>-2.93853943236172199249267578125</LongitudeDegrees>
            </Position>
            <DistanceMeters>790.12195552006</DistanceMeters>
          </Trackpoint>
          <Trackpoint>
            <Time>2022-09-24T13:27:05.000Z</Time>
            <Position>
              <LatitudeDegrees>43.2696385681629180908203125</LatitudeDegrees>
              <LongitudeDegrees>-2.93852694332599639892578125</LongitudeDegrees>
            </Position>
            <DistanceMeters>791.13656318542</DistanceMeters>
          </Trackpoint>
          <Trackpoint>
            <Time>2022-09-24T13:27:06.000Z</Time>
            <Position>
              <LatitudeDegrees>43.26963949017226696014404296875</LatitudeDegrees>
              <LongitudeDegrees>-2.9385143704712390899658203125</LongitudeDegrees>
            </Position>
            <DistanceMeters>792.16003222135</DistanceMeters>
          </Trackpoint>
          <Trackpoint>
            <Time>2022-09-24T13:27:07.000Z</Time>
            <Position>
              <LatitudeDegrees>43.2696404121816158294677734375</LatitudeDegrees>
              <LongitudeDegrees>-2.938501797616481781005859375</LongitudeDegrees>
            </Position>
            <DistanceMeters>793.18350125727</DistanceMeters>
          </Trackpoint>
          <Trackpoint>
            <Time>2022-09-24T13:27:08.000Z</Time>
            <Position>
              <LatitudeDegrees>43.26964116655290126800537109375</LatitudeDegrees>
              <LongitudeDegrees>-2.93848939239978790283203125</LongitudeDegrees>
            </Position>
            <DistanceMeters>794.19364908713</DistanceMeters>
          </Trackpoint>
          <Trackpoint>
            <Time>2022-09-24T13:27:09.000Z</Time>
            <Position>
              <LatitudeDegrees>43.26964192092418670654296875</LatitudeDegrees>
              <LongitudeDegrees>-2.93847640044987201690673828125</LongitudeDegrees>
            </Position>
            <DistanceMeters>795.2518217947</DistanceMeters>
          </Trackpoint>
          <Trackpoint>
            <Time>2022-09-24T13:27:10.000Z</Time>
            <Position>
              <LatitudeDegrees>43.269642256200313568115234375</LatitudeDegrees>
              <LongitudeDegrees>-2.93846416287124156951904296875</LongitudeDegrees>
            </Position>
            <DistanceMeters>796.24392981926</DistanceMeters>
          </Trackpoint>
          <Trackpoint>
            <Time>2022-09-24T13:27:11.000Z</Time>
            <Position>
              <LatitudeDegrees>43.26964284293353557586669921875</LatitudeDegrees>
              <LongitudeDegrees>-2.93845175765454769134521484375</LongitudeDegrees>
            </Position>
            <DistanceMeters>797.24959803578</DistanceMeters>
          </Trackpoint>
          <Trackpoint>
            <Time>2022-09-24T13:27:12.000Z</Time>
            <Position>
              <LatitudeDegrees>43.26964334584772586822509765625</LatitudeDegrees>
              <LongitudeDegrees>-2.938439436256885528564453125</LongitudeDegrees>
            </Position>
            <DistanceMeters>798.25076659565</DistanceMeters>
          </Trackpoint>
          <Trackpoint>
            <Time>2022-09-24T13:27:13.000Z</Time>
            <Position>
              <LatitudeDegrees>43.26964418403804302215576171875</LatitudeDegrees>
              <LongitudeDegrees>-2.938427031040191650390625</LongitudeDegrees>
            </Position>
            <DistanceMeters>799.26537426102</DistanceMeters>
          </Trackpoint>
          <Trackpoint>
            <Time>2022-09-24T13:27:14.000Z</Time>
            <Position>
              <LatitudeDegrees>43.26964502222836017608642578125</LatitudeDegrees>
              <LongitudeDegrees>-2.93841470964252948760986328125</LongitudeDegrees>
            </Position>
            <DistanceMeters>800.27104247754</DistanceMeters>
          </Trackpoint>
          <Trackpoint>
            <Time>2022-09-24T13:27:15.000Z</Time>
            <Position>
              <LatitudeDegrees>43.26964602805674076080322265625</LatitudeDegrees>
              <LongitudeDegrees>-2.9384023882448673248291015625</LongitudeDegrees>
            </Position>
            <DistanceMeters>801.27671069406</DistanceMeters>
          </Trackpoint>
          <Trackpoint>
            <Time>2022-09-24T13:27:16.000Z</Time>
            <Position>
              <LatitudeDegrees>43.2696471177041530609130859375</LatitudeDegrees>
              <LongitudeDegrees>-2.93839023448526859283447265625</LongitudeDegrees>
            </Position>
            <DistanceMeters>802.2733592825</DistanceMeters>
          </Trackpoint>
          <Trackpoint>
            <Time>2022-09-24T13:27:17.000Z</Time>
            <Position>
              <LatitudeDegrees>43.26964837498962879180908203125</LatitudeDegrees>
              <LongitudeDegrees>-2.9383779130876064300537109375</LongitudeDegrees>
            </Position>
            <DistanceMeters>803.27902749902</DistanceMeters>
          </Trackpoint>
          <Trackpoint>
            <Time>2022-09-24T13:27:18.000Z</Time>
            <Position>
              <LatitudeDegrees>43.26964971609413623809814453125</LatitudeDegrees>
              <LongitudeDegrees>-2.93836559168994426727294921875</LongitudeDegrees>
            </Position>
            <DistanceMeters>804.28469571554</DistanceMeters>
          </Trackpoint>
          <Trackpoint>
            <Time>2022-09-24T13:27:19.000Z</Time>
            <Position>
              <LatitudeDegrees>43.2696511410176753997802734375</LatitudeDegrees>
              <LongitudeDegrees>-2.93835318647325038909912109375</LongitudeDegrees>
            </Position>
            <DistanceMeters>805.2993033809</DistanceMeters>
          </Trackpoint>
          <Trackpoint>
            <Time>2022-09-24T13:27:20.000Z</Time>
            <Position>
              <LatitudeDegrees>43.26965256594121456146240234375</LatitudeDegrees>
              <LongitudeDegrees>-2.93834094889461994171142578125</LongitudeDegrees>
            </Position>
            <DistanceMeters>806.30047194078</DistanceMeters>
          </Trackpoint>
          <Trackpoint>
            <Time>2022-09-24T13:27:21.000Z</Time>
            <Position>
              <LatitudeDegrees>43.26965399086475372314453125</LatitudeDegrees>
              <LongitudeDegrees>-2.93832871131598949432373046875</LongitudeDegrees>
            </Position>
            <DistanceMeters>807.3061401573</DistanceMeters>
          </Trackpoint>
          <Trackpoint>
            <Time>2022-09-24T13:27:22.000Z</Time>
            <Position>
              <LatitudeDegrees>43.26965533196926116943359375</LatitudeDegrees>
              <LongitudeDegrees>-2.93831638991832733154296875</LongitudeDegrees>
            </Position>
            <DistanceMeters>808.31180837382</DistanceMeters>
          </Trackpoint>
          <Trackpoint>
            <Time>2022-09-24T13:27:23.000Z</Time>
            <Position>
              <LatitudeDegrees>43.26965658925473690032958984375</LatitudeDegrees>
              <LongitudeDegrees>-2.93830406852066516876220703125</LongitudeDegrees>
            </Position>
            <DistanceMeters>809.31747659034</DistanceMeters>
          </Trackpoint>
          <Trackpoint>
            <Time>2022-09-24T13:27:24.000Z</Time>
            <Position>
              <LatitudeDegrees>43.269657678902149200439453125</LatitudeDegrees>
              <LongitudeDegrees>-2.93829166330397129058837890625</LongitudeDegrees>
            </Position>
            <DistanceMeters>810.33208425571</DistanceMeters>
          </Trackpoint>
          <Trackpoint>
            <Time>2022-09-24T13:27:25.000Z</Time>
            <Position>
              <LatitudeDegrees>43.26965860091149806976318359375</LatitudeDegrees>
              <LongitudeDegrees>-2.9382793419063091278076171875</LongitudeDegrees>
            </Position>
            <DistanceMeters>811.33325281558</DistanceMeters>
          </Trackpoint>
          <Trackpoint>
            <Time>2022-09-24T13:27:26.000Z</Time>
            <Position>
              <LatitudeDegrees>43.26965943910181522369384765625</LatitudeDegrees>
              <LongitudeDegrees>-2.938267104327678680419921875</LongitudeDegrees>
            </Position>
            <DistanceMeters>812.32990140402</DistanceMeters>
          </Trackpoint>
          <Trackpoint>
            <Time>2022-09-24T13:27:27.000Z</Time>
            <Position>
              <LatitudeDegrees>43.2696601934731006622314453125</LatitudeDegrees>
              <LongitudeDegrees>-2.93825511820614337921142578125</LongitudeDegrees>
            </Position>
            <DistanceMeters>813.30363546762</DistanceMeters>
          </Trackpoint>
          <Trackpoint>
            <Time>2022-09-24T13:27:28.000Z</Time>
            <Position>
              <LatitudeDegrees>43.26966094784438610076904296875</LatitudeDegrees>
              <LongitudeDegrees>-2.93824271298944950103759765625</LongitudeDegrees>
            </Position>
            <DistanceMeters>814.31378329748</DistanceMeters>
          </Trackpoint>
          <Trackpoint>
            <Time>2022-09-24T13:27:29.000Z</Time>
            <Position>
              <LatitudeDegrees>43.269661702215671539306640625</LatitudeDegrees>
              <LongitudeDegrees>-2.9382300563156604766845703125</LongitudeDegrees>
            </Position>
            <DistanceMeters>815.34603763648</DistanceMeters>
          </Trackpoint>
          <Trackpoint>
            <Time>2022-09-24T13:27:30.000Z</Time>
            <Position>
              <LatitudeDegrees>43.2696627080440521240234375</LatitudeDegrees>
              <LongitudeDegrees>-2.938217483460903167724609375</LongitudeDegrees>
            </Position>
            <DistanceMeters>816.3695066724</DistanceMeters>
          </Trackpoint>
          <Trackpoint>
            <Time>2022-09-24T13:27:31.000Z</Time>
            <Position>
              <LatitudeDegrees>43.269663713872432708740234375</LatitudeDegrees>
              <LongitudeDegrees>-2.9382052458822727203369140625</LongitudeDegrees>
            </Position>
            <DistanceMeters>817.36615526084</DistanceMeters>
          </Trackpoint>
          <Trackpoint>
            <Time>2022-09-24T13:27:32.000Z</Time>
            <Position>
              <LatitudeDegrees>43.2696645520627498626708984375</LatitudeDegrees>
              <LongitudeDegrees>-2.93819300830364227294921875</LongitudeDegrees>
            </Position>
            <DistanceMeters>818.36732382071</DistanceMeters>
          </Trackpoint>
          <Trackpoint>
            <Time>2022-09-24T13:27:33.000Z</Time>
            <Position>
              <LatitudeDegrees>43.26966530643403530120849609375</LatitudeDegrees>
              <LongitudeDegrees>-2.93818102218210697174072265625</LongitudeDegrees>
            </Position>
            <DistanceMeters>819.34105788431</DistanceMeters>
          </Trackpoint>
          <Trackpoint>
            <Time>2022-09-24T13:27:34.000Z</Time>
            <Position>
              <LatitudeDegrees>43.26966614462435245513916015625</LatitudeDegrees>
              <LongitudeDegrees>-2.93816878460347652435302734375</LongitudeDegrees>
            </Position>
            <DistanceMeters>820.33770647275</DistanceMeters>
          </Trackpoint>
          <Trackpoint>
            <Time>2022-09-24T13:27:35.000Z</Time>
            <Position>
              <LatitudeDegrees>43.2696668989956378936767578125</LatitudeDegrees>
              <LongitudeDegrees>-2.93815688230097293853759765625</LongitudeDegrees>
            </Position>
            <DistanceMeters>821.30679261452</DistanceMeters>
          </Trackpoint>
          <Trackpoint>
            <Time>2022-09-24T13:27:36.000Z</Time>
            <Position>
              <LatitudeDegrees>43.26966740190982818603515625</LatitudeDegrees>
              <LongitudeDegrees>-2.93814497999846935272216796875</LongitudeDegrees>
            </Position>
            <DistanceMeters>822.27587875629</DistanceMeters>
          </Trackpoint>
          <Trackpoint>
            <Time>2022-09-24T13:27:37.000Z</Time>
            <Position>
              <LatitudeDegrees>43.2696679048240184783935546875</LatitudeDegrees>
              <LongitudeDegrees>-2.9381333291530609130859375</LongitudeDegrees>
            </Position>
            <DistanceMeters>823.22614589999</DistanceMeters>
          </Trackpoint>
          <Trackpoint>
            <Time>2022-09-24T13:27:38.000Z</Time>
            <Position>
              <LatitudeDegrees>43.26966832391917705535888671875</LatitudeDegrees>
              <LongitudeDegrees>-2.9381214268505573272705078125</LongitudeDegrees>
            </Position>
            <DistanceMeters>824.19523204176</DistanceMeters>
          </Trackpoint>
          <Trackpoint>
            <Time>2022-09-24T13:27:39.000Z</Time>
            <Position>
              <LatitudeDegrees>43.26966874301433563232421875</LatitudeDegrees>
              <LongitudeDegrees>-2.9381093569099903106689453125</LongitudeDegrees>
            </Position>
            <DistanceMeters>825.17359194643</DistanceMeters>
          </Trackpoint>
          <Trackpoint>
            <Time>2022-09-24T13:27:40.000Z</Time>
            <Position>
              <LatitudeDegrees>43.2696692459285259246826171875</LatitudeDegrees>
              <LongitudeDegrees>-2.93809720315039157867431640625</LongitudeDegrees>
            </Position>
            <DistanceMeters>826.16113853062</DistanceMeters>
          </Trackpoint>
          <Trackpoint>
            <Time>2022-09-24T13:27:41.000Z</Time>
            <Position>
              <LatitudeDegrees>43.269669748842716217041015625</LatitudeDegrees>
              <LongitudeDegrees>-2.93808513320982456207275390625</LongitudeDegrees>
            </Position>
            <DistanceMeters>827.14410250733</DistanceMeters>
          </Trackpoint>
          <Trackpoint>
            <Time>2022-09-24T13:27:42.000Z</Time>
            <Position>
              <LatitudeDegrees>43.26966983266174793243408203125</LatitudeDegrees>
              <LongitudeDegrees>-2.93807339854538440704345703125</LongitudeDegrees>
            </Position>
            <DistanceMeters>828.09910916743</DistanceMeters>
          </Trackpoint>
          <Trackpoint>
            <Time>2022-09-24T13:27:43.000Z</Time>
            <Position>
              <LatitudeDegrees>43.2696699164807796478271484375</LatitudeDegrees>
              <LongitudeDegrees>-2.93806183151900768280029296875</LongitudeDegrees>
            </Position>
            <DistanceMeters>829.03982564518</DistanceMeters>
          </Trackpoint>
          <Trackpoint>
            <Time>2022-09-24T13:27:44.000Z</Time>
            <Position>
              <LatitudeDegrees>43.2696699164807796478271484375</LatitudeDegrees>
              <LongitudeDegrees>-2.93805085122585296630859375</LongitudeDegrees>
            </Position>
            <DistanceMeters>829.92617583027</DistanceMeters>
          </Trackpoint>
          <Trackpoint>
            <Time>2022-09-24T13:27:45.000Z</Time>
            <Position>
              <LatitudeDegrees>43.2696699164807796478271484375</LatitudeDegrees>
              <LongitudeDegrees>-2.9380394518375396728515625</LongitudeDegrees>
            </Position>
            <DistanceMeters>830.84749400861</DistanceMeters>
          </Trackpoint>
          <Trackpoint>
            <Time>2022-09-24T13:27:46.000Z</Time>
            <Position>
              <LatitudeDegrees>43.26967000029981136322021484375</LatitudeDegrees>
              <LongitudeDegrees>-2.93802796863019466400146484375</LongitudeDegrees>
            </Position>
            <DistanceMeters>831.77856185717</DistanceMeters>
          </Trackpoint>
          <Trackpoint>
            <Time>2022-09-24T13:27:47.000Z</Time>
            <Position>
              <LatitudeDegrees>43.26967008411884307861328125</LatitudeDegrees>
              <LongitudeDegrees>-2.93801656924188137054443359375</LongitudeDegrees>
            </Position>
            <DistanceMeters>832.6998800355</DistanceMeters>
          </Trackpoint>
          <Trackpoint>
            <Time>2022-09-24T13:27:48.000Z</Time>
            <Position>
              <LatitudeDegrees>43.26967000029981136322021484375</LatitudeDegrees>
              <LongitudeDegrees>-2.9380047507584095001220703125</LongitudeDegrees>
            </Position>
            <DistanceMeters>833.65960280656</DistanceMeters>
          </Trackpoint>
          <Trackpoint>
            <Time>2022-09-24T13:27:49.000Z</Time>
            <Position>
              <LatitudeDegrees>43.2696699164807796478271484375</LatitudeDegrees>
              <LongitudeDegrees>-2.937992848455905914306640625</LongitudeDegrees>
            </Position>
            <DistanceMeters>834.62401862649</DistanceMeters>
          </Trackpoint>
          <Trackpoint>
            <Time>2022-09-24T13:27:50.000Z</Time>
            <Position>
              <LatitudeDegrees>43.26967000029981136322021484375</LatitudeDegrees>
              <LongitudeDegrees>-2.93798102997243404388427734375</LongitudeDegrees>
            </Position>
            <DistanceMeters>835.58374139754</DistanceMeters>
          </Trackpoint>
          <Trackpoint>
            <Time>2022-09-24T13:27:51.000Z</Time>
            <Position>
              <LatitudeDegrees>43.26967008411884307861328125</LatitudeDegrees>
              <LongitudeDegrees>-2.93796929530799388885498046875</LongitudeDegrees>
            </Position>
            <DistanceMeters>836.53400854124</DistanceMeters>
          </Trackpoint>
          <Trackpoint>
            <Time>2022-09-24T13:27:52.000Z</Time>
            <Position>
              <LatitudeDegrees>43.2696702517569065093994140625</LatitudeDegrees>
              <LongitudeDegrees>-2.93795772828161716461181640625</LongitudeDegrees>
            </Position>
            <DistanceMeters>837.47472501899</DistanceMeters>
          </Trackpoint>
          <Trackpoint>
            <Time>2022-09-24T13:27:53.000Z</Time>
            <Position>
              <LatitudeDegrees>43.26967050321400165557861328125</LatitudeDegrees>
              <LongitudeDegrees>-2.9379464127123355865478515625</LongitudeDegrees>
            </Position>
            <DistanceMeters>838.39604319733</DistanceMeters>
          </Trackpoint>
          <Trackpoint>
            <Time>2022-09-24T13:27:54.000Z</Time>
            <Position>
              <LatitudeDegrees>43.2696705870330333709716796875</LatitudeDegrees>
              <LongitudeDegrees>-2.9379353486001491546630859375</LongitudeDegrees>
            </Position>
            <DistanceMeters>839.29252342774</DistanceMeters>
          </Trackpoint>
          <Trackpoint>
            <Time>2022-09-24T13:27:55.000Z</Time>
            <Position>
              <LatitudeDegrees>43.26967083849012851715087890625</LatitudeDegrees>
              <LongitudeDegrees>-2.9379246197640895843505859375</LongitudeDegrees>
            </Position>
            <DistanceMeters>840.16345765102</DistanceMeters>
          </Trackpoint>
          <Trackpoint>
            <Time>2022-09-24T13:27:56.000Z</Time>
            <Position>
              <LatitudeDegrees>43.2696709223091602325439453125</LatitudeDegrees>
              <LongitudeDegrees>-2.93791414238512516021728515625</LongitudeDegrees>
            </Position>
            <DistanceMeters>841.01340242306</DistanceMeters>
          </Trackpoint>
          <Trackpoint>
            <Time>2022-09-24T13:27:57.000Z</Time>
            <Position>
              <LatitudeDegrees>43.26967100612819194793701171875</LatitudeDegrees>
              <LongitudeDegrees>-2.93790374882519245147705078125</LongitudeDegrees>
            </Position>
            <DistanceMeters>841.85265564029</DistanceMeters>
          </Trackpoint>
          <Trackpoint>
            <Time>2022-09-24T13:27:58.000Z</Time>
            <Position>
              <LatitudeDegrees>43.26967100612819194793701171875</LatitudeDegrees>
              <LongitudeDegrees>-2.93789369054138660430908203125</LongitudeDegrees>
            </Position>
            <DistanceMeters>842.67010634636</DistanceMeters>
          </Trackpoint>
          <Trackpoint>
            <Time>2022-09-24T13:27:59.000Z</Time>
            <Position>
              <LatitudeDegrees>43.2696709223091602325439453125</LatitudeDegrees>
              <LongitudeDegrees>-2.9378837160766124725341796875</LongitudeDegrees>
            </Position>
            <DistanceMeters>843.47643475586</DistanceMeters>
          </Trackpoint>
          <Trackpoint>
            <Time>2022-09-24T13:28:00.000Z</Time>
            <Position>
              <LatitudeDegrees>43.2696709223091602325439453125</LatitudeDegrees>
              <LongitudeDegrees>-2.9378736577928066253662109375</LongitudeDegrees>
            </Position>
            <DistanceMeters>844.28834335934</DistanceMeters>
          </Trackpoint>
          <Trackpoint>
            <Time>2022-09-24T13:28:01.000Z</Time>
            <Position>
              <LatitudeDegrees>43.26967100612819194793701171875</LatitudeDegrees>
              <LongitudeDegrees>-2.9378635995090007781982421875</LongitudeDegrees>
            </Position>
            <DistanceMeters>845.10579406541</DistanceMeters>
          </Trackpoint>
          <Trackpoint>
            <Time>2022-09-24T13:28:02.000Z</Time>
            <Position>
              <LatitudeDegrees>43.26967117376625537872314453125</LatitudeDegrees>
              <LongitudeDegrees>-2.9378538765013217926025390625</LongitudeDegrees>
            </Position>
            <DistanceMeters>845.89514523861</DistanceMeters>
          </Trackpoint>
          <Trackpoint>
            <Time>2022-09-24T13:28:03.000Z</Time>
            <Position>
              <LatitudeDegrees>43.26967150904238224029541015625</LatitudeDegrees>
              <LongitudeDegrees>-2.93784423731267452239990234375</LongitudeDegrees>
            </Position>
            <DistanceMeters>846.67875559982</DistanceMeters>
          </Trackpoint>
          <Trackpoint>
            <Time>2022-09-24T13:28:04.000Z</Time>
            <Position>
              <LatitudeDegrees>43.26967217959463596343994140625</LatitudeDegrees>
              <LongitudeDegrees>-2.9378361068665981292724609375</LongitudeDegrees>
            </Position>
            <DistanceMeters>847.33711998928</DistanceMeters>
          </Trackpoint>
          <Trackpoint>
            <Time>2022-09-24T13:28:05.000Z</Time>
            <Position>
              <LatitudeDegrees>43.26967301778495311737060546875</LatitudeDegrees>
              <LongitudeDegrees>-2.93782822787761688232421875</LongitudeDegrees>
            </Position>
            <DistanceMeters>847.98162252335</DistanceMeters>
          </Trackpoint>
          <Trackpoint>
            <Time>2022-09-24T13:28:06.000Z</Time>
            <Position>
              <LatitudeDegrees>43.26967410743236541748046875</LatitudeDegrees>
              <LongitudeDegrees>-2.9378206841647624969482421875</LongitudeDegrees>
            </Position>
            <DistanceMeters>848.60475436099</DistanceMeters>
          </Trackpoint>
          <Trackpoint>
            <Time>2022-09-24T13:28:07.000Z</Time>
            <Position>
              <LatitudeDegrees>43.26967544853687286376953125</LatitudeDegrees>
              <LongitudeDegrees>-2.9378133080899715423583984375</LongitudeDegrees>
            </Position>
            <DistanceMeters>849.22059785625</DistanceMeters>
          </Trackpoint>
          <Trackpoint>
            <Time>2022-09-24T13:28:08.000Z</Time>
            <Position>
              <LatitudeDegrees>43.26967704109847545623779296875</LatitudeDegrees>
              <LongitudeDegrees>-2.93780601583421230316162109375</LongitudeDegrees>
            </Position>
            <DistanceMeters>849.8364413515</DistanceMeters>
          </Trackpoint>
          <Trackpoint>
            <Time>2022-09-24T13:28:09.000Z</Time>
            <Position>
              <LatitudeDegrees>43.26967888511717319488525390625</LatitudeDegrees>
              <LongitudeDegrees>-2.937799058854579925537109375</LongitudeDegrees>
            </Position>
            <DistanceMeters>850.42222536022</DistanceMeters>
          </Trackpoint>
          <Trackpoint>
            <Time>2022-09-24T13:28:10.000Z</Time>
            <Position>
              <LatitudeDegrees>43.269679136574268341064453125</LatitudeDegrees>
              <LongitudeDegrees>-2.93778975494205951690673828125</LongitudeDegrees>
            </Position>
            <DistanceMeters>851.17046645741</DistanceMeters>
          </Trackpoint>
          <Trackpoint>
            <Time>2022-09-24T13:28:11.000Z</Time>
            <Position>
              <LatitudeDegrees>43.2696796394884586334228515625</LatitudeDegrees>
              <LongitudeDegrees>-2.9377807863056659698486328125</LongitudeDegrees>
            </Position>
            <DistanceMeters>851.89416835305</DistanceMeters>
          </Trackpoint>
          <Trackpoint>
            <Time>2022-09-24T13:28:12.000Z</Time>
            <Position>
              <LatitudeDegrees>43.26968039385974407196044921875</LatitudeDegrees>
              <LongitudeDegrees>-2.9377717338502407073974609375</LongitudeDegrees>
            </Position>
            <DistanceMeters>852.63024211745</DistanceMeters>
          </Trackpoint>
          <Trackpoint>
            <Time>2022-09-24T13:28:13.000Z</Time>
            <Position>
              <LatitudeDegrees>43.26968139968812465667724609375</LatitudeDegrees>
              <LongitudeDegrees>-2.9377626813948154449462890625</LongitudeDegrees>
            </Position>
            <DistanceMeters>853.36631588185</DistanceMeters>
          </Trackpoint>
          <Trackpoint>
            <Time>2022-09-24T13:28:14.000Z</Time>
            <Position>
              <LatitudeDegrees>43.269682824611663818359375</LatitudeDegrees>
              <LongitudeDegrees>-2.93775354512035846710205078125</LongitudeDegrees>
            </Position>
            <DistanceMeters>854.12652959681</DistanceMeters>
          </Trackpoint>
          <Trackpoint>
            <Time>2022-09-24T13:28:15.000Z</Time>
            <Position>
              <LatitudeDegrees>43.26968441717326641082763671875</LatitudeDegrees>
              <LongitudeDegrees>-2.93774499557912349700927734375</LongitudeDegrees>
            </Position>
            <DistanceMeters>854.83764441233</DistanceMeters>
          </Trackpoint>
          <Trackpoint>
            <Time>2022-09-24T13:28:16.000Z</Time>
            <Position>
              <LatitudeDegrees>43.2696863450109958648681640625</LatitudeDegrees>
              <LongitudeDegrees>-2.93773703277111053466796875</LongitudeDegrees>
            </Position>
            <DistanceMeters>855.51627089181</DistanceMeters>
          </Trackpoint>
          <Trackpoint>
            <Time>2022-09-24T13:28:17.000Z</Time>
            <Position>
              <LatitudeDegrees>43.26968885958194732666015625</LatitudeDegrees>
              <LongitudeDegrees>-2.937728650867938995361328125</LongitudeDegrees>
            </Position>
            <DistanceMeters>856.2523446562</DistanceMeters>
          </Trackpoint>
          <Trackpoint>
            <Time>2022-09-24T13:28:18.000Z</Time>
            <Position>
              <LatitudeDegrees>43.26969129033386707305908203125</LatitudeDegrees>
              <LongitudeDegrees>-2.93772219680249691009521484375</LongitudeDegrees>
            </Position>
            <DistanceMeters>856.83812866492</DistanceMeters>
          </Trackpoint>
          <Trackpoint>
            <Time>2022-09-24T13:28:19.000Z</Time>
            <Position>
              <LatitudeDegrees>43.26969397254288196563720703125</LatitudeDegrees>
              <LongitudeDegrees>-2.93771700002253055572509765625</LongitudeDegrees>
            </Position>
            <DistanceMeters>857.35861141518</DistanceMeters>
          </Trackpoint>
          <Trackpoint>
            <Time>2022-09-24T13:28:20.000Z</Time>
            <Position>
              <LatitudeDegrees>43.2696997560560703277587890625</LatitudeDegrees>
              <LongitudeDegrees>-2.9377164132893085479736328125</LongitudeDegrees>
            </Position>
            <DistanceMeters>858.00311394925</DistanceMeters>
          </Trackpoint>
          <Trackpoint>
            <Time>2022-09-24T13:28:21.000Z</Time>
            <Position>
              <LatitudeDegrees>43.26970553956925868988037109375</LatitudeDegrees>
              <LongitudeDegrees>-2.9377157427370548248291015625</LongitudeDegrees>
            </Position>
            <DistanceMeters>858.66147833871</DistanceMeters>
          </Trackpoint>
          <Trackpoint>
            <Time>2022-09-24T13:28:22.000Z</Time>
            <Position>
              <LatitudeDegrees>43.26971140690147876739501953125</LatitudeDegrees>
              <LongitudeDegrees>-2.9377150721848011016845703125</LongitudeDegrees>
            </Position>
            <DistanceMeters>859.31984272817</DistanceMeters>
          </Trackpoint>
          <Trackpoint>
            <Time>2022-09-24T13:28:23.000Z</Time>
            <Position>
              <LatitudeDegrees>43.26971727423369884490966796875</LatitudeDegrees>
              <LongitudeDegrees>-2.93771482072770595550537109375</LongitudeDegrees>
            </Position>
            <DistanceMeters>859.96434526224</DistanceMeters>
          </Trackpoint>
          <Trackpoint>
            <Time>2022-09-24T13:28:24.000Z</Time>
            <Position>
              <LatitudeDegrees>43.26972347684204578399658203125</LatitudeDegrees>
              <LongitudeDegrees>-2.93771465308964252471923828125</LongitudeDegrees>
            </Position>
            <DistanceMeters>860.66264614866</DistanceMeters>
          </Trackpoint>
          <Trackpoint>
            <Time>2022-09-24T13:28:25.000Z</Time>
            <Position>
              <LatitudeDegrees>43.26972967945039272308349609375</LatitudeDegrees>
              <LongitudeDegrees>-2.93771431781351566314697265625</LongitudeDegrees>
            </Position>
            <DistanceMeters>861.34789353106</DistanceMeters>
          </Trackpoint>
          <Trackpoint>
            <Time>2022-09-24T13:28:26.000Z</Time>
            <Position>
              <LatitudeDegrees>43.26973655261099338531494140625</LatitudeDegrees>
              <LongitudeDegrees>-2.9377137310802936553955078125</LongitudeDegrees>
            </Position>
            <DistanceMeters>862.10810724602</DistanceMeters>
          </Trackpoint>
          <Trackpoint>
            <Time>2022-09-24T13:28:27.000Z</Time>
            <Position>
              <LatitudeDegrees>43.26974384486675262451171875</LatitudeDegrees>
              <LongitudeDegrees>-2.9377137310802936553955078125</LongitudeDegrees>
            </Position>
            <DistanceMeters>862.91443565552</DistanceMeters>
          </Trackpoint>
          <Trackpoint>
            <Time>2022-09-24T13:28:28.000Z</Time>
            <Position>
              <LatitudeDegrees>43.26975113712251186370849609375</LatitudeDegrees>
              <LongitudeDegrees>-2.93771423399448394775390625</LongitudeDegrees>
            </Position>
            <DistanceMeters>863.72076406502</DistanceMeters>
          </Trackpoint>
          <Trackpoint>
            <Time>2022-09-24T13:28:29.000Z</Time>
            <Position>
              <LatitudeDegrees>43.26975859701633453369140625</LatitudeDegrees>
              <LongitudeDegrees>-2.93771465308964252471923828125</LongitudeDegrees>
            </Position>
            <DistanceMeters>864.54918775477</DistanceMeters>
          </Trackpoint>
          <Trackpoint>
            <Time>2022-09-24T13:28:30.000Z</Time>
            <Position>
              <LatitudeDegrees>43.26976471580564975738525390625</LatitudeDegrees>
              <LongitudeDegrees>-2.93771381489932537078857421875</LongitudeDegrees>
            </Position>
            <DistanceMeters>865.2409926778</DistanceMeters>
          </Trackpoint>
          <Trackpoint>
            <Time>2022-09-24T13:28:31.000Z</Time>
            <Position>
              <LatitudeDegrees>43.26977108605206012725830078125</LatitudeDegrees>
              <LongitudeDegrees>-2.93771347962319850921630859375</LongitudeDegrees>
            </Position>
            <DistanceMeters>865.94572965315</DistanceMeters>
          </Trackpoint>
          <Trackpoint>
            <Time>2022-09-24T13:28:32.000Z</Time>
            <Position>
              <LatitudeDegrees>43.26977762393653392791748046875</LatitudeDegrees>
              <LongitudeDegrees>-2.93771314434707164764404296875</LongitudeDegrees>
            </Position>
            <DistanceMeters>866.66943154878</DistanceMeters>
          </Trackpoint>
          <Trackpoint>
            <Time>2022-09-24T13:28:33.000Z</Time>
            <Position>
              <LatitudeDegrees>43.26978407800197601318359375</LatitudeDegrees>
              <LongitudeDegrees>-2.93771314434707164764404296875</LongitudeDegrees>
            </Position>
            <DistanceMeters>867.38054636431</DistanceMeters>
          </Trackpoint>
          <Trackpoint>
            <Time>2022-09-24T13:28:34.000Z</Time>
            <Position>
              <LatitudeDegrees>43.26979069970548152923583984375</LatitudeDegrees>
              <LongitudeDegrees>-2.93771314434707164764404296875</LongitudeDegrees>
            </Position>
            <DistanceMeters>868.11662012871</DistanceMeters>
          </Trackpoint>
          <Trackpoint>
            <Time>2022-09-24T13:28:35.000Z</Time>
            <Position>
              <LatitudeDegrees>43.26979748904705047607421875</LatitudeDegrees>
              <LongitudeDegrees>-2.937713563442230224609375</LongitudeDegrees>
            </Position>
            <DistanceMeters>868.87683384367</DistanceMeters>
          </Trackpoint>
          <Trackpoint>
            <Time>2022-09-24T13:28:36.000Z</Time>
            <Position>
              <LatitudeDegrees>43.26980427838861942291259765625</LatitudeDegrees>
              <LongitudeDegrees>-2.9377137310802936553955078125</LongitudeDegrees>
            </Position>
            <DistanceMeters>869.63704755863</DistanceMeters>
          </Trackpoint>
          <Trackpoint>
            <Time>2022-09-24T13:28:37.000Z</Time>
            <Position>
              <LatitudeDegrees>43.269811235368251800537109375</LatitudeDegrees>
              <LongitudeDegrees>-2.93771423399448394775390625</LongitudeDegrees>
            </Position>
            <DistanceMeters>870.4148747385</DistanceMeters>
          </Trackpoint>
          <Trackpoint>
            <Time>2022-09-24T13:28:38.000Z</Time>
            <Position>
              <LatitudeDegrees>43.2698182761669158935546875</LatitudeDegrees>
              <LongitudeDegrees>-2.9377147369086742401123046875</LongitudeDegrees>
            </Position>
            <DistanceMeters>871.19270191837</DistanceMeters>
          </Trackpoint>
          <Trackpoint>
            <Time>2022-09-24T13:28:39.000Z</Time>
            <Position>
              <LatitudeDegrees>43.2698254846036434173583984375</LatitudeDegrees>
              <LongitudeDegrees>-2.93771582655608654022216796875</LongitudeDegrees>
            </Position>
            <DistanceMeters>871.99903032787</DistanceMeters>
          </Trackpoint>
          <Trackpoint>
            <Time>2022-09-24T13:28:40.000Z</Time>
            <Position>
              <LatitudeDegrees>43.269832693040370941162109375</LatitudeDegrees>
              <LongitudeDegrees>-2.93771700002253055572509765625</LongitudeDegrees>
            </Position>
            <DistanceMeters>872.80535873737</DistanceMeters>
          </Trackpoint>
          <Trackpoint>
            <Time>2022-09-24T13:28:41.000Z</Time>
            <Position>
              <LatitudeDegrees>43.26983998529613018035888671875</LatitudeDegrees>
              <LongitudeDegrees>-2.937718927860260009765625</LongitudeDegrees>
            </Position>
            <DistanceMeters>873.63378242712</DistanceMeters>
          </Trackpoint>
          <Trackpoint>
            <Time>2022-09-24T13:28:42.000Z</Time>
            <Position>
              <LatitudeDegrees>43.26984719373285770416259765625</LatitudeDegrees>
              <LongitudeDegrees>-2.93772093951702117919921875</LongitudeDegrees>
            </Position>
            <DistanceMeters>874.45123313319</DistanceMeters>
          </Trackpoint>
          <Trackpoint>
            <Time>2022-09-24T13:28:43.000Z</Time>
            <Position>
              <LatitudeDegrees>43.2698543183505535125732421875</LatitudeDegrees>
              <LongitudeDegrees>-2.937723286449909210205078125</LongitudeDegrees>
            </Position>
            <DistanceMeters>875.26868383926</DistanceMeters>
          </Trackpoint>
          <Trackpoint>
            <Time>2022-09-24T13:28:44.000Z</Time>
            <Position>
              <LatitudeDegrees>43.26986144296824932098388671875</LatitudeDegrees>
              <LongitudeDegrees>-2.9377256333827972412109375</LongitudeDegrees>
            </Position>
            <DistanceMeters>876.08059244274</DistanceMeters>
          </Trackpoint>
          <Trackpoint>
            <Time>2022-09-24T13:28:45.000Z</Time>
            <Position>
              <LatitudeDegrees>43.26986856758594512939453125</LatitudeDegrees>
              <LongitudeDegrees>-2.93772739358246326446533203125</LongitudeDegrees>
            </Position>
            <DistanceMeters>876.88130177047</DistanceMeters>
          </Trackpoint>
          <Trackpoint>
            <Time>2022-09-24T13:28:46.000Z</Time>
            <Position>
              <LatitudeDegrees>43.26987569220364093780517578125</LatitudeDegrees>
              <LongitudeDegrees>-2.93772906996309757232666015625</LongitudeDegrees>
            </Position>
            <DistanceMeters>877.68763017997</DistanceMeters>
          </Trackpoint>
          <Trackpoint>
            <Time>2022-09-24T13:28:47.000Z</Time>
            <Position>
              <LatitudeDegrees>43.26988256536424160003662109375</LatitudeDegrees>
              <LongitudeDegrees>-2.9377311654388904571533203125</LongitudeDegrees>
            </Position>
            <DistanceMeters>878.46545735984</DistanceMeters>
          </Trackpoint>
          <Trackpoint>
            <Time>2022-09-24T13:28:48.000Z</Time>
            <Position>
              <LatitudeDegrees>43.26988943852484226226806640625</LatitudeDegrees>
              <LongitudeDegrees>-2.93773326091468334197998046875</LongitudeDegrees>
            </Position>
            <DistanceMeters>879.24328453971</DistanceMeters>
          </Trackpoint>
          <Trackpoint>
            <Time>2022-09-24T13:28:49.000Z</Time>
            <Position>
              <LatitudeDegrees>43.26989597640931606292724609375</LatitudeDegrees>
              <LongitudeDegrees>-2.93773569166660308837890625</LongitudeDegrees>
            </Position>
            <DistanceMeters>879.9915256369</DistanceMeters>
          </Trackpoint>
          <Trackpoint>
            <Time>2022-09-24T13:28:50.000Z</Time>
            <Position>
              <LatitudeDegrees>43.269902430474758148193359375</LatitudeDegrees>
              <LongitudeDegrees>-2.93773812241852283477783203125</LongitudeDegrees>
            </Position>
            <DistanceMeters>880.73370800201</DistanceMeters>
          </Trackpoint>
          <Trackpoint>
            <Time>2022-09-24T13:28:51.000Z</Time>
            <Position>
              <LatitudeDegrees>43.2699086330831050872802734375</LatitudeDegrees>
              <LongitudeDegrees>-2.9377408884465694427490234375</LongitudeDegrees>
            </Position>
            <DistanceMeters>881.45114396243</DistanceMeters>
          </Trackpoint>
          <Trackpoint>
            <Time>2022-09-24T13:28:52.000Z</Time>
            <Position>
              <LatitudeDegrees>43.26991475187242031097412109375</LatitudeDegrees>
              <LongitudeDegrees>-2.93774365447461605072021484375</LongitudeDegrees>
            </Position>
            <DistanceMeters>882.16225877796</DistanceMeters>
          </Trackpoint>
          <Trackpoint>
            <Time>2022-09-24T13:28:53.000Z</Time>
            <Position>
              <LatitudeDegrees>43.269920535385608673095703125</LatitudeDegrees>
              <LongitudeDegrees>-2.9377469234168529510498046875</LongitudeDegrees>
            </Position>
            <DistanceMeters>882.86055966438</DistanceMeters>
          </Trackpoint>
          <Trackpoint>
            <Time>2022-09-24T13:28:54.000Z</Time>
            <Position>
              <LatitudeDegrees>43.26992623507976531982421875</LatitudeDegrees>
              <LongitudeDegrees>-2.93775019235908985137939453125</LongitudeDegrees>
            </Position>
            <DistanceMeters>883.5588605508</DistanceMeters>
          </Trackpoint>
          <Trackpoint>
            <Time>2022-09-24T13:28:55.000Z</Time>
            <Position>
              <LatitudeDegrees>43.26993185095489025115966796875</LatitudeDegrees>
              <LongitudeDegrees>-2.93775421567261219024658203125</LongitudeDegrees>
            </Position>
            <DistanceMeters>884.26997536633</DistanceMeters>
          </Trackpoint>
          <Trackpoint>
            <Time>2022-09-24T13:28:56.000Z</Time>
            <Position>
              <LatitudeDegrees>43.26993738301098346710205078125</LatitudeDegrees>
              <LongitudeDegrees>-2.93775823898613452911376953125</LongitudeDegrees>
            </Position>
            <DistanceMeters>884.97471234167</DistanceMeters>
          </Trackpoint>
          <Trackpoint>
            <Time>2022-09-24T13:28:57.000Z</Time>
            <Position>
              <LatitudeDegrees>43.269942663609981536865234375</LatitudeDegrees>
              <LongitudeDegrees>-2.93776251375675201416015625</LongitudeDegrees>
            </Position>
            <DistanceMeters>885.65995972407</DistanceMeters>
          </Trackpoint>
          <Trackpoint>
            <Time>2022-09-24T13:28:58.000Z</Time>
            <Position>
              <LatitudeDegrees>43.26994794420897960662841796875</LatitudeDegrees>
              <LongitudeDegrees>-2.9377667047083377838134765625</LongitudeDegrees>
            </Position>
            <DistanceMeters>886.33190006532</DistanceMeters>
          </Trackpoint>
          <Trackpoint>
            <Time>2022-09-24T13:28:59.000Z</Time>
            <Position>
              <LatitudeDegrees>43.2699549011886119842529296875</LatitudeDegrees>
              <LongitudeDegrees>-2.937769554555416107177734375</LongitudeDegrees>
            </Position>
            <DistanceMeters>887.13822847482</DistanceMeters>
          </Trackpoint>
          <Trackpoint>
            <Time>2022-09-24T13:29:00.000Z</Time>
            <Position>
              <LatitudeDegrees>43.26996185816824436187744140625</LatitudeDegrees>
              <LongitudeDegrees>-2.93777282349765300750732421875</LongitudeDegrees>
            </Position>
            <DistanceMeters>887.96665216457</DistanceMeters>
          </Trackpoint>
          <Trackpoint>
            <Time>2022-09-24T13:29:01.000Z</Time>
            <Position>
              <LatitudeDegrees>43.26996822841465473175048828125</LatitudeDegrees>
              <LongitudeDegrees>-2.9377767629921436309814453125</LongitudeDegrees>
            </Position>
            <DistanceMeters>888.73865284158</DistanceMeters>
          </Trackpoint>
          <Trackpoint>
            <Time>2022-09-24T13:29:02.000Z</Time>
            <Position>
              <LatitudeDegrees>43.26997409574687480926513671875</LatitudeDegrees>
              <LongitudeDegrees>-2.93778053484857082366943359375</LongitudeDegrees>
            </Position>
            <DistanceMeters>889.46235473721</DistanceMeters>
          </Trackpoint>
          <Trackpoint>
            <Time>2022-09-24T13:29:03.000Z</Time>
            <Position>
              <LatitudeDegrees>43.26997979544103145599365234375</LatitudeDegrees>
              <LongitudeDegrees>-2.93778422288596630096435546875</LongitudeDegrees>
            </Position>
            <DistanceMeters>890.16065562363</DistanceMeters>
          </Trackpoint>
          <Trackpoint>
            <Time>2022-09-24T13:29:04.000Z</Time>
            <Position>
              <LatitudeDegrees>43.26998499222099781036376953125</LatitudeDegrees>
              <LongitudeDegrees>-2.9377884976565837860107421875</LongitudeDegrees>
            </Position>
            <DistanceMeters>890.83259596488</DistanceMeters>
          </Trackpoint>
          <Trackpoint>
            <Time>2022-09-24T13:29:05.000Z</Time>
            <Position>
              <LatitudeDegrees>43.26998985372483730316162109375</LatitudeDegrees>
              <LongitudeDegrees>-2.93779335916042327880859375</LongitudeDegrees>
            </Position>
            <DistanceMeters>891.49096035434</DistanceMeters>
          </Trackpoint>
          <Trackpoint>
            <Time>2022-09-24T13:29:06.000Z</Time>
            <Position>
              <LatitudeDegrees>43.26999463140964508056640625</LatitudeDegrees>
              <LongitudeDegrees>-2.93779914267361164093017578125</LongitudeDegrees>
            </Position>
            <DistanceMeters>892.19569732969</DistanceMeters>
          </Trackpoint>
          <Trackpoint>
            <Time>2022-09-24T13:29:07.000Z</Time>
            <Position>
              <LatitudeDegrees>43.26999907381832599639892578125</LatitudeDegrees>
              <LongitudeDegrees>-2.937805093824863433837890625</LongitudeDegrees>
            </Position>
            <DistanceMeters>892.88750225272</DistanceMeters>
          </Trackpoint>
          <Trackpoint>
            <Time>2022-09-24T13:29:08.000Z</Time>
            <Position>
              <LatitudeDegrees>43.27000267803668975830078125</LatitudeDegrees>
              <LongitudeDegrees>-2.9378112964332103729248046875</LongitudeDegrees>
            </Position>
            <DistanceMeters>893.53200478679</DistanceMeters>
          </Trackpoint>
          <Trackpoint>
            <Time>2022-09-24T13:29:09.000Z</Time>
            <Position>
              <LatitudeDegrees>43.2700038515031337738037109375</LatitudeDegrees>
              <LongitudeDegrees>-2.9378186725080013275146484375</LongitudeDegrees>
            </Position>
            <DistanceMeters>894.14784828204</DistanceMeters>
          </Trackpoint>
          <Trackpoint>
            <Time>2022-09-24T13:29:10.000Z</Time>
            <Position>
              <LatitudeDegrees>43.27000460587441921234130859375</LatitudeDegrees>
              <LongitudeDegrees>-2.9378253780305385589599609375</LongitudeDegrees>
            </Position>
            <DistanceMeters>894.70194448226</DistanceMeters>
          </Trackpoint>
          <Trackpoint>
            <Time>2022-09-24T13:29:11.000Z</Time>
            <Position>
              <LatitudeDegrees>43.2700051926076412200927734375</LatitudeDegrees>
              <LongitudeDegrees>-2.9378320835530757904052734375</LongitudeDegrees>
            </Position>
            <DistanceMeters>895.24783139605</DistanceMeters>
          </Trackpoint>
          <Trackpoint>
            <Time>2022-09-24T13:29:12.000Z</Time>
            <Position>
              <LatitudeDegrees>43.27000527642667293548583984375</LatitudeDegrees>
              <LongitudeDegrees>-2.93783803470432758331298828125</LongitudeDegrees>
            </Position>
            <DistanceMeters>895.73237446694</DistanceMeters>
          </Trackpoint>
          <Trackpoint>
            <Time>2022-09-24T13:29:13.000Z</Time>
            <Position>
              <LatitudeDegrees>43.270005695521831512451171875</LatitudeDegrees>
              <LongitudeDegrees>-2.93784373439848423004150390625</LongitudeDegrees>
            </Position>
            <DistanceMeters>896.19790839121</DistanceMeters>
          </Trackpoint>
          <Trackpoint>
            <Time>2022-09-24T13:29:14.000Z</Time>
            <Position>
              <LatitudeDegrees>43.27000628225505352020263671875</LatitudeDegrees>
              <LongitudeDegrees>-2.937849350273609161376953125</LongitudeDegrees>
            </Position>
            <DistanceMeters>896.66344231549</DistanceMeters>
          </Trackpoint>
          <Trackpoint>
            <Time>2022-09-24T13:29:15.000Z</Time>
            <Position>
              <LatitudeDegrees>43.27000745572149753570556640625</LatitudeDegrees>
              <LongitudeDegrees>-2.93785504996776580810546875</LongitudeDegrees>
            </Position>
            <DistanceMeters>897.14798538638</DistanceMeters>
          </Trackpoint>
          <Trackpoint>
            <Time>2022-09-24T13:29:16.000Z</Time>
            <Position>
              <LatitudeDegrees>43.2700087130069732666015625</LatitudeDegrees>
              <LongitudeDegrees>-2.9378609172999858856201171875</LongitudeDegrees>
            </Position>
            <DistanceMeters>897.65081949464</DistanceMeters>
          </Trackpoint>
          <Trackpoint>
            <Time>2022-09-24T13:29:17.000Z</Time>
            <Position>
              <LatitudeDegrees>43.27000980265438556671142578125</LatitudeDegrees>
              <LongitudeDegrees>-2.93786653317511081695556640625</LongitudeDegrees>
            </Position>
            <DistanceMeters>898.11635341892</DistanceMeters>
          </Trackpoint>
          <Trackpoint>
            <Time>2022-09-24T13:29:18.000Z</Time>
            <Position>
              <LatitudeDegrees>43.27001064084470272064208984375</LatitudeDegrees>
              <LongitudeDegrees>-2.93787223286926746368408203125</LongitudeDegrees>
            </Position>
            <DistanceMeters>898.5818873432</DistanceMeters>
          </Trackpoint>
          <Trackpoint>
            <Time>2022-09-24T13:29:19.000Z</Time>
            <Position>
              <LatitudeDegrees>43.27001181431114673614501953125</LatitudeDegrees>
              <LongitudeDegrees>-2.9378783516585826873779296875</LongitudeDegrees>
            </Position>
            <DistanceMeters>899.08472145146</DistanceMeters>
          </Trackpoint>
          <Trackpoint>
            <Time>2022-09-24T13:29:20.000Z</Time>
            <Position>
              <LatitudeDegrees>43.27001265250146389007568359375</LatitudeDegrees>
              <LongitudeDegrees>-2.93788430280983448028564453125</LongitudeDegrees>
            </Position>
            <DistanceMeters>899.57849474356</DistanceMeters>
          </Trackpoint>
          <Trackpoint>
            <Time>2022-09-24T13:29:21.000Z</Time>
            <Position>
              <LatitudeDegrees>43.2700132392346858978271484375</LatitudeDegrees>
              <LongitudeDegrees>-2.9378904215991497039794921875</LongitudeDegrees>
            </Position>
            <DistanceMeters>900.08132885182</DistanceMeters>
          </Trackpoint>
          <Trackpoint>
            <Time>2022-09-24T13:29:22.000Z</Time>
            <Position>
              <LatitudeDegrees>43.270013742148876190185546875</LatitudeDegrees>
              <LongitudeDegrees>-2.93789637275040149688720703125</LongitudeDegrees>
            </Position>
            <DistanceMeters>900.5658719227</DistanceMeters>
          </Trackpoint>
          <Trackpoint>
            <Time>2022-09-24T13:29:23.000Z</Time>
            <Position>
              <LatitudeDegrees>43.27001416124403476715087890625</LatitudeDegrees>
              <LongitudeDegrees>-2.93790257535874843597412109375</LongitudeDegrees>
            </Position>
            <DistanceMeters>901.0596452148</DistanceMeters>
          </Trackpoint>
          <Trackpoint>
            <Time>2022-09-24T13:29:24.000Z</Time>
            <Position>
              <LatitudeDegrees>43.27001466415822505950927734375</LatitudeDegrees>
              <LongitudeDegrees>-2.9379085265100002288818359375</LongitudeDegrees>
            </Position>
            <DistanceMeters>901.54418828568</DistanceMeters>
          </Trackpoint>
          <Trackpoint>
            <Time>2022-09-24T13:29:25.000Z</Time>
            <Position>
              <LatitudeDegrees>43.27001499943435192108154296875</LatitudeDegrees>
              <LongitudeDegrees>-2.93791464529931545257568359375</LongitudeDegrees>
            </Position>
            <DistanceMeters>902.03796157778</DistanceMeters>
          </Trackpoint>
          <Trackpoint>
            <Time>2022-09-24T13:29:26.000Z</Time>
            <Position>
              <LatitudeDegrees>43.27001516707241535186767578125</LatitudeDegrees>
              <LongitudeDegrees>-2.9379205964505672454833984375</LongitudeDegrees>
            </Position>
            <DistanceMeters>902.52250464866</DistanceMeters>
          </Trackpoint>
          <Trackpoint>
            <Time>2022-09-24T13:29:27.000Z</Time>
            <Position>
              <LatitudeDegrees>43.27001516707241535186767578125</LatitudeDegrees>
              <LongitudeDegrees>-2.9379267990589141845703125</LongitudeDegrees>
            </Position>
            <DistanceMeters>903.02533875692</DistanceMeters>
          </Trackpoint>
          <Trackpoint>
            <Time>2022-09-24T13:29:28.000Z</Time>
            <Position>
              <LatitudeDegrees>43.2700152508914470672607421875</LatitudeDegrees>
              <LongitudeDegrees>-2.93793283402919769287109375</LongitudeDegrees>
            </Position>
            <DistanceMeters>903.52817286519</DistanceMeters>
          </Trackpoint>
          <Trackpoint>
            <Time>2022-09-24T13:29:29.000Z</Time>
            <Position>
              <LatitudeDegrees>43.27001516707241535186767578125</LatitudeDegrees>
              <LongitudeDegrees>-2.937939204275608062744140625</LongitudeDegrees>
            </Position>
            <DistanceMeters>904.04865561545</DistanceMeters>
          </Trackpoint>
          <Trackpoint>
            <Time>2022-09-24T13:29:30.000Z</Time>
            <Position>
              <LatitudeDegrees>43.27001516707241535186767578125</LatitudeDegrees>
              <LongitudeDegrees>-2.93794549070298671722412109375</LongitudeDegrees>
            </Position>
            <DistanceMeters>904.55148972371</DistanceMeters>
          </Trackpoint>
          <Trackpoint>
            <Time>2022-09-24T13:29:31.000Z</Time>
            <Position>
              <LatitudeDegrees>43.27001516707241535186767578125</LatitudeDegrees>
              <LongitudeDegrees>-2.9379521124064922332763671875</LongitudeDegrees>
            </Position>
            <DistanceMeters>905.08904199671</DistanceMeters>
          </Trackpoint>
          <Trackpoint>
            <Time>2022-09-24T13:29:32.000Z</Time>
            <Position>
              <LatitudeDegrees>43.270015083253383636474609375</LatitudeDegrees>
              <LongitudeDegrees>-2.937958650290966033935546875</LongitudeDegrees>
            </Position>
            <DistanceMeters>905.60952474697</DistanceMeters>
          </Trackpoint>
          <Trackpoint>
            <Time>2022-09-24T13:29:33.000Z</Time>
            <Position>
              <LatitudeDegrees>43.270015083253383636474609375</LatitudeDegrees>
              <LongitudeDegrees>-2.93796543963253498077392578125</LongitudeDegrees>
            </Position>
            <DistanceMeters>906.14707701997</DistanceMeters>
          </Trackpoint>
          <Trackpoint>
            <Time>2022-09-24T13:29:34.000Z</Time>
            <Position>
              <LatitudeDegrees>43.27001516707241535186767578125</LatitudeDegrees>
              <LongitudeDegrees>-2.93797197751700878143310546875</LongitudeDegrees>
            </Position>
            <DistanceMeters>906.66755977023</DistanceMeters>
          </Trackpoint>
          <Trackpoint>
            <Time>2022-09-24T13:29:35.000Z</Time>
            <Position>
              <LatitudeDegrees>43.2700152508914470672607421875</LatitudeDegrees>
              <LongitudeDegrees>-2.9379785992205142974853515625</LongitudeDegrees>
            </Position>
            <DistanceMeters>907.20511204322</DistanceMeters>
          </Trackpoint>
          <Trackpoint>
            <Time>2022-09-24T13:29:36.000Z</Time>
            <Position>
              <LatitudeDegrees>43.2700152508914470672607421875</LatitudeDegrees>
              <LongitudeDegrees>-2.9379846341907978057861328125</LongitudeDegrees>
            </Position>
            <DistanceMeters>907.70794615149</DistanceMeters>
          </Trackpoint>
          <Trackpoint>
            <Time>2022-09-24T13:29:37.000Z</Time>
            <Position>
              <LatitudeDegrees>43.270015083253383636474609375</LatitudeDegrees>
              <LongitudeDegrees>-2.93799075298011302947998046875</LongitudeDegrees>
            </Position>
            <DistanceMeters>908.20171944358</DistanceMeters>
          </Trackpoint>
          <Trackpoint>
            <Time>2022-09-24T13:29:38.000Z</Time>
            <Position>
              <LatitudeDegrees>43.27001483179628849029541015625</LatitudeDegrees>
              <LongitudeDegrees>-2.9379967041313648223876953125</LongitudeDegrees>
            </Position>
            <DistanceMeters>908.68626251447</DistanceMeters>
          </Trackpoint>
          <Trackpoint>
            <Time>2022-09-24T13:29:39.000Z</Time>
            <Position>
              <LatitudeDegrees>43.2700140774250030517578125</LatitudeDegrees>
              <LongitudeDegrees>-2.9380027391016483306884765625</LongitudeDegrees>
            </Position>
            <DistanceMeters>909.18909662273</DistanceMeters>
          </Trackpoint>
          <Trackpoint>
            <Time>2022-09-24T13:29:40.000Z</Time>
            <Position>
              <LatitudeDegrees>43.27001332305371761322021484375</LatitudeDegrees>
              <LongitudeDegrees>-2.938008606433868408203125</LongitudeDegrees>
            </Position>
            <DistanceMeters>909.67363969361</DistanceMeters>
          </Trackpoint>
          <Trackpoint>
            <Time>2022-09-24T13:29:41.000Z</Time>
            <Position>
              <LatitudeDegrees>43.27001248486340045928955078125</LatitudeDegrees>
              <LongitudeDegrees>-2.93801472522318363189697265625</LongitudeDegrees>
            </Position>
            <DistanceMeters>910.17647380187</DistanceMeters>
          </Trackpoint>
          <Trackpoint>
            <Time>2022-09-24T13:29:42.000Z</Time>
            <Position>
              <LatitudeDegrees>43.27001164667308330535888671875</LatitudeDegrees>
              <LongitudeDegrees>-2.9380206763744354248046875</LongitudeDegrees>
            </Position>
            <DistanceMeters>910.66101687276</DistanceMeters>
          </Trackpoint>
          <Trackpoint>
            <Time>2022-09-24T13:29:43.000Z</Time>
            <Position>
              <LatitudeDegrees>43.2700108923017978668212890625</LatitudeDegrees>
              <LongitudeDegrees>-2.9380268789827823638916015625</LongitudeDegrees>
            </Position>
            <DistanceMeters>911.16385098102</DistanceMeters>
          </Trackpoint>
          <Trackpoint>
            <Time>2022-09-24T13:29:44.000Z</Time>
            <Position>
              <LatitudeDegrees>43.27001013793051242828369140625</LatitudeDegrees>
              <LongitudeDegrees>-2.93803274631500244140625</LongitudeDegrees>
            </Position>
            <DistanceMeters>911.64839405191</DistanceMeters>
          </Trackpoint>
          <Trackpoint>
            <Time>2022-09-24T13:29:45.000Z</Time>
            <Position>
              <LatitudeDegrees>43.27000938355922698974609375</LatitudeDegrees>
              <LongitudeDegrees>-2.9380386136472225189208984375</LongitudeDegrees>
            </Position>
            <DistanceMeters>912.13293712279</DistanceMeters>
          </Trackpoint>
          <Trackpoint>
            <Time>2022-09-24T13:29:46.000Z</Time>
            <Position>
              <LatitudeDegrees>43.2700088806450366973876953125</LatitudeDegrees>
              <LongitudeDegrees>-2.938044480979442596435546875</LongitudeDegrees>
            </Position>
            <DistanceMeters>912.61748019368</DistanceMeters>
          </Trackpoint>
          <Trackpoint>
            <Time>2022-09-24T13:29:47.000Z</Time>
            <Position>
              <LatitudeDegrees>43.27000812627375125885009765625</LatitudeDegrees>
              <LongitudeDegrees>-2.9380501806735992431640625</LongitudeDegrees>
            </Position>
            <DistanceMeters>913.09261376553</DistanceMeters>
          </Trackpoint>
          <Trackpoint>
            <Time>2022-09-24T13:29:48.000Z</Time>
            <Position>
              <LatitudeDegrees>43.27000745572149753570556640625</LatitudeDegrees>
              <LongitudeDegrees>-2.93805579654872417449951171875</LongitudeDegrees>
            </Position>
            <DistanceMeters>913.55814768981</DistanceMeters>
          </Trackpoint>
          <Trackpoint>
            <Time>2022-09-24T13:29:49.000Z</Time>
            <Position>
              <LatitudeDegrees>43.27000670135021209716796875</LatitudeDegrees>
              <LongitudeDegrees>-2.93806158006191253662109375</LongitudeDegrees>
            </Position>
            <DistanceMeters>914.03328126166</DistanceMeters>
          </Trackpoint>
          <Trackpoint>
            <Time>2022-09-24T13:29:50.000Z</Time>
            <Position>
              <LatitudeDegrees>43.2700058631598949432373046875</LatitudeDegrees>
              <LongitudeDegrees>-2.938067279756069183349609375</LongitudeDegrees>
            </Position>
            <DistanceMeters>914.49881518593</DistanceMeters>
          </Trackpoint>
          <Trackpoint>
            <Time>2022-09-24T13:29:51.000Z</Time>
            <Position>
              <LatitudeDegrees>43.27000494115054607391357421875</LatitudeDegrees>
              <LongitudeDegrees>-2.938073314726352691650390625</LongitudeDegrees>
            </Position>
            <DistanceMeters>914.99258847803</DistanceMeters>
          </Trackpoint>
          <Trackpoint>
            <Time>2022-09-24T13:29:52.000Z</Time>
            <Position>
              <LatitudeDegrees>43.270003683865070343017578125</LatitudeDegrees>
              <LongitudeDegrees>-2.9380791820585727691650390625</LongitudeDegrees>
            </Position>
            <DistanceMeters>915.48636177013</DistanceMeters>
          </Trackpoint>
          <Trackpoint>
            <Time>2022-09-24T13:29:53.000Z</Time>
            <Position>
              <LatitudeDegrees>43.2700021751224994659423828125</LatitudeDegrees>
              <LongitudeDegrees>-2.93808513320982456207275390625</LongitudeDegrees>
            </Position>
            <DistanceMeters>916.00684452039</DistanceMeters>
          </Trackpoint>
          <Trackpoint>
            <Time>2022-09-24T13:29:54.000Z</Time>
            <Position>
              <LatitudeDegrees>43.27000058256089687347412109375</LatitudeDegrees>
              <LongitudeDegrees>-2.93809083290398120880126953125</LongitudeDegrees>
            </Position>
            <DistanceMeters>916.50967862865</DistanceMeters>
          </Trackpoint>
          <Trackpoint>
            <Time>2022-09-24T13:29:55.000Z</Time>
            <Position>
              <LatitudeDegrees>43.269998989999294281005859375</LatitudeDegrees>
              <LongitudeDegrees>-2.9380966164171695709228515625</LongitudeDegrees>
            </Position>
            <DistanceMeters>917.01251273691</DistanceMeters>
          </Trackpoint>
          <Trackpoint>
            <Time>2022-09-24T13:29:56.000Z</Time>
            <Position>
              <LatitudeDegrees>43.26999731361865997314453125</LatitudeDegrees>
              <LongitudeDegrees>-2.9381023161113262176513671875</LongitudeDegrees>
            </Position>
            <DistanceMeters>917.51534684517</DistanceMeters>
          </Trackpoint>
          <Trackpoint>
            <Time>2022-09-24T13:29:57.000Z</Time>
            <Position>
              <LatitudeDegrees>43.269995637238025665283203125</LatitudeDegrees>
              <LongitudeDegrees>-2.9381083510816097259521484375</LongitudeDegrees>
            </Position>
            <DistanceMeters>918.03582959543</DistanceMeters>
          </Trackpoint>
          <Trackpoint>
            <Time>2022-09-24T13:29:58.000Z</Time>
            <Position>
              <LatitudeDegrees>43.26999404467642307281494140625</LatitudeDegrees>
              <LongitudeDegrees>-2.938114218413829803466796875</LongitudeDegrees>
            </Position>
            <DistanceMeters>918.53866370369</DistanceMeters>
          </Trackpoint>
          <Trackpoint>
            <Time>2022-09-24T13:29:59.000Z</Time>
            <Position>
              <LatitudeDegrees>43.26999236829578876495361328125</LatitudeDegrees>
              <LongitudeDegrees>-2.938120253384113311767578125</LongitudeDegrees>
            </Position>
            <DistanceMeters>919.06775005748</DistanceMeters>
          </Trackpoint>
          <Trackpoint>
            <Time>2022-09-24T13:30:00.000Z</Time>
            <Position>
              <LatitudeDegrees>43.2699907757341861724853515625</LatitudeDegrees>
              <LongitudeDegrees>-2.93812595307826995849609375</LongitudeDegrees>
            </Position>
            <DistanceMeters>919.56152334957</DistanceMeters>
          </Trackpoint>
          <Trackpoint>
            <Time>2022-09-24T13:30:01.000Z</Time>
            <Position>
              <LatitudeDegrees>43.26998918317258358001708984375</LatitudeDegrees>
              <LongitudeDegrees>-2.93813156895339488983154296875</LongitudeDegrees>
            </Position>
            <DistanceMeters>920.04606642046</DistanceMeters>
          </Trackpoint>
          <Trackpoint>
            <Time>2022-09-24T13:30:02.000Z</Time>
            <Position>
              <LatitudeDegrees>43.26998784206807613372802734375</LatitudeDegrees>
              <LongitudeDegrees>-2.93813693337142467498779296875</LongitudeDegrees>
            </Position>
            <DistanceMeters>920.51160034474</DistanceMeters>
          </Trackpoint>
          <Trackpoint>
            <Time>2022-09-24T13:30:03.000Z</Time>
            <Position>
              <LatitudeDegrees>43.26998658478260040283203125</LatitudeDegrees>
              <LongitudeDegrees>-2.93814280070364475250244140625</LongitudeDegrees>
            </Position>
            <DistanceMeters>921.014434453</DistanceMeters>
          </Trackpoint>
          <Trackpoint>
            <Time>2022-09-24T13:30:04.000Z</Time>
            <Position>
              <LatitudeDegrees>43.26998532749712467193603515625</LatitudeDegrees>
              <LongitudeDegrees>-2.9381485842168331146240234375</LongitudeDegrees>
            </Position>
            <DistanceMeters>921.49897752388</DistanceMeters>
          </Trackpoint>
          <Trackpoint>
            <Time>2022-09-24T13:30:05.000Z</Time>
            <Position>
              <LatitudeDegrees>43.26998398639261722564697265625</LatitudeDegrees>
              <LongitudeDegrees>-2.9381546191871166229248046875</LongitudeDegrees>
            </Position>
            <DistanceMeters>922.01946027414</DistanceMeters>
          </Trackpoint>
          <Trackpoint>
            <Time>2022-09-24T13:30:06.000Z</Time>
            <Position>
              <LatitudeDegrees>43.2699827291071414947509765625</LatitudeDegrees>
              <LongitudeDegrees>-2.93816057033836841583251953125</LongitudeDegrees>
            </Position>
            <DistanceMeters>922.5222943824</DistanceMeters>
          </Trackpoint>
          <Trackpoint>
            <Time>2022-09-24T13:30:07.000Z</Time>
            <Position>
              <LatitudeDegrees>43.269981555640697479248046875</LatitudeDegrees>
              <LongitudeDegrees>-2.938166521489620208740234375</LongitudeDegrees>
            </Position>
            <DistanceMeters>923.03402890037</DistanceMeters>
          </Trackpoint>
          <Trackpoint>
            <Time>2022-09-24T13:30:08.000Z</Time>
            <Position>
              <LatitudeDegrees>43.2699803821742534637451171875</LatitudeDegrees>
              <LongitudeDegrees>-2.93817230500280857086181640625</LongitudeDegrees>
            </Position>
            <DistanceMeters>923.52780219246</DistanceMeters>
          </Trackpoint>
          <Trackpoint>
            <Time>2022-09-24T13:30:09.000Z</Time>
            <Position>
              <LatitudeDegrees>43.26997912488877773284912109375</LatitudeDegrees>
              <LongitudeDegrees>-2.93817833997309207916259765625</LongitudeDegrees>
            </Position>
            <DistanceMeters>924.04828494272</DistanceMeters>
          </Trackpoint>
          <Trackpoint>
            <Time>2022-09-24T13:30:10.000Z</Time>
            <Position>
              <LatitudeDegrees>43.269977867603302001953125</LatitudeDegrees>
              <LongitudeDegrees>-2.93818403966724872589111328125</LongitudeDegrees>
            </Position>
            <DistanceMeters>924.53282801361</DistanceMeters>
          </Trackpoint>
          <Trackpoint>
            <Time>2022-09-24T13:30:11.000Z</Time>
            <Position>
              <LatitudeDegrees>43.26997661031782627105712890625</LatitudeDegrees>
              <LongitudeDegrees>-2.93819007463753223419189453125</LongitudeDegrees>
            </Position>
            <DistanceMeters>925.03566212187</DistanceMeters>
          </Trackpoint>
          <Trackpoint>
            <Time>2022-09-24T13:30:12.000Z</Time>
            <Position>
              <LatitudeDegrees>43.2699753530323505401611328125</LatitudeDegrees>
              <LongitudeDegrees>-2.9381958581507205963134765625</LongitudeDegrees>
            </Position>
            <DistanceMeters>925.52020519275</DistanceMeters>
          </Trackpoint>
          <Trackpoint>
            <Time>2022-09-24T13:30:13.000Z</Time>
            <Position>
              <LatitudeDegrees>43.26997409574687480926513671875</LatitudeDegrees>
              <LongitudeDegrees>-2.9382018931210041046142578125</LongitudeDegrees>
            </Position>
            <DistanceMeters>926.04068794301</DistanceMeters>
          </Trackpoint>
          <Trackpoint>
            <Time>2022-09-24T13:30:14.000Z</Time>
            <Position>
              <LatitudeDegrees>43.269972838461399078369140625</LatitudeDegrees>
              <LongitudeDegrees>-2.93820767663419246673583984375</LongitudeDegrees>
            </Position>
            <DistanceMeters>926.5252310139</DistanceMeters>
          </Trackpoint>
          <Trackpoint>
            <Time>2022-09-24T13:30:15.000Z</Time>
            <Position>
              <LatitudeDegrees>43.269971497356891632080078125</LatitudeDegrees>
              <LongitudeDegrees>-2.9382136277854442596435546875</LongitudeDegrees>
            </Position>
            <DistanceMeters>927.02806512216</DistanceMeters>
          </Trackpoint>
          <Trackpoint>
            <Time>2022-09-24T13:30:16.000Z</Time>
            <Position>
              <LatitudeDegrees>43.26997007243335247039794921875</LatitudeDegrees>
              <LongitudeDegrees>-2.938219495117664337158203125</LongitudeDegrees>
            </Position>
            <DistanceMeters>927.52183841426</DistanceMeters>
          </Trackpoint>
          <Trackpoint>
            <Time>2022-09-24T13:30:17.000Z</Time>
            <Position>
              <LatitudeDegrees>43.2699684798717498779296875</LatitudeDegrees>
              <LongitudeDegrees>-2.938225530087947845458984375</LongitudeDegrees>
            </Position>
            <DistanceMeters>928.04232116452</DistanceMeters>
          </Trackpoint>
          <Trackpoint>
            <Time>2022-09-24T13:30:18.000Z</Time>
            <Position>
              <LatitudeDegrees>43.26996705494821071624755859375</LatitudeDegrees>
              <LongitudeDegrees>-2.9382313974201679229736328125</LongitudeDegrees>
            </Position>
            <DistanceMeters>928.54515527278</DistanceMeters>
          </Trackpoint>
          <Trackpoint>
            <Time>2022-09-24T13:30:19.000Z</Time>
            <Position>
              <LatitudeDegrees>43.26996554620563983917236328125</LatitudeDegrees>
              <LongitudeDegrees>-2.93823751620948314666748046875</LongitudeDegrees>
            </Position>
            <DistanceMeters>929.06563802304</DistanceMeters>
          </Trackpoint>
          <Trackpoint>
            <Time>2022-09-24T13:30:20.000Z</Time>
            <Position>
              <LatitudeDegrees>43.2699644565582275390625</LatitudeDegrees>
              <LongitudeDegrees>-2.9382434673607349395751953125</LongitudeDegrees>
            </Position>
            <DistanceMeters>929.55941131513</DistanceMeters>
          </Trackpoint>
          <Trackpoint>
            <Time>2022-09-24T13:30:21.000Z</Time>
            <Position>
              <LatitudeDegrees>43.26996336691081523895263671875</LatitudeDegrees>
              <LongitudeDegrees>-2.938249669969081878662109375</LongitudeDegrees>
            </Position>
            <DistanceMeters>930.0711458331</DistanceMeters>
          </Trackpoint>
          <Trackpoint>
            <Time>2022-09-24T13:30:22.000Z</Time>
            <Position>
              <LatitudeDegrees>43.26996252872049808502197265625</LatitudeDegrees>
              <LongitudeDegrees>-2.93825562112033367156982421875</LongitudeDegrees>
            </Position>
            <DistanceMeters>930.56491912519</DistanceMeters>
          </Trackpoint>
          <Trackpoint>
            <Time>2022-09-24T13:30:23.000Z</Time>
            <Position>
              <LatitudeDegrees>43.26996185816824436187744140625</LatitudeDegrees>
              <LongitudeDegrees>-2.9382619075477123260498046875</LongitudeDegrees>
            </Position>
            <DistanceMeters>931.08540187545</DistanceMeters>
          </Trackpoint>
          <Trackpoint>
            <Time>2022-09-24T13:30:24.000Z</Time>
            <Position>
              <LatitudeDegrees>43.26996110379695892333984375</LatitudeDegrees>
              <LongitudeDegrees>-2.93826811015605926513671875</LongitudeDegrees>
            </Position>
            <DistanceMeters>931.60588462571</DistanceMeters>
          </Trackpoint>
          <Trackpoint>
            <Time>2022-09-24T13:30:25.000Z</Time>
            <Position>
              <LatitudeDegrees>43.2699602656066417694091796875</LatitudeDegrees>
              <LongitudeDegrees>-2.9382746480405330657958984375</LongitudeDegrees>
            </Position>
            <DistanceMeters>932.14343689871</DistanceMeters>
          </Trackpoint>
          <Trackpoint>
            <Time>2022-09-24T13:30:26.000Z</Time>
            <Position>
              <LatitudeDegrees>43.26995934359729290008544921875</LatitudeDegrees>
              <LongitudeDegrees>-2.93828126974403858184814453125</LongitudeDegrees>
            </Position>
            <DistanceMeters>932.68098917171</DistanceMeters>
          </Trackpoint>
          <Trackpoint>
            <Time>2022-09-24T13:30:27.000Z</Time>
            <Position>
              <LatitudeDegrees>43.26995842158794403076171875</LatitudeDegrees>
              <LongitudeDegrees>-2.93828864581882953643798828125</LongitudeDegrees>
            </Position>
            <DistanceMeters>933.2894570297</DistanceMeters>
          </Trackpoint>
          <Trackpoint>
            <Time>2022-09-24T13:30:28.000Z</Time>
            <Position>
              <LatitudeDegrees>43.2699577510356903076171875</LatitudeDegrees>
              <LongitudeDegrees>-2.9382961057126522064208984375</LongitudeDegrees>
            </Position>
            <DistanceMeters>933.89045874164</DistanceMeters>
          </Trackpoint>
          <Trackpoint>
            <Time>2022-09-24T13:30:29.000Z</Time>
            <Position>
              <LatitudeDegrees>43.26995708048343658447265625</LatitudeDegrees>
              <LongitudeDegrees>-2.9383034817874431610107421875</LongitudeDegrees>
            </Position>
            <DistanceMeters>934.49146045358</DistanceMeters>
          </Trackpoint>
          <Trackpoint>
            <Time>2022-09-24T13:30:30.000Z</Time>
            <Position>
              <LatitudeDegrees>43.269956409931182861328125</LatitudeDegrees>
              <LongitudeDegrees>-2.93831043876707553863525390625</LongitudeDegrees>
            </Position>
            <DistanceMeters>935.05364607732</DistanceMeters>
          </Trackpoint>
          <Trackpoint>
            <Time>2022-09-24T13:30:31.000Z</Time>
            <Position>
              <LatitudeDegrees>43.26995582319796085357666015625</LatitudeDegrees>
              <LongitudeDegrees>-2.938317395746707916259765625</LongitudeDegrees>
            </Position>
            <DistanceMeters>935.60774227754</DistanceMeters>
          </Trackpoint>
          <Trackpoint>
            <Time>2022-09-24T13:30:32.000Z</Time>
            <Position>
              <LatitudeDegrees>43.269955404102802276611328125</LatitudeDegrees>
              <LongitudeDegrees>-2.93832401745021343231201171875</LongitudeDegrees>
            </Position>
            <DistanceMeters>936.14529455054</DistanceMeters>
          </Trackpoint>
          <Trackpoint>
            <Time>2022-09-24T13:30:33.000Z</Time>
            <Position>
              <LatitudeDegrees>43.2699549011886119842529296875</LatitudeDegrees>
              <LongitudeDegrees>-2.93833055533468723297119140625</LongitudeDegrees>
            </Position>
            <DistanceMeters>936.68284682354</DistanceMeters>
          </Trackpoint>
          <Trackpoint>
            <Time>2022-09-24T13:30:34.000Z</Time>
            <Position>
              <LatitudeDegrees>43.26995464973151683807373046875</LatitudeDegrees>
              <LongitudeDegrees>-2.93833692558109760284423828125</LongitudeDegrees>
            </Position>
            <DistanceMeters>937.2033295738</DistanceMeters>
          </Trackpoint>
          <Trackpoint>
            <Time>2022-09-24T13:30:35.000Z</Time>
            <Position>
              <LatitudeDegrees>43.26995431445538997650146484375</LatitudeDegrees>
              <LongitudeDegrees>-2.93834321200847625732421875</LongitudeDegrees>
            </Position>
            <DistanceMeters>937.71506409176</DistanceMeters>
          </Trackpoint>
          <Trackpoint>
            <Time>2022-09-24T13:30:36.000Z</Time>
            <Position>
              <LatitudeDegrees>43.269954062998294830322265625</LatitudeDegrees>
              <LongitudeDegrees>-2.93834933079779148101806640625</LongitudeDegrees>
            </Position>
            <DistanceMeters>938.21789820002</DistanceMeters>
          </Trackpoint>
          <Trackpoint>
            <Time>2022-09-24T13:30:37.000Z</Time>
            <Position>
              <LatitudeDegrees>43.26995381154119968414306640625</LatitudeDegrees>
              <LongitudeDegrees>-2.938355617225170135498046875</LongitudeDegrees>
            </Position>
            <DistanceMeters>938.72963271798</DistanceMeters>
          </Trackpoint>
          <Trackpoint>
            <Time>2022-09-24T13:30:38.000Z</Time>
            <Position>
              <LatitudeDegrees>43.26995364390313625335693359375</LatitudeDegrees>
              <LongitudeDegrees>-2.9383614845573902130126953125</LongitudeDegrees>
            </Position>
            <DistanceMeters>939.19516664226</DistanceMeters>
          </Trackpoint>
          <Trackpoint>
            <Time>2022-09-24T13:30:39.000Z</Time>
            <Position>
              <LatitudeDegrees>43.269953392446041107177734375</LatitudeDegrees>
              <LongitudeDegrees>-2.93836760334670543670654296875</LongitudeDegrees>
            </Position>
            <DistanceMeters>939.68893993436</DistanceMeters>
          </Trackpoint>
          <Trackpoint>
            <Time>2022-09-24T13:30:40.000Z</Time>
            <Position>
              <LatitudeDegrees>43.2699532248079776763916015625</LatitudeDegrees>
              <LongitudeDegrees>-2.9383735544979572296142578125</LongitudeDegrees>
            </Position>
            <DistanceMeters>940.17348300524</DistanceMeters>
          </Trackpoint>
          <Trackpoint>
            <Time>2022-09-24T13:30:41.000Z</Time>
            <Position>
              <LatitudeDegrees>43.26995314098894596099853515625</LatitudeDegrees>
              <LongitudeDegrees>-2.93837984092533588409423828125</LongitudeDegrees>
            </Position>
            <DistanceMeters>940.6939657555</DistanceMeters>
          </Trackpoint>
          <Trackpoint>
            <Time>2022-09-24T13:30:42.000Z</Time>
            <Position>
              <LatitudeDegrees>43.26995314098894596099853515625</LatitudeDegrees>
              <LongitudeDegrees>-2.93838612735271453857421875</LongitudeDegrees>
            </Position>
            <DistanceMeters>941.19679986377</DistanceMeters>
          </Trackpoint>
          <Trackpoint>
            <Time>2022-09-24T13:30:43.000Z</Time>
            <Position>
              <LatitudeDegrees>43.26995297335088253021240234375</LatitudeDegrees>
              <LongitudeDegrees>-2.9383926652371883392333984375</LongitudeDegrees>
            </Position>
            <DistanceMeters>941.71728261403</DistanceMeters>
          </Trackpoint>
          <Trackpoint>
            <Time>2022-09-24T13:30:44.000Z</Time>
            <Position>
              <LatitudeDegrees>43.269952721893787384033203125</LatitudeDegrees>
              <LongitudeDegrees>-2.93839861638844013214111328125</LongitudeDegrees>
            </Position>
            <DistanceMeters>942.20182568491</DistanceMeters>
          </Trackpoint>
          <Trackpoint>
            <Time>2022-09-24T13:30:45.000Z</Time>
            <Position>
              <LatitudeDegrees>43.26995230279862880706787109375</LatitudeDegrees>
              <LongitudeDegrees>-2.93840481899678707122802734375</LongitudeDegrees>
            </Position>
            <DistanceMeters>942.70465979317</DistanceMeters>
          </Trackpoint>
          <Trackpoint>
            <Time>2022-09-24T13:30:46.000Z</Time>
            <Position>
              <LatitudeDegrees>43.2699518837034702301025390625</LatitudeDegrees>
              <LongitudeDegrees>-2.93841068632900714874267578125</LongitudeDegrees>
            </Position>
            <DistanceMeters>943.18920286406</DistanceMeters>
          </Trackpoint>
          <Trackpoint>
            <Time>2022-09-24T13:30:47.000Z</Time>
            <Position>
              <LatitudeDegrees>43.26995146460831165313720703125</LatitudeDegrees>
              <LongitudeDegrees>-2.9384168051183223724365234375</LongitudeDegrees>
            </Position>
            <DistanceMeters>943.69203697232</DistanceMeters>
          </Trackpoint>
          <Trackpoint>
            <Time>2022-09-24T13:30:48.000Z</Time>
            <Position>
              <LatitudeDegrees>43.269951045513153076171875</LatitudeDegrees>
              <LongitudeDegrees>-2.9384228400886058807373046875</LongitudeDegrees>
            </Position>
            <DistanceMeters>944.19487108058</DistanceMeters>
          </Trackpoint>
          <Trackpoint>
            <Time>2022-09-24T13:30:49.000Z</Time>
            <Position>
              <LatitudeDegrees>43.26995062641799449920654296875</LatitudeDegrees>
              <LongitudeDegrees>-2.93842904269695281982421875</LongitudeDegrees>
            </Position>
            <DistanceMeters>944.69770518884</DistanceMeters>
          </Trackpoint>
          <Trackpoint>
            <Time>2022-09-24T13:30:50.000Z</Time>
            <Position>
              <LatitudeDegrees>43.26995029114186763763427734375</LatitudeDegrees>
              <LongitudeDegrees>-2.9384349100291728973388671875</LongitudeDegrees>
            </Position>
            <DistanceMeters>945.17283876069</DistanceMeters>
          </Trackpoint>
          <Trackpoint>
            <Time>2022-09-24T13:30:51.000Z</Time>
            <Position>
              <LatitudeDegrees>43.2699498720467090606689453125</LatitudeDegrees>
              <LongitudeDegrees>-2.93844086118042469024658203125</LongitudeDegrees>
            </Position>
            <DistanceMeters>945.65738183158</DistanceMeters>
          </Trackpoint>
          <Trackpoint>
            <Time>2022-09-24T13:30:52.000Z</Time>
            <Position>
              <LatitudeDegrees>43.2699495367705821990966796875</LatitudeDegrees>
              <LongitudeDegrees>-2.93844647705554962158203125</LongitudeDegrees>
            </Position>
            <DistanceMeters>946.11311394391</DistanceMeters>
          </Trackpoint>
          <Trackpoint>
            <Time>2022-09-24T13:30:53.000Z</Time>
            <Position>
              <LatitudeDegrees>43.269949369132518768310546875</LatitudeDegrees>
              <LongitudeDegrees>-2.938452176749706268310546875</LongitudeDegrees>
            </Position>
            <DistanceMeters>946.57864786819</DistanceMeters>
          </Trackpoint>
          <Trackpoint>
            <Time>2022-09-24T13:30:54.000Z</Time>
            <Position>
              <LatitudeDegrees>43.26994928531348705291748046875</LatitudeDegrees>
              <LongitudeDegrees>-2.938457541167736053466796875</LongitudeDegrees>
            </Position>
            <DistanceMeters>947.02436266687</DistanceMeters>
          </Trackpoint>
          <Trackpoint>
            <Time>2022-09-24T13:30:55.000Z</Time>
            <Position>
              <LatitudeDegrees>43.2699492014944553375244140625</LatitudeDegrees>
              <LongitudeDegrees>-2.93846298940479755401611328125</LongitudeDegrees>
            </Position>
            <DistanceMeters>947.47007746556</DistanceMeters>
          </Trackpoint>
          <Trackpoint>
            <Time>2022-09-24T13:30:56.000Z</Time>
            <Position>
              <LatitudeDegrees>43.2699492014944553375244140625</LatitudeDegrees>
              <LongitudeDegrees>-2.93846801854670047760009765625</LongitudeDegrees>
            </Position>
            <DistanceMeters>947.89504985158</DistanceMeters>
          </Trackpoint>
          <Trackpoint>
            <Time>2022-09-24T13:30:57.000Z</Time>
            <Position>
              <LatitudeDegrees>43.26994903385639190673828125</LatitudeDegrees>
              <LongitudeDegrees>-2.93847329914569854736328125</LongitudeDegrees>
            </Position>
            <DistanceMeters>948.3200222376</DistanceMeters>
          </Trackpoint>
          <Trackpoint>
            <Time>2022-09-24T13:30:58.000Z</Time>
            <Position>
              <LatitudeDegrees>43.26994903385639190673828125</LatitudeDegrees>
              <LongitudeDegrees>-2.93847841210663318634033203125</LongitudeDegrees>
            </Position>
            <DistanceMeters>948.72318644235</DistanceMeters>
          </Trackpoint>
          <Trackpoint>
            <Time>2022-09-24T13:30:59.000Z</Time>
            <Position>
              <LatitudeDegrees>43.26994895003736019134521484375</LatitudeDegrees>
              <LongitudeDegrees>-2.93848360888659954071044921875</LongitudeDegrees>
            </Position>
            <DistanceMeters>949.14815882837</DistanceMeters>
          </Trackpoint>
          <Trackpoint>
            <Time>2022-09-24T13:31:00.000Z</Time>
            <Position>
              <LatitudeDegrees>43.26994895003736019134521484375</LatitudeDegrees>
              <LongitudeDegrees>-2.93848863802850246429443359375</LongitudeDegrees>
            </Position>
            <DistanceMeters>949.57313121438</DistanceMeters>
          </Trackpoint>
          <Trackpoint>
            <Time>2022-09-24T13:31:01.000Z</Time>
            <Position>
              <LatitudeDegrees>43.26994861476123332977294921875</LatitudeDegrees>
              <LongitudeDegrees>-2.93849400244653224945068359375</LongitudeDegrees>
            </Position>
            <DistanceMeters>950.01884601307</DistanceMeters>
          </Trackpoint>
          <Trackpoint>
            <Time>2022-09-24T13:31:02.000Z</Time>
            <Position>
              <LatitudeDegrees>43.26994811184704303741455078125</LatitudeDegrees>
              <LongitudeDegrees>-2.93849919922649860382080078125</LongitudeDegrees>
            </Position>
            <DistanceMeters>950.46456081176</DistanceMeters>
          </Trackpoint>
          <Trackpoint>
            <Time>2022-09-24T13:31:03.000Z</Time>
            <Position>
              <LatitudeDegrees>43.26994769275188446044921875</LatitudeDegrees>
              <LongitudeDegrees>-2.93850481510162353515625</LongitudeDegrees>
            </Position>
            <DistanceMeters>950.93009473603</DistanceMeters>
          </Trackpoint>
          <Trackpoint>
            <Time>2022-09-24T13:31:04.000Z</Time>
            <Position>
              <LatitudeDegrees>43.26994710601866245269775390625</LatitudeDegrees>
              <LongitudeDegrees>-2.93851026333868503570556640625</LongitudeDegrees>
            </Position>
            <DistanceMeters>951.37580953472</DistanceMeters>
          </Trackpoint>
          <Trackpoint>
            <Time>2022-09-24T13:31:05.000Z</Time>
            <Position>
              <LatitudeDegrees>43.26994576491415500640869140625</LatitudeDegrees>
              <LongitudeDegrees>-2.9385160468518733978271484375</LongitudeDegrees>
            </Position>
            <DistanceMeters>951.86958282681</DistanceMeters>
          </Trackpoint>
          <Trackpoint>
            <Time>2022-09-24T13:31:06.000Z</Time>
            <Position>
              <LatitudeDegrees>43.26994408853352069854736328125</LatitudeDegrees>
              <LongitudeDegrees>-2.9385217465460300445556640625</LongitudeDegrees>
            </Position>
            <DistanceMeters>952.37241693508</DistanceMeters>
          </Trackpoint>
          <Trackpoint>
            <Time>2022-09-24T13:31:07.000Z</Time>
            <Position>
              <LatitudeDegrees>43.26994232833385467529296875</LatitudeDegrees>
              <LongitudeDegrees>-2.9385274462401866912841796875</LongitudeDegrees>
            </Position>
            <DistanceMeters>952.87525104334</DistanceMeters>
          </Trackpoint>
          <Trackpoint>
            <Time>2022-09-24T13:31:08.000Z</Time>
            <Position>
              <LatitudeDegrees>43.269940316677093505859375</LatitudeDegrees>
              <LongitudeDegrees>-2.9385324753820896148681640625</LongitudeDegrees>
            </Position>
            <DistanceMeters>953.34078496762</DistanceMeters>
          </Trackpoint>
          <Trackpoint>
            <Time>2022-09-24T13:31:09.000Z</Time>
            <Position>
              <LatitudeDegrees>43.26993972994387149810791015625</LatitudeDegrees>
              <LongitudeDegrees>-2.93853624723851680755615234375</LongitudeDegrees>
            </Position>
            <DistanceMeters>953.66996716235</DistanceMeters>
          </Trackpoint>
          <Trackpoint>
            <Time>2022-09-24T13:31:10.000Z</Time>
            <Position>
              <LatitudeDegrees>43.2699388079345226287841796875</LatitudeDegrees>
              <LongitudeDegrees>-2.938540689647197723388671875</LongitudeDegrees>
            </Position>
            <DistanceMeters>954.05007401983</DistanceMeters>
          </Trackpoint>
          <Trackpoint>
            <Time>2022-09-24T13:31:11.000Z</Time>
            <Position>
              <LatitudeDegrees>43.2699378021061420440673828125</LatitudeDegrees>
              <LongitudeDegrees>-2.9385455511510372161865234375</LongitudeDegrees>
            </Position>
            <DistanceMeters>954.45323822458</DistanceMeters>
          </Trackpoint>
          <Trackpoint>
            <Time>2022-09-24T13:31:12.000Z</Time>
            <Position>
              <LatitudeDegrees>43.2699367962777614593505859375</LatitudeDegrees>
              <LongitudeDegrees>-2.93855108320713043212890625</LongitudeDegrees>
            </Position>
            <DistanceMeters>954.91877214886</DistanceMeters>
          </Trackpoint>
          <Trackpoint>
            <Time>2022-09-24T13:31:13.000Z</Time>
            <Position>
              <LatitudeDegrees>43.2699357904493808746337890625</LatitudeDegrees>
              <LongitudeDegrees>-2.9385571181774139404296875</LongitudeDegrees>
            </Position>
            <DistanceMeters>955.42160625712</DistanceMeters>
          </Trackpoint>
          <Trackpoint>
            <Time>2022-09-24T13:31:14.000Z</Time>
            <Position>
              <LatitudeDegrees>43.269934616982936859130859375</LatitudeDegrees>
              <LongitudeDegrees>-2.93856340460479259490966796875</LongitudeDegrees>
            </Position>
            <DistanceMeters>955.9506926109</DistanceMeters>
          </Trackpoint>
          <Trackpoint>
            <Time>2022-09-24T13:31:15.000Z</Time>
            <Position>
              <LatitudeDegrees>43.26993335969746112823486328125</LatitudeDegrees>
              <LongitudeDegrees>-2.93856943957507610321044921875</LongitudeDegrees>
            </Position>
            <DistanceMeters>956.47117536116</DistanceMeters>
          </Trackpoint>
          <Trackpoint>
            <Time>2022-09-24T13:31:16.000Z</Time>
            <Position>
              <LatitudeDegrees>43.26993201859295368194580078125</LatitudeDegrees>
              <LongitudeDegrees>-2.93857530690729618072509765625</LongitudeDegrees>
            </Position>
            <DistanceMeters>956.97400946942</DistanceMeters>
          </Trackpoint>
          <Trackpoint>
            <Time>2022-09-24T13:31:17.000Z</Time>
            <Position>
              <LatitudeDegrees>43.2699310965836048126220703125</LatitudeDegrees>
              <LongitudeDegrees>-2.93858117423951625823974609375</LongitudeDegrees>
            </Position>
            <DistanceMeters>957.45855254031</DistanceMeters>
          </Trackpoint>
          <Trackpoint>
            <Time>2022-09-24T13:31:18.000Z</Time>
            <Position>
              <LatitudeDegrees>43.26993017457425594329833984375</LatitudeDegrees>
              <LongitudeDegrees>-2.938586957752704620361328125</LongitudeDegrees>
            </Position>
            <DistanceMeters>957.94309561119</DistanceMeters>
          </Trackpoint>
          <Trackpoint>
            <Time>2022-09-24T13:31:19.000Z</Time>
            <Position>
              <LatitudeDegrees>43.26992514543235301971435546875</LatitudeDegrees>
              <LongitudeDegrees>-2.93859399855136871337890625</LongitudeDegrees>
            </Position>
            <DistanceMeters>958.74380493893</DistanceMeters>
          </Trackpoint>
          <Trackpoint>
            <Time>2022-09-24T13:31:20.000Z</Time>
            <Position>
              <LatitudeDegrees>43.26992128975689411163330078125</LatitudeDegrees>
              <LongitudeDegrees>-2.93860129080712795257568359375</LongitudeDegrees>
            </Position>
            <DistanceMeters>959.47987870333</DistanceMeters>
          </Trackpoint>
          <Trackpoint>
            <Time>2022-09-24T13:31:21.000Z</Time>
            <Position>
              <LatitudeDegrees>43.26991726644337177276611328125</LatitudeDegrees>
              <LongitudeDegrees>-2.93860816396772861480712890625</LongitudeDegrees>
            </Position>
            <DistanceMeters>960.19099351885</DistanceMeters>
          </Trackpoint>
          <Trackpoint>
            <Time>2022-09-24T13:31:22.000Z</Time>
            <Position>
              <LatitudeDegrees>43.269913829863071441650390625</LatitudeDegrees>
              <LongitudeDegrees>-2.9386149533092975616455078125</LongitudeDegrees>
            </Position>
            <DistanceMeters>960.8629338601</DistanceMeters>
          </Trackpoint>
          <Trackpoint>
            <Time>2022-09-24T13:31:23.000Z</Time>
            <Position>
              <LatitudeDegrees>43.269910477101802825927734375</LatitudeDegrees>
              <LongitudeDegrees>-2.93862308375537395477294921875</LongitudeDegrees>
            </Position>
            <DistanceMeters>961.61117495729</DistanceMeters>
          </Trackpoint>
          <Trackpoint>
            <Time>2022-09-24T13:31:24.000Z</Time>
            <Position>
              <LatitudeDegrees>43.2699072919785976409912109375</LatitudeDegrees>
              <LongitudeDegrees>-2.9386313818395137786865234375</LongitudeDegrees>
            </Position>
            <DistanceMeters>962.37138867225</DistanceMeters>
          </Trackpoint>
          <Trackpoint>
            <Time>2022-09-24T13:31:25.000Z</Time>
            <Position>
              <LatitudeDegrees>43.269903771579265594482421875</LatitudeDegrees>
              <LongitudeDegrees>-2.93864001519978046417236328125</LongitudeDegrees>
            </Position>
            <DistanceMeters>963.17209799999</DistanceMeters>
          </Trackpoint>
          <Trackpoint>
            <Time>2022-09-24T13:31:26.000Z</Time>
            <Position>
              <LatitudeDegrees>43.26990067027509212493896484375</LatitudeDegrees>
              <LongitudeDegrees>-2.9386481456458568572998046875</LongitudeDegrees>
            </Position>
            <DistanceMeters>963.9142803651</DistanceMeters>
          </Trackpoint>
          <Trackpoint>
            <Time>2022-09-24T13:31:27.000Z</Time>
            <Position>
              <LatitudeDegrees>43.269897736608982086181640625</LatitudeDegrees>
              <LongitudeDegrees>-2.93865627609193325042724609375</LongitudeDegrees>
            </Position>
            <DistanceMeters>964.6503541295</DistanceMeters>
          </Trackpoint>
          <Trackpoint>
            <Time>2022-09-24T13:31:28.000Z</Time>
            <Position>
              <LatitudeDegrees>43.26989513821899890899658203125</LatitudeDegrees>
              <LongitudeDegrees>-2.93866432271897792816162109375</LongitudeDegrees>
            </Position>
            <DistanceMeters>965.36779008992</DistanceMeters>
          </Trackpoint>
          <Trackpoint>
            <Time>2022-09-24T13:31:29.000Z</Time>
            <Position>
              <LatitudeDegrees>43.2698928751051425933837890625</LatitudeDegrees>
              <LongitudeDegrees>-2.93867169879376888275146484375</LongitudeDegrees>
            </Position>
            <DistanceMeters>966.01926042145</DistanceMeters>
          </Trackpoint>
          <Trackpoint>
            <Time>2022-09-24T13:31:30.000Z</Time>
            <Position>
              <LatitudeDegrees>43.2698905281722545623779296875</LatitudeDegrees>
              <LongitudeDegrees>-2.93867907486855983734130859375</LongitudeDegrees>
            </Position>
            <DistanceMeters>966.67762481091</DistanceMeters>
          </Trackpoint>
          <Trackpoint>
            <Time>2022-09-24T13:31:31.000Z</Time>
            <Position>
              <LatitudeDegrees>43.2698881812393665313720703125</LatitudeDegrees>
              <LongitudeDegrees>-2.93868653476238250732421875</LongitudeDegrees>
            </Position>
            <DistanceMeters>967.32909514244</DistanceMeters>
          </Trackpoint>
          <Trackpoint>
            <Time>2022-09-24T13:31:32.000Z</Time>
            <Position>
              <LatitudeDegrees>43.2698858343064785003662109375</LatitudeDegrees>
              <LongitudeDegrees>-2.93869399465620517730712890625</LongitudeDegrees>
            </Position>
            <DistanceMeters>967.9874595319</DistanceMeters>
          </Trackpoint>
          <Trackpoint>
            <Time>2022-09-24T13:31:33.000Z</Time>
            <Position>
              <LatitudeDegrees>43.26988340355455875396728515625</LatitudeDegrees>
              <LongitudeDegrees>-2.93870153836905956268310546875</LongitudeDegrees>
            </Position>
            <DistanceMeters>968.65264653249</DistanceMeters>
          </Trackpoint>
          <Trackpoint>
            <Time>2022-09-24T13:31:34.000Z</Time>
            <Position>
              <LatitudeDegrees>43.26988072134554386138916015625</LatitudeDegrees>
              <LongitudeDegrees>-2.93870891444385051727294921875</LongitudeDegrees>
            </Position>
            <DistanceMeters>969.32458687374</DistanceMeters>
          </Trackpoint>
          <Trackpoint>
            <Time>2022-09-24T13:31:35.000Z</Time>
            <Position>
              <LatitudeDegrees>43.26987787149846553802490234375</LatitudeDegrees>
              <LongitudeDegrees>-2.938716374337673187255859375</LongitudeDegrees>
            </Position>
            <DistanceMeters>970.00321335322</DistanceMeters>
          </Trackpoint>
          <Trackpoint>
            <Time>2022-09-24T13:31:36.000Z</Time>
            <Position>
              <LatitudeDegrees>43.26987535692751407623291015625</LatitudeDegrees>
              <LongitudeDegrees>-2.9387239180505275726318359375</LongitudeDegrees>
            </Position>
            <DistanceMeters>970.67515369447</DistanceMeters>
          </Trackpoint>
          <Trackpoint>
            <Time>2022-09-24T13:31:37.000Z</Time>
            <Position>
              <LatitudeDegrees>43.26987300999462604522705078125</LatitudeDegrees>
              <LongitudeDegrees>-2.9387314617633819580078125</LongitudeDegrees>
            </Position>
            <DistanceMeters>971.34034069505</DistanceMeters>
          </Trackpoint>
          <Trackpoint>
            <Time>2022-09-24T13:31:38.000Z</Time>
            <Position>
              <LatitudeDegrees>43.2698707468807697296142578125</LatitudeDegrees>
              <LongitudeDegrees>-2.93873875401914119720458984375</LongitudeDegrees>
            </Position>
            <DistanceMeters>971.98484322912</DistanceMeters>
          </Trackpoint>
          <Trackpoint>
            <Time>2022-09-24T13:31:39.000Z</Time>
            <Position>
              <LatitudeDegrees>43.26986865140497684478759765625</LatitudeDegrees>
              <LongitudeDegrees>-2.93874629773199558258056640625</LongitudeDegrees>
            </Position>
            <DistanceMeters>972.64320761858</DistanceMeters>
          </Trackpoint>
          <Trackpoint>
            <Time>2022-09-24T13:31:40.000Z</Time>
            <Position>
              <LatitudeDegrees>43.2698667235672473907470703125</LatitudeDegrees>
              <LongitudeDegrees>-2.93875384144484996795654296875</LongitudeDegrees>
            </Position>
            <DistanceMeters>973.28771015265</DistanceMeters>
          </Trackpoint>
          <Trackpoint>
            <Time>2022-09-24T13:31:41.000Z</Time>
            <Position>
              <LatitudeDegrees>43.26986496336758136749267578125</LatitudeDegrees>
              <LongitudeDegrees>-2.938761301338672637939453125</LongitudeDegrees>
            </Position>
            <DistanceMeters>973.91804606591</DistanceMeters>
          </Trackpoint>
          <Trackpoint>
            <Time>2022-09-24T13:31:42.000Z</Time>
            <Position>
              <LatitudeDegrees>43.269863538444042205810546875</LatitudeDegrees>
              <LongitudeDegrees>-2.9387688450515270233154296875</LongitudeDegrees>
            </Position>
            <DistanceMeters>974.54838197916</DistanceMeters>
          </Trackpoint>
          <Trackpoint>
            <Time>2022-09-24T13:31:43.000Z</Time>
            <Position>
              <LatitudeDegrees>43.26986228115856647491455078125</LatitudeDegrees>
              <LongitudeDegrees>-2.93877638876438140869140625</LongitudeDegrees>
            </Position>
            <DistanceMeters>975.1715138168</DistanceMeters>
          </Trackpoint>
          <Trackpoint>
            <Time>2022-09-24T13:31:44.000Z</Time>
            <Position>
              <LatitudeDegrees>43.26986094005405902862548828125</LatitudeDegrees>
              <LongitudeDegrees>-2.9387835972011089324951171875</LongitudeDegrees>
            </Position>
            <DistanceMeters>975.77251552875</DistanceMeters>
          </Trackpoint>
          <Trackpoint>
            <Time>2022-09-24T13:31:45.000Z</Time>
            <Position>
              <LatitudeDegrees>43.269859515130519866943359375</LatitudeDegrees>
              <LongitudeDegrees>-2.9387904703617095947265625</LongitudeDegrees>
            </Position>
            <DistanceMeters>976.35054046629</DistanceMeters>
          </Trackpoint>
          <Trackpoint>
            <Time>2022-09-24T13:31:46.000Z</Time>
            <Position>
              <LatitudeDegrees>43.26985892839729785919189453125</LatitudeDegrees>
              <LongitudeDegrees>-2.9387970082461833953857421875</LongitudeDegrees>
            </Position>
            <DistanceMeters>976.88809273929</DistanceMeters>
          </Trackpoint>
          <Trackpoint>
            <Time>2022-09-24T13:31:47.000Z</Time>
            <Position>
              <LatitudeDegrees>43.269858844578266143798828125</LatitudeDegrees>
              <LongitudeDegrees>-2.9388033784925937652587890625</LongitudeDegrees>
            </Position>
            <DistanceMeters>977.40857548955</DistanceMeters>
          </Trackpoint>
          <Trackpoint>
            <Time>2022-09-24T13:31:48.000Z</Time>
            <Position>
              <LatitudeDegrees>43.26985909603536128997802734375</LatitudeDegrees>
              <LongitudeDegrees>-2.93880949728190898895263671875</LongitudeDegrees>
            </Position>
            <DistanceMeters>977.90234878165</DistanceMeters>
          </Trackpoint>
          <Trackpoint>
            <Time>2022-09-24T13:31:49.000Z</Time>
            <Position>
              <LatitudeDegrees>43.26985943131148815155029296875</LatitudeDegrees>
              <LongitudeDegrees>-2.9388154484331607818603515625</LongitudeDegrees>
            </Position>
            <DistanceMeters>978.38689185253</DistanceMeters>
          </Trackpoint>
          <Trackpoint>
            <Time>2022-09-24T13:31:50.000Z</Time>
            <Position>
              <LatitudeDegrees>43.26985976658761501312255859375</LatitudeDegrees>
              <LongitudeDegrees>-2.9388214834034442901611328125</LongitudeDegrees>
            </Position>
            <DistanceMeters>978.88066514463</DistanceMeters>
          </Trackpoint>
          <Trackpoint>
            <Time>2022-09-24T13:31:51.000Z</Time>
            <Position>
              <LatitudeDegrees>43.26985993422567844390869140625</LatitudeDegrees>
              <LongitudeDegrees>-2.938827686011791229248046875</LongitudeDegrees>
            </Position>
            <DistanceMeters>979.38349925289</DistanceMeters>
          </Trackpoint>
          <Trackpoint>
            <Time>2022-09-24T13:31:52.000Z</Time>
            <Position>
              <LatitudeDegrees>43.269860185682773590087890625</LatitudeDegrees>
              <LongitudeDegrees>-2.93883380480110645294189453125</LongitudeDegrees>
            </Position>
            <DistanceMeters>979.86804232378</DistanceMeters>
          </Trackpoint>
          <Trackpoint>
            <Time>2022-09-24T13:31:53.000Z</Time>
            <Position>
              <LatitudeDegrees>43.2698603533208370208740234375</LatitudeDegrees>
              <LongitudeDegrees>-2.938839755952358245849609375</LongitudeDegrees>
            </Position>
            <DistanceMeters>980.35258539466</DistanceMeters>
          </Trackpoint>
          <Trackpoint>
            <Time>2022-09-24T13:31:54.000Z</Time>
            <Position>
              <LatitudeDegrees>43.2698606885969638824462890625</LatitudeDegrees>
              <LongitudeDegrees>-2.93884570710361003875732421875</LongitudeDegrees>
            </Position>
            <DistanceMeters>980.84635868676</DistanceMeters>
          </Trackpoint>
          <Trackpoint>
            <Time>2022-09-24T13:31:55.000Z</Time>
            <Position>
              <LatitudeDegrees>43.26986110769212245941162109375</LatitudeDegrees>
              <LongitudeDegrees>-2.93885190971195697784423828125</LongitudeDegrees>
            </Position>
            <DistanceMeters>981.34919279502</DistanceMeters>
          </Trackpoint>
          <Trackpoint>
            <Time>2022-09-24T13:31:56.000Z</Time>
            <Position>
              <LatitudeDegrees>43.2698613591492176055908203125</LatitudeDegrees>
              <LongitudeDegrees>-2.938857860863208770751953125</LongitudeDegrees>
            </Position>
            <DistanceMeters>981.8337358659</DistanceMeters>
          </Trackpoint>
          <Trackpoint>
            <Time>2022-09-24T13:31:57.000Z</Time>
            <Position>
              <LatitudeDegrees>43.269861526787281036376953125</LatitudeDegrees>
              <LongitudeDegrees>-2.93886347673833370208740234375</LongitudeDegrees>
            </Position>
            <DistanceMeters>982.29926979018</DistanceMeters>
          </Trackpoint>
          <Trackpoint>
            <Time>2022-09-24T13:31:58.000Z</Time>
            <Position>
              <LatitudeDegrees>43.2698616944253444671630859375</LatitudeDegrees>
              <LongitudeDegrees>-2.9388687573373317718505859375</LongitudeDegrees>
            </Position>
            <DistanceMeters>982.7242421762</DistanceMeters>
          </Trackpoint>
          <Trackpoint>
            <Time>2022-09-24T13:31:59.000Z</Time>
            <Position>
              <LatitudeDegrees>43.26986177824437618255615234375</LatitudeDegrees>
              <LongitudeDegrees>-2.93887370266020298004150390625</LongitudeDegrees>
            </Position>
            <DistanceMeters>983.1160473568</DistanceMeters>
          </Trackpoint>
          <Trackpoint>
            <Time>2022-09-24T13:32:00.000Z</Time>
            <Position>
              <LatitudeDegrees>43.26986186206340789794921875</LatitudeDegrees>
              <LongitudeDegrees>-2.938878647983074188232421875</LongitudeDegrees>
            </Position>
            <DistanceMeters>983.51921156155</DistanceMeters>
          </Trackpoint>
          <Trackpoint>
            <Time>2022-09-24T13:32:01.000Z</Time>
            <Position>
              <LatitudeDegrees>43.26986186206340789794921875</LatitudeDegrees>
              <LongitudeDegrees>-2.938883006572723388671875</LongitudeDegrees>
            </Position>
            <DistanceMeters>983.87476896932</DistanceMeters>
          </Trackpoint>
          <Trackpoint>
            <Time>2022-09-24T13:32:02.000Z</Time>
            <Position>
              <LatitudeDegrees>43.2698620297014713287353515625</LatitudeDegrees>
              <LongitudeDegrees>-2.9388871975243091583251953125</LongitudeDegrees>
            </Position>
            <DistanceMeters>984.20395116405</DistanceMeters>
          </Trackpoint>
          <Trackpoint>
            <Time>2022-09-24T13:32:03.000Z</Time>
            <Position>
              <LatitudeDegrees>43.2698620297014713287353515625</LatitudeDegrees>
              <LongitudeDegrees>-2.93889172375202178955078125</LongitudeDegrees>
            </Position>
            <DistanceMeters>984.55950857181</DistanceMeters>
          </Trackpoint>
          <Trackpoint>
            <Time>2022-09-24T13:32:04.000Z</Time>
            <Position>
              <LatitudeDegrees>43.26986211352050304412841796875</LatitudeDegrees>
              <LongitudeDegrees>-2.93889616616070270538330078125</LongitudeDegrees>
            </Position>
            <DistanceMeters>984.90213226301</DistanceMeters>
          </Trackpoint>
          <Trackpoint>
            <Time>2022-09-24T13:32:05.000Z</Time>
            <Position>
              <LatitudeDegrees>43.26986295171082019805908203125</LatitudeDegrees>
              <LongitudeDegrees>-2.93890119530260562896728515625</LongitudeDegrees>
            </Position>
            <DistanceMeters>985.32710464903</DistanceMeters>
          </Trackpoint>
          <Trackpoint>
            <Time>2022-09-24T13:32:06.000Z</Time>
            <Position>
              <LatitudeDegrees>43.2698640413582324981689453125</LatitudeDegrees>
              <LongitudeDegrees>-2.9389058053493499755859375</LongitudeDegrees>
            </Position>
            <DistanceMeters>985.70721150651</DistanceMeters>
          </Trackpoint>
          <Trackpoint>
            <Time>2022-09-24T13:32:07.000Z</Time>
            <Position>
              <LatitudeDegrees>43.2698650471866130828857421875</LatitudeDegrees>
              <LongitudeDegrees>-2.93891024775803089141845703125</LongitudeDegrees>
            </Position>
            <DistanceMeters>986.07524838871</DistanceMeters>
          </Trackpoint>
          <Trackpoint>
            <Time>2022-09-24T13:32:08.000Z</Time>
            <Position>
              <LatitudeDegrees>43.26986596919596195220947265625</LatitudeDegrees>
              <LongitudeDegrees>-2.93891443870961666107177734375</LongitudeDegrees>
            </Position>
            <DistanceMeters>986.43080579647</DistanceMeters>
          </Trackpoint>
          <Trackpoint>
            <Time>2022-09-24T13:32:09.000Z</Time>
            <Position>
              <LatitudeDegrees>43.26986722648143768310546875</LatitudeDegrees>
              <LongitudeDegrees>-2.938918210566043853759765625</LongitudeDegrees>
            </Position>
            <DistanceMeters>986.77342948767</DistanceMeters>
          </Trackpoint>
          <Trackpoint>
            <Time>2022-09-24T13:32:10.000Z</Time>
            <Position>
              <LatitudeDegrees>43.26986898668110370635986328125</LatitudeDegrees>
              <LongitudeDegrees>-2.938922233879566192626953125</LongitudeDegrees>
            </Position>
            <DistanceMeters>987.15353634515</DistanceMeters>
          </Trackpoint>
          <Trackpoint>
            <Time>2022-09-24T13:32:11.000Z</Time>
            <Position>
              <LatitudeDegrees>43.2698700763285160064697265625</LatitudeDegrees>
              <LongitudeDegrees>-2.9389260895550251007080078125</LongitudeDegrees>
            </Position>
            <DistanceMeters>987.50909375292</DistanceMeters>
          </Trackpoint>
          <Trackpoint>
            <Time>2022-09-24T13:32:12.000Z</Time>
            <Position>
              <LatitudeDegrees>43.26987099833786487579345703125</LatitudeDegrees>
              <LongitudeDegrees>-2.9389301128685474395751953125</LongitudeDegrees>
            </Position>
            <DistanceMeters>987.86465116068</DistanceMeters>
          </Trackpoint>
          <Trackpoint>
            <Time>2022-09-24T13:32:13.000Z</Time>
            <Position>
              <LatitudeDegrees>43.2698714174330234527587890625</LatitudeDegrees>
              <LongitudeDegrees>-2.93893354944884777069091796875</LongitudeDegrees>
            </Position>
            <DistanceMeters>988.13342729718</DistanceMeters>
          </Trackpoint>
          <Trackpoint>
            <Time>2022-09-24T13:32:14.000Z</Time>
            <Position>
              <LatitudeDegrees>43.269871585071086883544921875</LatitudeDegrees>
              <LongitudeDegrees>-2.9389358125627040863037109375</LongitudeDegrees>
            </Position>
            <DistanceMeters>988.32348072592</DistanceMeters>
          </Trackpoint>
          <Trackpoint>
            <Time>2022-09-24T13:32:15.000Z</Time>
            <Position>
              <LatitudeDegrees>43.2698694057762622833251953125</LatitudeDegrees>
              <LongitudeDegrees>-2.93893924914300441741943359375</LongitudeDegrees>
            </Position>
            <DistanceMeters>988.67903813368</DistanceMeters>
          </Trackpoint>
          <Trackpoint>
            <Time>2022-09-24T13:32:16.000Z</Time>
            <Position>
              <LatitudeDegrees>43.2698677293956279754638671875</LatitudeDegrees>
              <LongitudeDegrees>-2.9389445297420024871826171875</LongitudeDegrees>
            </Position>
            <DistanceMeters>989.14457205796</DistanceMeters>
          </Trackpoint>
          <Trackpoint>
            <Time>2022-09-24T13:32:17.000Z</Time>
            <Position>
              <LatitudeDegrees>43.2698665559291839599609375</LatitudeDegrees>
              <LongitudeDegrees>-2.93895073235034942626953125</LongitudeDegrees>
            </Position>
            <DistanceMeters>989.66505480822</DistanceMeters>
          </Trackpoint>
          <Trackpoint>
            <Time>2022-09-24T13:32:18.000Z</Time>
            <Position>
              <LatitudeDegrees>43.26986580155789852142333984375</LatitudeDegrees>
              <LongitudeDegrees>-2.93895651586353778839111328125</LongitudeDegrees>
            </Position>
            <DistanceMeters>990.14018838007</DistanceMeters>
          </Trackpoint>
          <Trackpoint>
            <Time>2022-09-24T13:32:19.000Z</Time>
            <Position>
              <LatitudeDegrees>43.26986496336758136749267578125</LatitudeDegrees>
              <LongitudeDegrees>-2.93896271847188472747802734375</LongitudeDegrees>
            </Position>
            <DistanceMeters>990.66067113033</DistanceMeters>
          </Trackpoint>
          <Trackpoint>
            <Time>2022-09-24T13:32:20.000Z</Time>
            <Position>
              <LatitudeDegrees>43.26986362226307392120361328125</LatitudeDegrees>
              <LongitudeDegrees>-2.93896875344216823577880859375</LongitudeDegrees>
            </Position>
            <DistanceMeters>991.18115388059</DistanceMeters>
          </Trackpoint>
          <Trackpoint>
            <Time>2022-09-24T13:32:21.000Z</Time>
            <Position>
              <LatitudeDegrees>43.2698623649775981903076171875</LatitudeDegrees>
              <LongitudeDegrees>-2.938975207507610321044921875</LongitudeDegrees>
            </Position>
            <DistanceMeters>991.71870615359</DistanceMeters>
          </Trackpoint>
          <Trackpoint>
            <Time>2022-09-24T13:32:22.000Z</Time>
            <Position>
              <LatitudeDegrees>43.26986161060631275177001953125</LatitudeDegrees>
              <LongitudeDegrees>-2.9389814101159572601318359375</LongitudeDegrees>
            </Position>
            <DistanceMeters>992.22154026185</DistanceMeters>
          </Trackpoint>
          <Trackpoint>
            <Time>2022-09-24T13:32:23.000Z</Time>
            <Position>
              <LatitudeDegrees>43.26986177824437618255615234375</LatitudeDegrees>
              <LongitudeDegrees>-2.9389881156384944915771484375</LongitudeDegrees>
            </Position>
            <DistanceMeters>992.76742717565</DistanceMeters>
          </Trackpoint>
          <Trackpoint>
            <Time>2022-09-24T13:32:24.000Z</Time>
            <Position>
              <LatitudeDegrees>43.26986186206340789794921875</LatitudeDegrees>
              <LongitudeDegrees>-2.93899498879909515380859375</LongitudeDegrees>
            </Position>
            <DistanceMeters>993.32152337586</DistanceMeters>
          </Trackpoint>
          <Trackpoint>
            <Time>2022-09-24T13:32:25.000Z</Time>
            <Position>
              <LatitudeDegrees>43.269861526787281036376953125</LatitudeDegrees>
              <LongitudeDegrees>-2.9390005208551883697509765625</LongitudeDegrees>
            </Position>
            <DistanceMeters>993.76723817455</DistanceMeters>
          </Trackpoint>
          <Trackpoint>
            <Time>2022-09-24T13:32:26.000Z</Time>
            <Position>
              <LatitudeDegrees>43.26986127533018589019775390625</LatitudeDegrees>
              <LongitudeDegrees>-2.93900613673031330108642578125</LongitudeDegrees>
            </Position>
            <DistanceMeters>994.23277209883</DistanceMeters>
          </Trackpoint>
          <Trackpoint>
            <Time>2022-09-24T13:32:27.000Z</Time>
            <Position>
              <LatitudeDegrees>43.269860856235027313232421875</LatitudeDegrees>
              <LongitudeDegrees>-2.9390119202435016632080078125</LongitudeDegrees>
            </Position>
            <DistanceMeters>994.69830602311</DistanceMeters>
          </Trackpoint>
          <Trackpoint>
            <Time>2022-09-24T13:32:28.000Z</Time>
            <Position>
              <LatitudeDegrees>43.26986043713986873626708984375</LatitudeDegrees>
              <LongitudeDegrees>-2.93901778757572174072265625</LongitudeDegrees>
            </Position>
            <DistanceMeters>995.16383994739</DistanceMeters>
          </Trackpoint>
          <Trackpoint>
            <Time>2022-09-24T13:32:29.000Z</Time>
            <Position>
              <LatitudeDegrees>43.26985993422567844390869140625</LatitudeDegrees>
              <LongitudeDegrees>-2.9390236549079418182373046875</LongitudeDegrees>
            </Position>
            <DistanceMeters>995.63897351924</DistanceMeters>
          </Trackpoint>
          <Trackpoint>
            <Time>2022-09-24T13:32:30.000Z</Time>
            <Position>
              <LatitudeDegrees>43.2698593474924564361572265625</LatitudeDegrees>
              <LongitudeDegrees>-2.93902985751628875732421875</LongitudeDegrees>
            </Position>
            <DistanceMeters>996.1418076275</DistanceMeters>
          </Trackpoint>
          <Trackpoint>
            <Time>2022-09-24T13:32:31.000Z</Time>
            <Position>
              <LatitudeDegrees>43.2698585093021392822265625</LatitudeDegrees>
              <LongitudeDegrees>-2.93903580866754055023193359375</LongitudeDegrees>
            </Position>
            <DistanceMeters>996.64464173576</DistanceMeters>
          </Trackpoint>
          <Trackpoint>
            <Time>2022-09-24T13:32:32.000Z</Time>
            <Position>
              <LatitudeDegrees>43.269857503473758697509765625</LatitudeDegrees>
              <LongitudeDegrees>-2.9390417598187923431396484375</LongitudeDegrees>
            </Position>
            <DistanceMeters>997.14747584402</DistanceMeters>
          </Trackpoint>
          <Trackpoint>
            <Time>2022-09-24T13:32:33.000Z</Time>
            <Position>
              <LatitudeDegrees>43.2698563300073146820068359375</LatitudeDegrees>
              <LongitudeDegrees>-2.93904771097004413604736328125</LongitudeDegrees>
            </Position>
            <DistanceMeters>997.65030995228</DistanceMeters>
          </Trackpoint>
          <Trackpoint>
            <Time>2022-09-24T13:32:34.000Z</Time>
            <Position>
              <LatitudeDegrees>43.26985515654087066650390625</LatitudeDegrees>
              <LongitudeDegrees>-2.93905374594032764434814453125</LongitudeDegrees>
            </Position>
            <DistanceMeters>998.16204447024</DistanceMeters>
          </Trackpoint>
          <Trackpoint>
            <Time>2022-09-24T13:32:35.000Z</Time>
            <Position>
              <LatitudeDegrees>43.26985406689345836639404296875</LatitudeDegrees>
              <LongitudeDegrees>-2.93905994854867458343505859375</LongitudeDegrees>
            </Position>
            <DistanceMeters>998.6825272205</DistanceMeters>
          </Trackpoint>
          <Trackpoint>
            <Time>2022-09-24T13:32:36.000Z</Time>
            <Position>
              <LatitudeDegrees>43.2698529772460460662841796875</LatitudeDegrees>
              <LongitudeDegrees>-2.93906606733798980712890625</LongitudeDegrees>
            </Position>
            <DistanceMeters>999.19426173847</DistanceMeters>
          </Trackpoint>
          <Trackpoint>
            <Time>2022-09-24T13:32:37.000Z</Time>
            <Position>
              <LatitudeDegrees>43.26985188759863376617431640625</LatitudeDegrees>
              <LongitudeDegrees>-2.93907252140343189239501953125</LongitudeDegrees>
            </Position>
            <DistanceMeters>999.72334809225</DistanceMeters>
          </Trackpoint>
          <Trackpoint>
            <Time>2022-09-24T13:32:38.000Z</Time>
            <Position>
              <LatitudeDegrees>43.26985113322734832763671875</LatitudeDegrees>
              <LongitudeDegrees>-2.93907905928790569305419921875</LongitudeDegrees>
            </Position>
            <DistanceMeters>1000.2609003653</DistanceMeters>
          </Trackpoint>
          <Trackpoint>
            <Time>2022-09-24T13:32:39.000Z</Time>
            <Position>
              <LatitudeDegrees>43.2698504626750946044921875</LatitudeDegrees>
              <LongitudeDegrees>-2.9390855133533477783203125</LongitudeDegrees>
            </Position>
            <DistanceMeters>1000.7984526383</DistanceMeters>
          </Trackpoint>
          <Trackpoint>
            <Time>2022-09-24T13:32:40.000Z</Time>
            <Position>
              <LatitudeDegrees>43.26984979212284088134765625</LatitudeDegrees>
              <LongitudeDegrees>-2.939092218875885009765625</LongitudeDegrees>
            </Position>
            <DistanceMeters>1001.3525488385</DistanceMeters>
          </Trackpoint>
          <Trackpoint>
            <Time>2022-09-24T13:32:41.000Z</Time>
            <Position>
              <LatitudeDegrees>43.26984920538961887359619140625</LatitudeDegrees>
              <LongitudeDegrees>-2.93909900821745395660400390625</LongitudeDegrees>
            </Position>
            <DistanceMeters>1001.9066450387</DistanceMeters>
          </Trackpoint>
          <Trackpoint>
            <Time>2022-09-24T13:32:42.000Z</Time>
            <Position>
              <LatitudeDegrees>43.269849121570587158203125</LatitudeDegrees>
              <LongitudeDegrees>-2.9391057975590229034423828125</LongitudeDegrees>
            </Position>
            <DistanceMeters>1002.4441973117</DistanceMeters>
          </Trackpoint>
          <Trackpoint>
            <Time>2022-09-24T13:32:43.000Z</Time>
            <Position>
              <LatitudeDegrees>43.26984903775155544281005859375</LatitudeDegrees>
              <LongitudeDegrees>-2.93911258690059185028076171875</LongitudeDegrees>
            </Position>
            <DistanceMeters>1002.9900842255</DistanceMeters>
          </Trackpoint>
          <Trackpoint>
            <Time>2022-09-24T13:32:44.000Z</Time>
            <Position>
              <LatitudeDegrees>43.269849121570587158203125</LatitudeDegrees>
              <LongitudeDegrees>-2.939119376242160797119140625</LongitudeDegrees>
            </Position>
            <DistanceMeters>1003.5359711393</DistanceMeters>
          </Trackpoint>
          <Trackpoint>
            <Time>2022-09-24T13:32:45.000Z</Time>
            <Position>
              <LatitudeDegrees>43.2698492892086505889892578125</LatitudeDegrees>
              <LongitudeDegrees>-2.93912616558372974395751953125</LongitudeDegrees>
            </Position>
            <DistanceMeters>1004.0735234123</DistanceMeters>
          </Trackpoint>
          <Trackpoint>
            <Time>2022-09-24T13:32:46.000Z</Time>
            <Position>
              <LatitudeDegrees>43.26984954066574573516845703125</LatitudeDegrees>
              <LongitudeDegrees>-2.93913287110626697540283203125</LongitudeDegrees>
            </Position>
            <DistanceMeters>1004.6194103261</DistanceMeters>
          </Trackpoint>
          <Trackpoint>
            <Time>2022-09-24T13:32:47.000Z</Time>
            <Position>
              <LatitudeDegrees>43.26984970830380916595458984375</LatitudeDegrees>
              <LongitudeDegrees>-2.93913924135267734527587890625</LongitudeDegrees>
            </Position>
            <DistanceMeters>1005.1398930763</DistanceMeters>
          </Trackpoint>
          <Trackpoint>
            <Time>2022-09-24T13:32:48.000Z</Time>
            <Position>
              <LatitudeDegrees>43.26984970830380916595458984375</LatitudeDegrees>
              <LongitudeDegrees>-2.93914527632296085357666015625</LongitudeDegrees>
            </Position>
            <DistanceMeters>1005.6427271846</DistanceMeters>
          </Trackpoint>
          <Trackpoint>
            <Time>2022-09-24T13:32:49.000Z</Time>
            <Position>
              <LatitudeDegrees>43.2698496244847774505615234375</LatitudeDegrees>
              <LongitudeDegrees>-2.9391510598361492156982421875</LongitudeDegrees>
            </Position>
            <DistanceMeters>1006.1178607564</DistanceMeters>
          </Trackpoint>
          <Trackpoint>
            <Time>2022-09-24T13:32:50.000Z</Time>
            <Position>
              <LatitudeDegrees>43.269849456846714019775390625</LatitudeDegrees>
              <LongitudeDegrees>-2.9391567595303058624267578125</LongitudeDegrees>
            </Position>
            <DistanceMeters>1006.5833946807</DistanceMeters>
          </Trackpoint>
          <Trackpoint>
            <Time>2022-09-24T13:32:51.000Z</Time>
            <Position>
              <LatitudeDegrees>43.26984920538961887359619140625</LatitudeDegrees>
              <LongitudeDegrees>-2.93916262686252593994140625</LongitudeDegrees>
            </Position>
            <DistanceMeters>1007.0679377516</DistanceMeters>
          </Trackpoint>
          <Trackpoint>
            <Time>2022-09-24T13:32:52.000Z</Time>
            <Position>
              <LatitudeDegrees>43.269848786294460296630859375</LatitudeDegrees>
              <LongitudeDegrees>-2.93916891328990459442138671875</LongitudeDegrees>
            </Position>
            <DistanceMeters>1007.5884205019</DistanceMeters>
          </Trackpoint>
          <Trackpoint>
            <Time>2022-09-24T13:32:53.000Z</Time>
            <Position>
              <LatitudeDegrees>43.269848115742206573486328125</LatitudeDegrees>
              <LongitudeDegrees>-2.93917511589825153350830078125</LongitudeDegrees>
            </Position>
            <DistanceMeters>1008.0912546101</DistanceMeters>
          </Trackpoint>
          <Trackpoint>
            <Time>2022-09-24T13:32:54.000Z</Time>
            <Position>
              <LatitudeDegrees>43.26984769664704799652099609375</LatitudeDegrees>
              <LongitudeDegrees>-2.93918131850659847259521484375</LongitudeDegrees>
            </Position>
            <DistanceMeters>1008.5940887184</DistanceMeters>
          </Trackpoint>
          <Trackpoint>
            <Time>2022-09-24T13:32:55.000Z</Time>
            <Position>
              <LatitudeDegrees>43.26984736137092113494873046875</LatitudeDegrees>
              <LongitudeDegrees>-2.939187772572040557861328125</LongitudeDegrees>
            </Position>
            <DistanceMeters>1009.1145714686</DistanceMeters>
          </Trackpoint>
          <Trackpoint>
            <Time>2022-09-24T13:32:56.000Z</Time>
            <Position>
              <LatitudeDegrees>43.26984769664704799652099609375</LatitudeDegrees>
              <LongitudeDegrees>-2.93919481337070465087890625</LongitudeDegrees>
            </Position>
            <DistanceMeters>1009.6847317549</DistanceMeters>
          </Trackpoint>
          <Trackpoint>
            <Time>2022-09-24T13:32:57.000Z</Time>
            <Position>
              <LatitudeDegrees>43.26984803192317485809326171875</LatitudeDegrees>
              <LongitudeDegrees>-2.93920193798840045928955078125</LongitudeDegrees>
            </Position>
            <DistanceMeters>1010.2705157636</DistanceMeters>
          </Trackpoint>
          <Trackpoint>
            <Time>2022-09-24T13:32:58.000Z</Time>
            <Position>
              <LatitudeDegrees>43.26984803192317485809326171875</LatitudeDegrees>
              <LongitudeDegrees>-2.93920864351093769073486328125</LongitudeDegrees>
            </Position>
            <DistanceMeters>1010.8246119638</DistanceMeters>
          </Trackpoint>
          <Trackpoint>
            <Time>2022-09-24T13:32:59.000Z</Time>
            <Position>
              <LatitudeDegrees>43.2698479481041431427001953125</LatitudeDegrees>
              <LongitudeDegrees>-2.93921518139541149139404296875</LongitudeDegrees>
            </Position>
            <DistanceMeters>1011.3621642368</DistanceMeters>
          </Trackpoint>
          <Trackpoint>
            <Time>2022-09-24T13:33:00.000Z</Time>
            <Position>
              <LatitudeDegrees>43.26984786428511142730712890625</LatitudeDegrees>
              <LongitudeDegrees>-2.93922188691794872283935546875</LongitudeDegrees>
            </Position>
            <DistanceMeters>1011.9080511506</DistanceMeters>
          </Trackpoint>
          <Trackpoint>
            <Time>2022-09-24T13:33:01.000Z</Time>
            <Position>
              <LatitudeDegrees>43.269847445189952850341796875</LatitudeDegrees>
              <LongitudeDegrees>-2.93922842480242252349853515625</LongitudeDegrees>
            </Position>
            <DistanceMeters>1012.4371375044</DistanceMeters>
          </Trackpoint>
          <Trackpoint>
            <Time>2022-09-24T13:33:02.000Z</Time>
            <Position>
              <LatitudeDegrees>43.26984669081866741180419921875</LatitudeDegrees>
              <LongitudeDegrees>-2.93923504650592803955078125</LongitudeDegrees>
            </Position>
            <DistanceMeters>1012.9746897774</DistanceMeters>
          </Trackpoint>
          <Trackpoint>
            <Time>2022-09-24T13:33:03.000Z</Time>
            <Position>
              <LatitudeDegrees>43.26984585262835025787353515625</LatitudeDegrees>
              <LongitudeDegrees>-2.93924175202846527099609375</LongitudeDegrees>
            </Position>
            <DistanceMeters>1013.5287859776</DistanceMeters>
          </Trackpoint>
          <Trackpoint>
            <Time>2022-09-24T13:33:04.000Z</Time>
            <Position>
              <LatitudeDegrees>43.26984501443803310394287109375</LatitudeDegrees>
              <LongitudeDegrees>-2.9392482899129390716552734375</LongitudeDegrees>
            </Position>
            <DistanceMeters>1014.0663382506</DistanceMeters>
          </Trackpoint>
          <Trackpoint>
            <Time>2022-09-24T13:33:05.000Z</Time>
            <Position>
              <LatitudeDegrees>43.2698442600667476654052734375</LatitudeDegrees>
              <LongitudeDegrees>-2.93925474397838115692138671875</LongitudeDegrees>
            </Position>
            <DistanceMeters>1014.5868210008</DistanceMeters>
          </Trackpoint>
          <Trackpoint>
            <Time>2022-09-24T13:33:06.000Z</Time>
            <Position>
              <LatitudeDegrees>43.26984333805739879608154296875</LatitudeDegrees>
              <LongitudeDegrees>-2.9392610304057598114013671875</LongitudeDegrees>
            </Position>
            <DistanceMeters>1015.1159073546</DistanceMeters>
          </Trackpoint>
          <Trackpoint>
            <Time>2022-09-24T13:33:07.000Z</Time>
            <Position>
              <LatitudeDegrees>43.2698424160480499267578125</LatitudeDegrees>
              <LongitudeDegrees>-2.93926714919507503509521484375</LongitudeDegrees>
            </Position>
            <DistanceMeters>1015.6363901049</DistanceMeters>
          </Trackpoint>
          <Trackpoint>
            <Time>2022-09-24T13:33:08.000Z</Time>
            <Position>
              <LatitudeDegrees>43.26984132640063762664794921875</LatitudeDegrees>
              <LongitudeDegrees>-2.9392732679843902587890625</LongitudeDegrees>
            </Position>
            <DistanceMeters>1016.1392242132</DistanceMeters>
          </Trackpoint>
          <Trackpoint>
            <Time>2022-09-24T13:33:09.000Z</Time>
            <Position>
              <LatitudeDegrees>43.26984015293419361114501953125</LatitudeDegrees>
              <LongitudeDegrees>-2.93927938677370548248291015625</LongitudeDegrees>
            </Position>
            <DistanceMeters>1016.6420583214</DistanceMeters>
          </Trackpoint>
          <Trackpoint>
            <Time>2022-09-24T13:33:10.000Z</Time>
            <Position>
              <LatitudeDegrees>43.26983881182968616485595703125</LatitudeDegrees>
              <LongitudeDegrees>-2.93928575702011585235595703125</LongitudeDegrees>
            </Position>
            <DistanceMeters>1017.1961545216</DistanceMeters>
          </Trackpoint>
          <Trackpoint>
            <Time>2022-09-24T13:33:11.000Z</Time>
            <Position>
              <LatitudeDegrees>43.269837386906147003173828125</LatitudeDegrees>
              <LongitudeDegrees>-2.93929195962846279144287109375</LongitudeDegrees>
            </Position>
            <DistanceMeters>1017.7252408754</DistanceMeters>
          </Trackpoint>
          <Trackpoint>
            <Time>2022-09-24T13:33:12.000Z</Time>
            <Position>
              <LatitudeDegrees>43.2698362134397029876708984375</LatitudeDegrees>
              <LongitudeDegrees>-2.9392982460558414459228515625</LongitudeDegrees>
            </Position>
            <DistanceMeters>1018.2543272292</DistanceMeters>
          </Trackpoint>
          <Trackpoint>
            <Time>2022-09-24T13:33:13.000Z</Time>
            <Position>
              <LatitudeDegrees>43.2698352076113224029541015625</LatitudeDegrees>
              <LongitudeDegrees>-2.93930470012128353118896484375</LongitudeDegrees>
            </Position>
            <DistanceMeters>1018.7918795022</DistanceMeters>
          </Trackpoint>
          <Trackpoint>
            <Time>2022-09-24T13:33:14.000Z</Time>
            <Position>
              <LatitudeDegrees>43.2698342017829418182373046875</LatitudeDegrees>
              <LongitudeDegrees>-2.93931107036769390106201171875</LongitudeDegrees>
            </Position>
            <DistanceMeters>1019.320965856</DistanceMeters>
          </Trackpoint>
          <Trackpoint>
            <Time>2022-09-24T13:33:15.000Z</Time>
            <Position>
              <LatitudeDegrees>43.2698331959545612335205078125</LatitudeDegrees>
              <LongitudeDegrees>-2.9393173567950725555419921875</LongitudeDegrees>
            </Position>
            <DistanceMeters>1019.8414486063</DistanceMeters>
          </Trackpoint>
          <Trackpoint>
            <Time>2022-09-24T13:33:16.000Z</Time>
            <Position>
              <LatitudeDegrees>43.26983227394521236419677734375</LatitudeDegrees>
              <LongitudeDegrees>-2.93932355940341949462890625</LongitudeDegrees>
            </Position>
            <DistanceMeters>1020.3531831242</DistanceMeters>
          </Trackpoint>
          <Trackpoint>
            <Time>2022-09-24T13:33:17.000Z</Time>
            <Position>
              <LatitudeDegrees>43.269831351935863494873046875</LatitudeDegrees>
              <LongitudeDegrees>-2.93932984583079814910888671875</LongitudeDegrees>
            </Position>
            <DistanceMeters>1020.8736658745</DistanceMeters>
          </Trackpoint>
          <Trackpoint>
            <Time>2022-09-24T13:33:18.000Z</Time>
            <Position>
              <LatitudeDegrees>43.2698305137455463409423828125</LatitudeDegrees>
              <LongitudeDegrees>-2.93933604843914508819580078125</LongitudeDegrees>
            </Position>
            <DistanceMeters>1021.3854003924</DistanceMeters>
          </Trackpoint>
          <Trackpoint>
            <Time>2022-09-24T13:33:19.000Z</Time>
            <Position>
              <LatitudeDegrees>43.26982959173619747161865234375</LatitudeDegrees>
              <LongitudeDegrees>-2.939341999590396881103515625</LongitudeDegrees>
            </Position>
            <DistanceMeters>1021.8882345007</DistanceMeters>
          </Trackpoint>
          <Trackpoint>
            <Time>2022-09-24T13:33:20.000Z</Time>
            <Position>
              <LatitudeDegrees>43.26982841826975345611572265625</LatitudeDegrees>
              <LongitudeDegrees>-2.93934828601777553558349609375</LongitudeDegrees>
            </Position>
            <DistanceMeters>1022.408717251</DistanceMeters>
          </Trackpoint>
          <Trackpoint>
            <Time>2022-09-24T13:33:21.000Z</Time>
            <Position>
              <LatitudeDegrees>43.26982724480330944061279296875</LatitudeDegrees>
              <LongitudeDegrees>-2.93935432098805904388427734375</LongitudeDegrees>
            </Position>
            <DistanceMeters>1022.9115513592</DistanceMeters>
          </Trackpoint>
          <Trackpoint>
            <Time>2022-09-24T13:33:22.000Z</Time>
            <Position>
              <LatitudeDegrees>43.26982590369880199432373046875</LatitudeDegrees>
              <LongitudeDegrees>-2.939360439777374267578125</LongitudeDegrees>
            </Position>
            <DistanceMeters>1023.4320341095</DistanceMeters>
          </Trackpoint>
          <Trackpoint>
            <Time>2022-09-24T13:33:23.000Z</Time>
            <Position>
              <LatitudeDegrees>43.2698241434991359710693359375</LatitudeDegrees>
              <LongitudeDegrees>-2.93936647474765777587890625</LongitudeDegrees>
            </Position>
            <DistanceMeters>1023.9611204633</DistanceMeters>
          </Trackpoint>
          <Trackpoint>
            <Time>2022-09-24T13:33:24.000Z</Time>
            <Position>
              <LatitudeDegrees>43.269822299480438232421875</LatitudeDegrees>
              <LongitudeDegrees>-2.9393726773560047149658203125</LongitudeDegrees>
            </Position>
            <DistanceMeters>1024.5152166635</DistanceMeters>
          </Trackpoint>
          <Trackpoint>
            <Time>2022-09-24T13:33:25.000Z</Time>
            <Position>
              <LatitudeDegrees>43.26982053928077220916748046875</LatitudeDegrees>
              <LongitudeDegrees>-2.9393787123262882232666015625</LongitudeDegrees>
            </Position>
            <DistanceMeters>1025.0443030173</DistanceMeters>
          </Trackpoint>
          <Trackpoint>
            <Time>2022-09-24T13:33:26.000Z</Time>
            <Position>
              <LatitudeDegrees>43.269818611443042755126953125</LatitudeDegrees>
              <LongitudeDegrees>-2.9393847472965717315673828125</LongitudeDegrees>
            </Position>
            <DistanceMeters>1025.5733893711</DistanceMeters>
          </Trackpoint>
          <Trackpoint>
            <Time>2022-09-24T13:33:27.000Z</Time>
            <Position>
              <LatitudeDegrees>43.2698167674243450164794921875</LatitudeDegrees>
              <LongitudeDegrees>-2.93939086608588695526123046875</LongitudeDegrees>
            </Position>
            <DistanceMeters>1026.0938721213</DistanceMeters>
          </Trackpoint>
          <Trackpoint>
            <Time>2022-09-24T13:33:28.000Z</Time>
            <Position>
              <LatitudeDegrees>43.26981483958661556243896484375</LatitudeDegrees>
              <LongitudeDegrees>-2.939396984875202178955078125</LongitudeDegrees>
            </Position>
            <DistanceMeters>1026.6314243943</DistanceMeters>
          </Trackpoint>
          <Trackpoint>
            <Time>2022-09-24T13:33:29.000Z</Time>
            <Position>
              <LatitudeDegrees>43.269813247025012969970703125</LatitudeDegrees>
              <LongitudeDegrees>-2.939403019845485687255859375</LongitudeDegrees>
            </Position>
            <DistanceMeters>1027.1519071446</DistanceMeters>
          </Trackpoint>
          <Trackpoint>
            <Time>2022-09-24T13:33:30.000Z</Time>
            <Position>
              <LatitudeDegrees>43.26981165446341037750244140625</LatitudeDegrees>
              <LongitudeDegrees>-2.93940897099673748016357421875</LongitudeDegrees>
            </Position>
            <DistanceMeters>1027.6723898948</DistanceMeters>
          </Trackpoint>
          <Trackpoint>
            <Time>2022-09-24T13:33:31.000Z</Time>
            <Position>
              <LatitudeDegrees>43.26980997808277606964111328125</LatitudeDegrees>
              <LongitudeDegrees>-2.93941467069089412689208984375</LongitudeDegrees>
            </Position>
            <DistanceMeters>1028.1752240031</DistanceMeters>
          </Trackpoint>
          <Trackpoint>
            <Time>2022-09-24T13:33:32.000Z</Time>
            <Position>
              <LatitudeDegrees>43.26980830170214176177978515625</LatitudeDegrees>
              <LongitudeDegrees>-2.9394202865660190582275390625</LongitudeDegrees>
            </Position>
            <DistanceMeters>1028.659767074</DistanceMeters>
          </Trackpoint>
          <Trackpoint>
            <Time>2022-09-24T13:33:33.000Z</Time>
            <Position>
              <LatitudeDegrees>43.26980687677860260009765625</LatitudeDegrees>
              <LongitudeDegrees>-2.9394256509840488433837890625</LongitudeDegrees>
            </Position>
            <DistanceMeters>1029.1253009983</DistanceMeters>
          </Trackpoint>
          <Trackpoint>
            <Time>2022-09-24T13:33:34.000Z</Time>
            <Position>
              <LatitudeDegrees>43.26980545185506343841552734375</LatitudeDegrees>
              <LongitudeDegrees>-2.93943093158304691314697265625</LongitudeDegrees>
            </Position>
            <DistanceMeters>1029.5908349225</DistanceMeters>
          </Trackpoint>
          <Trackpoint>
            <Time>2022-09-24T13:33:35.000Z</Time>
            <Position>
              <LatitudeDegrees>43.2698040269315242767333984375</LatitudeDegrees>
              <LongitudeDegrees>-2.93943596072494983673095703125</LongitudeDegrees>
            </Position>
            <DistanceMeters>1030.0365497212</DistanceMeters>
          </Trackpoint>
          <Trackpoint>
            <Time>2022-09-24T13:33:36.000Z</Time>
            <Position>
              <LatitudeDegrees>43.269802518188953399658203125</LatitudeDegrees>
              <LongitudeDegrees>-2.9394407384097576141357421875</LongitudeDegrees>
            </Position>
            <DistanceMeters>1030.4615221072</DistanceMeters>
          </Trackpoint>
          <Trackpoint>
            <Time>2022-09-24T13:33:37.000Z</Time>
            <Position>
              <LatitudeDegrees>43.26980059035122394561767578125</LatitudeDegrees>
              <LongitudeDegrees>-2.93944484554231166839599609375</LongitudeDegrees>
            </Position>
            <DistanceMeters>1030.8533272878</DistanceMeters>
          </Trackpoint>
          <Trackpoint>
            <Time>2022-09-24T13:33:38.000Z</Time>
            <Position>
              <LatitudeDegrees>43.2697986625134944915771484375</LatitudeDegrees>
              <LongitudeDegrees>-2.93944886885583400726318359375</LongitudeDegrees>
            </Position>
            <DistanceMeters>1031.2451324685</DistanceMeters>
          </Trackpoint>
          <Trackpoint>
            <Time>2022-09-24T13:33:39.000Z</Time>
            <Position>
              <LatitudeDegrees>43.26979706995189189910888671875</LatitudeDegrees>
              <LongitudeDegrees>-2.9394531436264514923095703125</LongitudeDegrees>
            </Position>
            <DistanceMeters>1031.6369376491</DistanceMeters>
          </Trackpoint>
          <Trackpoint>
            <Time>2022-09-24T13:33:40.000Z</Time>
            <Position>
              <LatitudeDegrees>43.26979556120932102203369140625</LatitudeDegrees>
              <LongitudeDegrees>-2.9394575022161006927490234375</LongitudeDegrees>
            </Position>
            <DistanceMeters>1032.0401018538</DistanceMeters>
          </Trackpoint>
          <Trackpoint>
            <Time>2022-09-24T13:33:41.000Z</Time>
            <Position>
              <LatitudeDegrees>43.269793801009654998779296875</LatitudeDegrees>
              <LongitudeDegrees>-2.93946211226284503936767578125</LongitudeDegrees>
            </Position>
            <DistanceMeters>1032.4432660586</DistanceMeters>
          </Trackpoint>
          <Trackpoint>
            <Time>2022-09-24T13:33:42.000Z</Time>
            <Position>
              <LatitudeDegrees>43.26979204080998897552490234375</LatitudeDegrees>
              <LongitudeDegrees>-2.93946663849055767059326171875</LongitudeDegrees>
            </Position>
            <DistanceMeters>1032.8682384446</DistanceMeters>
          </Trackpoint>
          <Trackpoint>
            <Time>2022-09-24T13:33:43.000Z</Time>
            <Position>
              <LatitudeDegrees>43.2697902806103229522705078125</LatitudeDegrees>
              <LongitudeDegrees>-2.93947082944214344024658203125</LongitudeDegrees>
            </Position>
            <DistanceMeters>1033.2714026493</DistanceMeters>
          </Trackpoint>
          <Trackpoint>
            <Time>2022-09-24T13:33:44.000Z</Time>
            <Position>
              <LatitudeDegrees>43.26978852041065692901611328125</LatitudeDegrees>
              <LongitudeDegrees>-2.9394749365746974945068359375</LongitudeDegrees>
            </Position>
            <DistanceMeters>1033.6515095068</DistanceMeters>
          </Trackpoint>
          <Trackpoint>
            <Time>2022-09-24T13:33:45.000Z</Time>
            <Position>
              <LatitudeDegrees>43.2697865925729274749755859375</LatitudeDegrees>
              <LongitudeDegrees>-2.9394789598882198333740234375</LongitudeDegrees>
            </Position>
            <DistanceMeters>1034.0433146874</DistanceMeters>
          </Trackpoint>
          <Trackpoint>
            <Time>2022-09-24T13:33:46.000Z</Time>
            <Position>
              <LatitudeDegrees>43.26978466473519802093505859375</LatitudeDegrees>
              <LongitudeDegrees>-2.93948306702077388763427734375</LongitudeDegrees>
            </Position>
            <DistanceMeters>1034.4464788922</DistanceMeters>
          </Trackpoint>
          <Trackpoint>
            <Time>2022-09-24T13:33:47.000Z</Time>
            <Position>
              <LatitudeDegrees>43.2697829045355319976806640625</LatitudeDegrees>
              <LongitudeDegrees>-2.93948709033429622650146484375</LongitudeDegrees>
            </Position>
            <DistanceMeters>1034.8265857496</DistanceMeters>
          </Trackpoint>
          <Trackpoint>
            <Time>2022-09-24T13:33:48.000Z</Time>
            <Position>
              <LatitudeDegrees>43.26978114433586597442626953125</LatitudeDegrees>
              <LongitudeDegrees>-2.93949128128588199615478515625</LongitudeDegrees>
            </Position>
            <DistanceMeters>1035.2066926071</DistanceMeters>
          </Trackpoint>
          <Trackpoint>
            <Time>2022-09-24T13:33:49.000Z</Time>
            <Position>
              <LatitudeDegrees>43.26977946795523166656494140625</LatitudeDegrees>
              <LongitudeDegrees>-2.9394953884184360504150390625</LongitudeDegrees>
            </Position>
            <DistanceMeters>1035.5867994646</DistanceMeters>
          </Trackpoint>
          <Trackpoint>
            <Time>2022-09-24T13:33:50.000Z</Time>
            <Position>
              <LatitudeDegrees>43.269777707755565643310546875</LatitudeDegrees>
              <LongitudeDegrees>-2.93949966318905353546142578125</LongitudeDegrees>
            </Position>
            <DistanceMeters>1035.9786046452</DistanceMeters>
          </Trackpoint>
          <Trackpoint>
            <Time>2022-09-24T13:33:51.000Z</Time>
            <Position>
              <LatitudeDegrees>43.26977603137493133544921875</LatitudeDegrees>
              <LongitudeDegrees>-2.93950385414063930511474609375</LongitudeDegrees>
            </Position>
            <DistanceMeters>1036.3587115027</DistanceMeters>
          </Trackpoint>
          <Trackpoint>
            <Time>2022-09-24T13:33:52.000Z</Time>
            <Position>
              <LatitudeDegrees>43.26977427117526531219482421875</LatitudeDegrees>
              <LongitudeDegrees>-2.93950804509222507476806640625</LongitudeDegrees>
            </Position>
            <DistanceMeters>1036.7618757074</DistanceMeters>
          </Trackpoint>
          <Trackpoint>
            <Time>2022-09-24T13:33:53.000Z</Time>
            <Position>
              <LatitudeDegrees>43.2697725109755992889404296875</LatitudeDegrees>
              <LongitudeDegrees>-2.9395121522247791290283203125</LongitudeDegrees>
            </Position>
            <DistanceMeters>1037.1419825649</DistanceMeters>
          </Trackpoint>
          <Trackpoint>
            <Time>2022-09-24T13:33:54.000Z</Time>
            <Position>
              <LatitudeDegrees>43.26977075077593326568603515625</LatitudeDegrees>
              <LongitudeDegrees>-2.93951625935733318328857421875</LongitudeDegrees>
            </Position>
            <DistanceMeters>1037.5220894224</DistanceMeters>
          </Trackpoint>
          <Trackpoint>
            <Time>2022-09-24T13:33:55.000Z</Time>
            <Position>
              <LatitudeDegrees>43.26976907439529895782470703125</LatitudeDegrees>
              <LongitudeDegrees>-2.93952028267085552215576171875</LongitudeDegrees>
            </Position>
            <DistanceMeters>1037.9021962799</DistanceMeters>
          </Trackpoint>
          <Trackpoint>
            <Time>2022-09-24T13:33:56.000Z</Time>
            <Position>
              <LatitudeDegrees>43.26976739801466464996337890625</LatitudeDegrees>
              <LongitudeDegrees>-2.9395245574414730072021484375</LongitudeDegrees>
            </Position>
            <DistanceMeters>1038.2823031373</DistanceMeters>
          </Trackpoint>
          <Trackpoint>
            <Time>2022-09-24T13:33:57.000Z</Time>
            <Position>
              <LatitudeDegrees>43.2697658054530620574951171875</LatitudeDegrees>
              <LongitudeDegrees>-2.93952849693596363067626953125</LongitudeDegrees>
            </Position>
            <DistanceMeters>1038.6378605451</DistanceMeters>
          </Trackpoint>
          <Trackpoint>
            <Time>2022-09-24T13:33:58.000Z</Time>
            <Position>
              <LatitudeDegrees>43.26976396143436431884765625</LatitudeDegrees>
              <LongitudeDegrees>-2.939532436430454254150390625</LongitudeDegrees>
            </Position>
            <DistanceMeters>1039.0179674026</DistanceMeters>
          </Trackpoint>
          <Trackpoint>
            <Time>2022-09-24T13:33:59.000Z</Time>
            <Position>
              <LatitudeDegrees>43.26976220123469829559326171875</LatitudeDegrees>
              <LongitudeDegrees>-2.93953620828688144683837890625</LongitudeDegrees>
            </Position>
            <DistanceMeters>1039.3735248104</DistanceMeters>
          </Trackpoint>
          <Trackpoint>
            <Time>2022-09-24T13:34:00.000Z</Time>
            <Position>
              <LatitudeDegrees>43.2697601057589054107666015625</LatitudeDegrees>
              <LongitudeDegrees>-2.9395399801433086395263671875</LongitudeDegrees>
            </Position>
            <DistanceMeters>1039.7536316678</DistanceMeters>
          </Trackpoint>
          <Trackpoint>
            <Time>2022-09-24T13:34:01.000Z</Time>
            <Position>
              <LatitudeDegrees>43.26975817792117595672607421875</LatitudeDegrees>
              <LongitudeDegrees>-2.93954358436167240142822265625</LongitudeDegrees>
            </Position>
            <DistanceMeters>1040.1091890756</DistanceMeters>
          </Trackpoint>
          <Trackpoint>
            <Time>2022-09-24T13:34:02.000Z</Time>
            <Position>
              <LatitudeDegrees>43.26975633390247821807861328125</LatitudeDegrees>
              <LongitudeDegrees>-2.9395473562180995941162109375</LongitudeDegrees>
            </Position>
            <DistanceMeters>1040.4772259578</DistanceMeters>
          </Trackpoint>
          <Trackpoint>
            <Time>2022-09-24T13:34:03.000Z</Time>
            <Position>
              <LatitudeDegrees>43.2697547413408756256103515625</LatitudeDegrees>
              <LongitudeDegrees>-2.93955096043646335601806640625</LongitudeDegrees>
            </Position>
            <DistanceMeters>1040.8327833656</DistanceMeters>
          </Trackpoint>
          <Trackpoint>
            <Time>2022-09-24T13:34:04.000Z</Time>
            <Position>
              <LatitudeDegrees>43.26975348405539989471435546875</LatitudeDegrees>
              <LongitudeDegrees>-2.93955448083579540252685546875</LongitudeDegrees>
            </Position>
            <DistanceMeters>1041.1479513222</DistanceMeters>
          </Trackpoint>
          <Trackpoint>
            <Time>2022-09-24T13:34:05.000Z</Time>
            <Position>
              <LatitudeDegrees>43.269752226769924163818359375</LatitudeDegrees>
              <LongitudeDegrees>-2.939557917416095733642578125</LongitudeDegrees>
            </Position>
            <DistanceMeters>1041.4484521782</DistanceMeters>
          </Trackpoint>
          <Trackpoint>
            <Time>2022-09-24T13:34:06.000Z</Time>
            <Position>
              <LatitudeDegrees>43.26975130476057529449462890625</LatitudeDegrees>
              <LongitudeDegrees>-2.9395617730915546417236328125</LongitudeDegrees>
            </Position>
            <DistanceMeters>1041.7776343729</DistanceMeters>
          </Trackpoint>
          <Trackpoint>
            <Time>2022-09-24T13:34:07.000Z</Time>
            <Position>
              <LatitudeDegrees>43.2697503827512264251708984375</LatitudeDegrees>
              <LongitudeDegrees>-2.93956571258604526519775390625</LongitudeDegrees>
            </Position>
            <DistanceMeters>1042.1068165676</DistanceMeters>
          </Trackpoint>
          <Trackpoint>
            <Time>2022-09-24T13:34:08.000Z</Time>
            <Position>
              <LatitudeDegrees>43.2697490416467189788818359375</LatitudeDegrees>
              <LongitudeDegrees>-2.93957032263278961181640625</LongitudeDegrees>
            </Position>
            <DistanceMeters>1042.5099807724</DistanceMeters>
          </Trackpoint>
          <Trackpoint>
            <Time>2022-09-24T13:34:09.000Z</Time>
            <Position>
              <LatitudeDegrees>43.2697473652660846710205078125</LatitudeDegrees>
              <LongitudeDegrees>-2.93957510031759738922119140625</LongitudeDegrees>
            </Position>
            <DistanceMeters>1042.9349531584</DistanceMeters>
          </Trackpoint>
          <Trackpoint>
            <Time>2022-09-24T13:34:10.000Z</Time>
            <Position>
              <LatitudeDegrees>43.269745521247386932373046875</LatitudeDegrees>
              <LongitudeDegrees>-2.939580716192722320556640625</LongitudeDegrees>
            </Position>
            <DistanceMeters>1043.4377872666</DistanceMeters>
          </Trackpoint>
          <Trackpoint>
            <Time>2022-09-24T13:34:11.000Z</Time>
            <Position>
              <LatitudeDegrees>43.26974376104772090911865234375</LatitudeDegrees>
              <LongitudeDegrees>-2.93958633206784725189208984375</LongitudeDegrees>
            </Position>
            <DistanceMeters>1043.9315605587</DistanceMeters>
          </Trackpoint>
          <Trackpoint>
            <Time>2022-09-24T13:34:12.000Z</Time>
            <Position>
              <LatitudeDegrees>43.26974241994321346282958984375</LatitudeDegrees>
              <LongitudeDegrees>-2.93959186412394046783447265625</LongitudeDegrees>
            </Position>
            <DistanceMeters>1044.397094483</DistanceMeters>
          </Trackpoint>
          <Trackpoint>
            <Time>2022-09-24T13:34:13.000Z</Time>
            <Position>
              <LatitudeDegrees>43.26974141411483287811279296875</LatitudeDegrees>
              <LongitudeDegrees>-2.93959706090390682220458984375</LongitudeDegrees>
            </Position>
            <DistanceMeters>1044.8428092817</DistanceMeters>
          </Trackpoint>
          <Trackpoint>
            <Time>2022-09-24T13:34:14.000Z</Time>
            <Position>
              <LatitudeDegrees>43.269740156829357147216796875</LatitudeDegrees>
              <LongitudeDegrees>-2.9396023415029048919677734375</LongitudeDegrees>
            </Position>
            <DistanceMeters>1045.2885240804</DistanceMeters>
          </Trackpoint>
          <Trackpoint>
            <Time>2022-09-24T13:34:15.000Z</Time>
            <Position>
              <LatitudeDegrees>43.269738815724849700927734375</LatitudeDegrees>
              <LongitudeDegrees>-2.93960745446383953094482421875</LongitudeDegrees>
            </Position>
            <DistanceMeters>1045.7342388791</DistanceMeters>
          </Trackpoint>
          <Trackpoint>
            <Time>2022-09-24T13:34:16.000Z</Time>
            <Position>
              <LatitudeDegrees>43.26973739080131053924560546875</LatitudeDegrees>
              <LongitudeDegrees>-2.93961265124380588531494140625</LongitudeDegrees>
            </Position>
            <DistanceMeters>1046.1799536778</DistanceMeters>
          </Trackpoint>
          <Trackpoint>
            <Time>2022-09-24T13:34:17.000Z</Time>
            <Position>
              <LatitudeDegrees>43.269736133515834808349609375</LatitudeDegrees>
              <LongitudeDegrees>-2.9396180994808673858642578125</LongitudeDegrees>
            </Position>
            <DistanceMeters>1046.645487602</DistanceMeters>
          </Trackpoint>
          <Trackpoint>
            <Time>2022-09-24T13:34:18.000Z</Time>
            <Position>
              <LatitudeDegrees>43.26973487623035907745361328125</LatitudeDegrees>
              <LongitudeDegrees>-2.939623631536960601806640625</LongitudeDegrees>
            </Position>
            <DistanceMeters>1047.1110215263</DistanceMeters>
          </Trackpoint>
          <Trackpoint>
            <Time>2022-09-24T13:34:19.000Z</Time>
            <Position>
              <LatitudeDegrees>43.26973353512585163116455078125</LatitudeDegrees>
              <LongitudeDegrees>-2.93962941505014896392822265625</LongitudeDegrees>
            </Position>
            <DistanceMeters>1047.5955645972</DistanceMeters>
          </Trackpoint>
          <Trackpoint>
            <Time>2022-09-24T13:34:20.000Z</Time>
            <Position>
              <LatitudeDegrees>43.26973219402134418487548828125</LatitudeDegrees>
              <LongitudeDegrees>-2.93963494710624217987060546875</LongitudeDegrees>
            </Position>
            <DistanceMeters>1048.0706981691</DistanceMeters>
          </Trackpoint>
          <Trackpoint>
            <Time>2022-09-24T13:34:21.000Z</Time>
            <Position>
              <LatitudeDegrees>43.26973068527877330780029296875</LatitudeDegrees>
              <LongitudeDegrees>-2.9396405629813671112060546875</LongitudeDegrees>
            </Position>
            <DistanceMeters>1048.5644714612</DistanceMeters>
          </Trackpoint>
          <Trackpoint>
            <Time>2022-09-24T13:34:22.000Z</Time>
            <Position>
              <LatitudeDegrees>43.269729427993297576904296875</LatitudeDegrees>
              <LongitudeDegrees>-2.93964601121842861175537109375</LongitudeDegrees>
            </Position>
            <DistanceMeters>1049.0300053854</DistanceMeters>
          </Trackpoint>
          <Trackpoint>
            <Time>2022-09-24T13:34:23.000Z</Time>
            <Position>
              <LatitudeDegrees>43.269728086888790130615234375</LatitudeDegrees>
              <LongitudeDegrees>-2.93965154327452182769775390625</LongitudeDegrees>
            </Position>
            <DistanceMeters>1049.5051389573</DistanceMeters>
          </Trackpoint>
          <Trackpoint>
            <Time>2022-09-24T13:34:24.000Z</Time>
            <Position>
              <LatitudeDegrees>43.2697269134223461151123046875</LatitudeDegrees>
              <LongitudeDegrees>-2.93965690769255161285400390625</LongitudeDegrees>
            </Position>
            <DistanceMeters>1049.9608710696</DistanceMeters>
          </Trackpoint>
          <Trackpoint>
            <Time>2022-09-24T13:34:25.000Z</Time>
            <Position>
              <LatitudeDegrees>43.269725739955902099609375</LatitudeDegrees>
              <LongitudeDegrees>-2.93966260738670825958251953125</LongitudeDegrees>
            </Position>
            <DistanceMeters>1050.4454141405</DistanceMeters>
          </Trackpoint>
          <Trackpoint>
            <Time>2022-09-24T13:34:26.000Z</Time>
            <Position>
              <LatitudeDegrees>43.269724734127521514892578125</LatitudeDegrees>
              <LongitudeDegrees>-2.93966830708086490631103515625</LongitudeDegrees>
            </Position>
            <DistanceMeters>1050.9299572114</DistanceMeters>
          </Trackpoint>
          <Trackpoint>
            <Time>2022-09-24T13:34:27.000Z</Time>
            <Position>
              <LatitudeDegrees>43.26972364448010921478271484375</LatitudeDegrees>
              <LongitudeDegrees>-2.9396744258701801300048828125</LongitudeDegrees>
            </Position>
            <DistanceMeters>1051.4416917293</DistanceMeters>
          </Trackpoint>
          <Trackpoint>
            <Time>2022-09-24T13:34:28.000Z</Time>
            <Position>
              <LatitudeDegrees>43.269722722470760345458984375</LatitudeDegrees>
              <LongitudeDegrees>-2.93968054465949535369873046875</LongitudeDegrees>
            </Position>
            <DistanceMeters>1051.9445258376</DistanceMeters>
          </Trackpoint>
          <Trackpoint>
            <Time>2022-09-24T13:34:29.000Z</Time>
            <Position>
              <LatitudeDegrees>43.26972163282334804534912109375</LatitudeDegrees>
              <LongitudeDegrees>-2.93968674726784229278564453125</LongitudeDegrees>
            </Position>
            <DistanceMeters>1052.4650085879</DistanceMeters>
          </Trackpoint>
          <Trackpoint>
            <Time>2022-09-24T13:34:30.000Z</Time>
            <Position>
              <LatitudeDegrees>43.269720710813999176025390625</LatitudeDegrees>
              <LongitudeDegrees>-2.939692698419094085693359375</LongitudeDegrees>
            </Position>
            <DistanceMeters>1052.9678426961</DistanceMeters>
          </Trackpoint>
          <Trackpoint>
            <Time>2022-09-24T13:34:31.000Z</Time>
            <Position>
              <LatitudeDegrees>43.2697198726236820220947265625</LatitudeDegrees>
              <LongitudeDegrees>-2.939698733389377593994140625</LongitudeDegrees>
            </Position>
            <DistanceMeters>1053.4706768044</DistanceMeters>
          </Trackpoint>
          <Trackpoint>
            <Time>2022-09-24T13:34:32.000Z</Time>
            <Position>
              <LatitudeDegrees>43.26971911825239658355712890625</LatitudeDegrees>
              <LongitudeDegrees>-2.93970443308353424072265625</LongitudeDegrees>
            </Position>
            <DistanceMeters>1053.9458103762</DistanceMeters>
          </Trackpoint>
          <Trackpoint>
            <Time>2022-09-24T13:34:33.000Z</Time>
            <Position>
              <LatitudeDegrees>43.26971844770014286041259765625</LatitudeDegrees>
              <LongitudeDegrees>-2.93971038423478603363037109375</LongitudeDegrees>
            </Position>
            <DistanceMeters>1054.4303534471</DistanceMeters>
          </Trackpoint>
          <Trackpoint>
            <Time>2022-09-24T13:34:34.000Z</Time>
            <Position>
              <LatitudeDegrees>43.269717693328857421875</LatitudeDegrees>
              <LongitudeDegrees>-2.93971608392894268035888671875</LongitudeDegrees>
            </Position>
            <DistanceMeters>1054.8958873714</DistanceMeters>
          </Trackpoint>
          <Trackpoint>
            <Time>2022-09-24T13:34:35.000Z</Time>
            <Position>
              <LatitudeDegrees>43.26971677131950855255126953125</LatitudeDegrees>
              <LongitudeDegrees>-2.9397220350801944732666015625</LongitudeDegrees>
            </Position>
            <DistanceMeters>1055.3896606635</DistanceMeters>
          </Trackpoint>
          <Trackpoint>
            <Time>2022-09-24T13:34:36.000Z</Time>
            <Position>
              <LatitudeDegrees>43.26971568167209625244140625</LatitudeDegrees>
              <LongitudeDegrees>-2.93972798623144626617431640625</LongitudeDegrees>
            </Position>
            <DistanceMeters>1055.8834339556</DistanceMeters>
          </Trackpoint>
          <Trackpoint>
            <Time>2022-09-24T13:34:37.000Z</Time>
            <Position>
              <LatitudeDegrees>43.26971459202468395233154296875</LatitudeDegrees>
              <LongitudeDegrees>-2.939733602106571197509765625</LongitudeDegrees>
            </Position>
            <DistanceMeters>1056.3489678799</DistanceMeters>
          </Trackpoint>
          <Trackpoint>
            <Time>2022-09-24T13:34:38.000Z</Time>
            <Position>
              <LatitudeDegrees>43.269713334739208221435546875</LatitudeDegrees>
              <LongitudeDegrees>-2.93973938561975955963134765625</LongitudeDegrees>
            </Position>
            <DistanceMeters>1056.8335109508</DistanceMeters>
          </Trackpoint>
          <Trackpoint>
            <Time>2022-09-24T13:34:39.000Z</Time>
            <Position>
              <LatitudeDegrees>43.2697121612727642059326171875</LatitudeDegrees>
              <LongitudeDegrees>-2.9397453367710113525390625</LongitudeDegrees>
            </Position>
            <DistanceMeters>1057.336345059</DistanceMeters>
          </Trackpoint>
          <Trackpoint>
            <Time>2022-09-24T13:34:40.000Z</Time>
            <Position>
              <LatitudeDegrees>43.2697109878063201904296875</LatitudeDegrees>
              <LongitudeDegrees>-2.93975137174129486083984375</LongitudeDegrees>
            </Position>
            <DistanceMeters>1057.848079577</DistanceMeters>
          </Trackpoint>
          <Trackpoint>
            <Time>2022-09-24T13:34:41.000Z</Time>
            <Position>
              <LatitudeDegrees>43.26971006579697132110595703125</LatitudeDegrees>
              <LongitudeDegrees>-2.93975749053061008453369140625</LongitudeDegrees>
            </Position>
            <DistanceMeters>1058.3509136852</DistanceMeters>
          </Trackpoint>
          <Trackpoint>
            <Time>2022-09-24T13:34:42.000Z</Time>
            <Position>
              <LatitudeDegrees>43.26970897614955902099609375</LatitudeDegrees>
              <LongitudeDegrees>-2.93976352550089359283447265625</LongitudeDegrees>
            </Position>
            <DistanceMeters>1058.8537477935</DistanceMeters>
          </Trackpoint>
          <Trackpoint>
            <Time>2022-09-24T13:34:43.000Z</Time>
            <Position>
              <LatitudeDegrees>43.2697078026831150054931640625</LatitudeDegrees>
              <LongitudeDegrees>-2.93976956047117710113525390625</LongitudeDegrees>
            </Position>
            <DistanceMeters>1059.3565819018</DistanceMeters>
          </Trackpoint>
          <Trackpoint>
            <Time>2022-09-24T13:34:44.000Z</Time>
            <Position>
              <LatitudeDegrees>43.2697064615786075592041015625</LatitudeDegrees>
              <LongitudeDegrees>-2.93977576307952404022216796875</LongitudeDegrees>
            </Position>
            <DistanceMeters>1059.877064652</DistanceMeters>
          </Trackpoint>
          <Trackpoint>
            <Time>2022-09-24T13:34:45.000Z</Time>
            <Position>
              <LatitudeDegrees>43.26970486901700496673583984375</LatitudeDegrees>
              <LongitudeDegrees>-2.93978213332593441009521484375</LongitudeDegrees>
            </Position>
            <DistanceMeters>1060.4311608522</DistanceMeters>
          </Trackpoint>
          <Trackpoint>
            <Time>2022-09-24T13:34:46.000Z</Time>
            <Position>
              <LatitudeDegrees>43.269703276455402374267578125</LatitudeDegrees>
              <LongitudeDegrees>-2.939788587391376495361328125</LongitudeDegrees>
            </Position>
            <DistanceMeters>1060.9852570525</DistanceMeters>
          </Trackpoint>
          <Trackpoint>
            <Time>2022-09-24T13:34:47.000Z</Time>
            <Position>
              <LatitudeDegrees>43.26970151625573635101318359375</LatitudeDegrees>
              <LongitudeDegrees>-2.93979453854262828826904296875</LongitudeDegrees>
            </Position>
            <DistanceMeters>1061.4969915704</DistanceMeters>
          </Trackpoint>
          <Trackpoint>
            <Time>2022-09-24T13:34:48.000Z</Time>
            <Position>
              <LatitudeDegrees>43.2696997560560703277587890625</LatitudeDegrees>
              <LongitudeDegrees>-2.9398004896938800811767578125</LongitudeDegrees>
            </Position>
            <DistanceMeters>1062.0174743207</DistanceMeters>
          </Trackpoint>
          <Trackpoint>
            <Time>2022-09-24T13:34:49.000Z</Time>
            <Position>
              <LatitudeDegrees>43.2696984149515628814697265625</LatitudeDegrees>
              <LongitudeDegrees>-2.93980577029287815093994140625</LongitudeDegrees>
            </Position>
            <DistanceMeters>1062.4631891194</DistanceMeters>
          </Trackpoint>
          <Trackpoint>
            <Time>2022-09-24T13:34:50.000Z</Time>
            <Position>
              <LatitudeDegrees>43.2696974091231822967529296875</LatitudeDegrees>
              <LongitudeDegrees>-2.9398108832538127899169921875</LongitudeDegrees>
            </Position>
            <DistanceMeters>1062.8881615054</DistanceMeters>
          </Trackpoint>
          <Trackpoint>
            <Time>2022-09-24T13:34:51.000Z</Time>
            <Position>
              <LatitudeDegrees>43.2696967385709285736083984375</LatitudeDegrees>
              <LongitudeDegrees>-2.9398155771195888519287109375</LongitudeDegrees>
            </Position>
            <DistanceMeters>1063.279966686</DistanceMeters>
          </Trackpoint>
          <Trackpoint>
            <Time>2022-09-24T13:34:52.000Z</Time>
            <Position>
              <LatitudeDegrees>43.269695900380611419677734375</LatitudeDegrees>
              <LongitudeDegrees>-2.9398202709853649139404296875</LongitudeDegrees>
            </Position>
            <DistanceMeters>1063.6717718666</DistanceMeters>
          </Trackpoint>
          <Trackpoint>
            <Time>2022-09-24T13:34:53.000Z</Time>
            <Position>
              <LatitudeDegrees>43.2696947269141674041748046875</LatitudeDegrees>
              <LongitudeDegrees>-2.93982504867017269134521484375</LongitudeDegrees>
            </Position>
            <DistanceMeters>1064.0749360713</DistanceMeters>
          </Trackpoint>
          <Trackpoint>
            <Time>2022-09-24T13:34:54.000Z</Time>
            <Position>
              <LatitudeDegrees>43.26969313435256481170654296875</LatitudeDegrees>
              <LongitudeDegrees>-2.9398303292691707611083984375</LongitudeDegrees>
            </Position>
            <DistanceMeters>1064.5404699956</DistanceMeters>
          </Trackpoint>
          <Trackpoint>
            <Time>2022-09-24T13:34:55.000Z</Time>
            <Position>
              <LatitudeDegrees>43.26969179324805736541748046875</LatitudeDegrees>
              <LongitudeDegrees>-2.93983544223010540008544921875</LongitudeDegrees>
            </Position>
            <DistanceMeters>1064.9861847943</DistanceMeters>
          </Trackpoint>
          <Trackpoint>
            <Time>2022-09-24T13:34:56.000Z</Time>
            <Position>
              <LatitudeDegrees>43.269690535962581634521484375</LatitudeDegrees>
              <LongitudeDegrees>-2.93984063901007175445556640625</LongitudeDegrees>
            </Position>
            <DistanceMeters>1065.431899593</DistanceMeters>
          </Trackpoint>
          <Trackpoint>
            <Time>2022-09-24T13:34:57.000Z</Time>
            <Position>
              <LatitudeDegrees>43.26968927867710590362548828125</LatitudeDegrees>
              <LongitudeDegrees>-2.9398457519710063934326171875</LongitudeDegrees>
            </Position>
            <DistanceMeters>1065.8673667046</DistanceMeters>
          </Trackpoint>
          <Trackpoint>
            <Time>2022-09-24T13:34:58.000Z</Time>
            <Position>
              <LatitudeDegrees>43.26968793757259845733642578125</LatitudeDegrees>
              <LongitudeDegrees>-2.93985069729387760162353515625</LongitudeDegrees>
            </Position>
            <DistanceMeters>1066.3130815033</DistanceMeters>
          </Trackpoint>
          <Trackpoint>
            <Time>2022-09-24T13:34:59.000Z</Time>
            <Position>
              <LatitudeDegrees>43.26968642883002758026123046875</LatitudeDegrees>
              <LongitudeDegrees>-2.93985572643578052520751953125</LongitudeDegrees>
            </Position>
            <DistanceMeters>1066.7688136157</DistanceMeters>
          </Trackpoint>
          <Trackpoint>
            <Time>2022-09-24T13:35:00.000Z</Time>
            <Position>
              <LatitudeDegrees>43.26968492008745670318603515625</LatitudeDegrees>
              <LongitudeDegrees>-2.9398605041205883026123046875</LongitudeDegrees>
            </Position>
            <DistanceMeters>1067.1719778204</DistanceMeters>
          </Trackpoint>
          <Trackpoint>
            <Time>2022-09-24T13:35:01.000Z</Time>
            <Position>
              <LatitudeDegrees>43.26968349516391754150390625</LatitudeDegrees>
              <LongitudeDegrees>-2.93986528180539608001708984375</LongitudeDegrees>
            </Position>
            <DistanceMeters>1067.5751420252</DistanceMeters>
          </Trackpoint>
          <Trackpoint>
            <Time>2022-09-24T13:35:02.000Z</Time>
            <Position>
              <LatitudeDegrees>43.26968190260231494903564453125</LatitudeDegrees>
              <LongitudeDegrees>-2.93987031094729900360107421875</LongitudeDegrees>
            </Position>
            <DistanceMeters>1068.0308741375</DistanceMeters>
          </Trackpoint>
          <Trackpoint>
            <Time>2022-09-24T13:35:03.000Z</Time>
            <Position>
              <LatitudeDegrees>43.2696803100407123565673828125</LatitudeDegrees>
              <LongitudeDegrees>-2.939875423908233642578125</LongitudeDegrees>
            </Position>
            <DistanceMeters>1068.4765889362</DistanceMeters>
          </Trackpoint>
          <Trackpoint>
            <Time>2022-09-24T13:35:04.000Z</Time>
            <Position>
              <LatitudeDegrees>43.2696786336600780487060546875</LatitudeDegrees>
              <LongitudeDegrees>-2.93988036923110485076904296875</LongitudeDegrees>
            </Position>
            <DistanceMeters>1068.9223037349</DistanceMeters>
          </Trackpoint>
          <Trackpoint>
            <Time>2022-09-24T13:35:05.000Z</Time>
            <Position>
              <LatitudeDegrees>43.26967704109847545623779296875</LatitudeDegrees>
              <LongitudeDegrees>-2.93988548219203948974609375</LongitudeDegrees>
            </Position>
            <DistanceMeters>1069.3680185335</DistanceMeters>
          </Trackpoint>
          <Trackpoint>
            <Time>2022-09-24T13:35:06.000Z</Time>
            <Position>
              <LatitudeDegrees>43.26967553235590457916259765625</LatitudeDegrees>
              <LongitudeDegrees>-2.93989025987684726715087890625</LongitudeDegrees>
            </Position>
            <DistanceMeters>1069.7822303784</DistanceMeters>
          </Trackpoint>
          <Trackpoint>
            <Time>2022-09-24T13:35:07.000Z</Time>
            <Position>
              <LatitudeDegrees>43.26967402361333370208740234375</LatitudeDegrees>
              <LongitudeDegrees>-2.9398950375616550445556640625</LongitudeDegrees>
            </Position>
            <DistanceMeters>1070.2072027644</DistanceMeters>
          </Trackpoint>
          <Trackpoint>
            <Time>2022-09-24T13:35:08.000Z</Time>
            <Position>
              <LatitudeDegrees>43.2696725986897945404052734375</LatitudeDegrees>
              <LongitudeDegrees>-2.939899228513240814208984375</LongitudeDegrees>
            </Position>
            <DistanceMeters>1070.5873096219</DistanceMeters>
          </Trackpoint>
          <Trackpoint>
            <Time>2022-09-24T13:35:09.000Z</Time>
            <Position>
              <LatitudeDegrees>43.26967117376625537872314453125</LatitudeDegrees>
              <LongitudeDegrees>-2.9399034194648265838623046875</LongitudeDegrees>
            </Position>
            <DistanceMeters>1070.9674164794</DistanceMeters>
          </Trackpoint>
          <Trackpoint>
            <Time>2022-09-24T13:35:10.000Z</Time>
            <Position>
              <LatitudeDegrees>43.269669748842716217041015625</LatitudeDegrees>
              <LongitudeDegrees>-2.93990735895931720733642578125</LongitudeDegrees>
            </Position>
            <DistanceMeters>1071.3354533616</DistanceMeters>
          </Trackpoint>
          <Trackpoint>
            <Time>2022-09-24T13:35:11.000Z</Time>
            <Position>
              <LatitudeDegrees>43.2696682401001453399658203125</LatitudeDegrees>
              <LongitudeDegrees>-2.9399114660918712615966796875</LongitudeDegrees>
            </Position>
            <DistanceMeters>1071.7034902438</DistanceMeters>
          </Trackpoint>
          <Trackpoint>
            <Time>2022-09-24T13:35:12.000Z</Time>
            <Position>
              <LatitudeDegrees>43.26966681517660617828369140625</LatitudeDegrees>
              <LongitudeDegrees>-2.9399154894053936004638671875</LongitudeDegrees>
            </Position>
            <DistanceMeters>1072.0590476516</DistanceMeters>
          </Trackpoint>
          <Trackpoint>
            <Time>2022-09-24T13:35:13.000Z</Time>
            <Position>
              <LatitudeDegrees>43.26966530643403530120849609375</LatitudeDegrees>
              <LongitudeDegrees>-2.9399196803569793701171875</LongitudeDegrees>
            </Position>
            <DistanceMeters>1072.439154509</DistanceMeters>
          </Trackpoint>
          <Trackpoint>
            <Time>2022-09-24T13:35:14.000Z</Time>
            <Position>
              <LatitudeDegrees>43.26966379769146442413330078125</LatitudeDegrees>
              <LongitudeDegrees>-2.939923703670501708984375</LongitudeDegrees>
            </Position>
            <DistanceMeters>1072.8192613665</DistanceMeters>
          </Trackpoint>
          <Trackpoint>
            <Time>2022-09-24T13:35:15.000Z</Time>
            <Position>
              <LatitudeDegrees>43.26966228894889354705810546875</LatitudeDegrees>
              <LongitudeDegrees>-2.93992814607918262481689453125</LongitudeDegrees>
            </Position>
            <DistanceMeters>1073.2110665471</DistanceMeters>
          </Trackpoint>
          <Trackpoint>
            <Time>2022-09-24T13:35:16.000Z</Time>
            <Position>
              <LatitudeDegrees>43.2696608640253543853759765625</LatitudeDegrees>
              <LongitudeDegrees>-2.93993250466883182525634765625</LongitudeDegrees>
            </Position>
            <DistanceMeters>1073.5911734046</DistanceMeters>
          </Trackpoint>
          <Trackpoint>
            <Time>2022-09-24T13:35:17.000Z</Time>
            <Position>
              <LatitudeDegrees>43.2696595229208469390869140625</LatitudeDegrees>
              <LongitudeDegrees>-2.9399369470775127410888671875</LongitudeDegrees>
            </Position>
            <DistanceMeters>1073.9712802621</DistanceMeters>
          </Trackpoint>
          <Trackpoint>
            <Time>2022-09-24T13:35:18.000Z</Time>
            <Position>
              <LatitudeDegrees>43.2696581818163394927978515625</LatitudeDegrees>
              <LongitudeDegrees>-2.93994138948619365692138671875</LongitudeDegrees>
            </Position>
            <DistanceMeters>1074.3513871196</DistanceMeters>
          </Trackpoint>
          <Trackpoint>
            <Time>2022-09-24T13:35:19.000Z</Time>
            <Position>
              <LatitudeDegrees>43.2696568407118320465087890625</LatitudeDegrees>
              <LongitudeDegrees>-2.93994574807584285736083984375</LongitudeDegrees>
            </Position>
            <DistanceMeters>1074.7431923002</DistanceMeters>
          </Trackpoint>
          <Trackpoint>
            <Time>2022-09-24T13:35:20.000Z</Time>
            <Position>
              <LatitudeDegrees>43.269655667245388031005859375</LatitudeDegrees>
              <LongitudeDegrees>-2.939950190484523773193359375</LongitudeDegrees>
            </Position>
            <DistanceMeters>1075.1232991576</DistanceMeters>
          </Trackpoint>
          <Trackpoint>
            <Time>2022-09-24T13:35:21.000Z</Time>
            <Position>
              <LatitudeDegrees>43.26965440995991230010986328125</LatitudeDegrees>
              <LongitudeDegrees>-2.93995463289320468902587890625</LongitudeDegrees>
            </Position>
            <DistanceMeters>1075.5034060151</DistanceMeters>
          </Trackpoint>
          <Trackpoint>
            <Time>2022-09-24T13:35:22.000Z</Time>
            <Position>
              <LatitudeDegrees>43.26965306885540485382080078125</LatitudeDegrees>
              <LongitudeDegrees>-2.93995932675898075103759765625</LongitudeDegrees>
            </Position>
            <DistanceMeters>1075.9065702199</DistanceMeters>
          </Trackpoint>
          <Trackpoint>
            <Time>2022-09-24T13:35:23.000Z</Time>
            <Position>
              <LatitudeDegrees>43.26965189538896083831787109375</LatitudeDegrees>
              <LongitudeDegrees>-2.9399641044437885284423828125</LongitudeDegrees>
            </Position>
            <DistanceMeters>1076.2983754005</DistanceMeters>
          </Trackpoint>
          <Trackpoint>
            <Time>2022-09-24T13:35:24.000Z</Time>
            <Position>
              <LatitudeDegrees>43.26965088956058025360107421875</LatitudeDegrees>
              <LongitudeDegrees>-2.939968965947628021240234375</LongitudeDegrees>
            </Position>
            <DistanceMeters>1076.7015396052</DistanceMeters>
          </Trackpoint>
          <Trackpoint>
            <Time>2022-09-24T13:35:25.000Z</Time>
            <Position>
              <LatitudeDegrees>43.2696501351892948150634765625</LatitudeDegrees>
              <LongitudeDegrees>-2.939973659813404083251953125</LongitudeDegrees>
            </Position>
            <DistanceMeters>1077.0933447858</DistanceMeters>
          </Trackpoint>
          <Trackpoint>
            <Time>2022-09-24T13:35:26.000Z</Time>
            <Position>
              <LatitudeDegrees>43.26964938081800937652587890625</LatitudeDegrees>
              <LongitudeDegrees>-2.93997860513627529144287109375</LongitudeDegrees>
            </Position>
            <DistanceMeters>1077.5183171718</DistanceMeters>
          </Trackpoint>
          <Trackpoint>
            <Time>2022-09-24T13:35:27.000Z</Time>
            <Position>
              <LatitudeDegrees>43.26964854262769222259521484375</LatitudeDegrees>
              <LongitudeDegrees>-2.9399835504591464996337890625</LongitudeDegrees>
            </Position>
            <DistanceMeters>1077.9214813766</DistanceMeters>
          </Trackpoint>
          <Trackpoint>
            <Time>2022-09-24T13:35:28.000Z</Time>
            <Position>
              <LatitudeDegrees>43.26964753679931163787841796875</LatitudeDegrees>
              <LongitudeDegrees>-2.93998883105814456939697265625</LongitudeDegrees>
            </Position>
            <DistanceMeters>1078.3569484882</DistanceMeters>
          </Trackpoint>
          <Trackpoint>
            <Time>2022-09-24T13:35:29.000Z</Time>
            <Position>
              <LatitudeDegrees>43.26964636333286762237548828125</LatitudeDegrees>
              <LongitudeDegrees>-2.9399939440190792083740234375</LongitudeDegrees>
            </Position>
            <DistanceMeters>1078.7819208743</DistanceMeters>
          </Trackpoint>
          <Trackpoint>
            <Time>2022-09-24T13:35:30.000Z</Time>
            <Position>
              <LatitudeDegrees>43.26964502222836017608642578125</LatitudeDegrees>
              <LongitudeDegrees>-2.93999955989420413970947265625</LongitudeDegrees>
            </Position>
            <DistanceMeters>1079.2570544461</DistanceMeters>
          </Trackpoint>
          <Trackpoint>
            <Time>2022-09-24T13:35:31.000Z</Time>
            <Position>
              <LatitudeDegrees>43.2696434296667575836181640625</LatitudeDegrees>
              <LongitudeDegrees>-2.9400050081312656402587890625</LongitudeDegrees>
            </Position>
            <DistanceMeters>1079.741597517</DistanceMeters>
          </Trackpoint>
          <Trackpoint>
            <Time>2022-09-24T13:35:32.000Z</Time>
            <Position>
              <LatitudeDegrees>43.26964183710515499114990234375</LatitudeDegrees>
              <LongitudeDegrees>-2.940010540187358856201171875</LongitudeDegrees>
            </Position>
            <DistanceMeters>1080.2261405879</DistanceMeters>
          </Trackpoint>
          <Trackpoint>
            <Time>2022-09-24T13:35:33.000Z</Time>
            <Position>
              <LatitudeDegrees>43.269640244543552398681640625</LatitudeDegrees>
              <LongitudeDegrees>-2.9400157369673252105712890625</LongitudeDegrees>
            </Position>
            <DistanceMeters>1080.6916745122</DistanceMeters>
          </Trackpoint>
          <Trackpoint>
            <Time>2022-09-24T13:35:34.000Z</Time>
            <Position>
              <LatitudeDegrees>43.2696387358009815216064453125</LatitudeDegrees>
              <LongitudeDegrees>-2.94002118520438671112060546875</LongitudeDegrees>
            </Position>
            <DistanceMeters>1081.1572084364</DistanceMeters>
          </Trackpoint>
          <Trackpoint>
            <Time>2022-09-24T13:35:35.000Z</Time>
            <Position>
              <LatitudeDegrees>43.26963747851550579071044921875</LatitudeDegrees>
              <LongitudeDegrees>-2.94002638198435306549072265625</LongitudeDegrees>
            </Position>
            <DistanceMeters>1081.6029232351</DistanceMeters>
          </Trackpoint>
          <Trackpoint>
            <Time>2022-09-24T13:35:36.000Z</Time>
            <Position>
              <LatitudeDegrees>43.26963613741099834442138671875</LatitudeDegrees>
              <LongitudeDegrees>-2.94003208167850971221923828125</LongitudeDegrees>
            </Position>
            <DistanceMeters>1082.0966965272</DistanceMeters>
          </Trackpoint>
          <Trackpoint>
            <Time>2022-09-24T13:35:37.000Z</Time>
            <Position>
              <LatitudeDegrees>43.26963479630649089813232421875</LatitudeDegrees>
              <LongitudeDegrees>-2.94003761373460292816162109375</LongitudeDegrees>
            </Position>
            <DistanceMeters>1082.5718300991</DistanceMeters>
          </Trackpoint>
          <Trackpoint>
            <Time>2022-09-24T13:35:38.000Z</Time>
            <Position>
              <LatitudeDegrees>43.26963328756392002105712890625</LatitudeDegrees>
              <LongitudeDegrees>-2.94004364870488643646240234375</LongitudeDegrees>
            </Position>
            <DistanceMeters>1083.0923128493</DistanceMeters>
          </Trackpoint>
          <Trackpoint>
            <Time>2022-09-24T13:35:39.000Z</Time>
            <Position>
              <LatitudeDegrees>43.26963177882134914398193359375</LatitudeDegrees>
              <LongitudeDegrees>-2.94004951603710651397705078125</LongitudeDegrees>
            </Position>
            <DistanceMeters>1083.5951469576</DistanceMeters>
          </Trackpoint>
          <Trackpoint>
            <Time>2022-09-24T13:35:40.000Z</Time>
            <Position>
              <LatitudeDegrees>43.26963043771684169769287109375</LatitudeDegrees>
              <LongitudeDegrees>-2.94005538336932659149169921875</LongitudeDegrees>
            </Position>
            <DistanceMeters>1084.0979810659</DistanceMeters>
          </Trackpoint>
          <Trackpoint>
            <Time>2022-09-24T13:35:41.000Z</Time>
            <Position>
              <LatitudeDegrees>43.26962909661233425140380859375</LatitudeDegrees>
              <LongitudeDegrees>-2.94006125070154666900634765625</LongitudeDegrees>
            </Position>
            <DistanceMeters>1084.5917543579</DistanceMeters>
          </Trackpoint>
          <Trackpoint>
            <Time>2022-09-24T13:35:42.000Z</Time>
            <Position>
              <LatitudeDegrees>43.2696278393268585205078125</LatitudeDegrees>
              <LongitudeDegrees>-2.94006711803376674652099609375</LongitudeDegrees>
            </Position>
            <DistanceMeters>1085.0762974288</DistanceMeters>
          </Trackpoint>
          <Trackpoint>
            <Time>2022-09-24T13:35:43.000Z</Time>
            <Position>
              <LatitudeDegrees>43.2696266658604145050048828125</LatitudeDegrees>
              <LongitudeDegrees>-2.940072901546955108642578125</LongitudeDegrees>
            </Position>
            <DistanceMeters>1085.5608404997</DistanceMeters>
          </Trackpoint>
          <Trackpoint>
            <Time>2022-09-24T13:35:44.000Z</Time>
            <Position>
              <LatitudeDegrees>43.26962557621300220489501953125</LatitudeDegrees>
              <LongitudeDegrees>-2.94007851742208003997802734375</LongitudeDegrees>
            </Position>
            <DistanceMeters>1086.026374424</DistanceMeters>
          </Trackpoint>
          <Trackpoint>
            <Time>2022-09-24T13:35:45.000Z</Time>
            <Position>
              <LatitudeDegrees>43.26962448656558990478515625</LatitudeDegrees>
              <LongitudeDegrees>-2.94008421711623668670654296875</LongitudeDegrees>
            </Position>
            <DistanceMeters>1086.5109174949</DistanceMeters>
          </Trackpoint>
          <Trackpoint>
            <Time>2022-09-24T13:35:46.000Z</Time>
            <Position>
              <LatitudeDegrees>43.26962339691817760467529296875</LatitudeDegrees>
              <LongitudeDegrees>-2.94008974917232990264892578125</LongitudeDegrees>
            </Position>
            <DistanceMeters>1086.9764514192</DistanceMeters>
          </Trackpoint>
          <Trackpoint>
            <Time>2022-09-24T13:35:47.000Z</Time>
            <Position>
              <LatitudeDegrees>43.26962222345173358917236328125</LatitudeDegrees>
              <LongitudeDegrees>-2.9400951974093914031982421875</LongitudeDegrees>
            </Position>
            <DistanceMeters>1087.4419853434</DistanceMeters>
          </Trackpoint>
          <Trackpoint>
            <Time>2022-09-24T13:35:48.000Z</Time>
            <Position>
              <LatitudeDegrees>43.26962088234722614288330078125</LatitudeDegrees>
              <LongitudeDegrees>-2.940100729465484619140625</LongitudeDegrees>
            </Position>
            <DistanceMeters>1087.9075192677</DistanceMeters>
          </Trackpoint>
          <Trackpoint>
            <Time>2022-09-24T13:35:49.000Z</Time>
            <Position>
              <LatitudeDegrees>43.269619457423686981201171875</LatitudeDegrees>
              <LongitudeDegrees>-2.94010668061673641204833984375</LongitudeDegrees>
            </Position>
            <DistanceMeters>1088.410353376</DistanceMeters>
          </Trackpoint>
          <Trackpoint>
            <Time>2022-09-24T13:35:50.000Z</Time>
            <Position>
              <LatitudeDegrees>43.269618116319179534912109375</LatitudeDegrees>
              <LongitudeDegrees>-2.94011254794895648956298828125</LongitudeDegrees>
            </Position>
            <DistanceMeters>1088.9041266681</DistanceMeters>
          </Trackpoint>
          <Trackpoint>
            <Time>2022-09-24T13:35:51.000Z</Time>
            <Position>
              <LatitudeDegrees>43.26961685903370380401611328125</LatitudeDegrees>
              <LongitudeDegrees>-2.940118499100208282470703125</LongitudeDegrees>
            </Position>
            <DistanceMeters>1089.4069607763</DistanceMeters>
          </Trackpoint>
          <Trackpoint>
            <Time>2022-09-24T13:35:52.000Z</Time>
            <Position>
              <LatitudeDegrees>43.2696156017482280731201171875</LatitudeDegrees>
              <LongitudeDegrees>-2.94012428261339664459228515625</LongitudeDegrees>
            </Position>
            <DistanceMeters>1089.8820943482</DistanceMeters>
          </Trackpoint>
          <Trackpoint>
            <Time>2022-09-24T13:35:53.000Z</Time>
            <Position>
              <LatitudeDegrees>43.2696142606437206268310546875</LatitudeDegrees>
              <LongitudeDegrees>-2.94013031758368015289306640625</LongitudeDegrees>
            </Position>
            <DistanceMeters>1090.4025770985</DistanceMeters>
          </Trackpoint>
          <Trackpoint>
            <Time>2022-09-24T13:35:54.000Z</Time>
            <Position>
              <LatitudeDegrees>43.26961300335824489593505859375</LatitudeDegrees>
              <LongitudeDegrees>-2.94013626873493194580078125</LongitudeDegrees>
            </Position>
            <DistanceMeters>1090.9054112067</DistanceMeters>
          </Trackpoint>
          <Trackpoint>
            <Time>2022-09-24T13:35:55.000Z</Time>
            <Position>
              <LatitudeDegrees>43.2696117460727691650390625</LatitudeDegrees>
              <LongitudeDegrees>-2.94014238752424716949462890625</LongitudeDegrees>
            </Position>
            <DistanceMeters>1091.425893957</DistanceMeters>
          </Trackpoint>
          <Trackpoint>
            <Time>2022-09-24T13:35:56.000Z</Time>
            <Position>
              <LatitudeDegrees>43.2696105726063251495361328125</LatitudeDegrees>
              <LongitudeDegrees>-2.9401481710374355316162109375</LongitudeDegrees>
            </Position>
            <DistanceMeters>1091.9196672491</DistanceMeters>
          </Trackpoint>
          <Trackpoint>
            <Time>2022-09-24T13:35:57.000Z</Time>
            <Position>
              <LatitudeDegrees>43.26960948295891284942626953125</LatitudeDegrees>
              <LongitudeDegrees>-2.940154038369655609130859375</LongitudeDegrees>
            </Position>
            <DistanceMeters>1092.4225013573</DistanceMeters>
          </Trackpoint>
          <Trackpoint>
            <Time>2022-09-24T13:35:58.000Z</Time>
            <Position>
              <LatitudeDegrees>43.26960847713053226470947265625</LatitudeDegrees>
              <LongitudeDegrees>-2.94015998952090740203857421875</LongitudeDegrees>
            </Position>
            <DistanceMeters>1092.9253354656</DistanceMeters>
          </Trackpoint>
          <Trackpoint>
            <Time>2022-09-24T13:35:59.000Z</Time>
            <Position>
              <LatitudeDegrees>43.269607387483119964599609375</LatitudeDegrees>
              <LongitudeDegrees>-2.9401659406721591949462890625</LongitudeDegrees>
            </Position>
            <DistanceMeters>1093.4281695739</DistanceMeters>
          </Trackpoint>
          <Trackpoint>
            <Time>2022-09-24T13:36:00.000Z</Time>
            <Position>
              <LatitudeDegrees>43.26960646547377109527587890625</LatitudeDegrees>
              <LongitudeDegrees>-2.9401719756424427032470703125</LongitudeDegrees>
            </Position>
            <DistanceMeters>1093.9310036821</DistanceMeters>
          </Trackpoint>
          <Trackpoint>
            <Time>2022-09-24T13:36:01.000Z</Time>
            <Position>
              <LatitudeDegrees>43.269605375826358795166015625</LatitudeDegrees>
              <LongitudeDegrees>-2.94017809443175792694091796875</LongitudeDegrees>
            </Position>
            <DistanceMeters>1094.4338377904</DistanceMeters>
          </Trackpoint>
          <Trackpoint>
            <Time>2022-09-24T13:36:02.000Z</Time>
            <Position>
              <LatitudeDegrees>43.2696042023599147796630859375</LatitudeDegrees>
              <LongitudeDegrees>-2.9401840455830097198486328125</LongitudeDegrees>
            </Position>
            <DistanceMeters>1094.9366718986</DistanceMeters>
          </Trackpoint>
          <Trackpoint>
            <Time>2022-09-24T13:36:03.000Z</Time>
            <Position>
              <LatitudeDegrees>43.2696031965315341949462890625</LatitudeDegrees>
              <LongitudeDegrees>-2.94018991291522979736328125</LongitudeDegrees>
            </Position>
            <DistanceMeters>1095.4212149695</DistanceMeters>
          </Trackpoint>
          <Trackpoint>
            <Time>2022-09-24T13:36:04.000Z</Time>
            <Position>
              <LatitudeDegrees>43.26960227452218532562255859375</LatitudeDegrees>
              <LongitudeDegrees>-2.94019569642841815948486328125</LongitudeDegrees>
            </Position>
            <DistanceMeters>1095.8867488938</DistanceMeters>
          </Trackpoint>
          <Trackpoint>
            <Time>2022-09-24T13:36:05.000Z</Time>
            <Position>
              <LatitudeDegrees>43.2696011848747730255126953125</LatitudeDegrees>
              <LongitudeDegrees>-2.94020156376063823699951171875</LongitudeDegrees>
            </Position>
            <DistanceMeters>1096.3712919647</DistanceMeters>
          </Trackpoint>
          <Trackpoint>
            <Time>2022-09-24T13:36:06.000Z</Time>
            <Position>
              <LatitudeDegrees>43.269600011408329010009765625</LatitudeDegrees>
              <LongitudeDegrees>-2.9402075149118900299072265625</LongitudeDegrees>
            </Position>
            <DistanceMeters>1096.8741260729</DistanceMeters>
          </Trackpoint>
          <Trackpoint>
            <Time>2022-09-24T13:36:07.000Z</Time>
            <Position>
              <LatitudeDegrees>43.26959875412285327911376953125</LatitudeDegrees>
              <LongitudeDegrees>-2.94021346606314182281494140625</LongitudeDegrees>
            </Position>
            <DistanceMeters>1097.3769601812</DistanceMeters>
          </Trackpoint>
          <Trackpoint>
            <Time>2022-09-24T13:36:08.000Z</Time>
            <Position>
              <LatitudeDegrees>43.26959758065640926361083984375</LatitudeDegrees>
              <LongitudeDegrees>-2.94021941721439361572265625</LongitudeDegrees>
            </Position>
            <DistanceMeters>1097.8797942895</DistanceMeters>
          </Trackpoint>
          <Trackpoint>
            <Time>2022-09-24T13:36:09.000Z</Time>
            <Position>
              <LatitudeDegrees>43.26959657482802867889404296875</LatitudeDegrees>
              <LongitudeDegrees>-2.9402252845466136932373046875</LongitudeDegrees>
            </Position>
            <DistanceMeters>1098.3735675816</DistanceMeters>
          </Trackpoint>
          <Trackpoint>
            <Time>2022-09-24T13:36:10.000Z</Time>
            <Position>
              <LatitudeDegrees>43.26959523372352123260498046875</LatitudeDegrees>
              <LongitudeDegrees>-2.9402319900691509246826171875</LongitudeDegrees>
            </Position>
            <DistanceMeters>1098.9357532053</DistanceMeters>
          </Trackpoint>
          <Trackpoint>
            <Time>2022-09-24T13:36:11.000Z</Time>
            <Position>
              <LatitudeDegrees>43.26959406025707721710205078125</LatitudeDegrees>
              <LongitudeDegrees>-2.94023844413459300994873046875</LongitudeDegrees>
            </Position>
            <DistanceMeters>1099.4733054783</DistanceMeters>
          </Trackpoint>
          <Trackpoint>
            <Time>2022-09-24T13:36:12.000Z</Time>
            <Position>
              <LatitudeDegrees>43.26959305442869663238525390625</LatitudeDegrees>
              <LongitudeDegrees>-2.9402447305619716644287109375</LongitudeDegrees>
            </Position>
            <DistanceMeters>1099.9937882286</DistanceMeters>
          </Trackpoint>
          <Trackpoint>
            <Time>2022-09-24T13:36:13.000Z</Time>
            <Position>
              <LatitudeDegrees>43.269591964781284332275390625</LatitudeDegrees>
              <LongitudeDegrees>-2.940250933170318603515625</LongitudeDegrees>
            </Position>
            <DistanceMeters>1100.5142709788</DistanceMeters>
          </Trackpoint>
          <Trackpoint>
            <Time>2022-09-24T13:36:14.000Z</Time>
            <Position>
              <LatitudeDegrees>43.26959087513387203216552734375</LatitudeDegrees>
              <LongitudeDegrees>-2.9402568005025386810302734375</LongitudeDegrees>
            </Position>
            <DistanceMeters>1101.0080442709</DistanceMeters>
          </Trackpoint>
          <Trackpoint>
            <Time>2022-09-24T13:36:15.000Z</Time>
            <Position>
              <LatitudeDegrees>43.26958970166742801666259765625</LatitudeDegrees>
              <LongitudeDegrees>-2.9402625001966953277587890625</LongitudeDegrees>
            </Position>
            <DistanceMeters>1101.4925873418</DistanceMeters>
          </Trackpoint>
          <Trackpoint>
            <Time>2022-09-24T13:36:16.000Z</Time>
            <Position>
              <LatitudeDegrees>43.26958852820098400115966796875</LatitudeDegrees>
              <LongitudeDegrees>-2.94026811607182025909423828125</LongitudeDegrees>
            </Position>
            <DistanceMeters>1101.9581212661</DistanceMeters>
          </Trackpoint>
          <Trackpoint>
            <Time>2022-09-24T13:36:17.000Z</Time>
            <Position>
              <LatitudeDegrees>43.26958735473453998565673828125</LatitudeDegrees>
              <LongitudeDegrees>-2.9402732290327548980712890625</LongitudeDegrees>
            </Position>
            <DistanceMeters>1102.3935883777</DistanceMeters>
          </Trackpoint>
          <Trackpoint>
            <Time>2022-09-24T13:36:18.000Z</Time>
            <Position>
              <LatitudeDegrees>43.26958601363003253936767578125</LatitudeDegrees>
              <LongitudeDegrees>-2.9402782581746578216552734375</LongitudeDegrees>
            </Position>
            <DistanceMeters>1102.8290554894</DistanceMeters>
          </Trackpoint>
          <Trackpoint>
            <Time>2022-09-24T13:36:19.000Z</Time>
            <Position>
              <LatitudeDegrees>43.2695847563445568084716796875</LatitudeDegrees>
              <LongitudeDegrees>-2.9402829520404338836669921875</LongitudeDegrees>
            </Position>
            <DistanceMeters>1103.2322196941</DistanceMeters>
          </Trackpoint>
          <Trackpoint>
            <Time>2022-09-24T13:36:20.000Z</Time>
            <Position>
              <LatitudeDegrees>43.269583247601985931396484375</LatitudeDegrees>
              <LongitudeDegrees>-2.94028772972524166107177734375</LongitudeDegrees>
            </Position>
            <DistanceMeters>1103.6353838989</DistanceMeters>
          </Trackpoint>
          <Trackpoint>
            <Time>2022-09-24T13:36:21.000Z</Time>
            <Position>
              <LatitudeDegrees>43.2695817388594150543212890625</LatitudeDegrees>
              <LongitudeDegrees>-2.94029242359101772308349609375</LongitudeDegrees>
            </Position>
            <DistanceMeters>1104.0385481036</DistanceMeters>
          </Trackpoint>
          <Trackpoint>
            <Time>2022-09-24T13:36:22.000Z</Time>
            <Position>
              <LatitudeDegrees>43.26958014629781246185302734375</LatitudeDegrees>
              <LongitudeDegrees>-2.94029745273292064666748046875</LongitudeDegrees>
            </Position>
            <DistanceMeters>1104.4842629023</DistanceMeters>
          </Trackpoint>
          <Trackpoint>
            <Time>2022-09-24T13:36:23.000Z</Time>
            <Position>
              <LatitudeDegrees>43.26957863755524158477783203125</LatitudeDegrees>
              <LongitudeDegrees>-2.9403023980557918548583984375</LongitudeDegrees>
            </Position>
            <DistanceMeters>1104.9197300139</DistanceMeters>
          </Trackpoint>
          <Trackpoint>
            <Time>2022-09-24T13:36:24.000Z</Time>
            <Position>
              <LatitudeDegrees>43.269577212631702423095703125</LatitudeDegrees>
              <LongitudeDegrees>-2.940306924283504486083984375</LongitudeDegrees>
            </Position>
            <DistanceMeters>1105.3228942187</DistanceMeters>
          </Trackpoint>
          <Trackpoint>
            <Time>2022-09-24T13:36:25.000Z</Time>
            <Position>
              <LatitudeDegrees>43.26957578770816326141357421875</LatitudeDegrees>
              <LongitudeDegrees>-2.94031119905412197113037109375</LongitudeDegrees>
            </Position>
            <DistanceMeters>1105.7030010762</DistanceMeters>
          </Trackpoint>
          <Trackpoint>
            <Time>2022-09-24T13:36:26.000Z</Time>
            <Position>
              <LatitudeDegrees>43.26957444660365581512451171875</LatitudeDegrees>
              <LongitudeDegrees>-2.94031539000570774078369140625</LongitudeDegrees>
            </Position>
            <DistanceMeters>1106.0831079337</DistanceMeters>
          </Trackpoint>
          <Trackpoint>
            <Time>2022-09-24T13:36:27.000Z</Time>
            <Position>
              <LatitudeDegrees>43.26957310549914836883544921875</LatitudeDegrees>
              <LongitudeDegrees>-2.94031958095729351043701171875</LongitudeDegrees>
            </Position>
            <DistanceMeters>1106.4632147911</DistanceMeters>
          </Trackpoint>
          <Trackpoint>
            <Time>2022-09-24T13:36:28.000Z</Time>
            <Position>
              <LatitudeDegrees>43.26957176439464092254638671875</LatitudeDegrees>
              <LongitudeDegrees>-2.94032402336597442626953125</LongitudeDegrees>
            </Position>
            <DistanceMeters>1106.8550199717</DistanceMeters>
          </Trackpoint>
          <Trackpoint>
            <Time>2022-09-24T13:36:29.000Z</Time>
            <Position>
              <LatitudeDegrees>43.26957042329013347625732421875</LatitudeDegrees>
              <LongitudeDegrees>-2.94032829813659191131591796875</LongitudeDegrees>
            </Position>
            <DistanceMeters>1107.2351268292</DistanceMeters>
          </Trackpoint>
          <Trackpoint>
            <Time>2022-09-24T13:36:30.000Z</Time>
            <Position>
              <LatitudeDegrees>43.2695689983665943145751953125</LatitudeDegrees>
              <LongitudeDegrees>-2.94033248908817768096923828125</LongitudeDegrees>
            </Position>
            <DistanceMeters>1107.6152336867</DistanceMeters>
          </Trackpoint>
          <Trackpoint>
            <Time>2022-09-24T13:36:31.000Z</Time>
            <Position>
              <LatitudeDegrees>43.26956757344305515289306640625</LatitudeDegrees>
              <LongitudeDegrees>-2.940336763858795166015625</LongitudeDegrees>
            </Position>
            <DistanceMeters>1107.9832705689</DistanceMeters>
          </Trackpoint>
          <Trackpoint>
            <Time>2022-09-24T13:36:32.000Z</Time>
            <Position>
              <LatitudeDegrees>43.2695661485195159912109375</LatitudeDegrees>
              <LongitudeDegrees>-2.94034120626747608184814453125</LongitudeDegrees>
            </Position>
            <DistanceMeters>1108.3633774264</DistanceMeters>
          </Trackpoint>
          <Trackpoint>
            <Time>2022-09-24T13:36:33.000Z</Time>
            <Position>
              <LatitudeDegrees>43.26956472359597682952880859375</LatitudeDegrees>
              <LongitudeDegrees>-2.94034573249518871307373046875</LongitudeDegrees>
            </Position>
            <DistanceMeters>1108.755182607</DistanceMeters>
          </Trackpoint>
          <Trackpoint>
            <Time>2022-09-24T13:36:34.000Z</Time>
            <Position>
              <LatitudeDegrees>43.2695634663105010986328125</LatitudeDegrees>
              <LongitudeDegrees>-2.94035025872290134429931640625</LongitudeDegrees>
            </Position>
            <DistanceMeters>1109.1583468117</DistanceMeters>
          </Trackpoint>
          <Trackpoint>
            <Time>2022-09-24T13:36:35.000Z</Time>
            <Position>
              <LatitudeDegrees>43.26956212520599365234375</LatitudeDegrees>
              <LongitudeDegrees>-2.94035495258867740631103515625</LongitudeDegrees>
            </Position>
            <DistanceMeters>1109.5615110165</DistanceMeters>
          </Trackpoint>
          <Trackpoint>
            <Time>2022-09-24T13:36:36.000Z</Time>
            <Position>
              <LatitudeDegrees>43.2695609517395496368408203125</LatitudeDegrees>
              <LongitudeDegrees>-2.9403597302734851837158203125</LongitudeDegrees>
            </Position>
            <DistanceMeters>1109.9646752212</DistanceMeters>
          </Trackpoint>
          <Trackpoint>
            <Time>2022-09-24T13:36:37.000Z</Time>
            <Position>
              <LatitudeDegrees>43.26955969445407390594482421875</LatitudeDegrees>
              <LongitudeDegrees>-2.940364591777324676513671875</LongitudeDegrees>
            </Position>
            <DistanceMeters>1110.3788870661</DistanceMeters>
          </Trackpoint>
          <Trackpoint>
            <Time>2022-09-24T13:36:38.000Z</Time>
            <Position>
              <LatitudeDegrees>43.269558437168598175048828125</LatitudeDegrees>
              <LongitudeDegrees>-2.94036920182406902313232421875</LongitudeDegrees>
            </Position>
            <DistanceMeters>1110.7589939236</DistanceMeters>
          </Trackpoint>
          <Trackpoint>
            <Time>2022-09-24T13:36:39.000Z</Time>
            <Position>
              <LatitudeDegrees>43.2695572637021541595458984375</LatitudeDegrees>
              <LongitudeDegrees>-2.94037356041371822357177734375</LongitudeDegrees>
            </Position>
            <DistanceMeters>1111.1391007811</DistanceMeters>
          </Trackpoint>
          <Trackpoint>
            <Time>2022-09-24T13:36:40.000Z</Time>
            <Position>
              <LatitudeDegrees>43.26955609023571014404296875</LatitudeDegrees>
              <LongitudeDegrees>-2.9403781704604625701904296875</LongitudeDegrees>
            </Position>
            <DistanceMeters>1111.5309059617</DistanceMeters>
          </Trackpoint>
          <Trackpoint>
            <Time>2022-09-24T13:36:41.000Z</Time>
            <Position>
              <LatitudeDegrees>43.26955500058829784393310546875</LatitudeDegrees>
              <LongitudeDegrees>-2.94038236141204833984375</LongitudeDegrees>
            </Position>
            <DistanceMeters>1111.8864633694</DistanceMeters>
          </Trackpoint>
          <Trackpoint>
            <Time>2022-09-24T13:36:42.000Z</Time>
            <Position>
              <LatitudeDegrees>43.26955399475991725921630859375</LatitudeDegrees>
              <LongitudeDegrees>-2.9403863847255706787109375</LongitudeDegrees>
            </Position>
            <DistanceMeters>1112.2290870606</DistanceMeters>
          </Trackpoint>
          <Trackpoint>
            <Time>2022-09-24T13:36:43.000Z</Time>
            <Position>
              <LatitudeDegrees>43.269553072750568389892578125</LatitudeDegrees>
              <LongitudeDegrees>-2.94039049185812473297119140625</LongitudeDegrees>
            </Position>
            <DistanceMeters>1112.5717107518</DistanceMeters>
          </Trackpoint>
          <Trackpoint>
            <Time>2022-09-24T13:36:44.000Z</Time>
            <Position>
              <LatitudeDegrees>43.26955198310315608978271484375</LatitudeDegrees>
              <LongitudeDegrees>-2.9403945989906787872314453125</LongitudeDegrees>
            </Position>
            <DistanceMeters>1112.9272681596</DistanceMeters>
          </Trackpoint>
          <Trackpoint>
            <Time>2022-09-24T13:36:45.000Z</Time>
            <Position>
              <LatitudeDegrees>43.2695505581796169281005859375</LatitudeDegrees>
              <LongitudeDegrees>-2.94039887376129627227783203125</LongitudeDegrees>
            </Position>
            <DistanceMeters>1113.3073750171</DistanceMeters>
          </Trackpoint>
          <Trackpoint>
            <Time>2022-09-24T13:36:46.000Z</Time>
            <Position>
              <LatitudeDegrees>43.26954930089414119720458984375</LatitudeDegrees>
              <LongitudeDegrees>-2.940402813255786895751953125</LongitudeDegrees>
            </Position>
            <DistanceMeters>1113.6629324248</DistanceMeters>
          </Trackpoint>
          <Trackpoint>
            <Time>2022-09-24T13:36:47.000Z</Time>
            <Position>
              <LatitudeDegrees>43.26954795978963375091552734375</LatitudeDegrees>
              <LongitudeDegrees>-2.94040692038834095001220703125</LongitudeDegrees>
            </Position>
            <DistanceMeters>1114.0184898326</DistanceMeters>
          </Trackpoint>
          <Trackpoint>
            <Time>2022-09-24T13:36:48.000Z</Time>
            <Position>
              <LatitudeDegrees>43.26954645104706287384033203125</LatitudeDegrees>
              <LongitudeDegrees>-2.94041077606379985809326171875</LongitudeDegrees>
            </Position>
            <DistanceMeters>1114.3740472404</DistanceMeters>
          </Trackpoint>
          <Trackpoint>
            <Time>2022-09-24T13:36:49.000Z</Time>
            <Position>
              <LatitudeDegrees>43.26954477466642856597900390625</LatitudeDegrees>
              <LongitudeDegrees>-2.94041454792022705078125</LongitudeDegrees>
            </Position>
            <DistanceMeters>1114.7420841226</DistanceMeters>
          </Trackpoint>
          <Trackpoint>
            <Time>2022-09-24T13:36:50.000Z</Time>
            <Position>
              <LatitudeDegrees>43.26954309828579425811767578125</LatitudeDegrees>
              <LongitudeDegrees>-2.940418235957622528076171875</LongitudeDegrees>
            </Position>
            <DistanceMeters>1115.0976415303</DistanceMeters>
          </Trackpoint>
          <Trackpoint>
            <Time>2022-09-24T13:36:51.000Z</Time>
            <Position>
              <LatitudeDegrees>43.269541673362255096435546875</LatitudeDegrees>
              <LongitudeDegrees>-2.940420918166637420654296875</LongitudeDegrees>
            </Position>
            <DistanceMeters>1115.3664176668</DistanceMeters>
          </Trackpoint>
          <Trackpoint>
            <Time>2022-09-24T13:36:52.000Z</Time>
            <Position>
              <LatitudeDegrees>43.26954024843871593475341796875</LatitudeDegrees>
              <LongitudeDegrees>-2.94042318128049373626708984375</LongitudeDegrees>
            </Position>
            <DistanceMeters>1115.599184629</DistanceMeters>
          </Trackpoint>
          <Trackpoint>
            <Time>2022-09-24T13:36:53.000Z</Time>
            <Position>
              <LatitudeDegrees>43.269538320600986480712890625</LatitudeDegrees>
              <LongitudeDegrees>-2.94042527675628662109375</LongitudeDegrees>
            </Position>
            <DistanceMeters>1115.8679607655</DistanceMeters>
          </Trackpoint>
          <Trackpoint>
            <Time>2022-09-24T13:36:54.000Z</Time>
            <Position>
              <LatitudeDegrees>43.26953597366809844970703125</LatitudeDegrees>
              <LongitudeDegrees>-2.9404266178607940673828125</LongitudeDegrees>
            </Position>
            <DistanceMeters>1116.136736902</DistanceMeters>
          </Trackpoint>
          <Trackpoint>
            <Time>2022-09-24T13:36:55.000Z</Time>
            <Position>
              <LatitudeDegrees>43.2695334590971469879150390625</LatitudeDegrees>
              <LongitudeDegrees>-2.94042821042239665985107421875</LongitudeDegrees>
            </Position>
            <DistanceMeters>1116.4372377579</DistanceMeters>
          </Trackpoint>
          <Trackpoint>
            <Time>2022-09-24T13:36:56.000Z</Time>
            <Position>
              <LatitudeDegrees>43.26953086070716381072998046875</LatitudeDegrees>
              <LongitudeDegrees>-2.94042938388884067535400390625</LongitudeDegrees>
            </Position>
            <DistanceMeters>1116.7377386139</DistanceMeters>
          </Trackpoint>
          <Trackpoint>
            <Time>2022-09-24T13:36:57.000Z</Time>
            <Position>
              <LatitudeDegrees>43.26952784322202205657958984375</LatitudeDegrees>
              <LongitudeDegrees>-2.9404301382601261138916015625</LongitudeDegrees>
            </Position>
            <DistanceMeters>1117.0932960217</DistanceMeters>
          </Trackpoint>
          <Trackpoint>
            <Time>2022-09-24T13:36:58.000Z</Time>
            <Position>
              <LatitudeDegrees>43.2695247419178485870361328125</LatitudeDegrees>
              <LongitudeDegrees>-2.940430305898189544677734375</LongitudeDegrees>
            </Position>
            <DistanceMeters>1117.4488534294</DistanceMeters>
          </Trackpoint>
          <Trackpoint>
            <Time>2022-09-24T13:36:59.000Z</Time>
            <Position>
              <LatitudeDegrees>43.2695230655372142791748046875</LatitudeDegrees>
              <LongitudeDegrees>-2.94043323956429958343505859375</LongitudeDegrees>
            </Position>
            <DistanceMeters>1117.7339335725</DistanceMeters>
          </Trackpoint>
          <Trackpoint>
            <Time>2022-09-24T13:37:00.000Z</Time>
            <Position>
              <LatitudeDegrees>43.26952180825173854827880859375</LatitudeDegrees>
              <LongitudeDegrees>-2.94043608941137790679931640625</LongitudeDegrees>
            </Position>
            <DistanceMeters>1118.002709709</DistanceMeters>
          </Trackpoint>
          <Trackpoint>
            <Time>2022-09-24T13:37:01.000Z</Time>
            <Position>
              <LatitudeDegrees>43.26952046714723110198974609375</LatitudeDegrees>
              <LongitudeDegrees>-2.9404381848871707916259765625</LongitudeDegrees>
            </Position>
            <DistanceMeters>1118.2151959021</DistanceMeters>
          </Trackpoint>
          <Trackpoint>
            <Time>2022-09-24T13:37:02.000Z</Time>
            <Position>
              <LatitudeDegrees>43.26951895840466022491455078125</LatitudeDegrees>
              <LongitudeDegrees>-2.94044145382940769195556640625</LongitudeDegrees>
            </Position>
            <DistanceMeters>1118.5303638587</DistanceMeters>
          </Trackpoint>
          <Trackpoint>
            <Time>2022-09-24T13:37:03.000Z</Time>
            <Position>
              <LatitudeDegrees>43.26951728202402591705322265625</LatitudeDegrees>
              <LongitudeDegrees>-2.940445058047771453857421875</LongitudeDegrees>
            </Position>
            <DistanceMeters>1118.8859212664</DistanceMeters>
          </Trackpoint>
          <Trackpoint>
            <Time>2022-09-24T13:37:04.000Z</Time>
            <Position>
              <LatitudeDegrees>43.26951560564339160919189453125</LatitudeDegrees>
              <LongitudeDegrees>-2.94044874608516693115234375</LongitudeDegrees>
            </Position>
            <DistanceMeters>1119.2414786742</DistanceMeters>
          </Trackpoint>
          <Trackpoint>
            <Time>2022-09-24T13:37:05.000Z</Time>
            <Position>
              <LatitudeDegrees>43.269514180719852447509765625</LatitudeDegrees>
              <LongitudeDegrees>-2.9404522664844989776611328125</LongitudeDegrees>
            </Position>
            <DistanceMeters>1119.5706608689</DistanceMeters>
          </Trackpoint>
          <Trackpoint>
            <Time>2022-09-24T13:37:06.000Z</Time>
            <Position>
              <LatitudeDegrees>43.26951242052018642425537109375</LatitudeDegrees>
              <LongitudeDegrees>-2.9404556192457675933837890625</LongitudeDegrees>
            </Position>
            <DistanceMeters>1119.9132845601</DistanceMeters>
          </Trackpoint>
          <Trackpoint>
            <Time>2022-09-24T13:37:07.000Z</Time>
            <Position>
              <LatitudeDegrees>43.26951040886342525482177734375</LatitudeDegrees>
              <LongitudeDegrees>-2.94045804999768733978271484375</LongitudeDegrees>
            </Position>
            <DistanceMeters>1120.2137854161</DistanceMeters>
          </Trackpoint>
          <Trackpoint>
            <Time>2022-09-24T13:37:08.000Z</Time>
            <Position>
              <LatitudeDegrees>43.26950806193053722381591796875</LatitudeDegrees>
              <LongitudeDegrees>-2.94045939110219478607177734375</LongitudeDegrees>
            </Position>
            <DistanceMeters>1120.4825615526</DistanceMeters>
          </Trackpoint>
          <Trackpoint>
            <Time>2022-09-24T13:37:09.000Z</Time>
            <Position>
              <LatitudeDegrees>43.269502110779285430908203125</LatitudeDegrees>
              <LongitudeDegrees>-2.94045017100870609283447265625</LongitudeDegrees>
            </Position>
            <DistanceMeters>1121.479210141</DistanceMeters>
          </Trackpoint>
          <Trackpoint>
            <Time>2022-09-24T13:37:10.000Z</Time>
            <Position>
              <LatitudeDegrees>43.2694979198276996612548828125</LatitudeDegrees>
              <LongitudeDegrees>-2.9404401965439319610595703125</LongitudeDegrees>
            </Position>
            <DistanceMeters>1122.4102779896</DistanceMeters>
          </Trackpoint>
          <Trackpoint>
            <Time>2022-09-24T13:37:11.000Z</Time>
            <Position>
              <LatitudeDegrees>43.26949381269514560699462890625</LatitudeDegrees>
              <LongitudeDegrees>-2.9404294677078723907470703125</LongitudeDegrees>
            </Position>
            <DistanceMeters>1123.3932419663</DistanceMeters>
          </Trackpoint>
          <Trackpoint>
            <Time>2022-09-24T13:37:12.000Z</Time>
            <Position>
              <LatitudeDegrees>43.2694888673722743988037109375</LatitudeDegrees>
              <LongitudeDegrees>-2.940417230129241943359375</LongitudeDegrees>
            </Position>
            <DistanceMeters>1124.5256159571</DistanceMeters>
          </Trackpoint>
          <Trackpoint>
            <Time>2022-09-24T13:37:13.000Z</Time>
            <Position>
              <LatitudeDegrees>43.2694824971258640289306640625</LatitudeDegrees>
              <LongitudeDegrees>-2.94040457345545291900634765625</LongitudeDegrees>
            </Position>
            <DistanceMeters>1125.7718796324</DistanceMeters>
          </Trackpoint>
          <Trackpoint>
            <Time>2022-09-24T13:37:14.000Z</Time>
            <Position>
              <LatitudeDegrees>43.26947562396526336669921875</LatitudeDegrees>
              <LongitudeDegrees>-2.94039241969585418701171875</LongitudeDegrees>
            </Position>
            <DistanceMeters>1127.0181433077</DistanceMeters>
          </Trackpoint>
          <Trackpoint>
            <Time>2022-09-24T13:37:15.000Z</Time>
            <Position>
              <LatitudeDegrees>43.2694700919091701507568359375</LatitudeDegrees>
              <LongitudeDegrees>-2.9403810203075408935546875</LongitudeDegrees>
            </Position>
            <DistanceMeters>1128.1263357081</DistanceMeters>
          </Trackpoint>
          <Trackpoint>
            <Time>2022-09-24T13:37:16.000Z</Time>
            <Position>
              <LatitudeDegrees>43.26946531422436237335205078125</LatitudeDegrees>
              <LongitudeDegrees>-2.940369285643100738525390625</LongitudeDegrees>
            </Position>
            <DistanceMeters>1129.2098069527</DistanceMeters>
          </Trackpoint>
          <Trackpoint>
            <Time>2022-09-24T13:37:17.000Z</Time>
            <Position>
              <LatitudeDegrees>43.26946112327277660369873046875</LatitudeDegrees>
              <LongitudeDegrees>-2.940357886254787445068359375</LongitudeDegrees>
            </Position>
            <DistanceMeters>1130.2420612917</DistanceMeters>
          </Trackpoint>
          <Trackpoint>
            <Time>2022-09-24T13:37:18.000Z</Time>
            <Position>
              <LatitudeDegrees>43.2694573514163494110107421875</LatitudeDegrees>
              <LongitudeDegrees>-2.94034724123775959014892578125</LongitudeDegrees>
            </Position>
            <DistanceMeters>1131.1923284354</DistanceMeters>
          </Trackpoint>
          <Trackpoint>
            <Time>2022-09-24T13:37:19.000Z</Time>
            <Position>
              <LatitudeDegrees>43.26945374719798564910888671875</LatitudeDegrees>
              <LongitudeDegrees>-2.94033936224877834320068359375</LongitudeDegrees>
            </Position>
            <DistanceMeters>1131.9405695326</DistanceMeters>
          </Trackpoint>
          <Trackpoint>
            <Time>2022-09-24T13:37:20.000Z</Time>
            <Position>
              <LatitudeDegrees>43.26945005916059017181396484375</LatitudeDegrees>
              <LongitudeDegrees>-2.94033148325979709625244140625</LongitudeDegrees>
            </Position>
            <DistanceMeters>1132.7007832475</DistanceMeters>
          </Trackpoint>
          <Trackpoint>
            <Time>2022-09-24T13:37:21.000Z</Time>
            <Position>
              <LatitudeDegrees>43.269446790218353271484375</LatitudeDegrees>
              <LongitudeDegrees>-2.9403235204517841339111328125</LongitudeDegrees>
            </Position>
            <DistanceMeters>1133.4368570119</DistanceMeters>
          </Trackpoint>
          <Trackpoint>
            <Time>2022-09-24T13:37:22.000Z</Time>
            <Position>
              <LatitudeDegrees>43.26944352127611637115478515625</LatitudeDegrees>
              <LongitudeDegrees>-2.9403154738247394561767578125</LongitudeDegrees>
            </Position>
            <DistanceMeters>1134.1850981091</DistanceMeters>
          </Trackpoint>
          <Trackpoint>
            <Time>2022-09-24T13:37:23.000Z</Time>
            <Position>
              <LatitudeDegrees>43.26944150961935520172119140625</LatitudeDegrees>
              <LongitudeDegrees>-2.94030801393091678619384765625</LongitudeDegrees>
            </Position>
            <DistanceMeters>1134.8225566881</DistanceMeters>
          </Trackpoint>
          <Trackpoint>
            <Time>2022-09-24T13:37:24.000Z</Time>
            <Position>
              <LatitudeDegrees>43.2694395817816257476806640625</LatitudeDegrees>
              <LongitudeDegrees>-2.9403003863990306854248046875</LongitudeDegrees>
            </Position>
            <DistanceMeters>1135.4809210776</DistanceMeters>
          </Trackpoint>
          <Trackpoint>
            <Time>2022-09-24T13:37:25.000Z</Time>
            <Position>
              <LatitudeDegrees>43.2694392465054988861083984375</LatitudeDegrees>
              <LongitudeDegrees>-2.9402933456003665924072265625</LongitudeDegrees>
            </Position>
            <DistanceMeters>1136.0510813638</DistanceMeters>
          </Trackpoint>
          <Trackpoint>
            <Time>2022-09-24T13:37:26.000Z</Time>
            <Position>
              <LatitudeDegrees>43.26943933032453060150146484375</LatitudeDegrees>
              <LongitudeDegrees>-2.94028647243976593017578125</LongitudeDegrees>
            </Position>
            <DistanceMeters>1136.605177564</DistanceMeters>
          </Trackpoint>
          <Trackpoint>
            <Time>2022-09-24T13:37:27.000Z</Time>
            <Position>
              <LatitudeDegrees>43.26943983323872089385986328125</LatitudeDegrees>
              <LongitudeDegrees>-2.9402795992791652679443359375</LongitudeDegrees>
            </Position>
            <DistanceMeters>1137.1592737642</DistanceMeters>
          </Trackpoint>
          <Trackpoint>
            <Time>2022-09-24T13:37:28.000Z</Time>
            <Position>
              <LatitudeDegrees>43.26944067142903804779052734375</LatitudeDegrees>
              <LongitudeDegrees>-2.940272726118564605712890625</LongitudeDegrees>
            </Position>
            <DistanceMeters>1137.721459388</DistanceMeters>
          </Trackpoint>
          <Trackpoint>
            <Time>2022-09-24T13:37:29.000Z</Time>
            <Position>
              <LatitudeDegrees>43.26943681575357913970947265625</LatitudeDegrees>
              <LongitudeDegrees>-2.94026141054928302764892578125</LongitudeDegrees>
            </Position>
            <DistanceMeters>1138.7271276045</DistanceMeters>
          </Trackpoint>
          <Trackpoint>
            <Time>2022-09-24T13:37:30.000Z</Time>
            <Position>
              <LatitudeDegrees>43.26943296007812023162841796875</LatitudeDegrees>
              <LongitudeDegrees>-2.9402487538754940032958984375</LongitudeDegrees>
            </Position>
            <DistanceMeters>1139.8353200049</DistanceMeters>
          </Trackpoint>
          <Trackpoint>
            <Time>2022-09-24T13:37:31.000Z</Time>
            <Position>
              <LatitudeDegrees>43.2694293558597564697265625</LatitudeDegrees>
              <LongitudeDegrees>-2.9402356781065464019775390625</LongitudeDegrees>
            </Position>
            <DistanceMeters>1140.9716742329</DistanceMeters>
          </Trackpoint>
          <Trackpoint>
            <Time>2022-09-24T13:37:32.000Z</Time>
            <Position>
              <LatitudeDegrees>43.26942709274590015411376953125</LatitudeDegrees>
              <LongitudeDegrees>-2.94022318907082080841064453125</LongitudeDegrees>
            </Position>
            <DistanceMeters>1142.0126397335</DistanceMeters>
          </Trackpoint>
          <Trackpoint>
            <Time>2022-09-24T13:37:33.000Z</Time>
            <Position>
              <LatitudeDegrees>43.26942575164139270782470703125</LatitudeDegrees>
              <LongitudeDegrees>-2.9402108676731586456298828125</LongitudeDegrees>
            </Position>
            <DistanceMeters>1143.0227875633</DistanceMeters>
          </Trackpoint>
          <Trackpoint>
            <Time>2022-09-24T13:37:34.000Z</Time>
            <Position>
              <LatitudeDegrees>43.269424997270107269287109375</LatitudeDegrees>
              <LongitudeDegrees>-2.9401998035609722137451171875</LongitudeDegrees>
            </Position>
            <DistanceMeters>1143.9242901312</DistanceMeters>
          </Trackpoint>
          <Trackpoint>
            <Time>2022-09-24T13:37:35.000Z</Time>
            <Position>
              <LatitudeDegrees>43.26942357234656810760498046875</LatitudeDegrees>
              <LongitudeDegrees>-2.94018924236297607421875</LongitudeDegrees>
            </Position>
            <DistanceMeters>1144.7952243545</DistanceMeters>
          </Trackpoint>
          <Trackpoint>
            <Time>2022-09-24T13:37:36.000Z</Time>
            <Position>
              <LatitudeDegrees>43.26942122541368007659912109375</LatitudeDegrees>
              <LongitudeDegrees>-2.940179519355297088623046875</LongitudeDegrees>
            </Position>
            <DistanceMeters>1145.6236480443</DistanceMeters>
          </Trackpoint>
          <Trackpoint>
            <Time>2022-09-24T13:37:37.000Z</Time>
            <Position>
              <LatitudeDegrees>43.2694198004901409149169921875</LatitudeDegrees>
              <LongitudeDegrees>-2.94017105363309383392333984375</LongitudeDegrees>
            </Position>
            <DistanceMeters>1146.3219489307</DistanceMeters>
          </Trackpoint>
          <Trackpoint>
            <Time>2022-09-24T13:37:38.000Z</Time>
            <Position>
              <LatitudeDegrees>43.2694211415946483612060546875</LatitudeDegrees>
              <LongitudeDegrees>-2.9401656053960323333740234375</LongitudeDegrees>
            </Position>
            <DistanceMeters>1146.787482855</DistanceMeters>
          </Trackpoint>
          <Trackpoint>
            <Time>2022-09-24T13:37:39.000Z</Time>
            <Position>
              <LatitudeDegrees>43.2694338820874691009521484375</LatitudeDegrees>
              <LongitudeDegrees>-2.9401702992618083953857421875</LongitudeDegrees>
            </Position>
            <DistanceMeters>1148.2534836031</DistanceMeters>
          </Trackpoint>
          <Trackpoint>
            <Time>2022-09-24T13:37:40.000Z</Time>
            <Position>
              <LatitudeDegrees>43.2694446109235286712646484375</LatitudeDegrees>
              <LongitudeDegrees>-2.940175831317901611328125</LongitudeDegrees>
            </Position>
            <DistanceMeters>1149.5284007612</DistanceMeters>
          </Trackpoint>
          <Trackpoint>
            <Time>2022-09-24T13:37:41.000Z</Time>
            <Position>
              <LatitudeDegrees>43.2694534957408905029296875</LatitudeDegrees>
              <LongitudeDegrees>-2.9401820339262485504150390625</LongitudeDegrees>
            </Position>
            <DistanceMeters>1150.6365931616</DistanceMeters>
          </Trackpoint>
          <Trackpoint>
            <Time>2022-09-24T13:37:42.000Z</Time>
            <Position>
              <LatitudeDegrees>43.2694600336253643035888671875</LatitudeDegrees>
              <LongitudeDegrees>-2.94018848799169063568115234375</LongitudeDegrees>
            </Position>
            <DistanceMeters>1151.528022759</DistanceMeters>
          </Trackpoint>
          <Trackpoint>
            <Time>2022-09-24T13:37:43.000Z</Time>
            <Position>
              <LatitudeDegrees>43.26946430839598178863525390625</LatitudeDegrees>
              <LongitudeDegrees>-2.9401959478855133056640625</LongitudeDegrees>
            </Position>
            <DistanceMeters>1152.288236474</DistanceMeters>
          </Trackpoint>
          <Trackpoint>
            <Time>2022-09-24T13:37:44.000Z</Time>
            <Position>
              <LatitudeDegrees>43.26946715824306011199951171875</LatitudeDegrees>
              <LongitudeDegrees>-2.94020466506481170654296875</LongitudeDegrees>
            </Position>
            <DistanceMeters>1153.060237151</DistanceMeters>
          </Trackpoint>
          <Trackpoint>
            <Time>2022-09-24T13:37:45.000Z</Time>
            <Position>
              <LatitudeDegrees>43.2694695889949798583984375</LatitudeDegrees>
              <LongitudeDegrees>-2.94021380133926868438720703125</LongitudeDegrees>
            </Position>
            <DistanceMeters>1153.8552876846</DistanceMeters>
          </Trackpoint>
          <Trackpoint>
            <Time>2022-09-24T13:37:46.000Z</Time>
            <Position>
              <LatitudeDegrees>43.26947269029915332794189453125</LatitudeDegrees>
              <LongitudeDegrees>-2.94022402726113796234130859375</LongitudeDegrees>
            </Position>
            <DistanceMeters>1154.7567902525</DistanceMeters>
          </Trackpoint>
          <Trackpoint>
            <Time>2022-09-24T13:37:47.000Z</Time>
            <Position>
              <LatitudeDegrees>43.26947604306042194366455078125</LatitudeDegrees>
              <LongitudeDegrees>-2.94023592956364154815673828125</LongitudeDegrees>
            </Position>
            <DistanceMeters>1155.7890445916</DistanceMeters>
          </Trackpoint>
          <Trackpoint>
            <Time>2022-09-24T13:37:48.000Z</Time>
            <Position>
              <LatitudeDegrees>43.26947922818362712860107421875</LatitudeDegrees>
              <LongitudeDegrees>-2.9402494244277477264404296875</LongitudeDegrees>
            </Position>
            <DistanceMeters>1156.9411822731</DistanceMeters>
          </Trackpoint>
          <Trackpoint>
            <Time>2022-09-24T13:37:49.000Z</Time>
            <Position>
              <LatitudeDegrees>43.26948308385908603668212890625</LatitudeDegrees>
              <LongitudeDegrees>-2.94025830924510955810546875</LongitudeDegrees>
            </Position>
            <DistanceMeters>1157.7804354903</DistanceMeters>
          </Trackpoint>
          <Trackpoint>
            <Time>2022-09-24T13:37:50.000Z</Time>
            <Position>
              <LatitudeDegrees>43.26948693953454494476318359375</LatitudeDegrees>
              <LongitudeDegrees>-2.9402683675289154052734375</LongitudeDegrees>
            </Position>
            <DistanceMeters>1158.7017536687</DistanceMeters>
          </Trackpoint>
          <Trackpoint>
            <Time>2022-09-24T13:37:51.000Z</Time>
            <Position>
              <LatitudeDegrees>43.26949062757194042205810546875</LatitudeDegrees>
              <LongitudeDegrees>-2.9402792640030384063720703125</LongitudeDegrees>
            </Position>
            <DistanceMeters>1159.6708398104</DistanceMeters>
          </Trackpoint>
          <Trackpoint>
            <Time>2022-09-24T13:37:52.000Z</Time>
            <Position>
              <LatitudeDegrees>43.269494064152240753173828125</LatitudeDegrees>
              <LongitudeDegrees>-2.94029141776263713836669921875</LongitudeDegrees>
            </Position>
            <DistanceMeters>1160.729012518</DistanceMeters>
          </Trackpoint>
          <Trackpoint>
            <Time>2022-09-24T13:37:53.000Z</Time>
            <Position>
              <LatitudeDegrees>43.269497416913509368896484375</LatitudeDegrees>
              <LongitudeDegrees>-2.940304242074489593505859375</LongitudeDegrees>
            </Position>
            <DistanceMeters>1161.8372049184</DistanceMeters>
          </Trackpoint>
          <Trackpoint>
            <Time>2022-09-24T13:37:54.000Z</Time>
            <Position>
              <LatitudeDegrees>43.26950035057961940765380859375</LatitudeDegrees>
              <LongitudeDegrees>-2.94031891040503978729248046875</LongitudeDegrees>
            </Position>
            <DistanceMeters>1163.068891909</DistanceMeters>
          </Trackpoint>
          <Trackpoint>
            <Time>2022-09-24T13:37:55.000Z</Time>
            <Position>
              <LatitudeDegrees>43.26950320042669773101806640625</LatitudeDegrees>
              <LongitudeDegrees>-2.940334416925907135009765625</LongitudeDegrees>
            </Position>
            <DistanceMeters>1164.3648835056</DistanceMeters>
          </Trackpoint>
          <Trackpoint>
            <Time>2022-09-24T13:37:56.000Z</Time>
            <Position>
              <LatitudeDegrees>43.269505463540554046630859375</LatitudeDegrees>
              <LongitudeDegrees>-2.9403510130941867828369140625</LongitudeDegrees>
            </Position>
            <DistanceMeters>1165.7287734379</DistanceMeters>
          </Trackpoint>
          <Trackpoint>
            <Time>2022-09-24T13:37:57.000Z</Time>
            <Position>
              <LatitudeDegrees>43.2695073075592517852783203125</LatitudeDegrees>
              <LongitudeDegrees>-2.94036802835762500762939453125</LongitudeDegrees>
            </Position>
            <DistanceMeters>1167.1221385858</DistanceMeters>
          </Trackpoint>
          <Trackpoint>
            <Time>2022-09-24T13:37:58.000Z</Time>
            <Position>
              <LatitudeDegrees>43.269508816301822662353515625</LatitudeDegrees>
              <LongitudeDegrees>-2.9403862170875072479248046875</LongitudeDegrees>
            </Position>
            <DistanceMeters>1168.6065033161</DistanceMeters>
          </Trackpoint>
          <Trackpoint>
            <Time>2022-09-24T13:37:59.000Z</Time>
            <Position>
              <LatitudeDegrees>43.26951007358729839324951171875</LatitudeDegrees>
              <LongitudeDegrees>-2.9404049925506114959716796875</LongitudeDegrees>
            </Position>
            <DistanceMeters>1170.1358135524</DistanceMeters>
          </Trackpoint>
          <Trackpoint>
            <Time>2022-09-24T13:38:00.000Z</Time>
            <Position>
              <LatitudeDegrees>43.26951107941567897796630859375</LatitudeDegrees>
              <LongitudeDegrees>-2.9404247738420963287353515625</LongitudeDegrees>
            </Position>
            <DistanceMeters>1171.7428611133</DistanceMeters>
          </Trackpoint>
          <Trackpoint>
            <Time>2022-09-24T13:38:01.000Z</Time>
            <Position>
              <LatitudeDegrees>43.26951208524405956268310546875</LatitudeDegrees>
              <LongitudeDegrees>-2.94044480659067630767822265625</LongitudeDegrees>
            </Position>
            <DistanceMeters>1173.3694564527</DistanceMeters>
          </Trackpoint>
          <Trackpoint>
            <Time>2022-09-24T13:38:02.000Z</Time>
            <Position>
              <LatitudeDegrees>43.2695123367011547088623046875</LatitudeDegrees>
              <LongitudeDegrees>-2.94046492315828800201416015625</LongitudeDegrees>
            </Position>
            <DistanceMeters>1174.9988251876</DistanceMeters>
          </Trackpoint>
          <Trackpoint>
            <Time>2022-09-24T13:38:03.000Z</Time>
            <Position>
              <LatitudeDegrees>43.2695125043392181396484375</LatitudeDegrees>
              <LongitudeDegrees>-2.940484620630741119384765625</LongitudeDegrees>
            </Position>
            <DistanceMeters>1176.5945950825</DistanceMeters>
          </Trackpoint>
          <Trackpoint>
            <Time>2022-09-24T13:38:04.000Z</Time>
            <Position>
              <LatitudeDegrees>43.2695113308727741241455078125</LatitudeDegrees>
              <LongitudeDegrees>-2.94050448574125766754150390625</LongitudeDegrees>
            </Position>
            <DistanceMeters>1178.2128417165</DistanceMeters>
          </Trackpoint>
          <Trackpoint>
            <Time>2022-09-24T13:38:05.000Z</Time>
            <Position>
              <LatitudeDegrees>43.26951024122536182403564453125</LatitudeDegrees>
              <LongitudeDegrees>-2.94052460230886936187744140625</LongitudeDegrees>
            </Position>
            <DistanceMeters>1179.8477431287</DistanceMeters>
          </Trackpoint>
          <Trackpoint>
            <Time>2022-09-24T13:38:06.000Z</Time>
            <Position>
              <LatitudeDegrees>43.26950772665441036224365234375</LatitudeDegrees>
              <LongitudeDegrees>-2.94054421596229076385498046875</LongitudeDegrees>
            </Position>
            <DistanceMeters>1181.463197273</DistanceMeters>
          </Trackpoint>
          <Trackpoint>
            <Time>2022-09-24T13:38:07.000Z</Time>
            <Position>
              <LatitudeDegrees>43.26950470916926860809326171875</LatitudeDegrees>
              <LongitudeDegrees>-2.9405639134347438812255859375</LongitudeDegrees>
            </Position>
            <DistanceMeters>1183.092566008</DistanceMeters>
          </Trackpoint>
          <Trackpoint>
            <Time>2022-09-24T13:38:08.000Z</Time>
            <Position>
              <LatitudeDegrees>43.2695012725889682769775390625</LatitudeDegrees>
              <LongitudeDegrees>-2.94058377854526042938232421875</LongitudeDegrees>
            </Position>
            <DistanceMeters>1184.7466860648</DistanceMeters>
          </Trackpoint>
          <Trackpoint>
            <Time>2022-09-24T13:38:09.000Z</Time>
            <Position>
              <LatitudeDegrees>43.2694975845515727996826171875</LatitudeDegrees>
              <LongitudeDegrees>-2.9406036436557769775390625</LongitudeDegrees>
            </Position>
            <DistanceMeters>1186.4089746655</DistanceMeters>
          </Trackpoint>
          <Trackpoint>
            <Time>2022-09-24T13:38:10.000Z</Time>
            <Position>
              <LatitudeDegrees>43.2694935612380504608154296875</LatitudeDegrees>
              <LongitudeDegrees>-2.940623424947261810302734375</LongitudeDegrees>
            </Position>
            <DistanceMeters>1188.0712632661</DistanceMeters>
          </Trackpoint>
          <Trackpoint>
            <Time>2022-09-24T13:38:11.000Z</Time>
            <Position>
              <LatitudeDegrees>43.26948945410549640655517578125</LatitudeDegrees>
              <LongitudeDegrees>-2.9406437091529369354248046875</LongitudeDegrees>
            </Position>
            <DistanceMeters>1189.7738068158</DistanceMeters>
          </Trackpoint>
          <Trackpoint>
            <Time>2022-09-24T13:38:12.000Z</Time>
            <Position>
              <LatitudeDegrees>43.2694851793348789215087890625</LatitudeDegrees>
              <LongitudeDegrees>-2.940663658082485198974609375</LongitudeDegrees>
            </Position>
            <DistanceMeters>1191.4576844846</DistanceMeters>
          </Trackpoint>
          <Trackpoint>
            <Time>2022-09-24T13:38:13.000Z</Time>
            <Position>
              <LatitudeDegrees>43.2694808207452297210693359375</LatitudeDegrees>
              <LongitudeDegrees>-2.9406842775642871856689453125</LongitudeDegrees>
            </Position>
            <DistanceMeters>1193.1943610613</DistanceMeters>
          </Trackpoint>
          <Trackpoint>
            <Time>2022-09-24T13:38:14.000Z</Time>
            <Position>
              <LatitudeDegrees>43.26947621069848537445068359375</LatitudeDegrees>
              <LongitudeDegrees>-2.94070489704608917236328125</LongitudeDegrees>
            </Position>
            <DistanceMeters>1194.9414059486</DistanceMeters>
          </Trackpoint>
          <Trackpoint>
            <Time>2022-09-24T13:38:15.000Z</Time>
            <Position>
              <LatitudeDegrees>43.269471935927867889404296875</LatitudeDegrees>
              <LongitudeDegrees>-2.940725348889827728271484375</LongitudeDegrees>
            </Position>
            <DistanceMeters>1196.6650344323</DistanceMeters>
          </Trackpoint>
          <Trackpoint>
            <Time>2022-09-24T13:38:16.000Z</Time>
            <Position>
              <LatitudeDegrees>43.26946749351918697357177734375</LatitudeDegrees>
              <LongitudeDegrees>-2.94074588455259799957275390625</LongitudeDegrees>
            </Position>
            <DistanceMeters>1198.4017110091</DistanceMeters>
          </Trackpoint>
          <Trackpoint>
            <Time>2022-09-24T13:38:17.000Z</Time>
            <Position>
              <LatitudeDegrees>43.26946355402469635009765625</LatitudeDegrees>
              <LongitudeDegrees>-2.94076583348214626312255859375</LongitudeDegrees>
            </Position>
            <DistanceMeters>1200.074828966</DistanceMeters>
          </Trackpoint>
          <Trackpoint>
            <Time>2022-09-24T13:38:18.000Z</Time>
            <Position>
              <LatitudeDegrees>43.26945961453020572662353515625</LatitudeDegrees>
              <LongitudeDegrees>-2.94078561477363109588623046875</LongitudeDegrees>
            </Position>
            <DistanceMeters>1201.7371175666</DistanceMeters>
          </Trackpoint>
          <Trackpoint>
            <Time>2022-09-24T13:38:19.000Z</Time>
            <Position>
              <LatitudeDegrees>43.26945676468312740325927734375</LatitudeDegrees>
              <LongitudeDegrees>-2.94080304913222789764404296875</LongitudeDegrees>
            </Position>
            <DistanceMeters>1203.1845213579</DistanceMeters>
          </Trackpoint>
          <Trackpoint>
            <Time>2022-09-24T13:38:20.000Z</Time>
            <Position>
              <LatitudeDegrees>43.2694539986550807952880859375</LatitudeDegrees>
              <LongitudeDegrees>-2.94081964530050754547119140625</LongitudeDegrees>
            </Position>
            <DistanceMeters>1204.5615892768</DistanceMeters>
          </Trackpoint>
          <Trackpoint>
            <Time>2022-09-24T13:38:21.000Z</Time>
            <Position>
              <LatitudeDegrees>43.2694513164460659027099609375</LatitudeDegrees>
              <LongitudeDegrees>-2.94083506800234317779541015625</LongitudeDegrees>
            </Position>
            <DistanceMeters>1205.8470868416</DistanceMeters>
          </Trackpoint>
          <Trackpoint>
            <Time>2022-09-24T13:38:22.000Z</Time>
            <Position>
              <LatitudeDegrees>43.26944880187511444091796875</LatitudeDegrees>
              <LongitudeDegrees>-2.9408504068851470947265625</LongitudeDegrees>
            </Position>
            <DistanceMeters>1207.1184576308</DistanceMeters>
          </Trackpoint>
          <Trackpoint>
            <Time>2022-09-24T13:38:23.000Z</Time>
            <Position>
              <LatitudeDegrees>43.26944586820900440216064453125</LatitudeDegrees>
              <LongitudeDegrees>-2.9408653266727924346923828125</LongitudeDegrees>
            </Position>
            <DistanceMeters>1208.3719460836</DistanceMeters>
          </Trackpoint>
          <Trackpoint>
            <Time>2022-09-24T13:38:24.000Z</Time>
            <Position>
              <LatitudeDegrees>43.26944268308579921722412109375</LatitudeDegrees>
              <LongitudeDegrees>-2.94088016264140605926513671875</LongitudeDegrees>
            </Position>
            <DistanceMeters>1209.6254345363</DistanceMeters>
          </Trackpoint>
          <Trackpoint>
            <Time>2022-09-24T13:38:25.000Z</Time>
            <Position>
              <LatitudeDegrees>43.2694389112293720245361328125</LatitudeDegrees>
              <LongitudeDegrees>-2.94089441187679767608642578125</LongitudeDegrees>
            </Position>
            <DistanceMeters>1210.8571215268</DistanceMeters>
          </Trackpoint>
          <Trackpoint>
            <Time>2022-09-24T13:38:26.000Z</Time>
            <Position>
              <LatitudeDegrees>43.26943513937294483184814453125</LatitudeDegrees>
              <LongitudeDegrees>-2.94090874493122100830078125</LongitudeDegrees>
            </Position>
            <DistanceMeters>1212.0961182966</DistanceMeters>
          </Trackpoint>
          <Trackpoint>
            <Time>2022-09-24T13:38:27.000Z</Time>
            <Position>
              <LatitudeDegrees>43.26943094842135906219482421875</LatitudeDegrees>
              <LongitudeDegrees>-2.940921485424041748046875</LongitudeDegrees>
            </Position>
            <DistanceMeters>1213.2244980104</DistanceMeters>
          </Trackpoint>
          <Trackpoint>
            <Time>2022-09-24T13:38:28.000Z</Time>
            <Position>
              <LatitudeDegrees>43.26942675746977329254150390625</LatitudeDegrees>
              <LongitudeDegrees>-2.9409333877265453338623046875</LongitudeDegrees>
            </Position>
            <DistanceMeters>1214.2953946947</DistanceMeters>
          </Trackpoint>
          <Trackpoint>
            <Time>2022-09-24T13:38:29.000Z</Time>
            <Position>
              <LatitudeDegrees>43.2694211415946483612060546875</LatitudeDegrees>
              <LongitudeDegrees>-2.9409531690180301666259765625</LongitudeDegrees>
            </Position>
            <DistanceMeters>1216.0190231785</DistanceMeters>
          </Trackpoint>
          <Trackpoint>
            <Time>2022-09-24T13:38:30.000Z</Time>
            <Position>
              <LatitudeDegrees>43.269415609538555145263671875</LatitudeDegrees>
              <LongitudeDegrees>-2.94097043573856353759765625</LongitudeDegrees>
            </Position>
            <DistanceMeters>1217.5453782232</DistanceMeters>
          </Trackpoint>
          <Trackpoint>
            <Time>2022-09-24T13:38:31.000Z</Time>
            <Position>
              <LatitudeDegrees>43.26940982602536678314208984375</LatitudeDegrees>
              <LongitudeDegrees>-2.94098560698330402374267578125</LongitudeDegrees>
            </Position>
            <DistanceMeters>1218.9354992104</DistanceMeters>
          </Trackpoint>
          <Trackpoint>
            <Time>2022-09-24T13:38:32.000Z</Time>
            <Position>
              <LatitudeDegrees>43.26940429396927356719970703125</LatitudeDegrees>
              <LongitudeDegrees>-2.9409979283809661865234375</LongitudeDegrees>
            </Position>
            <DistanceMeters>1220.1070672278</DistanceMeters>
          </Trackpoint>
          <Trackpoint>
            <Time>2022-09-24T13:38:33.000Z</Time>
            <Position>
              <LatitudeDegrees>43.26940027065575122833251953125</LatitudeDegrees>
              <LongitudeDegrees>-2.941008321940898895263671875</LongitudeDegrees>
            </Position>
            <DistanceMeters>1221.0573343715</DistanceMeters>
          </Trackpoint>
          <Trackpoint>
            <Time>2022-09-24T13:38:34.000Z</Time>
            <Position>
              <LatitudeDegrees>43.26939742080867290496826171875</LatitudeDegrees>
              <LongitudeDegrees>-2.94101603329181671142578125</LongitudeDegrees>
            </Position>
            <DistanceMeters>1221.7556352579</DistanceMeters>
          </Trackpoint>
          <Trackpoint>
            <Time>2022-09-24T13:38:35.000Z</Time>
            <Position>
              <LatitudeDegrees>43.26939507387578487396240234375</LatitudeDegrees>
              <LongitudeDegrees>-2.94102148152887821197509765625</LongitudeDegrees>
            </Position>
            <DistanceMeters>1222.2761180082</DistanceMeters>
          </Trackpoint>
          <Trackpoint>
            <Time>2022-09-24T13:38:36.000Z</Time>
            <Position>
              <LatitudeDegrees>43.269393481314182281494140625</LatitudeDegrees>
              <LongitudeDegrees>-2.941027767956256866455078125</LongitudeDegrees>
            </Position>
            <DistanceMeters>1222.8136702812</DistanceMeters>
          </Trackpoint>
          <Trackpoint>
            <Time>2022-09-24T13:38:37.000Z</Time>
            <Position>
              <LatitudeDegrees>43.26939138583838939666748046875</LatitudeDegrees>
              <LongitudeDegrees>-2.941033132374286651611328125</LongitudeDegrees>
            </Position>
            <DistanceMeters>1223.3165043895</DistanceMeters>
          </Trackpoint>
          <Trackpoint>
            <Time>2022-09-24T13:38:38.000Z</Time>
            <Position>
              <LatitudeDegrees>43.26938920654356479644775390625</LatitudeDegrees>
              <LongitudeDegrees>-2.94103723950684070587158203125</LongitudeDegrees>
            </Position>
            <DistanceMeters>1223.7196685942</DistanceMeters>
          </Trackpoint>
          <Trackpoint>
            <Time>2022-09-24T13:38:39.000Z</Time>
            <Position>
              <LatitudeDegrees>43.269387446343898773193359375</LatitudeDegrees>
              <LongitudeDegrees>-2.94103355146944522857666015625</LongitudeDegrees>
            </Position>
            <DistanceMeters>1224.075226002</DistanceMeters>
          </Trackpoint>
          <Trackpoint>
            <Time>2022-09-24T13:38:40.000Z</Time>
            <Position>
              <LatitudeDegrees>43.2693864405155181884765625</LatitudeDegrees>
              <LongitudeDegrees>-2.941029779613018035888671875</LongitudeDegrees>
            </Position>
            <DistanceMeters>1224.4044081967</DistanceMeters>
          </Trackpoint>
          <Trackpoint>
            <Time>2022-09-24T13:38:41.000Z</Time>
            <Position>
              <LatitudeDegrees>43.2693852670490741729736328125</LatitudeDegrees>
              <LongitudeDegrees>-2.9410252533853054046630859375</LongitudeDegrees>
            </Position>
            <DistanceMeters>1224.7845150542</DistanceMeters>
          </Trackpoint>
          <Trackpoint>
            <Time>2022-09-24T13:38:42.000Z</Time>
            <Position>
              <LatitudeDegrees>43.269384764134883880615234375</LatitudeDegrees>
              <LongitudeDegrees>-2.94102014042437076568603515625</LongitudeDegrees>
            </Position>
            <DistanceMeters>1225.2094874402</DistanceMeters>
          </Trackpoint>
          <Trackpoint>
            <Time>2022-09-24T13:38:43.000Z</Time>
            <Position>
              <LatitudeDegrees>43.26938484795391559600830078125</LatitudeDegrees>
              <LongitudeDegrees>-2.941015027463436126708984375</LongitudeDegrees>
            </Position>
            <DistanceMeters>1225.6344598262</DistanceMeters>
          </Trackpoint>
          <Trackpoint>
            <Time>2022-09-24T13:38:44.000Z</Time>
            <Position>
              <LatitudeDegrees>43.26938484795391559600830078125</LatitudeDegrees>
              <LongitudeDegrees>-2.94101041741669178009033203125</LongitudeDegrees>
            </Position>
            <DistanceMeters>1225.990017234</DistanceMeters>
          </Trackpoint>
          <Trackpoint>
            <Time>2022-09-24T13:38:45.000Z</Time>
            <Position>
              <LatitudeDegrees>43.26938535086810588836669921875</LatitudeDegrees>
              <LongitudeDegrees>-2.9410061426460742950439453125</LongitudeDegrees>
            </Position>
            <DistanceMeters>1226.3191994287</DistanceMeters>
          </Trackpoint>
          <Trackpoint>
            <Time>2022-09-24T13:38:46.000Z</Time>
            <Position>
              <LatitudeDegrees>43.269386105239391326904296875</LatitudeDegrees>
              <LongitudeDegrees>-2.9410017840564250946044921875</LongitudeDegrees>
            </Position>
            <DistanceMeters>1226.6747568365</DistanceMeters>
          </Trackpoint>
          <Trackpoint>
            <Time>2022-09-24T13:38:47.000Z</Time>
            <Position>
              <LatitudeDegrees>43.26938685961067676544189453125</LatitudeDegrees>
              <LongitudeDegrees>-2.94099725782871246337890625</LongitudeDegrees>
            </Position>
            <DistanceMeters>1227.0427937187</DistanceMeters>
          </Trackpoint>
          <Trackpoint>
            <Time>2022-09-24T13:38:48.000Z</Time>
            <Position>
              <LatitudeDegrees>43.26938753016293048858642578125</LatitudeDegrees>
              <LongitudeDegrees>-2.94099315069615840911865234375</LongitudeDegrees>
            </Position>
            <DistanceMeters>1227.3719759134</DistanceMeters>
          </Trackpoint>
          <Trackpoint>
            <Time>2022-09-24T13:38:49.000Z</Time>
            <Position>
              <LatitudeDegrees>43.2693872787058353424072265625</LatitudeDegrees>
              <LongitudeDegrees>-2.94099080376327037811279296875</LongitudeDegrees>
            </Position>
            <DistanceMeters>1227.5620293421</DistanceMeters>
          </Trackpoint>
          <Trackpoint>
            <Time>2022-09-24T13:38:50.000Z</Time>
            <Position>
              <LatitudeDegrees>43.26938711106777191162109375</LatitudeDegrees>
              <LongitudeDegrees>-2.94098812155425548553466796875</LongitudeDegrees>
            </Position>
            <DistanceMeters>1227.7520827709</DistanceMeters>
          </Trackpoint>
          <Trackpoint>
            <Time>2022-09-24T13:38:51.000Z</Time>
            <Position>
              <LatitudeDegrees>43.26938685961067676544189453125</LatitudeDegrees>
              <LongitudeDegrees>-2.94098518788814544677734375</LongitudeDegrees>
            </Position>
            <DistanceMeters>1227.984849733</DistanceMeters>
          </Trackpoint>
          <Trackpoint>
            <Time>2022-09-24T13:38:52.000Z</Time>
            <Position>
              <LatitudeDegrees>43.269386775791645050048828125</LatitudeDegrees>
              <LongitudeDegrees>-2.94098175130784511566162109375</LongitudeDegrees>
            </Position>
            <DistanceMeters>1228.2536258695</DistanceMeters>
          </Trackpoint>
          <Trackpoint>
            <Time>2022-09-24T13:38:53.000Z</Time>
            <Position>
              <LatitudeDegrees>43.2693866081535816192626953125</LatitudeDegrees>
              <LongitudeDegrees>-2.9409783147275447845458984375</LongitudeDegrees>
            </Position>
            <DistanceMeters>1228.522402006</DistanceMeters>
          </Trackpoint>
          <Trackpoint>
            <Time>2022-09-24T13:38:54.000Z</Time>
            <Position>
              <LatitudeDegrees>43.2693864405155181884765625</LatitudeDegrees>
              <LongitudeDegrees>-2.940974123775959014892578125</LongitudeDegrees>
            </Position>
            <DistanceMeters>1228.8779594138</DistanceMeters>
          </Trackpoint>
          <Trackpoint>
            <Time>2022-09-24T13:38:55.000Z</Time>
            <Position>
              <LatitudeDegrees>43.2693862728774547576904296875</LatitudeDegrees>
              <LongitudeDegrees>-2.9409699328243732452392578125</LongitudeDegrees>
            </Position>
            <DistanceMeters>1229.2335168216</DistanceMeters>
          </Trackpoint>
          <Trackpoint>
            <Time>2022-09-24T13:38:56.000Z</Time>
            <Position>
              <LatitudeDegrees>43.26938602142035961151123046875</LatitudeDegrees>
              <LongitudeDegrees>-2.9409659095108509063720703125</LongitudeDegrees>
            </Position>
            <DistanceMeters>1229.5626990163</DistanceMeters>
          </Trackpoint>
          <Trackpoint>
            <Time>2022-09-24T13:38:57.000Z</Time>
            <Position>
              <LatitudeDegrees>43.26938576996326446533203125</LatitudeDegrees>
              <LongitudeDegrees>-2.94096197001636028289794921875</LongitudeDegrees>
            </Position>
            <DistanceMeters>1229.8778669729</DistanceMeters>
          </Trackpoint>
          <Trackpoint>
            <Time>2022-09-24T13:38:58.000Z</Time>
            <Position>
              <LatitudeDegrees>43.26938551850616931915283203125</LatitudeDegrees>
              <LongitudeDegrees>-2.94095836579799652099609375</LongitudeDegrees>
            </Position>
            <DistanceMeters>1230.1783678289</DistanceMeters>
          </Trackpoint>
          <Trackpoint>
            <Time>2022-09-24T13:38:59.000Z</Time>
            <Position>
              <LatitudeDegrees>43.26938535086810588836669921875</LatitudeDegrees>
              <LongitudeDegrees>-2.9409548453986644744873046875</LongitudeDegrees>
            </Position>
            <DistanceMeters>1230.4471439654</DistanceMeters>
          </Trackpoint>
          <Trackpoint>
            <Time>2022-09-24T13:39:00.000Z</Time>
            <Position>
              <LatitudeDegrees>43.26938442885875701904296875</LatitudeDegrees>
              <LongitudeDegrees>-2.9409535042941570281982421875</LongitudeDegrees>
            </Position>
            <DistanceMeters>1230.5815320336</DistanceMeters>
          </Trackpoint>
          <Trackpoint>
            <Time>2022-09-24T13:39:01.000Z</Time>
            <Position>
              <LatitudeDegrees>43.2693835906684398651123046875</LatitudeDegrees>
              <LongitudeDegrees>-2.94095124118030071258544921875</LongitudeDegrees>
            </Position>
            <DistanceMeters>1230.8142989958</DistanceMeters>
          </Trackpoint>
          <Trackpoint>
            <Time>2022-09-24T13:39:02.000Z</Time>
            <Position>
              <LatitudeDegrees>43.26938283629715442657470703125</LatitudeDegrees>
              <LongitudeDegrees>-2.9409494809806346893310546875</LongitudeDegrees>
            </Position>
            <DistanceMeters>1230.948687064</DistanceMeters>
          </Trackpoint>
          <Trackpoint>
            <Time>2022-09-24T13:39:03.000Z</Time>
            <Position>
              <LatitudeDegrees>43.269382752478122711181640625</LatitudeDegrees>
              <LongitudeDegrees>-2.94094654731452465057373046875</LongitudeDegrees>
            </Position>
            <DistanceMeters>1231.1814540262</DistanceMeters>
          </Trackpoint>
          <Trackpoint>
            <Time>2022-09-24T13:39:04.000Z</Time>
            <Position>
              <LatitudeDegrees>43.26938333921134471893310546875</LatitudeDegrees>
              <LongitudeDegrees>-2.9409427754580974578857421875</LongitudeDegrees>
            </Position>
            <DistanceMeters>1231.5106362209</DistanceMeters>
          </Trackpoint>
          <Trackpoint>
            <Time>2022-09-24T13:39:05.000Z</Time>
            <Position>
              <LatitudeDegrees>43.2693842612206935882568359375</LatitudeDegrees>
              <LongitudeDegrees>-2.9409390874207019805908203125</LongitudeDegrees>
            </Position>
            <DistanceMeters>1231.8398184156</DistanceMeters>
          </Trackpoint>
          <Trackpoint>
            <Time>2022-09-24T13:39:06.000Z</Time>
            <Position>
              <LatitudeDegrees>43.26938518323004245758056640625</LatitudeDegrees>
              <LongitudeDegrees>-2.94093548320233821868896484375</LongitudeDegrees>
            </Position>
            <DistanceMeters>1232.1690006103</DistanceMeters>
          </Trackpoint>
          <Trackpoint>
            <Time>2022-09-24T13:39:07.000Z</Time>
            <Position>
              <LatitudeDegrees>43.26938602142035961151123046875</LatitudeDegrees>
              <LongitudeDegrees>-2.94093229807913303375244140625</LongitudeDegrees>
            </Position>
            <DistanceMeters>1232.4377767468</DistanceMeters>
          </Trackpoint>
          <Trackpoint>
            <Time>2022-09-24T13:39:08.000Z</Time>
            <Position>
              <LatitudeDegrees>43.26938711106777191162109375</LatitudeDegrees>
              <LongitudeDegrees>-2.94093011878430843353271484375</LongitudeDegrees>
            </Position>
            <DistanceMeters>1232.670543709</DistanceMeters>
          </Trackpoint>
          <Trackpoint>
            <Time>2022-09-24T13:39:09.000Z</Time>
            <Position>
              <LatitudeDegrees>43.269387446343898773193359375</LatitudeDegrees>
              <LongitudeDegrees>-2.94092886149883270263671875</LongitudeDegrees>
            </Position>
            <DistanceMeters>1232.7655704234</DistanceMeters>
          </Trackpoint>
          <Trackpoint>
            <Time>2022-09-24T13:39:10.000Z</Time>
            <Position>
              <LatitudeDegrees>43.269387446343898773193359375</LatitudeDegrees>
              <LongitudeDegrees>-2.94092793948948383331298828125</LongitudeDegrees>
            </Position>
            <DistanceMeters>1232.8605971377</DistanceMeters>
          </Trackpoint>
          <Trackpoint>
            <Time>2022-09-24T13:39:11.000Z</Time>
            <Position>
              <LatitudeDegrees>43.26938451267778873443603515625</LatitudeDegrees>
              <LongitudeDegrees>-2.94093313626945018768310546875</LongitudeDegrees>
            </Position>
            <DistanceMeters>1233.3981494107</DistanceMeters>
          </Trackpoint>
          <Trackpoint>
            <Time>2022-09-24T13:39:12.000Z</Time>
            <Position>
              <LatitudeDegrees>43.26938115991652011871337890625</LatitudeDegrees>
              <LongitudeDegrees>-2.9409387521445751190185546875</LongitudeDegrees>
            </Position>
            <DistanceMeters>1233.9915910518</DistanceMeters>
          </Trackpoint>
          <Trackpoint>
            <Time>2022-09-24T13:39:13.000Z</Time>
            <Position>
              <LatitudeDegrees>43.26937780715525150299072265625</LatitudeDegrees>
              <LongitudeDegrees>-2.9409444518387317657470703125</LongitudeDegrees>
            </Position>
            <DistanceMeters>1234.5850326928</DistanceMeters>
          </Trackpoint>
          <Trackpoint>
            <Time>2022-09-24T13:39:14.000Z</Time>
            <Position>
              <LatitudeDegrees>43.269374705851078033447265625</LatitudeDegrees>
              <LongitudeDegrees>-2.94095040298998355865478515625</LongitudeDegrees>
            </Position>
            <DistanceMeters>1235.1784743338</DistanceMeters>
          </Trackpoint>
          <Trackpoint>
            <Time>2022-09-24T13:39:15.000Z</Time>
            <Position>
              <LatitudeDegrees>43.269371353089809417724609375</LatitudeDegrees>
              <LongitudeDegrees>-2.94095677323639392852783203125</LongitudeDegrees>
            </Position>
            <DistanceMeters>1235.8159329129</DistanceMeters>
          </Trackpoint>
          <Trackpoint>
            <Time>2022-09-24T13:39:16.000Z</Time>
            <Position>
              <LatitudeDegrees>43.26936774887144565582275390625</LatitudeDegrees>
              <LongitudeDegrees>-2.94096347875893115997314453125</LongitudeDegrees>
            </Position>
            <DistanceMeters>1236.5011802953</DistanceMeters>
          </Trackpoint>
          <Trackpoint>
            <Time>2022-09-24T13:39:17.000Z</Time>
            <Position>
              <LatitudeDegrees>43.2693649828433990478515625</LatitudeDegrees>
              <LongitudeDegrees>-2.9409699328243732452392578125</LongitudeDegrees>
            </Position>
            <DistanceMeters>1237.1170237905</DistanceMeters>
          </Trackpoint>
          <Trackpoint>
            <Time>2022-09-24T13:39:18.000Z</Time>
            <Position>
              <LatitudeDegrees>43.26936288736760616302490234375</LatitudeDegrees>
              <LongitudeDegrees>-2.940976135432720184326171875</LongitudeDegrees>
            </Position>
            <DistanceMeters>1237.6711199907</DistanceMeters>
          </Trackpoint>
          <Trackpoint>
            <Time>2022-09-24T13:39:19.000Z</Time>
            <Position>
              <LatitudeDegrees>43.26936087571084499359130859375</LatitudeDegrees>
              <LongitudeDegrees>-2.94098275713622570037841796875</LongitudeDegrees>
            </Position>
            <DistanceMeters>1238.2491449283</DistanceMeters>
          </Trackpoint>
          <Trackpoint>
            <Time>2022-09-24T13:39:20.000Z</Time>
            <Position>
              <LatitudeDegrees>43.26935869641602039337158203125</LatitudeDegrees>
              <LongitudeDegrees>-2.94098921120166778564453125</LongitudeDegrees>
            </Position>
            <DistanceMeters>1238.8193052145</DistanceMeters>
          </Trackpoint>
          <Trackpoint>
            <Time>2022-09-24T13:39:21.000Z</Time>
            <Position>
              <LatitudeDegrees>43.2693571038544178009033203125</LatitudeDegrees>
              <LongitudeDegrees>-2.94099365361034870147705078125</LongitudeDegrees>
            </Position>
            <DistanceMeters>1239.2111103951</DistanceMeters>
          </Trackpoint>
          <Trackpoint>
            <Time>2022-09-24T13:39:22.000Z</Time>
            <Position>
              <LatitudeDegrees>43.269355259835720062255859375</LatitudeDegrees>
              <LongitudeDegrees>-2.9409980960190296173095703125</LongitudeDegrees>
            </Position>
            <DistanceMeters>1239.6142745999</DistanceMeters>
          </Trackpoint>
          <Trackpoint>
            <Time>2022-09-24T13:39:23.000Z</Time>
            <Position>
              <LatitudeDegrees>43.2693534158170223236083984375</LatitudeDegrees>
              <LongitudeDegrees>-2.9410021193325519561767578125</LongitudeDegrees>
            </Position>
            <DistanceMeters>1239.9943814573</DistanceMeters>
          </Trackpoint>
          <Trackpoint>
            <Time>2022-09-24T13:39:24.000Z</Time>
            <Position>
              <LatitudeDegrees>43.26935132034122943878173828125</LatitudeDegrees>
              <LongitudeDegrees>-2.94100664556026458740234375</LongitudeDegrees>
            </Position>
            <DistanceMeters>1240.440096256</DistanceMeters>
          </Trackpoint>
          <Trackpoint>
            <Time>2022-09-24T13:39:25.000Z</Time>
            <Position>
              <LatitudeDegrees>43.2693490572273731231689453125</LatitudeDegrees>
              <LongitudeDegrees>-2.94101175852119922637939453125</LongitudeDegrees>
            </Position>
            <DistanceMeters>1240.9246393269</DistanceMeters>
          </Trackpoint>
          <Trackpoint>
            <Time>2022-09-24T13:39:26.000Z</Time>
            <Position>
              <LatitudeDegrees>43.2693467102944850921630859375</LatitudeDegrees>
              <LongitudeDegrees>-2.9410172067582607269287109375</LongitudeDegrees>
            </Position>
            <DistanceMeters>1241.4451220772</DistanceMeters>
          </Trackpoint>
          <Trackpoint>
            <Time>2022-09-24T13:39:27.000Z</Time>
            <Position>
              <LatitudeDegrees>43.26934444718062877655029296875</LatitudeDegrees>
              <LongitudeDegrees>-2.94102299027144908905029296875</LongitudeDegrees>
            </Position>
            <DistanceMeters>1241.9656048274</DistanceMeters>
          </Trackpoint>
          <Trackpoint>
            <Time>2022-09-24T13:39:28.000Z</Time>
            <Position>
              <LatitudeDegrees>43.2693421840667724609375</LatitudeDegrees>
              <LongitudeDegrees>-2.9410289414227008819580078125</LongitudeDegrees>
            </Position>
            <DistanceMeters>1242.5114917412</DistanceMeters>
          </Trackpoint>
          <Trackpoint>
            <Time>2022-09-24T13:39:29.000Z</Time>
            <Position>
              <LatitudeDegrees>43.26933992095291614532470703125</LatitudeDegrees>
              <LongitudeDegrees>-2.9410349763929843902587890625</LongitudeDegrees>
            </Position>
            <DistanceMeters>1243.0655879414</DistanceMeters>
          </Trackpoint>
          <Trackpoint>
            <Time>2022-09-24T13:39:30.000Z</Time>
            <Position>
              <LatitudeDegrees>43.2693376578390598297119140625</LatitudeDegrees>
              <LongitudeDegrees>-2.941041179001331329345703125</LongitudeDegrees>
            </Position>
            <DistanceMeters>1243.6196841416</DistanceMeters>
          </Trackpoint>
          <Trackpoint>
            <Time>2022-09-24T13:39:31.000Z</Time>
            <Position>
              <LatitudeDegrees>43.26933556236326694488525390625</LatitudeDegrees>
              <LongitudeDegrees>-2.94104754924774169921875</LongitudeDegrees>
            </Position>
            <DistanceMeters>1244.1898444279</DistanceMeters>
          </Trackpoint>
          <Trackpoint>
            <Time>2022-09-24T13:39:32.000Z</Time>
            <Position>
              <LatitudeDegrees>43.26933346688747406005859375</LatitudeDegrees>
              <LongitudeDegrees>-2.941053919494152069091796875</LongitudeDegrees>
            </Position>
            <DistanceMeters>1244.7678693654</DistanceMeters>
          </Trackpoint>
          <Trackpoint>
            <Time>2022-09-24T13:39:33.000Z</Time>
            <Position>
              <LatitudeDegrees>43.2693316228687763214111328125</LatitudeDegrees>
              <LongitudeDegrees>-2.94106037355959415435791015625</LongitudeDegrees>
            </Position>
            <DistanceMeters>1245.3219655656</DistanceMeters>
          </Trackpoint>
          <Trackpoint>
            <Time>2022-09-24T13:39:34.000Z</Time>
            <Position>
              <LatitudeDegrees>43.269329778850078582763671875</LatitudeDegrees>
              <LongitudeDegrees>-2.94106691144406795501708984375</LongitudeDegrees>
            </Position>
            <DistanceMeters>1245.8921258519</DistanceMeters>
          </Trackpoint>
          <Trackpoint>
            <Time>2022-09-24T13:39:35.000Z</Time>
            <Position>
              <LatitudeDegrees>43.26932810246944427490234375</LatitudeDegrees>
              <LongitudeDegrees>-2.9410735331475734710693359375</LongitudeDegrees>
            </Position>
            <DistanceMeters>1246.4622861381</DistanceMeters>
          </Trackpoint>
          <Trackpoint>
            <Time>2022-09-24T13:39:36.000Z</Time>
            <Position>
              <LatitudeDegrees>43.269326426088809967041015625</LatitudeDegrees>
              <LongitudeDegrees>-2.94107998721301555633544921875</LongitudeDegrees>
            </Position>
            <DistanceMeters>1247.0163823383</DistanceMeters>
          </Trackpoint>
          <Trackpoint>
            <Time>2022-09-24T13:39:37.000Z</Time>
            <Position>
              <LatitudeDegrees>43.2693245820701122283935546875</LatitudeDegrees>
              <LongitudeDegrees>-2.9410864412784576416015625</LongitudeDegrees>
            </Position>
            <DistanceMeters>1247.578567962</DistanceMeters>
          </Trackpoint>
          <Trackpoint>
            <Time>2022-09-24T13:39:38.000Z</Time>
            <Position>
              <LatitudeDegrees>43.26932273805141448974609375</LatitudeDegrees>
              <LongitudeDegrees>-2.94109272770583629608154296875</LongitudeDegrees>
            </Position>
            <DistanceMeters>1248.1326641622</DistanceMeters>
          </Trackpoint>
          <Trackpoint>
            <Time>2022-09-24T13:39:39.000Z</Time>
            <Position>
              <LatitudeDegrees>43.26932081021368503570556640625</LatitudeDegrees>
              <LongitudeDegrees>-2.94109976850450038909912109375</LongitudeDegrees>
            </Position>
            <DistanceMeters>1248.7411320202</DistanceMeters>
          </Trackpoint>
          <Trackpoint>
            <Time>2022-09-24T13:39:40.000Z</Time>
            <Position>
              <LatitudeDegrees>43.2693188823759555816650390625</LatitudeDegrees>
              <LongitudeDegrees>-2.94110664166510105133056640625</LongitudeDegrees>
            </Position>
            <DistanceMeters>1249.3345736613</DistanceMeters>
          </Trackpoint>
          <Trackpoint>
            <Time>2022-09-24T13:39:41.000Z</Time>
            <Position>
              <LatitudeDegrees>43.2693172059953212738037109375</LatitudeDegrees>
              <LongitudeDegrees>-2.94111351482570171356201171875</LongitudeDegrees>
            </Position>
            <DistanceMeters>1249.92035767</DistanceMeters>
          </Trackpoint>
          <Trackpoint>
            <Time>2022-09-24T13:39:42.000Z</Time>
            <Position>
              <LatitudeDegrees>43.2693155296146869659423828125</LatitudeDegrees>
              <LongitudeDegrees>-2.9411201365292072296142578125</LongitudeDegrees>
            </Position>
            <DistanceMeters>1250.4905179562</DistanceMeters>
          </Trackpoint>
          <Trackpoint>
            <Time>2022-09-24T13:39:43.000Z</Time>
            <Position>
              <LatitudeDegrees>43.2693140208721160888671875</LatitudeDegrees>
              <LongitudeDegrees>-2.94112659059464931488037109375</LongitudeDegrees>
            </Position>
            <DistanceMeters>1251.03640487</DistanceMeters>
          </Trackpoint>
          <Trackpoint>
            <Time>2022-09-24T13:39:44.000Z</Time>
            <Position>
              <LatitudeDegrees>43.269312679767608642578125</LatitudeDegrees>
              <LongitudeDegrees>-2.94113296084105968475341796875</LongitudeDegrees>
            </Position>
            <DistanceMeters>1251.573957143</DistanceMeters>
          </Trackpoint>
          <Trackpoint>
            <Time>2022-09-24T13:39:45.000Z</Time>
            <Position>
              <LatitudeDegrees>43.26931125484406948089599609375</LatitudeDegrees>
              <LongitudeDegrees>-2.94113899581134319305419921875</LongitudeDegrees>
            </Position>
            <DistanceMeters>1252.0944398933</DistanceMeters>
          </Trackpoint>
          <Trackpoint>
            <Time>2022-09-24T13:39:46.000Z</Time>
            <Position>
              <LatitudeDegrees>43.2693098299205303192138671875</LatitudeDegrees>
              <LongitudeDegrees>-2.94114486314356327056884765625</LongitudeDegrees>
            </Position>
            <DistanceMeters>1252.5972740015</DistanceMeters>
          </Trackpoint>
          <Trackpoint>
            <Time>2022-09-24T13:39:47.000Z</Time>
            <Position>
              <LatitudeDegrees>43.269308321177959442138671875</LatitudeDegrees>
              <LongitudeDegrees>-2.9411506466567516326904296875</LongitudeDegrees>
            </Position>
            <DistanceMeters>1253.1001081098</DistanceMeters>
          </Trackpoint>
          <Trackpoint>
            <Time>2022-09-24T13:39:48.000Z</Time>
            <Position>
              <LatitudeDegrees>43.26930664479732513427734375</LatitudeDegrees>
              <LongitudeDegrees>-2.94115643016993999481201171875</LongitudeDegrees>
            </Position>
            <DistanceMeters>1253.602942218</DistanceMeters>
          </Trackpoint>
          <Trackpoint>
            <Time>2022-09-24T13:39:49.000Z</Time>
            <Position>
              <LatitudeDegrees>43.269304968416690826416015625</LatitudeDegrees>
              <LongitudeDegrees>-2.9411623813211917877197265625</LongitudeDegrees>
            </Position>
            <DistanceMeters>1254.1234249683</DistanceMeters>
          </Trackpoint>
          <Trackpoint>
            <Time>2022-09-24T13:39:50.000Z</Time>
            <Position>
              <LatitudeDegrees>43.26930337585508823394775390625</LatitudeDegrees>
              <LongitudeDegrees>-2.94116833247244358062744140625</LongitudeDegrees>
            </Position>
            <DistanceMeters>1254.6262590766</DistanceMeters>
          </Trackpoint>
          <Trackpoint>
            <Time>2022-09-24T13:39:51.000Z</Time>
            <Position>
              <LatitudeDegrees>43.269301950931549072265625</LatitudeDegrees>
              <LongitudeDegrees>-2.9411741159856319427490234375</LongitudeDegrees>
            </Position>
            <DistanceMeters>1255.1200323687</DistanceMeters>
          </Trackpoint>
          <Trackpoint>
            <Time>2022-09-24T13:39:52.000Z</Time>
            <Position>
              <LatitudeDegrees>43.2693006098270416259765625</LatitudeDegrees>
              <LongitudeDegrees>-2.9411798156797885894775390625</LongitudeDegrees>
            </Position>
            <DistanceMeters>1255.6138056608</DistanceMeters>
          </Trackpoint>
          <Trackpoint>
            <Time>2022-09-24T13:39:53.000Z</Time>
            <Position>
              <LatitudeDegrees>43.26929918490350246429443359375</LatitudeDegrees>
              <LongitudeDegrees>-2.94118543155491352081298828125</LongitudeDegrees>
            </Position>
            <DistanceMeters>1256.0983487316</DistanceMeters>
          </Trackpoint>
          <Trackpoint>
            <Time>2022-09-24T13:39:54.000Z</Time>
            <Position>
              <LatitudeDegrees>43.26929767616093158721923828125</LatitudeDegrees>
              <LongitudeDegrees>-2.94119096361100673675537109375</LongitudeDegrees>
            </Position>
            <DistanceMeters>1256.5828918025</DistanceMeters>
          </Trackpoint>
          <Trackpoint>
            <Time>2022-09-24T13:39:55.000Z</Time>
            <Position>
              <LatitudeDegrees>43.26929599978029727935791015625</LatitudeDegrees>
              <LongitudeDegrees>-2.9411965794861316680908203125</LongitudeDegrees>
            </Position>
            <DistanceMeters>1257.0674348734</DistanceMeters>
          </Trackpoint>
          <Trackpoint>
            <Time>2022-09-24T13:39:56.000Z</Time>
            <Position>
              <LatitudeDegrees>43.2692940719425678253173828125</LatitudeDegrees>
              <LongitudeDegrees>-2.941202111542224884033203125</LongitudeDegrees>
            </Position>
            <DistanceMeters>1257.5612081655</DistanceMeters>
          </Trackpoint>
          <Trackpoint>
            <Time>2022-09-24T13:39:57.000Z</Time>
            <Position>
              <LatitudeDegrees>43.26929214410483837127685546875</LatitudeDegrees>
              <LongitudeDegrees>-2.94120789505541324615478515625</LongitudeDegrees>
            </Position>
            <DistanceMeters>1258.0816909158</DistanceMeters>
          </Trackpoint>
          <Trackpoint>
            <Time>2022-09-24T13:39:58.000Z</Time>
            <Position>
              <LatitudeDegrees>43.2692903839051723480224609375</LatitudeDegrees>
              <LongitudeDegrees>-2.94121317565441131591796875</LongitudeDegrees>
            </Position>
            <DistanceMeters>1258.54722484</DistanceMeters>
          </Trackpoint>
          <Trackpoint>
            <Time>2022-09-24T13:39:59.000Z</Time>
            <Position>
              <LatitudeDegrees>43.26928862370550632476806640625</LatitudeDegrees>
              <LongitudeDegrees>-2.94121845625340938568115234375</LongitudeDegrees>
            </Position>
            <DistanceMeters>1259.0223584119</DistanceMeters>
          </Trackpoint>
          <Trackpoint>
            <Time>2022-09-24T13:40:00.000Z</Time>
            <Position>
              <LatitudeDegrees>43.2692870311439037322998046875</LatitudeDegrees>
              <LongitudeDegrees>-2.941223569214344024658203125</LongitudeDegrees>
            </Position>
            <DistanceMeters>1259.4780905242</DistanceMeters>
          </Trackpoint>
          <Trackpoint>
            <Time>2022-09-24T13:40:01.000Z</Time>
            <Position>
              <LatitudeDegrees>43.26928543858230113983154296875</LatitudeDegrees>
              <LongitudeDegrees>-2.94122851453721523284912109375</LongitudeDegrees>
            </Position>
            <DistanceMeters>1259.9238053229</DistanceMeters>
          </Trackpoint>
          <Trackpoint>
            <Time>2022-09-24T13:40:02.000Z</Time>
            <Position>
              <LatitudeDegrees>43.26928384602069854736328125</LatitudeDegrees>
              <LongitudeDegrees>-2.94123329222202301025390625</LongitudeDegrees>
            </Position>
            <DistanceMeters>1260.3269695277</DistanceMeters>
          </Trackpoint>
          <Trackpoint>
            <Time>2022-09-24T13:40:03.000Z</Time>
            <Position>
              <LatitudeDegrees>43.2692823372781276702880859375</LatitudeDegrees>
              <LongitudeDegrees>-2.9412384890019893646240234375</LongitudeDegrees>
            </Position>
            <DistanceMeters>1260.7726843263</DistanceMeters>
          </Trackpoint>
          <Trackpoint>
            <Time>2022-09-24T13:40:04.000Z</Time>
            <Position>
              <LatitudeDegrees>43.2692806608974933624267578125</LatitudeDegrees>
              <LongitudeDegrees>-2.94124410487711429595947265625</LongitudeDegrees>
            </Position>
            <DistanceMeters>1261.2572273972</DistanceMeters>
          </Trackpoint>
          <Trackpoint>
            <Time>2022-09-24T13:40:05.000Z</Time>
            <Position>
              <LatitudeDegrees>43.2692791521549224853515625</LatitudeDegrees>
              <LongitudeDegrees>-2.94124963693320751190185546875</LongitudeDegrees>
            </Position>
            <DistanceMeters>1261.7323609691</DistanceMeters>
          </Trackpoint>
          <Trackpoint>
            <Time>2022-09-24T13:40:06.000Z</Time>
            <Position>
              <LatitudeDegrees>43.2692778110504150390625</LatitudeDegrees>
              <LongitudeDegrees>-2.94125474989414215087890625</LongitudeDegrees>
            </Position>
            <DistanceMeters>1262.1678280807</DistanceMeters>
          </Trackpoint>
          <Trackpoint>
            <Time>2022-09-24T13:40:07.000Z</Time>
            <Position>
              <LatitudeDegrees>43.26927655376493930816650390625</LatitudeDegrees>
              <LongitudeDegrees>-2.94125986285507678985595703125</LongitudeDegrees>
            </Position>
            <DistanceMeters>1262.5928004667</DistanceMeters>
          </Trackpoint>
          <Trackpoint>
            <Time>2022-09-24T13:40:08.000Z</Time>
            <Position>
              <LatitudeDegrees>43.269275128841400146484375</LatitudeDegrees>
              <LongitudeDegrees>-2.94126455672085285186767578125</LongitudeDegrees>
            </Position>
            <DistanceMeters>1263.0070123116</DistanceMeters>
          </Trackpoint>
          <Trackpoint>
            <Time>2022-09-24T13:40:09.000Z</Time>
            <Position>
              <LatitudeDegrees>43.26927370391786098480224609375</LatitudeDegrees>
              <LongitudeDegrees>-2.94126958586275577545166015625</LongitudeDegrees>
            </Position>
            <DistanceMeters>1263.4527271103</DistanceMeters>
          </Trackpoint>
          <Trackpoint>
            <Time>2022-09-24T13:40:10.000Z</Time>
            <Position>
              <LatitudeDegrees>43.26927219517529010772705078125</LatitudeDegrees>
              <LongitudeDegrees>-2.9412746988236904144287109375</LongitudeDegrees>
            </Position>
            <DistanceMeters>1263.898441909</DistanceMeters>
          </Trackpoint>
          <Trackpoint>
            <Time>2022-09-24T13:40:11.000Z</Time>
            <Position>
              <LatitudeDegrees>43.269270770251750946044921875</LatitudeDegrees>
              <LongitudeDegrees>-2.9412800632417201995849609375</LongitudeDegrees>
            </Position>
            <DistanceMeters>1264.3639758333</DistanceMeters>
          </Trackpoint>
          <Trackpoint>
            <Time>2022-09-24T13:40:12.000Z</Time>
            <Position>
              <LatitudeDegrees>43.2692692615091800689697265625</LatitudeDegrees>
              <LongitudeDegrees>-2.94128534384071826934814453125</LongitudeDegrees>
            </Position>
            <DistanceMeters>1264.809690632</DistanceMeters>
          </Trackpoint>
          <Trackpoint>
            <Time>2022-09-24T13:40:13.000Z</Time>
            <Position>
              <LatitudeDegrees>43.26926783658564090728759765625</LatitudeDegrees>
              <LongitudeDegrees>-2.94129095971584320068359375</LongitudeDegrees>
            </Position>
            <DistanceMeters>1265.2942337028</DistanceMeters>
          </Trackpoint>
          <Trackpoint>
            <Time>2022-09-24T13:40:14.000Z</Time>
            <Position>
              <LatitudeDegrees>43.26926632784307003021240234375</LatitudeDegrees>
              <LongitudeDegrees>-2.94129640795290470123291015625</LongitudeDegrees>
            </Position>
            <DistanceMeters>1265.7787767737</DistanceMeters>
          </Trackpoint>
          <Trackpoint>
            <Time>2022-09-24T13:40:15.000Z</Time>
            <Position>
              <LatitudeDegrees>43.26926481910049915313720703125</LatitudeDegrees>
              <LongitudeDegrees>-2.941302023828029632568359375</LongitudeDegrees>
            </Position>
            <DistanceMeters>1266.2633198446</DistanceMeters>
          </Trackpoint>
          <Trackpoint>
            <Time>2022-09-24T13:40:16.000Z</Time>
            <Position>
              <LatitudeDegrees>43.269263394176959991455078125</LatitudeDegrees>
              <LongitudeDegrees>-2.9413072206079959869384765625</LongitudeDegrees>
            </Position>
            <DistanceMeters>1266.7090346433</DistanceMeters>
          </Trackpoint>
          <Trackpoint>
            <Time>2022-09-24T13:40:17.000Z</Time>
            <Position>
              <LatitudeDegrees>43.26926196925342082977294921875</LatitudeDegrees>
              <LongitudeDegrees>-2.94131250120699405670166015625</LongitudeDegrees>
            </Position>
            <DistanceMeters>1267.1647667556</DistanceMeters>
          </Trackpoint>
          <Trackpoint>
            <Time>2022-09-24T13:40:18.000Z</Time>
            <Position>
              <LatitudeDegrees>43.269260711967945098876953125</LatitudeDegrees>
              <LongitudeDegrees>-2.9413172788918018341064453125</LongitudeDegrees>
            </Position>
            <DistanceMeters>1267.5679309604</DistanceMeters>
          </Trackpoint>
          <Trackpoint>
            <Time>2022-09-24T13:40:19.000Z</Time>
            <Position>
              <LatitudeDegrees>43.2692595385015010833740234375</LatitudeDegrees>
              <LongitudeDegrees>-2.941322140395641326904296875</LongitudeDegrees>
            </Position>
            <DistanceMeters>1267.9710951651</DistanceMeters>
          </Trackpoint>
          <Trackpoint>
            <Time>2022-09-24T13:40:20.000Z</Time>
            <Position>
              <LatitudeDegrees>43.26925844885408878326416015625</LatitudeDegrees>
              <LongitudeDegrees>-2.94132607989013195037841796875</LongitudeDegrees>
            </Position>
            <DistanceMeters>1268.3002773599</DistanceMeters>
          </Trackpoint>
          <Trackpoint>
            <Time>2022-09-24T13:40:21.000Z</Time>
            <Position>
              <LatitudeDegrees>43.26925727538764476776123046875</LatitudeDegrees>
              <LongitudeDegrees>-2.94133027084171772003173828125</LongitudeDegrees>
            </Position>
            <DistanceMeters>1268.6558347676</DistanceMeters>
          </Trackpoint>
          <Trackpoint>
            <Time>2022-09-24T13:40:22.000Z</Time>
            <Position>
              <LatitudeDegrees>43.26925593428313732147216796875</LatitudeDegrees>
              <LongitudeDegrees>-2.941334210336208343505859375</LongitudeDegrees>
            </Position>
            <DistanceMeters>1268.9984584588</DistanceMeters>
          </Trackpoint>
          <Trackpoint>
            <Time>2022-09-24T13:40:23.000Z</Time>
            <Position>
              <LatitudeDegrees>43.26925434172153472900390625</LatitudeDegrees>
              <LongitudeDegrees>-2.94133831746876239776611328125</LongitudeDegrees>
            </Position>
            <DistanceMeters>1269.366495341</DistanceMeters>
          </Trackpoint>
          <Trackpoint>
            <Time>2022-09-24T13:40:24.000Z</Time>
            <Position>
              <LatitudeDegrees>43.26925258152186870574951171875</LatitudeDegrees>
              <LongitudeDegrees>-2.9413424246013164520263671875</LongitudeDegrees>
            </Position>
            <DistanceMeters>1269.7466021985</DistanceMeters>
          </Trackpoint>
          <Trackpoint>
            <Time>2022-09-24T13:40:25.000Z</Time>
            <Position>
              <LatitudeDegrees>43.26925090514123439788818359375</LatitudeDegrees>
              <LongitudeDegrees>-2.9413464479148387908935546875</LongitudeDegrees>
            </Position>
            <DistanceMeters>1270.126709056</DistanceMeters>
          </Trackpoint>
          <Trackpoint>
            <Time>2022-09-24T13:40:26.000Z</Time>
            <Position>
              <LatitudeDegrees>43.26924922876060009002685546875</LatitudeDegrees>
              <LongitudeDegrees>-2.9413508065044879913330078125</LongitudeDegrees>
            </Position>
            <DistanceMeters>1270.5298732607</DistanceMeters>
          </Trackpoint>
          <Trackpoint>
            <Time>2022-09-24T13:40:27.000Z</Time>
            <Position>
              <LatitudeDegrees>43.26924755237996578216552734375</LatitudeDegrees>
              <LongitudeDegrees>-2.94135541655123233795166015625</LongitudeDegrees>
            </Position>
            <DistanceMeters>1270.9330374655</DistanceMeters>
          </Trackpoint>
          <Trackpoint>
            <Time>2022-09-24T13:40:28.000Z</Time>
            <Position>
              <LatitudeDegrees>43.2692461274564266204833984375</LatitudeDegrees>
              <LongitudeDegrees>-2.94135994277894496917724609375</LongitudeDegrees>
            </Position>
            <DistanceMeters>1271.3362016702</DistanceMeters>
          </Trackpoint>
          <Trackpoint>
            <Time>2022-09-24T13:40:29.000Z</Time>
            <Position>
              <LatitudeDegrees>43.2692447863519191741943359375</LatitudeDegrees>
              <LongitudeDegrees>-2.94136430136859416961669921875</LongitudeDegrees>
            </Position>
            <DistanceMeters>1271.7163085277</DistanceMeters>
          </Trackpoint>
          <Trackpoint>
            <Time>2022-09-24T13:40:30.000Z</Time>
            <Position>
              <LatitudeDegrees>43.2692434452474117279052734375</LatitudeDegrees>
              <LongitudeDegrees>-2.94136832468211650848388671875</LongitudeDegrees>
            </Position>
            <DistanceMeters>1272.0843454099</DistanceMeters>
          </Trackpoint>
          <Trackpoint>
            <Time>2022-09-24T13:40:31.000Z</Time>
            <Position>
              <LatitudeDegrees>43.2692421041429042816162109375</LatitudeDegrees>
              <LongitudeDegrees>-2.94137218035757541656494140625</LongitudeDegrees>
            </Position>
            <DistanceMeters>1272.4399028177</DistanceMeters>
          </Trackpoint>
          <Trackpoint>
            <Time>2022-09-24T13:40:32.000Z</Time>
            <Position>
              <LatitudeDegrees>43.2692407630383968353271484375</LatitudeDegrees>
              <LongitudeDegrees>-2.94137586839497089385986328125</LongitudeDegrees>
            </Position>
            <DistanceMeters>1272.7825265089</DistanceMeters>
          </Trackpoint>
          <Trackpoint>
            <Time>2022-09-24T13:40:33.000Z</Time>
            <Position>
              <LatitudeDegrees>43.26923933811485767364501953125</LatitudeDegrees>
              <LongitudeDegrees>-2.9413796402513980865478515625</LongitudeDegrees>
            </Position>
            <DistanceMeters>1273.1380839166</DistanceMeters>
          </Trackpoint>
          <Trackpoint>
            <Time>2022-09-24T13:40:34.000Z</Time>
            <Position>
              <LatitudeDegrees>43.26923782937228679656982421875</LatitudeDegrees>
              <LongitudeDegrees>-2.94138341210782527923583984375</LongitudeDegrees>
            </Position>
            <DistanceMeters>1273.5061207988</DistanceMeters>
          </Trackpoint>
          <Trackpoint>
            <Time>2022-09-24T13:40:35.000Z</Time>
            <Position>
              <LatitudeDegrees>43.26923615299165248870849609375</LatitudeDegrees>
              <LongitudeDegrees>-2.94138726778328418731689453125</LongitudeDegrees>
            </Position>
            <DistanceMeters>1273.874157681</DistanceMeters>
          </Trackpoint>
          <Trackpoint>
            <Time>2022-09-24T13:40:36.000Z</Time>
            <Position>
              <LatitudeDegrees>43.26923447661101818084716796875</LatitudeDegrees>
              <LongitudeDegrees>-2.94139112345874309539794921875</LongitudeDegrees>
            </Position>
            <DistanceMeters>1274.2421945632</DistanceMeters>
          </Trackpoint>
          <Trackpoint>
            <Time>2022-09-24T13:40:37.000Z</Time>
            <Position>
              <LatitudeDegrees>43.26923288404941558837890625</LatitudeDegrees>
              <LongitudeDegrees>-2.9413950629532337188720703125</LongitudeDegrees>
            </Position>
            <DistanceMeters>1274.597751971</DistanceMeters>
          </Trackpoint>
          <Trackpoint>
            <Time>2022-09-24T13:40:38.000Z</Time>
            <Position>
              <LatitudeDegrees>43.26923129148781299591064453125</LatitudeDegrees>
              <LongitudeDegrees>-2.94139883480966091156005859375</LongitudeDegrees>
            </Position>
            <DistanceMeters>1274.9533093788</DistanceMeters>
          </Trackpoint>
          <Trackpoint>
            <Time>2022-09-24T13:40:39.000Z</Time>
            <Position>
              <LatitudeDegrees>43.26922953128814697265625</LatitudeDegrees>
              <LongitudeDegrees>-2.94140269048511981964111328125</LongitudeDegrees>
            </Position>
            <DistanceMeters>1275.3334162362</DistanceMeters>
          </Trackpoint>
          <Trackpoint>
            <Time>2022-09-24T13:40:40.000Z</Time>
            <Position>
              <LatitudeDegrees>43.269227854907512664794921875</LatitudeDegrees>
              <LongitudeDegrees>-2.94140629470348358154296875</LongitudeDegrees>
            </Position>
            <DistanceMeters>1275.688973644</DistanceMeters>
          </Trackpoint>
          <Trackpoint>
            <Time>2022-09-24T13:40:41.000Z</Time>
            <Position>
              <LatitudeDegrees>43.26922609470784664154052734375</LatitudeDegrees>
              <LongitudeDegrees>-2.9414101503789424896240234375</LongitudeDegrees>
            </Position>
            <DistanceMeters>1276.0570105262</DistanceMeters>
          </Trackpoint>
          <Trackpoint>
            <Time>2022-09-24T13:40:42.000Z</Time>
            <Position>
              <LatitudeDegrees>43.2692243345081806182861328125</LatitudeDegrees>
              <LongitudeDegrees>-2.9414141736924648284912109375</LongitudeDegrees>
            </Position>
            <DistanceMeters>1276.4371173837</DistanceMeters>
          </Trackpoint>
          <Trackpoint>
            <Time>2022-09-24T13:40:43.000Z</Time>
            <Position>
              <LatitudeDegrees>43.26922257430851459503173828125</LatitudeDegrees>
              <LongitudeDegrees>-2.941418029367923736572265625</LongitudeDegrees>
            </Position>
            <DistanceMeters>1276.8172242412</DistanceMeters>
          </Trackpoint>
          <Trackpoint>
            <Time>2022-09-24T13:40:44.000Z</Time>
            <Position>
              <LatitudeDegrees>43.26922073028981685638427734375</LatitudeDegrees>
              <LongitudeDegrees>-2.9414215497672557830810546875</LongitudeDegrees>
            </Position>
            <DistanceMeters>1277.1727816489</DistanceMeters>
          </Trackpoint>
          <Trackpoint>
            <Time>2022-09-24T13:40:45.000Z</Time>
            <Position>
              <LatitudeDegrees>43.2692189700901508331298828125</LatitudeDegrees>
              <LongitudeDegrees>-2.941425405442714691162109375</LongitudeDegrees>
            </Position>
            <DistanceMeters>1277.5528885064</DistanceMeters>
          </Trackpoint>
          <Trackpoint>
            <Time>2022-09-24T13:40:46.000Z</Time>
            <Position>
              <LatitudeDegrees>43.26921720989048480987548828125</LatitudeDegrees>
              <LongitudeDegrees>-2.94142909348011016845703125</LongitudeDegrees>
            </Position>
            <DistanceMeters>1277.9084459142</DistanceMeters>
          </Trackpoint>
          <Trackpoint>
            <Time>2022-09-24T13:40:47.000Z</Time>
            <Position>
              <LatitudeDegrees>43.26921536587178707122802734375</LatitudeDegrees>
              <LongitudeDegrees>-2.94143336825072765350341796875</LongitudeDegrees>
            </Position>
            <DistanceMeters>1278.3116101189</DistanceMeters>
          </Trackpoint>
          <Trackpoint>
            <Time>2022-09-24T13:40:48.000Z</Time>
            <Position>
              <LatitudeDegrees>43.26921352185308933258056640625</LatitudeDegrees>
              <LongitudeDegrees>-2.9414376430213451385498046875</LongitudeDegrees>
            </Position>
            <DistanceMeters>1278.7147743237</DistanceMeters>
          </Trackpoint>
          <Trackpoint>
            <Time>2022-09-24T13:40:49.000Z</Time>
            <Position>
              <LatitudeDegrees>43.26921151019632816314697265625</LatitudeDegrees>
              <LongitudeDegrees>-2.94144250452518463134765625</LongitudeDegrees>
            </Position>
            <DistanceMeters>1279.1604891224</DistanceMeters>
          </Trackpoint>
          <Trackpoint>
            <Time>2022-09-24T13:40:50.000Z</Time>
            <Position>
              <LatitudeDegrees>43.26920966617763042449951171875</LatitudeDegrees>
              <LongitudeDegrees>-2.9414470307528972625732421875</LongitudeDegrees>
            </Position>
            <DistanceMeters>1279.5854615084</DistanceMeters>
          </Trackpoint>
          <Trackpoint>
            <Time>2022-09-24T13:40:51.000Z</Time>
            <Position>
              <LatitudeDegrees>43.269207738339900970458984375</LatitudeDegrees>
              <LongitudeDegrees>-2.94145063497126102447509765625</LongitudeDegrees>
            </Position>
            <DistanceMeters>1279.9410189161</DistanceMeters>
          </Trackpoint>
          <Trackpoint>
            <Time>2022-09-24T13:40:52.000Z</Time>
            <Position>
              <LatitudeDegrees>43.269205391407012939453125</LatitudeDegrees>
              <LongitudeDegrees>-2.94145365245640277862548828125</LongitudeDegrees>
            </Position>
            <DistanceMeters>1280.2965763239</DistanceMeters>
          </Trackpoint>
          <Trackpoint>
            <Time>2022-09-24T13:40:53.000Z</Time>
            <Position>
              <LatitudeDegrees>43.2692025415599346160888671875</LatitudeDegrees>
              <LongitudeDegrees>-2.94145650230348110198974609375</LongitudeDegrees>
            </Position>
            <DistanceMeters>1280.6766831814</DistanceMeters>
          </Trackpoint>
          <Trackpoint>
            <Time>2022-09-24T13:40:54.000Z</Time>
            <Position>
              <LatitudeDegrees>43.269199691712856292724609375</LatitudeDegrees>
              <LongitudeDegrees>-2.94145968742668628692626953125</LongitudeDegrees>
            </Position>
            <DistanceMeters>1281.0798473861</DistanceMeters>
          </Trackpoint>
          <Trackpoint>
            <Time>2022-09-24T13:40:55.000Z</Time>
            <Position>
              <LatitudeDegrees>43.2691968418657779693603515625</LatitudeDegrees>
              <LongitudeDegrees>-2.94146337546408176422119140625</LongitudeDegrees>
            </Position>
            <DistanceMeters>1281.5255621848</DistanceMeters>
          </Trackpoint>
          <Trackpoint>
            <Time>2022-09-24T13:40:56.000Z</Time>
            <Position>
              <LatitudeDegrees>43.2691938243806362152099609375</LatitudeDegrees>
              <LongitudeDegrees>-2.941466979682445526123046875</LongitudeDegrees>
            </Position>
            <DistanceMeters>1281.9712769835</DistanceMeters>
          </Trackpoint>
          <Trackpoint>
            <Time>2022-09-24T13:40:57.000Z</Time>
            <Position>
              <LatitudeDegrees>43.26919089071452617645263671875</LatitudeDegrees>
              <LongitudeDegrees>-2.94147041626274585723876953125</LongitudeDegrees>
            </Position>
            <DistanceMeters>1282.3744411882</DistanceMeters>
          </Trackpoint>
          <Trackpoint>
            <Time>2022-09-24T13:40:58.000Z</Time>
            <Position>
              <LatitudeDegrees>43.2691887952387332916259765625</LatitudeDegrees>
              <LongitudeDegrees>-2.941474020481109619140625</LongitudeDegrees>
            </Position>
            <DistanceMeters>1282.7424780704</DistanceMeters>
          </Trackpoint>
          <Trackpoint>
            <Time>2022-09-24T13:40:59.000Z</Time>
            <Position>
              <LatitudeDegrees>43.26918669976294040679931640625</LatitudeDegrees>
              <LongitudeDegrees>-2.94147745706140995025634765625</LongitudeDegrees>
            </Position>
            <DistanceMeters>1283.0980354782</DistanceMeters>
          </Trackpoint>
          <Trackpoint>
            <Time>2022-09-24T13:41:00.000Z</Time>
            <Position>
              <LatitudeDegrees>43.2691844366490840911865234375</LatitudeDegrees>
              <LongitudeDegrees>-2.94148064218461513519287109375</LongitudeDegrees>
            </Position>
            <DistanceMeters>1283.453592886</DistanceMeters>
          </Trackpoint>
          <Trackpoint>
            <Time>2022-09-24T13:41:01.000Z</Time>
            <Position>
              <LatitudeDegrees>43.2691825926303863525390625</LatitudeDegrees>
              <LongitudeDegrees>-2.94148676097393035888671875</LongitudeDegrees>
            </Position>
            <DistanceMeters>1283.991145159</DistanceMeters>
          </Trackpoint>
          <Trackpoint>
            <Time>2022-09-24T13:41:02.000Z</Time>
            <Position>
              <LatitudeDegrees>43.26918049715459346771240234375</LatitudeDegrees>
              <LongitudeDegrees>-2.94149355031549930572509765625</LongitudeDegrees>
            </Position>
            <DistanceMeters>1284.5769291677</DistanceMeters>
          </Trackpoint>
          <Trackpoint>
            <Time>2022-09-24T13:41:03.000Z</Time>
            <Position>
              <LatitudeDegrees>43.2691787369549274444580078125</LatitudeDegrees>
              <LongitudeDegrees>-2.94150059111416339874267578125</LongitudeDegrees>
            </Position>
            <DistanceMeters>1285.1779308796</DistanceMeters>
          </Trackpoint>
          <Trackpoint>
            <Time>2022-09-24T13:41:04.000Z</Time>
            <Position>
              <LatitudeDegrees>43.269177563488483428955078125</LatitudeDegrees>
              <LongitudeDegrees>-2.94150645844638347625732421875</LongitudeDegrees>
            </Position>
            <DistanceMeters>1285.6624739505</DistanceMeters>
          </Trackpoint>
          <Trackpoint>
            <Time>2022-09-24T13:41:05.000Z</Time>
            <Position>
              <LatitudeDegrees>43.269176892936229705810546875</LatitudeDegrees>
              <LongitudeDegrees>-2.94151224195957183837890625</LongitudeDegrees>
            </Position>
            <DistanceMeters>1286.1280078748</DistanceMeters>
          </Trackpoint>
          <Trackpoint>
            <Time>2022-09-24T13:41:06.000Z</Time>
            <Position>
              <LatitudeDegrees>43.26917655766010284423828125</LatitudeDegrees>
              <LongitudeDegrees>-2.94151869602501392364501953125</LongitudeDegrees>
            </Position>
            <DistanceMeters>1286.6484906251</DistanceMeters>
          </Trackpoint>
          <Trackpoint>
            <Time>2022-09-24T13:41:07.000Z</Time>
            <Position>
              <LatitudeDegrees>43.269176222383975982666015625</LatitudeDegrees>
              <LongitudeDegrees>-2.9415251500904560089111328125</LongitudeDegrees>
            </Position>
            <DistanceMeters>1287.1689733753</DistanceMeters>
          </Trackpoint>
          <Trackpoint>
            <Time>2022-09-24T13:41:08.000Z</Time>
            <Position>
              <LatitudeDegrees>43.26917597092688083648681640625</LatitudeDegrees>
              <LongitudeDegrees>-2.94153177179396152496337890625</LongitudeDegrees>
            </Position>
            <DistanceMeters>1287.7065256483</DistanceMeters>
          </Trackpoint>
          <Trackpoint>
            <Time>2022-09-24T13:41:09.000Z</Time>
            <Position>
              <LatitudeDegrees>43.269175551831722259521484375</LatitudeDegrees>
              <LongitudeDegrees>-2.941538393497467041015625</LongitudeDegrees>
            </Position>
            <DistanceMeters>1288.2440779213</DistanceMeters>
          </Trackpoint>
          <Trackpoint>
            <Time>2022-09-24T13:41:10.000Z</Time>
            <Position>
              <LatitudeDegrees>43.26917513273656368255615234375</LatitudeDegrees>
              <LongitudeDegrees>-2.94154501520097255706787109375</LongitudeDegrees>
            </Position>
            <DistanceMeters>1288.7816301943</DistanceMeters>
          </Trackpoint>
          <Trackpoint>
            <Time>2022-09-24T13:41:11.000Z</Time>
            <Position>
              <LatitudeDegrees>43.2691740430891513824462890625</LatitudeDegrees>
              <LongitudeDegrees>-2.94155088253319263458251953125</LongitudeDegrees>
            </Position>
            <DistanceMeters>1289.2661732652</DistanceMeters>
          </Trackpoint>
          <Trackpoint>
            <Time>2022-09-24T13:41:12.000Z</Time>
            <Position>
              <LatitudeDegrees>43.26917295344173908233642578125</LatitudeDegrees>
              <LongitudeDegrees>-2.94155725277960300445556640625</LongitudeDegrees>
            </Position>
            <DistanceMeters>1289.8037255382</DistanceMeters>
          </Trackpoint>
          <Trackpoint>
            <Time>2022-09-24T13:41:13.000Z</Time>
            <Position>
              <LatitudeDegrees>43.2691720314323902130126953125</LatitudeDegrees>
              <LongitudeDegrees>-2.9415637068450450897216796875</LongitudeDegrees>
            </Position>
            <DistanceMeters>1290.3412778112</DistanceMeters>
          </Trackpoint>
          <Trackpoint>
            <Time>2022-09-24T13:41:14.000Z</Time>
            <Position>
              <LatitudeDegrees>43.2691710256040096282958984375</LatitudeDegrees>
              <LongitudeDegrees>-2.94157032854855060577392578125</LongitudeDegrees>
            </Position>
            <DistanceMeters>1290.8953740114</DistanceMeters>
          </Trackpoint>
          <Trackpoint>
            <Time>2022-09-24T13:41:15.000Z</Time>
            <Position>
              <LatitudeDegrees>43.269170187413692474365234375</LatitudeDegrees>
              <LongitudeDegrees>-2.94157686643302440643310546875</LongitudeDegrees>
            </Position>
            <DistanceMeters>1291.4329262844</DistanceMeters>
          </Trackpoint>
          <Trackpoint>
            <Time>2022-09-24T13:41:16.000Z</Time>
            <Position>
              <LatitudeDegrees>43.269169516861438751220703125</LatitudeDegrees>
              <LongitudeDegrees>-2.941583655774593353271484375</LongitudeDegrees>
            </Position>
            <DistanceMeters>1291.9870224846</DistanceMeters>
          </Trackpoint>
          <Trackpoint>
            <Time>2022-09-24T13:41:17.000Z</Time>
            <Position>
              <LatitudeDegrees>43.269168846309185028076171875</LatitudeDegrees>
              <LongitudeDegrees>-2.9415901936590671539306640625</LongitudeDegrees>
            </Position>
            <DistanceMeters>1292.5245747576</DistanceMeters>
          </Trackpoint>
          <Trackpoint>
            <Time>2022-09-24T13:41:18.000Z</Time>
            <Position>
              <LatitudeDegrees>43.26916809193789958953857421875</LatitudeDegrees>
              <LongitudeDegrees>-2.9415968991816043853759765625</LongitudeDegrees>
            </Position>
            <DistanceMeters>1293.0786709578</DistanceMeters>
          </Trackpoint>
          <Trackpoint>
            <Time>2022-09-24T13:41:19.000Z</Time>
            <Position>
              <LatitudeDegrees>43.26916725374758243560791015625</LatitudeDegrees>
              <LongitudeDegrees>-2.9416036047041416168212890625</LongitudeDegrees>
            </Position>
            <DistanceMeters>1293.6327671581</DistanceMeters>
          </Trackpoint>
          <Trackpoint>
            <Time>2022-09-24T13:41:20.000Z</Time>
            <Position>
              <LatitudeDegrees>43.26916641555726528167724609375</LatitudeDegrees>
              <LongitudeDegrees>-2.94161039404571056365966796875</LongitudeDegrees>
            </Position>
            <DistanceMeters>1294.1868633583</DistanceMeters>
          </Trackpoint>
          <Trackpoint>
            <Time>2022-09-24T13:41:21.000Z</Time>
            <Position>
              <LatitudeDegrees>43.26916557736694812774658203125</LatitudeDegrees>
              <LongitudeDegrees>-2.941617183387279510498046875</LongitudeDegrees>
            </Position>
            <DistanceMeters>1294.7409595585</DistanceMeters>
          </Trackpoint>
          <Trackpoint>
            <Time>2022-09-24T13:41:22.000Z</Time>
            <Position>
              <LatitudeDegrees>43.26916473917663097381591796875</LatitudeDegrees>
              <LongitudeDegrees>-2.94162397272884845733642578125</LongitudeDegrees>
            </Position>
            <DistanceMeters>1295.2950557587</DistanceMeters>
          </Trackpoint>
          <Trackpoint>
            <Time>2022-09-24T13:41:23.000Z</Time>
            <Position>
              <LatitudeDegrees>43.269163481891155242919921875</LatitudeDegrees>
              <LongitudeDegrees>-2.94163101352751255035400390625</LongitudeDegrees>
            </Position>
            <DistanceMeters>1295.8808397674</DistanceMeters>
          </Trackpoint>
          <Trackpoint>
            <Time>2022-09-24T13:41:24.000Z</Time>
            <Position>
              <LatitudeDegrees>43.26916222460567951202392578125</LatitudeDegrees>
              <LongitudeDegrees>-2.94163838960230350494384765625</LongitudeDegrees>
            </Position>
            <DistanceMeters>1296.4966832627</DistanceMeters>
          </Trackpoint>
          <Trackpoint>
            <Time>2022-09-24T13:41:25.000Z</Time>
            <Position>
              <LatitudeDegrees>43.26916105113923549652099609375</LatitudeDegrees>
              <LongitudeDegrees>-2.94164576567709445953369140625</LongitudeDegrees>
            </Position>
            <DistanceMeters>1297.1125267579</DistanceMeters>
          </Trackpoint>
          <Trackpoint>
            <Time>2022-09-24T13:41:26.000Z</Time>
            <Position>
              <LatitudeDegrees>43.269159793853759765625</LatitudeDegrees>
              <LongitudeDegrees>-2.9416528902947902679443359375</LongitudeDegrees>
            </Position>
            <DistanceMeters>1297.7135284699</DistanceMeters>
          </Trackpoint>
          <Trackpoint>
            <Time>2022-09-24T13:41:27.000Z</Time>
            <Position>
              <LatitudeDegrees>43.26915836893022060394287109375</LatitudeDegrees>
              <LongitudeDegrees>-2.941660098731517791748046875</LongitudeDegrees>
            </Position>
            <DistanceMeters>1298.3219963279</DistanceMeters>
          </Trackpoint>
          <Trackpoint>
            <Time>2022-09-24T13:41:28.000Z</Time>
            <Position>
              <LatitudeDegrees>43.26915686018764972686767578125</LatitudeDegrees>
              <LongitudeDegrees>-2.94166672043502330780029296875</LongitudeDegrees>
            </Position>
            <DistanceMeters>1298.8841819516</DistanceMeters>
          </Trackpoint>
          <Trackpoint>
            <Time>2022-09-24T13:41:29.000Z</Time>
            <Position>
              <LatitudeDegrees>43.26915501616895198822021484375</LatitudeDegrees>
              <LongitudeDegrees>-2.9416733421385288238525390625</LongitudeDegrees>
            </Position>
            <DistanceMeters>1299.4622068892</DistanceMeters>
          </Trackpoint>
          <Trackpoint>
            <Time>2022-09-24T13:41:30.000Z</Time>
            <Position>
              <LatitudeDegrees>43.2691532559692859649658203125</LatitudeDegrees>
              <LongitudeDegrees>-2.9416793771088123321533203125</LongitudeDegrees>
            </Position>
            <DistanceMeters>1299.9997591622</DistanceMeters>
          </Trackpoint>
          <Trackpoint>
            <Time>2022-09-24T13:41:31.000Z</Time>
            <Position>
              <LatitudeDegrees>43.2691515795886516571044921875</LatitudeDegrees>
              <LongitudeDegrees>-2.94168566353619098663330078125</LongitudeDegrees>
            </Position>
            <DistanceMeters>1300.5373114352</DistanceMeters>
          </Trackpoint>
          <Trackpoint>
            <Time>2022-09-24T13:41:32.000Z</Time>
            <Position>
              <LatitudeDegrees>43.269150070846080780029296875</LatitudeDegrees>
              <LongitudeDegrees>-2.94169194996356964111328125</LongitudeDegrees>
            </Position>
            <DistanceMeters>1301.0748637082</DistanceMeters>
          </Trackpoint>
          <Trackpoint>
            <Time>2022-09-24T13:41:33.000Z</Time>
            <Position>
              <LatitudeDegrees>43.2691485621035099029541015625</LatitudeDegrees>
              <LongitudeDegrees>-2.9416984878480434417724609375</LongitudeDegrees>
            </Position>
            <DistanceMeters>1301.6289599084</DistanceMeters>
          </Trackpoint>
          <Trackpoint>
            <Time>2022-09-24T13:41:34.000Z</Time>
            <Position>
              <LatitudeDegrees>43.2691472209990024566650390625</LatitudeDegrees>
              <LongitudeDegrees>-2.9417048580944538116455078125</LongitudeDegrees>
            </Position>
            <DistanceMeters>1302.1665121814</DistanceMeters>
          </Trackpoint>
          <Trackpoint>
            <Time>2022-09-24T13:41:35.000Z</Time>
            <Position>
              <LatitudeDegrees>43.26914562843739986419677734375</LatitudeDegrees>
              <LongitudeDegrees>-2.94171206653118133544921875</LongitudeDegrees>
            </Position>
            <DistanceMeters>1302.7749800394</DistanceMeters>
          </Trackpoint>
          <Trackpoint>
            <Time>2022-09-24T13:41:36.000Z</Time>
            <Position>
              <LatitudeDegrees>43.269144035875797271728515625</LatitudeDegrees>
              <LongitudeDegrees>-2.94171902351081371307373046875</LongitudeDegrees>
            </Position>
            <DistanceMeters>1303.3607640481</DistanceMeters>
          </Trackpoint>
          <Trackpoint>
            <Time>2022-09-24T13:41:37.000Z</Time>
            <Position>
              <LatitudeDegrees>43.2691421918570995330810546875</LatitudeDegrees>
              <LongitudeDegrees>-2.94172623194754123687744140625</LongitudeDegrees>
            </Position>
            <DistanceMeters>1303.9838958857</DistanceMeters>
          </Trackpoint>
          <Trackpoint>
            <Time>2022-09-24T13:41:38.000Z</Time>
            <Position>
              <LatitudeDegrees>43.2691401802003383636474609375</LatitudeDegrees>
              <LongitudeDegrees>-2.94173344038426876068115234375</LongitudeDegrees>
            </Position>
            <DistanceMeters>1304.6070277234</DistanceMeters>
          </Trackpoint>
          <Trackpoint>
            <Time>2022-09-24T13:41:39.000Z</Time>
            <Position>
              <LatitudeDegrees>43.269138000905513763427734375</LatitudeDegrees>
              <LongitudeDegrees>-2.9417409002780914306640625</LongitudeDegrees>
            </Position>
            <DistanceMeters>1305.2515302574</DistanceMeters>
          </Trackpoint>
          <Trackpoint>
            <Time>2022-09-24T13:41:40.000Z</Time>
            <Position>
              <LatitudeDegrees>43.2691358216106891632080078125</LatitudeDegrees>
              <LongitudeDegrees>-2.94174802489578723907470703125</LongitudeDegrees>
            </Position>
            <DistanceMeters>1305.8818661707</DistanceMeters>
          </Trackpoint>
          <Trackpoint>
            <Time>2022-09-24T13:41:41.000Z</Time>
            <Position>
              <LatitudeDegrees>43.26913322322070598602294921875</LatitudeDegrees>
              <LongitudeDegrees>-2.9417551495134830474853515625</LongitudeDegrees>
            </Position>
            <DistanceMeters>1306.5263687048</DistanceMeters>
          </Trackpoint>
          <Trackpoint>
            <Time>2022-09-24T13:41:42.000Z</Time>
            <Position>
              <LatitudeDegrees>43.26913054101169109344482421875</LatitudeDegrees>
              <LongitudeDegrees>-2.94176177121698856353759765625</LongitudeDegrees>
            </Position>
            <DistanceMeters>1307.1422122</DistanceMeters>
          </Trackpoint>
          <Trackpoint>
            <Time>2022-09-24T13:41:43.000Z</Time>
            <Position>
              <LatitudeDegrees>43.2691277749836444854736328125</LatitudeDegrees>
              <LongitudeDegrees>-2.94176847673952579498291015625</LongitudeDegrees>
            </Position>
            <DistanceMeters>1307.7725481133</DistanceMeters>
          </Trackpoint>
          <Trackpoint>
            <Time>2022-09-24T13:41:44.000Z</Time>
            <Position>
              <LatitudeDegrees>43.2691250927746295928955078125</LatitudeDegrees>
              <LongitudeDegrees>-2.9417749308049678802490234375</LongitudeDegrees>
            </Position>
            <DistanceMeters>1308.3735498252</DistanceMeters>
          </Trackpoint>
          <Trackpoint>
            <Time>2022-09-24T13:41:45.000Z</Time>
            <Position>
              <LatitudeDegrees>43.26912224292755126953125</LatitudeDegrees>
              <LongitudeDegrees>-2.94178121723234653472900390625</LongitudeDegrees>
            </Position>
            <DistanceMeters>1308.9745515371</DistanceMeters>
          </Trackpoint>
          <Trackpoint>
            <Time>2022-09-24T13:41:46.000Z</Time>
            <Position>
              <LatitudeDegrees>43.26911930926144123077392578125</LatitudeDegrees>
              <LongitudeDegrees>-2.94178741984069347381591796875</LongitudeDegrees>
            </Position>
            <DistanceMeters>1309.5755532491</DistanceMeters>
          </Trackpoint>
          <Trackpoint>
            <Time>2022-09-24T13:41:47.000Z</Time>
            <Position>
              <LatitudeDegrees>43.2691163755953311920166015625</LatitudeDegrees>
              <LongitudeDegrees>-2.941793538630008697509765625</LongitudeDegrees>
            </Position>
            <DistanceMeters>1310.1613372578</DistanceMeters>
          </Trackpoint>
          <Trackpoint>
            <Time>2022-09-24T13:41:48.000Z</Time>
            <Position>
              <LatitudeDegrees>43.26911352574825286865234375</LatitudeDegrees>
              <LongitudeDegrees>-2.9417994059622287750244140625</LongitudeDegrees>
            </Position>
            <DistanceMeters>1310.731497544</DistanceMeters>
          </Trackpoint>
          <Trackpoint>
            <Time>2022-09-24T13:41:49.000Z</Time>
            <Position>
              <LatitudeDegrees>43.2691106759011745452880859375</LatitudeDegrees>
              <LongitudeDegrees>-2.941804938018321990966796875</LongitudeDegrees>
            </Position>
            <DistanceMeters>1311.2773844578</DistanceMeters>
          </Trackpoint>
          <Trackpoint>
            <Time>2022-09-24T13:41:50.000Z</Time>
            <Position>
              <LatitudeDegrees>43.26910774223506450653076171875</LatitudeDegrees>
              <LongitudeDegrees>-2.9418104700744152069091796875</LongitudeDegrees>
            </Position>
            <DistanceMeters>1311.831480658</DistanceMeters>
          </Trackpoint>
          <Trackpoint>
            <Time>2022-09-24T13:41:51.000Z</Time>
            <Position>
              <LatitudeDegrees>43.26910489238798618316650390625</LatitudeDegrees>
              <LongitudeDegrees>-2.94181558303534984588623046875</LongitudeDegrees>
            </Position>
            <DistanceMeters>1312.3519634083</DistanceMeters>
          </Trackpoint>
          <Trackpoint>
            <Time>2022-09-24T13:41:52.000Z</Time>
            <Position>
              <LatitudeDegrees>43.2691019587218761444091796875</LatitudeDegrees>
              <LongitudeDegrees>-2.941821031272411346435546875</LongitudeDegrees>
            </Position>
            <DistanceMeters>1312.8895156813</DistanceMeters>
          </Trackpoint>
          <Trackpoint>
            <Time>2022-09-24T13:41:53.000Z</Time>
            <Position>
              <LatitudeDegrees>43.26909919269382953643798828125</LatitudeDegrees>
              <LongitudeDegrees>-2.94182597659528255462646484375</LongitudeDegrees>
            </Position>
            <DistanceMeters>1313.3923497896</DistanceMeters>
          </Trackpoint>
          <Trackpoint>
            <Time>2022-09-24T13:41:54.000Z</Time>
            <Position>
              <LatitudeDegrees>43.2690965943038463592529296875</LatitudeDegrees>
              <LongitudeDegrees>-2.9418309219181537628173828125</LongitudeDegrees>
            </Position>
            <DistanceMeters>1313.8861230817</DistanceMeters>
          </Trackpoint>
          <Trackpoint>
            <Time>2022-09-24T13:41:55.000Z</Time>
            <Position>
              <LatitudeDegrees>43.2690942473709583282470703125</LatitudeDegrees>
              <LongitudeDegrees>-2.9418356157839298248291015625</LongitudeDegrees>
            </Position>
            <DistanceMeters>1314.3516570059</DistanceMeters>
          </Trackpoint>
          <Trackpoint>
            <Time>2022-09-24T13:41:56.000Z</Time>
            <Position>
              <LatitudeDegrees>43.2690919004380702972412109375</LatitudeDegrees>
              <LongitudeDegrees>-2.941840477287769317626953125</LongitudeDegrees>
            </Position>
            <DistanceMeters>1314.8267905778</DistanceMeters>
          </Trackpoint>
          <Trackpoint>
            <Time>2022-09-24T13:41:57.000Z</Time>
            <Position>
              <LatitudeDegrees>43.26908963732421398162841796875</LatitudeDegrees>
              <LongitudeDegrees>-2.9418450035154819488525390625</LongitudeDegrees>
            </Position>
            <DistanceMeters>1315.2725053765</DistanceMeters>
          </Trackpoint>
          <Trackpoint>
            <Time>2022-09-24T13:41:58.000Z</Time>
            <Position>
              <LatitudeDegrees>43.269087374210357666015625</LatitudeDegrees>
              <LongitudeDegrees>-2.941849529743194580078125</LongitudeDegrees>
            </Position>
            <DistanceMeters>1315.7182201752</DistanceMeters>
          </Trackpoint>
          <Trackpoint>
            <Time>2022-09-24T13:41:59.000Z</Time>
            <Position>
              <LatitudeDegrees>43.26908544637262821197509765625</LatitudeDegrees>
              <LongitudeDegrees>-2.9418537206947803497314453125</LongitudeDegrees>
            </Position>
            <DistanceMeters>1316.1213843799</DistanceMeters>
          </Trackpoint>
          <Trackpoint>
            <Time>2022-09-24T13:42:00.000Z</Time>
            <Position>
              <LatitudeDegrees>43.26908360235393047332763671875</LatitudeDegrees>
              <LongitudeDegrees>-2.941857911646366119384765625</LongitudeDegrees>
            </Position>
            <DistanceMeters>1316.5014912374</DistanceMeters>
          </Trackpoint>
          <Trackpoint>
            <Time>2022-09-24T13:42:01.000Z</Time>
            <Position>
              <LatitudeDegrees>43.2690818421542644500732421875</LatitudeDegrees>
              <LongitudeDegrees>-2.9418621025979518890380859375</LongitudeDegrees>
            </Position>
            <DistanceMeters>1316.893296418</DistanceMeters>
          </Trackpoint>
          <Trackpoint>
            <Time>2022-09-24T13:42:02.000Z</Time>
            <Position>
              <LatitudeDegrees>43.26908008195459842681884765625</LatitudeDegrees>
              <LongitudeDegrees>-2.94186671264469623565673828125</LongitudeDegrees>
            </Position>
            <DistanceMeters>1317.318268804</DistanceMeters>
          </Trackpoint>
          <Trackpoint>
            <Time>2022-09-24T13:42:03.000Z</Time>
            <Position>
              <LatitudeDegrees>43.26907731592655181884765625</LatitudeDegrees>
              <LongitudeDegrees>-2.94187190942466259002685546875</LongitudeDegrees>
            </Position>
            <DistanceMeters>1317.8473551578</DistanceMeters>
          </Trackpoint>
          <Trackpoint>
            <Time>2022-09-24T13:42:04.000Z</Time>
            <Position>
              <LatitudeDegrees>43.26907454989850521087646484375</LatitudeDegrees>
              <LongitudeDegrees>-2.94187702238559722900390625</LongitudeDegrees>
            </Position>
            <DistanceMeters>1318.3501892661</DistanceMeters>
          </Trackpoint>
          <Trackpoint>
            <Time>2022-09-24T13:42:05.000Z</Time>
            <Position>
              <LatitudeDegrees>43.26907170005142688751220703125</LatitudeDegrees>
              <LongitudeDegrees>-2.9418822191655635833740234375</LongitudeDegrees>
            </Position>
            <DistanceMeters>1318.8792756198</DistanceMeters>
          </Trackpoint>
          <Trackpoint>
            <Time>2022-09-24T13:42:06.000Z</Time>
            <Position>
              <LatitudeDegrees>43.26906952075660228729248046875</LatitudeDegrees>
              <LongitudeDegrees>-2.94188783504068851470947265625</LongitudeDegrees>
            </Position>
            <DistanceMeters>1319.3910101378</DistanceMeters>
          </Trackpoint>
          <Trackpoint>
            <Time>2022-09-24T13:42:07.000Z</Time>
            <Position>
              <LatitudeDegrees>43.269067592918872833251953125</LatitudeDegrees>
              <LongitudeDegrees>-2.94189370237290859222412109375</LongitudeDegrees>
            </Position>
            <DistanceMeters>1319.9027446558</DistanceMeters>
          </Trackpoint>
          <Trackpoint>
            <Time>2022-09-24T13:42:08.000Z</Time>
            <Position>
              <LatitudeDegrees>43.26906524598598480224609375</LatitudeDegrees>
              <LongitudeDegrees>-2.9418991506099700927734375</LongitudeDegrees>
            </Position>
            <DistanceMeters>1320.4144791737</DistanceMeters>
          </Trackpoint>
          <Trackpoint>
            <Time>2022-09-24T13:42:09.000Z</Time>
            <Position>
              <LatitudeDegrees>43.269062899053096771240234375</LatitudeDegrees>
              <LongitudeDegrees>-2.94190275482833385467529296875</LongitudeDegrees>
            </Position>
            <DistanceMeters>1320.8176433785</DistanceMeters>
          </Trackpoint>
          <Trackpoint>
            <Time>2022-09-24T13:42:10.000Z</Time>
            <Position>
              <LatitudeDegrees>43.26906122267246246337890625</LatitudeDegrees>
              <LongitudeDegrees>-2.9419046826660633087158203125</LongitudeDegrees>
            </Position>
            <DistanceMeters>1321.0690604326</DistanceMeters>
          </Trackpoint>
          <Trackpoint>
            <Time>2022-09-24T13:42:11.000Z</Time>
            <Position>
              <LatitudeDegrees>43.26905988156795501708984375</LatitudeDegrees>
              <LongitudeDegrees>-2.94190627522766590118408203125</LongitudeDegrees>
            </Position>
            <DistanceMeters>1321.2591138613</DistanceMeters>
          </Trackpoint>
          <Trackpoint>
            <Time>2022-09-24T13:42:12.000Z</Time>
            <Position>
              <LatitudeDegrees>43.269058875739574432373046875</LatitudeDegrees>
              <LongitudeDegrees>-2.9419080354273319244384765625</LongitudeDegrees>
            </Position>
            <DistanceMeters>1321.4237049587</DistanceMeters>
          </Trackpoint>
          <Trackpoint>
            <Time>2022-09-24T13:42:13.000Z</Time>
            <Position>
              <LatitudeDegrees>43.26906113885343074798583984375</LatitudeDegrees>
              <LongitudeDegrees>-2.94191189110279083251953125</LongitudeDegrees>
            </Position>
            <DistanceMeters>1321.8268691635</DistanceMeters>
          </Trackpoint>
          <Trackpoint>
            <Time>2022-09-24T13:42:14.000Z</Time>
            <Position>
              <LatitudeDegrees>43.26906281523406505584716796875</LatitudeDegrees>
              <LongitudeDegrees>-2.94191616587340831756591796875</LongitudeDegrees>
            </Position>
            <DistanceMeters>1322.2300333682</DistanceMeters>
          </Trackpoint>
          <Trackpoint>
            <Time>2022-09-24T13:42:15.000Z</Time>
            <Position>
              <LatitudeDegrees>43.2690644077956676483154296875</LatitudeDegrees>
              <LongitudeDegrees>-2.94192018918693065643310546875</LongitudeDegrees>
            </Position>
            <DistanceMeters>1322.5980702504</DistanceMeters>
          </Trackpoint>
          <Trackpoint>
            <Time>2022-09-24T13:42:16.000Z</Time>
            <Position>
              <LatitudeDegrees>43.26906583271920680999755859375</LatitudeDegrees>
              <LongitudeDegrees>-2.941923625767230987548828125</LongitudeDegrees>
            </Position>
            <DistanceMeters>1322.8985711064</DistanceMeters>
          </Trackpoint>
          <Trackpoint>
            <Time>2022-09-24T13:42:17.000Z</Time>
            <Position>
              <LatitudeDegrees>43.26906667090952396392822265625</LatitudeDegrees>
              <LongitudeDegrees>-2.94192706234753131866455078125</LongitudeDegrees>
            </Position>
            <DistanceMeters>1323.1990719624</DistanceMeters>
          </Trackpoint>
          <Trackpoint>
            <Time>2022-09-24T13:42:18.000Z</Time>
            <Position>
              <LatitudeDegrees>43.26906700618565082550048828125</LatitudeDegrees>
              <LongitudeDegrees>-2.941931672394275665283203125</LongitudeDegrees>
            </Position>
            <DistanceMeters>1323.5671088446</DistanceMeters>
          </Trackpoint>
          <Trackpoint>
            <Time>2022-09-24T13:42:19.000Z</Time>
            <Position>
              <LatitudeDegrees>43.269066922366619110107421875</LatitudeDegrees>
              <LongitudeDegrees>-2.94193645007908344268798828125</LongitudeDegrees>
            </Position>
            <DistanceMeters>1323.947215702</DistanceMeters>
          </Trackpoint>
          <Trackpoint>
            <Time>2022-09-24T13:42:20.000Z</Time>
            <Position>
              <LatitudeDegrees>43.269066922366619110107421875</LatitudeDegrees>
              <LongitudeDegrees>-2.9419408924877643585205078125</LongitudeDegrees>
            </Position>
            <DistanceMeters>1324.3027731098</DistanceMeters>
          </Trackpoint>
          <Trackpoint>
            <Time>2022-09-24T13:42:21.000Z</Time>
            <Position>
              <LatitudeDegrees>43.26906667090952396392822265625</LatitudeDegrees>
              <LongitudeDegrees>-2.94194550253450870513916015625</LongitudeDegrees>
            </Position>
            <DistanceMeters>1324.670809992</DistanceMeters>
          </Trackpoint>
          <Trackpoint>
            <Time>2022-09-24T13:42:22.000Z</Time>
            <Position>
              <LatitudeDegrees>43.26906658709049224853515625</LatitudeDegrees>
              <LongitudeDegrees>-2.94195078313350677490234375</LongitudeDegrees>
            </Position>
            <DistanceMeters>1325.0850218369</DistanceMeters>
          </Trackpoint>
          <Trackpoint>
            <Time>2022-09-24T13:42:23.000Z</Time>
            <Position>
              <LatitudeDegrees>43.2690667547285556793212890625</LatitudeDegrees>
              <LongitudeDegrees>-2.94195522554218769073486328125</LongitudeDegrees>
            </Position>
            <DistanceMeters>1325.4405792446</DistanceMeters>
          </Trackpoint>
          <Trackpoint>
            <Time>2022-09-24T13:42:24.000Z</Time>
            <Position>
              <LatitudeDegrees>43.26906700618565082550048828125</LatitudeDegrees>
              <LongitudeDegrees>-2.94195958413183689117431640625</LongitudeDegrees>
            </Position>
            <DistanceMeters>1325.7961366524</DistanceMeters>
          </Trackpoint>
          <Trackpoint>
            <Time>2022-09-24T13:42:25.000Z</Time>
            <Position>
              <LatitudeDegrees>43.2690670900046825408935546875</LatitudeDegrees>
              <LongitudeDegrees>-2.94196427799761295318603515625</LongitudeDegrees>
            </Position>
            <DistanceMeters>1326.1762435099</DistanceMeters>
          </Trackpoint>
          <Trackpoint>
            <Time>2022-09-24T13:42:26.000Z</Time>
            <Position>
              <LatitudeDegrees>43.26906717382371425628662109375</LatitudeDegrees>
              <LongitudeDegrees>-2.94196913950145244598388671875</LongitudeDegrees>
            </Position>
            <DistanceMeters>1326.5680486905</DistanceMeters>
          </Trackpoint>
          <Trackpoint>
            <Time>2022-09-24T13:42:27.000Z</Time>
            <Position>
              <LatitudeDegrees>43.26906734146177768707275390625</LatitudeDegrees>
              <LongitudeDegrees>-2.94197400100529193878173828125</LongitudeDegrees>
            </Position>
            <DistanceMeters>1326.9598538711</DistanceMeters>
          </Trackpoint>
          <Trackpoint>
            <Time>2022-09-24T13:42:28.000Z</Time>
            <Position>
              <LatitudeDegrees>43.2690672576427459716796875</LatitudeDegrees>
              <LongitudeDegrees>-2.94197903014719486236572265625</LongitudeDegrees>
            </Position>
            <DistanceMeters>1327.3630180758</DistanceMeters>
          </Trackpoint>
          <Trackpoint>
            <Time>2022-09-24T13:42:29.000Z</Time>
            <Position>
              <LatitudeDegrees>43.26906717382371425628662109375</LatitudeDegrees>
              <LongitudeDegrees>-2.9419841431081295013427734375</LongitudeDegrees>
            </Position>
            <DistanceMeters>1327.7772299207</DistanceMeters>
          </Trackpoint>
          <Trackpoint>
            <Time>2022-09-24T13:42:30.000Z</Time>
            <Position>
              <LatitudeDegrees>43.2690670900046825408935546875</LatitudeDegrees>
              <LongitudeDegrees>-2.941989339888095855712890625</LongitudeDegrees>
            </Position>
            <DistanceMeters>1328.2022023067</DistanceMeters>
          </Trackpoint>
          <Trackpoint>
            <Time>2022-09-24T13:42:31.000Z</Time>
            <Position>
              <LatitudeDegrees>43.26906717382371425628662109375</LatitudeDegrees>
              <LongitudeDegrees>-2.94199462048709392547607421875</LongitudeDegrees>
            </Position>
            <DistanceMeters>1328.6271746927</DistanceMeters>
          </Trackpoint>
          <Trackpoint>
            <Time>2022-09-24T13:42:32.000Z</Time>
            <Position>
              <LatitudeDegrees>43.26906734146177768707275390625</LatitudeDegrees>
              <LongitudeDegrees>-2.94200015254318714141845703125</LongitudeDegrees>
            </Position>
            <DistanceMeters>1329.0728894914</DistanceMeters>
          </Trackpoint>
          <Trackpoint>
            <Time>2022-09-24T13:42:33.000Z</Time>
            <Position>
              <LatitudeDegrees>43.2690674252808094024658203125</LatitudeDegrees>
              <LongitudeDegrees>-2.942005433142185211181640625</LongitudeDegrees>
            </Position>
            <DistanceMeters>1329.4871013363</DistanceMeters>
          </Trackpoint>
          <Trackpoint>
            <Time>2022-09-24T13:42:34.000Z</Time>
            <Position>
              <LatitudeDegrees>43.26906734146177768707275390625</LatitudeDegrees>
              <LongitudeDegrees>-2.94201088137924671173095703125</LongitudeDegrees>
            </Position>
            <DistanceMeters>1329.922568448</DistanceMeters>
          </Trackpoint>
          <Trackpoint>
            <Time>2022-09-24T13:42:35.000Z</Time>
            <Position>
              <LatitudeDegrees>43.2690670900046825408935546875</LatitudeDegrees>
              <LongitudeDegrees>-2.942016161978244781494140625</LongitudeDegrees>
            </Position>
            <DistanceMeters>1330.347540834</DistanceMeters>
          </Trackpoint>
          <Trackpoint>
            <Time>2022-09-24T13:42:36.000Z</Time>
            <Position>
              <LatitudeDegrees>43.26906650327146053314208984375</LatitudeDegrees>
              <LongitudeDegrees>-2.94202161021530628204345703125</LongitudeDegrees>
            </Position>
            <DistanceMeters>1330.8032729463</DistanceMeters>
          </Trackpoint>
          <Trackpoint>
            <Time>2022-09-24T13:42:37.000Z</Time>
            <Position>
              <LatitudeDegrees>43.269065916538238525390625</LatitudeDegrees>
              <LongitudeDegrees>-2.942026890814304351806640625</LongitudeDegrees>
            </Position>
            <DistanceMeters>1331.2282453323</DistanceMeters>
          </Trackpoint>
          <Trackpoint>
            <Time>2022-09-24T13:42:38.000Z</Time>
            <Position>
              <LatitudeDegrees>43.26906524598598480224609375</LatitudeDegrees>
              <LongitudeDegrees>-2.94203217141330242156982421875</LongitudeDegrees>
            </Position>
            <DistanceMeters>1331.6532177183</DistanceMeters>
          </Trackpoint>
          <Trackpoint>
            <Time>2022-09-24T13:42:39.000Z</Time>
            <Position>
              <LatitudeDegrees>43.2690644077956676483154296875</LatitudeDegrees>
              <LongitudeDegrees>-2.94203736819326877593994140625</LongitudeDegrees>
            </Position>
            <DistanceMeters>1332.0781901044</DistanceMeters>
          </Trackpoint>
          <Trackpoint>
            <Time>2022-09-24T13:42:40.000Z</Time>
            <Position>
              <LatitudeDegrees>43.2690632343292236328125</LatitudeDegrees>
              <LongitudeDegrees>-2.94204273261129856109619140625</LongitudeDegrees>
            </Position>
            <DistanceMeters>1332.523904903</DistanceMeters>
          </Trackpoint>
          <Trackpoint>
            <Time>2022-09-24T13:42:41.000Z</Time>
            <Position>
              <LatitudeDegrees>43.2690618932247161865234375</LatitudeDegrees>
              <LongitudeDegrees>-2.94204809702932834625244140625</LongitudeDegrees>
            </Position>
            <DistanceMeters>1332.9894388273</DistanceMeters>
          </Trackpoint>
          <Trackpoint>
            <Time>2022-09-24T13:42:42.000Z</Time>
            <Position>
              <LatitudeDegrees>43.269060552120208740234375</LatitudeDegrees>
              <LongitudeDegrees>-2.942053377628326416015625</LongitudeDegrees>
            </Position>
            <DistanceMeters>1333.435153626</DistanceMeters>
          </Trackpoint>
          <Trackpoint>
            <Time>2022-09-24T13:42:43.000Z</Time>
            <Position>
              <LatitudeDegrees>43.26905879192054271697998046875</LatitudeDegrees>
              <LongitudeDegrees>-2.9420582391321659088134765625</LongitudeDegrees>
            </Position>
            <DistanceMeters>1333.8808684247</DistanceMeters>
          </Trackpoint>
          <Trackpoint>
            <Time>2022-09-24T13:42:44.000Z</Time>
            <Position>
              <LatitudeDegrees>43.26905694790184497833251953125</LatitudeDegrees>
              <LongitudeDegrees>-2.9420632682740688323974609375</LongitudeDegrees>
            </Position>
            <DistanceMeters>1334.346402349</DistanceMeters>
          </Trackpoint>
          <Trackpoint>
            <Time>2022-09-24T13:42:45.000Z</Time>
            <Position>
              <LatitudeDegrees>43.269055187702178955078125</LatitudeDegrees>
              <LongitudeDegrees>-2.94206821359694004058837890625</LongitudeDegrees>
            </Position>
            <DistanceMeters>1334.8021344613</DistanceMeters>
          </Trackpoint>
          <Trackpoint>
            <Time>2022-09-24T13:42:46.000Z</Time>
            <Position>
              <LatitudeDegrees>43.26905342750251293182373046875</LatitudeDegrees>
              <LongitudeDegrees>-2.94207324273884296417236328125</LongitudeDegrees>
            </Position>
            <DistanceMeters>1335.2578665736</DistanceMeters>
          </Trackpoint>
          <Trackpoint>
            <Time>2022-09-24T13:42:47.000Z</Time>
            <Position>
              <LatitudeDegrees>43.26905158348381519317626953125</LatitudeDegrees>
              <LongitudeDegrees>-2.94207827188074588775634765625</LongitudeDegrees>
            </Position>
            <DistanceMeters>1335.7234004979</DistanceMeters>
          </Trackpoint>
          <Trackpoint>
            <Time>2022-09-24T13:42:48.000Z</Time>
            <Position>
              <LatitudeDegrees>43.269049823284149169921875</LatitudeDegrees>
              <LongitudeDegrees>-2.94208330102264881134033203125</LongitudeDegrees>
            </Position>
            <DistanceMeters>1336.1791326103</DistanceMeters>
          </Trackpoint>
          <Trackpoint>
            <Time>2022-09-24T13:42:49.000Z</Time>
            <Position>
              <LatitudeDegrees>43.26904789544641971588134765625</LatitudeDegrees>
              <LongitudeDegrees>-2.94208900071680545806884765625</LongitudeDegrees>
            </Position>
            <DistanceMeters>1336.6908671282</DistanceMeters>
          </Trackpoint>
          <Trackpoint>
            <Time>2022-09-24T13:42:50.000Z</Time>
            <Position>
              <LatitudeDegrees>43.26904605142772197723388671875</LatitudeDegrees>
              <LongitudeDegrees>-2.94209537096321582794189453125</LongitudeDegrees>
            </Position>
            <DistanceMeters>1337.253052752</DistanceMeters>
          </Trackpoint>
          <Trackpoint>
            <Time>2022-09-24T13:42:51.000Z</Time>
            <Position>
              <LatitudeDegrees>43.26904437504708766937255859375</LatitudeDegrees>
              <LongitudeDegrees>-2.9421014897525310516357421875</LongitudeDegrees>
            </Position>
            <DistanceMeters>1337.7735355022</DistanceMeters>
          </Trackpoint>
          <Trackpoint>
            <Time>2022-09-24T13:42:52.000Z</Time>
            <Position>
              <LatitudeDegrees>43.26904286630451679229736328125</LatitudeDegrees>
              <LongitudeDegrees>-2.94210693798959255218505859375</LongitudeDegrees>
            </Position>
            <DistanceMeters>1338.2580785731</DistanceMeters>
          </Trackpoint>
          <Trackpoint>
            <Time>2022-09-24T13:42:53.000Z</Time>
            <Position>
              <LatitudeDegrees>43.269041441380977630615234375</LatitudeDegrees>
              <LongitudeDegrees>-2.94211263768374919891357421875</LongitudeDegrees>
            </Position>
            <DistanceMeters>1338.7609126814</DistanceMeters>
          </Trackpoint>
          <Trackpoint>
            <Time>2022-09-24T13:42:54.000Z</Time>
            <Position>
              <LatitudeDegrees>43.26903976500034332275390625</LatitudeDegrees>
              <LongitudeDegrees>-2.9421189241111278533935546875</LongitudeDegrees>
            </Position>
            <DistanceMeters>1339.2984649544</DistanceMeters>
          </Trackpoint>
          <Trackpoint>
            <Time>2022-09-24T13:42:55.000Z</Time>
            <Position>
              <LatitudeDegrees>43.26903817243874073028564453125</LatitudeDegrees>
              <LongitudeDegrees>-2.9421246238052845001220703125</LongitudeDegrees>
            </Position>
            <DistanceMeters>1339.8012990626</DistanceMeters>
          </Trackpoint>
          <Trackpoint>
            <Time>2022-09-24T13:42:56.000Z</Time>
            <Position>
              <LatitudeDegrees>43.26903582550585269927978515625</LatitudeDegrees>
              <LongitudeDegrees>-2.94212940149009227752685546875</LongitudeDegrees>
            </Position>
            <DistanceMeters>1340.257031175</DistanceMeters>
          </Trackpoint>
          <Trackpoint>
            <Time>2022-09-24T13:42:57.000Z</Time>
            <Position>
              <LatitudeDegrees>43.2690332271158695220947265625</LatitudeDegrees>
              <LongitudeDegrees>-2.94213376007974147796630859375</LongitudeDegrees>
            </Position>
            <DistanceMeters>1340.7027459736</DistanceMeters>
          </Trackpoint>
          <Trackpoint>
            <Time>2022-09-24T13:42:58.000Z</Time>
            <Position>
              <LatitudeDegrees>43.2690308801829814910888671875</LatitudeDegrees>
              <LongitudeDegrees>-2.94213744811713695526123046875</LongitudeDegrees>
            </Position>
            <DistanceMeters>1341.1059101784</DistanceMeters>
          </Trackpoint>
          <Trackpoint>
            <Time>2022-09-24T13:42:59.000Z</Time>
            <Position>
              <LatitudeDegrees>43.2690288685262203216552734375</LatitudeDegrees>
              <LongitudeDegrees>-2.942140884697437286376953125</LongitudeDegrees>
            </Position>
            <DistanceMeters>1341.4614675862</DistanceMeters>
          </Trackpoint>
          <Trackpoint>
            <Time>2022-09-24T13:43:00.000Z</Time>
            <Position>
              <LatitudeDegrees>43.26902777887880802154541015625</LatitudeDegrees>
              <LongitudeDegrees>-2.9421444050967693328857421875</LongitudeDegrees>
            </Position>
            <DistanceMeters>1341.7766355428</DistanceMeters>
          </Trackpoint>
          <Trackpoint>
            <Time>2022-09-24T13:43:01.000Z</Time>
            <Position>
              <LatitudeDegrees>43.26902744360268115997314453125</LatitudeDegrees>
              <LongitudeDegrees>-2.94214817695319652557373046875</LongitudeDegrees>
            </Position>
            <DistanceMeters>1342.1058177375</DistanceMeters>
          </Trackpoint>
          <Trackpoint>
            <Time>2022-09-24T13:43:02.000Z</Time>
            <Position>
              <LatitudeDegrees>43.269027359783649444580078125</LatitudeDegrees>
              <LongitudeDegrees>-2.94215203262865543365478515625</LongitudeDegrees>
            </Position>
            <DistanceMeters>1342.4209856941</DistanceMeters>
          </Trackpoint>
          <Trackpoint>
            <Time>2022-09-24T13:43:03.000Z</Time>
            <Position>
              <LatitudeDegrees>43.2690270245075225830078125</LatitudeDegrees>
              <LongitudeDegrees>-2.94215588830411434173583984375</LongitudeDegrees>
            </Position>
            <DistanceMeters>1342.7501678889</DistanceMeters>
          </Trackpoint>
          <Trackpoint>
            <Time>2022-09-24T13:43:04.000Z</Time>
            <Position>
              <LatitudeDegrees>43.26902677305042743682861328125</LatitudeDegrees>
              <LongitudeDegrees>-2.94215974397957324981689453125</LongitudeDegrees>
            </Position>
            <DistanceMeters>1343.0793500836</DistanceMeters>
          </Trackpoint>
          <Trackpoint>
            <Time>2022-09-24T13:43:05.000Z</Time>
            <Position>
              <LatitudeDegrees>43.26902660541236400604248046875</LatitudeDegrees>
              <LongitudeDegrees>-2.94216334819793701171875</LongitudeDegrees>
            </Position>
            <DistanceMeters>1343.3798509396</DistanceMeters>
          </Trackpoint>
          <Trackpoint>
            <Time>2022-09-24T13:43:06.000Z</Time>
            <Position>
              <LatitudeDegrees>43.26902643777430057525634765625</LatitudeDegrees>
              <LongitudeDegrees>-2.9421675391495227813720703125</LongitudeDegrees>
            </Position>
            <DistanceMeters>1343.7354083473</DistanceMeters>
          </Trackpoint>
          <Trackpoint>
            <Time>2022-09-24T13:43:07.000Z</Time>
            <Position>
              <LatitudeDegrees>43.269026018679141998291015625</LatitudeDegrees>
              <LongitudeDegrees>-2.9421715624630451202392578125</LongitudeDegrees>
            </Position>
            <DistanceMeters>1344.0780320385</DistanceMeters>
          </Trackpoint>
          <Trackpoint>
            <Time>2022-09-24T13:43:08.000Z</Time>
            <Position>
              <LatitudeDegrees>43.26902492903172969818115234375</LatitudeDegrees>
              <LongitudeDegrees>-2.9421752505004405975341796875</LongitudeDegrees>
            </Position>
            <DistanceMeters>1344.4072142333</DistanceMeters>
          </Trackpoint>
          <Trackpoint>
            <Time>2022-09-24T13:43:09.000Z</Time>
            <Position>
              <LatitudeDegrees>43.26902375556528568267822265625</LatitudeDegrees>
              <LongitudeDegrees>-2.94217885471880435943603515625</LongitudeDegrees>
            </Position>
            <DistanceMeters>1344.736396428</DistanceMeters>
          </Trackpoint>
          <Trackpoint>
            <Time>2022-09-24T13:43:10.000Z</Time>
            <Position>
              <LatitudeDegrees>43.26902258209884166717529296875</LatitudeDegrees>
              <LongitudeDegrees>-2.942182458937168121337890625</LongitudeDegrees>
            </Position>
            <DistanceMeters>1345.0655786227</DistanceMeters>
          </Trackpoint>
          <Trackpoint>
            <Time>2022-09-24T13:43:11.000Z</Time>
            <Position>
              <LatitudeDegrees>43.26902124099433422088623046875</LatitudeDegrees>
              <LongitudeDegrees>-2.9421861469745635986328125</LongitudeDegrees>
            </Position>
            <DistanceMeters>1345.3947608174</DistanceMeters>
          </Trackpoint>
          <Trackpoint>
            <Time>2022-09-24T13:43:12.000Z</Time>
            <Position>
              <LatitudeDegrees>43.269019983708858489990234375</LatitudeDegrees>
              <LongitudeDegrees>-2.942189835011959075927734375</LongitudeDegrees>
            </Position>
            <DistanceMeters>1345.7239430122</DistanceMeters>
          </Trackpoint>
          <Trackpoint>
            <Time>2022-09-24T13:43:13.000Z</Time>
            <Position>
              <LatitudeDegrees>43.269018642604351043701171875</LatitudeDegrees>
              <LongitudeDegrees>-2.94219343923032283782958984375</LongitudeDegrees>
            </Position>
            <DistanceMeters>1346.0531252069</DistanceMeters>
          </Trackpoint>
          <Trackpoint>
            <Time>2022-09-24T13:43:14.000Z</Time>
            <Position>
              <LatitudeDegrees>43.26901721768081188201904296875</LatitudeDegrees>
              <LongitudeDegrees>-2.94219712726771831512451171875</LongitudeDegrees>
            </Position>
            <DistanceMeters>1346.3823074016</DistanceMeters>
          </Trackpoint>
          <Trackpoint>
            <Time>2022-09-24T13:43:15.000Z</Time>
            <Position>
              <LatitudeDegrees>43.26901587657630443572998046875</LatitudeDegrees>
              <LongitudeDegrees>-2.94220081530511379241943359375</LongitudeDegrees>
            </Position>
            <DistanceMeters>1346.7249310928</DistanceMeters>
          </Trackpoint>
          <Trackpoint>
            <Time>2022-09-24T13:43:16.000Z</Time>
            <Position>
              <LatitudeDegrees>43.26901453547179698944091796875</LatitudeDegrees>
              <LongitudeDegrees>-2.942204587161540985107421875</LongitudeDegrees>
            </Position>
            <DistanceMeters>1347.0804885006</DistanceMeters>
          </Trackpoint>
          <Trackpoint>
            <Time>2022-09-24T13:43:17.000Z</Time>
            <Position>
              <LatitudeDegrees>43.2690134458243846893310546875</LatitudeDegrees>
              <LongitudeDegrees>-2.942208610475063323974609375</LongitudeDegrees>
            </Position>
            <DistanceMeters>1347.4360459084</DistanceMeters>
          </Trackpoint>
          <Trackpoint>
            <Time>2022-09-24T13:43:18.000Z</Time>
            <Position>
              <LatitudeDegrees>43.26901252381503582000732421875</LatitudeDegrees>
              <LongitudeDegrees>-2.94221254996955394744873046875</LongitudeDegrees>
            </Position>
            <DistanceMeters>1347.7652281031</DistanceMeters>
          </Trackpoint>
          <Trackpoint>
            <Time>2022-09-24T13:43:19.000Z</Time>
            <Position>
              <LatitudeDegrees>43.26901151798665523529052734375</LatitudeDegrees>
              <LongitudeDegrees>-2.9422168247401714324951171875</LongitudeDegrees>
            </Position>
            <DistanceMeters>1348.1207855109</DistanceMeters>
          </Trackpoint>
          <Trackpoint>
            <Time>2022-09-24T13:43:20.000Z</Time>
            <Position>
              <LatitudeDegrees>43.2690104283392429351806640625</LatitudeDegrees>
              <LongitudeDegrees>-2.9422211833298206329345703125</LongitudeDegrees>
            </Position>
            <DistanceMeters>1348.5008923683</DistanceMeters>
          </Trackpoint>
          <Trackpoint>
            <Time>2022-09-24T13:43:21.000Z</Time>
            <Position>
              <LatitudeDegrees>43.2690097577869892120361328125</LatitudeDegrees>
              <LongitudeDegrees>-2.9422255419194698333740234375</LongitudeDegrees>
            </Position>
            <DistanceMeters>1348.8564497761</DistanceMeters>
          </Trackpoint>
          <Trackpoint>
            <Time>2022-09-24T13:43:22.000Z</Time>
            <Position>
              <LatitudeDegrees>43.269009254872798919677734375</LatitudeDegrees>
              <LongitudeDegrees>-2.9422299005091190338134765625</LongitudeDegrees>
            </Position>
            <DistanceMeters>1349.2120071839</DistanceMeters>
          </Trackpoint>
          <Trackpoint>
            <Time>2022-09-24T13:43:23.000Z</Time>
            <Position>
              <LatitudeDegrees>43.26900866813957691192626953125</LatitudeDegrees>
              <LongitudeDegrees>-2.9422345943748950958251953125</LongitudeDegrees>
            </Position>
            <DistanceMeters>1349.5921140413</DistanceMeters>
          </Trackpoint>
          <Trackpoint>
            <Time>2022-09-24T13:43:24.000Z</Time>
            <Position>
              <LatitudeDegrees>43.26900850050151348114013671875</LatitudeDegrees>
              <LongitudeDegrees>-2.94223937205970287322998046875</LongitudeDegrees>
            </Position>
            <DistanceMeters>1349.9722208988</DistanceMeters>
          </Trackpoint>
          <Trackpoint>
            <Time>2022-09-24T13:43:25.000Z</Time>
            <Position>
              <LatitudeDegrees>43.2690080814063549041748046875</LatitudeDegrees>
              <LongitudeDegrees>-2.94224389828741550445556640625</LongitudeDegrees>
            </Position>
            <DistanceMeters>1350.3523277563</DistanceMeters>
          </Trackpoint>
          <Trackpoint>
            <Time>2022-09-24T13:43:26.000Z</Time>
            <Position>
              <LatitudeDegrees>43.26900749467313289642333984375</LatitudeDegrees>
              <LongitudeDegrees>-2.94224825687706470489501953125</LongitudeDegrees>
            </Position>
            <DistanceMeters>1350.7078851641</DistanceMeters>
          </Trackpoint>
          <Trackpoint>
            <Time>2022-09-24T13:43:27.000Z</Time>
            <Position>
              <LatitudeDegrees>43.269006907939910888671875</LatitudeDegrees>
              <LongitudeDegrees>-2.94225253164768218994140625</LongitudeDegrees>
            </Position>
            <DistanceMeters>1351.0634425718</DistanceMeters>
          </Trackpoint>
          <Trackpoint>
            <Time>2022-09-24T13:43:28.000Z</Time>
            <Position>
              <LatitudeDegrees>43.26900615356862545013427734375</LatitudeDegrees>
              <LongitudeDegrees>-2.94225663878023624420166015625</LongitudeDegrees>
            </Position>
            <DistanceMeters>1351.4189999796</DistanceMeters>
          </Trackpoint>
          <Trackpoint>
            <Time>2022-09-24T13:43:29.000Z</Time>
            <Position>
              <LatitudeDegrees>43.2690053991973400115966796875</LatitudeDegrees>
              <LongitudeDegrees>-2.94226082973182201385498046875</LongitudeDegrees>
            </Position>
            <DistanceMeters>1351.7745573874</DistanceMeters>
          </Trackpoint>
          <Trackpoint>
            <Time>2022-09-24T13:43:30.000Z</Time>
            <Position>
              <LatitudeDegrees>43.26900464482605457305908203125</LatitudeDegrees>
              <LongitudeDegrees>-2.94226518832147121429443359375</LongitudeDegrees>
            </Position>
            <DistanceMeters>1352.1301147951</DistanceMeters>
          </Trackpoint>
          <Trackpoint>
            <Time>2022-09-24T13:43:31.000Z</Time>
            <Position>
              <LatitudeDegrees>43.26900380663573741912841796875</LatitudeDegrees>
              <LongitudeDegrees>-2.94226937927305698394775390625</LongitudeDegrees>
            </Position>
            <DistanceMeters>1352.4856722029</DistanceMeters>
          </Trackpoint>
          <Trackpoint>
            <Time>2022-09-24T13:43:32.000Z</Time>
            <Position>
              <LatitudeDegrees>43.269002549350261688232421875</LatitudeDegrees>
              <LongitudeDegrees>-2.9422738216817378997802734375</LongitudeDegrees>
            </Position>
            <DistanceMeters>1352.8657790604</DistanceMeters>
          </Trackpoint>
          <Trackpoint>
            <Time>2022-09-24T13:43:33.000Z</Time>
            <Position>
              <LatitudeDegrees>43.269001208245754241943359375</LatitudeDegrees>
              <LongitudeDegrees>-2.94227826409041881561279296875</LongitudeDegrees>
            </Position>
            <DistanceMeters>1353.2458859178</DistanceMeters>
          </Trackpoint>
          <Trackpoint>
            <Time>2022-09-24T13:43:34.000Z</Time>
            <Position>
              <LatitudeDegrees>43.2689996995031833648681640625</LatitudeDegrees>
              <LongitudeDegrees>-2.94228262268006801605224609375</LongitudeDegrees>
            </Position>
            <DistanceMeters>1353.6376910984</DistanceMeters>
          </Trackpoint>
          <Trackpoint>
            <Time>2022-09-24T13:43:35.000Z</Time>
            <Position>
              <LatitudeDegrees>43.26899810694158077239990234375</LatitudeDegrees>
              <LongitudeDegrees>-2.94228681363165378570556640625</LongitudeDegrees>
            </Position>
            <DistanceMeters>1354.0294962791</DistanceMeters>
          </Trackpoint>
          <Trackpoint>
            <Time>2022-09-24T13:43:36.000Z</Time>
            <Position>
              <LatitudeDegrees>43.268996514379978179931640625</LatitudeDegrees>
              <LongitudeDegrees>-2.94229133985936641693115234375</LongitudeDegrees>
            </Position>
            <DistanceMeters>1354.4437081239</DistanceMeters>
          </Trackpoint>
          <Trackpoint>
            <Time>2022-09-24T13:43:37.000Z</Time>
            <Position>
              <LatitudeDegrees>43.26899492181837558746337890625</LatitudeDegrees>
              <LongitudeDegrees>-2.94229603372514247894287109375</LongitudeDegrees>
            </Position>
            <DistanceMeters>1354.8686805099</DistanceMeters>
          </Trackpoint>
          <Trackpoint>
            <Time>2022-09-24T13:43:38.000Z</Time>
            <Position>
              <LatitudeDegrees>43.26899324543774127960205078125</LatitudeDegrees>
              <LongitudeDegrees>-2.942301146686077117919921875</LongitudeDegrees>
            </Position>
            <DistanceMeters>1355.3244126223</DistanceMeters>
          </Trackpoint>
          <Trackpoint>
            <Time>2022-09-24T13:43:39.000Z</Time>
            <Position>
              <LatitudeDegrees>43.2689916528761386871337890625</LatitudeDegrees>
              <LongitudeDegrees>-2.94230617582798004150390625</LongitudeDegrees>
            </Position>
            <DistanceMeters>1355.770127421</DistanceMeters>
          </Trackpoint>
          <Trackpoint>
            <Time>2022-09-24T13:43:40.000Z</Time>
            <Position>
              <LatitudeDegrees>43.268989808857440948486328125</LatitudeDegrees>
              <LongitudeDegrees>-2.94231145642697811126708984375</LongitudeDegrees>
            </Position>
            <DistanceMeters>1356.2452609928</DistanceMeters>
          </Trackpoint>
          <Trackpoint>
            <Time>2022-09-24T13:43:41.000Z</Time>
            <Position>
              <LatitudeDegrees>43.2689879648387432098388671875</LatitudeDegrees>
              <LongitudeDegrees>-2.94231682084500789642333984375</LongitudeDegrees>
            </Position>
            <DistanceMeters>1356.7298040637</DistanceMeters>
          </Trackpoint>
          <Trackpoint>
            <Time>2022-09-24T13:43:42.000Z</Time>
            <Position>
              <LatitudeDegrees>43.2689859531819820404052734375</LatitudeDegrees>
              <LongitudeDegrees>-2.94232226908206939697265625</LongitudeDegrees>
            </Position>
            <DistanceMeters>1357.232638172</DistanceMeters>
          </Trackpoint>
          <Trackpoint>
            <Time>2022-09-24T13:43:43.000Z</Time>
            <Position>
              <LatitudeDegrees>43.26898402534425258636474609375</LatitudeDegrees>
              <LongitudeDegrees>-2.94232771731913089752197265625</LongitudeDegrees>
            </Position>
            <DistanceMeters>1357.7171812428</DistanceMeters>
          </Trackpoint>
          <Trackpoint>
            <Time>2022-09-24T13:43:44.000Z</Time>
            <Position>
              <LatitudeDegrees>43.2689819298684597015380859375</LatitudeDegrees>
              <LongitudeDegrees>-2.94233291409909725189208984375</LongitudeDegrees>
            </Position>
            <DistanceMeters>1358.2109545349</DistanceMeters>
          </Trackpoint>
          <Trackpoint>
            <Time>2022-09-24T13:43:45.000Z</Time>
            <Position>
              <LatitudeDegrees>43.26897983439266681671142578125</LatitudeDegrees>
              <LongitudeDegrees>-2.942338027060031890869140625</LongitudeDegrees>
            </Position>
            <DistanceMeters>1358.6954976058</DistanceMeters>
          </Trackpoint>
          <Trackpoint>
            <Time>2022-09-24T13:43:46.000Z</Time>
            <Position>
              <LatitudeDegrees>43.2689779065549373626708984375</LatitudeDegrees>
              <LongitudeDegrees>-2.942343056201934814453125</LongitudeDegrees>
            </Position>
            <DistanceMeters>1359.1610315301</DistanceMeters>
          </Trackpoint>
          <Trackpoint>
            <Time>2022-09-24T13:43:47.000Z</Time>
            <Position>
              <LatitudeDegrees>43.26897581107914447784423828125</LatitudeDegrees>
              <LongitudeDegrees>-2.94234850443899631500244140625</LongitudeDegrees>
            </Position>
            <DistanceMeters>1359.6638656384</DistanceMeters>
          </Trackpoint>
          <Trackpoint>
            <Time>2022-09-24T13:43:48.000Z</Time>
            <Position>
              <LatitudeDegrees>43.2689738832414150238037109375</LatitudeDegrees>
              <LongitudeDegrees>-2.9423539526760578155517578125</LongitudeDegrees>
            </Position>
            <DistanceMeters>1360.1576389305</DistanceMeters>
          </Trackpoint>
          <Trackpoint>
            <Time>2022-09-24T13:43:49.000Z</Time>
            <Position>
              <LatitudeDegrees>43.26897212304174900054931640625</LatitudeDegrees>
              <LongitudeDegrees>-2.94235956855118274688720703125</LongitudeDegrees>
            </Position>
            <DistanceMeters>1360.6514122226</DistanceMeters>
          </Trackpoint>
          <Trackpoint>
            <Time>2022-09-24T13:43:50.000Z</Time>
            <Position>
              <LatitudeDegrees>43.26897044666111469268798828125</LatitudeDegrees>
              <LongitudeDegrees>-2.9423650167882442474365234375</LongitudeDegrees>
            </Position>
            <DistanceMeters>1361.1359552934</DistanceMeters>
          </Trackpoint>
          <Trackpoint>
            <Time>2022-09-24T13:43:51.000Z</Time>
            <Position>
              <LatitudeDegrees>43.2689688540995121002197265625</LatitudeDegrees>
              <LongitudeDegrees>-2.9423707164824008941650390625</LongitudeDegrees>
            </Position>
            <DistanceMeters>1361.6387894017</DistanceMeters>
          </Trackpoint>
          <Trackpoint>
            <Time>2022-09-24T13:43:52.000Z</Time>
            <Position>
              <LatitudeDegrees>43.26896734535694122314453125</LatitudeDegrees>
              <LongitudeDegrees>-2.94237633235752582550048828125</LongitudeDegrees>
            </Position>
            <DistanceMeters>1362.1233324726</DistanceMeters>
          </Trackpoint>
          <Trackpoint>
            <Time>2022-09-24T13:43:53.000Z</Time>
            <Position>
              <LatitudeDegrees>43.2689658366143703460693359375</LatitudeDegrees>
              <LongitudeDegrees>-2.9423819482326507568359375</LongitudeDegrees>
            </Position>
            <DistanceMeters>1362.6078755435</DistanceMeters>
          </Trackpoint>
          <Trackpoint>
            <Time>2022-09-24T13:43:54.000Z</Time>
            <Position>
              <LatitudeDegrees>43.2689644955098628997802734375</LatitudeDegrees>
              <LongitudeDegrees>-2.9423873126506805419921875</LongitudeDegrees>
            </Position>
            <DistanceMeters>1363.0636076558</DistanceMeters>
          </Trackpoint>
          <Trackpoint>
            <Time>2022-09-24T13:43:55.000Z</Time>
            <Position>
              <LatitudeDegrees>43.2689628191292285919189453125</LatitudeDegrees>
              <LongitudeDegrees>-2.94239292852580547332763671875</LongitudeDegrees>
            </Position>
            <DistanceMeters>1363.5481507267</DistanceMeters>
          </Trackpoint>
          <Trackpoint>
            <Time>2022-09-24T13:43:56.000Z</Time>
            <Position>
              <LatitudeDegrees>43.26896105892956256866455078125</LatitudeDegrees>
              <LongitudeDegrees>-2.94239829294383525848388671875</LongitudeDegrees>
            </Position>
            <DistanceMeters>1364.013684651</DistanceMeters>
          </Trackpoint>
          <Trackpoint>
            <Time>2022-09-24T13:43:57.000Z</Time>
            <Position>
              <LatitudeDegrees>43.2689591310918331146240234375</LatitudeDegrees>
              <LongitudeDegrees>-2.94240399263799190521240234375</LongitudeDegrees>
            </Position>
            <DistanceMeters>1364.5165187592</DistanceMeters>
          </Trackpoint>
          <Trackpoint>
            <Time>2022-09-24T13:43:58.000Z</Time>
            <Position>
              <LatitudeDegrees>43.26895686797797679901123046875</LatitudeDegrees>
              <LongitudeDegrees>-2.94240952469408512115478515625</LongitudeDegrees>
            </Position>
            <DistanceMeters>1365.0193528675</DistanceMeters>
          </Trackpoint>
          <Trackpoint>
            <Time>2022-09-24T13:43:59.000Z</Time>
            <Position>
              <LatitudeDegrees>43.26895452104508876800537109375</LatitudeDegrees>
              <LongitudeDegrees>-2.94241522438824176788330078125</LongitudeDegrees>
            </Position>
            <DistanceMeters>1365.5569051405</DistanceMeters>
          </Trackpoint>
          <Trackpoint>
            <Time>2022-09-24T13:44:00.000Z</Time>
            <Position>
              <LatitudeDegrees>43.26895259320735931396484375</LatitudeDegrees>
              <LongitudeDegrees>-2.94242042116820812225341796875</LongitudeDegrees>
            </Position>
            <DistanceMeters>1366.0224390648</DistanceMeters>
          </Trackpoint>
          <Trackpoint>
            <Time>2022-09-24T13:44:01.000Z</Time>
            <Position>
              <LatitudeDegrees>43.26895066536962985992431640625</LatitudeDegrees>
              <LongitudeDegrees>-2.9424260370433330535888671875</LongitudeDegrees>
            </Position>
            <DistanceMeters>1366.525273173</DistanceMeters>
          </Trackpoint>
          <Trackpoint>
            <Time>2022-09-24T13:44:02.000Z</Time>
            <Position>
              <LatitudeDegrees>43.268948905169963836669921875</LatitudeDegrees>
              <LongitudeDegrees>-2.9424314014613628387451171875</LongitudeDegrees>
            </Position>
            <DistanceMeters>1367.0098162439</DistanceMeters>
          </Trackpoint>
          <Trackpoint>
            <Time>2022-09-24T13:44:03.000Z</Time>
            <Position>
              <LatitudeDegrees>43.26894697733223438262939453125</LatitudeDegrees>
              <LongitudeDegrees>-2.94243684969842433929443359375</LongitudeDegrees>
            </Position>
            <DistanceMeters>1367.5126503522</DistanceMeters>
          </Trackpoint>
          <Trackpoint>
            <Time>2022-09-24T13:44:04.000Z</Time>
            <Position>
              <LatitudeDegrees>43.26894513331353664398193359375</LatitudeDegrees>
              <LongitudeDegrees>-2.94244187884032726287841796875</LongitudeDegrees>
            </Position>
            <DistanceMeters>1367.9781842765</DistanceMeters>
          </Trackpoint>
          <Trackpoint>
            <Time>2022-09-24T13:44:05.000Z</Time>
            <Position>
              <LatitudeDegrees>43.26894320547580718994140625</LatitudeDegrees>
              <LongitudeDegrees>-2.9424468241631984710693359375</LongitudeDegrees>
            </Position>
            <DistanceMeters>1368.4437182007</DistanceMeters>
          </Trackpoint>
          <Trackpoint>
            <Time>2022-09-24T13:44:06.000Z</Time>
            <Position>
              <LatitudeDegrees>43.2689413614571094512939453125</LatitudeDegrees>
              <LongitudeDegrees>-2.942452020943164825439453125</LongitudeDegrees>
            </Position>
            <DistanceMeters>1368.909252125</DistanceMeters>
          </Trackpoint>
          <Trackpoint>
            <Time>2022-09-24T13:44:07.000Z</Time>
            <Position>
              <LatitudeDegrees>43.26893960125744342803955078125</LatitudeDegrees>
              <LongitudeDegrees>-2.94245746918022632598876953125</LongitudeDegrees>
            </Position>
            <DistanceMeters>1369.3937951959</DistanceMeters>
          </Trackpoint>
          <Trackpoint>
            <Time>2022-09-24T13:44:08.000Z</Time>
            <Position>
              <LatitudeDegrees>43.26893792487680912017822265625</LatitudeDegrees>
              <LongitudeDegrees>-2.9424629174172878265380859375</LongitudeDegrees>
            </Position>
            <DistanceMeters>1369.8783382668</DistanceMeters>
          </Trackpoint>
          <Trackpoint>
            <Time>2022-09-24T13:44:09.000Z</Time>
            <Position>
              <LatitudeDegrees>43.26893641613423824310302734375</LatitudeDegrees>
              <LongitudeDegrees>-2.94246836565434932708740234375</LongitudeDegrees>
            </Position>
            <DistanceMeters>1370.3628813377</DistanceMeters>
          </Trackpoint>
          <Trackpoint>
            <Time>2022-09-24T13:44:10.000Z</Time>
            <Position>
              <LatitudeDegrees>43.2689346559345722198486328125</LatitudeDegrees>
              <LongitudeDegrees>-2.942474149167537689208984375</LongitudeDegrees>
            </Position>
            <DistanceMeters>1370.8657154459</DistanceMeters>
          </Trackpoint>
          <Trackpoint>
            <Time>2022-09-24T13:44:11.000Z</Time>
            <Position>
              <LatitudeDegrees>43.268932811915874481201171875</LatitudeDegrees>
              <LongitudeDegrees>-2.94247993268072605133056640625</LongitudeDegrees>
            </Position>
            <DistanceMeters>1371.3685495542</DistanceMeters>
          </Trackpoint>
          <Trackpoint>
            <Time>2022-09-24T13:44:12.000Z</Time>
            <Position>
              <LatitudeDegrees>43.26893088407814502716064453125</LatitudeDegrees>
              <LongitudeDegrees>-2.94248596765100955963134765625</LongitudeDegrees>
            </Position>
            <DistanceMeters>1371.9061018272</DistanceMeters>
          </Trackpoint>
          <Trackpoint>
            <Time>2022-09-24T13:44:13.000Z</Time>
            <Position>
              <LatitudeDegrees>43.26892920769751071929931640625</LatitudeDegrees>
              <LongitudeDegrees>-2.94249183498322963714599609375</LongitudeDegrees>
            </Position>
            <DistanceMeters>1372.4265845775</DistanceMeters>
          </Trackpoint>
          <Trackpoint>
            <Time>2022-09-24T13:44:14.000Z</Time>
            <Position>
              <LatitudeDegrees>43.26892753131687641143798828125</LatitudeDegrees>
              <LongitudeDegrees>-2.9424977861344814300537109375</LongitudeDegrees>
            </Position>
            <DistanceMeters>1372.9470673277</DistanceMeters>
          </Trackpoint>
          <Trackpoint>
            <Time>2022-09-24T13:44:15.000Z</Time>
            <Position>
              <LatitudeDegrees>43.26892585493624210357666015625</LatitudeDegrees>
              <LongitudeDegrees>-2.94250373728573322296142578125</LongitudeDegrees>
            </Position>
            <DistanceMeters>1373.467550078</DistanceMeters>
          </Trackpoint>
          <Trackpoint>
            <Time>2022-09-24T13:44:16.000Z</Time>
            <Position>
              <LatitudeDegrees>43.26892401091754436492919921875</LatitudeDegrees>
              <LongitudeDegrees>-2.9425098560750484466552734375</LongitudeDegrees>
            </Position>
            <DistanceMeters>1374.005102351</DistanceMeters>
          </Trackpoint>
          <Trackpoint>
            <Time>2022-09-24T13:44:17.000Z</Time>
            <Position>
              <LatitudeDegrees>43.268922083079814910888671875</LatitudeDegrees>
              <LongitudeDegrees>-2.9425155557692050933837890625</LongitudeDegrees>
            </Position>
            <DistanceMeters>1374.5168368689</DistanceMeters>
          </Trackpoint>
          <Trackpoint>
            <Time>2022-09-24T13:44:18.000Z</Time>
            <Position>
              <LatitudeDegrees>43.2689199037849903106689453125</LatitudeDegrees>
              <LongitudeDegrees>-2.9425212554633617401123046875</LongitudeDegrees>
            </Position>
            <DistanceMeters>1375.0373196192</DistanceMeters>
          </Trackpoint>
          <Trackpoint>
            <Time>2022-09-24T13:44:19.000Z</Time>
            <Position>
              <LatitudeDegrees>43.2689178921282291412353515625</LatitudeDegrees>
              <LongitudeDegrees>-2.94252636842429637908935546875</LongitudeDegrees>
            </Position>
            <DistanceMeters>1375.5028535435</DistanceMeters>
          </Trackpoint>
          <Trackpoint>
            <Time>2022-09-24T13:44:20.000Z</Time>
            <Position>
              <LatitudeDegrees>43.268915712833404541015625</LatitudeDegrees>
              <LongitudeDegrees>-2.94253122992813587188720703125</LongitudeDegrees>
            </Position>
            <DistanceMeters>1375.9683874678</DistanceMeters>
          </Trackpoint>
          <Trackpoint>
            <Time>2022-09-24T13:44:21.000Z</Time>
            <Position>
              <LatitudeDegrees>43.26891370117664337158203125</LatitudeDegrees>
              <LongitudeDegrees>-2.942535839974880218505859375</LongitudeDegrees>
            </Position>
            <DistanceMeters>1376.4038545794</DistanceMeters>
          </Trackpoint>
          <Trackpoint>
            <Time>2022-09-24T13:44:22.000Z</Time>
            <Position>
              <LatitudeDegrees>43.26891160570085048675537109375</LatitudeDegrees>
              <LongitudeDegrees>-2.94254045002162456512451171875</LongitudeDegrees>
            </Position>
            <DistanceMeters>1376.839321691</DistanceMeters>
          </Trackpoint>
          <Trackpoint>
            <Time>2022-09-24T13:44:23.000Z</Time>
            <Position>
              <LatitudeDegrees>43.26890967786312103271484375</LatitudeDegrees>
              <LongitudeDegrees>-2.94254489243030548095703125</LongitudeDegrees>
            </Position>
            <DistanceMeters>1377.2535335359</DistanceMeters>
          </Trackpoint>
          <Trackpoint>
            <Time>2022-09-24T13:44:24.000Z</Time>
            <Position>
              <LatitudeDegrees>43.26890766620635986328125</LatitudeDegrees>
              <LongitudeDegrees>-2.94254950247704982757568359375</LongitudeDegrees>
            </Position>
            <DistanceMeters>1377.6890006476</DistanceMeters>
          </Trackpoint>
          <Trackpoint>
            <Time>2022-09-24T13:44:25.000Z</Time>
            <Position>
              <LatitudeDegrees>43.2689058221876621246337890625</LatitudeDegrees>
              <LongitudeDegrees>-2.94255386106669902801513671875</LongitudeDegrees>
            </Position>
            <DistanceMeters>1378.1032124924</DistanceMeters>
          </Trackpoint>
          <Trackpoint>
            <Time>2022-09-24T13:44:26.000Z</Time>
            <Position>
              <LatitudeDegrees>43.2689041458070278167724609375</LatitudeDegrees>
              <LongitudeDegrees>-2.942558638751506805419921875</LongitudeDegrees>
            </Position>
            <DistanceMeters>1378.5281848785</DistanceMeters>
          </Trackpoint>
          <Trackpoint>
            <Time>2022-09-24T13:44:27.000Z</Time>
            <Position>
              <LatitudeDegrees>43.2689024694263935089111328125</LatitudeDegrees>
              <LongitudeDegrees>-2.94256358407437801361083984375</LongitudeDegrees>
            </Position>
            <DistanceMeters>1378.9738996771</DistanceMeters>
          </Trackpoint>
          <Trackpoint>
            <Time>2022-09-24T13:44:28.000Z</Time>
            <Position>
              <LatitudeDegrees>43.26890087686479091644287109375</LatitudeDegrees>
              <LongitudeDegrees>-2.94256844557821750640869140625</LongitudeDegrees>
            </Position>
            <DistanceMeters>1379.3988720632</DistanceMeters>
          </Trackpoint>
          <Trackpoint>
            <Time>2022-09-24T13:44:29.000Z</Time>
            <Position>
              <LatitudeDegrees>43.268899284303188323974609375</LatitudeDegrees>
              <LongitudeDegrees>-2.94257313944399356842041015625</LongitudeDegrees>
            </Position>
            <DistanceMeters>1379.8238444492</DistanceMeters>
          </Trackpoint>
          <Trackpoint>
            <Time>2022-09-24T13:44:30.000Z</Time>
            <Position>
              <LatitudeDegrees>43.26889760792255401611328125</LatitudeDegrees>
              <LongitudeDegrees>-2.942578084766864776611328125</LongitudeDegrees>
            </Position>
            <DistanceMeters>1380.2593115608</DistanceMeters>
          </Trackpoint>
          <Trackpoint>
            <Time>2022-09-24T13:44:31.000Z</Time>
            <Position>
              <LatitudeDegrees>43.26889584772288799285888671875</LatitudeDegrees>
              <LongitudeDegrees>-2.9425829462707042694091796875</LongitudeDegrees>
            </Position>
            <DistanceMeters>1380.6842839468</DistanceMeters>
          </Trackpoint>
          <Trackpoint>
            <Time>2022-09-24T13:44:32.000Z</Time>
            <Position>
              <LatitudeDegrees>43.26889366842806339263916015625</LatitudeDegrees>
              <LongitudeDegrees>-2.9425879754126071929931640625</LongitudeDegrees>
            </Position>
            <DistanceMeters>1381.1688270177</DistanceMeters>
          </Trackpoint>
          <Trackpoint>
            <Time>2022-09-24T13:44:33.000Z</Time>
            <Position>
              <LatitudeDegrees>43.26889148913323879241943359375</LatitudeDegrees>
              <LongitudeDegrees>-2.9425933398306369781494140625</LongitudeDegrees>
            </Position>
            <DistanceMeters>1381.671661126</DistanceMeters>
          </Trackpoint>
          <Trackpoint>
            <Time>2022-09-24T13:44:34.000Z</Time>
            <Position>
              <LatitudeDegrees>43.2688900642096996307373046875</LatitudeDegrees>
              <LongitudeDegrees>-2.94259828515350818634033203125</LongitudeDegrees>
            </Position>
            <DistanceMeters>1382.1173759247</DistanceMeters>
          </Trackpoint>
          <Trackpoint>
            <Time>2022-09-24T13:44:35.000Z</Time>
            <Position>
              <LatitudeDegrees>43.268889226019382476806640625</LatitudeDegrees>
              <LongitudeDegrees>-2.94260255992412567138671875</LongitudeDegrees>
            </Position>
            <DistanceMeters>1382.4729333324</DistanceMeters>
          </Trackpoint>
          <Trackpoint>
            <Time>2022-09-24T13:44:36.000Z</Time>
            <Position>
              <LatitudeDegrees>43.2688875496387481689453125</LatitudeDegrees>
              <LongitudeDegrees>-2.9426074214279651641845703125</LongitudeDegrees>
            </Position>
            <DistanceMeters>1382.8979057185</DistanceMeters>
          </Trackpoint>
          <Trackpoint>
            <Time>2022-09-24T13:44:37.000Z</Time>
            <Position>
              <LatitudeDegrees>43.2688850350677967071533203125</LatitudeDegrees>
              <LongitudeDegrees>-2.94261219911277294158935546875</LongitudeDegrees>
            </Position>
            <DistanceMeters>1383.3730392903</DistanceMeters>
          </Trackpoint>
          <Trackpoint>
            <Time>2022-09-24T13:44:38.000Z</Time>
            <Position>
              <LatitudeDegrees>43.2688823528587818145751953125</LatitudeDegrees>
              <LongitudeDegrees>-2.94261773116886615753173828125</LongitudeDegrees>
            </Position>
            <DistanceMeters>1383.9105915633</DistanceMeters>
          </Trackpoint>
          <Trackpoint>
            <Time>2022-09-24T13:44:39.000Z</Time>
            <Position>
              <LatitudeDegrees>43.26887941919267177581787109375</LatitudeDegrees>
              <LongitudeDegrees>-2.9426228441298007965087890625</LongitudeDegrees>
            </Position>
            <DistanceMeters>1384.4396779171</DistanceMeters>
          </Trackpoint>
          <Trackpoint>
            <Time>2022-09-24T13:44:40.000Z</Time>
            <Position>
              <LatitudeDegrees>43.26887615025043487548828125</LatitudeDegrees>
              <LongitudeDegrees>-2.94262829236686229705810546875</LongitudeDegrees>
            </Position>
            <DistanceMeters>1385.0177028546</DistanceMeters>
          </Trackpoint>
          <Trackpoint>
            <Time>2022-09-24T13:44:41.000Z</Time>
            <Position>
              <LatitudeDegrees>43.26887522824108600616455078125</LatitudeDegrees>
              <LongitudeDegrees>-2.94263248331844806671142578125</LongitudeDegrees>
            </Position>
            <DistanceMeters>1385.3732602624</DistanceMeters>
          </Trackpoint>
          <Trackpoint>
            <Time>2022-09-24T13:44:42.000Z</Time>
            <Position>
              <LatitudeDegrees>43.26887472532689571380615234375</LatitudeDegrees>
              <LongitudeDegrees>-2.9426365904510021209716796875</LongitudeDegrees>
            </Position>
            <DistanceMeters>1385.7024424571</DistanceMeters>
          </Trackpoint>
          <Trackpoint>
            <Time>2022-09-24T13:44:43.000Z</Time>
            <Position>
              <LatitudeDegrees>43.2688741385936737060546875</LatitudeDegrees>
              <LongitudeDegrees>-2.94264052994549274444580078125</LongitudeDegrees>
            </Position>
            <DistanceMeters>1386.0176104138</DistanceMeters>
          </Trackpoint>
          <Trackpoint>
            <Time>2022-09-24T13:44:44.000Z</Time>
            <Position>
              <LatitudeDegrees>43.26887371949851512908935546875</LatitudeDegrees>
              <LongitudeDegrees>-2.9426448047161102294921875</LongitudeDegrees>
            </Position>
            <DistanceMeters>1386.3467926085</DistanceMeters>
          </Trackpoint>
          <Trackpoint>
            <Time>2022-09-24T13:44:45.000Z</Time>
            <Position>
              <LatitudeDegrees>43.26887371949851512908935546875</LatitudeDegrees>
              <LongitudeDegrees>-2.94264891184866428375244140625</LongitudeDegrees>
            </Position>
            <DistanceMeters>1386.6619605651</DistanceMeters>
          </Trackpoint>
          <Trackpoint>
            <Time>2022-09-24T13:44:46.000Z</Time>
            <Position>
              <LatitudeDegrees>43.268874473869800567626953125</LatitudeDegrees>
              <LongitudeDegrees>-2.942652516067028045654296875</LongitudeDegrees>
            </Position>
            <DistanceMeters>1386.9624614211</DistanceMeters>
          </Trackpoint>
          <Trackpoint>
            <Time>2022-09-24T13:44:47.000Z</Time>
            <Position>
              <LatitudeDegrees>43.26887547969818115234375</LatitudeDegrees>
              <LongitudeDegrees>-2.94265628792345523834228515625</LongitudeDegrees>
            </Position>
            <DistanceMeters>1387.2916436158</DistanceMeters>
          </Trackpoint>
          <Trackpoint>
            <Time>2022-09-24T13:44:48.000Z</Time>
            <Position>
              <LatitudeDegrees>43.26887589879333972930908203125</LatitudeDegrees>
              <LongitudeDegrees>-2.942660562694072723388671875</LongitudeDegrees>
            </Position>
            <DistanceMeters>1387.6208258105</DistanceMeters>
          </Trackpoint>
          <Trackpoint>
            <Time>2022-09-24T13:44:49.000Z</Time>
            <Position>
              <LatitudeDegrees>43.2688763178884983062744140625</LatitudeDegrees>
              <LongitudeDegrees>-2.94266433455049991607666015625</LongitudeDegrees>
            </Position>
            <DistanceMeters>1387.9500080053</DistanceMeters>
          </Trackpoint>
          <Trackpoint>
            <Time>2022-09-24T13:44:50.000Z</Time>
            <Position>
              <LatitudeDegrees>43.2688763178884983062744140625</LatitudeDegrees>
              <LongitudeDegrees>-2.94266802258789539337158203125</LongitudeDegrees>
            </Position>
            <DistanceMeters>1388.2505088612</DistanceMeters>
          </Trackpoint>
          <Trackpoint>
            <Time>2022-09-24T13:44:51.000Z</Time>
            <Position>
              <LatitudeDegrees>43.2688759826123714447021484375</LatitudeDegrees>
              <LongitudeDegrees>-2.94267271645367145538330078125</LongitudeDegrees>
            </Position>
            <DistanceMeters>1388.6306157187</DistanceMeters>
          </Trackpoint>
          <Trackpoint>
            <Time>2022-09-24T13:44:52.000Z</Time>
            <Position>
              <LatitudeDegrees>43.26887573115527629852294921875</LatitudeDegrees>
              <LongitudeDegrees>-2.94267757795751094818115234375</LongitudeDegrees>
            </Position>
            <DistanceMeters>1389.0107225762</DistanceMeters>
          </Trackpoint>
          <Trackpoint>
            <Time>2022-09-24T13:44:53.000Z</Time>
            <Position>
              <LatitudeDegrees>43.2688756473362445831298828125</LatitudeDegrees>
              <LongitudeDegrees>-2.9426823556423187255859375</LongitudeDegrees>
            </Position>
            <DistanceMeters>1389.3908294337</DistanceMeters>
          </Trackpoint>
          <Trackpoint>
            <Time>2022-09-24T13:44:54.000Z</Time>
            <Position>
              <LatitudeDegrees>43.26887556351721286773681640625</LatitudeDegrees>
              <LongitudeDegrees>-2.94268713332712650299072265625</LongitudeDegrees>
            </Position>
            <DistanceMeters>1389.7709362912</DistanceMeters>
          </Trackpoint>
          <Trackpoint>
            <Time>2022-09-24T13:44:55.000Z</Time>
            <Position>
              <LatitudeDegrees>43.26887522824108600616455078125</LatitudeDegrees>
              <LongitudeDegrees>-2.94269216246902942657470703125</LongitudeDegrees>
            </Position>
            <DistanceMeters>1390.185148136</DistanceMeters>
          </Trackpoint>
          <Trackpoint>
            <Time>2022-09-24T13:44:56.000Z</Time>
            <Position>
              <LatitudeDegrees>43.26887480914592742919921875</LatitudeDegrees>
              <LongitudeDegrees>-2.94269702397286891937255859375</LongitudeDegrees>
            </Position>
            <DistanceMeters>1390.5883123408</DistanceMeters>
          </Trackpoint>
          <Trackpoint>
            <Time>2022-09-24T13:44:57.000Z</Time>
            <Position>
              <LatitudeDegrees>43.2688746415078639984130859375</LatitudeDegrees>
              <LongitudeDegrees>-2.94270180165767669677734375</LongitudeDegrees>
            </Position>
            <DistanceMeters>1390.9684191983</DistanceMeters>
          </Trackpoint>
          <Trackpoint>
            <Time>2022-09-24T13:44:58.000Z</Time>
            <Position>
              <LatitudeDegrees>43.2688743062317371368408203125</LatitudeDegrees>
              <LongitudeDegrees>-2.94270641170442104339599609375</LongitudeDegrees>
            </Position>
            <DistanceMeters>1391.3485260558</DistanceMeters>
          </Trackpoint>
          <Trackpoint>
            <Time>2022-09-24T13:44:59.000Z</Time>
            <Position>
              <LatitudeDegrees>43.26887422241270542144775390625</LatitudeDegrees>
              <LongitudeDegrees>-2.94271110557019710540771484375</LongitudeDegrees>
            </Position>
            <DistanceMeters>1391.7286329132</DistanceMeters>
          </Trackpoint>
          <Trackpoint>
            <Time>2022-09-24T13:45:00.000Z</Time>
            <Position>
              <LatitudeDegrees>43.26887405477464199066162109375</LatitudeDegrees>
              <LongitudeDegrees>-2.94271596707403659820556640625</LongitudeDegrees>
            </Position>
            <DistanceMeters>1392.131797118</DistanceMeters>
          </Trackpoint>
          <Trackpoint>
            <Time>2022-09-24T13:45:01.000Z</Time>
            <Position>
              <LatitudeDegrees>43.2688739709556102752685546875</LatitudeDegrees>
              <LongitudeDegrees>-2.94272133149206638336181640625</LongitudeDegrees>
            </Position>
            <DistanceMeters>1392.5775119167</DistanceMeters>
          </Trackpoint>
          <Trackpoint>
            <Time>2022-09-24T13:45:02.000Z</Time>
            <Position>
              <LatitudeDegrees>43.2688739709556102752685546875</LatitudeDegrees>
              <LongitudeDegrees>-2.9427267797291278839111328125</LongitudeDegrees>
            </Position>
            <DistanceMeters>1393.0232267154</DistanceMeters>
          </Trackpoint>
          <Trackpoint>
            <Time>2022-09-24T13:45:03.000Z</Time>
            <Position>
              <LatitudeDegrees>43.26887371949851512908935546875</LatitudeDegrees>
              <LongitudeDegrees>-2.9427324794232845306396484375</LongitudeDegrees>
            </Position>
            <DistanceMeters>1393.4887606396</DistanceMeters>
          </Trackpoint>
          <Trackpoint>
            <Time>2022-09-24T13:45:04.000Z</Time>
            <Position>
              <LatitudeDegrees>43.2688733004033565521240234375</LatitudeDegrees>
              <LongitudeDegrees>-2.94273809529840946197509765625</LongitudeDegrees>
            </Position>
            <DistanceMeters>1393.9344754383</DistanceMeters>
          </Trackpoint>
          <Trackpoint>
            <Time>2022-09-24T13:45:05.000Z</Time>
            <Position>
              <LatitudeDegrees>43.26887271367013454437255859375</LatitudeDegrees>
              <LongitudeDegrees>-2.94274396263062953948974609375</LongitudeDegrees>
            </Position>
            <DistanceMeters>1394.4000093626</DistanceMeters>
          </Trackpoint>
          <Trackpoint>
            <Time>2022-09-24T13:45:06.000Z</Time>
            <Position>
              <LatitudeDegrees>43.2688719592988491058349609375</LatitudeDegrees>
              <LongitudeDegrees>-2.942749746143817901611328125</LongitudeDegrees>
            </Position>
            <DistanceMeters>1394.8751429344</DistanceMeters>
          </Trackpoint>
          <Trackpoint>
            <Time>2022-09-24T13:45:07.000Z</Time>
            <Position>
              <LatitudeDegrees>43.26887103728950023651123046875</LatitudeDegrees>
              <LongitudeDegrees>-2.94275552965700626373291015625</LongitudeDegrees>
            </Position>
            <DistanceMeters>1395.3502765063</DistanceMeters>
          </Trackpoint>
          <Trackpoint>
            <Time>2022-09-24T13:45:08.000Z</Time>
            <Position>
              <LatitudeDegrees>43.26887019909918308258056640625</LatitudeDegrees>
              <LongitudeDegrees>-2.94276106171309947967529296875</LongitudeDegrees>
            </Position>
            <DistanceMeters>1395.8158104306</DistanceMeters>
          </Trackpoint>
          <Trackpoint>
            <Time>2022-09-24T13:45:09.000Z</Time>
            <Position>
              <LatitudeDegrees>43.26886944472789764404296875</LatitudeDegrees>
              <LongitudeDegrees>-2.94276659376919269561767578125</LongitudeDegrees>
            </Position>
            <DistanceMeters>1396.2813443549</DistanceMeters>
          </Trackpoint>
          <Trackpoint>
            <Time>2022-09-24T13:45:10.000Z</Time>
            <Position>
              <LatitudeDegrees>43.26886885799467563629150390625</LatitudeDegrees>
              <LongitudeDegrees>-2.94277212582528591156005859375</LongitudeDegrees>
            </Position>
            <DistanceMeters>1396.7270591535</DistanceMeters>
          </Trackpoint>
          <Trackpoint>
            <Time>2022-09-24T13:45:11.000Z</Time>
            <Position>
              <LatitudeDegrees>43.26886818744242191314697265625</LatitudeDegrees>
              <LongitudeDegrees>-2.94277749024331569671630859375</LongitudeDegrees>
            </Position>
            <DistanceMeters>1397.1727739522</DistanceMeters>
          </Trackpoint>
          <Trackpoint>
            <Time>2022-09-24T13:45:12.000Z</Time>
            <Position>
              <LatitudeDegrees>43.26886734925210475921630859375</LatitudeDegrees>
              <LongitudeDegrees>-2.942782938480377197265625</LongitudeDegrees>
            </Position>
            <DistanceMeters>1397.6184887509</DistanceMeters>
          </Trackpoint>
          <Trackpoint>
            <Time>2022-09-24T13:45:13.000Z</Time>
            <Position>
              <LatitudeDegrees>43.26886634342372417449951171875</LatitudeDegrees>
              <LongitudeDegrees>-2.942788638174533843994140625</LongitudeDegrees>
            </Position>
            <DistanceMeters>1398.1030318218</DistanceMeters>
          </Trackpoint>
          <Trackpoint>
            <Time>2022-09-24T13:45:14.000Z</Time>
            <Position>
              <LatitudeDegrees>43.268865086138248443603515625</LatitudeDegrees>
              <LongitudeDegrees>-2.94279408641159534454345703125</LongitudeDegrees>
            </Position>
            <DistanceMeters>1398.5685657461</DistanceMeters>
          </Trackpoint>
          <Trackpoint>
            <Time>2022-09-24T13:45:15.000Z</Time>
            <Position>
              <LatitudeDegrees>43.26886366121470928192138671875</LatitudeDegrees>
              <LongitudeDegrees>-2.94279961846768856048583984375</LongitudeDegrees>
            </Position>
            <DistanceMeters>1399.0340996704</DistanceMeters>
          </Trackpoint>
          <Trackpoint>
            <Time>2022-09-24T13:45:16.000Z</Time>
            <Position>
              <LatitudeDegrees>43.26886215247213840484619140625</LatitudeDegrees>
              <LongitudeDegrees>-2.9428048990666866302490234375</LongitudeDegrees>
            </Position>
            <DistanceMeters>1399.4898317827</DistanceMeters>
          </Trackpoint>
          <Trackpoint>
            <Time>2022-09-24T13:45:17.000Z</Time>
            <Position>
              <LatitudeDegrees>43.26886064372956752777099609375</LatitudeDegrees>
              <LongitudeDegrees>-2.942810095846652984619140625</LongitudeDegrees>
            </Position>
            <DistanceMeters>1399.955365707</DistanceMeters>
          </Trackpoint>
          <Trackpoint>
            <Time>2022-09-24T13:45:18.000Z</Time>
            <Position>
              <LatitudeDegrees>43.26885913498699665069580078125</LatitudeDegrees>
              <LongitudeDegrees>-2.94281554408371448516845703125</LongitudeDegrees>
            </Position>
            <DistanceMeters>1400.4399087779</DistanceMeters>
          </Trackpoint>
          <Trackpoint>
            <Time>2022-09-24T13:45:19.000Z</Time>
            <Position>
              <LatitudeDegrees>43.26885762624442577362060546875</LatitudeDegrees>
              <LongitudeDegrees>-2.94282090850174427032470703125</LongitudeDegrees>
            </Position>
            <DistanceMeters>1400.8856235765</DistanceMeters>
          </Trackpoint>
          <Trackpoint>
            <Time>2022-09-24T13:45:20.000Z</Time>
            <Position>
              <LatitudeDegrees>43.2688558660447597503662109375</LatitudeDegrees>
              <LongitudeDegrees>-2.94282652437686920166015625</LongitudeDegrees>
            </Position>
            <DistanceMeters>1401.3793968686</DistanceMeters>
          </Trackpoint>
          <Trackpoint>
            <Time>2022-09-24T13:45:21.000Z</Time>
            <Position>
              <LatitudeDegrees>43.2688541896641254425048828125</LatitudeDegrees>
              <LongitudeDegrees>-2.9428320564329624176025390625</LongitudeDegrees>
            </Position>
            <DistanceMeters>1401.8639399395</DistanceMeters>
          </Trackpoint>
          <Trackpoint>
            <Time>2022-09-24T13:45:22.000Z</Time>
            <Position>
              <LatitudeDegrees>43.2688521780073642730712890625</LatitudeDegrees>
              <LongitudeDegrees>-2.9428379237651824951171875</LongitudeDegrees>
            </Position>
            <DistanceMeters>1402.3844226898</DistanceMeters>
          </Trackpoint>
          <Trackpoint>
            <Time>2022-09-24T13:45:23.000Z</Time>
            <Position>
              <LatitudeDegrees>43.26885025016963481903076171875</LatitudeDegrees>
              <LongitudeDegrees>-2.9428437910974025726318359375</LongitudeDegrees>
            </Position>
            <DistanceMeters>1402.8961572077</DistanceMeters>
          </Trackpoint>
          <Trackpoint>
            <Time>2022-09-24T13:45:24.000Z</Time>
            <Position>
              <LatitudeDegrees>43.26884823851287364959716796875</LatitudeDegrees>
              <LongitudeDegrees>-2.942849658429622650146484375</LongitudeDegrees>
            </Position>
            <DistanceMeters>1403.416639958</DistanceMeters>
          </Trackpoint>
          <Trackpoint>
            <Time>2022-09-24T13:45:25.000Z</Time>
            <Position>
              <LatitudeDegrees>43.26884622685611248016357421875</LatitudeDegrees>
              <LongitudeDegrees>-2.94285560958087444305419921875</LongitudeDegrees>
            </Position>
            <DistanceMeters>1403.954192231</DistanceMeters>
          </Trackpoint>
          <Trackpoint>
            <Time>2022-09-24T13:45:26.000Z</Time>
            <Position>
              <LatitudeDegrees>43.268844299018383026123046875</LatitudeDegrees>
              <LongitudeDegrees>-2.94286139309406280517578125</LongitudeDegrees>
            </Position>
            <DistanceMeters>1404.465926749</DistanceMeters>
          </Trackpoint>
          <Trackpoint>
            <Time>2022-09-24T13:45:27.000Z</Time>
            <Position>
              <LatitudeDegrees>43.26884237118065357208251953125</LatitudeDegrees>
              <LongitudeDegrees>-2.94286717660725116729736328125</LongitudeDegrees>
            </Position>
            <DistanceMeters>1404.9776612669</DistanceMeters>
          </Trackpoint>
          <Trackpoint>
            <Time>2022-09-24T13:45:28.000Z</Time>
            <Position>
              <LatitudeDegrees>43.26884035952389240264892578125</LatitudeDegrees>
              <LongitudeDegrees>-2.94287321157753467559814453125</LongitudeDegrees>
            </Position>
            <DistanceMeters>1405.5235481807</DistanceMeters>
          </Trackpoint>
          <Trackpoint>
            <Time>2022-09-24T13:45:29.000Z</Time>
            <Position>
              <LatitudeDegrees>43.2688384316861629486083984375</LatitudeDegrees>
              <LongitudeDegrees>-2.942879498004913330078125</LongitudeDegrees>
            </Position>
            <DistanceMeters>1406.0776443809</DistanceMeters>
          </Trackpoint>
          <Trackpoint>
            <Time>2022-09-24T13:45:30.000Z</Time>
            <Position>
              <LatitudeDegrees>43.26883650384843349456787109375</LatitudeDegrees>
              <LongitudeDegrees>-2.94288578443229198455810546875</LongitudeDegrees>
            </Position>
            <DistanceMeters>1406.6235312947</DistanceMeters>
          </Trackpoint>
          <Trackpoint>
            <Time>2022-09-24T13:45:31.000Z</Time>
            <Position>
              <LatitudeDegrees>43.26883449219167232513427734375</LatitudeDegrees>
              <LongitudeDegrees>-2.942891903221607208251953125</LongitudeDegrees>
            </Position>
            <DistanceMeters>1407.1610835677</DistanceMeters>
          </Trackpoint>
          <Trackpoint>
            <Time>2022-09-24T13:45:32.000Z</Time>
            <Position>
              <LatitudeDegrees>43.26883214525878429412841796875</LatitudeDegrees>
              <LongitudeDegrees>-2.94289718382060527801513671875</LongitudeDegrees>
            </Position>
            <DistanceMeters>1407.663917676</DistanceMeters>
          </Trackpoint>
          <Trackpoint>
            <Time>2022-09-24T13:45:33.000Z</Time>
            <Position>
              <LatitudeDegrees>43.2688297145068645477294921875</LatitudeDegrees>
              <LongitudeDegrees>-2.94290221296250820159912109375</LongitudeDegrees>
            </Position>
            <DistanceMeters>1408.1667517842</DistanceMeters>
          </Trackpoint>
          <Trackpoint>
            <Time>2022-09-24T13:45:34.000Z</Time>
            <Position>
              <LatitudeDegrees>43.26882745139300823211669921875</LatitudeDegrees>
              <LongitudeDegrees>-2.9429071582853794097900390625</LongitudeDegrees>
            </Position>
            <DistanceMeters>1408.6512948551</DistanceMeters>
          </Trackpoint>
          <Trackpoint>
            <Time>2022-09-24T13:45:35.000Z</Time>
            <Position>
              <LatitudeDegrees>43.26882510446012020111083984375</LatitudeDegrees>
              <LongitudeDegrees>-2.94291210360825061798095703125</LongitudeDegrees>
            </Position>
            <DistanceMeters>1409.126428427</DistanceMeters>
          </Trackpoint>
          <Trackpoint>
            <Time>2022-09-24T13:45:36.000Z</Time>
            <Position>
              <LatitudeDegrees>43.26882309280335903167724609375</LatitudeDegrees>
              <LongitudeDegrees>-2.94291662983596324920654296875</LongitudeDegrees>
            </Position>
            <DistanceMeters>1409.551400813</DistanceMeters>
          </Trackpoint>
          <Trackpoint>
            <Time>2022-09-24T13:45:37.000Z</Time>
            <Position>
              <LatitudeDegrees>43.26882116496562957763671875</LatitudeDegrees>
              <LongitudeDegrees>-2.942921407520771026611328125</LongitudeDegrees>
            </Position>
            <DistanceMeters>1409.976373199</DistanceMeters>
          </Trackpoint>
          <Trackpoint>
            <Time>2022-09-24T13:45:38.000Z</Time>
            <Position>
              <LatitudeDegrees>43.26881923712790012359619140625</LatitudeDegrees>
              <LongitudeDegrees>-2.9429262690246105194091796875</LongitudeDegrees>
            </Position>
            <DistanceMeters>1410.4220879977</DistanceMeters>
          </Trackpoint>
          <Trackpoint>
            <Time>2022-09-24T13:45:39.000Z</Time>
            <Position>
              <LatitudeDegrees>43.26881739310920238494873046875</LatitudeDegrees>
              <LongitudeDegrees>-2.94293154962360858917236328125</LongitudeDegrees>
            </Position>
            <DistanceMeters>1410.9066310686</DistanceMeters>
          </Trackpoint>
          <Trackpoint>
            <Time>2022-09-24T13:45:40.000Z</Time>
            <Position>
              <LatitudeDegrees>43.2688156329095363616943359375</LatitudeDegrees>
              <LongitudeDegrees>-2.9429366625845432281494140625</LongitudeDegrees>
            </Position>
            <DistanceMeters>1411.3721649929</DistanceMeters>
          </Trackpoint>
          <Trackpoint>
            <Time>2022-09-24T13:45:41.000Z</Time>
            <Position>
              <LatitudeDegrees>43.26881370507180690765380859375</LatitudeDegrees>
              <LongitudeDegrees>-2.942941524088382720947265625</LongitudeDegrees>
            </Position>
            <DistanceMeters>1411.8178797916</DistanceMeters>
          </Trackpoint>
          <Trackpoint>
            <Time>2022-09-24T13:45:42.000Z</Time>
            <Position>
              <LatitudeDegrees>43.26881186105310916900634765625</LatitudeDegrees>
              <LongitudeDegrees>-2.9429460503160953521728515625</LongitudeDegrees>
            </Position>
            <DistanceMeters>1412.2320916364</DistanceMeters>
          </Trackpoint>
          <Trackpoint>
            <Time>2022-09-24T13:45:43.000Z</Time>
            <Position>
              <LatitudeDegrees>43.268810100853443145751953125</LatitudeDegrees>
              <LongitudeDegrees>-2.9429507441818714141845703125</LongitudeDegrees>
            </Position>
            <DistanceMeters>1412.6570640225</DistanceMeters>
          </Trackpoint>
          <Trackpoint>
            <Time>2022-09-24T13:45:44.000Z</Time>
            <Position>
              <LatitudeDegrees>43.26880867592990398406982421875</LatitudeDegrees>
              <LongitudeDegrees>-2.94295535422861576080322265625</LongitudeDegrees>
            </Position>
            <DistanceMeters>1413.0602282272</DistanceMeters>
          </Trackpoint>
          <Trackpoint>
            <Time>2022-09-24T13:45:45.000Z</Time>
            <Position>
              <LatitudeDegrees>43.26880750246345996856689453125</LatitudeDegrees>
              <LongitudeDegrees>-2.94296038337051868438720703125</LongitudeDegrees>
            </Position>
            <DistanceMeters>1413.4956953388</DistanceMeters>
          </Trackpoint>
          <Trackpoint>
            <Time>2022-09-24T13:45:46.000Z</Time>
            <Position>
              <LatitudeDegrees>43.26880649663507938385009765625</LatitudeDegrees>
              <LongitudeDegrees>-2.94296524487435817718505859375</LongitudeDegrees>
            </Position>
            <DistanceMeters>1413.8988595436</DistanceMeters>
          </Trackpoint>
          <Trackpoint>
            <Time>2022-09-24T13:45:47.000Z</Time>
            <Position>
              <LatitudeDegrees>43.2688055746257305145263671875</LatitudeDegrees>
              <LongitudeDegrees>-2.94297010637819766998291015625</LongitudeDegrees>
            </Position>
            <DistanceMeters>1414.3020237483</DistanceMeters>
          </Trackpoint>
          <Trackpoint>
            <Time>2022-09-24T13:45:48.000Z</Time>
            <Position>
              <LatitudeDegrees>43.268804736435413360595703125</LatitudeDegrees>
              <LongitudeDegrees>-2.94297463260591030120849609375</LongitudeDegrees>
            </Position>
            <DistanceMeters>1414.6821306058</DistanceMeters>
          </Trackpoint>
          <Trackpoint>
            <Time>2022-09-24T13:45:49.000Z</Time>
            <Position>
              <LatitudeDegrees>43.2688038982450962066650390625</LatitudeDegrees>
              <LongitudeDegrees>-2.94297932647168636322021484375</LongitudeDegrees>
            </Position>
            <DistanceMeters>1415.0739357864</DistanceMeters>
          </Trackpoint>
          <Trackpoint>
            <Time>2022-09-24T13:45:50.000Z</Time>
            <Position>
              <LatitudeDegrees>43.26880314387381076812744140625</LatitudeDegrees>
              <LongitudeDegrees>-2.942983768880367279052734375</LongitudeDegrees>
            </Position>
            <DistanceMeters>1415.4540426439</DistanceMeters>
          </Trackpoint>
          <Trackpoint>
            <Time>2022-09-24T13:45:51.000Z</Time>
            <Position>
              <LatitudeDegrees>43.26880238950252532958984375</LatitudeDegrees>
              <LongitudeDegrees>-2.942988462746143341064453125</LongitudeDegrees>
            </Position>
            <DistanceMeters>1415.8458478245</DistanceMeters>
          </Trackpoint>
          <Trackpoint>
            <Time>2022-09-24T13:45:52.000Z</Time>
            <Position>
              <LatitudeDegrees>43.26880163513123989105224609375</LatitudeDegrees>
              <LongitudeDegrees>-2.94299307279288768768310546875</LongitudeDegrees>
            </Position>
            <DistanceMeters>1416.225954682</DistanceMeters>
          </Trackpoint>
          <Trackpoint>
            <Time>2022-09-24T13:45:53.000Z</Time>
            <Position>
              <LatitudeDegrees>43.2688008807599544525146484375</LatitudeDegrees>
              <LongitudeDegrees>-2.94299793429672718048095703125</LongitudeDegrees>
            </Position>
            <DistanceMeters>1416.6177598626</DistanceMeters>
          </Trackpoint>
          <Trackpoint>
            <Time>2022-09-24T13:45:54.000Z</Time>
            <Position>
              <LatitudeDegrees>43.26880029402673244476318359375</LatitudeDegrees>
              <LongitudeDegrees>-2.943002544343471527099609375</LongitudeDegrees>
            </Position>
            <DistanceMeters>1416.9978667201</DistanceMeters>
          </Trackpoint>
          <Trackpoint>
            <Time>2022-09-24T13:45:55.000Z</Time>
            <Position>
              <LatitudeDegrees>43.26879995875060558319091796875</LatitudeDegrees>
              <LongitudeDegrees>-2.94300732202827930450439453125</LongitudeDegrees>
            </Position>
            <DistanceMeters>1417.3779735776</DistanceMeters>
          </Trackpoint>
          <Trackpoint>
            <Time>2022-09-24T13:45:56.000Z</Time>
            <Position>
              <LatitudeDegrees>43.26879970729351043701171875</LatitudeDegrees>
              <LongitudeDegrees>-2.94301218353211879730224609375</LongitudeDegrees>
            </Position>
            <DistanceMeters>1417.7697787582</DistanceMeters>
          </Trackpoint>
          <Trackpoint>
            <Time>2022-09-24T13:45:57.000Z</Time>
            <Position>
              <LatitudeDegrees>43.26879970729351043701171875</LatitudeDegrees>
              <LongitudeDegrees>-2.94301738031208515167236328125</LongitudeDegrees>
            </Position>
            <DistanceMeters>1418.183990603</DistanceMeters>
          </Trackpoint>
          <Trackpoint>
            <Time>2022-09-24T13:45:58.000Z</Time>
            <Position>
              <LatitudeDegrees>43.26879945583641529083251953125</LatitudeDegrees>
              <LongitudeDegrees>-2.94302274473011493682861328125</LongitudeDegrees>
            </Position>
            <DistanceMeters>1418.6089629891</DistanceMeters>
          </Trackpoint>
          <Trackpoint>
            <Time>2022-09-24T13:45:59.000Z</Time>
            <Position>
              <LatitudeDegrees>43.2687992043793201446533203125</LatitudeDegrees>
              <LongitudeDegrees>-2.9430278576910495758056640625</LongitudeDegrees>
            </Position>
            <DistanceMeters>1419.0121271938</DistanceMeters>
          </Trackpoint>
          <Trackpoint>
            <Time>2022-09-24T13:46:00.000Z</Time>
            <Position>
              <LatitudeDegrees>43.2687988691031932830810546875</LatitudeDegrees>
              <LongitudeDegrees>-2.94303305447101593017578125</LongitudeDegrees>
            </Position>
            <DistanceMeters>1419.4370995798</DistanceMeters>
          </Trackpoint>
          <Trackpoint>
            <Time>2022-09-24T13:46:01.000Z</Time>
            <Position>
              <LatitudeDegrees>43.26879861764609813690185546875</LatitudeDegrees>
              <LongitudeDegrees>-2.943038083612918853759765625</LongitudeDegrees>
            </Position>
            <DistanceMeters>1419.8513114247</DistanceMeters>
          </Trackpoint>
          <Trackpoint>
            <Time>2022-09-24T13:46:02.000Z</Time>
            <Position>
              <LatitudeDegrees>43.26879828236997127532958984375</LatitudeDegrees>
              <LongitudeDegrees>-2.94304336421191692352294921875</LongitudeDegrees>
            </Position>
            <DistanceMeters>1420.2762838107</DistanceMeters>
          </Trackpoint>
          <Trackpoint>
            <Time>2022-09-24T13:46:03.000Z</Time>
            <Position>
              <LatitudeDegrees>43.2687978632748126983642578125</LatitudeDegrees>
              <LongitudeDegrees>-2.9430484771728515625</LongitudeDegrees>
            </Position>
            <DistanceMeters>1420.6904956556</DistanceMeters>
          </Trackpoint>
          <Trackpoint>
            <Time>2022-09-24T13:46:04.000Z</Time>
            <Position>
              <LatitudeDegrees>43.26879710890352725982666015625</LatitudeDegrees>
              <LongitudeDegrees>-2.94305392540991306304931640625</LongitudeDegrees>
            </Position>
            <DistanceMeters>1421.1362104543</DistanceMeters>
          </Trackpoint>
          <Trackpoint>
            <Time>2022-09-24T13:46:05.000Z</Time>
            <Position>
              <LatitudeDegrees>43.2687963545322418212890625</LatitudeDegrees>
              <LongitudeDegrees>-2.94305928982794284820556640625</LongitudeDegrees>
            </Position>
            <DistanceMeters>1421.581925253</DistanceMeters>
          </Trackpoint>
          <Trackpoint>
            <Time>2022-09-24T13:46:06.000Z</Time>
            <Position>
              <LatitudeDegrees>43.2687955163419246673583984375</LatitudeDegrees>
              <LongitudeDegrees>-2.94306482188403606414794921875</LongitudeDegrees>
            </Position>
            <DistanceMeters>1422.0376573653</DistanceMeters>
          </Trackpoint>
          <Trackpoint>
            <Time>2022-09-24T13:46:07.000Z</Time>
            <Position>
              <LatitudeDegrees>43.268794678151607513427734375</LatitudeDegrees>
              <LongitudeDegrees>-2.94307018630206584930419921875</LongitudeDegrees>
            </Position>
            <DistanceMeters>1422.483372164</DistanceMeters>
          </Trackpoint>
          <Trackpoint>
            <Time>2022-09-24T13:46:08.000Z</Time>
            <Position>
              <LatitudeDegrees>43.2687938399612903594970703125</LatitudeDegrees>
              <LongitudeDegrees>-2.94307571835815906524658203125</LongitudeDegrees>
            </Position>
            <DistanceMeters>1422.9391042763</DistanceMeters>
          </Trackpoint>
          <Trackpoint>
            <Time>2022-09-24T13:46:09.000Z</Time>
            <Position>
              <LatitudeDegrees>43.26879300177097320556640625</LatitudeDegrees>
              <LongitudeDegrees>-2.94308091513812541961669921875</LongitudeDegrees>
            </Position>
            <DistanceMeters>1423.374571388</DistanceMeters>
          </Trackpoint>
          <Trackpoint>
            <Time>2022-09-24T13:46:10.000Z</Time>
            <Position>
              <LatitudeDegrees>43.26879207976162433624267578125</LatitudeDegrees>
              <LongitudeDegrees>-2.9430861957371234893798828125</LongitudeDegrees>
            </Position>
            <DistanceMeters>1423.799543774</DistanceMeters>
          </Trackpoint>
          <Trackpoint>
            <Time>2022-09-24T13:46:11.000Z</Time>
            <Position>
              <LatitudeDegrees>43.2687911577522754669189453125</LatitudeDegrees>
              <LongitudeDegrees>-2.94309130869805812835693359375</LongitudeDegrees>
            </Position>
            <DistanceMeters>1424.22451616</DistanceMeters>
          </Trackpoint>
          <Trackpoint>
            <Time>2022-09-24T13:46:12.000Z</Time>
            <Position>
              <LatitudeDegrees>43.26879023574292659759521484375</LatitudeDegrees>
              <LongitudeDegrees>-2.94309667311608791351318359375</LongitudeDegrees>
            </Position>
            <DistanceMeters>1424.6802482723</DistanceMeters>
          </Trackpoint>
          <Trackpoint>
            <Time>2022-09-24T13:46:13.000Z</Time>
            <Position>
              <LatitudeDegrees>43.268789313733577728271484375</LatitudeDegrees>
              <LongitudeDegrees>-2.94310220517218112945556640625</LongitudeDegrees>
            </Position>
            <DistanceMeters>1425.1457821966</DistanceMeters>
          </Trackpoint>
          <Trackpoint>
            <Time>2022-09-24T13:46:14.000Z</Time>
            <Position>
              <LatitudeDegrees>43.26878839172422885894775390625</LatitudeDegrees>
              <LongitudeDegrees>-2.94310790486633777618408203125</LongitudeDegrees>
            </Position>
            <DistanceMeters>1425.6209157685</DistanceMeters>
          </Trackpoint>
          <Trackpoint>
            <Time>2022-09-24T13:46:15.000Z</Time>
            <Position>
              <LatitudeDegrees>43.26878738589584827423095703125</LatitudeDegrees>
              <LongitudeDegrees>-2.94311343692243099212646484375</LongitudeDegrees>
            </Position>
            <DistanceMeters>1426.0864496927</DistanceMeters>
          </Trackpoint>
          <Trackpoint>
            <Time>2022-09-24T13:46:16.000Z</Time>
            <Position>
              <LatitudeDegrees>43.2687861286103725433349609375</LatitudeDegrees>
              <LongitudeDegrees>-2.9431187175214290618896484375</LongitudeDegrees>
            </Position>
            <DistanceMeters>1426.5421818051</DistanceMeters>
          </Trackpoint>
          <Trackpoint>
            <Time>2022-09-24T13:46:17.000Z</Time>
            <Position>
              <LatitudeDegrees>43.2687847875058650970458984375</LatitudeDegrees>
              <LongitudeDegrees>-2.94312399812042713165283203125</LongitudeDegrees>
            </Position>
            <DistanceMeters>1426.9878966038</DistanceMeters>
          </Trackpoint>
          <Trackpoint>
            <Time>2022-09-24T13:46:18.000Z</Time>
            <Position>
              <LatitudeDegrees>43.2687834464013576507568359375</LatitudeDegrees>
              <LongitudeDegrees>-2.94312885962426662445068359375</LongitudeDegrees>
            </Position>
            <DistanceMeters>1427.4021084486</DistanceMeters>
          </Trackpoint>
          <Trackpoint>
            <Time>2022-09-24T13:46:19.000Z</Time>
            <Position>
              <LatitudeDegrees>43.268781937658786773681640625</LatitudeDegrees>
              <LongitudeDegrees>-2.9431338049471378326416015625</LongitudeDegrees>
            </Position>
            <DistanceMeters>1427.8375755603</DistanceMeters>
          </Trackpoint>
          <Trackpoint>
            <Time>2022-09-24T13:46:20.000Z</Time>
            <Position>
              <LatitudeDegrees>43.2687804289162158966064453125</LatitudeDegrees>
              <LongitudeDegrees>-2.9431383311748504638671875</LongitudeDegrees>
            </Position>
            <DistanceMeters>1428.240739765</DistanceMeters>
          </Trackpoint>
          <Trackpoint>
            <Time>2022-09-24T13:46:21.000Z</Time>
            <Position>
              <LatitudeDegrees>43.26877892017364501953125</LatitudeDegrees>
              <LongitudeDegrees>-2.94314344413578510284423828125</LongitudeDegrees>
            </Position>
            <DistanceMeters>1428.6864545637</DistanceMeters>
          </Trackpoint>
          <Trackpoint>
            <Time>2022-09-24T13:46:22.000Z</Time>
            <Position>
              <LatitudeDegrees>43.26877766288816928863525390625</LatitudeDegrees>
              <LongitudeDegrees>-2.9431490600109100341796875</LongitudeDegrees>
            </Position>
            <DistanceMeters>1429.1615881356</DistanceMeters>
          </Trackpoint>
          <Trackpoint>
            <Time>2022-09-24T13:46:23.000Z</Time>
            <Position>
              <LatitudeDegrees>43.268776237964630126953125</LatitudeDegrees>
              <LongitudeDegrees>-2.94315509498119354248046875</LongitudeDegrees>
            </Position>
            <DistanceMeters>1429.6820708858</DistanceMeters>
          </Trackpoint>
          <Trackpoint>
            <Time>2022-09-24T13:46:24.000Z</Time>
            <Position>
              <LatitudeDegrees>43.26877481304109096527099609375</LatitudeDegrees>
              <LongitudeDegrees>-2.94316104613244533538818359375</LongitudeDegrees>
            </Position>
            <DistanceMeters>1430.1938054038</DistanceMeters>
          </Trackpoint>
          <Trackpoint>
            <Time>2022-09-24T13:46:25.000Z</Time>
            <Position>
              <LatitudeDegrees>43.26877330429852008819580078125</LatitudeDegrees>
              <LongitudeDegrees>-2.94316691346466541290283203125</LongitudeDegrees>
            </Position>
            <DistanceMeters>1430.696639512</DistanceMeters>
          </Trackpoint>
          <Trackpoint>
            <Time>2022-09-24T13:46:26.000Z</Time>
            <Position>
              <LatitudeDegrees>43.2687720470130443572998046875</LatitudeDegrees>
              <LongitudeDegrees>-2.94317261315882205963134765625</LongitudeDegrees>
            </Position>
            <DistanceMeters>1431.1811825829</DistanceMeters>
          </Trackpoint>
          <Trackpoint>
            <Time>2022-09-24T13:46:27.000Z</Time>
            <Position>
              <LatitudeDegrees>43.2687707059085369110107421875</LatitudeDegrees>
              <LongitudeDegrees>-2.94317831285297870635986328125</LongitudeDegrees>
            </Position>
            <DistanceMeters>1431.6657256538</DistanceMeters>
          </Trackpoint>
          <Trackpoint>
            <Time>2022-09-24T13:46:28.000Z</Time>
            <Position>
              <LatitudeDegrees>43.26876911334693431854248046875</LatitudeDegrees>
              <LongitudeDegrees>-2.94318367727100849151611328125</LongitudeDegrees>
            </Position>
            <DistanceMeters>1432.1408592257</DistanceMeters>
          </Trackpoint>
          <Trackpoint>
            <Time>2022-09-24T13:46:29.000Z</Time>
            <Position>
              <LatitudeDegrees>43.26876752078533172607421875</LatitudeDegrees>
              <LongitudeDegrees>-2.94318937696516513824462890625</LongitudeDegrees>
            </Position>
            <DistanceMeters>1432.6436933339</DistanceMeters>
          </Trackpoint>
          <Trackpoint>
            <Time>2022-09-24T13:46:30.000Z</Time>
            <Position>
              <LatitudeDegrees>43.268765509128570556640625</LatitudeDegrees>
              <LongitudeDegrees>-2.9431951604783535003662109375</LongitudeDegrees>
            </Position>
            <DistanceMeters>1433.1641760842</DistanceMeters>
          </Trackpoint>
          <Trackpoint>
            <Time>2022-09-24T13:46:31.000Z</Time>
            <Position>
              <LatitudeDegrees>43.26876341365277767181396484375</LatitudeDegrees>
              <LongitudeDegrees>-2.94320111162960529327392578125</LongitudeDegrees>
            </Position>
            <DistanceMeters>1433.7017283572</DistanceMeters>
          </Trackpoint>
          <Trackpoint>
            <Time>2022-09-24T13:46:32.000Z</Time>
            <Position>
              <LatitudeDegrees>43.26876089908182621002197265625</LatitudeDegrees>
              <LongitudeDegrees>-2.94320714659988880157470703125</LongitudeDegrees>
            </Position>
            <DistanceMeters>1434.2718886434</DistanceMeters>
          </Trackpoint>
          <Trackpoint>
            <Time>2022-09-24T13:46:33.000Z</Time>
            <Position>
              <LatitudeDegrees>43.26875838451087474822998046875</LatitudeDegrees>
              <LongitudeDegrees>-2.94321318157017230987548828125</LongitudeDegrees>
            </Position>
            <DistanceMeters>1434.8420489296</DistanceMeters>
          </Trackpoint>
          <Trackpoint>
            <Time>2022-09-24T13:46:34.000Z</Time>
            <Position>
              <LatitudeDegrees>43.2687559537589550018310546875</LatitudeDegrees>
              <LongitudeDegrees>-2.94321938417851924896240234375</LongitudeDegrees>
            </Position>
            <DistanceMeters>1435.4122092158</DistanceMeters>
          </Trackpoint>
          <Trackpoint>
            <Time>2022-09-24T13:46:35.000Z</Time>
            <Position>
              <LatitudeDegrees>43.2687534391880035400390625</LatitudeDegrees>
              <LongitudeDegrees>-2.94322558678686618804931640625</LongitudeDegrees>
            </Position>
            <DistanceMeters>1435.9902341534</DistanceMeters>
          </Trackpoint>
          <Trackpoint>
            <Time>2022-09-24T13:46:36.000Z</Time>
            <Position>
              <LatitudeDegrees>43.2687507569789886474609375</LatitudeDegrees>
              <LongitudeDegrees>-2.94323195703327655792236328125</LongitudeDegrees>
            </Position>
            <DistanceMeters>1436.5912358653</DistanceMeters>
          </Trackpoint>
          <Trackpoint>
            <Time>2022-09-24T13:46:37.000Z</Time>
            <Position>
              <LatitudeDegrees>43.26874799095094203948974609375</LatitudeDegrees>
              <LongitudeDegrees>-2.9432380758225917816162109375</LongitudeDegrees>
            </Position>
            <DistanceMeters>1437.177019874</DistanceMeters>
          </Trackpoint>
          <Trackpoint>
            <Time>2022-09-24T13:46:38.000Z</Time>
            <Position>
              <LatitudeDegrees>43.268745057284832000732421875</LatitudeDegrees>
              <LongitudeDegrees>-2.943244278430938720703125</LongitudeDegrees>
            </Position>
            <DistanceMeters>1437.778021586</DistanceMeters>
          </Trackpoint>
          <Trackpoint>
            <Time>2022-09-24T13:46:39.000Z</Time>
            <Position>
              <LatitudeDegrees>43.268742375075817108154296875</LatitudeDegrees>
              <LongitudeDegrees>-2.9432501457631587982177734375</LongitudeDegrees>
            </Position>
            <DistanceMeters>1438.3402072097</DistanceMeters>
          </Trackpoint>
          <Trackpoint>
            <Time>2022-09-24T13:46:40.000Z</Time>
            <Position>
              <LatitudeDegrees>43.26873944140970706939697265625</LatitudeDegrees>
              <LongitudeDegrees>-2.94325626455247402191162109375</LongitudeDegrees>
            </Position>
            <DistanceMeters>1438.9259912184</DistanceMeters>
          </Trackpoint>
          <Trackpoint>
            <Time>2022-09-24T13:46:41.000Z</Time>
            <Position>
              <LatitudeDegrees>43.2687365077435970306396484375</LatitudeDegrees>
              <LongitudeDegrees>-2.94326238334178924560546875</LongitudeDegrees>
            </Position>
            <DistanceMeters>1439.5194328595</DistanceMeters>
          </Trackpoint>
          <Trackpoint>
            <Time>2022-09-24T13:46:42.000Z</Time>
            <Position>
              <LatitudeDegrees>43.2687334902584552764892578125</LatitudeDegrees>
              <LongitudeDegrees>-2.94326883740723133087158203125</LongitudeDegrees>
            </Position>
            <DistanceMeters>1440.1425646971</DistanceMeters>
          </Trackpoint>
          <Trackpoint>
            <Time>2022-09-24T13:46:43.000Z</Time>
            <Position>
              <LatitudeDegrees>43.26873055659234523773193359375</LatitudeDegrees>
              <LongitudeDegrees>-2.94327504001557826995849609375</LongitudeDegrees>
            </Position>
            <DistanceMeters>1440.7435664091</DistanceMeters>
          </Trackpoint>
          <Trackpoint>
            <Time>2022-09-24T13:46:44.000Z</Time>
            <Position>
              <LatitudeDegrees>43.268727622926235198974609375</LatitudeDegrees>
              <LongitudeDegrees>-2.94328124262392520904541015625</LongitudeDegrees>
            </Position>
            <DistanceMeters>1441.3370080501</DistanceMeters>
          </Trackpoint>
          <Trackpoint>
            <Time>2022-09-24T13:46:45.000Z</Time>
            <Position>
              <LatitudeDegrees>43.2687247730791568756103515625</LatitudeDegrees>
              <LongitudeDegrees>-2.943287193775177001953125</LongitudeDegrees>
            </Position>
            <DistanceMeters>1441.9227920588</DistanceMeters>
          </Trackpoint>
          <Trackpoint>
            <Time>2022-09-24T13:46:46.000Z</Time>
            <Position>
              <LatitudeDegrees>43.26872192323207855224609375</LatitudeDegrees>
              <LongitudeDegrees>-2.94329322874546051025390625</LongitudeDegrees>
            </Position>
            <DistanceMeters>1442.5085760675</DistanceMeters>
          </Trackpoint>
          <Trackpoint>
            <Time>2022-09-24T13:46:47.000Z</Time>
            <Position>
              <LatitudeDegrees>43.2687190733850002288818359375</LatitudeDegrees>
              <LongitudeDegrees>-2.94329917989671230316162109375</LongitudeDegrees>
            </Position>
            <DistanceMeters>1443.0943600763</DistanceMeters>
          </Trackpoint>
          <Trackpoint>
            <Time>2022-09-24T13:46:48.000Z</Time>
            <Position>
              <LatitudeDegrees>43.26871630735695362091064453125</LatitudeDegrees>
              <LongitudeDegrees>-2.94330521486699581146240234375</LongitudeDegrees>
            </Position>
            <DistanceMeters>1443.680144085</DistanceMeters>
          </Trackpoint>
          <Trackpoint>
            <Time>2022-09-24T13:46:49.000Z</Time>
            <Position>
              <LatitudeDegrees>43.2687137089669704437255859375</LatitudeDegrees>
              <LongitudeDegrees>-2.9433111660182476043701171875</LongitudeDegrees>
            </Position>
            <DistanceMeters>1444.2423297087</DistanceMeters>
          </Trackpoint>
          <Trackpoint>
            <Time>2022-09-24T13:46:50.000Z</Time>
            <Position>
              <LatitudeDegrees>43.26871119439601898193359375</LatitudeDegrees>
              <LongitudeDegrees>-2.94331711716949939727783203125</LongitudeDegrees>
            </Position>
            <DistanceMeters>1444.7964259089</DistanceMeters>
          </Trackpoint>
          <Trackpoint>
            <Time>2022-09-24T13:46:51.000Z</Time>
            <Position>
              <LatitudeDegrees>43.26870876364409923553466796875</LatitudeDegrees>
              <LongitudeDegrees>-2.9433229006826877593994140625</LongitudeDegrees>
            </Position>
            <DistanceMeters>1445.3339781819</DistanceMeters>
          </Trackpoint>
          <Trackpoint>
            <Time>2022-09-24T13:46:52.000Z</Time>
            <Position>
              <LatitudeDegrees>43.2687063328921794891357421875</LatitudeDegrees>
              <LongitudeDegrees>-2.9433289356529712677001953125</LongitudeDegrees>
            </Position>
            <DistanceMeters>1445.9041384682</DistanceMeters>
          </Trackpoint>
          <Trackpoint>
            <Time>2022-09-24T13:46:53.000Z</Time>
            <Position>
              <LatitudeDegrees>43.2687039859592914581298828125</LatitudeDegrees>
              <LongitudeDegrees>-2.94333522208034992218017578125</LongitudeDegrees>
            </Position>
            <DistanceMeters>1446.4742987544</DistanceMeters>
          </Trackpoint>
          <Trackpoint>
            <Time>2022-09-24T13:46:54.000Z</Time>
            <Position>
              <LatitudeDegrees>43.26870189048349857330322265625</LatitudeDegrees>
              <LongitudeDegrees>-2.9433413408696651458740234375</LongitudeDegrees>
            </Position>
            <DistanceMeters>1447.0118510274</DistanceMeters>
          </Trackpoint>
          <Trackpoint>
            <Time>2022-09-24T13:46:55.000Z</Time>
            <Position>
              <LatitudeDegrees>43.26869954355061054229736328125</LatitudeDegrees>
              <LongitudeDegrees>-2.9433477111160755157470703125</LongitudeDegrees>
            </Position>
            <DistanceMeters>1447.5898759649</DistanceMeters>
          </Trackpoint>
          <Trackpoint>
            <Time>2022-09-24T13:46:56.000Z</Time>
            <Position>
              <LatitudeDegrees>43.26869719661772251129150390625</LatitudeDegrees>
              <LongitudeDegrees>-2.94335416518151760101318359375</LongitudeDegrees>
            </Position>
            <DistanceMeters>1448.1756599736</DistanceMeters>
          </Trackpoint>
          <Trackpoint>
            <Time>2022-09-24T13:46:57.000Z</Time>
            <Position>
              <LatitudeDegrees>43.26869510114192962646484375</LatitudeDegrees>
              <LongitudeDegrees>-2.9433607868850231170654296875</LongitudeDegrees>
            </Position>
            <DistanceMeters>1448.7614439824</DistanceMeters>
          </Trackpoint>
          <Trackpoint>
            <Time>2022-09-24T13:46:58.000Z</Time>
            <Position>
              <LatitudeDegrees>43.2686932571232318878173828125</LatitudeDegrees>
              <LongitudeDegrees>-2.94336740858852863311767578125</LongitudeDegrees>
            </Position>
            <DistanceMeters>1449.3472279911</DistanceMeters>
          </Trackpoint>
          <Trackpoint>
            <Time>2022-09-24T13:46:59.000Z</Time>
            <Position>
              <LatitudeDegrees>43.268691413104534149169921875</LatitudeDegrees>
              <LongitudeDegrees>-2.9433741979300975799560546875</LongitudeDegrees>
            </Position>
            <DistanceMeters>1449.9330119998</DistanceMeters>
          </Trackpoint>
          <Trackpoint>
            <Time>2022-09-24T13:47:00.000Z</Time>
            <Position>
              <LatitudeDegrees>43.26868982054293155670166015625</LatitudeDegrees>
              <LongitudeDegrees>-2.9433809034526348114013671875</LongitudeDegrees>
            </Position>
            <DistanceMeters>1450.5187960085</DistanceMeters>
          </Trackpoint>
          <Trackpoint>
            <Time>2022-09-24T13:47:01.000Z</Time>
            <Position>
              <LatitudeDegrees>43.26868831180036067962646484375</LatitudeDegrees>
              <LongitudeDegrees>-2.94338786043226718902587890625</LongitudeDegrees>
            </Position>
            <DistanceMeters>1451.1122376495</DistanceMeters>
          </Trackpoint>
          <Trackpoint>
            <Time>2022-09-24T13:47:02.000Z</Time>
            <Position>
              <LatitudeDegrees>43.268686719238758087158203125</LatitudeDegrees>
              <LongitudeDegrees>-2.9433943144977092742919921875</LongitudeDegrees>
            </Position>
            <DistanceMeters>1451.6663338498</DistanceMeters>
          </Trackpoint>
          <Trackpoint>
            <Time>2022-09-24T13:47:03.000Z</Time>
            <Position>
              <LatitudeDegrees>43.2686848752200603485107421875</LatitudeDegrees>
              <LongitudeDegrees>-2.9434006847441196441650390625</LongitudeDegrees>
            </Position>
            <DistanceMeters>1452.22043005</DistanceMeters>
          </Trackpoint>
          <Trackpoint>
            <Time>2022-09-24T13:47:04.000Z</Time>
            <Position>
              <LatitudeDegrees>43.26868294738233089447021484375</LatitudeDegrees>
              <LongitudeDegrees>-2.94340680353343486785888671875</LongitudeDegrees>
            </Position>
            <DistanceMeters>1452.757982323</DistanceMeters>
          </Trackpoint>
          <Trackpoint>
            <Time>2022-09-24T13:47:05.000Z</Time>
            <Position>
              <LatitudeDegrees>43.2686810195446014404296875</LatitudeDegrees>
              <LongitudeDegrees>-2.9434127546846866607666015625</LongitudeDegrees>
            </Position>
            <DistanceMeters>1453.2870686768</DistanceMeters>
          </Trackpoint>
          <Trackpoint>
            <Time>2022-09-24T13:47:06.000Z</Time>
            <Position>
              <LatitudeDegrees>43.26867892406880855560302734375</LatitudeDegrees>
              <LongitudeDegrees>-2.943418957293033599853515625</LongitudeDegrees>
            </Position>
            <DistanceMeters>1453.841164877</DistanceMeters>
          </Trackpoint>
          <Trackpoint>
            <Time>2022-09-24T13:47:07.000Z</Time>
            <Position>
              <LatitudeDegrees>43.26867657713592052459716796875</LatitudeDegrees>
              <LongitudeDegrees>-2.94342507608234882354736328125</LongitudeDegrees>
            </Position>
            <DistanceMeters>1454.4033505007</DistanceMeters>
          </Trackpoint>
          <Trackpoint>
            <Time>2022-09-24T13:47:08.000Z</Time>
            <Position>
              <LatitudeDegrees>43.2686741463840007781982421875</LatitudeDegrees>
              <LongitudeDegrees>-2.94343136250972747802734375</LongitudeDegrees>
            </Position>
            <DistanceMeters>1454.9891345094</DistanceMeters>
          </Trackpoint>
          <Trackpoint>
            <Time>2022-09-24T13:47:09.000Z</Time>
            <Position>
              <LatitudeDegrees>43.2686717994511127471923828125</LatitudeDegrees>
              <LongitudeDegrees>-2.9434379003942012786865234375</LongitudeDegrees>
            </Position>
            <DistanceMeters>1455.5749185182</DistanceMeters>
          </Trackpoint>
          <Trackpoint>
            <Time>2022-09-24T13:47:10.000Z</Time>
            <Position>
              <LatitudeDegrees>43.2686694525182247161865234375</LatitudeDegrees>
              <LongitudeDegrees>-2.94344452209770679473876953125</LongitudeDegrees>
            </Position>
            <DistanceMeters>1456.1759202301</DistanceMeters>
          </Trackpoint>
          <Trackpoint>
            <Time>2022-09-24T13:47:11.000Z</Time>
            <Position>
              <LatitudeDegrees>43.268667273223400115966796875</LatitudeDegrees>
              <LongitudeDegrees>-2.94345080852508544921875</LongitudeDegrees>
            </Position>
            <DistanceMeters>1456.7460805163</DistanceMeters>
          </Trackpoint>
          <Trackpoint>
            <Time>2022-09-24T13:47:12.000Z</Time>
            <Position>
              <LatitudeDegrees>43.2686650939285755157470703125</LatitudeDegrees>
              <LongitudeDegrees>-2.9434570111334323883056640625</LongitudeDegrees>
            </Position>
            <DistanceMeters>1457.3001767165</DistanceMeters>
          </Trackpoint>
          <Trackpoint>
            <Time>2022-09-24T13:47:13.000Z</Time>
            <Position>
              <LatitudeDegrees>43.26866316609084606170654296875</LatitudeDegrees>
              <LongitudeDegrees>-2.94346296228468418121337890625</LongitudeDegrees>
            </Position>
            <DistanceMeters>1457.8377289895</DistanceMeters>
          </Trackpoint>
          <Trackpoint>
            <Time>2022-09-24T13:47:14.000Z</Time>
            <Position>
              <LatitudeDegrees>43.2686610706150531768798828125</LatitudeDegrees>
              <LongitudeDegrees>-2.94346933253109455108642578125</LongitudeDegrees>
            </Position>
            <DistanceMeters>1458.4078892758</DistanceMeters>
          </Trackpoint>
          <Trackpoint>
            <Time>2022-09-24T13:47:15.000Z</Time>
            <Position>
              <LatitudeDegrees>43.2686590589582920074462890625</LatitudeDegrees>
              <LongitudeDegrees>-2.94347519986331462860107421875</LongitudeDegrees>
            </Position>
            <DistanceMeters>1458.928372026</DistanceMeters>
          </Trackpoint>
          <Trackpoint>
            <Time>2022-09-24T13:47:16.000Z</Time>
            <Position>
              <LatitudeDegrees>43.26865679584443569183349609375</LatitudeDegrees>
              <LongitudeDegrees>-2.94348106719553470611572265625</LongitudeDegrees>
            </Position>
            <DistanceMeters>1459.465924299</DistanceMeters>
          </Trackpoint>
          <Trackpoint>
            <Time>2022-09-24T13:47:17.000Z</Time>
            <Position>
              <LatitudeDegrees>43.26865478418767452239990234375</LatitudeDegrees>
              <LongitudeDegrees>-2.9434868507087230682373046875</LongitudeDegrees>
            </Position>
            <DistanceMeters>1459.9864070493</DistanceMeters>
          </Trackpoint>
          <Trackpoint>
            <Time>2022-09-24T13:47:18.000Z</Time>
            <Position>
              <LatitudeDegrees>43.2686526887118816375732421875</LatitudeDegrees>
              <LongitudeDegrees>-2.9434928856790065765380859375</LongitudeDegrees>
            </Position>
            <DistanceMeters>1460.5322939631</DistanceMeters>
          </Trackpoint>
          <Trackpoint>
            <Time>2022-09-24T13:47:19.000Z</Time>
            <Position>
              <LatitudeDegrees>43.2686506770551204681396484375</LatitudeDegrees>
              <LongitudeDegrees>-2.94349883683025836944580078125</LongitudeDegrees>
            </Position>
            <DistanceMeters>1461.0698462361</DistanceMeters>
          </Trackpoint>
          <Trackpoint>
            <Time>2022-09-24T13:47:20.000Z</Time>
            <Position>
              <LatitudeDegrees>43.2686486653983592987060546875</LatitudeDegrees>
              <LongitudeDegrees>-2.94350520707666873931884765625</LongitudeDegrees>
            </Position>
            <DistanceMeters>1461.6400065223</DistanceMeters>
          </Trackpoint>
          <Trackpoint>
            <Time>2022-09-24T13:47:21.000Z</Time>
            <Position>
              <LatitudeDegrees>43.26864682137966156005859375</LatitudeDegrees>
              <LongitudeDegrees>-2.9435113258659839630126953125</LongitudeDegrees>
            </Position>
            <DistanceMeters>1462.1690928761</DistanceMeters>
          </Trackpoint>
          <Trackpoint>
            <Time>2022-09-24T13:47:22.000Z</Time>
            <Position>
              <LatitudeDegrees>43.26864489354193210601806640625</LatitudeDegrees>
              <LongitudeDegrees>-2.943517863750457763671875</LongitudeDegrees>
            </Position>
            <DistanceMeters>1462.7392531623</DistanceMeters>
          </Trackpoint>
          <Trackpoint>
            <Time>2022-09-24T13:47:23.000Z</Time>
            <Position>
              <LatitudeDegrees>43.268643133342266082763671875</LatitudeDegrees>
              <LongitudeDegrees>-2.943524233996868133544921875</LongitudeDegrees>
            </Position>
            <DistanceMeters>1463.2933493625</DistanceMeters>
          </Trackpoint>
          <Trackpoint>
            <Time>2022-09-24T13:47:24.000Z</Time>
            <Position>
              <LatitudeDegrees>43.268641121685504913330078125</LatitudeDegrees>
              <LongitudeDegrees>-2.943530939519405364990234375</LongitudeDegrees>
            </Position>
            <DistanceMeters>1463.8791333712</DistanceMeters>
          </Trackpoint>
          <Trackpoint>
            <Time>2022-09-24T13:47:25.000Z</Time>
            <Position>
              <LatitudeDegrees>43.268639110028743743896484375</LatitudeDegrees>
              <LongitudeDegrees>-2.943537645041942596435546875</LongitudeDegrees>
            </Position>
            <DistanceMeters>1464.4649173799</DistanceMeters>
          </Trackpoint>
          <Trackpoint>
            <Time>2022-09-24T13:47:26.000Z</Time>
            <Position>
              <LatitudeDegrees>43.26863701455295085906982421875</LatitudeDegrees>
              <LongitudeDegrees>-2.9435445182025432586669921875</LongitudeDegrees>
            </Position>
            <DistanceMeters>1465.0659190919</DistanceMeters>
          </Trackpoint>
          <Trackpoint>
            <Time>2022-09-24T13:47:27.000Z</Time>
            <Position>
              <LatitudeDegrees>43.2686349190771579742431640625</LatitudeDegrees>
              <LongitudeDegrees>-2.94355147518217563629150390625</LongitudeDegrees>
            </Position>
            <DistanceMeters>1465.6743869499</DistanceMeters>
          </Trackpoint>
          <Trackpoint>
            <Time>2022-09-24T13:47:28.000Z</Time>
            <Position>
              <LatitudeDegrees>43.26863282360136508941650390625</LatitudeDegrees>
              <LongitudeDegrees>-2.943558432161808013916015625</LongitudeDegrees>
            </Position>
            <DistanceMeters>1466.2902304451</DistanceMeters>
          </Trackpoint>
          <Trackpoint>
            <Time>2022-09-24T13:47:29.000Z</Time>
            <Position>
              <LatitudeDegrees>43.26863081194460391998291015625</LatitudeDegrees>
              <LongitudeDegrees>-2.9435653053224086761474609375</LongitudeDegrees>
            </Position>
            <DistanceMeters>1466.8912321571</DistanceMeters>
          </Trackpoint>
          <Trackpoint>
            <Time>2022-09-24T13:47:30.000Z</Time>
            <Position>
              <LatitudeDegrees>43.26862871646881103515625</LatitudeDegrees>
              <LongitudeDegrees>-2.9435723461210727691650390625</LongitudeDegrees>
            </Position>
            <DistanceMeters>1467.5070756523</DistanceMeters>
          </Trackpoint>
          <Trackpoint>
            <Time>2022-09-24T13:47:31.000Z</Time>
            <Position>
              <LatitudeDegrees>43.26862670481204986572265625</LatitudeDegrees>
              <LongitudeDegrees>-2.9435793869197368621826171875</LongitudeDegrees>
            </Position>
            <DistanceMeters>1468.1155435103</DistanceMeters>
          </Trackpoint>
          <Trackpoint>
            <Time>2022-09-24T13:47:32.000Z</Time>
            <Position>
              <LatitudeDegrees>43.26862460933625698089599609375</LatitudeDegrees>
              <LongitudeDegrees>-2.943586595356464385986328125</LongitudeDegrees>
            </Position>
            <DistanceMeters>1468.7458794236</DistanceMeters>
          </Trackpoint>
          <Trackpoint>
            <Time>2022-09-24T13:47:33.000Z</Time>
            <Position>
              <LatitudeDegrees>43.26862259767949581146240234375</LatitudeDegrees>
              <LongitudeDegrees>-2.94359355233609676361083984375</LongitudeDegrees>
            </Position>
            <DistanceMeters>1469.3468811355</DistanceMeters>
          </Trackpoint>
          <Trackpoint>
            <Time>2022-09-24T13:47:34.000Z</Time>
            <Position>
              <LatitudeDegrees>43.2686205022037029266357421875</LatitudeDegrees>
              <LongitudeDegrees>-2.94360025785863399505615234375</LongitudeDegrees>
            </Position>
            <DistanceMeters>1469.9403227765</DistanceMeters>
          </Trackpoint>
          <Trackpoint>
            <Time>2022-09-24T13:47:35.000Z</Time>
            <Position>
              <LatitudeDegrees>43.26861807145178318023681640625</LatitudeDegrees>
              <LongitudeDegrees>-2.9436068795621395111083984375</LongitudeDegrees>
            </Position>
            <DistanceMeters>1470.5413244885</DistanceMeters>
          </Trackpoint>
          <Trackpoint>
            <Time>2022-09-24T13:47:36.000Z</Time>
            <Position>
              <LatitudeDegrees>43.26861589215695858001708984375</LatitudeDegrees>
              <LongitudeDegrees>-2.94361316598951816558837890625</LongitudeDegrees>
            </Position>
            <DistanceMeters>1471.0954206887</DistanceMeters>
          </Trackpoint>
          <Trackpoint>
            <Time>2022-09-24T13:47:37.000Z</Time>
            <Position>
              <LatitudeDegrees>43.26861371286213397979736328125</LatitudeDegrees>
              <LongitudeDegrees>-2.943619452416896820068359375</LongitudeDegrees>
            </Position>
            <DistanceMeters>1471.6495168889</DistanceMeters>
          </Trackpoint>
          <Trackpoint>
            <Time>2022-09-24T13:47:38.000Z</Time>
            <Position>
              <LatitudeDegrees>43.2686114497482776641845703125</LatitudeDegrees>
              <LongitudeDegrees>-2.94362573884427547454833984375</LongitudeDegrees>
            </Position>
            <DistanceMeters>1472.2196771751</DistanceMeters>
          </Trackpoint>
          <Trackpoint>
            <Time>2022-09-24T13:47:39.000Z</Time>
            <Position>
              <LatitudeDegrees>43.26860918663442134857177734375</LatitudeDegrees>
              <LongitudeDegrees>-2.94363252818584442138671875</LongitudeDegrees>
            </Position>
            <DistanceMeters>1472.8206788871</DistanceMeters>
          </Trackpoint>
          <Trackpoint>
            <Time>2022-09-24T13:47:40.000Z</Time>
            <Position>
              <LatitudeDegrees>43.268606923520565032958984375</LatitudeDegrees>
              <LongitudeDegrees>-2.94363923370838165283203125</LongitudeDegrees>
            </Position>
            <DistanceMeters>1473.421680599</DistanceMeters>
          </Trackpoint>
          <Trackpoint>
            <Time>2022-09-24T13:47:41.000Z</Time>
            <Position>
              <LatitudeDegrees>43.26860449276864528656005859375</LatitudeDegrees>
              <LongitudeDegrees>-2.94364635832607746124267578125</LongitudeDegrees>
            </Position>
            <DistanceMeters>1474.0591391781</DistanceMeters>
          </Trackpoint>
          <Trackpoint>
            <Time>2022-09-24T13:47:42.000Z</Time>
            <Position>
              <LatitudeDegrees>43.2686020620167255401611328125</LatitudeDegrees>
              <LongitudeDegrees>-2.9436533153057098388671875</LongitudeDegrees>
            </Position>
            <DistanceMeters>1474.6749826733</DistanceMeters>
          </Trackpoint>
          <Trackpoint>
            <Time>2022-09-24T13:47:43.000Z</Time>
            <Position>
              <LatitudeDegrees>43.268599547445774078369140625</LatitudeDegrees>
              <LongitudeDegrees>-2.9436605237424373626708984375</LongitudeDegrees>
            </Position>
            <DistanceMeters>1475.3264530048</DistanceMeters>
          </Trackpoint>
          <Trackpoint>
            <Time>2022-09-24T13:47:44.000Z</Time>
            <Position>
              <LatitudeDegrees>43.26859711669385433197021484375</LatitudeDegrees>
              <LongitudeDegrees>-2.94366739690303802490234375</LongitudeDegrees>
            </Position>
            <DistanceMeters>1475.9422965001</DistanceMeters>
          </Trackpoint>
          <Trackpoint>
            <Time>2022-09-24T13:47:45.000Z</Time>
            <Position>
              <LatitudeDegrees>43.26859476976096630096435546875</LatitudeDegrees>
              <LongitudeDegrees>-2.9436746053397655487060546875</LongitudeDegrees>
            </Position>
            <DistanceMeters>1476.5867990342</DistanceMeters>
          </Trackpoint>
          <Trackpoint>
            <Time>2022-09-24T13:47:46.000Z</Time>
            <Position>
              <LatitudeDegrees>43.26859259046614170074462890625</LatitudeDegrees>
              <LongitudeDegrees>-2.943681813776493072509765625</LongitudeDegrees>
            </Position>
            <DistanceMeters>1477.2242576132</DistanceMeters>
          </Trackpoint>
          <Trackpoint>
            <Time>2022-09-24T13:47:47.000Z</Time>
            <Position>
              <LatitudeDegrees>43.2685903273522853851318359375</LatitudeDegrees>
              <LongitudeDegrees>-2.94368893839418888092041015625</LongitudeDegrees>
            </Position>
            <DistanceMeters>1477.8545935264</DistanceMeters>
          </Trackpoint>
          <Trackpoint>
            <Time>2022-09-24T13:47:48.000Z</Time>
            <Position>
              <LatitudeDegrees>43.26858806423842906951904296875</LatitudeDegrees>
              <LongitudeDegrees>-2.94369581155478954315185546875</LongitudeDegrees>
            </Position>
            <DistanceMeters>1478.4555952384</DistanceMeters>
          </Trackpoint>
          <Trackpoint>
            <Time>2022-09-24T13:47:49.000Z</Time>
            <Position>
              <LatitudeDegrees>43.26858588494360446929931640625</LatitudeDegrees>
              <LongitudeDegrees>-2.94370268471539020538330078125</LongitudeDegrees>
            </Position>
            <DistanceMeters>1479.0565969503</DistanceMeters>
          </Trackpoint>
          <Trackpoint>
            <Time>2022-09-24T13:47:50.000Z</Time>
            <Position>
              <LatitudeDegrees>43.2685836218297481536865234375</LatitudeDegrees>
              <LongitudeDegrees>-2.94370955787599086761474609375</LongitudeDegrees>
            </Position>
            <DistanceMeters>1479.6575986623</DistanceMeters>
          </Trackpoint>
          <Trackpoint>
            <Time>2022-09-24T13:47:51.000Z</Time>
            <Position>
              <LatitudeDegrees>43.268581442534923553466796875</LatitudeDegrees>
              <LongitudeDegrees>-2.9437161795794963836669921875</LongitudeDegrees>
            </Position>
            <DistanceMeters>1480.243382671</DistanceMeters>
          </Trackpoint>
          <Trackpoint>
            <Time>2022-09-24T13:47:52.000Z</Time>
            <Position>
              <LatitudeDegrees>43.26857917942106723785400390625</LatitudeDegrees>
              <LongitudeDegrees>-2.94372280128300189971923828125</LongitudeDegrees>
            </Position>
            <DistanceMeters>1480.8443843829</DistanceMeters>
          </Trackpoint>
          <Trackpoint>
            <Time>2022-09-24T13:47:53.000Z</Time>
            <Position>
              <LatitudeDegrees>43.26857716776430606842041015625</LatitudeDegrees>
              <LongitudeDegrees>-2.94372917152941226959228515625</LongitudeDegrees>
            </Position>
            <DistanceMeters>1481.4145446692</DistanceMeters>
          </Trackpoint>
          <Trackpoint>
            <Time>2022-09-24T13:47:54.000Z</Time>
            <Position>
              <LatitudeDegrees>43.2685752399265766143798828125</LatitudeDegrees>
              <LongitudeDegrees>-2.94373579323291778564453125</LongitudeDegrees>
            </Position>
            <DistanceMeters>1481.9847049554</DistanceMeters>
          </Trackpoint>
          <Trackpoint>
            <Time>2022-09-24T13:47:55.000Z</Time>
            <Position>
              <LatitudeDegrees>43.2685735635459423065185546875</LatitudeDegrees>
              <LongitudeDegrees>-2.94374207966029644012451171875</LongitudeDegrees>
            </Position>
            <DistanceMeters>1482.5305918692</DistanceMeters>
          </Trackpoint>
          <Trackpoint>
            <Time>2022-09-24T13:47:56.000Z</Time>
            <Position>
              <LatitudeDegrees>43.26857197098433971405029296875</LatitudeDegrees>
              <LongitudeDegrees>-2.94374844990670680999755859375</LongitudeDegrees>
            </Position>
            <DistanceMeters>1483.0846880694</DistanceMeters>
          </Trackpoint>
          <Trackpoint>
            <Time>2022-09-24T13:47:57.000Z</Time>
            <Position>
              <LatitudeDegrees>43.2685705460608005523681640625</LatitudeDegrees>
              <LongitudeDegrees>-2.9437547363340854644775390625</LongitudeDegrees>
            </Position>
            <DistanceMeters>1483.6222403424</DistanceMeters>
          </Trackpoint>
          <Trackpoint>
            <Time>2022-09-24T13:47:58.000Z</Time>
            <Position>
              <LatitudeDegrees>43.2685692049562931060791015625</LatitudeDegrees>
              <LongitudeDegrees>-2.9437614418566226959228515625</LongitudeDegrees>
            </Position>
            <DistanceMeters>1484.1924006286</DistanceMeters>
          </Trackpoint>
          <Trackpoint>
            <Time>2022-09-24T13:47:59.000Z</Time>
            <Position>
              <LatitudeDegrees>43.26856811530888080596923828125</LatitudeDegrees>
              <LongitudeDegrees>-2.94376806356012821197509765625</LongitudeDegrees>
            </Position>
            <DistanceMeters>1484.7464968288</DistanceMeters>
          </Trackpoint>
          <Trackpoint>
            <Time>2022-09-24T13:48:00.000Z</Time>
            <Position>
              <LatitudeDegrees>43.2685668580234050750732421875</LatitudeDegrees>
              <LongitudeDegrees>-2.94377493672072887420654296875</LongitudeDegrees>
            </Position>
            <DistanceMeters>1485.316657115</DistanceMeters>
          </Trackpoint>
          <Trackpoint>
            <Time>2022-09-24T13:48:01.000Z</Time>
            <Position>
              <LatitudeDegrees>43.26856576837599277496337890625</LatitudeDegrees>
              <LongitudeDegrees>-2.94378164224326610565185546875</LongitudeDegrees>
            </Position>
            <DistanceMeters>1485.8707533153</DistanceMeters>
          </Trackpoint>
          <Trackpoint>
            <Time>2022-09-24T13:48:02.000Z</Time>
            <Position>
              <LatitudeDegrees>43.268564678728580474853515625</LatitudeDegrees>
              <LongitudeDegrees>-2.94378818012773990631103515625</LongitudeDegrees>
            </Position>
            <DistanceMeters>1486.416640229</DistanceMeters>
          </Trackpoint>
          <Trackpoint>
            <Time>2022-09-24T13:48:03.000Z</Time>
            <Position>
              <LatitudeDegrees>43.26856367290019989013671875</LatitudeDegrees>
              <LongitudeDegrees>-2.94379413127899169921875</LongitudeDegrees>
            </Position>
            <DistanceMeters>1486.9194743373</DistanceMeters>
          </Trackpoint>
          <Trackpoint>
            <Time>2022-09-24T13:48:04.000Z</Time>
            <Position>
              <LatitudeDegrees>43.268562667071819305419921875</LatitudeDegrees>
              <LongitudeDegrees>-2.943799830973148345947265625</LongitudeDegrees>
            </Position>
            <DistanceMeters>1487.4040174082</DistanceMeters>
          </Trackpoint>
          <Trackpoint>
            <Time>2022-09-24T13:48:05.000Z</Time>
            <Position>
              <LatitudeDegrees>43.26856140978634357452392578125</LatitudeDegrees>
              <LongitudeDegrees>-2.94380544684827327728271484375</LongitudeDegrees>
            </Position>
            <DistanceMeters>1487.8885604791</DistanceMeters>
          </Trackpoint>
          <Trackpoint>
            <Time>2022-09-24T13:48:06.000Z</Time>
            <Position>
              <LatitudeDegrees>43.2685603201389312744140625</LatitudeDegrees>
              <LongitudeDegrees>-2.94381114654242992401123046875</LongitudeDegrees>
            </Position>
            <DistanceMeters>1488.37310355</DistanceMeters>
          </Trackpoint>
          <Trackpoint>
            <Time>2022-09-24T13:48:07.000Z</Time>
            <Position>
              <LatitudeDegrees>43.26855939812958240509033203125</LatitudeDegrees>
              <LongitudeDegrees>-2.94381651096045970916748046875</LongitudeDegrees>
            </Position>
            <DistanceMeters>1488.8085706616</DistanceMeters>
          </Trackpoint>
          <Trackpoint>
            <Time>2022-09-24T13:48:08.000Z</Time>
            <Position>
              <LatitudeDegrees>43.26855855993926525115966796875</LatitudeDegrees>
              <LongitudeDegrees>-2.9438217915594577789306640625</LongitudeDegrees>
            </Position>
            <DistanceMeters>1489.2335430476</DistanceMeters>
          </Trackpoint>
          <Trackpoint>
            <Time>2022-09-24T13:48:09.000Z</Time>
            <Position>
              <LatitudeDegrees>43.26855772174894809722900390625</LatitudeDegrees>
              <LongitudeDegrees>-2.94382723979651927947998046875</LongitudeDegrees>
            </Position>
            <DistanceMeters>1489.6792578463</DistanceMeters>
          </Trackpoint>
          <Trackpoint>
            <Time>2022-09-24T13:48:10.000Z</Time>
            <Position>
              <LatitudeDegrees>43.26855671592056751251220703125</LatitudeDegrees>
              <LongitudeDegrees>-2.9438325203955173492431640625</LongitudeDegrees>
            </Position>
            <DistanceMeters>1490.114724958</DistanceMeters>
          </Trackpoint>
          <Trackpoint>
            <Time>2022-09-24T13:48:11.000Z</Time>
            <Position>
              <LatitudeDegrees>43.26855571009218692779541015625</LatitudeDegrees>
              <LongitudeDegrees>-2.9438378848135471343994140625</LongitudeDegrees>
            </Position>
            <DistanceMeters>1490.5604397566</DistanceMeters>
          </Trackpoint>
          <Trackpoint>
            <Time>2022-09-24T13:48:12.000Z</Time>
            <Position>
              <LatitudeDegrees>43.268554620444774627685546875</LatitudeDegrees>
              <LongitudeDegrees>-2.9438432492315769195556640625</LongitudeDegrees>
            </Position>
            <DistanceMeters>1491.0061545553</DistanceMeters>
          </Trackpoint>
          <Trackpoint>
            <Time>2022-09-24T13:48:13.000Z</Time>
            <Position>
              <LatitudeDegrees>43.26855336315929889678955078125</LatitudeDegrees>
              <LongitudeDegrees>-2.9438489489257335662841796875</LongitudeDegrees>
            </Position>
            <DistanceMeters>1491.4906976262</DistanceMeters>
          </Trackpoint>
          <Trackpoint>
            <Time>2022-09-24T13:48:14.000Z</Time>
            <Position>
              <LatitudeDegrees>43.26855202205479145050048828125</LatitudeDegrees>
              <LongitudeDegrees>-2.9438546486198902130126953125</LongitudeDegrees>
            </Position>
            <DistanceMeters>1491.9844709183</DistanceMeters>
          </Trackpoint>
          <Trackpoint>
            <Time>2022-09-24T13:48:15.000Z</Time>
            <Position>
              <LatitudeDegrees>43.268550597131252288818359375</LatitudeDegrees>
              <LongitudeDegrees>-2.94386059977114200592041015625</LongitudeDegrees>
            </Position>
            <DistanceMeters>1492.4873050266</DistanceMeters>
          </Trackpoint>
          <Trackpoint>
            <Time>2022-09-24T13:48:16.000Z</Time>
            <Position>
              <LatitudeDegrees>43.2685494236648082733154296875</LatitudeDegrees>
              <LongitudeDegrees>-2.9438663832843303680419921875</LongitudeDegrees>
            </Position>
            <DistanceMeters>1492.9718480975</DistanceMeters>
          </Trackpoint>
          <Trackpoint>
            <Time>2022-09-24T13:48:17.000Z</Time>
            <Position>
              <LatitudeDegrees>43.2685480825603008270263671875</LatitudeDegrees>
              <LongitudeDegrees>-2.9438724182546138763427734375</LongitudeDegrees>
            </Position>
            <DistanceMeters>1493.4923308477</DistanceMeters>
          </Trackpoint>
          <Trackpoint>
            <Time>2022-09-24T13:48:18.000Z</Time>
            <Position>
              <LatitudeDegrees>43.268546573817729949951171875</LatitudeDegrees>
              <LongitudeDegrees>-2.9438784532248973846435546875</LongitudeDegrees>
            </Position>
            <DistanceMeters>1494.012813598</DistanceMeters>
          </Trackpoint>
          <Trackpoint>
            <Time>2022-09-24T13:48:19.000Z</Time>
            <Position>
              <LatitudeDegrees>43.2685450650751590728759765625</LatitudeDegrees>
              <LongitudeDegrees>-2.94388457201421260833740234375</LongitudeDegrees>
            </Position>
            <DistanceMeters>1494.5332963482</DistanceMeters>
          </Trackpoint>
          <Trackpoint>
            <Time>2022-09-24T13:48:20.000Z</Time>
            <Position>
              <LatitudeDegrees>43.26854347251355648040771484375</LatitudeDegrees>
              <LongitudeDegrees>-2.94389043934643268585205078125</LongitudeDegrees>
            </Position>
            <DistanceMeters>1495.0361304565</DistanceMeters>
          </Trackpoint>
          <Trackpoint>
            <Time>2022-09-24T13:48:21.000Z</Time>
            <Position>
              <LatitudeDegrees>43.2685415446758270263671875</LatitudeDegrees>
              <LongitudeDegrees>-2.94389672577381134033203125</LongitudeDegrees>
            </Position>
            <DistanceMeters>1495.5820173703</DistanceMeters>
          </Trackpoint>
          <Trackpoint>
            <Time>2022-09-24T13:48:22.000Z</Time>
            <Position>
              <LatitudeDegrees>43.2685397006571292877197265625</LatitudeDegrees>
              <LongitudeDegrees>-2.94390284456312656402587890625</LongitudeDegrees>
            </Position>
            <DistanceMeters>1496.1195696433</DistanceMeters>
          </Trackpoint>
          <Trackpoint>
            <Time>2022-09-24T13:48:23.000Z</Time>
            <Position>
              <LatitudeDegrees>43.268537856638431549072265625</LatitudeDegrees>
              <LongitudeDegrees>-2.9439089633524417877197265625</LongitudeDegrees>
            </Position>
            <DistanceMeters>1496.6571219163</DistanceMeters>
          </Trackpoint>
          <Trackpoint>
            <Time>2022-09-24T13:48:24.000Z</Time>
            <Position>
              <LatitudeDegrees>43.2685361802577972412109375</LatitudeDegrees>
              <LongitudeDegrees>-2.94391508214175701141357421875</LongitudeDegrees>
            </Position>
            <DistanceMeters>1497.1776046665</DistanceMeters>
          </Trackpoint>
          <Trackpoint>
            <Time>2022-09-24T13:48:25.000Z</Time>
            <Position>
              <LatitudeDegrees>43.26853458769619464874267578125</LatitudeDegrees>
              <LongitudeDegrees>-2.943921200931072235107421875</LongitudeDegrees>
            </Position>
            <DistanceMeters>1497.7066910203</DistanceMeters>
          </Trackpoint>
          <Trackpoint>
            <Time>2022-09-24T13:48:26.000Z</Time>
            <Position>
              <LatitudeDegrees>43.2685329951345920562744140625</LatitudeDegrees>
              <LongitudeDegrees>-2.9439269006252288818359375</LongitudeDegrees>
            </Position>
            <DistanceMeters>1498.1912340912</DistanceMeters>
          </Trackpoint>
          <Trackpoint>
            <Time>2022-09-24T13:48:27.000Z</Time>
            <Position>
              <LatitudeDegrees>43.26853123493492603302001953125</LatitudeDegrees>
              <LongitudeDegrees>-2.94393301941454410552978515625</LongitudeDegrees>
            </Position>
            <DistanceMeters>1498.720320445</DistanceMeters>
          </Trackpoint>
          <Trackpoint>
            <Time>2022-09-24T13:48:28.000Z</Time>
            <Position>
              <LatitudeDegrees>43.26852939091622829437255859375</LatitudeDegrees>
              <LongitudeDegrees>-2.943939305841922760009765625</LongitudeDegrees>
            </Position>
            <DistanceMeters>1499.2744166452</DistanceMeters>
          </Trackpoint>
          <Trackpoint>
            <Time>2022-09-24T13:48:29.000Z</Time>
            <Position>
              <LatitudeDegrees>43.26852754689753055572509765625</LatitudeDegrees>
              <LongitudeDegrees>-2.9439458437263965606689453125</LongitudeDegrees>
            </Position>
            <DistanceMeters>1499.836602269</DistanceMeters>
          </Trackpoint>
          <Trackpoint>
            <Time>2022-09-24T13:48:30.000Z</Time>
            <Position>
              <LatitudeDegrees>43.26852587051689624786376953125</LatitudeDegrees>
              <LongitudeDegrees>-2.943952046334743499755859375</LongitudeDegrees>
            </Position>
            <DistanceMeters>1500.374154542</DistanceMeters>
          </Trackpoint>
          <Trackpoint>
            <Time>2022-09-24T13:48:31.000Z</Time>
            <Position>
              <LatitudeDegrees>43.26852419413626194000244140625</LatitudeDegrees>
              <LongitudeDegrees>-2.94395850040018558502197265625</LongitudeDegrees>
            </Position>
            <DistanceMeters>1500.9282507422</DistanceMeters>
          </Trackpoint>
          <Trackpoint>
            <Time>2022-09-24T13:48:32.000Z</Time>
            <Position>
              <LatitudeDegrees>43.268522433936595916748046875</LatitudeDegrees>
              <LongitudeDegrees>-2.9439652897417545318603515625</LongitudeDegrees>
            </Position>
            <DistanceMeters>1501.5062756797</DistanceMeters>
          </Trackpoint>
          <Trackpoint>
            <Time>2022-09-24T13:48:33.000Z</Time>
            <Position>
              <LatitudeDegrees>43.26852067373692989349365234375</LatitudeDegrees>
              <LongitudeDegrees>-2.94397241435945034027099609375</LongitudeDegrees>
            </Position>
            <DistanceMeters>1502.1072773917</DistanceMeters>
          </Trackpoint>
          <Trackpoint>
            <Time>2022-09-24T13:48:34.000Z</Time>
            <Position>
              <LatitudeDegrees>43.268518745899200439453125</LatitudeDegrees>
              <LongitudeDegrees>-2.94398012571036815643310546875</LongitudeDegrees>
            </Position>
            <DistanceMeters>1502.7656417811</DistanceMeters>
          </Trackpoint>
          <Trackpoint>
            <Time>2022-09-24T13:48:35.000Z</Time>
            <Position>
              <LatitudeDegrees>43.2685165666043758392333984375</LatitudeDegrees>
              <LongitudeDegrees>-2.9439877532422542572021484375</LongitudeDegrees>
            </Position>
            <DistanceMeters>1503.4240061706</DistanceMeters>
          </Trackpoint>
          <Trackpoint>
            <Time>2022-09-24T13:48:36.000Z</Time>
            <Position>
              <LatitudeDegrees>43.26851447112858295440673828125</LatitudeDegrees>
              <LongitudeDegrees>-2.94399571605026721954345703125</LongitudeDegrees>
            </Position>
            <DistanceMeters>1504.109253553</DistanceMeters>
          </Trackpoint>
          <Trackpoint>
            <Time>2022-09-24T13:48:37.000Z</Time>
            <Position>
              <LatitudeDegrees>43.268512375652790069580078125</LatitudeDegrees>
              <LongitudeDegrees>-2.94400359503924846649169921875</LongitudeDegrees>
            </Position>
            <DistanceMeters>1504.7878800325</DistanceMeters>
          </Trackpoint>
          <Trackpoint>
            <Time>2022-09-24T13:48:38.000Z</Time>
            <Position>
              <LatitudeDegrees>43.268510363996028900146484375</LatitudeDegrees>
              <LongitudeDegrees>-2.94401180930435657501220703125</LongitudeDegrees>
            </Position>
            <DistanceMeters>1505.4926170078</DistanceMeters>
          </Trackpoint>
          <Trackpoint>
            <Time>2022-09-24T13:48:39.000Z</Time>
            <Position>
              <LatitudeDegrees>43.26850826852023601531982421875</LatitudeDegrees>
              <LongitudeDegrees>-2.944019772112369537353515625</LongitudeDegrees>
            </Position>
            <DistanceMeters>1506.1778643902</DistanceMeters>
          </Trackpoint>
          <Trackpoint>
            <Time>2022-09-24T13:48:40.000Z</Time>
            <Position>
              <LatitudeDegrees>43.2685061730444431304931640625</LatitudeDegrees>
              <LongitudeDegrees>-2.944027818739414215087890625</LongitudeDegrees>
            </Position>
            <DistanceMeters>1506.8696693132</DistanceMeters>
          </Trackpoint>
          <Trackpoint>
            <Time>2022-09-24T13:48:41.000Z</Time>
            <Position>
              <LatitudeDegrees>43.26850390993058681488037109375</LatitudeDegrees>
              <LongitudeDegrees>-2.94403553009033203125</LongitudeDegrees>
            </Position>
            <DistanceMeters>1507.5482957927</DistanceMeters>
          </Trackpoint>
          <Trackpoint>
            <Time>2022-09-24T13:48:42.000Z</Time>
            <Position>
              <LatitudeDegrees>43.26850173063576221466064453125</LatitudeDegrees>
              <LongitudeDegrees>-2.94404298998415470123291015625</LongitudeDegrees>
            </Position>
            <DistanceMeters>1508.2066601822</DistanceMeters>
          </Trackpoint>
          <Trackpoint>
            <Time>2022-09-24T13:48:43.000Z</Time>
            <Position>
              <LatitudeDegrees>43.26849929988384246826171875</LatitudeDegrees>
              <LongitudeDegrees>-2.94405070133507251739501953125</LongitudeDegrees>
            </Position>
            <DistanceMeters>1508.8919075646</DistanceMeters>
          </Trackpoint>
          <Trackpoint>
            <Time>2022-09-24T13:48:44.000Z</Time>
            <Position>
              <LatitudeDegrees>43.26849686913192272186279296875</LatitudeDegrees>
              <LongitudeDegrees>-2.944058664143085479736328125</LongitudeDegrees>
            </Position>
            <DistanceMeters>1509.590208451</DistanceMeters>
          </Trackpoint>
          <Trackpoint>
            <Time>2022-09-24T13:48:45.000Z</Time>
            <Position>
              <LatitudeDegrees>43.26849435456097126007080078125</LatitudeDegrees>
              <LongitudeDegrees>-2.94406662695109844207763671875</LongitudeDegrees>
            </Position>
            <DistanceMeters>1510.2949454263</DistanceMeters>
          </Trackpoint>
          <Trackpoint>
            <Time>2022-09-24T13:48:46.000Z</Time>
            <Position>
              <LatitudeDegrees>43.26849251054227352142333984375</LatitudeDegrees>
              <LongitudeDegrees>-2.94407433830201625823974609375</LongitudeDegrees>
            </Position>
            <DistanceMeters>1510.9533098158</DistanceMeters>
          </Trackpoint>
          <Trackpoint>
            <Time>2022-09-24T13:48:47.000Z</Time>
            <Position>
              <LatitudeDegrees>43.2684907503426074981689453125</LatitudeDegrees>
              <LongitudeDegrees>-2.94408204965293407440185546875</LongitudeDegrees>
            </Position>
            <DistanceMeters>1511.6116742053</DistanceMeters>
          </Trackpoint>
          <Trackpoint>
            <Time>2022-09-24T13:48:48.000Z</Time>
            <Position>
              <LatitudeDegrees>43.26848899014294147491455078125</LatitudeDegrees>
              <LongitudeDegrees>-2.944089509546756744384765625</LongitudeDegrees>
            </Position>
            <DistanceMeters>1512.2420101185</DistanceMeters>
          </Trackpoint>
          <Trackpoint>
            <Time>2022-09-24T13:48:49.000Z</Time>
            <Position>
              <LatitudeDegrees>43.2684870623052120208740234375</LatitudeDegrees>
              <LongitudeDegrees>-2.9440970532596111297607421875</LongitudeDegrees>
            </Position>
            <DistanceMeters>1512.8865126526</DistanceMeters>
          </Trackpoint>
          <Trackpoint>
            <Time>2022-09-24T13:48:50.000Z</Time>
            <Position>
              <LatitudeDegrees>43.2684852182865142822265625</LatitudeDegrees>
              <LongitudeDegrees>-2.944104261696338653564453125</LongitudeDegrees>
            </Position>
            <DistanceMeters>1513.5023561478</DistanceMeters>
          </Trackpoint>
          <Trackpoint>
            <Time>2022-09-24T13:48:51.000Z</Time>
            <Position>
              <LatitudeDegrees>43.26848320662975311279296875</LatitudeDegrees>
              <LongitudeDegrees>-2.9441119730472564697265625</LongitudeDegrees>
            </Position>
            <DistanceMeters>1514.1607205373</DistanceMeters>
          </Trackpoint>
          <Trackpoint>
            <Time>2022-09-24T13:48:52.000Z</Time>
            <Position>
              <LatitudeDegrees>43.26848111115396022796630859375</LatitudeDegrees>
              <LongitudeDegrees>-2.94411960057914257049560546875</LongitudeDegrees>
            </Position>
            <DistanceMeters>1514.8190849267</DistanceMeters>
          </Trackpoint>
          <Trackpoint>
            <Time>2022-09-24T13:48:53.000Z</Time>
            <Position>
              <LatitudeDegrees>43.26847893185913562774658203125</LatitudeDegrees>
              <LongitudeDegrees>-2.9441275633871555328369140625</LongitudeDegrees>
            </Position>
            <DistanceMeters>1515.5108898498</DistanceMeters>
          </Trackpoint>
          <Trackpoint>
            <Time>2022-09-24T13:48:54.000Z</Time>
            <Position>
              <LatitudeDegrees>43.2684770040214061737060546875</LatitudeDegrees>
              <LongitudeDegrees>-2.944135107100009918212890625</LongitudeDegrees>
            </Position>
            <DistanceMeters>1516.1553923838</DistanceMeters>
          </Trackpoint>
          <Trackpoint>
            <Time>2022-09-24T13:48:55.000Z</Time>
            <Position>
              <LatitudeDegrees>43.26847516000270843505859375</LatitudeDegrees>
              <LongitudeDegrees>-2.944142818450927734375</LongitudeDegrees>
            </Position>
            <DistanceMeters>1516.8137567733</DistanceMeters>
          </Trackpoint>
          <Trackpoint>
            <Time>2022-09-24T13:48:56.000Z</Time>
            <Position>
              <LatitudeDegrees>43.2684733159840106964111328125</LatitudeDegrees>
              <LongitudeDegrees>-2.94415027834475040435791015625</LongitudeDegrees>
            </Position>
            <DistanceMeters>1517.4440926866</DistanceMeters>
          </Trackpoint>
          <Trackpoint>
            <Time>2022-09-24T13:48:57.000Z</Time>
            <Position>
              <LatitudeDegrees>43.26847138814628124237060546875</LatitudeDegrees>
              <LongitudeDegrees>-2.94415798969566822052001953125</LongitudeDegrees>
            </Position>
            <DistanceMeters>1518.102457076</DistanceMeters>
          </Trackpoint>
          <Trackpoint>
            <Time>2022-09-24T13:48:58.000Z</Time>
            <Position>
              <LatitudeDegrees>43.26846937648952007293701171875</LatitudeDegrees>
              <LongitudeDegrees>-2.94416553340852260589599609375</LongitudeDegrees>
            </Position>
            <DistanceMeters>1518.7469596101</DistanceMeters>
          </Trackpoint>
          <Trackpoint>
            <Time>2022-09-24T13:48:59.000Z</Time>
            <Position>
              <LatitudeDegrees>43.26846753247082233428955078125</LatitudeDegrees>
              <LongitudeDegrees>-2.9441731609404087066650390625</LongitudeDegrees>
            </Position>
            <DistanceMeters>1519.3914621442</DistanceMeters>
          </Trackpoint>
          <Trackpoint>
            <Time>2022-09-24T13:49:00.000Z</Time>
            <Position>
              <LatitudeDegrees>43.2684656046330928802490234375</LatitudeDegrees>
              <LongitudeDegrees>-2.94418078847229480743408203125</LongitudeDegrees>
            </Position>
            <DistanceMeters>1520.0498265336</DistanceMeters>
          </Trackpoint>
          <Trackpoint>
            <Time>2022-09-24T13:49:01.000Z</Time>
            <Position>
              <LatitudeDegrees>43.2684635929763317108154296875</LatitudeDegrees>
              <LongitudeDegrees>-2.94418866746127605438232421875</LongitudeDegrees>
            </Position>
            <DistanceMeters>1520.7217668749</DistanceMeters>
          </Trackpoint>
          <Trackpoint>
            <Time>2022-09-24T13:49:02.000Z</Time>
            <Position>
              <LatitudeDegrees>43.26846174895763397216796875</LatitudeDegrees>
              <LongitudeDegrees>-2.94419621117413043975830078125</LongitudeDegrees>
            </Position>
            <DistanceMeters>1521.3662694089</DistanceMeters>
          </Trackpoint>
          <Trackpoint>
            <Time>2022-09-24T13:49:03.000Z</Time>
            <Position>
              <LatitudeDegrees>43.26845982111990451812744140625</LatitudeDegrees>
              <LongitudeDegrees>-2.94420375488698482513427734375</LongitudeDegrees>
            </Position>
            <DistanceMeters>1522.010771943</DistanceMeters>
          </Trackpoint>
          <Trackpoint>
            <Time>2022-09-24T13:49:04.000Z</Time>
            <Position>
              <LatitudeDegrees>43.2684578932821750640869140625</LatitudeDegrees>
              <LongitudeDegrees>-2.94421129859983921051025390625</LongitudeDegrees>
            </Position>
            <DistanceMeters>1522.6552744771</DistanceMeters>
          </Trackpoint>
          <Trackpoint>
            <Time>2022-09-24T13:49:05.000Z</Time>
            <Position>
              <LatitudeDegrees>43.2684558816254138946533203125</LatitudeDegrees>
              <LongitudeDegrees>-2.94421867467463016510009765625</LongitudeDegrees>
            </Position>
            <DistanceMeters>1523.2997770111</DistanceMeters>
          </Trackpoint>
          <Trackpoint>
            <Time>2022-09-24T13:49:06.000Z</Time>
            <Position>
              <LatitudeDegrees>43.26845370233058929443359375</LatitudeDegrees>
              <LongitudeDegrees>-2.94422621838748455047607421875</LongitudeDegrees>
            </Position>
            <DistanceMeters>1523.9581414006</DistanceMeters>
          </Trackpoint>
          <Trackpoint>
            <Time>2022-09-24T13:49:07.000Z</Time>
            <Position>
              <LatitudeDegrees>43.2684515230357646942138671875</LatitudeDegrees>
              <LongitudeDegrees>-2.944233678281307220458984375</LongitudeDegrees>
            </Position>
            <DistanceMeters>1524.6165057901</DistanceMeters>
          </Trackpoint>
          <Trackpoint>
            <Time>2022-09-24T13:49:08.000Z</Time>
            <Position>
              <LatitudeDegrees>43.26844942755997180938720703125</LatitudeDegrees>
              <LongitudeDegrees>-2.9442407190799713134765625</LongitudeDegrees>
            </Position>
            <DistanceMeters>1525.2323492853</DistanceMeters>
          </Trackpoint>
          <Trackpoint>
            <Time>2022-09-24T13:49:09.000Z</Time>
            <Position>
              <LatitudeDegrees>43.2684474997222423553466796875</LatitudeDegrees>
              <LongitudeDegrees>-2.9442472569644451141357421875</LongitudeDegrees>
            </Position>
            <DistanceMeters>1525.8025095715</DistanceMeters>
          </Trackpoint>
          <Trackpoint>
            <Time>2022-09-24T13:49:10.000Z</Time>
            <Position>
              <LatitudeDegrees>43.26844565570354461669921875</LatitudeDegrees>
              <LongitudeDegrees>-2.94425387866795063018798828125</LongitudeDegrees>
            </Position>
            <DistanceMeters>1526.3805345091</DistanceMeters>
          </Trackpoint>
          <Trackpoint>
            <Time>2022-09-24T13:49:11.000Z</Time>
            <Position>
              <LatitudeDegrees>43.2684438116848468780517578125</LatitudeDegrees>
              <LongitudeDegrees>-2.944260500371456146240234375</LongitudeDegrees>
            </Position>
            <DistanceMeters>1526.9506947953</DistanceMeters>
          </Trackpoint>
          <Trackpoint>
            <Time>2022-09-24T13:49:12.000Z</Time>
            <Position>
              <LatitudeDegrees>43.26844205148518085479736328125</LatitudeDegrees>
              <LongitudeDegrees>-2.94426695443689823150634765625</LongitudeDegrees>
            </Position>
            <DistanceMeters>1527.5047909955</DistanceMeters>
          </Trackpoint>
          <Trackpoint>
            <Time>2022-09-24T13:49:13.000Z</Time>
            <Position>
              <LatitudeDegrees>43.26844037510454654693603515625</LatitudeDegrees>
              <LongitudeDegrees>-2.94427298940718173980712890625</LongitudeDegrees>
            </Position>
            <DistanceMeters>1528.0252737458</DistanceMeters>
          </Trackpoint>
          <Trackpoint>
            <Time>2022-09-24T13:49:14.000Z</Time>
            <Position>
              <LatitudeDegrees>43.26843869872391223907470703125</LatitudeDegrees>
              <LongitudeDegrees>-2.94427902437746524810791015625</LongitudeDegrees>
            </Position>
            <DistanceMeters>1528.5628260188</DistanceMeters>
          </Trackpoint>
          <Trackpoint>
            <Time>2022-09-24T13:49:15.000Z</Time>
            <Position>
              <LatitudeDegrees>43.26843735761940479278564453125</LatitudeDegrees>
              <LongitudeDegrees>-2.944284640252590179443359375</LongitudeDegrees>
            </Position>
            <DistanceMeters>1529.0473690897</DistanceMeters>
          </Trackpoint>
          <Trackpoint>
            <Time>2022-09-24T13:49:16.000Z</Time>
            <Position>
              <LatitudeDegrees>43.26843601651489734649658203125</LatitudeDegrees>
              <LongitudeDegrees>-2.9442901723086833953857421875</LongitudeDegrees>
            </Position>
            <DistanceMeters>1529.5129030139</DistanceMeters>
          </Trackpoint>
          <Trackpoint>
            <Time>2022-09-24T13:49:17.000Z</Time>
            <Position>
              <LatitudeDegrees>43.268434591591358184814453125</LatitudeDegrees>
              <LongitudeDegrees>-2.94429528526961803436279296875</LongitudeDegrees>
            </Position>
            <DistanceMeters>1529.9586178126</DistanceMeters>
          </Trackpoint>
          <Trackpoint>
            <Time>2022-09-24T13:49:18.000Z</Time>
            <Position>
              <LatitudeDegrees>43.26843299902975559234619140625</LatitudeDegrees>
              <LongitudeDegrees>-2.94430048204958438873291015625</LongitudeDegrees>
            </Position>
            <DistanceMeters>1530.414349925</DistanceMeters>
          </Trackpoint>
          <Trackpoint>
            <Time>2022-09-24T13:49:19.000Z</Time>
            <Position>
              <LatitudeDegrees>43.268431238830089569091796875</LatitudeDegrees>
              <LongitudeDegrees>-2.9443052597343921661376953125</LongitudeDegrees>
            </Position>
            <DistanceMeters>1530.839322311</DistanceMeters>
          </Trackpoint>
          <Trackpoint>
            <Time>2022-09-24T13:49:20.000Z</Time>
            <Position>
              <LatitudeDegrees>43.2684293948113918304443359375</LatitudeDegrees>
              <LongitudeDegrees>-2.94431003741919994354248046875</LongitudeDegrees>
            </Position>
            <DistanceMeters>1531.264294697</DistanceMeters>
          </Trackpoint>
          <Trackpoint>
            <Time>2022-09-24T13:49:21.000Z</Time>
            <Position>
              <LatitudeDegrees>43.26842729933559894561767578125</LatitudeDegrees>
              <LongitudeDegrees>-2.94431473128497600555419921875</LongitudeDegrees>
            </Position>
            <DistanceMeters>1531.7100094957</DistanceMeters>
          </Trackpoint>
          <Trackpoint>
            <Time>2022-09-24T13:49:22.000Z</Time>
            <Position>
              <LatitudeDegrees>43.268425203859806060791015625</LatitudeDegrees>
              <LongitudeDegrees>-2.94431959278881549835205078125</LongitudeDegrees>
            </Position>
            <DistanceMeters>1532.165741608</DistanceMeters>
          </Trackpoint>
          <Trackpoint>
            <Time>2022-09-24T13:49:23.000Z</Time>
            <Position>
              <LatitudeDegrees>43.26842327602207660675048828125</LatitudeDegrees>
              <LongitudeDegrees>-2.9443243704736232757568359375</LongitudeDegrees>
            </Position>
            <DistanceMeters>1532.590713994</DistanceMeters>
          </Trackpoint>
          <Trackpoint>
            <Time>2022-09-24T13:49:24.000Z</Time>
            <Position>
              <LatitudeDegrees>43.26842126436531543731689453125</LatitudeDegrees>
              <LongitudeDegrees>-2.94432948343455791473388671875</LongitudeDegrees>
            </Position>
            <DistanceMeters>1533.0562479183</DistanceMeters>
          </Trackpoint>
          <Trackpoint>
            <Time>2022-09-24T13:49:25.000Z</Time>
            <Position>
              <LatitudeDegrees>43.26841925270855426788330078125</LatitudeDegrees>
              <LongitudeDegrees>-2.94433484785258769989013671875</LongitudeDegrees>
            </Position>
            <DistanceMeters>1533.5407909892</DistanceMeters>
          </Trackpoint>
          <Trackpoint>
            <Time>2022-09-24T13:49:26.000Z</Time>
            <Position>
              <LatitudeDegrees>43.26841724105179309844970703125</LatitudeDegrees>
              <LongitudeDegrees>-2.94434037990868091583251953125</LongitudeDegrees>
            </Position>
            <DistanceMeters>1534.0436250975</DistanceMeters>
          </Trackpoint>
          <Trackpoint>
            <Time>2022-09-24T13:49:27.000Z</Time>
            <Position>
              <LatitudeDegrees>43.26841472648084163665771484375</LatitudeDegrees>
              <LongitudeDegrees>-2.9443458281457424163818359375</LongitudeDegrees>
            </Position>
            <DistanceMeters>1534.5641078477</DistanceMeters>
          </Trackpoint>
          <Trackpoint>
            <Time>2022-09-24T13:49:28.000Z</Time>
            <Position>
              <LatitudeDegrees>43.26841204427182674407958984375</LatitudeDegrees>
              <LongitudeDegrees>-2.9443508572876453399658203125</LongitudeDegrees>
            </Position>
            <DistanceMeters>1535.066941956</DistanceMeters>
          </Trackpoint>
          <Trackpoint>
            <Time>2022-09-24T13:49:29.000Z</Time>
            <Position>
              <LatitudeDegrees>43.26840919442474842071533203125</LatitudeDegrees>
              <LongitudeDegrees>-2.9443560540676116943359375</LongitudeDegrees>
            </Position>
            <DistanceMeters>1535.5960283098</DistanceMeters>
          </Trackpoint>
          <Trackpoint>
            <Time>2022-09-24T13:49:30.000Z</Time>
            <Position>
              <LatitudeDegrees>43.26840634457767009735107421875</LatitudeDegrees>
              <LongitudeDegrees>-2.9443612508475780487060546875</LongitudeDegrees>
            </Position>
            <DistanceMeters>1536.1251146636</DistanceMeters>
          </Trackpoint>
          <Trackpoint>
            <Time>2022-09-24T13:49:31.000Z</Time>
            <Position>
              <LatitudeDegrees>43.26840349473059177398681640625</LatitudeDegrees>
              <LongitudeDegrees>-2.9443666152656078338623046875</LongitudeDegrees>
            </Position>
            <DistanceMeters>1536.6626669366</DistanceMeters>
          </Trackpoint>
          <Trackpoint>
            <Time>2022-09-24T13:49:32.000Z</Time>
            <Position>
              <LatitudeDegrees>43.268400728702545166015625</LatitudeDegrees>
              <LongitudeDegrees>-2.94437189586460590362548828125</LongitudeDegrees>
            </Position>
            <DistanceMeters>1537.1831496868</DistanceMeters>
          </Trackpoint>
          <Trackpoint>
            <Time>2022-09-24T13:49:33.000Z</Time>
            <Position>
              <LatitudeDegrees>43.2683980464935302734375</LatitudeDegrees>
              <LongitudeDegrees>-2.944377176463603973388671875</LongitudeDegrees>
            </Position>
            <DistanceMeters>1537.7036324371</DistanceMeters>
          </Trackpoint>
          <Trackpoint>
            <Time>2022-09-24T13:49:34.000Z</Time>
            <Position>
              <LatitudeDegrees>43.26839561574161052703857421875</LatitudeDegrees>
              <LongitudeDegrees>-2.94438212178647518157958984375</LongitudeDegrees>
            </Position>
            <DistanceMeters>1538.188175508</DistanceMeters>
          </Trackpoint>
          <Trackpoint>
            <Time>2022-09-24T13:49:35.000Z</Time>
            <Position>
              <LatitudeDegrees>43.2683931849896907806396484375</LatitudeDegrees>
              <LongitudeDegrees>-2.94438698329031467437744140625</LongitudeDegrees>
            </Position>
            <DistanceMeters>1538.6633090798</DistanceMeters>
          </Trackpoint>
          <Trackpoint>
            <Time>2022-09-24T13:49:36.000Z</Time>
            <Position>
              <LatitudeDegrees>43.26839058659970760345458984375</LatitudeDegrees>
              <LongitudeDegrees>-2.944391928613185882568359375</LongitudeDegrees>
            </Position>
            <DistanceMeters>1539.1478521507</DistanceMeters>
          </Trackpoint>
          <Trackpoint>
            <Time>2022-09-24T13:49:37.000Z</Time>
            <Position>
              <LatitudeDegrees>43.26838798820972442626953125</LatitudeDegrees>
              <LongitudeDegrees>-2.94439695775508880615234375</LongitudeDegrees>
            </Position>
            <DistanceMeters>1539.6595866687</DistanceMeters>
          </Trackpoint>
          <Trackpoint>
            <Time>2022-09-24T13:49:38.000Z</Time>
            <Position>
              <LatitudeDegrees>43.2683854736387729644775390625</LatitudeDegrees>
              <LongitudeDegrees>-2.9444021545350551605224609375</LongitudeDegrees>
            </Position>
            <DistanceMeters>1540.1800694189</DistanceMeters>
          </Trackpoint>
          <Trackpoint>
            <Time>2022-09-24T13:49:39.000Z</Time>
            <Position>
              <LatitudeDegrees>43.26838321052491664886474609375</LatitudeDegrees>
              <LongitudeDegrees>-2.9444071836769580841064453125</LongitudeDegrees>
            </Position>
            <DistanceMeters>1540.6646124898</DistanceMeters>
          </Trackpoint>
          <Trackpoint>
            <Time>2022-09-24T13:49:40.000Z</Time>
            <Position>
              <LatitudeDegrees>43.26838103123009204864501953125</LatitudeDegrees>
              <LongitudeDegrees>-2.9444125480949878692626953125</LongitudeDegrees>
            </Position>
            <DistanceMeters>1541.1674465981</DistanceMeters>
          </Trackpoint>
          <Trackpoint>
            <Time>2022-09-24T13:49:41.000Z</Time>
            <Position>
              <LatitudeDegrees>43.268378935754299163818359375</LatitudeDegrees>
              <LongitudeDegrees>-2.9444177448749542236328125</LongitudeDegrees>
            </Position>
            <DistanceMeters>1541.651989669</DistanceMeters>
          </Trackpoint>
          <Trackpoint>
            <Time>2022-09-24T13:49:42.000Z</Time>
            <Position>
              <LatitudeDegrees>43.268376924097537994384765625</LatitudeDegrees>
              <LongitudeDegrees>-2.9444229416549205780029296875</LongitudeDegrees>
            </Position>
            <DistanceMeters>1542.1365327398</DistanceMeters>
          </Trackpoint>
          <Trackpoint>
            <Time>2022-09-24T13:49:43.000Z</Time>
            <Position>
              <LatitudeDegrees>43.268374912440776824951171875</LatitudeDegrees>
              <LongitudeDegrees>-2.94442805461585521697998046875</LongitudeDegrees>
            </Position>
            <DistanceMeters>1542.6020666641</DistanceMeters>
          </Trackpoint>
          <Trackpoint>
            <Time>2022-09-24T13:49:44.000Z</Time>
            <Position>
              <LatitudeDegrees>43.26837298460304737091064453125</LatitudeDegrees>
              <LongitudeDegrees>-2.94443325139582157135009765625</LongitudeDegrees>
            </Position>
            <DistanceMeters>1543.077200236</DistanceMeters>
          </Trackpoint>
          <Trackpoint>
            <Time>2022-09-24T13:49:45.000Z</Time>
            <Position>
              <LatitudeDegrees>43.26837114058434963226318359375</LatitudeDegrees>
              <LongitudeDegrees>-2.94443844817578792572021484375</LongitudeDegrees>
            </Position>
            <DistanceMeters>1543.5617433069</DistanceMeters>
          </Trackpoint>
          <Trackpoint>
            <Time>2022-09-24T13:49:46.000Z</Time>
            <Position>
              <LatitudeDegrees>43.26836921274662017822265625</LatitudeDegrees>
              <LongitudeDegrees>-2.944443561136722564697265625</LongitudeDegrees>
            </Position>
            <DistanceMeters>1544.0272772311</DistanceMeters>
          </Trackpoint>
          <Trackpoint>
            <Time>2022-09-24T13:49:47.000Z</Time>
            <Position>
              <LatitudeDegrees>43.26836745254695415496826171875</LatitudeDegrees>
              <LongitudeDegrees>-2.9444487579166889190673828125</LongitudeDegrees>
            </Position>
            <DistanceMeters>1544.4928111554</DistanceMeters>
          </Trackpoint>
          <Trackpoint>
            <Time>2022-09-24T13:49:48.000Z</Time>
            <Position>
              <LatitudeDegrees>43.2683656923472881317138671875</LatitudeDegrees>
              <LongitudeDegrees>-2.9444539546966552734375</LongitudeDegrees>
            </Position>
            <DistanceMeters>1544.9485432677</DistanceMeters>
          </Trackpoint>
          <Trackpoint>
            <Time>2022-09-24T13:49:49.000Z</Time>
            <Position>
              <LatitudeDegrees>43.26836393214762210845947265625</LatitudeDegrees>
              <LongitudeDegrees>-2.94445923529565334320068359375</LongitudeDegrees>
            </Position>
            <DistanceMeters>1545.414077192</DistanceMeters>
          </Trackpoint>
          <Trackpoint>
            <Time>2022-09-24T13:49:50.000Z</Time>
            <Position>
              <LatitudeDegrees>43.26836208812892436981201171875</LatitudeDegrees>
              <LongitudeDegrees>-2.94446459971368312835693359375</LongitudeDegrees>
            </Position>
            <DistanceMeters>1545.8986202629</DistanceMeters>
          </Trackpoint>
          <Trackpoint>
            <Time>2022-09-24T13:49:51.000Z</Time>
            <Position>
              <LatitudeDegrees>43.26836024411022663116455078125</LatitudeDegrees>
              <LongitudeDegrees>-2.94447004795074462890625</LongitudeDegrees>
            </Position>
            <DistanceMeters>1546.3831633338</DistanceMeters>
          </Trackpoint>
          <Trackpoint>
            <Time>2022-09-24T13:49:52.000Z</Time>
            <Position>
              <LatitudeDegrees>43.26835823245346546173095703125</LatitudeDegrees>
              <LongitudeDegrees>-2.94447549618780612945556640625</LongitudeDegrees>
            </Position>
            <DistanceMeters>1546.8769366259</DistanceMeters>
          </Trackpoint>
          <Trackpoint>
            <Time>2022-09-24T13:49:53.000Z</Time>
            <Position>
              <LatitudeDegrees>43.26835622079670429229736328125</LatitudeDegrees>
              <LongitudeDegrees>-2.9444809444248676300048828125</LongitudeDegrees>
            </Position>
            <DistanceMeters>1547.3797707342</DistanceMeters>
          </Trackpoint>
          <Trackpoint>
            <Time>2022-09-24T13:49:54.000Z</Time>
            <Position>
              <LatitudeDegrees>43.26835404150187969207763671875</LatitudeDegrees>
              <LongitudeDegrees>-2.94448639266192913055419921875</LongitudeDegrees>
            </Position>
            <DistanceMeters>1547.8915052521</DistanceMeters>
          </Trackpoint>
          <Trackpoint>
            <Time>2022-09-24T13:49:55.000Z</Time>
            <Position>
              <LatitudeDegrees>43.26835177838802337646484375</LatitudeDegrees>
              <LongitudeDegrees>-2.944491840898990631103515625</LongitudeDegrees>
            </Position>
            <DistanceMeters>1548.3943393604</DistanceMeters>
          </Trackpoint>
          <Trackpoint>
            <Time>2022-09-24T13:49:56.000Z</Time>
            <Position>
              <LatitudeDegrees>43.268349431455135345458984375</LatitudeDegrees>
              <LongitudeDegrees>-2.94449712149798870086669921875</LongitudeDegrees>
            </Position>
            <DistanceMeters>1548.8788824313</DistanceMeters>
          </Trackpoint>
          <Trackpoint>
            <Time>2022-09-24T13:49:57.000Z</Time>
            <Position>
              <LatitudeDegrees>43.26834716834127902984619140625</LatitudeDegrees>
              <LongitudeDegrees>-2.94450248591601848602294921875</LongitudeDegrees>
            </Position>
            <DistanceMeters>1549.3817165395</DistanceMeters>
          </Trackpoint>
          <Trackpoint>
            <Time>2022-09-24T13:49:58.000Z</Time>
            <Position>
              <LatitudeDegrees>43.268344737589359283447265625</LatitudeDegrees>
              <LongitudeDegrees>-2.94450801797211170196533203125</LongitudeDegrees>
            </Position>
            <DistanceMeters>1549.9021992898</DistanceMeters>
          </Trackpoint>
          <Trackpoint>
            <Time>2022-09-24T13:49:59.000Z</Time>
            <Position>
              <LatitudeDegrees>43.26834239065647125244140625</LatitudeDegrees>
              <LongitudeDegrees>-2.94451363384723663330078125</LongitudeDegrees>
            </Position>
            <DistanceMeters>1550.4312856436</DistanceMeters>
          </Trackpoint>
          <Trackpoint>
            <Time>2022-09-24T13:50:00.000Z</Time>
            <Position>
              <LatitudeDegrees>43.2683402113616466522216796875</LatitudeDegrees>
              <LongitudeDegrees>-2.94451908208429813385009765625</LongitudeDegrees>
            </Position>
            <DistanceMeters>1550.9517683938</DistanceMeters>
          </Trackpoint>
          <Trackpoint>
            <Time>2022-09-24T13:50:01.000Z</Time>
            <Position>
              <LatitudeDegrees>43.2683378644287586212158203125</LatitudeDegrees>
              <LongitudeDegrees>-2.9445245303213596343994140625</LongitudeDegrees>
            </Position>
            <DistanceMeters>1551.4635029118</DistanceMeters>
          </Trackpoint>
          <Trackpoint>
            <Time>2022-09-24T13:50:02.000Z</Time>
            <Position>
              <LatitudeDegrees>43.26833568513393402099609375</LatitudeDegrees>
              <LongitudeDegrees>-2.944530062377452850341796875</LongitudeDegrees>
            </Position>
            <DistanceMeters>1551.9663370201</DistanceMeters>
          </Trackpoint>
          <Trackpoint>
            <Time>2022-09-24T13:50:03.000Z</Time>
            <Position>
              <LatitudeDegrees>43.26833358965814113616943359375</LatitudeDegrees>
              <LongitudeDegrees>-2.9445355944335460662841796875</LongitudeDegrees>
            </Position>
            <DistanceMeters>1552.4691711283</DistanceMeters>
          </Trackpoint>
          <Trackpoint>
            <Time>2022-09-24T13:50:04.000Z</Time>
            <Position>
              <LatitudeDegrees>43.268331326544284820556640625</LatitudeDegrees>
              <LongitudeDegrees>-2.944541461765766143798828125</LongitudeDegrees>
            </Position>
            <DistanceMeters>1553.0067234013</DistanceMeters>
          </Trackpoint>
          <Trackpoint>
            <Time>2022-09-24T13:50:05.000Z</Time>
            <Position>
              <LatitudeDegrees>43.26832906343042850494384765625</LatitudeDegrees>
              <LongitudeDegrees>-2.94454674236476421356201171875</LongitudeDegrees>
            </Position>
            <DistanceMeters>1553.5004966934</DistanceMeters>
          </Trackpoint>
          <Trackpoint>
            <Time>2022-09-24T13:50:06.000Z</Time>
            <Position>
              <LatitudeDegrees>43.2683269679546356201171875</LatitudeDegrees>
              <LongitudeDegrees>-2.9445516876876354217529296875</LongitudeDegrees>
            </Position>
            <DistanceMeters>1553.9660306177</DistanceMeters>
          </Trackpoint>
          <Trackpoint>
            <Time>2022-09-24T13:50:07.000Z</Time>
            <Position>
              <LatitudeDegrees>43.26832487247884273529052734375</LatitudeDegrees>
              <LongitudeDegrees>-2.94455680064857006072998046875</LongitudeDegrees>
            </Position>
            <DistanceMeters>1554.4505736886</DistanceMeters>
          </Trackpoint>
          <Trackpoint>
            <Time>2022-09-24T13:50:08.000Z</Time>
            <Position>
              <LatitudeDegrees>43.2683231122791767120361328125</LatitudeDegrees>
              <LongitudeDegrees>-2.9445625841617584228515625</LongitudeDegrees>
            </Position>
            <DistanceMeters>1554.9534077968</DistanceMeters>
          </Trackpoint>
          <Trackpoint>
            <Time>2022-09-24T13:50:09.000Z</Time>
            <Position>
              <LatitudeDegrees>43.26832135207951068878173828125</LatitudeDegrees>
              <LongitudeDegrees>-2.94456870295107364654541015625</LongitudeDegrees>
            </Position>
            <DistanceMeters>1555.4909600698</DistanceMeters>
          </Trackpoint>
          <Trackpoint>
            <Time>2022-09-24T13:50:10.000Z</Time>
            <Position>
              <LatitudeDegrees>43.26831934042274951934814453125</LatitudeDegrees>
              <LongitudeDegrees>-2.944574989378452301025390625</LongitudeDegrees>
            </Position>
            <DistanceMeters>1556.0531456936</DistanceMeters>
          </Trackpoint>
          <Trackpoint>
            <Time>2022-09-24T13:50:11.000Z</Time>
            <Position>
              <LatitudeDegrees>43.268317244946956634521484375</LatitudeDegrees>
              <LongitudeDegrees>-2.9445811919867992401123046875</LongitudeDegrees>
            </Position>
            <DistanceMeters>1556.6072418938</DistanceMeters>
          </Trackpoint>
          <Trackpoint>
            <Time>2022-09-24T13:50:12.000Z</Time>
            <Position>
              <LatitudeDegrees>43.268314898014068603515625</LatitudeDegrees>
              <LongitudeDegrees>-2.94458764605224132537841796875</LongitudeDegrees>
            </Position>
            <DistanceMeters>1557.1930259025</DistanceMeters>
          </Trackpoint>
          <Trackpoint>
            <Time>2022-09-24T13:50:13.000Z</Time>
            <Position>
              <LatitudeDegrees>43.268312551081180572509765625</LatitudeDegrees>
              <LongitudeDegrees>-2.9445935972034931182861328125</LongitudeDegrees>
            </Position>
            <DistanceMeters>1557.7471221027</DistanceMeters>
          </Trackpoint>
          <Trackpoint>
            <Time>2022-09-24T13:50:14.000Z</Time>
            <Position>
              <LatitudeDegrees>43.26831028796732425689697265625</LatitudeDegrees>
              <LongitudeDegrees>-2.9445996321737766265869140625</LongitudeDegrees>
            </Position>
            <DistanceMeters>1558.3012183029</DistanceMeters>
          </Trackpoint>
          <Trackpoint>
            <Time>2022-09-24T13:50:15.000Z</Time>
            <Position>
              <LatitudeDegrees>43.2683083601295948028564453125</LatitudeDegrees>
              <LongitudeDegrees>-2.9446056671440601348876953125</LongitudeDegrees>
            </Position>
            <DistanceMeters>1558.8387705759</DistanceMeters>
          </Trackpoint>
          <Trackpoint>
            <Time>2022-09-24T13:50:16.000Z</Time>
            <Position>
              <LatitudeDegrees>43.26830659992992877960205078125</LatitudeDegrees>
              <LongitudeDegrees>-2.94461161829531192779541015625</LongitudeDegrees>
            </Position>
            <DistanceMeters>1559.3592533262</DistanceMeters>
          </Trackpoint>
          <Trackpoint>
            <Time>2022-09-24T13:50:17.000Z</Time>
            <Position>
              <LatitudeDegrees>43.26830483973026275634765625</LatitudeDegrees>
              <LongitudeDegrees>-2.9446174018085002899169921875</LongitudeDegrees>
            </Position>
            <DistanceMeters>1559.8620874345</DistanceMeters>
          </Trackpoint>
          <Trackpoint>
            <Time>2022-09-24T13:50:18.000Z</Time>
            <Position>
              <LatitudeDegrees>43.2683026604354381561279296875</LatitudeDegrees>
              <LongitudeDegrees>-2.9446227662265300750732421875</LongitudeDegrees>
            </Position>
            <DistanceMeters>1560.3649215427</DistanceMeters>
          </Trackpoint>
          <Trackpoint>
            <Time>2022-09-24T13:50:19.000Z</Time>
            <Position>
              <LatitudeDegrees>43.2683003135025501251220703125</LatitudeDegrees>
              <LongitudeDegrees>-2.94462787918746471405029296875</LongitudeDegrees>
            </Position>
            <DistanceMeters>1560.8586948348</DistanceMeters>
          </Trackpoint>
          <Trackpoint>
            <Time>2022-09-24T13:50:20.000Z</Time>
            <Position>
              <LatitudeDegrees>43.26829771511256694793701171875</LatitudeDegrees>
              <LongitudeDegrees>-2.9446328245103359222412109375</LongitudeDegrees>
            </Position>
            <DistanceMeters>1561.3615289431</DistanceMeters>
          </Trackpoint>
          <Trackpoint>
            <Time>2022-09-24T13:50:21.000Z</Time>
            <Position>
              <LatitudeDegrees>43.26829503290355205535888671875</LatitudeDegrees>
              <LongitudeDegrees>-2.94463760219514369964599609375</LongitudeDegrees>
            </Position>
            <DistanceMeters>1561.846072014</DistanceMeters>
          </Trackpoint>
          <Trackpoint>
            <Time>2022-09-24T13:50:22.000Z</Time>
            <Position>
              <LatitudeDegrees>43.2682922668755054473876953125</LatitudeDegrees>
              <LongitudeDegrees>-2.94464237987995147705078125</LongitudeDegrees>
            </Position>
            <DistanceMeters>1562.3306150848</DistanceMeters>
          </Trackpoint>
          <Trackpoint>
            <Time>2022-09-24T13:50:23.000Z</Time>
            <Position>
              <LatitudeDegrees>43.2682892493903636932373046875</LatitudeDegrees>
              <LongitudeDegrees>-2.94464698992669582366943359375</LongitudeDegrees>
            </Position>
            <DistanceMeters>1562.8334491931</DistanceMeters>
          </Trackpoint>
          <Trackpoint>
            <Time>2022-09-24T13:50:24.000Z</Time>
            <Position>
              <LatitudeDegrees>43.2682862319052219390869140625</LatitudeDegrees>
              <LongitudeDegrees>-2.944652102887630462646484375</LongitudeDegrees>
            </Position>
            <DistanceMeters>1563.3710014661</DistanceMeters>
          </Trackpoint>
          <Trackpoint>
            <Time>2022-09-24T13:50:25.000Z</Time>
            <Position>
              <LatitudeDegrees>43.26828296296298503875732421875</LatitudeDegrees>
              <LongitudeDegrees>-2.94465989805757999420166015625</LongitudeDegrees>
            </Position>
            <DistanceMeters>1564.1009155091</DistanceMeters>
          </Trackpoint>
          <Trackpoint>
            <Time>2022-09-24T13:50:26.000Z</Time>
            <Position>
              <LatitudeDegrees>43.26828061603009700775146484375</LatitudeDegrees>
              <LongitudeDegrees>-2.94466962106525897979736328125</LongitudeDegrees>
            </Position>
            <DistanceMeters>1564.9347715436</DistanceMeters>
          </Trackpoint>
          <Trackpoint>
            <Time>2022-09-24T13:50:27.000Z</Time>
            <Position>
              <LatitudeDegrees>43.2682781852781772613525390625</LatitudeDegrees>
              <LongitudeDegrees>-2.94467926025390625</LongitudeDegrees>
            </Position>
            <DistanceMeters>1565.7577270304</DistanceMeters>
          </Trackpoint>
          <Trackpoint>
            <Time>2022-09-24T13:50:28.000Z</Time>
            <Position>
              <LatitudeDegrees>43.26827592216432094573974609375</LatitudeDegrees>
              <LongitudeDegrees>-2.9446878097951412200927734375</LongitudeDegrees>
            </Position>
            <DistanceMeters>1566.4938007948</DistanceMeters>
          </Trackpoint>
          <Trackpoint>
            <Time>2022-09-24T13:50:29.000Z</Time>
            <Position>
              <LatitudeDegrees>43.26827374286949634552001953125</LatitudeDegrees>
              <LongitudeDegrees>-2.9446965269744396209716796875</LongitudeDegrees>
            </Position>
            <DistanceMeters>1567.2359831599</DistanceMeters>
          </Trackpoint>
          <Trackpoint>
            <Time>2022-09-24T13:50:30.000Z</Time>
            <Position>
              <LatitudeDegrees>43.2682718150317668914794921875</LatitudeDegrees>
              <LongitudeDegrees>-2.9447045736014842987060546875</LongitudeDegrees>
            </Position>
            <DistanceMeters>1567.9146096394</DistanceMeters>
          </Trackpoint>
          <Trackpoint>
            <Time>2022-09-24T13:50:31.000Z</Time>
            <Position>
              <LatitudeDegrees>43.26827005483210086822509765625</LatitudeDegrees>
              <LongitudeDegrees>-2.94471236877143383026123046875</LongitudeDegrees>
            </Position>
            <DistanceMeters>1568.5729740288</DistanceMeters>
          </Trackpoint>
          <Trackpoint>
            <Time>2022-09-24T13:50:32.000Z</Time>
            <Position>
              <LatitudeDegrees>43.2682681269943714141845703125</LatitudeDegrees>
              <LongitudeDegrees>-2.94472041539847850799560546875</LongitudeDegrees>
            </Position>
            <DistanceMeters>1569.2582214112</DistanceMeters>
          </Trackpoint>
          <Trackpoint>
            <Time>2022-09-24T13:50:33.000Z</Time>
            <Position>
              <LatitudeDegrees>43.26826603151857852935791015625</LatitudeDegrees>
              <LongitudeDegrees>-2.94472812674939632415771484375</LongitudeDegrees>
            </Position>
            <DistanceMeters>1569.9165858007</DistanceMeters>
          </Trackpoint>
          <Trackpoint>
            <Time>2022-09-24T13:50:34.000Z</Time>
            <Position>
              <LatitudeDegrees>43.2682641036808490753173828125</LatitudeDegrees>
              <LongitudeDegrees>-2.944735251367092132568359375</LongitudeDegrees>
            </Position>
            <DistanceMeters>1570.532429296</DistanceMeters>
          </Trackpoint>
          <Trackpoint>
            <Time>2022-09-24T13:50:35.000Z</Time>
            <Position>
              <LatitudeDegrees>43.26826200820505619049072265625</LatitudeDegrees>
              <LongitudeDegrees>-2.94474254362285137176513671875</LongitudeDegrees>
            </Position>
            <DistanceMeters>1571.17693183</DistanceMeters>
          </Trackpoint>
          <Trackpoint>
            <Time>2022-09-24T13:50:36.000Z</Time>
            <Position>
              <LatitudeDegrees>43.26825999654829502105712890625</LatitudeDegrees>
              <LongitudeDegrees>-2.94474975205957889556884765625</LongitudeDegrees>
            </Position>
            <DistanceMeters>1571.8072677433</DistanceMeters>
          </Trackpoint>
          <Trackpoint>
            <Time>2022-09-24T13:50:37.000Z</Time>
            <Position>
              <LatitudeDegrees>43.2682577334344387054443359375</LatitudeDegrees>
              <LongitudeDegrees>-2.94475696049630641937255859375</LongitudeDegrees>
            </Position>
            <DistanceMeters>1572.4376036565</DistanceMeters>
          </Trackpoint>
          <Trackpoint>
            <Time>2022-09-24T13:50:38.000Z</Time>
            <Position>
              <LatitudeDegrees>43.26825547032058238983154296875</LatitudeDegrees>
              <LongitudeDegrees>-2.944764085114002227783203125</LongitudeDegrees>
            </Position>
            <DistanceMeters>1573.0679395698</DistanceMeters>
          </Trackpoint>
          <Trackpoint>
            <Time>2022-09-24T13:50:39.000Z</Time>
            <Position>
              <LatitudeDegrees>43.26825329102575778961181640625</LatitudeDegrees>
              <LongitudeDegrees>-2.94477137736976146697998046875</LongitudeDegrees>
            </Position>
            <DistanceMeters>1573.7053981488</DistanceMeters>
          </Trackpoint>
          <Trackpoint>
            <Time>2022-09-24T13:50:40.000Z</Time>
            <Position>
              <LatitudeDegrees>43.26825111173093318939208984375</LatitudeDegrees>
              <LongitudeDegrees>-2.94477858580648899078369140625</LongitudeDegrees>
            </Position>
            <DistanceMeters>1574.3357340621</DistanceMeters>
          </Trackpoint>
          <Trackpoint>
            <Time>2022-09-24T13:50:41.000Z</Time>
            <Position>
              <LatitudeDegrees>43.26824893243610858917236328125</LatitudeDegrees>
              <LongitudeDegrees>-2.9447860457003116607666015625</LongitudeDegrees>
            </Position>
            <DistanceMeters>1574.9802365961</DistanceMeters>
          </Trackpoint>
          <Trackpoint>
            <Time>2022-09-24T13:50:42.000Z</Time>
            <Position>
              <LatitudeDegrees>43.268246836960315704345703125</LatitudeDegrees>
              <LongitudeDegrees>-2.9447934217751026153564453125</LongitudeDegrees>
            </Position>
            <DistanceMeters>1575.6317069277</DistanceMeters>
          </Trackpoint>
          <Trackpoint>
            <Time>2022-09-24T13:50:43.000Z</Time>
            <Position>
              <LatitudeDegrees>43.26824474148452281951904296875</LatitudeDegrees>
              <LongitudeDegrees>-2.9448007978498935699462890625</LongitudeDegrees>
            </Position>
            <DistanceMeters>1576.2831772592</DistanceMeters>
          </Trackpoint>
          <Trackpoint>
            <Time>2022-09-24T13:50:44.000Z</Time>
            <Position>
              <LatitudeDegrees>43.2682426460087299346923828125</LatitudeDegrees>
              <LongitudeDegrees>-2.94480809010565280914306640625</LongitudeDegrees>
            </Position>
            <DistanceMeters>1576.9276797933</DistanceMeters>
          </Trackpoint>
          <Trackpoint>
            <Time>2022-09-24T13:50:45.000Z</Time>
            <Position>
              <LatitudeDegrees>43.26824055053293704986572265625</LatitudeDegrees>
              <LongitudeDegrees>-2.94481563381850719451904296875</LongitudeDegrees>
            </Position>
            <DistanceMeters>1577.5860441827</DistanceMeters>
          </Trackpoint>
          <Trackpoint>
            <Time>2022-09-24T13:50:46.000Z</Time>
            <Position>
              <LatitudeDegrees>43.26823853887617588043212890625</LatitudeDegrees>
              <LongitudeDegrees>-2.94482317753136157989501953125</LongitudeDegrees>
            </Position>
            <DistanceMeters>1578.2305467168</DistanceMeters>
          </Trackpoint>
          <Trackpoint>
            <Time>2022-09-24T13:50:47.000Z</Time>
            <Position>
              <LatitudeDegrees>43.26823644340038299560546875</LatitudeDegrees>
              <LongitudeDegrees>-2.944831140339374542236328125</LongitudeDegrees>
            </Position>
            <DistanceMeters>1578.9157940992</DistanceMeters>
          </Trackpoint>
          <Trackpoint>
            <Time>2022-09-24T13:50:48.000Z</Time>
            <Position>
              <LatitudeDegrees>43.26823434792459011077880859375</LatitudeDegrees>
              <LongitudeDegrees>-2.9448388516902923583984375</LongitudeDegrees>
            </Position>
            <DistanceMeters>1579.5877344404</DistanceMeters>
          </Trackpoint>
          <Trackpoint>
            <Time>2022-09-24T13:50:49.000Z</Time>
            <Position>
              <LatitudeDegrees>43.268232084810733795166015625</LatitudeDegrees>
              <LongitudeDegrees>-2.9448460601270198822021484375</LongitudeDegrees>
            </Position>
            <DistanceMeters>1580.2180703537</DistanceMeters>
          </Trackpoint>
          <Trackpoint>
            <Time>2022-09-24T13:50:50.000Z</Time>
            <Position>
              <LatitudeDegrees>43.26822998933494091033935546875</LatitudeDegrees>
              <LongitudeDegrees>-2.9448531009256839752197265625</LongitudeDegrees>
            </Position>
            <DistanceMeters>1580.8265382117</DistanceMeters>
          </Trackpoint>
          <Trackpoint>
            <Time>2022-09-24T13:50:51.000Z</Time>
            <Position>
              <LatitudeDegrees>43.26822831295430660247802734375</LatitudeDegrees>
              <LongitudeDegrees>-2.94485989026725292205810546875</LongitudeDegrees>
            </Position>
            <DistanceMeters>1581.3966984979</DistanceMeters>
          </Trackpoint>
          <Trackpoint>
            <Time>2022-09-24T13:50:52.000Z</Time>
            <Position>
              <LatitudeDegrees>43.268226720392704010009765625</LatitudeDegrees>
              <LongitudeDegrees>-2.94486659578979015350341796875</LongitudeDegrees>
            </Position>
            <DistanceMeters>1581.9668587841</DistanceMeters>
          </Trackpoint>
          <Trackpoint>
            <Time>2022-09-24T13:50:53.000Z</Time>
            <Position>
              <LatitudeDegrees>43.268225379288196563720703125</LatitudeDegrees>
              <LongitudeDegrees>-2.9448732174932956695556640625</LongitudeDegrees>
            </Position>
            <DistanceMeters>1582.5209549843</DistanceMeters>
          </Trackpoint>
          <Trackpoint>
            <Time>2022-09-24T13:50:54.000Z</Time>
            <Position>
              <LatitudeDegrees>43.268224038183689117431640625</LatitudeDegrees>
              <LongitudeDegrees>-2.94487983919680118560791015625</LongitudeDegrees>
            </Position>
            <DistanceMeters>1583.0750511845</DistanceMeters>
          </Trackpoint>
          <Trackpoint>
            <Time>2022-09-24T13:50:55.000Z</Time>
            <Position>
              <LatitudeDegrees>43.26822261326014995574951171875</LatitudeDegrees>
              <LongitudeDegrees>-2.94488646090030670166015625</LongitudeDegrees>
            </Position>
            <DistanceMeters>1583.6372368083</DistanceMeters>
          </Trackpoint>
          <Trackpoint>
            <Time>2022-09-24T13:50:56.000Z</Time>
            <Position>
              <LatitudeDegrees>43.2682211883366107940673828125</LatitudeDegrees>
              <LongitudeDegrees>-2.94489308260381221771240234375</LongitudeDegrees>
            </Position>
            <DistanceMeters>1584.199422432</DistanceMeters>
          </Trackpoint>
          <Trackpoint>
            <Time>2022-09-24T13:50:57.000Z</Time>
            <Position>
              <LatitudeDegrees>43.26821942813694477081298828125</LatitudeDegrees>
              <LongitudeDegrees>-2.94489911757409572601318359375</LongitudeDegrees>
            </Position>
            <DistanceMeters>1584.7285087858</DistanceMeters>
          </Trackpoint>
          <Trackpoint>
            <Time>2022-09-24T13:50:58.000Z</Time>
            <Position>
              <LatitudeDegrees>43.26821741648018360137939453125</LatitudeDegrees>
              <LongitudeDegrees>-2.9449050687253475189208984375</LongitudeDegrees>
            </Position>
            <DistanceMeters>1585.2575951396</DistanceMeters>
          </Trackpoint>
          <Trackpoint>
            <Time>2022-09-24T13:50:59.000Z</Time>
            <Position>
              <LatitudeDegrees>43.26821557246148586273193359375</LatitudeDegrees>
              <LongitudeDegrees>-2.94491068460047245025634765625</LongitudeDegrees>
            </Position>
            <DistanceMeters>1585.7604292479</DistanceMeters>
          </Trackpoint>
          <Trackpoint>
            <Time>2022-09-24T13:51:00.000Z</Time>
            <Position>
              <LatitudeDegrees>43.2682138122618198394775390625</LatitudeDegrees>
              <LongitudeDegrees>-2.9449161328375339508056640625</LongitudeDegrees>
            </Position>
            <DistanceMeters>1586.25420254</DistanceMeters>
          </Trackpoint>
          <Trackpoint>
            <Time>2022-09-24T13:51:01.000Z</Time>
            <Position>
              <LatitudeDegrees>43.2682121358811855316162109375</LatitudeDegrees>
              <LongitudeDegrees>-2.94492141343653202056884765625</LongitudeDegrees>
            </Position>
            <DistanceMeters>1586.7197364642</DistanceMeters>
          </Trackpoint>
          <Trackpoint>
            <Time>2022-09-24T13:51:02.000Z</Time>
            <Position>
              <LatitudeDegrees>43.2682104595005512237548828125</LatitudeDegrees>
              <LongitudeDegrees>-2.94492694549262523651123046875</LongitudeDegrees>
            </Position>
            <DistanceMeters>1587.1948700361</DistanceMeters>
          </Trackpoint>
          <Trackpoint>
            <Time>2022-09-24T13:51:03.000Z</Time>
            <Position>
              <LatitudeDegrees>43.26820886693894863128662109375</LatitudeDegrees>
              <LongitudeDegrees>-2.94493230991065502166748046875</LongitudeDegrees>
            </Position>
            <DistanceMeters>1587.6700036079</DistanceMeters>
          </Trackpoint>
          <Trackpoint>
            <Time>2022-09-24T13:51:04.000Z</Time>
            <Position>
              <LatitudeDegrees>43.268207274377346038818359375</LatitudeDegrees>
              <LongitudeDegrees>-2.944937758147716522216796875</LongitudeDegrees>
            </Position>
            <DistanceMeters>1588.1545466788</DistanceMeters>
          </Trackpoint>
          <Trackpoint>
            <Time>2022-09-24T13:51:05.000Z</Time>
            <Position>
              <LatitudeDegrees>43.26820584945380687713623046875</LatitudeDegrees>
              <LongitudeDegrees>-2.94494303874671459197998046875</LongitudeDegrees>
            </Position>
            <DistanceMeters>1588.6102787912</DistanceMeters>
          </Trackpoint>
          <Trackpoint>
            <Time>2022-09-24T13:51:06.000Z</Time>
            <Position>
              <LatitudeDegrees>43.26820425689220428466796875</LatitudeDegrees>
              <LongitudeDegrees>-2.94494840316474437713623046875</LongitudeDegrees>
            </Position>
            <DistanceMeters>1589.085412363</DistanceMeters>
          </Trackpoint>
          <Trackpoint>
            <Time>2022-09-24T13:51:07.000Z</Time>
            <Position>
              <LatitudeDegrees>43.268202580511569976806640625</LatitudeDegrees>
              <LongitudeDegrees>-2.94495376758277416229248046875</LongitudeDegrees>
            </Position>
            <DistanceMeters>1589.5699554339</DistanceMeters>
          </Trackpoint>
          <Trackpoint>
            <Time>2022-09-24T13:51:08.000Z</Time>
            <Position>
              <LatitudeDegrees>43.2682009041309356689453125</LatitudeDegrees>
              <LongitudeDegrees>-2.9449597187340259552001953125</LongitudeDegrees>
            </Position>
            <DistanceMeters>1590.0904381841</DistanceMeters>
          </Trackpoint>
          <Trackpoint>
            <Time>2022-09-24T13:51:09.000Z</Time>
            <Position>
              <LatitudeDegrees>43.26819914393126964569091796875</LatitudeDegrees>
              <LongitudeDegrees>-2.944965250790119171142578125</LongitudeDegrees>
            </Position>
            <DistanceMeters>1590.574981255</DistanceMeters>
          </Trackpoint>
          <Trackpoint>
            <Time>2022-09-24T13:51:10.000Z</Time>
            <Position>
              <LatitudeDegrees>43.26819729991257190704345703125</LatitudeDegrees>
              <LongitudeDegrees>-2.94497069902718067169189453125</LongitudeDegrees>
            </Position>
            <DistanceMeters>1591.0595243259</DistanceMeters>
          </Trackpoint>
          <Trackpoint>
            <Time>2022-09-24T13:51:11.000Z</Time>
            <Position>
              <LatitudeDegrees>43.2681953720748424530029296875</LatitudeDegrees>
              <LongitudeDegrees>-2.94497606344521045684814453125</LongitudeDegrees>
            </Position>
            <DistanceMeters>1591.5440673968</DistanceMeters>
          </Trackpoint>
          <Trackpoint>
            <Time>2022-09-24T13:51:12.000Z</Time>
            <Position>
              <LatitudeDegrees>43.26819361187517642974853515625</LatitudeDegrees>
              <LongitudeDegrees>-2.944981344044208526611328125</LongitudeDegrees>
            </Position>
            <DistanceMeters>1592.0096013211</DistanceMeters>
          </Trackpoint>
          <Trackpoint>
            <Time>2022-09-24T13:51:13.000Z</Time>
            <Position>
              <LatitudeDegrees>43.268191851675510406494140625</LatitudeDegrees>
              <LongitudeDegrees>-2.9449865408241748809814453125</LongitudeDegrees>
            </Position>
            <DistanceMeters>1592.4751352454</DistanceMeters>
          </Trackpoint>
          <Trackpoint>
            <Time>2022-09-24T13:51:14.000Z</Time>
            <Position>
              <LatitudeDegrees>43.26819009147584438323974609375</LatitudeDegrees>
              <LongitudeDegrees>-2.9449919052422046661376953125</LongitudeDegrees>
            </Position>
            <DistanceMeters>1592.9596783162</DistanceMeters>
          </Trackpoint>
          <Trackpoint>
            <Time>2022-09-24T13:51:15.000Z</Time>
            <Position>
              <LatitudeDegrees>43.2681883312761783599853515625</LatitudeDegrees>
              <LongitudeDegrees>-2.9449972696602344512939453125</LongitudeDegrees>
            </Position>
            <DistanceMeters>1593.4348118881</DistanceMeters>
          </Trackpoint>
          <Trackpoint>
            <Time>2022-09-24T13:51:16.000Z</Time>
            <Position>
              <LatitudeDegrees>43.26818657107651233673095703125</LatitudeDegrees>
              <LongitudeDegrees>-2.945002131164073944091796875</LongitudeDegrees>
            </Position>
            <DistanceMeters>1593.8702789997</DistanceMeters>
          </Trackpoint>
          <Trackpoint>
            <Time>2022-09-24T13:51:17.000Z</Time>
            <Position>
              <LatitudeDegrees>43.2681848108768463134765625</LatitudeDegrees>
              <LongitudeDegrees>-2.94500724412500858306884765625</LongitudeDegrees>
            </Position>
            <DistanceMeters>1594.3159937984</DistanceMeters>
          </Trackpoint>
          <Trackpoint>
            <Time>2022-09-24T13:51:18.000Z</Time>
            <Position>
              <LatitudeDegrees>43.2681829668581485748291015625</LatitudeDegrees>
              <LongitudeDegrees>-2.94501260854303836822509765625</LongitudeDegrees>
            </Position>
            <DistanceMeters>1594.8005368693</DistanceMeters>
          </Trackpoint>
          <Trackpoint>
            <Time>2022-09-24T13:51:19.000Z</Time>
            <Position>
              <LatitudeDegrees>43.268181122839450836181640625</LatitudeDegrees>
              <LongitudeDegrees>-2.94501797296106815338134765625</LongitudeDegrees>
            </Position>
            <DistanceMeters>1595.2850799402</DistanceMeters>
          </Trackpoint>
          <Trackpoint>
            <Time>2022-09-24T13:51:20.000Z</Time>
            <Position>
              <LatitudeDegrees>43.26817919500172138214111328125</LatitudeDegrees>
              <LongitudeDegrees>-2.9450230859220027923583984375</LongitudeDegrees>
            </Position>
            <DistanceMeters>1595.7506138645</DistanceMeters>
          </Trackpoint>
          <Trackpoint>
            <Time>2022-09-24T13:51:21.000Z</Time>
            <Position>
              <LatitudeDegrees>43.2681772671639919281005859375</LatitudeDegrees>
              <LongitudeDegrees>-2.9450281150639057159423828125</LongitudeDegrees>
            </Position>
            <DistanceMeters>1596.2161477888</DistanceMeters>
          </Trackpoint>
          <Trackpoint>
            <Time>2022-09-24T13:51:22.000Z</Time>
            <Position>
              <LatitudeDegrees>43.268175423145294189453125</LatitudeDegrees>
              <LongitudeDegrees>-2.9450331442058086395263671875</LongitudeDegrees>
            </Position>
            <DistanceMeters>1596.681681713</DistanceMeters>
          </Trackpoint>
          <Trackpoint>
            <Time>2022-09-24T13:51:23.000Z</Time>
            <Position>
              <LatitudeDegrees>43.2681735791265964508056640625</LatitudeDegrees>
              <LongitudeDegrees>-2.945038340985774993896484375</LongitudeDegrees>
            </Position>
            <DistanceMeters>1597.1472156373</DistanceMeters>
          </Trackpoint>
          <Trackpoint>
            <Time>2022-09-24T13:51:24.000Z</Time>
            <Position>
              <LatitudeDegrees>43.26817181892693042755126953125</LatitudeDegrees>
              <LongitudeDegrees>-2.94504328630864620208740234375</LongitudeDegrees>
            </Position>
            <DistanceMeters>1597.592930436</DistanceMeters>
          </Trackpoint>
          <Trackpoint>
            <Time>2022-09-24T13:51:25.000Z</Time>
            <Position>
              <LatitudeDegrees>43.268170058727264404296875</LatitudeDegrees>
              <LongitudeDegrees>-2.94504865072667598724365234375</LongitudeDegrees>
            </Position>
            <DistanceMeters>1598.0774735069</DistanceMeters>
          </Trackpoint>
          <Trackpoint>
            <Time>2022-09-24T13:51:26.000Z</Time>
            <Position>
              <LatitudeDegrees>43.2681685499846935272216796875</LatitudeDegrees>
              <LongitudeDegrees>-2.94505367986857891082763671875</LongitudeDegrees>
            </Position>
            <DistanceMeters>1598.5231883056</DistanceMeters>
          </Trackpoint>
          <Trackpoint>
            <Time>2022-09-24T13:51:27.000Z</Time>
            <Position>
              <LatitudeDegrees>43.268167041242122650146484375</LatitudeDegrees>
              <LongitudeDegrees>-2.9450589604675769805908203125</LongitudeDegrees>
            </Position>
            <DistanceMeters>1598.9789204179</DistanceMeters>
          </Trackpoint>
          <Trackpoint>
            <Time>2022-09-24T13:51:28.000Z</Time>
            <Position>
              <LatitudeDegrees>43.268165700137615203857421875</LatitudeDegrees>
              <LongitudeDegrees>-2.94506390579044818878173828125</LongitudeDegrees>
            </Position>
            <DistanceMeters>1599.4038928039</DistanceMeters>
          </Trackpoint>
          <Trackpoint>
            <Time>2022-09-24T13:51:29.000Z</Time>
            <Position>
              <LatitudeDegrees>43.2681641913950443267822265625</LatitudeDegrees>
              <LongitudeDegrees>-2.9450690187513828277587890625</LongitudeDegrees>
            </Position>
            <DistanceMeters>1599.8496076026</DistanceMeters>
          </Trackpoint>
          <Trackpoint>
            <Time>2022-09-24T13:51:30.000Z</Time>
            <Position>
              <LatitudeDegrees>43.26816268265247344970703125</LatitudeDegrees>
              <LongitudeDegrees>-2.94507413171231746673583984375</LongitudeDegrees>
            </Position>
            <DistanceMeters>1600.2953224013</DistanceMeters>
          </Trackpoint>
          <Trackpoint>
            <Time>2022-09-24T13:51:31.000Z</Time>
            <Position>
              <LatitudeDegrees>43.26816092245280742645263671875</LatitudeDegrees>
              <LongitudeDegrees>-2.94507983140647411346435546875</LongitudeDegrees>
            </Position>
            <DistanceMeters>1600.7981565096</DistanceMeters>
          </Trackpoint>
          <Trackpoint>
            <Time>2022-09-24T13:51:32.000Z</Time>
            <Position>
              <LatitudeDegrees>43.26815907843410968780517578125</LatitudeDegrees>
              <LongitudeDegrees>-2.94508553110063076019287109375</LongitudeDegrees>
            </Position>
            <DistanceMeters>1601.3009906178</DistanceMeters>
          </Trackpoint>
          <Trackpoint>
            <Time>2022-09-24T13:51:33.000Z</Time>
            <Position>
              <LatitudeDegrees>43.268156982958316802978515625</LatitudeDegrees>
              <LongitudeDegrees>-2.94509156607091426849365234375</LongitudeDegrees>
            </Position>
            <DistanceMeters>1601.8468775316</DistanceMeters>
          </Trackpoint>
          <Trackpoint>
            <Time>2022-09-24T13:51:34.000Z</Time>
            <Position>
              <LatitudeDegrees>43.26815505512058734893798828125</LatitudeDegrees>
              <LongitudeDegrees>-2.945097349584102630615234375</LongitudeDegrees>
            </Position>
            <DistanceMeters>1602.3586120496</DistanceMeters>
          </Trackpoint>
          <Trackpoint>
            <Time>2022-09-24T13:51:35.000Z</Time>
            <Position>
              <LatitudeDegrees>43.26815304346382617950439453125</LatitudeDegrees>
              <LongitudeDegrees>-2.945103384554386138916015625</LongitudeDegrees>
            </Position>
            <DistanceMeters>1602.8961643226</DistanceMeters>
          </Trackpoint>
          <Trackpoint>
            <Time>2022-09-24T13:51:36.000Z</Time>
            <Position>
              <LatitudeDegrees>43.26815103180706501007080078125</LatitudeDegrees>
              <LongitudeDegrees>-2.94510950334370136260986328125</LongitudeDegrees>
            </Position>
            <DistanceMeters>1603.4337165956</DistanceMeters>
          </Trackpoint>
          <Trackpoint>
            <Time>2022-09-24T13:51:37.000Z</Time>
            <Position>
              <LatitudeDegrees>43.2681494392454624176025390625</LatitudeDegrees>
              <LongitudeDegrees>-2.945115454494953155517578125</LongitudeDegrees>
            </Position>
            <DistanceMeters>1603.9541993458</DistanceMeters>
          </Trackpoint>
          <Trackpoint>
            <Time>2022-09-24T13:51:38.000Z</Time>
            <Position>
              <LatitudeDegrees>43.26814793050289154052734375</LatitudeDegrees>
              <LongitudeDegrees>-2.94512107037007808685302734375</LongitudeDegrees>
            </Position>
            <DistanceMeters>1604.4387424167</DistanceMeters>
          </Trackpoint>
          <Trackpoint>
            <Time>2022-09-24T13:51:39.000Z</Time>
            <Position>
              <LatitudeDegrees>43.268146254122257232666015625</LatitudeDegrees>
              <LongitudeDegrees>-2.945127189159393310546875</LongitudeDegrees>
            </Position>
            <DistanceMeters>1604.9762946897</DistanceMeters>
          </Trackpoint>
          <Trackpoint>
            <Time>2022-09-24T13:51:40.000Z</Time>
            <Position>
              <LatitudeDegrees>43.26814449392259120941162109375</LatitudeDegrees>
              <LongitudeDegrees>-2.94513330794870853424072265625</LongitudeDegrees>
            </Position>
            <DistanceMeters>1605.5138469627</DistanceMeters>
          </Trackpoint>
          <Trackpoint>
            <Time>2022-09-24T13:51:41.000Z</Time>
            <Position>
              <LatitudeDegrees>43.2681423984467983245849609375</LatitudeDegrees>
              <LongitudeDegrees>-2.945139594376087188720703125</LongitudeDegrees>
            </Position>
            <DistanceMeters>1606.0679431629</DistanceMeters>
          </Trackpoint>
          <Trackpoint>
            <Time>2022-09-24T13:51:42.000Z</Time>
            <Position>
              <LatitudeDegrees>43.2681403867900371551513671875</LatitudeDegrees>
              <LongitudeDegrees>-2.94514571316540241241455078125</LongitudeDegrees>
            </Position>
            <DistanceMeters>1606.6054954359</DistanceMeters>
          </Trackpoint>
          <Trackpoint>
            <Time>2022-09-24T13:51:43.000Z</Time>
            <Position>
              <LatitudeDegrees>43.2681380398571491241455078125</LatitudeDegrees>
              <LongitudeDegrees>-2.94515225104987621307373046875</LongitudeDegrees>
            </Position>
            <DistanceMeters>1607.1912794446</DistanceMeters>
          </Trackpoint>
          <Trackpoint>
            <Time>2022-09-24T13:51:44.000Z</Time>
            <Position>
              <LatitudeDegrees>43.268135525286197662353515625</LatitudeDegrees>
              <LongitudeDegrees>-2.9451588727533817291259765625</LongitudeDegrees>
            </Position>
            <DistanceMeters>1607.7922811566</DistanceMeters>
          </Trackpoint>
          <Trackpoint>
            <Time>2022-09-24T13:51:45.000Z</Time>
            <Position>
              <LatitudeDegrees>43.268132843077182769775390625</LatitudeDegrees>
              <LongitudeDegrees>-2.9451655782759189605712890625</LongitudeDegrees>
            </Position>
            <DistanceMeters>1608.4081246518</DistanceMeters>
          </Trackpoint>
          <Trackpoint>
            <Time>2022-09-24T13:51:46.000Z</Time>
            <Position>
              <LatitudeDegrees>43.268130160868167877197265625</LatitudeDegrees>
              <LongitudeDegrees>-2.94517236761748790740966796875</LongitudeDegrees>
            </Position>
            <DistanceMeters>1609.0239681471</DistanceMeters>
          </Trackpoint>
          <Trackpoint>
            <Time>2022-09-24T13:51:47.000Z</Time>
            <Position>
              <LatitudeDegrees>43.26812756247818470001220703125</LatitudeDegrees>
              <LongitudeDegrees>-2.94517924077808856964111328125</LongitudeDegrees>
            </Position>
            <DistanceMeters>1609.6398116423</DistanceMeters>
          </Trackpoint>
          <Trackpoint>
            <Time>2022-09-24T13:51:48.000Z</Time>
            <Position>
              <LatitudeDegrees>43.2681249640882015228271484375</LatitudeDegrees>
              <LongitudeDegrees>-2.945186197757720947265625</LongitudeDegrees>
            </Position>
            <DistanceMeters>1610.2701475556</DistanceMeters>
          </Trackpoint>
          <Trackpoint>
            <Time>2022-09-24T13:51:49.000Z</Time>
            <Position>
              <LatitudeDegrees>43.26812244951725006103515625</LatitudeDegrees>
              <LongitudeDegrees>-2.94519281946122646331787109375</LongitudeDegrees>
            </Position>
            <DistanceMeters>1610.8711492675</DistanceMeters>
          </Trackpoint>
          <Trackpoint>
            <Time>2022-09-24T13:51:50.000Z</Time>
            <Position>
              <LatitudeDegrees>43.2681199349462985992431640625</LatitudeDegrees>
              <LongitudeDegrees>-2.94519960880279541015625</LongitudeDegrees>
            </Position>
            <DistanceMeters>1611.4869927628</DistanceMeters>
          </Trackpoint>
          <Trackpoint>
            <Time>2022-09-24T13:51:51.000Z</Time>
            <Position>
              <LatitudeDegrees>43.2681177556514739990234375</LatitudeDegrees>
              <LongitudeDegrees>-2.94520639814436435699462890625</LongitudeDegrees>
            </Position>
            <DistanceMeters>1612.0879944747</DistanceMeters>
          </Trackpoint>
          <Trackpoint>
            <Time>2022-09-24T13:51:52.000Z</Time>
            <Position>
              <LatitudeDegrees>43.2681155763566493988037109375</LatitudeDegrees>
              <LongitudeDegrees>-2.94521327130496501922607421875</LongitudeDegrees>
            </Position>
            <DistanceMeters>1612.6889961867</DistanceMeters>
          </Trackpoint>
          <Trackpoint>
            <Time>2022-09-24T13:51:53.000Z</Time>
            <Position>
              <LatitudeDegrees>43.268113397061824798583984375</LatitudeDegrees>
              <LongitudeDegrees>-2.9452202282845973968505859375</LongitudeDegrees>
            </Position>
            <DistanceMeters>1613.2974640447</DistanceMeters>
          </Trackpoint>
          <Trackpoint>
            <Time>2022-09-24T13:51:54.000Z</Time>
            <Position>
              <LatitudeDegrees>43.2681112177670001983642578125</LatitudeDegrees>
              <LongitudeDegrees>-2.94522735290229320526123046875</LongitudeDegrees>
            </Position>
            <DistanceMeters>1613.9205958823</DistanceMeters>
          </Trackpoint>
          <Trackpoint>
            <Time>2022-09-24T13:51:55.000Z</Time>
            <Position>
              <LatitudeDegrees>43.26810903847217559814453125</LatitudeDegrees>
              <LongitudeDegrees>-2.94523422606289386749267578125</LongitudeDegrees>
            </Position>
            <DistanceMeters>1614.5215975943</DistanceMeters>
          </Trackpoint>
          <Trackpoint>
            <Time>2022-09-24T13:51:56.000Z</Time>
            <Position>
              <LatitudeDegrees>43.268106691539287567138671875</LatitudeDegrees>
              <LongitudeDegrees>-2.94524143449962139129638671875</LongitudeDegrees>
            </Position>
            <DistanceMeters>1615.1661001283</DistanceMeters>
          </Trackpoint>
          <Trackpoint>
            <Time>2022-09-24T13:51:57.000Z</Time>
            <Position>
              <LatitudeDegrees>43.2681043446063995361328125</LatitudeDegrees>
              <LongitudeDegrees>-2.9452487267553806304931640625</LongitudeDegrees>
            </Position>
            <DistanceMeters>1615.8106026624</DistanceMeters>
          </Trackpoint>
          <Trackpoint>
            <Time>2022-09-24T13:51:58.000Z</Time>
            <Position>
              <LatitudeDegrees>43.268101997673511505126953125</LatitudeDegrees>
              <LongitudeDegrees>-2.945255935192108154296875</LongitudeDegrees>
            </Position>
            <DistanceMeters>1616.4480612414</DistanceMeters>
          </Trackpoint>
          <Trackpoint>
            <Time>2022-09-24T13:51:59.000Z</Time>
            <Position>
              <LatitudeDegrees>43.2680998183786869049072265625</LatitudeDegrees>
              <LongitudeDegrees>-2.94526305980980396270751953125</LongitudeDegrees>
            </Position>
            <DistanceMeters>1617.0783971547</DistanceMeters>
          </Trackpoint>
          <Trackpoint>
            <Time>2022-09-24T13:52:00.000Z</Time>
            <Position>
              <LatitudeDegrees>43.26809721998870372772216796875</LatitudeDegrees>
              <LongitudeDegrees>-2.94527043588459491729736328125</LongitudeDegrees>
            </Position>
            <DistanceMeters>1617.7503374959</DistanceMeters>
          </Trackpoint>
          <Trackpoint>
            <Time>2022-09-24T13:52:01.000Z</Time>
            <Position>
              <LatitudeDegrees>43.268094621598720550537109375</LatitudeDegrees>
              <LongitudeDegrees>-2.9452778957784175872802734375</LongitudeDegrees>
            </Position>
            <DistanceMeters>1618.4222778372</DistanceMeters>
          </Trackpoint>
          <Trackpoint>
            <Time>2022-09-24T13:52:02.000Z</Time>
            <Position>
              <LatitudeDegrees>43.268091939389705657958984375</LatitudeDegrees>
              <LongitudeDegrees>-2.9452856071293354034423828125</LongitudeDegrees>
            </Position>
            <DistanceMeters>1619.1205787236</DistanceMeters>
          </Trackpoint>
          <Trackpoint>
            <Time>2022-09-24T13:52:03.000Z</Time>
            <Position>
              <LatitudeDegrees>43.2680894248187541961669921875</LatitudeDegrees>
              <LongitudeDegrees>-2.94529323466122150421142578125</LongitudeDegrees>
            </Position>
            <DistanceMeters>1619.7992052031</DistanceMeters>
          </Trackpoint>
          <Trackpoint>
            <Time>2022-09-24T13:52:04.000Z</Time>
            <Position>
              <LatitudeDegrees>43.26808665879070758819580078125</LatitudeDegrees>
              <LongitudeDegrees>-2.94530094601213932037353515625</LongitudeDegrees>
            </Position>
            <DistanceMeters>1620.4975060895</DistanceMeters>
          </Trackpoint>
          <Trackpoint>
            <Time>2022-09-24T13:52:05.000Z</Time>
            <Position>
              <LatitudeDegrees>43.2680840604007244110107421875</LatitudeDegrees>
              <LongitudeDegrees>-2.945308573544025421142578125</LongitudeDegrees>
            </Position>
            <DistanceMeters>1621.1827534719</DistanceMeters>
          </Trackpoint>
          <Trackpoint>
            <Time>2022-09-24T13:52:06.000Z</Time>
            <Position>
              <LatitudeDegrees>43.268081210553646087646484375</LatitudeDegrees>
              <LongitudeDegrees>-2.9453162848949432373046875</LongitudeDegrees>
            </Position>
            <DistanceMeters>1621.8810543583</DistanceMeters>
          </Trackpoint>
          <Trackpoint>
            <Time>2022-09-24T13:52:07.000Z</Time>
            <Position>
              <LatitudeDegrees>43.2680783607065677642822265625</LatitudeDegrees>
              <LongitudeDegrees>-2.945323996245861053466796875</LongitudeDegrees>
            </Position>
            <DistanceMeters>1622.5793552447</DistanceMeters>
          </Trackpoint>
          <Trackpoint>
            <Time>2022-09-24T13:52:08.000Z</Time>
            <Position>
              <LatitudeDegrees>43.26807542704045772552490234375</LatitudeDegrees>
              <LongitudeDegrees>-2.94533170759677886962890625</LongitudeDegrees>
            </Position>
            <DistanceMeters>1623.2840922201</DistanceMeters>
          </Trackpoint>
          <Trackpoint>
            <Time>2022-09-24T13:52:09.000Z</Time>
            <Position>
              <LatitudeDegrees>43.26807240955531597137451171875</LatitudeDegrees>
              <LongitudeDegrees>-2.94533950276672840118408203125</LongitudeDegrees>
            </Position>
            <DistanceMeters>1623.9952070356</DistanceMeters>
          </Trackpoint>
          <Trackpoint>
            <Time>2022-09-24T13:52:10.000Z</Time>
            <Position>
              <LatitudeDegrees>43.2680694758892059326171875</LatitudeDegrees>
              <LongitudeDegrees>-2.9453469626605510711669921875</LongitudeDegrees>
            </Position>
            <DistanceMeters>1624.6738335151</DistanceMeters>
          </Trackpoint>
          <Trackpoint>
            <Time>2022-09-24T13:52:11.000Z</Time>
            <Position>
              <LatitudeDegrees>43.2680666260421276092529296875</LatitudeDegrees>
              <LongitudeDegrees>-2.945354171097278594970703125</LongitudeDegrees>
            </Position>
            <DistanceMeters>1625.3390205157</DistanceMeters>
          </Trackpoint>
          <Trackpoint>
            <Time>2022-09-24T13:52:12.000Z</Time>
            <Position>
              <LatitudeDegrees>43.2680639438331127166748046875</LatitudeDegrees>
              <LongitudeDegrees>-2.94536121189594268798828125</LongitudeDegrees>
            </Position>
            <DistanceMeters>1625.9835230497</DistanceMeters>
          </Trackpoint>
          <Trackpoint>
            <Time>2022-09-24T13:52:13.000Z</Time>
            <Position>
              <LatitudeDegrees>43.2680612616240978240966796875</LatitudeDegrees>
              <LongitudeDegrees>-2.94536816887557506561279296875</LongitudeDegrees>
            </Position>
            <DistanceMeters>1626.6209816288</DistanceMeters>
          </Trackpoint>
          <Trackpoint>
            <Time>2022-09-24T13:52:14.000Z</Time>
            <Position>
              <LatitudeDegrees>43.2680587470531463623046875</LatitudeDegrees>
              <LongitudeDegrees>-2.94537537731230258941650390625</LongitudeDegrees>
            </Position>
            <DistanceMeters>1627.2793460182</DistanceMeters>
          </Trackpoint>
          <Trackpoint>
            <Time>2022-09-24T13:52:15.000Z</Time>
            <Position>
              <LatitudeDegrees>43.2680562324821949005126953125</LatitudeDegrees>
              <LongitudeDegrees>-2.9453825019299983978271484375</LongitudeDegrees>
            </Position>
            <DistanceMeters>1627.9238485523</DistanceMeters>
          </Trackpoint>
          <Trackpoint>
            <Time>2022-09-24T13:52:16.000Z</Time>
            <Position>
              <LatitudeDegrees>43.268053717911243438720703125</LatitudeDegrees>
              <LongitudeDegrees>-2.94538962654769420623779296875</LongitudeDegrees>
            </Position>
            <DistanceMeters>1628.5683510864</DistanceMeters>
          </Trackpoint>
          <Trackpoint>
            <Time>2022-09-24T13:52:17.000Z</Time>
            <Position>
              <LatitudeDegrees>43.26805137097835540771484375</LatitudeDegrees>
              <LongitudeDegrees>-2.94539649970829486846923828125</LongitudeDegrees>
            </Position>
            <DistanceMeters>1629.1841945816</DistanceMeters>
          </Trackpoint>
          <Trackpoint>
            <Time>2022-09-24T13:52:18.000Z</Time>
            <Position>
              <LatitudeDegrees>43.26804843731224536895751953125</LatitudeDegrees>
              <LongitudeDegrees>-2.945403791964054107666015625</LongitudeDegrees>
            </Position>
            <DistanceMeters>1629.869441964</DistanceMeters>
          </Trackpoint>
          <Trackpoint>
            <Time>2022-09-24T13:52:19.000Z</Time>
            <Position>
              <LatitudeDegrees>43.2680455036461353302001953125</LatitudeDegrees>
              <LongitudeDegrees>-2.9454110004007816314697265625</LongitudeDegrees>
            </Position>
            <DistanceMeters>1630.5413823053</DistanceMeters>
          </Trackpoint>
          <Trackpoint>
            <Time>2022-09-24T13:52:20.000Z</Time>
            <Position>
              <LatitudeDegrees>43.26804273761808872222900390625</LatitudeDegrees>
              <LongitudeDegrees>-2.9454177059233188629150390625</LongitudeDegrees>
            </Position>
            <DistanceMeters>1631.1645141429</DistanceMeters>
          </Trackpoint>
          <Trackpoint>
            <Time>2022-09-24T13:52:21.000Z</Time>
            <Position>
              <LatitudeDegrees>43.2680401392281055450439453125</LatitudeDegrees>
              <LongitudeDegrees>-2.94542415998876094818115234375</LongitudeDegrees>
            </Position>
            <DistanceMeters>1631.7579557839</DistanceMeters>
          </Trackpoint>
          <Trackpoint>
            <Time>2022-09-24T13:52:22.000Z</Time>
            <Position>
              <LatitudeDegrees>43.26803754083812236785888671875</LatitudeDegrees>
              <LongitudeDegrees>-2.94543069787323474884033203125</LongitudeDegrees>
            </Position>
            <DistanceMeters>1632.3664236419</DistanceMeters>
          </Trackpoint>
          <Trackpoint>
            <Time>2022-09-24T13:52:23.000Z</Time>
            <Position>
              <LatitudeDegrees>43.26803502626717090606689453125</LatitudeDegrees>
              <LongitudeDegrees>-2.94543740339577198028564453125</LongitudeDegrees>
            </Position>
            <DistanceMeters>1632.9822671372</DistanceMeters>
          </Trackpoint>
          <Trackpoint>
            <Time>2022-09-24T13:52:24.000Z</Time>
            <Position>
              <LatitudeDegrees>43.26803267933428287506103515625</LatitudeDegrees>
              <LongitudeDegrees>-2.94544410891830921173095703125</LongitudeDegrees>
            </Position>
            <DistanceMeters>1633.5981106324</DistanceMeters>
          </Trackpoint>
          <Trackpoint>
            <Time>2022-09-24T13:52:25.000Z</Time>
            <Position>
              <LatitudeDegrees>43.26803050003945827484130859375</LatitudeDegrees>
              <LongitudeDegrees>-2.94545081444084644317626953125</LongitudeDegrees>
            </Position>
            <DistanceMeters>1634.1991123444</DistanceMeters>
          </Trackpoint>
          <Trackpoint>
            <Time>2022-09-24T13:52:26.000Z</Time>
            <Position>
              <LatitudeDegrees>43.268028236925601959228515625</LatitudeDegrees>
              <LongitudeDegrees>-2.945457436144351959228515625</LongitudeDegrees>
            </Position>
            <DistanceMeters>1634.7925539854</DistanceMeters>
          </Trackpoint>
          <Trackpoint>
            <Time>2022-09-24T13:52:27.000Z</Time>
            <Position>
              <LatitudeDegrees>43.26802580617368221282958984375</LatitudeDegrees>
              <LongitudeDegrees>-2.9454639740288257598876953125</LongitudeDegrees>
            </Position>
            <DistanceMeters>1635.3859956264</DistanceMeters>
          </Trackpoint>
          <Trackpoint>
            <Time>2022-09-24T13:52:28.000Z</Time>
            <Position>
              <LatitudeDegrees>43.2680233754217624664306640625</LatitudeDegrees>
              <LongitudeDegrees>-2.94547059573233127593994140625</LongitudeDegrees>
            </Position>
            <DistanceMeters>1635.9869973384</DistanceMeters>
          </Trackpoint>
          <Trackpoint>
            <Time>2022-09-24T13:52:29.000Z</Time>
            <Position>
              <LatitudeDegrees>43.2680210284888744354248046875</LatitudeDegrees>
              <LongitudeDegrees>-2.94547679834067821502685546875</LongitudeDegrees>
            </Position>
            <DistanceMeters>1636.5491829621</DistanceMeters>
          </Trackpoint>
          <Trackpoint>
            <Time>2022-09-24T13:52:30.000Z</Time>
            <Position>
              <LatitudeDegrees>43.2680186815559864044189453125</LatitudeDegrees>
              <LongitudeDegrees>-2.94548316858708858489990234375</LongitudeDegrees>
            </Position>
            <DistanceMeters>1637.1272078997</DistanceMeters>
          </Trackpoint>
          <Trackpoint>
            <Time>2022-09-24T13:52:31.000Z</Time>
            <Position>
              <LatitudeDegrees>43.2680159993469715118408203125</LatitudeDegrees>
              <LongitudeDegrees>-2.945489622652530670166015625</LongitudeDegrees>
            </Position>
            <DistanceMeters>1637.7282096116</DistanceMeters>
          </Trackpoint>
          <Trackpoint>
            <Time>2022-09-24T13:52:32.000Z</Time>
            <Position>
              <LatitudeDegrees>43.2680131494998931884765625</LatitudeDegrees>
              <LongitudeDegrees>-2.94549641199409961700439453125</LongitudeDegrees>
            </Position>
            <DistanceMeters>1638.3585455249</DistanceMeters>
          </Trackpoint>
          <Trackpoint>
            <Time>2022-09-24T13:52:33.000Z</Time>
            <Position>
              <LatitudeDegrees>43.26801021583378314971923828125</LatitudeDegrees>
              <LongitudeDegrees>-2.9455032013356685638427734375</LongitudeDegrees>
            </Position>
            <DistanceMeters>1638.9960041039</DistanceMeters>
          </Trackpoint>
          <Trackpoint>
            <Time>2022-09-24T13:52:34.000Z</Time>
            <Position>
              <LatitudeDegrees>43.26800719834864139556884765625</LatitudeDegrees>
              <LongitudeDegrees>-2.9455099068582057952880859375</LongitudeDegrees>
            </Position>
            <DistanceMeters>1639.640506638</DistanceMeters>
          </Trackpoint>
          <Trackpoint>
            <Time>2022-09-24T13:52:35.000Z</Time>
            <Position>
              <LatitudeDegrees>43.2680045999586582183837890625</LatitudeDegrees>
              <LongitudeDegrees>-2.94551636092364788055419921875</LongitudeDegrees>
            </Position>
            <DistanceMeters>1640.233948279</DistanceMeters>
          </Trackpoint>
          <Trackpoint>
            <Time>2022-09-24T13:52:36.000Z</Time>
            <Position>
              <LatitudeDegrees>43.26800267212092876434326171875</LatitudeDegrees>
              <LongitudeDegrees>-2.94552273117005825042724609375</LongitudeDegrees>
            </Position>
            <DistanceMeters>1640.8041085652</DistanceMeters>
          </Trackpoint>
          <Trackpoint>
            <Time>2022-09-24T13:52:37.000Z</Time>
            <Position>
              <LatitudeDegrees>43.26800066046416759490966796875</LatitudeDegrees>
              <LongitudeDegrees>-2.94552910141646862030029296875</LongitudeDegrees>
            </Position>
            <DistanceMeters>1641.3742688514</DistanceMeters>
          </Trackpoint>
          <Trackpoint>
            <Time>2022-09-24T13:52:38.000Z</Time>
            <Position>
              <LatitudeDegrees>43.26799864880740642547607421875</LatitudeDegrees>
              <LongitudeDegrees>-2.94553496874868869781494140625</LongitudeDegrees>
            </Position>
            <DistanceMeters>1641.8947516017</DistanceMeters>
          </Trackpoint>
          <Trackpoint>
            <Time>2022-09-24T13:52:39.000Z</Time>
            <Position>
              <LatitudeDegrees>43.26799663715064525604248046875</LatitudeDegrees>
              <LongitudeDegrees>-2.94553966261446475982666015625</LongitudeDegrees>
            </Position>
            <DistanceMeters>1642.3404664004</DistanceMeters>
          </Trackpoint>
          <Trackpoint>
            <Time>2022-09-24T13:52:40.000Z</Time>
            <Position>
              <LatitudeDegrees>43.26799361966550350189208984375</LatitudeDegrees>
              <LongitudeDegrees>-2.94554536230862140655517578125</LongitudeDegrees>
            </Position>
            <DistanceMeters>1642.9106266866</DistanceMeters>
          </Trackpoint>
          <Trackpoint>
            <Time>2022-09-24T13:52:41.000Z</Time>
            <Position>
              <LatitudeDegrees>43.2679903507232666015625</LatitudeDegrees>
              <LongitudeDegrees>-2.945550978183746337890625</LongitudeDegrees>
            </Position>
            <DistanceMeters>1643.4964106953</DistanceMeters>
          </Trackpoint>
          <Trackpoint>
            <Time>2022-09-24T13:52:42.000Z</Time>
            <Position>
              <LatitudeDegrees>43.26798708178102970123291015625</LatitudeDegrees>
              <LongitudeDegrees>-2.945556007325649261474609375</LongitudeDegrees>
            </Position>
            <DistanceMeters>1644.0505068955</DistanceMeters>
          </Trackpoint>
          <Trackpoint>
            <Time>2022-09-24T13:52:43.000Z</Time>
            <Position>
              <LatitudeDegrees>43.26798356138169765472412109375</LatitudeDegrees>
              <LongitudeDegrees>-2.94556179083883762359619140625</LongitudeDegrees>
            </Position>
            <DistanceMeters>1644.6589747535</DistanceMeters>
          </Trackpoint>
          <Trackpoint>
            <Time>2022-09-24T13:52:44.000Z</Time>
            <Position>
              <LatitudeDegrees>43.267979957163333892822265625</LatitudeDegrees>
              <LongitudeDegrees>-2.94556966982781887054443359375</LongitudeDegrees>
            </Position>
            <DistanceMeters>1645.4072158507</DistanceMeters>
          </Trackpoint>
          <Trackpoint>
            <Time>2022-09-24T13:52:45.000Z</Time>
            <Position>
              <LatitudeDegrees>43.26797668822109699249267578125</LatitudeDegrees>
              <LongitudeDegrees>-2.94557847082614898681640625</LongitudeDegrees>
            </Position>
            <DistanceMeters>1646.2022663844</DistanceMeters>
          </Trackpoint>
          <Trackpoint>
            <Time>2022-09-24T13:52:46.000Z</Time>
            <Position>
              <LatitudeDegrees>43.2679737545549869537353515625</LatitudeDegrees>
              <LongitudeDegrees>-2.94558785855770111083984375</LongitudeDegrees>
            </Position>
            <DistanceMeters>1647.0306900741</DistanceMeters>
          </Trackpoint>
          <Trackpoint>
            <Time>2022-09-24T13:52:47.000Z</Time>
            <Position>
              <LatitudeDegrees>43.267971239984035491943359375</LatitudeDegrees>
              <LongitudeDegrees>-2.945596911013126373291015625</LongitudeDegrees>
            </Position>
            <DistanceMeters>1647.8143004353</DistanceMeters>
          </Trackpoint>
          <Trackpoint>
            <Time>2022-09-24T13:52:48.000Z</Time>
            <Position>
              <LatitudeDegrees>43.2679687254130840301513671875</LatitudeDegrees>
              <LongitudeDegrees>-2.9456059634685516357421875</LongitudeDegrees>
            </Position>
            <DistanceMeters>1648.5979107965</DistanceMeters>
          </Trackpoint>
          <Trackpoint>
            <Time>2022-09-24T13:52:49.000Z</Time>
            <Position>
              <LatitudeDegrees>43.26796612702310085296630859375</LatitudeDegrees>
              <LongitudeDegrees>-2.945614345371723175048828125</LongitudeDegrees>
            </Position>
            <DistanceMeters>1649.3400931617</DistanceMeters>
          </Trackpoint>
          <Trackpoint>
            <Time>2022-09-24T13:52:50.000Z</Time>
            <Position>
              <LatitudeDegrees>43.26796361245214939117431640625</LatitudeDegrees>
              <LongitudeDegrees>-2.94562138617038726806640625</LongitudeDegrees>
            </Position>
            <DistanceMeters>1649.9775517407</DistanceMeters>
          </Trackpoint>
          <Trackpoint>
            <Time>2022-09-24T13:52:51.000Z</Time>
            <Position>
              <LatitudeDegrees>43.26796076260507106781005859375</LatitudeDegrees>
              <LongitudeDegrees>-2.94562867842614650726318359375</LongitudeDegrees>
            </Position>
            <DistanceMeters>1650.6494920819</DistanceMeters>
          </Trackpoint>
          <Trackpoint>
            <Time>2022-09-24T13:52:52.000Z</Time>
            <Position>
              <LatitudeDegrees>43.2679579965770244598388671875</LatitudeDegrees>
              <LongitudeDegrees>-2.9456359706819057464599609375</LongitudeDegrees>
            </Position>
            <DistanceMeters>1651.3214324232</DistanceMeters>
          </Trackpoint>
          <Trackpoint>
            <Time>2022-09-24T13:52:53.000Z</Time>
            <Position>
              <LatitudeDegrees>43.26795506291091442108154296875</LatitudeDegrees>
              <LongitudeDegrees>-2.94564326293766498565673828125</LongitudeDegrees>
            </Position>
            <DistanceMeters>1651.9933727644</DistanceMeters>
          </Trackpoint>
          <Trackpoint>
            <Time>2022-09-24T13:52:54.000Z</Time>
            <Position>
              <LatitudeDegrees>43.26795212924480438232421875</LatitudeDegrees>
              <LongitudeDegrees>-2.945650555193424224853515625</LongitudeDegrees>
            </Position>
            <DistanceMeters>1652.6719992439</DistanceMeters>
          </Trackpoint>
          <Trackpoint>
            <Time>2022-09-24T13:52:55.000Z</Time>
            <Position>
              <LatitudeDegrees>43.26794936321675777435302734375</LatitudeDegrees>
              <LongitudeDegrees>-2.94565801508724689483642578125</LongitudeDegrees>
            </Position>
            <DistanceMeters>1653.3439395852</DistanceMeters>
          </Trackpoint>
          <Trackpoint>
            <Time>2022-09-24T13:52:56.000Z</Time>
            <Position>
              <LatitudeDegrees>43.2679465971887111663818359375</LatitudeDegrees>
              <LongitudeDegrees>-2.9456654749810695648193359375</LongitudeDegrees>
            </Position>
            <DistanceMeters>1654.0158799264</DistanceMeters>
          </Trackpoint>
          <Trackpoint>
            <Time>2022-09-24T13:52:57.000Z</Time>
            <Position>
              <LatitudeDegrees>43.26794366352260112762451171875</LatitudeDegrees>
              <LongitudeDegrees>-2.94567293487489223480224609375</LongitudeDegrees>
            </Position>
            <DistanceMeters>1654.7011273088</DistanceMeters>
          </Trackpoint>
          <Trackpoint>
            <Time>2022-09-24T13:52:58.000Z</Time>
            <Position>
              <LatitudeDegrees>43.2679407298564910888671875</LatitudeDegrees>
              <LongitudeDegrees>-2.94568047858774662017822265625</LongitudeDegrees>
            </Position>
            <DistanceMeters>1655.3994281952</DistanceMeters>
          </Trackpoint>
          <Trackpoint>
            <Time>2022-09-24T13:52:59.000Z</Time>
            <Position>
              <LatitudeDegrees>43.267937712371349334716796875</LatitudeDegrees>
              <LongitudeDegrees>-2.945687770843505859375</LongitudeDegrees>
            </Position>
            <DistanceMeters>1656.0846755776</DistanceMeters>
          </Trackpoint>
          <Trackpoint>
            <Time>2022-09-24T13:53:00.000Z</Time>
            <Position>
              <LatitudeDegrees>43.26793477870523929595947265625</LatitudeDegrees>
              <LongitudeDegrees>-2.94569489546120166778564453125</LongitudeDegrees>
            </Position>
            <DistanceMeters>1656.7430399671</DistanceMeters>
          </Trackpoint>
          <Trackpoint>
            <Time>2022-09-24T13:53:01.000Z</Time>
            <Position>
              <LatitudeDegrees>43.2679318450391292572021484375</LatitudeDegrees>
              <LongitudeDegrees>-2.945702187716960906982421875</LongitudeDegrees>
            </Position>
            <DistanceMeters>1657.4216664466</DistanceMeters>
          </Trackpoint>
          <Trackpoint>
            <Time>2022-09-24T13:53:02.000Z</Time>
            <Position>
              <LatitudeDegrees>43.267928995192050933837890625</LatitudeDegrees>
              <LongitudeDegrees>-2.945709563791751861572265625</LongitudeDegrees>
            </Position>
            <DistanceMeters>1658.106913829</DistanceMeters>
          </Trackpoint>
          <Trackpoint>
            <Time>2022-09-24T13:53:03.000Z</Time>
            <Position>
              <LatitudeDegrees>43.2679261453449726104736328125</LatitudeDegrees>
              <LongitudeDegrees>-2.9457167722284793853759765625</LongitudeDegrees>
            </Position>
            <DistanceMeters>1658.7788541702</DistanceMeters>
          </Trackpoint>
          <Trackpoint>
            <Time>2022-09-24T13:53:04.000Z</Time>
            <Position>
              <LatitudeDegrees>43.26792337931692600250244140625</LatitudeDegrees>
              <LongitudeDegrees>-2.9457239806652069091796875</LongitudeDegrees>
            </Position>
            <DistanceMeters>1659.4372185597</DistanceMeters>
          </Trackpoint>
          <Trackpoint>
            <Time>2022-09-24T13:53:05.000Z</Time>
            <Position>
              <LatitudeDegrees>43.26792069710791110992431640625</LatitudeDegrees>
              <LongitudeDegrees>-2.945731021463871002197265625</LongitudeDegrees>
            </Position>
            <DistanceMeters>1660.0746771387</DistanceMeters>
          </Trackpoint>
          <Trackpoint>
            <Time>2022-09-24T13:53:06.000Z</Time>
            <Position>
              <LatitudeDegrees>43.26791801489889621734619140625</LatitudeDegrees>
              <LongitudeDegrees>-2.94573797844350337982177734375</LongitudeDegrees>
            </Position>
            <DistanceMeters>1660.7050130519</DistanceMeters>
          </Trackpoint>
          <Trackpoint>
            <Time>2022-09-24T13:53:07.000Z</Time>
            <Position>
              <LatitudeDegrees>43.26791550032794475555419921875</LatitudeDegrees>
              <LongitudeDegrees>-2.94574501924216747283935546875</LongitudeDegrees>
            </Position>
            <DistanceMeters>1661.342471631</DistanceMeters>
          </Trackpoint>
          <Trackpoint>
            <Time>2022-09-24T13:53:08.000Z</Time>
            <Position>
              <LatitudeDegrees>43.26791315339505672454833984375</LatitudeDegrees>
              <LongitudeDegrees>-2.94575189240276813507080078125</LongitudeDegrees>
            </Position>
            <DistanceMeters>1661.9583151262</DistanceMeters>
          </Trackpoint>
          <Trackpoint>
            <Time>2022-09-24T13:53:09.000Z</Time>
            <Position>
              <LatitudeDegrees>43.2679107226431369781494140625</LatitudeDegrees>
              <LongitudeDegrees>-2.94575910083949565887451171875</LongitudeDegrees>
            </Position>
            <DistanceMeters>1662.6097854578</DistanceMeters>
          </Trackpoint>
          <Trackpoint>
            <Time>2022-09-24T13:53:10.000Z</Time>
            <Position>
              <LatitudeDegrees>43.267908208072185516357421875</LatitudeDegrees>
              <LongitudeDegrees>-2.945766560733318328857421875</LongitudeDegrees>
            </Position>
            <DistanceMeters>1663.281725799</DistanceMeters>
          </Trackpoint>
          <Trackpoint>
            <Time>2022-09-24T13:53:11.000Z</Time>
            <Position>
              <LatitudeDegrees>43.2679058611392974853515625</LatitudeDegrees>
              <LongitudeDegrees>-2.94577385298907756805419921875</LongitudeDegrees>
            </Position>
            <DistanceMeters>1663.9262283331</DistanceMeters>
          </Trackpoint>
          <Trackpoint>
            <Time>2022-09-24T13:53:12.000Z</Time>
            <Position>
              <LatitudeDegrees>43.26790359802544116973876953125</LatitudeDegrees>
              <LongitudeDegrees>-2.94578122906386852264404296875</LongitudeDegrees>
            </Position>
            <DistanceMeters>1664.5776986646</DistanceMeters>
          </Trackpoint>
          <Trackpoint>
            <Time>2022-09-24T13:53:13.000Z</Time>
            <Position>
              <LatitudeDegrees>43.267901502549648284912109375</LatitudeDegrees>
              <LongitudeDegrees>-2.94578843750059604644775390625</LongitudeDegrees>
            </Position>
            <DistanceMeters>1665.2080345779</DistanceMeters>
          </Trackpoint>
          <Trackpoint>
            <Time>2022-09-24T13:53:14.000Z</Time>
            <Position>
              <LatitudeDegrees>43.26789923943579196929931640625</LatitudeDegrees>
              <LongitudeDegrees>-2.94579598121345043182373046875</LongitudeDegrees>
            </Position>
            <DistanceMeters>1665.8663989673</DistanceMeters>
          </Trackpoint>
          <Trackpoint>
            <Time>2022-09-24T13:53:15.000Z</Time>
            <Position>
              <LatitudeDegrees>43.26789689250290393829345703125</LatitudeDegrees>
              <LongitudeDegrees>-2.9458036087453365325927734375</LongitudeDegrees>
            </Position>
            <DistanceMeters>1666.5383393086</DistanceMeters>
          </Trackpoint>
          <Trackpoint>
            <Time>2022-09-24T13:53:16.000Z</Time>
            <Position>
              <LatitudeDegrees>43.26789504848420619964599609375</LatitudeDegrees>
              <LongitudeDegrees>-2.9458109848201274871826171875</LongitudeDegrees>
            </Position>
            <DistanceMeters>1667.1686752218</DistanceMeters>
          </Trackpoint>
          <Trackpoint>
            <Time>2022-09-24T13:53:17.000Z</Time>
            <Position>
              <LatitudeDegrees>43.26789312064647674560546875</LatitudeDegrees>
              <LongitudeDegrees>-2.94581827707588672637939453125</LongitudeDegrees>
            </Position>
            <DistanceMeters>1667.7990111351</DistanceMeters>
          </Trackpoint>
          <Trackpoint>
            <Time>2022-09-24T13:53:18.000Z</Time>
            <Position>
              <LatitudeDegrees>43.26789102517068386077880859375</LatitudeDegrees>
              <LongitudeDegrees>-2.9458250664174556732177734375</LongitudeDegrees>
            </Position>
            <DistanceMeters>1668.400012847</DistanceMeters>
          </Trackpoint>
          <Trackpoint>
            <Time>2022-09-24T13:53:19.000Z</Time>
            <Position>
              <LatitudeDegrees>43.26788901351392269134521484375</LatitudeDegrees>
              <LongitudeDegrees>-2.94583135284483432769775390625</LongitudeDegrees>
            </Position>
            <DistanceMeters>1668.9621984708</DistanceMeters>
          </Trackpoint>
          <Trackpoint>
            <Time>2022-09-24T13:53:20.000Z</Time>
            <Position>
              <LatitudeDegrees>43.26788683421909809112548828125</LatitudeDegrees>
              <LongitudeDegrees>-2.94583730399608612060546875</LongitudeDegrees>
            </Position>
            <DistanceMeters>1669.4997507437</DistanceMeters>
          </Trackpoint>
          <Trackpoint>
            <Time>2022-09-24T13:53:21.000Z</Time>
            <Position>
              <LatitudeDegrees>43.2678845711052417755126953125</LatitudeDegrees>
              <LongitudeDegrees>-2.94584325514733791351318359375</LongitudeDegrees>
            </Position>
            <DistanceMeters>1670.0456376575</DistanceMeters>
          </Trackpoint>
          <Trackpoint>
            <Time>2022-09-24T13:53:22.000Z</Time>
            <Position>
              <LatitudeDegrees>43.26788239181041717529296875</LatitudeDegrees>
              <LongitudeDegrees>-2.94584845192730426788330078125</LongitudeDegrees>
            </Position>
            <DistanceMeters>1670.5301807284</DistanceMeters>
          </Trackpoint>
          <Trackpoint>
            <Time>2022-09-24T13:53:23.000Z</Time>
            <Position>
              <LatitudeDegrees>43.2678802125155925750732421875</LatitudeDegrees>
              <LongitudeDegrees>-2.94585364870727062225341796875</LongitudeDegrees>
            </Position>
            <DistanceMeters>1671.0147237993</DistanceMeters>
          </Trackpoint>
          <Trackpoint>
            <Time>2022-09-24T13:53:24.000Z</Time>
            <Position>
              <LatitudeDegrees>43.267878033220767974853515625</LatitudeDegrees>
              <LongitudeDegrees>-2.94585876166820526123046875</LongitudeDegrees>
            </Position>
            <DistanceMeters>1671.4992668702</DistanceMeters>
          </Trackpoint>
          <Trackpoint>
            <Time>2022-09-24T13:53:25.000Z</Time>
            <Position>
              <LatitudeDegrees>43.2678758539259433746337890625</LatitudeDegrees>
              <LongitudeDegrees>-2.9458639584481716156005859375</LongitudeDegrees>
            </Position>
            <DistanceMeters>1671.9838099411</DistanceMeters>
          </Trackpoint>
          <Trackpoint>
            <Time>2022-09-24T13:53:26.000Z</Time>
            <Position>
              <LatitudeDegrees>43.26787342317402362823486328125</LatitudeDegrees>
              <LongitudeDegrees>-2.94586949050426483154296875</LongitudeDegrees>
            </Position>
            <DistanceMeters>1672.5042926913</DistanceMeters>
          </Trackpoint>
          <Trackpoint>
            <Time>2022-09-24T13:53:27.000Z</Time>
            <Position>
              <LatitudeDegrees>43.2678711600601673126220703125</LatitudeDegrees>
              <LongitudeDegrees>-2.94587510637938976287841796875</LongitudeDegrees>
            </Position>
            <DistanceMeters>1673.0160272093</DistanceMeters>
          </Trackpoint>
          <Trackpoint>
            <Time>2022-09-24T13:53:28.000Z</Time>
            <Position>
              <LatitudeDegrees>43.267869316041469573974609375</LatitudeDegrees>
              <LongitudeDegrees>-2.94588114134967327117919921875</LongitudeDegrees>
            </Position>
            <DistanceMeters>1673.5535794823</DistanceMeters>
          </Trackpoint>
          <Trackpoint>
            <Time>2022-09-24T13:53:29.000Z</Time>
            <Position>
              <LatitudeDegrees>43.26786772347986698150634765625</LatitudeDegrees>
              <LongitudeDegrees>-2.945887260138988494873046875</LongitudeDegrees>
            </Position>
            <DistanceMeters>1674.0826658361</DistanceMeters>
          </Trackpoint>
          <Trackpoint>
            <Time>2022-09-24T13:53:30.000Z</Time>
            <Position>
              <LatitudeDegrees>43.2678664661943912506103515625</LatitudeDegrees>
              <LongitudeDegrees>-2.94589337892830371856689453125</LongitudeDegrees>
            </Position>
            <DistanceMeters>1674.5944003541</DistanceMeters>
          </Trackpoint>
          <Trackpoint>
            <Time>2022-09-24T13:53:31.000Z</Time>
            <Position>
              <LatitudeDegrees>43.267865292727947235107421875</LatitudeDegrees>
              <LongitudeDegrees>-2.94589924626052379608154296875</LongitudeDegrees>
            </Position>
            <DistanceMeters>1675.0789434249</DistanceMeters>
          </Trackpoint>
          <Trackpoint>
            <Time>2022-09-24T13:53:32.000Z</Time>
            <Position>
              <LatitudeDegrees>43.26786386780440807342529296875</LatitudeDegrees>
              <LongitudeDegrees>-2.9459051974117755889892578125</LongitudeDegrees>
            </Position>
            <DistanceMeters>1675.5817775332</DistanceMeters>
          </Trackpoint>
          <Trackpoint>
            <Time>2022-09-24T13:53:33.000Z</Time>
            <Position>
              <LatitudeDegrees>43.26786202378571033477783203125</LatitudeDegrees>
              <LongitudeDegrees>-2.94591131620109081268310546875</LongitudeDegrees>
            </Position>
            <DistanceMeters>1676.110863887</DistanceMeters>
          </Trackpoint>
          <Trackpoint>
            <Time>2022-09-24T13:53:34.000Z</Time>
            <Position>
              <LatitudeDegrees>43.26786034740507602691650390625</LatitudeDegrees>
              <LongitudeDegrees>-2.9459172673523426055908203125</LongitudeDegrees>
            </Position>
            <DistanceMeters>1676.6313466372</DistanceMeters>
          </Trackpoint>
          <Trackpoint>
            <Time>2022-09-24T13:53:35.000Z</Time>
            <Position>
              <LatitudeDegrees>43.26785867102444171905517578125</LatitudeDegrees>
              <LongitudeDegrees>-2.945923469960689544677734375</LongitudeDegrees>
            </Position>
            <DistanceMeters>1677.1688989102</DistanceMeters>
          </Trackpoint>
          <Trackpoint>
            <Time>2022-09-24T13:53:36.000Z</Time>
            <Position>
              <LatitudeDegrees>43.26785699464380741119384765625</LatitudeDegrees>
              <LongitudeDegrees>-2.94592925347387790679931640625</LongitudeDegrees>
            </Position>
            <DistanceMeters>1677.6717330185</DistanceMeters>
          </Trackpoint>
          <Trackpoint>
            <Time>2022-09-24T13:53:37.000Z</Time>
            <Position>
              <LatitudeDegrees>43.267855234444141387939453125</LatitudeDegrees>
              <LongitudeDegrees>-2.94593520462512969970703125</LongitudeDegrees>
            </Position>
            <DistanceMeters>1678.2008193723</DistanceMeters>
          </Trackpoint>
          <Trackpoint>
            <Time>2022-09-24T13:53:38.000Z</Time>
            <Position>
              <LatitudeDegrees>43.2678537257015705108642578125</LatitudeDegrees>
              <LongitudeDegrees>-2.94594031758606433868408203125</LongitudeDegrees>
            </Position>
            <DistanceMeters>1678.6565514846</DistanceMeters>
          </Trackpoint>
          <Trackpoint>
            <Time>2022-09-24T13:53:39.000Z</Time>
            <Position>
              <LatitudeDegrees>43.2678523845970630645751953125</LatitudeDegrees>
              <LongitudeDegrees>-2.94594601728022098541259765625</LongitudeDegrees>
            </Position>
            <DistanceMeters>1679.1503247767</DistanceMeters>
          </Trackpoint>
          <Trackpoint>
            <Time>2022-09-24T13:53:40.000Z</Time>
            <Position>
              <LatitudeDegrees>43.26785112731158733367919921875</LatitudeDegrees>
              <LongitudeDegrees>-2.94595221988856792449951171875</LongitudeDegrees>
            </Position>
            <DistanceMeters>1679.670807527</DistanceMeters>
          </Trackpoint>
          <Trackpoint>
            <Time>2022-09-24T13:53:41.000Z</Time>
            <Position>
              <LatitudeDegrees>43.26784978620707988739013671875</LatitudeDegrees>
              <LongitudeDegrees>-2.94595892541110515594482421875</LongitudeDegrees>
            </Position>
            <DistanceMeters>1680.2329931507</DistanceMeters>
          </Trackpoint>
          <Trackpoint>
            <Time>2022-09-24T13:53:42.000Z</Time>
            <Position>
              <LatitudeDegrees>43.26784810982644557952880859375</LatitudeDegrees>
              <LongitudeDegrees>-2.9459653794765472412109375</LongitudeDegrees>
            </Position>
            <DistanceMeters>1680.7870893509</DistanceMeters>
          </Trackpoint>
          <Trackpoint>
            <Time>2022-09-24T13:53:43.000Z</Time>
            <Position>
              <LatitudeDegrees>43.26784618198871612548828125</LatitudeDegrees>
              <LongitudeDegrees>-2.94597166590392589569091796875</LongitudeDegrees>
            </Position>
            <DistanceMeters>1681.3411855512</DistanceMeters>
          </Trackpoint>
          <Trackpoint>
            <Time>2022-09-24T13:53:44.000Z</Time>
            <Position>
              <LatitudeDegrees>43.267844505608081817626953125</LatitudeDegrees>
              <LongitudeDegrees>-2.94597736559808254241943359375</LongitudeDegrees>
            </Position>
            <DistanceMeters>1681.8440196594</DistanceMeters>
          </Trackpoint>
          <Trackpoint>
            <Time>2022-09-24T13:53:45.000Z</Time>
            <Position>
              <LatitudeDegrees>43.2678426615893840789794921875</LatitudeDegrees>
              <LongitudeDegrees>-2.9459829814732074737548828125</LongitudeDegrees>
            </Position>
            <DistanceMeters>1682.3468537677</DistanceMeters>
          </Trackpoint>
          <Trackpoint>
            <Time>2022-09-24T13:53:46.000Z</Time>
            <Position>
              <LatitudeDegrees>43.26784081757068634033203125</LatitudeDegrees>
              <LongitudeDegrees>-2.9459886811673641204833984375</LongitudeDegrees>
            </Position>
            <DistanceMeters>1682.8673365179</DistanceMeters>
          </Trackpoint>
          <Trackpoint>
            <Time>2022-09-24T13:53:47.000Z</Time>
            <Position>
              <LatitudeDegrees>43.26783905737102031707763671875</LatitudeDegrees>
              <LongitudeDegrees>-2.94599463231861591339111328125</LongitudeDegrees>
            </Position>
            <DistanceMeters>1683.3878192682</DistanceMeters>
          </Trackpoint>
          <Trackpoint>
            <Time>2022-09-24T13:53:48.000Z</Time>
            <Position>
              <LatitudeDegrees>43.26783738099038600921630859375</LatitudeDegrees>
              <LongitudeDegrees>-2.94600150547921657562255859375</LongitudeDegrees>
            </Position>
            <DistanceMeters>1683.9736032769</DistanceMeters>
          </Trackpoint>
          <Trackpoint>
            <Time>2022-09-24T13:53:49.000Z</Time>
            <Position>
              <LatitudeDegrees>43.26783603988587856292724609375</LatitudeDegrees>
              <LongitudeDegrees>-2.94600871391594409942626953125</LongitudeDegrees>
            </Position>
            <DistanceMeters>1684.5820711349</DistanceMeters>
          </Trackpoint>
          <Trackpoint>
            <Time>2022-09-24T13:53:50.000Z</Time>
            <Position>
              <LatitudeDegrees>43.267834447324275970458984375</LatitudeDegrees>
              <LongitudeDegrees>-2.9460163414478302001953125</LongitudeDegrees>
            </Position>
            <DistanceMeters>1685.2195297139</DistanceMeters>
          </Trackpoint>
          <Trackpoint>
            <Time>2022-09-24T13:53:51.000Z</Time>
            <Position>
              <LatitudeDegrees>43.26783277094364166259765625</LatitudeDegrees>
              <LongitudeDegrees>-2.946023382246494293212890625</LongitudeDegrees>
            </Position>
            <DistanceMeters>1685.8205314259</DistanceMeters>
          </Trackpoint>
          <Trackpoint>
            <Time>2022-09-24T13:53:52.000Z</Time>
            <Position>
              <LatitudeDegrees>43.26783117838203907012939453125</LatitudeDegrees>
              <LongitudeDegrees>-2.9460299201309680938720703125</LongitudeDegrees>
            </Position>
            <DistanceMeters>1686.3827170496</DistanceMeters>
          </Trackpoint>
          <Trackpoint>
            <Time>2022-09-24T13:53:53.000Z</Time>
            <Position>
              <LatitudeDegrees>43.267829082906246185302734375</LatitudeDegrees>
              <LongitudeDegrees>-2.94603721238672733306884765625</LongitudeDegrees>
            </Position>
            <DistanceMeters>1687.0272195837</DistanceMeters>
          </Trackpoint>
          <Trackpoint>
            <Time>2022-09-24T13:53:54.000Z</Time>
            <Position>
              <LatitudeDegrees>43.2678265683352947235107421875</LatitudeDegrees>
              <LongitudeDegrees>-2.94604442082345485687255859375</LongitudeDegrees>
            </Position>
            <DistanceMeters>1687.6717221178</DistanceMeters>
          </Trackpoint>
          <Trackpoint>
            <Time>2022-09-24T13:53:55.000Z</Time>
            <Position>
              <LatitudeDegrees>43.2678242214024066925048828125</LatitudeDegrees>
              <LongitudeDegrees>-2.9460513778030872344970703125</LongitudeDegrees>
            </Position>
            <DistanceMeters>1688.2948539554</DistanceMeters>
          </Trackpoint>
          <Trackpoint>
            <Time>2022-09-24T13:53:56.000Z</Time>
            <Position>
              <LatitudeDegrees>43.26782204210758209228515625</LatitudeDegrees>
              <LongitudeDegrees>-2.9460580833256244659423828125</LongitudeDegrees>
            </Position>
            <DistanceMeters>1688.8958556673</DistanceMeters>
          </Trackpoint>
          <Trackpoint>
            <Time>2022-09-24T13:53:57.000Z</Time>
            <Position>
              <LatitudeDegrees>43.26781977899372577667236328125</LatitudeDegrees>
              <LongitudeDegrees>-2.946064285933971405029296875</LongitudeDegrees>
            </Position>
            <DistanceMeters>1689.4580412911</DistanceMeters>
          </Trackpoint>
          <Trackpoint>
            <Time>2022-09-24T13:53:58.000Z</Time>
            <Position>
              <LatitudeDegrees>43.2678175158798694610595703125</LatitudeDegrees>
              <LongitudeDegrees>-2.94607090763747692108154296875</LongitudeDegrees>
            </Position>
            <DistanceMeters>1690.059043003</DistanceMeters>
          </Trackpoint>
          <Trackpoint>
            <Time>2022-09-24T13:53:59.000Z</Time>
            <Position>
              <LatitudeDegrees>43.26781542040407657623291015625</LatitudeDegrees>
              <LongitudeDegrees>-2.9460778646171092987060546875</LongitudeDegrees>
            </Position>
            <DistanceMeters>1690.6748864983</DistanceMeters>
          </Trackpoint>
          <Trackpoint>
            <Time>2022-09-24T13:54:00.000Z</Time>
            <Position>
              <LatitudeDegrees>43.26781340874731540679931640625</LatitudeDegrees>
              <LongitudeDegrees>-2.9460847377777099609375</LongitudeDegrees>
            </Position>
            <DistanceMeters>1691.2758882102</DistanceMeters>
          </Trackpoint>
          <Trackpoint>
            <Time>2022-09-24T13:54:01.000Z</Time>
            <Position>
              <LatitudeDegrees>43.26781156472861766815185546875</LatitudeDegrees>
              <LongitudeDegrees>-2.946091778576374053955078125</LongitudeDegrees>
            </Position>
            <DistanceMeters>1691.8768899222</DistanceMeters>
          </Trackpoint>
          <Trackpoint>
            <Time>2022-09-24T13:54:02.000Z</Time>
            <Position>
              <LatitudeDegrees>43.2678098045289516448974609375</LatitudeDegrees>
              <LongitudeDegrees>-2.9460986517369747161865234375</LongitudeDegrees>
            </Position>
            <DistanceMeters>1692.4626739309</DistanceMeters>
          </Trackpoint>
          <Trackpoint>
            <Time>2022-09-24T13:54:03.000Z</Time>
            <Position>
              <LatitudeDegrees>43.26780787669122219085693359375</LatitudeDegrees>
              <LongitudeDegrees>-2.94610594399273395538330078125</LongitudeDegrees>
            </Position>
            <DistanceMeters>1693.0930098441</DistanceMeters>
          </Trackpoint>
          <Trackpoint>
            <Time>2022-09-24T13:54:04.000Z</Time>
            <Position>
              <LatitudeDegrees>43.26780586503446102142333984375</LatitudeDegrees>
              <LongitudeDegrees>-2.946113236248493194580078125</LongitudeDegrees>
            </Position>
            <DistanceMeters>1693.7233457574</DistanceMeters>
          </Trackpoint>
          <Trackpoint>
            <Time>2022-09-24T13:54:05.000Z</Time>
            <Position>
              <LatitudeDegrees>43.2678037695586681365966796875</LatitudeDegrees>
              <LongitudeDegrees>-2.94612069614231586456298828125</LongitudeDegrees>
            </Position>
            <DistanceMeters>1694.3678482915</DistanceMeters>
          </Trackpoint>
          <Trackpoint>
            <Time>2022-09-24T13:54:06.000Z</Time>
            <Position>
              <LatitudeDegrees>43.267801590263843536376953125</LatitudeDegrees>
              <LongitudeDegrees>-2.946127988398075103759765625</LongitudeDegrees>
            </Position>
            <DistanceMeters>1695.0123508255</DistanceMeters>
          </Trackpoint>
          <Trackpoint>
            <Time>2022-09-24T13:54:07.000Z</Time>
            <Position>
              <LatitudeDegrees>43.26779949478805065155029296875</LatitudeDegrees>
              <LongitudeDegrees>-2.94613511301577091217041015625</LongitudeDegrees>
            </Position>
            <DistanceMeters>1695.6426867388</DistanceMeters>
          </Trackpoint>
          <Trackpoint>
            <Time>2022-09-24T13:54:08.000Z</Time>
            <Position>
              <LatitudeDegrees>43.2677973993122577667236328125</LatitudeDegrees>
              <LongitudeDegrees>-2.9461419023573398590087890625</LongitudeDegrees>
            </Position>
            <DistanceMeters>1696.2361283798</DistanceMeters>
          </Trackpoint>
          <Trackpoint>
            <Time>2022-09-24T13:54:09.000Z</Time>
            <Position>
              <LatitudeDegrees>43.267794884741306304931640625</LatitudeDegrees>
              <LongitudeDegrees>-2.946148104965686798095703125</LongitudeDegrees>
            </Position>
            <DistanceMeters>1696.8141533174</DistanceMeters>
          </Trackpoint>
          <Trackpoint>
            <Time>2022-09-24T13:54:10.000Z</Time>
            <Position>
              <LatitudeDegrees>43.2677920348942279815673828125</LatitudeDegrees>
              <LongitudeDegrees>-2.9461543075740337371826171875</LongitudeDegrees>
            </Position>
            <DistanceMeters>1697.4075949584</DistanceMeters>
          </Trackpoint>
          <Trackpoint>
            <Time>2022-09-24T13:54:11.000Z</Time>
            <Position>
              <LatitudeDegrees>43.26778893359005451202392578125</LatitudeDegrees>
              <LongitudeDegrees>-2.94616059400141239166259765625</LongitudeDegrees>
            </Position>
            <DistanceMeters>1698.0234384536</DistanceMeters>
          </Trackpoint>
          <Trackpoint>
            <Time>2022-09-24T13:54:12.000Z</Time>
            <Position>
              <LatitudeDegrees>43.26778574846684932708740234375</LatitudeDegrees>
              <LongitudeDegrees>-2.9461670480668544769287109375</LongitudeDegrees>
            </Position>
            <DistanceMeters>1698.6537743669</DistanceMeters>
          </Trackpoint>
          <Trackpoint>
            <Time>2022-09-24T13:54:13.000Z</Time>
            <Position>
              <LatitudeDegrees>43.26778289861977100372314453125</LatitudeDegrees>
              <LongitudeDegrees>-2.9461734183132648468017578125</LongitudeDegrees>
            </Position>
            <DistanceMeters>1699.2622422249</DistanceMeters>
          </Trackpoint>
          <Trackpoint>
            <Time>2022-09-24T13:54:14.000Z</Time>
            <Position>
              <LatitudeDegrees>43.26778038404881954193115234375</LatitudeDegrees>
              <LongitudeDegrees>-2.94617987237870693206787109375</LongitudeDegrees>
            </Position>
            <DistanceMeters>1699.8480262336</DistanceMeters>
          </Trackpoint>
          <Trackpoint>
            <Time>2022-09-24T13:54:15.000Z</Time>
            <Position>
              <LatitudeDegrees>43.2677779532968997955322265625</LatitudeDegrees>
              <LongitudeDegrees>-2.946186326444149017333984375</LongitudeDegrees>
            </Position>
            <DistanceMeters>1700.4338102423</DistanceMeters>
          </Trackpoint>
          <Trackpoint>
            <Time>2022-09-24T13:54:16.000Z</Time>
            <Position>
              <LatitudeDegrees>43.2677752710878849029541015625</LatitudeDegrees>
              <LongitudeDegrees>-2.94619278050959110260009765625</LongitudeDegrees>
            </Position>
            <DistanceMeters>1701.0348119543</DistanceMeters>
          </Trackpoint>
          <Trackpoint>
            <Time>2022-09-24T13:54:17.000Z</Time>
            <Position>
              <LatitudeDegrees>43.26777267269790172576904296875</LatitudeDegrees>
              <LongitudeDegrees>-2.94619915075600147247314453125</LongitudeDegrees>
            </Position>
            <DistanceMeters>1701.6358136662</DistanceMeters>
          </Trackpoint>
          <Trackpoint>
            <Time>2022-09-24T13:54:18.000Z</Time>
            <Position>
              <LatitudeDegrees>43.26777015812695026397705078125</LatitudeDegrees>
              <LongitudeDegrees>-2.9462056048214435577392578125</LongitudeDegrees>
            </Position>
            <DistanceMeters>1702.2215976749</DistanceMeters>
          </Trackpoint>
          <Trackpoint>
            <Time>2022-09-24T13:54:19.000Z</Time>
            <Position>
              <LatitudeDegrees>43.26776764355599880218505859375</LatitudeDegrees>
              <LongitudeDegrees>-2.9462121427059173583984375</LongitudeDegrees>
            </Position>
            <DistanceMeters>1702.8225993869</DistanceMeters>
          </Trackpoint>
          <Trackpoint>
            <Time>2022-09-24T13:54:20.000Z</Time>
            <Position>
              <LatitudeDegrees>43.267765045166015625</LatitudeDegrees>
              <LongitudeDegrees>-2.94621859677135944366455078125</LongitudeDegrees>
            </Position>
            <DistanceMeters>1703.4236010988</DistanceMeters>
          </Trackpoint>
          <Trackpoint>
            <Time>2022-09-24T13:54:21.000Z</Time>
            <Position>
              <LatitudeDegrees>43.2677625305950641632080078125</LatitudeDegrees>
              <LongitudeDegrees>-2.94622479937970638275146484375</LongitudeDegrees>
            </Position>
            <DistanceMeters>1704.0016260364</DistanceMeters>
          </Trackpoint>
          <Trackpoint>
            <Time>2022-09-24T13:54:22.000Z</Time>
            <Position>
              <LatitudeDegrees>43.26775993220508098602294921875</LatitudeDegrees>
              <LongitudeDegrees>-2.9462307505309581756591796875</LongitudeDegrees>
            </Position>
            <DistanceMeters>1704.5638116601</DistanceMeters>
          </Trackpoint>
          <Trackpoint>
            <Time>2022-09-24T13:54:23.000Z</Time>
            <Position>
              <LatitudeDegrees>43.26775724999606609344482421875</LatitudeDegrees>
              <LongitudeDegrees>-2.94623686932027339935302734375</LongitudeDegrees>
            </Position>
            <DistanceMeters>1705.1418365976</DistanceMeters>
          </Trackpoint>
          <Trackpoint>
            <Time>2022-09-24T13:54:24.000Z</Time>
            <Position>
              <LatitudeDegrees>43.26775456778705120086669921875</LatitudeDegrees>
              <LongitudeDegrees>-2.94624340720474720001220703125</LongitudeDegrees>
            </Position>
            <DistanceMeters>1705.7503044556</DistanceMeters>
          </Trackpoint>
          <Trackpoint>
            <Time>2022-09-24T13:54:25.000Z</Time>
            <Position>
              <LatitudeDegrees>43.26775171793997287750244140625</LatitudeDegrees>
              <LongitudeDegrees>-2.94624994508922100067138671875</LongitudeDegrees>
            </Position>
            <DistanceMeters>1706.3661479509</DistanceMeters>
          </Trackpoint>
          <Trackpoint>
            <Time>2022-09-24T13:54:26.000Z</Time>
            <Position>
              <LatitudeDegrees>43.26774870045483112335205078125</LatitudeDegrees>
              <LongitudeDegrees>-2.946256734430789947509765625</LongitudeDegrees>
            </Position>
            <DistanceMeters>1707.0106504849</DistanceMeters>
          </Trackpoint>
          <Trackpoint>
            <Time>2022-09-24T13:54:27.000Z</Time>
            <Position>
              <LatitudeDegrees>43.26774568296968936920166015625</LatitudeDegrees>
              <LongitudeDegrees>-2.946263439953327178955078125</LongitudeDegrees>
            </Position>
            <DistanceMeters>1707.655153019</DistanceMeters>
          </Trackpoint>
          <Trackpoint>
            <Time>2022-09-24T13:54:28.000Z</Time>
            <Position>
              <LatitudeDegrees>43.267742581665515899658203125</LatitudeDegrees>
              <LongitudeDegrees>-2.946270145475864410400390625</LongitudeDegrees>
            </Position>
            <DistanceMeters>1708.2996555531</DistanceMeters>
          </Trackpoint>
          <Trackpoint>
            <Time>2022-09-24T13:54:29.000Z</Time>
            <Position>
              <LatitudeDegrees>43.2677393965423107147216796875</LatitudeDegrees>
              <LongitudeDegrees>-2.94627643190324306488037109375</LongitudeDegrees>
            </Position>
            <DistanceMeters>1708.9227873907</DistanceMeters>
          </Trackpoint>
          <Trackpoint>
            <Time>2022-09-24T13:54:30.000Z</Time>
            <Position>
              <LatitudeDegrees>43.26773646287620067596435546875</LatitudeDegrees>
              <LongitudeDegrees>-2.94628255069255828857421875</LongitudeDegrees>
            </Position>
            <DistanceMeters>1709.5085713995</DistanceMeters>
          </Trackpoint>
          <Trackpoint>
            <Time>2022-09-24T13:54:31.000Z</Time>
            <Position>
              <LatitudeDegrees>43.26773352921009063720703125</LatitudeDegrees>
              <LongitudeDegrees>-2.946288920938968658447265625</LongitudeDegrees>
            </Position>
            <DistanceMeters>1710.1244148947</DistanceMeters>
          </Trackpoint>
          <Trackpoint>
            <Time>2022-09-24T13:54:32.000Z</Time>
            <Position>
              <LatitudeDegrees>43.26773076318204402923583984375</LatitudeDegrees>
              <LongitudeDegrees>-2.94629503972828388214111328125</LongitudeDegrees>
            </Position>
            <DistanceMeters>1710.7101989034</DistanceMeters>
          </Trackpoint>
          <Trackpoint>
            <Time>2022-09-24T13:54:33.000Z</Time>
            <Position>
              <LatitudeDegrees>43.26772791333496570587158203125</LatitudeDegrees>
              <LongitudeDegrees>-2.94630174525082111358642578125</LongitudeDegrees>
            </Position>
            <DistanceMeters>1711.3405348167</DistanceMeters>
          </Trackpoint>
          <Trackpoint>
            <Time>2022-09-24T13:54:34.000Z</Time>
            <Position>
              <LatitudeDegrees>43.2677249796688556671142578125</LatitudeDegrees>
              <LongitudeDegrees>-2.94630845077335834503173828125</LongitudeDegrees>
            </Position>
            <DistanceMeters>1711.9779933957</DistanceMeters>
          </Trackpoint>
          <Trackpoint>
            <Time>2022-09-24T13:54:35.000Z</Time>
            <Position>
              <LatitudeDegrees>43.26772212982177734375</LatitudeDegrees>
              <LongitudeDegrees>-2.94631540775299072265625</LongitudeDegrees>
            </Position>
            <DistanceMeters>1712.6224959298</DistanceMeters>
          </Trackpoint>
          <Trackpoint>
            <Time>2022-09-24T13:54:36.000Z</Time>
            <Position>
              <LatitudeDegrees>43.26771953143179416656494140625</LatitudeDegrees>
              <LongitudeDegrees>-2.9463222809135913848876953125</LongitudeDegrees>
            </Position>
            <DistanceMeters>1713.252831843</DistanceMeters>
          </Trackpoint>
          <Trackpoint>
            <Time>2022-09-24T13:54:37.000Z</Time>
            <Position>
              <LatitudeDegrees>43.2677169330418109893798828125</LatitudeDegrees>
              <LongitudeDegrees>-2.94632907025516033172607421875</LongitudeDegrees>
            </Position>
            <DistanceMeters>1713.8831677563</DistanceMeters>
          </Trackpoint>
          <Trackpoint>
            <Time>2022-09-24T13:54:38.000Z</Time>
            <Position>
              <LatitudeDegrees>43.2677142508327960968017578125</LatitudeDegrees>
              <LongitudeDegrees>-2.94633594341576099395751953125</LongitudeDegrees>
            </Position>
            <DistanceMeters>1714.5135036695</DistanceMeters>
          </Trackpoint>
          <Trackpoint>
            <Time>2022-09-24T13:54:39.000Z</Time>
            <Position>
              <LatitudeDegrees>43.2677115686237812042236328125</LatitudeDegrees>
              <LongitudeDegrees>-2.94634264893829822540283203125</LongitudeDegrees>
            </Position>
            <DistanceMeters>1715.1366355072</DistanceMeters>
          </Trackpoint>
          <Trackpoint>
            <Time>2022-09-24T13:54:40.000Z</Time>
            <Position>
              <LatitudeDegrees>43.2677088864147663116455078125</LatitudeDegrees>
              <LongitudeDegrees>-2.9463489353656768798828125</LongitudeDegrees>
            </Position>
            <DistanceMeters>1715.7376372191</DistanceMeters>
          </Trackpoint>
          <Trackpoint>
            <Time>2022-09-24T13:54:41.000Z</Time>
            <Position>
              <LatitudeDegrees>43.26770628802478313446044921875</LatitudeDegrees>
              <LongitudeDegrees>-2.9463554732501506805419921875</LongitudeDegrees>
            </Position>
            <DistanceMeters>1716.3386389311</DistanceMeters>
          </Trackpoint>
          <Trackpoint>
            <Time>2022-09-24T13:54:42.000Z</Time>
            <Position>
              <LatitudeDegrees>43.267703689634799957275390625</LatitudeDegrees>
              <LongitudeDegrees>-2.9463618434965610504150390625</LongitudeDegrees>
            </Position>
            <DistanceMeters>1716.9320805721</DistanceMeters>
          </Trackpoint>
          <Trackpoint>
            <Time>2022-09-24T13:54:43.000Z</Time>
            <Position>
              <LatitudeDegrees>43.26770109124481678009033203125</LatitudeDegrees>
              <LongitudeDegrees>-2.94636838138103485107421875</LongitudeDegrees>
            </Position>
            <DistanceMeters>1717.5255222131</DistanceMeters>
          </Trackpoint>
          <Trackpoint>
            <Time>2022-09-24T13:54:44.000Z</Time>
            <Position>
              <LatitudeDegrees>43.2676988281309604644775390625</LatitudeDegrees>
              <LongitudeDegrees>-2.946374416351318359375</LongitudeDegrees>
            </Position>
            <DistanceMeters>1718.0796184133</DistanceMeters>
          </Trackpoint>
          <Trackpoint>
            <Time>2022-09-24T13:54:45.000Z</Time>
            <Position>
              <LatitudeDegrees>43.26769673265516757965087890625</LatitudeDegrees>
              <LongitudeDegrees>-2.94638045132160186767578125</LongitudeDegrees>
            </Position>
            <DistanceMeters>1718.6337146136</DistanceMeters>
          </Trackpoint>
          <Trackpoint>
            <Time>2022-09-24T13:54:46.000Z</Time>
            <Position>
              <LatitudeDegrees>43.2676948048174381256103515625</LatitudeDegrees>
              <LongitudeDegrees>-2.94638623483479022979736328125</LongitudeDegrees>
            </Position>
            <DistanceMeters>1719.1454491315</DistanceMeters>
          </Trackpoint>
          <Trackpoint>
            <Time>2022-09-24T13:54:47.000Z</Time>
            <Position>
              <LatitudeDegrees>43.2676927931606769561767578125</LatitudeDegrees>
              <LongitudeDegrees>-2.94639193452894687652587890625</LongitudeDegrees>
            </Position>
            <DistanceMeters>1719.6659318818</DistanceMeters>
          </Trackpoint>
          <Trackpoint>
            <Time>2022-09-24T13:54:48.000Z</Time>
            <Position>
              <LatitudeDegrees>43.26769120059907436370849609375</LatitudeDegrees>
              <LongitudeDegrees>-2.94639780186116695404052734375</LongitudeDegrees>
            </Position>
            <DistanceMeters>1720.16876599</DistanceMeters>
          </Trackpoint>
          <Trackpoint>
            <Time>2022-09-24T13:54:49.000Z</Time>
            <Position>
              <LatitudeDegrees>43.26768985949456691741943359375</LatitudeDegrees>
              <LongitudeDegrees>-2.94640366919338703155517578125</LongitudeDegrees>
            </Position>
            <DistanceMeters>1720.6625392821</DistanceMeters>
          </Trackpoint>
          <Trackpoint>
            <Time>2022-09-24T13:54:50.000Z</Time>
            <Position>
              <LatitudeDegrees>43.26768851839005947113037109375</LatitudeDegrees>
              <LongitudeDegrees>-2.9464097879827022552490234375</LongitudeDegrees>
            </Position>
            <DistanceMeters>1721.1830220324</DistanceMeters>
          </Trackpoint>
          <Trackpoint>
            <Time>2022-09-24T13:54:51.000Z</Time>
            <Position>
              <LatitudeDegrees>43.2676874287426471710205078125</LatitudeDegrees>
              <LongitudeDegrees>-2.94641573913395404815673828125</LongitudeDegrees>
            </Position>
            <DistanceMeters>1721.6858561407</DistanceMeters>
          </Trackpoint>
          <Trackpoint>
            <Time>2022-09-24T13:54:52.000Z</Time>
            <Position>
              <LatitudeDegrees>43.2676864229142665863037109375</LatitudeDegrees>
              <LongitudeDegrees>-2.94642160646617412567138671875</LongitudeDegrees>
            </Position>
            <DistanceMeters>1722.1703992116</DistanceMeters>
          </Trackpoint>
          <Trackpoint>
            <Time>2022-09-24T13:54:53.000Z</Time>
            <Position>
              <LatitudeDegrees>43.26768583618104457855224609375</LatitudeDegrees>
              <LongitudeDegrees>-2.94642764143645763397216796875</LongitudeDegrees>
            </Position>
            <DistanceMeters>1722.6732333198</DistanceMeters>
          </Trackpoint>
          <Trackpoint>
            <Time>2022-09-24T13:54:54.000Z</Time>
            <Position>
              <LatitudeDegrees>43.26768516562879085540771484375</LatitudeDegrees>
              <LongitudeDegrees>-2.94643342494964599609375</LongitudeDegrees>
            </Position>
            <DistanceMeters>1723.1483668917</DistanceMeters>
          </Trackpoint>
          <Trackpoint>
            <Time>2022-09-24T13:54:55.000Z</Time>
            <Position>
              <LatitudeDegrees>43.26768449507653713226318359375</LatitudeDegrees>
              <LongitudeDegrees>-2.94643887318670749664306640625</LongitudeDegrees>
            </Position>
            <DistanceMeters>1723.5940816903</DistanceMeters>
          </Trackpoint>
          <Trackpoint>
            <Time>2022-09-24T13:54:56.000Z</Time>
            <Position>
              <LatitudeDegrees>43.2676837407052516937255859375</LatitudeDegrees>
              <LongitudeDegrees>-2.94644415378570556640625</LongitudeDegrees>
            </Position>
            <DistanceMeters>1724.0190540764</DistanceMeters>
          </Trackpoint>
          <Trackpoint>
            <Time>2022-09-24T13:54:57.000Z</Time>
            <Position>
              <LatitudeDegrees>43.2676830701529979705810546875</LatitudeDegrees>
              <LongitudeDegrees>-2.94644884765148162841796875</LongitudeDegrees>
            </Position>
            <DistanceMeters>1724.3991609338</DistanceMeters>
          </Trackpoint>
          <Trackpoint>
            <Time>2022-09-24T13:54:58.000Z</Time>
            <Position>
              <LatitudeDegrees>43.26768198050558567047119140625</LatitudeDegrees>
              <LongitudeDegrees>-2.9464533738791942596435546875</LongitudeDegrees>
            </Position>
            <DistanceMeters>1724.7792677913</DistanceMeters>
          </Trackpoint>
          <Trackpoint>
            <Time>2022-09-24T13:54:59.000Z</Time>
            <Position>
              <LatitudeDegrees>43.26768063940107822418212890625</LatitudeDegrees>
              <LongitudeDegrees>-2.94645748101174831390380859375</LongitudeDegrees>
            </Position>
            <DistanceMeters>1725.1348251991</DistanceMeters>
          </Trackpoint>
          <Trackpoint>
            <Time>2022-09-24T13:55:00.000Z</Time>
            <Position>
              <LatitudeDegrees>43.2676792144775390625</LatitudeDegrees>
              <LongitudeDegrees>-2.94646150432527065277099609375</LongitudeDegrees>
            </Position>
            <DistanceMeters>1725.4903826069</DistanceMeters>
          </Trackpoint>
          <Trackpoint>
            <Time>2022-09-24T13:55:01.000Z</Time>
            <Position>
              <LatitudeDegrees>43.26767762191593647003173828125</LatitudeDegrees>
              <LongitudeDegrees>-2.946465276181697845458984375</LongitudeDegrees>
            </Position>
            <DistanceMeters>1725.8459400146</DistanceMeters>
          </Trackpoint>
          <Trackpoint>
            <Time>2022-09-24T13:55:02.000Z</Time>
            <Position>
              <LatitudeDegrees>43.26767586171627044677734375</LatitudeDegrees>
              <LongitudeDegrees>-2.94646896421909332275390625</LongitudeDegrees>
            </Position>
            <DistanceMeters>1726.2014974224</DistanceMeters>
          </Trackpoint>
          <Trackpoint>
            <Time>2022-09-24T13:55:03.000Z</Time>
            <Position>
              <LatitudeDegrees>43.2676740176975727081298828125</LatitudeDegrees>
              <LongitudeDegrees>-2.9464749991893768310546875</LongitudeDegrees>
            </Position>
            <DistanceMeters>1726.7390496954</DistanceMeters>
          </Trackpoint>
          <Trackpoint>
            <Time>2022-09-24T13:55:04.000Z</Time>
            <Position>
              <LatitudeDegrees>43.26767276041209697723388671875</LatitudeDegrees>
              <LongitudeDegrees>-2.94647994451224803924560546875</LongitudeDegrees>
            </Position>
            <DistanceMeters>1727.1640220814</DistanceMeters>
          </Trackpoint>
          <Trackpoint>
            <Time>2022-09-24T13:55:05.000Z</Time>
            <Position>
              <LatitudeDegrees>43.2676720060408115386962890625</LatitudeDegrees>
              <LongitudeDegrees>-2.9464845545589923858642578125</LongitudeDegrees>
            </Position>
            <DistanceMeters>1727.5441289389</DistanceMeters>
          </Trackpoint>
          <Trackpoint>
            <Time>2022-09-24T13:55:06.000Z</Time>
            <Position>
              <LatitudeDegrees>43.26767175458371639251708984375</LatitudeDegrees>
              <LongitudeDegrees>-2.94648966751992702484130859375</LongitudeDegrees>
            </Position>
            <DistanceMeters>1727.9691013249</DistanceMeters>
          </Trackpoint>
          <Trackpoint>
            <Time>2022-09-24T13:55:07.000Z</Time>
            <Position>
              <LatitudeDegrees>43.26767192222177982330322265625</LatitudeDegrees>
              <LongitudeDegrees>-2.9464946128427982330322265625</LongitudeDegrees>
            </Position>
            <DistanceMeters>1728.3722655296</DistanceMeters>
          </Trackpoint>
          <Trackpoint>
            <Time>2022-09-24T13:55:08.000Z</Time>
            <Position>
              <LatitudeDegrees>43.26767225749790668487548828125</LatitudeDegrees>
              <LongitudeDegrees>-2.94649888761341571807861328125</LongitudeDegrees>
            </Position>
            <DistanceMeters>1728.7278229374</DistanceMeters>
          </Trackpoint>
          <Trackpoint>
            <Time>2022-09-24T13:55:09.000Z</Time>
            <Position>
              <LatitudeDegrees>43.26767276041209697723388671875</LatitudeDegrees>
              <LongitudeDegrees>-2.94650190509855747222900390625</LongitudeDegrees>
            </Position>
            <DistanceMeters>1728.9792399915</DistanceMeters>
          </Trackpoint>
          <Trackpoint>
            <Time>2022-09-24T13:55:10.000Z</Time>
            <Position>
              <LatitudeDegrees>43.2676730118691921234130859375</LatitudeDegrees>
              <LongitudeDegrees>-2.94650492258369922637939453125</LongitudeDegrees>
            </Position>
            <DistanceMeters>1729.2120069537</DistanceMeters>
          </Trackpoint>
          <Trackpoint>
            <Time>2022-09-24T13:55:11.000Z</Time>
            <Position>
              <LatitudeDegrees>43.2676740176975727081298828125</LatitudeDegrees>
              <LongitudeDegrees>-2.94650794006884098052978515625</LongitudeDegrees>
            </Position>
            <DistanceMeters>1729.4807830902</DistanceMeters>
          </Trackpoint>
          <Trackpoint>
            <Time>2022-09-24T13:55:12.000Z</Time>
            <Position>
              <LatitudeDegrees>43.26767594553530216217041015625</LatitudeDegrees>
              <LongitudeDegrees>-2.9465107060968875885009765625</LongitudeDegrees>
            </Position>
            <DistanceMeters>1729.7959510468</DistanceMeters>
          </Trackpoint>
          <Trackpoint>
            <Time>2022-09-24T13:55:13.000Z</Time>
            <Position>
              <LatitudeDegrees>43.26767242513597011566162109375</LatitudeDegrees>
              <LongitudeDegrees>-2.94650978408753871917724609375</LongitudeDegrees>
            </Position>
            <DistanceMeters>1730.1991152516</DistanceMeters>
          </Trackpoint>
          <Trackpoint>
            <Time>2022-09-24T13:55:14.000Z</Time>
            <Position>
              <LatitudeDegrees>43.26766840182244777679443359375</LatitudeDegrees>
              <LongitudeDegrees>-2.94651028700172901153564453125</LongitudeDegrees>
            </Position>
            <DistanceMeters>1730.6448300502</DistanceMeters>
          </Trackpoint>
          <Trackpoint>
            <Time>2022-09-24T13:55:15.000Z</Time>
            <Position>
              <LatitudeDegrees>43.2676642946898937225341796875</LatitudeDegrees>
              <LongitudeDegrees>-2.9465127177536487579345703125</LongitudeDegrees>
            </Position>
            <DistanceMeters>1731.1476641585</DistanceMeters>
          </Trackpoint>
          <Trackpoint>
            <Time>2022-09-24T13:55:16.000Z</Time>
            <Position>
              <LatitudeDegrees>43.267659433186054229736328125</LatitudeDegrees>
              <LongitudeDegrees>-2.94651749543845653533935546875</LongitudeDegrees>
            </Position>
            <DistanceMeters>1731.806028548</DistanceMeters>
          </Trackpoint>
          <Trackpoint>
            <Time>2022-09-24T13:55:17.000Z</Time>
            <Position>
              <LatitudeDegrees>43.267653398215770721435546875</LatitudeDegrees>
              <LongitudeDegrees>-2.94652235694229602813720703125</LongitudeDegrees>
            </Position>
            <DistanceMeters>1732.578029225</DistanceMeters>
          </Trackpoint>
          <Trackpoint>
            <Time>2022-09-24T13:55:18.000Z</Time>
            <Position>
              <LatitudeDegrees>43.2676470279693603515625</LatitudeDegrees>
              <LongitudeDegrees>-2.94652855955064296722412109375</LongitudeDegrees>
            </Position>
            <DistanceMeters>1733.4437637945</DistanceMeters>
          </Trackpoint>
          <Trackpoint>
            <Time>2022-09-24T13:55:19.000Z</Time>
            <Position>
              <LatitudeDegrees>43.26764040626585483551025390625</LatitudeDegrees>
              <LongitudeDegrees>-2.946537025272846221923828125</LongitudeDegrees>
            </Position>
            <DistanceMeters>1734.449432011</DistanceMeters>
          </Trackpoint>
          <Trackpoint>
            <Time>2022-09-24T13:55:20.000Z</Time>
            <Position>
              <LatitudeDegrees>43.26763303019106388092041015625</LatitudeDegrees>
              <LongitudeDegrees>-2.94654733501374721527099609375</LongitudeDegrees>
            </Position>
            <DistanceMeters>1735.6171398268</DistanceMeters>
          </Trackpoint>
          <Trackpoint>
            <Time>2022-09-24T13:55:21.000Z</Time>
            <Position>
              <LatitudeDegrees>43.26762515120208263397216796875</LatitudeDegrees>
              <LongitudeDegrees>-2.94655856676399707794189453125</LongitudeDegrees>
            </Position>
            <DistanceMeters>1736.8813880345</DistanceMeters>
          </Trackpoint>
          <Trackpoint>
            <Time>2022-09-24T13:55:22.000Z</Time>
            <Position>
              <LatitudeDegrees>43.2676173560321331024169921875</LatitudeDegrees>
              <LongitudeDegrees>-2.946570217609405517578125</LongitudeDegrees>
            </Position>
            <DistanceMeters>1738.1633684995</DistanceMeters>
          </Trackpoint>
          <Trackpoint>
            <Time>2022-09-24T13:55:23.000Z</Time>
            <Position>
              <LatitudeDegrees>43.2676123268902301788330078125</LatitudeDegrees>
              <LongitudeDegrees>-2.94657801277935504913330078125</LongitudeDegrees>
            </Position>
            <DistanceMeters>1739.0026217167</DistanceMeters>
          </Trackpoint>
          <Trackpoint>
            <Time>2022-09-24T13:55:24.000Z</Time>
            <Position>
              <LatitudeDegrees>43.267606794834136962890625</LatitudeDegrees>
              <LongitudeDegrees>-2.9465861432254314422607421875</LongitudeDegrees>
            </Position>
            <DistanceMeters>1739.9041242847</DistanceMeters>
          </Trackpoint>
          <Trackpoint>
            <Time>2022-09-24T13:55:25.000Z</Time>
            <Position>
              <LatitudeDegrees>43.26760101132094860076904296875</LatitudeDegrees>
              <LongitudeDegrees>-2.94659410603344440460205078125</LongitudeDegrees>
            </Position>
            <DistanceMeters>1740.8155885093</DistanceMeters>
          </Trackpoint>
          <Trackpoint>
            <Time>2022-09-24T13:55:26.000Z</Time>
            <Position>
              <LatitudeDegrees>43.2675952278077602386474609375</LatitudeDegrees>
              <LongitudeDegrees>-2.94660248793661594390869140625</LongitudeDegrees>
            </Position>
            <DistanceMeters>1741.7563049871</DistanceMeters>
          </Trackpoint>
          <Trackpoint>
            <Time>2022-09-24T13:55:27.000Z</Time>
            <Position>
              <LatitudeDegrees>43.267589695751667022705078125</LatitudeDegrees>
              <LongitudeDegrees>-2.9466106183826923370361328125</LongitudeDegrees>
            </Position>
            <DistanceMeters>1742.657807555</DistanceMeters>
          </Trackpoint>
          <Trackpoint>
            <Time>2022-09-24T13:55:28.000Z</Time>
            <Position>
              <LatitudeDegrees>43.26758424751460552215576171875</LatitudeDegrees>
              <LongitudeDegrees>-2.94661874882876873016357421875</LongitudeDegrees>
            </Position>
            <DistanceMeters>1743.5593101229</DistanceMeters>
          </Trackpoint>
          <Trackpoint>
            <Time>2022-09-24T13:55:29.000Z</Time>
            <Position>
              <LatitudeDegrees>43.2675784640014171600341796875</LatitudeDegrees>
              <LongitudeDegrees>-2.94662746600806713104248046875</LongitudeDegrees>
            </Position>
            <DistanceMeters>1744.519032894</DistanceMeters>
          </Trackpoint>
          <Trackpoint>
            <Time>2022-09-24T13:55:30.000Z</Time>
            <Position>
              <LatitudeDegrees>43.267571926116943359375</LatitudeDegrees>
              <LongitudeDegrees>-2.94663635082542896270751953125</LongitudeDegrees>
            </Position>
            <DistanceMeters>1745.5425019299</DistanceMeters>
          </Trackpoint>
          <Trackpoint>
            <Time>2022-09-24T13:55:31.000Z</Time>
            <Position>
              <LatitudeDegrees>43.2675650529563426971435546875</LatitudeDegrees>
              <LongitudeDegrees>-2.9466448165476322174072265625</LongitudeDegrees>
            </Position>
            <DistanceMeters>1746.5747562689</DistanceMeters>
          </Trackpoint>
          <Trackpoint>
            <Time>2022-09-24T13:55:32.000Z</Time>
            <Position>
              <LatitudeDegrees>43.26755792833864688873291015625</LatitudeDegrees>
              <LongitudeDegrees>-2.9466533660888671875</LongitudeDegrees>
            </Position>
            <DistanceMeters>1747.6243606354</DistanceMeters>
          </Trackpoint>
          <Trackpoint>
            <Time>2022-09-24T13:55:33.000Z</Time>
            <Position>
              <LatitudeDegrees>43.26755071990191936492919921875</LatitudeDegrees>
              <LongitudeDegrees>-2.94666208326816558837890625</LongitudeDegrees>
            </Position>
            <DistanceMeters>1748.6910328587</DistanceMeters>
          </Trackpoint>
          <Trackpoint>
            <Time>2022-09-24T13:55:34.000Z</Time>
            <Position>
              <LatitudeDegrees>43.26754300855100154876708984375</LatitudeDegrees>
              <LongitudeDegrees>-2.9466706328094005584716796875</LongitudeDegrees>
            </Position>
            <DistanceMeters>1749.7992252591</DistanceMeters>
          </Trackpoint>
          <Trackpoint>
            <Time>2022-09-24T13:55:35.000Z</Time>
            <Position>
              <LatitudeDegrees>43.2675355486571788787841796875</LatitudeDegrees>
              <LongitudeDegrees>-2.94667951762676239013671875</LongitudeDegrees>
            </Position>
            <DistanceMeters>1750.8992390061</DistanceMeters>
          </Trackpoint>
          <Trackpoint>
            <Time>2022-09-24T13:55:36.000Z</Time>
            <Position>
              <LatitudeDegrees>43.26752808876335620880126953125</LatitudeDegrees>
              <LongitudeDegrees>-2.94668865390121936798095703125</LongitudeDegrees>
            </Position>
            <DistanceMeters>1752.0155501407</DistanceMeters>
          </Trackpoint>
          <Trackpoint>
            <Time>2022-09-24T13:55:37.000Z</Time>
            <Position>
              <LatitudeDegrees>43.2675204612314701080322265625</LatitudeDegrees>
              <LongitudeDegrees>-2.94669837690889835357666015625</LongitudeDegrees>
            </Position>
            <DistanceMeters>1753.1793849514</DistanceMeters>
          </Trackpoint>
          <Trackpoint>
            <Time>2022-09-24T13:55:38.000Z</Time>
            <Position>
              <LatitudeDegrees>43.26751283369958400726318359375</LatitudeDegrees>
              <LongitudeDegrees>-2.9467085190117359161376953125</LongitudeDegrees>
            </Position>
            <DistanceMeters>1754.3662682334</DistanceMeters>
          </Trackpoint>
          <Trackpoint>
            <Time>2022-09-24T13:55:39.000Z</Time>
            <Position>
              <LatitudeDegrees>43.26750596053898334503173828125</LatitudeDegrees>
              <LongitudeDegrees>-2.946719415485858917236328125</LongitudeDegrees>
            </Position>
            <DistanceMeters>1755.5378362509</DistanceMeters>
          </Trackpoint>
          <Trackpoint>
            <Time>2022-09-24T13:55:40.000Z</Time>
            <Position>
              <LatitudeDegrees>43.267499506473541259765625</LatitudeDegrees>
              <LongitudeDegrees>-2.94673056341707706451416015625</LongitudeDegrees>
            </Position>
            <DistanceMeters>1756.693886126</DistanceMeters>
          </Trackpoint>
          <Trackpoint>
            <Time>2022-09-24T13:55:41.000Z</Time>
            <Position>
              <LatitudeDegrees>43.26749305240809917449951171875</LatitudeDegrees>
              <LongitudeDegrees>-2.94674179516732692718505859375</LongitudeDegrees>
            </Position>
            <DistanceMeters>1757.8499360011</DistanceMeters>
          </Trackpoint>
          <Trackpoint>
            <Time>2022-09-24T13:55:42.000Z</Time>
            <Position>
              <LatitudeDegrees>43.26748684979975223541259765625</LatitudeDegrees>
              <LongitudeDegrees>-2.9467531107366085052490234375</LongitudeDegrees>
            </Position>
            <DistanceMeters>1758.9902565735</DistanceMeters>
          </Trackpoint>
          <Trackpoint>
            <Time>2022-09-24T13:55:43.000Z</Time>
            <Position>
              <LatitudeDegrees>43.26748073101043701171875</LatitudeDegrees>
              <LongitudeDegrees>-2.946764342486858367919921875</LongitudeDegrees>
            </Position>
            <DistanceMeters>1760.1305771459</DistanceMeters>
          </Trackpoint>
          <Trackpoint>
            <Time>2022-09-24T13:55:44.000Z</Time>
            <Position>
              <LatitudeDegrees>43.2674748636782169342041015625</LatitudeDegrees>
              <LongitudeDegrees>-2.94677532278001308441162109375</LongitudeDegrees>
            </Position>
            <DistanceMeters>1761.2346877925</DistanceMeters>
          </Trackpoint>
          <Trackpoint>
            <Time>2022-09-24T13:55:45.000Z</Time>
            <Position>
              <LatitudeDegrees>43.26746924780309200286865234375</LatitudeDegrees>
              <LongitudeDegrees>-2.94678655453026294708251953125</LongitudeDegrees>
            </Position>
            <DistanceMeters>1762.3387984391</DistanceMeters>
          </Trackpoint>
          <Trackpoint>
            <Time>2022-09-24T13:55:46.000Z</Time>
            <Position>
              <LatitudeDegrees>43.26746388338506221771240234375</LatitudeDegrees>
              <LongitudeDegrees>-2.9467973671853542327880859375</LongitudeDegrees>
            </Position>
            <DistanceMeters>1763.3969711467</DistanceMeters>
          </Trackpoint>
          <Trackpoint>
            <Time>2022-09-24T13:55:47.000Z</Time>
            <Position>
              <LatitudeDegrees>43.2674584351480007171630859375</LatitudeDegrees>
              <LongitudeDegrees>-2.94680817984044551849365234375</LongitudeDegrees>
            </Position>
            <DistanceMeters>1764.46364337</DistanceMeters>
          </Trackpoint>
          <Trackpoint>
            <Time>2022-09-24T13:55:48.000Z</Time>
            <Position>
              <LatitudeDegrees>43.26745332218706607818603515625</LatitudeDegrees>
              <LongitudeDegrees>-2.94681857340037822723388671875</LongitudeDegrees>
            </Position>
            <DistanceMeters>1765.4782510354</DistanceMeters>
          </Trackpoint>
          <Trackpoint>
            <Time>2022-09-24T13:55:49.000Z</Time>
            <Position>
              <LatitudeDegrees>43.26744846068322658538818359375</LatitudeDegrees>
              <LongitudeDegrees>-2.9468290507793426513671875</LongitudeDegrees>
            </Position>
            <DistanceMeters>1766.4839192519</DistanceMeters>
          </Trackpoint>
          <Trackpoint>
            <Time>2022-09-24T13:55:50.000Z</Time>
            <Position>
              <LatitudeDegrees>43.26744393445551395416259765625</LatitudeDegrees>
              <LongitudeDegrees>-2.94683919288218021392822265625</LongitudeDegrees>
            </Position>
            <DistanceMeters>1767.4530053937</DistanceMeters>
          </Trackpoint>
          <Trackpoint>
            <Time>2022-09-24T13:55:51.000Z</Time>
            <Position>
              <LatitudeDegrees>43.2674396596848964691162109375</LatitudeDegrees>
              <LongitudeDegrees>-2.946849167346954345703125</LongitudeDegrees>
            </Position>
            <DistanceMeters>1768.3937218714</DistanceMeters>
          </Trackpoint>
          <Trackpoint>
            <Time>2022-09-24T13:55:52.000Z</Time>
            <Position>
              <LatitudeDegrees>43.26743580400943756103515625</LatitudeDegrees>
              <LongitudeDegrees>-2.94685880653560161590576171875</LongitudeDegrees>
            </Position>
            <DistanceMeters>1769.2851514688</DistanceMeters>
          </Trackpoint>
          <Trackpoint>
            <Time>2022-09-24T13:55:53.000Z</Time>
            <Position>
              <LatitudeDegrees>43.26743253506720066070556640625</LatitudeDegrees>
              <LongitudeDegrees>-2.946868278086185455322265625</LongitudeDegrees>
            </Position>
            <DistanceMeters>1770.1350962408</DistanceMeters>
          </Trackpoint>
          <Trackpoint>
            <Time>2022-09-24T13:55:54.000Z</Time>
            <Position>
              <LatitudeDegrees>43.26742985285818576812744140625</LatitudeDegrees>
              <LongitudeDegrees>-2.9468771629035472869873046875</LongitudeDegrees>
            </Position>
            <DistanceMeters>1770.9070969178</DistanceMeters>
          </Trackpoint>
          <Trackpoint>
            <Time>2022-09-24T13:55:55.000Z</Time>
            <Position>
              <LatitudeDegrees>43.26742733828723430633544921875</LatitudeDegrees>
              <LongitudeDegrees>-2.94688529334962368011474609375</LongitudeDegrees>
            </Position>
            <DistanceMeters>1771.6182117333</DistanceMeters>
          </Trackpoint>
          <Trackpoint>
            <Time>2022-09-24T13:55:56.000Z</Time>
            <Position>
              <LatitudeDegrees>43.26742507517337799072265625</LatitudeDegrees>
              <LongitudeDegrees>-2.94689317233860492706298828125</LongitudeDegrees>
            </Position>
            <DistanceMeters>1772.3034591157</DistanceMeters>
          </Trackpoint>
          <Trackpoint>
            <Time>2022-09-24T13:55:57.000Z</Time>
            <Position>
              <LatitudeDegrees>43.26742314733564853668212890625</LatitudeDegrees>
              <LongitudeDegrees>-2.94690021313726902008056640625</LongitudeDegrees>
            </Position>
            <DistanceMeters>1772.919302611</DistanceMeters>
          </Trackpoint>
          <Trackpoint>
            <Time>2022-09-24T13:55:58.000Z</Time>
            <Position>
              <LatitudeDegrees>43.267421387135982513427734375</LatitudeDegrees>
              <LongitudeDegrees>-2.94690691865980625152587890625</LongitudeDegrees>
            </Position>
            <DistanceMeters>1773.5050866197</DistanceMeters>
          </Trackpoint>
          <Trackpoint>
            <Time>2022-09-24T13:55:59.000Z</Time>
            <Position>
              <LatitudeDegrees>43.2674202136695384979248046875</LatitudeDegrees>
              <LongitudeDegrees>-2.94691295363008975982666015625</LongitudeDegrees>
            </Position>
            <DistanceMeters>1774.0168211377</DistanceMeters>
          </Trackpoint>
          <Trackpoint>
            <Time>2022-09-24T13:56:00.000Z</Time>
            <Position>
              <LatitudeDegrees>43.26741912402212619781494140625</LatitudeDegrees>
              <LongitudeDegrees>-2.94691898860037326812744140625</LongitudeDegrees>
            </Position>
            <DistanceMeters>1774.5196552459</DistanceMeters>
          </Trackpoint>
          <Trackpoint>
            <Time>2022-09-24T13:56:01.000Z</Time>
            <Position>
              <LatitudeDegrees>43.26741828583180904388427734375</LatitudeDegrees>
              <LongitudeDegrees>-2.94692435301840305328369140625</LongitudeDegrees>
            </Position>
            <DistanceMeters>1774.9653700446</DistanceMeters>
          </Trackpoint>
          <Trackpoint>
            <Time>2022-09-24T13:56:02.000Z</Time>
            <Position>
              <LatitudeDegrees>43.2674175314605236053466796875</LatitudeDegrees>
              <LongitudeDegrees>-2.9469294659793376922607421875</LongitudeDegrees>
            </Position>
            <DistanceMeters>1775.4008371563</DistanceMeters>
          </Trackpoint>
          <Trackpoint>
            <Time>2022-09-24T13:56:03.000Z</Time>
            <Position>
              <LatitudeDegrees>43.26741568744182586669921875</LatitudeDegrees>
              <LongitudeDegrees>-2.94693575240671634674072265625</LongitudeDegrees>
            </Position>
            <DistanceMeters>1775.9549333565</DistanceMeters>
          </Trackpoint>
          <Trackpoint>
            <Time>2022-09-24T13:56:04.000Z</Time>
            <Position>
              <LatitudeDegrees>43.26741493307054042816162109375</LatitudeDegrees>
              <LongitudeDegrees>-2.9469418711960315704345703125</LongitudeDegrees>
            </Position>
            <DistanceMeters>1776.4577674647</DistanceMeters>
          </Trackpoint>
          <Trackpoint>
            <Time>2022-09-24T13:56:05.000Z</Time>
            <Position>
              <LatitudeDegrees>43.26741375960409641265869140625</LatitudeDegrees>
              <LongitudeDegrees>-2.94694798998534679412841796875</LongitudeDegrees>
            </Position>
            <DistanceMeters>1776.978250215</DistanceMeters>
          </Trackpoint>
          <Trackpoint>
            <Time>2022-09-24T13:56:06.000Z</Time>
            <Position>
              <LatitudeDegrees>43.267411999404430389404296875</LatitudeDegrees>
              <LongitudeDegrees>-2.94695368967950344085693359375</LongitudeDegrees>
            </Position>
            <DistanceMeters>1777.4810843233</DistanceMeters>
          </Trackpoint>
          <Trackpoint>
            <Time>2022-09-24T13:56:07.000Z</Time>
            <Position>
              <LatitudeDegrees>43.2674118317663669586181640625</LatitudeDegrees>
              <LongitudeDegrees>-2.94695846736431121826171875</LongitudeDegrees>
            </Position>
            <DistanceMeters>1777.8611911807</DistanceMeters>
          </Trackpoint>
          <Trackpoint>
            <Time>2022-09-24T13:56:08.000Z</Time>
            <Position>
              <LatitudeDegrees>43.2674128375947475433349609375</LatitudeDegrees>
              <LongitudeDegrees>-2.94696383178234100341796875</LongitudeDegrees>
            </Position>
            <DistanceMeters>1778.326725105</DistanceMeters>
          </Trackpoint>
          <Trackpoint>
            <Time>2022-09-24T13:56:09.000Z</Time>
            <Position>
              <LatitudeDegrees>43.2674141786992549896240234375</LatitudeDegrees>
              <LongitudeDegrees>-2.94696911238133907318115234375</LongitudeDegrees>
            </Position>
            <DistanceMeters>1778.7824572174</DistanceMeters>
          </Trackpoint>
          <Trackpoint>
            <Time>2022-09-24T13:56:10.000Z</Time>
            <Position>
              <LatitudeDegrees>43.26741660945117473602294921875</LatitudeDegrees>
              <LongitudeDegrees>-2.9469733871519565582275390625</LongitudeDegrees>
            </Position>
            <DistanceMeters>1779.217924329</DistanceMeters>
          </Trackpoint>
          <Trackpoint>
            <Time>2022-09-24T13:56:11.000Z</Time>
            <Position>
              <LatitudeDegrees>43.26741945929825305938720703125</LatitudeDegrees>
              <LongitudeDegrees>-2.94697615318000316619873046875</LongitudeDegrees>
            </Position>
            <DistanceMeters>1779.5980311865</DistanceMeters>
          </Trackpoint>
          <Trackpoint>
            <Time>2022-09-24T13:56:12.000Z</Time>
            <Position>
              <LatitudeDegrees>43.26742163859307765960693359375</LatitudeDegrees>
              <LongitudeDegrees>-2.94697766192257404327392578125</LongitudeDegrees>
            </Position>
            <DistanceMeters>1779.866807323</DistanceMeters>
          </Trackpoint>
          <Trackpoint>
            <Time>2022-09-24T13:56:13.000Z</Time>
            <Position>
              <LatitudeDegrees>43.26742348261177539825439453125</LatitudeDegrees>
              <LongitudeDegrees>-2.94697950594127178192138671875</LongitudeDegrees>
            </Position>
            <DistanceMeters>1780.1355834595</DistanceMeters>
          </Trackpoint>
          <Trackpoint>
            <Time>2022-09-24T13:56:14.000Z</Time>
            <Position>
              <LatitudeDegrees>43.267424739897251129150390625</LatitudeDegrees>
              <LongitudeDegrees>-2.9469814337790012359619140625</LongitudeDegrees>
            </Position>
            <DistanceMeters>1780.3256368882</DistanceMeters>
          </Trackpoint>
          <Trackpoint>
            <Time>2022-09-24T13:56:15.000Z</Time>
            <Position>
              <LatitudeDegrees>43.267426081001758575439453125</LatitudeDegrees>
              <LongitudeDegrees>-2.9469834454357624053955078125</LongitudeDegrees>
            </Position>
            <DistanceMeters>1780.5381230812</DistanceMeters>
          </Trackpoint>
          <Trackpoint>
            <Time>2022-09-24T13:56:16.000Z</Time>
            <Position>
              <LatitudeDegrees>43.26742750592529773712158203125</LatitudeDegrees>
              <LongitudeDegrees>-2.94698554091155529022216796875</LongitudeDegrees>
            </Position>
            <DistanceMeters>1780.7708900434</DistanceMeters>
          </Trackpoint>
          <Trackpoint>
            <Time>2022-09-24T13:56:17.000Z</Time>
            <Position>
              <LatitudeDegrees>43.26742851175367832183837890625</LatitudeDegrees>
              <LongitudeDegrees>-2.9469881393015384674072265625</LongitudeDegrees>
            </Position>
            <DistanceMeters>1781.0036570055</DistanceMeters>
          </Trackpoint>
          <Trackpoint>
            <Time>2022-09-24T13:56:18.000Z</Time>
            <Position>
              <LatitudeDegrees>43.2674285955727100372314453125</LatitudeDegrees>
              <LongitudeDegrees>-2.94699174351990222930908203125</LongitudeDegrees>
            </Position>
            <DistanceMeters>1781.3041578615</DistanceMeters>
          </Trackpoint>
          <Trackpoint>
            <Time>2022-09-24T13:56:19.000Z</Time>
            <Position>
              <LatitudeDegrees>43.26742784120142459869384765625</LatitudeDegrees>
              <LongitudeDegrees>-2.94699601829051971435546875</LongitudeDegrees>
            </Position>
            <DistanceMeters>1781.6597152692</DistanceMeters>
          </Trackpoint>
          <Trackpoint>
            <Time>2022-09-24T13:56:20.000Z</Time>
            <Position>
              <LatitudeDegrees>43.26742700301110744476318359375</LatitudeDegrees>
              <LongitudeDegrees>-2.94700096361339092254638671875</LongitudeDegrees>
            </Position>
            <DistanceMeters>1782.0846876553</DistanceMeters>
          </Trackpoint>
          <Trackpoint>
            <Time>2022-09-24T13:56:21.000Z</Time>
            <Position>
              <LatitudeDegrees>43.2674255780875682830810546875</LatitudeDegrees>
              <LongitudeDegrees>-2.947006411850452423095703125</LongitudeDegrees>
            </Position>
            <DistanceMeters>1782.5598212271</DistanceMeters>
          </Trackpoint>
          <Trackpoint>
            <Time>2022-09-24T13:56:22.000Z</Time>
            <Position>
              <LatitudeDegrees>43.267424069344997406005859375</LatitudeDegrees>
              <LongitudeDegrees>-2.9470116086304187774658203125</LongitudeDegrees>
            </Position>
            <DistanceMeters>1783.0155533394</DistanceMeters>
          </Trackpoint>
          <Trackpoint>
            <Time>2022-09-24T13:56:23.000Z</Time>
            <Position>
              <LatitudeDegrees>43.267424069344997406005859375</LatitudeDegrees>
              <LongitudeDegrees>-2.947015464305877685546875</LongitudeDegrees>
            </Position>
            <DistanceMeters>1783.3160541954</DistanceMeters>
          </Trackpoint>
          <Trackpoint>
            <Time>2022-09-24T13:56:24.000Z</Time>
            <Position>
              <LatitudeDegrees>43.267424069344997406005859375</LatitudeDegrees>
              <LongitudeDegrees>-2.9470196552574634552001953125</LongitudeDegrees>
            </Position>
            <DistanceMeters>1783.6452363902</DistanceMeters>
          </Trackpoint>
          <Trackpoint>
            <Time>2022-09-24T13:56:25.000Z</Time>
            <Position>
              <LatitudeDegrees>43.26742365024983882904052734375</LatitudeDegrees>
              <LongitudeDegrees>-2.9470240138471126556396484375</LongitudeDegrees>
            </Position>
            <DistanceMeters>1784.0007937979</DistanceMeters>
          </Trackpoint>
          <Trackpoint>
            <Time>2022-09-24T13:56:26.000Z</Time>
            <Position>
              <LatitudeDegrees>43.2674232311546802520751953125</LatitudeDegrees>
              <LongitudeDegrees>-2.94702820479869842529296875</LongitudeDegrees>
            </Position>
            <DistanceMeters>1784.3434174891</DistanceMeters>
          </Trackpoint>
          <Trackpoint>
            <Time>2022-09-24T13:56:27.000Z</Time>
            <Position>
              <LatitudeDegrees>43.26742264442145824432373046875</LatitudeDegrees>
              <LongitudeDegrees>-2.947032563388347625732421875</LongitudeDegrees>
            </Position>
            <DistanceMeters>1784.7114543713</DistanceMeters>
          </Trackpoint>
          <Trackpoint>
            <Time>2022-09-24T13:56:28.000Z</Time>
            <Position>
              <LatitudeDegrees>43.2674222253262996673583984375</LatitudeDegrees>
              <LongitudeDegrees>-2.9470367543399333953857421875</LongitudeDegrees>
            </Position>
            <DistanceMeters>1785.0670117791</DistanceMeters>
          </Trackpoint>
          <Trackpoint>
            <Time>2022-09-24T13:56:29.000Z</Time>
            <Position>
              <LatitudeDegrees>43.26742180623114109039306640625</LatitudeDegrees>
              <LongitudeDegrees>-2.94704136438667774200439453125</LongitudeDegrees>
            </Position>
            <DistanceMeters>1785.4471186366</DistanceMeters>
          </Trackpoint>
          <Trackpoint>
            <Time>2022-09-24T13:56:30.000Z</Time>
            <Position>
              <LatitudeDegrees>43.267421387135982513427734375</LatitudeDegrees>
              <LongitudeDegrees>-2.94704572297632694244384765625</LongitudeDegrees>
            </Position>
            <DistanceMeters>1785.8026760443</DistanceMeters>
          </Trackpoint>
          <Trackpoint>
            <Time>2022-09-24T13:56:31.000Z</Time>
            <Position>
              <LatitudeDegrees>43.26742096804082393646240234375</LatitudeDegrees>
              <LongitudeDegrees>-2.9470498301088809967041015625</LongitudeDegrees>
            </Position>
            <DistanceMeters>1786.1452997355</DistanceMeters>
          </Trackpoint>
          <Trackpoint>
            <Time>2022-09-24T13:56:32.000Z</Time>
            <Position>
              <LatitudeDegrees>43.2674205489456653594970703125</LatitudeDegrees>
              <LongitudeDegrees>-2.9470541886985301971435546875</LongitudeDegrees>
            </Position>
            <DistanceMeters>1786.5008571433</DistanceMeters>
          </Trackpoint>
          <Trackpoint>
            <Time>2022-09-24T13:56:33.000Z</Time>
            <Position>
              <LatitudeDegrees>43.26741996221244335174560546875</LatitudeDegrees>
              <LongitudeDegrees>-2.9470588825643062591552734375</LongitudeDegrees>
            </Position>
            <DistanceMeters>1786.8926623239</DistanceMeters>
          </Trackpoint>
          <Trackpoint>
            <Time>2022-09-24T13:56:34.000Z</Time>
            <Position>
              <LatitudeDegrees>43.2674192078411579132080078125</LatitudeDegrees>
              <LongitudeDegrees>-2.947063744068145751953125</LongitudeDegrees>
            </Position>
            <DistanceMeters>1787.2958265286</DistanceMeters>
          </Trackpoint>
          <Trackpoint>
            <Time>2022-09-24T13:56:35.000Z</Time>
            <Position>
              <LatitudeDegrees>43.26741795055568218231201171875</LatitudeDegrees>
              <LongitudeDegrees>-2.94706919230520725250244140625</LongitudeDegrees>
            </Position>
            <DistanceMeters>1787.7613604529</DistanceMeters>
          </Trackpoint>
          <Trackpoint>
            <Time>2022-09-24T13:56:36.000Z</Time>
            <Position>
              <LatitudeDegrees>43.2674165256321430206298828125</LatitudeDegrees>
              <LongitudeDegrees>-2.9470746405422687530517578125</LongitudeDegrees>
            </Position>
            <DistanceMeters>1788.2268943772</DistanceMeters>
          </Trackpoint>
          <Trackpoint>
            <Time>2022-09-24T13:56:37.000Z</Time>
            <Position>
              <LatitudeDegrees>43.26741510070860385894775390625</LatitudeDegrees>
              <LongitudeDegrees>-2.9470800049602985382080078125</LongitudeDegrees>
            </Position>
            <DistanceMeters>1788.6924283015</DistanceMeters>
          </Trackpoint>
          <Trackpoint>
            <Time>2022-09-24T13:56:38.000Z</Time>
            <Position>
              <LatitudeDegrees>43.267413675785064697265625</LatitudeDegrees>
              <LongitudeDegrees>-2.94708587229251861572265625</LongitudeDegrees>
            </Position>
            <DistanceMeters>1789.1952624097</DistanceMeters>
          </Trackpoint>
          <Trackpoint>
            <Time>2022-09-24T13:56:39.000Z</Time>
            <Position>
              <LatitudeDegrees>43.26741225086152553558349609375</LatitudeDegrees>
              <LongitudeDegrees>-2.9470917396247386932373046875</LongitudeDegrees>
            </Position>
            <DistanceMeters>1789.698096518</DistanceMeters>
          </Trackpoint>
          <Trackpoint>
            <Time>2022-09-24T13:56:40.000Z</Time>
            <Position>
              <LatitudeDegrees>43.26741074211895465850830078125</LatitudeDegrees>
              <LongitudeDegrees>-2.9470981098711490631103515625</LongitudeDegrees>
            </Position>
            <DistanceMeters>1790.2521927182</DistanceMeters>
          </Trackpoint>
          <Trackpoint>
            <Time>2022-09-24T13:56:41.000Z</Time>
            <Position>
              <LatitudeDegrees>43.267409317195415496826171875</LatitudeDegrees>
              <LongitudeDegrees>-2.947104312479496002197265625</LongitudeDegrees>
            </Position>
            <DistanceMeters>1790.7897449912</DistanceMeters>
          </Trackpoint>
          <Trackpoint>
            <Time>2022-09-24T13:56:42.000Z</Time>
            <Position>
              <LatitudeDegrees>43.267407976090908050537109375</LatitudeDegrees>
              <LongitudeDegrees>-2.9471106827259063720703125</LongitudeDegrees>
            </Position>
            <DistanceMeters>1791.3272972642</DistanceMeters>
          </Trackpoint>
          <Trackpoint>
            <Time>2022-09-24T13:56:43.000Z</Time>
            <Position>
              <LatitudeDegrees>43.267406634986400604248046875</LatitudeDegrees>
              <LongitudeDegrees>-2.94711696915328502655029296875</LongitudeDegrees>
            </Position>
            <DistanceMeters>1791.8648495372</DistanceMeters>
          </Trackpoint>
          <Trackpoint>
            <Time>2022-09-24T13:56:44.000Z</Time>
            <Position>
              <LatitudeDegrees>43.267405293881893157958984375</LatitudeDegrees>
              <LongitudeDegrees>-2.947123758494853973388671875</LongitudeDegrees>
            </Position>
            <DistanceMeters>1792.4350098234</DistanceMeters>
          </Trackpoint>
          <Trackpoint>
            <Time>2022-09-24T13:56:45.000Z</Time>
            <Position>
              <LatitudeDegrees>43.26740403659641742706298828125</LatitudeDegrees>
              <LongitudeDegrees>-2.94713054783642292022705078125</LongitudeDegrees>
            </Position>
            <DistanceMeters>1792.9971954472</DistanceMeters>
          </Trackpoint>
          <Trackpoint>
            <Time>2022-09-24T13:56:46.000Z</Time>
            <Position>
              <LatitudeDegrees>43.26740286312997341156005859375</LatitudeDegrees>
              <LongitudeDegrees>-2.9471375048160552978515625</LongitudeDegrees>
            </Position>
            <DistanceMeters>1793.5673557334</DistanceMeters>
          </Trackpoint>
          <Trackpoint>
            <Time>2022-09-24T13:56:47.000Z</Time>
            <Position>
              <LatitudeDegrees>43.26740152202546596527099609375</LatitudeDegrees>
              <LongitudeDegrees>-2.94714446179568767547607421875</LongitudeDegrees>
            </Position>
            <DistanceMeters>1794.1531397421</DistanceMeters>
          </Trackpoint>
          <Trackpoint>
            <Time>2022-09-24T13:56:48.000Z</Time>
            <Position>
              <LatitudeDegrees>43.26740018092095851898193359375</LatitudeDegrees>
              <LongitudeDegrees>-2.94715150259435176849365234375</LongitudeDegrees>
            </Position>
            <DistanceMeters>1794.7389237508</DistanceMeters>
          </Trackpoint>
          <Trackpoint>
            <Time>2022-09-24T13:56:49.000Z</Time>
            <Position>
              <LatitudeDegrees>43.267398588359355926513671875</LatitudeDegrees>
              <LongitudeDegrees>-2.94715871103107929229736328125</LongitudeDegrees>
            </Position>
            <DistanceMeters>1795.3399254628</DistanceMeters>
          </Trackpoint>
          <Trackpoint>
            <Time>2022-09-24T13:56:50.000Z</Time>
            <Position>
              <LatitudeDegrees>43.26739699579775333404541015625</LatitudeDegrees>
              <LongitudeDegrees>-2.9471658356487751007080078125</LongitudeDegrees>
            </Position>
            <DistanceMeters>1795.9483933208</DistanceMeters>
          </Trackpoint>
          <Trackpoint>
            <Time>2022-09-24T13:56:51.000Z</Time>
            <Position>
              <LatitudeDegrees>43.2673954032361507415771484375</LatitudeDegrees>
              <LongitudeDegrees>-2.947173379361629486083984375</LongitudeDegrees>
            </Position>
            <DistanceMeters>1796.5858518998</DistanceMeters>
          </Trackpoint>
          <Trackpoint>
            <Time>2022-09-24T13:56:52.000Z</Time>
            <Position>
              <LatitudeDegrees>43.26739381067454814910888671875</LatitudeDegrees>
              <LongitudeDegrees>-2.94718083925545215606689453125</LongitudeDegrees>
            </Position>
            <DistanceMeters>1797.216187813</DistanceMeters>
          </Trackpoint>
          <Trackpoint>
            <Time>2022-09-24T13:56:53.000Z</Time>
            <Position>
              <LatitudeDegrees>43.2673920504748821258544921875</LatitudeDegrees>
              <LongitudeDegrees>-2.94718838296830654144287109375</LongitudeDegrees>
            </Position>
            <DistanceMeters>1797.8536463921</DistanceMeters>
          </Trackpoint>
          <Trackpoint>
            <Time>2022-09-24T13:56:54.000Z</Time>
            <Position>
              <LatitudeDegrees>43.26739045791327953338623046875</LatitudeDegrees>
              <LongitudeDegrees>-2.94719584286212921142578125</LongitudeDegrees>
            </Position>
            <DistanceMeters>1798.4839823053</DistanceMeters>
          </Trackpoint>
          <Trackpoint>
            <Time>2022-09-24T13:56:55.000Z</Time>
            <Position>
              <LatitudeDegrees>43.2673890329897403717041015625</LatitudeDegrees>
              <LongitudeDegrees>-2.9472033865749835968017578125</LongitudeDegrees>
            </Position>
            <DistanceMeters>1799.1143182186</DistanceMeters>
          </Trackpoint>
          <Trackpoint>
            <Time>2022-09-24T13:56:56.000Z</Time>
            <Position>
              <LatitudeDegrees>43.26738777570426464080810546875</LatitudeDegrees>
              <LongitudeDegrees>-2.947210930287837982177734375</LongitudeDegrees>
            </Position>
            <DistanceMeters>1799.7446541318</DistanceMeters>
          </Trackpoint>
          <Trackpoint>
            <Time>2022-09-24T13:56:57.000Z</Time>
            <Position>
              <LatitudeDegrees>43.26738660223782062530517578125</LatitudeDegrees>
              <LongitudeDegrees>-2.9472188092768192291259765625</LongitudeDegrees>
            </Position>
            <DistanceMeters>1800.3891566659</DistanceMeters>
          </Trackpoint>
          <Trackpoint>
            <Time>2022-09-24T13:56:58.000Z</Time>
            <Position>
              <LatitudeDegrees>43.2673853449523448944091796875</LatitudeDegrees>
              <LongitudeDegrees>-2.9472265206277370452880859375</LongitudeDegrees>
            </Position>
            <DistanceMeters>1801.0266152449</DistanceMeters>
          </Trackpoint>
          <Trackpoint>
            <Time>2022-09-24T13:56:59.000Z</Time>
            <Position>
              <LatitudeDegrees>43.26738425530493259429931640625</LatitudeDegrees>
              <LongitudeDegrees>-2.94723448343575000762939453125</LongitudeDegrees>
            </Position>
            <DistanceMeters>1801.6849796344</DistanceMeters>
          </Trackpoint>
          <Trackpoint>
            <Time>2022-09-24T13:57:00.000Z</Time>
            <Position>
              <LatitudeDegrees>43.26738341711461544036865234375</LatitudeDegrees>
              <LongitudeDegrees>-2.9472419433295726776123046875</LongitudeDegrees>
            </Position>
            <DistanceMeters>1802.2934474924</DistanceMeters>
          </Trackpoint>
          <Trackpoint>
            <Time>2022-09-24T13:57:01.000Z</Time>
            <Position>
              <LatitudeDegrees>43.2673826627433300018310546875</LatitudeDegrees>
              <LongitudeDegrees>-2.94724940322339534759521484375</LongitudeDegrees>
            </Position>
            <DistanceMeters>1802.9019153503</DistanceMeters>
          </Trackpoint>
          <Trackpoint>
            <Time>2022-09-24T13:57:02.000Z</Time>
            <Position>
              <LatitudeDegrees>43.267381824553012847900390625</LatitudeDegrees>
              <LongitudeDegrees>-2.94725694693624973297119140625</LongitudeDegrees>
            </Position>
            <DistanceMeters>1803.5177588456</DistanceMeters>
          </Trackpoint>
          <Trackpoint>
            <Time>2022-09-24T13:57:03.000Z</Time>
            <Position>
              <LatitudeDegrees>43.26738090254366397857666015625</LatitudeDegrees>
              <LongitudeDegrees>-2.947264574468135833740234375</LongitudeDegrees>
            </Position>
            <DistanceMeters>1804.1336023409</DistanceMeters>
          </Trackpoint>
          <Trackpoint>
            <Time>2022-09-24T13:57:04.000Z</Time>
            <Position>
              <LatitudeDegrees>43.26738006435334682464599609375</LatitudeDegrees>
              <LongitudeDegrees>-2.94727236963808536529541015625</LongitudeDegrees>
            </Position>
            <DistanceMeters>1804.7710609199</DistanceMeters>
          </Trackpoint>
          <Trackpoint>
            <Time>2022-09-24T13:57:05.000Z</Time>
            <Position>
              <LatitudeDegrees>43.267379142343997955322265625</LatitudeDegrees>
              <LongitudeDegrees>-2.94728008098900318145751953125</LongitudeDegrees>
            </Position>
            <DistanceMeters>1805.4013968331</DistanceMeters>
          </Trackpoint>
          <Trackpoint>
            <Time>2022-09-24T13:57:06.000Z</Time>
            <Position>
              <LatitudeDegrees>43.267378471791744232177734375</LatitudeDegrees>
              <LongitudeDegrees>-2.9472875408828258514404296875</LongitudeDegrees>
            </Position>
            <DistanceMeters>1806.0023985451</DistanceMeters>
          </Trackpoint>
          <Trackpoint>
            <Time>2022-09-24T13:57:07.000Z</Time>
            <Position>
              <LatitudeDegrees>43.26737788505852222442626953125</LatitudeDegrees>
              <LongitudeDegrees>-2.94729500077664852142333984375</LongitudeDegrees>
            </Position>
            <DistanceMeters>1806.603400257</DistanceMeters>
          </Trackpoint>
          <Trackpoint>
            <Time>2022-09-24T13:57:08.000Z</Time>
            <Position>
              <LatitudeDegrees>43.267377130687236785888671875</LatitudeDegrees>
              <LongitudeDegrees>-2.94730271212756633758544921875</LongitudeDegrees>
            </Position>
            <DistanceMeters>1807.2337361703</DistanceMeters>
          </Trackpoint>
          <Trackpoint>
            <Time>2022-09-24T13:57:09.000Z</Time>
            <Position>
              <LatitudeDegrees>43.2673762924969196319580078125</LatitudeDegrees>
              <LongitudeDegrees>-2.947310507297515869140625</LongitudeDegrees>
            </Position>
            <DistanceMeters>1807.8640720835</DistanceMeters>
          </Trackpoint>
          <Trackpoint>
            <Time>2022-09-24T13:57:10.000Z</Time>
            <Position>
              <LatitudeDegrees>43.2673752866685390472412109375</LatitudeDegrees>
              <LongitudeDegrees>-2.947318553924560546875</LongitudeDegrees>
            </Position>
            <DistanceMeters>1808.522436473</DistanceMeters>
          </Trackpoint>
          <Trackpoint>
            <Time>2022-09-24T13:57:11.000Z</Time>
            <Position>
              <LatitudeDegrees>43.26737402938306331634521484375</LatitudeDegrees>
              <LongitudeDegrees>-2.9473264329135417938232421875</LongitudeDegrees>
            </Position>
            <DistanceMeters>1809.1739068045</DistanceMeters>
          </Trackpoint>
          <Trackpoint>
            <Time>2022-09-24T13:57:12.000Z</Time>
            <Position>
              <LatitudeDegrees>43.2673726044595241546630859375</LatitudeDegrees>
              <LongitudeDegrees>-2.94733422808349132537841796875</LongitudeDegrees>
            </Position>
            <DistanceMeters>1809.825377136</DistanceMeters>
          </Trackpoint>
          <Trackpoint>
            <Time>2022-09-24T13:57:13.000Z</Time>
            <Position>
              <LatitudeDegrees>43.267371095716953277587890625</LatitudeDegrees>
              <LongitudeDegrees>-2.9473415203392505645751953125</LongitudeDegrees>
            </Position>
            <DistanceMeters>1810.4412206313</DistanceMeters>
          </Trackpoint>
          <Trackpoint>
            <Time>2022-09-24T13:57:14.000Z</Time>
            <Position>
              <LatitudeDegrees>43.2673694193363189697265625</LatitudeDegrees>
              <LongitudeDegrees>-2.947349064052104949951171875</LongitudeDegrees>
            </Position>
            <DistanceMeters>1811.0786792103</DistanceMeters>
          </Trackpoint>
          <Trackpoint>
            <Time>2022-09-24T13:57:15.000Z</Time>
            <Position>
              <LatitudeDegrees>43.267367742955684661865234375</LatitudeDegrees>
              <LongitudeDegrees>-2.94735677540302276611328125</LongitudeDegrees>
            </Position>
            <DistanceMeters>1811.7301495419</DistanceMeters>
          </Trackpoint>
          <Trackpoint>
            <Time>2022-09-24T13:57:16.000Z</Time>
            <Position>
              <LatitudeDegrees>43.26736598275601863861083984375</LatitudeDegrees>
              <LongitudeDegrees>-2.94736457057297229766845703125</LongitudeDegrees>
            </Position>
            <DistanceMeters>1812.3885139313</DistanceMeters>
          </Trackpoint>
          <Trackpoint>
            <Time>2022-09-24T13:57:17.000Z</Time>
            <Position>
              <LatitudeDegrees>43.26736430637538433074951171875</LatitudeDegrees>
              <LongitudeDegrees>-2.94737228192389011383056640625</LongitudeDegrees>
            </Position>
            <DistanceMeters>1813.0399842629</DistanceMeters>
          </Trackpoint>
          <Trackpoint>
            <Time>2022-09-24T13:57:18.000Z</Time>
            <Position>
              <LatitudeDegrees>43.26736271381378173828125</LatitudeDegrees>
              <LongitudeDegrees>-2.94737999327480792999267578125</LongitudeDegrees>
            </Position>
            <DistanceMeters>1813.6983486523</DistanceMeters>
          </Trackpoint>
          <Trackpoint>
            <Time>2022-09-24T13:57:19.000Z</Time>
            <Position>
              <LatitudeDegrees>43.26736070215702056884765625</LatitudeDegrees>
              <LongitudeDegrees>-2.94738787226378917694091796875</LongitudeDegrees>
            </Position>
            <DistanceMeters>1814.3702889936</DistanceMeters>
          </Trackpoint>
          <Trackpoint>
            <Time>2022-09-24T13:57:20.000Z</Time>
            <Position>
              <LatitudeDegrees>43.2673586905002593994140625</LatitudeDegrees>
              <LongitudeDegrees>-2.9473958350718021392822265625</LongitudeDegrees>
            </Position>
            <DistanceMeters>1815.048915473</DistanceMeters>
          </Trackpoint>
          <Trackpoint>
            <Time>2022-09-24T13:57:21.000Z</Time>
            <Position>
              <LatitudeDegrees>43.26735676266252994537353515625</LatitudeDegrees>
              <LongitudeDegrees>-2.9474030435085296630859375</LongitudeDegrees>
            </Position>
            <DistanceMeters>1815.6647589683</DistanceMeters>
          </Trackpoint>
          <Trackpoint>
            <Time>2022-09-24T13:57:22.000Z</Time>
            <Position>
              <LatitudeDegrees>43.267354667186737060546875</LatitudeDegrees>
              <LongitudeDegrees>-2.94741016812622547149658203125</LongitudeDegrees>
            </Position>
            <DistanceMeters>1816.2878908059</DistanceMeters>
          </Trackpoint>
          <Trackpoint>
            <Time>2022-09-24T13:57:23.000Z</Time>
            <Position>
              <LatitudeDegrees>43.26735257171094417572021484375</LatitudeDegrees>
              <LongitudeDegrees>-2.9474166221916675567626953125</LongitudeDegrees>
            </Position>
            <DistanceMeters>1816.8580510922</DistanceMeters>
          </Trackpoint>
          <Trackpoint>
            <Time>2022-09-24T13:57:24.000Z</Time>
            <Position>
              <LatitudeDegrees>43.267350308597087860107421875</LatitudeDegrees>
              <LongitudeDegrees>-2.94742324389517307281494140625</LongitudeDegrees>
            </Position>
            <DistanceMeters>1817.4438351009</DistanceMeters>
          </Trackpoint>
          <Trackpoint>
            <Time>2022-09-24T13:57:25.000Z</Time>
            <Position>
              <LatitudeDegrees>43.26734771020710468292236328125</LatitudeDegrees>
              <LongitudeDegrees>-2.947430200874805450439453125</LongitudeDegrees>
            </Position>
            <DistanceMeters>1818.0741710141</DistanceMeters>
          </Trackpoint>
          <Trackpoint>
            <Time>2022-09-24T13:57:26.000Z</Time>
            <Position>
              <LatitudeDegrees>43.267344944179058074951171875</LatitudeDegrees>
              <LongitudeDegrees>-2.94743715785443782806396484375</LongitudeDegrees>
            </Position>
            <DistanceMeters>1818.7186735482</DistanceMeters>
          </Trackpoint>
          <Trackpoint>
            <Time>2022-09-24T13:57:27.000Z</Time>
            <Position>
              <LatitudeDegrees>43.2673420943319797515869140625</LatitudeDegrees>
              <LongitudeDegrees>-2.9474444501101970672607421875</LongitudeDegrees>
            </Position>
            <DistanceMeters>1819.4039209306</DistanceMeters>
          </Trackpoint>
          <Trackpoint>
            <Time>2022-09-24T13:57:28.000Z</Time>
            <Position>
              <LatitudeDegrees>43.2673394121229648590087890625</LatitudeDegrees>
              <LongitudeDegrees>-2.94745157472789287567138671875</LongitudeDegrees>
            </Position>
            <DistanceMeters>1820.0622853201</DistanceMeters>
          </Trackpoint>
          <Trackpoint>
            <Time>2022-09-24T13:57:29.000Z</Time>
            <Position>
              <LatitudeDegrees>43.2673367299139499664306640625</LatitudeDegrees>
              <LongitudeDegrees>-2.94745911844074726104736328125</LongitudeDegrees>
            </Position>
            <DistanceMeters>1820.7342256613</DistanceMeters>
          </Trackpoint>
          <Trackpoint>
            <Time>2022-09-24T13:57:30.000Z</Time>
            <Position>
              <LatitudeDegrees>43.267334215342998504638671875</LatitudeDegrees>
              <LongitudeDegrees>-2.94746649451553821563720703125</LongitudeDegrees>
            </Position>
            <DistanceMeters>1821.3994126619</DistanceMeters>
          </Trackpoint>
          <Trackpoint>
            <Time>2022-09-24T13:57:31.000Z</Time>
            <Position>
              <LatitudeDegrees>43.26733161695301532745361328125</LatitudeDegrees>
              <LongitudeDegrees>-2.94747403822839260101318359375</LongitudeDegrees>
            </Position>
            <DistanceMeters>1822.0713530031</DistanceMeters>
          </Trackpoint>
          <Trackpoint>
            <Time>2022-09-24T13:57:32.000Z</Time>
            <Position>
              <LatitudeDegrees>43.26732876710593700408935546875</LatitudeDegrees>
              <LongitudeDegrees>-2.94748124666512012481689453125</LongitudeDegrees>
            </Position>
            <DistanceMeters>1822.7432933444</DistanceMeters>
          </Trackpoint>
          <Trackpoint>
            <Time>2022-09-24T13:57:33.000Z</Time>
            <Position>
              <LatitudeDegrees>43.26732591725885868072509765625</LatitudeDegrees>
              <LongitudeDegrees>-2.94748862273991107940673828125</LongitudeDegrees>
            </Position>
            <DistanceMeters>1823.4285407268</DistanceMeters>
          </Trackpoint>
          <Trackpoint>
            <Time>2022-09-24T13:57:34.000Z</Time>
            <Position>
              <LatitudeDegrees>43.2673233188688755035400390625</LatitudeDegrees>
              <LongitudeDegrees>-2.947495914995670318603515625</LongitudeDegrees>
            </Position>
            <DistanceMeters>1824.0869051163</DistanceMeters>
          </Trackpoint>
          <Trackpoint>
            <Time>2022-09-24T13:57:35.000Z</Time>
            <Position>
              <LatitudeDegrees>43.26732072047889232635498046875</LatitudeDegrees>
              <LongitudeDegrees>-2.947503291070461273193359375</LongitudeDegrees>
            </Position>
            <DistanceMeters>1824.7520921168</DistanceMeters>
          </Trackpoint>
          <Trackpoint>
            <Time>2022-09-24T13:57:36.000Z</Time>
            <Position>
              <LatitudeDegrees>43.2673182897269725799560546875</LatitudeDegrees>
              <LongitudeDegrees>-2.94751075096428394317626953125</LongitudeDegrees>
            </Position>
            <DistanceMeters>1825.4104565063</DistanceMeters>
          </Trackpoint>
          <Trackpoint>
            <Time>2022-09-24T13:57:37.000Z</Time>
            <Position>
              <LatitudeDegrees>43.26731585897505283355712890625</LatitudeDegrees>
              <LongitudeDegrees>-2.947518043220043182373046875</LongitudeDegrees>
            </Position>
            <DistanceMeters>1826.0549590404</DistanceMeters>
          </Trackpoint>
          <Trackpoint>
            <Time>2022-09-24T13:57:38.000Z</Time>
            <Position>
              <LatitudeDegrees>43.267313428223133087158203125</LatitudeDegrees>
              <LongitudeDegrees>-2.947525419294834136962890625</LongitudeDegrees>
            </Position>
            <DistanceMeters>1826.7133234298</DistanceMeters>
          </Trackpoint>
          <Trackpoint>
            <Time>2022-09-24T13:57:39.000Z</Time>
            <Position>
              <LatitudeDegrees>43.26731108129024505615234375</LatitudeDegrees>
              <LongitudeDegrees>-2.9475326277315616607666015625</LongitudeDegrees>
            </Position>
            <DistanceMeters>1827.3578259639</DistanceMeters>
          </Trackpoint>
          <Trackpoint>
            <Time>2022-09-24T13:57:40.000Z</Time>
            <Position>
              <LatitudeDegrees>43.2673085667192935943603515625</LatitudeDegrees>
              <LongitudeDegrees>-2.94753991998732089996337890625</LongitudeDegrees>
            </Position>
            <DistanceMeters>1828.0092962954</DistanceMeters>
          </Trackpoint>
          <Trackpoint>
            <Time>2022-09-24T13:57:41.000Z</Time>
            <Position>
              <LatitudeDegrees>43.26730596832931041717529296875</LatitudeDegrees>
              <LongitudeDegrees>-2.94754721224308013916015625</LongitudeDegrees>
            </Position>
            <DistanceMeters>1828.6676606849</DistanceMeters>
          </Trackpoint>
          <Trackpoint>
            <Time>2022-09-24T13:57:42.000Z</Time>
            <Position>
              <LatitudeDegrees>43.26730328612029552459716796875</LatitudeDegrees>
              <LongitudeDegrees>-2.947554923593997955322265625</LongitudeDegrees>
            </Position>
            <DistanceMeters>1829.3529080673</DistanceMeters>
          </Trackpoint>
          <Trackpoint>
            <Time>2022-09-24T13:57:43.000Z</Time>
            <Position>
              <LatitudeDegrees>43.26730077154934406280517578125</LatitudeDegrees>
              <LongitudeDegrees>-2.9475624673068523406982421875</LongitudeDegrees>
            </Position>
            <DistanceMeters>1830.0248484085</DistanceMeters>
          </Trackpoint>
          <Trackpoint>
            <Time>2022-09-24T13:57:44.000Z</Time>
            <Position>
              <LatitudeDegrees>43.26729825697839260101318359375</LatitudeDegrees>
              <LongitudeDegrees>-2.94757009483873844146728515625</LongitudeDegrees>
            </Position>
            <DistanceMeters>1830.6967887498</DistanceMeters>
          </Trackpoint>
          <Trackpoint>
            <Time>2022-09-24T13:57:45.000Z</Time>
            <Position>
              <LatitudeDegrees>43.2672958262264728546142578125</LatitudeDegrees>
              <LongitudeDegrees>-2.9475775547325611114501953125</LongitudeDegrees>
            </Position>
            <DistanceMeters>1831.3551531393</DistanceMeters>
          </Trackpoint>
          <Trackpoint>
            <Time>2022-09-24T13:57:46.000Z</Time>
            <Position>
              <LatitudeDegrees>43.26729339547455310821533203125</LatitudeDegrees>
              <LongitudeDegrees>-2.94758501462638378143310546875</LongitudeDegrees>
            </Position>
            <DistanceMeters>1832.0135175287</DistanceMeters>
          </Trackpoint>
          <Trackpoint>
            <Time>2022-09-24T13:57:47.000Z</Time>
            <Position>
              <LatitudeDegrees>43.26729088090360164642333984375</LatitudeDegrees>
              <LongitudeDegrees>-2.94759289361536502838134765625</LongitudeDegrees>
            </Position>
            <DistanceMeters>1832.7118184151</DistanceMeters>
          </Trackpoint>
          <Trackpoint>
            <Time>2022-09-24T13:57:48.000Z</Time>
            <Position>
              <LatitudeDegrees>43.26728836633265018463134765625</LatitudeDegrees>
              <LongitudeDegrees>-2.94760077260434627532958984375</LongitudeDegrees>
            </Position>
            <DistanceMeters>1833.4101193016</DistanceMeters>
          </Trackpoint>
          <Trackpoint>
            <Time>2022-09-24T13:57:49.000Z</Time>
            <Position>
              <LatitudeDegrees>43.26728585176169872283935546875</LatitudeDegrees>
              <LongitudeDegrees>-2.9476084001362323760986328125</LongitudeDegrees>
            </Position>
            <DistanceMeters>1834.088745781</DistanceMeters>
          </Trackpoint>
          <Trackpoint>
            <Time>2022-09-24T13:57:50.000Z</Time>
            <Position>
              <LatitudeDegrees>43.2672834210097789764404296875</LatitudeDegrees>
              <LongitudeDegrees>-2.94761602766811847686767578125</LongitudeDegrees>
            </Position>
            <DistanceMeters>1834.7673722605</DistanceMeters>
          </Trackpoint>
          <Trackpoint>
            <Time>2022-09-24T13:57:51.000Z</Time>
            <Position>
              <LatitudeDegrees>43.26728082261979579925537109375</LatitudeDegrees>
              <LongitudeDegrees>-2.9476234875619411468505859375</LongitudeDegrees>
            </Position>
            <DistanceMeters>1835.4393126017</DistanceMeters>
          </Trackpoint>
          <Trackpoint>
            <Time>2022-09-24T13:57:52.000Z</Time>
            <Position>
              <LatitudeDegrees>43.2672782242298126220703125</LatitudeDegrees>
              <LongitudeDegrees>-2.9476308636367321014404296875</LongitudeDegrees>
            </Position>
            <DistanceMeters>1836.1044996023</DistanceMeters>
          </Trackpoint>
          <Trackpoint>
            <Time>2022-09-24T13:57:53.000Z</Time>
            <Position>
              <LatitudeDegrees>43.26727579347789287567138671875</LatitudeDegrees>
              <LongitudeDegrees>-2.947638742625713348388671875</LongitudeDegrees>
            </Position>
            <DistanceMeters>1836.7897469847</DistanceMeters>
          </Trackpoint>
          <Trackpoint>
            <Time>2022-09-24T13:57:54.000Z</Time>
            <Position>
              <LatitudeDegrees>43.2672733627259731292724609375</LatitudeDegrees>
              <LongitudeDegrees>-2.94764670543372631072998046875</LongitudeDegrees>
            </Position>
            <DistanceMeters>1837.4880478712</DistanceMeters>
          </Trackpoint>
          <Trackpoint>
            <Time>2022-09-24T13:57:55.000Z</Time>
            <Position>
              <LatitudeDegrees>43.267271183431148529052734375</LatitudeDegrees>
              <LongitudeDegrees>-2.94765441678464412689208984375</LongitudeDegrees>
            </Position>
            <DistanceMeters>1838.1532348717</DistanceMeters>
          </Trackpoint>
          <Trackpoint>
            <Time>2022-09-24T13:57:56.000Z</Time>
            <Position>
              <LatitudeDegrees>43.267269171774387359619140625</LatitudeDegrees>
              <LongitudeDegrees>-2.947661876678466796875</LongitudeDegrees>
            </Position>
            <DistanceMeters>1838.7906934508</DistanceMeters>
          </Trackpoint>
          <Trackpoint>
            <Time>2022-09-24T13:57:57.000Z</Time>
            <Position>
              <LatitudeDegrees>43.26726724393665790557861328125</LatitudeDegrees>
              <LongitudeDegrees>-2.94766900129616260528564453125</LongitudeDegrees>
            </Position>
            <DistanceMeters>1839.406536946</DistanceMeters>
          </Trackpoint>
          <Trackpoint>
            <Time>2022-09-24T13:57:58.000Z</Time>
            <Position>
              <LatitudeDegrees>43.26726539991796016693115234375</LatitudeDegrees>
              <LongitudeDegrees>-2.94767604209482669830322265625</LongitudeDegrees>
            </Position>
            <DistanceMeters>1840.015004804</DistanceMeters>
          </Trackpoint>
          <Trackpoint>
            <Time>2022-09-24T13:57:59.000Z</Time>
            <Position>
              <LatitudeDegrees>43.267263472080230712890625</LatitudeDegrees>
              <LongitudeDegrees>-2.94768325053155422210693359375</LongitudeDegrees>
            </Position>
            <DistanceMeters>1840.6308482993</DistanceMeters>
          </Trackpoint>
          <Trackpoint>
            <Time>2022-09-24T13:58:00.000Z</Time>
            <Position>
              <LatitudeDegrees>43.267261795699596405029296875</LatitudeDegrees>
              <LongitudeDegrees>-2.94768962077796459197998046875</LongitudeDegrees>
            </Position>
            <DistanceMeters>1841.1849444995</DistanceMeters>
          </Trackpoint>
          <Trackpoint>
            <Time>2022-09-24T13:58:01.000Z</Time>
            <Position>
              <LatitudeDegrees>43.26725986786186695098876953125</LatitudeDegrees>
              <LongitudeDegrees>-2.9476962424814701080322265625</LongitudeDegrees>
            </Position>
            <DistanceMeters>1841.7707285082</DistanceMeters>
          </Trackpoint>
          <Trackpoint>
            <Time>2022-09-24T13:58:02.000Z</Time>
            <Position>
              <LatitudeDegrees>43.26725785620510578155517578125</LatitudeDegrees>
              <LongitudeDegrees>-2.94770336709916591644287109375</LongitudeDegrees>
            </Position>
            <DistanceMeters>1842.3865720035</DistanceMeters>
          </Trackpoint>
          <Trackpoint>
            <Time>2022-09-24T13:58:03.000Z</Time>
            <Position>
              <LatitudeDegrees>43.2672559283673763275146484375</LatitudeDegrees>
              <LongitudeDegrees>-2.947711162269115447998046875</LongitudeDegrees>
            </Position>
            <DistanceMeters>1843.051759004</DistanceMeters>
          </Trackpoint>
          <Trackpoint>
            <Time>2022-09-24T13:58:04.000Z</Time>
            <Position>
              <LatitudeDegrees>43.2672540843486785888671875</LatitudeDegrees>
              <LongitudeDegrees>-2.9477200470864772796630859375</LongitudeDegrees>
            </Position>
            <DistanceMeters>1843.8000001012</DistanceMeters>
          </Trackpoint>
          <Trackpoint>
            <Time>2022-09-24T13:58:05.000Z</Time>
            <Position>
              <LatitudeDegrees>43.26725215651094913482666015625</LatitudeDegrees>
              <LongitudeDegrees>-2.9477290995419025421142578125</LongitudeDegrees>
            </Position>
            <DistanceMeters>1844.5602138162</DistanceMeters>
          </Trackpoint>
          <Trackpoint>
            <Time>2022-09-24T13:58:06.000Z</Time>
            <Position>
              <LatitudeDegrees>43.26725031249225139617919921875</LatitudeDegrees>
              <LongitudeDegrees>-2.9477374814450740814208984375</LongitudeDegrees>
            </Position>
            <DistanceMeters>1845.2713286317</DistanceMeters>
          </Trackpoint>
          <Trackpoint>
            <Time>2022-09-24T13:58:07.000Z</Time>
            <Position>
              <LatitudeDegrees>43.2672485522925853729248046875</LatitudeDegrees>
              <LongitudeDegrees>-2.94774569571018218994140625</LongitudeDegrees>
            </Position>
            <DistanceMeters>1845.9696295181</DistanceMeters>
          </Trackpoint>
          <Trackpoint>
            <Time>2022-09-24T13:58:08.000Z</Time>
            <Position>
              <LatitudeDegrees>43.2672468759119510650634765625</LatitudeDegrees>
              <LongitudeDegrees>-2.94775365851819515228271484375</LongitudeDegrees>
            </Position>
            <DistanceMeters>1846.6415698594</DistanceMeters>
          </Trackpoint>
          <Trackpoint>
            <Time>2022-09-24T13:58:09.000Z</Time>
            <Position>
              <LatitudeDegrees>43.26724545098841190338134765625</LatitudeDegrees>
              <LongitudeDegrees>-2.94776178896427154541015625</LongitudeDegrees>
            </Position>
            <DistanceMeters>1847.3135102006</DistanceMeters>
          </Trackpoint>
          <Trackpoint>
            <Time>2022-09-24T13:58:10.000Z</Time>
            <Position>
              <LatitudeDegrees>43.26724377460777759552001953125</LatitudeDegrees>
              <LongitudeDegrees>-2.94776991941034793853759765625</LongitudeDegrees>
            </Position>
            <DistanceMeters>1847.9854505419</DistanceMeters>
          </Trackpoint>
          <Trackpoint>
            <Time>2022-09-24T13:58:11.000Z</Time>
            <Position>
              <LatitudeDegrees>43.26724268496036529541015625</LatitudeDegrees>
              <LongitudeDegrees>-2.94777830131351947784423828125</LongitudeDegrees>
            </Position>
            <DistanceMeters>1848.6706979243</DistanceMeters>
          </Trackpoint>
          <Trackpoint>
            <Time>2022-09-24T13:58:12.000Z</Time>
            <Position>
              <LatitudeDegrees>43.26724142767488956451416015625</LatitudeDegrees>
              <LongitudeDegrees>-2.94778634794056415557861328125</LongitudeDegrees>
            </Position>
            <DistanceMeters>1849.3358849249</DistanceMeters>
          </Trackpoint>
          <Trackpoint>
            <Time>2022-09-24T13:58:13.000Z</Time>
            <Position>
              <LatitudeDegrees>43.2672398351132869720458984375</LatitudeDegrees>
              <LongitudeDegrees>-2.94779372401535511016845703125</LongitudeDegrees>
            </Position>
            <DistanceMeters>1849.9662208381</DistanceMeters>
          </Trackpoint>
          <Trackpoint>
            <Time>2022-09-24T13:58:14.000Z</Time>
            <Position>
              <LatitudeDegrees>43.26723807491362094879150390625</LatitudeDegrees>
              <LongitudeDegrees>-2.94780059717595577239990234375</LongitudeDegrees>
            </Position>
            <DistanceMeters>1850.5520048468</DistanceMeters>
          </Trackpoint>
          <Trackpoint>
            <Time>2022-09-24T13:58:15.000Z</Time>
            <Position>
              <LatitudeDegrees>43.267236314713954925537109375</LatitudeDegrees>
              <LongitudeDegrees>-2.94780696742236614227294921875</LongitudeDegrees>
            </Position>
            <DistanceMeters>1851.1061010471</DistanceMeters>
          </Trackpoint>
          <Trackpoint>
            <Time>2022-09-24T13:58:16.000Z</Time>
            <Position>
              <LatitudeDegrees>43.26723472215235233306884765625</LatitudeDegrees>
              <LongitudeDegrees>-2.94781317003071308135986328125</LongitudeDegrees>
            </Position>
            <DistanceMeters>1851.6351874009</DistanceMeters>
          </Trackpoint>
          <Trackpoint>
            <Time>2022-09-24T13:58:17.000Z</Time>
            <Position>
              <LatitudeDegrees>43.26723271049559116363525390625</LatitudeDegrees>
              <LongitudeDegrees>-2.94781937263906002044677734375</LongitudeDegrees>
            </Position>
            <DistanceMeters>1852.1892836011</DistanceMeters>
          </Trackpoint>
          <Trackpoint>
            <Time>2022-09-24T13:58:18.000Z</Time>
            <Position>
              <LatitudeDegrees>43.26723053120076656341552734375</LatitudeDegrees>
              <LongitudeDegrees>-2.94782574288547039031982421875</LongitudeDegrees>
            </Position>
            <DistanceMeters>1852.7673085386</DistanceMeters>
          </Trackpoint>
          <Trackpoint>
            <Time>2022-09-24T13:58:19.000Z</Time>
            <Position>
              <LatitudeDegrees>43.2672281004488468170166015625</LatitudeDegrees>
              <LongitudeDegrees>-2.9478337056934833526611328125</LongitudeDegrees>
            </Position>
            <DistanceMeters>1853.465609425</DistanceMeters>
          </Trackpoint>
          <Trackpoint>
            <Time>2022-09-24T13:58:20.000Z</Time>
            <Position>
              <LatitudeDegrees>43.26722600497305393218994140625</LatitudeDegrees>
              <LongitudeDegrees>-2.9478414170444011688232421875</LongitudeDegrees>
            </Position>
            <DistanceMeters>1854.1375497663</DistanceMeters>
          </Trackpoint>
          <Trackpoint>
            <Time>2022-09-24T13:58:21.000Z</Time>
            <Position>
              <LatitudeDegrees>43.267224244773387908935546875</LatitudeDegrees>
              <LongitudeDegrees>-2.94784896075725555419921875</LongitudeDegrees>
            </Position>
            <DistanceMeters>1854.7750083453</DistanceMeters>
          </Trackpoint>
          <Trackpoint>
            <Time>2022-09-24T13:58:22.000Z</Time>
            <Position>
              <LatitudeDegrees>43.26722256839275360107421875</LatitudeDegrees>
              <LongitudeDegrees>-2.94785625301301479339599609375</LongitudeDegrees>
            </Position>
            <DistanceMeters>1855.3908518406</DistanceMeters>
          </Trackpoint>
          <Trackpoint>
            <Time>2022-09-24T13:58:23.000Z</Time>
            <Position>
              <LatitudeDegrees>43.267220892012119293212890625</LatitudeDegrees>
              <LongitudeDegrees>-2.947863042354583740234375</LongitudeDegrees>
            </Position>
            <DistanceMeters>1855.9610121268</DistanceMeters>
          </Trackpoint>
          <Trackpoint>
            <Time>2022-09-24T13:58:24.000Z</Time>
            <Position>
              <LatitudeDegrees>43.26721879653632640838623046875</LatitudeDegrees>
              <LongitudeDegrees>-2.947870083153247833251953125</LongitudeDegrees>
            </Position>
            <DistanceMeters>1856.576855622</DistanceMeters>
          </Trackpoint>
          <Trackpoint>
            <Time>2022-09-24T13:58:25.000Z</Time>
            <Position>
              <LatitudeDegrees>43.26721644960343837738037109375</LatitudeDegrees>
              <LongitudeDegrees>-2.947876788675785064697265625</LongitudeDegrees>
            </Position>
            <DistanceMeters>1857.177857334</DistanceMeters>
          </Trackpoint>
          <Trackpoint>
            <Time>2022-09-24T13:58:26.000Z</Time>
            <Position>
              <LatitudeDegrees>43.267214186489582061767578125</LatitudeDegrees>
              <LongitudeDegrees>-2.94788324274122714996337890625</LongitudeDegrees>
            </Position>
            <DistanceMeters>1857.7558822715</DistanceMeters>
          </Trackpoint>
          <Trackpoint>
            <Time>2022-09-24T13:58:27.000Z</Time>
            <Position>
              <LatitudeDegrees>43.26721175573766231536865234375</LatitudeDegrees>
              <LongitudeDegrees>-2.94788961298763751983642578125</LongitudeDegrees>
            </Position>
            <DistanceMeters>1858.3416662802</DistanceMeters>
          </Trackpoint>
          <Trackpoint>
            <Time>2022-09-24T13:58:28.000Z</Time>
            <Position>
              <LatitudeDegrees>43.26720924116671085357666015625</LatitudeDegrees>
              <LongitudeDegrees>-2.947896234691143035888671875</LongitudeDegrees>
            </Position>
            <DistanceMeters>1858.9575097755</DistanceMeters>
          </Trackpoint>
          <Trackpoint>
            <Time>2022-09-24T13:58:29.000Z</Time>
            <Position>
              <LatitudeDegrees>43.26720706187188625335693359375</LatitudeDegrees>
              <LongitudeDegrees>-2.9479027725756168365478515625</LongitudeDegrees>
            </Position>
            <DistanceMeters>1859.5432937842</DistanceMeters>
          </Trackpoint>
          <Trackpoint>
            <Time>2022-09-24T13:58:30.000Z</Time>
            <Position>
              <LatitudeDegrees>43.267204798758029937744140625</LatitudeDegrees>
              <LongitudeDegrees>-2.94790956191718578338623046875</LongitudeDegrees>
            </Position>
            <DistanceMeters>1860.1442954962</DistanceMeters>
          </Trackpoint>
          <Trackpoint>
            <Time>2022-09-24T13:58:31.000Z</Time>
            <Position>
              <LatitudeDegrees>43.26720270328223705291748046875</LatitudeDegrees>
              <LongitudeDegrees>-2.94791660271584987640380859375</LongitudeDegrees>
            </Position>
            <DistanceMeters>1860.7601389914</DistanceMeters>
          </Trackpoint>
          <Trackpoint>
            <Time>2022-09-24T13:58:32.000Z</Time>
            <Position>
              <LatitudeDegrees>43.26720069162547588348388671875</LatitudeDegrees>
              <LongitudeDegrees>-2.9479232244193553924560546875</LongitudeDegrees>
            </Position>
            <DistanceMeters>1861.3459230001</DistanceMeters>
          </Trackpoint>
          <Trackpoint>
            <Time>2022-09-24T13:58:33.000Z</Time>
            <Position>
              <LatitudeDegrees>43.26719867996871471405029296875</LatitudeDegrees>
              <LongitudeDegrees>-2.9479300975799560546875</LongitudeDegrees>
            </Position>
            <DistanceMeters>1861.9393646412</DistanceMeters>
          </Trackpoint>
          <Trackpoint>
            <Time>2022-09-24T13:58:34.000Z</Time>
            <Position>
              <LatitudeDegrees>43.267196752130985260009765625</LatitudeDegrees>
              <LongitudeDegrees>-2.9479366354644298553466796875</LongitudeDegrees>
            </Position>
            <DistanceMeters>1862.5095249274</DistanceMeters>
          </Trackpoint>
          <Trackpoint>
            <Time>2022-09-24T13:58:35.000Z</Time>
            <Position>
              <LatitudeDegrees>43.26719465665519237518310546875</LatitudeDegrees>
              <LongitudeDegrees>-2.947943508625030517578125</LongitudeDegrees>
            </Position>
            <DistanceMeters>1863.1105266393</DistanceMeters>
          </Trackpoint>
          <Trackpoint>
            <Time>2022-09-24T13:58:36.000Z</Time>
            <Position>
              <LatitudeDegrees>43.26719247736036777496337890625</LatitudeDegrees>
              <LongitudeDegrees>-2.9479502141475677490234375</LongitudeDegrees>
            </Position>
            <DistanceMeters>1863.6963106481</DistanceMeters>
          </Trackpoint>
          <Trackpoint>
            <Time>2022-09-24T13:58:37.000Z</Time>
            <Position>
              <LatitudeDegrees>43.26719013042747974395751953125</LatitudeDegrees>
              <LongitudeDegrees>-2.947957254946231842041015625</LongitudeDegrees>
            </Position>
            <DistanceMeters>1864.3266465613</DistanceMeters>
          </Trackpoint>
          <Trackpoint>
            <Time>2022-09-24T13:58:38.000Z</Time>
            <Position>
              <LatitudeDegrees>43.26718778349459171295166015625</LatitudeDegrees>
              <LongitudeDegrees>-2.94796421192586421966552734375</LongitudeDegrees>
            </Position>
            <DistanceMeters>1864.9497783989</DistanceMeters>
          </Trackpoint>
          <Trackpoint>
            <Time>2022-09-24T13:58:39.000Z</Time>
            <Position>
              <LatitudeDegrees>43.2671851851046085357666015625</LatitudeDegrees>
              <LongitudeDegrees>-2.9479716718196868896484375</LongitudeDegrees>
            </Position>
            <DistanceMeters>1865.6149653995</DistanceMeters>
          </Trackpoint>
          <Trackpoint>
            <Time>2022-09-24T13:58:40.000Z</Time>
            <Position>
              <LatitudeDegrees>43.26718258671462535858154296875</LatitudeDegrees>
              <LongitudeDegrees>-2.94797904789447784423828125</LongitudeDegrees>
            </Position>
            <DistanceMeters>1866.2801524001</DistanceMeters>
          </Trackpoint>
          <Trackpoint>
            <Time>2022-09-24T13:58:41.000Z</Time>
            <Position>
              <LatitudeDegrees>43.2671801559627056121826171875</LatitudeDegrees>
              <LongitudeDegrees>-2.9479865916073322296142578125</LongitudeDegrees>
            </Position>
            <DistanceMeters>1866.9520927414</DistanceMeters>
          </Trackpoint>
          <Trackpoint>
            <Time>2022-09-24T13:58:42.000Z</Time>
            <Position>
              <LatitudeDegrees>43.26717789284884929656982421875</LatitudeDegrees>
              <LongitudeDegrees>-2.9479936324059963226318359375</LongitudeDegrees>
            </Position>
            <DistanceMeters>1867.5824286546</DistanceMeters>
          </Trackpoint>
          <Trackpoint>
            <Time>2022-09-24T13:58:43.000Z</Time>
            <Position>
              <LatitudeDegrees>43.2671757973730564117431640625</LatitudeDegrees>
              <LongitudeDegrees>-2.94800058938562870025634765625</LongitudeDegrees>
            </Position>
            <DistanceMeters>1868.1982721499</DistanceMeters>
          </Trackpoint>
          <Trackpoint>
            <Time>2022-09-24T13:58:44.000Z</Time>
            <Position>
              <LatitudeDegrees>43.2671736180782318115234375</LatitudeDegrees>
              <LongitudeDegrees>-2.94800729490816593170166015625</LongitudeDegrees>
            </Position>
            <DistanceMeters>1868.7992738618</DistanceMeters>
          </Trackpoint>
          <Trackpoint>
            <Time>2022-09-24T13:58:45.000Z</Time>
            <Position>
              <LatitudeDegrees>43.26717135496437549591064453125</LatitudeDegrees>
              <LongitudeDegrees>-2.948013246059417724609375</LongitudeDegrees>
            </Position>
            <DistanceMeters>1869.3451607756</DistanceMeters>
          </Trackpoint>
          <Trackpoint>
            <Time>2022-09-24T13:58:46.000Z</Time>
            <Position>
              <LatitudeDegrees>43.26716917566955089569091796875</LatitudeDegrees>
              <LongitudeDegrees>-2.94801936484873294830322265625</LongitudeDegrees>
            </Position>
            <DistanceMeters>1869.8992569758</DistanceMeters>
          </Trackpoint>
          <Trackpoint>
            <Time>2022-09-24T13:58:47.000Z</Time>
            <Position>
              <LatitudeDegrees>43.2671670801937580108642578125</LatitudeDegrees>
              <LongitudeDegrees>-2.94802573509514331817626953125</LongitudeDegrees>
            </Position>
            <DistanceMeters>1870.4694172621</DistanceMeters>
          </Trackpoint>
          <Trackpoint>
            <Time>2022-09-24T13:58:48.000Z</Time>
            <Position>
              <LatitudeDegrees>43.26716464944183826446533203125</LatitudeDegrees>
              <LongitudeDegrees>-2.94803244061768054962158203125</LongitudeDegrees>
            </Position>
            <DistanceMeters>1871.070418974</DistanceMeters>
          </Trackpoint>
          <Trackpoint>
            <Time>2022-09-24T13:58:49.000Z</Time>
            <Position>
              <LatitudeDegrees>43.26716230250895023345947265625</LatitudeDegrees>
              <LongitudeDegrees>-2.94803897850215435028076171875</LongitudeDegrees>
            </Position>
            <DistanceMeters>1871.6562029827</DistanceMeters>
          </Trackpoint>
          <Trackpoint>
            <Time>2022-09-24T13:58:50.000Z</Time>
            <Position>
              <LatitudeDegrees>43.267159871757030487060546875</LatitudeDegrees>
              <LongitudeDegrees>-2.948045432567596435546875</LongitudeDegrees>
            </Position>
            <DistanceMeters>1872.2419869914</DistanceMeters>
          </Trackpoint>
          <Trackpoint>
            <Time>2022-09-24T13:58:51.000Z</Time>
            <Position>
              <LatitudeDegrees>43.26715727336704730987548828125</LatitudeDegrees>
              <LongitudeDegrees>-2.9480516351759433746337890625</LongitudeDegrees>
            </Position>
            <DistanceMeters>1872.8277710002</DistanceMeters>
          </Trackpoint>
          <Trackpoint>
            <Time>2022-09-24T13:58:52.000Z</Time>
            <Position>
              <LatitudeDegrees>43.26715459115803241729736328125</LatitudeDegrees>
              <LongitudeDegrees>-2.9480580054223537445068359375</LongitudeDegrees>
            </Position>
            <DistanceMeters>1873.4287727121</DistanceMeters>
          </Trackpoint>
          <Trackpoint>
            <Time>2022-09-24T13:58:53.000Z</Time>
            <Position>
              <LatitudeDegrees>43.26715190894901752471923828125</LatitudeDegrees>
              <LongitudeDegrees>-2.94806420803070068359375</LongitudeDegrees>
            </Position>
            <DistanceMeters>1874.0145567208</DistanceMeters>
          </Trackpoint>
          <Trackpoint>
            <Time>2022-09-24T13:58:54.000Z</Time>
            <Position>
              <LatitudeDegrees>43.267149142920970916748046875</LatitudeDegrees>
              <LongitudeDegrees>-2.9480707459151744842529296875</LongitudeDegrees>
            </Position>
            <DistanceMeters>1874.6304002161</DistanceMeters>
          </Trackpoint>
          <Trackpoint>
            <Time>2022-09-24T13:58:55.000Z</Time>
            <Position>
              <LatitudeDegrees>43.26714637689292430877685546875</LatitudeDegrees>
              <LongitudeDegrees>-2.9480771161615848541259765625</LongitudeDegrees>
            </Position>
            <DistanceMeters>1875.231401928</DistanceMeters>
          </Trackpoint>
          <Trackpoint>
            <Time>2022-09-24T13:58:56.000Z</Time>
            <Position>
              <LatitudeDegrees>43.26714344322681427001953125</LatitudeDegrees>
              <LongitudeDegrees>-2.94808407314121723175048828125</LongitudeDegrees>
            </Position>
            <DistanceMeters>1875.8828722595</DistanceMeters>
          </Trackpoint>
          <Trackpoint>
            <Time>2022-09-24T13:58:57.000Z</Time>
            <Position>
              <LatitudeDegrees>43.2671405933797359466552734375</LatitudeDegrees>
              <LongitudeDegrees>-2.948091030120849609375</LongitudeDegrees>
            </Position>
            <DistanceMeters>1876.5273747936</DistanceMeters>
          </Trackpoint>
          <Trackpoint>
            <Time>2022-09-24T13:58:58.000Z</Time>
            <Position>
              <LatitudeDegrees>43.26713782735168933868408203125</LatitudeDegrees>
              <LongitudeDegrees>-2.94809765182435512542724609375</LongitudeDegrees>
            </Position>
            <DistanceMeters>1877.1505066313</DistanceMeters>
          </Trackpoint>
          <Trackpoint>
            <Time>2022-09-24T13:58:59.000Z</Time>
            <Position>
              <LatitudeDegrees>43.26713514514267444610595703125</LatitudeDegrees>
              <LongitudeDegrees>-2.948104105889797210693359375</LongitudeDegrees>
            </Position>
            <DistanceMeters>1877.7515083432</DistanceMeters>
          </Trackpoint>
          <Trackpoint>
            <Time>2022-09-24T13:59:00.000Z</Time>
            <Position>
              <LatitudeDegrees>43.26713271439075469970703125</LatitudeDegrees>
              <LongitudeDegrees>-2.94811072759330272674560546875</LongitudeDegrees>
            </Position>
            <DistanceMeters>1878.3525100551</DistanceMeters>
          </Trackpoint>
          <Trackpoint>
            <Time>2022-09-24T13:59:01.000Z</Time>
            <Position>
              <LatitudeDegrees>43.2671301998198032379150390625</LatitudeDegrees>
              <LongitudeDegrees>-2.9481176845729351043701171875</LongitudeDegrees>
            </Position>
            <DistanceMeters>1878.9828459684</DistanceMeters>
          </Trackpoint>
          <Trackpoint>
            <Time>2022-09-24T13:59:02.000Z</Time>
            <Position>
              <LatitudeDegrees>43.2671278528869152069091796875</LatitudeDegrees>
              <LongitudeDegrees>-2.94812480919063091278076171875</LongitudeDegrees>
            </Position>
            <DistanceMeters>1879.6131818816</DistanceMeters>
          </Trackpoint>
          <Trackpoint>
            <Time>2022-09-24T13:59:03.000Z</Time>
            <Position>
              <LatitudeDegrees>43.26712558977305889129638671875</LatitudeDegrees>
              <LongitudeDegrees>-2.948131598532199859619140625</LongitudeDegrees>
            </Position>
            <DistanceMeters>1880.2141835936</DistanceMeters>
          </Trackpoint>
          <Trackpoint>
            <Time>2022-09-24T13:59:04.000Z</Time>
            <Position>
              <LatitudeDegrees>43.2671231590211391448974609375</LatitudeDegrees>
              <LongitudeDegrees>-2.94813863933086395263671875</LongitudeDegrees>
            </Position>
            <DistanceMeters>1880.8373154312</DistanceMeters>
          </Trackpoint>
          <Trackpoint>
            <Time>2022-09-24T13:59:05.000Z</Time>
            <Position>
              <LatitudeDegrees>43.2671201415359973907470703125</LatitudeDegrees>
              <LongitudeDegrees>-2.94814534485340118408203125</LongitudeDegrees>
            </Position>
            <DistanceMeters>1881.4747740103</DistanceMeters>
          </Trackpoint>
          <Trackpoint>
            <Time>2022-09-24T13:59:06.000Z</Time>
            <Position>
              <LatitudeDegrees>43.26711720786988735198974609375</LatitudeDegrees>
              <LongitudeDegrees>-2.9481518827378749847412109375</LongitudeDegrees>
            </Position>
            <DistanceMeters>1882.0906175055</DistanceMeters>
          </Trackpoint>
          <Trackpoint>
            <Time>2022-09-24T13:59:07.000Z</Time>
            <Position>
              <LatitudeDegrees>43.267114274203777313232421875</LatitudeDegrees>
              <LongitudeDegrees>-2.94815867207944393157958984375</LongitudeDegrees>
            </Position>
            <DistanceMeters>1882.7351200396</DistanceMeters>
          </Trackpoint>
          <Trackpoint>
            <Time>2022-09-24T13:59:08.000Z</Time>
            <Position>
              <LatitudeDegrees>43.26711150817573070526123046875</LatitudeDegrees>
              <LongitudeDegrees>-2.94816621579229831695556640625</LongitudeDegrees>
            </Position>
            <DistanceMeters>1883.420367422</DistanceMeters>
          </Trackpoint>
          <Trackpoint>
            <Time>2022-09-24T13:59:09.000Z</Time>
            <Position>
              <LatitudeDegrees>43.26710999943315982818603515625</LatitudeDegrees>
              <LongitudeDegrees>-2.94817443005740642547607421875</LongitudeDegrees>
            </Position>
            <DistanceMeters>1884.112172345</DistanceMeters>
          </Trackpoint>
          <Trackpoint>
            <Time>2022-09-24T13:59:10.000Z</Time>
            <Position>
              <LatitudeDegrees>43.26710882596671581268310546875</LatitudeDegrees>
              <LongitudeDegrees>-2.94818281196057796478271484375</LongitudeDegrees>
            </Position>
            <DistanceMeters>1884.8039772681</DistanceMeters>
          </Trackpoint>
          <Trackpoint>
            <Time>2022-09-24T13:59:11.000Z</Time>
            <Position>
              <LatitudeDegrees>43.2671074010431766510009765625</LatitudeDegrees>
              <LongitudeDegrees>-2.94819119386374950408935546875</LongitudeDegrees>
            </Position>
            <DistanceMeters>1885.5022781545</DistanceMeters>
          </Trackpoint>
          <Trackpoint>
            <Time>2022-09-24T13:59:12.000Z</Time>
            <Position>
              <LatitudeDegrees>43.26710597611963748931884765625</LatitudeDegrees>
              <LongitudeDegrees>-2.948199324309825897216796875</LongitudeDegrees>
            </Position>
            <DistanceMeters>1886.1809046339</DistanceMeters>
          </Trackpoint>
          <Trackpoint>
            <Time>2022-09-24T13:59:13.000Z</Time>
            <Position>
              <LatitudeDegrees>43.26710463501513004302978515625</LatitudeDegrees>
              <LongitudeDegrees>-2.948207370936870574951171875</LongitudeDegrees>
            </Position>
            <DistanceMeters>1886.8460916345</DistanceMeters>
          </Trackpoint>
          <Trackpoint>
            <Time>2022-09-24T13:59:14.000Z</Time>
            <Position>
              <LatitudeDegrees>43.2671033777296543121337890625</LatitudeDegrees>
              <LongitudeDegrees>-2.94821533374488353729248046875</LongitudeDegrees>
            </Position>
            <DistanceMeters>1887.504456024</DistanceMeters>
          </Trackpoint>
          <Trackpoint>
            <Time>2022-09-24T13:59:15.000Z</Time>
            <Position>
              <LatitudeDegrees>43.2671023719012737274169921875</LatitudeDegrees>
              <LongitudeDegrees>-2.9482237994670867919921875</LongitudeDegrees>
            </Position>
            <DistanceMeters>1888.2027569104</DistanceMeters>
          </Trackpoint>
          <Trackpoint>
            <Time>2022-09-24T13:59:16.000Z</Time>
            <Position>
              <LatitudeDegrees>43.2671011984348297119140625</LatitudeDegrees>
              <LongitudeDegrees>-2.9482316784560680389404296875</LongitudeDegrees>
            </Position>
            <DistanceMeters>1888.8611212999</DistanceMeters>
          </Trackpoint>
          <Trackpoint>
            <Time>2022-09-24T13:59:17.000Z</Time>
            <Position>
              <LatitudeDegrees>43.2671000249683856964111328125</LatitudeDegrees>
              <LongitudeDegrees>-2.948239557445049285888671875</LongitudeDegrees>
            </Position>
            <DistanceMeters>1889.5194856893</DistanceMeters>
          </Trackpoint>
          <Trackpoint>
            <Time>2022-09-24T13:59:18.000Z</Time>
            <Position>
              <LatitudeDegrees>43.26709826476871967315673828125</LatitudeDegrees>
              <LongitudeDegrees>-2.94824768789112567901611328125</LongitudeDegrees>
            </Position>
            <DistanceMeters>1890.2047330717</DistanceMeters>
          </Trackpoint>
          <Trackpoint>
            <Time>2022-09-24T13:59:19.000Z</Time>
            <Position>
              <LatitudeDegrees>43.26709658838808536529541015625</LatitudeDegrees>
              <LongitudeDegrees>-2.9482558183372020721435546875</LongitudeDegrees>
            </Position>
            <DistanceMeters>1890.8899804541</DistanceMeters>
          </Trackpoint>
          <Trackpoint>
            <Time>2022-09-24T13:59:20.000Z</Time>
            <Position>
              <LatitudeDegrees>43.2670949958264827728271484375</LatitudeDegrees>
              <LongitudeDegrees>-2.9482640326023101806640625</LongitudeDegrees>
            </Position>
            <DistanceMeters>1891.5817853772</DistanceMeters>
          </Trackpoint>
          <Trackpoint>
            <Time>2022-09-24T13:59:21.000Z</Time>
            <Position>
              <LatitudeDegrees>43.267093487083911895751953125</LatitudeDegrees>
              <LongitudeDegrees>-2.9482720792293548583984375</LongitudeDegrees>
            </Position>
            <DistanceMeters>1892.2537257184</DistanceMeters>
          </Trackpoint>
          <Trackpoint>
            <Time>2022-09-24T13:59:22.000Z</Time>
            <Position>
              <LatitudeDegrees>43.26709172688424587249755859375</LatitudeDegrees>
              <LongitudeDegrees>-2.948280461132526397705078125</LongitudeDegrees>
            </Position>
            <DistanceMeters>1892.9584626938</DistanceMeters>
          </Trackpoint>
          <Trackpoint>
            <Time>2022-09-24T13:59:23.000Z</Time>
            <Position>
              <LatitudeDegrees>43.26709005050361156463623046875</LatitudeDegrees>
              <LongitudeDegrees>-2.94828884303569793701171875</LongitudeDegrees>
            </Position>
            <DistanceMeters>1893.6567635802</DistanceMeters>
          </Trackpoint>
          <Trackpoint>
            <Time>2022-09-24T13:59:24.000Z</Time>
            <Position>
              <LatitudeDegrees>43.2670882903039455413818359375</LatitudeDegrees>
              <LongitudeDegrees>-2.94829764403402805328369140625</LongitudeDegrees>
            </Position>
            <DistanceMeters>1894.3928373446</DistanceMeters>
          </Trackpoint>
          <Trackpoint>
            <Time>2022-09-24T13:59:25.000Z</Time>
            <Position>
              <LatitudeDegrees>43.26708669774234294891357421875</LatitudeDegrees>
              <LongitudeDegrees>-2.94830627739429473876953125</LongitudeDegrees>
            </Position>
            <DistanceMeters>1895.1165392402</DistanceMeters>
          </Trackpoint>
          <Trackpoint>
            <Time>2022-09-24T13:59:26.000Z</Time>
            <Position>
              <LatitudeDegrees>43.26708502136170864105224609375</LatitudeDegrees>
              <LongitudeDegrees>-2.94831507839262485504150390625</LongitudeDegrees>
            </Position>
            <DistanceMeters>1895.8526130046</DistanceMeters>
          </Trackpoint>
          <Trackpoint>
            <Time>2022-09-24T13:59:27.000Z</Time>
            <Position>
              <LatitudeDegrees>43.2670835964381694793701171875</LatitudeDegrees>
              <LongitudeDegrees>-2.94832329265773296356201171875</LongitudeDegrees>
            </Position>
            <DistanceMeters>1896.537860387</DistanceMeters>
          </Trackpoint>
          <Trackpoint>
            <Time>2022-09-24T13:59:28.000Z</Time>
            <Position>
              <LatitudeDegrees>43.26708217151463031768798828125</LatitudeDegrees>
              <LongitudeDegrees>-2.948331423103809356689453125</LongitudeDegrees>
            </Position>
            <DistanceMeters>1897.2164868665</DistanceMeters>
          </Trackpoint>
          <Trackpoint>
            <Time>2022-09-24T13:59:29.000Z</Time>
            <Position>
              <LatitudeDegrees>43.26708116568624973297119140625</LatitudeDegrees>
              <LongitudeDegrees>-2.94833905063569545745849609375</LongitudeDegrees>
            </Position>
            <DistanceMeters>1897.8323303617</DistanceMeters>
          </Trackpoint>
          <Trackpoint>
            <Time>2022-09-24T13:59:30.000Z</Time>
            <Position>
              <LatitudeDegrees>43.267080076038837432861328125</LatitudeDegrees>
              <LongitudeDegrees>-2.948346845805644989013671875</LongitudeDegrees>
            </Position>
            <DistanceMeters>1898.4697889408</DistanceMeters>
          </Trackpoint>
          <Trackpoint>
            <Time>2022-09-24T13:59:31.000Z</Time>
            <Position>
              <LatitudeDegrees>43.26707907021045684814453125</LatitudeDegrees>
              <LongitudeDegrees>-2.9483547247946262359619140625</LongitudeDegrees>
            </Position>
            <DistanceMeters>1899.1212592723</DistanceMeters>
          </Trackpoint>
          <Trackpoint>
            <Time>2022-09-24T13:59:32.000Z</Time>
            <Position>
              <LatitudeDegrees>43.26707831583917140960693359375</LatitudeDegrees>
              <LongitudeDegrees>-2.9483627714216709136962890625</LongitudeDegrees>
            </Position>
            <DistanceMeters>1899.7796236618</DistanceMeters>
          </Trackpoint>
          <Trackpoint>
            <Time>2022-09-24T13:59:33.000Z</Time>
            <Position>
              <LatitudeDegrees>43.2670775614678859710693359375</LatitudeDegrees>
              <LongitudeDegrees>-2.9483704827725887298583984375</LongitudeDegrees>
            </Position>
            <DistanceMeters>1900.4027554994</DistanceMeters>
          </Trackpoint>
          <Trackpoint>
            <Time>2022-09-24T13:59:34.000Z</Time>
            <Position>
              <LatitudeDegrees>43.267076723277568817138671875</LatitudeDegrees>
              <LongitudeDegrees>-2.94837827794253826141357421875</LongitudeDegrees>
            </Position>
            <DistanceMeters>1901.0402140784</DistanceMeters>
          </Trackpoint>
          <Trackpoint>
            <Time>2022-09-24T13:59:35.000Z</Time>
            <Position>
              <LatitudeDegrees>43.2670758850872516632080078125</LatitudeDegrees>
              <LongitudeDegrees>-2.94838598929345607757568359375</LongitudeDegrees>
            </Position>
            <DistanceMeters>1901.6705499917</DistanceMeters>
          </Trackpoint>
          <Trackpoint>
            <Time>2022-09-24T13:59:36.000Z</Time>
            <Position>
              <LatitudeDegrees>43.26707496307790279388427734375</LatitudeDegrees>
              <LongitudeDegrees>-2.9483936168253421783447265625</LongitudeDegrees>
            </Position>
            <DistanceMeters>1902.3008859049</DistanceMeters>
          </Trackpoint>
          <Trackpoint>
            <Time>2022-09-24T13:59:37.000Z</Time>
            <Position>
              <LatitudeDegrees>43.2670742087066173553466796875</LatitudeDegrees>
              <LongitudeDegrees>-2.9484006576240062713623046875</LongitudeDegrees>
            </Position>
            <DistanceMeters>1902.8866699137</DistanceMeters>
          </Trackpoint>
          <Trackpoint>
            <Time>2022-09-24T13:59:38.000Z</Time>
            <Position>
              <LatitudeDegrees>43.26707295142114162445068359375</LatitudeDegrees>
              <LongitudeDegrees>-2.9484076984226703643798828125</LongitudeDegrees>
            </Position>
            <DistanceMeters>1903.4801115547</DistanceMeters>
          </Trackpoint>
          <Trackpoint>
            <Time>2022-09-24T13:59:39.000Z</Time>
            <Position>
              <LatitudeDegrees>43.26707177795469760894775390625</LatitudeDegrees>
              <LongitudeDegrees>-2.9484147392213344573974609375</LongitudeDegrees>
            </Position>
            <DistanceMeters>1904.0658955634</DistanceMeters>
          </Trackpoint>
          <Trackpoint>
            <Time>2022-09-24T13:59:40.000Z</Time>
            <Position>
              <LatitudeDegrees>43.26707060448825359344482421875</LatitudeDegrees>
              <LongitudeDegrees>-2.948421947658061981201171875</LongitudeDegrees>
            </Position>
            <DistanceMeters>1904.6743634214</DistanceMeters>
          </Trackpoint>
          <Trackpoint>
            <Time>2022-09-24T13:59:41.000Z</Time>
            <Position>
              <LatitudeDegrees>43.26706926338374614715576171875</LatitudeDegrees>
              <LongitudeDegrees>-2.94842898845672607421875</LongitudeDegrees>
            </Position>
            <DistanceMeters>1905.2678050624</DistanceMeters>
          </Trackpoint>
          <Trackpoint>
            <Time>2022-09-24T13:59:42.000Z</Time>
            <Position>
              <LatitudeDegrees>43.26706775464117527008056640625</LatitudeDegrees>
              <LongitudeDegrees>-2.94843577779829502105712890625</LongitudeDegrees>
            </Position>
            <DistanceMeters>1905.8379653487</DistanceMeters>
          </Trackpoint>
          <Trackpoint>
            <Time>2022-09-24T13:59:43.000Z</Time>
            <Position>
              <LatitudeDegrees>43.2670661620795726776123046875</LatitudeDegrees>
              <LongitudeDegrees>-2.94844265095889568328857421875</LongitudeDegrees>
            </Position>
            <DistanceMeters>1906.4237493574</DistanceMeters>
          </Trackpoint>
          <Trackpoint>
            <Time>2022-09-24T13:59:44.000Z</Time>
            <Position>
              <LatitudeDegrees>43.2670648209750652313232421875</LatitudeDegrees>
              <LongitudeDegrees>-2.9484502784907817840576171875</LongitudeDegrees>
            </Position>
            <DistanceMeters>1907.0540852706</DistanceMeters>
          </Trackpoint>
          <Trackpoint>
            <Time>2022-09-24T13:59:45.000Z</Time>
            <Position>
              <LatitudeDegrees>43.2670636475086212158203125</LatitudeDegrees>
              <LongitudeDegrees>-2.94845757074654102325439453125</LongitudeDegrees>
            </Position>
            <DistanceMeters>1907.6550869826</DistanceMeters>
          </Trackpoint>
          <Trackpoint>
            <Time>2022-09-24T13:59:46.000Z</Time>
            <Position>
              <LatitudeDegrees>43.26706239022314548492431640625</LatitudeDegrees>
              <LongitudeDegrees>-2.94846528209745883941650390625</LongitudeDegrees>
            </Position>
            <DistanceMeters>1908.2925455616</DistanceMeters>
          </Trackpoint>
          <Trackpoint>
            <Time>2022-09-24T13:59:47.000Z</Time>
            <Position>
              <LatitudeDegrees>43.26706121675670146942138671875</LatitudeDegrees>
              <LongitudeDegrees>-2.94847316108644008636474609375</LongitudeDegrees>
            </Position>
            <DistanceMeters>1908.9440158931</DistanceMeters>
          </Trackpoint>
          <Trackpoint>
            <Time>2022-09-24T13:59:48.000Z</Time>
            <Position>
              <LatitudeDegrees>43.26705970801413059234619140625</LatitudeDegrees>
              <LongitudeDegrees>-2.94848020188510417938232421875</LongitudeDegrees>
            </Position>
            <DistanceMeters>1909.5450176051</DistanceMeters>
          </Trackpoint>
          <Trackpoint>
            <Time>2022-09-24T13:59:49.000Z</Time>
            <Position>
              <LatitudeDegrees>43.2670582830905914306640625</LatitudeDegrees>
              <LongitudeDegrees>-2.9484874941408634185791015625</LongitudeDegrees>
            </Position>
            <DistanceMeters>1910.1608611003</DistanceMeters>
          </Trackpoint>
          <Trackpoint>
            <Time>2022-09-24T13:59:50.000Z</Time>
            <Position>
              <LatitudeDegrees>43.26705685816705226898193359375</LatitudeDegrees>
              <LongitudeDegrees>-2.94849495403468608856201171875</LongitudeDegrees>
            </Position>
            <DistanceMeters>1910.7767045956</DistanceMeters>
          </Trackpoint>
          <Trackpoint>
            <Time>2022-09-24T13:59:51.000Z</Time>
            <Position>
              <LatitudeDegrees>43.267055265605449676513671875</LatitudeDegrees>
              <LongitudeDegrees>-2.94850182719528675079345703125</LongitudeDegrees>
            </Position>
            <DistanceMeters>1911.3624886043</DistanceMeters>
          </Trackpoint>
          <Trackpoint>
            <Time>2022-09-24T13:59:52.000Z</Time>
            <Position>
              <LatitudeDegrees>43.2670537568628787994384765625</LatitudeDegrees>
              <LongitudeDegrees>-2.94850752688944339752197265625</LongitudeDegrees>
            </Position>
            <DistanceMeters>1911.8653227126</DistanceMeters>
          </Trackpoint>
          <Trackpoint>
            <Time>2022-09-24T13:59:53.000Z</Time>
            <Position>
              <LatitudeDegrees>43.2670524157583713531494140625</LatitudeDegrees>
              <LongitudeDegrees>-2.94851272366940975189208984375</LongitudeDegrees>
            </Position>
            <DistanceMeters>1912.3110375112</DistanceMeters>
          </Trackpoint>
          <Trackpoint>
            <Time>2022-09-24T13:59:54.000Z</Time>
            <Position>
              <LatitudeDegrees>43.2670504041016101837158203125</LatitudeDegrees>
              <LongitudeDegrees>-2.9485183395445346832275390625</LongitudeDegrees>
            </Position>
            <DistanceMeters>1912.8227720292</DistanceMeters>
          </Trackpoint>
          <Trackpoint>
            <Time>2022-09-24T13:59:55.000Z</Time>
            <Position>
              <LatitudeDegrees>43.267049230635166168212890625</LatitudeDegrees>
              <LongitudeDegrees>-2.94852462597191333770751953125</LongitudeDegrees>
            </Position>
            <DistanceMeters>1913.3603243022</DistanceMeters>
          </Trackpoint>
          <Trackpoint>
            <Time>2022-09-24T13:59:56.000Z</Time>
            <Position>
              <LatitudeDegrees>43.26704847626388072967529296875</LatitudeDegrees>
              <LongitudeDegrees>-2.9485314153134822845458984375</LongitudeDegrees>
            </Position>
            <DistanceMeters>1913.9144205024</DistanceMeters>
          </Trackpoint>
          <Trackpoint>
            <Time>2022-09-24T13:59:57.000Z</Time>
            <Position>
              <LatitudeDegrees>43.2670475542545318603515625</LatitudeDegrees>
              <LongitudeDegrees>-2.94853753410279750823974609375</LongitudeDegrees>
            </Position>
            <DistanceMeters>1914.4172546107</DistanceMeters>
          </Trackpoint>
          <Trackpoint>
            <Time>2022-09-24T13:59:58.000Z</Time>
            <Position>
              <LatitudeDegrees>43.26704646460711956024169921875</LatitudeDegrees>
              <LongitudeDegrees>-2.948543988168239593505859375</LongitudeDegrees>
            </Position>
            <DistanceMeters>1914.9463409645</DistanceMeters>
          </Trackpoint>
          <Trackpoint>
            <Time>2022-09-24T13:59:59.000Z</Time>
            <Position>
              <LatitudeDegrees>43.2670453749597072601318359375</LatitudeDegrees>
              <LongitudeDegrees>-2.9485510289669036865234375</LongitudeDegrees>
            </Position>
            <DistanceMeters>1915.524365902</DistanceMeters>
          </Trackpoint>
          <Trackpoint>
            <Time>2022-09-24T14:00:00.000Z</Time>
            <Position>
              <LatitudeDegrees>43.267043866217136383056640625</LatitudeDegrees>
              <LongitudeDegrees>-2.94855848886072635650634765625</LongitudeDegrees>
            </Position>
            <DistanceMeters>1916.1402093973</DistanceMeters>
          </Trackpoint>
          <Trackpoint>
            <Time>2022-09-24T14:00:01.000Z</Time>
            <Position>
              <LatitudeDegrees>43.26704177074134349822998046875</LatitudeDegrees>
              <LongitudeDegrees>-2.94856569729745388031005859375</LongitudeDegrees>
            </Position>
            <DistanceMeters>1916.7705453105</DistanceMeters>
          </Trackpoint>
          <Trackpoint>
            <Time>2022-09-24T14:00:02.000Z</Time>
            <Position>
              <LatitudeDegrees>43.26703959144651889801025390625</LatitudeDegrees>
              <LongitudeDegrees>-2.9485729895532131195068359375</LongitudeDegrees>
            </Position>
            <DistanceMeters>1917.4150478446</DistanceMeters>
          </Trackpoint>
          <Trackpoint>
            <Time>2022-09-24T14:00:03.000Z</Time>
            <Position>
              <LatitudeDegrees>43.26703741215169429779052734375</LatitudeDegrees>
              <LongitudeDegrees>-2.94858044944703578948974609375</LongitudeDegrees>
            </Position>
            <DistanceMeters>1918.0665181761</DistanceMeters>
          </Trackpoint>
          <Trackpoint>
            <Time>2022-09-24T14:00:04.000Z</Time>
            <Position>
              <LatitudeDegrees>43.2670356519520282745361328125</LatitudeDegrees>
              <LongitudeDegrees>-2.94858732260763645172119140625</LongitudeDegrees>
            </Position>
            <DistanceMeters>1918.6599598172</DistanceMeters>
          </Trackpoint>
          <Trackpoint>
            <Time>2022-09-24T14:00:05.000Z</Time>
            <Position>
              <LatitudeDegrees>43.267033807933330535888671875</LatitudeDegrees>
              <LongitudeDegrees>-2.9485937766730785369873046875</LongitudeDegrees>
            </Position>
            <DistanceMeters>1919.2140560174</DistanceMeters>
          </Trackpoint>
          <Trackpoint>
            <Time>2022-09-24T14:00:06.000Z</Time>
            <Position>
              <LatitudeDegrees>43.26703188009560108184814453125</LatitudeDegrees>
              <LongitudeDegrees>-2.94860064983367919921875</LongitudeDegrees>
            </Position>
            <DistanceMeters>1919.7998400261</DistanceMeters>
          </Trackpoint>
          <Trackpoint>
            <Time>2022-09-24T14:00:07.000Z</Time>
            <Position>
              <LatitudeDegrees>43.26703003607690334320068359375</LatitudeDegrees>
              <LongitudeDegrees>-2.94860760681331157684326171875</LongitudeDegrees>
            </Position>
            <DistanceMeters>1920.400841738</DistanceMeters>
          </Trackpoint>
          <Trackpoint>
            <Time>2022-09-24T14:00:08.000Z</Time>
            <Position>
              <LatitudeDegrees>43.26702810823917388916015625</LatitudeDegrees>
              <LongitudeDegrees>-2.94861481525003910064697265625</LongitudeDegrees>
            </Position>
            <DistanceMeters>1921.0166852333</DistanceMeters>
          </Trackpoint>
          <Trackpoint>
            <Time>2022-09-24T14:00:09.000Z</Time>
            <Position>
              <LatitudeDegrees>43.26702601276338100433349609375</LatitudeDegrees>
              <LongitudeDegrees>-2.94862235896289348602294921875</LongitudeDegrees>
            </Position>
            <DistanceMeters>1921.6681555648</DistanceMeters>
          </Trackpoint>
          <Trackpoint>
            <Time>2022-09-24T14:00:10.000Z</Time>
            <Position>
              <LatitudeDegrees>43.267023749649524688720703125</LatitudeDegrees>
              <LongitudeDegrees>-2.948630154132843017578125</LongitudeDegrees>
            </Position>
            <DistanceMeters>1922.3467820443</DistanceMeters>
          </Trackpoint>
          <Trackpoint>
            <Time>2022-09-24T14:00:11.000Z</Time>
            <Position>
              <LatitudeDegrees>43.26702148653566837310791015625</LatitudeDegrees>
              <LongitudeDegrees>-2.94863811694085597991943359375</LongitudeDegrees>
            </Position>
            <DistanceMeters>1923.0320294267</DistanceMeters>
          </Trackpoint>
          <Trackpoint>
            <Time>2022-09-24T14:00:12.000Z</Time>
            <Position>
              <LatitudeDegrees>43.2670192234218120574951171875</LatitudeDegrees>
              <LongitudeDegrees>-2.94864616356790065765380859375</LongitudeDegrees>
            </Position>
            <DistanceMeters>1923.7303303131</DistanceMeters>
          </Trackpoint>
          <Trackpoint>
            <Time>2022-09-24T14:00:13.000Z</Time>
            <Position>
              <LatitudeDegrees>43.26701679266989231109619140625</LatitudeDegrees>
              <LongitudeDegrees>-2.948653958737850189208984375</LongitudeDegrees>
            </Position>
            <DistanceMeters>1924.4155776955</DistanceMeters>
          </Trackpoint>
          <Trackpoint>
            <Time>2022-09-24T14:00:14.000Z</Time>
            <Position>
              <LatitudeDegrees>43.267014361917972564697265625</LatitudeDegrees>
              <LongitudeDegrees>-2.94866192154586315155029296875</LongitudeDegrees>
            </Position>
            <DistanceMeters>1925.1138785819</DistanceMeters>
          </Trackpoint>
          <Trackpoint>
            <Time>2022-09-24T14:00:15.000Z</Time>
            <Position>
              <LatitudeDegrees>43.26701193116605281829833984375</LatitudeDegrees>
              <LongitudeDegrees>-2.94866963289678096771240234375</LongitudeDegrees>
            </Position>
            <DistanceMeters>1925.7858189232</DistanceMeters>
          </Trackpoint>
          <Trackpoint>
            <Time>2022-09-24T14:00:16.000Z</Time>
            <Position>
              <LatitudeDegrees>43.26700958423316478729248046875</LatitudeDegrees>
              <LongitudeDegrees>-2.9486770927906036376953125</LongitudeDegrees>
            </Position>
            <DistanceMeters>1926.4441833126</DistanceMeters>
          </Trackpoint>
          <Trackpoint>
            <Time>2022-09-24T14:00:17.000Z</Time>
            <Position>
              <LatitudeDegrees>43.26700740493834018707275390625</LatitudeDegrees>
              <LongitudeDegrees>-2.94868446886539459228515625</LongitudeDegrees>
            </Position>
            <DistanceMeters>1927.0886858467</DistanceMeters>
          </Trackpoint>
          <Trackpoint>
            <Time>2022-09-24T14:00:18.000Z</Time>
            <Position>
              <LatitudeDegrees>43.2670051418244838714599609375</LatitudeDegrees>
              <LongitudeDegrees>-2.94869226403534412384033203125</LongitudeDegrees>
            </Position>
            <DistanceMeters>1927.760626188</DistanceMeters>
          </Trackpoint>
          <Trackpoint>
            <Time>2022-09-24T14:00:19.000Z</Time>
            <Position>
              <LatitudeDegrees>43.26700321398675441741943359375</LatitudeDegrees>
              <LongitudeDegrees>-2.948700226843357086181640625</LongitudeDegrees>
            </Position>
            <DistanceMeters>1928.4325665292</DistanceMeters>
          </Trackpoint>
          <Trackpoint>
            <Time>2022-09-24T14:00:20.000Z</Time>
            <Position>
              <LatitudeDegrees>43.26700086705386638641357421875</LatitudeDegrees>
              <LongitudeDegrees>-2.94870793819427490234375</LongitudeDegrees>
            </Position>
            <DistanceMeters>1929.1045068705</DistanceMeters>
          </Trackpoint>
          <Trackpoint>
            <Time>2022-09-24T14:00:21.000Z</Time>
            <Position>
              <LatitudeDegrees>43.26699885539710521697998046875</LatitudeDegrees>
              <LongitudeDegrees>-2.94871590100228786468505859375</LongitudeDegrees>
            </Position>
            <DistanceMeters>1929.7897542529</DistanceMeters>
          </Trackpoint>
          <Trackpoint>
            <Time>2022-09-24T14:00:22.000Z</Time>
            <Position>
              <LatitudeDegrees>43.2669970951974391937255859375</LatitudeDegrees>
              <LongitudeDegrees>-2.9487235285341739654541015625</LongitudeDegrees>
            </Position>
            <DistanceMeters>1930.4342567869</DistanceMeters>
          </Trackpoint>
          <Trackpoint>
            <Time>2022-09-24T14:00:23.000Z</Time>
            <Position>
              <LatitudeDegrees>43.2669954188168048858642578125</LatitudeDegrees>
              <LongitudeDegrees>-2.94873132370412349700927734375</LongitudeDegrees>
            </Position>
            <DistanceMeters>1931.0926211764</DistanceMeters>
          </Trackpoint>
          <Trackpoint>
            <Time>2022-09-24T14:00:24.000Z</Time>
            <Position>
              <LatitudeDegrees>43.2669937424361705780029296875</LatitudeDegrees>
              <LongitudeDegrees>-2.94873920269310474395751953125</LongitudeDegrees>
            </Position>
            <DistanceMeters>1931.7509855658</DistanceMeters>
          </Trackpoint>
          <Trackpoint>
            <Time>2022-09-24T14:00:25.000Z</Time>
            <Position>
              <LatitudeDegrees>43.26699189841747283935546875</LatitudeDegrees>
              <LongitudeDegrees>-2.94874708168208599090576171875</LongitudeDegrees>
            </Position>
            <DistanceMeters>1932.4161725664</DistanceMeters>
          </Trackpoint>
          <Trackpoint>
            <Time>2022-09-24T14:00:26.000Z</Time>
            <Position>
              <LatitudeDegrees>43.26698980294167995452880859375</LatitudeDegrees>
              <LongitudeDegrees>-2.94875445775687694549560546875</LongitudeDegrees>
            </Position>
            <DistanceMeters>1933.0536311455</DistanceMeters>
          </Trackpoint>
          <Trackpoint>
            <Time>2022-09-24T14:00:27.000Z</Time>
            <Position>
              <LatitudeDegrees>43.26698762364685535430908203125</LatitudeDegrees>
              <LongitudeDegrees>-2.94876183383166790008544921875</LongitudeDegrees>
            </Position>
            <DistanceMeters>1933.6981336795</DistanceMeters>
          </Trackpoint>
          <Trackpoint>
            <Time>2022-09-24T14:00:28.000Z</Time>
            <Position>
              <LatitudeDegrees>43.2669853605329990386962890625</LatitudeDegrees>
              <LongitudeDegrees>-2.94876870699226856231689453125</LongitudeDegrees>
            </Position>
            <DistanceMeters>1934.2991353915</DistanceMeters>
          </Trackpoint>
          <Trackpoint>
            <Time>2022-09-24T14:00:29.000Z</Time>
            <Position>
              <LatitudeDegrees>43.26698259450495243072509765625</LatitudeDegrees>
              <LongitudeDegrees>-2.9487765021622180938720703125</LongitudeDegrees>
            </Position>
            <DistanceMeters>1934.9974362779</DistanceMeters>
          </Trackpoint>
          <Trackpoint>
            <Time>2022-09-24T14:00:30.000Z</Time>
            <Position>
              <LatitudeDegrees>43.26697974465787410736083984375</LatitudeDegrees>
              <LongitudeDegrees>-2.94878496788442134857177734375</LongitudeDegrees>
            </Position>
            <DistanceMeters>1935.7576499929</DistanceMeters>
          </Trackpoint>
          <Trackpoint>
            <Time>2022-09-24T14:00:31.000Z</Time>
            <Position>
              <LatitudeDegrees>43.266976810991764068603515625</LatitudeDegrees>
              <LongitudeDegrees>-2.94879334978759288787841796875</LongitudeDegrees>
            </Position>
            <DistanceMeters>1936.5119011552</DistanceMeters>
          </Trackpoint>
          <Trackpoint>
            <Time>2022-09-24T14:00:32.000Z</Time>
            <Position>
              <LatitudeDegrees>43.26697370968759059906005859375</LatitudeDegrees>
              <LongitudeDegrees>-2.948801480233669281005859375</LongitudeDegrees>
            </Position>
            <DistanceMeters>1937.2540835204</DistanceMeters>
          </Trackpoint>
          <Trackpoint>
            <Time>2022-09-24T14:00:33.000Z</Time>
            <Position>
              <LatitudeDegrees>43.266970776021480560302734375</LatitudeDegrees>
              <LongitudeDegrees>-2.94880919158458709716796875</LongitudeDegrees>
            </Position>
            <DistanceMeters>1937.9588204957</DistanceMeters>
          </Trackpoint>
          <Trackpoint>
            <Time>2022-09-24T14:00:34.000Z</Time>
            <Position>
              <LatitudeDegrees>43.26696834526956081390380859375</LatitudeDegrees>
              <LongitudeDegrees>-2.94881732203066349029541015625</LongitudeDegrees>
            </Position>
            <DistanceMeters>1938.6699353112</DistanceMeters>
          </Trackpoint>
          <Trackpoint>
            <Time>2022-09-24T14:00:35.000Z</Time>
            <Position>
              <LatitudeDegrees>43.26696616597473621368408203125</LatitudeDegrees>
              <LongitudeDegrees>-2.94882536865770816802978515625</LongitudeDegrees>
            </Position>
            <DistanceMeters>1939.3617402343</DistanceMeters>
          </Trackpoint>
          <Trackpoint>
            <Time>2022-09-24T14:00:36.000Z</Time>
            <Position>
              <LatitudeDegrees>43.26696373522281646728515625</LatitudeDegrees>
              <LongitudeDegrees>-2.94883333146572113037109375</LongitudeDegrees>
            </Position>
            <DistanceMeters>1940.0600411207</DistanceMeters>
          </Trackpoint>
          <Trackpoint>
            <Time>2022-09-24T14:00:37.000Z</Time>
            <Position>
              <LatitudeDegrees>43.26696180738508701324462890625</LatitudeDegrees>
              <LongitudeDegrees>-2.94884079135954380035400390625</LongitudeDegrees>
            </Position>
            <DistanceMeters>1940.6974996997</DistanceMeters>
          </Trackpoint>
          <Trackpoint>
            <Time>2022-09-24T14:00:38.000Z</Time>
            <Position>
              <LatitudeDegrees>43.26695962809026241302490234375</LatitudeDegrees>
              <LongitudeDegrees>-2.94884699396789073944091796875</LongitudeDegrees>
            </Position>
            <DistanceMeters>1941.2676599859</DistanceMeters>
          </Trackpoint>
          <Trackpoint>
            <Time>2022-09-24T14:00:39.000Z</Time>
            <Position>
              <LatitudeDegrees>43.266957700252532958984375</LatitudeDegrees>
              <LongitudeDegrees>-2.94885210692882537841796875</LongitudeDegrees>
            </Position>
            <DistanceMeters>1941.7331939102</DistanceMeters>
          </Trackpoint>
          <Trackpoint>
            <Time>2022-09-24T14:00:40.000Z</Time>
            <Position>
              <LatitudeDegrees>43.2669558562338352203369140625</LatitudeDegrees>
              <LongitudeDegrees>-2.9488576389849185943603515625</LongitudeDegrees>
            </Position>
            <DistanceMeters>1942.2177369811</DistanceMeters>
          </Trackpoint>
          <Trackpoint>
            <Time>2022-09-24T14:00:41.000Z</Time>
            <Position>
              <LatitudeDegrees>43.2669541798532009124755859375</LatitudeDegrees>
              <LongitudeDegrees>-2.94886325486004352569580078125</LongitudeDegrees>
            </Position>
            <DistanceMeters>1942.702280052</DistanceMeters>
          </Trackpoint>
          <Trackpoint>
            <Time>2022-09-24T14:00:42.000Z</Time>
            <Position>
              <LatitudeDegrees>43.26695241965353488922119140625</LatitudeDegrees>
              <LongitudeDegrees>-2.94886895455420017242431640625</LongitudeDegrees>
            </Position>
            <DistanceMeters>1943.2051141602</DistanceMeters>
          </Trackpoint>
          <Trackpoint>
            <Time>2022-09-24T14:00:43.000Z</Time>
            <Position>
              <LatitudeDegrees>43.2669509947299957275390625</LatitudeDegrees>
              <LongitudeDegrees>-2.94887498952448368072509765625</LongitudeDegrees>
            </Position>
            <DistanceMeters>1943.7255969105</DistanceMeters>
          </Trackpoint>
          <Trackpoint>
            <Time>2022-09-24T14:00:44.000Z</Time>
            <Position>
              <LatitudeDegrees>43.2669491507112979888916015625</LatitudeDegrees>
              <LongitudeDegrees>-2.9488814435899257659912109375</LongitudeDegrees>
            </Position>
            <DistanceMeters>1944.2796931107</DistanceMeters>
          </Trackpoint>
          <Trackpoint>
            <Time>2022-09-24T14:00:45.000Z</Time>
            <Position>
              <LatitudeDegrees>43.266946971416473388671875</LatitudeDegrees>
              <LongitudeDegrees>-2.9488874785602092742919921875</LongitudeDegrees>
            </Position>
            <DistanceMeters>1944.8337893109</DistanceMeters>
          </Trackpoint>
          <Trackpoint>
            <Time>2022-09-24T14:00:46.000Z</Time>
            <Position>
              <LatitudeDegrees>43.26694487594068050384521484375</LatitudeDegrees>
              <LongitudeDegrees>-2.94889359734952449798583984375</LongitudeDegrees>
            </Position>
            <DistanceMeters>1945.3878855111</DistanceMeters>
          </Trackpoint>
          <Trackpoint>
            <Time>2022-09-24T14:00:47.000Z</Time>
            <Position>
              <LatitudeDegrees>43.2669427804648876190185546875</LatitudeDegrees>
              <LongitudeDegrees>-2.948900051414966583251953125</LongitudeDegrees>
            </Position>
            <DistanceMeters>1945.9580457974</DistanceMeters>
          </Trackpoint>
          <Trackpoint>
            <Time>2022-09-24T14:00:48.000Z</Time>
            <Position>
              <LatitudeDegrees>43.26694051735103130340576171875</LatitudeDegrees>
              <LongitudeDegrees>-2.94890633784234523773193359375</LongitudeDegrees>
            </Position>
            <DistanceMeters>1946.5282060836</DistanceMeters>
          </Trackpoint>
          <Trackpoint>
            <Time>2022-09-24T14:00:49.000Z</Time>
            <Position>
              <LatitudeDegrees>43.2669384218752384185791015625</LatitudeDegrees>
              <LongitudeDegrees>-2.94891237281262874603271484375</LongitudeDegrees>
            </Position>
            <DistanceMeters>1947.0657583566</DistanceMeters>
          </Trackpoint>
          <Trackpoint>
            <Time>2022-09-24T14:00:50.000Z</Time>
            <Position>
              <LatitudeDegrees>43.2669364102184772491455078125</LatitudeDegrees>
              <LongitudeDegrees>-2.94891807250678539276123046875</LongitudeDegrees>
            </Position>
            <DistanceMeters>1947.5774928745</DistanceMeters>
          </Trackpoint>
          <Trackpoint>
            <Time>2022-09-24T14:00:51.000Z</Time>
            <Position>
              <LatitudeDegrees>43.26693414710462093353271484375</LatitudeDegrees>
              <LongitudeDegrees>-2.9489240236580371856689453125</LongitudeDegrees>
            </Position>
            <DistanceMeters>1948.1315890748</DistanceMeters>
          </Trackpoint>
          <Trackpoint>
            <Time>2022-09-24T14:00:52.000Z</Time>
            <Position>
              <LatitudeDegrees>43.26693180017173290252685546875</LatitudeDegrees>
              <LongitudeDegrees>-2.94892963953316211700439453125</LongitudeDegrees>
            </Position>
            <DistanceMeters>1948.652071825</DistanceMeters>
          </Trackpoint>
          <Trackpoint>
            <Time>2022-09-24T14:00:53.000Z</Time>
            <Position>
              <LatitudeDegrees>43.2669293694198131561279296875</LatitudeDegrees>
              <LongitudeDegrees>-2.9489354230463504791259765625</LongitudeDegrees>
            </Position>
            <DistanceMeters>1949.1979587388</DistanceMeters>
          </Trackpoint>
          <Trackpoint>
            <Time>2022-09-24T14:00:54.000Z</Time>
            <Position>
              <LatitudeDegrees>43.2669270224869251251220703125</LatitudeDegrees>
              <LongitudeDegrees>-2.948941290378570556640625</LongitudeDegrees>
            </Position>
            <DistanceMeters>1949.752054939</DistanceMeters>
          </Trackpoint>
          <Trackpoint>
            <Time>2022-09-24T14:00:55.000Z</Time>
            <Position>
              <LatitudeDegrees>43.2669246755540370941162109375</LatitudeDegrees>
              <LongitudeDegrees>-2.94894757680594921112060546875</LongitudeDegrees>
            </Position>
            <DistanceMeters>1950.3222152253</DistanceMeters>
          </Trackpoint>
          <Trackpoint>
            <Time>2022-09-24T14:00:56.000Z</Time>
            <Position>
              <LatitudeDegrees>43.26692241244018077850341796875</LatitudeDegrees>
              <LongitudeDegrees>-2.9489538632333278656005859375</LongitudeDegrees>
            </Position>
            <DistanceMeters>1950.8923755115</DistanceMeters>
          </Trackpoint>
          <Trackpoint>
            <Time>2022-09-24T14:00:57.000Z</Time>
            <Position>
              <LatitudeDegrees>43.26692006550729274749755859375</LatitudeDegrees>
              <LongitudeDegrees>-2.94896048493683338165283203125</LongitudeDegrees>
            </Position>
            <DistanceMeters>1951.4933772234</DistanceMeters>
          </Trackpoint>
          <Trackpoint>
            <Time>2022-09-24T14:00:58.000Z</Time>
            <Position>
              <LatitudeDegrees>43.266917802393436431884765625</LatitudeDegrees>
              <LongitudeDegrees>-2.94896702282130718231201171875</LongitudeDegrees>
            </Position>
            <DistanceMeters>1952.071402161</DistanceMeters>
          </Trackpoint>
          <Trackpoint>
            <Time>2022-09-24T14:00:59.000Z</Time>
            <Position>
              <LatitudeDegrees>43.26691545546054840087890625</LatitudeDegrees>
              <LongitudeDegrees>-2.94897322542965412139892578125</LongitudeDegrees>
            </Position>
            <DistanceMeters>1952.6335877847</DistanceMeters>
          </Trackpoint>
          <Trackpoint>
            <Time>2022-09-24T14:01:00.000Z</Time>
            <Position>
              <LatitudeDegrees>43.266913108527660369873046875</LatitudeDegrees>
              <LongitudeDegrees>-2.94897942803800106048583984375</LongitudeDegrees>
            </Position>
            <DistanceMeters>1953.1876839849</DistanceMeters>
          </Trackpoint>
          <Trackpoint>
            <Time>2022-09-24T14:01:01.000Z</Time>
            <Position>
              <LatitudeDegrees>43.2669109292328357696533203125</LatitudeDegrees>
              <LongitudeDegrees>-2.94898579828441143035888671875</LongitudeDegrees>
            </Position>
            <DistanceMeters>1953.7578442711</DistanceMeters>
          </Trackpoint>
          <Trackpoint>
            <Time>2022-09-24T14:01:02.000Z</Time>
            <Position>
              <LatitudeDegrees>43.26690833084285259246826171875</LatitudeDegrees>
              <LongitudeDegrees>-2.948991917073726654052734375</LongitudeDegrees>
            </Position>
            <DistanceMeters>1954.3280045574</DistanceMeters>
          </Trackpoint>
          <Trackpoint>
            <Time>2022-09-24T14:01:03.000Z</Time>
            <Position>
              <LatitudeDegrees>43.2669053971767425537109375</LatitudeDegrees>
              <LongitudeDegrees>-2.94899786822497844696044921875</LongitudeDegrees>
            </Position>
            <DistanceMeters>1954.9137885661</DistanceMeters>
          </Trackpoint>
          <Trackpoint>
            <Time>2022-09-24T14:01:04.000Z</Time>
            <Position>
              <LatitudeDegrees>43.26690229587256908416748046875</LatitudeDegrees>
              <LongitudeDegrees>-2.9490041546523571014404296875</LongitudeDegrees>
            </Position>
            <DistanceMeters>1955.5296320613</DistanceMeters>
          </Trackpoint>
          <Trackpoint>
            <Time>2022-09-24T14:01:05.000Z</Time>
            <Position>
              <LatitudeDegrees>43.26689927838742733001708984375</LatitudeDegrees>
              <LongitudeDegrees>-2.94901027344167232513427734375</LongitudeDegrees>
            </Position>
            <DistanceMeters>1956.1230737024</DistanceMeters>
          </Trackpoint>
          <Trackpoint>
            <Time>2022-09-24T14:01:06.000Z</Time>
            <Position>
              <LatitudeDegrees>43.26689626090228557586669921875</LatitudeDegrees>
              <LongitudeDegrees>-2.94901647605001926422119140625</LongitudeDegrees>
            </Position>
            <DistanceMeters>1956.7240754143</DistanceMeters>
          </Trackpoint>
          <Trackpoint>
            <Time>2022-09-24T14:01:07.000Z</Time>
            <Position>
              <LatitudeDegrees>43.266893327236175537109375</LatitudeDegrees>
              <LongitudeDegrees>-2.94902301393449306488037109375</LongitudeDegrees>
            </Position>
            <DistanceMeters>1957.347207252</DistanceMeters>
          </Trackpoint>
          <Trackpoint>
            <Time>2022-09-24T14:01:08.000Z</Time>
            <Position>
              <LatitudeDegrees>43.26689039357006549835205078125</LatitudeDegrees>
              <LongitudeDegrees>-2.949029467999935150146484375</LongitudeDegrees>
            </Position>
            <DistanceMeters>1957.9630507472</DistanceMeters>
          </Trackpoint>
          <Trackpoint>
            <Time>2022-09-24T14:01:09.000Z</Time>
            <Position>
              <LatitudeDegrees>43.26688754372298717498779296875</LatitudeDegrees>
              <LongitudeDegrees>-2.949036173522472381591796875</LongitudeDegrees>
            </Position>
            <DistanceMeters>1958.5933866605</DistanceMeters>
          </Trackpoint>
          <Trackpoint>
            <Time>2022-09-24T14:01:10.000Z</Time>
            <Position>
              <LatitudeDegrees>43.26688469387590885162353515625</LatitudeDegrees>
              <LongitudeDegrees>-2.94904296286404132843017578125</LongitudeDegrees>
            </Position>
            <DistanceMeters>1959.2237225737</DistanceMeters>
          </Trackpoint>
          <Trackpoint>
            <Time>2022-09-24T14:01:11.000Z</Time>
            <Position>
              <LatitudeDegrees>43.26688184402883052825927734375</LatitudeDegrees>
              <LongitudeDegrees>-2.94904950074851512908935546875</LongitudeDegrees>
            </Position>
            <DistanceMeters>1959.839566069</DistanceMeters>
          </Trackpoint>
          <Trackpoint>
            <Time>2022-09-24T14:01:12.000Z</Time>
            <Position>
              <LatitudeDegrees>43.26687899418175220489501953125</LatitudeDegrees>
              <LongitudeDegrees>-2.949056290090084075927734375</LongitudeDegrees>
            </Position>
            <DistanceMeters>1960.4699019822</DistanceMeters>
          </Trackpoint>
          <Trackpoint>
            <Time>2022-09-24T14:01:13.000Z</Time>
            <Position>
              <LatitudeDegrees>43.26687597669661045074462890625</LatitudeDegrees>
              <LongitudeDegrees>-2.94906274415552616119384765625</LongitudeDegrees>
            </Position>
            <DistanceMeters>1961.0857454775</DistanceMeters>
          </Trackpoint>
          <Trackpoint>
            <Time>2022-09-24T14:01:14.000Z</Time>
            <Position>
              <LatitudeDegrees>43.26687279157340526580810546875</LatitudeDegrees>
              <LongitudeDegrees>-2.9490695334970951080322265625</LongitudeDegrees>
            </Position>
            <DistanceMeters>1961.7302480115</DistanceMeters>
          </Trackpoint>
          <Trackpoint>
            <Time>2022-09-24T14:01:15.000Z</Time>
            <Position>
              <LatitudeDegrees>43.26686960645020008087158203125</LatitudeDegrees>
              <LongitudeDegrees>-2.94907607138156890869140625</LongitudeDegrees>
            </Position>
            <DistanceMeters>1962.3677065906</DistanceMeters>
          </Trackpoint>
          <Trackpoint>
            <Time>2022-09-24T14:01:16.000Z</Time>
            <Position>
              <LatitudeDegrees>43.2668663375079631805419921875</LatitudeDegrees>
              <LongitudeDegrees>-2.94908286072313785552978515625</LongitudeDegrees>
            </Position>
            <DistanceMeters>1963.0328935912</DistanceMeters>
          </Trackpoint>
          <Trackpoint>
            <Time>2022-09-24T14:01:17.000Z</Time>
            <Position>
              <LatitudeDegrees>43.26686323620378971099853515625</LatitudeDegrees>
              <LongitudeDegrees>-2.94908948242664337158203125</LongitudeDegrees>
            </Position>
            <DistanceMeters>1963.6773961252</DistanceMeters>
          </Trackpoint>
          <Trackpoint>
            <Time>2022-09-24T14:01:18.000Z</Time>
            <Position>
              <LatitudeDegrees>43.2668599672615528106689453125</LatitudeDegrees>
              <LongitudeDegrees>-2.94909618794918060302734375</LongitudeDegrees>
            </Position>
            <DistanceMeters>1964.3288664568</DistanceMeters>
          </Trackpoint>
          <Trackpoint>
            <Time>2022-09-24T14:01:19.000Z</Time>
            <Position>
              <LatitudeDegrees>43.266856782138347625732421875</LatitudeDegrees>
              <LongitudeDegrees>-2.949102558195590972900390625</LongitudeDegrees>
            </Position>
            <DistanceMeters>1964.95920237</DistanceMeters>
          </Trackpoint>
          <Trackpoint>
            <Time>2022-09-24T14:01:20.000Z</Time>
            <Position>
              <LatitudeDegrees>43.2668535970151424407958984375</LatitudeDegrees>
              <LongitudeDegrees>-2.9491087608039379119873046875</LongitudeDegrees>
            </Position>
            <DistanceMeters>1965.5750458653</DistanceMeters>
          </Trackpoint>
          <Trackpoint>
            <Time>2022-09-24T14:01:21.000Z</Time>
            <Position>
              <LatitudeDegrees>43.26685032807290554046630859375</LatitudeDegrees>
              <LongitudeDegrees>-2.949114628136157989501953125</LongitudeDegrees>
            </Position>
            <DistanceMeters>1966.1684875063</DistanceMeters>
          </Trackpoint>
          <Trackpoint>
            <Time>2022-09-24T14:01:22.000Z</Time>
            <Position>
              <LatitudeDegrees>43.26684714294970035552978515625</LatitudeDegrees>
              <LongitudeDegrees>-2.949120663106441497802734375</LongitudeDegrees>
            </Position>
            <DistanceMeters>1966.7769553643</DistanceMeters>
          </Trackpoint>
          <Trackpoint>
            <Time>2022-09-24T14:01:23.000Z</Time>
            <Position>
              <LatitudeDegrees>43.26684379018843173980712890625</LatitudeDegrees>
              <LongitudeDegrees>-2.94912678189575672149658203125</LongitudeDegrees>
            </Position>
            <DistanceMeters>1967.3927988595</DistanceMeters>
          </Trackpoint>
          <Trackpoint>
            <Time>2022-09-24T14:01:24.000Z</Time>
            <Position>
              <LatitudeDegrees>43.26684043742716312408447265625</LatitudeDegrees>
              <LongitudeDegrees>-2.9491329006850719451904296875</LongitudeDegrees>
            </Position>
            <DistanceMeters>1968.0159306972</DistanceMeters>
          </Trackpoint>
          <Trackpoint>
            <Time>2022-09-24T14:01:25.000Z</Time>
            <Position>
              <LatitudeDegrees>43.2668371684849262237548828125</LatitudeDegrees>
              <LongitudeDegrees>-2.949138768017292022705078125</LongitudeDegrees>
            </Position>
            <DistanceMeters>1968.6169324091</DistanceMeters>
          </Trackpoint>
          <Trackpoint>
            <Time>2022-09-24T14:01:26.000Z</Time>
            <Position>
              <LatitudeDegrees>43.26683373190462589263916015625</LatitudeDegrees>
              <LongitudeDegrees>-2.94914455153048038482666015625</LongitudeDegrees>
            </Position>
            <DistanceMeters>1969.2179341211</DistanceMeters>
          </Trackpoint>
          <Trackpoint>
            <Time>2022-09-24T14:01:27.000Z</Time>
            <Position>
              <LatitudeDegrees>43.26683021150529384613037109375</LatitudeDegrees>
              <LongitudeDegrees>-2.94915041886270046234130859375</LongitudeDegrees>
            </Position>
            <DistanceMeters>1969.8337776163</DistanceMeters>
          </Trackpoint>
          <Trackpoint>
            <Time>2022-09-24T14:01:28.000Z</Time>
            <Position>
              <LatitudeDegrees>43.2668267749249935150146484375</LatitudeDegrees>
              <LongitudeDegrees>-2.94915611855685710906982421875</LongitudeDegrees>
            </Position>
            <DistanceMeters>1970.4347793283</DistanceMeters>
          </Trackpoint>
          <Trackpoint>
            <Time>2022-09-24T14:01:29.000Z</Time>
            <Position>
              <LatitudeDegrees>43.266823254525661468505859375</LatitudeDegrees>
              <LongitudeDegrees>-2.949162237346172332763671875</LongitudeDegrees>
            </Position>
            <DistanceMeters>1971.0651152415</DistanceMeters>
          </Trackpoint>
          <Trackpoint>
            <Time>2022-09-24T14:01:30.000Z</Time>
            <Position>
              <LatitudeDegrees>43.26681965030729770660400390625</LatitudeDegrees>
              <LongitudeDegrees>-2.9491681046783924102783203125</LongitudeDegrees>
            </Position>
            <DistanceMeters>1971.6882470792</DistanceMeters>
          </Trackpoint>
          <Trackpoint>
            <Time>2022-09-24T14:01:31.000Z</Time>
            <Position>
              <LatitudeDegrees>43.26681596226990222930908203125</LatitudeDegrees>
              <LongitudeDegrees>-2.94917422346770763397216796875</LongitudeDegrees>
            </Position>
            <DistanceMeters>1972.3327496132</DistanceMeters>
          </Trackpoint>
          <Trackpoint>
            <Time>2022-09-24T14:01:32.000Z</Time>
            <Position>
              <LatitudeDegrees>43.26681260950863361358642578125</LatitudeDegrees>
              <LongitudeDegrees>-2.94918009079992771148681640625</LongitudeDegrees>
            </Position>
            <DistanceMeters>1972.9412174712</DistanceMeters>
          </Trackpoint>
          <Trackpoint>
            <Time>2022-09-24T14:01:33.000Z</Time>
            <Position>
              <LatitudeDegrees>43.266809172928333282470703125</LatitudeDegrees>
              <LongitudeDegrees>-2.94918629340827465057373046875</LongitudeDegrees>
            </Position>
            <DistanceMeters>1973.5715533845</DistanceMeters>
          </Trackpoint>
          <Trackpoint>
            <Time>2022-09-24T14:01:34.000Z</Time>
            <Position>
              <LatitudeDegrees>43.26680590398609638214111328125</LatitudeDegrees>
              <LongitudeDegrees>-2.94919232837855815887451171875</LongitudeDegrees>
            </Position>
            <DistanceMeters>1974.1873968797</DistanceMeters>
          </Trackpoint>
          <Trackpoint>
            <Time>2022-09-24T14:01:35.000Z</Time>
            <Position>
              <LatitudeDegrees>43.2668026350438594818115234375</LatitudeDegrees>
              <LongitudeDegrees>-2.94919836334884166717529296875</LongitudeDegrees>
            </Position>
            <DistanceMeters>1974.803240375</DistanceMeters>
          </Trackpoint>
          <Trackpoint>
            <Time>2022-09-24T14:01:36.000Z</Time>
            <Position>
              <LatitudeDegrees>43.2667992822825908660888671875</LatitudeDegrees>
              <LongitudeDegrees>-2.9492039792239665985107421875</LongitudeDegrees>
            </Position>
            <DistanceMeters>1975.3890243837</DistanceMeters>
          </Trackpoint>
          <Trackpoint>
            <Time>2022-09-24T14:01:37.000Z</Time>
            <Position>
              <LatitudeDegrees>43.266795761883258819580078125</LatitudeDegrees>
              <LongitudeDegrees>-2.949209511280059814453125</LongitudeDegrees>
            </Position>
            <DistanceMeters>1975.9900260956</DistanceMeters>
          </Trackpoint>
          <Trackpoint>
            <Time>2022-09-24T14:01:38.000Z</Time>
            <Position>
              <LatitudeDegrees>43.2667922414839267730712890625</LatitudeDegrees>
              <LongitudeDegrees>-2.94921495951712131500244140625</LongitudeDegrees>
            </Position>
            <DistanceMeters>1976.5758101044</DistanceMeters>
          </Trackpoint>
          <Trackpoint>
            <Time>2022-09-24T14:01:39.000Z</Time>
            <Position>
              <LatitudeDegrees>43.2667885534465312957763671875</LatitudeDegrees>
              <LongitudeDegrees>-2.94922049157321453094482421875</LongitudeDegrees>
            </Position>
            <DistanceMeters>1977.1768118163</DistanceMeters>
          </Trackpoint>
          <Trackpoint>
            <Time>2022-09-24T14:01:40.000Z</Time>
            <Position>
              <LatitudeDegrees>43.2667846977710723876953125</LatitudeDegrees>
              <LongitudeDegrees>-2.949225939810276031494140625</LongitudeDegrees>
            </Position>
            <DistanceMeters>1977.7926553116</DistanceMeters>
          </Trackpoint>
          <Trackpoint>
            <Time>2022-09-24T14:01:41.000Z</Time>
            <Position>
              <LatitudeDegrees>43.26678109355270862579345703125</LatitudeDegrees>
              <LongitudeDegrees>-2.94923122040927410125732421875</LongitudeDegrees>
            </Position>
            <DistanceMeters>1978.3784393203</DistanceMeters>
          </Trackpoint>
          <Trackpoint>
            <Time>2022-09-24T14:01:42.000Z</Time>
            <Position>
              <LatitudeDegrees>43.26677732169628143310546875</LatitudeDegrees>
              <LongitudeDegrees>-2.94923608191311359405517578125</LongitudeDegrees>
            </Position>
            <DistanceMeters>1978.9485996065</DistanceMeters>
          </Trackpoint>
          <Trackpoint>
            <Time>2022-09-24T14:01:43.000Z</Time>
            <Position>
              <LatitudeDegrees>43.26677354983985424041748046875</LatitudeDegrees>
              <LongitudeDegrees>-2.94924102723598480224609375</LongitudeDegrees>
            </Position>
            <DistanceMeters>1979.5343836152</DistanceMeters>
          </Trackpoint>
          <Trackpoint>
            <Time>2022-09-24T14:01:44.000Z</Time>
            <Position>
              <LatitudeDegrees>43.26676927506923675537109375</LatitudeDegrees>
              <LongitudeDegrees>-2.94924597255885601043701171875</LongitudeDegrees>
            </Position>
            <DistanceMeters>1980.1647195285</DistanceMeters>
          </Trackpoint>
          <Trackpoint>
            <Time>2022-09-24T14:01:45.000Z</Time>
            <Position>
              <LatitudeDegrees>43.26676500029861927032470703125</LatitudeDegrees>
              <LongitudeDegrees>-2.9492502473294734954833984375</LongitudeDegrees>
            </Position>
            <DistanceMeters>1980.7505035372</DistanceMeters>
          </Trackpoint>
          <Trackpoint>
            <Time>2022-09-24T14:01:46.000Z</Time>
            <Position>
              <LatitudeDegrees>43.2667605578899383544921875</LatitudeDegrees>
              <LongitudeDegrees>-2.9492546059191226959228515625</LongitudeDegrees>
            </Position>
            <DistanceMeters>1981.3589713952</DistanceMeters>
          </Trackpoint>
          <Trackpoint>
            <Time>2022-09-24T14:01:47.000Z</Time>
            <Position>
              <LatitudeDegrees>43.26675628311932086944580078125</LatitudeDegrees>
              <LongitudeDegrees>-2.94925854541361331939697265625</LongitudeDegrees>
            </Position>
            <DistanceMeters>1981.9291316814</DistanceMeters>
          </Trackpoint>
          <Trackpoint>
            <Time>2022-09-24T14:01:48.000Z</Time>
            <Position>
              <LatitudeDegrees>43.2667520083487033843994140625</LatitudeDegrees>
              <LongitudeDegrees>-2.94926240108907222747802734375</LongitudeDegrees>
            </Position>
            <DistanceMeters>1982.4992919676</DistanceMeters>
          </Trackpoint>
          <Trackpoint>
            <Time>2022-09-24T14:01:49.000Z</Time>
            <Position>
              <LatitudeDegrees>43.26674756594002246856689453125</LatitudeDegrees>
              <LongitudeDegrees>-2.94926608912646770477294921875</LongitudeDegrees>
            </Position>
            <DistanceMeters>1983.0694522538</DistanceMeters>
          </Trackpoint>
          <Trackpoint>
            <Time>2022-09-24T14:01:50.000Z</Time>
            <Position>
              <LatitudeDegrees>43.266743123531341552734375</LatitudeDegrees>
              <LongitudeDegrees>-2.94926944188773632049560546875</LongitudeDegrees>
            </Position>
            <DistanceMeters>1983.63961254</DistanceMeters>
          </Trackpoint>
          <Trackpoint>
            <Time>2022-09-24T14:01:51.000Z</Time>
            <Position>
              <LatitudeDegrees>43.26673801057040691375732421875</LatitudeDegrees>
              <LongitudeDegrees>-2.949271537363529205322265625</LongitudeDegrees>
            </Position>
            <DistanceMeters>1984.2253965488</DistanceMeters>
          </Trackpoint>
          <Trackpoint>
            <Time>2022-09-24T14:01:52.000Z</Time>
            <Position>
              <LatitudeDegrees>43.26673298142850399017333984375</LatitudeDegrees>
              <LongitudeDegrees>-2.949273549020290374755859375</LongitudeDegrees>
            </Position>
            <DistanceMeters>1984.8111805575</DistanceMeters>
          </Trackpoint>
          <Trackpoint>
            <Time>2022-09-24T14:01:53.000Z</Time>
            <Position>
              <LatitudeDegrees>43.2667278684675693511962890625</LatitudeDegrees>
              <LongitudeDegrees>-2.94927480630576610565185546875</LongitudeDegrees>
            </Position>
            <DistanceMeters>1985.3813408437</DistanceMeters>
          </Trackpoint>
          <Trackpoint>
            <Time>2022-09-24T14:01:54.000Z</Time>
            <Position>
              <LatitudeDegrees>43.2667228393256664276123046875</LatitudeDegrees>
              <LongitudeDegrees>-2.94927597977221012115478515625</LongitudeDegrees>
            </Position>
            <DistanceMeters>1985.9435264674</DistanceMeters>
          </Trackpoint>
          <Trackpoint>
            <Time>2022-09-24T14:01:55.000Z</Time>
            <Position>
              <LatitudeDegrees>43.26671822927892208099365234375</LatitudeDegrees>
              <LongitudeDegrees>-2.94927665032446384429931640625</LongitudeDegrees>
            </Position>
            <DistanceMeters>1986.4640092177</DistanceMeters>
          </Trackpoint>
          <Trackpoint>
            <Time>2022-09-24T14:01:56.000Z</Time>
            <Position>
              <LatitudeDegrees>43.266713619232177734375</LatitudeDegrees>
              <LongitudeDegrees>-2.94927715323865413665771484375</LongitudeDegrees>
            </Position>
            <DistanceMeters>1986.966843326</DistanceMeters>
          </Trackpoint>
          <Trackpoint>
            <Time>2022-09-24T14:01:57.000Z</Time>
            <Position>
              <LatitudeDegrees>43.26670900918543338775634765625</LatitudeDegrees>
              <LongitudeDegrees>-2.94927715323865413665771484375</LongitudeDegrees>
            </Position>
            <DistanceMeters>1987.4785778439</DistanceMeters>
          </Trackpoint>
          <Trackpoint>
            <Time>2022-09-24T14:01:58.000Z</Time>
            <Position>
              <LatitudeDegrees>43.2667042315006256103515625</LatitudeDegrees>
              <LongitudeDegrees>-2.94927698560059070587158203125</LongitudeDegrees>
            </Position>
            <DistanceMeters>1988.0161301169</DistanceMeters>
          </Trackpoint>
          <Trackpoint>
            <Time>2022-09-24T14:01:59.000Z</Time>
            <Position>
              <LatitudeDegrees>43.26669911853969097137451171875</LatitudeDegrees>
              <LongitudeDegrees>-2.94927681796252727508544921875</LongitudeDegrees>
            </Position>
            <DistanceMeters>1988.5862904031</DistanceMeters>
          </Trackpoint>
          <Trackpoint>
            <Time>2022-09-24T14:02:00.000Z</Time>
            <Position>
              <LatitudeDegrees>43.26669392175972461700439453125</LatitudeDegrees>
              <LongitudeDegrees>-2.9492767341434955596923828125</LongitudeDegrees>
            </Position>
            <DistanceMeters>1989.1643153407</DistanceMeters>
          </Trackpoint>
          <Trackpoint>
            <Time>2022-09-24T14:02:01.000Z</Time>
            <Position>
              <LatitudeDegrees>43.26668872497975826263427734375</LatitudeDegrees>
              <LongitudeDegrees>-2.94927648268640041351318359375</LongitudeDegrees>
            </Position>
            <DistanceMeters>1989.7500993494</DistanceMeters>
          </Trackpoint>
          <Trackpoint>
            <Time>2022-09-24T14:02:02.000Z</Time>
            <Position>
              <LatitudeDegrees>43.26668352819979190826416015625</LatitudeDegrees>
              <LongitudeDegrees>-2.94927614741027355194091796875</LongitudeDegrees>
            </Position>
            <DistanceMeters>1990.328124287</DistanceMeters>
          </Trackpoint>
          <Trackpoint>
            <Time>2022-09-24T14:02:03.000Z</Time>
            <Position>
              <LatitudeDegrees>43.266678415238857269287109375</LatitudeDegrees>
              <LongitudeDegrees>-2.94927581213414669036865234375</LongitudeDegrees>
            </Position>
            <DistanceMeters>1990.8903099107</DistanceMeters>
          </Trackpoint>
          <Trackpoint>
            <Time>2022-09-24T14:02:04.000Z</Time>
            <Position>
              <LatitudeDegrees>43.2666732184588909149169921875</LatitudeDegrees>
              <LongitudeDegrees>-2.94927497394382953643798828125</LongitudeDegrees>
            </Position>
            <DistanceMeters>1991.4760939194</DistanceMeters>
          </Trackpoint>
          <Trackpoint>
            <Time>2022-09-24T14:02:05.000Z</Time>
            <Position>
              <LatitudeDegrees>43.26666793785989284515380859375</LatitudeDegrees>
              <LongitudeDegrees>-2.94927413575351238250732421875</LongitudeDegrees>
            </Position>
            <DistanceMeters>1992.0770956314</DistanceMeters>
          </Trackpoint>
          <Trackpoint>
            <Time>2022-09-24T14:02:06.000Z</Time>
            <Position>
              <LatitudeDegrees>43.266662657260894775390625</LatitudeDegrees>
              <LongitudeDegrees>-2.94927321374416351318359375</LongitudeDegrees>
            </Position>
            <DistanceMeters>1992.6780973433</DistanceMeters>
          </Trackpoint>
          <Trackpoint>
            <Time>2022-09-24T14:02:07.000Z</Time>
            <Position>
              <LatitudeDegrees>43.26665737666189670562744140625</LatitudeDegrees>
              <LongitudeDegrees>-2.949272207915782928466796875</LongitudeDegrees>
            </Position>
            <DistanceMeters>1993.263881352</DistanceMeters>
          </Trackpoint>
          <Trackpoint>
            <Time>2022-09-24T14:02:08.000Z</Time>
            <Position>
              <LatitudeDegrees>43.2666520960628986358642578125</LatitudeDegrees>
              <LongitudeDegrees>-2.949270866811275482177734375</LongitudeDegrees>
            </Position>
            <DistanceMeters>1993.864883064</DistanceMeters>
          </Trackpoint>
          <Trackpoint>
            <Time>2022-09-24T14:02:09.000Z</Time>
            <Position>
              <LatitudeDegrees>43.266646899282932281494140625</LatitudeDegrees>
              <LongitudeDegrees>-2.94926944188773632049560546875</LongitudeDegrees>
            </Position>
            <DistanceMeters>1994.458324705</DistanceMeters>
          </Trackpoint>
          <Trackpoint>
            <Time>2022-09-24T14:02:10.000Z</Time>
            <Position>
              <LatitudeDegrees>43.26664178632199764251708984375</LatitudeDegrees>
              <LongitudeDegrees>-2.94926776550710201263427734375</LongitudeDegrees>
            </Position>
            <DistanceMeters>1995.0441087137</DistanceMeters>
          </Trackpoint>
          <Trackpoint>
            <Time>2022-09-24T14:02:11.000Z</Time>
            <Position>
              <LatitudeDegrees>43.2666366733610630035400390625</LatitudeDegrees>
              <LongitudeDegrees>-2.94926592148840427398681640625</LongitudeDegrees>
            </Position>
            <DistanceMeters>1995.6375503548</DistanceMeters>
          </Trackpoint>
          <Trackpoint>
            <Time>2022-09-24T14:02:12.000Z</Time>
            <Position>
              <LatitudeDegrees>43.26663156040012836456298828125</LatitudeDegrees>
              <LongitudeDegrees>-2.9492636583745479583740234375</LongitudeDegrees>
            </Position>
            <DistanceMeters>1996.2385520667</DistanceMeters>
          </Trackpoint>
          <Trackpoint>
            <Time>2022-09-24T14:02:13.000Z</Time>
            <Position>
              <LatitudeDegrees>43.26662653125822544097900390625</LatitudeDegrees>
              <LongitudeDegrees>-2.9492613114416599273681640625</LongitudeDegrees>
            </Position>
            <DistanceMeters>1996.8319937077</DistanceMeters>
          </Trackpoint>
          <Trackpoint>
            <Time>2022-09-24T14:02:14.000Z</Time>
            <Position>
              <LatitudeDegrees>43.26662150211632251739501953125</LatitudeDegrees>
              <LongitudeDegrees>-2.94925854541361331939697265625</LongitudeDegrees>
            </Position>
            <DistanceMeters>1997.4329954197</DistanceMeters>
          </Trackpoint>
          <Trackpoint>
            <Time>2022-09-24T14:02:15.000Z</Time>
            <Position>
              <LatitudeDegrees>43.26661647297441959381103515625</LatitudeDegrees>
              <LongitudeDegrees>-2.94925552792847156524658203125</LongitudeDegrees>
            </Position>
            <DistanceMeters>1998.0339971316</DistanceMeters>
          </Trackpoint>
          <Trackpoint>
            <Time>2022-09-24T14:02:16.000Z</Time>
            <Position>
              <LatitudeDegrees>43.26661144383251667022705078125</LatitudeDegrees>
              <LongitudeDegrees>-2.949252426624298095703125</LongitudeDegrees>
            </Position>
            <DistanceMeters>1998.6498406269</DistanceMeters>
          </Trackpoint>
          <Trackpoint>
            <Time>2022-09-24T14:02:17.000Z</Time>
            <Position>
              <LatitudeDegrees>43.26660641469061374664306640625</LatitudeDegrees>
              <LongitudeDegrees>-2.94924915768206119537353515625</LongitudeDegrees>
            </Position>
            <DistanceMeters>1999.2656841221</DistanceMeters>
          </Trackpoint>
          <Trackpoint>
            <Time>2022-09-24T14:02:18.000Z</Time>
            <Position>
              <LatitudeDegrees>43.26660138554871082305908203125</LatitudeDegrees>
              <LongitudeDegrees>-2.94924580492079257965087890625</LongitudeDegrees>
            </Position>
            <DistanceMeters>1999.8815276174</DistanceMeters>
          </Trackpoint>
          <Trackpoint>
            <Time>2022-09-24T14:02:19.000Z</Time>
            <Position>
              <LatitudeDegrees>43.26659635640680789947509765625</LatitudeDegrees>
              <LongitudeDegrees>-2.9492422007024288177490234375</LongitudeDegrees>
            </Position>
            <DistanceMeters>2000.5118635306</DistanceMeters>
          </Trackpoint>
          <Trackpoint>
            <Time>2022-09-24T14:02:20.000Z</Time>
            <Position>
              <LatitudeDegrees>43.2665914110839366912841796875</LatitudeDegrees>
              <LongitudeDegrees>-2.94923842884600162506103515625</LongitudeDegrees>
            </Position>
            <DistanceMeters>2001.1421994439</DistanceMeters>
          </Trackpoint>
          <Trackpoint>
            <Time>2022-09-24T14:02:21.000Z</Time>
            <Position>
              <LatitudeDegrees>43.2665863819420337677001953125</LatitudeDegrees>
              <LongitudeDegrees>-2.949234656989574432373046875</LongitudeDegrees>
            </Position>
            <DistanceMeters>2001.7867019779</DistanceMeters>
          </Trackpoint>
          <Trackpoint>
            <Time>2022-09-24T14:02:22.000Z</Time>
            <Position>
              <LatitudeDegrees>43.26658126898109912872314453125</LatitudeDegrees>
              <LongitudeDegrees>-2.94923088513314723968505859375</LongitudeDegrees>
            </Position>
            <DistanceMeters>2002.431204512</DistanceMeters>
          </Trackpoint>
          <Trackpoint>
            <Time>2022-09-24T14:02:23.000Z</Time>
            <Position>
              <LatitudeDegrees>43.26657615602016448974609375</LatitudeDegrees>
              <LongitudeDegrees>-2.949227280914783477783203125</LongitudeDegrees>
            </Position>
            <DistanceMeters>2003.068663091</DistanceMeters>
          </Trackpoint>
          <Trackpoint>
            <Time>2022-09-24T14:02:24.000Z</Time>
            <Position>
              <LatitudeDegrees>43.26657121069729328155517578125</LatitudeDegrees>
              <LongitudeDegrees>-2.94922384433448314666748046875</LongitudeDegrees>
            </Position>
            <DistanceMeters>2003.6845065863</DistanceMeters>
          </Trackpoint>
          <Trackpoint>
            <Time>2022-09-24T14:02:25.000Z</Time>
            <Position>
              <LatitudeDegrees>43.26656634919345378875732421875</LatitudeDegrees>
              <LongitudeDegrees>-2.949220240116119384765625</LongitudeDegrees>
            </Position>
            <DistanceMeters>2004.3148424995</DistanceMeters>
          </Trackpoint>
          <Trackpoint>
            <Time>2022-09-24T14:02:26.000Z</Time>
            <Position>
              <LatitudeDegrees>43.26656182296574115753173828125</LatitudeDegrees>
              <LongitudeDegrees>-2.9492167197167873382568359375</LongitudeDegrees>
            </Position>
            <DistanceMeters>2004.8928674371</DistanceMeters>
          </Trackpoint>
          <Trackpoint>
            <Time>2022-09-24T14:02:27.000Z</Time>
            <Position>
              <LatitudeDegrees>43.26655712909996509552001953125</LatitudeDegrees>
              <LongitudeDegrees>-2.94921286404132843017578125</LongitudeDegrees>
            </Position>
            <DistanceMeters>2005.5087109323</DistanceMeters>
          </Trackpoint>
          <Trackpoint>
            <Time>2022-09-24T14:02:28.000Z</Time>
            <Position>
              <LatitudeDegrees>43.266552351415157318115234375</LatitudeDegrees>
              <LongitudeDegrees>-2.94920909218490123748779296875</LongitudeDegrees>
            </Position>
            <DistanceMeters>2006.1245544276</DistanceMeters>
          </Trackpoint>
          <Trackpoint>
            <Time>2022-09-24T14:02:29.000Z</Time>
            <Position>
              <LatitudeDegrees>43.266547657549381256103515625</LatitudeDegrees>
              <LongitudeDegrees>-2.94920506887137889862060546875</LongitudeDegrees>
            </Position>
            <DistanceMeters>2006.7403979229</DistanceMeters>
          </Trackpoint>
          <Trackpoint>
            <Time>2022-09-24T14:02:30.000Z</Time>
            <Position>
              <LatitudeDegrees>43.2665424607694149017333984375</LatitudeDegrees>
              <LongitudeDegrees>-2.94920146465301513671875</LongitudeDegrees>
            </Position>
            <DistanceMeters>2007.3849004569</DistanceMeters>
          </Trackpoint>
          <Trackpoint>
            <Time>2022-09-24T14:02:31.000Z</Time>
            <Position>
              <LatitudeDegrees>43.26653734780848026275634765625</LatitudeDegrees>
              <LongitudeDegrees>-2.9491979442536830902099609375</LongitudeDegrees>
            </Position>
            <DistanceMeters>2008.0152363702</DistanceMeters>
          </Trackpoint>
          <Trackpoint>
            <Time>2022-09-24T14:02:32.000Z</Time>
            <Position>
              <LatitudeDegrees>43.2665327377617359161376953125</LatitudeDegrees>
              <LongitudeDegrees>-2.94919534586369991302490234375</LongitudeDegrees>
            </Position>
            <DistanceMeters>2008.5693325704</DistanceMeters>
          </Trackpoint>
          <Trackpoint>
            <Time>2022-09-24T14:02:33.000Z</Time>
            <Position>
              <LatitudeDegrees>43.2665280438959598541259765625</LatitudeDegrees>
              <LongitudeDegrees>-2.94919283129274845123291015625</LongitudeDegrees>
            </Position>
            <DistanceMeters>2009.1315181941</DistanceMeters>
          </Trackpoint>
          <Trackpoint>
            <Time>2022-09-24T14:02:34.000Z</Time>
            <Position>
              <LatitudeDegrees>43.26652326621115207672119140625</LatitudeDegrees>
              <LongitudeDegrees>-2.9491905681788921356201171875</LongitudeDegrees>
            </Position>
            <DistanceMeters>2009.7016784804</DistanceMeters>
          </Trackpoint>
          <Trackpoint>
            <Time>2022-09-24T14:02:35.000Z</Time>
            <Position>
              <LatitudeDegrees>43.26651848852634429931640625</LatitudeDegrees>
              <LongitudeDegrees>-2.9491882212460041046142578125</LongitudeDegrees>
            </Position>
            <DistanceMeters>2010.2718387666</DistanceMeters>
          </Trackpoint>
          <Trackpoint>
            <Time>2022-09-24T14:02:36.000Z</Time>
            <Position>
              <LatitudeDegrees>43.2665132917463779449462890625</LatitudeDegrees>
              <LongitudeDegrees>-2.94918604195117950439453125</LongitudeDegrees>
            </Position>
            <DistanceMeters>2010.8803066246</DistanceMeters>
          </Trackpoint>
          <Trackpoint>
            <Time>2022-09-24T14:02:37.000Z</Time>
            <Position>
              <LatitudeDegrees>43.26650801114737987518310546875</LatitudeDegrees>
              <LongitudeDegrees>-2.9491838626563549041748046875</LongitudeDegrees>
            </Position>
            <DistanceMeters>2011.4961501198</DistanceMeters>
          </Trackpoint>
          <Trackpoint>
            <Time>2022-09-24T14:02:38.000Z</Time>
            <Position>
              <LatitudeDegrees>43.2665025629103183746337890625</LatitudeDegrees>
              <LongitudeDegrees>-2.949181683361530303955078125</LongitudeDegrees>
            </Position>
            <DistanceMeters>2012.1264860331</DistanceMeters>
          </Trackpoint>
          <Trackpoint>
            <Time>2022-09-24T14:02:39.000Z</Time>
            <Position>
              <LatitudeDegrees>43.26649711467325687408447265625</LatitudeDegrees>
              <LongitudeDegrees>-2.94917933642864227294921875</LongitudeDegrees>
            </Position>
            <DistanceMeters>2012.7639446121</DistanceMeters>
          </Trackpoint>
          <Trackpoint>
            <Time>2022-09-24T14:02:40.000Z</Time>
            <Position>
              <LatitudeDegrees>43.266492001712322235107421875</LatitudeDegrees>
              <LongitudeDegrees>-2.94917657040059566497802734375</LongitudeDegrees>
            </Position>
            <DistanceMeters>2013.3797881073</DistanceMeters>
          </Trackpoint>
          <Trackpoint>
            <Time>2022-09-24T14:02:41.000Z</Time>
            <Position>
              <LatitudeDegrees>43.2664869725704193115234375</LatitudeDegrees>
              <LongitudeDegrees>-2.9491738043725490570068359375</LongitudeDegrees>
            </Position>
            <DistanceMeters>2013.9807898193</DistanceMeters>
          </Trackpoint>
          <Trackpoint>
            <Time>2022-09-24T14:02:42.000Z</Time>
            <Position>
              <LatitudeDegrees>43.266481943428516387939453125</LatitudeDegrees>
              <LongitudeDegrees>-2.949170954525470733642578125</LongitudeDegrees>
            </Position>
            <DistanceMeters>2014.5892576773</DistanceMeters>
          </Trackpoint>
          <Trackpoint>
            <Time>2022-09-24T14:02:43.000Z</Time>
            <Position>
              <LatitudeDegrees>43.26647691428661346435546875</LatitudeDegrees>
              <LongitudeDegrees>-2.9491681046783924102783203125</LongitudeDegrees>
            </Position>
            <DistanceMeters>2015.1902593892</DistanceMeters>
          </Trackpoint>
          <Trackpoint>
            <Time>2022-09-24T14:02:44.000Z</Time>
            <Position>
              <LatitudeDegrees>43.266471885144710540771484375</LatitudeDegrees>
              <LongitudeDegrees>-2.9491652548313140869140625</LongitudeDegrees>
            </Position>
            <DistanceMeters>2015.7987272472</DistanceMeters>
          </Trackpoint>
          <Trackpoint>
            <Time>2022-09-24T14:02:45.000Z</Time>
            <Position>
              <LatitudeDegrees>43.2664668560028076171875</LatitudeDegrees>
              <LongitudeDegrees>-2.9491624049842357635498046875</LongitudeDegrees>
            </Position>
            <DistanceMeters>2016.3997289591</DistanceMeters>
          </Trackpoint>
          <Trackpoint>
            <Time>2022-09-24T14:02:46.000Z</Time>
            <Position>
              <LatitudeDegrees>43.26646191067993640899658203125</LatitudeDegrees>
              <LongitudeDegrees>-2.94915947131812572479248046875</LongitudeDegrees>
            </Position>
            <DistanceMeters>2016.9931706002</DistanceMeters>
          </Trackpoint>
          <Trackpoint>
            <Time>2022-09-24T14:02:47.000Z</Time>
            <Position>
              <LatitudeDegrees>43.26645688153803348541259765625</LatitudeDegrees>
              <LongitudeDegrees>-2.94915628619492053985595703125</LongitudeDegrees>
            </Position>
            <DistanceMeters>2017.6090140954</DistanceMeters>
          </Trackpoint>
          <Trackpoint>
            <Time>2022-09-24T14:02:48.000Z</Time>
            <Position>
              <LatitudeDegrees>43.2664519362151622772216796875</LatitudeDegrees>
              <LongitudeDegrees>-2.9491530172526836395263671875</LongitudeDegrees>
            </Position>
            <DistanceMeters>2018.2174819534</DistanceMeters>
          </Trackpoint>
          <Trackpoint>
            <Time>2022-09-24T14:02:49.000Z</Time>
            <Position>
              <LatitudeDegrees>43.2664467394351959228515625</LatitudeDegrees>
              <LongitudeDegrees>-2.9491496644914150238037109375</LongitudeDegrees>
            </Position>
            <DistanceMeters>2018.8478178667</DistanceMeters>
          </Trackpoint>
          <Trackpoint>
            <Time>2022-09-24T14:02:50.000Z</Time>
            <Position>
              <LatitudeDegrees>43.2664415426552295684814453125</LatitudeDegrees>
              <LongitudeDegrees>-2.9491463117301464080810546875</LongitudeDegrees>
            </Position>
            <DistanceMeters>2019.4923204007</DistanceMeters>
          </Trackpoint>
          <Trackpoint>
            <Time>2022-09-24T14:02:51.000Z</Time>
            <Position>
              <LatitudeDegrees>43.2664361782371997833251953125</LatitudeDegrees>
              <LongitudeDegrees>-2.94914287514984607696533203125</LongitudeDegrees>
            </Position>
            <DistanceMeters>2020.1506847902</DistanceMeters>
          </Trackpoint>
          <Trackpoint>
            <Time>2022-09-24T14:02:52.000Z</Time>
            <Position>
              <LatitudeDegrees>43.26643089763820171356201171875</LatitudeDegrees>
              <LongitudeDegrees>-2.949139438569545745849609375</LongitudeDegrees>
            </Position>
            <DistanceMeters>2020.7951873243</DistanceMeters>
          </Trackpoint>
          <Trackpoint>
            <Time>2022-09-24T14:02:53.000Z</Time>
            <Position>
              <LatitudeDegrees>43.266425617039203643798828125</LatitudeDegrees>
              <LongitudeDegrees>-2.949136085808277130126953125</LongitudeDegrees>
            </Position>
            <DistanceMeters>2021.4396898583</DistanceMeters>
          </Trackpoint>
          <Trackpoint>
            <Time>2022-09-24T14:02:54.000Z</Time>
            <Position>
              <LatitudeDegrees>43.266420252621173858642578125</LatitudeDegrees>
              <LongitudeDegrees>-2.9491325654089450836181640625</LongitudeDegrees>
            </Position>
            <DistanceMeters>2022.0980542478</DistanceMeters>
          </Trackpoint>
          <Trackpoint>
            <Time>2022-09-24T14:02:55.000Z</Time>
            <Position>
              <LatitudeDegrees>43.266414888203144073486328125</LatitudeDegrees>
              <LongitudeDegrees>-2.94912912882864475250244140625</LongitudeDegrees>
            </Position>
            <DistanceMeters>2022.7564186373</DistanceMeters>
          </Trackpoint>
          <Trackpoint>
            <Time>2022-09-24T14:02:56.000Z</Time>
            <Position>
              <LatitudeDegrees>43.26640943996608257293701171875</LatitudeDegrees>
              <LongitudeDegrees>-2.94912577606737613677978515625</LongitudeDegrees>
            </Position>
            <DistanceMeters>2023.4216056378</DistanceMeters>
          </Trackpoint>
          <Trackpoint>
            <Time>2022-09-24T14:02:57.000Z</Time>
            <Position>
              <LatitudeDegrees>43.2664039917290210723876953125</LatitudeDegrees>
              <LongitudeDegrees>-2.9491225071251392364501953125</LongitudeDegrees>
            </Position>
            <DistanceMeters>2024.0867926384</DistanceMeters>
          </Trackpoint>
          <Trackpoint>
            <Time>2022-09-24T14:02:58.000Z</Time>
            <Position>
              <LatitudeDegrees>43.2663984596729278564453125</LatitudeDegrees>
              <LongitudeDegrees>-2.9491191543638706207275390625</LongitudeDegrees>
            </Position>
            <DistanceMeters>2024.7587329797</DistanceMeters>
          </Trackpoint>
          <Trackpoint>
            <Time>2022-09-24T14:02:59.000Z</Time>
            <Position>
              <LatitudeDegrees>43.2663929276168346405029296875</LatitudeDegrees>
              <LongitudeDegrees>-2.9491158016026020050048828125</LongitudeDegrees>
            </Position>
            <DistanceMeters>2025.4373594592</DistanceMeters>
          </Trackpoint>
          <Trackpoint>
            <Time>2022-09-24T14:03:00.000Z</Time>
            <Position>
              <LatitudeDegrees>43.26638714410364627838134765625</LatitudeDegrees>
              <LongitudeDegrees>-2.94911270029842853546142578125</LongitudeDegrees>
            </Position>
            <DistanceMeters>2026.1291643822</DistanceMeters>
          </Trackpoint>
          <Trackpoint>
            <Time>2022-09-24T14:03:01.000Z</Time>
            <Position>
              <LatitudeDegrees>43.266381360590457916259765625</LatitudeDegrees>
              <LongitudeDegrees>-2.9491097666323184967041015625</LongitudeDegrees>
            </Position>
            <DistanceMeters>2026.8144117646</DistanceMeters>
          </Trackpoint>
          <Trackpoint>
            <Time>2022-09-24T14:03:02.000Z</Time>
            <Position>
              <LatitudeDegrees>43.26637557707726955413818359375</LatitudeDegrees>
              <LongitudeDegrees>-2.949106581509113311767578125</LongitudeDegrees>
            </Position>
            <DistanceMeters>2027.512712651</DistanceMeters>
          </Trackpoint>
          <Trackpoint>
            <Time>2022-09-24T14:03:03.000Z</Time>
            <Position>
              <LatitudeDegrees>43.2663697935640811920166015625</LatitudeDegrees>
              <LongitudeDegrees>-2.94910331256687641143798828125</LongitudeDegrees>
            </Position>
            <DistanceMeters>2028.2110135374</DistanceMeters>
          </Trackpoint>
          <Trackpoint>
            <Time>2022-09-24T14:03:04.000Z</Time>
            <Position>
              <LatitudeDegrees>43.26636426150798797607421875</LatitudeDegrees>
              <LongitudeDegrees>-2.9491000436246395111083984375</LongitudeDegrees>
            </Position>
            <DistanceMeters>2028.8829538787</DistanceMeters>
          </Trackpoint>
          <Trackpoint>
            <Time>2022-09-24T14:03:05.000Z</Time>
            <Position>
              <LatitudeDegrees>43.26635847799479961395263671875</LatitudeDegrees>
              <LongitudeDegrees>-2.94909660704433917999267578125</LongitudeDegrees>
            </Position>
            <DistanceMeters>2029.5812547651</DistanceMeters>
          </Trackpoint>
          <Trackpoint>
            <Time>2022-09-24T14:03:06.000Z</Time>
            <Position>
              <LatitudeDegrees>43.2663526944816112518310546875</LatitudeDegrees>
              <LongitudeDegrees>-2.94909325428307056427001953125</LongitudeDegrees>
            </Position>
            <DistanceMeters>2030.2795556515</DistanceMeters>
          </Trackpoint>
          <Trackpoint>
            <Time>2022-09-24T14:03:07.000Z</Time>
            <Position>
              <LatitudeDegrees>43.26634691096842288970947265625</LatitudeDegrees>
              <LongitudeDegrees>-2.94909023679792881011962890625</LongitudeDegrees>
            </Position>
            <DistanceMeters>2030.9648030339</DistanceMeters>
          </Trackpoint>
          <Trackpoint>
            <Time>2022-09-24T14:03:08.000Z</Time>
            <Position>
              <LatitudeDegrees>43.26634137891232967376708984375</LatitudeDegrees>
              <LongitudeDegrees>-2.94908721931278705596923828125</LongitudeDegrees>
            </Position>
            <DistanceMeters>2031.6231674234</DistanceMeters>
          </Trackpoint>
          <Trackpoint>
            <Time>2022-09-24T14:03:09.000Z</Time>
            <Position>
              <LatitudeDegrees>43.26633584685623645782470703125</LatitudeDegrees>
              <LongitudeDegrees>-2.94908436946570873260498046875</LongitudeDegrees>
            </Position>
            <DistanceMeters>2032.288354424</DistanceMeters>
          </Trackpoint>
          <Trackpoint>
            <Time>2022-09-24T14:03:10.000Z</Time>
            <Position>
              <LatitudeDegrees>43.266330398619174957275390625</LatitudeDegrees>
              <LongitudeDegrees>-2.94908143579959869384765625</LongitudeDegrees>
            </Position>
            <DistanceMeters>2032.9398247555</DistanceMeters>
          </Trackpoint>
          <Trackpoint>
            <Time>2022-09-24T14:03:11.000Z</Time>
            <Position>
              <LatitudeDegrees>43.26632528565824031829833984375</LatitudeDegrees>
              <LongitudeDegrees>-2.9490782506763935089111328125</LongitudeDegrees>
            </Position>
            <DistanceMeters>2033.5629565931</DistanceMeters>
          </Trackpoint>
          <Trackpoint>
            <Time>2022-09-24T14:03:12.000Z</Time>
            <Position>
              <LatitudeDegrees>43.26632025651633739471435546875</LatitudeDegrees>
              <LongitudeDegrees>-2.94907498173415660858154296875</LongitudeDegrees>
            </Position>
            <DistanceMeters>2034.1860884308</DistanceMeters>
          </Trackpoint>
          <Trackpoint>
            <Time>2022-09-24T14:03:13.000Z</Time>
            <Position>
              <LatitudeDegrees>43.26631489209830760955810546875</LatitudeDegrees>
              <LongitudeDegrees>-2.94907146133482456207275390625</LongitudeDegrees>
            </Position>
            <DistanceMeters>2034.858028772</DistanceMeters>
          </Trackpoint>
          <Trackpoint>
            <Time>2022-09-24T14:03:14.000Z</Time>
            <Position>
              <LatitudeDegrees>43.266309611499309539794921875</LatitudeDegrees>
              <LongitudeDegrees>-2.94906810857355594635009765625</LongitudeDegrees>
            </Position>
            <DistanceMeters>2035.5163931615</DistanceMeters>
          </Trackpoint>
          <Trackpoint>
            <Time>2022-09-24T14:03:15.000Z</Time>
            <Position>
              <LatitudeDegrees>43.26630449853837490081787109375</LatitudeDegrees>
              <LongitudeDegrees>-2.9490648396313190460205078125</LongitudeDegrees>
            </Position>
            <DistanceMeters>2036.1467290748</DistanceMeters>
          </Trackpoint>
          <Trackpoint>
            <Time>2022-09-24T14:03:16.000Z</Time>
            <Position>
              <LatitudeDegrees>43.26629946939647197723388671875</LatitudeDegrees>
              <LongitudeDegrees>-2.94906173832714557647705078125</LongitudeDegrees>
            </Position>
            <DistanceMeters>2036.76257257</DistanceMeters>
          </Trackpoint>
          <Trackpoint>
            <Time>2022-09-24T14:03:17.000Z</Time>
            <Position>
              <LatitudeDegrees>43.26629452407360076904296875</LatitudeDegrees>
              <LongitudeDegrees>-2.9490588046610355377197265625</LongitudeDegrees>
            </Position>
            <DistanceMeters>2037.3635742819</DistanceMeters>
          </Trackpoint>
          <Trackpoint>
            <Time>2022-09-24T14:03:18.000Z</Time>
            <Position>
              <LatitudeDegrees>43.26628957875072956085205078125</LatitudeDegrees>
              <LongitudeDegrees>-2.94905595481395721435546875</LongitudeDegrees>
            </Position>
            <DistanceMeters>2037.9645759939</DistanceMeters>
          </Trackpoint>
          <Trackpoint>
            <Time>2022-09-24T14:03:19.000Z</Time>
            <Position>
              <LatitudeDegrees>43.26628454960882663726806640625</LatitudeDegrees>
              <LongitudeDegrees>-2.94905318878591060638427734375</LongitudeDegrees>
            </Position>
            <DistanceMeters>2038.5655777058</DistanceMeters>
          </Trackpoint>
          <Trackpoint>
            <Time>2022-09-24T14:03:20.000Z</Time>
            <Position>
              <LatitudeDegrees>43.2662792690098285675048828125</LatitudeDegrees>
              <LongitudeDegrees>-2.94905033893883228302001953125</LongitudeDegrees>
            </Position>
            <DistanceMeters>2039.1959136191</DistanceMeters>
          </Trackpoint>
          <Trackpoint>
            <Time>2022-09-24T14:03:21.000Z</Time>
            <Position>
              <LatitudeDegrees>43.266274072229862213134765625</LatitudeDegrees>
              <LongitudeDegrees>-2.9490477405488491058349609375</LongitudeDegrees>
            </Position>
            <DistanceMeters>2039.8117571143</DistanceMeters>
          </Trackpoint>
          <Trackpoint>
            <Time>2022-09-24T14:03:22.000Z</Time>
            <Position>
              <LatitudeDegrees>43.266268707811832427978515625</LatitudeDegrees>
              <LongitudeDegrees>-2.9490450583398342132568359375</LongitudeDegrees>
            </Position>
            <DistanceMeters>2040.4420930276</DistanceMeters>
          </Trackpoint>
          <Trackpoint>
            <Time>2022-09-24T14:03:23.000Z</Time>
            <Position>
              <LatitudeDegrees>43.266263343393802642822265625</LatitudeDegrees>
              <LongitudeDegrees>-2.94904245994985103607177734375</LongitudeDegrees>
            </Position>
            <DistanceMeters>2041.0724289408</DistanceMeters>
          </Trackpoint>
          <Trackpoint>
            <Time>2022-09-24T14:03:24.000Z</Time>
            <Position>
              <LatitudeDegrees>43.266257978975772857666015625</LatitudeDegrees>
              <LongitudeDegrees>-2.94903994537889957427978515625</LongitudeDegrees>
            </Position>
            <DistanceMeters>2041.7098875199</DistanceMeters>
          </Trackpoint>
          <Trackpoint>
            <Time>2022-09-24T14:03:25.000Z</Time>
            <Position>
              <LatitudeDegrees>43.26625269837677478790283203125</LatitudeDegrees>
              <LongitudeDegrees>-2.949037514626979827880859375</LongitudeDegrees>
            </Position>
            <DistanceMeters>2042.3257310151</DistanceMeters>
          </Trackpoint>
          <Trackpoint>
            <Time>2022-09-24T14:03:26.000Z</Time>
            <Position>
              <LatitudeDegrees>43.2662474177777767181396484375</LatitudeDegrees>
              <LongitudeDegrees>-2.94903508387506008148193359375</LongitudeDegrees>
            </Position>
            <DistanceMeters>2042.9415745104</DistanceMeters>
          </Trackpoint>
          <Trackpoint>
            <Time>2022-09-24T14:03:27.000Z</Time>
            <Position>
              <LatitudeDegrees>43.2662420533597469329833984375</LatitudeDegrees>
              <LongitudeDegrees>-2.94903273694217205047607421875</LongitudeDegrees>
            </Position>
            <DistanceMeters>2043.5719104236</DistanceMeters>
          </Trackpoint>
          <Trackpoint>
            <Time>2022-09-24T14:03:28.000Z</Time>
            <Position>
              <LatitudeDegrees>43.2662370242178440093994140625</LatitudeDegrees>
              <LongitudeDegrees>-2.94903055764734745025634765625</LongitudeDegrees>
            </Position>
            <DistanceMeters>2044.1729121356</DistanceMeters>
          </Trackpoint>
          <Trackpoint>
            <Time>2022-09-24T14:03:29.000Z</Time>
            <Position>
              <LatitudeDegrees>43.2662319950759410858154296875</LatitudeDegrees>
              <LongitudeDegrees>-2.94902854599058628082275390625</LongitudeDegrees>
            </Position>
            <DistanceMeters>2044.7586961443</DistanceMeters>
          </Trackpoint>
          <Trackpoint>
            <Time>2022-09-24T14:03:30.000Z</Time>
            <Position>
              <LatitudeDegrees>43.26622721739113330841064453125</LatitudeDegrees>
              <LongitudeDegrees>-2.94902670197188854217529296875</LongitudeDegrees>
            </Position>
            <DistanceMeters>2045.3127923445</DistanceMeters>
          </Trackpoint>
          <Trackpoint>
            <Time>2022-09-24T14:03:31.000Z</Time>
            <Position>
              <LatitudeDegrees>43.266222439706325531005859375</LatitudeDegrees>
              <LongitudeDegrees>-2.9490249417722225189208984375</LongitudeDegrees>
            </Position>
            <DistanceMeters>2045.8586792583</DistanceMeters>
          </Trackpoint>
          <Trackpoint>
            <Time>2022-09-24T14:03:32.000Z</Time>
            <Position>
              <LatitudeDegrees>43.26621766202151775360107421875</LatitudeDegrees>
              <LongitudeDegrees>-2.94902318157255649566650390625</LongitudeDegrees>
            </Position>
            <DistanceMeters>2046.4045661721</DistanceMeters>
          </Trackpoint>
          <Trackpoint>
            <Time>2022-09-24T14:03:33.000Z</Time>
            <Position>
              <LatitudeDegrees>43.2662128843367099761962890625</LatitudeDegrees>
              <LongitudeDegrees>-2.94902150519192218780517578125</LongitudeDegrees>
            </Position>
            <DistanceMeters>2046.9586623723</DistanceMeters>
          </Trackpoint>
          <Trackpoint>
            <Time>2022-09-24T14:03:34.000Z</Time>
            <Position>
              <LatitudeDegrees>43.26620827428996562957763671875</LatitudeDegrees>
              <LongitudeDegrees>-2.94901982881128787994384765625</LongitudeDegrees>
            </Position>
            <DistanceMeters>2047.4962146453</DistanceMeters>
          </Trackpoint>
          <Trackpoint>
            <Time>2022-09-24T14:03:35.000Z</Time>
            <Position>
              <LatitudeDegrees>43.26620827428996562957763671875</LatitudeDegrees>
              <LongitudeDegrees>-2.94901982881128787994384765625</LongitudeDegrees>
            </Position>
            <DistanceMeters>2047.4962146453</DistanceMeters>
          </Trackpoint>
          <Trackpoint>
            <Time>2022-09-24T14:03:36.000Z</Time>
            <Position>
              <LatitudeDegrees>43.26620827428996562957763671875</LatitudeDegrees>
              <LongitudeDegrees>-2.94901982881128787994384765625</LongitudeDegrees>
            </Position>
            <DistanceMeters>2047.4962146453</DistanceMeters>
          </Trackpoint>
          <Trackpoint>
            <Time>2022-09-24T14:03:37.000Z</Time>
            <Position>
              <LatitudeDegrees>43.26620374806225299835205078125</LatitudeDegrees>
              <LongitudeDegrees>-2.94901840388774871826171875</LongitudeDegrees>
            </Position>
            <DistanceMeters>2048.0166973956</DistanceMeters>
          </Trackpoint>
          <Trackpoint>
            <Time>2022-09-24T14:03:38.000Z</Time>
            <Position>
              <LatitudeDegrees>43.26619930565357208251953125</LatitudeDegrees>
              <LongitudeDegrees>-2.9490168951451778411865234375</LongitudeDegrees>
            </Position>
            <DistanceMeters>2048.5284319135</DistanceMeters>
          </Trackpoint>
          <Trackpoint>
            <Time>2022-09-24T14:03:39.000Z</Time>
            <Position>
              <LatitudeDegrees>43.26619930565357208251953125</LatitudeDegrees>
              <LongitudeDegrees>-2.9490168951451778411865234375</LongitudeDegrees>
            </Position>
            <DistanceMeters>2048.5284319135</DistanceMeters>
          </Trackpoint>
          <Trackpoint>
            <Time>2022-09-24T14:03:40.000Z</Time>
            <Position>
              <LatitudeDegrees>43.26619930565357208251953125</LatitudeDegrees>
              <LongitudeDegrees>-2.9490168951451778411865234375</LongitudeDegrees>
            </Position>
            <DistanceMeters>2048.5284319135</DistanceMeters>
          </Trackpoint>
          <Trackpoint>
            <Time>2022-09-24T14:03:41.000Z</Time>
            <Position>
              <LatitudeDegrees>43.26619930565357208251953125</LatitudeDegrees>
              <LongitudeDegrees>-2.9490168951451778411865234375</LongitudeDegrees>
            </Position>
            <DistanceMeters>2048.5284319135</DistanceMeters>
          </Trackpoint>
          <Trackpoint>
            <Time>2022-09-24T14:03:42.000Z</Time>
            <Position>
              <LatitudeDegrees>43.26619503088295459747314453125</LatitudeDegrees>
              <LongitudeDegrees>-2.94901547022163867950439453125</LongitudeDegrees>
            </Position>
            <DistanceMeters>2049.0222052056</DistanceMeters>
          </Trackpoint>
          <Trackpoint>
            <Time>2022-09-24T14:03:43.000Z</Time>
            <Position>
              <LatitudeDegrees>43.2661907561123371124267578125</LatitudeDegrees>
              <LongitudeDegrees>-2.949014045298099517822265625</LongitudeDegrees>
            </Position>
            <DistanceMeters>2049.5250393139</DistanceMeters>
          </Trackpoint>
          <Trackpoint>
            <Time>2022-09-24T14:03:44.000Z</Time>
            <Position>
              <LatitudeDegrees>43.2661907561123371124267578125</LatitudeDegrees>
              <LongitudeDegrees>-2.949014045298099517822265625</LongitudeDegrees>
            </Position>
            <DistanceMeters>2049.5250393139</DistanceMeters>
          </Trackpoint>
          <Trackpoint>
            <Time>2022-09-24T14:03:45.000Z</Time>
            <Position>
              <LatitudeDegrees>43.26618681661784648895263671875</LatitudeDegrees>
              <LongitudeDegrees>-2.94901278801262378692626953125</LongitudeDegrees>
            </Position>
            <DistanceMeters>2049.9707541126</DistanceMeters>
          </Trackpoint>
          <Trackpoint>
            <Time>2022-09-24T14:03:46.000Z</Time>
            <Position>
              <LatitudeDegrees>43.266182877123355865478515625</LatitudeDegrees>
              <LongitudeDegrees>-2.94901161454617977142333984375</LongitudeDegrees>
            </Position>
            <DistanceMeters>2050.4164689113</DistanceMeters>
          </Trackpoint>
          <Trackpoint>
            <Time>2022-09-24T14:03:47.000Z</Time>
            <Position>
              <LatitudeDegrees>43.266182877123355865478515625</LatitudeDegrees>
              <LongitudeDegrees>-2.94901161454617977142333984375</LongitudeDegrees>
            </Position>
            <DistanceMeters>2050.4164689113</DistanceMeters>
          </Trackpoint>
          <Trackpoint>
            <Time>2022-09-24T14:03:48.000Z</Time>
            <Position>
              <LatitudeDegrees>43.266182877123355865478515625</LatitudeDegrees>
              <LongitudeDegrees>-2.94901161454617977142333984375</LongitudeDegrees>
            </Position>
            <DistanceMeters>2050.4164689113</DistanceMeters>
          </Trackpoint>
          <Trackpoint>
            <Time>2022-09-24T14:03:49.000Z</Time>
            <Position>
              <LatitudeDegrees>43.266182877123355865478515625</LatitudeDegrees>
              <LongitudeDegrees>-2.94901161454617977142333984375</LongitudeDegrees>
            </Position>
            <DistanceMeters>2050.4164689113</DistanceMeters>
          </Trackpoint>
          <Trackpoint>
            <Time>2022-09-24T14:03:50.000Z</Time>
            <Position>
              <LatitudeDegrees>43.26617927290499210357666015625</LatitudeDegrees>
              <LongitudeDegrees>-2.94901035726070404052734375</LongitudeDegrees>
            </Position>
            <DistanceMeters>2050.8306807561</DistanceMeters>
          </Trackpoint>
          <Trackpoint>
            <Time>2022-09-24T14:03:51.000Z</Time>
            <Position>
              <LatitudeDegrees>43.2661756686866283416748046875</LatitudeDegrees>
              <LongitudeDegrees>-2.94900901615619659423828125</LongitudeDegrees>
            </Position>
            <DistanceMeters>2051.244892601</DistanceMeters>
          </Trackpoint>
          <Trackpoint>
            <Time>2022-09-24T14:03:52.000Z</Time>
            <Position>
              <LatitudeDegrees>43.26617248356342315673828125</LatitudeDegrees>
              <LongitudeDegrees>-2.94900792650878429412841796875</LongitudeDegrees>
            </Position>
            <DistanceMeters>2051.6004500088</DistanceMeters>
          </Trackpoint>
          <Trackpoint>
            <Time>2022-09-24T14:03:53.000Z</Time>
            <Position>
              <LatitudeDegrees>43.2661692984402179718017578125</LatitudeDegrees>
              <LongitudeDegrees>-2.94900692068040370941162109375</LongitudeDegrees>
            </Position>
            <DistanceMeters>2051.9805568663</DistanceMeters>
          </Trackpoint>
          <Trackpoint>
            <Time>2022-09-24T14:03:54.000Z</Time>
            <Position>
              <LatitudeDegrees>43.26616619713604450225830078125</LatitudeDegrees>
              <LongitudeDegrees>-2.9490058310329914093017578125</LongitudeDegrees>
            </Position>
            <DistanceMeters>2052.336114274</DistanceMeters>
          </Trackpoint>
          <Trackpoint>
            <Time>2022-09-24T14:03:55.000Z</Time>
            <Position>
              <LatitudeDegrees>43.26616619713604450225830078125</LatitudeDegrees>
              <LongitudeDegrees>-2.9490058310329914093017578125</LongitudeDegrees>
            </Position>
            <DistanceMeters>2052.336114274</DistanceMeters>
          </Trackpoint>
          <Trackpoint>
            <Time>2022-09-24T14:03:56.000Z</Time>
            <Position>
              <LatitudeDegrees>43.26616619713604450225830078125</LatitudeDegrees>
              <LongitudeDegrees>-2.9490058310329914093017578125</LongitudeDegrees>
            </Position>
            <DistanceMeters>2052.336114274</DistanceMeters>
          </Trackpoint>
          <Trackpoint>
            <Time>2022-09-24T14:04:26.000Z</Time>
            <Position>
              <LatitudeDegrees>43.26614926569163799285888671875</LatitudeDegrees>
              <LongitudeDegrees>-2.94894305057823657989501953125</LongitudeDegrees>
            </Position>
            <DistanceMeters>2057.7617984896</DistanceMeters>
          </Trackpoint>
          <Trackpoint>
            <Time>2022-09-24T14:04:27.000Z</Time>
            <Position>
              <LatitudeDegrees>43.26614968478679656982421875</LatitudeDegrees>
              <LongitudeDegrees>-2.9489404521882534027099609375</LongitudeDegrees>
            </Position>
            <DistanceMeters>2057.9742846826</DistanceMeters>
          </Trackpoint>
          <Trackpoint>
            <Time>2022-09-24T14:04:28.000Z</Time>
            <Position>
              <LatitudeDegrees>43.26615035533905029296875</LatitudeDegrees>
              <LongitudeDegrees>-2.94893768616020679473876953125</LongitudeDegrees>
            </Position>
            <DistanceMeters>2058.2070516448</DistanceMeters>
          </Trackpoint>
          <Trackpoint>
            <Time>2022-09-24T14:04:29.000Z</Time>
            <Position>
              <LatitudeDegrees>43.2661511935293674468994140625</LatitudeDegrees>
              <LongitudeDegrees>-2.94893433339893817901611328125</LongitudeDegrees>
            </Position>
            <DistanceMeters>2058.5075525007</DistanceMeters>
          </Trackpoint>
          <Trackpoint>
            <Time>2022-09-24T14:04:30.000Z</Time>
            <Position>
              <LatitudeDegrees>43.26615245081484317779541015625</LatitudeDegrees>
              <LongitudeDegrees>-2.9489307291805744171142578125</LongitudeDegrees>
            </Position>
            <DistanceMeters>2058.8367346955</DistanceMeters>
          </Trackpoint>
          <Trackpoint>
            <Time>2022-09-24T14:04:31.000Z</Time>
            <Position>
              <LatitudeDegrees>43.26615395955741405487060546875</LatitudeDegrees>
              <LongitudeDegrees>-2.94892678968608379364013671875</LongitudeDegrees>
            </Position>
            <DistanceMeters>2059.1922921032</DistanceMeters>
          </Trackpoint>
          <Trackpoint>
            <Time>2022-09-24T14:04:32.000Z</Time>
            <Position>
              <LatitudeDegrees>43.26615563593804836273193359375</LatitudeDegrees>
              <LongitudeDegrees>-2.948922179639339447021484375</LongitudeDegrees>
            </Position>
            <DistanceMeters>2059.6065039481</DistanceMeters>
          </Trackpoint>
          <Trackpoint>
            <Time>2022-09-24T14:04:33.000Z</Time>
            <Position>
              <LatitudeDegrees>43.2661575637757778167724609375</LatitudeDegrees>
              <LongitudeDegrees>-2.9489169828593730926513671875</LongitudeDegrees>
            </Position>
            <DistanceMeters>2060.091047019</DistanceMeters>
          </Trackpoint>
          <Trackpoint>
            <Time>2022-09-24T14:04:34.000Z</Time>
            <Position>
              <LatitudeDegrees>43.26615982688963413238525390625</LatitudeDegrees>
              <LongitudeDegrees>-2.9489109478890895843505859375</LongitudeDegrees>
            </Position>
            <DistanceMeters>2060.6451432192</DistanceMeters>
          </Trackpoint>
          <Trackpoint>
            <Time>2022-09-24T14:04:35.000Z</Time>
            <Position>
              <LatitudeDegrees>43.26616250909864902496337890625</LatitudeDegrees>
              <LongitudeDegrees>-2.94890382327139377593994140625</LongitudeDegrees>
            </Position>
            <DistanceMeters>2061.2966135507</DistanceMeters>
          </Trackpoint>
          <Trackpoint>
            <Time>2022-09-24T14:04:36.000Z</Time>
            <Position>
              <LatitudeDegrees>43.26616569422185420989990234375</LatitudeDegrees>
              <LongitudeDegrees>-2.948895357549190521240234375</LongitudeDegrees>
            </Position>
            <DistanceMeters>2062.0686142277</DistanceMeters>
          </Trackpoint>
          <Trackpoint>
            <Time>2022-09-24T14:04:37.000Z</Time>
            <Position>
              <LatitudeDegrees>43.26616954989731311798095703125</LatitudeDegrees>
              <LongitudeDegrees>-2.9488851316273212432861328125</LongitudeDegrees>
            </Position>
            <DistanceMeters>2062.9996820763</DistanceMeters>
          </Trackpoint>
          <Trackpoint>
            <Time>2022-09-24T14:04:38.000Z</Time>
            <Position>
              <LatitudeDegrees>43.26617424376308917999267578125</LatitudeDegrees>
              <LongitudeDegrees>-2.94887247495353221893310546875</LongitudeDegrees>
            </Position>
            <DistanceMeters>2064.1557319514</DistanceMeters>
          </Trackpoint>
          <Trackpoint>
            <Time>2022-09-24T14:04:39.000Z</Time>
            <Position>
              <LatitudeDegrees>43.26617575250566005706787109375</LatitudeDegrees>
              <LongitudeDegrees>-2.94885990209877490997314453125</LongitudeDegrees>
            </Position>
            <DistanceMeters>2065.1879862904</DistanceMeters>
          </Trackpoint>
          <Trackpoint>
            <Time>2022-09-24T14:04:40.000Z</Time>
            <Position>
              <LatitudeDegrees>43.2661760039627552032470703125</LatitudeDegrees>
              <LongitudeDegrees>-2.94884766452014446258544921875</LongitudeDegrees>
            </Position>
            <DistanceMeters>2066.1755328746</DistanceMeters>
          </Trackpoint>
          <Trackpoint>
            <Time>2022-09-24T14:04:41.000Z</Time>
            <Position>
              <LatitudeDegrees>43.26617608778178691864013671875</LatitudeDegrees>
              <LongitudeDegrees>-2.94883509166538715362548828125</LongitudeDegrees>
            </Position>
            <DistanceMeters>2067.1901405399</DistanceMeters>
          </Trackpoint>
          <Trackpoint>
            <Time>2022-09-24T14:04:42.000Z</Time>
            <Position>
              <LatitudeDegrees>43.26617650687694549560546875</LatitudeDegrees>
              <LongitudeDegrees>-2.948821596801280975341796875</LongitudeDegrees>
            </Position>
            <DistanceMeters>2068.2901542869</DistanceMeters>
          </Trackpoint>
          <Trackpoint>
            <Time>2022-09-24T14:11:15.000Z</Time>
            <Position>
              <LatitudeDegrees>43.26713967137038707733154296875</LatitudeDegrees>
              <LongitudeDegrees>-2.9462014138698577880859375</LongitudeDegrees>
            </Position>
            <AltitudeMeters>-38.200000762939453125</AltitudeMeters>
            <DistanceMeters>2306.1728270747</DistanceMeters>
          </Trackpoint>
          <Trackpoint>
            <Time>2022-09-24T14:11:18.000Z</Time>
            <Position>
              <LatitudeDegrees>43.26709625311195850372314453125</LatitudeDegrees>
              <LongitudeDegrees>-2.94590176083147525787353515625</LongitudeDegrees>
            </Position>
            <AltitudeMeters>-37.799999237060546875</AltitudeMeters>
            <DistanceMeters>2330.9347175644</DistanceMeters>
          </Trackpoint>
          <Trackpoint>
            <Time>2022-09-24T14:11:19.000Z</Time>
            <Position>
              <LatitudeDegrees>43.26698142103850841522216796875</LatitudeDegrees>
              <LongitudeDegrees>-2.94584677554666996002197265625</LongitudeDegrees>
            </Position>
            <AltitudeMeters>-37.799999237060546875</AltitudeMeters>
            <DistanceMeters>2344.4699379503</DistanceMeters>
          </Trackpoint>
          <Trackpoint>
            <Time>2022-09-24T14:11:20.000Z</Time>
            <Position>
              <LatitudeDegrees>43.26695024035871028900146484375</LatitudeDegrees>
              <LongitudeDegrees>-2.9458136670291423797607421875</LongitudeDegrees>
            </Position>
            <AltitudeMeters>-37.799999237060546875</AltitudeMeters>
            <DistanceMeters>2348.8556035584</DistanceMeters>
          </Trackpoint>
          <Trackpoint>
            <Time>2022-09-24T14:11:21.000Z</Time>
            <Position>
              <LatitudeDegrees>43.26699047349393367767333984375</LatitudeDegrees>
              <LongitudeDegrees>-2.94587778858840465545654296875</LongitudeDegrees>
            </Position>
            <AltitudeMeters>-37.799999237060546875</AltitudeMeters>
            <DistanceMeters>2355.7159795266</DistanceMeters>
          </Trackpoint>
          <Trackpoint>
            <Time>2022-09-24T14:11:22.000Z</Time>
            <Position>
              <LatitudeDegrees>43.26702383346855640411376953125</LatitudeDegrees>
              <LongitudeDegrees>-2.94589907862246036529541015625</LongitudeDegrees>
            </Position>
            <AltitudeMeters>-37.799999237060546875</AltitudeMeters>
            <DistanceMeters>2359.8120608287</DistanceMeters>
          </Trackpoint>
          <Trackpoint>
            <Time>2022-09-24T14:11:23.000Z</Time>
            <Position>
              <LatitudeDegrees>43.267039172351360321044921875</LatitudeDegrees>
              <LongitudeDegrees>-2.94590494595468044281005859375</LongitudeDegrees>
            </Position>
            <AltitudeMeters>-37.799999237060546875</AltitudeMeters>
            <DistanceMeters>2361.5847611989</DistanceMeters>
          </Trackpoint>
          <Trackpoint>
            <Time>2022-09-24T14:11:24.000Z</Time>
            <Position>
              <LatitudeDegrees>43.26704830862581729888916015625</LatitudeDegrees>
              <LongitudeDegrees>-2.94589765369892120361328125</LongitudeDegrees>
            </Position>
            <AltitudeMeters>-37.799999237060546875</AltitudeMeters>
            <DistanceMeters>2362.7640117118</DistanceMeters>
          </Trackpoint>
          <Trackpoint>
            <Time>2022-09-24T14:11:25.000Z</Time>
            <Position>
              <LatitudeDegrees>43.26705761253833770751953125</LatitudeDegrees>
              <LongitudeDegrees>-2.94586873613297939300537109375</LongitudeDegrees>
            </Position>
            <AltitudeMeters>-37.799999237060546875</AltitudeMeters>
            <DistanceMeters>2365.327972642</DistanceMeters>
          </Trackpoint>
          <Trackpoint>
            <Time>2022-09-24T14:11:26.000Z</Time>
            <Position>
              <LatitudeDegrees>43.26705761253833770751953125</LatitudeDegrees>
              <LongitudeDegrees>-2.94586873613297939300537109375</LongitudeDegrees>
            </Position>
            <AltitudeMeters>-37.799999237060546875</AltitudeMeters>
            <DistanceMeters>2365.4229993563</DistanceMeters>
          </Trackpoint>
          <Trackpoint>
            <Time>2022-09-24T14:11:27.000Z</Time>
            <Position>
              <LatitudeDegrees>43.2670970074832439422607421875</LatitudeDegrees>
              <LongitudeDegrees>-2.9458280839025974273681640625</LongitudeDegrees>
            </Position>
            <AltitudeMeters>-37.799999237060546875</AltitudeMeters>
            <DistanceMeters>2370.9082718848</DistanceMeters>
          </Trackpoint>
          <Trackpoint>
            <Time>2022-09-24T14:11:28.000Z</Time>
            <Position>
              <LatitudeDegrees>43.26712005771696567535400390625</LatitudeDegrees>
              <LongitudeDegrees>-2.945822887122631072998046875</LongitudeDegrees>
            </Position>
            <AltitudeMeters>-37.59999847412109375</AltitudeMeters>
            <DistanceMeters>2373.5089501149</DistanceMeters>
          </Trackpoint>
          <Trackpoint>
            <Time>2022-09-24T14:11:29.000Z</Time>
            <Position>
              <LatitudeDegrees>43.2671439461410045623779296875</LatitudeDegrees>
              <LongitudeDegrees>-2.94581877999007701873779296875</LongitudeDegrees>
            </Position>
            <AltitudeMeters>-37.59999847412109375</AltitudeMeters>
            <DistanceMeters>2376.1899836561</DistanceMeters>
          </Trackpoint>
          <Trackpoint>
            <Time>2022-09-24T14:11:30.000Z</Time>
            <Position>
              <LatitudeDegrees>43.2671647332608699798583984375</LatitudeDegrees>
              <LongitudeDegrees>-2.9458163492381572723388671875</LongitudeDegrees>
            </Position>
            <AltitudeMeters>-37.40000152587890625</AltitudeMeters>
            <DistanceMeters>2378.509881404</DistanceMeters>
          </Trackpoint>
          <Trackpoint>
            <Time>2022-09-24T14:11:31.000Z</Time>
            <Position>
              <LatitudeDegrees>43.26717303134500980377197265625</LatitudeDegrees>
              <LongitudeDegrees>-2.9458151757717132568359375</LongitudeDegrees>
            </Position>
            <AltitudeMeters>-37.200000762939453125</AltitudeMeters>
            <DistanceMeters>2379.4360872462</DistanceMeters>
          </Trackpoint>
          <Trackpoint>
            <Time>2022-09-24T14:11:32.000Z</Time>
            <Position>
              <LatitudeDegrees>43.26717303134500980377197265625</LatitudeDegrees>
              <LongitudeDegrees>-2.9458151757717132568359375</LongitudeDegrees>
            </Position>
            <AltitudeMeters>-37</AltitudeMeters>
            <DistanceMeters>2379.4360872462</DistanceMeters>
          </Trackpoint>
          <Trackpoint>
            <Time>2022-09-24T14:11:33.000Z</Time>
            <Position>
              <LatitudeDegrees>43.267209492623805999755859375</LatitudeDegrees>
              <LongitudeDegrees>-2.94580469839274883270263671875</LongitudeDegrees>
            </Position>
            <AltitudeMeters>-37</AltitudeMeters>
            <DistanceMeters>2383.5814744987</DistanceMeters>
          </Trackpoint>
          <Trackpoint>
            <Time>2022-09-24T14:11:34.000Z</Time>
            <Position>
              <LatitudeDegrees>43.2672341354191303253173828125</LatitudeDegrees>
              <LongitudeDegrees>-2.94580243527889251708984375</LongitudeDegrees>
            </Position>
            <AltitudeMeters>-36.799999237060546875</AltitudeMeters>
            <DistanceMeters>2386.329045045</DistanceMeters>
          </Trackpoint>
          <Trackpoint>
            <Time>2022-09-24T14:11:35.000Z</Time>
            <Position>
              <LatitudeDegrees>43.26726271770894527435302734375</LatitudeDegrees>
              <LongitudeDegrees>-2.945843003690242767333984375</LongitudeDegrees>
            </Position>
            <AltitudeMeters>-36.799999237060546875</AltitudeMeters>
            <DistanceMeters>2390.9041644093</DistanceMeters>
          </Trackpoint>
          <Trackpoint>
            <Time>2022-09-24T14:11:36.000Z</Time>
            <Position>
              <LatitudeDegrees>43.2672985084354877471923828125</LatitudeDegrees>
              <LongitudeDegrees>-2.9458257369697093963623046875</LongitudeDegrees>
            </Position>
            <AltitudeMeters>-36.59999847412109375</AltitudeMeters>
            <DistanceMeters>2395.1261747006</DistanceMeters>
          </Trackpoint>
          <Trackpoint>
            <Time>2022-09-24T14:11:37.000Z</Time>
            <Position>
              <LatitudeDegrees>43.26733597554266452789306640625</LatitudeDegrees>
              <LongitudeDegrees>-2.94576027430593967437744140625</LongitudeDegrees>
            </Position>
            <AltitudeMeters>-36.59999847412109375</AltitudeMeters>
            <DistanceMeters>2401.8737405899</DistanceMeters>
          </Trackpoint>
          <Trackpoint>
            <Time>2022-09-24T14:11:38.000Z</Time>
            <Position>
              <LatitudeDegrees>43.267366401851177215576171875</LatitudeDegrees>
              <LongitudeDegrees>-2.9457083903253078460693359375</LongitudeDegrees>
            </Position>
            <AltitudeMeters>-36.59999847412109375</AltitudeMeters>
            <DistanceMeters>2407.2718936708</DistanceMeters>
          </Trackpoint>
          <Trackpoint>
            <Time>2022-09-24T14:11:39.000Z</Time>
            <Position>
              <LatitudeDegrees>43.26739582233130931854248046875</LatitudeDegrees>
              <LongitudeDegrees>-2.9456507228314876556396484375</LongitudeDegrees>
            </Position>
            <AltitudeMeters>-36.59999847412109375</AltitudeMeters>
            <DistanceMeters>2412.9782458907</DistanceMeters>
          </Trackpoint>
          <Trackpoint>
            <Time>2022-09-24T14:11:40.000Z</Time>
            <Position>
              <LatitudeDegrees>43.26739582233130931854248046875</LatitudeDegrees>
              <LongitudeDegrees>-2.9456507228314876556396484375</LongitudeDegrees>
            </Position>
            <AltitudeMeters>-36.59999847412109375</AltitudeMeters>
            <DistanceMeters>2412.9782458907</DistanceMeters>
          </Trackpoint>
          <Trackpoint>
            <Time>2022-09-24T14:11:41.000Z</Time>
            <Position>
              <LatitudeDegrees>43.26744896359741687774658203125</LatitudeDegrees>
              <LongitudeDegrees>-2.94553178362548351287841796875</LongitudeDegrees>
            </Position>
            <AltitudeMeters>-36.40000152587890625</AltitudeMeters>
            <DistanceMeters>2424.287622653</DistanceMeters>
          </Trackpoint>
          <Trackpoint>
            <Time>2022-09-24T14:11:42.000Z</Time>
            <Position>
              <LatitudeDegrees>43.26747008599340915679931640625</LatitudeDegrees>
              <LongitudeDegrees>-2.945481576025485992431640625</LongitudeDegrees>
            </Position>
            <AltitudeMeters>-36</AltitudeMeters>
            <DistanceMeters>2428.9873638142</DistanceMeters>
          </Trackpoint>
          <Trackpoint>
            <Time>2022-09-24T14:11:43.000Z</Time>
            <Position>
              <LatitudeDegrees>43.26748584397137165069580078125</LatitudeDegrees>
              <LongitudeDegrees>-2.94544176198542118072509765625</LongitudeDegrees>
            </Position>
            <AltitudeMeters>-35.59999847412109375</AltitudeMeters>
            <DistanceMeters>2432.660364523</DistanceMeters>
          </Trackpoint>
          <Trackpoint>
            <Time>2022-09-24T14:11:44.000Z</Time>
            <Position>
              <LatitudeDegrees>43.267491795122623443603515625</LatitudeDegrees>
              <LongitudeDegrees>-2.94540991075336933135986328125</LongitudeDegrees>
            </Position>
            <AltitudeMeters>-35.40000152587890625</AltitudeMeters>
            <DistanceMeters>2435.3245041749</DistanceMeters>
          </Trackpoint>
          <Trackpoint>
            <Time>2022-09-24T14:11:45.000Z</Time>
            <Position>
              <LatitudeDegrees>43.26749389059841632843017578125</LatitudeDegrees>
              <LongitudeDegrees>-2.9453806579113006591796875</LongitudeDegrees>
            </Position>
            <AltitudeMeters>-35</AltitudeMeters>
            <DistanceMeters>2437.7058668115</DistanceMeters>
          </Trackpoint>
          <Trackpoint>
            <Time>2022-09-24T14:11:46.000Z</Time>
            <Position>
              <LatitudeDegrees>43.26749506406486034393310546875</LatitudeDegrees>
              <LongitudeDegrees>-2.9453472979366779327392578125</LongitudeDegrees>
            </Position>
            <AltitudeMeters>-35</AltitudeMeters>
            <DistanceMeters>2440.4137113551</DistanceMeters>
          </Trackpoint>
          <Trackpoint>
            <Time>2022-09-24T14:11:47.000Z</Time>
            <Position>
              <LatitudeDegrees>43.267505876719951629638671875</LatitudeDegrees>
              <LongitudeDegrees>-2.94531485997140407562255859375</LongitudeDegrees>
            </Position>
            <AltitudeMeters>-34.799999237060546875</AltitudeMeters>
            <DistanceMeters>2443.3053978504</DistanceMeters>
          </Trackpoint>
          <Trackpoint>
            <Time>2022-09-24T14:11:48.000Z</Time>
            <Position>
              <LatitudeDegrees>43.2675177790224552154541015625</LatitudeDegrees>
              <LongitudeDegrees>-2.94528787024319171905517578125</LongitudeDegrees>
            </Position>
            <AltitudeMeters>-34.799999237060546875</AltitudeMeters>
            <DistanceMeters>2445.8623052296</DistanceMeters>
          </Trackpoint>
          <Trackpoint>
            <Time>2022-09-24T14:11:49.000Z</Time>
            <Position>
              <LatitudeDegrees>43.2675177790224552154541015625</LatitudeDegrees>
              <LongitudeDegrees>-2.94528787024319171905517578125</LongitudeDegrees>
            </Position>
            <AltitudeMeters>-34.59999847412109375</AltitudeMeters>
            <DistanceMeters>2445.8623052296</DistanceMeters>
          </Trackpoint>
          <Trackpoint>
            <Time>2022-09-24T14:11:50.000Z</Time>
            <Position>
              <LatitudeDegrees>43.26752808876335620880126953125</LatitudeDegrees>
              <LongitudeDegrees>-2.9452641494572162628173828125</LongitudeDegrees>
            </Position>
            <AltitudeMeters>-34.40000152587890625</AltitudeMeters>
            <DistanceMeters>2448.1009861864</DistanceMeters>
          </Trackpoint>
          <Trackpoint>
            <Time>2022-09-24T14:11:51.000Z</Time>
            <Position>
              <LatitudeDegrees>43.2675452716648578643798828125</LatitudeDegrees>
              <LongitudeDegrees>-2.94520388357341289520263671875</LongitudeDegrees>
            </Position>
            <AltitudeMeters>-34.200000762939453125</AltitudeMeters>
            <DistanceMeters>2453.3464263895</DistanceMeters>
          </Trackpoint>
          <Trackpoint>
            <Time>2022-09-24T14:11:52.000Z</Time>
            <Position>
              <LatitudeDegrees>43.2675580121576786041259765625</LatitudeDegrees>
              <LongitudeDegrees>-2.9451662488281726837158203125</LongitudeDegrees>
            </Position>
            <AltitudeMeters>-34.200000762939453125</AltitudeMeters>
            <DistanceMeters>2456.7088147829</DistanceMeters>
          </Trackpoint>
          <Trackpoint>
            <Time>2022-09-24T14:11:53.000Z</Time>
            <Position>
              <LatitudeDegrees>43.26757251285016536712646484375</LatitudeDegrees>
              <LongitudeDegrees>-2.94511847198009490966796875</LongitudeDegrees>
            </Position>
            <AltitudeMeters>-34.200000762939453125</AltitudeMeters>
            <DistanceMeters>2460.9040047654</DistanceMeters>
          </Trackpoint>
          <Trackpoint>
            <Time>2022-09-24T14:11:54.000Z</Time>
            <Position>
              <LatitudeDegrees>43.2675834931433200836181640625</LatitudeDegrees>
              <LongitudeDegrees>-2.945073209702968597412109375</LongitudeDegrees>
            </Position>
            <AltitudeMeters>-34</AltitudeMeters>
            <DistanceMeters>2464.7710199698</DistanceMeters>
          </Trackpoint>
          <Trackpoint>
            <Time>2022-09-24T14:11:55.000Z</Time>
            <Position>
              <LatitudeDegrees>43.26759313233196735382080078125</LatitudeDegrees>
              <LongitudeDegrees>-2.94502635486423969268798828125</LongitudeDegrees>
            </Position>
            <AltitudeMeters>-34</AltitudeMeters>
            <DistanceMeters>2468.7166316827</DistanceMeters>
          </Trackpoint>
          <Trackpoint>
            <Time>2022-09-24T14:11:56.000Z</Time>
            <Position>
              <LatitudeDegrees>43.26760654337704181671142578125</LatitudeDegrees>
              <LongitudeDegrees>-2.944973967969417572021484375</LongitudeDegrees>
            </Position>
            <AltitudeMeters>-34</AltitudeMeters>
            <DistanceMeters>2473.2171273736</DistanceMeters>
          </Trackpoint>
          <Trackpoint>
            <Time>2022-09-24T14:11:57.000Z</Time>
            <Position>
              <LatitudeDegrees>43.2676200382411479949951171875</LatitudeDegrees>
              <LongitudeDegrees>-2.9449181444942951202392578125</LongitudeDegrees>
            </Position>
            <AltitudeMeters>-34</AltitudeMeters>
            <DistanceMeters>2477.9845902638</DistanceMeters>
          </Trackpoint>
          <Trackpoint>
            <Time>2022-09-24T14:11:58.000Z</Time>
            <Position>
              <LatitudeDegrees>43.26763889752328395843505859375</LatitudeDegrees>
              <LongitudeDegrees>-2.9448577947914600372314453125</LongitudeDegrees>
            </Position>
            <AltitudeMeters>-34</AltitudeMeters>
            <DistanceMeters>2483.3069346537</DistanceMeters>
          </Trackpoint>
          <Trackpoint>
            <Time>2022-09-24T14:11:59.000Z</Time>
            <Position>
              <LatitudeDegrees>43.26765750534832477569580078125</LatitudeDegrees>
              <LongitudeDegrees>-2.94479392468929290771484375</LongitudeDegrees>
            </Position>
            <AltitudeMeters>-34.200000762939453125</AltitudeMeters>
            <DistanceMeters>2488.882015202</DistanceMeters>
          </Trackpoint>
          <Trackpoint>
            <Time>2022-09-24T14:12:00.000Z</Time>
            <Position>
              <LatitudeDegrees>43.2676778733730316162109375</LatitudeDegrees>
              <LongitudeDegrees>-2.94472460635006427764892578125</LongitudeDegrees>
            </Position>
            <AltitudeMeters>-34.59999847412109375</AltitudeMeters>
            <DistanceMeters>2494.9399216612</DistanceMeters>
          </Trackpoint>
          <Trackpoint>
            <Time>2022-09-24T14:12:01.000Z</Time>
            <Position>
              <LatitudeDegrees>43.26768969185650348663330078125</LatitudeDegrees>
              <LongitudeDegrees>-2.94464615173637866973876953125</LongitudeDegrees>
            </Position>
            <AltitudeMeters>-34.59999847412109375</AltitudeMeters>
            <DistanceMeters>2501.4331047725</DistanceMeters>
          </Trackpoint>
          <Trackpoint>
            <Time>2022-09-24T14:12:02.000Z</Time>
            <Position>
              <LatitudeDegrees>43.267684243619441986083984375</LatitudeDegrees>
              <LongitudeDegrees>-2.944564260542392730712890625</LongitudeDegrees>
            </Position>
            <AltitudeMeters>-35.200000762939453125</AltitudeMeters>
            <DistanceMeters>2508.097181299</DistanceMeters>
          </Trackpoint>
          <Trackpoint>
            <Time>2022-09-24T14:12:03.000Z</Time>
            <Position>
              <LatitudeDegrees>43.2676669768989086151123046875</LatitudeDegrees>
              <LongitudeDegrees>-2.9444848001003265380859375</LongitudeDegrees>
            </Position>
            <AltitudeMeters>-35.799999237060546875</AltitudeMeters>
            <DistanceMeters>2514.8172566183</DistanceMeters>
          </Trackpoint>
          <Trackpoint>
            <Time>2022-09-24T14:12:04.000Z</Time>
            <Position>
              <LatitudeDegrees>43.2676448486745357513427734375</LatitudeDegrees>
              <LongitudeDegrees>-2.9444055072963237762451171875</LongitudeDegrees>
            </Position>
            <AltitudeMeters>-35.799999237060546875</AltitudeMeters>
            <DistanceMeters>2521.6986606082</DistanceMeters>
          </Trackpoint>
          <Trackpoint>
            <Time>2022-09-24T14:12:05.000Z</Time>
            <Position>
              <LatitudeDegrees>43.26762087643146514892578125</LatitudeDegrees>
              <LongitudeDegrees>-2.94432646594941616058349609375</LongitudeDegrees>
            </Position>
            <AltitudeMeters>-35.799999237060546875</AltitudeMeters>
            <DistanceMeters>2528.6375630862</DistanceMeters>
          </Trackpoint>
          <Trackpoint>
            <Time>2022-09-24T14:12:06.000Z</Time>
            <Position>
              <LatitudeDegrees>43.267597742378711700439453125</LatitudeDegrees>
              <LongitudeDegrees>-2.94424767605960369110107421875</LongitudeDegrees>
            </Position>
            <AltitudeMeters>-36</AltitudeMeters>
            <DistanceMeters>2535.5229026806</DistanceMeters>
          </Trackpoint>
          <Trackpoint>
            <Time>2022-09-24T14:12:07.000Z</Time>
            <Position>
              <LatitudeDegrees>43.26757393777370452880859375</LatitudeDegrees>
              <LongitudeDegrees>-2.94416871853172779083251953125</LongitudeDegrees>
            </Position>
            <AltitudeMeters>-36</AltitudeMeters>
            <DistanceMeters>2542.4487792367</DistanceMeters>
          </Trackpoint>
          <Trackpoint>
            <Time>2022-09-24T14:12:08.000Z</Time>
            <Position>
              <LatitudeDegrees>43.2675499655306339263916015625</LatitudeDegrees>
              <LongitudeDegrees>-2.944090180099010467529296875</LongitudeDegrees>
            </Position>
            <AltitudeMeters>-36.200000762939453125</AltitudeMeters>
            <DistanceMeters>2549.3511471868</DistanceMeters>
          </Trackpoint>
          <Trackpoint>
            <Time>2022-09-24T14:12:09.000Z</Time>
            <Position>
              <LatitudeDegrees>43.267530016601085662841796875</LatitudeDegrees>
              <LongitudeDegrees>-2.94401398859918117523193359375</LongitudeDegrees>
            </Position>
            <AltitudeMeters>-35.799999237060546875</AltitudeMeters>
            <DistanceMeters>2555.9141849467</DistanceMeters>
          </Trackpoint>
          <Trackpoint>
            <Time>2022-09-24T14:12:10.000Z</Time>
            <Position>
              <LatitudeDegrees>43.26751534827053546905517578125</LatitudeDegrees>
              <LongitudeDegrees>-2.94393754564225673675537109375</LongitudeDegrees>
            </Position>
            <AltitudeMeters>-36.200000762939453125</AltitudeMeters>
            <DistanceMeters>2562.321269113</DistanceMeters>
          </Trackpoint>
          <Trackpoint>
            <Time>2022-09-24T14:12:11.000Z</Time>
            <Position>
              <LatitudeDegrees>43.26749590225517749786376953125</LatitudeDegrees>
              <LongitudeDegrees>-2.94386319816112518310546875</LongitudeDegrees>
            </Position>
            <AltitudeMeters>-36.59999847412109375</AltitudeMeters>
            <DistanceMeters>2568.7241237151</DistanceMeters>
          </Trackpoint>
          <Trackpoint>
            <Time>2022-09-24T14:12:12.000Z</Time>
            <Position>
              <LatitudeDegrees>43.26747578568756580352783203125</LatitudeDegrees>
              <LongitudeDegrees>-2.9437912814319133758544921875</LongitudeDegrees>
            </Position>
            <AltitudeMeters>-36.59999847412109375</AltitudeMeters>
            <DistanceMeters>2574.9684707654</DistanceMeters>
          </Trackpoint>
          <Trackpoint>
            <Time>2022-09-24T14:12:13.000Z</Time>
            <Position>
              <LatitudeDegrees>43.267460279166698455810546875</LatitudeDegrees>
              <LongitudeDegrees>-2.9437218792736530303955078125</LongitudeDegrees>
            </Position>
            <AltitudeMeters>-36.59999847412109375</AltitudeMeters>
            <DistanceMeters>2580.8524586211</DistanceMeters>
          </Trackpoint>
          <Trackpoint>
            <Time>2022-09-24T14:12:14.000Z</Time>
            <Position>
              <LatitudeDegrees>43.267460279166698455810546875</LatitudeDegrees>
              <LongitudeDegrees>-2.9437218792736530303955078125</LongitudeDegrees>
            </Position>
            <AltitudeMeters>-36.59999847412109375</AltitudeMeters>
            <DistanceMeters>2580.8524586211</DistanceMeters>
          </Trackpoint>
          <Trackpoint>
            <Time>2022-09-24T14:12:15.000Z</Time>
            <Position>
              <LatitudeDegrees>43.26743287034332752227783203125</LatitudeDegrees>
              <LongitudeDegrees>-2.943574525415897369384765625</LongitudeDegrees>
            </Position>
            <AltitudeMeters>-36.200000762939453125</AltitudeMeters>
            <DistanceMeters>2593.1781231506</DistanceMeters>
          </Trackpoint>
          <Trackpoint>
            <Time>2022-09-24T14:12:16.000Z</Time>
            <Position>
              <LatitudeDegrees>43.2674175314605236053466796875</LatitudeDegrees>
              <LongitudeDegrees>-2.94349481351673603057861328125</LongitudeDegrees>
            </Position>
            <AltitudeMeters>-36.200000762939453125</AltitudeMeters>
            <DistanceMeters>2599.8604676505</DistanceMeters>
          </Trackpoint>
          <Trackpoint>
            <Time>2022-09-24T14:12:17.000Z</Time>
            <Position>
              <LatitudeDegrees>43.2674016058444976806640625</LatitudeDegrees>
              <LongitudeDegrees>-2.94341216795146465301513671875</LongitudeDegrees>
            </Position>
            <AltitudeMeters>-36</AltitudeMeters>
            <DistanceMeters>2606.7889513501</DistanceMeters>
          </Trackpoint>
          <Trackpoint>
            <Time>2022-09-24T14:12:18.000Z</Time>
            <Position>
              <LatitudeDegrees>43.26738324947655200958251953125</LatitudeDegrees>
              <LongitudeDegrees>-2.94332784600555896759033203125</LongitudeDegrees>
            </Position>
            <AltitudeMeters>-35.799999237060546875</AltitudeMeters>
            <DistanceMeters>2613.9216542519</DistanceMeters>
          </Trackpoint>
          <Trackpoint>
            <Time>2022-09-24T14:12:19.000Z</Time>
            <Position>
              <LatitudeDegrees>43.26738324947655200958251953125</LatitudeDegrees>
              <LongitudeDegrees>-2.94332784600555896759033203125</LongitudeDegrees>
            </Position>
            <AltitudeMeters>-36</AltitudeMeters>
            <DistanceMeters>2613.9216542519</DistanceMeters>
          </Trackpoint>
          <Trackpoint>
            <Time>2022-09-24T14:12:20.000Z</Time>
            <Position>
              <LatitudeDegrees>43.26736011542379856109619140625</LatitudeDegrees>
              <LongitudeDegrees>-2.9431723617017269134521484375</LongitudeDegrees>
            </Position>
            <AltitudeMeters>-35.40000152587890625</AltitudeMeters>
            <DistanceMeters>2626.7833015172</DistanceMeters>
          </Trackpoint>
          <Trackpoint>
            <Time>2022-09-24T14:12:21.000Z</Time>
            <Position>
              <LatitudeDegrees>43.26735039241611957550048828125</LatitudeDegrees>
              <LongitudeDegrees>-2.9431053064763545989990234375</LongitudeDegrees>
            </Position>
            <AltitudeMeters>-35.40000152587890625</AltitudeMeters>
            <DistanceMeters>2632.3250783068</DistanceMeters>
          </Trackpoint>
          <Trackpoint>
            <Time>2022-09-24T14:12:22.000Z</Time>
            <Position>
              <LatitudeDegrees>43.26734192669391632080078125</LatitudeDegrees>
              <LongitudeDegrees>-2.9430444538593292236328125</LongitudeDegrees>
            </Position>
            <AltitudeMeters>-35.40000152587890625</AltitudeMeters>
            <DistanceMeters>2637.3462309067</DistanceMeters>
          </Trackpoint>
          <Trackpoint>
            <Time>2022-09-24T14:12:23.000Z</Time>
            <Position>
              <LatitudeDegrees>43.26733379624783992767333984375</LatitudeDegrees>
              <LongitudeDegrees>-2.94298745691776275634765625</LongitudeDegrees>
            </Position>
            <AltitudeMeters>-35</AltitudeMeters>
            <DistanceMeters>2642.0536513886</DistanceMeters>
          </Trackpoint>
          <Trackpoint>
            <Time>2022-09-24T14:12:24.000Z</Time>
            <Position>
              <LatitudeDegrees>43.26733379624783992767333984375</LatitudeDegrees>
              <LongitudeDegrees>-2.94298745691776275634765625</LongitudeDegrees>
            </Position>
            <AltitudeMeters>-34.40000152587890625</AltitudeMeters>
            <DistanceMeters>2642.0536513886</DistanceMeters>
          </Trackpoint>
          <Trackpoint>
            <Time>2022-09-24T14:12:25.000Z</Time>
            <Position>
              <LatitudeDegrees>43.26731150038540363311767578125</LatitudeDegrees>
              <LongitudeDegrees>-2.942905314266681671142578125</LongitudeDegrees>
            </Position>
            <AltitudeMeters>-33.799999237060546875</AltitudeMeters>
            <DistanceMeters>2649.1584474675</DistanceMeters>
          </Trackpoint>
          <Trackpoint>
            <Time>2022-09-24T14:12:26.000Z</Time>
            <Position>
              <LatitudeDegrees>43.26731150038540363311767578125</LatitudeDegrees>
              <LongitudeDegrees>-2.942905314266681671142578125</LongitudeDegrees>
            </Position>
            <AltitudeMeters>-33.59999847412109375</AltitudeMeters>
            <DistanceMeters>2649.1584474675</DistanceMeters>
          </Trackpoint>
          <Trackpoint>
            <Time>2022-09-24T14:12:27.000Z</Time>
            <Position>
              <LatitudeDegrees>43.2672911323606967926025390625</LatitudeDegrees>
              <LongitudeDegrees>-2.942814789712429046630859375</LongitudeDegrees>
            </Position>
            <AltitudeMeters>-33</AltitudeMeters>
            <DistanceMeters>2656.8374056767</DistanceMeters>
          </Trackpoint>
          <Trackpoint>
            <Time>2022-09-24T14:12:28.000Z</Time>
            <Position>
              <LatitudeDegrees>43.2672911323606967926025390625</LatitudeDegrees>
              <LongitudeDegrees>-2.942814789712429046630859375</LongitudeDegrees>
            </Position>
            <AltitudeMeters>-33</AltitudeMeters>
            <DistanceMeters>2656.8374056767</DistanceMeters>
          </Trackpoint>
          <Trackpoint>
            <Time>2022-09-24T14:12:29.000Z</Time>
            <Position>
              <LatitudeDegrees>43.26727495528757572174072265625</LatitudeDegrees>
              <LongitudeDegrees>-2.94275536201894283294677734375</LongitudeDegrees>
            </Position>
            <AltitudeMeters>-33</AltitudeMeters>
            <DistanceMeters>2661.9793959361</DistanceMeters>
          </Trackpoint>
          <Trackpoint>
            <Time>2022-09-24T14:12:30.000Z</Time>
            <Position>
              <LatitudeDegrees>43.26727495528757572174072265625</LatitudeDegrees>
              <LongitudeDegrees>-2.94275536201894283294677734375</LongitudeDegrees>
            </Position>
            <AltitudeMeters>-33</AltitudeMeters>
            <DistanceMeters>2661.9793959361</DistanceMeters>
          </Trackpoint>
          <Trackpoint>
            <Time>2022-09-24T14:12:31.000Z</Time>
            <Position>
              <LatitudeDegrees>43.2672244124114513397216796875</LatitudeDegrees>
              <LongitudeDegrees>-2.9427160508930683135986328125</LongitudeDegrees>
            </Position>
            <AltitudeMeters>-33</AltitudeMeters>
            <DistanceMeters>2668.4440068125</DistanceMeters>
          </Trackpoint>
          <Trackpoint>
            <Time>2022-09-24T14:12:32.000Z</Time>
            <Position>
              <LatitudeDegrees>43.26719331555068492889404296875</LatitudeDegrees>
              <LongitudeDegrees>-2.94271965511143207550048828125</LongitudeDegrees>
            </Position>
            <AltitudeMeters>-33</AltitudeMeters>
            <DistanceMeters>2671.917359966</DistanceMeters>
          </Trackpoint>
          <Trackpoint>
            <Time>2022-09-24T14:12:33.000Z</Time>
            <Position>
              <LatitudeDegrees>43.267151825129985809326171875</LatitudeDegrees>
              <LongitudeDegrees>-2.94274605810642242431640625</LongitudeDegrees>
            </Position>
            <AltitudeMeters>-33</AltitudeMeters>
            <DistanceMeters>2677.0072803306</DistanceMeters>
          </Trackpoint>
          <Trackpoint>
            <Time>2022-09-24T14:12:34.000Z</Time>
            <Position>
              <LatitudeDegrees>43.2671107538044452667236328125</LatitudeDegrees>
              <LongitudeDegrees>-2.94277128763496875762939453125</LongitudeDegrees>
            </Position>
            <AltitudeMeters>-33</AltitudeMeters>
            <DistanceMeters>2682.0149267123</DistanceMeters>
          </Trackpoint>
          <Trackpoint>
            <Time>2022-09-24T14:12:35.000Z</Time>
            <Position>
              <LatitudeDegrees>43.26707429252564907073974609375</LatitudeDegrees>
              <LongitudeDegrees>-2.942800037562847137451171875</LongitudeDegrees>
            </Position>
            <AltitudeMeters>-32.799999237060546875</AltitudeMeters>
            <DistanceMeters>2686.6944496983</DistanceMeters>
          </Trackpoint>
          <Trackpoint>
            <Time>2022-09-24T14:12:36.000Z</Time>
            <Position>
              <LatitudeDegrees>43.26703422702848911285400390625</LatitudeDegrees>
              <LongitudeDegrees>-2.9428266920149326324462890625</LongitudeDegrees>
            </Position>
            <AltitudeMeters>-32.59999847412109375</AltitudeMeters>
            <DistanceMeters>2691.6495256666</DistanceMeters>
          </Trackpoint>
          <Trackpoint>
            <Time>2022-09-24T14:12:37.000Z</Time>
            <Position>
              <LatitudeDegrees>43.2670004479587078094482421875</LatitudeDegrees>
              <LongitudeDegrees>-2.94284932315349578857421875</LongitudeDegrees>
            </Position>
            <AltitudeMeters>-32.59999847412109375</AltitudeMeters>
            <DistanceMeters>2695.8328602394</DistanceMeters>
          </Trackpoint>
          <Trackpoint>
            <Time>2022-09-24T14:12:38.000Z</Time>
            <Position>
              <LatitudeDegrees>43.2669563591480255126953125</LatitudeDegrees>
              <LongitudeDegrees>-2.942878492176532745361328125</LongitudeDegrees>
            </Position>
            <AltitudeMeters>-32</AltitudeMeters>
            <DistanceMeters>2701.2801376507</DistanceMeters>
          </Trackpoint>
          <Trackpoint>
            <Time>2022-09-24T14:12:39.000Z</Time>
            <Position>
              <LatitudeDegrees>43.26690481044352054595947265625</LatitudeDegrees>
              <LongitudeDegrees>-2.94291637837886810302734375</LongitudeDegrees>
            </Position>
            <AltitudeMeters>-32</AltitudeMeters>
            <DistanceMeters>2707.7879067402</DistanceMeters>
          </Trackpoint>
          <Trackpoint>
            <Time>2022-09-24T14:12:40.000Z</Time>
            <Position>
              <LatitudeDegrees>43.26686072163283824920654296875</LatitudeDegrees>
              <LongitudeDegrees>-2.94294931925833225250244140625</LongitudeDegrees>
            </Position>
            <AltitudeMeters>-31.799999237060546875</AltitudeMeters>
            <DistanceMeters>2713.3751219917</DistanceMeters>
          </Trackpoint>
          <Trackpoint>
            <Time>2022-09-24T14:12:41.000Z</Time>
            <Position>
              <LatitudeDegrees>43.26681545935571193695068359375</LatitudeDegrees>
              <LongitudeDegrees>-2.94298603199422359466552734375</LongitudeDegrees>
            </Position>
            <AltitudeMeters>-31.6000003814697265625</AltitudeMeters>
            <DistanceMeters>2719.2260210507</DistanceMeters>
          </Trackpoint>
          <Trackpoint>
            <Time>2022-09-24T14:12:42.000Z</Time>
            <Position>
              <LatitudeDegrees>43.2667791657149791717529296875</LatitudeDegrees>
              <LongitudeDegrees>-2.9430188052356243133544921875</LongitudeDegrees>
            </Position>
            <AltitudeMeters>-31.3999996185302734375</AltitudeMeters>
            <DistanceMeters>2724.0611909457</DistanceMeters>
          </Trackpoint>
          <Trackpoint>
            <Time>2022-09-24T14:12:43.000Z</Time>
            <Position>
              <LatitudeDegrees>43.26673516072332859039306640625</LatitudeDegrees>
              <LongitudeDegrees>-2.943056523799896240234375</LongitudeDegrees>
            </Position>
            <AltitudeMeters>-31.3999996185302734375</AltitudeMeters>
            <DistanceMeters>2729.8351880215</DistanceMeters>
          </Trackpoint>
          <Trackpoint>
            <Time>2022-09-24T14:12:44.000Z</Time>
            <Position>
              <LatitudeDegrees>43.26669308356940746307373046875</LatitudeDegrees>
              <LongitudeDegrees>-2.94310052879154682159423828125</LongitudeDegrees>
            </Position>
            <AltitudeMeters>-31.200000762939453125</AltitudeMeters>
            <DistanceMeters>2735.7222444499</DistanceMeters>
          </Trackpoint>
          <Trackpoint>
            <Time>2022-09-24T14:12:45.000Z</Time>
            <Position>
              <LatitudeDegrees>43.26665150932967662811279296875</LatitudeDegrees>
              <LongitudeDegrees>-2.943147383630275726318359375</LongitudeDegrees>
            </Position>
            <AltitudeMeters>-31.200000762939453125</AltitudeMeters>
            <DistanceMeters>2741.7081732275</DistanceMeters>
          </Trackpoint>
          <Trackpoint>
            <Time>2022-09-24T14:12:46.000Z</Time>
            <Position>
              <LatitudeDegrees>43.26660557650029659271240234375</LatitudeDegrees>
              <LongitudeDegrees>-2.94320630840957164764404296875</LongitudeDegrees>
            </Position>
            <AltitudeMeters>-31</AltitudeMeters>
            <DistanceMeters>2748.7041016381</DistanceMeters>
          </Trackpoint>
          <Trackpoint>
            <Time>2022-09-24T14:12:47.000Z</Time>
            <Position>
              <LatitudeDegrees>43.2665702886879444122314453125</LatitudeDegrees>
              <LongitudeDegrees>-2.9432590305805206298828125</LongitudeDegrees>
            </Position>
            <AltitudeMeters>-31</AltitudeMeters>
            <DistanceMeters>2754.5077371483</DistanceMeters>
          </Trackpoint>
          <Trackpoint>
            <Time>2022-09-24T14:12:48.000Z</Time>
            <Position>
              <LatitudeDegrees>43.2665360905230045318603515625</LatitudeDegrees>
              <LongitudeDegrees>-2.94331292621791362762451171875</LongitudeDegrees>
            </Position>
            <AltitudeMeters>-30.6000003814697265625</AltitudeMeters>
            <DistanceMeters>2760.3028087005</DistanceMeters>
          </Trackpoint>
          <Trackpoint>
            <Time>2022-09-24T14:12:49.000Z</Time>
            <Position>
              <LatitudeDegrees>43.266504742205142974853515625</LatitudeDegrees>
              <LongitudeDegrees>-2.9433705098927021026611328125</LongitudeDegrees>
            </Position>
            <AltitudeMeters>-30.6000003814697265625</AltitudeMeters>
            <DistanceMeters>2766.129736487</DistanceMeters>
          </Trackpoint>
          <Trackpoint>
            <Time>2022-09-24T14:12:50.000Z</Time>
            <Position>
              <LatitudeDegrees>43.26647582463920116424560546875</LatitudeDegrees>
              <LongitudeDegrees>-2.943431027233600616455078125</LongitudeDegrees>
            </Position>
            <AltitudeMeters>-30.6000003814697265625</AltitudeMeters>
            <DistanceMeters>2771.9952791944</DistanceMeters>
          </Trackpoint>
          <Trackpoint>
            <Time>2022-09-24T14:12:51.000Z</Time>
            <Position>
              <LatitudeDegrees>43.266451098024845123291015625</LatitudeDegrees>
              <LongitudeDegrees>-2.94349372386932373046875</LongitudeDegrees>
            </Position>
            <AltitudeMeters>-30.6000003814697265625</AltitudeMeters>
            <DistanceMeters>2777.7739661291</DistanceMeters>
          </Trackpoint>
          <Trackpoint>
            <Time>2022-09-24T14:12:52.000Z</Time>
            <Position>
              <LatitudeDegrees>43.26642804779112339019775390625</LatitudeDegrees>
              <LongitudeDegrees>-2.94355985708534717559814453125</LongitudeDegrees>
            </Position>
            <AltitudeMeters>-30.6000003814697265625</AltitudeMeters>
            <DistanceMeters>2783.7152259971</DistanceMeters>
          </Trackpoint>
          <Trackpoint>
            <Time>2022-09-24T14:12:53.000Z</Time>
            <Position>
              <LatitudeDegrees>43.266407512128353118896484375</LatitudeDegrees>
              <LongitudeDegrees>-2.943626157939434051513671875</LongitudeDegrees>
            </Position>
            <AltitudeMeters>-30.6000003814697265625</AltitudeMeters>
            <DistanceMeters>2789.5545383413</DistanceMeters>
          </Trackpoint>
          <Trackpoint>
            <Time>2022-09-24T14:12:54.000Z</Time>
            <Position>
              <LatitudeDegrees>43.26638949103653430938720703125</LatitudeDegrees>
              <LongitudeDegrees>-2.94369530864059925079345703125</LongitudeDegrees>
            </Position>
            <AltitudeMeters>-30</AltitudeMeters>
            <DistanceMeters>2795.5071864886</DistanceMeters>
          </Trackpoint>
          <Trackpoint>
            <Time>2022-09-24T14:12:55.000Z</Time>
            <Position>
              <LatitudeDegrees>43.26637188903987407684326171875</LatitudeDegrees>
              <LongitudeDegrees>-2.9437604360282421112060546875</LongitudeDegrees>
            </Position>
            <AltitudeMeters>-28.6000003814697265625</AltitudeMeters>
            <DistanceMeters>2801.1370682208</DistanceMeters>
          </Trackpoint>
          <Trackpoint>
            <Time>2022-09-24T14:12:56.000Z</Time>
            <Position>
              <LatitudeDegrees>43.26635646633803844451904296875</LatitudeDegrees>
              <LongitudeDegrees>-2.9438248090445995330810546875</LongitudeDegrees>
            </Position>
            <AltitudeMeters>-28.200000762939453125</AltitudeMeters>
            <DistanceMeters>2806.6289217624</DistanceMeters>
          </Trackpoint>
          <Trackpoint>
            <Time>2022-09-24T14:12:57.000Z</Time>
            <Position>
              <LatitudeDegrees>43.26634389348328113555908203125</LatitudeDegrees>
              <LongitudeDegrees>-2.94389002025127410888671875</LongitudeDegrees>
            </Position>
            <AltitudeMeters>-28.200000762939453125</AltitudeMeters>
            <DistanceMeters>2812.0960556577</DistanceMeters>
          </Trackpoint>
          <Trackpoint>
            <Time>2022-09-24T14:12:58.000Z</Time>
            <Position>
              <LatitudeDegrees>43.266333751380443572998046875</LatitudeDegrees>
              <LongitudeDegrees>-2.94396109879016876220703125</LongitudeDegrees>
            </Position>
            <AltitudeMeters>-28.200000762939453125</AltitudeMeters>
            <DistanceMeters>2817.9662150857</DistanceMeters>
          </Trackpoint>
          <Trackpoint>
            <Time>2022-09-24T14:12:59.000Z</Time>
            <Position>
              <LatitudeDegrees>43.26632629148662090301513671875</LatitudeDegrees>
              <LongitudeDegrees>-2.94403946958482265472412109375</LongitudeDegrees>
            </Position>
            <AltitudeMeters>-28.200000762939453125</AltitudeMeters>
            <DistanceMeters>2824.3718897076</DistanceMeters>
          </Trackpoint>
          <Trackpoint>
            <Time>2022-09-24T14:13:00.000Z</Time>
            <Position>
              <LatitudeDegrees>43.2663124613463878631591796875</LatitudeDegrees>
              <LongitudeDegrees>-2.9441104643046855926513671875</LongitudeDegrees>
            </Position>
            <AltitudeMeters>-28.200000762939453125</AltitudeMeters>
            <DistanceMeters>2830.3283291095</DistanceMeters>
          </Trackpoint>
          <Trackpoint>
            <Time>2022-09-24T14:13:01.000Z</Time>
            <Position>
              <LatitudeDegrees>43.26629611663520336151123046875</LatitudeDegrees>
              <LongitudeDegrees>-2.94418330304324626922607421875</LongitudeDegrees>
            </Position>
            <AltitudeMeters>-28.200000762939453125</AltitudeMeters>
            <DistanceMeters>2836.505796475</DistanceMeters>
          </Trackpoint>
          <Trackpoint>
            <Time>2022-09-24T14:13:02.000Z</Time>
            <Position>
              <LatitudeDegrees>43.26628270559012889862060546875</LatitudeDegrees>
              <LongitudeDegrees>-2.94426016509532928466796875</LongitudeDegrees>
            </Position>
            <AltitudeMeters>-28.200000762939453125</AltitudeMeters>
            <DistanceMeters>2842.9121759079</DistanceMeters>
          </Trackpoint>
          <Trackpoint>
            <Time>2022-09-24T14:13:03.000Z</Time>
            <Position>
              <LatitudeDegrees>43.2662688754498958587646484375</LatitudeDegrees>
              <LongitudeDegrees>-2.9443391226232051849365234375</LongitudeDegrees>
            </Position>
            <AltitudeMeters>-28.200000762939453125</AltitudeMeters>
            <DistanceMeters>2849.4944480671</DistanceMeters>
          </Trackpoint>
          <Trackpoint>
            <Time>2022-09-24T14:13:04.000Z</Time>
            <Position>
              <LatitudeDegrees>43.2662536203861236572265625</LatitudeDegrees>
              <LongitudeDegrees>-2.94441648758947849273681640625</LongitudeDegrees>
            </Position>
            <AltitudeMeters>-28.200000762939453125</AltitudeMeters>
            <DistanceMeters>2855.990411985</DistanceMeters>
          </Trackpoint>
          <Trackpoint>
            <Time>2022-09-24T14:13:05.000Z</Time>
            <Position>
              <LatitudeDegrees>43.26623341999948024749755859375</LatitudeDegrees>
              <LongitudeDegrees>-2.94449544511735439300537109375</LongitudeDegrees>
            </Position>
            <AltitudeMeters>-28.200000762939453125</AltitudeMeters>
            <DistanceMeters>2862.7733493636</DistanceMeters>
          </Trackpoint>
          <Trackpoint>
            <Time>2022-09-24T14:13:06.000Z</Time>
            <Position>
              <LatitudeDegrees>43.266213051974773406982421875</LatitudeDegrees>
              <LongitudeDegrees>-2.94457104988396167755126953125</LongitudeDegrees>
            </Position>
            <AltitudeMeters>-27.799999237060546875</AltitudeMeters>
            <DistanceMeters>2869.3074293621</DistanceMeters>
          </Trackpoint>
          <Trackpoint>
            <Time>2022-09-24T14:13:07.000Z</Time>
            <Position>
              <LatitudeDegrees>43.26619167812168598175048828125</LatitudeDegrees>
              <LongitudeDegrees>-2.944646738469600677490234375</LongitudeDegrees>
            </Position>
            <AltitudeMeters>-26.6000003814697265625</AltitudeMeters>
            <DistanceMeters>2875.8869571926</DistanceMeters>
          </Trackpoint>
          <Trackpoint>
            <Time>2022-09-24T14:13:08.000Z</Time>
            <Position>
              <LatitudeDegrees>43.26617256738245487213134765625</LatitudeDegrees>
              <LongitudeDegrees>-2.944724522531032562255859375</LongitudeDegrees>
            </Position>
            <AltitudeMeters>-26.3999996185302734375</AltitudeMeters>
            <DistanceMeters>2882.5408631737</DistanceMeters>
          </Trackpoint>
          <Trackpoint>
            <Time>2022-09-24T14:13:09.000Z</Time>
            <Position>
              <LatitudeDegrees>43.26615982688963413238525390625</LatitudeDegrees>
              <LongitudeDegrees>-2.94480624608695507049560546875</LongitudeDegrees>
            </Position>
            <AltitudeMeters>-26.3999996185302734375</AltitudeMeters>
            <DistanceMeters>2889.3151416215</DistanceMeters>
          </Trackpoint>
          <Trackpoint>
            <Time>2022-09-24T14:13:10.000Z</Time>
            <Position>
              <LatitudeDegrees>43.2661635987460613250732421875</LatitudeDegrees>
              <LongitudeDegrees>-2.94488914310932159423828125</LongitudeDegrees>
            </Position>
            <AltitudeMeters>-26.3999996185302734375</AltitudeMeters>
            <DistanceMeters>2896.0466290942</DistanceMeters>
          </Trackpoint>
          <Trackpoint>
            <Time>2022-09-24T14:13:11.000Z</Time>
            <Position>
              <LatitudeDegrees>43.26618363149464130401611328125</LatitudeDegrees>
              <LongitudeDegrees>-2.9449664242565631866455078125</LongitudeDegrees>
            </Position>
            <AltitudeMeters>-26.3999996185302734375</AltitudeMeters>
            <DistanceMeters>2902.6951044227</DistanceMeters>
          </Trackpoint>
          <Trackpoint>
            <Time>2022-09-24T14:13:12.000Z</Time>
            <Position>
              <LatitudeDegrees>43.2662160694599151611328125</LatitudeDegrees>
              <LongitudeDegrees>-2.94503205455839633941650390625</LongitudeDegrees>
            </Position>
            <AltitudeMeters>-27</AltitudeMeters>
            <DistanceMeters>2909.1232946662</DistanceMeters>
          </Trackpoint>
          <Trackpoint>
            <Time>2022-09-24T14:13:13.000Z</Time>
            <Position>
              <LatitudeDegrees>43.26625286601483821868896484375</LatitudeDegrees>
              <LongitudeDegrees>-2.94509408064186573028564453125</LongitudeDegrees>
            </Position>
            <AltitudeMeters>-27</AltitudeMeters>
            <DistanceMeters>2915.6074319198</DistanceMeters>
          </Trackpoint>
          <Trackpoint>
            <Time>2022-09-24T14:13:14.000Z</Time>
            <Position>
              <LatitudeDegrees>43.26628639362752437591552734375</LatitudeDegrees>
              <LongitudeDegrees>-2.94516138732433319091796875</LongitudeDegrees>
            </Position>
            <AltitudeMeters>-27</AltitudeMeters>
            <DistanceMeters>2922.2164015641</DistanceMeters>
          </Trackpoint>
          <Trackpoint>
            <Time>2022-09-24T14:13:15.000Z</Time>
            <Position>
              <LatitudeDegrees>43.26631858013570308685302734375</LatitudeDegrees>
              <LongitudeDegrees>-2.94522986747324466705322265625</LongitudeDegrees>
            </Position>
            <AltitudeMeters>-29.200000762939453125</AltitudeMeters>
            <DistanceMeters>2928.821954484</DistanceMeters>
          </Trackpoint>
          <Trackpoint>
            <Time>2022-09-24T14:13:16.000Z</Time>
            <Position>
              <LatitudeDegrees>43.266345150768756866455078125</LatitudeDegrees>
              <LongitudeDegrees>-2.94530748389661312103271484375</LongitudeDegrees>
            </Position>
            <AltitudeMeters>-29.200000762939453125</AltitudeMeters>
            <DistanceMeters>2935.7725594199</DistanceMeters>
          </Trackpoint>
          <Trackpoint>
            <Time>2022-09-24T14:13:17.000Z</Time>
            <Position>
              <LatitudeDegrees>43.26636685989797115325927734375</LatitudeDegrees>
              <LongitudeDegrees>-2.9453949071466922760009765625</LongitudeDegrees>
            </Position>
            <AltitudeMeters>-29.200000762939453125</AltitudeMeters>
            <DistanceMeters>2943.2585900377</DistanceMeters>
          </Trackpoint>
          <Trackpoint>
            <Time>2022-09-24T14:13:18.000Z</Time>
            <Position>
              <LatitudeDegrees>43.26638228259980678558349609375</LatitudeDegrees>
              <LongitudeDegrees>-2.94548417441546916961669921875</LongitudeDegrees>
            </Position>
            <AltitudeMeters>-27</AltitudeMeters>
            <DistanceMeters>2950.6943924871</DistanceMeters>
          </Trackpoint>
          <Trackpoint>
            <Time>2022-09-24T14:13:19.000Z</Time>
            <Position>
              <LatitudeDegrees>43.26638865284621715545654296875</LatitudeDegrees>
              <LongitudeDegrees>-2.94557402841746807098388671875</LongitudeDegrees>
            </Position>
            <AltitudeMeters>-26.799999237060546875</AltitudeMeters>
            <DistanceMeters>2958.010832411</DistanceMeters>
          </Trackpoint>
          <Trackpoint>
            <Time>2022-09-24T14:13:20.000Z</Time>
            <Position>
              <LatitudeDegrees>43.2663942687213420867919921875</LatitudeDegrees>
              <LongitudeDegrees>-2.9456678219139575958251953125</LongitudeDegrees>
            </Position>
            <AltitudeMeters>-26.6000003814697265625</AltitudeMeters>
            <DistanceMeters>2965.6378732823</DistanceMeters>
          </Trackpoint>
          <Trackpoint>
            <Time>2022-09-24T14:13:21.000Z</Time>
            <Position>
              <LatitudeDegrees>43.26641430146992206573486328125</LatitudeDegrees>
              <LongitudeDegrees>-2.9457534849643707275390625</LongitudeDegrees>
            </Position>
            <AltitudeMeters>-26.6000003814697265625</AltitudeMeters>
            <DistanceMeters>2972.9302062545</DistanceMeters>
          </Trackpoint>
          <Trackpoint>
            <Time>2022-09-24T14:13:22.000Z</Time>
            <Position>
              <LatitudeDegrees>43.26644606888294219970703125</LatitudeDegrees>
              <LongitudeDegrees>-2.945833615958690643310546875</LongitudeDegrees>
            </Position>
            <AltitudeMeters>-26.6000003814697265625</AltitudeMeters>
            <DistanceMeters>2980.3252142292</DistanceMeters>
          </Trackpoint>
          <Trackpoint>
            <Time>2022-09-24T14:13:23.000Z</Time>
            <Position>
              <LatitudeDegrees>43.26649476774036884307861328125</LatitudeDegrees>
              <LongitudeDegrees>-2.94589974917471408843994140625</LongitudeDegrees>
            </Position>
            <AltitudeMeters>-26.6000003814697265625</AltitudeMeters>
            <DistanceMeters>2987.9481101301</DistanceMeters>
          </Trackpoint>
          <Trackpoint>
            <Time>2022-09-24T14:13:24.000Z</Time>
            <Position>
              <LatitudeDegrees>43.26655109412968158721923828125</LatitudeDegrees>
              <LongitudeDegrees>-2.94594593346118927001953125</LongitudeDegrees>
            </Position>
            <AltitudeMeters>-26.6000003814697265625</AltitudeMeters>
            <DistanceMeters>2995.249724426</DistanceMeters>
          </Trackpoint>
          <Trackpoint>
            <Time>2022-09-24T14:13:25.000Z</Time>
            <Position>
              <LatitudeDegrees>43.2666098512709140777587890625</LatitudeDegrees>
              <LongitudeDegrees>-2.94598826207220554351806640625</LongitudeDegrees>
            </Position>
            <AltitudeMeters>-26.6000003814697265625</AltitudeMeters>
            <DistanceMeters>3002.6349571049</DistanceMeters>
          </Trackpoint>
          <Trackpoint>
            <Time>2022-09-24T14:13:26.000Z</Time>
            <Position>
              <LatitudeDegrees>43.26666944660246372222900390625</LatitudeDegrees>
              <LongitudeDegrees>-2.94602665118873119354248046875</LongitudeDegrees>
            </Position>
            <AltitudeMeters>-26.6000003814697265625</AltitudeMeters>
            <DistanceMeters>3009.9612641134</DistanceMeters>
          </Trackpoint>
          <Trackpoint>
            <Time>2022-09-24T14:13:27.000Z</Time>
            <Position>
              <LatitudeDegrees>43.266730047762393951416015625</LatitudeDegrees>
              <LongitudeDegrees>-2.94606017880141735076904296875</LongitudeDegrees>
            </Position>
            <AltitudeMeters>-26.799999237060546875</AltitudeMeters>
            <DistanceMeters>3017.2331364758</DistanceMeters>
          </Trackpoint>
          <Trackpoint>
            <Time>2022-09-24T14:13:28.000Z</Time>
            <Position>
              <LatitudeDegrees>43.266790397465229034423828125</LatitudeDegrees>
              <LongitudeDegrees>-2.9460956342518329620361328125</LongitudeDegrees>
            </Position>
            <AltitudeMeters>-26.799999237060546875</AltitudeMeters>
            <DistanceMeters>3024.5390780209</DistanceMeters>
          </Trackpoint>
          <Trackpoint>
            <Time>2022-09-24T14:13:29.000Z</Time>
            <Position>
              <LatitudeDegrees>43.26685099862515926361083984375</LatitudeDegrees>
              <LongitudeDegrees>-2.94613209553062915802001953125</LongitudeDegrees>
            </Position>
            <AltitudeMeters>-26.799999237060546875</AltitudeMeters>
            <DistanceMeters>3031.9034951141</DistanceMeters>
          </Trackpoint>
          <Trackpoint>
            <Time>2022-09-24T14:13:30.000Z</Time>
            <Position>
              <LatitudeDegrees>43.26691118068993091583251953125</LatitudeDegrees>
              <LongitudeDegrees>-2.94616780243813991546630859375</LongitudeDegrees>
            </Position>
            <AltitudeMeters>-26.799999237060546875</AltitudeMeters>
            <DistanceMeters>3039.2001608398</DistanceMeters>
          </Trackpoint>
          <Trackpoint>
            <Time>2022-09-24T14:13:31.000Z</Time>
            <Position>
              <LatitudeDegrees>43.2669706083834171295166015625</LatitudeDegrees>
              <LongitudeDegrees>-2.9462067782878875732421875</LongitudeDegrees>
            </Position>
            <AltitudeMeters>-26.799999237060546875</AltitudeMeters>
            <DistanceMeters>3046.5301645807</DistanceMeters>
          </Trackpoint>
          <Trackpoint>
            <Time>2022-09-24T14:13:32.000Z</Time>
            <Position>
              <LatitudeDegrees>43.26703120954334735870361328125</LatitudeDegrees>
              <LongitudeDegrees>-2.9462441615760326385498046875</LongitudeDegrees>
            </Position>
            <AltitudeMeters>-26.799999237060546875</AltitudeMeters>
            <DistanceMeters>3053.9239513502</DistanceMeters>
          </Trackpoint>
          <Trackpoint>
            <Time>2022-09-24T14:13:33.000Z</Time>
            <Position>
              <LatitudeDegrees>43.26709088869392871856689453125</LatitudeDegrees>
              <LongitudeDegrees>-2.94628389179706573486328125</LongitudeDegrees>
            </Position>
            <AltitudeMeters>-26.799999237060546875</AltitudeMeters>
            <DistanceMeters>3061.3055149557</DistanceMeters>
          </Trackpoint>
          <Trackpoint>
            <Time>2022-09-24T14:13:34.000Z</Time>
            <Position>
              <LatitudeDegrees>43.2671489752829074859619140625</LatitudeDegrees>
              <LongitudeDegrees>-2.94632278382778167724609375</LongitudeDegrees>
            </Position>
            <AltitudeMeters>-27</AltitudeMeters>
            <DistanceMeters>3068.4981019693</DistanceMeters>
          </Trackpoint>
          <Trackpoint>
            <Time>2022-09-24T14:13:35.000Z</Time>
            <Position>
              <LatitudeDegrees>43.26720739714801311492919921875</LatitudeDegrees>
              <LongitudeDegrees>-2.946361340582370758056640625</LongitudeDegrees>
            </Position>
            <AltitudeMeters>-27</AltitudeMeters>
            <DistanceMeters>3075.7120003984</DistanceMeters>
          </Trackpoint>
          <Trackpoint>
            <Time>2022-09-24T14:13:36.000Z</Time>
            <Position>
              <LatitudeDegrees>43.26726690866053104400634765625</LatitudeDegrees>
              <LongitudeDegrees>-2.94639830477535724639892578125</LongitudeDegrees>
            </Position>
            <AltitudeMeters>-27</AltitudeMeters>
            <DistanceMeters>3082.9813887737</DistanceMeters>
          </Trackpoint>
          <Trackpoint>
            <Time>2022-09-24T14:13:37.000Z</Time>
            <Position>
              <LatitudeDegrees>43.2673238217830657958984375</LatitudeDegrees>
              <LongitudeDegrees>-2.9464399628341197967529296875</LongitudeDegrees>
            </Position>
            <AltitudeMeters>-27</AltitudeMeters>
            <DistanceMeters>3090.1582652556</DistanceMeters>
          </Trackpoint>
          <Trackpoint>
            <Time>2022-09-24T14:13:38.000Z</Time>
            <Position>
              <LatitudeDegrees>43.2673779688775539398193359375</LatitudeDegrees>
              <LongitudeDegrees>-2.94648908078670501708984375</LongitudeDegrees>
            </Position>
            <AltitudeMeters>-27.799999237060546875</AltitudeMeters>
            <DistanceMeters>3097.3802955477</DistanceMeters>
          </Trackpoint>
          <Trackpoint>
            <Time>2022-09-24T14:13:39.000Z</Time>
            <Position>
              <LatitudeDegrees>43.2673779688775539398193359375</LatitudeDegrees>
              <LongitudeDegrees>-2.94648908078670501708984375</LongitudeDegrees>
            </Position>
            <AltitudeMeters>-27.799999237060546875</AltitudeMeters>
            <DistanceMeters>3097.3802955477</DistanceMeters>
          </Trackpoint>
          <Trackpoint>
            <Time>2022-09-24T14:13:40.000Z</Time>
            <Position>
              <LatitudeDegrees>43.2674788869917392730712890625</LatitudeDegrees>
              <LongitudeDegrees>-2.94660517014563083648681640625</LongitudeDegrees>
            </Position>
            <AltitudeMeters>-27.799999237060546875</AltitudeMeters>
            <DistanceMeters>3112.0322932742</DistanceMeters>
          </Trackpoint>
          <Trackpoint>
            <Time>2022-09-24T14:13:41.000Z</Time>
            <Position>
              <LatitudeDegrees>43.26752658002078533172607421875</LatitudeDegrees>
              <LongitudeDegrees>-2.94666836969554424285888671875</LongitudeDegrees>
            </Position>
            <AltitudeMeters>-27.799999237060546875</AltitudeMeters>
            <DistanceMeters>3119.4089619432</DistanceMeters>
          </Trackpoint>
          <Trackpoint>
            <Time>2022-09-24T14:13:42.000Z</Time>
            <Position>
              <LatitudeDegrees>43.26757259666919708251953125</LatitudeDegrees>
              <LongitudeDegrees>-2.94673425145447254180908203125</LongitudeDegrees>
            </Position>
            <AltitudeMeters>-27.799999237060546875</AltitudeMeters>
            <DistanceMeters>3126.8076323239</DistanceMeters>
          </Trackpoint>
          <Trackpoint>
            <Time>2022-09-24T14:13:43.000Z</Time>
            <Position>
              <LatitudeDegrees>43.26761492528021335601806640625</LatitudeDegrees>
              <LongitudeDegrees>-2.94680633582174777984619140625</LongitudeDegrees>
            </Position>
            <AltitudeMeters>-28.3999996185302734375</AltitudeMeters>
            <DistanceMeters>3134.3117349821</DistanceMeters>
          </Trackpoint>
          <Trackpoint>
            <Time>2022-09-24T14:13:44.000Z</Time>
            <Position>
              <LatitudeDegrees>43.26765063218772411346435546875</LatitudeDegrees>
              <LongitudeDegrees>-2.9468838684260845184326171875</LongitudeDegrees>
            </Position>
            <AltitudeMeters>-28.6000003814697265625</AltitudeMeters>
            <DistanceMeters>3141.7469302042</DistanceMeters>
          </Trackpoint>
          <Trackpoint>
            <Time>2022-09-24T14:13:45.000Z</Time>
            <Position>
              <LatitudeDegrees>43.267682902514934539794921875</LatitudeDegrees>
              <LongitudeDegrees>-2.94696383178234100341796875</LongitudeDegrees>
            </Position>
            <AltitudeMeters>-28.6000003814697265625</AltitudeMeters>
            <DistanceMeters>3149.156576942</DistanceMeters>
          </Trackpoint>
          <Trackpoint>
            <Time>2022-09-24T14:13:46.000Z</Time>
            <Position>
              <LatitudeDegrees>43.267714083194732666015625</LatitudeDegrees>
              <LongitudeDegrees>-2.94704488478600978851318359375</LongitudeDegrees>
            </Position>
            <AltitudeMeters>-28.6000003814697265625</AltitudeMeters>
            <DistanceMeters>3156.5856971608</DistanceMeters>
          </Trackpoint>
          <Trackpoint>
            <Time>2022-09-24T14:13:47.000Z</Time>
            <Position>
              <LatitudeDegrees>43.26774216257035732269287109375</LatitudeDegrees>
              <LongitudeDegrees>-2.94713071547448635101318359375</LongitudeDegrees>
            </Position>
            <AltitudeMeters>-28.6000003814697265625</AltitudeMeters>
            <DistanceMeters>3164.2115539847</DistanceMeters>
          </Trackpoint>
          <Trackpoint>
            <Time>2022-09-24T14:13:48.000Z</Time>
            <Position>
              <LatitudeDegrees>43.26776512898504734039306640625</LatitudeDegrees>
              <LongitudeDegrees>-2.9472219944000244140625</LongitudeDegrees>
            </Position>
            <AltitudeMeters>-28.3999996185302734375</AltitudeMeters>
            <DistanceMeters>3172.038433222</DistanceMeters>
          </Trackpoint>
          <Trackpoint>
            <Time>2022-09-24T14:13:49.000Z</Time>
            <Position>
              <LatitudeDegrees>43.26778608374297618865966796875</LatitudeDegrees>
              <LongitudeDegrees>-2.94731612317264080047607421875</LongitudeDegrees>
            </Position>
            <AltitudeMeters>-28.3999996185302734375</AltitudeMeters>
            <DistanceMeters>3180.0155848879</DistanceMeters>
          </Trackpoint>
          <Trackpoint>
            <Time>2022-09-24T14:13:50.000Z</Time>
            <Position>
              <LatitudeDegrees>43.2678044401109218597412109375</LatitudeDegrees>
              <LongitudeDegrees>-2.94741041958332061767578125</LongitudeDegrees>
            </Position>
            <AltitudeMeters>-28.200000762939453125</AltitudeMeters>
            <DistanceMeters>3187.9262378165</DistanceMeters>
          </Trackpoint>
          <Trackpoint>
            <Time>2022-09-24T14:13:51.000Z</Time>
            <Position>
              <LatitudeDegrees>43.26781910844147205352783203125</LatitudeDegrees>
              <LongitudeDegrees>-2.94750337488949298858642578125</LongitudeDegrees>
            </Position>
            <AltitudeMeters>-28.200000762939453125</AltitudeMeters>
            <DistanceMeters>3195.6345387318</DistanceMeters>
          </Trackpoint>
          <Trackpoint>
            <Time>2022-09-24T14:13:52.000Z</Time>
            <Position>
              <LatitudeDegrees>43.2678280770778656005859375</LatitudeDegrees>
              <LongitudeDegrees>-2.94759683310985565185546875</LongitudeDegrees>
            </Position>
            <AltitudeMeters>-28.200000762939453125</AltitudeMeters>
            <DistanceMeters>3203.2740010203</DistanceMeters>
          </Trackpoint>
          <Trackpoint>
            <Time>2022-09-24T14:13:53.000Z</Time>
            <Position>
              <LatitudeDegrees>43.2678326033055782318115234375</LatitudeDegrees>
              <LongitudeDegrees>-2.947688363492488861083984375</LongitudeDegrees>
            </Position>
            <AltitudeMeters>-28.200000762939453125</AltitudeMeters>
            <DistanceMeters>3210.7091962424</DistanceMeters>
          </Trackpoint>
          <Trackpoint>
            <Time>2022-09-24T14:13:54.000Z</Time>
            <Position>
              <LatitudeDegrees>43.26783034019172191619873046875</LatitudeDegrees>
              <LongitudeDegrees>-2.94779154472053050994873046875</LongitudeDegrees>
            </Position>
            <AltitudeMeters>-28.200000762939453125</AltitudeMeters>
            <DistanceMeters>3219.0753257248</DistanceMeters>
          </Trackpoint>
          <Trackpoint>
            <Time>2022-09-24T14:13:55.000Z</Time>
            <Position>
              <LatitudeDegrees>43.2678232155740261077880859375</LatitudeDegrees>
              <LongitudeDegrees>-2.94789833016693592071533203125</LongitudeDegrees>
            </Position>
            <AltitudeMeters>-28.3999996185302734375</AltitudeMeters>
            <DistanceMeters>3227.7659850426</DistanceMeters>
          </Trackpoint>
          <Trackpoint>
            <Time>2022-09-24T14:13:56.000Z</Time>
            <Position>
              <LatitudeDegrees>43.26780988834798336029052734375</LatitudeDegrees>
              <LongitudeDegrees>-2.9480053670704364776611328125</LongitudeDegrees>
            </Position>
            <AltitudeMeters>-28.799999237060546875</AltitudeMeters>
            <DistanceMeters>3236.5666080694</DistanceMeters>
          </Trackpoint>
          <Trackpoint>
            <Time>2022-09-24T14:13:57.000Z</Time>
            <Position>
              <LatitudeDegrees>43.26779186725616455078125</LatitudeDegrees>
              <LongitudeDegrees>-2.94811609201133251190185546875</LongitudeDegrees>
            </Position>
            <AltitudeMeters>-30</AltitudeMeters>
            <DistanceMeters>3245.7621306658</DistanceMeters>
          </Trackpoint>
          <Trackpoint>
            <Time>2022-09-24T14:13:58.000Z</Time>
            <Position>
              <LatitudeDegrees>43.2677725888788700103759765625</LatitudeDegrees>
              <LongitudeDegrees>-2.948228158056735992431640625</LongitudeDegrees>
            </Position>
            <AltitudeMeters>-30.200000762939453125</AltitudeMeters>
            <DistanceMeters>3255.0946055413</DistanceMeters>
          </Trackpoint>
          <Trackpoint>
            <Time>2022-09-24T14:13:59.000Z</Time>
            <Position>
              <LatitudeDegrees>43.26774752698838710784912109375</LatitudeDegrees>
              <LongitudeDegrees>-2.9483406431972980499267578125</LongitudeDegrees>
            </Position>
            <AltitudeMeters>-31</AltitudeMeters>
            <DistanceMeters>3264.6281106369</DistanceMeters>
          </Trackpoint>
          <Trackpoint>
            <Time>2022-09-24T14:14:00.000Z</Time>
            <Position>
              <LatitudeDegrees>43.26771953143179416656494140625</LatitudeDegrees>
              <LongitudeDegrees>-2.94845455326139926910400390625</LongitudeDegrees>
            </Position>
            <AltitudeMeters>-31.3999996185302734375</AltitudeMeters>
            <DistanceMeters>3274.371940671</DistanceMeters>
          </Trackpoint>
          <Trackpoint>
            <Time>2022-09-24T14:14:01.000Z</Time>
            <Position>
              <LatitudeDegrees>43.2676912844181060791015625</LatitudeDegrees>
              <LongitudeDegrees>-2.94857340864837169647216796875</LongitudeDegrees>
            </Position>
            <AltitudeMeters>-31.799999237060546875</AltitudeMeters>
            <DistanceMeters>3284.5055495701</DistanceMeters>
          </Trackpoint>
          <Trackpoint>
            <Time>2022-09-24T14:14:02.000Z</Time>
            <Position>
              <LatitudeDegrees>43.2676599361002445220947265625</LatitudeDegrees>
              <LongitudeDegrees>-2.9486987181007862091064453125</LongitudeDegrees>
            </Position>
            <AltitudeMeters>-31.799999237060546875</AltitudeMeters>
            <DistanceMeters>3295.2439887579</DistanceMeters>
          </Trackpoint>
          <Trackpoint>
            <Time>2022-09-24T14:14:03.000Z</Time>
            <Position>
              <LatitudeDegrees>43.2676280848681926727294921875</LatitudeDegrees>
              <LongitudeDegrees>-2.94882738031446933746337890625</LongitudeDegrees>
            </Position>
            <AltitudeMeters>-32.59999847412109375</AltitudeMeters>
            <DistanceMeters>3306.2576628438</DistanceMeters>
          </Trackpoint>
          <Trackpoint>
            <Time>2022-09-24T14:14:04.000Z</Time>
            <Position>
              <LatitudeDegrees>43.26759430579841136932373046875</LatitudeDegrees>
              <LongitudeDegrees>-2.94895931147038936614990234375</LongitudeDegrees>
            </Position>
            <AltitudeMeters>-34.200000762939453125</AltitudeMeters>
            <DistanceMeters>3317.5917648149</DistanceMeters>
          </Trackpoint>
          <Trackpoint>
            <Time>2022-09-24T14:14:05.000Z</Time>
            <Position>
              <LatitudeDegrees>43.26756362803280353546142578125</LatitudeDegrees>
              <LongitudeDegrees>-2.94909543357789516448974609375</LongitudeDegrees>
            </Position>
            <AltitudeMeters>-34.40000152587890625</AltitudeMeters>
            <DistanceMeters>3329.1405409006</DistanceMeters>
          </Trackpoint>
          <Trackpoint>
            <Time>2022-09-24T14:14:06.000Z</Time>
            <Position>
              <LatitudeDegrees>43.2675358839333057403564453125</LatitudeDegrees>
              <LongitudeDegrees>-2.94923088513314723968505859375</LongitudeDegrees>
            </Position>
            <AltitudeMeters>-34.59999847412109375</AltitudeMeters>
            <DistanceMeters>3340.5445384868</DistanceMeters>
          </Trackpoint>
          <Trackpoint>
            <Time>2022-09-24T14:14:07.000Z</Time>
            <Position>
              <LatitudeDegrees>43.26751233078539371490478515625</LatitudeDegrees>
              <LongitudeDegrees>-2.949371449649333953857421875</LongitudeDegrees>
            </Position>
            <AltitudeMeters>-35.59999847412109375</AltitudeMeters>
            <DistanceMeters>3352.234755632</DistanceMeters>
          </Trackpoint>
          <Trackpoint>
            <Time>2022-09-24T14:14:08.000Z</Time>
            <Position>
              <LatitudeDegrees>43.26749204657971858978271484375</LatitudeDegrees>
              <LongitudeDegrees>-2.949514947831630706787109375</LongitudeDegrees>
            </Position>
            <AltitudeMeters>-36</AltitudeMeters>
            <DistanceMeters>3364.0815040506</DistanceMeters>
          </Trackpoint>
          <Trackpoint>
            <Time>2022-09-24T14:14:09.000Z</Time>
            <Position>
              <LatitudeDegrees>43.2674740254878997802734375</LatitudeDegrees>
              <LongitudeDegrees>-2.94965542852878570556640625</LongitudeDegrees>
            </Position>
            <AltitudeMeters>-36</AltitudeMeters>
            <DistanceMeters>3375.6420028015</DistanceMeters>
          </Trackpoint>
          <Trackpoint>
            <Time>2022-09-24T14:14:10.000Z</Time>
            <Position>
              <LatitudeDegrees>43.2674597762525081634521484375</LatitudeDegrees>
              <LongitudeDegrees>-2.9497974179685115814208984375</LongitudeDegrees>
            </Position>
            <AltitudeMeters>-36</AltitudeMeters>
            <DistanceMeters>3387.2582169999</DistanceMeters>
          </Trackpoint>
          <Trackpoint>
            <Time>2022-09-24T14:14:11.000Z</Time>
            <Position>
              <LatitudeDegrees>43.2674597762525081634521484375</LatitudeDegrees>
              <LongitudeDegrees>-2.9497974179685115814208984375</LongitudeDegrees>
            </Position>
            <AltitudeMeters>-37</AltitudeMeters>
            <DistanceMeters>3387.2582169999</DistanceMeters>
          </Trackpoint>
          <Trackpoint>
            <Time>2022-09-24T14:14:12.000Z</Time>
            <Position>
              <LatitudeDegrees>43.2674430124461650848388671875</LatitudeDegrees>
              <LongitudeDegrees>-2.950062118470668792724609375</LongitudeDegrees>
            </Position>
            <AltitudeMeters>-36</AltitudeMeters>
            <DistanceMeters>3408.7922014326</DistanceMeters>
          </Trackpoint>
          <Trackpoint>
            <Time>2022-09-24T14:14:13.000Z</Time>
            <Position>
              <LatitudeDegrees>43.2674399949610233306884765625</LatitudeDegrees>
              <LongitudeDegrees>-2.9501910321414470672607421875</LongitudeDegrees>
            </Position>
            <AltitudeMeters>-36</AltitudeMeters>
            <DistanceMeters>3419.2451400133</DistanceMeters>
          </Trackpoint>
          <Trackpoint>
            <Time>2022-09-24T14:14:14.000Z</Time>
            <Position>
              <LatitudeDegrees>43.26743504963815212249755859375</LatitudeDegrees>
              <LongitudeDegrees>-2.95031734742224216461181640625</LongitudeDegrees>
            </Position>
            <AltitudeMeters>-36.200000762939453125</AltitudeMeters>
            <DistanceMeters>3429.4974612045</DistanceMeters>
          </Trackpoint>
          <Trackpoint>
            <Time>2022-09-24T14:14:15.000Z</Time>
            <Position>
              <LatitudeDegrees>43.26743236742913722991943359375</LatitudeDegrees>
              <LongitudeDegrees>-2.9504428245127201080322265625</LongitudeDegrees>
            </Position>
            <AltitudeMeters>-36.200000762939453125</AltitudeMeters>
            <DistanceMeters>3439.6710906553</DistanceMeters>
          </Trackpoint>
          <Trackpoint>
            <Time>2022-09-24T14:14:16.000Z</Time>
            <Position>
              <LatitudeDegrees>43.26743236742913722991943359375</LatitudeDegrees>
              <LongitudeDegrees>-2.9504428245127201080322265625</LongitudeDegrees>
            </Position>
            <AltitudeMeters>-36.59999847412109375</AltitudeMeters>
            <DistanceMeters>3439.7661173696</DistanceMeters>
          </Trackpoint>
          <Trackpoint>
            <Time>2022-09-24T14:14:17.000Z</Time>
            <Position>
              <LatitudeDegrees>43.267438150942325592041015625</LatitudeDegrees>
              <LongitudeDegrees>-2.95069470070302486419677734375</LongitudeDegrees>
            </Position>
            <AltitudeMeters>-36.59999847412109375</AltitudeMeters>
            <DistanceMeters>3460.1895669093</DistanceMeters>
          </Trackpoint>
          <Trackpoint>
            <Time>2022-09-24T14:14:18.000Z</Time>
            <Position>
              <LatitudeDegrees>43.267439492046833038330078125</LatitudeDegrees>
              <LongitudeDegrees>-2.9508193396031856536865234375</LongitudeDegrees>
            </Position>
            <AltitudeMeters>-36.200000762939453125</AltitudeMeters>
            <DistanceMeters>3470.2919391045</DistanceMeters>
          </Trackpoint>
          <Trackpoint>
            <Time>2022-09-24T14:14:19.000Z</Time>
            <Position>
              <LatitudeDegrees>43.2674399949610233306884765625</LatitudeDegrees>
              <LongitudeDegrees>-2.95094397850334644317626953125</LongitudeDegrees>
            </Position>
            <AltitudeMeters>-36.200000762939453125</AltitudeMeters>
            <DistanceMeters>3480.393417403</DistanceMeters>
          </Trackpoint>
          <Trackpoint>
            <Time>2022-09-24T14:14:20.000Z</Time>
            <Position>
              <LatitudeDegrees>43.26743848621845245361328125</LatitudeDegrees>
              <LongitudeDegrees>-2.951061241328716278076171875</LongitudeDegrees>
            </Position>
            <AltitudeMeters>-35.799999237060546875</AltitudeMeters>
            <DistanceMeters>3489.898939214</DistanceMeters>
          </Trackpoint>
          <Trackpoint>
            <Time>2022-09-24T14:14:21.000Z</Time>
            <Position>
              <LatitudeDegrees>43.26743907295167446136474609375</LatitudeDegrees>
              <LongitudeDegrees>-2.95117196626961231231689453125</LongitudeDegrees>
            </Position>
            <AltitudeMeters>-35.799999237060546875</AltitudeMeters>
            <DistanceMeters>3498.8728024694</DistanceMeters>
          </Trackpoint>
          <Trackpoint>
            <Time>2022-09-24T14:14:22.000Z</Time>
            <Position>
              <LatitudeDegrees>43.2674443535506725311279296875</LatitudeDegrees>
              <LongitudeDegrees>-2.95126500539481639862060546875</LongitudeDegrees>
            </Position>
            <AltitudeMeters>-35.799999237060546875</AltitudeMeters>
            <DistanceMeters>3506.4356395162</DistanceMeters>
          </Trackpoint>
          <Trackpoint>
            <Time>2022-09-24T14:14:23.000Z</Time>
            <Position>
              <LatitudeDegrees>43.2674552500247955322265625</LatitudeDegrees>
              <LongitudeDegrees>-2.95134522020816802978515625</LongitudeDegrees>
            </Position>
            <AltitudeMeters>-35.799999237060546875</AltitudeMeters>
            <DistanceMeters>3513.0487068996</DistanceMeters>
          </Trackpoint>
          <Trackpoint>
            <Time>2022-09-24T14:14:24.000Z</Time>
            <Position>
              <LatitudeDegrees>43.26748014427721500396728515625</LatitudeDegrees>
              <LongitudeDegrees>-2.9514131136238574981689453125</LongitudeDegrees>
            </Position>
            <AltitudeMeters>-35.799999237060546875</AltitudeMeters>
            <DistanceMeters>3519.2086079717</DistanceMeters>
          </Trackpoint>
          <Trackpoint>
            <Time>2022-09-24T14:14:25.000Z</Time>
            <Position>
              <LatitudeDegrees>43.2675214670598506927490234375</LatitudeDegrees>
              <LongitudeDegrees>-2.9514627344906330108642578125</LongitudeDegrees>
            </Position>
            <AltitudeMeters>-36.40000152587890625</AltitudeMeters>
            <DistanceMeters>3525.3169854867</DistanceMeters>
          </Trackpoint>
          <Trackpoint>
            <Time>2022-09-24T14:14:26.000Z</Time>
            <Position>
              <LatitudeDegrees>43.2675214670598506927490234375</LatitudeDegrees>
              <LongitudeDegrees>-2.9514627344906330108642578125</LongitudeDegrees>
            </Position>
            <AltitudeMeters>-36.40000152587890625</AltitudeMeters>
            <DistanceMeters>3525.3169854867</DistanceMeters>
          </Trackpoint>
          <Trackpoint>
            <Time>2022-09-24T14:14:27.000Z</Time>
            <Position>
              <LatitudeDegrees>43.26763638295233249664306640625</LatitudeDegrees>
              <LongitudeDegrees>-2.95150481164455413818359375</LongitudeDegrees>
            </Position>
            <AltitudeMeters>-36.799999237060546875</AltitudeMeters>
            <DistanceMeters>3538.554039665</DistanceMeters>
          </Trackpoint>
          <Trackpoint>
            <Time>2022-09-24T14:14:28.000Z</Time>
            <Position>
              <LatitudeDegrees>43.26769874431192874908447265625</LatitudeDegrees>
              <LongitudeDegrees>-2.95150271616876125335693359375</LongitudeDegrees>
            </Position>
            <AltitudeMeters>-37.59999847412109375</AltitudeMeters>
            <DistanceMeters>3545.4974954425</DistanceMeters>
          </Trackpoint>
          <Trackpoint>
            <Time>2022-09-24T14:14:29.000Z</Time>
            <Position>
              <LatitudeDegrees>43.26776177622377872467041015625</LatitudeDegrees>
              <LongitudeDegrees>-2.95149349607527256011962890625</LongitudeDegrees>
            </Position>
            <AltitudeMeters>-37.59999847412109375</AltitudeMeters>
            <DistanceMeters>3552.55318899</DistanceMeters>
          </Trackpoint>
          <Trackpoint>
            <Time>2022-09-24T14:14:30.000Z</Time>
            <Position>
              <LatitudeDegrees>43.26782832853496074676513671875</LatitudeDegrees>
              <LongitudeDegrees>-2.95148427598178386688232421875</LongitudeDegrees>
            </Position>
            <AltitudeMeters>-37.59999847412109375</AltitudeMeters>
            <DistanceMeters>3559.9980939063</DistanceMeters>
          </Trackpoint>
          <Trackpoint>
            <Time>2022-09-24T14:14:31.000Z</Time>
            <Position>
              <LatitudeDegrees>43.26789437793195247650146484375</LatitudeDegrees>
              <LongitudeDegrees>-2.95147857628762722015380859375</LongitudeDegrees>
            </Position>
            <AltitudeMeters>-37.799999237060546875</AltitudeMeters>
            <DistanceMeters>3567.3643500349</DistanceMeters>
          </Trackpoint>
          <Trackpoint>
            <Time>2022-09-24T14:14:32.000Z</Time>
            <Position>
              <LatitudeDegrees>43.26789437793195247650146484375</LatitudeDegrees>
              <LongitudeDegrees>-2.95147857628762722015380859375</LongitudeDegrees>
            </Position>
            <AltitudeMeters>-38.200000762939453125</AltitudeMeters>
            <DistanceMeters>3567.3643500349</DistanceMeters>
          </Trackpoint>
          <Trackpoint>
            <Time>2022-09-24T14:14:33.000Z</Time>
            <Position>
              <LatitudeDegrees>43.26800853945314884185791015625</LatitudeDegrees>
              <LongitudeDegrees>-2.95145946554839611053466796875</LongitudeDegrees>
            </Position>
            <AltitudeMeters>-38.200000762939453125</AltitudeMeters>
            <DistanceMeters>3580.164769445</DistanceMeters>
          </Trackpoint>
          <Trackpoint>
            <Time>2022-09-24T14:14:34.000Z</Time>
            <Position>
              <LatitudeDegrees>43.268045671284198760986328125</LatitudeDegrees>
              <LongitudeDegrees>-2.95141705311834812164306640625</LongitudeDegrees>
            </Position>
            <AltitudeMeters>-38.200000762939453125</AltitudeMeters>
            <DistanceMeters>3585.540292175</DistanceMeters>
          </Trackpoint>
          <Trackpoint>
            <Time>2022-09-24T14:14:35.000Z</Time>
            <Position>
              <LatitudeDegrees>43.26807308010756969451904296875</LatitudeDegrees>
              <LongitudeDegrees>-2.95134312473237514495849609375</LongitudeDegrees>
            </Position>
            <AltitudeMeters>-38.200000762939453125</AltitudeMeters>
            <DistanceMeters>3592.2650689617</DistanceMeters>
          </Trackpoint>
          <Trackpoint>
            <Time>2022-09-24T14:14:36.000Z</Time>
            <Position>
              <LatitudeDegrees>43.26808246783912181854248046875</LatitudeDegrees>
              <LongitudeDegrees>-2.95125176198780536651611328125</LongitudeDegrees>
            </Position>
            <AltitudeMeters>-38.200000762939453125</AltitudeMeters>
            <DistanceMeters>3599.7426510135</DistanceMeters>
          </Trackpoint>
          <Trackpoint>
            <Time>2022-09-24T14:14:37.000Z</Time>
            <Position>
              <LatitudeDegrees>43.2680793665349483489990234375</LatitudeDegrees>
              <LongitudeDegrees>-2.95114732347428798675537109375</LongitudeDegrees>
            </Position>
            <AltitudeMeters>-38.59999847412109375</AltitudeMeters>
            <DistanceMeters>3608.2133645268</DistanceMeters>
          </Trackpoint>
          <Trackpoint>
            <Time>2022-09-24T14:14:38.000Z</Time>
            <Position>
              <LatitudeDegrees>43.2680723257362842559814453125</LatitudeDegrees>
              <LongitudeDegrees>-2.95104288496077060699462890625</LongitudeDegrees>
            </Position>
            <AltitudeMeters>-38.59999847412109375</AltitudeMeters>
            <DistanceMeters>3616.7138746117</DistanceMeters>
          </Trackpoint>
          <Trackpoint>
            <Time>2022-09-24T14:14:39.000Z</Time>
            <Position>
              <LatitudeDegrees>43.2680723257362842559814453125</LatitudeDegrees>
              <LongitudeDegrees>-2.95104288496077060699462890625</LongitudeDegrees>
            </Position>
            <AltitudeMeters>-38.59999847412109375</AltitudeMeters>
            <DistanceMeters>3616.7138746117</DistanceMeters>
          </Trackpoint>
          <Trackpoint>
            <Time>2022-09-24T14:14:40.000Z</Time>
            <Position>
              <LatitudeDegrees>43.2680649496614933013916015625</LatitudeDegrees>
              <LongitudeDegrees>-2.9508304037153720855712890625</LongitudeDegrees>
            </Position>
            <AltitudeMeters>-38.59999847412109375</AltitudeMeters>
            <DistanceMeters>3633.953826354</DistanceMeters>
          </Trackpoint>
          <Trackpoint>
            <Time>2022-09-24T14:14:41.000Z</Time>
            <Position>
              <LatitudeDegrees>43.26806218363344669342041015625</LatitudeDegrees>
              <LongitudeDegrees>-2.95071515254676342010498046875</LongitudeDegrees>
            </Position>
            <AltitudeMeters>-38.799999237060546875</AltitudeMeters>
            <DistanceMeters>3643.2988715272</DistanceMeters>
          </Trackpoint>
          <Trackpoint>
            <Time>2022-09-24T14:14:42.000Z</Time>
            <Position>
              <LatitudeDegrees>43.2680605910718441009521484375</LatitudeDegrees>
              <LongitudeDegrees>-2.95060115866363048553466796875</LongitudeDegrees>
            </Position>
            <AltitudeMeters>-38.799999237060546875</AltitudeMeters>
            <DistanceMeters>3652.5394560788</DistanceMeters>
          </Trackpoint>
          <Trackpoint>
            <Time>2022-09-24T14:14:43.000Z</Time>
            <Position>
              <LatitudeDegrees>43.26806184835731983184814453125</LatitudeDegrees>
              <LongitudeDegrees>-2.950485236942768096923828125</LongitudeDegrees>
            </Position>
            <AltitudeMeters>-38.799999237060546875</AltitudeMeters>
            <DistanceMeters>3661.9350948179</DistanceMeters>
          </Trackpoint>
          <Trackpoint>
            <Time>2022-09-24T14:14:44.000Z</Time>
            <Position>
              <LatitudeDegrees>43.26806402765214443206787109375</LatitudeDegrees>
              <LongitudeDegrees>-2.95036847703158855438232421875</LongitudeDegrees>
            </Position>
            <AltitudeMeters>-38.799999237060546875</AltitudeMeters>
            <DistanceMeters>3671.4015872322</DistanceMeters>
          </Trackpoint>
          <Trackpoint>
            <Time>2022-09-24T14:14:45.000Z</Time>
            <Position>
              <LatitudeDegrees>43.2680639438331127166748046875</LatitudeDegrees>
              <LongitudeDegrees>-2.9502475261688232421875</LongitudeDegrees>
            </Position>
            <AltitudeMeters>-38.799999237060546875</AltitudeMeters>
            <DistanceMeters>3681.2045497189</DistanceMeters>
          </Trackpoint>
          <Trackpoint>
            <Time>2022-09-24T14:14:46.000Z</Time>
            <Position>
              <LatitudeDegrees>43.26806754805147647857666015625</LatitudeDegrees>
              <LongitudeDegrees>-2.9501303471624851226806640625</LongitudeDegrees>
            </Position>
            <AltitudeMeters>-38.799999237060546875</AltitudeMeters>
            <DistanceMeters>3690.7100715299</DistanceMeters>
          </Trackpoint>
          <Trackpoint>
            <Time>2022-09-24T14:14:47.000Z</Time>
            <Position>
              <LatitudeDegrees>43.2680689729750156402587890625</LatitudeDegrees>
              <LongitudeDegrees>-2.95001685619354248046875</LongitudeDegrees>
            </Position>
            <AltitudeMeters>-38.799999237060546875</AltitudeMeters>
            <DistanceMeters>3699.9090305121</DistanceMeters>
          </Trackpoint>
          <Trackpoint>
            <Time>2022-09-24T14:14:48.000Z</Time>
            <Position>
              <LatitudeDegrees>43.26807157136499881744384765625</LatitudeDegrees>
              <LongitudeDegrees>-2.9499001801013946533203125</LongitudeDegrees>
            </Position>
            <AltitudeMeters>-38.799999237060546875</AltitudeMeters>
            <DistanceMeters>3709.3697978019</DistanceMeters>
          </Trackpoint>
          <Trackpoint>
            <Time>2022-09-24T14:14:49.000Z</Time>
            <Position>
              <LatitudeDegrees>43.26807308010756969451904296875</LatitudeDegrees>
              <LongitudeDegrees>-2.9497846774756908416748046875</LongitudeDegrees>
            </Position>
            <AltitudeMeters>-38.799999237060546875</AltitudeMeters>
            <DistanceMeters>3718.7327023789</DistanceMeters>
          </Trackpoint>
          <Trackpoint>
            <Time>2022-09-24T14:14:50.000Z</Time>
            <Position>
              <LatitudeDegrees>43.26807609759271144866943359375</LatitudeDegrees>
              <LongitudeDegrees>-2.94966909103095531463623046875</LongitudeDegrees>
            </Position>
            <AltitudeMeters>-38.59999847412109375</AltitudeMeters>
            <DistanceMeters>3728.1071732415</DistanceMeters>
          </Trackpoint>
          <Trackpoint>
            <Time>2022-09-24T14:14:51.000Z</Time>
            <Position>
              <LatitudeDegrees>43.26808355748653411865234375</LatitudeDegrees>
              <LongitudeDegrees>-2.94955342076718807220458984375</LongitudeDegrees>
            </Position>
            <AltitudeMeters>-38.59999847412109375</AltitudeMeters>
            <DistanceMeters>3737.5186566441</DistanceMeters>
          </Trackpoint>
          <Trackpoint>
            <Time>2022-09-24T14:14:52.000Z</Time>
            <Position>
              <LatitudeDegrees>43.2680897600948810577392578125</LatitudeDegrees>
              <LongitudeDegrees>-2.9494423605501651763916015625</LongitudeDegrees>
            </Position>
            <AltitudeMeters>-38.40000152587890625</AltitudeMeters>
            <DistanceMeters>3746.5456943548</DistanceMeters>
          </Trackpoint>
          <Trackpoint>
            <Time>2022-09-24T14:14:53.000Z</Time>
            <Position>
              <LatitudeDegrees>43.26809956692159175872802734375</LatitudeDegrees>
              <LongitudeDegrees>-2.9493310488760471343994140625</LongitudeDegrees>
            </Position>
            <AltitudeMeters>-38.40000152587890625</AltitudeMeters>
            <DistanceMeters>3755.6325540436</DistanceMeters>
          </Trackpoint>
          <Trackpoint>
            <Time>2022-09-24T14:14:54.000Z</Time>
            <Position>
              <LatitudeDegrees>43.268111385405063629150390625</LatitudeDegrees>
              <LongitudeDegrees>-2.94921378605067729949951171875</LongitudeDegrees>
            </Position>
            <AltitudeMeters>-38.40000152587890625</AltitudeMeters>
            <DistanceMeters>3765.2269586249</DistanceMeters>
          </Trackpoint>
          <Trackpoint>
            <Time>2022-09-24T14:14:55.000Z</Time>
            <Position>
              <LatitudeDegrees>43.26811750419437885284423828125</LatitudeDegrees>
              <LongitudeDegrees>-2.9491077549755573272705078125</LongitudeDegrees>
            </Position>
            <AltitudeMeters>-38.200000762939453125</AltitudeMeters>
            <DistanceMeters>3773.8466725982</DistanceMeters>
          </Trackpoint>
          <Trackpoint>
            <Time>2022-09-24T14:14:56.000Z</Time>
            <Position>
              <LatitudeDegrees>43.26812370680272579193115234375</LatitudeDegrees>
              <LongitudeDegrees>-2.94900390319526195526123046875</LongitudeDegrees>
            </Position>
            <AltitudeMeters>-38.200000762939453125</AltitudeMeters>
            <DistanceMeters>3782.2912278664</DistanceMeters>
          </Trackpoint>
          <Trackpoint>
            <Time>2022-09-24T14:14:57.000Z</Time>
            <Position>
              <LatitudeDegrees>43.26813493855297565460205078125</LatitudeDegrees>
              <LongitudeDegrees>-2.94889527373015880584716796875</LongitudeDegrees>
            </Position>
            <AltitudeMeters>-38</AltitudeMeters>
            <DistanceMeters>3791.1837179237</DistanceMeters>
          </Trackpoint>
          <Trackpoint>
            <Time>2022-09-24T14:14:58.000Z</Time>
            <Position>
              <LatitudeDegrees>43.26814617030322551727294921875</LatitudeDegrees>
              <LongitudeDegrees>-2.94878664426505565643310546875</LongitudeDegrees>
            </Position>
            <AltitudeMeters>-38</AltitudeMeters>
            <DistanceMeters>3800.076207981</DistanceMeters>
          </Trackpoint>
          <Trackpoint>
            <Time>2022-09-24T14:14:59.000Z</Time>
            <Position>
              <LatitudeDegrees>43.26815891079604625701904296875</LatitudeDegrees>
              <LongitudeDegrees>-2.9486789368093013763427734375</LongitudeDegrees>
            </Position>
            <AltitudeMeters>-38</AltitudeMeters>
            <DistanceMeters>3808.9193104912</DistanceMeters>
          </Trackpoint>
          <Trackpoint>
            <Time>2022-09-24T14:15:00.000Z</Time>
            <Position>
              <LatitudeDegrees>43.2681719027459621429443359375</LatitudeDegrees>
              <LongitudeDegrees>-2.9485429823398590087890625</LongitudeDegrees>
            </Position>
            <AltitudeMeters>-38</AltitudeMeters>
            <DistanceMeters>3820.0321555566</DistanceMeters>
          </Trackpoint>
          <Trackpoint>
            <Time>2022-09-24T14:15:01.000Z</Time>
            <Position>
              <LatitudeDegrees>43.26817818917334079742431640625</LatitudeDegrees>
              <LongitudeDegrees>-2.94844918884336948394775390625</LongitudeDegrees>
            </Position>
            <AltitudeMeters>-38</AltitudeMeters>
            <DistanceMeters>3827.6662968553</DistanceMeters>
          </Trackpoint>
          <Trackpoint>
            <Time>2022-09-24T14:15:02.000Z</Time>
            <Position>
              <LatitudeDegrees>43.2681960426270961761474609375</LatitudeDegrees>
              <LongitudeDegrees>-2.9483228735625743865966796875</LongitudeDegrees>
            </Position>
            <AltitudeMeters>-37.799999237060546875</AltitudeMeters>
            <DistanceMeters>3838.0945858144</DistanceMeters>
          </Trackpoint>
          <Trackpoint>
            <Time>2022-09-24T14:15:03.000Z</Time>
            <Position>
              <LatitudeDegrees>43.2682091183960437774658203125</LatitudeDegrees>
              <LongitudeDegrees>-2.948221452534198760986328125</LongitudeDegrees>
            </Position>
            <AltitudeMeters>-38</AltitudeMeters>
            <DistanceMeters>3846.4418051024</DistanceMeters>
          </Trackpoint>
          <Trackpoint>
            <Time>2022-09-24T14:15:04.000Z</Time>
            <Position>
              <LatitudeDegrees>43.268223702907562255859375</LatitudeDegrees>
              <LongitudeDegrees>-2.948120199143886566162109375</LongitudeDegrees>
            </Position>
            <AltitudeMeters>-38</AltitudeMeters>
            <DistanceMeters>3854.8068551539</DistanceMeters>
          </Trackpoint>
          <Trackpoint>
            <Time>2022-09-24T14:15:05.000Z</Time>
            <Position>
              <LatitudeDegrees>43.26823887415230274200439453125</LatitudeDegrees>
              <LongitudeDegrees>-2.94801752083003520965576171875</LongitudeDegrees>
            </Position>
            <AltitudeMeters>-38</AltitudeMeters>
            <DistanceMeters>3863.2977991726</DistanceMeters>
          </Trackpoint>
          <Trackpoint>
            <Time>2022-09-24T14:15:06.000Z</Time>
            <Position>
              <LatitudeDegrees>43.2682557217776775360107421875</LatitudeDegrees>
              <LongitudeDegrees>-2.94791333377361297607421875</LongitudeDegrees>
            </Position>
            <AltitudeMeters>-38</AltitudeMeters>
            <DistanceMeters>3871.9478404103</DistanceMeters>
          </Trackpoint>
          <Trackpoint>
            <Time>2022-09-24T14:15:07.000Z</Time>
            <Position>
              <LatitudeDegrees>43.268271982669830322265625</LatitudeDegrees>
              <LongitudeDegrees>-2.9478025250136852264404296875</LongitudeDegrees>
            </Position>
            <AltitudeMeters>-38.59999847412109375</AltitudeMeters>
            <DistanceMeters>3881.1089282535</DistanceMeters>
          </Trackpoint>
          <Trackpoint>
            <Time>2022-09-24T14:15:08.000Z</Time>
            <Position>
              <LatitudeDegrees>43.268288411200046539306640625</LatitudeDegrees>
              <LongitudeDegrees>-2.94769347645342350006103515625</LongitudeDegrees>
            </Position>
            <AltitudeMeters>-38.59999847412109375</AltitudeMeters>
            <DistanceMeters>3890.1339650692</DistanceMeters>
          </Trackpoint>
          <Trackpoint>
            <Time>2022-09-24T14:15:09.000Z</Time>
            <Position>
              <LatitudeDegrees>43.26830240897834300994873046875</LatitudeDegrees>
              <LongitudeDegrees>-2.94758568517863750457763671875</LongitudeDegrees>
            </Position>
            <AltitudeMeters>-38.799999237060546875</AltitudeMeters>
            <DistanceMeters>3899.0076490049</DistanceMeters>
          </Trackpoint>
          <Trackpoint>
            <Time>2022-09-24T14:15:10.000Z</Time>
            <Position>
              <LatitudeDegrees>43.26831883750855922698974609375</LatitudeDegrees>
              <LongitudeDegrees>-2.94747806154191493988037109375</LongitudeDegrees>
            </Position>
            <AltitudeMeters>-38.799999237060546875</AltitudeMeters>
            <DistanceMeters>3907.919918772</DistanceMeters>
          </Trackpoint>
          <Trackpoint>
            <Time>2022-09-24T14:15:11.000Z</Time>
            <Position>
              <LatitudeDegrees>43.26833702623844146728515625</LatitudeDegrees>
              <LongitudeDegrees>-2.94737027026712894439697265625</LongitudeDegrees>
            </Position>
            <AltitudeMeters>-38.59999847412109375</AltitudeMeters>
            <DistanceMeters>3916.8872389254</DistanceMeters>
          </Trackpoint>
          <Trackpoint>
            <Time>2022-09-24T14:15:12.000Z</Time>
            <Position>
              <LatitudeDegrees>43.268352784216403961181640625</LatitudeDegrees>
              <LongitudeDegrees>-2.94728259555995464324951171875</LongitudeDegrees>
            </Position>
            <AltitudeMeters>-38.799999237060546875</AltitudeMeters>
            <DistanceMeters>3924.2061468675</DistanceMeters>
          </Trackpoint>
          <Trackpoint>
            <Time>2022-09-24T14:15:13.000Z</Time>
            <Position>
              <LatitudeDegrees>43.26837566681206226348876953125</LatitudeDegrees>
              <LongitudeDegrees>-2.94717296026647090911865234375</LongitudeDegrees>
            </Position>
            <AltitudeMeters>-38.799999237060546875</AltitudeMeters>
            <DistanceMeters>3933.4496626117</DistanceMeters>
          </Trackpoint>
          <Trackpoint>
            <Time>2022-09-24T14:15:14.000Z</Time>
            <Position>
              <LatitudeDegrees>43.26839737594127655029296875</LatitudeDegrees>
              <LongitudeDegrees>-2.9470650851726531982421875</LongitudeDegrees>
            </Position>
            <AltitudeMeters>-38.799999237060546875</AltitudeMeters>
            <DistanceMeters>3942.5206083483</DistanceMeters>
          </Trackpoint>
          <Trackpoint>
            <Time>2022-09-24T14:15:15.000Z</Time>
            <Position>
              <LatitudeDegrees>43.2684195041656494140625</LatitudeDegrees>
              <LongitudeDegrees>-2.94695913791656494140625</LongitudeDegrees>
            </Position>
            <AltitudeMeters>-39</AltitudeMeters>
            <DistanceMeters>3951.4531194991</DistanceMeters>
          </Trackpoint>
          <Trackpoint>
            <Time>2022-09-24T14:15:16.000Z</Time>
            <Position>
              <LatitudeDegrees>43.2684195041656494140625</LatitudeDegrees>
              <LongitudeDegrees>-2.94695913791656494140625</LongitudeDegrees>
            </Position>
            <AltitudeMeters>-39</AltitudeMeters>
            <DistanceMeters>3951.4531194991</DistanceMeters>
          </Trackpoint>
          <Trackpoint>
            <Time>2022-09-24T14:15:17.000Z</Time>
            <Position>
              <LatitudeDegrees>43.2684713043272495269775390625</LatitudeDegrees>
              <LongitudeDegrees>-2.9467205889523029327392578125</LongitudeDegrees>
            </Position>
            <AltitudeMeters>-39.40000152587890625</AltitudeMeters>
            <DistanceMeters>3971.6274498593</DistanceMeters>
          </Trackpoint>
          <Trackpoint>
            <Time>2022-09-24T14:15:18.000Z</Time>
            <Position>
              <LatitudeDegrees>43.26849334873259067535400390625</LatitudeDegrees>
              <LongitudeDegrees>-2.9466371051967144012451171875</LongitudeDegrees>
            </Position>
            <AltitudeMeters>-39.40000152587890625</AltitudeMeters>
            <DistanceMeters>3978.824429676</DistanceMeters>
          </Trackpoint>
          <Trackpoint>
            <Time>2022-09-24T14:15:19.000Z</Time>
            <Position>
              <LatitudeDegrees>43.26852335594594478607177734375</LatitudeDegrees>
              <LongitudeDegrees>-2.94653040356934070587158203125</LongitudeDegrees>
            </Position>
            <AltitudeMeters>-40.200000762939453125</AltitudeMeters>
            <DistanceMeters>3988.0942844452</DistanceMeters>
          </Trackpoint>
          <Trackpoint>
            <Time>2022-09-24T14:15:20.000Z</Time>
            <Position>
              <LatitudeDegrees>43.2685561291873455047607421875</LatitudeDegrees>
              <LongitudeDegrees>-2.9464240372180938720703125</LongitudeDegrees>
            </Position>
            <AltitudeMeters>-39.40000152587890625</AltitudeMeters>
            <DistanceMeters>3997.4542952176</DistanceMeters>
          </Trackpoint>
          <Trackpoint>
            <Time>2022-09-24T14:15:21.000Z</Time>
            <Position>
              <LatitudeDegrees>43.268591500818729400634765625</LatitudeDegrees>
              <LongitudeDegrees>-2.94631632976233959197998046875</LongitudeDegrees>
            </Position>
            <AltitudeMeters>-39.40000152587890625</AltitudeMeters>
            <DistanceMeters>4007.0298576664</DistanceMeters>
          </Trackpoint>
          <Trackpoint>
            <Time>2022-09-24T14:15:22.000Z</Time>
            <Position>
              <LatitudeDegrees>43.2686272077262401580810546875</LatitudeDegrees>
              <LongitudeDegrees>-2.9462067782878875732421875</LongitudeDegrees>
            </Position>
            <AltitudeMeters>-39.40000152587890625</AltitudeMeters>
            <DistanceMeters>4016.7569919299</DistanceMeters>
          </Trackpoint>
          <Trackpoint>
            <Time>2022-09-24T14:15:23.000Z</Time>
            <Position>
              <LatitudeDegrees>43.26866752468049526214599609375</LatitudeDegrees>
              <LongitudeDegrees>-2.9460994899272918701171875</LongitudeDegrees>
            </Position>
            <AltitudeMeters>-39.59999847412109375</AltitudeMeters>
            <DistanceMeters>4026.5410524562</DistanceMeters>
          </Trackpoint>
          <Trackpoint>
            <Time>2022-09-24T14:15:24.000Z</Time>
            <Position>
              <LatitudeDegrees>43.26870960183441638946533203125</LatitudeDegrees>
              <LongitudeDegrees>-2.94599446468055248260498046875</LongitudeDegrees>
            </Position>
            <AltitudeMeters>-40.200000762939453125</AltitudeMeters>
            <DistanceMeters>4036.256110819</DistanceMeters>
          </Trackpoint>
          <Trackpoint>
            <Time>2022-09-24T14:15:25.000Z</Time>
            <Position>
              <LatitudeDegrees>43.26874631457030773162841796875</LatitudeDegrees>
              <LongitudeDegrees>-2.945883572101593017578125</LongitudeDegrees>
            </Position>
            <AltitudeMeters>-40.200000762939453125</AltitudeMeters>
            <DistanceMeters>4046.1279184034</DistanceMeters>
          </Trackpoint>
          <Trackpoint>
            <Time>2022-09-24T14:15:26.000Z</Time>
            <Position>
              <LatitudeDegrees>43.2687800936400890350341796875</LatitudeDegrees>
              <LongitudeDegrees>-2.945770584046840667724609375</LongitudeDegrees>
            </Position>
            <AltitudeMeters>-40.200000762939453125</AltitudeMeters>
            <DistanceMeters>4056.0271299664</DistanceMeters>
          </Trackpoint>
          <Trackpoint>
            <Time>2022-09-24T14:15:27.000Z</Time>
            <Position>
              <LatitudeDegrees>43.268819153308868408203125</LatitudeDegrees>
              <LongitudeDegrees>-2.9456326179206371307373046875</LongitudeDegrees>
            </Position>
            <AltitudeMeters>-40.200000762939453125</AltitudeMeters>
            <DistanceMeters>4068.0238527841</DistanceMeters>
          </Trackpoint>
          <Trackpoint>
            <Time>2022-09-24T14:15:28.000Z</Time>
            <Position>
              <LatitudeDegrees>43.2688528485596179962158203125</LatitudeDegrees>
              <LongitudeDegrees>-2.94551904313266277313232421875</LongitudeDegrees>
            </Position>
            <AltitudeMeters>-40.799999237060546875</AltitudeMeters>
            <DistanceMeters>4077.9631201764</DistanceMeters>
          </Trackpoint>
          <Trackpoint>
            <Time>2022-09-24T14:15:29.000Z</Time>
            <Position>
              <LatitudeDegrees>43.2688860408961772918701171875</LatitudeDegrees>
              <LongitudeDegrees>-2.94540546834468841552734375</LongitudeDegrees>
            </Position>
            <AltitudeMeters>-40.799999237060546875</AltitudeMeters>
            <DistanceMeters>4087.8814694736</DistanceMeters>
          </Trackpoint>
          <Trackpoint>
            <Time>2022-09-24T14:15:30.000Z</Time>
            <Position>
              <LatitudeDegrees>43.2689088396728038787841796875</LatitudeDegrees>
              <LongitudeDegrees>-2.945311255753040313720703125</LongitudeDegrees>
            </Position>
            <AltitudeMeters>-41.200000762939453125</AltitudeMeters>
            <DistanceMeters>4095.927376385</DistanceMeters>
          </Trackpoint>
          <Trackpoint>
            <Time>2022-09-24T14:15:31.000Z</Time>
            <Position>
              <LatitudeDegrees>43.26893624849617481231689453125</LatitudeDegrees>
              <LongitudeDegrees>-2.9451997764408588409423828125</LongitudeDegrees>
            </Position>
            <AltitudeMeters>-40.799999237060546875</AltitudeMeters>
            <DistanceMeters>4105.463249171</DistanceMeters>
          </Trackpoint>
          <Trackpoint>
            <Time>2022-09-24T14:15:32.000Z</Time>
            <Position>
              <LatitudeDegrees>43.26896793209016323089599609375</LatitudeDegrees>
              <LongitudeDegrees>-2.945067845284938812255859375</LongitudeDegrees>
            </Position>
            <AltitudeMeters>-40.200000762939453125</AltitudeMeters>
            <DistanceMeters>4116.7222106293</DistanceMeters>
          </Trackpoint>
          <Trackpoint>
            <Time>2022-09-24T14:15:33.000Z</Time>
            <Position>
              <LatitudeDegrees>43.268997184932231903076171875</LatitudeDegrees>
              <LongitudeDegrees>-2.944961227476596832275390625</LongitudeDegrees>
            </Position>
            <AltitudeMeters>-39.799999237060546875</AltitudeMeters>
            <DistanceMeters>4125.9559521128</DistanceMeters>
          </Trackpoint>
          <Trackpoint>
            <Time>2022-09-24T14:15:34.000Z</Time>
            <Position>
              <LatitudeDegrees>43.26902207918465137481689453125</LatitudeDegrees>
              <LongitudeDegrees>-2.944874726235866546630859375</LongitudeDegrees>
            </Position>
            <AltitudeMeters>-39.799999237060546875</AltitudeMeters>
            <DistanceMeters>4133.4936733192</DistanceMeters>
          </Trackpoint>
          <Trackpoint>
            <Time>2022-09-24T14:15:35.000Z</Time>
            <Position>
              <LatitudeDegrees>43.2690513320267200469970703125</LatitudeDegrees>
              <LongitudeDegrees>-2.944757044315338134765625</LongitudeDegrees>
            </Position>
            <AltitudeMeters>-39.799999237060546875</AltitudeMeters>
            <DistanceMeters>4143.5718824776</DistanceMeters>
          </Trackpoint>
          <Trackpoint>
            <Time>2022-09-24T14:15:36.000Z</Time>
            <Position>
              <LatitudeDegrees>43.2690808363258838653564453125</LatitudeDegrees>
              <LongitudeDegrees>-2.9446378536522388458251953125</LongitudeDegrees>
            </Position>
            <AltitudeMeters>-39.799999237060546875</AltitudeMeters>
            <DistanceMeters>4153.7743180285</DistanceMeters>
          </Trackpoint>
          <Trackpoint>
            <Time>2022-09-24T14:15:37.000Z</Time>
            <Position>
              <LatitudeDegrees>43.26910522766411304473876953125</LatitudeDegrees>
              <LongitudeDegrees>-2.9445008933544158935546875</LongitudeDegrees>
            </Position>
            <AltitudeMeters>-39.799999237060546875</AltitudeMeters>
            <DistanceMeters>4165.2012557364</DistanceMeters>
          </Trackpoint>
          <Trackpoint>
            <Time>2022-09-24T14:15:38.000Z</Time>
            <Position>
              <LatitudeDegrees>43.2691210694611072540283203125</LatitudeDegrees>
              <LongitudeDegrees>-2.94440089724957942962646484375</LongitudeDegrees>
            </Position>
            <AltitudeMeters>-39.799999237060546875</AltitudeMeters>
            <DistanceMeters>4173.4947527234</DistanceMeters>
          </Trackpoint>
          <Trackpoint>
            <Time>2022-09-24T14:15:39.000Z</Time>
            <Position>
              <LatitudeDegrees>43.2691472209990024566650390625</LatitudeDegrees>
              <LongitudeDegrees>-2.944294698536396026611328125</LongitudeDegrees>
            </Position>
            <AltitudeMeters>-39.799999237060546875</AltitudeMeters>
            <DistanceMeters>4182.5796246927</DistanceMeters>
          </Trackpoint>
          <Trackpoint>
            <Time>2022-09-24T14:15:40.000Z</Time>
            <Position>
              <LatitudeDegrees>43.2691797427833080291748046875</LatitudeDegrees>
              <LongitudeDegrees>-2.9441641084849834442138671875</LongitudeDegrees>
            </Position>
            <AltitudeMeters>-40</AltitudeMeters>
            <DistanceMeters>4193.7653628984</DistanceMeters>
          </Trackpoint>
          <Trackpoint>
            <Time>2022-09-24T14:15:41.000Z</Time>
            <Position>
              <LatitudeDegrees>43.26920949853956699371337890625</LatitudeDegrees>
              <LongitudeDegrees>-2.94404315762221813201904296875</LongitudeDegrees>
            </Position>
            <AltitudeMeters>-40</AltitudeMeters>
            <DistanceMeters>4204.112371467</DistanceMeters>
          </Trackpoint>
          <Trackpoint>
            <Time>2022-09-24T14:15:42.000Z</Time>
            <Position>
              <LatitudeDegrees>43.269235901534557342529296875</LatitudeDegrees>
              <LongitudeDegrees>-2.94392111711204051971435546875</LongitudeDegrees>
            </Position>
            <AltitudeMeters>-40.200000762939453125</AltitudeMeters>
            <DistanceMeters>4214.4301023803</DistanceMeters>
          </Trackpoint>
          <Trackpoint>
            <Time>2022-09-24T14:15:43.000Z</Time>
            <Position>
              <LatitudeDegrees>43.26924554072320461273193359375</LatitudeDegrees>
              <LongitudeDegrees>-2.94382698833942413330078125</LongitudeDegrees>
            </Position>
            <AltitudeMeters>-40</AltitudeMeters>
            <DistanceMeters>4222.1331298574</DistanceMeters>
          </Trackpoint>
          <Trackpoint>
            <Time>2022-09-24T14:15:44.000Z</Time>
            <Position>
              <LatitudeDegrees>43.26925291679799556732177734375</LatitudeDegrees>
              <LongitudeDegrees>-2.943716347217559814453125</LongitudeDegrees>
            </Position>
            <AltitudeMeters>-40</AltitudeMeters>
            <DistanceMeters>4231.1376318642</DistanceMeters>
          </Trackpoint>
          <Trackpoint>
            <Time>2022-09-24T14:15:45.000Z</Time>
            <Position>
              <LatitudeDegrees>43.26925291679799556732177734375</LatitudeDegrees>
              <LongitudeDegrees>-2.943716347217559814453125</LongitudeDegrees>
            </Position>
            <AltitudeMeters>-40</AltitudeMeters>
            <DistanceMeters>4231.1376318642</DistanceMeters>
          </Trackpoint>
          <Trackpoint>
            <Time>2022-09-24T14:15:46.000Z</Time>
            <Position>
              <LatitudeDegrees>43.26925710774958133697509765625</LatitudeDegrees>
              <LongitudeDegrees>-2.94350109994411468505859375</LongitudeDegrees>
            </Position>
            <AltitudeMeters>-40</AltitudeMeters>
            <DistanceMeters>4248.5881696186</DistanceMeters>
          </Trackpoint>
          <Trackpoint>
            <Time>2022-09-24T14:15:47.000Z</Time>
            <Position>
              <LatitudeDegrees>43.26920472085475921630859375</LatitudeDegrees>
              <LongitudeDegrees>-2.94339473359286785125732421875</LongitudeDegrees>
            </Position>
            <AltitudeMeters>-35.59999847412109375</AltitudeMeters>
            <DistanceMeters>4258.9952218847</DistanceMeters>
          </Trackpoint>
          <Trackpoint>
            <Time>2022-09-24T14:15:48.000Z</Time>
            <Position>
              <LatitudeDegrees>43.26920078136026859283447265625</LatitudeDegrees>
              <LongitudeDegrees>-2.9432746209204196929931640625</LongitudeDegrees>
            </Position>
            <AltitudeMeters>-35.59999847412109375</AltitudeMeters>
            <DistanceMeters>4268.7395152818</DistanceMeters>
          </Trackpoint>
          <Trackpoint>
            <Time>2022-09-24T14:15:49.000Z</Time>
            <Position>
              <LatitudeDegrees>43.2692162878811359405517578125</LatitudeDegrees>
              <LongitudeDegrees>-2.9431783966720104217529296875</LongitudeDegrees>
            </Position>
            <AltitudeMeters>-35.59999847412109375</AltitudeMeters>
            <DistanceMeters>4276.7262830886</DistanceMeters>
          </Trackpoint>
          <Trackpoint>
            <Time>2022-09-24T14:15:50.000Z</Time>
            <Position>
              <LatitudeDegrees>43.269245959818363189697265625</LatitudeDegrees>
              <LongitudeDegrees>-2.9430888779461383819580078125</LongitudeDegrees>
            </Position>
            <AltitudeMeters>-35.59999847412109375</AltitudeMeters>
            <DistanceMeters>4284.6977727823</DistanceMeters>
          </Trackpoint>
          <Trackpoint>
            <Time>2022-09-24T14:15:51.000Z</Time>
            <Position>
              <LatitudeDegrees>43.26926632784307003021240234375</LatitudeDegrees>
              <LongitudeDegrees>-2.942969687283039093017578125</LongitudeDegrees>
            </Position>
            <AltitudeMeters>-38.799999237060546875</AltitudeMeters>
            <DistanceMeters>4294.6197631769</DistanceMeters>
          </Trackpoint>
          <Trackpoint>
            <Time>2022-09-24T14:15:52.000Z</Time>
            <Position>
              <LatitudeDegrees>43.26930169947445392608642578125</LatitudeDegrees>
              <LongitudeDegrees>-2.942855358123779296875</LongitudeDegrees>
            </Position>
            <AltitudeMeters>-39</AltitudeMeters>
            <DistanceMeters>4304.6872145926</DistanceMeters>
          </Trackpoint>
          <Trackpoint>
            <Time>2022-09-24T14:15:53.000Z</Time>
            <Position>
              <LatitudeDegrees>43.26932701282203197479248046875</LatitudeDegrees>
              <LongitudeDegrees>-2.94273197650909423828125</LongitudeDegrees>
            </Position>
            <AltitudeMeters>-39.200000762939453125</AltitudeMeters>
            <DistanceMeters>4315.0760294268</DistanceMeters>
          </Trackpoint>
          <Trackpoint>
            <Time>2022-09-24T14:15:54.000Z</Time>
            <Position>
              <LatitudeDegrees>43.269349224865436553955078125</LatitudeDegrees>
              <LongitudeDegrees>-2.94260700233280658721923828125</LongitudeDegrees>
            </Position>
            <AltitudeMeters>-39.200000762939453125</AltitudeMeters>
            <DistanceMeters>4325.5012872211</DistanceMeters>
          </Trackpoint>
          <Trackpoint>
            <Time>2022-09-24T14:15:55.000Z</Time>
            <Position>
              <LatitudeDegrees>43.26936858706176280975341796875</LatitudeDegrees>
              <LongitudeDegrees>-2.9424910806119441986083984375</LongitudeDegrees>
            </Position>
            <AltitudeMeters>-39.200000762939453125</AltitudeMeters>
            <DistanceMeters>4335.1398258269</DistanceMeters>
          </Trackpoint>
          <Trackpoint>
            <Time>2022-09-24T14:15:56.000Z</Time>
            <Position>
              <LatitudeDegrees>43.26938937418162822723388671875</LatitudeDegrees>
              <LongitudeDegrees>-2.94237197376787662506103515625</LongitudeDegrees>
            </Position>
            <AltitudeMeters>-39.200000762939453125</AltitudeMeters>
            <DistanceMeters>4345.0654559834</DistanceMeters>
          </Trackpoint>
          <Trackpoint>
            <Time>2022-09-24T14:15:57.000Z</Time>
            <Position>
              <LatitudeDegrees>43.2694117538630962371826171875</LatitudeDegrees>
              <LongitudeDegrees>-2.94225328601896762847900390625</LongitudeDegrees>
            </Position>
            <AltitudeMeters>-39.200000762939453125</AltitudeMeters>
            <DistanceMeters>4355.0010886098</DistanceMeters>
          </Trackpoint>
          <Trackpoint>
            <Time>2022-09-24T14:15:58.000Z</Time>
            <Position>
              <LatitudeDegrees>43.2694117538630962371826171875</LatitudeDegrees>
              <LongitudeDegrees>-2.94225328601896762847900390625</LongitudeDegrees>
            </Position>
            <AltitudeMeters>-39.200000762939453125</AltitudeMeters>
            <DistanceMeters>4355.0010886098</DistanceMeters>
          </Trackpoint>
          <Trackpoint>
            <Time>2022-09-24T14:15:59.000Z</Time>
            <Position>
              <LatitudeDegrees>43.2694534957408905029296875</LatitudeDegrees>
              <LongitudeDegrees>-2.9420153237879276275634765625</LongitudeDegrees>
            </Position>
            <AltitudeMeters>-39.200000762939453125</AltitudeMeters>
            <DistanceMeters>4374.8382424196</DistanceMeters>
          </Trackpoint>
          <Trackpoint>
            <Time>2022-09-24T14:16:00.000Z</Time>
            <Position>
              <LatitudeDegrees>43.2694878615438938140869140625</LatitudeDegrees>
              <LongitudeDegrees>-2.94190074317157268524169921875</LongitudeDegrees>
            </Position>
            <AltitudeMeters>-39.200000762939453125</AltitudeMeters>
            <DistanceMeters>4384.8805476194</DistanceMeters>
          </Trackpoint>
          <Trackpoint>
            <Time>2022-09-24T14:16:01.000Z</Time>
            <Position>
              <LatitudeDegrees>43.26951946131885051727294921875</LatitudeDegrees>
              <LongitudeDegrees>-2.94179244898259639739990234375</LongitudeDegrees>
            </Position>
            <AltitudeMeters>-39.200000762939453125</AltitudeMeters>
            <DistanceMeters>4394.3355863182</DistanceMeters>
          </Trackpoint>
          <Trackpoint>
            <Time>2022-09-24T14:16:02.000Z</Time>
            <Position>
              <LatitudeDegrees>43.26954712159931659698486328125</LatitudeDegrees>
              <LongitudeDegrees>-2.94170041568577289581298828125</LongitudeDegrees>
            </Position>
            <AltitudeMeters>-39.200000762939453125</AltitudeMeters>
            <DistanceMeters>4402.4055870191</DistanceMeters>
          </Trackpoint>
          <Trackpoint>
            <Time>2022-09-24T14:16:03.000Z</Time>
            <Position>
              <LatitudeDegrees>43.26956908218562602996826171875</LatitudeDegrees>
              <LongitudeDegrees>-2.94159044511616230010986328125</LongitudeDegrees>
            </Position>
            <AltitudeMeters>-39.200000762939453125</AltitudeMeters>
            <DistanceMeters>4411.6471487382</DistanceMeters>
          </Trackpoint>
          <Trackpoint>
            <Time>2022-09-24T14:16:04.000Z</Time>
            <Position>
              <LatitudeDegrees>43.26959456317126750946044921875</LatitudeDegrees>
              <LongitudeDegrees>-2.94147024862468242645263671875</LongitudeDegrees>
            </Position>
            <AltitudeMeters>-39</AltitudeMeters>
            <DistanceMeters>4421.7927803787</DistanceMeters>
          </Trackpoint>
          <Trackpoint>
            <Time>2022-09-24T14:16:05.000Z</Time>
            <Position>
              <LatitudeDegrees>43.26962373219430446624755859375</LatitudeDegrees>
              <LongitudeDegrees>-2.941354326903820037841796875</LongitudeDegrees>
            </Position>
            <AltitudeMeters>-39.200000762939453125</AltitudeMeters>
            <DistanceMeters>4431.7325020233</DistanceMeters>
          </Trackpoint>
          <Trackpoint>
            <Time>2022-09-24T14:16:06.000Z</Time>
            <Position>
              <LatitudeDegrees>43.26962373219430446624755859375</LatitudeDegrees>
              <LongitudeDegrees>-2.941354326903820037841796875</LongitudeDegrees>
            </Position>
            <AltitudeMeters>-39</AltitudeMeters>
            <DistanceMeters>4431.7325020233</DistanceMeters>
          </Trackpoint>
          <Trackpoint>
            <Time>2022-09-24T14:16:07.000Z</Time>
            <Position>
              <LatitudeDegrees>43.26969078741967678070068359375</LatitudeDegrees>
              <LongitudeDegrees>-2.94115475378930568695068359375</LongitudeDegrees>
            </Position>
            <AltitudeMeters>-39.200000762939453125</AltitudeMeters>
            <DistanceMeters>4449.545385734</DistanceMeters>
          </Trackpoint>
          <Trackpoint>
            <Time>2022-09-24T14:16:08.000Z</Time>
            <Position>
              <LatitudeDegrees>43.26972532086074352264404296875</LatitudeDegrees>
              <LongitudeDegrees>-2.94106389395892620086669921875</LongitudeDegrees>
            </Position>
            <AltitudeMeters>-39.200000762939453125</AltitudeMeters>
            <DistanceMeters>4457.8519382143</DistanceMeters>
          </Trackpoint>
          <Trackpoint>
            <Time>2022-09-24T14:16:09.000Z</Time>
            <Position>
              <LatitudeDegrees>43.2697577588260173797607421875</LatitudeDegrees>
              <LongitudeDegrees>-2.9409679211676120758056640625</LongitudeDegrees>
            </Position>
            <AltitudeMeters>-39.200000762939453125</AltitudeMeters>
            <DistanceMeters>4466.4270132859</DistanceMeters>
          </Trackpoint>
          <Trackpoint>
            <Time>2022-09-24T14:16:10.000Z</Time>
            <Position>
              <LatitudeDegrees>43.26979740522801876068115234375</LatitudeDegrees>
              <LongitudeDegrees>-2.94084596447646617889404296875</LongitudeDegrees>
            </Position>
            <AltitudeMeters>-39.200000762939453125</AltitudeMeters>
            <DistanceMeters>4477.2513027249</DistanceMeters>
          </Trackpoint>
          <Trackpoint>
            <Time>2022-09-24T14:16:11.000Z</Time>
            <Position>
              <LatitudeDegrees>43.26984803192317485809326171875</LatitudeDegrees>
              <LongitudeDegrees>-2.94073984958231449127197265625</LongitudeDegrees>
            </Position>
            <AltitudeMeters>-39.200000762939453125</AltitudeMeters>
            <DistanceMeters>4487.5326486899</DistanceMeters>
          </Trackpoint>
          <Trackpoint>
            <Time>2022-09-24T14:16:12.000Z</Time>
            <Position>
              <LatitudeDegrees>43.26990167610347270965576171875</LatitudeDegrees>
              <LongitudeDegrees>-2.94064052402973175048828125</LongitudeDegrees>
            </Position>
            <AltitudeMeters>-39.200000762939453125</AltitudeMeters>
            <DistanceMeters>4497.5551518884</DistanceMeters>
          </Trackpoint>
          <Trackpoint>
            <Time>2022-09-24T14:16:13.000Z</Time>
            <Position>
              <LatitudeDegrees>43.26994023285806179046630859375</LatitudeDegrees>
              <LongitudeDegrees>-2.9405360855162143707275390625</LongitudeDegrees>
            </Position>
            <AltitudeMeters>-39.200000762939453125</AltitudeMeters>
            <DistanceMeters>4507.0449860479</DistanceMeters>
          </Trackpoint>
          <Trackpoint>
            <Time>2022-09-24T14:16:14.000Z</Time>
            <Position>
              <LatitudeDegrees>43.26997040770947933197021484375</LatitudeDegrees>
              <LongitudeDegrees>-2.9404274560511112213134765625</LongitudeDegrees>
            </Position>
            <AltitudeMeters>-39.200000762939453125</AltitudeMeters>
            <DistanceMeters>4516.4674969445</DistanceMeters>
          </Trackpoint>
          <Trackpoint>
            <Time>2022-09-24T14:16:15.000Z</Time>
            <Position>
              <LatitudeDegrees>43.26995498500764369964599609375</LatitudeDegrees>
              <LongitudeDegrees>-2.94033047743141651153564453125</LongitudeDegrees>
            </Position>
            <AltitudeMeters>-39.200000762939453125</AltitudeMeters>
            <DistanceMeters>4524.5117202009</DistanceMeters>
          </Trackpoint>
          <Trackpoint>
            <Time>2022-09-24T14:16:16.000Z</Time>
            <Position>
              <LatitudeDegrees>43.269969485700130462646484375</LatitudeDegrees>
              <LongitudeDegrees>-2.94023685157299041748046875</LongitudeDegrees>
            </Position>
            <AltitudeMeters>-39.200000762939453125</AltitudeMeters>
            <DistanceMeters>4532.2696490159</DistanceMeters>
          </Trackpoint>
          <Trackpoint>
            <Time>2022-09-24T14:16:17.000Z</Time>
            <Position>
              <LatitudeDegrees>43.2699760235846042633056640625</LatitudeDegrees>
              <LongitudeDegrees>-2.9400940239429473876953125</LongitudeDegrees>
            </Position>
            <AltitudeMeters>-39.200000762939453125</AltitudeMeters>
            <DistanceMeters>4543.86835924</DistanceMeters>
          </Trackpoint>
          <Trackpoint>
            <Time>2022-09-24T14:16:18.000Z</Time>
            <Position>
              <LatitudeDegrees>43.26999505050480365753173828125</LatitudeDegrees>
              <LongitudeDegrees>-2.93997424654662609100341796875</LongitudeDegrees>
            </Position>
            <AltitudeMeters>-39.200000762939453125</AltitudeMeters>
            <DistanceMeters>4553.8039918663</DistanceMeters>
          </Trackpoint>
          <Trackpoint>
            <Time>2022-09-24T14:16:19.000Z</Time>
            <Position>
              <LatitudeDegrees>43.26999505050480365753173828125</LatitudeDegrees>
              <LongitudeDegrees>-2.93997424654662609100341796875</LongitudeDegrees>
            </Position>
            <AltitudeMeters>-39.40000152587890625</AltitudeMeters>
            <DistanceMeters>4553.8990185807</DistanceMeters>
          </Trackpoint>
          <Trackpoint>
            <Time>2022-09-24T14:16:20.000Z</Time>
            <Position>
              <LatitudeDegrees>43.27001877129077911376953125</LatitudeDegrees>
              <LongitudeDegrees>-2.93973737396299839019775390625</LongitudeDegrees>
            </Position>
            <AltitudeMeters>-39.40000152587890625</AltitudeMeters>
            <DistanceMeters>4573.2765478012</DistanceMeters>
          </Trackpoint>
          <Trackpoint>
            <Time>2022-09-24T14:16:21.000Z</Time>
            <Position>
              <LatitudeDegrees>43.2700353674590587615966796875</LatitudeDegrees>
              <LongitudeDegrees>-2.9396010003983974456787109375</LongitudeDegrees>
            </Position>
            <AltitudeMeters>-39.799999237060546875</AltitudeMeters>
            <DistanceMeters>4584.4816440916</DistanceMeters>
          </Trackpoint>
          <Trackpoint>
            <Time>2022-09-24T14:16:22.000Z</Time>
            <Position>
              <LatitudeDegrees>43.2700501196086406707763671875</LatitudeDegrees>
              <LongitudeDegrees>-2.9395151697099208831787109375</LongitudeDegrees>
            </Position>
            <AltitudeMeters>-39.799999237060546875</AltitudeMeters>
            <DistanceMeters>4591.62825954</DistanceMeters>
          </Trackpoint>
          <Trackpoint>
            <Time>2022-09-24T14:16:23.000Z</Time>
            <Position>
              <LatitudeDegrees>43.27006864361464977264404296875</LatitudeDegrees>
              <LongitudeDegrees>-2.93940930627286434173583984375</LongitudeDegrees>
            </Position>
            <AltitudeMeters>-40.200000762939453125</AltitudeMeters>
            <DistanceMeters>4600.4519389935</DistanceMeters>
          </Trackpoint>
          <Trackpoint>
            <Time>2022-09-24T14:16:24.000Z</Time>
            <Position>
              <LatitudeDegrees>43.2700890116393566131591796875</LatitudeDegrees>
              <LongitudeDegrees>-2.9392747767269611358642578125</LongitudeDegrees>
            </Position>
            <AltitudeMeters>-40.200000762939453125</AltitudeMeters>
            <DistanceMeters>4611.5875130573</DistanceMeters>
          </Trackpoint>
          <Trackpoint>
            <Time>2022-09-24T14:16:25.000Z</Time>
            <Position>
              <LatitudeDegrees>43.27010887674987316131591796875</LatitudeDegrees>
              <LongitudeDegrees>-2.93916304595768451690673828125</LongitudeDegrees>
            </Position>
            <AltitudeMeters>-40.200000762939453125</AltitudeMeters>
            <DistanceMeters>4620.9088539234</DistanceMeters>
          </Trackpoint>
          <Trackpoint>
            <Time>2022-09-24T14:16:26.000Z</Time>
            <Position>
              <LatitudeDegrees>43.27012781985104084014892578125</LatitudeDegrees>
              <LongitudeDegrees>-2.9390474595129489898681640625</LongitudeDegrees>
            </Position>
            <AltitudeMeters>-39.40000152587890625</AltitudeMeters>
            <DistanceMeters>4630.5112552153</DistanceMeters>
          </Trackpoint>
          <Trackpoint>
            <Time>2022-09-24T14:16:27.000Z</Time>
            <Position>
              <LatitudeDegrees>43.270141817629337310791015625</LatitudeDegrees>
              <LongitudeDegrees>-2.9389381594955921173095703125</LongitudeDegrees>
            </Position>
            <AltitudeMeters>-39.40000152587890625</AltitudeMeters>
            <DistanceMeters>4639.5052212362</DistanceMeters>
          </Trackpoint>
          <Trackpoint>
            <Time>2022-09-24T14:16:28.000Z</Time>
            <Position>
              <LatitudeDegrees>43.2701496966183185577392578125</LatitudeDegrees>
              <LongitudeDegrees>-2.93884688057005405426025390625</LongitudeDegrees>
            </Position>
            <AltitudeMeters>-39.200000762939453125</AltitudeMeters>
            <DistanceMeters>4646.9537640246</DistanceMeters>
          </Trackpoint>
          <Trackpoint>
            <Time>2022-09-24T14:16:29.000Z</Time>
            <Position>
              <LatitudeDegrees>43.27016453258693218231201171875</LatitudeDegrees>
              <LongitudeDegrees>-2.9387121833860874176025390625</LongitudeDegrees>
            </Position>
            <AltitudeMeters>-39.40000152587890625</AltitudeMeters>
            <DistanceMeters>4657.9940526006</DistanceMeters>
          </Trackpoint>
          <Trackpoint>
            <Time>2022-09-24T14:16:30.000Z</Time>
            <Position>
              <LatitudeDegrees>43.27017811127007007598876953125</LatitudeDegrees>
              <LongitudeDegrees>-2.93859844096004962921142578125</LongitudeDegrees>
            </Position>
            <AltitudeMeters>-39.40000152587890625</AltitudeMeters>
            <DistanceMeters>4667.3352317916</DistanceMeters>
          </Trackpoint>
          <Trackpoint>
            <Time>2022-09-24T14:16:31.000Z</Time>
            <Position>
              <LatitudeDegrees>43.27019051648676395416259765625</LatitudeDegrees>
              <LongitudeDegrees>-2.93848528526723384857177734375</LongitudeDegrees>
            </Position>
            <AltitudeMeters>-39.799999237060546875</AltitudeMeters>
            <DistanceMeters>4676.6089822763</DistanceMeters>
          </Trackpoint>
          <Trackpoint>
            <Time>2022-09-24T14:16:32.000Z</Time>
            <Position>
              <LatitudeDegrees>43.27019806019961833953857421875</LatitudeDegrees>
              <LongitudeDegrees>-2.9383725486695766448974609375</LongitudeDegrees>
            </Position>
            <AltitudeMeters>-39.799999237060546875</AltitudeMeters>
            <DistanceMeters>4685.7838595294</DistanceMeters>
          </Trackpoint>
          <Trackpoint>
            <Time>2022-09-24T14:16:33.000Z</Time>
            <Position>
              <LatitudeDegrees>43.27020091004669666290283203125</LatitudeDegrees>
              <LongitudeDegrees>-2.93828378431499004364013671875</LongitudeDegrees>
            </Position>
            <AltitudeMeters>-39.799999237060546875</AltitudeMeters>
            <DistanceMeters>4692.9846024731</DistanceMeters>
          </Trackpoint>
          <Trackpoint>
            <Time>2022-09-24T14:16:34.000Z</Time>
            <Position>
              <LatitudeDegrees>43.27020443044602870941162109375</LatitudeDegrees>
              <LongitudeDegrees>-2.93815009295940399169921875</LongitudeDegrees>
            </Position>
            <AltitudeMeters>-39.799999237060546875</AltitudeMeters>
            <DistanceMeters>4703.8259803834</DistanceMeters>
          </Trackpoint>
          <Trackpoint>
            <Time>2022-09-24T14:16:35.000Z</Time>
            <Position>
              <LatitudeDegrees>43.27020443044602870941162109375</LatitudeDegrees>
              <LongitudeDegrees>-2.93815009295940399169921875</LongitudeDegrees>
            </Position>
            <AltitudeMeters>-39.799999237060546875</AltitudeMeters>
            <DistanceMeters>4703.8259803834</DistanceMeters>
          </Trackpoint>
          <Trackpoint>
            <Time>2022-09-24T14:16:36.000Z</Time>
            <Position>
              <LatitudeDegrees>43.27020694501698017120361328125</LatitudeDegrees>
              <LongitudeDegrees>-2.93803878128528594970703125</LongitudeDegrees>
            </Position>
            <AltitudeMeters>-39.799999237060546875</AltitudeMeters>
            <DistanceMeters>4712.8510171991</DistanceMeters>
          </Trackpoint>
          <Trackpoint>
            <Time>2022-09-24T14:16:37.000Z</Time>
            <Position>
              <LatitudeDegrees>43.27021264471113681793212890625</LatitudeDegrees>
              <LongitudeDegrees>-2.93781355954706668853759765625</LongitudeDegrees>
            </Position>
            <AltitudeMeters>-39.40000152587890625</AltitudeMeters>
            <DistanceMeters>4731.1146968329</DistanceMeters>
          </Trackpoint>
          <Trackpoint>
            <Time>2022-09-24T14:16:38.000Z</Time>
            <Position>
              <LatitudeDegrees>43.27021599747240543365478515625</LatitudeDegrees>
              <LongitudeDegrees>-2.93770761229097843170166015625</LongitudeDegrees>
            </Position>
            <AltitudeMeters>-39.40000152587890625</AltitudeMeters>
            <DistanceMeters>4739.7087060972</DistanceMeters>
          </Trackpoint>
          <Trackpoint>
            <Time>2022-09-24T14:16:39.000Z</Time>
            <Position>
              <LatitudeDegrees>43.270214907824993133544921875</LatitudeDegrees>
              <LongitudeDegrees>-2.93760024011135101318359375</LongitudeDegrees>
            </Position>
            <AltitudeMeters>-39.40000152587890625</AltitudeMeters>
            <DistanceMeters>4748.4113063486</DistanceMeters>
          </Trackpoint>
          <Trackpoint>
            <Time>2022-09-24T14:16:40.000Z</Time>
            <Position>
              <LatitudeDegrees>43.27021700330078601837158203125</LatitudeDegrees>
              <LongitudeDegrees>-2.93749471195042133331298828125</LongitudeDegrees>
            </Position>
            <AltitudeMeters>-39.40000152587890625</AltitudeMeters>
            <DistanceMeters>4756.9668776126</DistanceMeters>
          </Trackpoint>
          <Trackpoint>
            <Time>2022-09-24T14:16:41.000Z</Time>
            <Position>
              <LatitudeDegrees>43.27021968550980091094970703125</LatitudeDegrees>
              <LongitudeDegrees>-2.9373861663043498992919921875</LongitudeDegrees>
            </Position>
            <AltitudeMeters>-39.40000152587890625</AltitudeMeters>
            <DistanceMeters>4765.7690396135</DistanceMeters>
          </Trackpoint>
          <Trackpoint>
            <Time>2022-09-24T14:16:42.000Z</Time>
            <Position>
              <LatitudeDegrees>43.2702219486236572265625</LatitudeDegrees>
              <LongitudeDegrees>-2.93727728538215160369873046875</LongitudeDegrees>
            </Position>
            <AltitudeMeters>-39.40000152587890625</AltitudeMeters>
            <DistanceMeters>4774.596811683</DistanceMeters>
          </Trackpoint>
          <Trackpoint>
            <Time>2022-09-24T14:16:43.000Z</Time>
            <Position>
              <LatitudeDegrees>43.27022303827106952667236328125</LatitudeDegrees>
              <LongitudeDegrees>-2.9371689073741436004638671875</LongitudeDegrees>
            </Position>
            <AltitudeMeters>-39.40000152587890625</AltitudeMeters>
            <DistanceMeters>4783.3815161908</DistanceMeters>
          </Trackpoint>
          <Trackpoint>
            <Time>2022-09-24T14:16:44.000Z</Time>
            <Position>
              <LatitudeDegrees>43.27022396028041839599609375</LatitudeDegrees>
              <LongitudeDegrees>-2.937058769166469573974609375</LongitudeDegrees>
            </Position>
            <AltitudeMeters>-39.40000152587890625</AltitudeMeters>
            <DistanceMeters>4792.3079597459</DistanceMeters>
          </Trackpoint>
          <Trackpoint>
            <Time>2022-09-24T14:16:45.000Z</Time>
            <Position>
              <LatitudeDegrees>43.27022404409945011138916015625</LatitudeDegrees>
              <LongitudeDegrees>-2.9369533248245716094970703125</LongitudeDegrees>
            </Position>
            <AltitudeMeters>-39.40000152587890625</AltitudeMeters>
            <DistanceMeters>4800.8529698761</DistanceMeters>
          </Trackpoint>
          <Trackpoint>
            <Time>2022-09-24T14:16:46.000Z</Time>
            <Position>
              <LatitudeDegrees>43.2702241279184818267822265625</LatitudeDegrees>
              <LongitudeDegrees>-2.93685249052941799163818359375</LongitudeDegrees>
            </Position>
            <AltitudeMeters>-39.200000762939453125</AltitudeMeters>
            <DistanceMeters>4809.0247148124</DistanceMeters>
          </Trackpoint>
          <Trackpoint>
            <Time>2022-09-24T14:16:47.000Z</Time>
            <Position>
              <LatitudeDegrees>43.27022396028041839599609375</LatitudeDegrees>
              <LongitudeDegrees>-2.936751656234264373779296875</LongitudeDegrees>
            </Position>
            <AltitudeMeters>-39.200000762939453125</AltitudeMeters>
            <DistanceMeters>4817.1959072117</DistanceMeters>
          </Trackpoint>
          <Trackpoint>
            <Time>2022-09-24T14:16:48.000Z</Time>
            <Position>
              <LatitudeDegrees>43.27022354118525981903076171875</LatitudeDegrees>
              <LongitudeDegrees>-2.93664612807333469390869140625</LongitudeDegrees>
            </Position>
            <AltitudeMeters>-39</AltitudeMeters>
            <DistanceMeters>4825.7472555874</DistanceMeters>
          </Trackpoint>
          <Trackpoint>
            <Time>2022-09-24T14:16:49.000Z</Time>
            <Position>
              <LatitudeDegrees>43.27022739686071872711181640625</LatitudeDegrees>
              <LongitudeDegrees>-2.9365509934723377227783203125</LongitudeDegrees>
            </Position>
            <AltitudeMeters>-39</AltitudeMeters>
            <DistanceMeters>4833.4690167052</DistanceMeters>
          </Trackpoint>
          <Trackpoint>
            <Time>2022-09-24T14:16:50.000Z</Time>
            <Position>
              <LatitudeDegrees>43.27022437937557697296142578125</LatitudeDegrees>
              <LongitudeDegrees>-2.936453260481357574462890625</LongitudeDegrees>
            </Position>
            <AltitudeMeters>-39</AltitudeMeters>
            <DistanceMeters>4841.3967737682</DistanceMeters>
          </Trackpoint>
          <Trackpoint>
            <Time>2022-09-24T14:16:51.000Z</Time>
            <Position>
              <LatitudeDegrees>43.2702207751572132110595703125</LatitudeDegrees>
              <LongitudeDegrees>-2.93637019582092761993408203125</LongitudeDegrees>
            </Position>
            <AltitudeMeters>-39</AltitudeMeters>
            <DistanceMeters>4848.141662583</DistanceMeters>
          </Trackpoint>
          <Trackpoint>
            <Time>2022-09-24T14:16:52.000Z</Time>
            <Position>
              <LatitudeDegrees>43.2702190987765789031982421875</LatitudeDegrees>
              <LongitudeDegrees>-2.93626575730741024017333984375</LongitudeDegrees>
            </Position>
            <AltitudeMeters>-39.40000152587890625</AltitudeMeters>
            <DistanceMeters>4856.6070442436</DistanceMeters>
          </Trackpoint>
          <Trackpoint>
            <Time>2022-09-24T14:16:53.000Z</Time>
            <Position>
              <LatitudeDegrees>43.2702180929481983184814453125</LatitudeDegrees>
              <LongitudeDegrees>-2.936138771474361419677734375</LongitudeDegrees>
            </Position>
            <AltitudeMeters>-39.799999237060546875</AltitudeMeters>
            <DistanceMeters>4866.8984856689</DistanceMeters>
          </Trackpoint>
          <Trackpoint>
            <Time>2022-09-24T14:16:54.000Z</Time>
            <Position>
              <LatitudeDegrees>43.27020116150379180908203125</LatitudeDegrees>
              <LongitudeDegrees>-2.93602402321994304656982421875</LongitudeDegrees>
            </Position>
            <AltitudeMeters>-39.40000152587890625</AltitudeMeters>
            <DistanceMeters>4876.3868923922</DistanceMeters>
          </Trackpoint>
          <Trackpoint>
            <Time>2022-09-24T14:16:55.000Z</Time>
            <Position>
              <LatitudeDegrees>43.27018649317324161529541015625</LatitudeDegrees>
              <LongitudeDegrees>-2.9359136335551738739013671875</LongitudeDegrees>
            </Position>
            <AltitudeMeters>-39.40000152587890625</AltitudeMeters>
            <DistanceMeters>4885.4807056778</DistanceMeters>
          </Trackpoint>
          <Trackpoint>
            <Time>2022-09-24T14:16:56.000Z</Time>
            <Position>
              <LatitudeDegrees>43.27018012292683124542236328125</LatitudeDegrees>
              <LongitudeDegrees>-2.9358066804707050323486328125</LongitudeDegrees>
            </Position>
            <AltitudeMeters>-39.40000152587890625</AltitudeMeters>
            <DistanceMeters>4894.1775970934</DistanceMeters>
          </Trackpoint>
          <Trackpoint>
            <Time>2022-09-24T14:16:57.000Z</Time>
            <Position>
              <LatitudeDegrees>43.27017794363200664520263671875</LatitudeDegrees>
              <LongitudeDegrees>-2.93569855391979217529296875</LongitudeDegrees>
            </Position>
            <AltitudeMeters>-39.40000152587890625</AltitudeMeters>
            <DistanceMeters>4902.9437793034</DistanceMeters>
          </Trackpoint>
          <Trackpoint>
            <Time>2022-09-24T14:16:58.000Z</Time>
            <Position>
              <LatitudeDegrees>43.27017174102365970611572265625</LatitudeDegrees>
              <LongitudeDegrees>-2.93558900244534015655517578125</LongitudeDegrees>
            </Position>
            <AltitudeMeters>-39.40000152587890625</AltitudeMeters>
            <DistanceMeters>4911.8489537166</DistanceMeters>
          </Trackpoint>
          <Trackpoint>
            <Time>2022-09-24T14:16:59.000Z</Time>
            <Position>
              <LatitudeDegrees>43.27017174102365970611572265625</LatitudeDegrees>
              <LongitudeDegrees>-2.93558900244534015655517578125</LongitudeDegrees>
            </Position>
            <AltitudeMeters>-39.59999847412109375</AltitudeMeters>
            <DistanceMeters>4911.8489537166</DistanceMeters>
          </Trackpoint>
          <Trackpoint>
            <Time>2022-09-24T14:17:00.000Z</Time>
            <Position>
              <LatitudeDegrees>43.2701657898724079132080078125</LatitudeDegrees>
              <LongitudeDegrees>-2.93537090532481670379638671875</LongitudeDegrees>
            </Position>
            <AltitudeMeters>-39.200000762939453125</AltitudeMeters>
            <DistanceMeters>4929.5366903858</DistanceMeters>
          </Trackpoint>
          <Trackpoint>
            <Time>2022-09-24T14:17:01.000Z</Time>
            <Position>
              <LatitudeDegrees>43.27016226947307586669921875</LatitudeDegrees>
              <LongitudeDegrees>-2.93526194058358669281005859375</LongitudeDegrees>
            </Position>
            <AltitudeMeters>-39.200000762939453125</AltitudeMeters>
            <DistanceMeters>4938.3757073782</DistanceMeters>
          </Trackpoint>
          <Trackpoint>
            <Time>2022-09-24T14:17:02.000Z</Time>
            <Position>
              <LatitudeDegrees>43.27016050927340984344482421875</LatitudeDegrees>
              <LongitudeDegrees>-2.9351535625755786895751953125</LongitudeDegrees>
            </Position>
            <AltitudeMeters>-39.40000152587890625</AltitudeMeters>
            <DistanceMeters>4947.1614397577</DistanceMeters>
          </Trackpoint>
          <Trackpoint>
            <Time>2022-09-24T14:17:03.000Z</Time>
            <Position>
              <LatitudeDegrees>43.270160257816314697265625</LatitudeDegrees>
              <LongitudeDegrees>-2.93504434637725353240966796875</LongitudeDegrees>
            </Position>
            <AltitudeMeters>-39.40000152587890625</AltitudeMeters>
            <DistanceMeters>4956.0127076458</DistanceMeters>
          </Trackpoint>
          <Trackpoint>
            <Time>2022-09-24T14:17:04.000Z</Time>
            <Position>
              <LatitudeDegrees>43.2701589167118072509765625</LatitudeDegrees>
              <LongitudeDegrees>-2.93493605218827724456787109375</LongitudeDegrees>
            </Position>
            <AltitudeMeters>-39.40000152587890625</AltitudeMeters>
            <DistanceMeters>4964.7902136823</DistanceMeters>
          </Trackpoint>
          <Trackpoint>
            <Time>2022-09-24T14:17:05.000Z</Time>
            <Position>
              <LatitudeDegrees>43.2701560668647289276123046875</LatitudeDegrees>
              <LongitudeDegrees>-2.93482574634253978729248046875</LongitudeDegrees>
            </Position>
            <AltitudeMeters>-39.40000152587890625</AltitudeMeters>
            <DistanceMeters>4973.7358571721</DistanceMeters>
          </Trackpoint>
          <Trackpoint>
            <Time>2022-09-24T14:17:06.000Z</Time>
            <Position>
              <LatitudeDegrees>43.27015179209411144256591796875</LatitudeDegrees>
              <LongitudeDegrees>-2.93471359647810459136962890625</LongitudeDegrees>
            </Position>
            <AltitudeMeters>-39.40000152587890625</AltitudeMeters>
            <DistanceMeters>4982.8371148445</DistanceMeters>
          </Trackpoint>
          <Trackpoint>
            <Time>2022-09-24T14:17:07.000Z</Time>
            <Position>
              <LatitudeDegrees>43.27014726586639881134033203125</LatitudeDegrees>
              <LongitudeDegrees>-2.9345993511378765106201171875</LongitudeDegrees>
            </Position>
            <AltitudeMeters>-39.40000152587890625</AltitudeMeters>
            <DistanceMeters>4992.1094046277</DistanceMeters>
          </Trackpoint>
          <Trackpoint>
            <Time>2022-09-24T14:17:08.000Z</Time>
            <Position>
              <LatitudeDegrees>43.2701379619538784027099609375</LatitudeDegrees>
              <LongitudeDegrees>-2.9344883747398853302001953125</LongitudeDegrees>
            </Position>
            <AltitudeMeters>-39.40000152587890625</AltitudeMeters>
            <DistanceMeters>5001.1624137299</DistanceMeters>
          </Trackpoint>
          <Trackpoint>
            <Time>2022-09-24T14:17:09.000Z</Time>
            <Position>
              <LatitudeDegrees>43.27013368718326091766357421875</LatitudeDegrees>
              <LongitudeDegrees>-2.93437781743705272674560546875</LongitudeDegrees>
            </Position>
            <AltitudeMeters>-39.40000152587890625</AltitudeMeters>
            <DistanceMeters>5010.1342642314</DistanceMeters>
          </Trackpoint>
          <Trackpoint>
            <Time>2022-09-24T14:17:10.000Z</Time>
            <Position>
              <LatitudeDegrees>43.270128406584262847900390625</LatitudeDegrees>
              <LongitudeDegrees>-2.93426767922937870025634765625</LongitudeDegrees>
            </Position>
            <AltitudeMeters>-39.59999847412109375</AltitudeMeters>
            <DistanceMeters>5019.0799077212</DistanceMeters>
          </Trackpoint>
          <Trackpoint>
            <Time>2022-09-24T14:17:11.000Z</Time>
            <Position>
              <LatitudeDegrees>43.27012195251882076263427734375</LatitudeDegrees>
              <LongitudeDegrees>-2.9341577924787998199462890625</LongitudeDegrees>
            </Position>
            <AltitudeMeters>-39.40000152587890625</AltitudeMeters>
            <DistanceMeters>5028.0144404882</DistanceMeters>
          </Trackpoint>
          <Trackpoint>
            <Time>2022-09-24T14:17:12.000Z</Time>
            <Position>
              <LatitudeDegrees>43.2701160013675689697265625</LatitudeDegrees>
              <LongitudeDegrees>-2.9340471513569355010986328125</LongitudeDegrees>
            </Position>
            <AltitudeMeters>-39.40000152587890625</AltitudeMeters>
            <DistanceMeters>5037.0053939597</DistanceMeters>
          </Trackpoint>
          <Trackpoint>
            <Time>2022-09-24T14:17:13.000Z</Time>
            <Position>
              <LatitudeDegrees>43.270109631121158599853515625</LatitudeDegrees>
              <LongitudeDegrees>-2.933937013149261474609375</LongitudeDegrees>
            </Position>
            <AltitudeMeters>-39.40000152587890625</AltitudeMeters>
            <DistanceMeters>5045.9591093153</DistanceMeters>
          </Trackpoint>
          <Trackpoint>
            <Time>2022-09-24T14:17:14.000Z</Time>
            <Position>
              <LatitudeDegrees>43.270103931427001953125</LatitudeDegrees>
              <LongitudeDegrees>-2.9338337481021881103515625</LongitudeDegrees>
            </Position>
            <AltitudeMeters>-39.59999847412109375</AltitudeMeters>
            <DistanceMeters>5054.3516414876</DistanceMeters>
          </Trackpoint>
          <Trackpoint>
            <Time>2022-09-24T14:17:15.000Z</Time>
            <Position>
              <LatitudeDegrees>43.27009881846606731414794921875</LatitudeDegrees>
              <LongitudeDegrees>-2.933722101151943206787109375</LongitudeDegrees>
            </Position>
            <AltitudeMeters>-39.59999847412109375</AltitudeMeters>
            <DistanceMeters>5063.4176083854</DistanceMeters>
          </Trackpoint>
          <Trackpoint>
            <Time>2022-09-24T14:17:16.000Z</Time>
            <Position>
              <LatitudeDegrees>43.27009328640997409820556640625</LatitudeDegrees>
              <LongitudeDegrees>-2.93361020274460315704345703125</LongitudeDegrees>
            </Position>
            <AltitudeMeters>-39.200000762939453125</AltitudeMeters>
            <DistanceMeters>5072.5069521123</DistanceMeters>
          </Trackpoint>
          <Trackpoint>
            <Time>2022-09-24T14:17:17.000Z</Time>
            <Position>
              <LatitudeDegrees>43.270088844001293182373046875</LatitudeDegrees>
              <LongitudeDegrees>-2.933498136699199676513671875</LongitudeDegrees>
            </Position>
            <AltitudeMeters>-39.200000762939453125</AltitudeMeters>
            <DistanceMeters>5081.6027511635</DistanceMeters>
          </Trackpoint>
          <Trackpoint>
            <Time>2022-09-24T14:17:18.000Z</Time>
            <Position>
              <LatitudeDegrees>43.270088844001293182373046875</LatitudeDegrees>
              <LongitudeDegrees>-2.933498136699199676513671875</LongitudeDegrees>
            </Position>
            <AltitudeMeters>-39.40000152587890625</AltitudeMeters>
            <DistanceMeters>5081.6977778779</DistanceMeters>
          </Trackpoint>
          <Trackpoint>
            <Time>2022-09-24T14:17:19.000Z</Time>
            <Position>
              <LatitudeDegrees>43.27007509768009185791015625</LatitudeDegrees>
              <LongitudeDegrees>-2.933279536664485931396484375</LongitudeDegrees>
            </Position>
            <AltitudeMeters>-39.40000152587890625</AltitudeMeters>
            <DistanceMeters>5099.479711315</DistanceMeters>
          </Trackpoint>
          <Trackpoint>
            <Time>2022-09-24T14:17:20.000Z</Time>
            <Position>
              <LatitudeDegrees>43.2700682245194911956787109375</LatitudeDegrees>
              <LongitudeDegrees>-2.9331730864942073822021484375</LongitudeDegrees>
            </Position>
            <AltitudeMeters>-39.40000152587890625</AltitudeMeters>
            <DistanceMeters>5108.1401856059</DistanceMeters>
          </Trackpoint>
          <Trackpoint>
            <Time>2022-09-24T14:17:21.000Z</Time>
            <Position>
              <LatitudeDegrees>43.27006026171147823333740234375</LatitudeDegrees>
              <LongitudeDegrees>-2.93306319974362850189208984375</LongitudeDegrees>
            </Position>
            <AltitudeMeters>-39.40000152587890625</AltitudeMeters>
            <DistanceMeters>5117.0898659386</DistanceMeters>
          </Trackpoint>
          <Trackpoint>
            <Time>2022-09-24T14:17:22.000Z</Time>
            <Position>
              <LatitudeDegrees>43.2700538076460361480712890625</LatitudeDegrees>
              <LongitudeDegrees>-2.93295473791658878326416015625</LongitudeDegrees>
            </Position>
            <AltitudeMeters>-39.40000152587890625</AltitudeMeters>
            <DistanceMeters>5125.9094508772</DistanceMeters>
          </Trackpoint>
          <Trackpoint>
            <Time>2022-09-24T14:17:23.000Z</Time>
            <Position>
              <LatitudeDegrees>43.27004752121865749359130859375</LatitudeDegrees>
              <LongitudeDegrees>-2.9328453540802001953125</LongitudeDegrees>
            </Position>
            <AltitudeMeters>-39.40000152587890625</AltitudeMeters>
            <DistanceMeters>5134.8014331839</DistanceMeters>
          </Trackpoint>
          <Trackpoint>
            <Time>2022-09-24T14:17:24.000Z</Time>
            <Position>
              <LatitudeDegrees>43.2700400613248348236083984375</LatitudeDegrees>
              <LongitudeDegrees>-2.93273295275866985321044921875</LongitudeDegrees>
            </Position>
            <AltitudeMeters>-39.40000152587890625</AltitudeMeters>
            <DistanceMeters>5143.9487108297</DistanceMeters>
          </Trackpoint>
          <Trackpoint>
            <Time>2022-09-24T14:17:25.000Z</Time>
            <Position>
              <LatitudeDegrees>43.2700363732874393463134765625</LatitudeDegrees>
              <LongitudeDegrees>-2.932627759873867034912109375</LongitudeDegrees>
            </Position>
            <AltitudeMeters>-39.40000152587890625</AltitudeMeters>
            <DistanceMeters>5152.4842047668</DistanceMeters>
          </Trackpoint>
          <Trackpoint>
            <Time>2022-09-24T14:17:26.000Z</Time>
            <Position>
              <LatitudeDegrees>43.2700363732874393463134765625</LatitudeDegrees>
              <LongitudeDegrees>-2.932627759873867034912109375</LongitudeDegrees>
            </Position>
            <AltitudeMeters>-39.40000152587890625</AltitudeMeters>
            <DistanceMeters>5152.4842047668</DistanceMeters>
          </Trackpoint>
          <Trackpoint>
            <Time>2022-09-24T14:17:27.000Z</Time>
            <Position>
              <LatitudeDegrees>43.2700276561081409454345703125</LatitudeDegrees>
              <LongitudeDegrees>-2.9324203915894031524658203125</LongitudeDegrees>
            </Position>
            <AltitudeMeters>-39.40000152587890625</AltitudeMeters>
            <DistanceMeters>5169.3178861493</DistanceMeters>
          </Trackpoint>
          <Trackpoint>
            <Time>2022-09-24T14:17:28.000Z</Time>
            <Position>
              <LatitudeDegrees>43.270015753805637359619140625</LatitudeDegrees>
              <LongitudeDegrees>-2.9323124326765537261962890625</LongitudeDegrees>
            </Position>
            <AltitudeMeters>-39.200000762939453125</AltitudeMeters>
            <DistanceMeters>5178.1671133993</DistanceMeters>
          </Trackpoint>
          <Trackpoint>
            <Time>2022-09-24T14:17:29.000Z</Time>
            <Position>
              <LatitudeDegrees>43.26999756507575511932373046875</LatitudeDegrees>
              <LongitudeDegrees>-2.9322014562785625457763671875</LongitudeDegrees>
            </Position>
            <AltitudeMeters>-39</AltitudeMeters>
            <DistanceMeters>5187.3861740614</DistanceMeters>
          </Trackpoint>
          <Trackpoint>
            <Time>2022-09-24T14:17:30.000Z</Time>
            <Position>
              <LatitudeDegrees>43.269978873431682586669921875</LatitudeDegrees>
              <LongitudeDegrees>-2.93208821676671504974365234375</LongitudeDegrees>
            </Position>
            <AltitudeMeters>-39</AltitudeMeters>
            <DistanceMeters>5196.7962181425</DistanceMeters>
          </Trackpoint>
          <Trackpoint>
            <Time>2022-09-24T14:17:31.000Z</Time>
            <Position>
              <LatitudeDegrees>43.26995666138827800750732421875</LatitudeDegrees>
              <LongitudeDegrees>-2.93198101222515106201171875</LongitudeDegrees>
            </Position>
            <AltitudeMeters>-39</AltitudeMeters>
            <DistanceMeters>5205.828756029</DistanceMeters>
          </Trackpoint>
          <Trackpoint>
            <Time>2022-09-24T14:17:32.000Z</Time>
            <Position>
              <LatitudeDegrees>43.26993235386908054351806640625</LatitudeDegrees>
              <LongitudeDegrees>-2.93187883682548999786376953125</LongitudeDegrees>
            </Position>
            <AltitudeMeters>-39</AltitudeMeters>
            <DistanceMeters>5214.540171668</DistanceMeters>
          </Trackpoint>
          <Trackpoint>
            <Time>2022-09-24T14:17:33.000Z</Time>
            <Position>
              <LatitudeDegrees>43.26990469358861446380615234375</LatitudeDegrees>
              <LongitudeDegrees>-2.93177506886422634124755859375</LongitudeDegrees>
            </Position>
            <AltitudeMeters>-39</AltitudeMeters>
            <DistanceMeters>5223.4959038533</DistanceMeters>
          </Trackpoint>
          <Trackpoint>
            <Time>2022-09-24T14:17:34.000Z</Time>
            <Position>
              <LatitudeDegrees>43.26987636275589466094970703125</LatitudeDegrees>
              <LongitudeDegrees>-2.93167850933969020843505859375</LongitudeDegrees>
            </Position>
            <AltitudeMeters>-38.799999237060546875</AltitudeMeters>
            <DistanceMeters>5231.9335055673</DistanceMeters>
          </Trackpoint>
          <Trackpoint>
            <Time>2022-09-24T14:17:35.000Z</Time>
            <Position>
              <LatitudeDegrees>43.2698506303131580352783203125</LatitudeDegrees>
              <LongitudeDegrees>-2.931589744985103607177734375</LongitudeDegrees>
            </Position>
            <AltitudeMeters>-39</AltitudeMeters>
            <DistanceMeters>5239.6768709589</DistanceMeters>
          </Trackpoint>
          <Trackpoint>
            <Time>2022-09-24T14:17:36.000Z</Time>
            <Position>
              <LatitudeDegrees>43.2698234729468822479248046875</LatitudeDegrees>
              <LongitudeDegrees>-2.93149888515472412109375</LongitudeDegrees>
            </Position>
            <AltitudeMeters>-38.799999237060546875</AltitudeMeters>
            <DistanceMeters>5247.6370246262</DistanceMeters>
          </Trackpoint>
          <Trackpoint>
            <Time>2022-09-24T14:17:37.000Z</Time>
            <Position>
              <LatitudeDegrees>43.269791118800640106201171875</LatitudeDegrees>
              <LongitudeDegrees>-2.9313974641263484954833984375</LongitudeDegrees>
            </Position>
            <AltitudeMeters>-38.799999237060546875</AltitudeMeters>
            <DistanceMeters>5256.6103847355</DistanceMeters>
          </Trackpoint>
          <Trackpoint>
            <Time>2022-09-24T14:17:38.000Z</Time>
            <Position>
              <LatitudeDegrees>43.26975323259830474853515625</LatitudeDegrees>
              <LongitudeDegrees>-2.93129478581249713897705078125</LongitudeDegrees>
            </Position>
            <AltitudeMeters>-39</AltitudeMeters>
            <DistanceMeters>5265.9389884194</DistanceMeters>
          </Trackpoint>
          <Trackpoint>
            <Time>2022-09-24T14:17:39.000Z</Time>
            <Position>
              <LatitudeDegrees>43.26970822177827358245849609375</LatitudeDegrees>
              <LongitudeDegrees>-2.9311939515173435211181640625</LongitudeDegrees>
            </Position>
            <AltitudeMeters>-39</AltitudeMeters>
            <DistanceMeters>5275.5239765644</DistanceMeters>
          </Trackpoint>
          <Trackpoint>
            <Time>2022-09-24T14:17:40.000Z</Time>
            <Position>
              <LatitudeDegrees>43.2696581818163394927978515625</LatitudeDegrees>
              <LongitudeDegrees>-2.93109311722218990325927734375</LongitudeDegrees>
            </Position>
            <AltitudeMeters>-39</AltitudeMeters>
            <DistanceMeters>5285.4140619048</DistanceMeters>
          </Trackpoint>
          <Trackpoint>
            <Time>2022-09-24T14:17:41.000Z</Time>
            <Position>
              <LatitudeDegrees>43.26960244216024875640869140625</LatitudeDegrees>
              <LongitudeDegrees>-2.93099136091768741607666015625</LongitudeDegrees>
            </Position>
            <AltitudeMeters>-39</AltitudeMeters>
            <DistanceMeters>5295.7335430693</DistanceMeters>
          </Trackpoint>
          <Trackpoint>
            <Time>2022-09-24T14:17:42.000Z</Time>
            <Position>
              <LatitudeDegrees>43.26954997144639492034912109375</LatitudeDegrees>
              <LongitudeDegrees>-2.93089245446026325225830078125</LongitudeDegrees>
            </Position>
            <AltitudeMeters>-39</AltitudeMeters>
            <DistanceMeters>5305.6509818832</DistanceMeters>
          </Trackpoint>
          <Trackpoint>
            <Time>2022-09-24T14:17:43.000Z</Time>
            <Position>
              <LatitudeDegrees>43.269501440227031707763671875</LatitudeDegrees>
              <LongitudeDegrees>-2.93079287745058536529541015625</LongitudeDegrees>
            </Position>
            <AltitudeMeters>-39</AltitudeMeters>
            <DistanceMeters>5315.36139167</DistanceMeters>
          </Trackpoint>
          <Trackpoint>
            <Time>2022-09-24T14:17:44.000Z</Time>
            <Position>
              <LatitudeDegrees>43.269453160464763641357421875</LatitudeDegrees>
              <LongitudeDegrees>-2.9306928813457489013671875</LongitudeDegrees>
            </Position>
            <AltitudeMeters>-39.59999847412109375</AltitudeMeters>
            <DistanceMeters>5325.0848118691</DistanceMeters>
          </Trackpoint>
          <Trackpoint>
            <Time>2022-09-24T14:17:45.000Z</Time>
            <Position>
              <LatitudeDegrees>43.2693993486464023590087890625</LatitudeDegrees>
              <LongitudeDegrees>-2.9305944778025150299072265625</LongitudeDegrees>
            </Position>
            <AltitudeMeters>-39.59999847412109375</AltitudeMeters>
            <DistanceMeters>5335.058543473</DistanceMeters>
          </Trackpoint>
          <Trackpoint>
            <Time>2022-09-24T14:17:46.000Z</Time>
            <Position>
              <LatitudeDegrees>43.269338496029376983642578125</LatitudeDegrees>
              <LongitudeDegrees>-2.93049917556345462799072265625</LongitudeDegrees>
            </Position>
            <AltitudeMeters>-39.59999847412109375</AltitudeMeters>
            <DistanceMeters>5345.3311027123</DistanceMeters>
          </Trackpoint>
          <Trackpoint>
            <Time>2022-09-24T14:17:47.000Z</Time>
            <Position>
              <LatitudeDegrees>43.26928074471652507781982421875</LatitudeDegrees>
              <LongitudeDegrees>-2.93041166849434375762939453125</LongitudeDegrees>
            </Position>
            <AltitudeMeters>-39.59999847412109375</AltitudeMeters>
            <DistanceMeters>5354.9024205695</DistanceMeters>
          </Trackpoint>
          <Trackpoint>
            <Time>2022-09-24T14:17:48.000Z</Time>
            <Position>
              <LatitudeDegrees>43.26922073028981685638427734375</LatitudeDegrees>
              <LongitudeDegrees>-2.93032332323491573333740234375</LongitudeDegrees>
            </Position>
            <AltitudeMeters>-39.59999847412109375</AltitudeMeters>
            <DistanceMeters>5364.6943229221</DistanceMeters>
          </Trackpoint>
          <Trackpoint>
            <Time>2022-09-24T14:17:49.000Z</Time>
            <Position>
              <LatitudeDegrees>43.26915778219699859619140625</LatitudeDegrees>
              <LongitudeDegrees>-2.93023355305194854736328125</LongitudeDegrees>
            </Position>
            <AltitudeMeters>-39.799999237060546875</AltitudeMeters>
            <DistanceMeters>5374.7949072449</DistanceMeters>
          </Trackpoint>
          <Trackpoint>
            <Time>2022-09-24T14:17:50.000Z</Time>
            <Position>
              <LatitudeDegrees>43.26909030787646770477294921875</LatitudeDegrees>
              <LongitudeDegrees>-2.93014663271605968475341796875</LongitudeDegrees>
            </Position>
            <AltitudeMeters>-39.799999237060546875</AltitudeMeters>
            <DistanceMeters>5385.0916119376</DistanceMeters>
          </Trackpoint>
          <Trackpoint>
            <Time>2022-09-24T14:17:51.000Z</Time>
            <Position>
              <LatitudeDegrees>43.2690201513469219207763671875</LatitudeDegrees>
              <LongitudeDegrees>-2.9300553537905216217041015625</LongitudeDegrees>
            </Position>
            <AltitudeMeters>-39.59999847412109375</AltitudeMeters>
            <DistanceMeters>5395.8481155274</DistanceMeters>
          </Trackpoint>
          <Trackpoint>
            <Time>2022-09-24T14:17:52.000Z</Time>
            <Position>
              <LatitudeDegrees>43.2689599692821502685546875</LatitudeDegrees>
              <LongitudeDegrees>-2.92997027747333049774169921875</LongitudeDegrees>
            </Position>
            <AltitudeMeters>-39.799999237060546875</AltitudeMeters>
            <DistanceMeters>5405.4613253102</DistanceMeters>
          </Trackpoint>
          <Trackpoint>
            <Time>2022-09-24T14:17:53.000Z</Time>
            <Position>
              <LatitudeDegrees>43.26890523545444011688232421875</LatitudeDegrees>
              <LongitudeDegrees>-2.92988218367099761962890625</LongitudeDegrees>
            </Position>
            <AltitudeMeters>-39.59999847412109375</AltitudeMeters>
            <DistanceMeters>5414.8468671544</DistanceMeters>
          </Trackpoint>
          <Trackpoint>
            <Time>2022-09-24T14:17:54.000Z</Time>
            <Position>
              <LatitudeDegrees>43.26890523545444011688232421875</LatitudeDegrees>
              <LongitudeDegrees>-2.92988218367099761962890625</LongitudeDegrees>
            </Position>
            <AltitudeMeters>-39.59999847412109375</AltitudeMeters>
            <DistanceMeters>5414.8468671544</DistanceMeters>
          </Trackpoint>
          <Trackpoint>
            <Time>2022-09-24T14:17:55.000Z</Time>
            <Position>
              <LatitudeDegrees>43.2687683589756488800048828125</LatitudeDegrees>
              <LongitudeDegrees>-2.92970784008502960205078125</LongitudeDegrees>
            </Position>
            <AltitudeMeters>-39.799999237060546875</AltitudeMeters>
            <DistanceMeters>5435.625366016</DistanceMeters>
          </Trackpoint>
          <Trackpoint>
            <Time>2022-09-24T14:17:56.000Z</Time>
            <Position>
              <LatitudeDegrees>43.26870239339768886566162109375</LatitudeDegrees>
              <LongitudeDegrees>-2.92961924336850643157958984375</LongitudeDegrees>
            </Position>
            <AltitudeMeters>-39.59999847412109375</AltitudeMeters>
            <DistanceMeters>5445.8944084598</DistanceMeters>
          </Trackpoint>
          <Trackpoint>
            <Time>2022-09-24T14:17:57.000Z</Time>
            <Position>
              <LatitudeDegrees>43.26864422298967838287353515625</LatitudeDegrees>
              <LongitudeDegrees>-2.9295306466519832611083984375</LongitudeDegrees>
            </Position>
            <AltitudeMeters>-39.59999847412109375</AltitudeMeters>
            <DistanceMeters>5455.5628804873</DistanceMeters>
          </Trackpoint>
          <Trackpoint>
            <Time>2022-09-24T14:17:58.000Z</Time>
            <Position>
              <LatitudeDegrees>43.2685930095613002777099609375</LatitudeDegrees>
              <LongitudeDegrees>-2.929461412131786346435546875</LongitudeDegrees>
            </Position>
            <AltitudeMeters>-39.59999847412109375</AltitudeMeters>
            <DistanceMeters>5463.562075552</DistanceMeters>
          </Trackpoint>
          <Trackpoint>
            <Time>2022-09-24T14:17:59.000Z</Time>
            <Position>
              <LatitudeDegrees>43.268514387309551239013671875</LatitudeDegrees>
              <LongitudeDegrees>-2.92936661280691623687744140625</LongitudeDegrees>
            </Position>
            <AltitudeMeters>-39.59999847412109375</AltitudeMeters>
            <DistanceMeters>5475.2070168553</DistanceMeters>
          </Trackpoint>
          <Trackpoint>
            <Time>2022-09-24T14:18:00.000Z</Time>
            <Position>
              <LatitudeDegrees>43.2684505172073841094970703125</LatitudeDegrees>
              <LongitudeDegrees>-2.92928539216518402099609375</LongitudeDegrees>
            </Position>
            <AltitudeMeters>-39.59999847412109375</AltitudeMeters>
            <DistanceMeters>5484.8950824289</DistanceMeters>
          </Trackpoint>
          <Trackpoint>
            <Time>2022-09-24T14:18:01.000Z</Time>
            <Position>
              <LatitudeDegrees>43.26839058659970760345458984375</LatitudeDegrees>
              <LongitudeDegrees>-2.92919687926769256591796875</LongitudeDegrees>
            </Position>
            <AltitudeMeters>-39.59999847412109375</AltitudeMeters>
            <DistanceMeters>5494.6906728804</DistanceMeters>
          </Trackpoint>
          <Trackpoint>
            <Time>2022-09-24T14:18:02.000Z</Time>
            <Position>
              <LatitudeDegrees>43.26832990162074565887451171875</LatitudeDegrees>
              <LongitudeDegrees>-2.9291075281798839569091796875</LongitudeDegrees>
            </Position>
            <AltitudeMeters>-39.59999847412109375</AltitudeMeters>
            <DistanceMeters>5504.5935325776</DistanceMeters>
          </Trackpoint>
          <Trackpoint>
            <Time>2022-09-24T14:18:03.000Z</Time>
            <Position>
              <LatitudeDegrees>43.26826770789921283721923828125</LatitudeDegrees>
              <LongitudeDegrees>-2.92902429588139057159423828125</LongitudeDegrees>
            </Position>
            <AltitudeMeters>-39.59999847412109375</AltitudeMeters>
            <DistanceMeters>5514.2587351524</DistanceMeters>
          </Trackpoint>
          <Trackpoint>
            <Time>2022-09-24T14:18:04.000Z</Time>
            <Position>
              <LatitudeDegrees>43.268207609653472900390625</LatitudeDegrees>
              <LongitudeDegrees>-2.92893209494650363922119140625</LongitudeDegrees>
            </Position>
            <AltitudeMeters>-39.59999847412109375</AltitudeMeters>
            <DistanceMeters>5524.2875432288</DistanceMeters>
          </Trackpoint>
          <Trackpoint>
            <Time>2022-09-24T14:18:05.000Z</Time>
            <Position>
              <LatitudeDegrees>43.26813854277133941650390625</LatitudeDegrees>
              <LongitudeDegrees>-2.92884006164968013763427734375</LongitudeDegrees>
            </Position>
            <AltitudeMeters>-39.59999847412109375</AltitudeMeters>
            <DistanceMeters>5534.9986179284</DistanceMeters>
          </Trackpoint>
          <Trackpoint>
            <Time>2022-09-24T14:18:06.000Z</Time>
            <Position>
              <LatitudeDegrees>43.268067128956317901611328125</LatitudeDegrees>
              <LongitudeDegrees>-2.928749956190586090087890625</LongitudeDegrees>
            </Position>
            <AltitudeMeters>-40</AltitudeMeters>
            <DistanceMeters>5545.7924145857</DistanceMeters>
          </Trackpoint>
          <Trackpoint>
            <Time>2022-09-24T14:18:07.000Z</Time>
            <Position>
              <LatitudeDegrees>43.26797819696366786956787109375</LatitudeDegrees>
              <LongitudeDegrees>-2.92866169475018978118896484375</LongitudeDegrees>
            </Position>
            <AltitudeMeters>-39.59999847412109375</AltitudeMeters>
            <DistanceMeters>5558.0047338801</DistanceMeters>
          </Trackpoint>
          <Trackpoint>
            <Time>2022-09-24T14:18:08.000Z</Time>
            <Position>
              <LatitudeDegrees>43.26790460385382175445556640625</LatitudeDegrees>
              <LongitudeDegrees>-2.92857217602431774139404296875</LongitudeDegrees>
            </Position>
            <AltitudeMeters>-39.59999847412109375</AltitudeMeters>
            <DistanceMeters>5568.946844443</DistanceMeters>
          </Trackpoint>
          <Trackpoint>
            <Time>2022-09-24T14:18:09.000Z</Time>
            <Position>
              <LatitudeDegrees>43.26785531826317310333251953125</LatitudeDegrees>
              <LongitudeDegrees>-2.9284758679568767547607421875</LongitudeDegrees>
            </Position>
            <AltitudeMeters>-39.59999847412109375</AltitudeMeters>
            <DistanceMeters>5578.4865043113</DistanceMeters>
          </Trackpoint>
          <Trackpoint>
            <Time>2022-09-24T14:18:10.000Z</Time>
            <Position>
              <LatitudeDegrees>43.26780636794865131378173828125</LatitudeDegrees>
              <LongitudeDegrees>-2.92839045636355876922607421875</LongitudeDegrees>
            </Position>
            <AltitudeMeters>-39.59999847412109375</AltitudeMeters>
            <DistanceMeters>5587.2958446361</DistanceMeters>
          </Trackpoint>
          <Trackpoint>
            <Time>2022-09-24T14:18:11.000Z</Time>
            <Position>
              <LatitudeDegrees>43.26776496134698390960693359375</LatitudeDegrees>
              <LongitudeDegrees>-2.928309738636016845703125</LongitudeDegrees>
            </Position>
            <AltitudeMeters>-39.59999847412109375</AltitudeMeters>
            <DistanceMeters>5595.2984256036</DistanceMeters>
          </Trackpoint>
          <Trackpoint>
            <Time>2022-09-24T14:18:12.000Z</Time>
            <Position>
              <LatitudeDegrees>43.26772070489823818206787109375</LatitudeDegrees>
              <LongitudeDegrees>-2.92823321186006069183349609375</LongitudeDegrees>
            </Position>
            <AltitudeMeters>-39.40000152587890625</AltitudeMeters>
            <DistanceMeters>5603.2182053341</DistanceMeters>
          </Trackpoint>
          <Trackpoint>
            <Time>2022-09-24T14:18:13.000Z</Time>
            <Position>
              <LatitudeDegrees>43.267670832574367523193359375</LatitudeDegrees>
              <LongitudeDegrees>-2.928158529102802276611328125</LongitudeDegrees>
            </Position>
            <AltitudeMeters>-39.200000762939453125</AltitudeMeters>
            <DistanceMeters>5611.4301850518</DistanceMeters>
          </Trackpoint>
          <Trackpoint>
            <Time>2022-09-24T14:18:14.000Z</Time>
            <Position>
              <LatitudeDegrees>43.2676056213676929473876953125</LatitudeDegrees>
              <LongitudeDegrees>-2.9280849359929561614990234375</LongitudeDegrees>
            </Position>
            <AltitudeMeters>-39.40000152587890625</AltitudeMeters>
            <DistanceMeters>5620.8248626494</DistanceMeters>
          </Trackpoint>
          <Trackpoint>
            <Time>2022-09-24T14:18:15.000Z</Time>
            <Position>
              <LatitudeDegrees>43.2675357162952423095703125</LatitudeDegrees>
              <LongitudeDegrees>-2.928008325397968292236328125</LongitudeDegrees>
            </Position>
            <AltitudeMeters>-39.40000152587890625</AltitudeMeters>
            <DistanceMeters>5630.7791094225</DistanceMeters>
          </Trackpoint>
          <Trackpoint>
            <Time>2022-09-24T14:18:16.000Z</Time>
            <Position>
              <LatitudeDegrees>43.2674554176628589630126953125</LatitudeDegrees>
              <LongitudeDegrees>-2.9279340617358684539794921875</LongitudeDegrees>
            </Position>
            <AltitudeMeters>-39.200000762939453125</AltitudeMeters>
            <DistanceMeters>5641.5544851893</DistanceMeters>
          </Trackpoint>
          <Trackpoint>
            <Time>2022-09-24T14:18:17.000Z</Time>
            <Position>
              <LatitudeDegrees>43.26738425530493259429931640625</LatitudeDegrees>
              <LongitudeDegrees>-2.9278472252190113067626953125</LongitudeDegrees>
            </Position>
            <AltitudeMeters>-39.200000762939453125</AltitudeMeters>
            <DistanceMeters>5652.1502834333</DistanceMeters>
          </Trackpoint>
          <Trackpoint>
            <Time>2022-09-24T14:18:18.000Z</Time>
            <Position>
              <LatitudeDegrees>43.26731602661311626434326171875</LatitudeDegrees>
              <LongitudeDegrees>-2.92775158770382404327392578125</LongitudeDegrees>
            </Position>
            <AltitudeMeters>-39.200000762939453125</AltitudeMeters>
            <DistanceMeters>5663.0012357764</DistanceMeters>
          </Trackpoint>
          <Trackpoint>
            <Time>2022-09-24T14:18:19.000Z</Time>
            <Position>
              <LatitudeDegrees>43.2672435231506824493408203125</LatitudeDegrees>
              <LongitudeDegrees>-2.92767070233821868896484375</LongitudeDegrees>
            </Position>
            <AltitudeMeters>-39.200000762939453125</AltitudeMeters>
            <DistanceMeters>5673.3978705702</DistanceMeters>
          </Trackpoint>
          <Trackpoint>
            <Time>2022-09-24T14:18:20.000Z</Time>
            <Position>
              <LatitudeDegrees>43.26718510128557682037353515625</LatitudeDegrees>
              <LongitudeDegrees>-2.9275977797806262969970703125</LongitudeDegrees>
            </Position>
            <AltitudeMeters>-39.40000152587890625</AltitudeMeters>
            <DistanceMeters>5682.1846307009</DistanceMeters>
          </Trackpoint>
          <Trackpoint>
            <Time>2022-09-24T14:18:21.000Z</Time>
            <Position>
              <LatitudeDegrees>43.267113603651523590087890625</LatitudeDegrees>
              <LongitudeDegrees>-2.927509434521198272705078125</LongitudeDegrees>
            </Position>
            <AltitudeMeters>-39.200000762939453125</AltitudeMeters>
            <DistanceMeters>5692.8893805847</DistanceMeters>
          </Trackpoint>
          <Trackpoint>
            <Time>2022-09-24T14:18:22.000Z</Time>
            <Position>
              <LatitudeDegrees>43.26704914681613445281982421875</LatitudeDegrees>
              <LongitudeDegrees>-2.927424274384975433349609375</LongitudeDegrees>
            </Position>
            <AltitudeMeters>-39.200000762939453125</AltitudeMeters>
            <DistanceMeters>5702.8445344746</DistanceMeters>
          </Trackpoint>
          <Trackpoint>
            <Time>2022-09-24T14:18:23.000Z</Time>
            <Position>
              <LatitudeDegrees>43.26698494143784046173095703125</LatitudeDegrees>
              <LongitudeDegrees>-2.92734020389616489410400390625</LongitudeDegrees>
            </Position>
            <AltitudeMeters>-39.200000762939453125</AltitudeMeters>
            <DistanceMeters>5712.7181713572</DistanceMeters>
          </Trackpoint>
          <Trackpoint>
            <Time>2022-09-24T14:18:24.000Z</Time>
            <Position>
              <LatitudeDegrees>43.26691587455570697784423828125</LatitudeDegrees>
              <LongitudeDegrees>-2.92727432213723659515380859375</LongitudeDegrees>
            </Position>
            <AltitudeMeters>-39.799999237060546875</AltitudeMeters>
            <DistanceMeters>5722.0776997419</DistanceMeters>
          </Trackpoint>
          <Trackpoint>
            <Time>2022-09-24T14:18:25.000Z</Time>
            <Position>
              <LatitudeDegrees>43.26684446074068546295166015625</LatitudeDegrees>
              <LongitudeDegrees>-2.9271934367716312408447265625</LongitudeDegrees>
            </Position>
            <AltitudeMeters>-39.200000762939453125</AltitudeMeters>
            <DistanceMeters>5732.3809797378</DistanceMeters>
          </Trackpoint>
          <Trackpoint>
            <Time>2022-09-24T14:18:26.000Z</Time>
            <Position>
              <LatitudeDegrees>43.2667634077370166778564453125</LatitudeDegrees>
              <LongitudeDegrees>-2.92708707042038440704345703125</LongitudeDegrees>
            </Position>
            <AltitudeMeters>-39.40000152587890625</AltitudeMeters>
            <DistanceMeters>5744.8591850624</DistanceMeters>
          </Trackpoint>
          <Trackpoint>
            <Time>2022-09-24T14:18:27.000Z</Time>
            <Position>
              <LatitudeDegrees>43.2667100988328456878662109375</LatitudeDegrees>
              <LongitudeDegrees>-2.9269994795322418212890625</LongitudeDegrees>
            </Position>
            <AltitudeMeters>-39.200000762939453125</AltitudeMeters>
            <DistanceMeters>5754.1110008092</DistanceMeters>
          </Trackpoint>
          <Trackpoint>
            <Time>2022-09-24T14:18:28.000Z</Time>
            <Position>
              <LatitudeDegrees>43.26666592620313167572021484375</LatitudeDegrees>
              <LongitudeDegrees>-2.92691926471889019012451171875</LongitudeDegrees>
            </Position>
            <AltitudeMeters>-39.200000762939453125</AltitudeMeters>
            <DistanceMeters>5762.2617230102</DistanceMeters>
          </Trackpoint>
          <Trackpoint>
            <Time>2022-09-24T14:18:29.000Z</Time>
            <Position>
              <LatitudeDegrees>43.26662418432533740997314453125</LatitudeDegrees>
              <LongitudeDegrees>-2.92684801854193210601806640625</LongitudeDegrees>
            </Position>
            <AltitudeMeters>-39.200000762939453125</AltitudeMeters>
            <DistanceMeters>5769.6731975604</DistanceMeters>
          </Trackpoint>
          <Trackpoint>
            <Time>2022-09-24T14:18:30.000Z</Time>
            <Position>
              <LatitudeDegrees>43.26656785793602466583251953125</LatitudeDegrees>
              <LongitudeDegrees>-2.92676721699535846710205078125</LongitudeDegrees>
            </Position>
            <AltitudeMeters>-39</AltitudeMeters>
            <DistanceMeters>5778.7391644583</DistanceMeters>
          </Trackpoint>
          <Trackpoint>
            <Time>2022-09-24T14:18:31.000Z</Time>
            <Position>
              <LatitudeDegrees>43.26650566421449184417724609375</LatitudeDegrees>
              <LongitudeDegrees>-2.926684319972991943359375</LongitudeDegrees>
            </Position>
            <AltitudeMeters>-38.799999237060546875</AltitudeMeters>
            <DistanceMeters>5788.3861312267</DistanceMeters>
          </Trackpoint>
          <Trackpoint>
            <Time>2022-09-24T14:18:32.000Z</Time>
            <Position>
              <LatitudeDegrees>43.266439698636531829833984375</LatitudeDegrees>
              <LongitudeDegrees>-2.92661081068217754364013671875</LongitudeDegrees>
            </Position>
            <AltitudeMeters>-38.799999237060546875</AltitudeMeters>
            <DistanceMeters>5797.8411699255</DistanceMeters>
          </Trackpoint>
          <Trackpoint>
            <Time>2022-09-24T14:18:33.000Z</Time>
            <Position>
              <LatitudeDegrees>43.26637423597276210784912109375</LatitudeDegrees>
              <LongitudeDegrees>-2.92654057033360004425048828125</LongitudeDegrees>
            </Position>
            <AltitudeMeters>-38.799999237060546875</AltitudeMeters>
            <DistanceMeters>5807.0876159331</DistanceMeters>
          </Trackpoint>
          <Trackpoint>
            <Time>2022-09-24T14:18:34.000Z</Time>
            <Position>
              <LatitudeDegrees>43.26631556265056133270263671875</LatitudeDegrees>
              <LongitudeDegrees>-2.9264658875763416290283203125</LongitudeDegrees>
            </Position>
            <AltitudeMeters>-39</AltitudeMeters>
            <DistanceMeters>5815.9912691778</DistanceMeters>
          </Trackpoint>
          <Trackpoint>
            <Time>2022-09-24T14:18:35.000Z</Time>
            <Position>
              <LatitudeDegrees>43.26625219546258449554443359375</LatitudeDegrees>
              <LongitudeDegrees>-2.9263787157833576202392578125</LongitudeDegrees>
            </Position>
            <AltitudeMeters>-38.799999237060546875</AltitudeMeters>
            <DistanceMeters>5825.9740505355</DistanceMeters>
          </Trackpoint>
          <Trackpoint>
            <Time>2022-09-24T14:18:36.000Z</Time>
            <Position>
              <LatitudeDegrees>43.26618430204689502716064453125</LatitudeDegrees>
              <LongitudeDegrees>-2.9262955673038959503173828125</LongitudeDegrees>
            </Position>
            <AltitudeMeters>-38.799999237060546875</AltitudeMeters>
            <DistanceMeters>5836.0991904292</DistanceMeters>
          </Trackpoint>
          <Trackpoint>
            <Time>2022-09-24T14:18:37.000Z</Time>
            <Position>
              <LatitudeDegrees>43.26611741445958614349365234375</LatitudeDegrees>
              <LongitudeDegrees>-2.9262094013392925262451171875</LongitudeDegrees>
            </Position>
            <AltitudeMeters>-39</AltitudeMeters>
            <DistanceMeters>5846.3069351403</DistanceMeters>
          </Trackpoint>
          <Trackpoint>
            <Time>2022-09-24T14:18:38.000Z</Time>
            <Position>
              <LatitudeDegrees>43.2660428993403911590576171875</LatitudeDegrees>
              <LongitudeDegrees>-2.92612382210791110992431640625</LongitudeDegrees>
            </Position>
            <AltitudeMeters>-39</AltitudeMeters>
            <DistanceMeters>5857.1182860962</DistanceMeters>
          </Trackpoint>
          <Trackpoint>
            <Time>2022-09-24T14:18:39.000Z</Time>
            <Position>
              <LatitudeDegrees>43.26597324572503566741943359375</LatitudeDegrees>
              <LongitudeDegrees>-2.926036231219768524169921875</LongitudeDegrees>
            </Position>
            <AltitudeMeters>-39</AltitudeMeters>
            <DistanceMeters>5867.6298043199</DistanceMeters>
          </Trackpoint>
          <Trackpoint>
            <Time>2022-09-24T14:18:40.000Z</Time>
            <Position>
              <LatitudeDegrees>43.2659156620502471923828125</LatitudeDegrees>
              <LongitudeDegrees>-2.925953753292560577392578125</LongitudeDegrees>
            </Position>
            <AltitudeMeters>-38.799999237060546875</AltitudeMeters>
            <DistanceMeters>5876.8899126299</DistanceMeters>
          </Trackpoint>
          <Trackpoint>
            <Time>2022-09-24T14:18:41.000Z</Time>
            <Position>
              <LatitudeDegrees>43.26585975475609302520751953125</LatitudeDegrees>
              <LongitudeDegrees>-2.9258781485259532928466796875</LongitudeDegrees>
            </Position>
            <AltitudeMeters>-38.799999237060546875</AltitudeMeters>
            <DistanceMeters>5885.6230693126</DistanceMeters>
          </Trackpoint>
          <Trackpoint>
            <Time>2022-09-24T14:18:42.000Z</Time>
            <Position>
              <LatitudeDegrees>43.26585975475609302520751953125</LatitudeDegrees>
              <LongitudeDegrees>-2.9258781485259532928466796875</LongitudeDegrees>
            </Position>
            <AltitudeMeters>-39</AltitudeMeters>
            <DistanceMeters>5885.6230693126</DistanceMeters>
          </Trackpoint>
          <Trackpoint>
            <Time>2022-09-24T14:18:43.000Z</Time>
            <Position>
              <LatitudeDegrees>43.2657332718372344970703125</LatitudeDegrees>
              <LongitudeDegrees>-2.92572417296469211578369140625</LongitudeDegrees>
            </Position>
            <AltitudeMeters>-39</AltitudeMeters>
            <DistanceMeters>5904.4354789401</DistanceMeters>
          </Trackpoint>
          <Trackpoint>
            <Time>2022-09-24T14:18:44.000Z</Time>
            <Position>
              <LatitudeDegrees>43.26566512696444988250732421875</LatitudeDegrees>
              <LongitudeDegrees>-2.92564018629491329193115234375</LongitudeDegrees>
            </Position>
            <AltitudeMeters>-38.59999847412109375</AltitudeMeters>
            <DistanceMeters>5914.6264018218</DistanceMeters>
          </Trackpoint>
          <Trackpoint>
            <Time>2022-09-24T14:18:45.000Z</Time>
            <Position>
              <LatitudeDegrees>43.2655949704349040985107421875</LatitudeDegrees>
              <LongitudeDegrees>-2.92556114494800567626953125</LongitudeDegrees>
            </Position>
            <AltitudeMeters>-38.59999847412109375</AltitudeMeters>
            <DistanceMeters>5924.7269861447</DistanceMeters>
          </Trackpoint>
          <Trackpoint>
            <Time>2022-09-24T14:18:46.000Z</Time>
            <Position>
              <LatitudeDegrees>43.26553084887564182281494140625</LatitudeDegrees>
              <LongitudeDegrees>-2.9255002923309803009033203125</LongitudeDegrees>
            </Position>
            <AltitudeMeters>-38.59999847412109375</AltitudeMeters>
            <DistanceMeters>5933.4020456306</DistanceMeters>
          </Trackpoint>
          <Trackpoint>
            <Time>2022-09-24T14:18:47.000Z</Time>
            <Position>
              <LatitudeDegrees>43.26546714641153812408447265625</LatitudeDegrees>
              <LongitudeDegrees>-2.92544740252196788787841796875</LongitudeDegrees>
            </Position>
            <AltitudeMeters>-38.59999847412109375</AltitudeMeters>
            <DistanceMeters>5941.6873724876</DistanceMeters>
          </Trackpoint>
          <Trackpoint>
            <Time>2022-09-24T14:18:48.000Z</Time>
            <Position>
              <LatitudeDegrees>43.26540671288967132568359375</LatitudeDegrees>
              <LongitudeDegrees>-2.92539945803582668304443359375</LongitudeDegrees>
            </Position>
            <AltitudeMeters>-38.40000152587890625</AltitudeMeters>
            <DistanceMeters>5949.4551888345</DistanceMeters>
          </Trackpoint>
          <Trackpoint>
            <Time>2022-09-24T14:18:49.000Z</Time>
            <Position>
              <LatitudeDegrees>43.26535047031939029693603515625</LatitudeDegrees>
              <LongitudeDegrees>-2.92535251937806606292724609375</LongitudeDegrees>
            </Position>
            <AltitudeMeters>-38</AltitudeMeters>
            <DistanceMeters>5956.7802631843</DistanceMeters>
          </Trackpoint>
          <Trackpoint>
            <Time>2022-09-24T14:18:50.000Z</Time>
            <Position>
              <LatitudeDegrees>43.2652995921671390533447265625</LatitudeDegrees>
              <LongitudeDegrees>-2.92530901730060577392578125</LongitudeDegrees>
            </Position>
            <AltitudeMeters>-38</AltitudeMeters>
            <DistanceMeters>5963.4511114598</DistanceMeters>
          </Trackpoint>
          <Trackpoint>
            <Time>2022-09-24T14:18:51.000Z</Time>
            <Position>
              <LatitudeDegrees>43.2652995921671390533447265625</LatitudeDegrees>
              <LongitudeDegrees>-2.92530901730060577392578125</LongitudeDegrees>
            </Position>
            <AltitudeMeters>-38.40000152587890625</AltitudeMeters>
            <DistanceMeters>5963.4511114598</DistanceMeters>
          </Trackpoint>
          <Trackpoint>
            <Time>2022-09-24T14:18:52.000Z</Time>
            <Position>
              <LatitudeDegrees>43.26520278118550777435302734375</LatitudeDegrees>
              <LongitudeDegrees>-2.92521622963249683380126953125</LongitudeDegrees>
            </Position>
            <AltitudeMeters>-38.40000152587890625</AltitudeMeters>
            <DistanceMeters>5976.5916259765</DistanceMeters>
          </Trackpoint>
          <Trackpoint>
            <Time>2022-09-24T14:18:53.000Z</Time>
            <Position>
              <LatitudeDegrees>43.2651473768055438995361328125</LatitudeDegrees>
              <LongitudeDegrees>-2.92515269480645656585693359375</LongitudeDegrees>
            </Position>
            <AltitudeMeters>-38.200000762939453125</AltitudeMeters>
            <DistanceMeters>5984.6257398928</DistanceMeters>
          </Trackpoint>
          <Trackpoint>
            <Time>2022-09-24T14:18:54.000Z</Time>
            <Position>
              <LatitudeDegrees>43.26508945785462856292724609375</LatitudeDegrees>
              <LongitudeDegrees>-2.92508513666689395904541015625</LongitudeDegrees>
            </Position>
            <AltitudeMeters>-38.200000762939453125</AltitudeMeters>
            <DistanceMeters>5993.0836513129</DistanceMeters>
          </Trackpoint>
          <Trackpoint>
            <Time>2022-09-24T14:18:55.000Z</Time>
            <Position>
              <LatitudeDegrees>43.2650390826165676116943359375</LatitudeDegrees>
              <LongitudeDegrees>-2.92501757852733135223388671875</LongitudeDegrees>
            </Position>
            <AltitudeMeters>-38.200000762939453125</AltitudeMeters>
            <DistanceMeters>6000.9209072084</DistanceMeters>
          </Trackpoint>
          <Trackpoint>
            <Time>2022-09-24T14:18:56.000Z</Time>
            <Position>
              <LatitudeDegrees>43.26496540568768978118896484375</LatitudeDegrees>
              <LongitudeDegrees>-2.9249179176986217498779296875</LongitudeDegrees>
            </Position>
            <AltitudeMeters>-38.200000762939453125</AltitudeMeters>
            <DistanceMeters>6012.431306054</DistanceMeters>
          </Trackpoint>
          <Trackpoint>
            <Time>2022-09-24T14:18:57.000Z</Time>
            <Position>
              <LatitudeDegrees>43.26489851810038089752197265625</LatitudeDegrees>
              <LongitudeDegrees>-2.9248374514281749725341796875</LongitudeDegrees>
            </Position>
            <AltitudeMeters>-38.200000762939453125</AltitudeMeters>
            <DistanceMeters>6022.3286930458</DistanceMeters>
          </Trackpoint>
          <Trackpoint>
            <Time>2022-09-24T14:18:58.000Z</Time>
            <Position>
              <LatitudeDegrees>43.26483515091240406036376953125</LatitudeDegrees>
              <LongitudeDegrees>-2.92475522495806217193603515625</LongitudeDegrees>
            </Position>
            <AltitudeMeters>-38.200000762939453125</AltitudeMeters>
            <DistanceMeters>6032.0325910851</DistanceMeters>
          </Trackpoint>
          <Trackpoint>
            <Time>2022-09-24T14:18:59.000Z</Time>
            <Position>
              <LatitudeDegrees>43.26483515091240406036376953125</LatitudeDegrees>
              <LongitudeDegrees>-2.92475522495806217193603515625</LongitudeDegrees>
            </Position>
            <AltitudeMeters>-38</AltitudeMeters>
            <DistanceMeters>6032.0325910851</DistanceMeters>
          </Trackpoint>
          <Trackpoint>
            <Time>2022-09-24T14:19:00.000Z</Time>
            <Position>
              <LatitudeDegrees>43.26470439322292804718017578125</LatitudeDegrees>
              <LongitudeDegrees>-2.924589850008487701416015625</LongitudeDegrees>
            </Position>
            <AltitudeMeters>-38.200000762939453125</AltitudeMeters>
            <DistanceMeters>6051.8180110685</DistanceMeters>
          </Trackpoint>
          <Trackpoint>
            <Time>2022-09-24T14:19:01.000Z</Time>
            <Position>
              <LatitudeDegrees>43.26463423669338226318359375</LatitudeDegrees>
              <LongitudeDegrees>-2.92451248504221439361572265625</LongitudeDegrees>
            </Position>
            <AltitudeMeters>-38</AltitudeMeters>
            <DistanceMeters>6061.8324021627</DistanceMeters>
          </Trackpoint>
          <Trackpoint>
            <Time>2022-09-24T14:19:02.000Z</Time>
            <Position>
              <LatitudeDegrees>43.26455770991742610931396484375</LatitudeDegrees>
              <LongitudeDegrees>-2.9244481958448886871337890625</LongitudeDegrees>
            </Position>
            <AltitudeMeters>-38</AltitudeMeters>
            <DistanceMeters>6071.8174446773</DistanceMeters>
          </Trackpoint>
          <Trackpoint>
            <Time>2022-09-24T14:19:03.000Z</Time>
            <Position>
              <LatitudeDegrees>43.26448939740657806396484375</LatitudeDegrees>
              <LongitudeDegrees>-2.92439061217010021209716796875</LongitudeDegrees>
            </Position>
            <AltitudeMeters>-38</AltitudeMeters>
            <DistanceMeters>6080.7388287502</DistanceMeters>
          </Trackpoint>
          <Trackpoint>
            <Time>2022-09-24T14:19:04.000Z</Time>
            <Position>
              <LatitudeDegrees>43.26442636549472808837890625</LatitudeDegrees>
              <LongitudeDegrees>-2.92432137764990329742431640625</LongitudeDegrees>
            </Position>
            <AltitudeMeters>-38</AltitudeMeters>
            <DistanceMeters>6089.7227490112</DistanceMeters>
          </Trackpoint>
          <Trackpoint>
            <Time>2022-09-24T14:19:05.000Z</Time>
            <Position>
              <LatitudeDegrees>43.264378421008586883544921875</LatitudeDegrees>
              <LongitudeDegrees>-2.92425381951034069061279296875</LongitudeDegrees>
            </Position>
            <AltitudeMeters>-38</AltitudeMeters>
            <DistanceMeters>6097.3687097029</DistanceMeters>
          </Trackpoint>
          <Trackpoint>
            <Time>2022-09-24T14:19:06.000Z</Time>
            <Position>
              <LatitudeDegrees>43.26430164277553558349609375</LatitudeDegrees>
              <LongitudeDegrees>-2.92414904572069644927978515625</LongitudeDegrees>
            </Position>
            <AltitudeMeters>-38.200000762939453125</AltitudeMeters>
            <DistanceMeters>6109.4165082055</DistanceMeters>
          </Trackpoint>
          <Trackpoint>
            <Time>2022-09-24T14:19:07.000Z</Time>
            <Position>
              <LatitudeDegrees>43.26423048041760921478271484375</LatitudeDegrees>
              <LongitudeDegrees>-2.92405634187161922454833984375</LongitudeDegrees>
            </Position>
            <AltitudeMeters>-38</AltitudeMeters>
            <DistanceMeters>6120.3334193486</DistanceMeters>
          </Trackpoint>
          <Trackpoint>
            <Time>2022-09-24T14:19:08.000Z</Time>
            <Position>
              <LatitudeDegrees>43.264152444899082183837890625</LatitudeDegrees>
              <LongitudeDegrees>-2.92396380566060543060302734375</LongitudeDegrees>
            </Position>
            <AltitudeMeters>-38</AltitudeMeters>
            <DistanceMeters>6131.8084607301</DistanceMeters>
          </Trackpoint>
          <Trackpoint>
            <Time>2022-09-24T14:19:09.000Z</Time>
            <Position>
              <LatitudeDegrees>43.26408597640693187713623046875</LatitudeDegrees>
              <LongitudeDegrees>-2.9238725267350673675537109375</LongitudeDegrees>
            </Position>
            <AltitudeMeters>-37.59999847412109375</AltitudeMeters>
            <DistanceMeters>6142.2708976667</DistanceMeters>
          </Trackpoint>
          <Trackpoint>
            <Time>2022-09-24T14:19:10.000Z</Time>
            <Position>
              <LatitudeDegrees>43.26403099112212657928466796875</LatitudeDegrees>
              <LongitudeDegrees>-2.92378158308565616607666015625</LongitudeDegrees>
            </Position>
            <AltitudeMeters>-37.59999847412109375</AltitudeMeters>
            <DistanceMeters>6151.8516453961</DistanceMeters>
          </Trackpoint>
          <Trackpoint>
            <Time>2022-09-24T14:19:11.000Z</Time>
            <Position>
              <LatitudeDegrees>43.26397147960960865020751953125</LatitudeDegrees>
              <LongitudeDegrees>-2.92368586175143718719482421875</LongitudeDegrees>
            </Position>
            <AltitudeMeters>-37.59999847412109375</AltitudeMeters>
            <DistanceMeters>6162.0527532251</DistanceMeters>
          </Trackpoint>
          <Trackpoint>
            <Time>2022-09-24T14:19:12.000Z</Time>
            <Position>
              <LatitudeDegrees>43.26391666196286678314208984375</LatitudeDegrees>
              <LongitudeDegrees>-2.9235939122736454010009765625</LongitudeDegrees>
            </Position>
            <AltitudeMeters>-37.40000152587890625</AltitudeMeters>
            <DistanceMeters>6171.6847314947</DistanceMeters>
          </Trackpoint>
          <Trackpoint>
            <Time>2022-09-24T14:19:13.000Z</Time>
            <Position>
              <LatitudeDegrees>43.26386000029742717742919921875</LatitudeDegrees>
              <LongitudeDegrees>-2.92351319454610347747802734375</LongitudeDegrees>
            </Position>
            <AltitudeMeters>-37.40000152587890625</AltitudeMeters>
            <DistanceMeters>6180.7715911835</DistanceMeters>
          </Trackpoint>
          <Trackpoint>
            <Time>2022-09-24T14:19:14.000Z</Time>
            <Position>
              <LatitudeDegrees>43.26380132697522640228271484375</LatitudeDegrees>
              <LongitudeDegrees>-2.92344278655946254730224609375</LongitudeDegrees>
            </Position>
            <AltitudeMeters>-37.40000152587890625</AltitudeMeters>
            <DistanceMeters>6189.4435273355</DistanceMeters>
          </Trackpoint>
          <Trackpoint>
            <Time>2022-09-24T14:19:15.000Z</Time>
            <Position>
              <LatitudeDegrees>43.26374240219593048095703125</LatitudeDegrees>
              <LongitudeDegrees>-2.92337623424828052520751953125</LongitudeDegrees>
            </Position>
            <AltitudeMeters>-36.200000762939453125</AltitudeMeters>
            <DistanceMeters>6197.9355347826</DistanceMeters>
          </Trackpoint>
          <Trackpoint>
            <Time>2022-09-24T14:19:16.000Z</Time>
            <Position>
              <LatitudeDegrees>43.26368607580661773681640625</LatitudeDegrees>
              <LongitudeDegrees>-2.9233122803270816802978515625</LongitudeDegrees>
            </Position>
            <AltitudeMeters>-36.200000762939453125</AltitudeMeters>
            <DistanceMeters>6206.0696217077</DistanceMeters>
          </Trackpoint>
          <Trackpoint>
            <Time>2022-09-24T14:19:17.000Z</Time>
            <Position>
              <LatitudeDegrees>43.26362614519894123077392578125</LatitudeDegrees>
              <LongitudeDegrees>-2.9232495836913585662841796875</LongitudeDegrees>
            </Position>
            <AltitudeMeters>-36.200000762939453125</AltitudeMeters>
            <DistanceMeters>6214.4551571867</DistanceMeters>
          </Trackpoint>
          <Trackpoint>
            <Time>2022-09-24T14:19:18.000Z</Time>
            <Position>
              <LatitudeDegrees>43.263591863214969635009765625</LatitudeDegrees>
              <LongitudeDegrees>-2.923174314200878143310546875</LongitudeDegrees>
            </Position>
            <AltitudeMeters>-36.200000762939453125</AltitudeMeters>
            <DistanceMeters>6221.6508821904</DistanceMeters>
          </Trackpoint>
          <Trackpoint>
            <Time>2022-09-24T14:19:19.000Z</Time>
            <Position>
              <LatitudeDegrees>43.26355330646038055419921875</LatitudeDegrees>
              <LongitudeDegrees>-2.92309158481657505035400390625</LongitudeDegrees>
            </Position>
            <AltitudeMeters>-36.200000762939453125</AltitudeMeters>
            <DistanceMeters>6229.6116030424</DistanceMeters>
          </Trackpoint>
          <Trackpoint>
            <Time>2022-09-24T14:19:20.000Z</Time>
            <Position>
              <LatitudeDegrees>43.26355154626071453094482421875</LatitudeDegrees>
              <LongitudeDegrees>-2.9230457358062267303466796875</LongitudeDegrees>
            </Position>
            <AltitudeMeters>-36.200000762939453125</AltitudeMeters>
            <DistanceMeters>6233.3322356753</DistanceMeters>
          </Trackpoint>
          <Trackpoint>
            <Time>2022-09-24T14:19:21.000Z</Time>
            <Position>
              <LatitudeDegrees>43.263589181005954742431640625</LatitudeDegrees>
              <LongitudeDegrees>-2.9229820333421230316162109375</LongitudeDegrees>
            </Position>
            <AltitudeMeters>-36.40000152587890625</AltitudeMeters>
            <DistanceMeters>6239.9807110037</DistanceMeters>
          </Trackpoint>
          <Trackpoint>
            <Time>2022-09-24T14:19:22.000Z</Time>
            <Position>
              <LatitudeDegrees>43.26363704167306423187255859375</LatitudeDegrees>
              <LongitudeDegrees>-2.9229386150836944580078125</LongitudeDegrees>
            </Position>
            <AltitudeMeters>-36.40000152587890625</AltitudeMeters>
            <DistanceMeters>6246.3644978886</DistanceMeters>
          </Trackpoint>
          <Trackpoint>
            <Time>2022-09-24T14:19:23.000Z</Time>
            <Position>
              <LatitudeDegrees>43.26368968002498149871826171875</LatitudeDegrees>
              <LongitudeDegrees>-2.92289461009204387664794921875</LongitudeDegrees>
            </Position>
            <AltitudeMeters>-36.40000152587890625</AltitudeMeters>
            <DistanceMeters>6253.2242156925</DistanceMeters>
          </Trackpoint>
          <Trackpoint>
            <Time>2022-09-24T14:19:24.000Z</Time>
            <Position>
              <LatitudeDegrees>43.26374717988073825836181640625</LatitudeDegrees>
              <LongitudeDegrees>-2.922853790223598480224609375</LongitudeDegrees>
            </Position>
            <AltitudeMeters>-36.40000152587890625</AltitudeMeters>
            <DistanceMeters>6260.4287197976</DistanceMeters>
          </Trackpoint>
          <Trackpoint>
            <Time>2022-09-24T14:19:25.000Z</Time>
            <Position>
              <LatitudeDegrees>43.26374717988073825836181640625</LatitudeDegrees>
              <LongitudeDegrees>-2.922853790223598480224609375</LongitudeDegrees>
            </Position>
            <AltitudeMeters>-36.40000152587890625</AltitudeMeters>
            <DistanceMeters>6260.4287197976</DistanceMeters>
          </Trackpoint>
          <Trackpoint>
            <Time>2022-09-24T14:19:26.000Z</Time>
            <Position>
              <LatitudeDegrees>43.26386603526771068572998046875</LatitudeDegrees>
              <LongitudeDegrees>-2.92277701199054718017578125</LongitudeDegrees>
            </Position>
            <AltitudeMeters>-36.40000152587890625</AltitudeMeters>
            <DistanceMeters>6275.0480169515</DistanceMeters>
          </Trackpoint>
          <Trackpoint>
            <Time>2022-09-24T14:19:27.000Z</Time>
            <Position>
              <LatitudeDegrees>43.26392202638089656829833984375</LatitudeDegrees>
              <LongitudeDegrees>-2.92275312356650829315185546875</LongitudeDegrees>
            </Position>
            <AltitudeMeters>-36.799999237060546875</AltitudeMeters>
            <DistanceMeters>6281.5737997023</DistanceMeters>
          </Trackpoint>
          <Trackpoint>
            <Time>2022-09-24T14:19:28.000Z</Time>
            <Position>
              <LatitudeDegrees>43.263984806835651397705078125</LatitudeDegrees>
              <LongitudeDegrees>-2.92274557985365390777587890625</LongitudeDegrees>
            </Position>
            <AltitudeMeters>-36.799999237060546875</AltitudeMeters>
            <DistanceMeters>6288.5877754983</DistanceMeters>
          </Trackpoint>
          <Trackpoint>
            <Time>2022-09-24T14:19:29.000Z</Time>
            <Position>
              <LatitudeDegrees>43.2640580646693706512451171875</LatitudeDegrees>
              <LongitudeDegrees>-2.92275195010006427764892578125</LongitudeDegrees>
            </Position>
            <AltitudeMeters>-36.40000152587890625</AltitudeMeters>
            <DistanceMeters>6296.7578627116</DistanceMeters>
          </Trackpoint>
          <Trackpoint>
            <Time>2022-09-24T14:19:30.000Z</Time>
            <Position>
              <LatitudeDegrees>43.26412755064666271209716796875</LatitudeDegrees>
              <LongitudeDegrees>-2.92276737280189990997314453125</LongitudeDegrees>
            </Position>
            <AltitudeMeters>-36</AltitudeMeters>
            <DistanceMeters>6304.5922375807</DistanceMeters>
          </Trackpoint>
          <Trackpoint>
            <Time>2022-09-24T14:19:31.000Z</Time>
            <Position>
              <LatitudeDegrees>43.26419225893914699554443359375</LatitudeDegrees>
              <LongitudeDegrees>-2.922774665057659149169921875</LongitudeDegrees>
            </Position>
            <AltitudeMeters>-36.200000762939453125</AltitudeMeters>
            <DistanceMeters>6311.818642778</DistanceMeters>
          </Trackpoint>
          <Trackpoint>
            <Time>2022-09-24T14:19:32.000Z</Time>
            <Position>
              <LatitudeDegrees>43.26419225893914699554443359375</LatitudeDegrees>
              <LongitudeDegrees>-2.922774665057659149169921875</LongitudeDegrees>
            </Position>
            <AltitudeMeters>-35.799999237060546875</AltitudeMeters>
            <DistanceMeters>6311.818642778</DistanceMeters>
          </Trackpoint>
          <Trackpoint>
            <Time>2022-09-24T14:19:33.000Z</Time>
            <Position>
              <LatitudeDegrees>43.26432603411376476287841796875</LatitudeDegrees>
              <LongitudeDegrees>-2.92277575470507144927978515625</LongitudeDegrees>
            </Position>
            <AltitudeMeters>-35.799999237060546875</AltitudeMeters>
            <DistanceMeters>6326.7078461381</DistanceMeters>
          </Trackpoint>
          <Trackpoint>
            <Time>2022-09-24T14:19:34.000Z</Time>
            <Position>
              <LatitudeDegrees>43.26441186480224132537841796875</LatitudeDegrees>
              <LongitudeDegrees>-2.9227567277848720550537109375</LongitudeDegrees>
            </Position>
            <AltitudeMeters>-35.40000152587890625</AltitudeMeters>
            <DistanceMeters>6336.3847202576</DistanceMeters>
          </Trackpoint>
          <Trackpoint>
            <Time>2022-09-24T14:19:35.000Z</Time>
            <Position>
              <LatitudeDegrees>43.26447732746601104736328125</LatitudeDegrees>
              <LongitudeDegrees>-2.922716327011585235595703125</LongitudeDegrees>
            </Position>
            <AltitudeMeters>-35.200000762939453125</AltitudeMeters>
            <DistanceMeters>6344.3714880644</DistanceMeters>
          </Trackpoint>
          <Trackpoint>
            <Time>2022-09-24T14:19:36.000Z</Time>
            <Position>
              <LatitudeDegrees>43.26453759334981441497802734375</LatitudeDegrees>
              <LongitudeDegrees>-2.922677434980869293212890625</LongitudeDegrees>
            </Position>
            <AltitudeMeters>-35</AltitudeMeters>
            <DistanceMeters>6351.7823533939</DistanceMeters>
          </Trackpoint>
          <Trackpoint>
            <Time>2022-09-24T14:19:37.000Z</Time>
            <Position>
              <LatitudeDegrees>43.2645961828529834747314453125</LatitudeDegrees>
              <LongitudeDegrees>-2.92263460345566272735595703125</LongitudeDegrees>
            </Position>
            <AltitudeMeters>-35</AltitudeMeters>
            <DistanceMeters>6359.1700311094</DistanceMeters>
          </Trackpoint>
          <Trackpoint>
            <Time>2022-09-24T14:19:38.000Z</Time>
            <Position>
              <LatitudeDegrees>43.2646558620035648345947265625</LatitudeDegrees>
              <LongitudeDegrees>-2.92257727123796939849853515625</LongitudeDegrees>
            </Position>
            <AltitudeMeters>-34.40000152587890625</AltitudeMeters>
            <DistanceMeters>6367.2763167127</DistanceMeters>
          </Trackpoint>
          <Trackpoint>
            <Time>2022-09-24T14:19:39.000Z</Time>
            <Position>
              <LatitudeDegrees>43.2647001184523105621337890625</LatitudeDegrees>
              <LongitudeDegrees>-2.922535948455333709716796875</LongitudeDegrees>
            </Position>
            <AltitudeMeters>-34.200000762939453125</AltitudeMeters>
            <DistanceMeters>6373.2319980567</DistanceMeters>
          </Trackpoint>
          <Trackpoint>
            <Time>2022-09-24T14:19:40.000Z</Time>
            <Position>
              <LatitudeDegrees>43.264763988554477691650390625</LatitudeDegrees>
              <LongitudeDegrees>-2.92248557321727275848388671875</LongitudeDegrees>
            </Position>
            <AltitudeMeters>-34.200000762939453125</AltitudeMeters>
            <DistanceMeters>6381.42967022</DistanceMeters>
          </Trackpoint>
          <Trackpoint>
            <Time>2022-09-24T14:19:41.000Z</Time>
            <Position>
              <LatitudeDegrees>43.26482308097183704376220703125</LatitudeDegrees>
              <LongitudeDegrees>-2.92246378026902675628662109375</LongitudeDegrees>
            </Position>
            <AltitudeMeters>-34</AltitudeMeters>
            <DistanceMeters>6388.2398444186</DistanceMeters>
          </Trackpoint>
          <Trackpoint>
            <Time>2022-09-24T14:19:42.000Z</Time>
            <Position>
              <LatitudeDegrees>43.264870941638946533203125</LatitudeDegrees>
              <LongitudeDegrees>-2.9224583320319652557373046875</LongitudeDegrees>
            </Position>
            <AltitudeMeters>-34</AltitudeMeters>
            <DistanceMeters>6393.5850443091</DistanceMeters>
          </Trackpoint>
          <Trackpoint>
            <Time>2022-09-24T14:19:43.000Z</Time>
            <Position>
              <LatitudeDegrees>43.26490941457450389862060546875</LatitudeDegrees>
              <LongitudeDegrees>-2.922442071139812469482421875</LongitudeDegrees>
            </Position>
            <AltitudeMeters>-34</AltitudeMeters>
            <DistanceMeters>6398.0664380667</DistanceMeters>
          </Trackpoint>
          <Trackpoint>
            <Time>2022-09-24T14:19:44.000Z</Time>
            <Position>
              <LatitudeDegrees>43.2649488933384418487548828125</LatitudeDegrees>
              <LongitudeDegrees>-2.9224167577922344207763671875</LongitudeDegrees>
            </Position>
            <AltitudeMeters>-33.799999237060546875</AltitudeMeters>
            <DistanceMeters>6402.9155945975</DistanceMeters>
          </Trackpoint>
          <Trackpoint>
            <Time>2022-09-24T14:19:45.000Z</Time>
            <Position>
              <LatitudeDegrees>43.26499625109136104583740234375</LatitudeDegrees>
              <LongitudeDegrees>-2.922379039227962493896484375</LongitudeDegrees>
            </Position>
            <AltitudeMeters>-33.799999237060546875</AltitudeMeters>
            <DistanceMeters>6409.0084300837</DistanceMeters>
          </Trackpoint>
          <Trackpoint>
            <Time>2022-09-24T14:19:46.000Z</Time>
            <Position>
              <LatitudeDegrees>43.26503380201756954193115234375</LatitudeDegrees>
              <LongitudeDegrees>-2.92233503423631191253662109375</LongitudeDegrees>
            </Position>
            <AltitudeMeters>-33.59999847412109375</AltitudeMeters>
            <DistanceMeters>6414.502749473</DistanceMeters>
          </Trackpoint>
          <Trackpoint>
            <Time>2022-09-24T14:19:47.000Z</Time>
            <Position>
              <LatitudeDegrees>43.2650654017925262451171875</LatitudeDegrees>
              <LongitudeDegrees>-2.92228558100759983062744140625</LongitudeDegrees>
            </Position>
            <AltitudeMeters>-33.40000152587890625</AltitudeMeters>
            <DistanceMeters>6419.8344171901</DistanceMeters>
          </Trackpoint>
          <Trackpoint>
            <Time>2022-09-24T14:19:48.000Z</Time>
            <Position>
              <LatitudeDegrees>43.2650960795581340789794921875</LatitudeDegrees>
              <LongitudeDegrees>-2.92223629541695117950439453125</LongitudeDegrees>
            </Position>
            <AltitudeMeters>-33</AltitudeMeters>
            <DistanceMeters>6425.0893171668</DistanceMeters>
          </Trackpoint>
          <Trackpoint>
            <Time>2022-09-24T14:19:49.000Z</Time>
            <Position>
              <LatitudeDegrees>43.26512382365763187408447265625</LatitudeDegrees>
              <LongitudeDegrees>-2.922191619873046875</LongitudeDegrees>
            </Position>
            <AltitudeMeters>-32.59999847412109375</AltitudeMeters>
            <DistanceMeters>6429.8491976063</DistanceMeters>
          </Trackpoint>
          <Trackpoint>
            <Time>2022-09-24T14:19:50.000Z</Time>
            <Position>
              <LatitudeDegrees>43.265147544443607330322265625</LatitudeDegrees>
              <LongitudeDegrees>-2.9221435077488422393798828125</LongitudeDegrees>
            </Position>
            <AltitudeMeters>-32.59999847412109375</AltitudeMeters>
            <DistanceMeters>6434.5585359618</DistanceMeters>
          </Trackpoint>
          <Trackpoint>
            <Time>2022-09-24T14:19:51.000Z</Time>
            <Position>
              <LatitudeDegrees>43.26516824774444103240966796875</LatitudeDegrees>
              <LongitudeDegrees>-2.92209212668240070343017578125</LongitudeDegrees>
            </Position>
            <AltitudeMeters>-32.200000762939453125</AltitudeMeters>
            <DistanceMeters>6439.3174677454</DistanceMeters>
          </Trackpoint>
          <Trackpoint>
            <Time>2022-09-24T14:19:52.000Z</Time>
            <Position>
              <LatitudeDegrees>43.26518702320754528045654296875</LatitudeDegrees>
              <LongitudeDegrees>-2.92203404009342193603515625</LongitudeDegrees>
            </Position>
            <AltitudeMeters>-31.799999237060546875</AltitudeMeters>
            <DistanceMeters>6444.4682312415</DistanceMeters>
          </Trackpoint>
          <Trackpoint>
            <Time>2022-09-24T14:19:53.000Z</Time>
            <Position>
              <LatitudeDegrees>43.26518702320754528045654296875</LatitudeDegrees>
              <LongitudeDegrees>-2.92203404009342193603515625</LongitudeDegrees>
            </Position>
            <AltitudeMeters>-31.200000762939453125</AltitudeMeters>
            <DistanceMeters>6444.4682312415</DistanceMeters>
          </Trackpoint>
          <Trackpoint>
            <Time>2022-09-24T14:19:54.000Z</Time>
            <Position>
              <LatitudeDegrees>43.26523111201822757720947265625</LatitudeDegrees>
              <LongitudeDegrees>-2.92193152941763401031494140625</LongitudeDegrees>
            </Position>
            <AltitudeMeters>-31.200000762939453125</AltitudeMeters>
            <DistanceMeters>6454.1170699352</DistanceMeters>
          </Trackpoint>
          <Trackpoint>
            <Time>2022-09-24T14:19:55.000Z</Time>
            <Position>
              <LatitudeDegrees>43.2652509771287441253662109375</LatitudeDegrees>
              <LongitudeDegrees>-2.92187989689409732818603515625</LongitudeDegrees>
            </Position>
            <AltitudeMeters>-30.799999237060546875</AltitudeMeters>
            <DistanceMeters>6458.8493621473</DistanceMeters>
          </Trackpoint>
          <Trackpoint>
            <Time>2022-09-24T14:19:56.000Z</Time>
            <Position>
              <LatitudeDegrees>43.265268914401531219482421875</LatitudeDegrees>
              <LongitudeDegrees>-2.92182885110378265380859375</LongitudeDegrees>
            </Position>
            <AltitudeMeters>-30.3999996185302734375</AltitudeMeters>
            <DistanceMeters>6463.4422107811</DistanceMeters>
          </Trackpoint>
          <Trackpoint>
            <Time>2022-09-24T14:19:57.000Z</Time>
            <Position>
              <LatitudeDegrees>43.26528576202690601348876953125</LatitudeDegrees>
              <LongitudeDegrees>-2.9217716865241527557373046875</LongitudeDegrees>
            </Position>
            <AltitudeMeters>-30.3999996185302734375</AltitudeMeters>
            <DistanceMeters>6468.4399294051</DistanceMeters>
          </Trackpoint>
          <Trackpoint>
            <Time>2022-09-24T14:19:58.000Z</Time>
            <Position>
              <LatitudeDegrees>43.26530403457581996917724609375</LatitudeDegrees>
              <LongitudeDegrees>-2.9217128455638885498046875</LongitudeDegrees>
            </Position>
            <AltitudeMeters>-30.200000762939453125</AltitudeMeters>
            <DistanceMeters>6473.6256374233</DistanceMeters>
          </Trackpoint>
          <Trackpoint>
            <Time>2022-09-24T14:19:59.000Z</Time>
            <Position>
              <LatitudeDegrees>43.2653233967721462249755859375</LatitudeDegrees>
              <LongitudeDegrees>-2.92165442369878292083740234375</LongitudeDegrees>
            </Position>
            <AltitudeMeters>-30.200000762939453125</AltitudeMeters>
            <DistanceMeters>6478.8269938835</DistanceMeters>
          </Trackpoint>
          <Trackpoint>
            <Time>2022-09-24T14:20:00.000Z</Time>
            <Position>
              <LatitudeDegrees>43.265340663492679595947265625</LatitudeDegrees>
              <LongitudeDegrees>-2.92159139178693294525146484375</LongitudeDegrees>
            </Position>
            <AltitudeMeters>-30.200000762939453125</AltitudeMeters>
            <DistanceMeters>6484.2842085679</DistanceMeters>
          </Trackpoint>
          <Trackpoint>
            <Time>2022-09-24T14:20:01.000Z</Time>
            <Position>
              <LatitudeDegrees>43.2653569243848323822021484375</LatitudeDegrees>
              <LongitudeDegrees>-2.921529114246368408203125</LongitudeDegrees>
            </Position>
            <AltitudeMeters>-29.3999996185302734375</AltitudeMeters>
            <DistanceMeters>6489.6462756505</DistanceMeters>
          </Trackpoint>
          <Trackpoint>
            <Time>2022-09-24T14:20:02.000Z</Time>
            <Position>
              <LatitudeDegrees>43.265373520553112030029296875</LatitudeDegrees>
              <LongitudeDegrees>-2.921471782028675079345703125</LongitudeDegrees>
            </Position>
            <AltitudeMeters>-29.3999996185302734375</AltitudeMeters>
            <DistanceMeters>6494.6467037995</DistanceMeters>
          </Trackpoint>
          <Trackpoint>
            <Time>2022-09-24T14:20:03.000Z</Time>
            <Position>
              <LatitudeDegrees>43.26539254747331142425537109375</LatitudeDegrees>
              <LongitudeDegrees>-2.9214082472026348114013671875</LongitudeDegrees>
            </Position>
            <AltitudeMeters>-29.200000762939453125</AltitudeMeters>
            <DistanceMeters>6500.2153016938</DistanceMeters>
          </Trackpoint>
          <Trackpoint>
            <Time>2022-09-24T14:20:04.000Z</Time>
            <Position>
              <LatitudeDegrees>43.26541383750736713409423828125</LatitudeDegrees>
              <LongitudeDegrees>-2.9213475622236728668212890625</LongitudeDegrees>
            </Position>
            <AltitudeMeters>-29</AltitudeMeters>
            <DistanceMeters>6505.6749978704</DistanceMeters>
          </Trackpoint>
          <Trackpoint>
            <Time>2022-09-24T14:20:05.000Z</Time>
            <Position>
              <LatitudeDegrees>43.26543412171304225921630859375</LatitudeDegrees>
              <LongitudeDegrees>-2.92128696106374263763427734375</LongitudeDegrees>
            </Position>
            <AltitudeMeters>-28.3999996185302734375</AltitudeMeters>
            <DistanceMeters>6511.0806733484</DistanceMeters>
          </Trackpoint>
          <Trackpoint>
            <Time>2022-09-24T14:20:06.000Z</Time>
            <Position>
              <LatitudeDegrees>43.265453316271305084228515625</LatitudeDegrees>
              <LongitudeDegrees>-2.9212298803031444549560546875</LongitudeDegrees>
            </Position>
            <AltitudeMeters>-28.3999996185302734375</AltitudeMeters>
            <DistanceMeters>6516.1767993135</DistanceMeters>
          </Trackpoint>
          <Trackpoint>
            <Time>2022-09-24T14:20:07.000Z</Time>
            <Position>
              <LatitudeDegrees>43.2654682360589504241943359375</LatitudeDegrees>
              <LongitudeDegrees>-2.92118470184504985809326171875</LongitudeDegrees>
            </Position>
            <AltitudeMeters>-27.6000003814697265625</AltitudeMeters>
            <DistanceMeters>6520.1983496254</DistanceMeters>
          </Trackpoint>
          <Trackpoint>
            <Time>2022-09-24T14:20:08.000Z</Time>
            <Position>
              <LatitudeDegrees>43.2654826529324054718017578125</LatitudeDegrees>
              <LongitudeDegrees>-2.9211182333528995513916015625</LongitudeDegrees>
            </Position>
            <AltitudeMeters>-27.3999996185302734375</AltitudeMeters>
            <DistanceMeters>6525.8202058628</DistanceMeters>
          </Trackpoint>
          <Trackpoint>
            <Time>2022-09-24T14:20:09.000Z</Time>
            <Position>
              <LatitudeDegrees>43.2654826529324054718017578125</LatitudeDegrees>
              <LongitudeDegrees>-2.9211182333528995513916015625</LongitudeDegrees>
            </Position>
            <AltitudeMeters>-27.3999996185302734375</AltitudeMeters>
            <DistanceMeters>6525.8202058628</DistanceMeters>
          </Trackpoint>
          <Trackpoint>
            <Time>2022-09-24T14:20:10.000Z</Time>
            <Position>
              <LatitudeDegrees>43.26548407785594463348388671875</LatitudeDegrees>
              <LongitudeDegrees>-2.9209935106337070465087890625</LongitudeDegrees>
            </Position>
            <AltitudeMeters>-26.799999237060546875</AltitudeMeters>
            <DistanceMeters>6535.9306195707</DistanceMeters>
          </Trackpoint>
          <Trackpoint>
            <Time>2022-09-24T14:20:11.000Z</Time>
            <Position>
              <LatitudeDegrees>43.26547485776245594024658203125</LatitudeDegrees>
              <LongitudeDegrees>-2.9209361784160137176513671875</LongitudeDegrees>
            </Position>
            <AltitudeMeters>-26.3999996185302734375</AltitudeMeters>
            <DistanceMeters>6540.6895513544</DistanceMeters>
          </Trackpoint>
          <Trackpoint>
            <Time>2022-09-24T14:20:12.000Z</Time>
            <Position>
              <LatitudeDegrees>43.2654437609016895294189453125</LatitudeDegrees>
              <LongitudeDegrees>-2.920887060463428497314453125</LongitudeDegrees>
            </Position>
            <AltitudeMeters>-26.3999996185302734375</AltitudeMeters>
            <DistanceMeters>6545.9650319581</DistanceMeters>
          </Trackpoint>
          <Trackpoint>
            <Time>2022-09-24T14:20:13.000Z</Time>
            <Position>
              <LatitudeDegrees>43.265403695404529571533203125</LatitudeDegrees>
              <LongitudeDegrees>-2.9208469949662685394287109375</LongitudeDegrees>
            </Position>
            <AltitudeMeters>-26.3999996185302734375</AltitudeMeters>
            <DistanceMeters>6551.4823127823</DistanceMeters>
          </Trackpoint>
          <Trackpoint>
            <Time>2022-09-24T14:20:14.000Z</Time>
            <Position>
              <LatitudeDegrees>43.2653586007654666900634765625</LatitudeDegrees>
              <LongitudeDegrees>-2.92082008905708789825439453125</LongitudeDegrees>
            </Position>
            <AltitudeMeters>-26.3999996185302734375</AltitudeMeters>
            <DistanceMeters>6556.9560494987</DistanceMeters>
          </Trackpoint>
          <Trackpoint>
            <Time>2022-09-24T14:20:15.000Z</Time>
            <Position>
              <LatitudeDegrees>43.26531409285962581634521484375</LatitudeDegrees>
              <LongitudeDegrees>-2.92080852203071117401123046875</LongitudeDegrees>
            </Position>
            <AltitudeMeters>-26.200000762939453125</AltitudeMeters>
            <DistanceMeters>6561.9987368047</DistanceMeters>
          </Trackpoint>
          <Trackpoint>
            <Time>2022-09-24T14:20:16.000Z</Time>
            <Position>
              <LatitudeDegrees>43.26527318917214870452880859375</LatitudeDegrees>
              <LongitudeDegrees>-2.92082428000867366790771484375</LongitudeDegrees>
            </Position>
            <AltitudeMeters>-26.200000762939453125</AltitudeMeters>
            <DistanceMeters>6566.7272111121</DistanceMeters>
          </Trackpoint>
          <Trackpoint>
            <Time>2022-09-24T14:20:17.000Z</Time>
            <Position>
              <LatitudeDegrees>43.26527318917214870452880859375</LatitudeDegrees>
              <LongitudeDegrees>-2.92082428000867366790771484375</LongitudeDegrees>
            </Position>
            <AltitudeMeters>-26.200000762939453125</AltitudeMeters>
            <DistanceMeters>6566.7272111121</DistanceMeters>
          </Trackpoint>
          <Trackpoint>
            <Time>2022-09-24T14:20:18.000Z</Time>
            <Position>
              <LatitudeDegrees>43.26519750058650970458984375</LatitudeDegrees>
              <LongitudeDegrees>-2.920868955552577972412109375</LongitudeDegrees>
            </Position>
            <AltitudeMeters>-26.200000762939453125</AltitudeMeters>
            <DistanceMeters>6575.8966735701</DistanceMeters>
          </Trackpoint>
          <Trackpoint>
            <Time>2022-09-24T14:20:19.000Z</Time>
            <Position>
              <LatitudeDegrees>43.2651684992015361785888671875</LatitudeDegrees>
              <LongitudeDegrees>-2.920911200344562530517578125</LongitudeDegrees>
            </Position>
            <AltitudeMeters>-26.200000762939453125</AltitudeMeters>
            <DistanceMeters>6580.6021753968</DistanceMeters>
          </Trackpoint>
          <Trackpoint>
            <Time>2022-09-24T14:20:20.000Z</Time>
            <Position>
              <LatitudeDegrees>43.265147544443607330322265625</LatitudeDegrees>
              <LongitudeDegrees>-2.92096761055290699005126953125</LongitudeDegrees>
            </Position>
            <AltitudeMeters>-25.799999237060546875</AltitudeMeters>
            <DistanceMeters>6585.7353774251</DistanceMeters>
          </Trackpoint>
          <Trackpoint>
            <Time>2022-09-24T14:20:21.000Z</Time>
            <Position>
              <LatitudeDegrees>43.26512449420988559722900390625</LatitudeDegrees>
              <LongitudeDegrees>-2.921010442078113555908203125</LongitudeDegrees>
            </Position>
            <AltitudeMeters>-25</AltitudeMeters>
            <DistanceMeters>6590.0525614356</DistanceMeters>
          </Trackpoint>
          <Trackpoint>
            <Time>2022-09-24T14:20:22.000Z</Time>
            <Position>
              <LatitudeDegrees>43.26510705985128879547119140625</LatitudeDegrees>
              <LongitudeDegrees>-2.921057380735874176025390625</LongitudeDegrees>
            </Position>
            <AltitudeMeters>-24.799999237060546875</AltitudeMeters>
            <DistanceMeters>6594.3234810575</DistanceMeters>
          </Trackpoint>
          <Trackpoint>
            <Time>2022-09-24T14:20:23.000Z</Time>
            <Position>
              <LatitudeDegrees>43.26509021222591400146484375</LatitudeDegrees>
              <LongitudeDegrees>-2.92110339738428592681884765625</LongitudeDegrees>
            </Position>
            <AltitudeMeters>-24.6000003814697265625</AltitudeMeters>
            <DistanceMeters>6598.4981723678</DistanceMeters>
          </Trackpoint>
          <Trackpoint>
            <Time>2022-09-24T14:20:24.000Z</Time>
            <Position>
              <LatitudeDegrees>43.26507386751472949981689453125</LatitudeDegrees>
              <LongitudeDegrees>-2.9211474023759365081787109375</LongitudeDegrees>
            </Position>
            <AltitudeMeters>-24.3999996185302734375</AltitudeMeters>
            <DistanceMeters>6602.5039738907</DistanceMeters>
          </Trackpoint>
          <Trackpoint>
            <Time>2022-09-24T14:20:25.000Z</Time>
            <Position>
              <LatitudeDegrees>43.26506095938384532928466796875</LatitudeDegrees>
              <LongitudeDegrees>-2.92119626887142658233642578125</LongitudeDegrees>
            </Position>
            <AltitudeMeters>-24</AltitudeMeters>
            <DistanceMeters>6606.7174202579</DistanceMeters>
          </Trackpoint>
          <Trackpoint>
            <Time>2022-09-24T14:20:26.000Z</Time>
            <Position>
              <LatitudeDegrees>43.26504821889102458953857421875</LatitudeDegrees>
              <LongitudeDegrees>-2.9212453030049800872802734375</LongitudeDegrees>
            </Position>
            <AltitudeMeters>-24</AltitudeMeters>
            <DistanceMeters>6610.9372911976</DistanceMeters>
          </Trackpoint>
          <Trackpoint>
            <Time>2022-09-24T14:20:27.000Z</Time>
            <Position>
              <LatitudeDegrees>43.26503279618918895721435546875</LatitudeDegrees>
              <LongitudeDegrees>-2.921296097338199615478515625</LongitudeDegrees>
            </Position>
            <AltitudeMeters>-23.6000003814697265625</AltitudeMeters>
            <DistanceMeters>6615.3974771136</DistanceMeters>
          </Trackpoint>
          <Trackpoint>
            <Time>2022-09-24T14:20:28.000Z</Time>
            <Position>
              <LatitudeDegrees>43.26501687057316303253173828125</LatitudeDegrees>
              <LongitudeDegrees>-2.92134873569011688232421875</LongitudeDegrees>
            </Position>
            <AltitudeMeters>-23.200000762939453125</AltitudeMeters>
            <DistanceMeters>6620.0167920669</DistanceMeters>
          </Trackpoint>
          <Trackpoint>
            <Time>2022-09-24T14:20:29.000Z</Time>
            <Position>
              <LatitudeDegrees>43.264999352395534515380859375</LatitudeDegrees>
              <LongitudeDegrees>-2.9214012064039707183837890625</LongitudeDegrees>
            </Position>
            <AltitudeMeters>-22.799999237060546875</AltitudeMeters>
            <DistanceMeters>6624.6953501033</DistanceMeters>
          </Trackpoint>
          <Trackpoint>
            <Time>2022-09-24T14:20:30.000Z</Time>
            <Position>
              <LatitudeDegrees>43.264981918036937713623046875</LatitudeDegrees>
              <LongitudeDegrees>-2.9214501567184925079345703125</LongitudeDegrees>
            </Position>
            <AltitudeMeters>-22.6000003814697265625</AltitudeMeters>
            <DistanceMeters>6629.1117926897</DistanceMeters>
          </Trackpoint>
          <Trackpoint>
            <Time>2022-09-24T14:20:31.000Z</Time>
            <Position>
              <LatitudeDegrees>43.2649643160402774810791015625</LatitudeDegrees>
              <LongitudeDegrees>-2.9214977659285068511962890625</LongitudeDegrees>
            </Position>
            <AltitudeMeters>-22.200000762939453125</AltitudeMeters>
            <DistanceMeters>6633.4394223578</DistanceMeters>
          </Trackpoint>
          <Trackpoint>
            <Time>2022-09-24T14:20:32.000Z</Time>
            <Position>
              <LatitudeDegrees>43.264945037662982940673828125</LatitudeDegrees>
              <LongitudeDegrees>-2.9215447045862674713134765625</LongitudeDegrees>
            </Position>
            <AltitudeMeters>-22.200000762939453125</AltitudeMeters>
            <DistanceMeters>6637.8075514226</DistanceMeters>
          </Trackpoint>
          <Trackpoint>
            <Time>2022-09-24T14:20:33.000Z</Time>
            <Position>
              <LatitudeDegrees>43.264926932752132415771484375</LatitudeDegrees>
              <LongitudeDegrees>-2.921593822538852691650390625</LongitudeDegrees>
            </Position>
            <AltitudeMeters>-21.6000003814697265625</AltitudeMeters>
            <DistanceMeters>6642.268749522</DistanceMeters>
          </Trackpoint>
          <Trackpoint>
            <Time>2022-09-24T14:20:34.000Z</Time>
            <Position>
              <LatitudeDegrees>43.2649076543748378753662109375</LatitudeDegrees>
              <LongitudeDegrees>-2.9216422699391841888427734375</LongitudeDegrees>
            </Position>
            <AltitudeMeters>-21.6000003814697265625</AltitudeMeters>
            <DistanceMeters>6646.7430851684</DistanceMeters>
          </Trackpoint>
          <Trackpoint>
            <Time>2022-09-24T14:20:35.000Z</Time>
            <Position>
              <LatitudeDegrees>43.2648892141878604888916015625</LatitudeDegrees>
              <LongitudeDegrees>-2.921689040958881378173828125</LongitudeDegrees>
            </Position>
            <AltitudeMeters>-21.3999996185302734375</AltitudeMeters>
            <DistanceMeters>6651.0539896351</DistanceMeters>
          </Trackpoint>
          <Trackpoint>
            <Time>2022-09-24T14:20:36.000Z</Time>
            <Position>
              <LatitudeDegrees>43.264870941638946533203125</LatitudeDegrees>
              <LongitudeDegrees>-2.92174008674919605255126953125</LongitudeDegrees>
            </Position>
            <AltitudeMeters>-21.3999996185302734375</AltitudeMeters>
            <DistanceMeters>6655.6654785515</DistanceMeters>
          </Trackpoint>
          <Trackpoint>
            <Time>2022-09-24T14:20:37.000Z</Time>
            <Position>
              <LatitudeDegrees>43.26485459692776203155517578125</LatitudeDegrees>
              <LongitudeDegrees>-2.92179021053016185760498046875</LongitudeDegrees>
            </Position>
            <AltitudeMeters>-21.200000762939453125</AltitudeMeters>
            <DistanceMeters>6660.1175587164</DistanceMeters>
          </Trackpoint>
          <Trackpoint>
            <Time>2022-09-24T14:20:38.000Z</Time>
            <Position>
              <LatitudeDegrees>43.26484168879687786102294921875</LatitudeDegrees>
              <LongitudeDegrees>-2.9218394123017787933349609375</LongitudeDegrees>
            </Position>
            <AltitudeMeters>-20.6000003814697265625</AltitudeMeters>
            <DistanceMeters>6664.3555797223</DistanceMeters>
          </Trackpoint>
          <Trackpoint>
            <Time>2022-09-24T14:20:39.000Z</Time>
            <Position>
              <LatitudeDegrees>43.26482676900923252105712890625</LatitudeDegrees>
              <LongitudeDegrees>-2.92188274674117565155029296875</LongitudeDegrees>
            </Position>
            <AltitudeMeters>-20.6000003814697265625</AltitudeMeters>
            <DistanceMeters>6668.2412312525</DistanceMeters>
          </Trackpoint>
          <Trackpoint>
            <Time>2022-09-24T14:20:40.000Z</Time>
            <Position>
              <LatitudeDegrees>43.26481000520288944244384765625</LatitudeDegrees>
              <LongitudeDegrees>-2.9219235666096210479736328125</LongitudeDegrees>
            </Position>
            <AltitudeMeters>-20.3999996185302734375</AltitudeMeters>
            <DistanceMeters>6672.0399234166</DistanceMeters>
          </Trackpoint>
          <Trackpoint>
            <Time>2022-09-24T14:20:41.000Z</Time>
            <Position>
              <LatitudeDegrees>43.26478787697851657867431640625</LatitudeDegrees>
              <LongitudeDegrees>-2.921961955726146697998046875</LongitudeDegrees>
            </Position>
            <AltitudeMeters>-19.799999237060546875</AltitudeMeters>
            <DistanceMeters>6676.0083555148</DistanceMeters>
          </Trackpoint>
          <Trackpoint>
            <Time>2022-09-24T14:20:42.000Z</Time>
            <Position>
              <LatitudeDegrees>43.26476776041090488433837890625</LatitudeDegrees>
              <LongitudeDegrees>-2.9219891130924224853515625</LongitudeDegrees>
            </Position>
            <AltitudeMeters>-19.799999237060546875</AltitudeMeters>
            <DistanceMeters>6679.1485535145</DistanceMeters>
          </Trackpoint>
          <Trackpoint>
            <Time>2022-09-24T14:20:43.000Z</Time>
            <Position>
              <LatitudeDegrees>43.26473909430205821990966796875</LatitudeDegrees>
              <LongitudeDegrees>-2.92201995849609375</LongitudeDegrees>
            </Position>
            <AltitudeMeters>-19.6000003814697265625</AltitudeMeters>
            <DistanceMeters>6683.2025316999</DistanceMeters>
          </Trackpoint>
          <Trackpoint>
            <Time>2022-09-24T14:20:44.000Z</Time>
            <Position>
              <LatitudeDegrees>43.264708332717418670654296875</LatitudeDegrees>
              <LongitudeDegrees>-2.92204636149108409881591796875</LongitudeDegrees>
            </Position>
            <AltitudeMeters>-19.200000762939453125</AltitudeMeters>
            <DistanceMeters>6687.2408875606</DistanceMeters>
          </Trackpoint>
          <Trackpoint>
            <Time>2022-09-24T14:20:45.000Z</Time>
            <Position>
              <LatitudeDegrees>43.26467446982860565185546875</LatitudeDegrees>
              <LongitudeDegrees>-2.92206178419291973114013671875</LongitudeDegrees>
            </Position>
            <AltitudeMeters>-19.200000762939453125</AltitudeMeters>
            <DistanceMeters>6691.211594484</DistanceMeters>
          </Trackpoint>
          <Trackpoint>
            <Time>2022-09-24T14:20:46.000Z</Time>
            <Position>
              <LatitudeDegrees>43.26463758945465087890625</LatitudeDegrees>
              <LongitudeDegrees>-2.92206622660160064697265625</LongitudeDegrees>
            </Position>
            <AltitudeMeters>-18.799999237060546875</AltitudeMeters>
            <DistanceMeters>6695.3318546353</DistanceMeters>
          </Trackpoint>
          <Trackpoint>
            <Time>2022-09-24T14:20:47.000Z</Time>
            <Position>
              <LatitudeDegrees>43.26460179872810840606689453125</LatitudeDegrees>
              <LongitudeDegrees>-2.9220615327358245849609375</LongitudeDegrees>
            </Position>
            <AltitudeMeters>-18.6000003814697265625</AltitudeMeters>
            <DistanceMeters>6699.3342733555</DistanceMeters>
          </Trackpoint>
          <Trackpoint>
            <Time>2022-09-24T14:20:48.000Z</Time>
            <Position>
              <LatitudeDegrees>43.26456324197351932525634765625</LatitudeDegrees>
              <LongitudeDegrees>-2.92204971425235271453857421875</LongitudeDegrees>
            </Position>
            <AltitudeMeters>-17.799999237060546875</AltitudeMeters>
            <DistanceMeters>6703.731248869</DistanceMeters>
          </Trackpoint>
          <Trackpoint>
            <Time>2022-09-24T14:20:49.000Z</Time>
            <Position>
              <LatitudeDegrees>43.2645274512469768524169921875</LatitudeDegrees>
              <LongitudeDegrees>-2.92203429155051708221435546875</LongitudeDegrees>
            </Position>
            <AltitudeMeters>-17.799999237060546875</AltitudeMeters>
            <DistanceMeters>6707.9059401794</DistanceMeters>
          </Trackpoint>
          <Trackpoint>
            <Time>2022-09-24T14:20:50.000Z</Time>
            <Position>
              <LatitudeDegrees>43.26449300162494182586669921875</LatitudeDegrees>
              <LongitudeDegrees>-2.92201216332614421844482421875</LongitudeDegrees>
            </Position>
            <AltitudeMeters>-17.3999996185302734375</AltitudeMeters>
            <DistanceMeters>6712.1386310096</DistanceMeters>
          </Trackpoint>
          <Trackpoint>
            <Time>2022-09-24T14:20:51.000Z</Time>
            <Position>
              <LatitudeDegrees>43.26446467079222202301025390625</LatitudeDegrees>
              <LongitudeDegrees>-2.921982742846012115478515625</LongitudeDegrees>
            </Position>
            <AltitudeMeters>-17.3999996185302734375</AltitudeMeters>
            <DistanceMeters>6716.0911026728</DistanceMeters>
          </Trackpoint>
          <Trackpoint>
            <Time>2022-09-24T14:20:52.000Z</Time>
            <Position>
              <LatitudeDegrees>43.2644432969391345977783203125</LatitudeDegrees>
              <LongitudeDegrees>-2.9219480417668819427490234375</LongitudeDegrees>
            </Position>
            <AltitudeMeters>-17.3999996185302734375</AltitudeMeters>
            <DistanceMeters>6719.7739242567</DistanceMeters>
          </Trackpoint>
          <Trackpoint>
            <Time>2022-09-24T14:20:53.000Z</Time>
            <Position>
              <LatitudeDegrees>43.26442577876150608062744140625</LatitudeDegrees>
              <LongitudeDegrees>-2.92190797626972198486328125</LongitudeDegrees>
            </Position>
            <AltitudeMeters>-17.3999996185302734375</AltitudeMeters>
            <DistanceMeters>6723.5607119974</DistanceMeters>
          </Trackpoint>
          <Trackpoint>
            <Time>2022-09-24T14:20:54.000Z</Time>
            <Position>
              <LatitudeDegrees>43.26441421173512935638427734375</LatitudeDegrees>
              <LongitudeDegrees>-2.92185835540294647216796875</LongitudeDegrees>
            </Position>
            <AltitudeMeters>-17.3999996185302734375</AltitudeMeters>
            <DistanceMeters>6727.7827222887</DistanceMeters>
          </Trackpoint>
          <Trackpoint>
            <Time>2022-09-24T14:20:55.000Z</Time>
            <Position>
              <LatitudeDegrees>43.264411948621273040771484375</LatitudeDegrees>
              <LongitudeDegrees>-2.9218048788607120513916015625</LongitudeDegrees>
            </Position>
            <AltitudeMeters>-17.3999996185302734375</AltitudeMeters>
            <DistanceMeters>6732.1249336626</DistanceMeters>
          </Trackpoint>
          <Trackpoint>
            <Time>2022-09-24T14:20:56.000Z</Time>
            <Position>
              <LatitudeDegrees>43.2644147984683513641357421875</LatitudeDegrees>
              <LongitudeDegrees>-2.921741344034671783447265625</LongitudeDegrees>
            </Position>
            <AltitudeMeters>-16.799999237060546875</AltitudeMeters>
            <DistanceMeters>6737.2844554773</DistanceMeters>
          </Trackpoint>
          <Trackpoint>
            <Time>2022-09-24T14:20:57.000Z</Time>
            <Position>
              <LatitudeDegrees>43.26442326419055461883544921875</LatitudeDegrees>
              <LongitudeDegrees>-2.92168895713984966278076171875</LongitudeDegrees>
            </Position>
            <AltitudeMeters>-16.3999996185302734375</AltitudeMeters>
            <DistanceMeters>6741.6329011851</DistanceMeters>
          </Trackpoint>
          <Trackpoint>
            <Time>2022-09-24T14:20:58.000Z</Time>
            <Position>
              <LatitudeDegrees>43.264432065188884735107421875</LatitudeDegrees>
              <LongitudeDegrees>-2.92163950391113758087158203125</LongitudeDegrees>
            </Position>
            <AltitudeMeters>-16.3999996185302734375</AltitudeMeters>
            <DistanceMeters>6745.7597309821</DistanceMeters>
          </Trackpoint>
          <Trackpoint>
            <Time>2022-09-24T14:20:59.000Z</Time>
            <Position>
              <LatitudeDegrees>43.26444656588137149810791015625</LatitudeDegrees>
              <LongitudeDegrees>-2.921602539718151092529296875</LongitudeDegrees>
            </Position>
            <AltitudeMeters>-16.3999996185302734375</AltitudeMeters>
            <DistanceMeters>6749.1634918547</DistanceMeters>
          </Trackpoint>
          <Trackpoint>
            <Time>2022-09-24T14:21:00.000Z</Time>
            <Position>
              <LatitudeDegrees>43.26444656588137149810791015625</LatitudeDegrees>
              <LongitudeDegrees>-2.921602539718151092529296875</LongitudeDegrees>
            </Position>
            <AltitudeMeters>-15.80000019073486328125</AltitudeMeters>
            <DistanceMeters>6749.258518569</DistanceMeters>
          </Trackpoint>
          <Trackpoint>
            <Time>2022-09-24T14:21:01.000Z</Time>
            <Position>
              <LatitudeDegrees>43.2644994556903839111328125</LatitudeDegrees>
              <LongitudeDegrees>-2.92150975205004215240478515625</LongitudeDegrees>
            </Position>
            <AltitudeMeters>-15.80000019073486328125</AltitudeMeters>
            <DistanceMeters>6758.8090579339</DistanceMeters>
          </Trackpoint>
          <Trackpoint>
            <Time>2022-09-24T14:21:02.000Z</Time>
            <Position>
              <LatitudeDegrees>43.2645220868289470672607421875</LatitudeDegrees>
              <LongitudeDegrees>-2.921481169760227203369140625</LongitudeDegrees>
            </Position>
            <AltitudeMeters>-15.3999996185302734375</AltitudeMeters>
            <DistanceMeters>6762.2313392122</DistanceMeters>
          </Trackpoint>
          <Trackpoint>
            <Time>2022-09-24T14:21:03.000Z</Time>
            <Position>
              <LatitudeDegrees>43.26455418951809406280517578125</LatitudeDegrees>
              <LongitudeDegrees>-2.9214400984346866607666015625</LongitudeDegrees>
            </Position>
            <AltitudeMeters>-15.3999996185302734375</AltitudeMeters>
            <DistanceMeters>6767.1157493061</DistanceMeters>
          </Trackpoint>
          <Trackpoint>
            <Time>2022-09-24T14:21:04.000Z</Time>
            <Position>
              <LatitudeDegrees>43.2645747251808643341064453125</LatitudeDegrees>
              <LongitudeDegrees>-2.92141151614487171173095703125</LongitudeDegrees>
            </Position>
            <AltitudeMeters>-15.19999980926513671875</AltitudeMeters>
            <DistanceMeters>6770.3689399848</DistanceMeters>
          </Trackpoint>
          <Trackpoint>
            <Time>2022-09-24T14:21:05.000Z</Time>
            <Position>
              <LatitudeDegrees>43.2645747251808643341064453125</LatitudeDegrees>
              <LongitudeDegrees>-2.92141151614487171173095703125</LongitudeDegrees>
            </Position>
            <AltitudeMeters>-15</AltitudeMeters>
            <DistanceMeters>6770.3689399848</DistanceMeters>
          </Trackpoint>
          <Trackpoint>
            <Time>2022-09-24T14:21:06.000Z</Time>
            <Position>
              <LatitudeDegrees>43.26463063247501850128173828125</LatitudeDegrees>
              <LongitudeDegrees>-2.92134337127208709716796875</LongitudeDegrees>
            </Position>
            <AltitudeMeters>-14.19999980926513671875</AltitudeMeters>
            <DistanceMeters>6778.6885274712</DistanceMeters>
          </Trackpoint>
          <Trackpoint>
            <Time>2022-09-24T14:21:07.000Z</Time>
            <Position>
              <LatitudeDegrees>43.26466080732643604278564453125</LatitudeDegrees>
              <LongitudeDegrees>-2.92130825109779834747314453125</LongitudeDegrees>
            </Position>
            <AltitudeMeters>-14</AltitudeMeters>
            <DistanceMeters>6783.0916597796</DistanceMeters>
          </Trackpoint>
          <Trackpoint>
            <Time>2022-09-24T14:21:08.000Z</Time>
            <Position>
              <LatitudeDegrees>43.2646910659968852996826171875</LatitudeDegrees>
              <LongitudeDegrees>-2.92127304710447788238525390625</LongitudeDegrees>
            </Position>
            <AltitudeMeters>-14</AltitudeMeters>
            <DistanceMeters>6787.5060572431</DistanceMeters>
          </Trackpoint>
          <Trackpoint>
            <Time>2022-09-24T14:21:09.000Z</Time>
            <Position>
              <LatitudeDegrees>43.26471897773444652557373046875</LatitudeDegrees>
              <LongitudeDegrees>-2.92124035768210887908935546875</LongitudeDegrees>
            </Position>
            <AltitudeMeters>-13.80000019073486328125</AltitudeMeters>
            <DistanceMeters>6791.5888897299</DistanceMeters>
          </Trackpoint>
          <Trackpoint>
            <Time>2022-09-24T14:21:10.000Z</Time>
            <Position>
              <LatitudeDegrees>43.26474579982459545135498046875</LatitudeDegrees>
              <LongitudeDegrees>-2.92120649479329586029052734375</LongitudeDegrees>
            </Position>
            <AltitudeMeters>-13.80000019073486328125</AltitudeMeters>
            <DistanceMeters>6795.6439814927</DistanceMeters>
          </Trackpoint>
          <Trackpoint>
            <Time>2022-09-24T14:21:11.000Z</Time>
            <Position>
              <LatitudeDegrees>43.26477102935314178466796875</LatitudeDegrees>
              <LongitudeDegrees>-2.921171374619007110595703125</LongitudeDegrees>
            </Position>
            <AltitudeMeters>-13.80000019073486328125</AltitudeMeters>
            <DistanceMeters>6799.6418853567</DistanceMeters>
          </Trackpoint>
          <Trackpoint>
            <Time>2022-09-24T14:21:12.000Z</Time>
            <Position>
              <LatitudeDegrees>43.2647939957678318023681640625</LatitudeDegrees>
              <LongitudeDegrees>-2.921132482588291168212890625</LongitudeDegrees>
            </Position>
            <AltitudeMeters>-13.6000003814697265625</AltitudeMeters>
            <DistanceMeters>6803.7003160181</DistanceMeters>
          </Trackpoint>
          <Trackpoint>
            <Time>2022-09-24T14:21:13.000Z</Time>
            <Position>
              <LatitudeDegrees>43.2648171298205852508544921875</LatitudeDegrees>
              <LongitudeDegrees>-2.92109317146241664886474609375</LongitudeDegrees>
            </Position>
            <AltitudeMeters>-13.19999980926513671875</AltitudeMeters>
            <DistanceMeters>6807.7963973202</DistanceMeters>
          </Trackpoint>
          <Trackpoint>
            <Time>2022-09-24T14:21:14.000Z</Time>
            <Position>
              <LatitudeDegrees>43.264839090406894683837890625</LatitudeDegrees>
              <LongitudeDegrees>-2.92105369269847869873046875</LongitudeDegrees>
            </Position>
            <AltitudeMeters>-12.80000019073486328125</AltitudeMeters>
            <DistanceMeters>6811.8224359709</DistanceMeters>
          </Trackpoint>
          <Trackpoint>
            <Time>2022-09-24T14:21:15.000Z</Time>
            <Position>
              <LatitudeDegrees>43.26485660858452320098876953125</LatitudeDegrees>
              <LongitudeDegrees>-2.92101270519196987152099609375</LongitudeDegrees>
            </Position>
            <AltitudeMeters>-12.80000019073486328125</AltitudeMeters>
            <DistanceMeters>6815.6754147761</DistanceMeters>
          </Trackpoint>
          <Trackpoint>
            <Time>2022-09-24T14:21:16.000Z</Time>
            <Position>
              <LatitudeDegrees>43.26486985199153423309326171875</LatitudeDegrees>
              <LongitudeDegrees>-2.920965850353240966796875</LongitudeDegrees>
            </Position>
            <AltitudeMeters>-12.6000003814697265625</AltitudeMeters>
            <DistanceMeters>6819.7493907829</DistanceMeters>
          </Trackpoint>
          <Trackpoint>
            <Time>2022-09-24T14:21:17.000Z</Time>
            <Position>
              <LatitudeDegrees>43.26488259248435497283935546875</LatitudeDegrees>
              <LongitudeDegrees>-2.92091949842870235443115234375</LongitudeDegrees>
            </Position>
            <AltitudeMeters>-12.3999996185302734375</AltitudeMeters>
            <DistanceMeters>6823.7641991784</DistanceMeters>
          </Trackpoint>
          <Trackpoint>
            <Time>2022-09-24T14:21:18.000Z</Time>
            <Position>
              <LatitudeDegrees>43.26489348895847797393798828125</LatitudeDegrees>
              <LongitudeDegrees>-2.9208764992654323577880859375</LongitudeDegrees>
            </Position>
            <AltitudeMeters>-12.3999996185302734375</AltitudeMeters>
            <DistanceMeters>6827.4543692663</DistanceMeters>
          </Trackpoint>
          <Trackpoint>
            <Time>2022-09-24T14:21:19.000Z</Time>
            <Position>
              <LatitudeDegrees>43.26490136794745922088623046875</LatitudeDegrees>
              <LongitudeDegrees>-2.9208302311599254608154296875</LongitudeDegrees>
            </Position>
            <AltitudeMeters>-12.19999980926513671875</AltitudeMeters>
            <DistanceMeters>6831.3061760628</DistanceMeters>
          </Trackpoint>
          <Trackpoint>
            <Time>2022-09-24T14:21:20.000Z</Time>
            <Position>
              <LatitudeDegrees>43.26490807346999645233154296875</LatitudeDegrees>
              <LongitudeDegrees>-2.92078153230249881744384765625</LongitudeDegrees>
            </Position>
            <AltitudeMeters>-12</AltitudeMeters>
            <DistanceMeters>6835.3243568305</DistanceMeters>
          </Trackpoint>
          <Trackpoint>
            <Time>2022-09-24T14:21:21.000Z</Time>
            <Position>
              <LatitudeDegrees>43.26491394080221652984619140625</LatitudeDegrees>
              <LongitudeDegrees>-2.92073048651218414306640625</LongitudeDegrees>
            </Position>
            <AltitudeMeters>-11.80000019073486328125</AltitudeMeters>
            <DistanceMeters>6839.514162149</DistanceMeters>
          </Trackpoint>
          <Trackpoint>
            <Time>2022-09-24T14:21:22.000Z</Time>
            <Position>
              <LatitudeDegrees>43.26491712592542171478271484375</LatitudeDegrees>
              <LongitudeDegrees>-2.92068094946444034576416015625</LongitudeDegrees>
            </Position>
            <AltitudeMeters>-11.80000019073486328125</AltitudeMeters>
            <DistanceMeters>6843.5458041965</DistanceMeters>
          </Trackpoint>
          <Trackpoint>
            <Time>2022-09-24T14:21:23.000Z</Time>
            <Position>
              <LatitudeDegrees>43.26491855084896087646484375</LatitudeDegrees>
              <LongitudeDegrees>-2.92063015513122081756591796875</LongitudeDegrees>
            </Position>
            <AltitudeMeters>-11.3999996185302734375</AltitudeMeters>
            <DistanceMeters>6847.667160016</DistanceMeters>
          </Trackpoint>
          <Trackpoint>
            <Time>2022-09-24T14:21:24.000Z</Time>
            <Position>
              <LatitudeDegrees>43.26491989195346832275390625</LatitudeDegrees>
              <LongitudeDegrees>-2.920581959187984466552734375</LongitudeDegrees>
            </Position>
            <AltitudeMeters>-11.19999980926513671875</AltitudeMeters>
            <DistanceMeters>6851.5759820052</DistanceMeters>
          </Trackpoint>
          <Trackpoint>
            <Time>2022-09-24T14:21:25.000Z</Time>
            <Position>
              <LatitudeDegrees>43.26491989195346832275390625</LatitudeDegrees>
              <LongitudeDegrees>-2.920581959187984466552734375</LongitudeDegrees>
            </Position>
            <AltitudeMeters>-11.19999980926513671875</AltitudeMeters>
            <DistanceMeters>6851.5759820052</DistanceMeters>
          </Trackpoint>
          <Trackpoint>
            <Time>2022-09-24T14:21:26.000Z</Time>
            <Position>
              <LatitudeDegrees>43.2649237476289272308349609375</LatitudeDegrees>
              <LongitudeDegrees>-2.92049051262438297271728515625</LongitudeDegrees>
            </Position>
            <AltitudeMeters>-10.80000019073486328125</AltitudeMeters>
            <DistanceMeters>6858.999022249</DistanceMeters>
          </Trackpoint>
          <Trackpoint>
            <Time>2022-09-24T14:21:27.000Z</Time>
            <Position>
              <LatitudeDegrees>43.26492601074278354644775390625</LatitudeDegrees>
              <LongitudeDegrees>-2.92044323869049549102783203125</LongitudeDegrees>
            </Position>
            <AltitudeMeters>-10.80000019073486328125</AltitudeMeters>
            <DistanceMeters>6862.8390892839</DistanceMeters>
          </Trackpoint>
          <Trackpoint>
            <Time>2022-09-24T14:21:28.000Z</Time>
            <Position>
              <LatitudeDegrees>43.2649287767708301544189453125</LatitudeDegrees>
              <LongitudeDegrees>-2.920397222042083740234375</LongitudeDegrees>
            </Position>
            <AltitudeMeters>-10.6000003814697265625</AltitudeMeters>
            <DistanceMeters>6866.5802947699</DistanceMeters>
          </Trackpoint>
          <Trackpoint>
            <Time>2022-09-24T14:21:29.000Z</Time>
            <Position>
              <LatitudeDegrees>43.2649366557598114013671875</LatitudeDegrees>
              <LongitudeDegrees>-2.920354641973972320556640625</LongitudeDegrees>
            </Position>
            <AltitudeMeters>-9.6000003814697265625</AltitudeMeters>
            <DistanceMeters>6870.1409446161</DistanceMeters>
          </Trackpoint>
          <Trackpoint>
            <Time>2022-09-24T14:21:30.000Z</Time>
            <Position>
              <LatitudeDegrees>43.2649366557598114013671875</LatitudeDegrees>
              <LongitudeDegrees>-2.920354641973972320556640625</LongitudeDegrees>
            </Position>
            <AltitudeMeters>-9.6000003814697265625</AltitudeMeters>
            <DistanceMeters>6870.1409446161</DistanceMeters>
          </Trackpoint>
          <Trackpoint>
            <Time>2022-09-24T14:21:31.000Z</Time>
            <Position>
              <LatitudeDegrees>43.26494998298585414886474609375</LatitudeDegrees>
              <LongitudeDegrees>-2.9202639497816562652587890625</LongitudeDegrees>
            </Position>
            <AltitudeMeters>-9.3999996185302734375</AltitudeMeters>
            <DistanceMeters>6877.6390281006</DistanceMeters>
          </Trackpoint>
          <Trackpoint>
            <Time>2022-09-24T14:21:32.000Z</Time>
            <Position>
              <LatitudeDegrees>43.26495300047099590301513671875</LatitudeDegrees>
              <LongitudeDegrees>-2.92021541856229305267333984375</LongitudeDegrees>
            </Position>
            <AltitudeMeters>-9.19999980926513671875</AltitudeMeters>
            <DistanceMeters>6881.5846398135</DistanceMeters>
          </Trackpoint>
          <Trackpoint>
            <Time>2022-09-24T14:21:33.000Z</Time>
            <Position>
              <LatitudeDegrees>43.26495484448969364166259765625</LatitudeDegrees>
              <LongitudeDegrees>-2.92015783488750457763671875</LongitudeDegrees>
            </Position>
            <AltitudeMeters>-9</AltitudeMeters>
            <DistanceMeters>6886.2554710766</DistanceMeters>
          </Trackpoint>
          <Trackpoint>
            <Time>2022-09-24T14:21:34.000Z</Time>
            <Position>
              <LatitudeDegrees>43.26495652087032794952392578125</LatitudeDegrees>
              <LongitudeDegrees>-2.92011550627648830413818359375</LongitudeDegrees>
            </Position>
            <AltitudeMeters>-8.19999980926513671875</AltitudeMeters>
            <DistanceMeters>6889.6896055871</DistanceMeters>
          </Trackpoint>
          <Trackpoint>
            <Time>2022-09-24T14:21:35.000Z</Time>
            <Position>
              <LatitudeDegrees>43.26495652087032794952392578125</LatitudeDegrees>
              <LongitudeDegrees>-2.92011550627648830413818359375</LongitudeDegrees>
            </Position>
            <AltitudeMeters>-8.19999980926513671875</AltitudeMeters>
            <DistanceMeters>6889.6896055871</DistanceMeters>
          </Trackpoint>
          <Trackpoint>
            <Time>2022-09-24T14:21:36.000Z</Time>
            <Position>
              <LatitudeDegrees>43.26496691443026065826416015625</LatitudeDegrees>
              <LongitudeDegrees>-2.92000721208751201629638671875</LongitudeDegrees>
            </Position>
            <AltitudeMeters>-8</AltitudeMeters>
            <DistanceMeters>6898.542913643</DistanceMeters>
          </Trackpoint>
          <Trackpoint>
            <Time>2022-09-24T14:21:37.000Z</Time>
            <Position>
              <LatitudeDegrees>43.264971859753131866455078125</LatitudeDegrees>
              <LongitudeDegrees>-2.91996605694293975830078125</LongitudeDegrees>
            </Position>
            <AltitudeMeters>-8</AltitudeMeters>
            <DistanceMeters>6901.9240490704</DistanceMeters>
          </Trackpoint>
          <Trackpoint>
            <Time>2022-09-24T14:21:38.000Z</Time>
            <Position>
              <LatitudeDegrees>43.26497512869536876678466796875</LatitudeDegrees>
              <LongitudeDegrees>-2.919916100800037384033203125</LongitudeDegrees>
            </Position>
            <AltitudeMeters>-7.599999904632568359375</AltitudeMeters>
            <DistanceMeters>6905.9902598333</DistanceMeters>
          </Trackpoint>
          <Trackpoint>
            <Time>2022-09-24T14:21:39.000Z</Time>
            <Position>
              <LatitudeDegrees>43.26498099602758884429931640625</LatitudeDegrees>
              <LongitudeDegrees>-2.9198674857616424560546875</LongitudeDegrees>
            </Position>
            <AltitudeMeters>-7.19999980926513671875</AltitudeMeters>
            <DistanceMeters>6909.9847742064</DistanceMeters>
          </Trackpoint>
          <Trackpoint>
            <Time>2022-09-24T14:21:40.000Z</Time>
            <Position>
              <LatitudeDegrees>43.264987282454967498779296875</LatitudeDegrees>
              <LongitudeDegrees>-2.919816188514232635498046875</LongitudeDegrees>
            </Position>
            <AltitudeMeters>-7</AltitudeMeters>
            <DistanceMeters>6914.2014340834</DistanceMeters>
          </Trackpoint>
          <Trackpoint>
            <Time>2022-09-24T14:21:41.000Z</Time>
            <Position>
              <LatitudeDegrees>43.26498434878885746002197265625</LatitudeDegrees>
              <LongitudeDegrees>-2.91977033950388431549072265625</LongitudeDegrees>
            </Position>
            <AltitudeMeters>-6.80000019073486328125</AltitudeMeters>
            <DistanceMeters>6917.9329723555</DistanceMeters>
          </Trackpoint>
          <Trackpoint>
            <Time>2022-09-24T14:21:42.000Z</Time>
            <Position>
              <LatitudeDegrees>43.2649790681898593902587890625</LatitudeDegrees>
              <LongitudeDegrees>-2.91971669532358646392822265625</LongitudeDegrees>
            </Position>
            <AltitudeMeters>-6.80000019073486328125</AltitudeMeters>
            <DistanceMeters>6922.3196673417</DistanceMeters>
          </Trackpoint>
          <Trackpoint>
            <Time>2022-09-24T14:21:43.000Z</Time>
            <Position>
              <LatitudeDegrees>43.264975883066654205322265625</LatitudeDegrees>
              <LongitudeDegrees>-2.91967595927417278289794921875</LongitudeDegrees>
            </Position>
            <AltitudeMeters>-6.599999904632568359375</AltitudeMeters>
            <DistanceMeters>6925.6388077819</DistanceMeters>
          </Trackpoint>
          <Trackpoint>
            <Time>2022-09-24T14:21:44.000Z</Time>
            <Position>
              <LatitudeDegrees>43.264980576932430267333984375</LatitudeDegrees>
              <LongitudeDegrees>-2.91962298564612865447998046875</LongitudeDegrees>
            </Position>
            <AltitudeMeters>-6.19999980926513671875</AltitudeMeters>
            <DistanceMeters>6929.9643503365</DistanceMeters>
          </Trackpoint>
          <Trackpoint>
            <Time>2022-09-24T14:21:45.000Z</Time>
            <Position>
              <LatitudeDegrees>43.26498183421790599822998046875</LatitudeDegrees>
              <LongitudeDegrees>-2.91957252658903598785400390625</LongitudeDegrees>
            </Position>
            <AltitudeMeters>-6.19999980926513671875</AltitudeMeters>
            <DistanceMeters>6934.0560201335</DistanceMeters>
          </Trackpoint>
          <Trackpoint>
            <Time>2022-09-24T14:21:46.000Z</Time>
            <Position>
              <LatitudeDegrees>43.26498183421790599822998046875</LatitudeDegrees>
              <LongitudeDegrees>-2.91957252658903598785400390625</LongitudeDegrees>
            </Position>
            <AltitudeMeters>-6</AltitudeMeters>
            <DistanceMeters>6934.1510468478</DistanceMeters>
          </Trackpoint>
          <Trackpoint>
            <Time>2022-09-24T14:21:47.000Z</Time>
            <Position>
              <LatitudeDegrees>43.2649827562272548675537109375</LatitudeDegrees>
              <LongitudeDegrees>-2.9194740392267704010009765625</LongitudeDegrees>
            </Position>
            <AltitudeMeters>-5.599999904632568359375</AltitudeMeters>
            <DistanceMeters>6942.1338564701</DistanceMeters>
          </Trackpoint>
          <Trackpoint>
            <Time>2022-09-24T14:21:48.000Z</Time>
            <Position>
              <LatitudeDegrees>43.26498158276081085205078125</LatitudeDegrees>
              <LongitudeDegrees>-2.9194240830838680267333984375</LongitudeDegrees>
            </Position>
            <AltitudeMeters>-5.599999904632568359375</AltitudeMeters>
            <DistanceMeters>6946.1856065827</DistanceMeters>
          </Trackpoint>
          <Trackpoint>
            <Time>2022-09-24T14:21:49.000Z</Time>
            <Position>
              <LatitudeDegrees>43.26498082838952541351318359375</LatitudeDegrees>
              <LongitudeDegrees>-2.91937789879739284515380859375</LongitudeDegrees>
            </Position>
            <AltitudeMeters>-5.599999904632568359375</AltitudeMeters>
            <DistanceMeters>6949.9316363202</DistanceMeters>
          </Trackpoint>
          <Trackpoint>
            <Time>2022-09-24T14:21:50.000Z</Time>
            <Position>
              <LatitudeDegrees>43.2649797387421131134033203125</LatitudeDegrees>
              <LongitudeDegrees>-2.91933037340641021728515625</LongitudeDegrees>
            </Position>
            <AltitudeMeters>-5.400000095367431640625</AltitudeMeters>
            <DistanceMeters>6953.7846151254</DistanceMeters>
          </Trackpoint>
          <Trackpoint>
            <Time>2022-09-24T14:21:51.000Z</Time>
            <Position>
              <LatitudeDegrees>43.2649797387421131134033203125</LatitudeDegrees>
              <LongitudeDegrees>-2.91927874088287353515625</LongitudeDegrees>
            </Position>
            <AltitudeMeters>-5.400000095367431640625</AltitudeMeters>
            <DistanceMeters>6957.9690288508</DistanceMeters>
          </Trackpoint>
          <Trackpoint>
            <Time>2022-09-24T14:21:52.000Z</Time>
            <Position>
              <LatitudeDegrees>43.264978565275669097900390625</LatitudeDegrees>
              <LongitudeDegrees>-2.91923222132027149200439453125</LongitudeDegrees>
            </Position>
            <AltitudeMeters>-5.400000095367431640625</AltitudeMeters>
            <DistanceMeters>6961.7414816968</DistanceMeters>
          </Trackpoint>
          <Trackpoint>
            <Time>2022-09-24T14:21:53.000Z</Time>
            <Position>
              <LatitudeDegrees>43.2649780623614788055419921875</LatitudeDegrees>
              <LongitudeDegrees>-2.91918545030057430267333984375</LongitudeDegrees>
            </Position>
            <AltitudeMeters>-4.80000019073486328125</AltitudeMeters>
            <DistanceMeters>6965.5330356921</DistanceMeters>
          </Trackpoint>
          <Trackpoint>
            <Time>2022-09-24T14:21:54.000Z</Time>
            <Position>
              <LatitudeDegrees>43.26497797854244709014892578125</LatitudeDegrees>
              <LongitudeDegrees>-2.91913926601409912109375</LongitudeDegrees>
            </Position>
            <AltitudeMeters>-4.19999980926513671875</AltitudeMeters>
            <DistanceMeters>6969.2766540809</DistanceMeters>
          </Trackpoint>
          <Trackpoint>
            <Time>2022-09-24T14:21:55.000Z</Time>
            <Position>
              <LatitudeDegrees>43.26497730799019336700439453125</LatitudeDegrees>
              <LongitudeDegrees>-2.91908956132829189300537109375</LongitudeDegrees>
            </Position>
            <AltitudeMeters>-4</AltitudeMeters>
            <DistanceMeters>6973.3049350256</DistanceMeters>
          </Trackpoint>
          <Trackpoint>
            <Time>2022-09-24T14:21:56.000Z</Time>
            <Position>
              <LatitudeDegrees>43.26497730799019336700439453125</LatitudeDegrees>
              <LongitudeDegrees>-2.91904513724148273468017578125</LongitudeDegrees>
            </Position>
            <AltitudeMeters>-3.7999999523162841796875</AltitudeMeters>
            <DistanceMeters>6976.903424934</DistanceMeters>
          </Trackpoint>
          <Trackpoint>
            <Time>2022-09-24T14:21:57.000Z</Time>
            <Position>
              <LatitudeDegrees>43.26497890055179595947265625</LatitudeDegrees>
              <LongitudeDegrees>-2.9189999587833881378173828125</LongitudeDegrees>
            </Position>
            <AltitudeMeters>-3.400000095367431640625</AltitudeMeters>
            <DistanceMeters>6980.5690427194</DistanceMeters>
          </Trackpoint>
          <Trackpoint>
            <Time>2022-09-24T14:21:58.000Z</Time>
            <Position>
              <LatitudeDegrees>43.26497864909470081329345703125</LatitudeDegrees>
              <LongitudeDegrees>-2.91894589550793170928955078125</LongitudeDegrees>
            </Position>
            <AltitudeMeters>-3.2000000476837158203125</AltitudeMeters>
            <DistanceMeters>6984.9516187423</DistanceMeters>
          </Trackpoint>
          <Trackpoint>
            <Time>2022-09-24T14:21:59.000Z</Time>
            <Position>
              <LatitudeDegrees>43.26497999019920825958251953125</LatitudeDegrees>
              <LongitudeDegrees>-2.91890147142112255096435546875</LongitudeDegrees>
            </Position>
            <AltitudeMeters>-3</AltitudeMeters>
            <DistanceMeters>6988.5538707948</DistanceMeters>
          </Trackpoint>
          <Trackpoint>
            <Time>2022-09-24T14:22:00.000Z</Time>
            <Position>
              <LatitudeDegrees>43.26498066075146198272705078125</LatitudeDegrees>
              <LongitudeDegrees>-2.91885428130626678466796875</LongitudeDegrees>
            </Position>
            <AltitudeMeters>-2.599999904632568359375</AltitudeMeters>
            <DistanceMeters>6992.378622269</DistanceMeters>
          </Trackpoint>
          <Trackpoint>
            <Time>2022-09-24T14:22:01.000Z</Time>
            <Position>
              <LatitudeDegrees>43.26498233713209629058837890625</LatitudeDegrees>
              <LongitudeDegrees>-2.9188051633536815643310546875</LongitudeDegrees>
            </Position>
            <AltitudeMeters>-2.400000095367431640625</AltitudeMeters>
            <DistanceMeters>6996.3629508684</DistanceMeters>
          </Trackpoint>
          <Trackpoint>
            <Time>2022-09-24T14:22:02.000Z</Time>
            <Position>
              <LatitudeDegrees>43.2649810798466205596923828125</LatitudeDegrees>
              <LongitudeDegrees>-2.91875897906720638275146484375</LongitudeDegrees>
            </Position>
            <AltitudeMeters>-2</AltitudeMeters>
            <DistanceMeters>7000.1089806059</DistanceMeters>
          </Trackpoint>
          <Trackpoint>
            <Time>2022-09-24T14:22:03.000Z</Time>
            <Position>
              <LatitudeDegrees>43.264978229999542236328125</LatitudeDegrees>
              <LongitudeDegrees>-2.91870919056236743927001953125</LongitudeDegrees>
            </Position>
            <AltitudeMeters>-1.7999999523162841796875</AltitudeMeters>
            <DistanceMeters>7004.1562708931</DistanceMeters>
          </Trackpoint>
          <Trackpoint>
            <Time>2022-09-24T14:22:04.000Z</Time>
            <Position>
              <LatitudeDegrees>43.2649569399654865264892578125</LatitudeDegrees>
              <LongitudeDegrees>-2.9186767525970935821533203125</LongitudeDegrees>
            </Position>
            <AltitudeMeters>-1.60000002384185791015625</AltitudeMeters>
            <DistanceMeters>7007.6965740022</DistanceMeters>
          </Trackpoint>
          <Trackpoint>
            <Time>2022-09-24T14:22:05.000Z</Time>
            <Position>
              <LatitudeDegrees>43.26494210399687290191650390625</LatitudeDegrees>
              <LongitudeDegrees>-2.91863023303449153900146484375</LongitudeDegrees>
            </Position>
            <AltitudeMeters>-1.60000002384185791015625</AltitudeMeters>
            <DistanceMeters>7011.8124485641</DistanceMeters>
          </Trackpoint>
          <Trackpoint>
            <Time>2022-09-24T14:22:06.000Z</Time>
            <Position>
              <LatitudeDegrees>43.2649312913417816162109375</LatitudeDegrees>
              <LongitudeDegrees>-2.9185899160802364349365234375</LongitudeDegrees>
            </Position>
            <AltitudeMeters>-1.2000000476837158203125</AltitudeMeters>
            <DistanceMeters>7015.294889183</DistanceMeters>
          </Trackpoint>
          <Trackpoint>
            <Time>2022-09-24T14:22:07.000Z</Time>
            <Position>
              <LatitudeDegrees>43.2649224065244197845458984375</LatitudeDegrees>
              <LongitudeDegrees>-2.9185490123927593231201171875</LongitudeDegrees>
            </Position>
            <AltitudeMeters>-1.2000000476837158203125</AltitudeMeters>
            <DistanceMeters>7018.7552188442</DistanceMeters>
          </Trackpoint>
          <Trackpoint>
            <Time>2022-09-24T14:22:08.000Z</Time>
            <Position>
              <LatitudeDegrees>43.2649133540689945220947265625</LatitudeDegrees>
              <LongitudeDegrees>-2.91851087473332881927490234375</LongitudeDegrees>
            </Position>
            <AltitudeMeters>-1.2000000476837158203125</AltitudeMeters>
            <DistanceMeters>7022.0056325778</DistanceMeters>
          </Trackpoint>
          <Trackpoint>
            <Time>2022-09-24T14:22:09.000Z</Time>
            <Position>
              <LatitudeDegrees>43.2649012841284275054931640625</LatitudeDegrees>
              <LongitudeDegrees>-2.91847231797873973846435546875</LongitudeDegrees>
            </Position>
            <AltitudeMeters>-1</AltitudeMeters>
            <DistanceMeters>7025.405411666</DistanceMeters>
          </Trackpoint>
          <Trackpoint>
            <Time>2022-09-24T14:22:10.000Z</Time>
            <Position>
              <LatitudeDegrees>43.2649012841284275054931640625</LatitudeDegrees>
              <LongitudeDegrees>-2.91847231797873973846435546875</LongitudeDegrees>
            </Position>
            <AltitudeMeters>-0.800000011920928955078125</AltitudeMeters>
            <DistanceMeters>7025.405411666</DistanceMeters>
          </Trackpoint>
          <Trackpoint>
            <Time>2022-09-24T14:22:11.000Z</Time>
            <Position>
              <LatitudeDegrees>43.264871947467327117919921875</LatitudeDegrees>
              <LongitudeDegrees>-2.91839906014502048492431640625</LongitudeDegrees>
            </Position>
            <AltitudeMeters>-0.60000002384185791015625</AltitudeMeters>
            <DistanceMeters>7032.1816893106</DistanceMeters>
          </Trackpoint>
          <Trackpoint>
            <Time>2022-09-24T14:22:12.000Z</Time>
            <Position>
              <LatitudeDegrees>43.26486364938318729400634765625</LatitudeDegrees>
              <LongitudeDegrees>-2.91836435906589031219482421875</LongitudeDegrees>
            </Position>
            <AltitudeMeters>0.20000000298023223876953125</AltitudeMeters>
            <DistanceMeters>7035.1412795104</DistanceMeters>
          </Trackpoint>
          <Trackpoint>
            <Time>2022-09-24T14:22:13.000Z</Time>
            <Position>
              <LatitudeDegrees>43.2648508250713348388671875</LatitudeDegrees>
              <LongitudeDegrees>-2.9183260537683963775634765625</LongitudeDegrees>
            </Position>
            <AltitudeMeters>0.20000000298023223876953125</AltitudeMeters>
            <DistanceMeters>7038.556957886</DistanceMeters>
          </Trackpoint>
          <Trackpoint>
            <Time>2022-09-24T14:22:14.000Z</Time>
            <Position>
              <LatitudeDegrees>43.26483808457851409912109375</LatitudeDegrees>
              <LongitudeDegrees>-2.91829076595604419708251953125</LongitudeDegrees>
            </Position>
            <AltitudeMeters>0.20000000298023223876953125</AltitudeMeters>
            <DistanceMeters>7041.7484976757</DistanceMeters>
          </Trackpoint>
          <Trackpoint>
            <Time>2022-09-24T14:22:15.000Z</Time>
            <Position>
              <LatitudeDegrees>43.26482643373310565948486328125</LatitudeDegrees>
              <LongitudeDegrees>-2.91825254447758197784423828125</LongitudeDegrees>
            </Position>
            <AltitudeMeters>0.4000000059604644775390625</AltitudeMeters>
            <DistanceMeters>7045.1068552323</DistanceMeters>
          </Trackpoint>
          <Trackpoint>
            <Time>2022-09-24T14:22:16.000Z</Time>
            <Position>
              <LatitudeDegrees>43.2648181356489658355712890625</LatitudeDegrees>
              <LongitudeDegrees>-2.91821734048426151275634765625</LongitudeDegrees>
            </Position>
            <AltitudeMeters>0.800000011920928955078125</AltitudeMeters>
            <DistanceMeters>7048.1058477529</DistanceMeters>
          </Trackpoint>
          <Trackpoint>
            <Time>2022-09-24T14:22:17.000Z</Time>
            <Position>
              <LatitudeDegrees>43.26480799354612827301025390625</LatitudeDegrees>
              <LongitudeDegrees>-2.91818180121481418609619140625</LongitudeDegrees>
            </Position>
            <AltitudeMeters>1</AltitudeMeters>
            <DistanceMeters>7051.199693423</DistanceMeters>
          </Trackpoint>
          <Trackpoint>
            <Time>2022-09-24T14:22:18.000Z</Time>
            <Position>
              <LatitudeDegrees>43.2647998631000518798828125</LatitudeDegrees>
              <LongitudeDegrees>-2.9181523807346820831298828125</LongitudeDegrees>
            </Position>
            <AltitudeMeters>1.2000000476837158203125</AltitudeMeters>
            <DistanceMeters>7053.7477564056</DistanceMeters>
          </Trackpoint>
          <Trackpoint>
            <Time>2022-09-24T14:22:19.000Z</Time>
            <Position>
              <LatitudeDegrees>43.2647998631000518798828125</LatitudeDegrees>
              <LongitudeDegrees>-2.9181523807346820831298828125</LongitudeDegrees>
            </Position>
            <AltitudeMeters>1.39999997615814208984375</AltitudeMeters>
            <DistanceMeters>7053.7477564056</DistanceMeters>
          </Trackpoint>
          <Trackpoint>
            <Time>2022-09-24T14:22:20.000Z</Time>
            <Position>
              <LatitudeDegrees>43.26477580703794956207275390625</LatitudeDegrees>
              <LongitudeDegrees>-2.91807015426456928253173828125</LongitudeDegrees>
            </Position>
            <AltitudeMeters>1.7999999523162841796875</AltitudeMeters>
            <DistanceMeters>7060.9302926376</DistanceMeters>
          </Trackpoint>
          <Trackpoint>
            <Time>2022-09-24T14:22:21.000Z</Time>
            <Position>
              <LatitudeDegrees>43.2647638209164142608642578125</LatitudeDegrees>
              <LongitudeDegrees>-2.91803528554737567901611328125</LongitudeDegrees>
            </Position>
            <AltitudeMeters>1.7999999523162841796875</AltitudeMeters>
            <DistanceMeters>7064.0560793725</DistanceMeters>
          </Trackpoint>
          <Trackpoint>
            <Time>2022-09-24T14:22:22.000Z</Time>
            <Position>
              <LatitudeDegrees>43.264748565852642059326171875</LatitudeDegrees>
              <LongitudeDegrees>-2.91799999773502349853515625</LongitudeDegrees>
            </Position>
            <AltitudeMeters>2.2000000476837158203125</AltitudeMeters>
            <DistanceMeters>7067.3820143755</DistanceMeters>
          </Trackpoint>
          <Trackpoint>
            <Time>2022-09-24T14:22:23.000Z</Time>
            <Position>
              <LatitudeDegrees>43.26473607681691646575927734375</LatitudeDegrees>
              <LongitudeDegrees>-2.91797124780714511871337890625</LongitudeDegrees>
            </Position>
            <AltitudeMeters>2.400000095367431640625</AltitudeMeters>
            <DistanceMeters>7070.0948564833</DistanceMeters>
          </Trackpoint>
          <Trackpoint>
            <Time>2022-09-24T14:22:24.000Z</Time>
            <Position>
              <LatitudeDegrees>43.26472115702927112579345703125</LatitudeDegrees>
              <LongitudeDegrees>-2.9179280810058116912841796875</LongitudeDegrees>
            </Position>
            <AltitudeMeters>2.7999999523162841796875</AltitudeMeters>
            <DistanceMeters>7073.9665391791</DistanceMeters>
          </Trackpoint>
          <Trackpoint>
            <Time>2022-09-24T14:22:25.000Z</Time>
            <Position>
              <LatitudeDegrees>43.2647064886987209320068359375</LatitudeDegrees>
              <LongitudeDegrees>-2.91789463721215724945068359375</LongitudeDegrees>
            </Position>
            <AltitudeMeters>3</AltitudeMeters>
            <DistanceMeters>7077.1296586362</DistanceMeters>
          </Trackpoint>
          <Trackpoint>
            <Time>2022-09-24T14:22:26.000Z</Time>
            <Position>
              <LatitudeDegrees>43.26469467021524906158447265625</LatitudeDegrees>
              <LongitudeDegrees>-2.91786253452301025390625</LongitudeDegrees>
            </Position>
            <AltitudeMeters>3.2000000476837158203125</AltitudeMeters>
            <DistanceMeters>7080.0431225294</DistanceMeters>
          </Trackpoint>
          <Trackpoint>
            <Time>2022-09-24T14:22:27.000Z</Time>
            <Position>
              <LatitudeDegrees>43.26468327082693576812744140625</LatitudeDegrees>
              <LongitudeDegrees>-2.917829342186450958251953125</LongitudeDegrees>
            </Position>
            <AltitudeMeters>3.2000000476837158203125</AltitudeMeters>
            <DistanceMeters>7083.0179292316</DistanceMeters>
          </Trackpoint>
          <Trackpoint>
            <Time>2022-09-24T14:22:28.000Z</Time>
            <Position>
              <LatitudeDegrees>43.26467086561024188995361328125</LatitudeDegrees>
              <LongitudeDegrees>-2.9177995026111602783203125</LongitudeDegrees>
            </Position>
            <AltitudeMeters>3.2000000476837158203125</AltitudeMeters>
            <DistanceMeters>7085.8030388641</DistanceMeters>
          </Trackpoint>
          <Trackpoint>
            <Time>2022-09-24T14:22:29.000Z</Time>
            <Position>
              <LatitudeDegrees>43.2646550238132476806640625</LatitudeDegrees>
              <LongitudeDegrees>-2.917767651379108428955078125</LongitudeDegrees>
            </Position>
            <AltitudeMeters>4</AltitudeMeters>
            <DistanceMeters>7088.9288255991</DistanceMeters>
          </Trackpoint>
          <Trackpoint>
            <Time>2022-09-24T14:22:30.000Z</Time>
            <Position>
              <LatitudeDegrees>43.2646380923688411712646484375</LatitudeDegrees>
              <LongitudeDegrees>-2.91773588396608829498291015625</LongitudeDegrees>
            </Position>
            <AltitudeMeters>4</AltitudeMeters>
            <DistanceMeters>7092.1189503854</DistanceMeters>
          </Trackpoint>
          <Trackpoint>
            <Time>2022-09-24T14:22:31.000Z</Time>
            <Position>
              <LatitudeDegrees>43.264621160924434661865234375</LatitudeDegrees>
              <LongitudeDegrees>-2.9177051223814487457275390625</LongitudeDegrees>
            </Position>
            <AltitudeMeters>4</AltitudeMeters>
            <DistanceMeters>7095.2447371204</DistanceMeters>
          </Trackpoint>
          <Trackpoint>
            <Time>2022-09-24T14:22:32.000Z</Time>
            <Position>
              <LatitudeDegrees>43.2646049000322818756103515625</LatitudeDegrees>
              <LongitudeDegrees>-2.91767586953938007354736328125</LongitudeDegrees>
            </Position>
            <AltitudeMeters>4.400000095367431640625</AltitudeMeters>
            <DistanceMeters>7098.2286364775</DistanceMeters>
          </Trackpoint>
          <Trackpoint>
            <Time>2022-09-24T14:22:33.000Z</Time>
            <Position>
              <LatitudeDegrees>43.26458327472209930419921875</LatitudeDegrees>
              <LongitudeDegrees>-2.9176437668502330780029296875</LongitudeDegrees>
            </Position>
            <AltitudeMeters>5</AltitudeMeters>
            <DistanceMeters>7101.7740372179</DistanceMeters>
          </Trackpoint>
          <Trackpoint>
            <Time>2022-09-24T14:22:34.000Z</Time>
            <Position>
              <LatitudeDegrees>43.264560140669345855712890625</LatitudeDegrees>
              <LongitudeDegrees>-2.91761551983654499053955078125</LongitudeDegrees>
            </Position>
            <AltitudeMeters>5</AltitudeMeters>
            <DistanceMeters>7105.2199841885</DistanceMeters>
          </Trackpoint>
          <Trackpoint>
            <Time>2022-09-24T14:22:35.000Z</Time>
            <Position>
              <LatitudeDegrees>43.26453792862594127655029296875</LatitudeDegrees>
              <LongitudeDegrees>-2.9175914637744426727294921875</LongitudeDegrees>
            </Position>
            <AltitudeMeters>5.599999904632568359375</AltitudeMeters>
            <DistanceMeters>7108.3687972879</DistanceMeters>
          </Trackpoint>
          <Trackpoint>
            <Time>2022-09-24T14:22:36.000Z</Time>
            <Position>
              <LatitudeDegrees>43.26451194472610950469970703125</LatitudeDegrees>
              <LongitudeDegrees>-2.9175676591694355010986328125</LongitudeDegrees>
            </Position>
            <AltitudeMeters>5.80000019073486328125</AltitudeMeters>
            <DistanceMeters>7111.8447492845</DistanceMeters>
          </Trackpoint>
          <Trackpoint>
            <Time>2022-09-24T14:22:37.000Z</Time>
            <Position>
              <LatitudeDegrees>43.26448596082627773284912109375</LatitudeDegrees>
              <LongitudeDegrees>-2.91754268109798431396484375</LongitudeDegrees>
            </Position>
            <AltitudeMeters>5.80000019073486328125</AltitudeMeters>
            <DistanceMeters>7115.3748350472</DistanceMeters>
          </Trackpoint>
          <Trackpoint>
            <Time>2022-09-24T14:22:38.000Z</Time>
            <Position>
              <LatitudeDegrees>43.26445947401225566864013671875</LatitudeDegrees>
              <LongitudeDegrees>-2.917518876492977142333984375</LongitudeDegrees>
            </Position>
            <AltitudeMeters>5.80000019073486328125</AltitudeMeters>
            <DistanceMeters>7118.898519924</DistanceMeters>
          </Trackpoint>
          <Trackpoint>
            <Time>2022-09-24T14:22:39.000Z</Time>
            <Position>
              <LatitudeDegrees>43.264432065188884735107421875</LatitudeDegrees>
              <LongitudeDegrees>-2.91750119067728519439697265625</LongitudeDegrees>
            </Position>
            <AltitudeMeters>6</AltitudeMeters>
            <DistanceMeters>7122.2689555288</DistanceMeters>
          </Trackpoint>
          <Trackpoint>
            <Time>2022-09-24T14:22:40.000Z</Time>
            <Position>
              <LatitudeDegrees>43.2644028961658477783203125</LatitudeDegrees>
              <LongitudeDegrees>-2.91748073883354663848876953125</LongitudeDegrees>
            </Position>
            <AltitudeMeters>6</AltitudeMeters>
            <DistanceMeters>7125.9135738146</DistanceMeters>
          </Trackpoint>
          <Trackpoint>
            <Time>2022-09-24T14:22:41.000Z</Time>
            <Position>
              <LatitudeDegrees>43.26437272131443023681640625</LatitudeDegrees>
              <LongitudeDegrees>-2.917457856237888336181640625</LongitudeDegrees>
            </Position>
            <AltitudeMeters>6.400000095367431640625</AltitudeMeters>
            <DistanceMeters>7129.750111916</DistanceMeters>
          </Trackpoint>
          <Trackpoint>
            <Time>2022-09-24T14:22:42.000Z</Time>
            <Position>
              <LatitudeDegrees>43.2643447257578372955322265625</LatitudeDegrees>
              <LongitudeDegrees>-2.91743673384189605712890625</LongitudeDegrees>
            </Position>
            <AltitudeMeters>6.400000095367431640625</AltitudeMeters>
            <DistanceMeters>7133.3056859937</DistanceMeters>
          </Trackpoint>
          <Trackpoint>
            <Time>2022-09-24T14:22:43.000Z</Time>
            <Position>
              <LatitudeDegrees>43.2643447257578372955322265625</LatitudeDegrees>
              <LongitudeDegrees>-2.91743673384189605712890625</LongitudeDegrees>
            </Position>
            <AltitudeMeters>7</AltitudeMeters>
            <DistanceMeters>7133.3056859937</DistanceMeters>
          </Trackpoint>
          <Trackpoint>
            <Time>2022-09-24T14:22:44.000Z</Time>
            <Position>
              <LatitudeDegrees>43.2642783410847187042236328125</LatitudeDegrees>
              <LongitudeDegrees>-2.9173859395086765289306640625</LongitudeDegrees>
            </Position>
            <AltitudeMeters>7</AltitudeMeters>
            <DistanceMeters>7141.7635974137</DistanceMeters>
          </Trackpoint>
          <Trackpoint>
            <Time>2022-09-24T14:22:45.000Z</Time>
            <Position>
              <LatitudeDegrees>43.26424808241426944732666015625</LatitudeDegrees>
              <LongitudeDegrees>-2.91735568083822727203369140625</LongitudeDegrees>
            </Position>
            <AltitudeMeters>7</AltitudeMeters>
            <DistanceMeters>7145.9296275294</DistanceMeters>
          </Trackpoint>
          <Trackpoint>
            <Time>2022-09-24T14:22:46.000Z</Time>
            <Position>
              <LatitudeDegrees>43.26422276906669139862060546875</LatitudeDegrees>
              <LongitudeDegrees>-2.91732181794941425323486328125</LongitudeDegrees>
            </Position>
            <AltitudeMeters>7.19999980926513671875</AltitudeMeters>
            <DistanceMeters>7149.8637794107</DistanceMeters>
          </Trackpoint>
          <Trackpoint>
            <Time>2022-09-24T14:22:47.000Z</Time>
            <Position>
              <LatitudeDegrees>43.26419510878622531890869140625</LatitudeDegrees>
              <LongitudeDegrees>-2.917284853756427764892578125</LongitudeDegrees>
            </Position>
            <AltitudeMeters>7.19999980926513671875</AltitudeMeters>
            <DistanceMeters>7154.1589448528</DistanceMeters>
          </Trackpoint>
          <Trackpoint>
            <Time>2022-09-24T14:22:48.000Z</Time>
            <Position>
              <LatitudeDegrees>43.26416895724833011627197265625</LatitudeDegrees>
              <LongitudeDegrees>-2.91725291870534420013427734375</LongitudeDegrees>
            </Position>
            <AltitudeMeters>7.400000095367431640625</AltitudeMeters>
            <DistanceMeters>7158.0538811072</DistanceMeters>
          </Trackpoint>
          <Trackpoint>
            <Time>2022-09-24T14:22:49.000Z</Time>
            <Position>
              <LatitudeDegrees>43.26413928531110286712646484375</LatitudeDegrees>
              <LongitudeDegrees>-2.91722207330167293548583984375</LongitudeDegrees>
            </Position>
            <AltitudeMeters>7.400000095367431640625</AltitudeMeters>
            <DistanceMeters>7162.195999556</DistanceMeters>
          </Trackpoint>
          <Trackpoint>
            <Time>2022-09-24T14:22:50.000Z</Time>
            <Position>
              <LatitudeDegrees>43.26410123147070407867431640625</LatitudeDegrees>
              <LongitudeDegrees>-2.9171960055828094482421875</LongitudeDegrees>
            </Position>
            <AltitudeMeters>7.400000095367431640625</AltitudeMeters>
            <DistanceMeters>7166.9301995659</DistanceMeters>
          </Trackpoint>
          <Trackpoint>
            <Time>2022-09-24T14:22:51.000Z</Time>
            <Position>
              <LatitudeDegrees>43.2640721462666988372802734375</LatitudeDegrees>
              <LongitudeDegrees>-2.9171770624816417694091796875</LongitudeDegrees>
            </Position>
            <AltitudeMeters>7.599999904632568359375</AltitudeMeters>
            <DistanceMeters>7170.5136013998</DistanceMeters>
          </Trackpoint>
          <Trackpoint>
            <Time>2022-09-24T14:22:52.000Z</Time>
            <Position>
              <LatitudeDegrees>43.26403149403631687164306640625</LatitudeDegrees>
              <LongitudeDegrees>-2.9171566106379032135009765625</LongitudeDegrees>
            </Position>
            <AltitudeMeters>7.80000019073486328125</AltitudeMeters>
            <DistanceMeters>7175.3319337397</DistanceMeters>
          </Trackpoint>
          <Trackpoint>
            <Time>2022-09-24T14:22:53.000Z</Time>
            <Position>
              <LatitudeDegrees>43.263994865119457244873046875</LatitudeDegrees>
              <LongitudeDegrees>-2.9171452112495899200439453125</LongitudeDegrees>
            </Position>
            <AltitudeMeters>8</AltitudeMeters>
            <DistanceMeters>7179.5120291834</DistanceMeters>
          </Trackpoint>
          <Trackpoint>
            <Time>2022-09-24T14:22:54.000Z</Time>
            <Position>
              <LatitudeDegrees>43.26396075077354907989501953125</LatitudeDegrees>
              <LongitudeDegrees>-2.9171391762793064117431640625</LongitudeDegrees>
            </Position>
            <AltitudeMeters>8.19999980926513671875</AltitudeMeters>
            <DistanceMeters>7183.3414996618</DistanceMeters>
          </Trackpoint>
          <Trackpoint>
            <Time>2022-09-24T14:22:55.000Z</Time>
            <Position>
              <LatitudeDegrees>43.26392655260860919952392578125</LatitudeDegrees>
              <LongitudeDegrees>-2.9171374998986721038818359375</LongitudeDegrees>
            </Position>
            <AltitudeMeters>8.3999996185302734375</AltitudeMeters>
            <DistanceMeters>7187.1496885711</DistanceMeters>
          </Trackpoint>
          <Trackpoint>
            <Time>2022-09-24T14:22:56.000Z</Time>
            <Position>
              <LatitudeDegrees>43.263892270624637603759765625</LatitudeDegrees>
              <LongitudeDegrees>-2.9171341471374034881591796875</LongitudeDegrees>
            </Position>
            <AltitudeMeters>8.3999996185302734375</AltitudeMeters>
            <DistanceMeters>7190.9744400453</DistanceMeters>
          </Trackpoint>
          <Trackpoint>
            <Time>2022-09-24T14:22:57.000Z</Time>
            <Position>
              <LatitudeDegrees>43.26385664753615856170654296875</LatitudeDegrees>
              <LongitudeDegrees>-2.9171271063387393951416015625</LongitudeDegrees>
            </Position>
            <AltitudeMeters>8.6000003814697265625</AltitudeMeters>
            <DistanceMeters>7194.9802415682</DistanceMeters>
          </Trackpoint>
          <Trackpoint>
            <Time>2022-09-24T14:22:58.000Z</Time>
            <Position>
              <LatitudeDegrees>43.26382094062864780426025390625</LatitudeDegrees>
              <LongitudeDegrees>-2.917122580111026763916015625</LongitudeDegrees>
            </Position>
            <AltitudeMeters>8.80000019073486328125</AltitudeMeters>
            <DistanceMeters>7198.9713635718</DistanceMeters>
          </Trackpoint>
          <Trackpoint>
            <Time>2022-09-24T14:22:59.000Z</Time>
            <Position>
              <LatitudeDegrees>43.2637841440737247467041015625</LatitudeDegrees>
              <LongitudeDegrees>-2.91711595840752124786376953125</LongitudeDegrees>
            </Position>
            <AltitudeMeters>9</AltitudeMeters>
            <DistanceMeters>7203.1025673284</DistanceMeters>
          </Trackpoint>
          <Trackpoint>
            <Time>2022-09-24T14:23:00.000Z</Time>
            <Position>
              <LatitudeDegrees>43.2637457549571990966796875</LatitudeDegrees>
              <LongitudeDegrees>-2.91710757650434970855712890625</LongitudeDegrees>
            </Position>
            <AltitudeMeters>9.19999980926513671875</AltitudeMeters>
            <DistanceMeters>7207.4291535657</DistanceMeters>
          </Trackpoint>
          <Trackpoint>
            <Time>2022-09-24T14:23:01.000Z</Time>
            <Position>
              <LatitudeDegrees>43.26370619237422943115234375</LatitudeDegrees>
              <LongitudeDegrees>-2.9170999489724636077880859375</LongitudeDegrees>
            </Position>
            <AltitudeMeters>9.19999980926513671875</AltitudeMeters>
            <DistanceMeters>7211.8761601333</DistanceMeters>
          </Trackpoint>
          <Trackpoint>
            <Time>2022-09-24T14:23:02.000Z</Time>
            <Position>
              <LatitudeDegrees>43.26366889290511608123779296875</LatitudeDegrees>
              <LongitudeDegrees>-2.9170935787260532379150390625</LongitudeDegrees>
            </Position>
            <AltitudeMeters>9.3999996185302734375</AltitudeMeters>
            <DistanceMeters>7216.0605738586</DistanceMeters>
          </Trackpoint>
          <Trackpoint>
            <Time>2022-09-24T14:23:03.000Z</Time>
            <Position>
              <LatitudeDegrees>43.26363385654985904693603515625</LatitudeDegrees>
              <LongitudeDegrees>-2.91708108969032764434814453125</LongitudeDegrees>
            </Position>
            <AltitudeMeters>9.6000003814697265625</AltitudeMeters>
            <DistanceMeters>7220.0888548034</DistanceMeters>
          </Trackpoint>
          <Trackpoint>
            <Time>2022-09-24T14:23:04.000Z</Time>
            <Position>
              <LatitudeDegrees>43.2635903544723987579345703125</LatitudeDegrees>
              <LongitudeDegrees>-2.91706834919750690460205078125</LongitudeDegrees>
            </Position>
            <AltitudeMeters>9.80000019073486328125</AltitudeMeters>
            <DistanceMeters>7225.0393727024</DistanceMeters>
          </Trackpoint>
          <Trackpoint>
            <Time>2022-09-24T14:23:05.000Z</Time>
            <Position>
              <LatitudeDegrees>43.26355674304068088531494140625</LatitudeDegrees>
              <LongitudeDegrees>-2.91706013493239879608154296875</LongitudeDegrees>
            </Position>
            <AltitudeMeters>9.80000019073486328125</AltitudeMeters>
            <DistanceMeters>7228.8380648665</DistanceMeters>
          </Trackpoint>
          <Trackpoint>
            <Time>2022-09-24T14:23:06.000Z</Time>
            <Position>
              <LatitudeDegrees>43.263519108295440673828125</LatitudeDegrees>
              <LongitudeDegrees>-2.917049489915370941162109375</LongitudeDegrees>
            </Position>
            <AltitudeMeters>9.80000019073486328125</AltitudeMeters>
            <DistanceMeters>7233.1132110304</DistanceMeters>
          </Trackpoint>
          <Trackpoint>
            <Time>2022-09-24T14:23:07.000Z</Time>
            <Position>
              <LatitudeDegrees>43.26348088681697845458984375</LatitudeDegrees>
              <LongitudeDegrees>-2.9170426167547702789306640625</LongitudeDegrees>
            </Position>
            <AltitudeMeters>10.80000019073486328125</AltitudeMeters>
            <DistanceMeters>7237.4031172989</DistanceMeters>
          </Trackpoint>
          <Trackpoint>
            <Time>2022-09-24T14:23:08.000Z</Time>
            <Position>
              <LatitudeDegrees>43.2634408213198184967041015625</LatitudeDegrees>
              <LongitudeDegrees>-2.9170278646051883697509765625</LongitudeDegrees>
            </Position>
            <AltitudeMeters>10.80000019073486328125</AltitudeMeters>
            <DistanceMeters>7242.0204769865</DistanceMeters>
          </Trackpoint>
          <Trackpoint>
            <Time>2022-09-24T14:23:09.000Z</Time>
            <Position>
              <LatitudeDegrees>43.26339581049978733062744140625</LatitudeDegrees>
              <LongitudeDegrees>-2.9170162975788116455078125</LongitudeDegrees>
            </Position>
            <AltitudeMeters>10.80000019073486328125</AltitudeMeters>
            <DistanceMeters>7247.1166029516</DistanceMeters>
          </Trackpoint>
          <Trackpoint>
            <Time>2022-09-24T14:23:10.000Z</Time>
            <Position>
              <LatitudeDegrees>43.26335691846907138824462890625</LatitudeDegrees>
              <LongitudeDegrees>-2.9169966839253902435302734375</LongitudeDegrees>
            </Position>
            <AltitudeMeters>10.80000019073486328125</AltitudeMeters>
            <DistanceMeters>7251.7271126793</DistanceMeters>
          </Trackpoint>
          <Trackpoint>
            <Time>2022-09-24T14:23:11.000Z</Time>
            <Position>
              <LatitudeDegrees>43.2633234746754169464111328125</LatitudeDegrees>
              <LongitudeDegrees>-2.91698168031871318817138671875</LongitudeDegrees>
            </Position>
            <AltitudeMeters>10.80000019073486328125</AltitudeMeters>
            <DistanceMeters>7255.6428590707</DistanceMeters>
          </Trackpoint>
          <Trackpoint>
            <Time>2022-09-24T14:23:12.000Z</Time>
            <Position>
              <LatitudeDegrees>43.2633234746754169464111328125</LatitudeDegrees>
              <LongitudeDegrees>-2.91698168031871318817138671875</LongitudeDegrees>
            </Position>
            <AltitudeMeters>11</AltitudeMeters>
            <DistanceMeters>7255.6428590707</DistanceMeters>
          </Trackpoint>
          <Trackpoint>
            <Time>2022-09-24T14:23:13.000Z</Time>
            <Position>
              <LatitudeDegrees>43.26325415633618831634521484375</LatitudeDegrees>
              <LongitudeDegrees>-2.9169547744095325469970703125</LongitudeDegrees>
            </Position>
            <AltitudeMeters>11.3999996185302734375</AltitudeMeters>
            <DistanceMeters>7263.6600957598</DistanceMeters>
          </Trackpoint>
          <Trackpoint>
            <Time>2022-09-24T14:23:14.000Z</Time>
            <Position>
              <LatitudeDegrees>43.26321811415255069732666015625</LatitudeDegrees>
              <LongitudeDegrees>-2.916941531002521514892578125</LongitudeDegrees>
            </Position>
            <AltitudeMeters>11.3999996185302734375</AltitudeMeters>
            <DistanceMeters>7267.8131002153</DistanceMeters>
          </Trackpoint>
          <Trackpoint>
            <Time>2022-09-24T14:23:15.000Z</Time>
            <Position>
              <LatitudeDegrees>43.26318508945405483245849609375</LatitudeDegrees>
              <LongitudeDegrees>-2.9169346578419208526611328125</LongitudeDegrees>
            </Position>
            <AltitudeMeters>11.6000003814697265625</AltitudeMeters>
            <DistanceMeters>7271.5300905246</DistanceMeters>
          </Trackpoint>
          <Trackpoint>
            <Time>2022-09-24T14:23:16.000Z</Time>
            <Position>
              <LatitudeDegrees>43.26315374113619327545166015625</LatitudeDegrees>
              <LongitudeDegrees>-2.9169219173491001129150390625</LongitudeDegrees>
            </Position>
            <AltitudeMeters>12</AltitudeMeters>
            <DistanceMeters>7275.1685094212</DistanceMeters>
          </Trackpoint>
          <Trackpoint>
            <Time>2022-09-24T14:23:17.000Z</Time>
            <Position>
              <LatitudeDegrees>43.2631194591522216796875</LatitudeDegrees>
              <LongitudeDegrees>-2.91689232923090457916259765625</LongitudeDegrees>
            </Position>
            <AltitudeMeters>12</AltitudeMeters>
            <DistanceMeters>7279.6740184763</DistanceMeters>
          </Trackpoint>
          <Trackpoint>
            <Time>2022-09-24T14:23:18.000Z</Time>
            <Position>
              <LatitudeDegrees>43.26307578943669795989990234375</LatitudeDegrees>
              <LongitudeDegrees>-2.9168580472469329833984375</LongitudeDegrees>
            </Position>
            <AltitudeMeters>12.19999980926513671875</AltitudeMeters>
            <DistanceMeters>7285.2717291923</DistanceMeters>
          </Trackpoint>
          <Trackpoint>
            <Time>2022-09-24T14:23:19.000Z</Time>
            <Position>
              <LatitudeDegrees>43.2630418427288532257080078125</LatitudeDegrees>
              <LongitudeDegrees>-2.916832230985164642333984375</LongitudeDegrees>
            </Position>
            <AltitudeMeters>12.3999996185302734375</AltitudeMeters>
            <DistanceMeters>7289.5910043553</DistanceMeters>
          </Trackpoint>
          <Trackpoint>
            <Time>2022-09-24T14:23:20.000Z</Time>
            <Position>
              <LatitudeDegrees>43.26300772838294506072998046875</LatitudeDegrees>
              <LongitudeDegrees>-2.916808761656284332275390625</LongitudeDegrees>
            </Position>
            <AltitudeMeters>12.6000003814697265625</AltitudeMeters>
            <DistanceMeters>7293.8375397265</DistanceMeters>
          </Trackpoint>
          <Trackpoint>
            <Time>2022-09-24T14:23:21.000Z</Time>
            <Position>
              <LatitudeDegrees>43.26297470368444919586181640625</LatitudeDegrees>
              <LongitudeDegrees>-2.916783280670642852783203125</LongitudeDegrees>
            </Position>
            <AltitudeMeters>12.6000003814697265625</AltitudeMeters>
            <DistanceMeters>7298.0531287057</DistanceMeters>
          </Trackpoint>
          <Trackpoint>
            <Time>2022-09-24T14:23:22.000Z</Time>
            <Position>
              <LatitudeDegrees>43.262952826917171478271484375</LatitudeDegrees>
              <LongitudeDegrees>-2.91675285436213016510009765625</LongitudeDegrees>
            </Position>
            <AltitudeMeters>13</AltitudeMeters>
            <DistanceMeters>7301.5173705555</DistanceMeters>
          </Trackpoint>
          <Trackpoint>
            <Time>2022-09-24T14:23:23.000Z</Time>
            <Position>
              <LatitudeDegrees>43.26291971839964389801025390625</LatitudeDegrees>
              <LongitudeDegrees>-2.91672326624393463134765625</LongitudeDegrees>
            </Position>
            <AltitudeMeters>13.19999980926513671875</AltitudeMeters>
            <DistanceMeters>7305.9133190982</DistanceMeters>
          </Trackpoint>
          <Trackpoint>
            <Time>2022-09-24T14:23:24.000Z</Time>
            <Position>
              <LatitudeDegrees>43.2628638111054897308349609375</LatitudeDegrees>
              <LongitudeDegrees>-2.91668948717415332794189453125</LongitudeDegrees>
            </Position>
            <AltitudeMeters>13.19999980926513671875</AltitudeMeters>
            <DistanceMeters>7312.7115491061</DistanceMeters>
          </Trackpoint>
          <Trackpoint>
            <Time>2022-09-24T14:23:25.000Z</Time>
            <Position>
              <LatitudeDegrees>43.2628326304256916046142578125</LatitudeDegrees>
              <LongitudeDegrees>-2.916654534637928009033203125</LongitudeDegrees>
            </Position>
            <AltitudeMeters>13.6000003814697265625</AltitudeMeters>
            <DistanceMeters>7317.1919352429</DistanceMeters>
          </Trackpoint>
          <Trackpoint>
            <Time>2022-09-24T14:23:26.000Z</Time>
            <Position>
              <LatitudeDegrees>43.26280740089714527130126953125</LatitudeDegrees>
              <LongitudeDegrees>-2.916631065309047698974609375</LongitudeDegrees>
            </Position>
            <AltitudeMeters>13.80000019073486328125</AltitudeMeters>
            <DistanceMeters>7320.5837367391</DistanceMeters>
          </Trackpoint>
          <Trackpoint>
            <Time>2022-09-24T14:23:27.000Z</Time>
            <Position>
              <LatitudeDegrees>43.2627840153872966766357421875</LatitudeDegrees>
              <LongitudeDegrees>-2.91660700924694538116455078125</LongitudeDegrees>
            </Position>
            <AltitudeMeters>13.80000019073486328125</AltitudeMeters>
            <DistanceMeters>7323.8355392417</DistanceMeters>
          </Trackpoint>
          <Trackpoint>
            <Time>2022-09-24T14:23:28.000Z</Time>
            <Position>
              <LatitudeDegrees>43.26274939812719821929931640625</LatitudeDegrees>
              <LongitudeDegrees>-2.9165764153003692626953125</LongitudeDegrees>
            </Position>
            <AltitudeMeters>14</AltitudeMeters>
            <DistanceMeters>7328.4185467486</DistanceMeters>
          </Trackpoint>
          <Trackpoint>
            <Time>2022-09-24T14:23:29.000Z</Time>
            <Position>
              <LatitudeDegrees>43.26271855272352695465087890625</LatitudeDegrees>
              <LongitudeDegrees>-2.91654766537249088287353515625</LongitudeDegrees>
            </Position>
            <AltitudeMeters>14.19999980926513671875</AltitudeMeters>
            <DistanceMeters>7332.5672002292</DistanceMeters>
          </Trackpoint>
          <Trackpoint>
            <Time>2022-09-24T14:23:30.000Z</Time>
            <Position>
              <LatitudeDegrees>43.2626908086240291595458984375</LatitudeDegrees>
              <LongitudeDegrees>-2.9165122099220752716064453125</LongitudeDegrees>
            </Position>
            <AltitudeMeters>14.3999996185302734375</AltitudeMeters>
            <DistanceMeters>7336.7849307321</DistanceMeters>
          </Trackpoint>
          <Trackpoint>
            <Time>2022-09-24T14:23:31.000Z</Time>
            <Position>
              <LatitudeDegrees>43.2626693509519100189208984375</LatitudeDegrees>
              <LongitudeDegrees>-2.91648723185062408447265625</LongitudeDegrees>
            </Position>
            <AltitudeMeters>14.80000019073486328125</AltitudeMeters>
            <DistanceMeters>7339.9164899313</DistanceMeters>
          </Trackpoint>
          <Trackpoint>
            <Time>2022-09-24T14:23:32.000Z</Time>
            <Position>
              <LatitudeDegrees>43.2626693509519100189208984375</LatitudeDegrees>
              <LongitudeDegrees>-2.91648723185062408447265625</LongitudeDegrees>
            </Position>
            <AltitudeMeters>14.80000019073486328125</AltitudeMeters>
            <DistanceMeters>7339.9164899313</DistanceMeters>
          </Trackpoint>
          <Trackpoint>
            <Time>2022-09-24T14:23:33.000Z</Time>
            <Position>
              <LatitudeDegrees>43.26259198598563671112060546875</LatitudeDegrees>
              <LongitudeDegrees>-2.9164247028529644012451171875</LongitudeDegrees>
            </Position>
            <AltitudeMeters>15.3999996185302734375</AltitudeMeters>
            <DistanceMeters>7349.9083128462</DistanceMeters>
          </Trackpoint>
          <Trackpoint>
            <Time>2022-09-24T14:23:34.000Z</Time>
            <Position>
              <LatitudeDegrees>43.26255560852587223052978515625</LatitudeDegrees>
              <LongitudeDegrees>-2.91637851856648921966552734375</LongitudeDegrees>
            </Position>
            <AltitudeMeters>15.3999996185302734375</AltitudeMeters>
            <DistanceMeters>7355.4223193195</DistanceMeters>
          </Trackpoint>
          <Trackpoint>
            <Time>2022-09-24T14:23:35.000Z</Time>
            <Position>
              <LatitudeDegrees>43.262516297399997711181640625</LatitudeDegrees>
              <LongitudeDegrees>-2.91632940061390399932861328125</LongitudeDegrees>
            </Position>
            <AltitudeMeters>15.6000003814697265625</AltitudeMeters>
            <DistanceMeters>7361.3384478083</DistanceMeters>
          </Trackpoint>
          <Trackpoint>
            <Time>2022-09-24T14:23:36.000Z</Time>
            <Position>
              <LatitudeDegrees>43.26249106787145137786865234375</LatitudeDegrees>
              <LongitudeDegrees>-2.91630978696048259735107421875</LongitudeDegrees>
            </Position>
            <AltitudeMeters>15.6000003814697265625</AltitudeMeters>
            <DistanceMeters>7364.5665599836</DistanceMeters>
          </Trackpoint>
          <Trackpoint>
            <Time>2022-09-24T14:23:37.000Z</Time>
            <Position>
              <LatitudeDegrees>43.26249106787145137786865234375</LatitudeDegrees>
              <LongitudeDegrees>-2.91630978696048259735107421875</LongitudeDegrees>
            </Position>
            <AltitudeMeters>16</AltitudeMeters>
            <DistanceMeters>7364.5665599836</DistanceMeters>
          </Trackpoint>
          <Trackpoint>
            <Time>2022-09-24T14:23:38.000Z</Time>
            <Position>
              <LatitudeDegrees>43.26241211034357547760009765625</LatitudeDegrees>
              <LongitudeDegrees>-2.91625496931374073028564453125</LongitudeDegrees>
            </Position>
            <AltitudeMeters>16</AltitudeMeters>
            <DistanceMeters>7374.4140972865</DistanceMeters>
          </Trackpoint>
          <Trackpoint>
            <Time>2022-09-24T14:23:39.000Z</Time>
            <Position>
              <LatitudeDegrees>43.26238277368247509002685546875</LatitudeDegrees>
              <LongitudeDegrees>-2.91622563265264034271240234375</LongitudeDegrees>
            </Position>
            <AltitudeMeters>16</AltitudeMeters>
            <DistanceMeters>7378.454688606</DistanceMeters>
          </Trackpoint>
          <Trackpoint>
            <Time>2022-09-24T14:23:40.000Z</Time>
            <Position>
              <LatitudeDegrees>43.262356035411357879638671875</LatitudeDegrees>
              <LongitudeDegrees>-2.9161930270493030548095703125</LongitudeDegrees>
            </Position>
            <AltitudeMeters>16.3999996185302734375</AltitudeMeters>
            <DistanceMeters>7382.4344818271</DistanceMeters>
          </Trackpoint>
          <Trackpoint>
            <Time>2022-09-24T14:23:41.000Z</Time>
            <Position>
              <LatitudeDegrees>43.26232426799833774566650390625</LatitudeDegrees>
              <LongitudeDegrees>-2.91616561822593212127685546875</LongitudeDegrees>
            </Position>
            <AltitudeMeters>16.6000003814697265625</AltitudeMeters>
            <DistanceMeters>7386.6113356298</DistanceMeters>
          </Trackpoint>
          <Trackpoint>
            <Time>2022-09-24T14:23:42.000Z</Time>
            <Position>
              <LatitudeDegrees>43.26229803264141082763671875</LatitudeDegrees>
              <LongitudeDegrees>-2.916173078119754791259765625</LongitudeDegrees>
            </Position>
            <AltitudeMeters>16.6000003814697265625</AltitudeMeters>
            <DistanceMeters>7389.5922071837</DistanceMeters>
          </Trackpoint>
          <Trackpoint>
            <Time>2022-09-24T14:23:43.000Z</Time>
            <Position>
              <LatitudeDegrees>43.26226592995226383209228515625</LatitudeDegrees>
              <LongitudeDegrees>-2.9161393828690052032470703125</LongitudeDegrees>
            </Position>
            <AltitudeMeters>16.799999237060546875</AltitudeMeters>
            <DistanceMeters>7394.0896921736</DistanceMeters>
          </Trackpoint>
          <Trackpoint>
            <Time>2022-09-24T14:23:44.000Z</Time>
            <Position>
              <LatitudeDegrees>43.2622365094721317291259765625</LatitudeDegrees>
              <LongitudeDegrees>-2.916112057864665985107421875</LongitudeDegrees>
            </Position>
            <AltitudeMeters>17.200000762939453125</AltitudeMeters>
            <DistanceMeters>7398.0421638368</DistanceMeters>
          </Trackpoint>
          <Trackpoint>
            <Time>2022-09-24T14:23:45.000Z</Time>
            <Position>
              <LatitudeDegrees>43.26221429742872714996337890625</LatitudeDegrees>
              <LongitudeDegrees>-2.91609303094446659088134765625</LongitudeDegrees>
            </Position>
            <AltitudeMeters>17.200000762939453125</AltitudeMeters>
            <DistanceMeters>7400.9587255128</DistanceMeters>
          </Trackpoint>
          <Trackpoint>
            <Time>2022-09-24T14:23:46.000Z</Time>
            <Position>
              <LatitudeDegrees>43.26218814589083194732666015625</LatitudeDegrees>
              <LongitudeDegrees>-2.9160676337778568267822265625</LongitudeDegrees>
            </Position>
            <AltitudeMeters>17.3999996185302734375</AltitudeMeters>
            <DistanceMeters>7404.5244439023</DistanceMeters>
          </Trackpoint>
          <Trackpoint>
            <Time>2022-09-24T14:23:47.000Z</Time>
            <Position>
              <LatitudeDegrees>43.262154199182987213134765625</LatitudeDegrees>
              <LongitudeDegrees>-2.91603636927902698516845703125</LongitudeDegrees>
            </Position>
            <AltitudeMeters>17.6000003814697265625</AltitudeMeters>
            <DistanceMeters>7409.0738323458</DistanceMeters>
          </Trackpoint>
          <Trackpoint>
            <Time>2022-09-24T14:23:48.000Z</Time>
            <Position>
              <LatitudeDegrees>43.26212394051253795623779296875</LatitudeDegrees>
              <LongitudeDegrees>-2.9160086251795291900634765625</LongitudeDegrees>
            </Position>
            <AltitudeMeters>17.799999237060546875</AltitudeMeters>
            <DistanceMeters>7413.1233531597</DistanceMeters>
          </Trackpoint>
          <Trackpoint>
            <Time>2022-09-24T14:23:49.000Z</Time>
            <Position>
              <LatitudeDegrees>43.26209795661270618438720703125</LatitudeDegrees>
              <LongitudeDegrees>-2.91598658077418804168701171875</LongitudeDegrees>
            </Position>
            <AltitudeMeters>17.799999237060546875</AltitudeMeters>
            <DistanceMeters>7416.5231322478</DistanceMeters>
          </Trackpoint>
          <Trackpoint>
            <Time>2022-09-24T14:23:50.000Z</Time>
            <Position>
              <LatitudeDegrees>43.26206007041037082672119140625</LatitudeDegrees>
              <LongitudeDegrees>-2.91595573537051677703857421875</LongitudeDegrees>
            </Position>
            <AltitudeMeters>18</AltitudeMeters>
            <DistanceMeters>7421.4250740485</DistanceMeters>
          </Trackpoint>
          <Trackpoint>
            <Time>2022-09-24T14:23:51.000Z</Time>
            <Position>
              <LatitudeDegrees>43.26203458942472934722900390625</LatitudeDegrees>
              <LongitudeDegrees>-2.9159335233271121978759765625</LongitudeDegrees>
            </Position>
            <AltitudeMeters>18.3999996185302734375</AltitudeMeters>
            <DistanceMeters>7424.7834316052</DistanceMeters>
          </Trackpoint>
          <Trackpoint>
            <Time>2022-09-24T14:23:52.000Z</Time>
            <Position>
              <LatitudeDegrees>43.26200190000236034393310546875</LatitudeDegrees>
              <LongitudeDegrees>-2.91590443812310695648193359375</LongitudeDegrees>
            </Position>
            <AltitudeMeters>18.6000003814697265625</AltitudeMeters>
            <DistanceMeters>7429.1193996812</DistanceMeters>
          </Trackpoint>
          <Trackpoint>
            <Time>2022-09-24T14:23:53.000Z</Time>
            <Position>
              <LatitudeDegrees>43.26196300797164440155029296875</LatitudeDegrees>
              <LongitudeDegrees>-2.91586973704397678375244140625</LongitudeDegrees>
            </Position>
            <AltitudeMeters>18.6000003814697265625</AltitudeMeters>
            <DistanceMeters>7434.2824206634</DistanceMeters>
          </Trackpoint>
          <Trackpoint>
            <Time>2022-09-24T14:23:54.000Z</Time>
            <Position>
              <LatitudeDegrees>43.26193115673959255218505859375</LatitudeDegrees>
              <LongitudeDegrees>-2.91584073565900325775146484375</LongitudeDegrees>
            </Position>
            <AltitudeMeters>18.6000003814697265625</AltitudeMeters>
            <DistanceMeters>7438.5363921247</DistanceMeters>
          </Trackpoint>
          <Trackpoint>
            <Time>2022-09-24T14:23:55.000Z</Time>
            <Position>
              <LatitudeDegrees>43.26190567575395107269287109375</LatitudeDegrees>
              <LongitudeDegrees>-2.91581743396818637847900390625</LongitudeDegrees>
            </Position>
            <AltitudeMeters>19</AltitudeMeters>
            <DistanceMeters>7441.9441301292</DistanceMeters>
          </Trackpoint>
          <Trackpoint>
            <Time>2022-09-24T14:23:56.000Z</Time>
            <Position>
              <LatitudeDegrees>43.2618760876357555389404296875</LatitudeDegrees>
              <LongitudeDegrees>-2.915789522230625152587890625</LongitudeDegrees>
            </Position>
            <AltitudeMeters>19.6000003814697265625</AltitudeMeters>
            <DistanceMeters>7445.939774652</DistanceMeters>
          </Trackpoint>
          <Trackpoint>
            <Time>2022-09-24T14:23:57.000Z</Time>
            <Position>
              <LatitudeDegrees>43.26184616424143314361572265625</LatitudeDegrees>
              <LongitudeDegrees>-2.91576093994081020355224609375</LongitudeDegrees>
            </Position>
            <AltitudeMeters>19.6000003814697265625</AltitudeMeters>
            <DistanceMeters>7449.9970926525</DistanceMeters>
          </Trackpoint>
          <Trackpoint>
            <Time>2022-09-24T14:23:58.000Z</Time>
            <Position>
              <LatitudeDegrees>43.2618172466754913330078125</LatitudeDegrees>
              <LongitudeDegrees>-2.91573353111743927001953125</LongitudeDegrees>
            </Position>
            <AltitudeMeters>19.799999237060546875</AltitudeMeters>
            <DistanceMeters>7453.9082241379</DistanceMeters>
          </Trackpoint>
          <Trackpoint>
            <Time>2022-09-24T14:23:59.000Z</Time>
            <Position>
              <LatitudeDegrees>43.26178581453859806060791015625</LatitudeDegrees>
              <LongitudeDegrees>-2.91570645757019519805908203125</LongitudeDegrees>
            </Position>
            <AltitudeMeters>20</AltitudeMeters>
            <DistanceMeters>7458.038334839</DistanceMeters>
          </Trackpoint>
          <Trackpoint>
            <Time>2022-09-24T14:24:00.000Z</Time>
            <Position>
              <LatitudeDegrees>43.26178581453859806060791015625</LatitudeDegrees>
              <LongitudeDegrees>-2.91570645757019519805908203125</LongitudeDegrees>
            </Position>
            <AltitudeMeters>20</AltitudeMeters>
            <DistanceMeters>7458.038334839</DistanceMeters>
          </Trackpoint>
          <Trackpoint>
            <Time>2022-09-24T14:24:01.000Z</Time>
            <Position>
              <LatitudeDegrees>43.26171859167516231536865234375</LatitudeDegrees>
              <LongitudeDegrees>-2.91564241982996463775634765625</LongitudeDegrees>
            </Position>
            <AltitudeMeters>20.3999996185302734375</AltitudeMeters>
            <DistanceMeters>7467.1450478608</DistanceMeters>
          </Trackpoint>
          <Trackpoint>
            <Time>2022-09-24T14:24:02.000Z</Time>
            <Position>
              <LatitudeDegrees>43.26169512234628200531005859375</LatitudeDegrees>
              <LongitudeDegrees>-2.91561827994883060455322265625</LongitudeDegrees>
            </Position>
            <AltitudeMeters>20.3999996185302734375</AltitudeMeters>
            <DistanceMeters>7470.4093226966</DistanceMeters>
          </Trackpoint>
          <Trackpoint>
            <Time>2022-09-24T14:24:03.000Z</Time>
            <Position>
              <LatitudeDegrees>43.26166276820003986358642578125</LatitudeDegrees>
              <LongitudeDegrees>-2.91558106429874897003173828125</LongitudeDegrees>
            </Position>
            <AltitudeMeters>20.6000003814697265625</AltitudeMeters>
            <DistanceMeters>7475.1071420661</DistanceMeters>
          </Trackpoint>
          <Trackpoint>
            <Time>2022-09-24T14:24:04.000Z</Time>
            <Position>
              <LatitudeDegrees>43.26163561083376407623291015625</LatitudeDegrees>
              <LongitudeDegrees>-2.91555239818990230560302734375</LongitudeDegrees>
            </Position>
            <AltitudeMeters>21</AltitudeMeters>
            <DistanceMeters>7478.9200704781</DistanceMeters>
          </Trackpoint>
          <Trackpoint>
            <Time>2022-09-24T14:24:05.000Z</Time>
            <Position>
              <LatitudeDegrees>43.26161365024745464324951171875</LatitudeDegrees>
              <LongitudeDegrees>-2.91552876122295856475830078125</LongitudeDegrees>
            </Position>
            <AltitudeMeters>21.3999996185302734375</AltitudeMeters>
            <DistanceMeters>7482.0241148666</DistanceMeters>
          </Trackpoint>
          <Trackpoint>
            <Time>2022-09-24T14:24:06.000Z</Time>
            <Position>
              <LatitudeDegrees>43.26158498413860797882080078125</LatitudeDegrees>
              <LongitudeDegrees>-2.91549883782863616943359375</LongitudeDegrees>
            </Position>
            <AltitudeMeters>21.6000003814697265625</AltitudeMeters>
            <DistanceMeters>7486.0310433558</DistanceMeters>
          </Trackpoint>
          <Trackpoint>
            <Time>2022-09-24T14:24:07.000Z</Time>
            <Position>
              <LatitudeDegrees>43.2615528814494609832763671875</LatitudeDegrees>
              <LongitudeDegrees>-2.91546639986336231231689453125</LongitudeDegrees>
            </Position>
            <AltitudeMeters>21.799999237060546875</AltitudeMeters>
            <DistanceMeters>7490.4678853236</DistanceMeters>
          </Trackpoint>
          <Trackpoint>
            <Time>2022-09-24T14:24:08.000Z</Time>
            <Position>
              <LatitudeDegrees>43.26151642017066478729248046875</LatitudeDegrees>
              <LongitudeDegrees>-2.915427424013614654541015625</LongitudeDegrees>
            </Position>
            <AltitudeMeters>22</AltitudeMeters>
            <DistanceMeters>7495.6116314275</DistanceMeters>
          </Trackpoint>
          <Trackpoint>
            <Time>2022-09-24T14:24:09.000Z</Time>
            <Position>
              <LatitudeDegrees>43.26148808933794498443603515625</LatitudeDegrees>
              <LongitudeDegrees>-2.91539247147738933563232421875</LongitudeDegrees>
            </Position>
            <AltitudeMeters>22</AltitudeMeters>
            <DistanceMeters>7499.8507176643</DistanceMeters>
          </Trackpoint>
          <Trackpoint>
            <Time>2022-09-24T14:24:10.000Z</Time>
            <Position>
              <LatitudeDegrees>43.26146914623677730560302734375</LatitudeDegrees>
              <LongitudeDegrees>-2.91536380536854267120361328125</LongitudeDegrees>
            </Position>
            <AltitudeMeters>22</AltitudeMeters>
            <DistanceMeters>7502.990915664</DistanceMeters>
          </Trackpoint>
          <Trackpoint>
            <Time>2022-09-24T14:24:11.000Z</Time>
            <Position>
              <LatitudeDegrees>43.261432014405727386474609375</LatitudeDegrees>
              <LongitudeDegrees>-2.91532960720360279083251953125</LongitudeDegrees>
            </Position>
            <AltitudeMeters>22</AltitudeMeters>
            <DistanceMeters>7507.9678122558</DistanceMeters>
          </Trackpoint>
          <Trackpoint>
            <Time>2022-09-24T14:24:12.000Z</Time>
            <Position>
              <LatitudeDegrees>43.26140410266816616058349609375</LatitudeDegrees>
              <LongitudeDegrees>-2.91530127637088298797607421875</LongitudeDegrees>
            </Position>
            <AltitudeMeters>22.799999237060546875</AltitudeMeters>
            <DistanceMeters>7511.8324916006</DistanceMeters>
          </Trackpoint>
          <Trackpoint>
            <Time>2022-09-24T14:24:13.000Z</Time>
            <Position>
              <LatitudeDegrees>43.26137325726449489593505859375</LatitudeDegrees>
              <LongitudeDegrees>-2.91527294553816318511962890625</LongitudeDegrees>
            </Position>
            <AltitudeMeters>23.200000762939453125</AltitudeMeters>
            <DistanceMeters>7515.9636953573</DistanceMeters>
          </Trackpoint>
          <Trackpoint>
            <Time>2022-09-24T14:24:14.000Z</Time>
            <Position>
              <LatitudeDegrees>43.26134341768920421600341796875</LatitudeDegrees>
              <LongitudeDegrees>-2.91524796746671199798583984375</LongitudeDegrees>
            </Position>
            <AltitudeMeters>23.3999996185302734375</AltitudeMeters>
            <DistanceMeters>7519.8539920195</DistanceMeters>
          </Trackpoint>
          <Trackpoint>
            <Time>2022-09-24T14:24:15.000Z</Time>
            <Position>
              <LatitudeDegrees>43.26131592504680156707763671875</LatitudeDegrees>
              <LongitudeDegrees>-2.9152240790426731109619140625</LongitudeDegrees>
            </Position>
            <AltitudeMeters>23.3999996185302734375</AltitudeMeters>
            <DistanceMeters>7523.4749961615</DistanceMeters>
          </Trackpoint>
          <Trackpoint>
            <Time>2022-09-24T14:24:16.000Z</Time>
            <Position>
              <LatitudeDegrees>43.261285163462162017822265625</LatitudeDegrees>
              <LongitudeDegrees>-2.91519113816320896148681640625</LongitudeDegrees>
            </Position>
            <AltitudeMeters>23.6000003814697265625</AltitudeMeters>
            <DistanceMeters>7527.8161676092</DistanceMeters>
          </Trackpoint>
          <Trackpoint>
            <Time>2022-09-24T14:24:17.000Z</Time>
            <Position>
              <LatitudeDegrees>43.26125674881041049957275390625</LatitudeDegrees>
              <LongitudeDegrees>-2.9151570238173007965087890625</LongitudeDegrees>
            </Position>
            <AltitudeMeters>23.6000003814697265625</AltitudeMeters>
            <DistanceMeters>7532.0167353532</DistanceMeters>
          </Trackpoint>
          <Trackpoint>
            <Time>2022-09-24T14:24:18.000Z</Time>
            <Position>
              <LatitudeDegrees>43.26122053898870944976806640625</LatitudeDegrees>
              <LongitudeDegrees>-2.915117628872394561767578125</LongitudeDegrees>
            </Position>
            <AltitudeMeters>23.799999237060546875</AltitudeMeters>
            <DistanceMeters>7537.1587256126</DistanceMeters>
          </Trackpoint>
          <Trackpoint>
            <Time>2022-09-24T14:24:19.000Z</Time>
            <Position>
              <LatitudeDegrees>43.26119832694530487060546875</LatitudeDegrees>
              <LongitudeDegrees>-2.91509650647640228271484375</LongitudeDegrees>
            </Position>
            <AltitudeMeters>23.799999237060546875</AltitudeMeters>
            <DistanceMeters>7540.1667376799</DistanceMeters>
          </Trackpoint>
          <Trackpoint>
            <Time>2022-09-24T14:24:20.000Z</Time>
            <Position>
              <LatitudeDegrees>43.26117242686450481414794921875</LatitudeDegrees>
              <LongitudeDegrees>-2.915071360766887664794921875</LongitudeDegrees>
            </Position>
            <AltitudeMeters>24</AltitudeMeters>
            <DistanceMeters>7543.6968234427</DistanceMeters>
          </Trackpoint>
          <Trackpoint>
            <Time>2022-09-24T14:24:21.000Z</Time>
            <Position>
              <LatitudeDegrees>43.2611351273953914642333984375</LatitudeDegrees>
              <LongitudeDegrees>-2.91503540240228176116943359375</LongitudeDegrees>
            </Position>
            <AltitudeMeters>24.200000762939453125</AltitudeMeters>
            <DistanceMeters>7548.7698617695</DistanceMeters>
          </Trackpoint>
          <Trackpoint>
            <Time>2022-09-24T14:24:22.000Z</Time>
            <Position>
              <LatitudeDegrees>43.26110855676233768463134765625</LatitudeDegrees>
              <LongitudeDegrees>-2.91500975377857685089111328125</LongitudeDegrees>
            </Position>
            <AltitudeMeters>24.3999996185302734375</AltitudeMeters>
            <DistanceMeters>7552.3833767532</DistanceMeters>
          </Trackpoint>
          <Trackpoint>
            <Time>2022-09-24T14:24:23.000Z</Time>
            <Position>
              <LatitudeDegrees>43.2610714249312877655029296875</LatitudeDegrees>
              <LongitudeDegrees>-2.91497136466205120086669921875</LongitudeDegrees>
            </Position>
            <AltitudeMeters>24.3999996185302734375</AltitudeMeters>
            <DistanceMeters>7557.5560082405</DistanceMeters>
          </Trackpoint>
          <Trackpoint>
            <Time>2022-09-24T14:24:24.000Z</Time>
            <Position>
              <LatitudeDegrees>43.26104653067886829376220703125</LatitudeDegrees>
              <LongitudeDegrees>-2.914943955838680267333984375</LongitudeDegrees>
            </Position>
            <AltitudeMeters>24.799999237060546875</AltitudeMeters>
            <DistanceMeters>7561.1090417147</DistanceMeters>
          </Trackpoint>
          <Trackpoint>
            <Time>2022-09-24T14:24:25.000Z</Time>
            <Position>
              <LatitudeDegrees>43.26101484708487987518310546875</LatitudeDegrees>
              <LongitudeDegrees>-2.91491034440696239471435546875</LongitudeDegrees>
            </Position>
            <AltitudeMeters>25</AltitudeMeters>
            <DistanceMeters>7565.5661897016</DistanceMeters>
          </Trackpoint>
          <Trackpoint>
            <Time>2022-09-24T14:24:26.000Z</Time>
            <Position>
              <LatitudeDegrees>43.26097561977803707122802734375</LatitudeDegrees>
              <LongitudeDegrees>-2.91487388312816619873046875</LongitudeDegrees>
            </Position>
            <AltitudeMeters>25</AltitudeMeters>
            <DistanceMeters>7570.83824578</DistanceMeters>
          </Trackpoint>
          <Trackpoint>
            <Time>2022-09-24T14:24:27.000Z</Time>
            <Position>
              <LatitudeDegrees>43.2609517313539981842041015625</LatitudeDegrees>
              <LongitudeDegrees>-2.91484815068542957305908203125</LongitudeDegrees>
            </Position>
            <AltitudeMeters>25.200000762939453125</AltitudeMeters>
            <DistanceMeters>7574.2193812074</DistanceMeters>
          </Trackpoint>
          <Trackpoint>
            <Time>2022-09-24T14:24:28.000Z</Time>
            <Position>
              <LatitudeDegrees>43.26091761700809001922607421875</LatitudeDegrees>
              <LongitudeDegrees>-2.91481479071080684661865234375</LongitudeDegrees>
            </Position>
            <AltitudeMeters>25.200000762939453125</AltitudeMeters>
            <DistanceMeters>7578.8815045435</DistanceMeters>
          </Trackpoint>
          <Trackpoint>
            <Time>2022-09-24T14:24:29.000Z</Time>
            <Position>
              <LatitudeDegrees>43.2608846761286258697509765625</LatitudeDegrees>
              <LongitudeDegrees>-2.91477673687040805816650390625</LongitudeDegrees>
            </Position>
            <AltitudeMeters>25.3999996185302734375</AltitudeMeters>
            <DistanceMeters>7583.6744696459</DistanceMeters>
          </Trackpoint>
          <Trackpoint>
            <Time>2022-09-24T14:24:30.000Z</Time>
            <Position>
              <LatitudeDegrees>43.2608846761286258697509765625</LatitudeDegrees>
              <LongitudeDegrees>-2.91477673687040805816650390625</LongitudeDegrees>
            </Position>
            <AltitudeMeters>25.6000003814697265625</AltitudeMeters>
            <DistanceMeters>7583.6744696459</DistanceMeters>
          </Trackpoint>
          <Trackpoint>
            <Time>2022-09-24T14:24:31.000Z</Time>
            <Position>
              <LatitudeDegrees>43.260802365839481353759765625</LatitudeDegrees>
              <LongitudeDegrees>-2.9146921634674072265625</LongitudeDegrees>
            </Position>
            <AltitudeMeters>25.799999237060546875</AltitudeMeters>
            <DistanceMeters>7595.1164121508</DistanceMeters>
          </Trackpoint>
          <Trackpoint>
            <Time>2022-09-24T14:24:32.000Z</Time>
            <Position>
              <LatitudeDegrees>43.26077244244515895843505859375</LatitudeDegrees>
              <LongitudeDegrees>-2.9146500863134860992431640625</LongitudeDegrees>
            </Position>
            <AltitudeMeters>25.799999237060546875</AltitudeMeters>
            <DistanceMeters>7599.8829278943</DistanceMeters>
          </Trackpoint>
          <Trackpoint>
            <Time>2022-09-24T14:24:33.000Z</Time>
            <Position>
              <LatitudeDegrees>43.26074293814599514007568359375</LatitudeDegrees>
              <LongitudeDegrees>-2.9146142117679119110107421875</LongitudeDegrees>
            </Position>
            <AltitudeMeters>26</AltitudeMeters>
            <DistanceMeters>7604.2685935023</DistanceMeters>
          </Trackpoint>
          <Trackpoint>
            <Time>2022-09-24T14:24:34.000Z</Time>
            <Position>
              <LatitudeDegrees>43.2607143558561801910400390625</LatitudeDegrees>
              <LongitudeDegrees>-2.9145803488790988922119140625</LongitudeDegrees>
            </Position>
            <AltitudeMeters>26.200000762939453125</AltitudeMeters>
            <DistanceMeters>7608.4691612463</DistanceMeters>
          </Trackpoint>
          <Trackpoint>
            <Time>2022-09-24T14:24:35.000Z</Time>
            <Position>
              <LatitudeDegrees>43.2607143558561801910400390625</LatitudeDegrees>
              <LongitudeDegrees>-2.9145803488790988922119140625</LongitudeDegrees>
            </Position>
            <AltitudeMeters>26.200000762939453125</AltitudeMeters>
            <DistanceMeters>7608.4691612463</DistanceMeters>
          </Trackpoint>
          <Trackpoint>
            <Time>2022-09-24T14:24:36.000Z</Time>
            <Position>
              <LatitudeDegrees>43.260630033910274505615234375</LatitudeDegrees>
              <LongitudeDegrees>-2.91447498835623264312744140625</LongitudeDegrees>
            </Position>
            <AltitudeMeters>26.3999996185302734375</AltitudeMeters>
            <DistanceMeters>7621.1579855809</DistanceMeters>
          </Trackpoint>
          <Trackpoint>
            <Time>2022-09-24T14:24:37.000Z</Time>
            <Position>
              <LatitudeDegrees>43.2606090791523456573486328125</LatitudeDegrees>
              <LongitudeDegrees>-2.914435677230358123779296875</LongitudeDegrees>
            </Position>
            <AltitudeMeters>26.3999996185302734375</AltitudeMeters>
            <DistanceMeters>7625.1058852684</DistanceMeters>
          </Trackpoint>
          <Trackpoint>
            <Time>2022-09-24T14:24:38.000Z</Time>
            <Position>
              <LatitudeDegrees>43.2605721987783908843994140625</LatitudeDegrees>
              <LongitudeDegrees>-2.91439552791416645050048828125</LongitudeDegrees>
            </Position>
            <AltitudeMeters>26.6000003814697265625</AltitudeMeters>
            <DistanceMeters>7630.3444349067</DistanceMeters>
          </Trackpoint>
          <Trackpoint>
            <Time>2022-09-24T14:24:39.000Z</Time>
            <Position>
              <LatitudeDegrees>43.26053523458540439605712890625</LatitudeDegrees>
              <LongitudeDegrees>-2.914357893168926239013671875</LongitudeDegrees>
            </Position>
            <AltitudeMeters>26.6000003814697265625</AltitudeMeters>
            <DistanceMeters>7635.4653080738</DistanceMeters>
          </Trackpoint>
          <Trackpoint>
            <Time>2022-09-24T14:24:40.000Z</Time>
            <Position>
              <LatitudeDegrees>43.26053523458540439605712890625</LatitudeDegrees>
              <LongitudeDegrees>-2.914357893168926239013671875</LongitudeDegrees>
            </Position>
            <AltitudeMeters>26.6000003814697265625</AltitudeMeters>
            <DistanceMeters>7635.4653080738</DistanceMeters>
          </Trackpoint>
          <Trackpoint>
            <Time>2022-09-24T14:24:41.000Z</Time>
            <Position>
              <LatitudeDegrees>43.26047203503549098968505859375</LatitudeDegrees>
              <LongitudeDegrees>-2.91429561562836170196533203125</LongitudeDegrees>
            </Position>
            <AltitudeMeters>26.6000003814697265625</AltitudeMeters>
            <DistanceMeters>7644.1226537689</DistanceMeters>
          </Trackpoint>
          <Trackpoint>
            <Time>2022-09-24T14:24:42.000Z</Time>
            <Position>
              <LatitudeDegrees>43.26043666340410709381103515625</LatitudeDegrees>
              <LongitudeDegrees>-2.9142541252076625823974609375</LongitudeDegrees>
            </Position>
            <AltitudeMeters>26.6000003814697265625</AltitudeMeters>
            <DistanceMeters>7649.3013917463</DistanceMeters>
          </Trackpoint>
          <Trackpoint>
            <Time>2022-09-24T14:24:43.000Z</Time>
            <Position>
              <LatitudeDegrees>43.2603981904685497283935546875</LatitudeDegrees>
              <LongitudeDegrees>-2.914212048053741455078125</LongitudeDegrees>
            </Position>
            <AltitudeMeters>26.6000003814697265625</AltitudeMeters>
            <DistanceMeters>7654.7767779239</DistanceMeters>
          </Trackpoint>
          <Trackpoint>
            <Time>2022-09-24T14:24:44.000Z</Time>
            <Position>
              <LatitudeDegrees>43.26035787351429462432861328125</LatitudeDegrees>
              <LongitudeDegrees>-2.9141693003475666046142578125</LongitudeDegrees>
            </Position>
            <AltitudeMeters>26.799999237060546875</AltitudeMeters>
            <DistanceMeters>7660.4466167347</DistanceMeters>
          </Trackpoint>
          <Trackpoint>
            <Time>2022-09-24T14:24:45.000Z</Time>
            <Position>
              <LatitudeDegrees>43.26032049022614955902099609375</LatitudeDegrees>
              <LongitudeDegrees>-2.91412713937461376190185546875</LongitudeDegrees>
            </Position>
            <AltitudeMeters>26.799999237060546875</AltitudeMeters>
            <DistanceMeters>7665.8313707181</DistanceMeters>
          </Trackpoint>
          <Trackpoint>
            <Time>2022-09-24T14:24:46.000Z</Time>
            <Position>
              <LatitudeDegrees>43.26027489267289638519287109375</LatitudeDegrees>
              <LongitudeDegrees>-2.9140740819275379180908203125</LongitudeDegrees>
            </Position>
            <AltitudeMeters>27</AltitudeMeters>
            <DistanceMeters>7672.483240724</DistanceMeters>
          </Trackpoint>
          <Trackpoint>
            <Time>2022-09-24T14:24:47.000Z</Time>
            <Position>
              <LatitudeDegrees>43.26023331843316555023193359375</LatitudeDegrees>
              <LongitudeDegrees>-2.91402420960366725921630859375</LongitudeDegrees>
            </Position>
            <AltitudeMeters>27</AltitudeMeters>
            <DistanceMeters>7678.6277300935</DistanceMeters>
          </Trackpoint>
          <Trackpoint>
            <Time>2022-09-24T14:24:48.000Z</Time>
            <Position>
              <LatitudeDegrees>43.26018788851797580718994140625</LatitudeDegrees>
              <LongitudeDegrees>-2.9139731638133525848388671875</LongitudeDegrees>
            </Position>
            <AltitudeMeters>27.200000762939453125</AltitudeMeters>
            <DistanceMeters>7685.1611190572</DistanceMeters>
          </Trackpoint>
          <Trackpoint>
            <Time>2022-09-24T14:24:49.000Z</Time>
            <Position>
              <LatitudeDegrees>43.26014748774468898773193359375</LatitudeDegrees>
              <LongitudeDegrees>-2.913922034204006195068359375</LongitudeDegrees>
            </Position>
            <AltitudeMeters>27.200000762939453125</AltitudeMeters>
            <DistanceMeters>7691.2768836562</DistanceMeters>
          </Trackpoint>
          <Trackpoint>
            <Time>2022-09-24T14:24:50.000Z</Time>
            <Position>
              <LatitudeDegrees>43.26011396013200283050537109375</LatitudeDegrees>
              <LongitudeDegrees>-2.913879454135894775390625</LongitudeDegrees>
            </Position>
            <AltitudeMeters>27.6000003814697265625</AltitudeMeters>
            <DistanceMeters>7696.3597026286</DistanceMeters>
          </Trackpoint>
          <Trackpoint>
            <Time>2022-09-24T14:24:51.000Z</Time>
            <Position>
              <LatitudeDegrees>43.2600609026849269866943359375</LatitudeDegrees>
              <LongitudeDegrees>-2.91381985880434513092041015625</LongitudeDegrees>
            </Position>
            <AltitudeMeters>27.799999237060546875</AltitudeMeters>
            <DistanceMeters>7703.9891110433</DistanceMeters>
          </Trackpoint>
          <Trackpoint>
            <Time>2022-09-24T14:24:52.000Z</Time>
            <Position>
              <LatitudeDegrees>43.26001740060746669769287109375</LatitudeDegrees>
              <LongitudeDegrees>-2.9137713275849819183349609375</LongitudeDegrees>
            </Position>
            <AltitudeMeters>28</AltitudeMeters>
            <DistanceMeters>7710.2276709311</DistanceMeters>
          </Trackpoint>
          <Trackpoint>
            <Time>2022-09-24T14:24:53.000Z</Time>
            <Position>
              <LatitudeDegrees>43.25997549109160900115966796875</LatitudeDegrees>
              <LongitudeDegrees>-2.91371558792889118194580078125</LongitudeDegrees>
            </Position>
            <AltitudeMeters>28</AltitudeMeters>
            <DistanceMeters>7716.7208540424</DistanceMeters>
          </Trackpoint>
          <Trackpoint>
            <Time>2022-09-24T14:24:54.000Z</Time>
            <Position>
              <LatitudeDegrees>43.25994330458343029022216796875</LatitudeDegrees>
              <LongitudeDegrees>-2.9136757738888263702392578125</LongitudeDegrees>
            </Position>
            <AltitudeMeters>28</AltitudeMeters>
            <DistanceMeters>7721.5438693771</DistanceMeters>
          </Trackpoint>
          <Trackpoint>
            <Time>2022-09-24T14:24:55.000Z</Time>
            <Position>
              <LatitudeDegrees>43.259884379804134368896484375</LatitudeDegrees>
              <LongitudeDegrees>-2.91361651383340358734130859375</LongitudeDegrees>
            </Position>
            <AltitudeMeters>28</AltitudeMeters>
            <DistanceMeters>7729.6729590812</DistanceMeters>
          </Trackpoint>
          <Trackpoint>
            <Time>2022-09-24T14:24:56.000Z</Time>
            <Position>
              <LatitudeDegrees>43.25983308255672454833984375</LatitudeDegrees>
              <LongitudeDegrees>-2.913566641509532928466796875</LongitudeDegrees>
            </Position>
            <AltitudeMeters>28</AltitudeMeters>
            <DistanceMeters>7736.6688874918</DistanceMeters>
          </Trackpoint>
          <Trackpoint>
            <Time>2022-09-24T14:24:57.000Z</Time>
            <Position>
              <LatitudeDegrees>43.2597859762609004974365234375</LatitudeDegrees>
              <LongitudeDegrees>-2.913531102240085601806640625</LongitudeDegrees>
            </Position>
            <AltitudeMeters>28.200000762939453125</AltitudeMeters>
            <DistanceMeters>7742.651043704</DistanceMeters>
          </Trackpoint>
          <Trackpoint>
            <Time>2022-09-24T14:24:58.000Z</Time>
            <Position>
              <LatitudeDegrees>43.2597319968044757843017578125</LatitudeDegrees>
              <LongitudeDegrees>-2.9134839959442615509033203125</LongitudeDegrees>
            </Position>
            <AltitudeMeters>28</AltitudeMeters>
            <DistanceMeters>7749.7691725963</DistanceMeters>
          </Trackpoint>
          <Trackpoint>
            <Time>2022-09-24T14:24:59.000Z</Time>
            <Position>
              <LatitudeDegrees>43.25968086719512939453125</LatitudeDegrees>
              <LongitudeDegrees>-2.9134387336671352386474609375</LongitudeDegrees>
            </Position>
            <AltitudeMeters>28</AltitudeMeters>
            <DistanceMeters>7756.5394508793</DistanceMeters>
          </Trackpoint>
          <Trackpoint>
            <Time>2022-09-24T14:25:00.000Z</Time>
            <Position>
              <LatitudeDegrees>43.25961071066558361053466796875</LatitudeDegrees>
              <LongitudeDegrees>-2.91338701732456684112548828125</LongitudeDegrees>
            </Position>
            <AltitudeMeters>28</AltitudeMeters>
            <DistanceMeters>7765.4019338784</DistanceMeters>
          </Trackpoint>
          <Trackpoint>
            <Time>2022-09-24T14:25:01.000Z</Time>
            <Position>
              <LatitudeDegrees>43.25955840758979320526123046875</LatitudeDegrees>
              <LongitudeDegrees>-2.91335918940603733062744140625</LongitudeDegrees>
            </Position>
            <AltitudeMeters>28</AltitudeMeters>
            <DistanceMeters>7771.6448346411</DistanceMeters>
          </Trackpoint>
          <Trackpoint>
            <Time>2022-09-24T14:25:02.000Z</Time>
            <Position>
              <LatitudeDegrees>43.2594838924705982208251953125</LatitudeDegrees>
              <LongitudeDegrees>-2.91332147084176540374755859375</LongitudeDegrees>
            </Position>
            <AltitudeMeters>28.200000762939453125</AltitudeMeters>
            <DistanceMeters>7780.4838516335</DistanceMeters>
          </Trackpoint>
          <Trackpoint>
            <Time>2022-09-24T14:25:03.000Z</Time>
            <Position>
              <LatitudeDegrees>43.25941759161651134490966796875</LatitudeDegrees>
              <LongitudeDegrees>-2.91328878141939640045166015625</LongitudeDegrees>
            </Position>
            <AltitudeMeters>28.200000762939453125</AltitudeMeters>
            <DistanceMeters>7788.3245633634</DistanceMeters>
          </Trackpoint>
          <Trackpoint>
            <Time>2022-09-24T14:25:04.000Z</Time>
            <Position>
              <LatitudeDegrees>43.2593625225126743316650390625</LatitudeDegrees>
              <LongitudeDegrees>-2.91326212696731090545654296875</LongitudeDegrees>
            </Position>
            <AltitudeMeters>28.200000762939453125</AltitudeMeters>
            <DistanceMeters>7794.823306898</DistanceMeters>
          </Trackpoint>
          <Trackpoint>
            <Time>2022-09-24T14:25:05.000Z</Time>
            <Position>
              <LatitudeDegrees>43.259302675724029541015625</LatitudeDegrees>
              <LongitudeDegrees>-2.91323496960103511810302734375</LongitudeDegrees>
            </Position>
            <AltitudeMeters>28.3999996185302734375</AltitudeMeters>
            <DistanceMeters>7801.8385700163</DistanceMeters>
          </Trackpoint>
          <Trackpoint>
            <Time>2022-09-24T14:25:06.000Z</Time>
            <Position>
              <LatitudeDegrees>43.2592528872191905975341796875</LatitudeDegrees>
              <LongitudeDegrees>-2.91322407312691211700439453125</LongitudeDegrees>
            </Position>
            <AltitudeMeters>28.3999996185302734375</AltitudeMeters>
            <DistanceMeters>7807.449171275</DistanceMeters>
          </Trackpoint>
          <Trackpoint>
            <Time>2022-09-24T14:25:25.000Z</Time>
            <Position>
              <LatitudeDegrees>43.25780927203595638275146484375</LatitudeDegrees>
              <LongitudeDegrees>-2.91261613368988037109375</LongitudeDegrees>
            </Position>
            <AltitudeMeters>29</AltitudeMeters>
            <DistanceMeters>7975.5131776044</DistanceMeters>
          </Trackpoint>
          <Trackpoint>
            <Time>2022-09-24T14:25:26.000Z</Time>
            <Position>
              <LatitudeDegrees>43.2577880658209323883056640625</LatitudeDegrees>
              <LongitudeDegrees>-2.9125971905887126922607421875</LongitudeDegrees>
            </Position>
            <AltitudeMeters>29.200000762939453125</AltitudeMeters>
            <DistanceMeters>7978.3289203338</DistanceMeters>
          </Trackpoint>
          <Trackpoint>
            <Time>2022-09-24T14:25:27.000Z</Time>
            <Position>
              <LatitudeDegrees>43.25772897340357303619384765625</LatitudeDegrees>
              <LongitudeDegrees>-2.912564165890216827392578125</LongitudeDegrees>
            </Position>
            <AltitudeMeters>29.200000762939453125</AltitudeMeters>
            <DistanceMeters>7985.4299024393</DistanceMeters>
          </Trackpoint>
          <Trackpoint>
            <Time>2022-09-24T14:25:28.000Z</Time>
            <Position>
              <LatitudeDegrees>43.25764666311442852020263671875</LatitudeDegrees>
              <LongitudeDegrees>-2.912509851157665252685546875</LongitudeDegrees>
            </Position>
            <AltitudeMeters>29.200000762939453125</AltitudeMeters>
            <DistanceMeters>7995.5937636406</DistanceMeters>
          </Trackpoint>
          <Trackpoint>
            <Time>2022-09-24T14:25:29.000Z</Time>
            <Position>
              <LatitudeDegrees>43.25764666311442852020263671875</LatitudeDegrees>
              <LongitudeDegrees>-2.912509851157665252685546875</LongitudeDegrees>
            </Position>
            <AltitudeMeters>29.200000762939453125</AltitudeMeters>
            <DistanceMeters>7995.5937636406</DistanceMeters>
          </Trackpoint>
          <Trackpoint>
            <Time>2022-09-24T14:25:30.000Z</Time>
            <Position>
              <LatitudeDegrees>43.25751523487269878387451171875</LatitudeDegrees>
              <LongitudeDegrees>-2.91243399493396282196044921875</LongitudeDegrees>
            </Position>
            <AltitudeMeters>29.200000762939453125</AltitudeMeters>
            <DistanceMeters>8011.461802321</DistanceMeters>
          </Trackpoint>
          <Trackpoint>
            <Time>2022-09-24T14:25:31.000Z</Time>
            <Position>
              <LatitudeDegrees>43.25745304115116596221923828125</LatitudeDegrees>
              <LongitudeDegrees>-2.91239426471292972564697265625</LongitudeDegrees>
            </Position>
            <AltitudeMeters>29.6000003814697265625</AltitudeMeters>
            <DistanceMeters>8019.0959436197</DistanceMeters>
          </Trackpoint>
          <Trackpoint>
            <Time>2022-09-24T14:25:32.000Z</Time>
            <Position>
              <LatitudeDegrees>43.25745304115116596221923828125</LatitudeDegrees>
              <LongitudeDegrees>-2.91239426471292972564697265625</LongitudeDegrees>
            </Position>
            <AltitudeMeters>29.6000003814697265625</AltitudeMeters>
            <DistanceMeters>8019.0959436197</DistanceMeters>
          </Trackpoint>
          <Trackpoint>
            <Time>2022-09-24T14:25:33.000Z</Time>
            <Position>
              <LatitudeDegrees>43.2573451660573482513427734375</LatitudeDegrees>
              <LongitudeDegrees>-2.91231396608054637908935546875</LongitudeDegrees>
            </Position>
            <AltitudeMeters>29.6000003814697265625</AltitudeMeters>
            <DistanceMeters>8032.7533686708</DistanceMeters>
          </Trackpoint>
          <Trackpoint>
            <Time>2022-09-24T14:25:34.000Z</Time>
            <Position>
              <LatitudeDegrees>43.25728238560259342193603515625</LatitudeDegrees>
              <LongitudeDegrees>-2.9122548736631870269775390625</LongitudeDegrees>
            </Position>
            <AltitudeMeters>29.6000003814697265625</AltitudeMeters>
            <DistanceMeters>8041.2251481519</DistanceMeters>
          </Trackpoint>
          <Trackpoint>
            <Time>2022-09-24T14:25:35.000Z</Time>
            <Position>
              <LatitudeDegrees>43.25728238560259342193603515625</LatitudeDegrees>
              <LongitudeDegrees>-2.9122548736631870269775390625</LongitudeDegrees>
            </Position>
            <AltitudeMeters>29.6000003814697265625</AltitudeMeters>
            <DistanceMeters>8041.2251481519</DistanceMeters>
          </Trackpoint>
          <Trackpoint>
            <Time>2022-09-24T14:25:36.000Z</Time>
            <Position>
              <LatitudeDegrees>43.25714416801929473876953125</LatitudeDegrees>
              <LongitudeDegrees>-2.912122942507266998291015625</LongitudeDegrees>
            </Position>
            <AltitudeMeters>29.799999237060546875</AltitudeMeters>
            <DistanceMeters>8059.9610813201</DistanceMeters>
          </Trackpoint>
          <Trackpoint>
            <Time>2022-09-24T14:25:37.000Z</Time>
            <Position>
              <LatitudeDegrees>43.25714416801929473876953125</LatitudeDegrees>
              <LongitudeDegrees>-2.912122942507266998291015625</LongitudeDegrees>
            </Position>
            <AltitudeMeters>29.6000003814697265625</AltitudeMeters>
            <DistanceMeters>8059.9610813201</DistanceMeters>
          </Trackpoint>
          <Trackpoint>
            <Time>2022-09-24T14:25:38.000Z</Time>
            <Position>
              <LatitudeDegrees>43.25700259767472743988037109375</LatitudeDegrees>
              <LongitudeDegrees>-2.91199193336069583892822265625</LongitudeDegrees>
            </Position>
            <AltitudeMeters>29.799999237060546875</AltitudeMeters>
            <DistanceMeters>8078.9626227454</DistanceMeters>
          </Trackpoint>
          <Trackpoint>
            <Time>2022-09-24T14:25:39.000Z</Time>
            <Position>
              <LatitudeDegrees>43.25693252496421337127685546875</LatitudeDegrees>
              <LongitudeDegrees>-2.91192621923983097076416015625</LongitudeDegrees>
            </Position>
            <AltitudeMeters>29.6000003814697265625</AltitudeMeters>
            <DistanceMeters>8088.4071500026</DistanceMeters>
          </Trackpoint>
          <Trackpoint>
            <Time>2022-09-24T14:25:40.000Z</Time>
            <Position>
              <LatitudeDegrees>43.25686463154852390289306640625</LatitudeDegrees>
              <LongitudeDegrees>-2.9118585772812366485595703125</LongitudeDegrees>
            </Position>
            <AltitudeMeters>29.6000003814697265625</AltitudeMeters>
            <DistanceMeters>8097.7430108541</DistanceMeters>
          </Trackpoint>
          <Trackpoint>
            <Time>2022-09-24T14:25:41.000Z</Time>
            <Position>
              <LatitudeDegrees>43.25686463154852390289306640625</LatitudeDegrees>
              <LongitudeDegrees>-2.9118585772812366485595703125</LongitudeDegrees>
            </Position>
            <AltitudeMeters>29.3999996185302734375</AltitudeMeters>
            <DistanceMeters>8097.7430108541</DistanceMeters>
          </Trackpoint>
          <Trackpoint>
            <Time>2022-09-24T14:25:42.000Z</Time>
            <Position>
              <LatitudeDegrees>43.25672834180295467376708984375</LatitudeDegrees>
              <LongitudeDegrees>-2.91171935386955738067626953125</LongitudeDegrees>
            </Position>
            <AltitudeMeters>29.3999996185302734375</AltitudeMeters>
            <DistanceMeters>8116.6497452657</DistanceMeters>
          </Trackpoint>
          <Trackpoint>
            <Time>2022-09-24T14:25:43.000Z</Time>
            <Position>
              <LatitudeDegrees>43.256655000150203704833984375</LatitudeDegrees>
              <LongitudeDegrees>-2.9116491973400115966796875</LongitudeDegrees>
            </Position>
            <AltitudeMeters>29</AltitudeMeters>
            <DistanceMeters>8126.5980937631</DistanceMeters>
          </Trackpoint>
          <Trackpoint>
            <Time>2022-09-24T14:25:44.000Z</Time>
            <Position>
              <LatitudeDegrees>43.25658082030713558197021484375</LatitudeDegrees>
              <LongitudeDegrees>-2.91158524341881275177001953125</LongitudeDegrees>
            </Position>
            <AltitudeMeters>29.200000762939453125</AltitudeMeters>
            <DistanceMeters>8136.3465564365</DistanceMeters>
          </Trackpoint>
          <Trackpoint>
            <Time>2022-09-24T14:25:45.000Z</Time>
            <Position>
              <LatitudeDegrees>43.25650370679795742034912109375</LatitudeDegrees>
              <LongitudeDegrees>-2.91152707301080226898193359375</LongitudeDegrees>
            </Position>
            <AltitudeMeters>29</AltitudeMeters>
            <DistanceMeters>8146.1389198774</DistanceMeters>
          </Trackpoint>
          <Trackpoint>
            <Time>2022-09-24T14:25:46.000Z</Time>
            <Position>
              <LatitudeDegrees>43.25642676092684268951416015625</LatitudeDegrees>
              <LongitudeDegrees>-2.9114636220037937164306640625</LongitudeDegrees>
            </Position>
            <AltitudeMeters>29</AltitudeMeters>
            <DistanceMeters>8156.1284831703</DistanceMeters>
          </Trackpoint>
          <Trackpoint>
            <Time>2022-09-24T14:25:47.000Z</Time>
            <Position>
              <LatitudeDegrees>43.25635400600731372833251953125</LatitudeDegrees>
              <LongitudeDegrees>-2.91140419431030750274658203125</LongitudeDegrees>
            </Position>
            <AltitudeMeters>29</AltitudeMeters>
            <DistanceMeters>8165.5509940669</DistanceMeters>
          </Trackpoint>
          <Trackpoint>
            <Time>2022-09-24T14:25:48.000Z</Time>
            <Position>
              <LatitudeDegrees>43.25628452003002166748046875</LatitudeDegrees>
              <LongitudeDegrees>-2.911324314773082733154296875</LongitudeDegrees>
            </Position>
            <AltitudeMeters>29.200000762939453125</AltitudeMeters>
            <DistanceMeters>8175.638159247</DistanceMeters>
          </Trackpoint>
          <Trackpoint>
            <Time>2022-09-24T14:25:49.000Z</Time>
            <Position>
              <LatitudeDegrees>43.2562246732413768768310546875</LatitudeDegrees>
              <LongitudeDegrees>-2.9112443514168262481689453125</LongitudeDegrees>
            </Position>
            <AltitudeMeters>29</AltitudeMeters>
            <DistanceMeters>8184.9328212279</DistanceMeters>
          </Trackpoint>
          <Trackpoint>
            <Time>2022-09-24T14:25:50.000Z</Time>
            <Position>
              <LatitudeDegrees>43.25616507790982723236083984375</LatitudeDegrees>
              <LongitudeDegrees>-2.91116849519312381744384765625</LongitudeDegrees>
            </Position>
            <AltitudeMeters>29.200000762939453125</AltitudeMeters>
            <DistanceMeters>8193.9778470754</DistanceMeters>
          </Trackpoint>
          <Trackpoint>
            <Time>2022-09-24T14:25:51.000Z</Time>
            <Position>
              <LatitudeDegrees>43.25610824860632419586181640625</LatitudeDegrees>
              <LongitudeDegrees>-2.91109574027359485626220703125</LongitudeDegrees>
            </Position>
            <AltitudeMeters>29.200000762939453125</AltitudeMeters>
            <DistanceMeters>8202.6258001921</DistanceMeters>
          </Trackpoint>
          <Trackpoint>
            <Time>2022-09-24T14:25:52.000Z</Time>
            <Position>
              <LatitudeDegrees>43.256043456494808197021484375</LatitudeDegrees>
              <LongitudeDegrees>-2.91101954877376556396484375</LongitudeDegrees>
            </Position>
            <AltitudeMeters>29.200000762939453125</AltitudeMeters>
            <DistanceMeters>8212.1203909227</DistanceMeters>
          </Trackpoint>
          <Trackpoint>
            <Time>2022-09-24T14:25:53.000Z</Time>
            <Position>
              <LatitudeDegrees>43.25597665272653102874755859375</LatitudeDegrees>
              <LongitudeDegrees>-2.9109529964625835418701171875</LongitudeDegrees>
            </Position>
            <AltitudeMeters>29.200000762939453125</AltitudeMeters>
            <DistanceMeters>8221.3065797063</DistanceMeters>
          </Trackpoint>
          <Trackpoint>
            <Time>2022-09-24T14:25:54.000Z</Time>
            <Position>
              <LatitudeDegrees>43.2559068314731121063232421875</LatitudeDegrees>
              <LongitudeDegrees>-2.91088870726525783538818359375</LongitudeDegrees>
            </Position>
            <AltitudeMeters>29.200000762939453125</AltitudeMeters>
            <DistanceMeters>8230.6632132422</DistanceMeters>
          </Trackpoint>
          <Trackpoint>
            <Time>2022-09-24T14:25:55.000Z</Time>
            <Position>
              <LatitudeDegrees>43.2558391056954860687255859375</LatitudeDegrees>
              <LongitudeDegrees>-2.91082198731601238250732421875</LongitudeDegrees>
            </Position>
            <AltitudeMeters>29</AltitudeMeters>
            <DistanceMeters>8239.9408578066</DistanceMeters>
          </Trackpoint>
          <Trackpoint>
            <Time>2022-09-24T14:25:56.000Z</Time>
            <Position>
              <LatitudeDegrees>43.255770541727542877197265625</LatitudeDegrees>
              <LongitudeDegrees>-2.910751663148403167724609375</LongitudeDegrees>
            </Position>
            <AltitudeMeters>29</AltitudeMeters>
            <DistanceMeters>8249.4663083528</DistanceMeters>
          </Trackpoint>
          <Trackpoint>
            <Time>2022-09-24T14:25:57.000Z</Time>
            <Position>
              <LatitudeDegrees>43.25570046901702880859375</LatitudeDegrees>
              <LongitudeDegrees>-2.91069458238780498504638671875</LongitudeDegrees>
            </Position>
            <AltitudeMeters>28.799999237060546875</AltitudeMeters>
            <DistanceMeters>8258.5347650118</DistanceMeters>
          </Trackpoint>
          <Trackpoint>
            <Time>2022-09-24T14:25:58.000Z</Time>
            <Position>
              <LatitudeDegrees>43.255635760724544525146484375</LatitudeDegrees>
              <LongitudeDegrees>-2.910644710063934326171875</LongitudeDegrees>
            </Position>
            <AltitudeMeters>28.3999996185302734375</AltitudeMeters>
            <DistanceMeters>8266.7938931411</DistanceMeters>
          </Trackpoint>
          <Trackpoint>
            <Time>2022-09-24T14:25:59.000Z</Time>
            <Position>
              <LatitudeDegrees>43.255564011633396148681640625</LatitudeDegrees>
              <LongitudeDegrees>-2.91060791350901126861572265625</LongitudeDegrees>
            </Position>
            <AltitudeMeters>28</AltitudeMeters>
            <DistanceMeters>8275.3188010715</DistanceMeters>
          </Trackpoint>
          <Trackpoint>
            <Time>2022-09-24T14:26:00.000Z</Time>
            <Position>
              <LatitudeDegrees>43.255484886467456817626953125</LatitudeDegrees>
              <LongitudeDegrees>-2.9105510003864765167236328125</LongitudeDegrees>
            </Position>
            <AltitudeMeters>28</AltitudeMeters>
            <DistanceMeters>8285.2607936663</DistanceMeters>
          </Trackpoint>
          <Trackpoint>
            <Time>2022-09-24T14:26:01.000Z</Time>
            <Position>
              <LatitudeDegrees>43.2554067671298980712890625</LatitudeDegrees>
              <LongitudeDegrees>-2.91048570536077022552490234375</LongitudeDegrees>
            </Position>
            <AltitudeMeters>27</AltitudeMeters>
            <DistanceMeters>8295.439747302</DistanceMeters>
          </Trackpoint>
          <Trackpoint>
            <Time>2022-09-24T14:26:02.000Z</Time>
            <Position>
              <LatitudeDegrees>43.2553195953369140625</LatitudeDegrees>
              <LongitudeDegrees>-2.91041194461286067962646484375</LongitudeDegrees>
            </Position>
            <AltitudeMeters>26.200000762939453125</AltitudeMeters>
            <DistanceMeters>8306.8366161514</DistanceMeters>
          </Trackpoint>
          <Trackpoint>
            <Time>2022-09-24T14:26:03.000Z</Time>
            <Position>
              <LatitudeDegrees>43.2552278973162174224853515625</LatitudeDegrees>
              <LongitudeDegrees>-2.9103324003517627716064453125</LongitudeDegrees>
            </Position>
            <AltitudeMeters>25.799999237060546875</AltitudeMeters>
            <DistanceMeters>8318.9091235051</DistanceMeters>
          </Trackpoint>
          <Trackpoint>
            <Time>2022-09-24T14:26:04.000Z</Time>
            <Position>
              <LatitudeDegrees>43.255134187638759613037109375</LatitudeDegrees>
              <LongitudeDegrees>-2.91025017388164997100830078125</LongitudeDegrees>
            </Position>
            <AltitudeMeters>25</AltitudeMeters>
            <DistanceMeters>8331.2870598042</DistanceMeters>
          </Trackpoint>
          <Trackpoint>
            <Time>2022-09-24T14:26:05.000Z</Time>
            <Position>
              <LatitudeDegrees>43.25503871776163578033447265625</LatitudeDegrees>
              <LongitudeDegrees>-2.9101654328405857086181640625</LongitudeDegrees>
            </Position>
            <AltitudeMeters>24.799999237060546875</AltitudeMeters>
            <DistanceMeters>8343.9398944777</DistanceMeters>
          </Trackpoint>
          <Trackpoint>
            <Time>2022-09-24T14:26:06.000Z</Time>
            <Position>
              <LatitudeDegrees>43.25494316406548023223876953125</LatitudeDegrees>
              <LongitudeDegrees>-2.91007784195244312286376953125</LongitudeDegrees>
            </Position>
            <AltitudeMeters>23.799999237060546875</AltitudeMeters>
            <DistanceMeters>8356.7272563732</DistanceMeters>
          </Trackpoint>
          <Trackpoint>
            <Time>2022-09-24T14:26:07.000Z</Time>
            <Position>
              <LatitudeDegrees>43.25485431589186191558837890625</LatitudeDegrees>
              <LongitudeDegrees>-2.90999083779752254486083984375</LongitudeDegrees>
            </Position>
            <AltitudeMeters>23.799999237060546875</AltitudeMeters>
            <DistanceMeters>8368.8735886979</DistanceMeters>
          </Trackpoint>
          <Trackpoint>
            <Time>2022-09-24T14:26:08.000Z</Time>
            <Position>
              <LatitudeDegrees>43.25477099977433681488037109375</LatitudeDegrees>
              <LongitudeDegrees>-2.90990651585161685943603515625</LongitudeDegrees>
            </Position>
            <AltitudeMeters>23.200000762939453125</AltitudeMeters>
            <DistanceMeters>8380.3933978726</DistanceMeters>
          </Trackpoint>
          <Trackpoint>
            <Time>2022-09-24T14:26:09.000Z</Time>
            <Position>
              <LatitudeDegrees>43.25467712245881557464599609375</LatitudeDegrees>
              <LongitudeDegrees>-2.90981263853609561920166015625</LongitudeDegrees>
            </Position>
            <AltitudeMeters>22</AltitudeMeters>
            <DistanceMeters>8393.319476336</DistanceMeters>
          </Trackpoint>
          <Trackpoint>
            <Time>2022-09-24T14:26:10.000Z</Time>
            <Position>
              <LatitudeDegrees>43.2545717619359493255615234375</LatitudeDegrees>
              <LongitudeDegrees>-2.90971138514578342437744140625</LongitudeDegrees>
            </Position>
            <AltitudeMeters>22</AltitudeMeters>
            <DistanceMeters>8407.6335405567</DistanceMeters>
          </Trackpoint>
          <Trackpoint>
            <Time>2022-09-24T14:26:11.000Z</Time>
            <Position>
              <LatitudeDegrees>43.254461623728275299072265625</LatitudeDegrees>
              <LongitudeDegrees>-2.90962102822959423065185546875</LongitudeDegrees>
            </Position>
            <AltitudeMeters>21.200000762939453125</AltitudeMeters>
            <DistanceMeters>8421.9134980586</DistanceMeters>
          </Trackpoint>
          <Trackpoint>
            <Time>2022-09-24T14:26:12.000Z</Time>
            <Position>
              <LatitudeDegrees>43.2543528266251087188720703125</LatitudeDegrees>
              <LongitudeDegrees>-2.90952983312308788299560546875</LongitudeDegrees>
            </Position>
            <AltitudeMeters>19.6000003814697265625</AltitudeMeters>
            <DistanceMeters>8436.1008305752</DistanceMeters>
          </Trackpoint>
          <Trackpoint>
            <Time>2022-09-24T14:26:13.000Z</Time>
            <Position>
              <LatitudeDegrees>43.25424746610224246978759765625</LatitudeDegrees>
              <LongitudeDegrees>-2.9094375483691692352294921875</LongitudeDegrees>
            </Position>
            <AltitudeMeters>19</AltitudeMeters>
            <DistanceMeters>8450.0108071375</DistanceMeters>
          </Trackpoint>
          <Trackpoint>
            <Time>2022-09-24T14:26:14.000Z</Time>
            <Position>
              <LatitudeDegrees>43.25414034537971019744873046875</LatitudeDegrees>
              <LongitudeDegrees>-2.90934492833912372589111328125</LongitudeDegrees>
            </Position>
            <AltitudeMeters>18.3999996185302734375</AltitudeMeters>
            <DistanceMeters>8464.1010612409</DistanceMeters>
          </Trackpoint>
          <Trackpoint>
            <Time>2022-09-24T14:26:15.000Z</Time>
            <Position>
              <LatitudeDegrees>43.25403456576168537139892578125</LatitudeDegrees>
              <LongitudeDegrees>-2.90924702771008014678955078125</LongitudeDegrees>
            </Position>
            <AltitudeMeters>18.200000762939453125</AltitudeMeters>
            <DistanceMeters>8478.2998459314</DistanceMeters>
          </Trackpoint>
          <Trackpoint>
            <Time>2022-09-24T14:26:16.000Z</Time>
            <Position>
              <LatitudeDegrees>43.25392627157270908355712890625</LatitudeDegrees>
              <LongitudeDegrees>-2.90914066135883331298828125</LongitudeDegrees>
            </Position>
            <AltitudeMeters>18</AltitudeMeters>
            <DistanceMeters>8493.1197487404</DistanceMeters>
          </Trackpoint>
          <Trackpoint>
            <Time>2022-09-24T14:26:17.000Z</Time>
            <Position>
              <LatitudeDegrees>43.2538162171840667724609375</LatitudeDegrees>
              <LongitudeDegrees>-2.909032367169857025146484375</LongitudeDegrees>
            </Position>
            <AltitudeMeters>17.799999237060546875</AltitudeMeters>
            <DistanceMeters>8508.1903984517</DistanceMeters>
          </Trackpoint>
          <Trackpoint>
            <Time>2022-09-24T14:26:18.000Z</Time>
            <Position>
              <LatitudeDegrees>43.253712616860866546630859375</LatitudeDegrees>
              <LongitudeDegrees>-2.90892650373280048370361328125</LongitudeDegrees>
            </Position>
            <AltitudeMeters>16.799999237060546875</AltitudeMeters>
            <DistanceMeters>8522.5642688086</DistanceMeters>
          </Trackpoint>
          <Trackpoint>
            <Time>2022-09-24T14:26:19.000Z</Time>
            <Position>
              <LatitudeDegrees>43.25360658578574657440185546875</LatitudeDegrees>
              <LongitudeDegrees>-2.90882323868572711944580078125</LongitudeDegrees>
            </Position>
            <AltitudeMeters>16.200000762939453125</AltitudeMeters>
            <DistanceMeters>8537.0330027615</DistanceMeters>
          </Trackpoint>
          <Trackpoint>
            <Time>2022-09-24T14:26:20.000Z</Time>
            <Position>
              <LatitudeDegrees>43.2534888200461864471435546875</LatitudeDegrees>
              <LongitudeDegrees>-2.9087167046964168548583984375</LongitudeDegrees>
            </Position>
            <AltitudeMeters>15.6000003814697265625</AltitudeMeters>
            <DistanceMeters>8552.7296787081</DistanceMeters>
          </Trackpoint>
          <Trackpoint>
            <Time>2022-09-24T14:26:21.000Z</Time>
            <Position>
              <LatitudeDegrees>43.25337172485888004302978515625</LatitudeDegrees>
              <LongitudeDegrees>-2.90861335583031177520751953125</LongitudeDegrees>
            </Position>
            <AltitudeMeters>14.3999996185302734375</AltitudeMeters>
            <DistanceMeters>8568.2231135149</DistanceMeters>
          </Trackpoint>
          <Trackpoint>
            <Time>2022-09-24T14:26:22.000Z</Time>
            <Position>
              <LatitudeDegrees>43.25325488112866878509521484375</LatitudeDegrees>
              <LongitudeDegrees>-2.9085101746022701263427734375</LongitudeDegrees>
            </Position>
            <AltitudeMeters>14.19999980926513671875</AltitudeMeters>
            <DistanceMeters>8583.6853353452</DistanceMeters>
          </Trackpoint>
          <Trackpoint>
            <Time>2022-09-24T14:26:23.000Z</Time>
            <Position>
              <LatitudeDegrees>43.253139294683933258056640625</LatitudeDegrees>
              <LongitudeDegrees>-2.908407747745513916015625</LongitudeDegrees>
            </Position>
            <AltitudeMeters>13.6000003814697265625</AltitudeMeters>
            <DistanceMeters>8598.9970261308</DistanceMeters>
          </Trackpoint>
          <Trackpoint>
            <Time>2022-09-24T14:26:24.000Z</Time>
            <Position>
              <LatitudeDegrees>43.25302152894437313079833984375</LatitudeDegrees>
              <LongitudeDegrees>-2.90830649435520172119140625</LongitudeDegrees>
            </Position>
            <AltitudeMeters>11.80000019073486328125</AltitudeMeters>
            <DistanceMeters>8614.4621677304</DistanceMeters>
          </Trackpoint>
          <Trackpoint>
            <Time>2022-09-24T14:26:25.000Z</Time>
            <Position>
              <LatitudeDegrees>43.2529024221003055572509765625</LatitudeDegrees>
              <LongitudeDegrees>-2.90819794870913028717041015625</LongitudeDegrees>
            </Position>
            <AltitudeMeters>10.80000019073486328125</AltitudeMeters>
            <DistanceMeters>8630.3733971984</DistanceMeters>
          </Trackpoint>
          <Trackpoint>
            <Time>2022-09-24T14:26:26.000Z</Time>
            <Position>
              <LatitudeDegrees>43.2527835667133331298828125</LatitudeDegrees>
              <LongitudeDegrees>-2.90809216909110546112060546875</LongitudeDegrees>
            </Position>
            <AltitudeMeters>10</AltitudeMeters>
            <DistanceMeters>8646.1380971286</DistanceMeters>
          </Trackpoint>
          <Trackpoint>
            <Time>2022-09-24T14:26:27.000Z</Time>
            <Position>
              <LatitudeDegrees>43.2526680640876293182373046875</LatitudeDegrees>
              <LongitudeDegrees>-2.90799426846206188201904296875</LongitudeDegrees>
            </Position>
            <AltitudeMeters>9.80000019073486328125</AltitudeMeters>
            <DistanceMeters>8661.2458505088</DistanceMeters>
          </Trackpoint>
          <Trackpoint>
            <Time>2022-09-24T14:26:28.000Z</Time>
            <Position>
              <LatitudeDegrees>43.25255281291902065277099609375</LatitudeDegrees>
              <LongitudeDegrees>-2.9079036600887775421142578125</LongitudeDegrees>
            </Position>
            <AltitudeMeters>9.6000003814697265625</AltitudeMeters>
            <DistanceMeters>8676.0279271488</DistanceMeters>
          </Trackpoint>
          <Trackpoint>
            <Time>2022-09-24T14:26:29.000Z</Time>
            <Position>
              <LatitudeDegrees>43.25244225561618804931640625</LatitudeDegrees>
              <LongitudeDegrees>-2.90781774558126926422119140625</LongitudeDegrees>
            </Position>
            <AltitudeMeters>9.3999996185302734375</AltitudeMeters>
            <DistanceMeters>8690.1674424329</DistanceMeters>
          </Trackpoint>
          <Trackpoint>
            <Time>2022-09-24T14:26:30.000Z</Time>
            <Position>
              <LatitudeDegrees>43.2523368112742900848388671875</LatitudeDegrees>
              <LongitudeDegrees>-2.90772386826574802398681640625</LongitudeDegrees>
            </Position>
            <AltitudeMeters>7.400000095367431640625</AltitudeMeters>
            <DistanceMeters>8704.155426433</DistanceMeters>
          </Trackpoint>
          <Trackpoint>
            <Time>2022-09-24T14:26:31.000Z</Time>
            <Position>
              <LatitudeDegrees>43.25222658924758434295654296875</LatitudeDegrees>
              <LongitudeDegrees>-2.90762814693152904510498046875</LongitudeDegrees>
            </Position>
            <AltitudeMeters>7</AltitudeMeters>
            <DistanceMeters>8718.6715152251</DistanceMeters>
          </Trackpoint>
          <Trackpoint>
            <Time>2022-09-24T14:26:32.000Z</Time>
            <Position>
              <LatitudeDegrees>43.25222658924758434295654296875</LatitudeDegrees>
              <LongitudeDegrees>-2.90762814693152904510498046875</LongitudeDegrees>
            </Position>
            <AltitudeMeters>6.80000019073486328125</AltitudeMeters>
            <DistanceMeters>8718.6715152251</DistanceMeters>
          </Trackpoint>
          <Trackpoint>
            <Time>2022-09-24T14:26:33.000Z</Time>
            <Position>
              <LatitudeDegrees>43.25200446881353855133056640625</LatitudeDegrees>
              <LongitudeDegrees>-2.9074386321008205413818359375</LongitudeDegrees>
            </Position>
            <AltitudeMeters>6.599999904632568359375</AltitudeMeters>
            <DistanceMeters>8747.7788663976</DistanceMeters>
          </Trackpoint>
          <Trackpoint>
            <Time>2022-09-24T14:26:34.000Z</Time>
            <Position>
              <LatitudeDegrees>43.25189173221588134765625</LatitudeDegrees>
              <LongitudeDegrees>-2.9073469340801239013671875</LongitudeDegrees>
            </Position>
            <AltitudeMeters>6.400000095367431640625</AltitudeMeters>
            <DistanceMeters>8762.3632227645</DistanceMeters>
          </Trackpoint>
          <Trackpoint>
            <Time>2022-09-24T14:26:35.000Z</Time>
            <Position>
              <LatitudeDegrees>43.25178134255111217498779296875</LatitudeDegrees>
              <LongitudeDegrees>-2.90725599043071269989013671875</LongitudeDegrees>
            </Position>
            <AltitudeMeters>6</AltitudeMeters>
            <DistanceMeters>8776.6917892675</DistanceMeters>
          </Trackpoint>
          <Trackpoint>
            <Time>2022-09-24T14:26:36.000Z</Time>
            <Position>
              <LatitudeDegrees>43.2516726292669773101806640625</LatitudeDegrees>
              <LongitudeDegrees>-2.90716580115258693695068359375</LongitudeDegrees>
            </Position>
            <AltitudeMeters>6</AltitudeMeters>
            <DistanceMeters>8790.8293884983</DistanceMeters>
          </Trackpoint>
          <Trackpoint>
            <Time>2022-09-24T14:26:37.000Z</Time>
            <Position>
              <LatitudeDegrees>43.251565508544445037841796875</LatitudeDegrees>
              <LongitudeDegrees>-2.9070761986076831817626953125</LongitudeDegrees>
            </Position>
            <AltitudeMeters>5.80000019073486328125</AltitudeMeters>
            <DistanceMeters>8804.7905560728</DistanceMeters>
          </Trackpoint>
          <Trackpoint>
            <Time>2022-09-24T14:26:38.000Z</Time>
            <Position>
              <LatitudeDegrees>43.25146048329770565032958984375</LatitudeDegrees>
              <LongitudeDegrees>-2.906984500586986541748046875</LongitudeDegrees>
            </Position>
            <AltitudeMeters>4.80000019073486328125</AltitudeMeters>
            <DistanceMeters>8818.6436129408</DistanceMeters>
          </Trackpoint>
          <Trackpoint>
            <Time>2022-09-24T14:26:39.000Z</Time>
            <Position>
              <LatitudeDegrees>43.25135487131774425506591796875</LatitudeDegrees>
              <LongitudeDegrees>-2.906893976032733917236328125</LongitudeDegrees>
            </Position>
            <AltitudeMeters>4.19999980926513671875</AltitudeMeters>
            <DistanceMeters>8832.5009061678</DistanceMeters>
          </Trackpoint>
          <Trackpoint>
            <Time>2022-09-24T14:26:40.000Z</Time>
            <Position>
              <LatitudeDegrees>43.25135487131774425506591796875</LatitudeDegrees>
              <LongitudeDegrees>-2.906893976032733917236328125</LongitudeDegrees>
            </Position>
            <AltitudeMeters>4.19999980926513671875</AltitudeMeters>
            <DistanceMeters>NAN</DistanceMeters>
          </Trackpoint>
          <Trackpoint>
            <Time>2022-09-24T14:26:41.000Z</Time>
            <Position>
              <LatitudeDegrees>43.25114498846232891082763671875</LatitudeDegrees>
              <LongitudeDegrees>-2.9067194648087024688720703125</LongitudeDegrees>
            </Position>
            <AltitudeMeters>3.400000095367431640625</AltitudeMeters>
            <DistanceMeters>NAN</DistanceMeters>
          </Trackpoint>
          <Trackpoint>
            <Time>2022-09-24T14:26:42.000Z</Time>
            <Position>
              <LatitudeDegrees>43.2510409690439701080322265625</LatitudeDegrees>
              <LongitudeDegrees>-2.906635142862796783447265625</LongitudeDegrees>
            </Position>
            <AltitudeMeters>3.400000095367431640625</AltitudeMeters>
            <DistanceMeters>NAN</DistanceMeters>
          </Trackpoint>
          <Trackpoint>
            <Time>2022-09-24T14:26:43.000Z</Time>
            <Position>
              <LatitudeDegrees>43.2509427331387996673583984375</LatitudeDegrees>
              <LongitudeDegrees>-2.90655241347849369049072265625</LongitudeDegrees>
            </Position>
            <AltitudeMeters>3.400000095367431640625</AltitudeMeters>
            <DistanceMeters>NAN</DistanceMeters>
          </Trackpoint>
          <Trackpoint>
            <Time>2022-09-24T14:26:44.000Z</Time>
            <Position>
              <LatitudeDegrees>43.2508448325097560882568359375</LatitudeDegrees>
              <LongitudeDegrees>-2.906476221978664398193359375</LongitudeDegrees>
            </Position>
            <AltitudeMeters>3.400000095367431640625</AltitudeMeters>
            <DistanceMeters>NAN</DistanceMeters>
          </Trackpoint>
          <Trackpoint>
            <Time>2022-09-24T14:26:45.000Z</Time>
            <Position>
              <LatitudeDegrees>43.2508448325097560882568359375</LatitudeDegrees>
              <LongitudeDegrees>-2.906476221978664398193359375</LongitudeDegrees>
            </Position>
            <AltitudeMeters>3.400000095367431640625</AltitudeMeters>
            <DistanceMeters>NAN</DistanceMeters>
          </Trackpoint>
          <Trackpoint>
            <Time>2022-09-24T14:26:46.000Z</Time>
            <Position>
              <LatitudeDegrees>43.25065867044031620025634765625</LatitudeDegrees>
              <LongitudeDegrees>-2.9063167981803417205810546875</LongitudeDegrees>
            </Position>
            <AltitudeMeters>3.400000095367431640625</AltitudeMeters>
            <DistanceMeters>NAN</DistanceMeters>
          </Trackpoint>
          <Trackpoint>
            <Time>2022-09-24T14:26:47.000Z</Time>
            <Position>
              <LatitudeDegrees>43.250574767589569091796875</LatitudeDegrees>
              <LongitudeDegrees>-2.90624010376632213592529296875</LongitudeDegrees>
            </Position>
            <AltitudeMeters>3.400000095367431640625</AltitudeMeters>
            <DistanceMeters>NAN</DistanceMeters>
          </Trackpoint>
          <Trackpoint>
            <Time>2022-09-24T14:26:48.000Z</Time>
            <Position>
              <LatitudeDegrees>43.250495307147502899169921875</LatitudeDegrees>
              <LongitudeDegrees>-2.90616734884679317474365234375</LongitudeDegrees>
            </Position>
            <AltitudeMeters>3.400000095367431640625</AltitudeMeters>
            <DistanceMeters>NAN</DistanceMeters>
          </Trackpoint>
          <Trackpoint>
            <Time>2022-09-24T14:26:49.000Z</Time>
            <Position>
              <LatitudeDegrees>43.25041660107672214508056640625</LatitudeDegrees>
              <LongitudeDegrees>-2.9060914926230907440185546875</LongitudeDegrees>
            </Position>
            <AltitudeMeters>3.599999904632568359375</AltitudeMeters>
            <DistanceMeters>NAN</DistanceMeters>
          </Trackpoint>
          <Trackpoint>
            <Time>2022-09-24T14:26:50.000Z</Time>
            <Position>
              <LatitudeDegrees>43.25033144094049930572509765625</LatitudeDegrees>
              <LongitudeDegrees>-2.9060204140841960906982421875</LongitudeDegrees>
            </Position>
            <AltitudeMeters>4</AltitudeMeters>
            <DistanceMeters>NAN</DistanceMeters>
          </Trackpoint>
          <Trackpoint>
            <Time>2022-09-24T14:26:51.000Z</Time>
            <Position>
              <LatitudeDegrees>43.2502453587949275970458984375</LatitudeDegrees>
              <LongitudeDegrees>-2.905952520668506622314453125</LongitudeDegrees>
            </Position>
            <AltitudeMeters>4</AltitudeMeters>
            <DistanceMeters>NAN</DistanceMeters>
          </Trackpoint>
          <Trackpoint>
            <Time>2022-09-24T14:26:52.000Z</Time>
            <Position>
              <LatitudeDegrees>43.25015525333583354949951171875</LatitudeDegrees>
              <LongitudeDegrees>-2.9058869741857051849365234375</LongitudeDegrees>
            </Position>
            <AltitudeMeters>4.400000095367431640625</AltitudeMeters>
            <DistanceMeters>NAN</DistanceMeters>
          </Trackpoint>
          <Trackpoint>
            <Time>2022-09-24T14:26:53.000Z</Time>
            <Position>
              <LatitudeDegrees>43.25007009319961071014404296875</LatitudeDegrees>
              <LongitudeDegrees>-2.90582067333161830902099609375</LongitudeDegrees>
            </Position>
            <AltitudeMeters>4.400000095367431640625</AltitudeMeters>
            <DistanceMeters>NAN</DistanceMeters>
          </Trackpoint>
          <Trackpoint>
            <Time>2022-09-24T14:26:54.000Z</Time>
            <Position>
              <LatitudeDegrees>43.2499922253191471099853515625</LatitudeDegrees>
              <LongitudeDegrees>-2.90575210936367511749267578125</LongitudeDegrees>
            </Position>
            <AltitudeMeters>4.80000019073486328125</AltitudeMeters>
            <DistanceMeters>NAN</DistanceMeters>
          </Trackpoint>
          <Trackpoint>
            <Time>2022-09-24T14:26:55.000Z</Time>
            <Position>
              <LatitudeDegrees>43.2499204762279987335205078125</LatitudeDegrees>
              <LongitudeDegrees>-2.90567985735833644866943359375</LongitudeDegrees>
            </Position>
            <AltitudeMeters>4.80000019073486328125</AltitudeMeters>
            <DistanceMeters>NAN</DistanceMeters>
          </Trackpoint>
          <Trackpoint>
            <Time>2022-09-24T14:26:56.000Z</Time>
            <Position>
              <LatitudeDegrees>43.24985685758292675018310546875</LatitudeDegrees>
              <LongitudeDegrees>-2.90560014545917510986328125</LongitudeDegrees>
            </Position>
            <AltitudeMeters>5</AltitudeMeters>
            <DistanceMeters>NAN</DistanceMeters>
          </Trackpoint>
          <Trackpoint>
            <Time>2022-09-24T14:26:57.000Z</Time>
            <Position>
              <LatitudeDegrees>43.24980522505939006805419921875</LatitudeDegrees>
              <LongitudeDegrees>-2.90552244521677494049072265625</LongitudeDegrees>
            </Position>
            <AltitudeMeters>5</AltitudeMeters>
            <DistanceMeters>NAN</DistanceMeters>
          </Trackpoint>
          <Trackpoint>
            <Time>2022-09-24T14:26:58.000Z</Time>
            <Position>
              <LatitudeDegrees>43.24976348318159580230712890625</LatitudeDegrees>
              <LongitudeDegrees>-2.9054450802505016326904296875</LongitudeDegrees>
            </Position>
            <AltitudeMeters>4.599999904632568359375</AltitudeMeters>
            <DistanceMeters>NAN</DistanceMeters>
          </Trackpoint>
          <Trackpoint>
            <Time>2022-09-24T14:26:59.000Z</Time>
            <Position>
              <LatitudeDegrees>43.2497260160744190216064453125</LatitudeDegrees>
              <LongitudeDegrees>-2.90536872111260890960693359375</LongitudeDegrees>
            </Position>
            <AltitudeMeters>5.400000095367431640625</AltitudeMeters>
            <DistanceMeters>NAN</DistanceMeters>
          </Trackpoint>
          <Trackpoint>
            <Time>2022-09-24T14:27:00.000Z</Time>
            <Position>
              <LatitudeDegrees>43.24969240464270114898681640625</LatitudeDegrees>
              <LongitudeDegrees>-2.90528456680476665496826171875</LongitudeDegrees>
            </Position>
            <AltitudeMeters>5.599999904632568359375</AltitudeMeters>
            <DistanceMeters>NAN</DistanceMeters>
          </Trackpoint>
          <Trackpoint>
            <Time>2022-09-24T14:27:01.000Z</Time>
            <Position>
              <LatitudeDegrees>43.249650411307811737060546875</LatitudeDegrees>
              <LongitudeDegrees>-2.905190773308277130126953125</LongitudeDegrees>
            </Position>
            <AltitudeMeters>5.599999904632568359375</AltitudeMeters>
            <DistanceMeters>NAN</DistanceMeters>
          </Trackpoint>
          <Trackpoint>
            <Time>2022-09-24T14:27:02.000Z</Time>
            <Position>
              <LatitudeDegrees>43.24960741214454174041748046875</LatitudeDegrees>
              <LongitudeDegrees>-2.9050900228321552276611328125</LongitudeDegrees>
            </Position>
            <AltitudeMeters>5.599999904632568359375</AltitudeMeters>
            <DistanceMeters>NAN</DistanceMeters>
          </Trackpoint>
          <Trackpoint>
            <Time>2022-09-24T14:27:03.000Z</Time>
            <Position>
              <LatitudeDegrees>43.2495649158954620361328125</LatitudeDegrees>
              <LongitudeDegrees>-2.904979549348354339599609375</LongitudeDegrees>
            </Position>
            <AltitudeMeters>5.400000095367431640625</AltitudeMeters>
            <DistanceMeters>NAN</DistanceMeters>
          </Trackpoint>
          <Trackpoint>
            <Time>2022-09-24T14:27:04.000Z</Time>
            <Position>
              <LatitudeDegrees>43.24952241964638233184814453125</LatitudeDegrees>
              <LongitudeDegrees>-2.90486211888492107391357421875</LongitudeDegrees>
            </Position>
            <AltitudeMeters>5.19999980926513671875</AltitudeMeters>
            <DistanceMeters>NAN</DistanceMeters>
          </Trackpoint>
          <Trackpoint>
            <Time>2022-09-24T14:27:05.000Z</Time>
            <Position>
              <LatitudeDegrees>43.2494826056063175201416015625</LatitudeDegrees>
              <LongitudeDegrees>-2.90473924018442630767822265625</LongitudeDegrees>
            </Position>
            <AltitudeMeters>5.19999980926513671875</AltitudeMeters>
            <DistanceMeters>NAN</DistanceMeters>
          </Trackpoint>
          <Trackpoint>
            <Time>2022-09-24T14:27:06.000Z</Time>
            <Position>
              <LatitudeDegrees>43.24944346211850643157958984375</LatitudeDegrees>
              <LongitudeDegrees>-2.904612086713314056396484375</LongitudeDegrees>
            </Position>
            <AltitudeMeters>5</AltitudeMeters>
            <DistanceMeters>NAN</DistanceMeters>
          </Trackpoint>
          <Trackpoint>
            <Time>2022-09-24T14:27:07.000Z</Time>
            <Position>
              <LatitudeDegrees>43.24941337108612060546875</LatitudeDegrees>
              <LongitudeDegrees>-2.9044841788709163665771484375</LongitudeDegrees>
            </Position>
            <AltitudeMeters>4.400000095367431640625</AltitudeMeters>
            <DistanceMeters>NAN</DistanceMeters>
          </Trackpoint>
          <Trackpoint>
            <Time>2022-09-24T14:27:08.000Z</Time>
            <Position>
              <LatitudeDegrees>43.24939199723303318023681640625</LatitudeDegrees>
              <LongitudeDegrees>-2.90435149334371089935302734375</LongitudeDegrees>
            </Position>
            <AltitudeMeters>4.19999980926513671875</AltitudeMeters>
            <DistanceMeters>NAN</DistanceMeters>
          </Trackpoint>
          <Trackpoint>
            <Time>2022-09-24T14:27:09.000Z</Time>
            <Position>
              <LatitudeDegrees>43.2493803463876247406005859375</LatitudeDegrees>
              <LongitudeDegrees>-2.904215119779109954833984375</LongitudeDegrees>
            </Position>
            <AltitudeMeters>3.2000000476837158203125</AltitudeMeters>
            <DistanceMeters>NAN</DistanceMeters>
          </Trackpoint>
          <Trackpoint>
            <Time>2022-09-24T14:27:10.000Z</Time>
            <Position>
              <LatitudeDegrees>43.24936836026608943939208984375</LatitudeDegrees>
              <LongitudeDegrees>-2.9040764831006526947021484375</LongitudeDegrees>
            </Position>
            <AltitudeMeters>3</AltitudeMeters>
            <DistanceMeters>NAN</DistanceMeters>
          </Trackpoint>
          <Trackpoint>
            <Time>2022-09-24T14:27:11.000Z</Time>
            <Position>
              <LatitudeDegrees>43.24936710298061370849609375</LatitudeDegrees>
              <LongitudeDegrees>-2.903931476175785064697265625</LongitudeDegrees>
            </Position>
            <AltitudeMeters>2.7999999523162841796875</AltitudeMeters>
            <DistanceMeters>NAN</DistanceMeters>
          </Trackpoint>
          <Trackpoint>
            <Time>2022-09-24T14:27:12.000Z</Time>
            <Position>
              <LatitudeDegrees>43.24939970858395099639892578125</LatitudeDegrees>
              <LongitudeDegrees>-2.9037849605083465576171875</LongitudeDegrees>
            </Position>
            <AltitudeMeters>2.2000000476837158203125</AltitudeMeters>
            <DistanceMeters>NAN</DistanceMeters>
          </Trackpoint>
          <Trackpoint>
            <Time>2022-09-24T14:27:13.000Z</Time>
            <Position>
              <LatitudeDegrees>43.24941982515156269073486328125</LatitudeDegrees>
              <LongitudeDegrees>-2.903638780117034912109375</LongitudeDegrees>
            </Position>
            <AltitudeMeters>2</AltitudeMeters>
            <DistanceMeters>NAN</DistanceMeters>
          </Trackpoint>
          <Trackpoint>
            <Time>2022-09-24T14:27:14.000Z</Time>
            <Position>
              <LatitudeDegrees>43.24943943880498409271240234375</LatitudeDegrees>
              <LongitudeDegrees>-2.9034931026399135589599609375</LongitudeDegrees>
            </Position>
            <AltitudeMeters>1.7999999523162841796875</AltitudeMeters>
            <DistanceMeters>NAN</DistanceMeters>
          </Trackpoint>
          <Trackpoint>
            <Time>2022-09-24T14:27:15.000Z</Time>
            <Position>
              <LatitudeDegrees>43.24946776963770389556884765625</LatitudeDegrees>
              <LongitudeDegrees>-2.9033489339053630828857421875</LongitudeDegrees>
            </Position>
            <AltitudeMeters>1.39999997615814208984375</AltitudeMeters>
            <DistanceMeters>NAN</DistanceMeters>
          </Trackpoint>
          <Trackpoint>
            <Time>2022-09-24T14:27:16.000Z</Time>
            <Position>
              <LatitudeDegrees>43.24951102025806903839111328125</LatitudeDegrees>
              <LongitudeDegrees>-2.9032054357230663299560546875</LongitudeDegrees>
            </Position>
            <AltitudeMeters>1.2000000476837158203125</AltitudeMeters>
            <DistanceMeters>NAN</DistanceMeters>
          </Trackpoint>
          <Trackpoint>
            <Time>2022-09-24T14:27:17.000Z</Time>
            <Position>
              <LatitudeDegrees>43.24956357479095458984375</LatitudeDegrees>
              <LongitudeDegrees>-2.9030693136155605316162109375</LongitudeDegrees>
            </Position>
            <AltitudeMeters>0.4000000059604644775390625</AltitudeMeters>
            <DistanceMeters>NAN</DistanceMeters>
          </Trackpoint>
          <Trackpoint>
            <Time>2022-09-24T14:27:18.000Z</Time>
            <Position>
              <LatitudeDegrees>43.249615542590618133544921875</LatitudeDegrees>
              <LongitudeDegrees>-2.90293143130838871002197265625</LongitudeDegrees>
            </Position>
            <AltitudeMeters>0.20000000298023223876953125</AltitudeMeters>
            <DistanceMeters>NAN</DistanceMeters>
          </Trackpoint>
          <Trackpoint>
            <Time>2022-09-24T14:27:19.000Z</Time>
            <Position>
              <LatitudeDegrees>43.2496780715882778167724609375</LatitudeDegrees>
              <LongitudeDegrees>-2.90280662477016448974609375</LongitudeDegrees>
            </Position>
            <AltitudeMeters>0</AltitudeMeters>
            <DistanceMeters>NAN</DistanceMeters>
          </Trackpoint>
          <Trackpoint>
            <Time>2022-09-24T14:27:20.000Z</Time>
            <Position>
              <LatitudeDegrees>43.249745629727840423583984375</LatitudeDegrees>
              <LongitudeDegrees>-2.90268399752676486968994140625</LongitudeDegrees>
            </Position>
            <AltitudeMeters>-0.4000000059604644775390625</AltitudeMeters>
            <DistanceMeters>NAN</DistanceMeters>
          </Trackpoint>
          <Trackpoint>
            <Time>2022-09-24T14:27:21.000Z</Time>
            <Position>
              <LatitudeDegrees>43.24981930665671825408935546875</LatitudeDegrees>
              <LongitudeDegrees>-2.9025610350072383880615234375</LongitudeDegrees>
            </Position>
            <AltitudeMeters>-0.4000000059604644775390625</AltitudeMeters>
            <DistanceMeters>NAN</DistanceMeters>
          </Trackpoint>
          <Trackpoint>
            <Time>2022-09-24T14:27:22.000Z</Time>
            <Position>
              <LatitudeDegrees>43.2498948276042938232421875</LatitudeDegrees>
              <LongitudeDegrees>-2.9024349711835384368896484375</LongitudeDegrees>
            </Position>
            <AltitudeMeters>-1.2000000476837158203125</AltitudeMeters>
            <DistanceMeters>NAN</DistanceMeters>
          </Trackpoint>
          <Trackpoint>
            <Time>2022-09-24T14:27:23.000Z</Time>
            <Position>
              <LatitudeDegrees>43.24997135438024997711181640625</LatitudeDegrees>
              <LongitudeDegrees>-2.90230865590274333953857421875</LongitudeDegrees>
            </Position>
            <AltitudeMeters>-1.60000002384185791015625</AltitudeMeters>
            <DistanceMeters>NAN</DistanceMeters>
          </Trackpoint>
          <Trackpoint>
            <Time>2022-09-24T14:27:24.000Z</Time>
            <Position>
              <LatitudeDegrees>43.2500485517084598541259765625</LatitudeDegrees>
              <LongitudeDegrees>-2.90218024514615535736083984375</LongitudeDegrees>
            </Position>
            <AltitudeMeters>-2.599999904632568359375</AltitudeMeters>
            <DistanceMeters>NAN</DistanceMeters>
          </Trackpoint>
          <Trackpoint>
            <Time>2022-09-24T14:27:25.000Z</Time>
            <Position>
              <LatitudeDegrees>43.25012524612247943878173828125</LatitudeDegrees>
              <LongitudeDegrees>-2.90204881690442562103271484375</LongitudeDegrees>
            </Position>
            <AltitudeMeters>-2.7999999523162841796875</AltitudeMeters>
            <DistanceMeters>NAN</DistanceMeters>
          </Trackpoint>
          <Trackpoint>
            <Time>2022-09-24T14:27:26.000Z</Time>
            <Position>
              <LatitudeDegrees>43.2502027787268161773681640625</LatitudeDegrees>
              <LongitudeDegrees>-2.9019213281571865081787109375</LongitudeDegrees>
            </Position>
            <AltitudeMeters>-3.7999999523162841796875</AltitudeMeters>
            <DistanceMeters>NAN</DistanceMeters>
          </Trackpoint>
          <Trackpoint>
            <Time>2022-09-24T14:27:27.000Z</Time>
            <Position>
              <LatitudeDegrees>43.25029087252914905548095703125</LatitudeDegrees>
              <LongitudeDegrees>-2.90179543197154998779296875</LongitudeDegrees>
            </Position>
            <AltitudeMeters>-5</AltitudeMeters>
            <DistanceMeters>NAN</DistanceMeters>
          </Trackpoint>
          <Trackpoint>
            <Time>2022-09-24T14:27:28.000Z</Time>
            <Position>
              <LatitudeDegrees>43.2503774575889110565185546875</LatitudeDegrees>
              <LongitudeDegrees>-2.9016618244349956512451171875</LongitudeDegrees>
            </Position>
            <AltitudeMeters>-6</AltitudeMeters>
            <DistanceMeters>NAN</DistanceMeters>
          </Trackpoint>
          <Trackpoint>
            <Time>2022-09-24T14:27:29.000Z</Time>
            <Position>
              <LatitudeDegrees>43.2504632882773876190185546875</LatitudeDegrees>
              <LongitudeDegrees>-2.90153257548809051513671875</LongitudeDegrees>
            </Position>
            <AltitudeMeters>-6.400000095367431640625</AltitudeMeters>
            <DistanceMeters>NAN</DistanceMeters>
          </Trackpoint>
          <Trackpoint>
            <Time>2022-09-24T14:27:30.000Z</Time>
            <Position>
              <LatitudeDegrees>43.2505546510219573974609375</LatitudeDegrees>
              <LongitudeDegrees>-2.90140458382666110992431640625</LongitudeDegrees>
            </Position>
            <AltitudeMeters>-7</AltitudeMeters>
            <DistanceMeters>NAN</DistanceMeters>
          </Trackpoint>
          <Trackpoint>
            <Time>2022-09-24T14:27:31.000Z</Time>
            <Position>
              <LatitudeDegrees>43.25065322220325469970703125</LatitudeDegrees>
              <LongitudeDegrees>-2.901278771460056304931640625</LongitudeDegrees>
            </Position>
            <AltitudeMeters>-7.400000095367431640625</AltitudeMeters>
            <DistanceMeters>NAN</DistanceMeters>
          </Trackpoint>
          <Trackpoint>
            <Time>2022-09-24T14:27:32.000Z</Time>
            <Position>
              <LatitudeDegrees>43.2507348619401454925537109375</LatitudeDegrees>
              <LongitudeDegrees>-2.90114675648510456085205078125</LongitudeDegrees>
            </Position>
            <AltitudeMeters>-8</AltitudeMeters>
            <DistanceMeters>NAN</DistanceMeters>
          </Trackpoint>
          <Trackpoint>
            <Time>2022-09-24T14:27:33.000Z</Time>
            <Position>
              <LatitudeDegrees>43.25081608258187770843505859375</LatitudeDegrees>
              <LongitudeDegrees>-2.90101893246173858642578125</LongitudeDegrees>
            </Position>
            <AltitudeMeters>-8</AltitudeMeters>
            <DistanceMeters>NAN</DistanceMeters>
          </Trackpoint>
          <Trackpoint>
            <Time>2022-09-24T14:27:34.000Z</Time>
            <Position>
              <LatitudeDegrees>43.25089621357619762420654296875</LatitudeDegrees>
              <LongitudeDegrees>-2.900876104831695556640625</LongitudeDegrees>
            </Position>
            <AltitudeMeters>-8</AltitudeMeters>
            <DistanceMeters>NAN</DistanceMeters>
          </Trackpoint>
          <Trackpoint>
            <Time>2022-09-24T14:27:35.000Z</Time>
            <Position>
              <LatitudeDegrees>43.25098338536918163299560546875</LatitudeDegrees>
              <LongitudeDegrees>-2.90074861608445644378662109375</LongitudeDegrees>
            </Position>
            <AltitudeMeters>-8.80000019073486328125</AltitudeMeters>
            <DistanceMeters>NAN</DistanceMeters>
          </Trackpoint>
          <Trackpoint>
            <Time>2022-09-24T14:27:36.000Z</Time>
            <Position>
              <LatitudeDegrees>43.25106603093445301055908203125</LatitudeDegrees>
              <LongitudeDegrees>-2.90063135325908660888671875</LongitudeDegrees>
            </Position>
            <AltitudeMeters>-9.3999996185302734375</AltitudeMeters>
            <DistanceMeters>NAN</DistanceMeters>
          </Trackpoint>
          <Trackpoint>
            <Time>2022-09-24T14:27:37.000Z</Time>
            <Position>
              <LatitudeDegrees>43.25114716775715351104736328125</LatitudeDegrees>
              <LongitudeDegrees>-2.90051593445241451263427734375</LongitudeDegrees>
            </Position>
            <AltitudeMeters>-10</AltitudeMeters>
            <DistanceMeters>NAN</DistanceMeters>
          </Trackpoint>
          <Trackpoint>
            <Time>2022-09-24T14:27:38.000Z</Time>
            <Position>
              <LatitudeDegrees>43.2512240298092365264892578125</LatitudeDegrees>
              <LongitudeDegrees>-2.9003981687128543853759765625</LongitudeDegrees>
            </Position>
            <AltitudeMeters>-10.80000019073486328125</AltitudeMeters>
            <DistanceMeters>NAN</DistanceMeters>
          </Trackpoint>
          <Trackpoint>
            <Time>2022-09-24T14:27:39.000Z</Time>
            <Position>
              <LatitudeDegrees>43.25129963457584381103515625</LatitudeDegrees>
              <LongitudeDegrees>-2.9002801515161991119384765625</LongitudeDegrees>
            </Position>
            <AltitudeMeters>-10.80000019073486328125</AltitudeMeters>
            <DistanceMeters>NAN</DistanceMeters>
          </Trackpoint>
          <Trackpoint>
            <Time>2022-09-24T14:27:40.000Z</Time>
            <Position>
              <LatitudeDegrees>43.251375742256641387939453125</LatitudeDegrees>
              <LongitudeDegrees>-2.9001617990434169769287109375</LongitudeDegrees>
            </Position>
            <AltitudeMeters>-10.80000019073486328125</AltitudeMeters>
            <DistanceMeters>NAN</DistanceMeters>
          </Trackpoint>
          <Trackpoint>
            <Time>2022-09-24T14:27:41.000Z</Time>
            <Position>
              <LatitudeDegrees>43.25145059265196323394775390625</LatitudeDegrees>
              <LongitudeDegrees>-2.9000464640557765960693359375</LongitudeDegrees>
            </Position>
            <AltitudeMeters>-10.80000019073486328125</AltitudeMeters>
            <DistanceMeters>NAN</DistanceMeters>
          </Trackpoint>
          <Trackpoint>
            <Time>2022-09-24T14:27:42.000Z</Time>
            <Position>
              <LatitudeDegrees>43.25152452103793621063232421875</LatitudeDegrees>
              <LongitudeDegrees>-2.8999351523816585540771484375</LongitudeDegrees>
            </Position>
            <AltitudeMeters>-10.80000019073486328125</AltitudeMeters>
            <DistanceMeters>NAN</DistanceMeters>
          </Trackpoint>
          <Trackpoint>
            <Time>2022-09-24T14:27:43.000Z</Time>
            <Position>
              <LatitudeDegrees>43.251595683395862579345703125</LatitudeDegrees>
              <LongitudeDegrees>-2.8998255170881748199462890625</LongitudeDegrees>
            </Position>
            <AltitudeMeters>-10.3999996185302734375</AltitudeMeters>
            <DistanceMeters>NAN</DistanceMeters>
          </Trackpoint>
          <Trackpoint>
            <Time>2022-09-24T14:27:44.000Z</Time>
            <Position>
              <LatitudeDegrees>43.25166449882090091705322265625</LatitudeDegrees>
              <LongitudeDegrees>-2.8997175581753253936767578125</LongitudeDegrees>
            </Position>
            <AltitudeMeters>-10</AltitudeMeters>
            <DistanceMeters>NAN</DistanceMeters>
          </Trackpoint>
          <Trackpoint>
            <Time>2022-09-24T14:27:45.000Z</Time>
            <Position>
              <LatitudeDegrees>43.25173272751271724700927734375</LatitudeDegrees>
              <LongitudeDegrees>-2.89961018599569797515869140625</LongitudeDegrees>
            </Position>
            <AltitudeMeters>-9.80000019073486328125</AltitudeMeters>
            <DistanceMeters>NAN</DistanceMeters>
          </Trackpoint>
          <Trackpoint>
            <Time>2022-09-24T14:27:46.000Z</Time>
            <Position>
              <LatitudeDegrees>43.25179995037615299224853515625</LatitudeDegrees>
              <LongitudeDegrees>-2.89950407110154628753662109375</LongitudeDegrees>
            </Position>
            <AltitudeMeters>-9.80000019073486328125</AltitudeMeters>
            <DistanceMeters>NAN</DistanceMeters>
          </Trackpoint>
          <Trackpoint>
            <Time>2022-09-24T14:27:47.000Z</Time>
            <Position>
              <LatitudeDegrees>43.2518657483160495758056640625</LatitudeDegrees>
              <LongitudeDegrees>-2.89939929731190204620361328125</LongitudeDegrees>
            </Position>
            <AltitudeMeters>-9.6000003814697265625</AltitudeMeters>
            <DistanceMeters>NAN</DistanceMeters>
          </Trackpoint>
          <Trackpoint>
            <Time>2022-09-24T14:27:48.000Z</Time>
            <Position>
              <LatitudeDegrees>43.251929618418216705322265625</LatitudeDegrees>
              <LongitudeDegrees>-2.89929485879838466644287109375</LongitudeDegrees>
            </Position>
            <AltitudeMeters>-9.6000003814697265625</AltitudeMeters>
            <DistanceMeters>NAN</DistanceMeters>
          </Trackpoint>
          <Trackpoint>
            <Time>2022-09-24T14:27:49.000Z</Time>
            <Position>
              <LatitudeDegrees>43.2519928179681301116943359375</LatitudeDegrees>
              <LongitudeDegrees>-2.8991931863129138946533203125</LongitudeDegrees>
            </Position>
            <AltitudeMeters>-9.6000003814697265625</AltitudeMeters>
            <DistanceMeters>NAN</DistanceMeters>
          </Trackpoint>
          <Trackpoint>
            <Time>2022-09-24T14:27:50.000Z</Time>
            <Position>
              <LatitudeDegrees>43.25205693952739238739013671875</LatitudeDegrees>
              <LongitudeDegrees>-2.89909453131258487701416015625</LongitudeDegrees>
            </Position>
            <AltitudeMeters>-9.6000003814697265625</AltitudeMeters>
            <DistanceMeters>NAN</DistanceMeters>
          </Trackpoint>
          <Trackpoint>
            <Time>2022-09-24T14:27:51.000Z</Time>
            <Position>
              <LatitudeDegrees>43.25211904942989349365234375</LatitudeDegrees>
              <LongitudeDegrees>-2.898996211588382720947265625</LongitudeDegrees>
            </Position>
            <AltitudeMeters>-9.6000003814697265625</AltitudeMeters>
            <DistanceMeters>NAN</DistanceMeters>
          </Trackpoint>
          <Trackpoint>
            <Time>2022-09-24T14:27:52.000Z</Time>
            <Position>
              <LatitudeDegrees>43.2521788962185382843017578125</LatitudeDegrees>
              <LongitudeDegrees>-2.8989001549780368804931640625</LongitudeDegrees>
            </Position>
            <AltitudeMeters>-9</AltitudeMeters>
            <DistanceMeters>NAN</DistanceMeters>
          </Trackpoint>
          <Trackpoint>
            <Time>2022-09-24T14:27:53.000Z</Time>
            <Position>
              <LatitudeDegrees>43.2521788962185382843017578125</LatitudeDegrees>
              <LongitudeDegrees>-2.8989001549780368804931640625</LongitudeDegrees>
            </Position>
            <AltitudeMeters>-9</AltitudeMeters>
            <DistanceMeters>NAN</DistanceMeters>
          </Trackpoint>
          <Trackpoint>
            <Time>2022-09-24T14:27:54.000Z</Time>
            <Position>
              <LatitudeDegrees>43.25229783542454242706298828125</LatitudeDegrees>
              <LongitudeDegrees>-2.89871265180408954620361328125</LongitudeDegrees>
            </Position>
            <AltitudeMeters>-9</AltitudeMeters>
            <DistanceMeters>NAN</DistanceMeters>
          </Trackpoint>
          <Trackpoint>
            <Time>2022-09-24T14:27:55.000Z</Time>
            <Position>
              <LatitudeDegrees>43.252354748547077178955078125</LatitudeDegrees>
              <LongitudeDegrees>-2.8986212052404880523681640625</LongitudeDegrees>
            </Position>
            <AltitudeMeters>-9</AltitudeMeters>
            <DistanceMeters>NAN</DistanceMeters>
          </Trackpoint>
          <Trackpoint>
            <Time>2022-09-24T14:27:56.000Z</Time>
            <Position>
              <LatitudeDegrees>43.25241132639348506927490234375</LatitudeDegrees>
              <LongitudeDegrees>-2.89853227324783802032470703125</LongitudeDegrees>
            </Position>
            <AltitudeMeters>-8.6000003814697265625</AltitudeMeters>
            <DistanceMeters>NAN</DistanceMeters>
          </Trackpoint>
          <Trackpoint>
            <Time>2022-09-24T14:27:57.000Z</Time>
            <Position>
              <LatitudeDegrees>43.25246815569698810577392578125</LatitudeDegrees>
              <LongitudeDegrees>-2.8984425030648708343505859375</LongitudeDegrees>
            </Position>
            <AltitudeMeters>-8.6000003814697265625</AltitudeMeters>
            <DistanceMeters>NAN</DistanceMeters>
          </Trackpoint>
          <Trackpoint>
            <Time>2022-09-24T14:27:58.000Z</Time>
            <Position>
              <LatitudeDegrees>43.25252247042953968048095703125</LatitudeDegrees>
              <LongitudeDegrees>-2.89835860021412372589111328125</LongitudeDegrees>
            </Position>
            <AltitudeMeters>-8</AltitudeMeters>
            <DistanceMeters>NAN</DistanceMeters>
          </Trackpoint>
          <Trackpoint>
            <Time>2022-09-24T14:27:59.000Z</Time>
            <Position>
              <LatitudeDegrees>43.25257460586726665496826171875</LatitudeDegrees>
              <LongitudeDegrees>-2.89827679283916950225830078125</LongitudeDegrees>
            </Position>
            <AltitudeMeters>-7.599999904632568359375</AltitudeMeters>
            <DistanceMeters>NAN</DistanceMeters>
          </Trackpoint>
          <Trackpoint>
            <Time>2022-09-24T14:28:00.000Z</Time>
            <Position>
              <LatitudeDegrees>43.25262598693370819091796875</LatitudeDegrees>
              <LongitudeDegrees>-2.8981898725032806396484375</LongitudeDegrees>
            </Position>
            <AltitudeMeters>-7.400000095367431640625</AltitudeMeters>
            <DistanceMeters>NAN</DistanceMeters>
          </Trackpoint>
          <Trackpoint>
            <Time>2022-09-24T14:28:01.000Z</Time>
            <Position>
              <LatitudeDegrees>43.25267602689564228057861328125</LatitudeDegrees>
              <LongitudeDegrees>-2.89810529910027980804443359375</LongitudeDegrees>
            </Position>
            <AltitudeMeters>-7.19999980926513671875</AltitudeMeters>
            <DistanceMeters>NAN</DistanceMeters>
          </Trackpoint>
          <Trackpoint>
            <Time>2022-09-24T14:28:02.000Z</Time>
            <Position>
              <LatitudeDegrees>43.2527287490665912628173828125</LatitudeDegrees>
              <LongitudeDegrees>-2.89802382700145244598388671875</LongitudeDegrees>
            </Position>
            <AltitudeMeters>-6.80000019073486328125</AltitudeMeters>
            <DistanceMeters>NAN</DistanceMeters>
          </Trackpoint>
          <Trackpoint>
            <Time>2022-09-24T14:28:03.000Z</Time>
            <Position>
              <LatitudeDegrees>43.2527287490665912628173828125</LatitudeDegrees>
              <LongitudeDegrees>-2.89802382700145244598388671875</LongitudeDegrees>
            </Position>
            <AltitudeMeters>-6.599999904632568359375</AltitudeMeters>
            <DistanceMeters>NAN</DistanceMeters>
          </Trackpoint>
          <Trackpoint>
            <Time>2022-09-24T14:28:04.000Z</Time>
            <Position>
              <LatitudeDegrees>43.2528316788375377655029296875</LatitudeDegrees>
              <LongitudeDegrees>-2.897866666316986083984375</LongitudeDegrees>
            </Position>
            <AltitudeMeters>-6.599999904632568359375</AltitudeMeters>
            <DistanceMeters>NAN</DistanceMeters>
          </Trackpoint>
          <Trackpoint>
            <Time>2022-09-24T14:28:05.000Z</Time>
            <Position>
              <LatitudeDegrees>43.25287719257175922393798828125</LatitudeDegrees>
              <LongitudeDegrees>-2.89778879843652248382568359375</LongitudeDegrees>
            </Position>
            <AltitudeMeters>-6.400000095367431640625</AltitudeMeters>
            <DistanceMeters>NAN</DistanceMeters>
          </Trackpoint>
          <Trackpoint>
            <Time>2022-09-24T14:28:06.000Z</Time>
            <Position>
              <LatitudeDegrees>43.252920024096965789794921875</LatitudeDegrees>
              <LongitudeDegrees>-2.897712104022502899169921875</LongitudeDegrees>
            </Position>
            <AltitudeMeters>-5.80000019073486328125</AltitudeMeters>
            <DistanceMeters>NAN</DistanceMeters>
          </Trackpoint>
          <Trackpoint>
            <Time>2022-09-24T14:28:07.000Z</Time>
            <Position>
              <LatitudeDegrees>43.252960257232189178466796875</LatitudeDegrees>
              <LongitudeDegrees>-2.89763398468494415283203125</LongitudeDegrees>
            </Position>
            <AltitudeMeters>-5.599999904632568359375</AltitudeMeters>
            <DistanceMeters>NAN</DistanceMeters>
          </Trackpoint>
          <Trackpoint>
            <Time>2022-09-24T14:28:08.000Z</Time>
            <Position>
              <LatitudeDegrees>43.25300225056707859039306640625</LatitudeDegrees>
              <LongitudeDegrees>-2.89755661971867084503173828125</LongitudeDegrees>
            </Position>
            <AltitudeMeters>-5.599999904632568359375</AltitudeMeters>
            <DistanceMeters>NAN</DistanceMeters>
          </Trackpoint>
          <Trackpoint>
            <Time>2022-09-24T14:28:09.000Z</Time>
            <Position>
              <LatitudeDegrees>43.25304382480680942535400390625</LatitudeDegrees>
              <LongitudeDegrees>-2.897482104599475860595703125</LongitudeDegrees>
            </Position>
            <AltitudeMeters>-5.599999904632568359375</AltitudeMeters>
            <DistanceMeters>NAN</DistanceMeters>
          </Trackpoint>
          <Trackpoint>
            <Time>2022-09-24T14:28:10.000Z</Time>
            <Position>
              <LatitudeDegrees>43.253081627190113067626953125</LatitudeDegrees>
              <LongitudeDegrees>-2.89740909822285175323486328125</LongitudeDegrees>
            </Position>
            <AltitudeMeters>-5</AltitudeMeters>
            <DistanceMeters>NAN</DistanceMeters>
          </Trackpoint>
          <Trackpoint>
            <Time>2022-09-24T14:28:11.000Z</Time>
            <Position>
              <LatitudeDegrees>43.253115154802799224853515625</LatitudeDegrees>
              <LongitudeDegrees>-2.89733751676976680755615234375</LongitudeDegrees>
            </Position>
            <AltitudeMeters>-4.80000019073486328125</AltitudeMeters>
            <DistanceMeters>NAN</DistanceMeters>
          </Trackpoint>
          <Trackpoint>
            <Time>2022-09-24T14:28:12.000Z</Time>
            <Position>
              <LatitudeDegrees>43.25314692221581935882568359375</LatitudeDegrees>
              <LongitudeDegrees>-2.89726207964122295379638671875</LongitudeDegrees>
            </Position>
            <AltitudeMeters>-4.80000019073486328125</AltitudeMeters>
            <DistanceMeters>NAN</DistanceMeters>
          </Trackpoint>
          <Trackpoint>
            <Time>2022-09-24T14:28:13.000Z</Time>
            <Position>
              <LatitudeDegrees>43.25317894108593463897705078125</LatitudeDegrees>
              <LongitudeDegrees>-2.89718429557979106903076171875</LongitudeDegrees>
            </Position>
            <AltitudeMeters>-4.80000019073486328125</AltitudeMeters>
            <DistanceMeters>NAN</DistanceMeters>
          </Trackpoint>
          <Trackpoint>
            <Time>2022-09-24T14:28:14.000Z</Time>
            <Position>
              <LatitudeDegrees>43.2532112114131450653076171875</LatitudeDegrees>
              <LongitudeDegrees>-2.89710684679448604583740234375</LongitudeDegrees>
            </Position>
            <AltitudeMeters>-4.80000019073486328125</AltitudeMeters>
            <DistanceMeters>NAN</DistanceMeters>
          </Trackpoint>
          <Trackpoint>
            <Time>2022-09-24T14:28:15.000Z</Time>
            <Position>
              <LatitudeDegrees>43.25324381701648235321044921875</LatitudeDegrees>
              <LongitudeDegrees>-2.8970313258469104766845703125</LongitudeDegrees>
            </Position>
            <AltitudeMeters>-4.80000019073486328125</AltitudeMeters>
            <DistanceMeters>NAN</DistanceMeters>
          </Trackpoint>
          <Trackpoint>
            <Time>2022-09-24T14:28:16.000Z</Time>
            <Position>
              <LatitudeDegrees>43.2532759197056293487548828125</LatitudeDegrees>
              <LongitudeDegrees>-2.89695203304290771484375</LongitudeDegrees>
            </Position>
            <AltitudeMeters>-4.80000019073486328125</AltitudeMeters>
            <DistanceMeters>NAN</DistanceMeters>
          </Trackpoint>
          <Trackpoint>
            <Time>2022-09-24T14:28:17.000Z</Time>
            <Position>
              <LatitudeDegrees>43.25330793857574462890625</LatitudeDegrees>
              <LongitudeDegrees>-2.8968724049627780914306640625</LongitudeDegrees>
            </Position>
            <AltitudeMeters>-5</AltitudeMeters>
            <DistanceMeters>NAN</DistanceMeters>
          </Trackpoint>
          <Trackpoint>
            <Time>2022-09-24T14:28:18.000Z</Time>
            <Position>
              <LatitudeDegrees>43.25333903543651103973388671875</LatitudeDegrees>
              <LongitudeDegrees>-2.89679017849266529083251953125</LongitudeDegrees>
            </Position>
            <AltitudeMeters>-5</AltitudeMeters>
            <DistanceMeters>NAN</DistanceMeters>
          </Trackpoint>
          <Trackpoint>
            <Time>2022-09-24T14:28:19.000Z</Time>
            <Position>
              <LatitudeDegrees>43.25336703099310398101806640625</LatitudeDegrees>
              <LongitudeDegrees>-2.89670602418482303619384765625</LongitudeDegrees>
            </Position>
            <AltitudeMeters>-4.80000019073486328125</AltitudeMeters>
            <DistanceMeters>NAN</DistanceMeters>
          </Trackpoint>
          <Trackpoint>
            <Time>2022-09-24T14:28:20.000Z</Time>
            <Position>
              <LatitudeDegrees>43.25339335016906261444091796875</LatitudeDegrees>
              <LongitudeDegrees>-2.89661935530602931976318359375</LongitudeDegrees>
            </Position>
            <AltitudeMeters>-4.599999904632568359375</AltitudeMeters>
            <DistanceMeters>NAN</DistanceMeters>
          </Trackpoint>
          <Trackpoint>
            <Time>2022-09-24T14:28:21.000Z</Time>
            <Position>
              <LatitudeDegrees>43.25341983698308467864990234375</LatitudeDegrees>
              <LongitudeDegrees>-2.89653117768466472625732421875</LongitudeDegrees>
            </Position>
            <AltitudeMeters>-4.599999904632568359375</AltitudeMeters>
            <DistanceMeters>NAN</DistanceMeters>
          </Trackpoint>
          <Trackpoint>
            <Time>2022-09-24T14:28:22.000Z</Time>
            <Position>
              <LatitudeDegrees>43.2534489221870899200439453125</LatitudeDegrees>
              <LongitudeDegrees>-2.89644308388233184814453125</LongitudeDegrees>
            </Position>
            <AltitudeMeters>-4.599999904632568359375</AltitudeMeters>
            <DistanceMeters>NAN</DistanceMeters>
          </Trackpoint>
          <Trackpoint>
            <Time>2022-09-24T14:28:23.000Z</Time>
            <Position>
              <LatitudeDegrees>43.25347884558141231536865234375</LatitudeDegrees>
              <LongitudeDegrees>-2.89635683409869670867919921875</LongitudeDegrees>
            </Position>
            <AltitudeMeters>-4.19999980926513671875</AltitudeMeters>
            <DistanceMeters>NAN</DistanceMeters>
          </Trackpoint>
          <Trackpoint>
            <Time>2022-09-24T14:28:24.000Z</Time>
            <Position>
              <LatitudeDegrees>43.25350717641413211822509765625</LatitudeDegrees>
              <LongitudeDegrees>-2.89627351798117160797119140625</LongitudeDegrees>
            </Position>
            <AltitudeMeters>-4</AltitudeMeters>
            <DistanceMeters>NAN</DistanceMeters>
          </Trackpoint>
          <Trackpoint>
            <Time>2022-09-24T14:28:25.000Z</Time>
            <Position>
              <LatitudeDegrees>43.2535345852375030517578125</LatitudeDegrees>
              <LongitudeDegrees>-2.896189279854297637939453125</LongitudeDegrees>
            </Position>
            <AltitudeMeters>-3.599999904632568359375</AltitudeMeters>
            <DistanceMeters>NAN</DistanceMeters>
          </Trackpoint>
          <Trackpoint>
            <Time>2022-09-24T14:28:26.000Z</Time>
            <Position>
              <LatitudeDegrees>43.2535609044134616851806640625</LatitudeDegrees>
              <LongitudeDegrees>-2.8961062990128993988037109375</LongitudeDegrees>
            </Position>
            <AltitudeMeters>-3.400000095367431640625</AltitudeMeters>
            <DistanceMeters>NAN</DistanceMeters>
          </Trackpoint>
          <Trackpoint>
            <Time>2022-09-24T14:28:27.000Z</Time>
            <Position>
              <LatitudeDegrees>43.25358764268457889556884765625</LatitudeDegrees>
              <LongitudeDegrees>-2.8960251621901988983154296875</LongitudeDegrees>
            </Position>
            <AltitudeMeters>-3.400000095367431640625</AltitudeMeters>
            <DistanceMeters>NAN</DistanceMeters>
          </Trackpoint>
          <Trackpoint>
            <Time>2022-09-24T14:28:28.000Z</Time>
            <Position>
              <LatitudeDegrees>43.25361278839409351348876953125</LatitudeDegrees>
              <LongitudeDegrees>-2.895945869386196136474609375</LongitudeDegrees>
            </Position>
            <AltitudeMeters>-3.2000000476837158203125</AltitudeMeters>
            <DistanceMeters>NAN</DistanceMeters>
          </Trackpoint>
          <Trackpoint>
            <Time>2022-09-24T14:28:29.000Z</Time>
            <Position>
              <LatitudeDegrees>43.25363717973232269287109375</LatitudeDegrees>
              <LongitudeDegrees>-2.8958605416119098663330078125</LongitudeDegrees>
            </Position>
            <AltitudeMeters>-3.2000000476837158203125</AltitudeMeters>
            <DistanceMeters>NAN</DistanceMeters>
          </Trackpoint>
          <Trackpoint>
            <Time>2022-09-24T14:28:30.000Z</Time>
            <Position>
              <LatitudeDegrees>43.2536655105650424957275390625</LatitudeDegrees>
              <LongitudeDegrees>-2.8957812488079071044921875</LongitudeDegrees>
            </Position>
            <AltitudeMeters>-3.2000000476837158203125</AltitudeMeters>
            <DistanceMeters>NAN</DistanceMeters>
          </Trackpoint>
          <Trackpoint>
            <Time>2022-09-24T14:28:31.000Z</Time>
            <Position>
              <LatitudeDegrees>43.25369526632130146026611328125</LatitudeDegrees>
              <LongitudeDegrees>-2.895702458918094635009765625</LongitudeDegrees>
            </Position>
            <AltitudeMeters>-3.2000000476837158203125</AltitudeMeters>
            <DistanceMeters>NAN</DistanceMeters>
          </Trackpoint>
          <Trackpoint>
            <Time>2022-09-24T14:28:32.000Z</Time>
            <Position>
              <LatitudeDegrees>43.25372443534433841705322265625</LatitudeDegrees>
              <LongitudeDegrees>-2.89562056772410869598388671875</LongitudeDegrees>
            </Position>
            <AltitudeMeters>-3.2000000476837158203125</AltitudeMeters>
            <DistanceMeters>NAN</DistanceMeters>
          </Trackpoint>
          <Trackpoint>
            <Time>2022-09-24T14:28:33.000Z</Time>
            <Position>
              <LatitudeDegrees>43.253754191100597381591796875</LatitudeDegrees>
              <LongitudeDegrees>-2.89554194547235965728759765625</LongitudeDegrees>
            </Position>
            <AltitudeMeters>-3</AltitudeMeters>
            <DistanceMeters>NAN</DistanceMeters>
          </Trackpoint>
          <Trackpoint>
            <Time>2022-09-24T14:28:34.000Z</Time>
            <Position>
              <LatitudeDegrees>43.2537875510752201080322265625</LatitudeDegrees>
              <LongitudeDegrees>-2.89546248503029346466064453125</LongitudeDegrees>
            </Position>
            <AltitudeMeters>-3</AltitudeMeters>
            <DistanceMeters>NAN</DistanceMeters>
          </Trackpoint>
          <Trackpoint>
            <Time>2022-09-24T14:28:35.000Z</Time>
            <Position>
              <LatitudeDegrees>43.25382091104984283447265625</LatitudeDegrees>
              <LongitudeDegrees>-2.895377911627292633056640625</LongitudeDegrees>
            </Position>
            <AltitudeMeters>-2.400000095367431640625</AltitudeMeters>
            <DistanceMeters>NAN</DistanceMeters>
          </Trackpoint>
          <Trackpoint>
            <Time>2022-09-24T14:28:36.000Z</Time>
            <Position>
              <LatitudeDegrees>43.25385167263448238372802734375</LatitudeDegrees>
              <LongitudeDegrees>-2.8952925838530063629150390625</LongitudeDegrees>
            </Position>
            <AltitudeMeters>-2.2000000476837158203125</AltitudeMeters>
            <DistanceMeters>NAN</DistanceMeters>
          </Trackpoint>
          <Trackpoint>
            <Time>2022-09-24T14:28:37.000Z</Time>
            <Position>
              <LatitudeDegrees>43.25388352386653423309326171875</LatitudeDegrees>
              <LongitudeDegrees>-2.89520868100225925445556640625</LongitudeDegrees>
            </Position>
            <AltitudeMeters>-2.2000000476837158203125</AltitudeMeters>
            <DistanceMeters>NAN</DistanceMeters>
          </Trackpoint>
          <Trackpoint>
            <Time>2022-09-24T14:28:38.000Z</Time>
            <Position>
              <LatitudeDegrees>43.2539216615259647369384765625</LatitudeDegrees>
              <LongitudeDegrees>-2.89512419141829013824462890625</LongitudeDegrees>
            </Position>
            <AltitudeMeters>-2.2000000476837158203125</AltitudeMeters>
            <DistanceMeters>NAN</DistanceMeters>
          </Trackpoint>
          <Trackpoint>
            <Time>2022-09-24T14:28:39.000Z</Time>
            <Position>
              <LatitudeDegrees>43.2539216615259647369384765625</LatitudeDegrees>
              <LongitudeDegrees>-2.89512419141829013824462890625</LongitudeDegrees>
            </Position>
            <AltitudeMeters>-1.7999999523162841796875</AltitudeMeters>
            <DistanceMeters>NAN</DistanceMeters>
          </Trackpoint>
          <Trackpoint>
            <Time>2022-09-24T14:28:40.000Z</Time>
            <Position>
              <LatitudeDegrees>43.25398921966552734375</LatitudeDegrees>
              <LongitudeDegrees>-2.8949551284313201904296875</LongitudeDegrees>
            </Position>
            <AltitudeMeters>-1.7999999523162841796875</AltitudeMeters>
            <DistanceMeters>NAN</DistanceMeters>
          </Trackpoint>
          <Trackpoint>
            <Time>2022-09-24T14:28:41.000Z</Time>
            <Position>
              <LatitudeDegrees>43.254021741449832916259765625</LatitudeDegrees>
              <LongitudeDegrees>-2.8948691301047801971435546875</LongitudeDegrees>
            </Position>
            <AltitudeMeters>-1.7999999523162841796875</AltitudeMeters>
            <DistanceMeters>NAN</DistanceMeters>
          </Trackpoint>
          <Trackpoint>
            <Time>2022-09-24T14:28:42.000Z</Time>
            <Position>
              <LatitudeDegrees>43.254052586853504180908203125</LatitudeDegrees>
              <LongitudeDegrees>-2.89478505961596965789794921875</LongitudeDegrees>
            </Position>
            <AltitudeMeters>-1.7999999523162841796875</AltitudeMeters>
            <DistanceMeters>NAN</DistanceMeters>
          </Trackpoint>
          <Trackpoint>
            <Time>2022-09-24T14:28:43.000Z</Time>
            <Position>
              <LatitudeDegrees>43.2540896348655223846435546875</LatitudeDegrees>
              <LongitudeDegrees>-2.89470040239393711090087890625</LongitudeDegrees>
            </Position>
            <AltitudeMeters>-2.2000000476837158203125</AltitudeMeters>
            <DistanceMeters>NAN</DistanceMeters>
          </Trackpoint>
          <Trackpoint>
            <Time>2022-09-24T14:28:44.000Z</Time>
            <Position>
              <LatitudeDegrees>43.25412224046885967254638671875</LatitudeDegrees>
              <LongitudeDegrees>-2.894609458744525909423828125</LongitudeDegrees>
            </Position>
            <AltitudeMeters>-2.2000000476837158203125</AltitudeMeters>
            <DistanceMeters>NAN</DistanceMeters>
          </Trackpoint>
          <Trackpoint>
            <Time>2022-09-24T14:28:45.000Z</Time>
            <Position>
              <LatitudeDegrees>43.25415509752929210662841796875</LatitudeDegrees>
              <LongitudeDegrees>-2.8945191018283367156982421875</LongitudeDegrees>
            </Position>
            <AltitudeMeters>-2.2000000476837158203125</AltitudeMeters>
            <DistanceMeters>NAN</DistanceMeters>
          </Trackpoint>
          <Trackpoint>
            <Time>2022-09-24T14:28:46.000Z</Time>
            <Position>
              <LatitudeDegrees>43.2541845180094242095947265625</LatitudeDegrees>
              <LongitudeDegrees>-2.89442799054086208343505859375</LongitudeDegrees>
            </Position>
            <AltitudeMeters>-2.2000000476837158203125</AltitudeMeters>
            <DistanceMeters>NAN</DistanceMeters>
          </Trackpoint>
          <Trackpoint>
            <Time>2022-09-24T14:28:47.000Z</Time>
            <Position>
              <LatitudeDegrees>43.254215531051158905029296875</LatitudeDegrees>
              <LongitudeDegrees>-2.89433914236724376678466796875</LongitudeDegrees>
            </Position>
            <AltitudeMeters>-2.400000095367431640625</AltitudeMeters>
            <DistanceMeters>NAN</DistanceMeters>
          </Trackpoint>
          <Trackpoint>
            <Time>2022-09-24T14:28:48.000Z</Time>
            <Position>
              <LatitudeDegrees>43.2542438618838787078857421875</LatitudeDegrees>
              <LongitudeDegrees>-2.89424861781299114227294921875</LongitudeDegrees>
            </Position>
            <AltitudeMeters>-2.400000095367431640625</AltitudeMeters>
            <DistanceMeters>NAN</DistanceMeters>
          </Trackpoint>
          <Trackpoint>
            <Time>2022-09-24T14:28:49.000Z</Time>
            <Position>
              <LatitudeDegrees>43.25427412055432796478271484375</LatitudeDegrees>
              <LongitudeDegrees>-2.89415541104972362518310546875</LongitudeDegrees>
            </Position>
            <AltitudeMeters>-2.400000095367431640625</AltitudeMeters>
            <DistanceMeters>NAN</DistanceMeters>
          </Trackpoint>
          <Trackpoint>
            <Time>2022-09-24T14:28:50.000Z</Time>
            <Position>
              <LatitudeDegrees>43.25430580414831638336181640625</LatitudeDegrees>
              <LongitudeDegrees>-2.89406186901032924652099609375</LongitudeDegrees>
            </Position>
            <AltitudeMeters>-2.7999999523162841796875</AltitudeMeters>
            <DistanceMeters>NAN</DistanceMeters>
          </Trackpoint>
          <Trackpoint>
            <Time>2022-09-24T14:28:51.000Z</Time>
            <Position>
              <LatitudeDegrees>43.254338912665843963623046875</LatitudeDegrees>
              <LongitudeDegrees>-2.89396882988512516021728515625</LongitudeDegrees>
            </Position>
            <AltitudeMeters>-2.7999999523162841796875</AltitudeMeters>
            <DistanceMeters>NAN</DistanceMeters>
          </Trackpoint>
          <Trackpoint>
            <Time>2022-09-24T14:28:52.000Z</Time>
            <Position>
              <LatitudeDegrees>43.254373110830783843994140625</LatitudeDegrees>
              <LongitudeDegrees>-2.89387327618896961212158203125</LongitudeDegrees>
            </Position>
            <AltitudeMeters>-3</AltitudeMeters>
            <DistanceMeters>NAN</DistanceMeters>
          </Trackpoint>
          <Trackpoint>
            <Time>2022-09-24T14:28:53.000Z</Time>
            <Position>
              <LatitudeDegrees>43.2544071413576602935791015625</LatitudeDegrees>
              <LongitudeDegrees>-2.8937711007893085479736328125</LongitudeDegrees>
            </Position>
            <AltitudeMeters>-3</AltitudeMeters>
            <DistanceMeters>NAN</DistanceMeters>
          </Trackpoint>
          <Trackpoint>
            <Time>2022-09-24T14:28:54.000Z</Time>
            <Position>
              <LatitudeDegrees>43.25444226153194904327392578125</LatitudeDegrees>
              <LongitudeDegrees>-2.89367177523672580718994140625</LongitudeDegrees>
            </Position>
            <AltitudeMeters>-3</AltitudeMeters>
            <DistanceMeters>NAN</DistanceMeters>
          </Trackpoint>
          <Trackpoint>
            <Time>2022-09-24T14:28:55.000Z</Time>
            <Position>
              <LatitudeDegrees>43.25447210110723972320556640625</LatitudeDegrees>
              <LongitudeDegrees>-2.89356909692287445068359375</LongitudeDegrees>
            </Position>
            <AltitudeMeters>-3</AltitudeMeters>
            <DistanceMeters>NAN</DistanceMeters>
          </Trackpoint>
          <Trackpoint>
            <Time>2022-09-24T14:28:56.000Z</Time>
            <Position>
              <LatitudeDegrees>43.25449825264513492584228515625</LatitudeDegrees>
              <LongitudeDegrees>-2.89346449077129364013671875</LongitudeDegrees>
            </Position>
            <AltitudeMeters>-3.400000095367431640625</AltitudeMeters>
            <DistanceMeters>NAN</DistanceMeters>
          </Trackpoint>
          <Trackpoint>
            <Time>2022-09-24T14:28:57.000Z</Time>
            <Position>
              <LatitudeDegrees>43.25451937504112720489501953125</LatitudeDegrees>
              <LongitudeDegrees>-2.89335845969617366790771484375</LongitudeDegrees>
            </Position>
            <AltitudeMeters>-3.599999904632568359375</AltitudeMeters>
            <DistanceMeters>NAN</DistanceMeters>
          </Trackpoint>
          <Trackpoint>
            <Time>2022-09-24T14:28:58.000Z</Time>
            <Position>
              <LatitudeDegrees>43.2545363903045654296875</LatitudeDegrees>
              <LongitudeDegrees>-2.8932490758597850799560546875</LongitudeDegrees>
            </Position>
            <AltitudeMeters>-3.7999999523162841796875</AltitudeMeters>
            <DistanceMeters>NAN</DistanceMeters>
          </Trackpoint>
          <Trackpoint>
            <Time>2022-09-24T14:28:59.000Z</Time>
            <Position>
              <LatitudeDegrees>43.25454971753060817718505859375</LatitudeDegrees>
              <LongitudeDegrees>-2.89313483051955699920654296875</LongitudeDegrees>
            </Position>
            <AltitudeMeters>-4</AltitudeMeters>
            <DistanceMeters>NAN</DistanceMeters>
          </Trackpoint>
          <Trackpoint>
            <Time>2022-09-24T14:29:00.000Z</Time>
            <Position>
              <LatitudeDegrees>43.254558853805065155029296875</LatitudeDegrees>
              <LongitudeDegrees>-2.89301631040871143341064453125</LongitudeDegrees>
            </Position>
            <AltitudeMeters>-4</AltitudeMeters>
            <DistanceMeters>NAN</DistanceMeters>
          </Trackpoint>
          <Trackpoint>
            <Time>2022-09-24T14:29:01.000Z</Time>
            <Position>
              <LatitudeDegrees>43.25456530787050724029541015625</LatitudeDegrees>
              <LongitudeDegrees>-2.89289728738367557525634765625</LongitudeDegrees>
            </Position>
            <AltitudeMeters>-4</AltitudeMeters>
            <DistanceMeters>NAN</DistanceMeters>
          </Trackpoint>
          <Trackpoint>
            <Time>2022-09-24T14:29:02.000Z</Time>
            <Position>
              <LatitudeDegrees>43.25456581078469753265380859375</LatitudeDegrees>
              <LongitudeDegrees>-2.892773151397705078125</LongitudeDegrees>
            </Position>
            <AltitudeMeters>-3.7999999523162841796875</AltitudeMeters>
            <DistanceMeters>NAN</DistanceMeters>
          </Trackpoint>
          <Trackpoint>
            <Time>2022-09-24T14:29:03.000Z</Time>
            <Position>
              <LatitudeDegrees>43.25456581078469753265380859375</LatitudeDegrees>
              <LongitudeDegrees>-2.892773151397705078125</LongitudeDegrees>
            </Position>
            <AltitudeMeters>-4</AltitudeMeters>
            <DistanceMeters>NAN</DistanceMeters>
          </Trackpoint>
          <Trackpoint>
            <Time>2022-09-24T14:29:04.000Z</Time>
            <Position>
              <LatitudeDegrees>43.25456648133695125579833984375</LatitudeDegrees>
              <LongitudeDegrees>-2.892532758414745330810546875</LongitudeDegrees>
            </Position>
            <AltitudeMeters>-3.7999999523162841796875</AltitudeMeters>
            <DistanceMeters>NAN</DistanceMeters>
          </Trackpoint>
          <Trackpoint>
            <Time>2022-09-24T14:29:05.000Z</Time>
            <Position>
              <LatitudeDegrees>43.25455206446349620819091796875</LatitudeDegrees>
              <LongitudeDegrees>-2.89240962825715541839599609375</LongitudeDegrees>
            </Position>
            <AltitudeMeters>-3.7999999523162841796875</AltitudeMeters>
            <DistanceMeters>NAN</DistanceMeters>
          </Trackpoint>
          <Trackpoint>
            <Time>2022-09-24T14:29:06.000Z</Time>
            <Position>
              <LatitudeDegrees>43.254536055028438568115234375</LatitudeDegrees>
              <LongitudeDegrees>-2.89228926412761211395263671875</LongitudeDegrees>
            </Position>
            <AltitudeMeters>-3.7999999523162841796875</AltitudeMeters>
            <DistanceMeters>NAN</DistanceMeters>
          </Trackpoint>
          <Trackpoint>
            <Time>2022-09-24T14:29:07.000Z</Time>
            <Position>
              <LatitudeDegrees>43.25451753102242946624755859375</LatitudeDegrees>
              <LongitudeDegrees>-2.89216755889356136322021484375</LongitudeDegrees>
            </Position>
            <AltitudeMeters>-4.19999980926513671875</AltitudeMeters>
            <DistanceMeters>NAN</DistanceMeters>
          </Trackpoint>
          <Trackpoint>
            <Time>2022-09-24T14:29:08.000Z</Time>
            <Position>
              <LatitudeDegrees>43.25449137948453426361083984375</LatitudeDegrees>
              <LongitudeDegrees>-2.89204434491693973541259765625</LongitudeDegrees>
            </Position>
            <AltitudeMeters>-4.400000095367431640625</AltitudeMeters>
            <DistanceMeters>NAN</DistanceMeters>
          </Trackpoint>
          <Trackpoint>
            <Time>2022-09-24T14:29:09.000Z</Time>
            <Position>
              <LatitudeDegrees>43.25446355156600475311279296875</LatitudeDegrees>
              <LongitudeDegrees>-2.89192280732095241546630859375</LongitudeDegrees>
            </Position>
            <AltitudeMeters>-4.599999904632568359375</AltitudeMeters>
            <DistanceMeters>NAN</DistanceMeters>
          </Trackpoint>
          <Trackpoint>
            <Time>2022-09-24T14:29:10.000Z</Time>
            <Position>
              <LatitudeDegrees>43.25443639419972896575927734375</LatitudeDegrees>
              <LongitudeDegrees>-2.891799844801425933837890625</LongitudeDegrees>
            </Position>
            <AltitudeMeters>-4.599999904632568359375</AltitudeMeters>
            <DistanceMeters>NAN</DistanceMeters>
          </Trackpoint>
          <Trackpoint>
            <Time>2022-09-24T14:29:11.000Z</Time>
            <Position>
              <LatitudeDegrees>43.25440554879605770111083984375</LatitudeDegrees>
              <LongitudeDegrees>-2.89167302660644054412841796875</LongitudeDegrees>
            </Position>
            <AltitudeMeters>-4.599999904632568359375</AltitudeMeters>
            <DistanceMeters>NAN</DistanceMeters>
          </Trackpoint>
          <Trackpoint>
            <Time>2022-09-24T14:29:12.000Z</Time>
            <Position>
              <LatitudeDegrees>43.25437252409756183624267578125</LatitudeDegrees>
              <LongitudeDegrees>-2.891547046601772308349609375</LongitudeDegrees>
            </Position>
            <AltitudeMeters>-5.19999980926513671875</AltitudeMeters>
            <DistanceMeters>NAN</DistanceMeters>
          </Trackpoint>
          <Trackpoint>
            <Time>2022-09-24T14:29:13.000Z</Time>
            <Position>
              <LatitudeDegrees>43.25434151105582714080810546875</LatitudeDegrees>
              <LongitudeDegrees>-2.8914312086999416351318359375</LongitudeDegrees>
            </Position>
            <AltitudeMeters>-5.19999980926513671875</AltitudeMeters>
            <DistanceMeters>NAN</DistanceMeters>
          </Trackpoint>
          <Trackpoint>
            <Time>2022-09-24T14:29:14.000Z</Time>
            <Position>
              <LatitudeDegrees>43.25431016273796558380126953125</LatitudeDegrees>
              <LongitudeDegrees>-2.89132115431129932403564453125</LongitudeDegrees>
            </Position>
            <AltitudeMeters>-5.400000095367431640625</AltitudeMeters>
            <DistanceMeters>NAN</DistanceMeters>
          </Trackpoint>
          <Trackpoint>
            <Time>2022-09-24T14:29:15.000Z</Time>
            <Position>
              <LatitudeDegrees>43.25427428819239139556884765625</LatitudeDegrees>
              <LongitudeDegrees>-2.8912112675607204437255859375</LongitudeDegrees>
            </Position>
            <AltitudeMeters>-5.400000095367431640625</AltitudeMeters>
            <DistanceMeters>NAN</DistanceMeters>
          </Trackpoint>
          <Trackpoint>
            <Time>2022-09-24T14:29:16.000Z</Time>
            <Position>
              <LatitudeDegrees>43.25427428819239139556884765625</LatitudeDegrees>
              <LongitudeDegrees>-2.8912112675607204437255859375</LongitudeDegrees>
            </Position>
            <AltitudeMeters>-5.400000095367431640625</AltitudeMeters>
            <DistanceMeters>NAN</DistanceMeters>
          </Trackpoint>
          <Trackpoint>
            <Time>2022-09-24T14:29:17.000Z</Time>
            <Position>
              <LatitudeDegrees>43.25419918633997440338134765625</LatitudeDegrees>
              <LongitudeDegrees>-2.89098344743251800537109375</LongitudeDegrees>
            </Position>
            <AltitudeMeters>-5.599999904632568359375</AltitudeMeters>
            <DistanceMeters>NAN</DistanceMeters>
          </Trackpoint>
          <Trackpoint>
            <Time>2022-09-24T14:29:18.000Z</Time>
            <Position>
              <LatitudeDegrees>43.254161216318607330322265625</LatitudeDegrees>
              <LongitudeDegrees>-2.89087406359612941741943359375</LongitudeDegrees>
            </Position>
            <AltitudeMeters>-5.80000019073486328125</AltitudeMeters>
            <DistanceMeters>NAN</DistanceMeters>
          </Trackpoint>
          <Trackpoint>
            <Time>2022-09-24T14:29:19.000Z</Time>
            <Position>
              <LatitudeDegrees>43.2541208155453205108642578125</LatitudeDegrees>
              <LongitudeDegrees>-2.89076459594070911407470703125</LongitudeDegrees>
            </Position>
            <AltitudeMeters>-5.599999904632568359375</AltitudeMeters>
            <DistanceMeters>NAN</DistanceMeters>
          </Trackpoint>
          <Trackpoint>
            <Time>2022-09-24T14:29:20.000Z</Time>
            <Position>
              <LatitudeDegrees>43.254077732563018798828125</LatitudeDegrees>
              <LongitudeDegrees>-2.89065579883754253387451171875</LongitudeDegrees>
            </Position>
            <AltitudeMeters>-5.599999904632568359375</AltitudeMeters>
            <DistanceMeters>NAN</DistanceMeters>
          </Trackpoint>
          <Trackpoint>
            <Time>2022-09-24T14:29:21.000Z</Time>
            <Position>
              <LatitudeDegrees>43.254034817218780517578125</LatitudeDegrees>
              <LongitudeDegrees>-2.8905482590198516845703125</LongitudeDegrees>
            </Position>
            <AltitudeMeters>-5.599999904632568359375</AltitudeMeters>
            <DistanceMeters>NAN</DistanceMeters>
          </Trackpoint>
          <Trackpoint>
            <Time>2022-09-24T14:29:22.000Z</Time>
            <Position>
              <LatitudeDegrees>43.2539920695126056671142578125</LatitudeDegrees>
              <LongitudeDegrees>-2.89044432342052459716796875</LongitudeDegrees>
            </Position>
            <AltitudeMeters>-5.599999904632568359375</AltitudeMeters>
            <DistanceMeters>NAN</DistanceMeters>
          </Trackpoint>
          <Trackpoint>
            <Time>2022-09-24T14:29:23.000Z</Time>
            <Position>
              <LatitudeDegrees>43.25394705869257450103759765625</LatitudeDegrees>
              <LongitudeDegrees>-2.890344746410846710205078125</LongitudeDegrees>
            </Position>
            <AltitudeMeters>-5.599999904632568359375</AltitudeMeters>
            <DistanceMeters>NAN</DistanceMeters>
          </Trackpoint>
          <Trackpoint>
            <Time>2022-09-24T14:29:24.000Z</Time>
            <Position>
              <LatitudeDegrees>43.25394705869257450103759765625</LatitudeDegrees>
              <LongitudeDegrees>-2.890344746410846710205078125</LongitudeDegrees>
            </Position>
            <AltitudeMeters>-5.599999904632568359375</AltitudeMeters>
            <DistanceMeters>NAN</DistanceMeters>
          </Trackpoint>
          <Trackpoint>
            <Time>2022-09-24T14:29:25.000Z</Time>
            <Position>
              <LatitudeDegrees>43.2538546063005924224853515625</LatitudeDegrees>
              <LongitudeDegrees>-2.8901548124849796295166015625</LongitudeDegrees>
            </Position>
            <AltitudeMeters>-5.599999904632568359375</AltitudeMeters>
            <DistanceMeters>NAN</DistanceMeters>
          </Trackpoint>
          <Trackpoint>
            <Time>2022-09-24T14:29:26.000Z</Time>
            <Position>
              <LatitudeDegrees>43.25380272231996059417724609375</LatitudeDegrees>
              <LongitudeDegrees>-2.890069484710693359375</LongitudeDegrees>
            </Position>
            <AltitudeMeters>-5.599999904632568359375</AltitudeMeters>
            <DistanceMeters>NAN</DistanceMeters>
          </Trackpoint>
          <Trackpoint>
            <Time>2022-09-24T14:29:27.000Z</Time>
            <Position>
              <LatitudeDegrees>43.2537416182458400726318359375</LatitudeDegrees>
              <LongitudeDegrees>-2.88998424075543880462646484375</LongitudeDegrees>
            </Position>
            <AltitudeMeters>-5.80000019073486328125</AltitudeMeters>
            <DistanceMeters>NAN</DistanceMeters>
          </Trackpoint>
          <Trackpoint>
            <Time>2022-09-24T14:29:28.000Z</Time>
            <Position>
              <LatitudeDegrees>43.2536691986024379730224609375</LatitudeDegrees>
              <LongitudeDegrees>-2.889900840818881988525390625</LongitudeDegrees>
            </Position>
            <AltitudeMeters>-5.80000019073486328125</AltitudeMeters>
            <DistanceMeters>NAN</DistanceMeters>
          </Trackpoint>
          <Trackpoint>
            <Time>2022-09-24T14:29:29.000Z</Time>
            <Position>
              <LatitudeDegrees>43.25360172428190708160400390625</LatitudeDegrees>
              <LongitudeDegrees>-2.8898188658058643341064453125</LongitudeDegrees>
            </Position>
            <AltitudeMeters>-6</AltitudeMeters>
            <DistanceMeters>NAN</DistanceMeters>
          </Trackpoint>
          <Trackpoint>
            <Time>2022-09-24T14:29:30.000Z</Time>
            <Position>
              <LatitudeDegrees>43.25352008454501628875732421875</LatitudeDegrees>
              <LongitudeDegrees>-2.88974166847765445709228515625</LongitudeDegrees>
            </Position>
            <AltitudeMeters>-6</AltitudeMeters>
            <DistanceMeters>NAN</DistanceMeters>
          </Trackpoint>
          <Trackpoint>
            <Time>2022-09-24T14:29:31.000Z</Time>
            <Position>
              <LatitudeDegrees>43.25352008454501628875732421875</LatitudeDegrees>
              <LongitudeDegrees>-2.88974166847765445709228515625</LongitudeDegrees>
            </Position>
            <AltitudeMeters>-5.599999904632568359375</AltitudeMeters>
            <DistanceMeters>NAN</DistanceMeters>
          </Trackpoint>
          <Trackpoint>
            <Time>2022-09-24T14:29:32.000Z</Time>
            <Position>
              <LatitudeDegrees>43.2533486746251583099365234375</LatitudeDegrees>
              <LongitudeDegrees>-2.88959942758083343505859375</LongitudeDegrees>
            </Position>
            <AltitudeMeters>-5.599999904632568359375</AltitudeMeters>
            <DistanceMeters>NAN</DistanceMeters>
          </Trackpoint>
          <Trackpoint>
            <Time>2022-09-24T14:29:33.000Z</Time>
            <Position>
              <LatitudeDegrees>43.2532675378024578094482421875</LatitudeDegrees>
              <LongitudeDegrees>-2.88953237235546112060546875</LongitudeDegrees>
            </Position>
            <AltitudeMeters>-6</AltitudeMeters>
            <DistanceMeters>NAN</DistanceMeters>
          </Trackpoint>
          <Trackpoint>
            <Time>2022-09-24T14:29:34.000Z</Time>
            <Position>
              <LatitudeDegrees>43.25319151394069194793701171875</LatitudeDegrees>
              <LongitudeDegrees>-2.8894700109958648681640625</LongitudeDegrees>
            </Position>
            <AltitudeMeters>-5.599999904632568359375</AltitudeMeters>
            <DistanceMeters>NAN</DistanceMeters>
          </Trackpoint>
          <Trackpoint>
            <Time>2022-09-24T14:29:35.000Z</Time>
            <Position>
              <LatitudeDegrees>43.25311473570764064788818359375</LatitudeDegrees>
              <LongitudeDegrees>-2.88941460661590099334716796875</LongitudeDegrees>
            </Position>
            <AltitudeMeters>-6</AltitudeMeters>
            <DistanceMeters>NAN</DistanceMeters>
          </Trackpoint>
          <Trackpoint>
            <Time>2022-09-24T14:29:36.000Z</Time>
            <Position>
              <LatitudeDegrees>43.25303745456039905548095703125</LatitudeDegrees>
              <LongitudeDegrees>-2.88936180062592029571533203125</LongitudeDegrees>
            </Position>
            <AltitudeMeters>-6</AltitudeMeters>
            <DistanceMeters>NAN</DistanceMeters>
          </Trackpoint>
          <Trackpoint>
            <Time>2022-09-24T14:29:37.000Z</Time>
            <Position>
              <LatitudeDegrees>43.25295782648026943206787109375</LatitudeDegrees>
              <LongitudeDegrees>-2.88931117393076419830322265625</LongitudeDegrees>
            </Position>
            <AltitudeMeters>-6</AltitudeMeters>
            <DistanceMeters>NAN</DistanceMeters>
          </Trackpoint>
          <Trackpoint>
            <Time>2022-09-24T14:29:38.000Z</Time>
            <Position>
              <LatitudeDegrees>43.25287836603820323944091796875</LatitudeDegrees>
              <LongitudeDegrees>-2.88926172070205211639404296875</LongitudeDegrees>
            </Position>
            <AltitudeMeters>-6</AltitudeMeters>
            <DistanceMeters>NAN</DistanceMeters>
          </Trackpoint>
          <Trackpoint>
            <Time>2022-09-24T14:29:39.000Z</Time>
            <Position>
              <LatitudeDegrees>43.252799324691295623779296875</LatitudeDegrees>
              <LongitudeDegrees>-2.8892183862626552581787109375</LongitudeDegrees>
            </Position>
            <AltitudeMeters>-6</AltitudeMeters>
            <DistanceMeters>NAN</DistanceMeters>
          </Trackpoint>
          <Trackpoint>
            <Time>2022-09-24T14:29:40.000Z</Time>
            <Position>
              <LatitudeDegrees>43.2527183555066585540771484375</LatitudeDegrees>
              <LongitudeDegrees>-2.88917840458452701568603515625</LongitudeDegrees>
            </Position>
            <AltitudeMeters>-6.19999980926513671875</AltitudeMeters>
            <DistanceMeters>NAN</DistanceMeters>
          </Trackpoint>
          <Trackpoint>
            <Time>2022-09-24T14:29:41.000Z</Time>
            <Position>
              <LatitudeDegrees>43.2526362128555774688720703125</LatitudeDegrees>
              <LongitudeDegrees>-2.8891389258205890655517578125</LongitudeDegrees>
            </Position>
            <AltitudeMeters>-6.19999980926513671875</AltitudeMeters>
            <DistanceMeters>NAN</DistanceMeters>
          </Trackpoint>
          <Trackpoint>
            <Time>2022-09-24T14:29:42.000Z</Time>
            <Position>
              <LatitudeDegrees>43.25255214236676692962646484375</LatitudeDegrees>
              <LongitudeDegrees>-2.8891074098646640777587890625</LongitudeDegrees>
            </Position>
            <AltitudeMeters>-6.19999980926513671875</AltitudeMeters>
            <DistanceMeters>NAN</DistanceMeters>
          </Trackpoint>
          <Trackpoint>
            <Time>2022-09-24T14:29:43.000Z</Time>
            <Position>
              <LatitudeDegrees>43.2524508051574230194091796875</LatitudeDegrees>
              <LongitudeDegrees>-2.889063991606235504150390625</LongitudeDegrees>
            </Position>
            <AltitudeMeters>-6.19999980926513671875</AltitudeMeters>
            <DistanceMeters>NAN</DistanceMeters>
          </Trackpoint>
          <Trackpoint>
            <Time>2022-09-24T14:29:44.000Z</Time>
            <Position>
              <LatitudeDegrees>43.25238416902720928192138671875</LatitudeDegrees>
              <LongitudeDegrees>-2.88904245011508464813232421875</LongitudeDegrees>
            </Position>
            <AltitudeMeters>-6.19999980926513671875</AltitudeMeters>
            <DistanceMeters>NAN</DistanceMeters>
          </Trackpoint>
          <Trackpoint>
            <Time>2022-09-24T14:29:45.000Z</Time>
            <Position>
              <LatitudeDegrees>43.252301104366779327392578125</LatitudeDegrees>
              <LongitudeDegrees>-2.88902183063328266143798828125</LongitudeDegrees>
            </Position>
            <AltitudeMeters>-6.19999980926513671875</AltitudeMeters>
            <DistanceMeters>NAN</DistanceMeters>
          </Trackpoint>
          <Trackpoint>
            <Time>2022-09-24T14:29:46.000Z</Time>
            <Position>
              <LatitudeDegrees>43.2522154413163661956787109375</LatitudeDegrees>
              <LongitudeDegrees>-2.8890061564743518829345703125</LongitudeDegrees>
            </Position>
            <AltitudeMeters>-6.599999904632568359375</AltitudeMeters>
            <DistanceMeters>NAN</DistanceMeters>
          </Trackpoint>
          <Trackpoint>
            <Time>2022-09-24T14:29:47.000Z</Time>
            <Position>
              <LatitudeDegrees>43.25210203416645526885986328125</LatitudeDegrees>
              <LongitudeDegrees>-2.88898654282093048095703125</LongitudeDegrees>
            </Position>
            <AltitudeMeters>-6.19999980926513671875</AltitudeMeters>
            <DistanceMeters>NAN</DistanceMeters>
          </Trackpoint>
          <Trackpoint>
            <Time>2022-09-24T14:29:48.000Z</Time>
            <Position>
              <LatitudeDegrees>43.2520030438899993896484375</LatitudeDegrees>
              <LongitudeDegrees>-2.88898444734513759613037109375</LongitudeDegrees>
            </Position>
            <AltitudeMeters>-6.599999904632568359375</AltitudeMeters>
            <DistanceMeters>NAN</DistanceMeters>
          </Trackpoint>
          <Trackpoint>
            <Time>2022-09-24T14:29:49.000Z</Time>
            <Position>
              <LatitudeDegrees>43.251928947865962982177734375</LatitudeDegrees>
              <LongitudeDegrees>-2.88897983729839324951171875</LongitudeDegrees>
            </Position>
            <AltitudeMeters>-6.599999904632568359375</AltitudeMeters>
            <DistanceMeters>NAN</DistanceMeters>
          </Trackpoint>
          <Trackpoint>
            <Time>2022-09-24T14:29:50.000Z</Time>
            <Position>
              <LatitudeDegrees>43.251928947865962982177734375</LatitudeDegrees>
              <LongitudeDegrees>-2.88897983729839324951171875</LongitudeDegrees>
            </Position>
            <AltitudeMeters>-6.599999904632568359375</AltitudeMeters>
            <DistanceMeters>NAN</DistanceMeters>
          </Trackpoint>
          <Trackpoint>
            <Time>2022-09-24T14:29:51.000Z</Time>
            <Position>
              <LatitudeDegrees>43.25175502337515354156494140625</LatitudeDegrees>
              <LongitudeDegrees>-2.88895829580724239349365234375</LongitudeDegrees>
            </Position>
            <AltitudeMeters>-6.80000019073486328125</AltitudeMeters>
            <DistanceMeters>NAN</DistanceMeters>
          </Trackpoint>
          <Trackpoint>
            <Time>2022-09-24T14:29:52.000Z</Time>
            <Position>
              <LatitudeDegrees>43.25167338363826274871826171875</LatitudeDegrees>
              <LongitudeDegrees>-2.88895460776984691619873046875</LongitudeDegrees>
            </Position>
            <AltitudeMeters>-6.80000019073486328125</AltitudeMeters>
            <DistanceMeters>NAN</DistanceMeters>
          </Trackpoint>
          <Trackpoint>
            <Time>2022-09-24T14:29:53.000Z</Time>
            <Position>
              <LatitudeDegrees>43.25159526430070400238037109375</LatitudeDegrees>
              <LongitudeDegrees>-2.888949997723102569580078125</LongitudeDegrees>
            </Position>
            <AltitudeMeters>-6.80000019073486328125</AltitudeMeters>
            <DistanceMeters>NAN</DistanceMeters>
          </Trackpoint>
          <Trackpoint>
            <Time>2022-09-24T14:29:54.000Z</Time>
            <Position>
              <LatitudeDegrees>43.25151328928768634796142578125</LatitudeDegrees>
              <LongitudeDegrees>-2.88894840516149997711181640625</LongitudeDegrees>
            </Position>
            <AltitudeMeters>-6.80000019073486328125</AltitudeMeters>
            <DistanceMeters>NAN</DistanceMeters>
          </Trackpoint>
          <Trackpoint>
            <Time>2022-09-24T14:29:55.000Z</Time>
            <Position>
              <LatitudeDegrees>43.25151328928768634796142578125</LatitudeDegrees>
              <LongitudeDegrees>-2.88894840516149997711181640625</LongitudeDegrees>
            </Position>
            <AltitudeMeters>-6.599999904632568359375</AltitudeMeters>
            <DistanceMeters>NAN</DistanceMeters>
          </Trackpoint>
          <Trackpoint>
            <Time>2022-09-24T14:29:56.000Z</Time>
            <Position>
              <LatitudeDegrees>43.2513531111180782318115234375</LatitudeDegrees>
              <LongitudeDegrees>-2.88890884257853031158447265625</LongitudeDegrees>
            </Position>
            <AltitudeMeters>-6.599999904632568359375</AltitudeMeters>
            <DistanceMeters>NAN</DistanceMeters>
          </Trackpoint>
          <Trackpoint>
            <Time>2022-09-24T14:29:57.000Z</Time>
            <Position>
              <LatitudeDegrees>43.25127054937183856964111328125</LatitudeDegrees>
              <LongitudeDegrees>-2.888879589736461639404296875</LongitudeDegrees>
            </Position>
            <AltitudeMeters>-6.400000095367431640625</AltitudeMeters>
            <DistanceMeters>NAN</DistanceMeters>
          </Trackpoint>
          <Trackpoint>
            <Time>2022-09-24T14:29:58.000Z</Time>
            <Position>
              <LatitudeDegrees>43.25118103064596652984619140625</LatitudeDegrees>
              <LongitudeDegrees>-2.8888479061424732208251953125</LongitudeDegrees>
            </Position>
            <AltitudeMeters>-6.400000095367431640625</AltitudeMeters>
            <DistanceMeters>NAN</DistanceMeters>
          </Trackpoint>
          <Trackpoint>
            <Time>2022-09-24T14:29:59.000Z</Time>
            <Position>
              <LatitudeDegrees>43.251089751720428466796875</LatitudeDegrees>
              <LongitudeDegrees>-2.8888083435595035552978515625</LongitudeDegrees>
            </Position>
            <AltitudeMeters>-6.400000095367431640625</AltitudeMeters>
            <DistanceMeters>NAN</DistanceMeters>
          </Trackpoint>
          <Trackpoint>
            <Time>2022-09-24T14:30:00.000Z</Time>
            <Position>
              <LatitudeDegrees>43.250998556613922119140625</LatitudeDegrees>
              <LongitudeDegrees>-2.8887744806706905364990234375</LongitudeDegrees>
            </Position>
            <AltitudeMeters>-6.400000095367431640625</AltitudeMeters>
            <DistanceMeters>NAN</DistanceMeters>
          </Trackpoint>
          <Trackpoint>
            <Time>2022-09-24T14:30:01.000Z</Time>
            <Position>
              <LatitudeDegrees>43.25091205537319183349609375</LatitudeDegrees>
              <LongitudeDegrees>-2.88874170742928981781005859375</LongitudeDegrees>
            </Position>
            <AltitudeMeters>-6.400000095367431640625</AltitudeMeters>
            <DistanceMeters>NAN</DistanceMeters>
          </Trackpoint>
          <Trackpoint>
            <Time>2022-09-24T14:30:02.000Z</Time>
            <Position>
              <LatitudeDegrees>43.25082614086568355560302734375</LatitudeDegrees>
              <LongitudeDegrees>-2.8887077607214450836181640625</LongitudeDegrees>
            </Position>
            <AltitudeMeters>-6.400000095367431640625</AltitudeMeters>
            <DistanceMeters>NAN</DistanceMeters>
          </Trackpoint>
          <Trackpoint>
            <Time>2022-09-24T14:30:03.000Z</Time>
            <Position>
              <LatitudeDegrees>43.25074131600558757781982421875</LatitudeDegrees>
              <LongitudeDegrees>-2.88867465220391750335693359375</LongitudeDegrees>
            </Position>
            <AltitudeMeters>-6.599999904632568359375</AltitudeMeters>
            <DistanceMeters>NAN</DistanceMeters>
          </Trackpoint>
          <Trackpoint>
            <Time>2022-09-24T14:30:04.000Z</Time>
            <Position>
              <LatitudeDegrees>43.250655569136142730712890625</LatitudeDegrees>
              <LongitudeDegrees>-2.88864280097186565399169921875</LongitudeDegrees>
            </Position>
            <AltitudeMeters>-6.80000019073486328125</AltitudeMeters>
            <DistanceMeters>NAN</DistanceMeters>
          </Trackpoint>
          <Trackpoint>
            <Time>2022-09-24T14:30:05.000Z</Time>
            <Position>
              <LatitudeDegrees>43.25056697241961956024169921875</LatitudeDegrees>
              <LongitudeDegrees>-2.88860910572111606597900390625</LongitudeDegrees>
            </Position>
            <AltitudeMeters>-6.80000019073486328125</AltitudeMeters>
            <DistanceMeters>NAN</DistanceMeters>
          </Trackpoint>
          <Trackpoint>
            <Time>2022-09-24T14:30:06.000Z</Time>
            <Position>
              <LatitudeDegrees>43.25047644786536693572998046875</LatitudeDegrees>
              <LongitudeDegrees>-2.888573147356510162353515625</LongitudeDegrees>
            </Position>
            <AltitudeMeters>-7</AltitudeMeters>
            <DistanceMeters>NAN</DistanceMeters>
          </Trackpoint>
          <Trackpoint>
            <Time>2022-09-24T14:30:07.000Z</Time>
            <Position>
              <LatitudeDegrees>43.2503841631114482879638671875</LatitudeDegrees>
              <LongitudeDegrees>-2.888535596430301666259765625</LongitudeDegrees>
            </Position>
            <AltitudeMeters>-7</AltitudeMeters>
            <DistanceMeters>NAN</DistanceMeters>
          </Trackpoint>
          <Trackpoint>
            <Time>2022-09-24T14:30:08.000Z</Time>
            <Position>
              <LatitudeDegrees>43.250293470919132232666015625</LatitudeDegrees>
              <LongitudeDegrees>-2.88850114680826663970947265625</LongitudeDegrees>
            </Position>
            <AltitudeMeters>-7</AltitudeMeters>
            <DistanceMeters>NAN</DistanceMeters>
          </Trackpoint>
          <Trackpoint>
            <Time>2022-09-24T14:30:09.000Z</Time>
            <Position>
              <LatitudeDegrees>43.2502061314880847930908203125</LatitudeDegrees>
              <LongitudeDegrees>-2.88846761919558048248291015625</LongitudeDegrees>
            </Position>
            <AltitudeMeters>-7.19999980926513671875</AltitudeMeters>
            <DistanceMeters>NAN</DistanceMeters>
          </Trackpoint>
          <Trackpoint>
            <Time>2022-09-24T14:30:10.000Z</Time>
            <Position>
              <LatitudeDegrees>43.250117115676403045654296875</LatitudeDegrees>
              <LongitudeDegrees>-2.88843275047838687896728515625</LongitudeDegrees>
            </Position>
            <AltitudeMeters>-7.19999980926513671875</AltitudeMeters>
            <DistanceMeters>NAN</DistanceMeters>
          </Trackpoint>
          <Trackpoint>
            <Time>2022-09-24T14:30:11.000Z</Time>
            <Position>
              <LatitudeDegrees>43.250027596950531005859375</LatitudeDegrees>
              <LongitudeDegrees>-2.888402156531810760498046875</LongitudeDegrees>
            </Position>
            <AltitudeMeters>-7.19999980926513671875</AltitudeMeters>
            <DistanceMeters>NAN</DistanceMeters>
          </Trackpoint>
          <Trackpoint>
            <Time>2022-09-24T14:30:12.000Z</Time>
            <Position>
              <LatitudeDegrees>43.24993682093918323516845703125</LatitudeDegrees>
              <LongitudeDegrees>-2.888379357755184173583984375</LongitudeDegrees>
            </Position>
            <AltitudeMeters>-7.19999980926513671875</AltitudeMeters>
            <DistanceMeters>NAN</DistanceMeters>
          </Trackpoint>
          <Trackpoint>
            <Time>2022-09-24T14:30:13.000Z</Time>
            <Position>
              <LatitudeDegrees>43.24984445236623287200927734375</LatitudeDegrees>
              <LongitudeDegrees>-2.8883590735495090484619140625</LongitudeDegrees>
            </Position>
            <AltitudeMeters>-7.19999980926513671875</AltitudeMeters>
            <DistanceMeters>NAN</DistanceMeters>
          </Trackpoint>
          <Trackpoint>
            <Time>2022-09-24T14:30:14.000Z</Time>
            <Position>
              <LatitudeDegrees>43.249751664698123931884765625</LatitudeDegrees>
              <LongitudeDegrees>-2.88834440521895885467529296875</LongitudeDegrees>
            </Position>
            <AltitudeMeters>-7</AltitudeMeters>
            <DistanceMeters>NAN</DistanceMeters>
          </Trackpoint>
          <Trackpoint>
            <Time>2022-09-24T14:30:15.000Z</Time>
            <Position>
              <LatitudeDegrees>43.2496576197445392608642578125</LatitudeDegrees>
              <LongitudeDegrees>-2.88833686150610446929931640625</LongitudeDegrees>
            </Position>
            <AltitudeMeters>-6.80000019073486328125</AltitudeMeters>
            <DistanceMeters>NAN</DistanceMeters>
          </Trackpoint>
          <Trackpoint>
            <Time>2022-09-24T14:30:16.000Z</Time>
            <Position>
              <LatitudeDegrees>43.249564580619335174560546875</LatitudeDegrees>
              <LongitudeDegrees>-2.88834289647638797760009765625</LongitudeDegrees>
            </Position>
            <AltitudeMeters>-6.80000019073486328125</AltitudeMeters>
            <DistanceMeters>NAN</DistanceMeters>
          </Trackpoint>
          <Trackpoint>
            <Time>2022-09-24T14:30:17.000Z</Time>
            <Position>
              <LatitudeDegrees>43.24945603497326374053955078125</LatitudeDegrees>
              <LongitudeDegrees>-2.88835622370243072509765625</LongitudeDegrees>
            </Position>
            <AltitudeMeters>-6.80000019073486328125</AltitudeMeters>
            <DistanceMeters>NAN</DistanceMeters>
          </Trackpoint>
          <Trackpoint>
            <Time>2022-09-24T14:30:18.000Z</Time>
            <Position>
              <LatitudeDegrees>43.2493833638727664947509765625</LatitudeDegrees>
              <LongitudeDegrees>-2.888368628919124603271484375</LongitudeDegrees>
            </Position>
            <AltitudeMeters>-6.80000019073486328125</AltitudeMeters>
            <DistanceMeters>NAN</DistanceMeters>
          </Trackpoint>
          <Trackpoint>
            <Time>2022-09-24T14:30:19.000Z</Time>
            <Position>
              <LatitudeDegrees>43.2492948509752750396728515625</LatitudeDegrees>
              <LongitudeDegrees>-2.88838648237287998199462890625</LongitudeDegrees>
            </Position>
            <AltitudeMeters>-6.80000019073486328125</AltitudeMeters>
            <DistanceMeters>NAN</DistanceMeters>
          </Trackpoint>
          <Trackpoint>
            <Time>2022-09-24T14:30:20.000Z</Time>
            <Position>
              <LatitudeDegrees>43.24920742772519588470458984375</LatitudeDegrees>
              <LongitudeDegrees>-2.88841389119625091552734375</LongitudeDegrees>
            </Position>
            <AltitudeMeters>-6.80000019073486328125</AltitudeMeters>
            <DistanceMeters>NAN</DistanceMeters>
          </Trackpoint>
          <Trackpoint>
            <Time>2022-09-24T14:30:21.000Z</Time>
            <Position>
              <LatitudeDegrees>43.249120675027370452880859375</LatitudeDegrees>
              <LongitudeDegrees>-2.8884499333798885345458984375</LongitudeDegrees>
            </Position>
            <AltitudeMeters>-7</AltitudeMeters>
            <DistanceMeters>NAN</DistanceMeters>
          </Trackpoint>
          <Trackpoint>
            <Time>2022-09-24T14:30:22.000Z</Time>
            <Position>
              <LatitudeDegrees>43.24903643690049648284912109375</LatitudeDegrees>
              <LongitudeDegrees>-2.88849427364766597747802734375</LongitudeDegrees>
            </Position>
            <AltitudeMeters>-7.19999980926513671875</AltitudeMeters>
            <DistanceMeters>NAN</DistanceMeters>
          </Trackpoint>
          <Trackpoint>
            <Time>2022-09-24T14:30:23.000Z</Time>
            <Position>
              <LatitudeDegrees>43.24895664118230342864990234375</LatitudeDegrees>
              <LongitudeDegrees>-2.88854531943798065185546875</LongitudeDegrees>
            </Position>
            <AltitudeMeters>-7.19999980926513671875</AltitudeMeters>
            <DistanceMeters>NAN</DistanceMeters>
          </Trackpoint>
          <Trackpoint>
            <Time>2022-09-24T14:30:24.000Z</Time>
            <Position>
              <LatitudeDegrees>43.2488770969212055206298828125</LatitudeDegrees>
              <LongitudeDegrees>-2.8886008076369762420654296875</LongitudeDegrees>
            </Position>
            <AltitudeMeters>-7.599999904632568359375</AltitudeMeters>
            <DistanceMeters>NAN</DistanceMeters>
          </Trackpoint>
          <Trackpoint>
            <Time>2022-09-24T14:30:25.000Z</Time>
            <Position>
              <LatitudeDegrees>43.24879637919366359710693359375</LatitudeDegrees>
              <LongitudeDegrees>-2.88865487091243267059326171875</LongitudeDegrees>
            </Position>
            <AltitudeMeters>-7.599999904632568359375</AltitudeMeters>
            <DistanceMeters>NAN</DistanceMeters>
          </Trackpoint>
          <Trackpoint>
            <Time>2022-09-24T14:30:26.000Z</Time>
            <Position>
              <LatitudeDegrees>43.24871339835226535797119140625</LatitudeDegrees>
              <LongitudeDegrees>-2.8887077607214450836181640625</LongitudeDegrees>
            </Position>
            <AltitudeMeters>-7.599999904632568359375</AltitudeMeters>
            <DistanceMeters>NAN</DistanceMeters>
          </Trackpoint>
          <Trackpoint>
            <Time>2022-09-24T14:30:27.000Z</Time>
            <Position>
              <LatitudeDegrees>43.24863293208181858062744140625</LatitudeDegrees>
              <LongitudeDegrees>-2.88876115344464778900146484375</LongitudeDegrees>
            </Position>
            <AltitudeMeters>-7.599999904632568359375</AltitudeMeters>
            <DistanceMeters>NAN</DistanceMeters>
          </Trackpoint>
          <Trackpoint>
            <Time>2022-09-24T14:30:28.000Z</Time>
            <Position>
              <LatitudeDegrees>43.2485532201826572418212890625</LatitudeDegrees>
              <LongitudeDegrees>-2.88881530053913593292236328125</LongitudeDegrees>
            </Position>
            <AltitudeMeters>-7.599999904632568359375</AltitudeMeters>
            <DistanceMeters>NAN</DistanceMeters>
          </Trackpoint>
          <Trackpoint>
            <Time>2022-09-24T14:30:29.000Z</Time>
            <Position>
              <LatitudeDegrees>43.2484744302928447723388671875</LatitudeDegrees>
              <LongitudeDegrees>-2.8888727165758609771728515625</LongitudeDegrees>
            </Position>
            <AltitudeMeters>-7.599999904632568359375</AltitudeMeters>
            <DistanceMeters>NAN</DistanceMeters>
          </Trackpoint>
          <Trackpoint>
            <Time>2022-09-24T14:30:30.000Z</Time>
            <Position>
              <LatitudeDegrees>43.248397819697856903076171875</LatitudeDegrees>
              <LongitudeDegrees>-2.888928540050983428955078125</LongitudeDegrees>
            </Position>
            <AltitudeMeters>-7.599999904632568359375</AltitudeMeters>
            <DistanceMeters>NAN</DistanceMeters>
          </Trackpoint>
          <Trackpoint>
            <Time>2022-09-24T14:30:31.000Z</Time>
            <Position>
              <LatitudeDegrees>43.24831794016063213348388671875</LatitudeDegrees>
              <LongitudeDegrees>-2.888981513679027557373046875</LongitudeDegrees>
            </Position>
            <AltitudeMeters>-7.599999904632568359375</AltitudeMeters>
            <DistanceMeters>NAN</DistanceMeters>
          </Trackpoint>
          <Trackpoint>
            <Time>2022-09-24T14:30:32.000Z</Time>
            <Position>
              <LatitudeDegrees>43.24824065901339054107666015625</LatitudeDegrees>
              <LongitudeDegrees>-2.88903105072677135467529296875</LongitudeDegrees>
            </Position>
            <AltitudeMeters>-7.599999904632568359375</AltitudeMeters>
            <DistanceMeters>NAN</DistanceMeters>
          </Trackpoint>
          <Trackpoint>
            <Time>2022-09-24T14:30:33.000Z</Time>
            <Position>
              <LatitudeDegrees>43.24816103093326091766357421875</LatitudeDegrees>
              <LongitudeDegrees>-2.889074720442295074462890625</LongitudeDegrees>
            </Position>
            <AltitudeMeters>-7.599999904632568359375</AltitudeMeters>
            <DistanceMeters>NAN</DistanceMeters>
          </Trackpoint>
          <Trackpoint>
            <Time>2022-09-24T14:30:34.000Z</Time>
            <Position>
              <LatitudeDegrees>43.24807830154895782470703125</LatitudeDegrees>
              <LongitudeDegrees>-2.8891105949878692626953125</LongitudeDegrees>
            </Position>
            <AltitudeMeters>-7</AltitudeMeters>
            <DistanceMeters>NAN</DistanceMeters>
          </Trackpoint>
          <Trackpoint>
            <Time>2022-09-24T14:30:35.000Z</Time>
            <Position>
              <LatitudeDegrees>43.247994482517242431640625</LatitudeDegrees>
              <LongitudeDegrees>-2.88913800381124019622802734375</LongitudeDegrees>
            </Position>
            <AltitudeMeters>-6.80000019073486328125</AltitudeMeters>
            <DistanceMeters>NAN</DistanceMeters>
          </Trackpoint>
          <Trackpoint>
            <Time>2022-09-24T14:30:36.000Z</Time>
            <Position>
              <LatitudeDegrees>43.24790890328586101531982421875</LatitudeDegrees>
              <LongitudeDegrees>-2.88915728218853473663330078125</LongitudeDegrees>
            </Position>
            <AltitudeMeters>-6.80000019073486328125</AltitudeMeters>
            <DistanceMeters>NAN</DistanceMeters>
          </Trackpoint>
          <Trackpoint>
            <Time>2022-09-24T14:30:37.000Z</Time>
            <Position>
              <LatitudeDegrees>43.24782206676900386810302734375</LatitudeDegrees>
              <LongitudeDegrees>-2.88917169906198978424072265625</LongitudeDegrees>
            </Position>
            <AltitudeMeters>-6.80000019073486328125</AltitudeMeters>
            <DistanceMeters>NAN</DistanceMeters>
          </Trackpoint>
          <Trackpoint>
            <Time>2022-09-24T14:30:38.000Z</Time>
            <Position>
              <LatitudeDegrees>43.2477384991943836212158203125</LatitudeDegrees>
              <LongitudeDegrees>-2.88918276317417621612548828125</LongitudeDegrees>
            </Position>
            <AltitudeMeters>-6.599999904632568359375</AltitudeMeters>
            <DistanceMeters>NAN</DistanceMeters>
          </Trackpoint>
          <Trackpoint>
            <Time>2022-09-24T14:30:39.000Z</Time>
            <Position>
              <LatitudeDegrees>43.24765317142009735107421875</LatitudeDegrees>
              <LongitudeDegrees>-2.889184020459651947021484375</LongitudeDegrees>
            </Position>
            <AltitudeMeters>-6.599999904632568359375</AltitudeMeters>
            <DistanceMeters>NAN</DistanceMeters>
          </Trackpoint>
          <Trackpoint>
            <Time>2022-09-24T14:30:40.000Z</Time>
            <Position>
              <LatitudeDegrees>43.2475691847503185272216796875</LatitudeDegrees>
              <LongitudeDegrees>-2.88917873986065387725830078125</LongitudeDegrees>
            </Position>
            <AltitudeMeters>-6.80000019073486328125</AltitudeMeters>
            <DistanceMeters>NAN</DistanceMeters>
          </Trackpoint>
          <Trackpoint>
            <Time>2022-09-24T14:30:41.000Z</Time>
            <Position>
              <LatitudeDegrees>43.24748477898538112640380859375</LatitudeDegrees>
              <LongitudeDegrees>-2.8891669213771820068359375</LongitudeDegrees>
            </Position>
            <AltitudeMeters>-7.19999980926513671875</AltitudeMeters>
            <DistanceMeters>NAN</DistanceMeters>
          </Trackpoint>
          <Trackpoint>
            <Time>2022-09-24T14:30:42.000Z</Time>
            <Position>
              <LatitudeDegrees>43.24740062467753887176513671875</LatitudeDegrees>
              <LongitudeDegrees>-2.8891439549624919891357421875</LongitudeDegrees>
            </Position>
            <AltitudeMeters>-7.19999980926513671875</AltitudeMeters>
            <DistanceMeters>NAN</DistanceMeters>
          </Trackpoint>
          <Trackpoint>
            <Time>2022-09-24T14:30:43.000Z</Time>
            <Position>
              <LatitudeDegrees>43.2473172247409820556640625</LatitudeDegrees>
              <LongitudeDegrees>-2.889113612473011016845703125</LongitudeDegrees>
            </Position>
            <AltitudeMeters>-7.19999980926513671875</AltitudeMeters>
            <DistanceMeters>NAN</DistanceMeters>
          </Trackpoint>
          <Trackpoint>
            <Time>2022-09-24T14:30:44.000Z</Time>
            <Position>
              <LatitudeDegrees>43.2473172247409820556640625</LatitudeDegrees>
              <LongitudeDegrees>-2.889113612473011016845703125</LongitudeDegrees>
            </Position>
            <AltitudeMeters>-7.19999980926513671875</AltitudeMeters>
            <DistanceMeters>NAN</DistanceMeters>
          </Trackpoint>
          <Trackpoint>
            <Time>2022-09-24T14:30:45.000Z</Time>
            <Position>
              <LatitudeDegrees>43.247159980237483978271484375</LatitudeDegrees>
              <LongitudeDegrees>-2.88902945816516876220703125</LongitudeDegrees>
            </Position>
            <AltitudeMeters>-7.19999980926513671875</AltitudeMeters>
            <DistanceMeters>NAN</DistanceMeters>
          </Trackpoint>
          <Trackpoint>
            <Time>2022-09-24T14:30:46.000Z</Time>
            <Position>
              <LatitudeDegrees>43.24708227999508380889892578125</LatitudeDegrees>
              <LongitudeDegrees>-2.888980172574520111083984375</LongitudeDegrees>
            </Position>
            <AltitudeMeters>-7</AltitudeMeters>
            <DistanceMeters>NAN</DistanceMeters>
          </Trackpoint>
          <Trackpoint>
            <Time>2022-09-24T14:30:47.000Z</Time>
            <Position>
              <LatitudeDegrees>43.24700717814266681671142578125</LatitudeDegrees>
              <LongitudeDegrees>-2.8889280371367931365966796875</LongitudeDegrees>
            </Position>
            <AltitudeMeters>-7</AltitudeMeters>
            <DistanceMeters>NAN</DistanceMeters>
          </Trackpoint>
          <Trackpoint>
            <Time>2022-09-24T14:30:48.000Z</Time>
            <Position>
              <LatitudeDegrees>43.2469331659376621246337890625</LatitudeDegrees>
              <LongitudeDegrees>-2.8888666816055774688720703125</LongitudeDegrees>
            </Position>
            <AltitudeMeters>-6.80000019073486328125</AltitudeMeters>
            <DistanceMeters>NAN</DistanceMeters>
          </Trackpoint>
          <Trackpoint>
            <Time>2022-09-24T14:30:49.000Z</Time>
            <Position>
              <LatitudeDegrees>43.24686217121779918670654296875</LatitudeDegrees>
              <LongitudeDegrees>-2.88879635743796825408935546875</LongitudeDegrees>
            </Position>
            <AltitudeMeters>-7</AltitudeMeters>
            <DistanceMeters>NAN</DistanceMeters>
          </Trackpoint>
          <Trackpoint>
            <Time>2022-09-24T14:30:50.000Z</Time>
            <Position>
              <LatitudeDegrees>43.24679561890661716461181640625</LatitudeDegrees>
              <LongitudeDegrees>-2.88872234523296356201171875</LongitudeDegrees>
            </Position>
            <AltitudeMeters>-6.80000019073486328125</AltitudeMeters>
            <DistanceMeters>NAN</DistanceMeters>
          </Trackpoint>
          <Trackpoint>
            <Time>2022-09-24T14:30:51.000Z</Time>
            <Position>
              <LatitudeDegrees>43.2467336766421794891357421875</LatitudeDegrees>
              <LongitudeDegrees>-2.8886438906192779541015625</LongitudeDegrees>
            </Position>
            <AltitudeMeters>-6.80000019073486328125</AltitudeMeters>
            <DistanceMeters>NAN</DistanceMeters>
          </Trackpoint>
          <Trackpoint>
            <Time>2022-09-24T14:30:52.000Z</Time>
            <Position>
              <LatitudeDegrees>43.246675841510295867919921875</LatitudeDegrees>
              <LongitudeDegrees>-2.888559065759181976318359375</LongitudeDegrees>
            </Position>
            <AltitudeMeters>-6.80000019073486328125</AltitudeMeters>
            <DistanceMeters>NAN</DistanceMeters>
          </Trackpoint>
          <Trackpoint>
            <Time>2022-09-24T14:30:53.000Z</Time>
            <Position>
              <LatitudeDegrees>43.24662186205387115478515625</LatitudeDegrees>
              <LongitudeDegrees>-2.8884697146713733673095703125</LongitudeDegrees>
            </Position>
            <AltitudeMeters>-6.80000019073486328125</AltitudeMeters>
            <DistanceMeters>NAN</DistanceMeters>
          </Trackpoint>
          <Trackpoint>
            <Time>2022-09-24T14:30:54.000Z</Time>
            <Position>
              <LatitudeDegrees>43.24657064862549304962158203125</LatitudeDegrees>
              <LongitudeDegrees>-2.888376004993915557861328125</LongitudeDegrees>
            </Position>
            <AltitudeMeters>-6.80000019073486328125</AltitudeMeters>
            <DistanceMeters>NAN</DistanceMeters>
          </Trackpoint>
          <Trackpoint>
            <Time>2022-09-24T14:30:55.000Z</Time>
            <Position>
              <LatitudeDegrees>43.24652639217674732208251953125</LatitudeDegrees>
              <LongitudeDegrees>-2.8882745839655399322509765625</LongitudeDegrees>
            </Position>
            <AltitudeMeters>-6.80000019073486328125</AltitudeMeters>
            <DistanceMeters>NAN</DistanceMeters>
          </Trackpoint>
          <Trackpoint>
            <Time>2022-09-24T14:30:56.000Z</Time>
            <Position>
              <LatitudeDegrees>43.24648682959377765655517578125</LatitudeDegrees>
              <LongitudeDegrees>-2.8881706483662128448486328125</LongitudeDegrees>
            </Position>
            <AltitudeMeters>-6.80000019073486328125</AltitudeMeters>
            <DistanceMeters>NAN</DistanceMeters>
          </Trackpoint>
          <Trackpoint>
            <Time>2022-09-24T14:30:57.000Z</Time>
            <Position>
              <LatitudeDegrees>43.24644961394369602203369140625</LatitudeDegrees>
              <LongitudeDegrees>-2.88806386291980743408203125</LongitudeDegrees>
            </Position>
            <AltitudeMeters>-7</AltitudeMeters>
            <DistanceMeters>NAN</DistanceMeters>
          </Trackpoint>
          <Trackpoint>
            <Time>2022-09-24T14:30:58.000Z</Time>
            <Position>
              <LatitudeDegrees>43.24641541577875614166259765625</LatitudeDegrees>
              <LongitudeDegrees>-2.8879537247121334075927734375</LongitudeDegrees>
            </Position>
            <AltitudeMeters>-7</AltitudeMeters>
            <DistanceMeters>NAN</DistanceMeters>
          </Trackpoint>
          <Trackpoint>
            <Time>2022-09-24T14:30:59.000Z</Time>
            <Position>
              <LatitudeDegrees>43.246385492384433746337890625</LatitudeDegrees>
              <LongitudeDegrees>-2.88783981464803218841552734375</LongitudeDegrees>
            </Position>
            <AltitudeMeters>-7.19999980926513671875</AltitudeMeters>
            <DistanceMeters>NAN</DistanceMeters>
          </Trackpoint>
          <Trackpoint>
            <Time>2022-09-24T14:31:00.000Z</Time>
            <Position>
              <LatitudeDegrees>43.24636093340814113616943359375</LatitudeDegrees>
              <LongitudeDegrees>-2.88772447966039180755615234375</LongitudeDegrees>
            </Position>
            <AltitudeMeters>-7.19999980926513671875</AltitudeMeters>
            <DistanceMeters>NAN</DistanceMeters>
          </Trackpoint>
          <Trackpoint>
            <Time>2022-09-24T14:31:01.000Z</Time>
            <Position>
              <LatitudeDegrees>43.2463417388498783111572265625</LatitudeDegrees>
              <LongitudeDegrees>-2.8876070491969585418701171875</LongitudeDegrees>
            </Position>
            <AltitudeMeters>-7.19999980926513671875</AltitudeMeters>
            <DistanceMeters>NAN</DistanceMeters>
          </Trackpoint>
          <Trackpoint>
            <Time>2022-09-24T14:31:02.000Z</Time>
            <Position>
              <LatitudeDegrees>43.24632547795772552490234375</LatitudeDegrees>
              <LongitudeDegrees>-2.88748676888644695281982421875</LongitudeDegrees>
            </Position>
            <AltitudeMeters>-7.19999980926513671875</AltitudeMeters>
            <DistanceMeters>NAN</DistanceMeters>
          </Trackpoint>
          <Trackpoint>
            <Time>2022-09-24T14:31:03.000Z</Time>
            <Position>
              <LatitudeDegrees>43.2463105581700801849365234375</LatitudeDegrees>
              <LongitudeDegrees>-2.8873644769191741943359375</LongitudeDegrees>
            </Position>
            <AltitudeMeters>-7.19999980926513671875</AltitudeMeters>
            <DistanceMeters>NAN</DistanceMeters>
          </Trackpoint>
          <Trackpoint>
            <Time>2022-09-24T14:31:04.000Z</Time>
            <Position>
              <LatitudeDegrees>43.24629287235438823699951171875</LatitudeDegrees>
              <LongitudeDegrees>-2.88724235258996486663818359375</LongitudeDegrees>
            </Position>
            <AltitudeMeters>-7.400000095367431640625</AltitudeMeters>
            <DistanceMeters>NAN</DistanceMeters>
          </Trackpoint>
          <Trackpoint>
            <Time>2022-09-24T14:31:05.000Z</Time>
            <Position>
              <LatitudeDegrees>43.246272169053554534912109375</LatitudeDegrees>
              <LongitudeDegrees>-2.88712106645107269287109375</LongitudeDegrees>
            </Position>
            <AltitudeMeters>-7.400000095367431640625</AltitudeMeters>
            <DistanceMeters>NAN</DistanceMeters>
          </Trackpoint>
          <Trackpoint>
            <Time>2022-09-24T14:31:06.000Z</Time>
            <Position>
              <LatitudeDegrees>43.2462522201240062713623046875</LatitudeDegrees>
              <LongitudeDegrees>-2.8870001994073390960693359375</LongitudeDegrees>
            </Position>
            <AltitudeMeters>-7.400000095367431640625</AltitudeMeters>
            <DistanceMeters>NAN</DistanceMeters>
          </Trackpoint>
          <Trackpoint>
            <Time>2022-09-24T14:31:07.000Z</Time>
            <Position>
              <LatitudeDegrees>43.24623160064220428466796875</LatitudeDegrees>
              <LongitudeDegrees>-2.88687924854457378387451171875</LongitudeDegrees>
            </Position>
            <AltitudeMeters>-7.599999904632568359375</AltitudeMeters>
            <DistanceMeters>NAN</DistanceMeters>
          </Trackpoint>
          <Trackpoint>
            <Time>2022-09-24T14:31:08.000Z</Time>
            <Position>
              <LatitudeDegrees>43.24621508829295635223388671875</LatitudeDegrees>
              <LongitudeDegrees>-2.886757291853427886962890625</LongitudeDegrees>
            </Position>
            <AltitudeMeters>-7.599999904632568359375</AltitudeMeters>
            <DistanceMeters>NAN</DistanceMeters>
          </Trackpoint>
          <Trackpoint>
            <Time>2022-09-24T14:31:09.000Z</Time>
            <Position>
              <LatitudeDegrees>43.2461962290108203887939453125</LatitudeDegrees>
              <LongitudeDegrees>-2.8866354189813137054443359375</LongitudeDegrees>
            </Position>
            <AltitudeMeters>-7.599999904632568359375</AltitudeMeters>
            <DistanceMeters>NAN</DistanceMeters>
          </Trackpoint>
          <Trackpoint>
            <Time>2022-09-24T14:31:10.000Z</Time>
            <Position>
              <LatitudeDegrees>43.2461754418909549713134765625</LatitudeDegrees>
              <LongitudeDegrees>-2.8865123726427555084228515625</LongitudeDegrees>
            </Position>
            <AltitudeMeters>-7.599999904632568359375</AltitudeMeters>
            <DistanceMeters>NAN</DistanceMeters>
          </Trackpoint>
          <Trackpoint>
            <Time>2022-09-24T14:31:11.000Z</Time>
            <Position>
              <LatitudeDegrees>43.24615607969462871551513671875</LatitudeDegrees>
              <LongitudeDegrees>-2.886390499770641326904296875</LongitudeDegrees>
            </Position>
            <AltitudeMeters>-8.19999980926513671875</AltitudeMeters>
            <DistanceMeters>NAN</DistanceMeters>
          </Trackpoint>
          <Trackpoint>
            <Time>2022-09-24T14:31:12.000Z</Time>
            <Position>
              <LatitudeDegrees>43.24613864533603191375732421875</LatitudeDegrees>
              <LongitudeDegrees>-2.886267118155956268310546875</LongitudeDegrees>
            </Position>
            <AltitudeMeters>-8.19999980926513671875</AltitudeMeters>
            <DistanceMeters>NAN</DistanceMeters>
          </Trackpoint>
          <Trackpoint>
            <Time>2022-09-24T14:31:13.000Z</Time>
            <Position>
              <LatitudeDegrees>43.24612028896808624267578125</LatitudeDegrees>
              <LongitudeDegrees>-2.88614247925579547882080078125</LongitudeDegrees>
            </Position>
            <AltitudeMeters>-8.19999980926513671875</AltitudeMeters>
            <DistanceMeters>NAN</DistanceMeters>
          </Trackpoint>
          <Trackpoint>
            <Time>2022-09-24T14:31:14.000Z</Time>
            <Position>
              <LatitudeDegrees>43.24610142968595027923583984375</LatitudeDegrees>
              <LongitudeDegrees>-2.88601733744144439697265625</LongitudeDegrees>
            </Position>
            <AltitudeMeters>-8.6000003814697265625</AltitudeMeters>
            <DistanceMeters>NAN</DistanceMeters>
          </Trackpoint>
          <Trackpoint>
            <Time>2022-09-24T14:31:15.000Z</Time>
            <Position>
              <LatitudeDegrees>43.2460808940231800079345703125</LatitudeDegrees>
              <LongitudeDegrees>-2.88589303381741046905517578125</LongitudeDegrees>
            </Position>
            <AltitudeMeters>-8.6000003814697265625</AltitudeMeters>
            <DistanceMeters>NAN</DistanceMeters>
          </Trackpoint>
          <Trackpoint>
            <Time>2022-09-24T14:31:16.000Z</Time>
            <Position>
              <LatitudeDegrees>43.24606119655072689056396484375</LatitudeDegrees>
              <LongitudeDegrees>-2.8857685625553131103515625</LongitudeDegrees>
            </Position>
            <AltitudeMeters>-8.6000003814697265625</AltitudeMeters>
            <DistanceMeters>NAN</DistanceMeters>
          </Trackpoint>
          <Trackpoint>
            <Time>2022-09-24T14:31:17.000Z</Time>
            <Position>
              <LatitudeDegrees>43.24604141525924205780029296875</LatitudeDegrees>
              <LongitudeDegrees>-2.88564207963645458221435546875</LongitudeDegrees>
            </Position>
            <AltitudeMeters>-8.6000003814697265625</AltitudeMeters>
            <DistanceMeters>NAN</DistanceMeters>
          </Trackpoint>
          <Trackpoint>
            <Time>2022-09-24T14:31:18.000Z</Time>
            <Position>
              <LatitudeDegrees>43.2460222207009792327880859375</LatitudeDegrees>
              <LongitudeDegrees>-2.88551484234631061553955078125</LongitudeDegrees>
            </Position>
            <AltitudeMeters>-8.6000003814697265625</AltitudeMeters>
            <DistanceMeters>NAN</DistanceMeters>
          </Trackpoint>
          <Trackpoint>
            <Time>2022-09-24T14:31:19.000Z</Time>
            <Position>
              <LatitudeDegrees>43.2460024394094944000244140625</LatitudeDegrees>
              <LongitudeDegrees>-2.88538676686584949493408203125</LongitudeDegrees>
            </Position>
            <AltitudeMeters>-8.6000003814697265625</AltitudeMeters>
            <DistanceMeters>NAN</DistanceMeters>
          </Trackpoint>
          <Trackpoint>
            <Time>2022-09-24T14:31:20.000Z</Time>
            <Position>
              <LatitudeDegrees>43.2459793053567409515380859375</LatitudeDegrees>
              <LongitudeDegrees>-2.88526187650859355926513671875</LongitudeDegrees>
            </Position>
            <AltitudeMeters>-8.6000003814697265625</AltitudeMeters>
            <DistanceMeters>NAN</DistanceMeters>
          </Trackpoint>
          <Trackpoint>
            <Time>2022-09-24T14:31:21.000Z</Time>
            <Position>
              <LatitudeDegrees>43.24595625512301921844482421875</LatitudeDegrees>
              <LongitudeDegrees>-2.88513262756168842315673828125</LongitudeDegrees>
            </Position>
            <AltitudeMeters>-8.80000019073486328125</AltitudeMeters>
            <DistanceMeters>NAN</DistanceMeters>
          </Trackpoint>
          <Trackpoint>
            <Time>2022-09-24T14:31:22.000Z</Time>
            <Position>
              <LatitudeDegrees>43.24593647383153438568115234375</LatitudeDegrees>
              <LongitudeDegrees>-2.8850022889673709869384765625</LongitudeDegrees>
            </Position>
            <AltitudeMeters>-8.80000019073486328125</AltitudeMeters>
            <DistanceMeters>NAN</DistanceMeters>
          </Trackpoint>
          <Trackpoint>
            <Time>2022-09-24T14:31:23.000Z</Time>
            <Position>
              <LatitudeDegrees>43.2459179498255252838134765625</LatitudeDegrees>
              <LongitudeDegrees>-2.8848725371062755584716796875</LongitudeDegrees>
            </Position>
            <AltitudeMeters>-9</AltitudeMeters>
            <DistanceMeters>NAN</DistanceMeters>
          </Trackpoint>
          <Trackpoint>
            <Time>2022-09-24T14:31:24.000Z</Time>
            <Position>
              <LatitudeDegrees>43.2458995096385478973388671875</LatitudeDegrees>
              <LongitudeDegrees>-2.88474270142614841461181640625</LongitudeDegrees>
            </Position>
            <AltitudeMeters>-9</AltitudeMeters>
            <DistanceMeters>NAN</DistanceMeters>
          </Trackpoint>
          <Trackpoint>
            <Time>2022-09-24T14:31:25.000Z</Time>
            <Position>
              <LatitudeDegrees>43.2458800636231899261474609375</LatitudeDegrees>
              <LongitudeDegrees>-2.88461211137473583221435546875</LongitudeDegrees>
            </Position>
            <AltitudeMeters>-9.3999996185302734375</AltitudeMeters>
            <DistanceMeters>NAN</DistanceMeters>
          </Trackpoint>
          <Trackpoint>
            <Time>2022-09-24T14:31:26.000Z</Time>
            <Position>
              <LatitudeDegrees>43.24585734866559505462646484375</LatitudeDegrees>
              <LongitudeDegrees>-2.88448085077106952667236328125</LongitudeDegrees>
            </Position>
            <AltitudeMeters>-9.3999996185302734375</AltitudeMeters>
            <DistanceMeters>NAN</DistanceMeters>
          </Trackpoint>
          <Trackpoint>
            <Time>2022-09-24T14:31:27.000Z</Time>
            <Position>
              <LatitudeDegrees>43.24583572335541248321533203125</LatitudeDegrees>
              <LongitudeDegrees>-2.88434908725321292877197265625</LongitudeDegrees>
            </Position>
            <AltitudeMeters>-9.3999996185302734375</AltitudeMeters>
            <DistanceMeters>NAN</DistanceMeters>
          </Trackpoint>
          <Trackpoint>
            <Time>2022-09-24T14:31:28.000Z</Time>
            <Position>
              <LatitudeDegrees>43.245812840759754180908203125</LatitudeDegrees>
              <LongitudeDegrees>-2.88422050885856151580810546875</LongitudeDegrees>
            </Position>
            <AltitudeMeters>-9.3999996185302734375</AltitudeMeters>
            <DistanceMeters>NAN</DistanceMeters>
          </Trackpoint>
          <Trackpoint>
            <Time>2022-09-24T14:31:29.000Z</Time>
            <Position>
              <LatitudeDegrees>43.24578342027962207794189453125</LatitudeDegrees>
              <LongitudeDegrees>-2.88409293629229068756103515625</LongitudeDegrees>
            </Position>
            <AltitudeMeters>-9.3999996185302734375</AltitudeMeters>
            <DistanceMeters>NAN</DistanceMeters>
          </Trackpoint>
          <Trackpoint>
            <Time>2022-09-24T14:31:30.000Z</Time>
            <Position>
              <LatitudeDegrees>43.24575978331267833709716796875</LatitudeDegrees>
              <LongitudeDegrees>-2.883964441716670989990234375</LongitudeDegrees>
            </Position>
            <AltitudeMeters>-9.3999996185302734375</AltitudeMeters>
            <DistanceMeters>NAN</DistanceMeters>
          </Trackpoint>
          <Trackpoint>
            <Time>2022-09-24T14:31:31.000Z</Time>
            <Position>
              <LatitudeDegrees>43.24575978331267833709716796875</LatitudeDegrees>
              <LongitudeDegrees>-2.883964441716670989990234375</LongitudeDegrees>
            </Position>
            <AltitudeMeters>-9.80000019073486328125</AltitudeMeters>
            <DistanceMeters>NAN</DistanceMeters>
          </Trackpoint>
          <Trackpoint>
            <Time>2022-09-24T14:31:32.000Z</Time>
            <Position>
              <LatitudeDegrees>43.24572063982486724853515625</LatitudeDegrees>
              <LongitudeDegrees>-2.88370661437511444091796875</LongitudeDegrees>
            </Position>
            <AltitudeMeters>-9.80000019073486328125</AltitudeMeters>
            <DistanceMeters>NAN</DistanceMeters>
          </Trackpoint>
          <Trackpoint>
            <Time>2022-09-24T14:31:33.000Z</Time>
            <Position>
              <LatitudeDegrees>43.24570119380950927734375</LatitudeDegrees>
              <LongitudeDegrees>-2.8835807181894779205322265625</LongitudeDegrees>
            </Position>
            <AltitudeMeters>-10.19999980926513671875</AltitudeMeters>
            <DistanceMeters>NAN</DistanceMeters>
          </Trackpoint>
          <Trackpoint>
            <Time>2022-09-24T14:31:34.000Z</Time>
            <Position>
              <LatitudeDegrees>43.24568233452737331390380859375</LatitudeDegrees>
              <LongitudeDegrees>-2.88345582783222198486328125</LongitudeDegrees>
            </Position>
            <AltitudeMeters>-10.19999980926513671875</AltitudeMeters>
            <DistanceMeters>NAN</DistanceMeters>
          </Trackpoint>
          <Trackpoint>
            <Time>2022-09-24T14:31:35.000Z</Time>
            <Position>
              <LatitudeDegrees>43.245663307607173919677734375</LatitudeDegrees>
              <LongitudeDegrees>-2.8833292610943317413330078125</LongitudeDegrees>
            </Position>
            <AltitudeMeters>-10.19999980926513671875</AltitudeMeters>
            <DistanceMeters>NAN</DistanceMeters>
          </Trackpoint>
          <Trackpoint>
            <Time>2022-09-24T14:31:36.000Z</Time>
            <Position>
              <LatitudeDegrees>43.24564419686794281005859375</LatitudeDegrees>
              <LongitudeDegrees>-2.88320126943290233612060546875</LongitudeDegrees>
            </Position>
            <AltitudeMeters>-10.19999980926513671875</AltitudeMeters>
            <DistanceMeters>NAN</DistanceMeters>
          </Trackpoint>
          <Trackpoint>
            <Time>2022-09-24T14:31:37.000Z</Time>
            <Position>
              <LatitudeDegrees>43.24562667869031429290771484375</LatitudeDegrees>
              <LongitudeDegrees>-2.88307227194309234619140625</LongitudeDegrees>
            </Position>
            <AltitudeMeters>-10.3999996185302734375</AltitudeMeters>
            <DistanceMeters>NAN</DistanceMeters>
          </Trackpoint>
          <Trackpoint>
            <Time>2022-09-24T14:31:38.000Z</Time>
            <Position>
              <LatitudeDegrees>43.24560664594173431396484375</LatitudeDegrees>
              <LongitudeDegrees>-2.88294411264359951019287109375</LongitudeDegrees>
            </Position>
            <AltitudeMeters>-10.6000003814697265625</AltitudeMeters>
            <DistanceMeters>NAN</DistanceMeters>
          </Trackpoint>
          <Trackpoint>
            <Time>2022-09-24T14:31:39.000Z</Time>
            <Position>
              <LatitudeDegrees>43.24560664594173431396484375</LatitudeDegrees>
              <LongitudeDegrees>-2.88294411264359951019287109375</LongitudeDegrees>
            </Position>
            <AltitudeMeters>-10.3999996185302734375</AltitudeMeters>
            <DistanceMeters>NAN</DistanceMeters>
          </Trackpoint>
          <Trackpoint>
            <Time>2022-09-24T14:31:40.000Z</Time>
            <Position>
              <LatitudeDegrees>43.2455669157207012176513671875</LatitudeDegrees>
              <LongitudeDegrees>-2.8826920688152313232421875</LongitudeDegrees>
            </Position>
            <AltitudeMeters>-11</AltitudeMeters>
            <DistanceMeters>NAN</DistanceMeters>
          </Trackpoint>
          <Trackpoint>
            <Time>2022-09-24T14:31:41.000Z</Time>
            <Position>
              <LatitudeDegrees>43.245546631515026092529296875</LatitudeDegrees>
              <LongitudeDegrees>-2.8825660049915313720703125</LongitudeDegrees>
            </Position>
            <AltitudeMeters>-11</AltitudeMeters>
            <DistanceMeters>NAN</DistanceMeters>
          </Trackpoint>
          <Trackpoint>
            <Time>2022-09-24T14:31:42.000Z</Time>
            <Position>
              <LatitudeDegrees>43.24552190490067005157470703125</LatitudeDegrees>
              <LongitudeDegrees>-2.8824401088058948516845703125</LongitudeDegrees>
            </Position>
            <AltitudeMeters>-11</AltitudeMeters>
            <DistanceMeters>NAN</DistanceMeters>
          </Trackpoint>
          <Trackpoint>
            <Time>2022-09-24T14:31:43.000Z</Time>
            <Position>
              <LatitudeDegrees>43.245501033961772918701171875</LatitudeDegrees>
              <LongitudeDegrees>-2.8823123686015605926513671875</LongitudeDegrees>
            </Position>
            <AltitudeMeters>-11</AltitudeMeters>
            <DistanceMeters>NAN</DistanceMeters>
          </Trackpoint>
          <Trackpoint>
            <Time>2022-09-24T14:31:44.000Z</Time>
            <Position>
              <LatitudeDegrees>43.24548016302287578582763671875</LatitudeDegrees>
              <LongitudeDegrees>-2.8821873106062412261962890625</LongitudeDegrees>
            </Position>
            <AltitudeMeters>-11</AltitudeMeters>
            <DistanceMeters>NAN</DistanceMeters>
          </Trackpoint>
          <Trackpoint>
            <Time>2022-09-24T14:31:45.000Z</Time>
            <Position>
              <LatitudeDegrees>43.245461471378803253173828125</LatitudeDegrees>
              <LongitudeDegrees>-2.882063090801239013671875</LongitudeDegrees>
            </Position>
            <AltitudeMeters>-11.19999980926513671875</AltitudeMeters>
            <DistanceMeters>NAN</DistanceMeters>
          </Trackpoint>
          <Trackpoint>
            <Time>2022-09-24T14:31:46.000Z</Time>
            <Position>
              <LatitudeDegrees>43.24544378556311130523681640625</LatitudeDegrees>
              <LongitudeDegrees>-2.88193845190107822418212890625</LongitudeDegrees>
            </Position>
            <AltitudeMeters>-11.19999980926513671875</AltitudeMeters>
            <DistanceMeters>NAN</DistanceMeters>
          </Trackpoint>
          <Trackpoint>
            <Time>2022-09-24T14:31:47.000Z</Time>
            <Position>
              <LatitudeDegrees>43.2454230822622776031494140625</LatitudeDegrees>
              <LongitudeDegrees>-2.88181431591510772705078125</LongitudeDegrees>
            </Position>
            <AltitudeMeters>-11.19999980926513671875</AltitudeMeters>
            <DistanceMeters>NAN</DistanceMeters>
          </Trackpoint>
          <Trackpoint>
            <Time>2022-09-24T14:31:48.000Z</Time>
            <Position>
              <LatitudeDegrees>43.2454079948365688323974609375</LatitudeDegrees>
              <LongitudeDegrees>-2.881692945957183837890625</LongitudeDegrees>
            </Position>
            <AltitudeMeters>-11.19999980926513671875</AltitudeMeters>
            <DistanceMeters>NAN</DistanceMeters>
          </Trackpoint>
          <Trackpoint>
            <Time>2022-09-24T14:31:49.000Z</Time>
            <Position>
              <LatitudeDegrees>43.24538628570735454559326171875</LatitudeDegrees>
              <LongitudeDegrees>-2.8815735876560211181640625</LongitudeDegrees>
            </Position>
            <AltitudeMeters>-11.6000003814697265625</AltitudeMeters>
            <DistanceMeters>NAN</DistanceMeters>
          </Trackpoint>
          <Trackpoint>
            <Time>2022-09-24T14:31:50.000Z</Time>
            <Position>
              <LatitudeDegrees>43.2453657500445842742919921875</LatitudeDegrees>
              <LongitudeDegrees>-2.88145355880260467529296875</LongitudeDegrees>
            </Position>
            <AltitudeMeters>-11.19999980926513671875</AltitudeMeters>
            <DistanceMeters>NAN</DistanceMeters>
          </Trackpoint>
          <Trackpoint>
            <Time>2022-09-24T14:31:51.000Z</Time>
            <Position>
              <LatitudeDegrees>43.24534714221954345703125</LatitudeDegrees>
              <LongitudeDegrees>-2.881332524120807647705078125</LongitudeDegrees>
            </Position>
            <AltitudeMeters>-11.19999980926513671875</AltitudeMeters>
            <DistanceMeters>NAN</DistanceMeters>
          </Trackpoint>
          <Trackpoint>
            <Time>2022-09-24T14:31:52.000Z</Time>
            <Position>
              <LatitudeDegrees>43.24532945640385150909423828125</LatitudeDegrees>
              <LongitudeDegrees>-2.88121174089610576629638671875</LongitudeDegrees>
            </Position>
            <AltitudeMeters>-11.6000003814697265625</AltitudeMeters>
            <DistanceMeters>NAN</DistanceMeters>
          </Trackpoint>
          <Trackpoint>
            <Time>2022-09-24T14:31:53.000Z</Time>
            <Position>
              <LatitudeDegrees>43.245311267673969268798828125</LatitudeDegrees>
              <LongitudeDegrees>-2.88108970038592815399169921875</LongitudeDegrees>
            </Position>
            <AltitudeMeters>-11.6000003814697265625</AltitudeMeters>
            <DistanceMeters>NAN</DistanceMeters>
          </Trackpoint>
          <Trackpoint>
            <Time>2022-09-24T14:31:54.000Z</Time>
            <Position>
              <LatitudeDegrees>43.24528989382088184356689453125</LatitudeDegrees>
              <LongitudeDegrees>-2.88097000680863857269287109375</LongitudeDegrees>
            </Position>
            <AltitudeMeters>-11.6000003814697265625</AltitudeMeters>
            <DistanceMeters>NAN</DistanceMeters>
          </Trackpoint>
          <Trackpoint>
            <Time>2022-09-24T14:31:55.000Z</Time>
            <Position>
              <LatitudeDegrees>43.2452641613781452178955078125</LatitudeDegrees>
              <LongitudeDegrees>-2.88085131905972957611083984375</LongitudeDegrees>
            </Position>
            <AltitudeMeters>-11.80000019073486328125</AltitudeMeters>
            <DistanceMeters>NAN</DistanceMeters>
          </Trackpoint>
          <Trackpoint>
            <Time>2022-09-24T14:31:56.000Z</Time>
            <Position>
              <LatitudeDegrees>43.2452349923551082611083984375</LatitudeDegrees>
              <LongitudeDegrees>-2.880732379853725433349609375</LongitudeDegrees>
            </Position>
            <AltitudeMeters>-11.80000019073486328125</AltitudeMeters>
            <DistanceMeters>NAN</DistanceMeters>
          </Trackpoint>
          <Trackpoint>
            <Time>2022-09-24T14:31:57.000Z</Time>
            <Position>
              <LatitudeDegrees>43.24520423077046871185302734375</LatitudeDegrees>
              <LongitudeDegrees>-2.88061461411416530609130859375</LongitudeDegrees>
            </Position>
            <AltitudeMeters>-11.80000019073486328125</AltitudeMeters>
            <DistanceMeters>NAN</DistanceMeters>
          </Trackpoint>
          <Trackpoint>
            <Time>2022-09-24T14:31:58.000Z</Time>
            <Position>
              <LatitudeDegrees>43.24517539702355861663818359375</LatitudeDegrees>
              <LongitudeDegrees>-2.88049609400331974029541015625</LongitudeDegrees>
            </Position>
            <AltitudeMeters>-11.80000019073486328125</AltitudeMeters>
            <DistanceMeters>NAN</DistanceMeters>
          </Trackpoint>
          <Trackpoint>
            <Time>2022-09-24T14:31:59.000Z</Time>
            <Position>
              <LatitudeDegrees>43.2451437972486019134521484375</LatitudeDegrees>
              <LongitudeDegrees>-2.88038092665374279022216796875</LongitudeDegrees>
            </Position>
            <AltitudeMeters>-11.3999996185302734375</AltitudeMeters>
            <DistanceMeters>NAN</DistanceMeters>
          </Trackpoint>
          <Trackpoint>
            <Time>2022-09-24T14:32:00.000Z</Time>
            <Position>
              <LatitudeDegrees>43.24509861879050731658935546875</LatitudeDegrees>
              <LongitudeDegrees>-2.8802463971078395843505859375</LongitudeDegrees>
            </Position>
            <AltitudeMeters>-11.3999996185302734375</AltitudeMeters>
            <DistanceMeters>NAN</DistanceMeters>
          </Trackpoint>
          <Trackpoint>
            <Time>2022-09-24T14:32:01.000Z</Time>
            <Position>
              <LatitudeDegrees>43.2450656779110431671142578125</LatitudeDegrees>
              <LongitudeDegrees>-2.8801578842103481292724609375</LongitudeDegrees>
            </Position>
            <AltitudeMeters>-11.19999980926513671875</AltitudeMeters>
            <DistanceMeters>NAN</DistanceMeters>
          </Trackpoint>
          <Trackpoint>
            <Time>2022-09-24T14:32:02.000Z</Time>
            <Position>
              <LatitudeDegrees>43.24502485804259777069091796875</LatitudeDegrees>
              <LongitudeDegrees>-2.8800455667078495025634765625</LongitudeDegrees>
            </Position>
            <AltitudeMeters>-11.19999980926513671875</AltitudeMeters>
            <DistanceMeters>NAN</DistanceMeters>
          </Trackpoint>
          <Trackpoint>
            <Time>2022-09-24T14:32:03.000Z</Time>
            <Position>
              <LatitudeDegrees>43.24498127214610576629638671875</LatitudeDegrees>
              <LongitudeDegrees>-2.87993500940501689910888671875</LongitudeDegrees>
            </Position>
            <AltitudeMeters>-11.19999980926513671875</AltitudeMeters>
            <DistanceMeters>NAN</DistanceMeters>
          </Trackpoint>
          <Trackpoint>
            <Time>2022-09-24T14:32:04.000Z</Time>
            <Position>
              <LatitudeDegrees>43.24492779560387134552001953125</LatitudeDegrees>
              <LongitudeDegrees>-2.8798279725015163421630859375</LongitudeDegrees>
            </Position>
            <AltitudeMeters>-10.6000003814697265625</AltitudeMeters>
            <DistanceMeters>NAN</DistanceMeters>
          </Trackpoint>
          <Trackpoint>
            <Time>2022-09-24T14:32:05.000Z</Time>
            <Position>
              <LatitudeDegrees>43.24487733654677867889404296875</LatitudeDegrees>
              <LongitudeDegrees>-2.879721857607364654541015625</LongitudeDegrees>
            </Position>
            <AltitudeMeters>-10.6000003814697265625</AltitudeMeters>
            <DistanceMeters>NAN</DistanceMeters>
          </Trackpoint>
          <Trackpoint>
            <Time>2022-09-24T14:32:06.000Z</Time>
            <Position>
              <LatitudeDegrees>43.24482536874711513519287109375</LatitudeDegrees>
              <LongitudeDegrees>-2.87961817346513271331787109375</LongitudeDegrees>
            </Position>
            <AltitudeMeters>-10.6000003814697265625</AltitudeMeters>
            <DistanceMeters>NAN</DistanceMeters>
          </Trackpoint>
          <Trackpoint>
            <Time>2022-09-24T14:32:07.000Z</Time>
            <Position>
              <LatitudeDegrees>43.244771473109722137451171875</LatitudeDegrees>
              <LongitudeDegrees>-2.87951507605612277984619140625</LongitudeDegrees>
            </Position>
            <AltitudeMeters>-10.6000003814697265625</AltitudeMeters>
            <DistanceMeters>NAN</DistanceMeters>
          </Trackpoint>
          <Trackpoint>
            <Time>2022-09-24T14:32:08.000Z</Time>
            <Position>
              <LatitudeDegrees>43.2447136379778385162353515625</LatitudeDegrees>
              <LongitudeDegrees>-2.8794149123132228851318359375</LongitudeDegrees>
            </Position>
            <AltitudeMeters>-10.3999996185302734375</AltitudeMeters>
            <DistanceMeters>NAN</DistanceMeters>
          </Trackpoint>
          <Trackpoint>
            <Time>2022-09-24T14:32:09.000Z</Time>
            <Position>
              <LatitudeDegrees>43.24464230798184871673583984375</LatitudeDegrees>
              <LongitudeDegrees>-2.879296056926250457763671875</LongitudeDegrees>
            </Position>
            <AltitudeMeters>-10.3999996185302734375</AltitudeMeters>
            <DistanceMeters>NAN</DistanceMeters>
          </Trackpoint>
          <Trackpoint>
            <Time>2022-09-24T14:32:10.000Z</Time>
            <Position>
              <LatitudeDegrees>43.24458296410739421844482421875</LatitudeDegrees>
              <LongitudeDegrees>-2.879196815192699432373046875</LongitudeDegrees>
            </Position>
            <AltitudeMeters>-10.19999980926513671875</AltitudeMeters>
            <DistanceMeters>NAN</DistanceMeters>
          </Trackpoint>
          <Trackpoint>
            <Time>2022-09-24T14:32:11.000Z</Time>
            <Position>
              <LatitudeDegrees>43.24453401379287242889404296875</LatitudeDegrees>
              <LongitudeDegrees>-2.8791175223886966705322265625</LongitudeDegrees>
            </Position>
            <AltitudeMeters>-10.3999996185302734375</AltitudeMeters>
            <DistanceMeters>NAN</DistanceMeters>
          </Trackpoint>
          <Trackpoint>
            <Time>2022-09-24T14:32:12.000Z</Time>
            <Position>
              <LatitudeDegrees>43.2444745860993862152099609375</LatitudeDegrees>
              <LongitudeDegrees>-2.87902121432125568389892578125</LongitudeDegrees>
            </Position>
            <AltitudeMeters>-10.3999996185302734375</AltitudeMeters>
            <DistanceMeters>NAN</DistanceMeters>
          </Trackpoint>
          <Trackpoint>
            <Time>2022-09-24T14:32:13.000Z</Time>
            <Position>
              <LatitudeDegrees>43.24440308846533298492431640625</LatitudeDegrees>
              <LongitudeDegrees>-2.87890638224780559539794921875</LongitudeDegrees>
            </Position>
            <AltitudeMeters>-10.80000019073486328125</AltitudeMeters>
            <DistanceMeters>NAN</DistanceMeters>
          </Trackpoint>
          <Trackpoint>
            <Time>2022-09-24T14:32:14.000Z</Time>
            <Position>
              <LatitudeDegrees>43.24435405433177947998046875</LatitudeDegrees>
              <LongitudeDegrees>-2.87883010692894458770751953125</LongitudeDegrees>
            </Position>
            <AltitudeMeters>-11</AltitudeMeters>
            <DistanceMeters>NAN</DistanceMeters>
          </Trackpoint>
          <Trackpoint>
            <Time>2022-09-24T14:32:15.000Z</Time>
            <Position>
              <LatitudeDegrees>43.24428389780223369598388671875</LatitudeDegrees>
              <LongitudeDegrees>-2.8787141852080821990966796875</LongitudeDegrees>
            </Position>
            <AltitudeMeters>-11.3999996185302734375</AltitudeMeters>
            <DistanceMeters>NAN</DistanceMeters>
          </Trackpoint>
          <Trackpoint>
            <Time>2022-09-24T14:32:16.000Z</Time>
            <Position>
              <LatitudeDegrees>43.24422321282327175140380859375</LatitudeDegrees>
              <LongitudeDegrees>-2.87861687131226062774658203125</LongitudeDegrees>
            </Position>
            <AltitudeMeters>-11</AltitudeMeters>
            <DistanceMeters>NAN</DistanceMeters>
          </Trackpoint>
          <Trackpoint>
            <Time>2022-09-24T14:32:17.000Z</Time>
            <Position>
              <LatitudeDegrees>43.24417359195649623870849609375</LatitudeDegrees>
              <LongitudeDegrees>-2.87853841669857501983642578125</LongitudeDegrees>
            </Position>
            <AltitudeMeters>-11.19999980926513671875</AltitudeMeters>
            <DistanceMeters>NAN</DistanceMeters>
          </Trackpoint>
          <Trackpoint>
            <Time>2022-09-24T14:32:18.000Z</Time>
            <Position>
              <LatitudeDegrees>43.24411206878721714019775390625</LatitudeDegrees>
              <LongitudeDegrees>-2.87843984551727771759033203125</LongitudeDegrees>
            </Position>
            <AltitudeMeters>-11.19999980926513671875</AltitudeMeters>
            <DistanceMeters>NAN</DistanceMeters>
          </Trackpoint>
          <Trackpoint>
            <Time>2022-09-24T14:32:19.000Z</Time>
            <Position>
              <LatitudeDegrees>43.24405272491276264190673828125</LatitudeDegrees>
              <LongitudeDegrees>-2.878341190516948699951171875</LongitudeDegrees>
            </Position>
            <AltitudeMeters>-11.19999980926513671875</AltitudeMeters>
            <DistanceMeters>NAN</DistanceMeters>
          </Trackpoint>
          <Trackpoint>
            <Time>2022-09-24T14:32:20.000Z</Time>
            <Position>
              <LatitudeDegrees>43.24399505741894245147705078125</LatitudeDegrees>
              <LongitudeDegrees>-2.878241948783397674560546875</LongitudeDegrees>
            </Position>
            <AltitudeMeters>-11.19999980926513671875</AltitudeMeters>
            <DistanceMeters>NAN</DistanceMeters>
          </Trackpoint>
          <Trackpoint>
            <Time>2022-09-24T14:32:21.000Z</Time>
            <Position>
              <LatitudeDegrees>43.24393504299223423004150390625</LatitudeDegrees>
              <LongitudeDegrees>-2.87814597599208354949951171875</LongitudeDegrees>
            </Position>
            <AltitudeMeters>-11.19999980926513671875</AltitudeMeters>
            <DistanceMeters>NAN</DistanceMeters>
          </Trackpoint>
          <Trackpoint>
            <Time>2022-09-24T14:32:22.000Z</Time>
            <Position>
              <LatitudeDegrees>43.24387385509908199310302734375</LatitudeDegrees>
              <LongitudeDegrees>-2.87804790772497653961181640625</LongitudeDegrees>
            </Position>
            <AltitudeMeters>-11.19999980926513671875</AltitudeMeters>
            <DistanceMeters>NAN</DistanceMeters>
          </Trackpoint>
          <Trackpoint>
            <Time>2022-09-24T14:32:23.000Z</Time>
            <Position>
              <LatitudeDegrees>43.2438003458082675933837890625</LatitudeDegrees>
              <LongitudeDegrees>-2.8779333271086215972900390625</LongitudeDegrees>
            </Position>
            <AltitudeMeters>-11.6000003814697265625</AltitudeMeters>
            <DistanceMeters>NAN</DistanceMeters>
          </Trackpoint>
          <Trackpoint>
            <Time>2022-09-24T14:32:24.000Z</Time>
            <Position>
              <LatitudeDegrees>43.24374561198055744171142578125</LatitudeDegrees>
              <LongitudeDegrees>-2.87785378284752368927001953125</LongitudeDegrees>
            </Position>
            <AltitudeMeters>-12.6000003814697265625</AltitudeMeters>
            <DistanceMeters>NAN</DistanceMeters>
          </Trackpoint>
          <Trackpoint>
            <Time>2022-09-24T14:32:25.000Z</Time>
            <Position>
              <LatitudeDegrees>43.24367922730743885040283203125</LatitudeDegrees>
              <LongitudeDegrees>-2.87775336764752864837646484375</LongitudeDegrees>
            </Position>
            <AltitudeMeters>-12.6000003814697265625</AltitudeMeters>
            <DistanceMeters>NAN</DistanceMeters>
          </Trackpoint>
          <Trackpoint>
            <Time>2022-09-24T14:32:26.000Z</Time>
            <Position>
              <LatitudeDegrees>43.24360932223498821258544921875</LatitudeDegrees>
              <LongitudeDegrees>-2.877637110650539398193359375</LongitudeDegrees>
            </Position>
            <AltitudeMeters>-12.6000003814697265625</AltitudeMeters>
            <DistanceMeters>NAN</DistanceMeters>
          </Trackpoint>
          <Trackpoint>
            <Time>2022-09-24T14:32:27.000Z</Time>
            <Position>
              <LatitudeDegrees>43.24356305412948131561279296875</LatitudeDegrees>
              <LongitudeDegrees>-2.877559997141361236572265625</LongitudeDegrees>
            </Position>
            <AltitudeMeters>-12.80000019073486328125</AltitudeMeters>
            <DistanceMeters>NAN</DistanceMeters>
          </Trackpoint>
          <Trackpoint>
            <Time>2022-09-24T14:32:28.000Z</Time>
            <Position>
              <LatitudeDegrees>43.2434939034283161163330078125</LatitudeDegrees>
              <LongitudeDegrees>-2.8774416446685791015625</LongitudeDegrees>
            </Position>
            <AltitudeMeters>-12.6000003814697265625</AltitudeMeters>
            <DistanceMeters>NAN</DistanceMeters>
          </Trackpoint>
          <Trackpoint>
            <Time>2022-09-24T14:32:29.000Z</Time>
            <Position>
              <LatitudeDegrees>43.24344755150377750396728515625</LatitudeDegrees>
              <LongitudeDegrees>-2.877364195883274078369140625</LongitudeDegrees>
            </Position>
            <AltitudeMeters>-12.80000019073486328125</AltitudeMeters>
            <DistanceMeters>NAN</DistanceMeters>
          </Trackpoint>
          <Trackpoint>
            <Time>2022-09-24T14:32:30.000Z</Time>
            <Position>
              <LatitudeDegrees>43.243389129638671875</LatitudeDegrees>
              <LongitudeDegrees>-2.87726855836808681488037109375</LongitudeDegrees>
            </Position>
            <AltitudeMeters>-12</AltitudeMeters>
            <DistanceMeters>NAN</DistanceMeters>
          </Trackpoint>
          <Trackpoint>
            <Time>2022-09-24T14:32:31.000Z</Time>
            <Position>
              <LatitudeDegrees>43.24333154596388339996337890625</LatitudeDegrees>
              <LongitudeDegrees>-2.8771732561290264129638671875</LongitudeDegrees>
            </Position>
            <AltitudeMeters>-12</AltitudeMeters>
            <DistanceMeters>NAN</DistanceMeters>
          </Trackpoint>
          <Trackpoint>
            <Time>2022-09-24T14:32:32.000Z</Time>
            <Position>
              <LatitudeDegrees>43.2432729564607143402099609375</LatitudeDegrees>
              <LongitudeDegrees>-2.87707879208028316497802734375</LongitudeDegrees>
            </Position>
            <AltitudeMeters>-12</AltitudeMeters>
            <DistanceMeters>NAN</DistanceMeters>
          </Trackpoint>
          <Trackpoint>
            <Time>2022-09-24T14:32:33.000Z</Time>
            <Position>
              <LatitudeDegrees>43.2432062365114688873291015625</LatitudeDegrees>
              <LongitudeDegrees>-2.87696362473070621490478515625</LongitudeDegrees>
            </Position>
            <AltitudeMeters>-13.3999996185302734375</AltitudeMeters>
            <DistanceMeters>NAN</DistanceMeters>
          </Trackpoint>
          <Trackpoint>
            <Time>2022-09-24T14:32:34.000Z</Time>
            <Position>
              <LatitudeDegrees>43.24316105805337429046630859375</LatitudeDegrees>
              <LongitudeDegrees>-2.87688785232603549957275390625</LongitudeDegrees>
            </Position>
            <AltitudeMeters>-13.3999996185302734375</AltitudeMeters>
            <DistanceMeters>NAN</DistanceMeters>
          </Trackpoint>
          <Trackpoint>
            <Time>2022-09-24T14:32:35.000Z</Time>
            <Position>
              <LatitudeDegrees>43.24310339055955410003662109375</LatitudeDegrees>
              <LongitudeDegrees>-2.876792885363101959228515625</LongitudeDegrees>
            </Position>
            <AltitudeMeters>-13.6000003814697265625</AltitudeMeters>
            <DistanceMeters>NAN</DistanceMeters>
          </Trackpoint>
          <Trackpoint>
            <Time>2022-09-24T14:32:36.000Z</Time>
            <Position>
              <LatitudeDegrees>43.243046812713146209716796875</LatitudeDegrees>
              <LongitudeDegrees>-2.8766991756856441497802734375</LongitudeDegrees>
            </Position>
            <AltitudeMeters>-13.6000003814697265625</AltitudeMeters>
            <DistanceMeters>NAN</DistanceMeters>
          </Trackpoint>
          <Trackpoint>
            <Time>2022-09-24T14:32:37.000Z</Time>
            <Position>
              <LatitudeDegrees>43.24298721738159656524658203125</LatitudeDegrees>
              <LongitudeDegrees>-2.8766034543514251708984375</LongitudeDegrees>
            </Position>
            <AltitudeMeters>-14.19999980926513671875</AltitudeMeters>
            <DistanceMeters>NAN</DistanceMeters>
          </Trackpoint>
          <Trackpoint>
            <Time>2022-09-24T14:32:38.000Z</Time>
            <Position>
              <LatitudeDegrees>43.24292837642133235931396484375</LatitudeDegrees>
              <LongitudeDegrees>-2.87650798447430133819580078125</LongitudeDegrees>
            </Position>
            <AltitudeMeters>-14.19999980926513671875</AltitudeMeters>
            <DistanceMeters>NAN</DistanceMeters>
          </Trackpoint>
          <Trackpoint>
            <Time>2022-09-24T14:32:39.000Z</Time>
            <Position>
              <LatitudeDegrees>43.2428674399852752685546875</LatitudeDegrees>
              <LongitudeDegrees>-2.87641494534909725189208984375</LongitudeDegrees>
            </Position>
            <AltitudeMeters>-14.19999980926513671875</AltitudeMeters>
            <DistanceMeters>NAN</DistanceMeters>
          </Trackpoint>
          <Trackpoint>
            <Time>2022-09-24T14:32:40.000Z</Time>
            <Position>
              <LatitudeDegrees>43.2427901588380336761474609375</LatitudeDegrees>
              <LongitudeDegrees>-2.8763072378933429718017578125</LongitudeDegrees>
            </Position>
            <AltitudeMeters>-13.6000003814697265625</AltitudeMeters>
            <DistanceMeters>NAN</DistanceMeters>
          </Trackpoint>
          <Trackpoint>
            <Time>2022-09-24T14:32:41.000Z</Time>
            <Position>
              <LatitudeDegrees>43.2427237741649150848388671875</LatitudeDegrees>
              <LongitudeDegrees>-2.876220904290676116943359375</LongitudeDegrees>
            </Position>
            <AltitudeMeters>-13.6000003814697265625</AltitudeMeters>
            <DistanceMeters>NAN</DistanceMeters>
          </Trackpoint>
          <Trackpoint>
            <Time>2022-09-24T14:32:42.000Z</Time>
            <Position>
              <LatitudeDegrees>43.24265412054955959320068359375</LatitudeDegrees>
              <LongitudeDegrees>-2.87613582797348499298095703125</LongitudeDegrees>
            </Position>
            <AltitudeMeters>-13.6000003814697265625</AltitudeMeters>
            <DistanceMeters>NAN</DistanceMeters>
          </Trackpoint>
          <Trackpoint>
            <Time>2022-09-24T14:32:43.000Z</Time>
            <Position>
              <LatitudeDegrees>43.24258136563003063201904296875</LatitudeDegrees>
              <LongitudeDegrees>-2.87605402059853076934814453125</LongitudeDegrees>
            </Position>
            <AltitudeMeters>-13.6000003814697265625</AltitudeMeters>
            <DistanceMeters>NAN</DistanceMeters>
          </Trackpoint>
          <Trackpoint>
            <Time>2022-09-24T14:32:44.000Z</Time>
            <Position>
              <LatitudeDegrees>43.24250425212085247039794921875</LatitudeDegrees>
              <LongitudeDegrees>-2.87597439251840114593505859375</LongitudeDegrees>
            </Position>
            <AltitudeMeters>-13.6000003814697265625</AltitudeMeters>
            <DistanceMeters>NAN</DistanceMeters>
          </Trackpoint>
          <Trackpoint>
            <Time>2022-09-24T14:32:45.000Z</Time>
            <Position>
              <LatitudeDegrees>43.2424283958971500396728515625</LatitudeDegrees>
              <LongitudeDegrees>-2.8758992068469524383544921875</LongitudeDegrees>
            </Position>
            <AltitudeMeters>-13.6000003814697265625</AltitudeMeters>
            <DistanceMeters>NAN</DistanceMeters>
          </Trackpoint>
          <Trackpoint>
            <Time>2022-09-24T14:32:46.000Z</Time>
            <Position>
              <LatitudeDegrees>43.24236712418496608734130859375</LatitudeDegrees>
              <LongitudeDegrees>-2.87584061734378337860107421875</LongitudeDegrees>
            </Position>
            <AltitudeMeters>-13.6000003814697265625</AltitudeMeters>
            <DistanceMeters>NAN</DistanceMeters>
          </Trackpoint>
          <Trackpoint>
            <Time>2022-09-24T14:32:47.000Z</Time>
            <Position>
              <LatitudeDegrees>43.242289088666439056396484375</LatitudeDegrees>
              <LongitudeDegrees>-2.87576752714812755584716796875</LongitudeDegrees>
            </Position>
            <AltitudeMeters>-13.80000019073486328125</AltitudeMeters>
            <DistanceMeters>NAN</DistanceMeters>
          </Trackpoint>
          <Trackpoint>
            <Time>2022-09-24T14:32:48.000Z</Time>
            <Position>
              <LatitudeDegrees>43.24219646863639354705810546875</LatitudeDegrees>
              <LongitudeDegrees>-2.87568119354546070098876953125</LongitudeDegrees>
            </Position>
            <AltitudeMeters>-14.19999980926513671875</AltitudeMeters>
            <DistanceMeters>NAN</DistanceMeters>
          </Trackpoint>
          <Trackpoint>
            <Time>2022-09-24T14:32:49.000Z</Time>
            <Position>
              <LatitudeDegrees>43.242120444774627685546875</LatitudeDegrees>
              <LongitudeDegrees>-2.875609360635280609130859375</LongitudeDegrees>
            </Position>
            <AltitudeMeters>-14.19999980926513671875</AltitudeMeters>
            <DistanceMeters>NAN</DistanceMeters>
          </Trackpoint>
          <Trackpoint>
            <Time>2022-09-24T14:32:50.000Z</Time>
            <Position>
              <LatitudeDegrees>43.2420445047318935394287109375</LatitudeDegrees>
              <LongitudeDegrees>-2.875537611544132232666015625</LongitudeDegrees>
            </Position>
            <AltitudeMeters>-14.6000003814697265625</AltitudeMeters>
            <DistanceMeters>NAN</DistanceMeters>
          </Trackpoint>
          <Trackpoint>
            <Time>2022-09-24T14:32:51.000Z</Time>
            <Position>
              <LatitudeDegrees>43.2419673912227153778076171875</LatitudeDegrees>
              <LongitudeDegrees>-2.875467203557491302490234375</LongitudeDegrees>
            </Position>
            <AltitudeMeters>-14.6000003814697265625</AltitudeMeters>
            <DistanceMeters>NAN</DistanceMeters>
          </Trackpoint>
          <Trackpoint>
            <Time>2022-09-24T14:32:52.000Z</Time>
            <Position>
              <LatitudeDegrees>43.24189086444675922393798828125</LatitudeDegrees>
              <LongitudeDegrees>-2.8753956221044063568115234375</LongitudeDegrees>
            </Position>
            <AltitudeMeters>-14.6000003814697265625</AltitudeMeters>
            <DistanceMeters>NAN</DistanceMeters>
          </Trackpoint>
          <Trackpoint>
            <Time>2022-09-24T14:32:53.000Z</Time>
            <Position>
              <LatitudeDegrees>43.241830766201019287109375</LatitudeDegrees>
              <LongitudeDegrees>-2.87533937953412532806396484375</LongitudeDegrees>
            </Position>
            <AltitudeMeters>-14.19999980926513671875</AltitudeMeters>
            <DistanceMeters>NAN</DistanceMeters>
          </Trackpoint>
          <Trackpoint>
            <Time>2022-09-24T14:32:54.000Z</Time>
            <Position>
              <LatitudeDegrees>43.24174652807414531707763671875</LatitudeDegrees>
              <LongitudeDegrees>-2.8752543032169342041015625</LongitudeDegrees>
            </Position>
            <AltitudeMeters>-14</AltitudeMeters>
            <DistanceMeters>NAN</DistanceMeters>
          </Trackpoint>
          <Trackpoint>
            <Time>2022-09-24T14:32:55.000Z</Time>
            <Position>
              <LatitudeDegrees>43.24168902821838855743408203125</LatitudeDegrees>
              <LongitudeDegrees>-2.87519864737987518310546875</LongitudeDegrees>
            </Position>
            <AltitudeMeters>-13.80000019073486328125</AltitudeMeters>
            <DistanceMeters>NAN</DistanceMeters>
          </Trackpoint>
          <Trackpoint>
            <Time>2022-09-24T14:32:56.000Z</Time>
            <Position>
              <LatitudeDegrees>43.24161895550787448883056640625</LatitudeDegrees>
              <LongitudeDegrees>-2.8751287423074245452880859375</LongitudeDegrees>
            </Position>
            <AltitudeMeters>-13.80000019073486328125</AltitudeMeters>
            <DistanceMeters>NAN</DistanceMeters>
          </Trackpoint>
          <Trackpoint>
            <Time>2022-09-24T14:32:57.000Z</Time>
            <Position>
              <LatitudeDegrees>43.24161895550787448883056640625</LatitudeDegrees>
              <LongitudeDegrees>-2.8751287423074245452880859375</LongitudeDegrees>
            </Position>
            <AltitudeMeters>-13.6000003814697265625</AltitudeMeters>
            <DistanceMeters>NAN</DistanceMeters>
          </Trackpoint>
          <Trackpoint>
            <Time>2022-09-24T14:32:58.000Z</Time>
            <Position>
              <LatitudeDegrees>43.24145567603409290313720703125</LatitudeDegrees>
              <LongitudeDegrees>-2.874973677098751068115234375</LongitudeDegrees>
            </Position>
            <AltitudeMeters>-13.6000003814697265625</AltitudeMeters>
            <DistanceMeters>NAN</DistanceMeters>
          </Trackpoint>
          <Trackpoint>
            <Time>2022-09-24T14:32:59.000Z</Time>
            <Position>
              <LatitudeDegrees>43.2413922250270843505859375</LatitudeDegrees>
              <LongitudeDegrees>-2.8749198652803897857666015625</LongitudeDegrees>
            </Position>
            <AltitudeMeters>-13.6000003814697265625</AltitudeMeters>
            <DistanceMeters>NAN</DistanceMeters>
          </Trackpoint>
          <Trackpoint>
            <Time>2022-09-24T14:33:00.000Z</Time>
            <Position>
              <LatitudeDegrees>43.24131519533693790435791015625</LatitudeDegrees>
              <LongitudeDegrees>-2.87484836764633655548095703125</LongitudeDegrees>
            </Position>
            <AltitudeMeters>-13.6000003814697265625</AltitudeMeters>
            <DistanceMeters>NAN</DistanceMeters>
          </Trackpoint>
          <Trackpoint>
            <Time>2022-09-24T14:33:01.000Z</Time>
            <Position>
              <LatitudeDegrees>43.24123824946582317352294921875</LatitudeDegrees>
              <LongitudeDegrees>-2.8747760318219661712646484375</LongitudeDegrees>
            </Position>
            <AltitudeMeters>-13.6000003814697265625</AltitudeMeters>
            <DistanceMeters>NAN</DistanceMeters>
          </Trackpoint>
          <Trackpoint>
            <Time>2022-09-24T14:33:02.000Z</Time>
            <Position>
              <LatitudeDegrees>43.241163901984691619873046875</LatitudeDegrees>
              <LongitudeDegrees>-2.8747073002159595489501953125</LongitudeDegrees>
            </Position>
            <AltitudeMeters>-13.6000003814697265625</AltitudeMeters>
            <DistanceMeters>NAN</DistanceMeters>
          </Trackpoint>
          <Trackpoint>
            <Time>2022-09-24T14:33:03.000Z</Time>
            <Position>
              <LatitudeDegrees>43.24108938686549663543701171875</LatitudeDegrees>
              <LongitudeDegrees>-2.8746355511248111724853515625</LongitudeDegrees>
            </Position>
            <AltitudeMeters>-13.6000003814697265625</AltitudeMeters>
            <DistanceMeters>NAN</DistanceMeters>
          </Trackpoint>
          <Trackpoint>
            <Time>2022-09-24T14:33:04.000Z</Time>
            <Position>
              <LatitudeDegrees>43.2410148717463016510009765625</LatitudeDegrees>
              <LongitudeDegrees>-2.8745634667575359344482421875</LongitudeDegrees>
            </Position>
            <AltitudeMeters>-13.6000003814697265625</AltitudeMeters>
            <DistanceMeters>NAN</DistanceMeters>
          </Trackpoint>
          <Trackpoint>
            <Time>2022-09-24T14:33:05.000Z</Time>
            <Position>
              <LatitudeDegrees>43.24093968607485294342041015625</LatitudeDegrees>
              <LongitudeDegrees>-2.87449280731379985809326171875</LongitudeDegrees>
            </Position>
            <AltitudeMeters>-13.6000003814697265625</AltitudeMeters>
            <DistanceMeters>NAN</DistanceMeters>
          </Trackpoint>
          <Trackpoint>
            <Time>2022-09-24T14:33:06.000Z</Time>
            <Position>
              <LatitudeDegrees>43.24086475186049938201904296875</LatitudeDegrees>
              <LongitudeDegrees>-2.87442742846906185150146484375</LongitudeDegrees>
            </Position>
            <AltitudeMeters>-13.6000003814697265625</AltitudeMeters>
            <DistanceMeters>NAN</DistanceMeters>
          </Trackpoint>
          <Trackpoint>
            <Time>2022-09-24T14:33:07.000Z</Time>
            <Position>
              <LatitudeDegrees>43.240779675543308258056640625</LatitudeDegrees>
              <LongitudeDegrees>-2.87434897385537624359130859375</LongitudeDegrees>
            </Position>
            <AltitudeMeters>-13.6000003814697265625</AltitudeMeters>
            <DistanceMeters>NAN</DistanceMeters>
          </Trackpoint>
          <Trackpoint>
            <Time>2022-09-24T14:33:08.000Z</Time>
            <Position>
              <LatitudeDegrees>43.240713290870189666748046875</LatitudeDegrees>
              <LongitudeDegrees>-2.87428267300128936767578125</LongitudeDegrees>
            </Position>
            <AltitudeMeters>-13.6000003814697265625</AltitudeMeters>
            <DistanceMeters>NAN</DistanceMeters>
          </Trackpoint>
          <Trackpoint>
            <Time>2022-09-24T14:33:09.000Z</Time>
            <Position>
              <LatitudeDegrees>43.2406557910144329071044921875</LatitudeDegrees>
              <LongitudeDegrees>-2.87422592751681804656982421875</LongitudeDegrees>
            </Position>
            <AltitudeMeters>-13.80000019073486328125</AltitudeMeters>
            <DistanceMeters>NAN</DistanceMeters>
          </Trackpoint>
          <Trackpoint>
            <Time>2022-09-24T14:33:10.000Z</Time>
            <Position>
              <LatitudeDegrees>43.2405827008187770843505859375</LatitudeDegrees>
              <LongitudeDegrees>-2.87415702827274799346923828125</LongitudeDegrees>
            </Position>
            <AltitudeMeters>-13.6000003814697265625</AltitudeMeters>
            <DistanceMeters>NAN</DistanceMeters>
          </Trackpoint>
          <Trackpoint>
            <Time>2022-09-24T14:33:11.000Z</Time>
            <Position>
              <LatitudeDegrees>43.24051581323146820068359375</LatitudeDegrees>
              <LongitudeDegrees>-2.87409131415188312530517578125</LongitudeDegrees>
            </Position>
            <AltitudeMeters>-13.6000003814697265625</AltitudeMeters>
            <DistanceMeters>NAN</DistanceMeters>
          </Trackpoint>
          <Trackpoint>
            <Time>2022-09-24T14:33:12.000Z</Time>
            <Position>
              <LatitudeDegrees>43.24043266475200653076171875</LatitudeDegrees>
              <LongitudeDegrees>-2.87401386536657810211181640625</LongitudeDegrees>
            </Position>
            <AltitudeMeters>-13.3999996185302734375</AltitudeMeters>
            <DistanceMeters>NAN</DistanceMeters>
          </Trackpoint>
          <Trackpoint>
            <Time>2022-09-24T14:33:13.000Z</Time>
            <Position>
              <LatitudeDegrees>43.24037591926753520965576171875</LatitudeDegrees>
              <LongitudeDegrees>-2.87396005354821681976318359375</LongitudeDegrees>
            </Position>
            <AltitudeMeters>-13.3999996185302734375</AltitudeMeters>
            <DistanceMeters>NAN</DistanceMeters>
          </Trackpoint>
          <Trackpoint>
            <Time>2022-09-24T14:33:14.000Z</Time>
            <Position>
              <LatitudeDegrees>43.240291178226470947265625</LatitudeDegrees>
              <LongitudeDegrees>-2.87387958727777004241943359375</LongitudeDegrees>
            </Position>
            <AltitudeMeters>-13.3999996185302734375</AltitudeMeters>
            <DistanceMeters>NAN</DistanceMeters>
          </Trackpoint>
          <Trackpoint>
            <Time>2022-09-24T14:33:15.000Z</Time>
            <Position>
              <LatitudeDegrees>43.24023820459842681884765625</LatitudeDegrees>
              <LongitudeDegrees>-2.87382476963102817535400390625</LongitudeDegrees>
            </Position>
            <AltitudeMeters>-13.3999996185302734375</AltitudeMeters>
            <DistanceMeters>NAN</DistanceMeters>
          </Trackpoint>
          <Trackpoint>
            <Time>2022-09-24T14:33:16.000Z</Time>
            <Position>
              <LatitudeDegrees>43.2401713170111179351806640625</LatitudeDegrees>
              <LongitudeDegrees>-2.87375436164438724517822265625</LongitudeDegrees>
            </Position>
            <AltitudeMeters>-13.19999980926513671875</AltitudeMeters>
            <DistanceMeters>NAN</DistanceMeters>
          </Trackpoint>
          <Trackpoint>
            <Time>2022-09-24T14:33:17.000Z</Time>
            <Position>
              <LatitudeDegrees>43.240085653960704803466796875</LatitudeDegrees>
              <LongitudeDegrees>-2.873669452965259552001953125</LongitudeDegrees>
            </Position>
            <AltitudeMeters>-13.19999980926513671875</AltitudeMeters>
            <DistanceMeters>NAN</DistanceMeters>
          </Trackpoint>
          <Trackpoint>
            <Time>2022-09-24T14:33:18.000Z</Time>
            <Position>
              <LatitudeDegrees>43.24001197703182697296142578125</LatitudeDegrees>
              <LongitudeDegrees>-2.87360214628279209136962890625</LongitudeDegrees>
            </Position>
            <AltitudeMeters>-13</AltitudeMeters>
            <DistanceMeters>NAN</DistanceMeters>
          </Trackpoint>
          <Trackpoint>
            <Time>2022-09-24T14:33:19.000Z</Time>
            <Position>
              <LatitudeDegrees>43.2399530522525310516357421875</LatitudeDegrees>
              <LongitudeDegrees>-2.8735484182834625244140625</LongitudeDegrees>
            </Position>
            <AltitudeMeters>-12.80000019073486328125</AltitudeMeters>
            <DistanceMeters>NAN</DistanceMeters>
          </Trackpoint>
          <Trackpoint>
            <Time>2022-09-24T14:33:20.000Z</Time>
            <Position>
              <LatitudeDegrees>43.23988155461847782135009765625</LatitudeDegrees>
              <LongitudeDegrees>-2.873480021953582763671875</LongitudeDegrees>
            </Position>
            <AltitudeMeters>-12.80000019073486328125</AltitudeMeters>
            <DistanceMeters>NAN</DistanceMeters>
          </Trackpoint>
          <Trackpoint>
            <Time>2022-09-24T14:33:21.000Z</Time>
            <Position>
              <LatitudeDegrees>43.2398125715553760528564453125</LatitudeDegrees>
              <LongitudeDegrees>-2.873413302004337310791015625</LongitudeDegrees>
            </Position>
            <AltitudeMeters>-12.80000019073486328125</AltitudeMeters>
            <DistanceMeters>NAN</DistanceMeters>
          </Trackpoint>
          <Trackpoint>
            <Time>2022-09-24T14:33:22.000Z</Time>
            <Position>
              <LatitudeDegrees>43.2397418282926082611083984375</LatitudeDegrees>
              <LongitudeDegrees>-2.87334926426410675048828125</LongitudeDegrees>
            </Position>
            <AltitudeMeters>-12.80000019073486328125</AltitudeMeters>
            <DistanceMeters>NAN</DistanceMeters>
          </Trackpoint>
          <Trackpoint>
            <Time>2022-09-24T14:33:23.000Z</Time>
            <Position>
              <LatitudeDegrees>43.23966144584119319915771484375</LatitudeDegrees>
              <LongitudeDegrees>-2.873273156583309173583984375</LongitudeDegrees>
            </Position>
            <AltitudeMeters>-12.80000019073486328125</AltitudeMeters>
            <DistanceMeters>NAN</DistanceMeters>
          </Trackpoint>
          <Trackpoint>
            <Time>2022-09-24T14:33:24.000Z</Time>
            <Position>
              <LatitudeDegrees>43.23959221132099628448486328125</LatitudeDegrees>
              <LongitudeDegrees>-2.8732082806527614593505859375</LongitudeDegrees>
            </Position>
            <AltitudeMeters>-12.80000019073486328125</AltitudeMeters>
            <DistanceMeters>NAN</DistanceMeters>
          </Trackpoint>
          <Trackpoint>
            <Time>2022-09-24T14:33:25.000Z</Time>
            <Position>
              <LatitudeDegrees>43.23953823186457157135009765625</LatitudeDegrees>
              <LongitudeDegrees>-2.87315639667212963104248046875</LongitudeDegrees>
            </Position>
            <AltitudeMeters>-12.80000019073486328125</AltitudeMeters>
            <DistanceMeters>NAN</DistanceMeters>
          </Trackpoint>
          <Trackpoint>
            <Time>2022-09-24T14:33:26.000Z</Time>
            <Position>
              <LatitudeDegrees>43.23953823186457157135009765625</LatitudeDegrees>
              <LongitudeDegrees>-2.87315639667212963104248046875</LongitudeDegrees>
            </Position>
            <AltitudeMeters>-12.80000019073486328125</AltitudeMeters>
            <DistanceMeters>NAN</DistanceMeters>
          </Trackpoint>
          <Trackpoint>
            <Time>2022-09-24T14:33:27.000Z</Time>
            <Position>
              <LatitudeDegrees>43.2393874414265155792236328125</LatitudeDegrees>
              <LongitudeDegrees>-2.8730195201933383941650390625</LongitudeDegrees>
            </Position>
            <AltitudeMeters>-12.3999996185302734375</AltitudeMeters>
            <DistanceMeters>NAN</DistanceMeters>
          </Trackpoint>
          <Trackpoint>
            <Time>2022-09-24T14:33:28.000Z</Time>
            <Position>
              <LatitudeDegrees>43.2393874414265155792236328125</LatitudeDegrees>
              <LongitudeDegrees>-2.8730195201933383941650390625</LongitudeDegrees>
            </Position>
            <AltitudeMeters>-11.3999996185302734375</AltitudeMeters>
            <DistanceMeters>NAN</DistanceMeters>
          </Trackpoint>
          <Trackpoint>
            <Time>2022-09-24T14:33:29.000Z</Time>
            <Position>
              <LatitudeDegrees>43.2392617128789424896240234375</LatitudeDegrees>
              <LongitudeDegrees>-2.8729102201759815216064453125</LongitudeDegrees>
            </Position>
            <AltitudeMeters>-11.3999996185302734375</AltitudeMeters>
            <DistanceMeters>NAN</DistanceMeters>
          </Trackpoint>
          <Trackpoint>
            <Time>2022-09-24T14:33:30.000Z</Time>
            <Position>
              <LatitudeDegrees>43.23919323273003101348876953125</LatitudeDegrees>
              <LongitudeDegrees>-2.872846685349941253662109375</LongitudeDegrees>
            </Position>
            <AltitudeMeters>-11.3999996185302734375</AltitudeMeters>
            <DistanceMeters>NAN</DistanceMeters>
          </Trackpoint>
          <Trackpoint>
            <Time>2022-09-24T14:33:31.000Z</Time>
            <Position>
              <LatitudeDegrees>43.23919323273003101348876953125</LatitudeDegrees>
              <LongitudeDegrees>-2.872846685349941253662109375</LongitudeDegrees>
            </Position>
            <AltitudeMeters>-11.3999996185302734375</AltitudeMeters>
            <DistanceMeters>NAN</DistanceMeters>
          </Trackpoint>
          <Trackpoint>
            <Time>2022-09-24T14:33:32.000Z</Time>
            <Position>
              <LatitudeDegrees>43.23905266821384429931640625</LatitudeDegrees>
              <LongitudeDegrees>-2.87270419299602508544921875</LongitudeDegrees>
            </Position>
            <AltitudeMeters>-11.80000019073486328125</AltitudeMeters>
            <DistanceMeters>NAN</DistanceMeters>
          </Trackpoint>
          <Trackpoint>
            <Time>2022-09-24T14:33:33.000Z</Time>
            <Position>
              <LatitudeDegrees>43.23898988775908946990966796875</LatitudeDegrees>
              <LongitudeDegrees>-2.8726419992744922637939453125</LongitudeDegrees>
            </Position>
            <AltitudeMeters>-11.80000019073486328125</AltitudeMeters>
            <DistanceMeters>NAN</DistanceMeters>
          </Trackpoint>
          <Trackpoint>
            <Time>2022-09-24T14:33:34.000Z</Time>
            <Position>
              <LatitudeDegrees>43.23892668820917606353759765625</LatitudeDegrees>
              <LongitudeDegrees>-2.87258273921906948089599609375</LongitudeDegrees>
            </Position>
            <AltitudeMeters>-11.80000019073486328125</AltitudeMeters>
            <DistanceMeters>NAN</DistanceMeters>
          </Trackpoint>
          <Trackpoint>
            <Time>2022-09-24T14:33:35.000Z</Time>
            <Position>
              <LatitudeDegrees>43.23892668820917606353759765625</LatitudeDegrees>
              <LongitudeDegrees>-2.87258273921906948089599609375</LongitudeDegrees>
            </Position>
            <AltitudeMeters>-11.80000019073486328125</AltitudeMeters>
            <DistanceMeters>NAN</DistanceMeters>
          </Trackpoint>
          <Trackpoint>
            <Time>2022-09-24T14:33:36.000Z</Time>
            <Position>
              <LatitudeDegrees>43.2388003729283809661865234375</LatitudeDegrees>
              <LongitudeDegrees>-2.8724539093673229217529296875</LongitudeDegrees>
            </Position>
            <AltitudeMeters>-11.80000019073486328125</AltitudeMeters>
            <DistanceMeters>NAN</DistanceMeters>
          </Trackpoint>
          <Trackpoint>
            <Time>2022-09-24T14:33:37.000Z</Time>
            <Position>
              <LatitudeDegrees>43.23873616755008697509765625</LatitudeDegrees>
              <LongitudeDegrees>-2.87238928489387035369873046875</LongitudeDegrees>
            </Position>
            <AltitudeMeters>-11.3999996185302734375</AltitudeMeters>
            <DistanceMeters>NAN</DistanceMeters>
          </Trackpoint>
          <Trackpoint>
            <Time>2022-09-24T14:33:38.000Z</Time>
            <Position>
              <LatitudeDegrees>43.2386689446866512298583984375</LatitudeDegrees>
              <LongitudeDegrees>-2.8723226487636566162109375</LongitudeDegrees>
            </Position>
            <AltitudeMeters>-11.19999980926513671875</AltitudeMeters>
            <DistanceMeters>NAN</DistanceMeters>
          </Trackpoint>
          <Trackpoint>
            <Time>2022-09-24T14:33:39.000Z</Time>
            <Position>
              <LatitudeDegrees>43.23861278593540191650390625</LatitudeDegrees>
              <LongitudeDegrees>-2.8722671605646610260009765625</LongitudeDegrees>
            </Position>
            <AltitudeMeters>-11.19999980926513671875</AltitudeMeters>
            <DistanceMeters>NAN</DistanceMeters>
          </Trackpoint>
          <Trackpoint>
            <Time>2022-09-24T14:33:40.000Z</Time>
            <Position>
              <LatitudeDegrees>43.23854380287230014801025390625</LatitudeDegrees>
              <LongitudeDegrees>-2.87220270372927188873291015625</LongitudeDegrees>
            </Position>
            <AltitudeMeters>-11.19999980926513671875</AltitudeMeters>
            <DistanceMeters>NAN</DistanceMeters>
          </Trackpoint>
          <Trackpoint>
            <Time>2022-09-24T14:33:41.000Z</Time>
            <Position>
              <LatitudeDegrees>43.2384659349918365478515625</LatitudeDegrees>
              <LongitudeDegrees>-2.87212776951491832733154296875</LongitudeDegrees>
            </Position>
            <AltitudeMeters>-11.19999980926513671875</AltitudeMeters>
            <DistanceMeters>NAN</DistanceMeters>
          </Trackpoint>
          <Trackpoint>
            <Time>2022-09-24T14:33:42.000Z</Time>
            <Position>
              <LatitudeDegrees>43.23841757141053676605224609375</LatitudeDegrees>
              <LongitudeDegrees>-2.87207513116300106048583984375</LongitudeDegrees>
            </Position>
            <AltitudeMeters>-10.6000003814697265625</AltitudeMeters>
            <DistanceMeters>NAN</DistanceMeters>
          </Trackpoint>
          <Trackpoint>
            <Time>2022-09-24T14:33:43.000Z</Time>
            <Position>
              <LatitudeDegrees>43.23834146372973918914794921875</LatitudeDegrees>
              <LongitudeDegrees>-2.8719908930361270904541015625</LongitudeDegrees>
            </Position>
            <AltitudeMeters>-10.6000003814697265625</AltitudeMeters>
            <DistanceMeters>NAN</DistanceMeters>
          </Trackpoint>
          <Trackpoint>
            <Time>2022-09-24T14:33:44.000Z</Time>
            <Position>
              <LatitudeDegrees>43.23827474378049373626708984375</LatitudeDegrees>
              <LongitudeDegrees>-2.8719221614301204681396484375</LongitudeDegrees>
            </Position>
            <AltitudeMeters>-10.6000003814697265625</AltitudeMeters>
            <DistanceMeters>NAN</DistanceMeters>
          </Trackpoint>
          <Trackpoint>
            <Time>2022-09-24T14:33:45.000Z</Time>
            <Position>
              <LatitudeDegrees>43.23821791447699069976806640625</LatitudeDegrees>
              <LongitudeDegrees>-2.87186927162110805511474609375</LongitudeDegrees>
            </Position>
            <AltitudeMeters>-10.6000003814697265625</AltitudeMeters>
            <DistanceMeters>NAN</DistanceMeters>
          </Trackpoint>
          <Trackpoint>
            <Time>2022-09-24T14:33:46.000Z</Time>
            <Position>
              <LatitudeDegrees>43.2381328381597995758056640625</LatitudeDegrees>
              <LongitudeDegrees>-2.87178863771259784698486328125</LongitudeDegrees>
            </Position>
            <AltitudeMeters>-10.6000003814697265625</AltitudeMeters>
            <DistanceMeters>NAN</DistanceMeters>
          </Trackpoint>
          <Trackpoint>
            <Time>2022-09-24T14:33:47.000Z</Time>
            <Position>
              <LatitudeDegrees>43.238059915602207183837890625</LatitudeDegrees>
              <LongitudeDegrees>-2.8717183135449886322021484375</LongitudeDegrees>
            </Position>
            <AltitudeMeters>-10.6000003814697265625</AltitudeMeters>
            <DistanceMeters>NAN</DistanceMeters>
          </Trackpoint>
          <Trackpoint>
            <Time>2022-09-24T14:33:48.000Z</Time>
            <Position>
              <LatitudeDegrees>43.2379886694252490997314453125</LatitudeDegrees>
              <LongitudeDegrees>-2.87165150977671146392822265625</LongitudeDegrees>
            </Position>
            <AltitudeMeters>-10.3999996185302734375</AltitudeMeters>
            <DistanceMeters>NAN</DistanceMeters>
          </Trackpoint>
          <Trackpoint>
            <Time>2022-09-24T14:33:49.000Z</Time>
            <Position>
              <LatitudeDegrees>43.23793192394077777862548828125</LatitudeDegrees>
              <LongitudeDegrees>-2.87159803323447704315185546875</LongitudeDegrees>
            </Position>
            <AltitudeMeters>-10.3999996185302734375</AltitudeMeters>
            <DistanceMeters>NAN</DistanceMeters>
          </Trackpoint>
          <Trackpoint>
            <Time>2022-09-24T14:33:50.000Z</Time>
            <Position>
              <LatitudeDegrees>43.23793192394077777862548828125</LatitudeDegrees>
              <LongitudeDegrees>-2.87159803323447704315185546875</LongitudeDegrees>
            </Position>
            <AltitudeMeters>-10.3999996185302734375</AltitudeMeters>
            <DistanceMeters>NAN</DistanceMeters>
          </Trackpoint>
          <Trackpoint>
            <Time>2022-09-24T14:33:51.000Z</Time>
            <Position>
              <LatitudeDegrees>43.23778389953076839447021484375</LatitudeDegrees>
              <LongitudeDegrees>-2.871455289423465728759765625</LongitudeDegrees>
            </Position>
            <AltitudeMeters>-10.19999980926513671875</AltitudeMeters>
            <DistanceMeters>NAN</DistanceMeters>
          </Trackpoint>
          <Trackpoint>
            <Time>2022-09-24T14:33:52.000Z</Time>
            <Position>
              <LatitudeDegrees>43.23771885596215724945068359375</LatitudeDegrees>
              <LongitudeDegrees>-2.871392257511615753173828125</LongitudeDegrees>
            </Position>
            <AltitudeMeters>-10.19999980926513671875</AltitudeMeters>
            <DistanceMeters>NAN</DistanceMeters>
          </Trackpoint>
          <Trackpoint>
            <Time>2022-09-24T14:33:53.000Z</Time>
            <Position>
              <LatitudeDegrees>43.23764660395681858062744140625</LatitudeDegrees>
              <LongitudeDegrees>-2.8713250346481800079345703125</LongitudeDegrees>
            </Position>
            <AltitudeMeters>-10.19999980926513671875</AltitudeMeters>
            <DistanceMeters>NAN</DistanceMeters>
          </Trackpoint>
          <Trackpoint>
            <Time>2022-09-24T14:33:54.000Z</Time>
            <Position>
              <LatitudeDegrees>43.23759555816650390625</LatitudeDegrees>
              <LongitudeDegrees>-2.87127298302948474884033203125</LongitudeDegrees>
            </Position>
            <AltitudeMeters>-10.19999980926513671875</AltitudeMeters>
            <DistanceMeters>NAN</DistanceMeters>
          </Trackpoint>
          <Trackpoint>
            <Time>2022-09-24T14:33:55.000Z</Time>
            <Position>
              <LatitudeDegrees>43.2375139184296131134033203125</LatitudeDegrees>
              <LongitudeDegrees>-2.87119167856872081756591796875</LongitudeDegrees>
            </Position>
            <AltitudeMeters>-10.19999980926513671875</AltitudeMeters>
            <DistanceMeters>NAN</DistanceMeters>
          </Trackpoint>
          <Trackpoint>
            <Time>2022-09-24T14:33:56.000Z</Time>
            <Position>
              <LatitudeDegrees>43.23744510300457477569580078125</LatitudeDegrees>
              <LongitudeDegrees>-2.87112244404852390289306640625</LongitudeDegrees>
            </Position>
            <AltitudeMeters>-10.19999980926513671875</AltitudeMeters>
            <DistanceMeters>NAN</DistanceMeters>
          </Trackpoint>
          <Trackpoint>
            <Time>2022-09-24T14:33:57.000Z</Time>
            <Position>
              <LatitudeDegrees>43.23737452737987041473388671875</LatitudeDegrees>
              <LongitudeDegrees>-2.87105463445186614990234375</LongitudeDegrees>
            </Position>
            <AltitudeMeters>-10.19999980926513671875</AltitudeMeters>
            <DistanceMeters>NAN</DistanceMeters>
          </Trackpoint>
          <Trackpoint>
            <Time>2022-09-24T14:33:58.000Z</Time>
            <Position>
              <LatitudeDegrees>43.23731685988605022430419921875</LatitudeDegrees>
              <LongitudeDegrees>-2.87099973298609256744384765625</LongitudeDegrees>
            </Position>
            <AltitudeMeters>-10.19999980926513671875</AltitudeMeters>
            <DistanceMeters>NAN</DistanceMeters>
          </Trackpoint>
          <Trackpoint>
            <Time>2022-09-24T14:33:59.000Z</Time>
            <Position>
              <LatitudeDegrees>43.23724863119423389434814453125</LatitudeDegrees>
              <LongitudeDegrees>-2.87093267776072025299072265625</LongitudeDegrees>
            </Position>
            <AltitudeMeters>-10.3999996185302734375</AltitudeMeters>
            <DistanceMeters>NAN</DistanceMeters>
          </Trackpoint>
          <Trackpoint>
            <Time>2022-09-24T14:34:00.000Z</Time>
            <Position>
              <LatitudeDegrees>43.23724863119423389434814453125</LatitudeDegrees>
              <LongitudeDegrees>-2.87093267776072025299072265625</LongitudeDegrees>
            </Position>
            <AltitudeMeters>-10.3999996185302734375</AltitudeMeters>
            <DistanceMeters>NAN</DistanceMeters>
          </Trackpoint>
          <Trackpoint>
            <Time>2022-09-24T14:34:01.000Z</Time>
            <Position>
              <LatitudeDegrees>43.2371085695922374725341796875</LatitudeDegrees>
              <LongitudeDegrees>-2.87080024369060993194580078125</LongitudeDegrees>
            </Position>
            <AltitudeMeters>-10.3999996185302734375</AltitudeMeters>
            <DistanceMeters>NAN</DistanceMeters>
          </Trackpoint>
          <Trackpoint>
            <Time>2022-09-24T14:34:02.000Z</Time>
            <Position>
              <LatitudeDegrees>43.23703640140593051910400390625</LatitudeDegrees>
              <LongitudeDegrees>-2.87073612213134765625</LongitudeDegrees>
            </Position>
            <AltitudeMeters>-10.3999996185302734375</AltitudeMeters>
            <DistanceMeters>NAN</DistanceMeters>
          </Trackpoint>
          <Trackpoint>
            <Time>2022-09-24T14:34:03.000Z</Time>
            <Position>
              <LatitudeDegrees>43.23696465231478214263916015625</LatitudeDegrees>
              <LongitudeDegrees>-2.87067241966724395751953125</LongitudeDegrees>
            </Position>
            <AltitudeMeters>-10.19999980926513671875</AltitudeMeters>
            <DistanceMeters>NAN</DistanceMeters>
          </Trackpoint>
          <Trackpoint>
            <Time>2022-09-24T14:34:04.000Z</Time>
            <Position>
              <LatitudeDegrees>43.2368949986994266510009765625</LatitudeDegrees>
              <LongitudeDegrees>-2.87060695700347423553466796875</LongitudeDegrees>
            </Position>
            <AltitudeMeters>-10.19999980926513671875</AltitudeMeters>
            <DistanceMeters>NAN</DistanceMeters>
          </Trackpoint>
          <Trackpoint>
            <Time>2022-09-24T14:34:05.000Z</Time>
            <Position>
              <LatitudeDegrees>43.23682601563632488250732421875</LatitudeDegrees>
              <LongitudeDegrees>-2.87054342217743396759033203125</LongitudeDegrees>
            </Position>
            <AltitudeMeters>-10.19999980926513671875</AltitudeMeters>
            <DistanceMeters>NAN</DistanceMeters>
          </Trackpoint>
          <Trackpoint>
            <Time>2022-09-24T14:34:06.000Z</Time>
            <Position>
              <LatitudeDegrees>43.236753009259700775146484375</LatitudeDegrees>
              <LongitudeDegrees>-2.87048399448394775390625</LongitudeDegrees>
            </Position>
            <AltitudeMeters>-10.19999980926513671875</AltitudeMeters>
            <DistanceMeters>NAN</DistanceMeters>
          </Trackpoint>
          <Trackpoint>
            <Time>2022-09-24T14:34:07.000Z</Time>
            <Position>
              <LatitudeDegrees>43.23666843585669994354248046875</LatitudeDegrees>
              <LongitudeDegrees>-2.870409227907657623291015625</LongitudeDegrees>
            </Position>
            <AltitudeMeters>-10</AltitudeMeters>
            <DistanceMeters>NAN</DistanceMeters>
          </Trackpoint>
          <Trackpoint>
            <Time>2022-09-24T14:34:08.000Z</Time>
            <Position>
              <LatitudeDegrees>43.2365986146032810211181640625</LatitudeDegrees>
              <LongitudeDegrees>-2.87034879438579082489013671875</LongitudeDegrees>
            </Position>
            <AltitudeMeters>-9.80000019073486328125</AltitudeMeters>
            <DistanceMeters>NAN</DistanceMeters>
          </Trackpoint>
          <Trackpoint>
            <Time>2022-09-24T14:34:09.000Z</Time>
            <Position>
              <LatitudeDegrees>43.23654773645102977752685546875</LatitudeDegrees>
              <LongitudeDegrees>-2.87030084989964962005615234375</LongitudeDegrees>
            </Position>
            <AltitudeMeters>-9.6000003814697265625</AltitudeMeters>
            <DistanceMeters>NAN</DistanceMeters>
          </Trackpoint>
          <Trackpoint>
            <Time>2022-09-24T14:34:10.000Z</Time>
            <Position>
              <LatitudeDegrees>43.23646861128509044647216796875</LatitudeDegrees>
              <LongitudeDegrees>-2.87022943608462810516357421875</LongitudeDegrees>
            </Position>
            <AltitudeMeters>-9.6000003814697265625</AltitudeMeters>
            <DistanceMeters>NAN</DistanceMeters>
          </Trackpoint>
          <Trackpoint>
            <Time>2022-09-24T14:34:11.000Z</Time>
            <Position>
              <LatitudeDegrees>43.23646861128509044647216796875</LatitudeDegrees>
              <LongitudeDegrees>-2.87022943608462810516357421875</LongitudeDegrees>
            </Position>
            <AltitudeMeters>-9.6000003814697265625</AltitudeMeters>
            <DistanceMeters>NAN</DistanceMeters>
          </Trackpoint>
          <Trackpoint>
            <Time>2022-09-24T14:34:12.000Z</Time>
            <Position>
              <LatitudeDegrees>43.23632561601698398590087890625</LatitudeDegrees>
              <LongitudeDegrees>-2.8701126761734485626220703125</LongitudeDegrees>
            </Position>
            <AltitudeMeters>-9.6000003814697265625</AltitudeMeters>
            <DistanceMeters>NAN</DistanceMeters>
          </Trackpoint>
          <Trackpoint>
            <Time>2022-09-24T14:34:13.000Z</Time>
            <Position>
              <LatitudeDegrees>43.2362663559615612030029296875</LatitudeDegrees>
              <LongitudeDegrees>-2.87006749771535396575927734375</LongitudeDegrees>
            </Position>
            <AltitudeMeters>-9.6000003814697265625</AltitudeMeters>
            <DistanceMeters>NAN</DistanceMeters>
          </Trackpoint>
          <Trackpoint>
            <Time>2022-09-24T14:34:14.000Z</Time>
            <Position>
              <LatitudeDegrees>43.23619452305138111114501953125</LatitudeDegrees>
              <LongitudeDegrees>-2.8700117580592632293701171875</LongitudeDegrees>
            </Position>
            <AltitudeMeters>-9.19999980926513671875</AltitudeMeters>
            <DistanceMeters>NAN</DistanceMeters>
          </Trackpoint>
          <Trackpoint>
            <Time>2022-09-24T14:34:15.000Z</Time>
            <Position>
              <LatitudeDegrees>43.2361057586967945098876953125</LatitudeDegrees>
              <LongitudeDegrees>-2.869942523539066314697265625</LongitudeDegrees>
            </Position>
            <AltitudeMeters>-9.19999980926513671875</AltitudeMeters>
            <DistanceMeters>NAN</DistanceMeters>
          </Trackpoint>
          <Trackpoint>
            <Time>2022-09-24T14:34:16.000Z</Time>
            <Position>
              <LatitudeDegrees>43.23603250086307525634765625</LatitudeDegrees>
              <LongitudeDegrees>-2.8698845207691192626953125</LongitudeDegrees>
            </Position>
            <AltitudeMeters>-9.19999980926513671875</AltitudeMeters>
            <DistanceMeters>NAN</DistanceMeters>
          </Trackpoint>
          <Trackpoint>
            <Time>2022-09-24T14:34:17.000Z</Time>
            <Position>
              <LatitudeDegrees>43.2359780184924602508544921875</LatitudeDegrees>
              <LongitudeDegrees>-2.8698370791971683502197265625</LongitudeDegrees>
            </Position>
            <AltitudeMeters>-9.6000003814697265625</AltitudeMeters>
            <DistanceMeters>NAN</DistanceMeters>
          </Trackpoint>
          <Trackpoint>
            <Time>2022-09-24T14:34:18.000Z</Time>
            <Position>
              <LatitudeDegrees>43.23590853251516819000244140625</LatitudeDegrees>
              <LongitudeDegrees>-2.86977547220885753631591796875</LongitudeDegrees>
            </Position>
            <AltitudeMeters>-9.6000003814697265625</AltitudeMeters>
            <DistanceMeters>NAN</DistanceMeters>
          </Trackpoint>
          <Trackpoint>
            <Time>2022-09-24T14:34:19.000Z</Time>
            <Position>
              <LatitudeDegrees>43.23590853251516819000244140625</LatitudeDegrees>
              <LongitudeDegrees>-2.86977547220885753631591796875</LongitudeDegrees>
            </Position>
            <AltitudeMeters>-9.6000003814697265625</AltitudeMeters>
            <DistanceMeters>NAN</DistanceMeters>
          </Trackpoint>
          <Trackpoint>
            <Time>2022-09-24T14:34:20.000Z</Time>
            <Position>
              <LatitudeDegrees>43.2357714883983135223388671875</LatitudeDegrees>
              <LongitudeDegrees>-2.8696565330028533935546875</LongitudeDegrees>
            </Position>
            <AltitudeMeters>-10</AltitudeMeters>
            <DistanceMeters>NAN</DistanceMeters>
          </Trackpoint>
          <Trackpoint>
            <Time>2022-09-24T14:34:21.000Z</Time>
            <Position>
              <LatitudeDegrees>43.23570619337260723114013671875</LatitudeDegrees>
              <LongitudeDegrees>-2.869593836367130279541015625</LongitudeDegrees>
            </Position>
            <AltitudeMeters>-10</AltitudeMeters>
            <DistanceMeters>NAN</DistanceMeters>
          </Trackpoint>
          <Trackpoint>
            <Time>2022-09-24T14:34:22.000Z</Time>
            <Position>
              <LatitudeDegrees>43.2356434129178524017333984375</LatitudeDegrees>
              <LongitudeDegrees>-2.8695304691791534423828125</LongitudeDegrees>
            </Position>
            <AltitudeMeters>-10.19999980926513671875</AltitudeMeters>
            <DistanceMeters>NAN</DistanceMeters>
          </Trackpoint>
          <Trackpoint>
            <Time>2022-09-24T14:34:23.000Z</Time>
            <Position>
              <LatitudeDegrees>43.23557778261601924896240234375</LatitudeDegrees>
              <LongitudeDegrees>-2.86945763044059276580810546875</LongitudeDegrees>
            </Position>
            <AltitudeMeters>-10.3999996185302734375</AltitudeMeters>
            <DistanceMeters>NAN</DistanceMeters>
          </Trackpoint>
          <Trackpoint>
            <Time>2022-09-24T14:34:24.000Z</Time>
            <Position>
              <LatitudeDegrees>43.23551525361835956573486328125</LatitudeDegrees>
              <LongitudeDegrees>-2.86938085220754146575927734375</LongitudeDegrees>
            </Position>
            <AltitudeMeters>-10.6000003814697265625</AltitudeMeters>
            <DistanceMeters>NAN</DistanceMeters>
          </Trackpoint>
          <Trackpoint>
            <Time>2022-09-24T14:34:25.000Z</Time>
            <Position>
              <LatitudeDegrees>43.23545389808714389801025390625</LatitudeDegrees>
              <LongitudeDegrees>-2.8693009726703166961669921875</LongitudeDegrees>
            </Position>
            <AltitudeMeters>-10.6000003814697265625</AltitudeMeters>
            <DistanceMeters>NAN</DistanceMeters>
          </Trackpoint>
          <Trackpoint>
            <Time>2022-09-24T14:34:26.000Z</Time>
            <Position>
              <LatitudeDegrees>43.2353939674794673919677734375</LatitudeDegrees>
              <LongitudeDegrees>-2.8692215122282505035400390625</LongitudeDegrees>
            </Position>
            <AltitudeMeters>-10.6000003814697265625</AltitudeMeters>
            <DistanceMeters>NAN</DistanceMeters>
          </Trackpoint>
          <Trackpoint>
            <Time>2022-09-24T14:34:27.000Z</Time>
            <Position>
              <LatitudeDegrees>43.2353362999856472015380859375</LatitudeDegrees>
              <LongitudeDegrees>-2.86913953721523284912109375</LongitudeDegrees>
            </Position>
            <AltitudeMeters>-10.6000003814697265625</AltitudeMeters>
            <DistanceMeters>NAN</DistanceMeters>
          </Trackpoint>
          <Trackpoint>
            <Time>2022-09-24T14:34:28.000Z</Time>
            <Position>
              <LatitudeDegrees>43.23528014123439788818359375</LatitudeDegrees>
              <LongitudeDegrees>-2.86905370652675628662109375</LongitudeDegrees>
            </Position>
            <AltitudeMeters>-10.6000003814697265625</AltitudeMeters>
            <DistanceMeters>NAN</DistanceMeters>
          </Trackpoint>
          <Trackpoint>
            <Time>2022-09-24T14:34:29.000Z</Time>
            <Position>
              <LatitudeDegrees>43.23528014123439788818359375</LatitudeDegrees>
              <LongitudeDegrees>-2.86905370652675628662109375</LongitudeDegrees>
            </Position>
            <AltitudeMeters>-10.6000003814697265625</AltitudeMeters>
            <DistanceMeters>NAN</DistanceMeters>
          </Trackpoint>
          <Trackpoint>
            <Time>2022-09-24T14:34:30.000Z</Time>
            <Position>
              <LatitudeDegrees>43.23517092503607273101806640625</LatitudeDegrees>
              <LongitudeDegrees>-2.868876345455646514892578125</LongitudeDegrees>
            </Position>
            <AltitudeMeters>-10.80000019073486328125</AltitudeMeters>
            <DistanceMeters>NAN</DistanceMeters>
          </Trackpoint>
          <Trackpoint>
            <Time>2022-09-24T14:34:31.000Z</Time>
            <Position>
              <LatitudeDegrees>43.23510789312422275543212890625</LatitudeDegrees>
              <LongitudeDegrees>-2.86876746453344821929931640625</LongitudeDegrees>
            </Position>
            <AltitudeMeters>-10.80000019073486328125</AltitudeMeters>
            <DistanceMeters>NAN</DistanceMeters>
          </Trackpoint>
          <Trackpoint>
            <Time>2022-09-24T14:34:32.000Z</Time>
            <Position>
              <LatitudeDegrees>43.2350573502480983734130859375</LatitudeDegrees>
              <LongitudeDegrees>-2.86867660470306873321533203125</LongitudeDegrees>
            </Position>
            <AltitudeMeters>-10.80000019073486328125</AltitudeMeters>
            <DistanceMeters>NAN</DistanceMeters>
          </Trackpoint>
          <Trackpoint>
            <Time>2022-09-24T14:34:33.000Z</Time>
            <Position>
              <LatitudeDegrees>43.23501527309417724609375</LatitudeDegrees>
              <LongitudeDegrees>-2.86860535852611064910888671875</LongitudeDegrees>
            </Position>
            <AltitudeMeters>-10.80000019073486328125</AltitudeMeters>
            <DistanceMeters>NAN</DistanceMeters>
          </Trackpoint>
          <Trackpoint>
            <Time>2022-09-24T14:34:34.000Z</Time>
            <Position>
              <LatitudeDegrees>43.23495953343808650970458984375</LatitudeDegrees>
              <LongitudeDegrees>-2.86851500160992145538330078125</LongitudeDegrees>
            </Position>
            <AltitudeMeters>-10.80000019073486328125</AltitudeMeters>
            <DistanceMeters>NAN</DistanceMeters>
          </Trackpoint>
          <Trackpoint>
            <Time>2022-09-24T14:34:35.000Z</Time>
            <Position>
              <LatitudeDegrees>43.23490194976329803466796875</LatitudeDegrees>
              <LongitudeDegrees>-2.86842497996985912322998046875</LongitudeDegrees>
            </Position>
            <AltitudeMeters>-10.80000019073486328125</AltitudeMeters>
            <DistanceMeters>NAN</DistanceMeters>
          </Trackpoint>
          <Trackpoint>
            <Time>2022-09-24T14:34:36.000Z</Time>
            <Position>
              <LatitudeDegrees>43.23483313433825969696044921875</LatitudeDegrees>
              <LongitudeDegrees>-2.86831744015216827392578125</LongitudeDegrees>
            </Position>
            <AltitudeMeters>-10.80000019073486328125</AltitudeMeters>
            <DistanceMeters>NAN</DistanceMeters>
          </Trackpoint>
          <Trackpoint>
            <Time>2022-09-24T14:34:37.000Z</Time>
            <Position>
              <LatitudeDegrees>43.2347797416150569915771484375</LatitudeDegrees>
              <LongitudeDegrees>-2.86822582595050334930419921875</LongitudeDegrees>
            </Position>
            <AltitudeMeters>-11</AltitudeMeters>
            <DistanceMeters>NAN</DistanceMeters>
          </Trackpoint>
          <Trackpoint>
            <Time>2022-09-24T14:34:38.000Z</Time>
            <Position>
              <LatitudeDegrees>43.23473724536597728729248046875</LatitudeDegrees>
              <LongitudeDegrees>-2.86815541796386241912841796875</LongitudeDegrees>
            </Position>
            <AltitudeMeters>-10.80000019073486328125</AltitudeMeters>
            <DistanceMeters>NAN</DistanceMeters>
          </Trackpoint>
          <Trackpoint>
            <Time>2022-09-24T14:34:39.000Z</Time>
            <Position>
              <LatitudeDegrees>43.2346714474260807037353515625</LatitudeDegrees>
              <LongitudeDegrees>-2.86805081181228160858154296875</LongitudeDegrees>
            </Position>
            <AltitudeMeters>-11</AltitudeMeters>
            <DistanceMeters>NAN</DistanceMeters>
          </Trackpoint>
          <Trackpoint>
            <Time>2022-09-24T14:34:40.000Z</Time>
            <Position>
              <LatitudeDegrees>43.234628029167652130126953125</LatitudeDegrees>
              <LongitudeDegrees>-2.8679816611111164093017578125</LongitudeDegrees>
            </Position>
            <AltitudeMeters>-11</AltitudeMeters>
            <DistanceMeters>NAN</DistanceMeters>
          </Trackpoint>
          <Trackpoint>
            <Time>2022-09-24T14:34:41.000Z</Time>
            <Position>
              <LatitudeDegrees>43.23457094840705394744873046875</LatitudeDegrees>
              <LongitudeDegrees>-2.8678921423852443695068359375</LongitudeDegrees>
            </Position>
            <AltitudeMeters>-11.19999980926513671875</AltitudeMeters>
            <DistanceMeters>NAN</DistanceMeters>
          </Trackpoint>
          <Trackpoint>
            <Time>2022-09-24T14:34:42.000Z</Time>
            <Position>
              <LatitudeDegrees>43.23450422845780849456787109375</LatitudeDegrees>
              <LongitudeDegrees>-2.867786027491092681884765625</LongitudeDegrees>
            </Position>
            <AltitudeMeters>-11.19999980926513671875</AltitudeMeters>
            <DistanceMeters>NAN</DistanceMeters>
          </Trackpoint>
          <Trackpoint>
            <Time>2022-09-24T14:34:43.000Z</Time>
            <Position>
              <LatitudeDegrees>43.234459720551967620849609375</LatitudeDegrees>
              <LongitudeDegrees>-2.86771595478057861328125</LongitudeDegrees>
            </Position>
            <AltitudeMeters>-10.80000019073486328125</AltitudeMeters>
            <DistanceMeters>NAN</DistanceMeters>
          </Trackpoint>
          <Trackpoint>
            <Time>2022-09-24T14:34:44.000Z</Time>
            <Position>
              <LatitudeDegrees>43.234395347535610198974609375</LatitudeDegrees>
              <LongitudeDegrees>-2.86761059425771236419677734375</LongitudeDegrees>
            </Position>
            <AltitudeMeters>-10.3999996185302734375</AltitudeMeters>
            <DistanceMeters>NAN</DistanceMeters>
          </Trackpoint>
          <Trackpoint>
            <Time>2022-09-24T14:34:45.000Z</Time>
            <Position>
              <LatitudeDegrees>43.23434078134596347808837890625</LatitudeDegrees>
              <LongitudeDegrees>-2.86752208136022090911865234375</LongitudeDegrees>
            </Position>
            <AltitudeMeters>-10.3999996185302734375</AltitudeMeters>
            <DistanceMeters>NAN</DistanceMeters>
          </Trackpoint>
          <Trackpoint>
            <Time>2022-09-24T14:34:46.000Z</Time>
            <Position>
              <LatitudeDegrees>43.23429551906883716583251953125</LatitudeDegrees>
              <LongitudeDegrees>-2.86745184101164340972900390625</LongitudeDegrees>
            </Position>
            <AltitudeMeters>-10.3999996185302734375</AltitudeMeters>
            <DistanceMeters>NAN</DistanceMeters>
          </Trackpoint>
          <Trackpoint>
            <Time>2022-09-24T14:34:47.000Z</Time>
            <Position>
              <LatitudeDegrees>43.23423634283244609832763671875</LatitudeDegrees>
              <LongitudeDegrees>-2.86736349575221538543701171875</LongitudeDegrees>
            </Position>
            <AltitudeMeters>-10.80000019073486328125</AltitudeMeters>
            <DistanceMeters>NAN</DistanceMeters>
          </Trackpoint>
          <Trackpoint>
            <Time>2022-09-24T14:34:48.000Z</Time>
            <Position>
              <LatitudeDegrees>43.23417951352894306182861328125</LatitudeDegrees>
              <LongitudeDegrees>-2.86727607250213623046875</LongitudeDegrees>
            </Position>
            <AltitudeMeters>-10.80000019073486328125</AltitudeMeters>
            <DistanceMeters>NAN</DistanceMeters>
          </Trackpoint>
          <Trackpoint>
            <Time>2022-09-24T14:34:49.000Z</Time>
            <Position>
              <LatitudeDegrees>43.23411472141742706298828125</LatitudeDegrees>
              <LongitudeDegrees>-2.867169119417667388916015625</LongitudeDegrees>
            </Position>
            <AltitudeMeters>-10.80000019073486328125</AltitudeMeters>
            <DistanceMeters>NAN</DistanceMeters>
          </Trackpoint>
          <Trackpoint>
            <Time>2022-09-24T14:34:50.000Z</Time>
            <Position>
              <LatitudeDegrees>43.23406166397035121917724609375</LatitudeDegrees>
              <LongitudeDegrees>-2.86707901395857334136962890625</LongitudeDegrees>
            </Position>
            <AltitudeMeters>-10.80000019073486328125</AltitudeMeters>
            <DistanceMeters>NAN</DistanceMeters>
          </Trackpoint>
          <Trackpoint>
            <Time>2022-09-24T14:34:51.000Z</Time>
            <Position>
              <LatitudeDegrees>43.23400852270424365997314453125</LatitudeDegrees>
              <LongitudeDegrees>-2.86699016578495502471923828125</LongitudeDegrees>
            </Position>
            <AltitudeMeters>-10.80000019073486328125</AltitudeMeters>
            <DistanceMeters>NAN</DistanceMeters>
          </Trackpoint>
          <Trackpoint>
            <Time>2022-09-24T14:34:52.000Z</Time>
            <Position>
              <LatitudeDegrees>43.23396527208387851715087890625</LatitudeDegrees>
              <LongitudeDegrees>-2.86691732704639434814453125</LongitudeDegrees>
            </Position>
            <AltitudeMeters>-10.80000019073486328125</AltitudeMeters>
            <DistanceMeters>NAN</DistanceMeters>
          </Trackpoint>
          <Trackpoint>
            <Time>2022-09-24T14:34:53.000Z</Time>
            <Position>
              <LatitudeDegrees>43.23390123434364795684814453125</LatitudeDegrees>
              <LongitudeDegrees>-2.86681096069514751434326171875</LongitudeDegrees>
            </Position>
            <AltitudeMeters>-11</AltitudeMeters>
            <DistanceMeters>NAN</DistanceMeters>
          </Trackpoint>
          <Trackpoint>
            <Time>2022-09-24T14:34:54.000Z</Time>
            <Position>
              <LatitudeDegrees>43.23390123434364795684814453125</LatitudeDegrees>
              <LongitudeDegrees>-2.86681096069514751434326171875</LongitudeDegrees>
            </Position>
            <AltitudeMeters>-10.6000003814697265625</AltitudeMeters>
            <DistanceMeters>NAN</DistanceMeters>
          </Trackpoint>
          <Trackpoint>
            <Time>2022-09-24T14:34:55.000Z</Time>
            <Position>
              <LatitudeDegrees>43.2338084466755390167236328125</LatitudeDegrees>
              <LongitudeDegrees>-2.866648100316524505615234375</LongitudeDegrees>
            </Position>
            <AltitudeMeters>-10.6000003814697265625</AltitudeMeters>
            <DistanceMeters>NAN</DistanceMeters>
          </Trackpoint>
          <Trackpoint>
            <Time>2022-09-24T14:34:56.000Z</Time>
            <Position>
              <LatitudeDegrees>43.23375320993363857269287109375</LatitudeDegrees>
              <LongitudeDegrees>-2.8665580786764621734619140625</LongitudeDegrees>
            </Position>
            <AltitudeMeters>-10.3999996185302734375</AltitudeMeters>
            <DistanceMeters>NAN</DistanceMeters>
          </Trackpoint>
          <Trackpoint>
            <Time>2022-09-24T14:34:57.000Z</Time>
            <Position>
              <LatitudeDegrees>43.23375320993363857269287109375</LatitudeDegrees>
              <LongitudeDegrees>-2.8665580786764621734619140625</LongitudeDegrees>
            </Position>
            <AltitudeMeters>-10.3999996185302734375</AltitudeMeters>
            <DistanceMeters>NAN</DistanceMeters>
          </Trackpoint>
          <Trackpoint>
            <Time>2022-09-24T14:34:58.000Z</Time>
            <Position>
              <LatitudeDegrees>43.233654387295246124267578125</LatitudeDegrees>
              <LongitudeDegrees>-2.86636839620769023895263671875</LongitudeDegrees>
            </Position>
            <AltitudeMeters>-10.3999996185302734375</AltitudeMeters>
            <DistanceMeters>NAN</DistanceMeters>
          </Trackpoint>
          <Trackpoint>
            <Time>2022-09-24T14:34:59.000Z</Time>
            <Position>
              <LatitudeDegrees>43.2336035929620265960693359375</LatitudeDegrees>
              <LongitudeDegrees>-2.866270579397678375244140625</LongitudeDegrees>
            </Position>
            <AltitudeMeters>-10.3999996185302734375</AltitudeMeters>
            <DistanceMeters>NAN</DistanceMeters>
          </Trackpoint>
          <Trackpoint>
            <Time>2022-09-24T14:35:00.000Z</Time>
            <Position>
              <LatitudeDegrees>43.23355589993298053741455078125</LatitudeDegrees>
              <LongitudeDegrees>-2.86617175675928592681884765625</LongitudeDegrees>
            </Position>
            <AltitudeMeters>-10.3999996185302734375</AltitudeMeters>
            <DistanceMeters>NAN</DistanceMeters>
          </Trackpoint>
          <Trackpoint>
            <Time>2022-09-24T14:35:01.000Z</Time>
            <Position>
              <LatitudeDegrees>43.23350627906620502471923828125</LatitudeDegrees>
              <LongitudeDegrees>-2.86607536487281322479248046875</LongitudeDegrees>
            </Position>
            <AltitudeMeters>-10.3999996185302734375</AltitudeMeters>
            <DistanceMeters>NAN</DistanceMeters>
          </Trackpoint>
          <Trackpoint>
            <Time>2022-09-24T14:35:02.000Z</Time>
            <Position>
              <LatitudeDegrees>43.233456909656524658203125</LatitudeDegrees>
              <LongitudeDegrees>-2.865975536406040191650390625</LongitudeDegrees>
            </Position>
            <AltitudeMeters>-10.3999996185302734375</AltitudeMeters>
            <DistanceMeters>NAN</DistanceMeters>
          </Trackpoint>
          <Trackpoint>
            <Time>2022-09-24T14:35:03.000Z</Time>
            <Position>
              <LatitudeDegrees>43.233408629894256591796875</LatitudeDegrees>
              <LongitudeDegrees>-2.86587369628250598907470703125</LongitudeDegrees>
            </Position>
            <AltitudeMeters>-10.3999996185302734375</AltitudeMeters>
            <DistanceMeters>NAN</DistanceMeters>
          </Trackpoint>
          <Trackpoint>
            <Time>2022-09-24T14:35:04.000Z</Time>
            <Position>
              <LatitudeDegrees>43.2333719171583652496337890625</LatitudeDegrees>
              <LongitudeDegrees>-2.865772359073162078857421875</LongitudeDegrees>
            </Position>
            <AltitudeMeters>-10.3999996185302734375</AltitudeMeters>
            <DistanceMeters>NAN</DistanceMeters>
          </Trackpoint>
          <Trackpoint>
            <Time>2022-09-24T14:35:05.000Z</Time>
            <Position>
              <LatitudeDegrees>43.2333719171583652496337890625</LatitudeDegrees>
              <LongitudeDegrees>-2.865772359073162078857421875</LongitudeDegrees>
            </Position>
            <AltitudeMeters>-10.6000003814697265625</AltitudeMeters>
            <DistanceMeters>NAN</DistanceMeters>
          </Trackpoint>
          <Trackpoint>
            <Time>2022-09-24T14:35:06.000Z</Time>
            <Position>
              <LatitudeDegrees>43.23328566737473011016845703125</LatitudeDegrees>
              <LongitudeDegrees>-2.86558770574629306793212890625</LongitudeDegrees>
            </Position>
            <AltitudeMeters>-10.6000003814697265625</AltitudeMeters>
            <DistanceMeters>NAN</DistanceMeters>
          </Trackpoint>
          <Trackpoint>
            <Time>2022-09-24T14:35:07.000Z</Time>
            <Position>
              <LatitudeDegrees>43.23324291966855525970458984375</LatitudeDegrees>
              <LongitudeDegrees>-2.86548511125147342681884765625</LongitudeDegrees>
            </Position>
            <AltitudeMeters>-10.6000003814697265625</AltitudeMeters>
            <DistanceMeters>NAN</DistanceMeters>
          </Trackpoint>
          <Trackpoint>
            <Time>2022-09-24T14:35:08.000Z</Time>
            <Position>
              <LatitudeDegrees>43.233205117285251617431640625</LatitudeDegrees>
              <LongitudeDegrees>-2.86537178792059421539306640625</LongitudeDegrees>
            </Position>
            <AltitudeMeters>-10.80000019073486328125</AltitudeMeters>
            <DistanceMeters>NAN</DistanceMeters>
          </Trackpoint>
          <Trackpoint>
            <Time>2022-09-24T14:35:09.000Z</Time>
            <Position>
              <LatitudeDegrees>43.23316496796905994415283203125</LatitudeDegrees>
              <LongitudeDegrees>-2.86525410600006580352783203125</LongitudeDegrees>
            </Position>
            <AltitudeMeters>-10.80000019073486328125</AltitudeMeters>
            <DistanceMeters>NAN</DistanceMeters>
          </Trackpoint>
          <Trackpoint>
            <Time>2022-09-24T14:35:10.000Z</Time>
            <Position>
              <LatitudeDegrees>43.23312791995704174041748046875</LatitudeDegrees>
              <LongitudeDegrees>-2.86513223312795162200927734375</LongitudeDegrees>
            </Position>
            <AltitudeMeters>-10.6000003814697265625</AltitudeMeters>
            <DistanceMeters>NAN</DistanceMeters>
          </Trackpoint>
          <Trackpoint>
            <Time>2022-09-24T14:35:11.000Z</Time>
            <Position>
              <LatitudeDegrees>43.2331006787717342376708984375</LatitudeDegrees>
              <LongitudeDegrees>-2.86501371301710605621337890625</LongitudeDegrees>
            </Position>
            <AltitudeMeters>-11</AltitudeMeters>
            <DistanceMeters>NAN</DistanceMeters>
          </Trackpoint>
          <Trackpoint>
            <Time>2022-09-24T14:35:12.000Z</Time>
            <Position>
              <LatitudeDegrees>43.23307377286255359649658203125</LatitudeDegrees>
              <LongitudeDegrees>-2.86489963531494140625</LongitudeDegrees>
            </Position>
            <AltitudeMeters>-11.19999980926513671875</AltitudeMeters>
            <DistanceMeters>NAN</DistanceMeters>
          </Trackpoint>
          <Trackpoint>
            <Time>2022-09-24T14:35:13.000Z</Time>
            <Position>
              <LatitudeDegrees>43.2330507226288318634033203125</LatitudeDegrees>
              <LongitudeDegrees>-2.8647774271667003631591796875</LongitudeDegrees>
            </Position>
            <AltitudeMeters>-11.6000003814697265625</AltitudeMeters>
            <DistanceMeters>NAN</DistanceMeters>
          </Trackpoint>
          <Trackpoint>
            <Time>2022-09-24T14:35:14.000Z</Time>
            <Position>
              <LatitudeDegrees>43.23301426135003566741943359375</LatitudeDegrees>
              <LongitudeDegrees>-2.86464893259108066558837890625</LongitudeDegrees>
            </Position>
            <AltitudeMeters>-11.6000003814697265625</AltitudeMeters>
            <DistanceMeters>NAN</DistanceMeters>
          </Trackpoint>
          <Trackpoint>
            <Time>2022-09-24T14:35:15.000Z</Time>
            <Position>
              <LatitudeDegrees>43.23297587223351001739501953125</LatitudeDegrees>
              <LongitudeDegrees>-2.86452085711061954498291015625</LongitudeDegrees>
            </Position>
            <AltitudeMeters>-11.6000003814697265625</AltitudeMeters>
            <DistanceMeters>NAN</DistanceMeters>
          </Trackpoint>
          <Trackpoint>
            <Time>2022-09-24T14:35:16.000Z</Time>
            <Position>
              <LatitudeDegrees>43.23295072652399539947509765625</LatitudeDegrees>
              <LongitudeDegrees>-2.8643989004194736480712890625</LongitudeDegrees>
            </Position>
            <AltitudeMeters>-11.6000003814697265625</AltitudeMeters>
            <DistanceMeters>NAN</DistanceMeters>
          </Trackpoint>
          <Trackpoint>
            <Time>2022-09-24T14:35:17.000Z</Time>
            <Position>
              <LatitudeDegrees>43.232931196689605712890625</LatitudeDegrees>
              <LongitudeDegrees>-2.86427610553801059722900390625</LongitudeDegrees>
            </Position>
            <AltitudeMeters>-11.6000003814697265625</AltitudeMeters>
            <DistanceMeters>NAN</DistanceMeters>
          </Trackpoint>
          <Trackpoint>
            <Time>2022-09-24T14:35:18.000Z</Time>
            <Position>
              <LatitudeDegrees>43.2329095713794231414794921875</LatitudeDegrees>
              <LongitudeDegrees>-2.864156998693943023681640625</LongitudeDegrees>
            </Position>
            <AltitudeMeters>-11.6000003814697265625</AltitudeMeters>
            <DistanceMeters>NAN</DistanceMeters>
          </Trackpoint>
          <Trackpoint>
            <Time>2022-09-24T14:35:19.000Z</Time>
            <Position>
              <LatitudeDegrees>43.23289339430630207061767578125</LatitudeDegrees>
              <LongitudeDegrees>-2.86403370089828968048095703125</LongitudeDegrees>
            </Position>
            <AltitudeMeters>-11.6000003814697265625</AltitudeMeters>
            <DistanceMeters>NAN</DistanceMeters>
          </Trackpoint>
          <Trackpoint>
            <Time>2022-09-24T14:35:20.000Z</Time>
            <Position>
              <LatitudeDegrees>43.23287595994770526885986328125</LatitudeDegrees>
              <LongitudeDegrees>-2.86391132511198520660400390625</LongitudeDegrees>
            </Position>
            <AltitudeMeters>-11.6000003814697265625</AltitudeMeters>
            <DistanceMeters>NAN</DistanceMeters>
          </Trackpoint>
          <Trackpoint>
            <Time>2022-09-24T14:35:21.000Z</Time>
            <Position>
              <LatitudeDegrees>43.23286053724586963653564453125</LatitudeDegrees>
              <LongitudeDegrees>-2.86378911696374416351318359375</LongitudeDegrees>
            </Position>
            <AltitudeMeters>-12</AltitudeMeters>
            <DistanceMeters>NAN</DistanceMeters>
          </Trackpoint>
          <Trackpoint>
            <Time>2022-09-24T14:35:22.000Z</Time>
            <Position>
              <LatitudeDegrees>43.23284871876239776611328125</LatitudeDegrees>
              <LongitudeDegrees>-2.863665483891963958740234375</LongitudeDegrees>
            </Position>
            <AltitudeMeters>-12</AltitudeMeters>
            <DistanceMeters>NAN</DistanceMeters>
          </Trackpoint>
          <Trackpoint>
            <Time>2022-09-24T14:35:23.000Z</Time>
            <Position>
              <LatitudeDegrees>43.23284871876239776611328125</LatitudeDegrees>
              <LongitudeDegrees>-2.863665483891963958740234375</LongitudeDegrees>
            </Position>
            <AltitudeMeters>-12</AltitudeMeters>
            <DistanceMeters>NAN</DistanceMeters>
          </Trackpoint>
          <Trackpoint>
            <Time>2022-09-24T14:35:24.000Z</Time>
            <Position>
              <LatitudeDegrees>43.23282449506223201751708984375</LatitudeDegrees>
              <LongitudeDegrees>-2.86341746337711811065673828125</LongitudeDegrees>
            </Position>
            <AltitudeMeters>-12</AltitudeMeters>
            <DistanceMeters>NAN</DistanceMeters>
          </Trackpoint>
          <Trackpoint>
            <Time>2022-09-24T14:35:25.000Z</Time>
            <Position>
              <LatitudeDegrees>43.23280739597976207733154296875</LatitudeDegrees>
              <LongitudeDegrees>-2.8632951714098453521728515625</LongitudeDegrees>
            </Position>
            <AltitudeMeters>-12</AltitudeMeters>
            <DistanceMeters>NAN</DistanceMeters>
          </Trackpoint>
          <Trackpoint>
            <Time>2022-09-24T14:35:26.000Z</Time>
            <Position>
              <LatitudeDegrees>43.2327928952872753143310546875</LatitudeDegrees>
              <LongitudeDegrees>-2.8631722927093505859375</LongitudeDegrees>
            </Position>
            <AltitudeMeters>-11.6000003814697265625</AltitudeMeters>
            <DistanceMeters>NAN</DistanceMeters>
          </Trackpoint>
          <Trackpoint>
            <Time>2022-09-24T14:35:27.000Z</Time>
            <Position>
              <LatitudeDegrees>43.23277940042316913604736328125</LatitudeDegrees>
              <LongitudeDegrees>-2.86304966546595096588134765625</LongitudeDegrees>
            </Position>
            <AltitudeMeters>-11.3999996185302734375</AltitudeMeters>
            <DistanceMeters>NAN</DistanceMeters>
          </Trackpoint>
          <Trackpoint>
            <Time>2022-09-24T14:35:28.000Z</Time>
            <Position>
              <LatitudeDegrees>43.23276448063552379608154296875</LatitudeDegrees>
              <LongitudeDegrees>-2.86292879842221736907958984375</LongitudeDegrees>
            </Position>
            <AltitudeMeters>-11.19999980926513671875</AltitudeMeters>
            <DistanceMeters>NAN</DistanceMeters>
          </Trackpoint>
          <Trackpoint>
            <Time>2022-09-24T14:35:29.000Z</Time>
            <Position>
              <LatitudeDegrees>43.232748471200466156005859375</LatitudeDegrees>
              <LongitudeDegrees>-2.86280826665461063385009765625</LongitudeDegrees>
            </Position>
            <AltitudeMeters>-11.19999980926513671875</AltitudeMeters>
            <DistanceMeters>NAN</DistanceMeters>
          </Trackpoint>
          <Trackpoint>
            <Time>2022-09-24T14:35:30.000Z</Time>
            <Position>
              <LatitudeDegrees>43.232730366289615631103515625</LatitudeDegrees>
              <LongitudeDegrees>-2.8626863099634647369384765625</LongitudeDegrees>
            </Position>
            <AltitudeMeters>-11.19999980926513671875</AltitudeMeters>
            <DistanceMeters>NAN</DistanceMeters>
          </Trackpoint>
          <Trackpoint>
            <Time>2022-09-24T14:35:31.000Z</Time>
            <Position>
              <LatitudeDegrees>43.23271469213068485260009765625</LatitudeDegrees>
              <LongitudeDegrees>-2.8625635989010334014892578125</LongitudeDegrees>
            </Position>
            <AltitudeMeters>-11.19999980926513671875</AltitudeMeters>
            <DistanceMeters>NAN</DistanceMeters>
          </Trackpoint>
          <Trackpoint>
            <Time>2022-09-24T14:35:32.000Z</Time>
            <Position>
              <LatitudeDegrees>43.2326976768672466278076171875</LatitudeDegrees>
              <LongitudeDegrees>-2.8624408878386020660400390625</LongitudeDegrees>
            </Position>
            <AltitudeMeters>-11.19999980926513671875</AltitudeMeters>
            <DistanceMeters>NAN</DistanceMeters>
          </Trackpoint>
          <Trackpoint>
            <Time>2022-09-24T14:35:33.000Z</Time>
            <Position>
              <LatitudeDegrees>43.232681751251220703125</LatitudeDegrees>
              <LongitudeDegrees>-2.86232043989002704620361328125</LongitudeDegrees>
            </Position>
            <AltitudeMeters>-11.19999980926513671875</AltitudeMeters>
            <DistanceMeters>NAN</DistanceMeters>
          </Trackpoint>
          <Trackpoint>
            <Time>2022-09-24T14:35:34.000Z</Time>
            <Position>
              <LatitudeDegrees>43.232668004930019378662109375</LatitudeDegrees>
              <LongitudeDegrees>-2.86220158450305461883544921875</LongitudeDegrees>
            </Position>
            <AltitudeMeters>-11.19999980926513671875</AltitudeMeters>
            <DistanceMeters>NAN</DistanceMeters>
          </Trackpoint>
          <Trackpoint>
            <Time>2022-09-24T14:35:35.000Z</Time>
            <Position>
              <LatitudeDegrees>43.23265425860881805419921875</LatitudeDegrees>
              <LongitudeDegrees>-2.86208306439220905303955078125</LongitudeDegrees>
            </Position>
            <AltitudeMeters>-11.3999996185302734375</AltitudeMeters>
            <DistanceMeters>NAN</DistanceMeters>
          </Trackpoint>
          <Trackpoint>
            <Time>2022-09-24T14:35:36.000Z</Time>
            <Position>
              <LatitudeDegrees>43.23264126665890216827392578125</LatitudeDegrees>
              <LongitudeDegrees>-2.86196328699588775634765625</LongitudeDegrees>
            </Position>
            <AltitudeMeters>-11.3999996185302734375</AltitudeMeters>
            <DistanceMeters>NAN</DistanceMeters>
          </Trackpoint>
          <Trackpoint>
            <Time>2022-09-24T14:35:37.000Z</Time>
            <Position>
              <LatitudeDegrees>43.23262819088995456695556640625</LatitudeDegrees>
              <LongitudeDegrees>-2.8618419170379638671875</LongitudeDegrees>
            </Position>
            <AltitudeMeters>-11.3999996185302734375</AltitudeMeters>
            <DistanceMeters>NAN</DistanceMeters>
          </Trackpoint>
          <Trackpoint>
            <Time>2022-09-24T14:35:38.000Z</Time>
            <Position>
              <LatitudeDegrees>43.23261293582618236541748046875</LatitudeDegrees>
              <LongitudeDegrees>-2.86172465421259403228759765625</LongitudeDegrees>
            </Position>
            <AltitudeMeters>-11.19999980926513671875</AltitudeMeters>
            <DistanceMeters>NAN</DistanceMeters>
          </Trackpoint>
          <Trackpoint>
            <Time>2022-09-24T14:35:39.000Z</Time>
            <Position>
              <LatitudeDegrees>43.23261293582618236541748046875</LatitudeDegrees>
              <LongitudeDegrees>-2.86172465421259403228759765625</LongitudeDegrees>
            </Position>
            <AltitudeMeters>-11.19999980926513671875</AltitudeMeters>
            <DistanceMeters>NAN</DistanceMeters>
          </Trackpoint>
          <Trackpoint>
            <Time>2022-09-24T14:35:40.000Z</Time>
            <Position>
              <LatitudeDegrees>43.23258577845990657806396484375</LatitudeDegrees>
              <LongitudeDegrees>-2.86149348132312297821044921875</LongitudeDegrees>
            </Position>
            <AltitudeMeters>-11</AltitudeMeters>
            <DistanceMeters>NAN</DistanceMeters>
          </Trackpoint>
          <Trackpoint>
            <Time>2022-09-24T14:35:41.000Z</Time>
            <Position>
              <LatitudeDegrees>43.23257002048194408416748046875</LatitudeDegrees>
              <LongitudeDegrees>-2.86137479357421398162841796875</LongitudeDegrees>
            </Position>
            <AltitudeMeters>-10.80000019073486328125</AltitudeMeters>
            <DistanceMeters>NAN</DistanceMeters>
          </Trackpoint>
          <Trackpoint>
            <Time>2022-09-24T14:35:42.000Z</Time>
            <Position>
              <LatitudeDegrees>43.23255711235105991363525390625</LatitudeDegrees>
              <LongitudeDegrees>-2.8612566925585269927978515625</LongitudeDegrees>
            </Position>
            <AltitudeMeters>-10.80000019073486328125</AltitudeMeters>
            <DistanceMeters>NAN</DistanceMeters>
          </Trackpoint>
          <Trackpoint>
            <Time>2022-09-24T14:35:43.000Z</Time>
            <Position>
              <LatitudeDegrees>43.23254219256341457366943359375</LatitudeDegrees>
              <LongitudeDegrees>-2.86113993264734745025634765625</LongitudeDegrees>
            </Position>
            <AltitudeMeters>-10.6000003814697265625</AltitudeMeters>
            <DistanceMeters>NAN</DistanceMeters>
          </Trackpoint>
          <Trackpoint>
            <Time>2022-09-24T14:35:44.000Z</Time>
            <Position>
              <LatitudeDegrees>43.2325250096619129180908203125</LatitudeDegrees>
              <LongitudeDegrees>-2.86102258600294589996337890625</LongitudeDegrees>
            </Position>
            <AltitudeMeters>-10.6000003814697265625</AltitudeMeters>
            <DistanceMeters>NAN</DistanceMeters>
          </Trackpoint>
          <Trackpoint>
            <Time>2022-09-24T14:35:45.000Z</Time>
            <Position>
              <LatitudeDegrees>43.23251067660748958587646484375</LatitudeDegrees>
              <LongitudeDegrees>-2.86090247333049774169921875</LongitudeDegrees>
            </Position>
            <AltitudeMeters>-10.6000003814697265625</AltitudeMeters>
            <DistanceMeters>NAN</DistanceMeters>
          </Trackpoint>
          <Trackpoint>
            <Time>2022-09-24T14:35:46.000Z</Time>
            <Position>
              <LatitudeDegrees>43.23249676264822483062744140625</LatitudeDegrees>
              <LongitudeDegrees>-2.8607849590480327606201171875</LongitudeDegrees>
            </Position>
            <AltitudeMeters>-10.3999996185302734375</AltitudeMeters>
            <DistanceMeters>NAN</DistanceMeters>
          </Trackpoint>
          <Trackpoint>
            <Time>2022-09-24T14:35:47.000Z</Time>
            <Position>
              <LatitudeDegrees>43.23248083703219890594482421875</LatitudeDegrees>
              <LongitudeDegrees>-2.86066819913685321807861328125</LongitudeDegrees>
            </Position>
            <AltitudeMeters>-10.19999980926513671875</AltitudeMeters>
            <DistanceMeters>NAN</DistanceMeters>
          </Trackpoint>
          <Trackpoint>
            <Time>2022-09-24T14:35:48.000Z</Time>
            <Position>
              <LatitudeDegrees>43.2324639894068241119384765625</LatitudeDegrees>
              <LongitudeDegrees>-2.8605516068637371063232421875</LongitudeDegrees>
            </Position>
            <AltitudeMeters>-10.3999996185302734375</AltitudeMeters>
            <DistanceMeters>NAN</DistanceMeters>
          </Trackpoint>
          <Trackpoint>
            <Time>2022-09-24T14:35:49.000Z</Time>
            <Position>
              <LatitudeDegrees>43.23244865052402019500732421875</LatitudeDegrees>
              <LongitudeDegrees>-2.86043534986674785614013671875</LongitudeDegrees>
            </Position>
            <AltitudeMeters>-10.3999996185302734375</AltitudeMeters>
            <DistanceMeters>NAN</DistanceMeters>
          </Trackpoint>
          <Trackpoint>
            <Time>2022-09-24T14:35:50.000Z</Time>
            <Position>
              <LatitudeDegrees>43.23243591003119945526123046875</LatitudeDegrees>
              <LongitudeDegrees>-2.86031984724104404449462890625</LongitudeDegrees>
            </Position>
            <AltitudeMeters>-10.3999996185302734375</AltitudeMeters>
            <DistanceMeters>NAN</DistanceMeters>
          </Trackpoint>
          <Trackpoint>
            <Time>2022-09-24T14:35:51.000Z</Time>
            <Position>
              <LatitudeDegrees>43.23241847567260265350341796875</LatitudeDegrees>
              <LongitudeDegrees>-2.86018037237226963043212890625</LongitudeDegrees>
            </Position>
            <AltitudeMeters>-10.3999996185302734375</AltitudeMeters>
            <DistanceMeters>NAN</DistanceMeters>
          </Trackpoint>
          <Trackpoint>
            <Time>2022-09-24T14:35:52.000Z</Time>
            <Position>
              <LatitudeDegrees>43.232405148446559906005859375</LatitudeDegrees>
              <LongitudeDegrees>-2.86006302572786808013916015625</LongitudeDegrees>
            </Position>
            <AltitudeMeters>-10.3999996185302734375</AltitudeMeters>
            <DistanceMeters>NAN</DistanceMeters>
          </Trackpoint>
          <Trackpoint>
            <Time>2022-09-24T14:35:53.000Z</Time>
            <Position>
              <LatitudeDegrees>43.23239349760115146636962890625</LatitudeDegrees>
              <LongitudeDegrees>-2.8599683940410614013671875</LongitudeDegrees>
            </Position>
            <AltitudeMeters>-10.3999996185302734375</AltitudeMeters>
            <DistanceMeters>NAN</DistanceMeters>
          </Trackpoint>
          <Trackpoint>
            <Time>2022-09-24T14:35:54.000Z</Time>
            <Position>
              <LatitudeDegrees>43.232377655804157257080078125</LatitudeDegrees>
              <LongitudeDegrees>-2.8598505444824695587158203125</LongitudeDegrees>
            </Position>
            <AltitudeMeters>-10.3999996185302734375</AltitudeMeters>
            <DistanceMeters>NAN</DistanceMeters>
          </Trackpoint>
          <Trackpoint>
            <Time>2022-09-24T14:35:55.000Z</Time>
            <Position>
              <LatitudeDegrees>43.23236365802586078643798828125</LatitudeDegrees>
              <LongitudeDegrees>-2.8597328625619411468505859375</LongitudeDegrees>
            </Position>
            <AltitudeMeters>-10.3999996185302734375</AltitudeMeters>
            <DistanceMeters>NAN</DistanceMeters>
          </Trackpoint>
          <Trackpoint>
            <Time>2022-09-24T14:35:56.000Z</Time>
            <Position>
              <LatitudeDegrees>43.2323493249714374542236328125</LatitudeDegrees>
              <LongitudeDegrees>-2.85961568355560302734375</LongitudeDegrees>
            </Position>
            <AltitudeMeters>-10.3999996185302734375</AltitudeMeters>
            <DistanceMeters>NAN</DistanceMeters>
          </Trackpoint>
          <Trackpoint>
            <Time>2022-09-24T14:35:57.000Z</Time>
            <Position>
              <LatitudeDegrees>43.23233147151768207550048828125</LatitudeDegrees>
              <LongitudeDegrees>-2.85947578959167003631591796875</LongitudeDegrees>
            </Position>
            <AltitudeMeters>-10.3999996185302734375</AltitudeMeters>
            <DistanceMeters>NAN</DistanceMeters>
          </Trackpoint>
          <Trackpoint>
            <Time>2022-09-24T14:35:58.000Z</Time>
            <Position>
              <LatitudeDegrees>43.2323201559484004974365234375</LatitudeDegrees>
              <LongitudeDegrees>-2.85938057117164134979248046875</LongitudeDegrees>
            </Position>
            <AltitudeMeters>-10.3999996185302734375</AltitudeMeters>
            <DistanceMeters>NAN</DistanceMeters>
          </Trackpoint>
          <Trackpoint>
            <Time>2022-09-24T14:35:59.000Z</Time>
            <Position>
              <LatitudeDegrees>43.232304565608501434326171875</LatitudeDegrees>
              <LongitudeDegrees>-2.85926221869885921478271484375</LongitudeDegrees>
            </Position>
            <AltitudeMeters>-11</AltitudeMeters>
            <DistanceMeters>NAN</DistanceMeters>
          </Trackpoint>
          <Trackpoint>
            <Time>2022-09-24T14:36:00.000Z</Time>
            <Position>
              <LatitudeDegrees>43.23228989727795124053955078125</LatitudeDegrees>
              <LongitudeDegrees>-2.85914621315896511077880859375</LongitudeDegrees>
            </Position>
            <AltitudeMeters>-11</AltitudeMeters>
            <DistanceMeters>NAN</DistanceMeters>
          </Trackpoint>
          <Trackpoint>
            <Time>2022-09-24T14:36:01.000Z</Time>
            <Position>
              <LatitudeDegrees>43.2322765700519084930419921875</LatitudeDegrees>
              <LongitudeDegrees>-2.8590043075382709503173828125</LongitudeDegrees>
            </Position>
            <AltitudeMeters>-11.19999980926513671875</AltitudeMeters>
            <DistanceMeters>NAN</DistanceMeters>
          </Trackpoint>
          <Trackpoint>
            <Time>2022-09-24T14:36:02.000Z</Time>
            <Position>
              <LatitudeDegrees>43.2322651706635951995849609375</LatitudeDegrees>
              <LongitudeDegrees>-2.85888419486582279205322265625</LongitudeDegrees>
            </Position>
            <AltitudeMeters>-11</AltitudeMeters>
            <DistanceMeters>NAN</DistanceMeters>
          </Trackpoint>
          <Trackpoint>
            <Time>2022-09-24T14:36:03.000Z</Time>
            <Position>
              <LatitudeDegrees>43.23225368745625019073486328125</LatitudeDegrees>
              <LongitudeDegrees>-2.8587910719215869903564453125</LongitudeDegrees>
            </Position>
            <AltitudeMeters>-11</AltitudeMeters>
            <DistanceMeters>NAN</DistanceMeters>
          </Trackpoint>
          <Trackpoint>
            <Time>2022-09-24T14:36:04.000Z</Time>
            <Position>
              <LatitudeDegrees>43.2322390191256999969482421875</LatitudeDegrees>
              <LongitudeDegrees>-2.85867481492459774017333984375</LongitudeDegrees>
            </Position>
            <AltitudeMeters>-10.80000019073486328125</AltitudeMeters>
            <DistanceMeters>NAN</DistanceMeters>
          </Trackpoint>
          <Trackpoint>
            <Time>2022-09-24T14:36:05.000Z</Time>
            <Position>
              <LatitudeDegrees>43.2322390191256999969482421875</LatitudeDegrees>
              <LongitudeDegrees>-2.85867481492459774017333984375</LongitudeDegrees>
            </Position>
            <AltitudeMeters>-10.80000019073486328125</AltitudeMeters>
            <DistanceMeters>NAN</DistanceMeters>
          </Trackpoint>
          <Trackpoint>
            <Time>2022-09-24T14:36:06.000Z</Time>
            <Position>
              <LatitudeDegrees>43.23219669051468372344970703125</LatitudeDegrees>
              <LongitudeDegrees>-2.85842000506818294525146484375</LongitudeDegrees>
            </Position>
            <AltitudeMeters>-10.80000019073486328125</AltitudeMeters>
            <DistanceMeters>NAN</DistanceMeters>
          </Trackpoint>
          <Trackpoint>
            <Time>2022-09-24T14:36:07.000Z</Time>
            <Position>
              <LatitudeDegrees>43.23217892087996006011962890625</LatitudeDegrees>
              <LongitudeDegrees>-2.8583035804331302642822265625</LongitudeDegrees>
            </Position>
            <AltitudeMeters>-10.80000019073486328125</AltitudeMeters>
            <DistanceMeters>NAN</DistanceMeters>
          </Trackpoint>
          <Trackpoint>
            <Time>2022-09-24T14:36:08.000Z</Time>
            <Position>
              <LatitudeDegrees>43.232166431844234466552734375</LatitudeDegrees>
              <LongitudeDegrees>-2.8582097031176090240478515625</LongitudeDegrees>
            </Position>
            <AltitudeMeters>-10.80000019073486328125</AltitudeMeters>
            <DistanceMeters>NAN</DistanceMeters>
          </Trackpoint>
          <Trackpoint>
            <Time>2022-09-24T14:36:09.000Z</Time>
            <Position>
              <LatitudeDegrees>43.232157044112682342529296875</LatitudeDegrees>
              <LongitudeDegrees>-2.858072407543659210205078125</LongitudeDegrees>
            </Position>
            <AltitudeMeters>-10.80000019073486328125</AltitudeMeters>
            <DistanceMeters>NAN</DistanceMeters>
          </Trackpoint>
          <Trackpoint>
            <Time>2022-09-24T14:36:10.000Z</Time>
            <Position>
              <LatitudeDegrees>43.23214489035308361053466796875</LatitudeDegrees>
              <LongitudeDegrees>-2.8579817153513431549072265625</LongitudeDegrees>
            </Position>
            <AltitudeMeters>-11.19999980926513671875</AltitudeMeters>
            <DistanceMeters>NAN</DistanceMeters>
          </Trackpoint>
          <Trackpoint>
            <Time>2022-09-24T14:36:11.000Z</Time>
            <Position>
              <LatitudeDegrees>43.23214489035308361053466796875</LatitudeDegrees>
              <LongitudeDegrees>-2.8579817153513431549072265625</LongitudeDegrees>
            </Position>
            <AltitudeMeters>-11.19999980926513671875</AltitudeMeters>
            <DistanceMeters>NAN</DistanceMeters>
          </Trackpoint>
          <Trackpoint>
            <Time>2022-09-24T14:36:12.000Z</Time>
            <Position>
              <LatitudeDegrees>43.23210214264690876007080078125</LatitudeDegrees>
              <LongitudeDegrees>-2.85774710588157176971435546875</LongitudeDegrees>
            </Position>
            <AltitudeMeters>-11.19999980926513671875</AltitudeMeters>
            <DistanceMeters>NAN</DistanceMeters>
          </Trackpoint>
          <Trackpoint>
            <Time>2022-09-24T14:36:13.000Z</Time>
            <Position>
              <LatitudeDegrees>43.23208026587963104248046875</LatitudeDegrees>
              <LongitudeDegrees>-2.8576313517987728118896484375</LongitudeDegrees>
            </Position>
            <AltitudeMeters>-11.19999980926513671875</AltitudeMeters>
            <DistanceMeters>NAN</DistanceMeters>
          </Trackpoint>
          <Trackpoint>
            <Time>2022-09-24T14:36:14.000Z</Time>
            <Position>
              <LatitudeDegrees>43.232056461274623870849609375</LatitudeDegrees>
              <LongitudeDegrees>-2.85751576535403728485107421875</LongitudeDegrees>
            </Position>
            <AltitudeMeters>-11</AltitudeMeters>
            <DistanceMeters>NAN</DistanceMeters>
          </Trackpoint>
          <Trackpoint>
            <Time>2022-09-24T14:36:15.000Z</Time>
            <Position>
              <LatitudeDegrees>43.232056461274623870849609375</LatitudeDegrees>
              <LongitudeDegrees>-2.85751576535403728485107421875</LongitudeDegrees>
            </Position>
            <AltitudeMeters>-11</AltitudeMeters>
            <DistanceMeters>NAN</DistanceMeters>
          </Trackpoint>
          <Trackpoint>
            <Time>2022-09-24T14:36:16.000Z</Time>
            <Position>
              <LatitudeDegrees>43.2320163957774639129638671875</LatitudeDegrees>
              <LongitudeDegrees>-2.85728559829294681549072265625</LongitudeDegrees>
            </Position>
            <AltitudeMeters>-11</AltitudeMeters>
            <DistanceMeters>NAN</DistanceMeters>
          </Trackpoint>
          <Trackpoint>
            <Time>2022-09-24T14:36:17.000Z</Time>
            <Position>
              <LatitudeDegrees>43.23199703358113765716552734375</LatitudeDegrees>
              <LongitudeDegrees>-2.8571703471243381500244140625</LongitudeDegrees>
            </Position>
            <AltitudeMeters>-11</AltitudeMeters>
            <DistanceMeters>NAN</DistanceMeters>
          </Trackpoint>
          <Trackpoint>
            <Time>2022-09-24T14:36:18.000Z</Time>
            <Position>
              <LatitudeDegrees>43.23197691701352596282958984375</LatitudeDegrees>
              <LongitudeDegrees>-2.8570540063083171844482421875</LongitudeDegrees>
            </Position>
            <AltitudeMeters>-11</AltitudeMeters>
            <DistanceMeters>NAN</DistanceMeters>
          </Trackpoint>
          <Trackpoint>
            <Time>2022-09-24T14:36:19.000Z</Time>
            <Position>
              <LatitudeDegrees>43.23195797391235828399658203125</LatitudeDegrees>
              <LongitudeDegrees>-2.85693925805389881134033203125</LongitudeDegrees>
            </Position>
            <AltitudeMeters>-11</AltitudeMeters>
            <DistanceMeters>NAN</DistanceMeters>
          </Trackpoint>
          <Trackpoint>
            <Time>2022-09-24T14:36:20.000Z</Time>
            <Position>
              <LatitudeDegrees>43.231939785182476043701171875</LatitudeDegrees>
              <LongitudeDegrees>-2.85682258196175098419189453125</LongitudeDegrees>
            </Position>
            <AltitudeMeters>-11</AltitudeMeters>
            <DistanceMeters>NAN</DistanceMeters>
          </Trackpoint>
          <Trackpoint>
            <Time>2022-09-24T14:36:21.000Z</Time>
            <Position>
              <LatitudeDegrees>43.23192444629967212677001953125</LatitudeDegrees>
              <LongitudeDegrees>-2.85670540295541286468505859375</LongitudeDegrees>
            </Position>
            <AltitudeMeters>-11.80000019073486328125</AltitudeMeters>
            <DistanceMeters>NAN</DistanceMeters>
          </Trackpoint>
          <Trackpoint>
            <Time>2022-09-24T14:36:22.000Z</Time>
            <Position>
              <LatitudeDegrees>43.23190935887396335601806640625</LatitudeDegrees>
              <LongitudeDegrees>-2.8565859608352184295654296875</LongitudeDegrees>
            </Position>
            <AltitudeMeters>-10.3999996185302734375</AltitudeMeters>
            <DistanceMeters>NAN</DistanceMeters>
          </Trackpoint>
          <Trackpoint>
            <Time>2022-09-24T14:36:23.000Z</Time>
            <Position>
              <LatitudeDegrees>43.23189091868698596954345703125</LatitudeDegrees>
              <LongitudeDegrees>-2.8564699552953243255615234375</LongitudeDegrees>
            </Position>
            <AltitudeMeters>-10.3999996185302734375</AltitudeMeters>
            <DistanceMeters>NAN</DistanceMeters>
          </Trackpoint>
          <Trackpoint>
            <Time>2022-09-24T14:36:24.000Z</Time>
            <Position>
              <LatitudeDegrees>43.23187105357646942138671875</LatitudeDegrees>
              <LongitudeDegrees>-2.8563549555838108062744140625</LongitudeDegrees>
            </Position>
            <AltitudeMeters>-10.3999996185302734375</AltitudeMeters>
            <DistanceMeters>NAN</DistanceMeters>
          </Trackpoint>
          <Trackpoint>
            <Time>2022-09-24T14:36:25.000Z</Time>
            <Position>
              <LatitudeDegrees>43.23185219429433345794677734375</LatitudeDegrees>
              <LongitudeDegrees>-2.85624037496745586395263671875</LongitudeDegrees>
            </Position>
            <AltitudeMeters>-10.19999980926513671875</AltitudeMeters>
            <DistanceMeters>NAN</DistanceMeters>
          </Trackpoint>
          <Trackpoint>
            <Time>2022-09-24T14:36:26.000Z</Time>
            <Position>
              <LatitudeDegrees>43.23183291591703891754150390625</LatitudeDegrees>
              <LongitudeDegrees>-2.85612990148365497589111328125</LongitudeDegrees>
            </Position>
            <AltitudeMeters>-10.19999980926513671875</AltitudeMeters>
            <DistanceMeters>NAN</DistanceMeters>
          </Trackpoint>
          <Trackpoint>
            <Time>2022-09-24T14:36:27.000Z</Time>
            <Position>
              <LatitudeDegrees>43.2318102009594440460205078125</LatitudeDegrees>
              <LongitudeDegrees>-2.85602076910436153411865234375</LongitudeDegrees>
            </Position>
            <AltitudeMeters>-10.80000019073486328125</AltitudeMeters>
            <DistanceMeters>NAN</DistanceMeters>
          </Trackpoint>
          <Trackpoint>
            <Time>2022-09-24T14:36:28.000Z</Time>
            <Position>
              <LatitudeDegrees>43.2318102009594440460205078125</LatitudeDegrees>
              <LongitudeDegrees>-2.85602076910436153411865234375</LongitudeDegrees>
            </Position>
            <AltitudeMeters>-10.19999980926513671875</AltitudeMeters>
            <DistanceMeters>NAN</DistanceMeters>
          </Trackpoint>
          <Trackpoint>
            <Time>2022-09-24T14:36:29.000Z</Time>
            <Position>
              <LatitudeDegrees>43.23176904581487178802490234375</LatitudeDegrees>
              <LongitudeDegrees>-2.855794541537761688232421875</LongitudeDegrees>
            </Position>
            <AltitudeMeters>-10</AltitudeMeters>
            <DistanceMeters>NAN</DistanceMeters>
          </Trackpoint>
          <Trackpoint>
            <Time>2022-09-24T14:36:30.000Z</Time>
            <Position>
              <LatitudeDegrees>43.2317495159804821014404296875</LatitudeDegrees>
              <LongitudeDegrees>-2.8556823916733264923095703125</LongitudeDegrees>
            </Position>
            <AltitudeMeters>-10</AltitudeMeters>
            <DistanceMeters>NAN</DistanceMeters>
          </Trackpoint>
          <Trackpoint>
            <Time>2022-09-24T14:36:31.000Z</Time>
            <Position>
              <LatitudeDegrees>43.23173082433640956878662109375</LatitudeDegrees>
              <LongitudeDegrees>-2.85557292401790618896484375</LongitudeDegrees>
            </Position>
            <AltitudeMeters>-10</AltitudeMeters>
            <DistanceMeters>NAN</DistanceMeters>
          </Trackpoint>
          <Trackpoint>
            <Time>2022-09-24T14:36:32.000Z</Time>
            <Position>
              <LatitudeDegrees>43.2317139767110347747802734375</LatitudeDegrees>
              <LongitudeDegrees>-2.85546320490539073944091796875</LongitudeDegrees>
            </Position>
            <AltitudeMeters>-10</AltitudeMeters>
            <DistanceMeters>NAN</DistanceMeters>
          </Trackpoint>
          <Trackpoint>
            <Time>2022-09-24T14:36:33.000Z</Time>
            <Position>
              <LatitudeDegrees>43.23169863782823085784912109375</LatitudeDegrees>
              <LongitudeDegrees>-2.85535390488803386688232421875</LongitudeDegrees>
            </Position>
            <AltitudeMeters>-9.80000019073486328125</AltitudeMeters>
            <DistanceMeters>NAN</DistanceMeters>
          </Trackpoint>
          <Trackpoint>
            <Time>2022-09-24T14:36:34.000Z</Time>
            <Position>
              <LatitudeDegrees>43.23168388567864894866943359375</LatitudeDegrees>
              <LongitudeDegrees>-2.855244018137454986572265625</LongitudeDegrees>
            </Position>
            <AltitudeMeters>-9.19999980926513671875</AltitudeMeters>
            <DistanceMeters>NAN</DistanceMeters>
          </Trackpoint>
          <Trackpoint>
            <Time>2022-09-24T14:36:35.000Z</Time>
            <Position>
              <LatitudeDegrees>43.2316593267023563385009765625</LatitudeDegrees>
              <LongitudeDegrees>-2.8551355563104152679443359375</LongitudeDegrees>
            </Position>
            <AltitudeMeters>-9</AltitudeMeters>
            <DistanceMeters>NAN</DistanceMeters>
          </Trackpoint>
          <Trackpoint>
            <Time>2022-09-24T14:36:36.000Z</Time>
            <Position>
              <LatitudeDegrees>43.2316422276198863983154296875</LatitudeDegrees>
              <LongitudeDegrees>-2.8550242446362972259521484375</LongitudeDegrees>
            </Position>
            <AltitudeMeters>-9</AltitudeMeters>
            <DistanceMeters>NAN</DistanceMeters>
          </Trackpoint>
          <Trackpoint>
            <Time>2022-09-24T14:36:37.000Z</Time>
            <Position>
              <LatitudeDegrees>43.23162831366062164306640625</LatitudeDegrees>
              <LongitudeDegrees>-2.85491100512444972991943359375</LongitudeDegrees>
            </Position>
            <AltitudeMeters>-9</AltitudeMeters>
            <DistanceMeters>NAN</DistanceMeters>
          </Trackpoint>
          <Trackpoint>
            <Time>2022-09-24T14:36:38.000Z</Time>
            <Position>
              <LatitudeDegrees>43.23162831366062164306640625</LatitudeDegrees>
              <LongitudeDegrees>-2.85491100512444972991943359375</LongitudeDegrees>
            </Position>
            <AltitudeMeters>-8.80000019073486328125</AltitudeMeters>
            <DistanceMeters>NAN</DistanceMeters>
          </Trackpoint>
          <Trackpoint>
            <Time>2022-09-24T14:36:39.000Z</Time>
            <Position>
              <LatitudeDegrees>43.23160727508366107940673828125</LatitudeDegrees>
              <LongitudeDegrees>-2.85468804650008678436279296875</LongitudeDegrees>
            </Position>
            <AltitudeMeters>-8.80000019073486328125</AltitudeMeters>
            <DistanceMeters>NAN</DistanceMeters>
          </Trackpoint>
          <Trackpoint>
            <Time>2022-09-24T14:36:40.000Z</Time>
            <Position>
              <LatitudeDegrees>43.23160425759851932525634765625</LatitudeDegrees>
              <LongitudeDegrees>-2.85457757301628589630126953125</LongitudeDegrees>
            </Position>
            <AltitudeMeters>-8.80000019073486328125</AltitudeMeters>
            <DistanceMeters>NAN</DistanceMeters>
          </Trackpoint>
          <Trackpoint>
            <Time>2022-09-24T14:36:41.000Z</Time>
            <Position>
              <LatitudeDegrees>43.23160341940820217132568359375</LatitudeDegrees>
              <LongitudeDegrees>-2.85446709953248500823974609375</LongitudeDegrees>
            </Position>
            <AltitudeMeters>-8.80000019073486328125</AltitudeMeters>
            <DistanceMeters>NAN</DistanceMeters>
          </Trackpoint>
          <Trackpoint>
            <Time>2022-09-24T14:36:42.000Z</Time>
            <Position>
              <LatitudeDegrees>43.231606185436248779296875</LatitudeDegrees>
              <LongitudeDegrees>-2.8543572127819061279296875</LongitudeDegrees>
            </Position>
            <AltitudeMeters>-8.6000003814697265625</AltitudeMeters>
            <DistanceMeters>NAN</DistanceMeters>
          </Trackpoint>
          <Trackpoint>
            <Time>2022-09-24T14:36:43.000Z</Time>
            <Position>
              <LatitudeDegrees>43.23161096312105655670166015625</LatitudeDegrees>
              <LongitudeDegrees>-2.854246236383914947509765625</LongitudeDegrees>
            </Position>
            <AltitudeMeters>-8.6000003814697265625</AltitudeMeters>
            <DistanceMeters>NAN</DistanceMeters>
          </Trackpoint>
          <Trackpoint>
            <Time>2022-09-24T14:36:44.000Z</Time>
            <Position>
              <LatitudeDegrees>43.2316154055297374725341796875</LatitudeDegrees>
              <LongitudeDegrees>-2.85413349978625774383544921875</LongitudeDegrees>
            </Position>
            <AltitudeMeters>-8.6000003814697265625</AltitudeMeters>
            <DistanceMeters>NAN</DistanceMeters>
          </Trackpoint>
          <Trackpoint>
            <Time>2022-09-24T14:36:45.000Z</Time>
            <Position>
              <LatitudeDegrees>43.23161398060619831085205078125</LatitudeDegrees>
              <LongitudeDegrees>-2.85402604378759860992431640625</LongitudeDegrees>
            </Position>
            <AltitudeMeters>-8.3999996185302734375</AltitudeMeters>
            <DistanceMeters>NAN</DistanceMeters>
          </Trackpoint>
          <Trackpoint>
            <Time>2022-09-24T14:36:46.000Z</Time>
            <Position>
              <LatitudeDegrees>43.231608532369136810302734375</LatitudeDegrees>
              <LongitudeDegrees>-2.85392143763601779937744140625</LongitudeDegrees>
            </Position>
            <AltitudeMeters>-8.3999996185302734375</AltitudeMeters>
            <DistanceMeters>NAN</DistanceMeters>
          </Trackpoint>
          <Trackpoint>
            <Time>2022-09-24T14:36:47.000Z</Time>
            <Position>
              <LatitudeDegrees>43.2316026650369167327880859375</LatitudeDegrees>
              <LongitudeDegrees>-2.85381867550313472747802734375</LongitudeDegrees>
            </Position>
            <AltitudeMeters>-6.400000095367431640625</AltitudeMeters>
            <DistanceMeters>NAN</DistanceMeters>
          </Trackpoint>
          <Trackpoint>
            <Time>2022-09-24T14:36:48.000Z</Time>
            <Position>
              <LatitudeDegrees>43.23160878382623195648193359375</LatitudeDegrees>
              <LongitudeDegrees>-2.8537183441221714019775390625</LongitudeDegrees>
            </Position>
            <AltitudeMeters>-6.19999980926513671875</AltitudeMeters>
            <DistanceMeters>NAN</DistanceMeters>
          </Trackpoint>
          <Trackpoint>
            <Time>2022-09-24T14:36:49.000Z</Time>
            <Position>
              <LatitudeDegrees>43.23163091205060482025146484375</LatitudeDegrees>
              <LongitudeDegrees>-2.85362237133085727691650390625</LongitudeDegrees>
            </Position>
            <AltitudeMeters>-6.19999980926513671875</AltitudeMeters>
            <DistanceMeters>NAN</DistanceMeters>
          </Trackpoint>
          <Trackpoint>
            <Time>2022-09-24T14:36:50.000Z</Time>
            <Position>
              <LatitudeDegrees>43.2316656969487667083740234375</LatitudeDegrees>
              <LongitudeDegrees>-2.85352908074855804443359375</LongitudeDegrees>
            </Position>
            <AltitudeMeters>-6.19999980926513671875</AltitudeMeters>
            <DistanceMeters>NAN</DistanceMeters>
          </Trackpoint>
          <Trackpoint>
            <Time>2022-09-24T14:36:51.000Z</Time>
            <Position>
              <LatitudeDegrees>43.23170584626495838165283203125</LatitudeDegrees>
              <LongitudeDegrees>-2.85343428142368793487548828125</LongitudeDegrees>
            </Position>
            <AltitudeMeters>-6.400000095367431640625</AltitudeMeters>
            <DistanceMeters>NAN</DistanceMeters>
          </Trackpoint>
          <Trackpoint>
            <Time>2022-09-24T14:36:52.000Z</Time>
            <Position>
              <LatitudeDegrees>43.23170584626495838165283203125</LatitudeDegrees>
              <LongitudeDegrees>-2.85343428142368793487548828125</LongitudeDegrees>
            </Position>
            <AltitudeMeters>-7.19999980926513671875</AltitudeMeters>
            <DistanceMeters>NAN</DistanceMeters>
          </Trackpoint>
          <Trackpoint>
            <Time>2022-09-24T14:36:53.000Z</Time>
            <Position>
              <LatitudeDegrees>43.231777511537075042724609375</LatitudeDegrees>
              <LongitudeDegrees>-2.8532251529395580291748046875</LongitudeDegrees>
            </Position>
            <AltitudeMeters>-7.80000019073486328125</AltitudeMeters>
            <DistanceMeters>NAN</DistanceMeters>
          </Trackpoint>
          <Trackpoint>
            <Time>2022-09-24T14:36:54.000Z</Time>
            <Position>
              <LatitudeDegrees>43.23181196115911006927490234375</LatitudeDegrees>
              <LongitudeDegrees>-2.85312180407345294952392578125</LongitudeDegrees>
            </Position>
            <AltitudeMeters>-8.3999996185302734375</AltitudeMeters>
            <DistanceMeters>NAN</DistanceMeters>
          </Trackpoint>
          <Trackpoint>
            <Time>2022-09-24T14:36:55.000Z</Time>
            <Position>
              <LatitudeDegrees>43.23185202665627002716064453125</LatitudeDegrees>
              <LongitudeDegrees>-2.853021137416362762451171875</LongitudeDegrees>
            </Position>
            <AltitudeMeters>-8.3999996185302734375</AltitudeMeters>
            <DistanceMeters>NAN</DistanceMeters>
          </Trackpoint>
          <Trackpoint>
            <Time>2022-09-24T14:36:56.000Z</Time>
            <Position>
              <LatitudeDegrees>43.23188488371670246124267578125</LatitudeDegrees>
              <LongitudeDegrees>-2.852927930653095245361328125</LongitudeDegrees>
            </Position>
            <AltitudeMeters>-8.3999996185302734375</AltitudeMeters>
            <DistanceMeters>NAN</DistanceMeters>
          </Trackpoint>
          <Trackpoint>
            <Time>2022-09-24T14:36:57.000Z</Time>
            <Position>
              <LatitudeDegrees>43.23191262781620025634765625</LatitudeDegrees>
              <LongitudeDegrees>-2.85283262841403484344482421875</LongitudeDegrees>
            </Position>
            <AltitudeMeters>-8.3999996185302734375</AltitudeMeters>
            <DistanceMeters>NAN</DistanceMeters>
          </Trackpoint>
          <Trackpoint>
            <Time>2022-09-24T14:36:58.000Z</Time>
            <Position>
              <LatitudeDegrees>43.23194070719182491302490234375</LatitudeDegrees>
              <LongitudeDegrees>-2.8527299501001834869384765625</LongitudeDegrees>
            </Position>
            <AltitudeMeters>-8.3999996185302734375</AltitudeMeters>
            <DistanceMeters>NAN</DistanceMeters>
          </Trackpoint>
          <Trackpoint>
            <Time>2022-09-24T14:36:59.000Z</Time>
            <Position>
              <LatitudeDegrees>43.2319654338061809539794921875</LatitudeDegrees>
              <LongitudeDegrees>-2.8526250086724758148193359375</LongitudeDegrees>
            </Position>
            <AltitudeMeters>-7.80000019073486328125</AltitudeMeters>
            <DistanceMeters>NAN</DistanceMeters>
          </Trackpoint>
          <Trackpoint>
            <Time>2022-09-24T14:37:00.000Z</Time>
            <Position>
              <LatitudeDegrees>43.231986723840236663818359375</LatitudeDegrees>
              <LongitudeDegrees>-2.85251679830253124237060546875</LongitudeDegrees>
            </Position>
            <AltitudeMeters>-7.400000095367431640625</AltitudeMeters>
            <DistanceMeters>NAN</DistanceMeters>
          </Trackpoint>
          <Trackpoint>
            <Time>2022-09-24T14:37:01.000Z</Time>
            <Position>
              <LatitudeDegrees>43.23200994171202182769775390625</LatitudeDegrees>
              <LongitudeDegrees>-2.85240867175161838531494140625</LongitudeDegrees>
            </Position>
            <AltitudeMeters>-7.400000095367431640625</AltitudeMeters>
            <DistanceMeters>NAN</DistanceMeters>
          </Trackpoint>
          <Trackpoint>
            <Time>2022-09-24T14:37:02.000Z</Time>
            <Position>
              <LatitudeDegrees>43.23202922008931636810302734375</LatitudeDegrees>
              <LongitudeDegrees>-2.85229719243943691253662109375</LongitudeDegrees>
            </Position>
            <AltitudeMeters>-7.400000095367431640625</AltitudeMeters>
            <DistanceMeters>NAN</DistanceMeters>
          </Trackpoint>
          <Trackpoint>
            <Time>2022-09-24T14:37:03.000Z</Time>
            <Position>
              <LatitudeDegrees>43.23203776963055133819580078125</LatitudeDegrees>
              <LongitudeDegrees>-2.85218521021306514739990234375</LongitudeDegrees>
            </Position>
            <AltitudeMeters>-7.400000095367431640625</AltitudeMeters>
            <DistanceMeters>NAN</DistanceMeters>
          </Trackpoint>
          <Trackpoint>
            <Time>2022-09-24T14:37:04.000Z</Time>
            <Position>
              <LatitudeDegrees>43.232039697468280792236328125</LatitudeDegrees>
              <LongitudeDegrees>-2.85206803120672702789306640625</LongitudeDegrees>
            </Position>
            <AltitudeMeters>-7.400000095367431640625</AltitudeMeters>
            <DistanceMeters>NAN</DistanceMeters>
          </Trackpoint>
          <Trackpoint>
            <Time>2022-09-24T14:37:05.000Z</Time>
            <Position>
              <LatitudeDegrees>43.23204263113439083099365234375</LatitudeDegrees>
              <LongitudeDegrees>-2.85193224437534809112548828125</LongitudeDegrees>
            </Position>
            <AltitudeMeters>-7.400000095367431640625</AltitudeMeters>
            <DistanceMeters>NAN</DistanceMeters>
          </Trackpoint>
          <Trackpoint>
            <Time>2022-09-24T14:37:06.000Z</Time>
            <Position>
              <LatitudeDegrees>43.23203894309699535369873046875</LatitudeDegrees>
              <LongitudeDegrees>-2.8518052585422992706298828125</LongitudeDegrees>
            </Position>
            <AltitudeMeters>-7.400000095367431640625</AltitudeMeters>
            <DistanceMeters>NAN</DistanceMeters>
          </Trackpoint>
          <Trackpoint>
            <Time>2022-09-24T14:37:07.000Z</Time>
            <Position>
              <LatitudeDegrees>43.23203173466026782989501953125</LatitudeDegrees>
              <LongitudeDegrees>-2.85167827270925045013427734375</LongitudeDegrees>
            </Position>
            <AltitudeMeters>-7.400000095367431640625</AltitudeMeters>
            <DistanceMeters>NAN</DistanceMeters>
          </Trackpoint>
          <Trackpoint>
            <Time>2022-09-24T14:37:08.000Z</Time>
            <Position>
              <LatitudeDegrees>43.23201815597712993621826171875</LatitudeDegrees>
              <LongitudeDegrees>-2.85155631601810455322265625</LongitudeDegrees>
            </Position>
            <AltitudeMeters>-7.400000095367431640625</AltitudeMeters>
            <DistanceMeters>NAN</DistanceMeters>
          </Trackpoint>
          <Trackpoint>
            <Time>2022-09-24T14:37:09.000Z</Time>
            <Position>
              <LatitudeDegrees>43.231996782124042510986328125</LatitudeDegrees>
              <LongitudeDegrees>-2.851437963545322418212890625</LongitudeDegrees>
            </Position>
            <AltitudeMeters>-7.400000095367431640625</AltitudeMeters>
            <DistanceMeters>NAN</DistanceMeters>
          </Trackpoint>
          <Trackpoint>
            <Time>2022-09-24T14:37:10.000Z</Time>
            <Position>
              <LatitudeDegrees>43.23196828365325927734375</LatitudeDegrees>
              <LongitudeDegrees>-2.85132698714733123779296875</LongitudeDegrees>
            </Position>
            <AltitudeMeters>-7.400000095367431640625</AltitudeMeters>
            <DistanceMeters>NAN</DistanceMeters>
          </Trackpoint>
          <Trackpoint>
            <Time>2022-09-24T14:37:11.000Z</Time>
            <Position>
              <LatitudeDegrees>43.231930397450923919677734375</LatitudeDegrees>
              <LongitudeDegrees>-2.85122212953865528106689453125</LongitudeDegrees>
            </Position>
            <AltitudeMeters>-7.599999904632568359375</AltitudeMeters>
            <DistanceMeters>NAN</DistanceMeters>
          </Trackpoint>
          <Trackpoint>
            <Time>2022-09-24T14:37:12.000Z</Time>
            <Position>
              <LatitudeDegrees>43.23188974522054195404052734375</LatitudeDegrees>
              <LongitudeDegrees>-2.85111836157739162445068359375</LongitudeDegrees>
            </Position>
            <AltitudeMeters>-8.19999980926513671875</AltitudeMeters>
            <DistanceMeters>NAN</DistanceMeters>
          </Trackpoint>
          <Trackpoint>
            <Time>2022-09-24T14:37:13.000Z</Time>
            <Position>
              <LatitudeDegrees>43.231847584247589111328125</LatitudeDegrees>
              <LongitudeDegrees>-2.85101719200611114501953125</LongitudeDegrees>
            </Position>
            <AltitudeMeters>-9.6000003814697265625</AltitudeMeters>
            <DistanceMeters>NAN</DistanceMeters>
          </Trackpoint>
          <Trackpoint>
            <Time>2022-09-24T14:37:14.000Z</Time>
            <Position>
              <LatitudeDegrees>43.23179821483790874481201171875</LatitudeDegrees>
              <LongitudeDegrees>-2.8509194590151309967041015625</LongitudeDegrees>
            </Position>
            <AltitudeMeters>-10</AltitudeMeters>
            <DistanceMeters>NAN</DistanceMeters>
          </Trackpoint>
          <Trackpoint>
            <Time>2022-09-24T14:37:15.000Z</Time>
            <Position>
              <LatitudeDegrees>43.231748007237911224365234375</LatitudeDegrees>
              <LongitudeDegrees>-2.85082616843283176422119140625</LongitudeDegrees>
            </Position>
            <AltitudeMeters>-10</AltitudeMeters>
            <DistanceMeters>NAN</DistanceMeters>
          </Trackpoint>
          <Trackpoint>
            <Time>2022-09-24T14:37:16.000Z</Time>
            <Position>
              <LatitudeDegrees>43.23170014657080173492431640625</LatitudeDegrees>
              <LongitudeDegrees>-2.8507353924214839935302734375</LongitudeDegrees>
            </Position>
            <AltitudeMeters>-10</AltitudeMeters>
            <DistanceMeters>NAN</DistanceMeters>
          </Trackpoint>
          <Trackpoint>
            <Time>2022-09-24T14:37:17.000Z</Time>
            <Position>
              <LatitudeDegrees>43.2316569797694683074951171875</LatitudeDegrees>
              <LongitudeDegrees>-2.8506462089717388153076171875</LongitudeDegrees>
            </Position>
            <AltitudeMeters>-10.3999996185302734375</AltitudeMeters>
            <DistanceMeters>NAN</DistanceMeters>
          </Trackpoint>
          <Trackpoint>
            <Time>2022-09-24T14:37:18.000Z</Time>
            <Position>
              <LatitudeDegrees>43.23161247186362743377685546875</LatitudeDegrees>
              <LongitudeDegrees>-2.85055987536907196044921875</LongitudeDegrees>
            </Position>
            <AltitudeMeters>-10.3999996185302734375</AltitudeMeters>
            <DistanceMeters>NAN</DistanceMeters>
          </Trackpoint>
          <Trackpoint>
            <Time>2022-09-24T14:37:19.000Z</Time>
            <Position>
              <LatitudeDegrees>43.23156251572072505950927734375</LatitudeDegrees>
              <LongitudeDegrees>-2.85047513432800769805908203125</LongitudeDegrees>
            </Position>
            <AltitudeMeters>-10</AltitudeMeters>
            <DistanceMeters>NAN</DistanceMeters>
          </Trackpoint>
          <Trackpoint>
            <Time>2022-09-24T14:37:20.000Z</Time>
            <Position>
              <LatitudeDegrees>43.23150694370269775390625</LatitudeDegrees>
              <LongitudeDegrees>-2.850391902029514312744140625</LongitudeDegrees>
            </Position>
            <AltitudeMeters>-9.6000003814697265625</AltitudeMeters>
            <DistanceMeters>NAN</DistanceMeters>
          </Trackpoint>
          <Trackpoint>
            <Time>2022-09-24T14:37:21.000Z</Time>
            <Position>
              <LatitudeDegrees>43.23144516907632350921630859375</LatitudeDegrees>
              <LongitudeDegrees>-2.850308082997798919677734375</LongitudeDegrees>
            </Position>
            <AltitudeMeters>-9.3999996185302734375</AltitudeMeters>
            <DistanceMeters>NAN</DistanceMeters>
          </Trackpoint>
          <Trackpoint>
            <Time>2022-09-24T14:37:22.000Z</Time>
            <Position>
              <LatitudeDegrees>43.23138565756380558013916015625</LatitudeDegrees>
              <LongitudeDegrees>-2.85022099502384662628173828125</LongitudeDegrees>
            </Position>
            <AltitudeMeters>-9.19999980926513671875</AltitudeMeters>
            <DistanceMeters>NAN</DistanceMeters>
          </Trackpoint>
          <Trackpoint>
            <Time>2022-09-24T14:37:23.000Z</Time>
            <Position>
              <LatitudeDegrees>43.2313240505754947662353515625</LatitudeDegrees>
              <LongitudeDegrees>-2.8501362539827823638916015625</LongitudeDegrees>
            </Position>
            <AltitudeMeters>-9.19999980926513671875</AltitudeMeters>
            <DistanceMeters>NAN</DistanceMeters>
          </Trackpoint>
          <Trackpoint>
            <Time>2022-09-24T14:37:24.000Z</Time>
            <Position>
              <LatitudeDegrees>43.23125892318785190582275390625</LatitudeDegrees>
              <LongitudeDegrees>-2.85005821846425533294677734375</LongitudeDegrees>
            </Position>
            <AltitudeMeters>-9</AltitudeMeters>
            <DistanceMeters>NAN</DistanceMeters>
          </Trackpoint>
          <Trackpoint>
            <Time>2022-09-24T14:37:25.000Z</Time>
            <Position>
              <LatitudeDegrees>43.231205530464649200439453125</LatitudeDegrees>
              <LongitudeDegrees>-2.84998479299247264862060546875</LongitudeDegrees>
            </Position>
            <AltitudeMeters>-9.19999980926513671875</AltitudeMeters>
            <DistanceMeters>NAN</DistanceMeters>
          </Trackpoint>
          <Trackpoint>
            <Time>2022-09-24T14:37:26.000Z</Time>
            <Position>
              <LatitudeDegrees>43.2311523891985416412353515625</LatitudeDegrees>
              <LongitudeDegrees>-2.8499146364629268646240234375</LongitudeDegrees>
            </Position>
            <AltitudeMeters>-9.19999980926513671875</AltitudeMeters>
            <DistanceMeters>NAN</DistanceMeters>
          </Trackpoint>
          <Trackpoint>
            <Time>2022-09-24T14:37:27.000Z</Time>
            <Position>
              <LatitudeDegrees>43.23108784854412078857421875</LatitudeDegrees>
              <LongitudeDegrees>-2.8498425520956516265869140625</LongitudeDegrees>
            </Position>
            <AltitudeMeters>-9.19999980926513671875</AltitudeMeters>
            <DistanceMeters>NAN</DistanceMeters>
          </Trackpoint>
          <Trackpoint>
            <Time>2022-09-24T14:37:28.000Z</Time>
            <Position>
              <LatitudeDegrees>43.2310182787477970123291015625</LatitudeDegrees>
              <LongitudeDegrees>-2.849765606224536895751953125</LongitudeDegrees>
            </Position>
            <AltitudeMeters>-9.6000003814697265625</AltitudeMeters>
            <DistanceMeters>NAN</DistanceMeters>
          </Trackpoint>
          <Trackpoint>
            <Time>2022-09-24T14:37:29.000Z</Time>
            <Position>
              <LatitudeDegrees>43.2309468649327754974365234375</LatitudeDegrees>
              <LongitudeDegrees>-2.84968539141118526458740234375</LongitudeDegrees>
            </Position>
            <AltitudeMeters>-10</AltitudeMeters>
            <DistanceMeters>NAN</DistanceMeters>
          </Trackpoint>
          <Trackpoint>
            <Time>2022-09-24T14:37:30.000Z</Time>
            <Position>
              <LatitudeDegrees>43.23088022880256175994873046875</LatitudeDegrees>
              <LongitudeDegrees>-2.84961305558681488037109375</LongitudeDegrees>
            </Position>
            <AltitudeMeters>-10</AltitudeMeters>
            <DistanceMeters>NAN</DistanceMeters>
          </Trackpoint>
          <Trackpoint>
            <Time>2022-09-24T14:37:31.000Z</Time>
            <Position>
              <LatitudeDegrees>43.2308151014149188995361328125</LatitudeDegrees>
              <LongitudeDegrees>-2.8495506942272186279296875</LongitudeDegrees>
            </Position>
            <AltitudeMeters>-10.3999996185302734375</AltitudeMeters>
            <DistanceMeters>NAN</DistanceMeters>
          </Trackpoint>
          <Trackpoint>
            <Time>2022-09-24T14:37:32.000Z</Time>
            <Position>
              <LatitudeDegrees>43.23073572479188442230224609375</LatitudeDegrees>
              <LongitudeDegrees>-2.849481962621212005615234375</LongitudeDegrees>
            </Position>
            <AltitudeMeters>-10</AltitudeMeters>
            <DistanceMeters>NAN</DistanceMeters>
          </Trackpoint>
          <Trackpoint>
            <Time>2022-09-24T14:37:33.000Z</Time>
            <Position>
              <LatitudeDegrees>43.23066699318587779998779296875</LatitudeDegrees>
              <LongitudeDegrees>-2.84940786659717559814453125</LongitudeDegrees>
            </Position>
            <AltitudeMeters>-9.6000003814697265625</AltitudeMeters>
            <DistanceMeters>NAN</DistanceMeters>
          </Trackpoint>
          <Trackpoint>
            <Time>2022-09-24T14:37:34.000Z</Time>
            <Position>
              <LatitudeDegrees>43.2306005246937274932861328125</LatitudeDegrees>
              <LongitudeDegrees>-2.84933351911604404449462890625</LongitudeDegrees>
            </Position>
            <AltitudeMeters>-8.80000019073486328125</AltitudeMeters>
            <DistanceMeters>NAN</DistanceMeters>
          </Trackpoint>
          <Trackpoint>
            <Time>2022-09-24T14:37:35.000Z</Time>
            <Position>
              <LatitudeDegrees>43.23053665459156036376953125</LatitudeDegrees>
              <LongitudeDegrees>-2.84926009364426136016845703125</LongitudeDegrees>
            </Position>
            <AltitudeMeters>-8.80000019073486328125</AltitudeMeters>
            <DistanceMeters>NAN</DistanceMeters>
          </Trackpoint>
          <Trackpoint>
            <Time>2022-09-24T14:37:36.000Z</Time>
            <Position>
              <LatitudeDegrees>43.23047437705099582672119140625</LatitudeDegrees>
              <LongitudeDegrees>-2.849186249077320098876953125</LongitudeDegrees>
            </Position>
            <AltitudeMeters>-8.80000019073486328125</AltitudeMeters>
            <DistanceMeters>NAN</DistanceMeters>
          </Trackpoint>
          <Trackpoint>
            <Time>2022-09-24T14:37:37.000Z</Time>
            <Position>
              <LatitudeDegrees>43.23041318915784358978271484375</LatitudeDegrees>
              <LongitudeDegrees>-2.84911123104393482208251953125</LongitudeDegrees>
            </Position>
            <AltitudeMeters>-8.80000019073486328125</AltitudeMeters>
            <DistanceMeters>NAN</DistanceMeters>
          </Trackpoint>
          <Trackpoint>
            <Time>2022-09-24T14:37:38.000Z</Time>
            <Position>
              <LatitudeDegrees>43.23041318915784358978271484375</LatitudeDegrees>
              <LongitudeDegrees>-2.84911123104393482208251953125</LongitudeDegrees>
            </Position>
            <AltitudeMeters>-8.80000019073486328125</AltitudeMeters>
            <DistanceMeters>NAN</DistanceMeters>
          </Trackpoint>
          <Trackpoint>
            <Time>2022-09-24T14:37:39.000Z</Time>
            <Position>
              <LatitudeDegrees>43.23029123246669769287109375</LatitudeDegrees>
              <LongitudeDegrees>-2.84894828684628009796142578125</LongitudeDegrees>
            </Position>
            <AltitudeMeters>-9</AltitudeMeters>
            <DistanceMeters>NAN</DistanceMeters>
          </Trackpoint>
          <Trackpoint>
            <Time>2022-09-24T14:37:40.000Z</Time>
            <Position>
              <LatitudeDegrees>43.23021571151912212371826171875</LatitudeDegrees>
              <LongitudeDegrees>-2.8488692454993724822998046875</LongitudeDegrees>
            </Position>
            <AltitudeMeters>-9</AltitudeMeters>
            <DistanceMeters>NAN</DistanceMeters>
          </Trackpoint>
          <Trackpoint>
            <Time>2022-09-24T14:37:41.000Z</Time>
            <Position>
              <LatitudeDegrees>43.2301348261535167694091796875</LatitudeDegrees>
              <LongitudeDegrees>-2.8488001786172389984130859375</LongitudeDegrees>
            </Position>
            <AltitudeMeters>-9</AltitudeMeters>
            <DistanceMeters>NAN</DistanceMeters>
          </Trackpoint>
          <Trackpoint>
            <Time>2022-09-24T14:37:42.000Z</Time>
            <Position>
              <LatitudeDegrees>43.2300533540546894073486328125</LatitudeDegrees>
              <LongitudeDegrees>-2.84874133765697479248046875</LongitudeDegrees>
            </Position>
            <AltitudeMeters>-8.6000003814697265625</AltitudeMeters>
            <DistanceMeters>NAN</DistanceMeters>
          </Trackpoint>
          <Trackpoint>
            <Time>2022-09-24T14:37:43.000Z</Time>
            <Position>
              <LatitudeDegrees>43.22996509261429309844970703125</LatitudeDegrees>
              <LongitudeDegrees>-2.84868844784796237945556640625</LongitudeDegrees>
            </Position>
            <AltitudeMeters>-8.3999996185302734375</AltitudeMeters>
            <DistanceMeters>NAN</DistanceMeters>
          </Trackpoint>
          <Trackpoint>
            <Time>2022-09-24T14:37:44.000Z</Time>
            <Position>
              <LatitudeDegrees>43.229857385158538818359375</LatitudeDegrees>
              <LongitudeDegrees>-2.8486432693898677825927734375</LongitudeDegrees>
            </Position>
            <AltitudeMeters>-8.3999996185302734375</AltitudeMeters>
            <DistanceMeters>NAN</DistanceMeters>
          </Trackpoint>
          <Trackpoint>
            <Time>2022-09-24T14:37:45.000Z</Time>
            <Position>
              <LatitudeDegrees>43.2297536171972751617431640625</LatitudeDegrees>
              <LongitudeDegrees>-2.8486198000609874725341796875</LongitudeDegrees>
            </Position>
            <AltitudeMeters>-8</AltitudeMeters>
            <DistanceMeters>NAN</DistanceMeters>
          </Trackpoint>
          <Trackpoint>
            <Time>2022-09-24T14:37:46.000Z</Time>
            <Position>
              <LatitudeDegrees>43.2297536171972751617431640625</LatitudeDegrees>
              <LongitudeDegrees>-2.8486198000609874725341796875</LongitudeDegrees>
            </Position>
            <AltitudeMeters>-8</AltitudeMeters>
            <DistanceMeters>NAN</DistanceMeters>
          </Trackpoint>
          <Trackpoint>
            <Time>2022-09-24T14:37:47.000Z</Time>
            <Position>
              <LatitudeDegrees>43.2295866496860980987548828125</LatitudeDegrees>
              <LongitudeDegrees>-2.848579399287700653076171875</LongitudeDegrees>
            </Position>
            <AltitudeMeters>-8</AltitudeMeters>
            <DistanceMeters>NAN</DistanceMeters>
          </Trackpoint>
          <Trackpoint>
            <Time>2022-09-24T14:37:48.000Z</Time>
            <Position>
              <LatitudeDegrees>43.22952789254486560821533203125</LatitudeDegrees>
              <LongitudeDegrees>-2.8485393337905406951904296875</LongitudeDegrees>
            </Position>
            <AltitudeMeters>-8</AltitudeMeters>
            <DistanceMeters>NAN</DistanceMeters>
          </Trackpoint>
          <Trackpoint>
            <Time>2022-09-24T14:37:49.000Z</Time>
            <Position>
              <LatitudeDegrees>43.22947525419294834136962890625</LatitudeDegrees>
              <LongitudeDegrees>-2.84848392941057682037353515625</LongitudeDegrees>
            </Position>
            <AltitudeMeters>-7.599999904632568359375</AltitudeMeters>
            <DistanceMeters>NAN</DistanceMeters>
          </Trackpoint>
          <Trackpoint>
            <Time>2022-09-24T14:37:50.000Z</Time>
            <Position>
              <LatitudeDegrees>43.22943133302032947540283203125</LatitudeDegrees>
              <LongitudeDegrees>-2.8484149463474750518798828125</LongitudeDegrees>
            </Position>
            <AltitudeMeters>-7.400000095367431640625</AltitudeMeters>
            <DistanceMeters>NAN</DistanceMeters>
          </Trackpoint>
          <Trackpoint>
            <Time>2022-09-24T14:37:51.000Z</Time>
            <Position>
              <LatitudeDegrees>43.229383639991283416748046875</LatitudeDegrees>
              <LongitudeDegrees>-2.848342359066009521484375</LongitudeDegrees>
            </Position>
            <AltitudeMeters>-7.400000095367431640625</AltitudeMeters>
            <DistanceMeters>NAN</DistanceMeters>
          </Trackpoint>
          <Trackpoint>
            <Time>2022-09-24T14:37:52.000Z</Time>
            <Position>
              <LatitudeDegrees>43.229317925870418548583984375</LatitudeDegrees>
              <LongitudeDegrees>-2.8482982702553272247314453125</LongitudeDegrees>
            </Position>
            <AltitudeMeters>-7.400000095367431640625</AltitudeMeters>
            <DistanceMeters>NAN</DistanceMeters>
          </Trackpoint>
          <Trackpoint>
            <Time>2022-09-24T14:37:53.000Z</Time>
            <Position>
              <LatitudeDegrees>43.229252882301807403564453125</LatitudeDegrees>
              <LongitudeDegrees>-2.8482580371201038360595703125</LongitudeDegrees>
            </Position>
            <AltitudeMeters>-7.400000095367431640625</AltitudeMeters>
            <DistanceMeters>NAN</DistanceMeters>
          </Trackpoint>
          <Trackpoint>
            <Time>2022-09-24T14:37:54.000Z</Time>
            <Position>
              <LatitudeDegrees>43.22918708436191082000732421875</LatitudeDegrees>
              <LongitudeDegrees>-2.8482178039848804473876953125</LongitudeDegrees>
            </Position>
            <AltitudeMeters>-7.80000019073486328125</AltitudeMeters>
            <DistanceMeters>NAN</DistanceMeters>
          </Trackpoint>
          <Trackpoint>
            <Time>2022-09-24T14:37:55.000Z</Time>
            <Position>
              <LatitudeDegrees>43.2291192747652530670166015625</LatitudeDegrees>
              <LongitudeDegrees>-2.84817832522094249725341796875</LongitudeDegrees>
            </Position>
            <AltitudeMeters>-7.80000019073486328125</AltitudeMeters>
            <DistanceMeters>NAN</DistanceMeters>
          </Trackpoint>
          <Trackpoint>
            <Time>2022-09-24T14:37:56.000Z</Time>
            <Position>
              <LatitudeDegrees>43.2290502078831195831298828125</LatitudeDegrees>
              <LongitudeDegrees>-2.84814161248505115509033203125</LongitudeDegrees>
            </Position>
            <AltitudeMeters>-7.80000019073486328125</AltitudeMeters>
            <DistanceMeters>NAN</DistanceMeters>
          </Trackpoint>
          <Trackpoint>
            <Time>2022-09-24T14:37:57.000Z</Time>
            <Position>
              <LatitudeDegrees>43.2289751060307025909423828125</LatitudeDegrees>
              <LongitudeDegrees>-2.84810489974915981292724609375</LongitudeDegrees>
            </Position>
            <AltitudeMeters>-7.80000019073486328125</AltitudeMeters>
            <DistanceMeters>NAN</DistanceMeters>
          </Trackpoint>
          <Trackpoint>
            <Time>2022-09-24T14:37:58.000Z</Time>
            <Position>
              <LatitudeDegrees>43.228903524577617645263671875</LatitudeDegrees>
              <LongitudeDegrees>-2.84806718118488788604736328125</LongitudeDegrees>
            </Position>
            <AltitudeMeters>-7.19999980926513671875</AltitudeMeters>
            <DistanceMeters>NAN</DistanceMeters>
          </Trackpoint>
          <Trackpoint>
            <Time>2022-09-24T14:37:59.000Z</Time>
            <Position>
              <LatitudeDegrees>43.2288326136767864227294921875</LatitudeDegrees>
              <LongitudeDegrees>-2.84802560694515705108642578125</LongitudeDegrees>
            </Position>
            <AltitudeMeters>-7.19999980926513671875</AltitudeMeters>
            <DistanceMeters>NAN</DistanceMeters>
          </Trackpoint>
          <Trackpoint>
            <Time>2022-09-24T14:38:00.000Z</Time>
            <Position>
              <LatitudeDegrees>43.2287648878991603851318359375</LatitudeDegrees>
              <LongitudeDegrees>-2.84798361361026763916015625</LongitudeDegrees>
            </Position>
            <AltitudeMeters>-7.19999980926513671875</AltitudeMeters>
            <DistanceMeters>NAN</DistanceMeters>
          </Trackpoint>
          <Trackpoint>
            <Time>2022-09-24T14:38:01.000Z</Time>
            <Position>
              <LatitudeDegrees>43.2286974973976612091064453125</LatitudeDegrees>
              <LongitudeDegrees>-2.847944386303424835205078125</LongitudeDegrees>
            </Position>
            <AltitudeMeters>-7.19999980926513671875</AltitudeMeters>
            <DistanceMeters>NAN</DistanceMeters>
          </Trackpoint>
          <Trackpoint>
            <Time>2022-09-24T14:38:02.000Z</Time>
            <Position>
              <LatitudeDegrees>43.22862968780100345611572265625</LatitudeDegrees>
              <LongitudeDegrees>-2.84790054894983768463134765625</LongitudeDegrees>
            </Position>
            <AltitudeMeters>-7.19999980926513671875</AltitudeMeters>
            <DistanceMeters>NAN</DistanceMeters>
          </Trackpoint>
          <Trackpoint>
            <Time>2022-09-24T14:38:03.000Z</Time>
            <Position>
              <LatitudeDegrees>43.22856497950851917266845703125</LatitudeDegrees>
              <LongitudeDegrees>-2.84785612486302852630615234375</LongitudeDegrees>
            </Position>
            <AltitudeMeters>-7.400000095367431640625</AltitudeMeters>
            <DistanceMeters>NAN</DistanceMeters>
          </Trackpoint>
          <Trackpoint>
            <Time>2022-09-24T14:38:04.000Z</Time>
            <Position>
              <LatitudeDegrees>43.2285015285015106201171875</LatitudeDegrees>
              <LongitudeDegrees>-2.847812287509441375732421875</LongitudeDegrees>
            </Position>
            <AltitudeMeters>-7.400000095367431640625</AltitudeMeters>
            <DistanceMeters>NAN</DistanceMeters>
          </Trackpoint>
          <Trackpoint>
            <Time>2022-09-24T14:38:05.000Z</Time>
            <Position>
              <LatitudeDegrees>43.2284316234290599822998046875</LatitudeDegrees>
              <LongitudeDegrees>-2.84776425920426845550537109375</LongitudeDegrees>
            </Position>
            <AltitudeMeters>-7.400000095367431640625</AltitudeMeters>
            <DistanceMeters>NAN</DistanceMeters>
          </Trackpoint>
          <Trackpoint>
            <Time>2022-09-24T14:38:06.000Z</Time>
            <Position>
              <LatitudeDegrees>43.228356353938579559326171875</LatitudeDegrees>
              <LongitudeDegrees>-2.84771983511745929718017578125</LongitudeDegrees>
            </Position>
            <AltitudeMeters>-7.400000095367431640625</AltitudeMeters>
            <DistanceMeters>NAN</DistanceMeters>
          </Trackpoint>
          <Trackpoint>
            <Time>2022-09-24T14:38:07.000Z</Time>
            <Position>
              <LatitudeDegrees>43.228277899324893951416015625</LatitudeDegrees>
              <LongitudeDegrees>-2.8476811945438385009765625</LongitudeDegrees>
            </Position>
            <AltitudeMeters>-7.400000095367431640625</AltitudeMeters>
            <DistanceMeters>NAN</DistanceMeters>
          </Trackpoint>
          <Trackpoint>
            <Time>2022-09-24T14:38:08.000Z</Time>
            <Position>
              <LatitudeDegrees>43.22820137254893779754638671875</LatitudeDegrees>
              <LongitudeDegrees>-2.84763685427606105804443359375</LongitudeDegrees>
            </Position>
            <AltitudeMeters>-7.19999980926513671875</AltitudeMeters>
            <DistanceMeters>NAN</DistanceMeters>
          </Trackpoint>
          <Trackpoint>
            <Time>2022-09-24T14:38:09.000Z</Time>
            <Position>
              <LatitudeDegrees>43.2281335629522800445556640625</LatitudeDegrees>
              <LongitudeDegrees>-2.84759477712213993072509765625</LongitudeDegrees>
            </Position>
            <AltitudeMeters>-7.19999980926513671875</AltitudeMeters>
            <DistanceMeters>NAN</DistanceMeters>
          </Trackpoint>
          <Trackpoint>
            <Time>2022-09-24T14:38:10.000Z</Time>
            <Position>
              <LatitudeDegrees>43.22807178832590579986572265625</LatitudeDegrees>
              <LongitudeDegrees>-2.847560830414295196533203125</LongitudeDegrees>
            </Position>
            <AltitudeMeters>-7</AltitudeMeters>
            <DistanceMeters>NAN</DistanceMeters>
          </Trackpoint>
          <Trackpoint>
            <Time>2022-09-24T14:38:11.000Z</Time>
            <Position>
              <LatitudeDegrees>43.2280080020427703857421875</LatitudeDegrees>
              <LongitudeDegrees>-2.8475291468203067779541015625</LongitudeDegrees>
            </Position>
            <AltitudeMeters>-6.80000019073486328125</AltitudeMeters>
            <DistanceMeters>NAN</DistanceMeters>
          </Trackpoint>
          <Trackpoint>
            <Time>2022-09-24T14:38:12.000Z</Time>
            <Position>
              <LatitudeDegrees>43.227943293750286102294921875</LatitudeDegrees>
              <LongitudeDegrees>-2.84749235026538372039794921875</LongitudeDegrees>
            </Position>
            <AltitudeMeters>-6.599999904632568359375</AltitudeMeters>
            <DistanceMeters>NAN</DistanceMeters>
          </Trackpoint>
          <Trackpoint>
            <Time>2022-09-24T14:38:13.000Z</Time>
            <Position>
              <LatitudeDegrees>43.2278670184314250946044921875</LatitudeDegrees>
              <LongitudeDegrees>-2.847453542053699493408203125</LongitudeDegrees>
            </Position>
            <AltitudeMeters>-6.599999904632568359375</AltitudeMeters>
            <DistanceMeters>NAN</DistanceMeters>
          </Trackpoint>
          <Trackpoint>
            <Time>2022-09-24T14:38:14.000Z</Time>
            <Position>
              <LatitudeDegrees>43.22780893184244632720947265625</LatitudeDegrees>
              <LongitudeDegrees>-2.84741758368909358978271484375</LongitudeDegrees>
            </Position>
            <AltitudeMeters>-6.599999904632568359375</AltitudeMeters>
            <DistanceMeters>NAN</DistanceMeters>
          </Trackpoint>
          <Trackpoint>
            <Time>2022-09-24T14:38:15.000Z</Time>
            <Position>
              <LatitudeDegrees>43.2277396135032176971435546875</LatitudeDegrees>
              <LongitudeDegrees>-2.8473739139735698699951171875</LongitudeDegrees>
            </Position>
            <AltitudeMeters>-6.599999904632568359375</AltitudeMeters>
            <DistanceMeters>NAN</DistanceMeters>
          </Trackpoint>
          <Trackpoint>
            <Time>2022-09-24T14:38:16.000Z</Time>
            <Position>
              <LatitudeDegrees>43.22765872813761234283447265625</LatitudeDegrees>
              <LongitudeDegrees>-2.84731616266071796417236328125</LongitudeDegrees>
            </Position>
            <AltitudeMeters>-6.599999904632568359375</AltitudeMeters>
            <DistanceMeters>NAN</DistanceMeters>
          </Trackpoint>
          <Trackpoint>
            <Time>2022-09-24T14:38:17.000Z</Time>
            <Position>
              <LatitudeDegrees>43.22759267874062061309814453125</LatitudeDegrees>
              <LongitudeDegrees>-2.8472696430981159210205078125</LongitudeDegrees>
            </Position>
            <AltitudeMeters>-6.599999904632568359375</AltitudeMeters>
            <DistanceMeters>NAN</DistanceMeters>
          </Trackpoint>
          <Trackpoint>
            <Time>2022-09-24T14:38:18.000Z</Time>
            <Position>
              <LatitudeDegrees>43.22752143256366252899169921875</LatitudeDegrees>
              <LongitudeDegrees>-2.8472143225371837615966796875</LongitudeDegrees>
            </Position>
            <AltitudeMeters>-6.599999904632568359375</AltitudeMeters>
            <DistanceMeters>NAN</DistanceMeters>
          </Trackpoint>
          <Trackpoint>
            <Time>2022-09-24T14:38:19.000Z</Time>
            <Position>
              <LatitudeDegrees>43.22745320387184619903564453125</LatitudeDegrees>
              <LongitudeDegrees>-2.847156822681427001953125</LongitudeDegrees>
            </Position>
            <AltitudeMeters>-6.599999904632568359375</AltitudeMeters>
            <DistanceMeters>NAN</DistanceMeters>
          </Trackpoint>
          <Trackpoint>
            <Time>2022-09-24T14:38:20.000Z</Time>
            <Position>
              <LatitudeDegrees>43.227385394275188446044921875</LatitudeDegrees>
              <LongitudeDegrees>-2.84710259176790714263916015625</LongitudeDegrees>
            </Position>
            <AltitudeMeters>-6.19999980926513671875</AltitudeMeters>
            <DistanceMeters>NAN</DistanceMeters>
          </Trackpoint>
          <Trackpoint>
            <Time>2022-09-24T14:38:21.000Z</Time>
            <Position>
              <LatitudeDegrees>43.227315656840801239013671875</LatitudeDegrees>
              <LongitudeDegrees>-2.8470574133098125457763671875</LongitudeDegrees>
            </Position>
            <AltitudeMeters>-6.19999980926513671875</AltitudeMeters>
            <DistanceMeters>NAN</DistanceMeters>
          </Trackpoint>
          <Trackpoint>
            <Time>2022-09-24T14:38:22.000Z</Time>
            <Position>
              <LatitudeDegrees>43.22724332101643085479736328125</LatitudeDegrees>
              <LongitudeDegrees>-2.8470168448984622955322265625</LongitudeDegrees>
            </Position>
            <AltitudeMeters>-6</AltitudeMeters>
            <DistanceMeters>NAN</DistanceMeters>
          </Trackpoint>
          <Trackpoint>
            <Time>2022-09-24T14:38:23.000Z</Time>
            <Position>
              <LatitudeDegrees>43.22716637514531612396240234375</LatitudeDegrees>
              <LongitudeDegrees>-2.84696328453719615936279296875</LongitudeDegrees>
            </Position>
            <AltitudeMeters>-6</AltitudeMeters>
            <DistanceMeters>NAN</DistanceMeters>
          </Trackpoint>
          <Trackpoint>
            <Time>2022-09-24T14:38:24.000Z</Time>
            <Position>
              <LatitudeDegrees>43.22709965519607067108154296875</LatitudeDegrees>
              <LongitudeDegrees>-2.84691215492784976959228515625</LongitudeDegrees>
            </Position>
            <AltitudeMeters>-6</AltitudeMeters>
            <DistanceMeters>NAN</DistanceMeters>
          </Trackpoint>
          <Trackpoint>
            <Time>2022-09-24T14:38:25.000Z</Time>
            <Position>
              <LatitudeDegrees>43.22704450227320194244384765625</LatitudeDegrees>
              <LongitudeDegrees>-2.84685884602367877960205078125</LongitudeDegrees>
            </Position>
            <AltitudeMeters>-6</AltitudeMeters>
            <DistanceMeters>NAN</DistanceMeters>
          </Trackpoint>
          <Trackpoint>
            <Time>2022-09-24T14:38:26.000Z</Time>
            <Position>
              <LatitudeDegrees>43.22704450227320194244384765625</LatitudeDegrees>
              <LongitudeDegrees>-2.84685884602367877960205078125</LongitudeDegrees>
            </Position>
            <AltitudeMeters>-5.400000095367431640625</AltitudeMeters>
            <DistanceMeters>NAN</DistanceMeters>
          </Trackpoint>
          <Trackpoint>
            <Time>2022-09-24T14:38:27.000Z</Time>
            <Position>
              <LatitudeDegrees>43.22691760025918483734130859375</LatitudeDegrees>
              <LongitudeDegrees>-2.84676195122301578521728515625</LongitudeDegrees>
            </Position>
            <AltitudeMeters>-5.400000095367431640625</AltitudeMeters>
            <DistanceMeters>NAN</DistanceMeters>
          </Trackpoint>
          <Trackpoint>
            <Time>2022-09-24T14:38:28.000Z</Time>
            <Position>
              <LatitudeDegrees>43.2268524728715419769287109375</LatitudeDegrees>
              <LongitudeDegrees>-2.8467129170894622802734375</LongitudeDegrees>
            </Position>
            <AltitudeMeters>-5.400000095367431640625</AltitudeMeters>
            <DistanceMeters>NAN</DistanceMeters>
          </Trackpoint>
          <Trackpoint>
            <Time>2022-09-24T14:38:29.000Z</Time>
            <Position>
              <LatitudeDegrees>43.2267849147319793701171875</LatitudeDegrees>
              <LongitudeDegrees>-2.84666237421333789825439453125</LongitudeDegrees>
            </Position>
            <AltitudeMeters>-5</AltitudeMeters>
            <DistanceMeters>NAN</DistanceMeters>
          </Trackpoint>
          <Trackpoint>
            <Time>2022-09-24T14:38:30.000Z</Time>
            <Position>
              <LatitudeDegrees>43.22672967799007892608642578125</LatitudeDegrees>
              <LongitudeDegrees>-2.84660940058529376983642578125</LongitudeDegrees>
            </Position>
            <AltitudeMeters>-5</AltitudeMeters>
            <DistanceMeters>NAN</DistanceMeters>
          </Trackpoint>
          <Trackpoint>
            <Time>2022-09-24T14:38:31.000Z</Time>
            <Position>
              <LatitudeDegrees>43.2266824878752231597900390625</LatitudeDegrees>
              <LongitudeDegrees>-2.8465565107762813568115234375</LongitudeDegrees>
            </Position>
            <AltitudeMeters>-5</AltitudeMeters>
            <DistanceMeters>NAN</DistanceMeters>
          </Trackpoint>
          <Trackpoint>
            <Time>2022-09-24T14:38:32.000Z</Time>
            <Position>
              <LatitudeDegrees>43.22663932107388973236083984375</LatitudeDegrees>
              <LongitudeDegrees>-2.84650227986276149749755859375</LongitudeDegrees>
            </Position>
            <AltitudeMeters>-5</AltitudeMeters>
            <DistanceMeters>NAN</DistanceMeters>
          </Trackpoint>
          <Trackpoint>
            <Time>2022-09-24T14:38:33.000Z</Time>
            <Position>
              <LatitudeDegrees>43.22658835910260677337646484375</LatitudeDegrees>
              <LongitudeDegrees>-2.84644343890249729156494140625</LongitudeDegrees>
            </Position>
            <AltitudeMeters>-5</AltitudeMeters>
            <DistanceMeters>NAN</DistanceMeters>
          </Trackpoint>
          <Trackpoint>
            <Time>2022-09-24T14:38:34.000Z</Time>
            <Position>
              <LatitudeDegrees>43.22654209099709987640380859375</LatitudeDegrees>
              <LongitudeDegrees>-2.84638627432286739349365234375</LongitudeDegrees>
            </Position>
            <AltitudeMeters>-5</AltitudeMeters>
            <DistanceMeters>NAN</DistanceMeters>
          </Trackpoint>
          <Trackpoint>
            <Time>2022-09-24T14:38:35.000Z</Time>
            <Position>
              <LatitudeDegrees>43.2264987565577030181884765625</LatitudeDegrees>
              <LongitudeDegrees>-2.84632508642971515655517578125</LongitudeDegrees>
            </Position>
            <AltitudeMeters>-5</AltitudeMeters>
            <DistanceMeters>NAN</DistanceMeters>
          </Trackpoint>
          <Trackpoint>
            <Time>2022-09-24T14:38:36.000Z</Time>
            <Position>
              <LatitudeDegrees>43.22645341046154499053955078125</LatitudeDegrees>
              <LongitudeDegrees>-2.84625736065208911895751953125</LongitudeDegrees>
            </Position>
            <AltitudeMeters>-4.80000019073486328125</AltitudeMeters>
            <DistanceMeters>NAN</DistanceMeters>
          </Trackpoint>
          <Trackpoint>
            <Time>2022-09-24T14:38:37.000Z</Time>
            <Position>
              <LatitudeDegrees>43.22640965692698955535888671875</LatitudeDegrees>
              <LongitudeDegrees>-2.84617890603840351104736328125</LongitudeDegrees>
            </Position>
            <AltitudeMeters>-4.80000019073486328125</AltitudeMeters>
            <DistanceMeters>NAN</DistanceMeters>
          </Trackpoint>
          <Trackpoint>
            <Time>2022-09-24T14:38:38.000Z</Time>
            <Position>
              <LatitudeDegrees>43.22636590339243412017822265625</LatitudeDegrees>
              <LongitudeDegrees>-2.8460965119302272796630859375</LongitudeDegrees>
            </Position>
            <AltitudeMeters>-4.80000019073486328125</AltitudeMeters>
            <DistanceMeters>NAN</DistanceMeters>
          </Trackpoint>
          <Trackpoint>
            <Time>2022-09-24T14:38:39.000Z</Time>
            <Position>
              <LatitudeDegrees>43.2263289391994476318359375</LatitudeDegrees>
              <LongitudeDegrees>-2.846011184155941009521484375</LongitudeDegrees>
            </Position>
            <AltitudeMeters>-4.80000019073486328125</AltitudeMeters>
            <DistanceMeters>NAN</DistanceMeters>
          </Trackpoint>
          <Trackpoint>
            <Time>2022-09-24T14:38:40.000Z</Time>
            <Position>
              <LatitudeDegrees>43.2262967526912689208984375</LatitudeDegrees>
              <LongitudeDegrees>-2.8459168039262294769287109375</LongitudeDegrees>
            </Position>
            <AltitudeMeters>-5</AltitudeMeters>
            <DistanceMeters>NAN</DistanceMeters>
          </Trackpoint>
          <Trackpoint>
            <Time>2022-09-24T14:38:41.000Z</Time>
            <Position>
              <LatitudeDegrees>43.2262694276869297027587890625</LatitudeDegrees>
              <LongitudeDegrees>-2.845823429524898529052734375</LongitudeDegrees>
            </Position>
            <AltitudeMeters>-5</AltitudeMeters>
            <DistanceMeters>NAN</DistanceMeters>
          </Trackpoint>
          <Trackpoint>
            <Time>2022-09-24T14:38:42.000Z</Time>
            <Position>
              <LatitudeDegrees>43.2262385822832584381103515625</LatitudeDegrees>
              <LongitudeDegrees>-2.8457300551235675811767578125</LongitudeDegrees>
            </Position>
            <AltitudeMeters>-5</AltitudeMeters>
            <DistanceMeters>NAN</DistanceMeters>
          </Trackpoint>
          <Trackpoint>
            <Time>2022-09-24T14:38:43.000Z</Time>
            <Position>
              <LatitudeDegrees>43.2262017019093036651611328125</LatitudeDegrees>
              <LongitudeDegrees>-2.8456319868564605712890625</LongitudeDegrees>
            </Position>
            <AltitudeMeters>-5.19999980926513671875</AltitudeMeters>
            <DistanceMeters>NAN</DistanceMeters>
          </Trackpoint>
          <Trackpoint>
            <Time>2022-09-24T14:38:44.000Z</Time>
            <Position>
              <LatitudeDegrees>43.226171024143695831298828125</LatitudeDegrees>
              <LongitudeDegrees>-2.84553450532257556915283203125</LongitudeDegrees>
            </Position>
            <AltitudeMeters>-5.19999980926513671875</AltitudeMeters>
            <DistanceMeters>NAN</DistanceMeters>
          </Trackpoint>
          <Trackpoint>
            <Time>2022-09-24T14:38:45.000Z</Time>
            <Position>
              <LatitudeDegrees>43.2261519134044647216796875</LatitudeDegrees>
              <LongitudeDegrees>-2.8454319946467876434326171875</LongitudeDegrees>
            </Position>
            <AltitudeMeters>-5</AltitudeMeters>
            <DistanceMeters>NAN</DistanceMeters>
          </Trackpoint>
          <Trackpoint>
            <Time>2022-09-24T14:38:46.000Z</Time>
            <Position>
              <LatitudeDegrees>43.22613556869328022003173828125</LatitudeDegrees>
              <LongitudeDegrees>-2.84532479010522365570068359375</LongitudeDegrees>
            </Position>
            <AltitudeMeters>-5.19999980926513671875</AltitudeMeters>
            <DistanceMeters>NAN</DistanceMeters>
          </Trackpoint>
          <Trackpoint>
            <Time>2022-09-24T14:38:47.000Z</Time>
            <Position>
              <LatitudeDegrees>43.22612014599144458770751953125</LatitudeDegrees>
              <LongitudeDegrees>-2.84521733410656452178955078125</LongitudeDegrees>
            </Position>
            <AltitudeMeters>-5.19999980926513671875</AltitudeMeters>
            <DistanceMeters>NAN</DistanceMeters>
          </Trackpoint>
          <Trackpoint>
            <Time>2022-09-24T14:38:48.000Z</Time>
            <Position>
              <LatitudeDegrees>43.22610824368894100189208984375</LatitudeDegrees>
              <LongitudeDegrees>-2.84511038102209568023681640625</LongitudeDegrees>
            </Position>
            <AltitudeMeters>-5.19999980926513671875</AltitudeMeters>
            <DistanceMeters>NAN</DistanceMeters>
          </Trackpoint>
          <Trackpoint>
            <Time>2022-09-24T14:38:49.000Z</Time>
            <Position>
              <LatitudeDegrees>43.22610162198543548583984375</LatitudeDegrees>
              <LongitudeDegrees>-2.84499890170991420745849609375</LongitudeDegrees>
            </Position>
            <AltitudeMeters>-5.400000095367431640625</AltitudeMeters>
            <DistanceMeters>NAN</DistanceMeters>
          </Trackpoint>
          <Trackpoint>
            <Time>2022-09-24T14:38:50.000Z</Time>
            <Position>
              <LatitudeDegrees>43.2260967604815959930419921875</LatitudeDegrees>
              <LongitudeDegrees>-2.8448908589780330657958984375</LongitudeDegrees>
            </Position>
            <AltitudeMeters>-5.400000095367431640625</AltitudeMeters>
            <DistanceMeters>NAN</DistanceMeters>
          </Trackpoint>
          <Trackpoint>
            <Time>2022-09-24T14:38:51.000Z</Time>
            <Position>
              <LatitudeDegrees>43.2260940782725811004638671875</LatitudeDegrees>
              <LongitudeDegrees>-2.8447802178561687469482421875</LongitudeDegrees>
            </Position>
            <AltitudeMeters>-5.400000095367431640625</AltitudeMeters>
            <DistanceMeters>NAN</DistanceMeters>
          </Trackpoint>
          <Trackpoint>
            <Time>2022-09-24T14:38:52.000Z</Time>
            <Position>
              <LatitudeDegrees>43.226095922291278839111328125</LatitudeDegrees>
              <LongitudeDegrees>-2.84466647543013095855712890625</LongitudeDegrees>
            </Position>
            <AltitudeMeters>-5.400000095367431640625</AltitudeMeters>
            <DistanceMeters>NAN</DistanceMeters>
          </Trackpoint>
          <Trackpoint>
            <Time>2022-09-24T14:38:53.000Z</Time>
            <Position>
              <LatitudeDegrees>43.2260982692241668701171875</LatitudeDegrees>
              <LongitudeDegrees>-2.84455114044249057769775390625</LongitudeDegrees>
            </Position>
            <AltitudeMeters>-5.599999904632568359375</AltitudeMeters>
            <DistanceMeters>NAN</DistanceMeters>
          </Trackpoint>
          <Trackpoint>
            <Time>2022-09-24T14:38:54.000Z</Time>
            <Position>
              <LatitudeDegrees>43.226104639470577239990234375</LatitudeDegrees>
              <LongitudeDegrees>-2.844438739120960235595703125</LongitudeDegrees>
            </Position>
            <AltitudeMeters>-5.599999904632568359375</AltitudeMeters>
            <DistanceMeters>NAN</DistanceMeters>
          </Trackpoint>
          <Trackpoint>
            <Time>2022-09-24T14:38:55.000Z</Time>
            <Position>
              <LatitudeDegrees>43.22611444629728794097900390625</LatitudeDegrees>
              <LongitudeDegrees>-2.84432918764650821685791015625</LongitudeDegrees>
            </Position>
            <AltitudeMeters>-6</AltitudeMeters>
            <DistanceMeters>NAN</DistanceMeters>
          </Trackpoint>
          <Trackpoint>
            <Time>2022-09-24T14:38:56.000Z</Time>
            <Position>
              <LatitudeDegrees>43.22613171301782131195068359375</LatitudeDegrees>
              <LongitudeDegrees>-2.84421854652464389801025390625</LongitudeDegrees>
            </Position>
            <AltitudeMeters>-6.400000095367431640625</AltitudeMeters>
            <DistanceMeters>NAN</DistanceMeters>
          </Trackpoint>
          <Trackpoint>
            <Time>2022-09-24T14:38:57.000Z</Time>
            <Position>
              <LatitudeDegrees>43.2261490635573863983154296875</LatitudeDegrees>
              <LongitudeDegrees>-2.8441089950501918792724609375</LongitudeDegrees>
            </Position>
            <AltitudeMeters>-6</AltitudeMeters>
            <DistanceMeters>NAN</DistanceMeters>
          </Trackpoint>
          <Trackpoint>
            <Time>2022-09-24T14:38:58.000Z</Time>
            <Position>
              <LatitudeDegrees>43.22616859339177608489990234375</LatitudeDegrees>
              <LongitudeDegrees>-2.8439923189580440521240234375</LongitudeDegrees>
            </Position>
            <AltitudeMeters>-6.400000095367431640625</AltitudeMeters>
            <DistanceMeters>NAN</DistanceMeters>
          </Trackpoint>
          <Trackpoint>
            <Time>2022-09-24T14:38:59.000Z</Time>
            <Position>
              <LatitudeDegrees>43.226188458502292633056640625</LatitudeDegrees>
              <LongitudeDegrees>-2.843878827989101409912109375</LongitudeDegrees>
            </Position>
            <AltitudeMeters>-6</AltitudeMeters>
            <DistanceMeters>NAN</DistanceMeters>
          </Trackpoint>
          <Trackpoint>
            <Time>2022-09-24T14:39:00.000Z</Time>
            <Position>
              <LatitudeDegrees>43.22620798833668231964111328125</LatitudeDegrees>
              <LongitudeDegrees>-2.843767516314983367919921875</LongitudeDegrees>
            </Position>
            <AltitudeMeters>-6.19999980926513671875</AltitudeMeters>
            <DistanceMeters>NAN</DistanceMeters>
          </Trackpoint>
          <Trackpoint>
            <Time>2022-09-24T14:39:01.000Z</Time>
            <Position>
              <LatitudeDegrees>43.22622760199010372161865234375</LatitudeDegrees>
              <LongitudeDegrees>-2.84365444444119930267333984375</LongitudeDegrees>
            </Position>
            <AltitudeMeters>-6.400000095367431640625</AltitudeMeters>
            <DistanceMeters>NAN</DistanceMeters>
          </Trackpoint>
          <Trackpoint>
            <Time>2022-09-24T14:39:02.000Z</Time>
            <Position>
              <LatitudeDegrees>43.2262466289103031158447265625</LatitudeDegrees>
              <LongitudeDegrees>-2.84354128874838352203369140625</LongitudeDegrees>
            </Position>
            <AltitudeMeters>-6.19999980926513671875</AltitudeMeters>
            <DistanceMeters>NAN</DistanceMeters>
          </Trackpoint>
          <Trackpoint>
            <Time>2022-09-24T14:39:03.000Z</Time>
            <Position>
              <LatitudeDegrees>43.22626666165888309478759765625</LatitudeDegrees>
              <LongitudeDegrees>-2.84342628903687000274658203125</LongitudeDegrees>
            </Position>
            <AltitudeMeters>-6</AltitudeMeters>
            <DistanceMeters>NAN</DistanceMeters>
          </Trackpoint>
          <Trackpoint>
            <Time>2022-09-24T14:39:04.000Z</Time>
            <Position>
              <LatitudeDegrees>43.22626666165888309478759765625</LatitudeDegrees>
              <LongitudeDegrees>-2.84342628903687000274658203125</LongitudeDegrees>
            </Position>
            <AltitudeMeters>-6</AltitudeMeters>
            <DistanceMeters>NAN</DistanceMeters>
          </Trackpoint>
          <Trackpoint>
            <Time>2022-09-24T14:39:05.000Z</Time>
            <Position>
              <LatitudeDegrees>43.22631007991731166839599609375</LatitudeDegrees>
              <LongitudeDegrees>-2.84316913224756717681884765625</LongitudeDegrees>
            </Position>
            <AltitudeMeters>-6</AltitudeMeters>
            <DistanceMeters>NAN</DistanceMeters>
          </Trackpoint>
          <Trackpoint>
            <Time>2022-09-24T14:39:06.000Z</Time>
            <Position>
              <LatitudeDegrees>43.2263314537703990936279296875</LatitudeDegrees>
              <LongitudeDegrees>-2.8430545516312122344970703125</LongitudeDegrees>
            </Position>
            <AltitudeMeters>-6</AltitudeMeters>
            <DistanceMeters>NAN</DistanceMeters>
          </Trackpoint>
          <Trackpoint>
            <Time>2022-09-24T14:39:07.000Z</Time>
            <Position>
              <LatitudeDegrees>43.2263539172708988189697265625</LatitudeDegrees>
              <LongitudeDegrees>-2.8429365344345569610595703125</LongitudeDegrees>
            </Position>
            <AltitudeMeters>-6</AltitudeMeters>
            <DistanceMeters>NAN</DistanceMeters>
          </Trackpoint>
          <Trackpoint>
            <Time>2022-09-24T14:39:08.000Z</Time>
            <Position>
              <LatitudeDegrees>43.22637227363884449005126953125</LatitudeDegrees>
              <LongitudeDegrees>-2.84284307621419429779052734375</LongitudeDegrees>
            </Position>
            <AltitudeMeters>-6</AltitudeMeters>
            <DistanceMeters>NAN</DistanceMeters>
          </Trackpoint>
          <Trackpoint>
            <Time>2022-09-24T14:39:09.000Z</Time>
            <Position>
              <LatitudeDegrees>43.22639205493032932281494140625</LatitudeDegrees>
              <LongitudeDegrees>-2.8427293337881565093994140625</LongitudeDegrees>
            </Position>
            <AltitudeMeters>-6</AltitudeMeters>
            <DistanceMeters>NAN</DistanceMeters>
          </Trackpoint>
          <Trackpoint>
            <Time>2022-09-24T14:39:10.000Z</Time>
            <Position>
              <LatitudeDegrees>43.22641007602214813232421875</LatitudeDegrees>
              <LongitudeDegrees>-2.84261793829500675201416015625</LongitudeDegrees>
            </Position>
            <AltitudeMeters>-6</AltitudeMeters>
            <DistanceMeters>NAN</DistanceMeters>
          </Trackpoint>
          <Trackpoint>
            <Time>2022-09-24T14:39:11.000Z</Time>
            <Position>
              <LatitudeDegrees>43.22643094696104526519775390625</LatitudeDegrees>
              <LongitudeDegrees>-2.84248298965394496917724609375</LongitudeDegrees>
            </Position>
            <AltitudeMeters>-5.80000019073486328125</AltitudeMeters>
            <DistanceMeters>NAN</DistanceMeters>
          </Trackpoint>
          <Trackpoint>
            <Time>2022-09-24T14:39:12.000Z</Time>
            <Position>
              <LatitudeDegrees>43.226453326642513275146484375</LatitudeDegrees>
              <LongitudeDegrees>-2.84236765466630458831787109375</LongitudeDegrees>
            </Position>
            <AltitudeMeters>-5.80000019073486328125</AltitudeMeters>
            <DistanceMeters>NAN</DistanceMeters>
          </Trackpoint>
          <Trackpoint>
            <Time>2022-09-24T14:39:13.000Z</Time>
            <Position>
              <LatitudeDegrees>43.22647310793399810791015625</LatitudeDegrees>
              <LongitudeDegrees>-2.842274866998195648193359375</LongitudeDegrees>
            </Position>
            <AltitudeMeters>-5.80000019073486328125</AltitudeMeters>
            <DistanceMeters>NAN</DistanceMeters>
          </Trackpoint>
          <Trackpoint>
            <Time>2022-09-24T14:39:14.000Z</Time>
            <Position>
              <LatitudeDegrees>43.22649783454835414886474609375</LatitudeDegrees>
              <LongitudeDegrees>-2.84214084036648273468017578125</LongitudeDegrees>
            </Position>
            <AltitudeMeters>-5.80000019073486328125</AltitudeMeters>
            <DistanceMeters>NAN</DistanceMeters>
          </Trackpoint>
          <Trackpoint>
            <Time>2022-09-24T14:39:15.000Z</Time>
            <Position>
              <LatitudeDegrees>43.22649783454835414886474609375</LatitudeDegrees>
              <LongitudeDegrees>-2.84214084036648273468017578125</LongitudeDegrees>
            </Position>
            <AltitudeMeters>-5.599999904632568359375</AltitudeMeters>
            <DistanceMeters>NAN</DistanceMeters>
          </Trackpoint>
          <Trackpoint>
            <Time>2022-09-24T14:39:16.000Z</Time>
            <Position>
              <LatitudeDegrees>43.22654309682548046112060546875</LatitudeDegrees>
              <LongitudeDegrees>-2.84192190505564212799072265625</LongitudeDegrees>
            </Position>
            <AltitudeMeters>-5.599999904632568359375</AltitudeMeters>
            <DistanceMeters>NAN</DistanceMeters>
          </Trackpoint>
          <Trackpoint>
            <Time>2022-09-24T14:39:17.000Z</Time>
            <Position>
              <LatitudeDegrees>43.22656036354601383209228515625</LatitudeDegrees>
              <LongitudeDegrees>-2.8418374992907047271728515625</LongitudeDegrees>
            </Position>
            <AltitudeMeters>-5.599999904632568359375</AltitudeMeters>
            <DistanceMeters>NAN</DistanceMeters>
          </Trackpoint>
          <Trackpoint>
            <Time>2022-09-24T14:39:18.000Z</Time>
            <Position>
              <LatitudeDegrees>43.22657913900911808013916015625</LatitudeDegrees>
              <LongitudeDegrees>-2.84173046238720417022705078125</LongitudeDegrees>
            </Position>
            <AltitudeMeters>-5.599999904632568359375</AltitudeMeters>
            <DistanceMeters>NAN</DistanceMeters>
          </Trackpoint>
          <Trackpoint>
            <Time>2022-09-24T14:39:19.000Z</Time>
            <Position>
              <LatitudeDegrees>43.22659824974834918975830078125</LatitudeDegrees>
              <LongitudeDegrees>-2.84162183292210102081298828125</LongitudeDegrees>
            </Position>
            <AltitudeMeters>-5.599999904632568359375</AltitudeMeters>
            <DistanceMeters>NAN</DistanceMeters>
          </Trackpoint>
          <Trackpoint>
            <Time>2022-09-24T14:39:20.000Z</Time>
            <Position>
              <LatitudeDegrees>43.22661719284951686859130859375</LatitudeDegrees>
              <LongitudeDegrees>-2.84151504747569561004638671875</LongitudeDegrees>
            </Position>
            <AltitudeMeters>-5.599999904632568359375</AltitudeMeters>
            <DistanceMeters>NAN</DistanceMeters>
          </Trackpoint>
          <Trackpoint>
            <Time>2022-09-24T14:39:21.000Z</Time>
            <Position>
              <LatitudeDegrees>43.2266419194638729095458984375</LatitudeDegrees>
              <LongitudeDegrees>-2.84139066003262996673583984375</LongitudeDegrees>
            </Position>
            <AltitudeMeters>-5.400000095367431640625</AltitudeMeters>
            <DistanceMeters>NAN</DistanceMeters>
          </Trackpoint>
          <Trackpoint>
            <Time>2022-09-24T14:39:22.000Z</Time>
            <Position>
              <LatitudeDegrees>43.2266570068895816802978515625</LatitudeDegrees>
              <LongitudeDegrees>-2.841309607028961181640625</LongitudeDegrees>
            </Position>
            <AltitudeMeters>-5.400000095367431640625</AltitudeMeters>
            <DistanceMeters>NAN</DistanceMeters>
          </Trackpoint>
          <Trackpoint>
            <Time>2022-09-24T14:39:23.000Z</Time>
            <Position>
              <LatitudeDegrees>43.22667469270527362823486328125</LatitudeDegrees>
              <LongitudeDegrees>-2.84120743162930011749267578125</LongitudeDegrees>
            </Position>
            <AltitudeMeters>-5.19999980926513671875</AltitudeMeters>
            <DistanceMeters>NAN</DistanceMeters>
          </Trackpoint>
          <Trackpoint>
            <Time>2022-09-24T14:39:24.000Z</Time>
            <Position>
              <LatitudeDegrees>43.22669531218707561492919921875</LatitudeDegrees>
              <LongitudeDegrees>-2.8410856425762176513671875</LongitudeDegrees>
            </Position>
            <AltitudeMeters>-5.19999980926513671875</AltitudeMeters>
            <DistanceMeters>NAN</DistanceMeters>
          </Trackpoint>
          <Trackpoint>
            <Time>2022-09-24T14:39:25.000Z</Time>
            <Position>
              <LatitudeDegrees>43.2267109863460063934326171875</LatitudeDegrees>
              <LongitudeDegrees>-2.841003499925136566162109375</LongitudeDegrees>
            </Position>
            <AltitudeMeters>-5</AltitudeMeters>
            <DistanceMeters>NAN</DistanceMeters>
          </Trackpoint>
          <Trackpoint>
            <Time>2022-09-24T14:39:26.000Z</Time>
            <Position>
              <LatitudeDegrees>43.22673202492296695709228515625</LatitudeDegrees>
              <LongitudeDegrees>-2.8409000672399997711181640625</LongitudeDegrees>
            </Position>
            <AltitudeMeters>-5</AltitudeMeters>
            <DistanceMeters>NAN</DistanceMeters>
          </Trackpoint>
          <Trackpoint>
            <Time>2022-09-24T14:39:27.000Z</Time>
            <Position>
              <LatitudeDegrees>43.2267522253096103668212890625</LatitudeDegrees>
              <LongitudeDegrees>-2.840796969830989837646484375</LongitudeDegrees>
            </Position>
            <AltitudeMeters>-5</AltitudeMeters>
            <DistanceMeters>NAN</DistanceMeters>
          </Trackpoint>
          <Trackpoint>
            <Time>2022-09-24T14:39:28.000Z</Time>
            <Position>
              <LatitudeDegrees>43.22676789946854114532470703125</LatitudeDegrees>
              <LongitudeDegrees>-2.8406972251832485198974609375</LongitudeDegrees>
            </Position>
            <AltitudeMeters>-5</AltitudeMeters>
            <DistanceMeters>NAN</DistanceMeters>
          </Trackpoint>
          <Trackpoint>
            <Time>2022-09-24T14:39:29.000Z</Time>
            <Position>
              <LatitudeDegrees>43.22678701020777225494384765625</LatitudeDegrees>
              <LongitudeDegrees>-2.8405973128974437713623046875</LongitudeDegrees>
            </Position>
            <AltitudeMeters>-4.80000019073486328125</AltitudeMeters>
            <DistanceMeters>NAN</DistanceMeters>
          </Trackpoint>
          <Trackpoint>
            <Time>2022-09-24T14:39:30.000Z</Time>
            <Position>
              <LatitudeDegrees>43.2268145866692066192626953125</LatitudeDegrees>
              <LongitudeDegrees>-2.8404789604246616363525390625</LongitudeDegrees>
            </Position>
            <AltitudeMeters>-4.400000095367431640625</AltitudeMeters>
            <DistanceMeters>NAN</DistanceMeters>
          </Trackpoint>
          <Trackpoint>
            <Time>2022-09-24T14:39:31.000Z</Time>
            <Position>
              <LatitudeDegrees>43.2268353737890720367431640625</LatitudeDegrees>
              <LongitudeDegrees>-2.84038064070045948028564453125</LongitudeDegrees>
            </Position>
            <AltitudeMeters>-3.7999999523162841796875</AltitudeMeters>
            <DistanceMeters>NAN</DistanceMeters>
          </Trackpoint>
          <Trackpoint>
            <Time>2022-09-24T14:39:32.000Z</Time>
            <Position>
              <LatitudeDegrees>43.22685188613831996917724609375</LatitudeDegrees>
              <LongitudeDegrees>-2.84030302427709102630615234375</LongitudeDegrees>
            </Position>
            <AltitudeMeters>-3.2000000476837158203125</AltitudeMeters>
            <DistanceMeters>NAN</DistanceMeters>
          </Trackpoint>
          <Trackpoint>
            <Time>2022-09-24T14:39:33.000Z</Time>
            <Position>
              <LatitudeDegrees>43.2268796302378177642822265625</LatitudeDegrees>
              <LongitudeDegrees>-2.84018400125205516815185546875</LongitudeDegrees>
            </Position>
            <AltitudeMeters>-3.2000000476837158203125</AltitudeMeters>
            <DistanceMeters>NAN</DistanceMeters>
          </Trackpoint>
          <Trackpoint>
            <Time>2022-09-24T14:39:34.000Z</Time>
            <Position>
              <LatitudeDegrees>43.22690217755734920501708984375</LatitudeDegrees>
              <LongitudeDegrees>-2.84008777700364589691162109375</LongitudeDegrees>
            </Position>
            <AltitudeMeters>-3</AltitudeMeters>
            <DistanceMeters>NAN</DistanceMeters>
          </Trackpoint>
          <Trackpoint>
            <Time>2022-09-24T14:39:35.000Z</Time>
            <Position>
              <LatitudeDegrees>43.2269270718097686767578125</LatitudeDegrees>
              <LongitudeDegrees>-2.8399921394884586334228515625</LongitudeDegrees>
            </Position>
            <AltitudeMeters>-2.599999904632568359375</AltitudeMeters>
            <DistanceMeters>NAN</DistanceMeters>
          </Trackpoint>
          <Trackpoint>
            <Time>2022-09-24T14:39:36.000Z</Time>
            <Position>
              <LatitudeDegrees>43.22694978676736354827880859375</LatitudeDegrees>
              <LongitudeDegrees>-2.839917875826358795166015625</LongitudeDegrees>
            </Position>
            <AltitudeMeters>-2.400000095367431640625</AltitudeMeters>
            <DistanceMeters>NAN</DistanceMeters>
          </Trackpoint>
          <Trackpoint>
            <Time>2022-09-24T14:39:37.000Z</Time>
            <Position>
              <LatitudeDegrees>43.22694978676736354827880859375</LatitudeDegrees>
              <LongitudeDegrees>-2.839917875826358795166015625</LongitudeDegrees>
            </Position>
            <AltitudeMeters>-2.2000000476837158203125</AltitudeMeters>
            <DistanceMeters>NAN</DistanceMeters>
          </Trackpoint>
          <Trackpoint>
            <Time>2022-09-24T14:39:38.000Z</Time>
            <Position>
              <LatitudeDegrees>43.22701700963079929351806640625</LatitudeDegrees>
              <LongitudeDegrees>-2.83971377648413181304931640625</LongitudeDegrees>
            </Position>
            <AltitudeMeters>-2.2000000476837158203125</AltitudeMeters>
            <DistanceMeters>NAN</DistanceMeters>
          </Trackpoint>
          <Trackpoint>
            <Time>2022-09-24T14:39:39.000Z</Time>
            <Position>
              <LatitudeDegrees>43.2270469330251216888427734375</LatitudeDegrees>
              <LongitudeDegrees>-2.83962241373956203460693359375</LongitudeDegrees>
            </Position>
            <AltitudeMeters>-2.2000000476837158203125</AltitudeMeters>
            <DistanceMeters>NAN</DistanceMeters>
          </Trackpoint>
          <Trackpoint>
            <Time>2022-09-24T14:39:40.000Z</Time>
            <Position>
              <LatitudeDegrees>43.227077610790729522705078125</LatitudeDegrees>
              <LongitudeDegrees>-2.839529626071453094482421875</LongitudeDegrees>
            </Position>
            <AltitudeMeters>-2.2000000476837158203125</AltitudeMeters>
            <DistanceMeters>NAN</DistanceMeters>
          </Trackpoint>
          <Trackpoint>
            <Time>2022-09-24T14:39:41.000Z</Time>
            <Position>
              <LatitudeDegrees>43.22710334323346614837646484375</LatitudeDegrees>
              <LongitudeDegrees>-2.83945594914257526397705078125</LongitudeDegrees>
            </Position>
            <AltitudeMeters>-2.2000000476837158203125</AltitudeMeters>
            <DistanceMeters>NAN</DistanceMeters>
          </Trackpoint>
          <Trackpoint>
            <Time>2022-09-24T14:39:42.000Z</Time>
            <Position>
              <LatitudeDegrees>43.2271344400942325592041015625</LatitudeDegrees>
              <LongitudeDegrees>-2.83936123363673686981201171875</LongitudeDegrees>
            </Position>
            <AltitudeMeters>-2.2000000476837158203125</AltitudeMeters>
            <DistanceMeters>NAN</DistanceMeters>
          </Trackpoint>
          <Trackpoint>
            <Time>2022-09-24T14:39:43.000Z</Time>
            <Position>
              <LatitudeDegrees>43.22716176509857177734375</LatitudeDegrees>
              <LongitudeDegrees>-2.839262075722217559814453125</LongitudeDegrees>
            </Position>
            <AltitudeMeters>-2.2000000476837158203125</AltitudeMeters>
            <DistanceMeters>NAN</DistanceMeters>
          </Trackpoint>
          <Trackpoint>
            <Time>2022-09-24T14:39:44.000Z</Time>
            <Position>
              <LatitudeDegrees>43.22718012146651744842529296875</LatitudeDegrees>
              <LongitudeDegrees>-2.83916291780769824981689453125</LongitudeDegrees>
            </Position>
            <AltitudeMeters>-2.2000000476837158203125</AltitudeMeters>
            <DistanceMeters>NAN</DistanceMeters>
          </Trackpoint>
          <Trackpoint>
            <Time>2022-09-24T14:39:45.000Z</Time>
            <Position>
              <LatitudeDegrees>43.22718012146651744842529296875</LatitudeDegrees>
              <LongitudeDegrees>-2.83916291780769824981689453125</LongitudeDegrees>
            </Position>
            <AltitudeMeters>-2</AltitudeMeters>
            <DistanceMeters>NAN</DistanceMeters>
          </Trackpoint>
          <Trackpoint>
            <Time>2022-09-24T14:39:46.000Z</Time>
            <Position>
              <LatitudeDegrees>43.22719059884548187255859375</LatitudeDegrees>
              <LongitudeDegrees>-2.83904138021171092987060546875</LongitudeDegrees>
            </Position>
            <AltitudeMeters>-2</AltitudeMeters>
            <DistanceMeters>NAN</DistanceMeters>
          </Trackpoint>
          <Trackpoint>
            <Time>2022-09-24T14:39:47.000Z</Time>
            <Position>
              <LatitudeDegrees>43.22719168849289417266845703125</LatitudeDegrees>
              <LongitudeDegrees>-2.83885932527482509613037109375</LongitudeDegrees>
            </Position>
            <AltitudeMeters>-2</AltitudeMeters>
            <DistanceMeters>NAN</DistanceMeters>
          </Trackpoint>
          <Trackpoint>
            <Time>2022-09-24T14:39:48.000Z</Time>
            <Position>
              <LatitudeDegrees>43.22721096687018871307373046875</LatitudeDegrees>
              <LongitudeDegrees>-2.838742397725582122802734375</LongitudeDegrees>
            </Position>
            <AltitudeMeters>-2.400000095367431640625</AltitudeMeters>
            <DistanceMeters>NAN</DistanceMeters>
          </Trackpoint>
          <Trackpoint>
            <Time>2022-09-24T14:39:49.000Z</Time>
            <Position>
              <LatitudeDegrees>43.22721096687018871307373046875</LatitudeDegrees>
              <LongitudeDegrees>-2.838742397725582122802734375</LongitudeDegrees>
            </Position>
            <AltitudeMeters>-2.400000095367431640625</AltitudeMeters>
            <DistanceMeters>NAN</DistanceMeters>
          </Trackpoint>
          <Trackpoint>
            <Time>2022-09-24T14:39:50.000Z</Time>
            <Position>
              <LatitudeDegrees>43.2272876612842082977294921875</LatitudeDegrees>
              <LongitudeDegrees>-2.83859764225780963897705078125</LongitudeDegrees>
            </Position>
            <AltitudeMeters>-2.7999999523162841796875</AltitudeMeters>
            <DistanceMeters>NAN</DistanceMeters>
          </Trackpoint>
          <Trackpoint>
            <Time>2022-09-24T14:39:51.000Z</Time>
            <Position>
              <LatitudeDegrees>43.2273436523973941802978515625</LatitudeDegrees>
              <LongitudeDegrees>-2.83854802139103412628173828125</LongitudeDegrees>
            </Position>
            <AltitudeMeters>-2.7999999523162841796875</AltitudeMeters>
            <DistanceMeters>NAN</DistanceMeters>
          </Trackpoint>
          <Trackpoint>
            <Time>2022-09-24T14:39:52.000Z</Time>
            <Position>
              <LatitudeDegrees>43.22742118500173091888427734375</LatitudeDegrees>
              <LongitudeDegrees>-2.8385165892541408538818359375</LongitudeDegrees>
            </Position>
            <AltitudeMeters>-2.7999999523162841796875</AltitudeMeters>
            <DistanceMeters>NAN</DistanceMeters>
          </Trackpoint>
          <Trackpoint>
            <Time>2022-09-24T14:39:53.000Z</Time>
            <Position>
              <LatitudeDegrees>43.22749100625514984130859375</LatitudeDegrees>
              <LongitudeDegrees>-2.83850158564746379852294921875</LongitudeDegrees>
            </Position>
            <AltitudeMeters>-2.7999999523162841796875</AltitudeMeters>
            <DistanceMeters>NAN</DistanceMeters>
          </Trackpoint>
          <Trackpoint>
            <Time>2022-09-24T14:39:54.000Z</Time>
            <Position>
              <LatitudeDegrees>43.2275448180735111236572265625</LatitudeDegrees>
              <LongitudeDegrees>-2.838483564555644989013671875</LongitudeDegrees>
            </Position>
            <AltitudeMeters>-2.400000095367431640625</AltitudeMeters>
            <DistanceMeters>NAN</DistanceMeters>
          </Trackpoint>
          <Trackpoint>
            <Time>2022-09-24T14:39:55.000Z</Time>
            <Position>
              <LatitudeDegrees>43.2276135496795177459716796875</LatitudeDegrees>
              <LongitudeDegrees>-2.8384485282003879547119140625</LongitudeDegrees>
            </Position>
            <AltitudeMeters>-2.400000095367431640625</AltitudeMeters>
            <DistanceMeters>NAN</DistanceMeters>
          </Trackpoint>
          <Trackpoint>
            <Time>2022-09-24T14:39:56.000Z</Time>
            <Position>
              <LatitudeDegrees>43.22767783887684345245361328125</LatitudeDegrees>
              <LongitudeDegrees>-2.838399410247802734375</LongitudeDegrees>
            </Position>
            <AltitudeMeters>-2.400000095367431640625</AltitudeMeters>
            <DistanceMeters>NAN</DistanceMeters>
          </Trackpoint>
          <Trackpoint>
            <Time>2022-09-24T14:39:57.000Z</Time>
            <Position>
              <LatitudeDegrees>43.22774724103510379791259765625</LatitudeDegrees>
              <LongitudeDegrees>-2.8383256494998931884765625</LongitudeDegrees>
            </Position>
            <AltitudeMeters>-2.400000095367431640625</AltitudeMeters>
            <DistanceMeters>NAN</DistanceMeters>
          </Trackpoint>
          <Trackpoint>
            <Time>2022-09-24T14:39:58.000Z</Time>
            <Position>
              <LatitudeDegrees>43.22780155576765537261962890625</LatitudeDegrees>
              <LongitudeDegrees>-2.83825431950390338897705078125</LongitudeDegrees>
            </Position>
            <AltitudeMeters>-2.400000095367431640625</AltitudeMeters>
            <DistanceMeters>NAN</DistanceMeters>
          </Trackpoint>
          <Trackpoint>
            <Time>2022-09-24T14:39:59.000Z</Time>
            <Position>
              <LatitudeDegrees>43.227844722568988800048828125</LatitudeDegrees>
              <LongitudeDegrees>-2.83819732256233692169189453125</LongitudeDegrees>
            </Position>
            <AltitudeMeters>-2.400000095367431640625</AltitudeMeters>
            <DistanceMeters>NAN</DistanceMeters>
          </Trackpoint>
          <Trackpoint>
            <Time>2022-09-24T14:40:00.000Z</Time>
            <Position>
              <LatitudeDegrees>43.2279114425182342529296875</LatitudeDegrees>
              <LongitudeDegrees>-2.8381085582077503204345703125</LongitudeDegrees>
            </Position>
            <AltitudeMeters>-2.400000095367431640625</AltitudeMeters>
            <DistanceMeters>NAN</DistanceMeters>
          </Trackpoint>
          <Trackpoint>
            <Time>2022-09-24T14:40:01.000Z</Time>
            <Position>
              <LatitudeDegrees>43.22795645333826541900634765625</LatitudeDegrees>
              <LongitudeDegrees>-2.838048040866851806640625</LongitudeDegrees>
            </Position>
            <AltitudeMeters>-2.400000095367431640625</AltitudeMeters>
            <DistanceMeters>NAN</DistanceMeters>
          </Trackpoint>
          <Trackpoint>
            <Time>2022-09-24T14:40:02.000Z</Time>
            <Position>
              <LatitudeDegrees>43.22800992988049983978271484375</LatitudeDegrees>
              <LongitudeDegrees>-2.83797369338572025299072265625</LongitudeDegrees>
            </Position>
            <AltitudeMeters>-2.400000095367431640625</AltitudeMeters>
            <DistanceMeters>NAN</DistanceMeters>
          </Trackpoint>
          <Trackpoint>
            <Time>2022-09-24T14:40:03.000Z</Time>
            <Position>
              <LatitudeDegrees>43.22806625626981258392333984375</LatitudeDegrees>
              <LongitudeDegrees>-2.83790118992328643798828125</LongitudeDegrees>
            </Position>
            <AltitudeMeters>-2.400000095367431640625</AltitudeMeters>
            <DistanceMeters>NAN</DistanceMeters>
          </Trackpoint>
          <Trackpoint>
            <Time>2022-09-24T14:40:04.000Z</Time>
            <Position>
              <LatitudeDegrees>43.22811654768884181976318359375</LatitudeDegrees>
              <LongitudeDegrees>-2.8378265909850597381591796875</LongitudeDegrees>
            </Position>
            <AltitudeMeters>-2</AltitudeMeters>
            <DistanceMeters>NAN</DistanceMeters>
          </Trackpoint>
          <Trackpoint>
            <Time>2022-09-24T14:40:05.000Z</Time>
            <Position>
              <LatitudeDegrees>43.22818125598132610321044921875</LatitudeDegrees>
              <LongitudeDegrees>-2.83774084411561489105224609375</LongitudeDegrees>
            </Position>
            <AltitudeMeters>-2</AltitudeMeters>
            <DistanceMeters>NAN</DistanceMeters>
          </Trackpoint>
          <Trackpoint>
            <Time>2022-09-24T14:40:06.000Z</Time>
            <Position>
              <LatitudeDegrees>43.228224255144596099853515625</LatitudeDegrees>
              <LongitudeDegrees>-2.837682925164699554443359375</LongitudeDegrees>
            </Position>
            <AltitudeMeters>-1.60000002384185791015625</AltitudeMeters>
            <DistanceMeters>NAN</DistanceMeters>
          </Trackpoint>
          <Trackpoint>
            <Time>2022-09-24T14:40:07.000Z</Time>
            <Position>
              <LatitudeDegrees>43.22827530093491077423095703125</LatitudeDegrees>
              <LongitudeDegrees>-2.837613858282566070556640625</LongitudeDegrees>
            </Position>
            <AltitudeMeters>-2</AltitudeMeters>
            <DistanceMeters>NAN</DistanceMeters>
          </Trackpoint>
          <Trackpoint>
            <Time>2022-09-24T14:40:08.000Z</Time>
            <Position>
              <LatitudeDegrees>43.22832408361136913299560546875</LatitudeDegrees>
              <LongitudeDegrees>-2.8375432826578617095947265625</LongitudeDegrees>
            </Position>
            <AltitudeMeters>-2</AltitudeMeters>
            <DistanceMeters>NAN</DistanceMeters>
          </Trackpoint>
          <Trackpoint>
            <Time>2022-09-24T14:40:09.000Z</Time>
            <Position>
              <LatitudeDegrees>43.2283722795546054840087890625</LatitudeDegrees>
              <LongitudeDegrees>-2.83747279085218906402587890625</LongitudeDegrees>
            </Position>
            <AltitudeMeters>-1.7999999523162841796875</AltitudeMeters>
            <DistanceMeters>NAN</DistanceMeters>
          </Trackpoint>
          <Trackpoint>
            <Time>2022-09-24T14:40:10.000Z</Time>
            <Position>
              <LatitudeDegrees>43.22841636836528778076171875</LatitudeDegrees>
              <LongitudeDegrees>-2.8374011255800724029541015625</LongitudeDegrees>
            </Position>
            <AltitudeMeters>-1.60000002384185791015625</AltitudeMeters>
            <DistanceMeters>NAN</DistanceMeters>
          </Trackpoint>
          <Trackpoint>
            <Time>2022-09-24T14:40:11.000Z</Time>
            <Position>
              <LatitudeDegrees>43.22847194038331508636474609375</LatitudeDegrees>
              <LongitudeDegrees>-2.8373163007199764251708984375</LongitudeDegrees>
            </Position>
            <AltitudeMeters>-1.7999999523162841796875</AltitudeMeters>
            <DistanceMeters>NAN</DistanceMeters>
          </Trackpoint>
          <Trackpoint>
            <Time>2022-09-24T14:40:12.000Z</Time>
            <Position>
              <LatitudeDegrees>43.2285110838711261749267578125</LatitudeDegrees>
              <LongitudeDegrees>-2.8372608125209808349609375</LongitudeDegrees>
            </Position>
            <AltitudeMeters>-2.400000095367431640625</AltitudeMeters>
            <DistanceMeters>NAN</DistanceMeters>
          </Trackpoint>
          <Trackpoint>
            <Time>2022-09-24T14:40:13.000Z</Time>
            <Position>
              <LatitudeDegrees>43.22856145910918712615966796875</LatitudeDegrees>
              <LongitudeDegrees>-2.83718906342983245849609375</LongitudeDegrees>
            </Position>
            <AltitudeMeters>-2.599999904632568359375</AltitudeMeters>
            <DistanceMeters>NAN</DistanceMeters>
          </Trackpoint>
          <Trackpoint>
            <Time>2022-09-24T14:40:14.000Z</Time>
            <Position>
              <LatitudeDegrees>43.22860688902437686920166015625</LatitudeDegrees>
              <LongitudeDegrees>-2.8371144644916057586669921875</LongitudeDegrees>
            </Position>
            <AltitudeMeters>-2.599999904632568359375</AltitudeMeters>
            <DistanceMeters>NAN</DistanceMeters>
          </Trackpoint>
          <Trackpoint>
            <Time>2022-09-24T14:40:15.000Z</Time>
            <Position>
              <LatitudeDegrees>43.22864678688347339630126953125</LatitudeDegrees>
              <LongitudeDegrees>-2.8370346687734127044677734375</LongitudeDegrees>
            </Position>
            <AltitudeMeters>-3</AltitudeMeters>
            <DistanceMeters>NAN</DistanceMeters>
          </Trackpoint>
          <Trackpoint>
            <Time>2022-09-24T14:40:16.000Z</Time>
            <Position>
              <LatitudeDegrees>43.22864678688347339630126953125</LatitudeDegrees>
              <LongitudeDegrees>-2.8370346687734127044677734375</LongitudeDegrees>
            </Position>
            <AltitudeMeters>-3</AltitudeMeters>
            <DistanceMeters>NAN</DistanceMeters>
          </Trackpoint>
          <Trackpoint>
            <Time>2022-09-24T14:40:17.000Z</Time>
            <Position>
              <LatitudeDegrees>43.2287241518497467041015625</LatitudeDegrees>
              <LongitudeDegrees>-2.83686946146190166473388671875</LongitudeDegrees>
            </Position>
            <AltitudeMeters>-3.2000000476837158203125</AltitudeMeters>
            <DistanceMeters>NAN</DistanceMeters>
          </Trackpoint>
          <Trackpoint>
            <Time>2022-09-24T14:40:18.000Z</Time>
            <Position>
              <LatitudeDegrees>43.2287605293095111846923828125</LatitudeDegrees>
              <LongitudeDegrees>-2.83678279258310794830322265625</LongitudeDegrees>
            </Position>
            <AltitudeMeters>-3.400000095367431640625</AltitudeMeters>
            <DistanceMeters>NAN</DistanceMeters>
          </Trackpoint>
          <Trackpoint>
            <Time>2022-09-24T14:40:19.000Z</Time>
            <Position>
              <LatitudeDegrees>43.22879464365541934967041015625</LatitudeDegrees>
              <LongitudeDegrees>-2.836693190038204193115234375</LongitudeDegrees>
            </Position>
            <AltitudeMeters>-3.400000095367431640625</AltitudeMeters>
            <DistanceMeters>NAN</DistanceMeters>
          </Trackpoint>
          <Trackpoint>
            <Time>2022-09-24T14:40:20.000Z</Time>
            <Position>
              <LatitudeDegrees>43.22882783599197864532470703125</LatitudeDegrees>
              <LongitudeDegrees>-2.83660191111266613006591796875</LongitudeDegrees>
            </Position>
            <AltitudeMeters>-3.400000095367431640625</AltitudeMeters>
            <DistanceMeters>NAN</DistanceMeters>
          </Trackpoint>
          <Trackpoint>
            <Time>2022-09-24T14:40:21.000Z</Time>
            <Position>
              <LatitudeDegrees>43.228864967823028564453125</LatitudeDegrees>
              <LongitudeDegrees>-2.8364885039627552032470703125</LongitudeDegrees>
            </Position>
            <AltitudeMeters>-3.599999904632568359375</AltitudeMeters>
            <DistanceMeters>NAN</DistanceMeters>
          </Trackpoint>
          <Trackpoint>
            <Time>2022-09-24T14:40:22.000Z</Time>
            <Position>
              <LatitudeDegrees>43.2288896106183528900146484375</LatitudeDegrees>
              <LongitudeDegrees>-2.836412899196147918701171875</LongitudeDegrees>
            </Position>
            <AltitudeMeters>-3.400000095367431640625</AltitudeMeters>
            <DistanceMeters>NAN</DistanceMeters>
          </Trackpoint>
          <Trackpoint>
            <Time>2022-09-24T14:40:23.000Z</Time>
            <Position>
              <LatitudeDegrees>43.22891718707978725433349609375</LatitudeDegrees>
              <LongitudeDegrees>-2.83631323836743831634521484375</LongitudeDegrees>
            </Position>
            <AltitudeMeters>-3.400000095367431640625</AltitudeMeters>
            <DistanceMeters>NAN</DistanceMeters>
          </Trackpoint>
          <Trackpoint>
            <Time>2022-09-24T14:40:24.000Z</Time>
            <Position>
              <LatitudeDegrees>43.22893998585641384124755859375</LatitudeDegrees>
              <LongitudeDegrees>-2.83621332608163356781005859375</LongitudeDegrees>
            </Position>
            <AltitudeMeters>-3.400000095367431640625</AltitudeMeters>
            <DistanceMeters>NAN</DistanceMeters>
          </Trackpoint>
          <Trackpoint>
            <Time>2022-09-24T14:40:25.000Z</Time>
            <Position>
              <LatitudeDegrees>43.2289588451385498046875</LatitudeDegrees>
              <LongitudeDegrees>-2.83611156977713108062744140625</LongitudeDegrees>
            </Position>
            <AltitudeMeters>-3.400000095367431640625</AltitudeMeters>
            <DistanceMeters>NAN</DistanceMeters>
          </Trackpoint>
          <Trackpoint>
            <Time>2022-09-24T14:40:26.000Z</Time>
            <Position>
              <LatitudeDegrees>43.2289754413068294525146484375</LatitudeDegrees>
              <LongitudeDegrees>-2.836007215082645416259765625</LongitudeDegrees>
            </Position>
            <AltitudeMeters>-3.2000000476837158203125</AltitudeMeters>
            <DistanceMeters>NAN</DistanceMeters>
          </Trackpoint>
          <Trackpoint>
            <Time>2022-09-24T14:40:27.000Z</Time>
            <Position>
              <LatitudeDegrees>43.2289915345609188079833984375</LatitudeDegrees>
              <LongitudeDegrees>-2.83590353094041347503662109375</LongitudeDegrees>
            </Position>
            <AltitudeMeters>-3.2000000476837158203125</AltitudeMeters>
            <DistanceMeters>NAN</DistanceMeters>
          </Trackpoint>
          <Trackpoint>
            <Time>2022-09-24T14:40:28.000Z</Time>
            <Position>
              <LatitudeDegrees>43.229009807109832763671875</LatitudeDegrees>
              <LongitudeDegrees>-2.8358005173504352569580078125</LongitudeDegrees>
            </Position>
            <AltitudeMeters>-3.2000000476837158203125</AltitudeMeters>
            <DistanceMeters>NAN</DistanceMeters>
          </Trackpoint>
          <Trackpoint>
            <Time>2022-09-24T14:40:29.000Z</Time>
            <Position>
              <LatitudeDegrees>43.22902732528746128082275390625</LatitudeDegrees>
              <LongitudeDegrees>-2.83569884486496448516845703125</LongitudeDegrees>
            </Position>
            <AltitudeMeters>-3.2000000476837158203125</AltitudeMeters>
            <DistanceMeters>NAN</DistanceMeters>
          </Trackpoint>
          <Trackpoint>
            <Time>2022-09-24T14:40:30.000Z</Time>
            <Position>
              <LatitudeDegrees>43.22903872467577457427978515625</LatitudeDegrees>
              <LongitudeDegrees>-2.83559541217982769012451171875</LongitudeDegrees>
            </Position>
            <AltitudeMeters>-3.2000000476837158203125</AltitudeMeters>
            <DistanceMeters>NAN</DistanceMeters>
          </Trackpoint>
          <Trackpoint>
            <Time>2022-09-24T14:40:31.000Z</Time>
            <Position>
              <LatitudeDegrees>43.2290532253682613372802734375</LatitudeDegrees>
              <LongitudeDegrees>-2.8354706056416034698486328125</LongitudeDegrees>
            </Position>
            <AltitudeMeters>-3</AltitudeMeters>
            <DistanceMeters>NAN</DistanceMeters>
          </Trackpoint>
          <Trackpoint>
            <Time>2022-09-24T14:40:32.000Z</Time>
            <Position>
              <LatitudeDegrees>43.22906604968011379241943359375</LatitudeDegrees>
              <LongitudeDegrees>-2.8353844396770000457763671875</LongitudeDegrees>
            </Position>
            <AltitudeMeters>-2.599999904632568359375</AltitudeMeters>
            <DistanceMeters>NAN</DistanceMeters>
          </Trackpoint>
          <Trackpoint>
            <Time>2022-09-24T14:40:33.000Z</Time>
            <Position>
              <LatitudeDegrees>43.2290867529809474945068359375</LatitudeDegrees>
              <LongitudeDegrees>-2.83528025262057781219482421875</LongitudeDegrees>
            </Position>
            <AltitudeMeters>-3</AltitudeMeters>
            <DistanceMeters>NAN</DistanceMeters>
          </Trackpoint>
          <Trackpoint>
            <Time>2022-09-24T14:40:34.000Z</Time>
            <Position>
              <LatitudeDegrees>43.22910628281533718109130859375</LatitudeDegrees>
              <LongitudeDegrees>-2.8351762332022190093994140625</LongitudeDegrees>
            </Position>
            <AltitudeMeters>-3</AltitudeMeters>
            <DistanceMeters>NAN</DistanceMeters>
          </Trackpoint>
          <Trackpoint>
            <Time>2022-09-24T14:40:35.000Z</Time>
            <Position>
              <LatitudeDegrees>43.22911852039396762847900390625</LatitudeDegrees>
              <LongitudeDegrees>-2.83506877720355987548828125</LongitudeDegrees>
            </Position>
            <AltitudeMeters>-3</AltitudeMeters>
            <DistanceMeters>NAN</DistanceMeters>
          </Trackpoint>
          <Trackpoint>
            <Time>2022-09-24T14:40:36.000Z</Time>
            <Position>
              <LatitudeDegrees>43.22913109324872493743896484375</LatitudeDegrees>
              <LongitudeDegrees>-2.834960483014583587646484375</LongitudeDegrees>
            </Position>
            <AltitudeMeters>-3</AltitudeMeters>
            <DistanceMeters>NAN</DistanceMeters>
          </Trackpoint>
          <Trackpoint>
            <Time>2022-09-24T14:40:37.000Z</Time>
            <Position>
              <LatitudeDegrees>43.22914601303637027740478515625</LatitudeDegrees>
              <LongitudeDegrees>-2.83485244028270244598388671875</LongitudeDegrees>
            </Position>
            <AltitudeMeters>-2.7999999523162841796875</AltitudeMeters>
            <DistanceMeters>NAN</DistanceMeters>
          </Trackpoint>
          <Trackpoint>
            <Time>2022-09-24T14:40:38.000Z</Time>
            <Position>
              <LatitudeDegrees>43.22914601303637027740478515625</LatitudeDegrees>
              <LongitudeDegrees>-2.83485244028270244598388671875</LongitudeDegrees>
            </Position>
            <AltitudeMeters>-2.7999999523162841796875</AltitudeMeters>
            <DistanceMeters>NAN</DistanceMeters>
          </Trackpoint>
          <Trackpoint>
            <Time>2022-09-24T14:40:39.000Z</Time>
            <Position>
              <LatitudeDegrees>43.22918004356324672698974609375</LatitudeDegrees>
              <LongitudeDegrees>-2.83463736064732074737548828125</LongitudeDegrees>
            </Position>
            <AltitudeMeters>-3</AltitudeMeters>
            <DistanceMeters>NAN</DistanceMeters>
          </Trackpoint>
          <Trackpoint>
            <Time>2022-09-24T14:40:40.000Z</Time>
            <Position>
              <LatitudeDegrees>43.2291957177221775054931640625</LatitudeDegrees>
              <LongitudeDegrees>-2.83452940173447132110595703125</LongitudeDegrees>
            </Position>
            <AltitudeMeters>-3</AltitudeMeters>
            <DistanceMeters>NAN</DistanceMeters>
          </Trackpoint>
          <Trackpoint>
            <Time>2022-09-24T14:40:41.000Z</Time>
            <Position>
              <LatitudeDegrees>43.2292124815285205841064453125</LatitudeDegrees>
              <LongitudeDegrees>-2.834422029554843902587890625</LongitudeDegrees>
            </Position>
            <AltitudeMeters>-3</AltitudeMeters>
            <DistanceMeters>NAN</DistanceMeters>
          </Trackpoint>
          <Trackpoint>
            <Time>2022-09-24T14:40:42.000Z</Time>
            <Position>
              <LatitudeDegrees>43.22923553176224231719970703125</LatitudeDegrees>
              <LongitudeDegrees>-2.83431650139391422271728515625</LongitudeDegrees>
            </Position>
            <AltitudeMeters>-2.7999999523162841796875</AltitudeMeters>
            <DistanceMeters>NAN</DistanceMeters>
          </Trackpoint>
          <Trackpoint>
            <Time>2022-09-24T14:40:43.000Z</Time>
            <Position>
              <LatitudeDegrees>43.22926570661365985870361328125</LatitudeDegrees>
              <LongitudeDegrees>-2.834210805594921112060546875</LongitudeDegrees>
            </Position>
            <AltitudeMeters>-3</AltitudeMeters>
            <DistanceMeters>NAN</DistanceMeters>
          </Trackpoint>
          <Trackpoint>
            <Time>2022-09-24T14:40:44.000Z</Time>
            <Position>
              <LatitudeDegrees>43.22929789312183856964111328125</LatitudeDegrees>
              <LongitudeDegrees>-2.83410091884434223175048828125</LongitudeDegrees>
            </Position>
            <AltitudeMeters>-3.2000000476837158203125</AltitudeMeters>
            <DistanceMeters>NAN</DistanceMeters>
          </Trackpoint>
          <Trackpoint>
            <Time>2022-09-24T14:40:45.000Z</Time>
            <Position>
              <LatitudeDegrees>43.2293395511806011199951171875</LatitudeDegrees>
              <LongitudeDegrees>-2.83397351391613483428955078125</LongitudeDegrees>
            </Position>
            <AltitudeMeters>-3.400000095367431640625</AltitudeMeters>
            <DistanceMeters>NAN</DistanceMeters>
          </Trackpoint>
          <Trackpoint>
            <Time>2022-09-24T14:40:46.000Z</Time>
            <Position>
              <LatitudeDegrees>43.2293707318603992462158203125</LatitudeDegrees>
              <LongitudeDegrees>-2.833862788975238800048828125</LongitudeDegrees>
            </Position>
            <AltitudeMeters>-3.400000095367431640625</AltitudeMeters>
            <DistanceMeters>NAN</DistanceMeters>
          </Trackpoint>
          <Trackpoint>
            <Time>2022-09-24T14:40:47.000Z</Time>
            <Position>
              <LatitudeDegrees>43.22939646430313587188720703125</LatitudeDegrees>
              <LongitudeDegrees>-2.8337754495441913604736328125</LongitudeDegrees>
            </Position>
            <AltitudeMeters>-4</AltitudeMeters>
            <DistanceMeters>NAN</DistanceMeters>
          </Trackpoint>
          <Trackpoint>
            <Time>2022-09-24T14:40:48.000Z</Time>
            <Position>
              <LatitudeDegrees>43.22943787090480327606201171875</LatitudeDegrees>
              <LongitudeDegrees>-2.8336470387876033782958984375</LongitudeDegrees>
            </Position>
            <AltitudeMeters>-4</AltitudeMeters>
            <DistanceMeters>NAN</DistanceMeters>
          </Trackpoint>
          <Trackpoint>
            <Time>2022-09-24T14:40:49.000Z</Time>
            <Position>
              <LatitudeDegrees>43.229504339396953582763671875</LatitudeDegrees>
              <LongitudeDegrees>-2.8335819952189922332763671875</LongitudeDegrees>
            </Position>
            <AltitudeMeters>-4.19999980926513671875</AltitudeMeters>
            <DistanceMeters>NAN</DistanceMeters>
          </Trackpoint>
          <Trackpoint>
            <Time>2022-09-24T14:40:50.000Z</Time>
            <Position>
              <LatitudeDegrees>43.22955764830112457275390625</LatitudeDegrees>
              <LongitudeDegrees>-2.83352374099195003509521484375</LongitudeDegrees>
            </Position>
            <AltitudeMeters>-4.19999980926513671875</AltitudeMeters>
            <DistanceMeters>NAN</DistanceMeters>
          </Trackpoint>
          <Trackpoint>
            <Time>2022-09-24T14:40:51.000Z</Time>
            <Position>
              <LatitudeDegrees>43.229628391563892364501953125</LatitudeDegrees>
              <LongitudeDegrees>-2.833418548107147216796875</LongitudeDegrees>
            </Position>
            <AltitudeMeters>-4</AltitudeMeters>
            <DistanceMeters>NAN</DistanceMeters>
          </Trackpoint>
          <Trackpoint>
            <Time>2022-09-24T14:40:52.000Z</Time>
            <Position>
              <LatitudeDegrees>43.229628391563892364501953125</LatitudeDegrees>
              <LongitudeDegrees>-2.833418548107147216796875</LongitudeDegrees>
            </Position>
            <AltitudeMeters>-4.19999980926513671875</AltitudeMeters>
            <DistanceMeters>NAN</DistanceMeters>
          </Trackpoint>
          <Trackpoint>
            <Time>2022-09-24T14:40:53.000Z</Time>
            <Position>
              <LatitudeDegrees>43.2297324948012828826904296875</LatitudeDegrees>
              <LongitudeDegrees>-2.833249568939208984375</LongitudeDegrees>
            </Position>
            <AltitudeMeters>-4.19999980926513671875</AltitudeMeters>
            <DistanceMeters>NAN</DistanceMeters>
          </Trackpoint>
          <Trackpoint>
            <Time>2022-09-24T14:40:54.000Z</Time>
            <Position>
              <LatitudeDegrees>43.2297951914370059967041015625</LatitudeDegrees>
              <LongitudeDegrees>-2.83315074630081653594970703125</LongitudeDegrees>
            </Position>
            <AltitudeMeters>-4.400000095367431640625</AltitudeMeters>
            <DistanceMeters>NAN</DistanceMeters>
          </Trackpoint>
          <Trackpoint>
            <Time>2022-09-24T14:40:55.000Z</Time>
            <Position>
              <LatitudeDegrees>43.22985311038792133331298828125</LatitudeDegrees>
              <LongitudeDegrees>-2.83306290395557880401611328125</LongitudeDegrees>
            </Position>
            <AltitudeMeters>-4.400000095367431640625</AltitudeMeters>
            <DistanceMeters>NAN</DistanceMeters>
          </Trackpoint>
          <Trackpoint>
            <Time>2022-09-24T14:40:56.000Z</Time>
            <Position>
              <LatitudeDegrees>43.2299115322530269622802734375</LatitudeDegrees>
              <LongitudeDegrees>-2.8329738043248653411865234375</LongitudeDegrees>
            </Position>
            <AltitudeMeters>-4.400000095367431640625</AltitudeMeters>
            <DistanceMeters>NAN</DistanceMeters>
          </Trackpoint>
          <Trackpoint>
            <Time>2022-09-24T14:40:57.000Z</Time>
            <Position>
              <LatitudeDegrees>43.22997414506971836090087890625</LatitudeDegrees>
              <LongitudeDegrees>-2.8328869678080081939697265625</LongitudeDegrees>
            </Position>
            <AltitudeMeters>-4.400000095367431640625</AltitudeMeters>
            <DistanceMeters>NAN</DistanceMeters>
          </Trackpoint>
          <Trackpoint>
            <Time>2022-09-24T14:40:58.000Z</Time>
            <Position>
              <LatitudeDegrees>43.2300372608006000518798828125</LatitudeDegrees>
              <LongitudeDegrees>-2.83279560506343841552734375</LongitudeDegrees>
            </Position>
            <AltitudeMeters>-4.599999904632568359375</AltitudeMeters>
            <DistanceMeters>NAN</DistanceMeters>
          </Trackpoint>
          <Trackpoint>
            <Time>2022-09-24T14:40:59.000Z</Time>
            <Position>
              <LatitudeDegrees>43.2300974428653717041015625</LatitudeDegrees>
              <LongitudeDegrees>-2.83270315267145633697509765625</LongitudeDegrees>
            </Position>
            <AltitudeMeters>-4.599999904632568359375</AltitudeMeters>
            <DistanceMeters>NAN</DistanceMeters>
          </Trackpoint>
          <Trackpoint>
            <Time>2022-09-24T14:41:00.000Z</Time>
            <Position>
              <LatitudeDegrees>43.23015821166336536407470703125</LatitudeDegrees>
              <LongitudeDegrees>-2.83260927535593509674072265625</LongitudeDegrees>
            </Position>
            <AltitudeMeters>-4.599999904632568359375</AltitudeMeters>
            <DistanceMeters>NAN</DistanceMeters>
          </Trackpoint>
          <Trackpoint>
            <Time>2022-09-24T14:41:01.000Z</Time>
            <Position>
              <LatitudeDegrees>43.23021235875785350799560546875</LatitudeDegrees>
              <LongitudeDegrees>-2.8325154818594455718994140625</LongitudeDegrees>
            </Position>
            <AltitudeMeters>-4.400000095367431640625</AltitudeMeters>
            <DistanceMeters>NAN</DistanceMeters>
          </Trackpoint>
          <Trackpoint>
            <Time>2022-09-24T14:41:02.000Z</Time>
            <Position>
              <LatitudeDegrees>43.23026902042329311370849609375</LatitudeDegrees>
              <LongitudeDegrees>-2.83242554403841495513916015625</LongitudeDegrees>
            </Position>
            <AltitudeMeters>-4.400000095367431640625</AltitudeMeters>
            <DistanceMeters>NAN</DistanceMeters>
          </Trackpoint>
          <Trackpoint>
            <Time>2022-09-24T14:41:03.000Z</Time>
            <Position>
              <LatitudeDegrees>43.23032886721193790435791015625</LatitudeDegrees>
              <LongitudeDegrees>-2.83233686350286006927490234375</LongitudeDegrees>
            </Position>
            <AltitudeMeters>-4.599999904632568359375</AltitudeMeters>
            <DistanceMeters>NAN</DistanceMeters>
          </Trackpoint>
          <Trackpoint>
            <Time>2022-09-24T14:41:04.000Z</Time>
            <Position>
              <LatitudeDegrees>43.230386115610599517822265625</LatitudeDegrees>
              <LongitudeDegrees>-2.8322388790547847747802734375</LongitudeDegrees>
            </Position>
            <AltitudeMeters>-4.400000095367431640625</AltitudeMeters>
            <DistanceMeters>NAN</DistanceMeters>
          </Trackpoint>
          <Trackpoint>
            <Time>2022-09-24T14:41:05.000Z</Time>
            <Position>
              <LatitudeDegrees>43.2304382510483264923095703125</LatitudeDegrees>
              <LongitudeDegrees>-2.83213955350220203399658203125</LongitudeDegrees>
            </Position>
            <AltitudeMeters>-4.400000095367431640625</AltitudeMeters>
            <DistanceMeters>NAN</DistanceMeters>
          </Trackpoint>
          <Trackpoint>
            <Time>2022-09-24T14:41:06.000Z</Time>
            <Position>
              <LatitudeDegrees>43.23048778809607028961181640625</LatitudeDegrees>
              <LongitudeDegrees>-2.83203980885446071624755859375</LongitudeDegrees>
            </Position>
            <AltitudeMeters>-4.400000095367431640625</AltitudeMeters>
            <DistanceMeters>NAN</DistanceMeters>
          </Trackpoint>
          <Trackpoint>
            <Time>2022-09-24T14:41:07.000Z</Time>
            <Position>
              <LatitudeDegrees>43.23053489439189434051513671875</LatitudeDegrees>
              <LongitudeDegrees>-2.83194375224411487579345703125</LongitudeDegrees>
            </Position>
            <AltitudeMeters>-4.400000095367431640625</AltitudeMeters>
            <DistanceMeters>NAN</DistanceMeters>
          </Trackpoint>
          <Trackpoint>
            <Time>2022-09-24T14:41:08.000Z</Time>
            <Position>
              <LatitudeDegrees>43.23058635927736759185791015625</LatitudeDegrees>
              <LongitudeDegrees>-2.83182271756231784820556640625</LongitudeDegrees>
            </Position>
            <AltitudeMeters>-5</AltitudeMeters>
            <DistanceMeters>NAN</DistanceMeters>
          </Trackpoint>
          <Trackpoint>
            <Time>2022-09-24T14:41:09.000Z</Time>
            <Position>
              <LatitudeDegrees>43.2306231558322906494140625</LatitudeDegrees>
              <LongitudeDegrees>-2.83173789270222187042236328125</LongitudeDegrees>
            </Position>
            <AltitudeMeters>-5.400000095367431640625</AltitudeMeters>
            <DistanceMeters>NAN</DistanceMeters>
          </Trackpoint>
          <Trackpoint>
            <Time>2022-09-24T14:41:10.000Z</Time>
            <Position>
              <LatitudeDegrees>43.2306699268519878387451171875</LatitudeDegrees>
              <LongitudeDegrees>-2.8316293470561504364013671875</LongitudeDegrees>
            </Position>
            <AltitudeMeters>-5.599999904632568359375</AltitudeMeters>
            <DistanceMeters>NAN</DistanceMeters>
          </Trackpoint>
          <Trackpoint>
            <Time>2022-09-24T14:41:11.000Z</Time>
            <Position>
              <LatitudeDegrees>43.23071644641458988189697265625</LatitudeDegrees>
              <LongitudeDegrees>-2.83151610754430294036865234375</LongitudeDegrees>
            </Position>
            <AltitudeMeters>-5.599999904632568359375</AltitudeMeters>
            <DistanceMeters>NAN</DistanceMeters>
          </Trackpoint>
          <Trackpoint>
            <Time>2022-09-24T14:41:12.000Z</Time>
            <Position>
              <LatitudeDegrees>43.23076422326266765594482421875</LatitudeDegrees>
              <LongitudeDegrees>-2.8313973359763622283935546875</LongitudeDegrees>
            </Position>
            <AltitudeMeters>-5.599999904632568359375</AltitudeMeters>
            <DistanceMeters>NAN</DistanceMeters>
          </Trackpoint>
          <Trackpoint>
            <Time>2022-09-24T14:41:13.000Z</Time>
            <Position>
              <LatitudeDegrees>43.23080931790173053741455078125</LatitudeDegrees>
              <LongitudeDegrees>-2.83127370290458202362060546875</LongitudeDegrees>
            </Position>
            <AltitudeMeters>-6.19999980926513671875</AltitudeMeters>
            <DistanceMeters>NAN</DistanceMeters>
          </Trackpoint>
          <Trackpoint>
            <Time>2022-09-24T14:41:14.000Z</Time>
            <Position>
              <LatitudeDegrees>43.23085240088403224945068359375</LatitudeDegrees>
              <LongitudeDegrees>-2.83115132711827754974365234375</LongitudeDegrees>
            </Position>
            <AltitudeMeters>-6.400000095367431640625</AltitudeMeters>
            <DistanceMeters>NAN</DistanceMeters>
          </Trackpoint>
          <Trackpoint>
            <Time>2022-09-24T14:41:15.000Z</Time>
            <Position>
              <LatitudeDegrees>43.2308972440659999847412109375</LatitudeDegrees>
              <LongitudeDegrees>-2.83103113062679767608642578125</LongitudeDegrees>
            </Position>
            <AltitudeMeters>-6.599999904632568359375</AltitudeMeters>
            <DistanceMeters>NAN</DistanceMeters>
          </Trackpoint>
          <Trackpoint>
            <Time>2022-09-24T14:41:16.000Z</Time>
            <Position>
              <LatitudeDegrees>43.2309396564960479736328125</LatitudeDegrees>
              <LongitudeDegrees>-2.8309105150401592254638671875</LongitudeDegrees>
            </Position>
            <AltitudeMeters>-7</AltitudeMeters>
            <DistanceMeters>NAN</DistanceMeters>
          </Trackpoint>
          <Trackpoint>
            <Time>2022-09-24T14:41:17.000Z</Time>
            <Position>
              <LatitudeDegrees>43.230988271534442901611328125</LatitudeDegrees>
              <LongitudeDegrees>-2.83076710067689418792724609375</LongitudeDegrees>
            </Position>
            <AltitudeMeters>-7</AltitudeMeters>
            <DistanceMeters>NAN</DistanceMeters>
          </Trackpoint>
          <Trackpoint>
            <Time>2022-09-24T14:41:18.000Z</Time>
            <Position>
              <LatitudeDegrees>43.23101970367133617401123046875</LatitudeDegrees>
              <LongitudeDegrees>-2.83066987060010433197021484375</LongitudeDegrees>
            </Position>
            <AltitudeMeters>-7</AltitudeMeters>
            <DistanceMeters>NAN</DistanceMeters>
          </Trackpoint>
          <Trackpoint>
            <Time>2022-09-24T14:41:19.000Z</Time>
            <Position>
              <LatitudeDegrees>43.231060691177845001220703125</LatitudeDegrees>
              <LongitudeDegrees>-2.8305423818528652191162109375</LongitudeDegrees>
            </Position>
            <AltitudeMeters>-7</AltitudeMeters>
            <DistanceMeters>NAN</DistanceMeters>
          </Trackpoint>
          <Trackpoint>
            <Time>2022-09-24T14:41:20.000Z</Time>
            <Position>
              <LatitudeDegrees>43.23110369034111499786376953125</LatitudeDegrees>
              <LongitudeDegrees>-2.8304203413426876068115234375</LongitudeDegrees>
            </Position>
            <AltitudeMeters>-7</AltitudeMeters>
            <DistanceMeters>NAN</DistanceMeters>
          </Trackpoint>
          <Trackpoint>
            <Time>2022-09-24T14:41:21.000Z</Time>
            <Position>
              <LatitudeDegrees>43.23110369034111499786376953125</LatitudeDegrees>
              <LongitudeDegrees>-2.8304203413426876068115234375</LongitudeDegrees>
            </Position>
            <AltitudeMeters>-6.400000095367431640625</AltitudeMeters>
            <DistanceMeters>NAN</DistanceMeters>
          </Trackpoint>
          <Trackpoint>
            <Time>2022-09-24T14:41:22.000Z</Time>
            <Position>
              <LatitudeDegrees>43.23118432424962520599365234375</LatitudeDegrees>
              <LongitudeDegrees>-2.830184139311313629150390625</LongitudeDegrees>
            </Position>
            <AltitudeMeters>-6.400000095367431640625</AltitudeMeters>
            <DistanceMeters>NAN</DistanceMeters>
          </Trackpoint>
          <Trackpoint>
            <Time>2022-09-24T14:41:23.000Z</Time>
            <Position>
              <LatitudeDegrees>43.2312251441180706024169921875</LatitudeDegrees>
              <LongitudeDegrees>-2.83006620593369007110595703125</LongitudeDegrees>
            </Position>
            <AltitudeMeters>-6.19999980926513671875</AltitudeMeters>
            <DistanceMeters>NAN</DistanceMeters>
          </Trackpoint>
          <Trackpoint>
            <Time>2022-09-24T14:41:24.000Z</Time>
            <Position>
              <LatitudeDegrees>43.23126479052007198333740234375</LatitudeDegrees>
              <LongitudeDegrees>-2.8299482725560665130615234375</LongitudeDegrees>
            </Position>
            <AltitudeMeters>-6</AltitudeMeters>
            <DistanceMeters>NAN</DistanceMeters>
          </Trackpoint>
          <Trackpoint>
            <Time>2022-09-24T14:41:25.000Z</Time>
            <Position>
              <LatitudeDegrees>43.231304101645946502685546875</LatitudeDegrees>
              <LongitudeDegrees>-2.8298326022922992706298828125</LongitudeDegrees>
            </Position>
            <AltitudeMeters>-5.80000019073486328125</AltitudeMeters>
            <DistanceMeters>NAN</DistanceMeters>
          </Trackpoint>
          <Trackpoint>
            <Time>2022-09-24T14:41:26.000Z</Time>
            <Position>
              <LatitudeDegrees>43.2313448376953601837158203125</LatitudeDegrees>
              <LongitudeDegrees>-2.8297197818756103515625</LongitudeDegrees>
            </Position>
            <AltitudeMeters>-6</AltitudeMeters>
            <DistanceMeters>NAN</DistanceMeters>
          </Trackpoint>
          <Trackpoint>
            <Time>2022-09-24T14:41:27.000Z</Time>
            <Position>
              <LatitudeDegrees>43.23138347826898097991943359375</LatitudeDegrees>
              <LongitudeDegrees>-2.82960654236376285552978515625</LongitudeDegrees>
            </Position>
            <AltitudeMeters>-6</AltitudeMeters>
            <DistanceMeters>NAN</DistanceMeters>
          </Trackpoint>
          <Trackpoint>
            <Time>2022-09-24T14:41:28.000Z</Time>
            <Position>
              <LatitudeDegrees>43.2314232923090457916259765625</LatitudeDegrees>
              <LongitudeDegrees>-2.8294926322996616363525390625</LongitudeDegrees>
            </Position>
            <AltitudeMeters>-6</AltitudeMeters>
            <DistanceMeters>NAN</DistanceMeters>
          </Trackpoint>
          <Trackpoint>
            <Time>2022-09-24T14:41:29.000Z</Time>
            <Position>
              <LatitudeDegrees>43.23146243579685688018798828125</LatitudeDegrees>
              <LongitudeDegrees>-2.829377464950084686279296875</LongitudeDegrees>
            </Position>
            <AltitudeMeters>-6.400000095367431640625</AltitudeMeters>
            <DistanceMeters>NAN</DistanceMeters>
          </Trackpoint>
          <Trackpoint>
            <Time>2022-09-24T14:41:30.000Z</Time>
            <Position>
              <LatitudeDegrees>43.23150099255144596099853515625</LatitudeDegrees>
              <LongitudeDegrees>-2.82926674000918865203857421875</LongitudeDegrees>
            </Position>
            <AltitudeMeters>-6.400000095367431640625</AltitudeMeters>
            <DistanceMeters>NAN</DistanceMeters>
          </Trackpoint>
          <Trackpoint>
            <Time>2022-09-24T14:41:31.000Z</Time>
            <Position>
              <LatitudeDegrees>43.23150099255144596099853515625</LatitudeDegrees>
              <LongitudeDegrees>-2.82926674000918865203857421875</LongitudeDegrees>
            </Position>
            <AltitudeMeters>-6.400000095367431640625</AltitudeMeters>
            <DistanceMeters>NAN</DistanceMeters>
          </Trackpoint>
          <Trackpoint>
            <Time>2022-09-24T14:41:32.000Z</Time>
            <Position>
              <LatitudeDegrees>43.23158464394509792327880859375</LatitudeDegrees>
              <LongitudeDegrees>-2.82904730178415775299072265625</LongitudeDegrees>
            </Position>
            <AltitudeMeters>-6.400000095367431640625</AltitudeMeters>
            <DistanceMeters>NAN</DistanceMeters>
          </Trackpoint>
          <Trackpoint>
            <Time>2022-09-24T14:41:33.000Z</Time>
            <Position>
              <LatitudeDegrees>43.23162018321454524993896484375</LatitudeDegrees>
              <LongitudeDegrees>-2.82893749885261058807373046875</LongitudeDegrees>
            </Position>
            <AltitudeMeters>-6.400000095367431640625</AltitudeMeters>
            <DistanceMeters>NAN</DistanceMeters>
          </Trackpoint>
          <Trackpoint>
            <Time>2022-09-24T14:41:34.000Z</Time>
            <Position>
              <LatitudeDegrees>43.231655471026897430419921875</LatitudeDegrees>
              <LongitudeDegrees>-2.828827612102031707763671875</LongitudeDegrees>
            </Position>
            <AltitudeMeters>-6.400000095367431640625</AltitudeMeters>
            <DistanceMeters>NAN</DistanceMeters>
          </Trackpoint>
          <Trackpoint>
            <Time>2022-09-24T14:41:35.000Z</Time>
            <Position>
              <LatitudeDegrees>43.23169645853340625762939453125</LatitudeDegrees>
              <LongitudeDegrees>-2.82871571369469165802001953125</LongitudeDegrees>
            </Position>
            <AltitudeMeters>-6.400000095367431640625</AltitudeMeters>
            <DistanceMeters>NAN</DistanceMeters>
          </Trackpoint>
          <Trackpoint>
            <Time>2022-09-24T14:41:36.000Z</Time>
            <Position>
              <LatitudeDegrees>43.23173023760318756103515625</LatitudeDegrees>
              <LongitudeDegrees>-2.82860222272574901580810546875</LongitudeDegrees>
            </Position>
            <AltitudeMeters>-6.19999980926513671875</AltitudeMeters>
            <DistanceMeters>NAN</DistanceMeters>
          </Trackpoint>
          <Trackpoint>
            <Time>2022-09-24T14:41:37.000Z</Time>
            <Position>
              <LatitudeDegrees>43.2317646034061908721923828125</LatitudeDegrees>
              <LongitudeDegrees>-2.82848956994712352752685546875</LongitudeDegrees>
            </Position>
            <AltitudeMeters>-6</AltitudeMeters>
            <DistanceMeters>NAN</DistanceMeters>
          </Trackpoint>
          <Trackpoint>
            <Time>2022-09-24T14:41:38.000Z</Time>
            <Position>
              <LatitudeDegrees>43.2318065129220485687255859375</LatitudeDegrees>
              <LongitudeDegrees>-2.8283761627972126007080078125</LongitudeDegrees>
            </Position>
            <AltitudeMeters>-6</AltitudeMeters>
            <DistanceMeters>NAN</DistanceMeters>
          </Trackpoint>
          <Trackpoint>
            <Time>2022-09-24T14:41:39.000Z</Time>
            <Position>
              <LatitudeDegrees>43.23184398002922534942626953125</LatitudeDegrees>
              <LongitudeDegrees>-2.828269712626934051513671875</LongitudeDegrees>
            </Position>
            <AltitudeMeters>-6.19999980926513671875</AltitudeMeters>
            <DistanceMeters>NAN</DistanceMeters>
          </Trackpoint>
          <Trackpoint>
            <Time>2022-09-24T14:41:40.000Z</Time>
            <Position>
              <LatitudeDegrees>43.2318799383938312530517578125</LatitudeDegrees>
              <LongitudeDegrees>-2.82816468738019466400146484375</LongitudeDegrees>
            </Position>
            <AltitudeMeters>-6</AltitudeMeters>
            <DistanceMeters>NAN</DistanceMeters>
          </Trackpoint>
          <Trackpoint>
            <Time>2022-09-24T14:41:41.000Z</Time>
            <Position>
              <LatitudeDegrees>43.23191606439650058746337890625</LatitudeDegrees>
              <LongitudeDegrees>-2.8280593268573284149169921875</LongitudeDegrees>
            </Position>
            <AltitudeMeters>-5.80000019073486328125</AltitudeMeters>
            <DistanceMeters>NAN</DistanceMeters>
          </Trackpoint>
          <Trackpoint>
            <Time>2022-09-24T14:41:42.000Z</Time>
            <Position>
              <LatitudeDegrees>43.23194841854274272918701171875</LatitudeDegrees>
              <LongitudeDegrees>-2.827952206134796142578125</LongitudeDegrees>
            </Position>
            <AltitudeMeters>-5.80000019073486328125</AltitudeMeters>
            <DistanceMeters>NAN</DistanceMeters>
          </Trackpoint>
          <Trackpoint>
            <Time>2022-09-24T14:41:43.000Z</Time>
            <Position>
              <LatitudeDegrees>43.231976665556430816650390625</LatitudeDegrees>
              <LongitudeDegrees>-2.827843241393566131591796875</LongitudeDegrees>
            </Position>
            <AltitudeMeters>-5.80000019073486328125</AltitudeMeters>
            <DistanceMeters>NAN</DistanceMeters>
          </Trackpoint>
          <Trackpoint>
            <Time>2022-09-24T14:41:44.000Z</Time>
            <Position>
              <LatitudeDegrees>43.2320053316652774810791015625</LatitudeDegrees>
              <LongitudeDegrees>-2.82773335464298725128173828125</LongitudeDegrees>
            </Position>
            <AltitudeMeters>-6</AltitudeMeters>
            <DistanceMeters>NAN</DistanceMeters>
          </Trackpoint>
          <Trackpoint>
            <Time>2022-09-24T14:41:45.000Z</Time>
            <Position>
              <LatitudeDegrees>43.23203139938414096832275390625</LatitudeDegrees>
              <LongitudeDegrees>-2.82762589864432811737060546875</LongitudeDegrees>
            </Position>
            <AltitudeMeters>-6.19999980926513671875</AltitudeMeters>
            <DistanceMeters>NAN</DistanceMeters>
          </Trackpoint>
          <Trackpoint>
            <Time>2022-09-24T14:41:46.000Z</Time>
            <Position>
              <LatitudeDegrees>43.23205470107495784759521484375</LatitudeDegrees>
              <LongitudeDegrees>-2.82751777209341526031494140625</LongitudeDegrees>
            </Position>
            <AltitudeMeters>-6</AltitudeMeters>
            <DistanceMeters>NAN</DistanceMeters>
          </Trackpoint>
          <Trackpoint>
            <Time>2022-09-24T14:41:47.000Z</Time>
            <Position>
              <LatitudeDegrees>43.2320707105100154876708984375</LatitudeDegrees>
              <LongitudeDegrees>-2.82740646041929721832275390625</LongitudeDegrees>
            </Position>
            <AltitudeMeters>-6</AltitudeMeters>
            <DistanceMeters>NAN</DistanceMeters>
          </Trackpoint>
          <Trackpoint>
            <Time>2022-09-24T14:41:48.000Z</Time>
            <Position>
              <LatitudeDegrees>43.23208671994507312774658203125</LatitudeDegrees>
              <LongitudeDegrees>-2.82729514874517917633056640625</LongitudeDegrees>
            </Position>
            <AltitudeMeters>-6</AltitudeMeters>
            <DistanceMeters>NAN</DistanceMeters>
          </Trackpoint>
          <Trackpoint>
            <Time>2022-09-24T14:41:49.000Z</Time>
            <Position>
              <LatitudeDegrees>43.23210281319916248321533203125</LatitudeDegrees>
              <LongitudeDegrees>-2.82718232832849025726318359375</LongitudeDegrees>
            </Position>
            <AltitudeMeters>-6.19999980926513671875</AltitudeMeters>
            <DistanceMeters>NAN</DistanceMeters>
          </Trackpoint>
          <Trackpoint>
            <Time>2022-09-24T14:41:50.000Z</Time>
            <Position>
              <LatitudeDegrees>43.2321126200258731842041015625</LatitudeDegrees>
              <LongitudeDegrees>-2.82706967554986476898193359375</LongitudeDegrees>
            </Position>
            <AltitudeMeters>-6</AltitudeMeters>
            <DistanceMeters>NAN</DistanceMeters>
          </Trackpoint>
          <Trackpoint>
            <Time>2022-09-24T14:41:51.000Z</Time>
            <Position>
              <LatitudeDegrees>43.23211672715842723846435546875</LatitudeDegrees>
              <LongitudeDegrees>-2.82695769332349300384521484375</LongitudeDegrees>
            </Position>
            <AltitudeMeters>-6</AltitudeMeters>
            <DistanceMeters>NAN</DistanceMeters>
          </Trackpoint>
          <Trackpoint>
            <Time>2022-09-24T14:41:52.000Z</Time>
            <Position>
              <LatitudeDegrees>43.23211572133004665374755859375</LatitudeDegrees>
              <LongitudeDegrees>-2.82684453763067722320556640625</LongitudeDegrees>
            </Position>
            <AltitudeMeters>-5.599999904632568359375</AltitudeMeters>
            <DistanceMeters>NAN</DistanceMeters>
          </Trackpoint>
          <Trackpoint>
            <Time>2022-09-24T14:41:53.000Z</Time>
            <Position>
              <LatitudeDegrees>43.23211102746427059173583984375</LatitudeDegrees>
              <LongitudeDegrees>-2.82672937028110027313232421875</LongitudeDegrees>
            </Position>
            <AltitudeMeters>-6</AltitudeMeters>
            <DistanceMeters>NAN</DistanceMeters>
          </Trackpoint>
          <Trackpoint>
            <Time>2022-09-24T14:41:54.000Z</Time>
            <Position>
              <LatitudeDegrees>43.23210616596043109893798828125</LatitudeDegrees>
              <LongitudeDegrees>-2.8266139514744281768798828125</LongitudeDegrees>
            </Position>
            <AltitudeMeters>-6.19999980926513671875</AltitudeMeters>
            <DistanceMeters>NAN</DistanceMeters>
          </Trackpoint>
          <Trackpoint>
            <Time>2022-09-24T14:41:55.000Z</Time>
            <Position>
              <LatitudeDegrees>43.23210172355175018310546875</LatitudeDegrees>
              <LongitudeDegrees>-2.82649777829647064208984375</LongitudeDegrees>
            </Position>
            <AltitudeMeters>-6.19999980926513671875</AltitudeMeters>
            <DistanceMeters>NAN</DistanceMeters>
          </Trackpoint>
          <Trackpoint>
            <Time>2022-09-24T14:41:56.000Z</Time>
            <Position>
              <LatitudeDegrees>43.23210130445659160614013671875</LatitudeDegrees>
              <LongitudeDegrees>-2.826382108032703399658203125</LongitudeDegrees>
            </Position>
            <AltitudeMeters>-6</AltitudeMeters>
            <DistanceMeters>NAN</DistanceMeters>
          </Trackpoint>
          <Trackpoint>
            <Time>2022-09-24T14:41:57.000Z</Time>
            <Position>
              <LatitudeDegrees>43.23209040798246860504150390625</LatitudeDegrees>
              <LongitudeDegrees>-2.826266102492809295654296875</LongitudeDegrees>
            </Position>
            <AltitudeMeters>-5.400000095367431640625</AltitudeMeters>
            <DistanceMeters>NAN</DistanceMeters>
          </Trackpoint>
          <Trackpoint>
            <Time>2022-09-24T14:41:58.000Z</Time>
            <Position>
              <LatitudeDegrees>43.23207967914640903472900390625</LatitudeDegrees>
              <LongitudeDegrees>-2.8261511027812957763671875</LongitudeDegrees>
            </Position>
            <AltitudeMeters>-5.400000095367431640625</AltitudeMeters>
            <DistanceMeters>NAN</DistanceMeters>
          </Trackpoint>
          <Trackpoint>
            <Time>2022-09-24T14:41:59.000Z</Time>
            <Position>
              <LatitudeDegrees>43.2320700399577617645263671875</LatitudeDegrees>
              <LongitudeDegrees>-2.8260325826704502105712890625</LongitudeDegrees>
            </Position>
            <AltitudeMeters>-5.400000095367431640625</AltitudeMeters>
            <DistanceMeters>NAN</DistanceMeters>
          </Trackpoint>
          <Trackpoint>
            <Time>2022-09-24T14:42:00.000Z</Time>
            <Position>
              <LatitudeDegrees>43.23206090368330478668212890625</LatitudeDegrees>
              <LongitudeDegrees>-2.82591565512120723724365234375</LongitudeDegrees>
            </Position>
            <AltitudeMeters>-5.400000095367431640625</AltitudeMeters>
            <DistanceMeters>NAN</DistanceMeters>
          </Trackpoint>
          <Trackpoint>
            <Time>2022-09-24T14:42:01.000Z</Time>
            <Position>
              <LatitudeDegrees>43.23205201886594295501708984375</LatitudeDegrees>
              <LongitudeDegrees>-2.82580082304775714874267578125</LongitudeDegrees>
            </Position>
            <AltitudeMeters>-5</AltitudeMeters>
            <DistanceMeters>NAN</DistanceMeters>
          </Trackpoint>
          <Trackpoint>
            <Time>2022-09-24T14:42:02.000Z</Time>
            <Position>
              <LatitudeDegrees>43.2320422120392322540283203125</LatitudeDegrees>
              <LongitudeDegrees>-2.8256852366030216217041015625</LongitudeDegrees>
            </Position>
            <AltitudeMeters>-5</AltitudeMeters>
            <DistanceMeters>NAN</DistanceMeters>
          </Trackpoint>
          <Trackpoint>
            <Time>2022-09-24T14:42:03.000Z</Time>
            <Position>
              <LatitudeDegrees>43.232029974460601806640625</LatitudeDegrees>
              <LongitudeDegrees>-2.8255699016153812408447265625</LongitudeDegrees>
            </Position>
            <AltitudeMeters>-5.400000095367431640625</AltitudeMeters>
            <DistanceMeters>NAN</DistanceMeters>
          </Trackpoint>
          <Trackpoint>
            <Time>2022-09-24T14:42:04.000Z</Time>
            <Position>
              <LatitudeDegrees>43.23201966471970081329345703125</LatitudeDegrees>
              <LongitudeDegrees>-2.82545582391321659088134765625</LongitudeDegrees>
            </Position>
            <AltitudeMeters>-5.400000095367431640625</AltitudeMeters>
            <DistanceMeters>NAN</DistanceMeters>
          </Trackpoint>
          <Trackpoint>
            <Time>2022-09-24T14:42:05.000Z</Time>
            <Position>
              <LatitudeDegrees>43.2320106960833072662353515625</LatitudeDegrees>
              <LongitudeDegrees>-2.82534115947782993316650390625</LongitudeDegrees>
            </Position>
            <AltitudeMeters>-5.400000095367431640625</AltitudeMeters>
            <DistanceMeters>NAN</DistanceMeters>
          </Trackpoint>
          <Trackpoint>
            <Time>2022-09-24T14:42:06.000Z</Time>
            <Position>
              <LatitudeDegrees>43.2319996319711208343505859375</LatitudeDegrees>
              <LongitudeDegrees>-2.82522507011890411376953125</LongitudeDegrees>
            </Position>
            <AltitudeMeters>-5.400000095367431640625</AltitudeMeters>
            <DistanceMeters>NAN</DistanceMeters>
          </Trackpoint>
          <Trackpoint>
            <Time>2022-09-24T14:42:07.000Z</Time>
            <Position>
              <LatitudeDegrees>43.2319872267544269561767578125</LatitudeDegrees>
              <LongitudeDegrees>-2.8251102380454540252685546875</LongitudeDegrees>
            </Position>
            <AltitudeMeters>-5.400000095367431640625</AltitudeMeters>
            <DistanceMeters>NAN</DistanceMeters>
          </Trackpoint>
          <Trackpoint>
            <Time>2022-09-24T14:42:08.000Z</Time>
            <Position>
              <LatitudeDegrees>43.23197507299482822418212890625</LatitudeDegrees>
              <LongitudeDegrees>-2.8249989263713359832763671875</LongitudeDegrees>
            </Position>
            <AltitudeMeters>-5.400000095367431640625</AltitudeMeters>
            <DistanceMeters>NAN</DistanceMeters>
          </Trackpoint>
          <Trackpoint>
            <Time>2022-09-24T14:42:09.000Z</Time>
            <Position>
              <LatitudeDegrees>43.23196384124457836151123046875</LatitudeDegrees>
              <LongitudeDegrees>-2.82488753087818622589111328125</LongitudeDegrees>
            </Position>
            <AltitudeMeters>-5.400000095367431640625</AltitudeMeters>
            <DistanceMeters>NAN</DistanceMeters>
          </Trackpoint>
          <Trackpoint>
            <Time>2022-09-24T14:42:10.000Z</Time>
            <Position>
              <LatitudeDegrees>43.23195328004658222198486328125</LatitudeDegrees>
              <LongitudeDegrees>-2.8247751295566558837890625</LongitudeDegrees>
            </Position>
            <AltitudeMeters>-5.400000095367431640625</AltitudeMeters>
            <DistanceMeters>NAN</DistanceMeters>
          </Trackpoint>
          <Trackpoint>
            <Time>2022-09-24T14:42:11.000Z</Time>
            <Position>
              <LatitudeDegrees>43.2319443114101886749267578125</LatitudeDegrees>
              <LongitudeDegrees>-2.82466239295899868011474609375</LongitudeDegrees>
            </Position>
            <AltitudeMeters>-5.400000095367431640625</AltitudeMeters>
            <DistanceMeters>NAN</DistanceMeters>
          </Trackpoint>
          <Trackpoint>
            <Time>2022-09-24T14:42:12.000Z</Time>
            <Position>
              <LatitudeDegrees>43.231941796839237213134765625</LatitudeDegrees>
              <LongitudeDegrees>-2.82455091364681720733642578125</LongitudeDegrees>
            </Position>
            <AltitudeMeters>-5.400000095367431640625</AltitudeMeters>
            <DistanceMeters>NAN</DistanceMeters>
          </Trackpoint>
          <Trackpoint>
            <Time>2022-09-24T14:42:13.000Z</Time>
            <Position>
              <LatitudeDegrees>43.2319347560405731201171875</LatitudeDegrees>
              <LongitudeDegrees>-2.82443842850625514984130859375</LongitudeDegrees>
            </Position>
            <AltitudeMeters>-5</AltitudeMeters>
            <DistanceMeters>NAN</DistanceMeters>
          </Trackpoint>
          <Trackpoint>
            <Time>2022-09-24T14:42:14.000Z</Time>
            <Position>
              <LatitudeDegrees>43.23192360810935497283935546875</LatitudeDegrees>
              <LongitudeDegrees>-2.82432644627988338470458984375</LongitudeDegrees>
            </Position>
            <AltitudeMeters>-5.400000095367431640625</AltitudeMeters>
            <DistanceMeters>NAN</DistanceMeters>
          </Trackpoint>
          <Trackpoint>
            <Time>2022-09-24T14:42:15.000Z</Time>
            <Position>
              <LatitudeDegrees>43.23191153816878795623779296875</LatitudeDegrees>
              <LongitudeDegrees>-2.8242150507867336273193359375</LongitudeDegrees>
            </Position>
            <AltitudeMeters>-5.599999904632568359375</AltitudeMeters>
            <DistanceMeters>NAN</DistanceMeters>
          </Trackpoint>
          <Trackpoint>
            <Time>2022-09-24T14:42:16.000Z</Time>
            <Position>
              <LatitudeDegrees>43.23191153816878795623779296875</LatitudeDegrees>
              <LongitudeDegrees>-2.8242150507867336273193359375</LongitudeDegrees>
            </Position>
            <AltitudeMeters>-5.599999904632568359375</AltitudeMeters>
            <DistanceMeters>NAN</DistanceMeters>
          </Trackpoint>
          <Trackpoint>
            <Time>2022-09-24T14:42:17.000Z</Time>
            <Position>
              <LatitudeDegrees>43.2318940199911594390869140625</LatitudeDegrees>
              <LongitudeDegrees>-2.82399049960076808929443359375</LongitudeDegrees>
            </Position>
            <AltitudeMeters>-5</AltitudeMeters>
            <DistanceMeters>NAN</DistanceMeters>
          </Trackpoint>
          <Trackpoint>
            <Time>2022-09-24T14:42:18.000Z</Time>
            <Position>
              <LatitudeDegrees>43.23188354261219501495361328125</LatitudeDegrees>
              <LongitudeDegrees>-2.82387994229793548583984375</LongitudeDegrees>
            </Position>
            <AltitudeMeters>-5</AltitudeMeters>
            <DistanceMeters>NAN</DistanceMeters>
          </Trackpoint>
          <Trackpoint>
            <Time>2022-09-24T14:42:19.000Z</Time>
            <Position>
              <LatitudeDegrees>43.231869377195835113525390625</LatitudeDegrees>
              <LongitudeDegrees>-2.82376921735703945159912109375</LongitudeDegrees>
            </Position>
            <AltitudeMeters>-5</AltitudeMeters>
            <DistanceMeters>NAN</DistanceMeters>
          </Trackpoint>
          <Trackpoint>
            <Time>2022-09-24T14:42:20.000Z</Time>
            <Position>
              <LatitudeDegrees>43.2318604923784732818603515625</LatitudeDegrees>
              <LongitudeDegrees>-2.82366008497774600982666015625</LongitudeDegrees>
            </Position>
            <AltitudeMeters>-4.599999904632568359375</AltitudeMeters>
            <DistanceMeters>NAN</DistanceMeters>
          </Trackpoint>
          <Trackpoint>
            <Time>2022-09-24T14:42:21.000Z</Time>
            <Position>
              <LatitudeDegrees>43.23184959590435028076171875</LatitudeDegrees>
              <LongitudeDegrees>-2.82355011440813541412353515625</LongitudeDegrees>
            </Position>
            <AltitudeMeters>-4.599999904632568359375</AltitudeMeters>
            <DistanceMeters>NAN</DistanceMeters>
          </Trackpoint>
          <Trackpoint>
            <Time>2022-09-24T14:42:22.000Z</Time>
            <Position>
              <LatitudeDegrees>43.23184079490602016448974609375</LatitudeDegrees>
              <LongitudeDegrees>-2.8234405629336833953857421875</LongitudeDegrees>
            </Position>
            <AltitudeMeters>-4.599999904632568359375</AltitudeMeters>
            <DistanceMeters>NAN</DistanceMeters>
          </Trackpoint>
          <Trackpoint>
            <Time>2022-09-24T14:42:23.000Z</Time>
            <Position>
              <LatitudeDegrees>43.23183207772672176361083984375</LatitudeDegrees>
              <LongitudeDegrees>-2.82333168201148509979248046875</LongitudeDegrees>
            </Position>
            <AltitudeMeters>-4.400000095367431640625</AltitudeMeters>
            <DistanceMeters>NAN</DistanceMeters>
          </Trackpoint>
          <Trackpoint>
            <Time>2022-09-24T14:42:24.000Z</Time>
            <Position>
              <LatitudeDegrees>43.23183207772672176361083984375</LatitudeDegrees>
              <LongitudeDegrees>-2.82333168201148509979248046875</LongitudeDegrees>
            </Position>
            <AltitudeMeters>-4.599999904632568359375</AltitudeMeters>
            <DistanceMeters>NAN</DistanceMeters>
          </Trackpoint>
          <Trackpoint>
            <Time>2022-09-24T14:42:25.000Z</Time>
            <Position>
              <LatitudeDegrees>43.23181204497814178466796875</LatitudeDegrees>
              <LongitudeDegrees>-2.8231106512248516082763671875</LongitudeDegrees>
            </Position>
            <AltitudeMeters>-4.599999904632568359375</AltitudeMeters>
            <DistanceMeters>NAN</DistanceMeters>
          </Trackpoint>
          <Trackpoint>
            <Time>2022-09-24T14:42:26.000Z</Time>
            <Position>
              <LatitudeDegrees>43.23180408217012882232666015625</LatitudeDegrees>
              <LongitudeDegrees>-2.8230033628642559051513671875</LongitudeDegrees>
            </Position>
            <AltitudeMeters>-4.599999904632568359375</AltitudeMeters>
            <DistanceMeters>NAN</DistanceMeters>
          </Trackpoint>
          <Trackpoint>
            <Time>2022-09-24T14:42:27.000Z</Time>
            <Position>
              <LatitudeDegrees>43.231793940067291259765625</LatitudeDegrees>
              <LongitudeDegrees>-2.82289297319948673248291015625</LongitudeDegrees>
            </Position>
            <AltitudeMeters>-4.599999904632568359375</AltitudeMeters>
            <DistanceMeters>NAN</DistanceMeters>
          </Trackpoint>
          <Trackpoint>
            <Time>2022-09-24T14:42:28.000Z</Time>
            <Position>
              <LatitudeDegrees>43.23178379796445369720458984375</LatitudeDegrees>
              <LongitudeDegrees>-2.8227830864489078521728515625</LongitudeDegrees>
            </Position>
            <AltitudeMeters>-4.400000095367431640625</AltitudeMeters>
            <DistanceMeters>NAN</DistanceMeters>
          </Trackpoint>
          <Trackpoint>
            <Time>2022-09-24T14:42:29.000Z</Time>
            <Position>
              <LatitudeDegrees>43.23177491314709186553955078125</LatitudeDegrees>
              <LongitudeDegrees>-2.82267370261251926422119140625</LongitudeDegrees>
            </Position>
            <AltitudeMeters>-4.400000095367431640625</AltitudeMeters>
            <DistanceMeters>NAN</DistanceMeters>
          </Trackpoint>
          <Trackpoint>
            <Time>2022-09-24T14:42:30.000Z</Time>
            <Position>
              <LatitudeDegrees>43.23176334612071514129638671875</LatitudeDegrees>
              <LongitudeDegrees>-2.82256473787128925323486328125</LongitudeDegrees>
            </Position>
            <AltitudeMeters>-4.400000095367431640625</AltitudeMeters>
            <DistanceMeters>NAN</DistanceMeters>
          </Trackpoint>
          <Trackpoint>
            <Time>2022-09-24T14:42:31.000Z</Time>
            <Position>
              <LatitudeDegrees>43.2317511923611164093017578125</LatitudeDegrees>
              <LongitudeDegrees>-2.82245677895843982696533203125</LongitudeDegrees>
            </Position>
            <AltitudeMeters>-4</AltitudeMeters>
            <DistanceMeters>NAN</DistanceMeters>
          </Trackpoint>
          <Trackpoint>
            <Time>2022-09-24T14:42:32.000Z</Time>
            <Position>
              <LatitudeDegrees>43.23173962533473968505859375</LatitudeDegrees>
              <LongitudeDegrees>-2.82235183753073215484619140625</LongitudeDegrees>
            </Position>
            <AltitudeMeters>-4</AltitudeMeters>
            <DistanceMeters>NAN</DistanceMeters>
          </Trackpoint>
          <Trackpoint>
            <Time>2022-09-24T14:42:33.000Z</Time>
            <Position>
              <LatitudeDegrees>43.23173115961253643035888671875</LatitudeDegrees>
              <LongitudeDegrees>-2.82224605791270732879638671875</LongitudeDegrees>
            </Position>
            <AltitudeMeters>-4</AltitudeMeters>
            <DistanceMeters>NAN</DistanceMeters>
          </Trackpoint>
          <Trackpoint>
            <Time>2022-09-24T14:42:34.000Z</Time>
            <Position>
              <LatitudeDegrees>43.23172193951904773712158203125</LatitudeDegrees>
              <LongitudeDegrees>-2.8221410326659679412841796875</LongitudeDegrees>
            </Position>
            <AltitudeMeters>-4.19999980926513671875</AltitudeMeters>
            <DistanceMeters>NAN</DistanceMeters>
          </Trackpoint>
          <Trackpoint>
            <Time>2022-09-24T14:42:35.000Z</Time>
            <Position>
              <LatitudeDegrees>43.23171204887330532073974609375</LatitudeDegrees>
              <LongitudeDegrees>-2.8220407851040363311767578125</LongitudeDegrees>
            </Position>
            <AltitudeMeters>-4</AltitudeMeters>
            <DistanceMeters>NAN</DistanceMeters>
          </Trackpoint>
          <Trackpoint>
            <Time>2022-09-24T14:42:36.000Z</Time>
            <Position>
              <LatitudeDegrees>43.23170333169400691986083984375</LatitudeDegrees>
              <LongitudeDegrees>-2.8219408728182315826416015625</LongitudeDegrees>
            </Position>
            <AltitudeMeters>-4</AltitudeMeters>
            <DistanceMeters>NAN</DistanceMeters>
          </Trackpoint>
          <Trackpoint>
            <Time>2022-09-24T14:42:37.000Z</Time>
            <Position>
              <LatitudeDegrees>43.231694698333740234375</LatitudeDegrees>
              <LongitudeDegrees>-2.8218416310846805572509765625</LongitudeDegrees>
            </Position>
            <AltitudeMeters>-4</AltitudeMeters>
            <DistanceMeters>NAN</DistanceMeters>
          </Trackpoint>
          <Trackpoint>
            <Time>2022-09-24T14:42:38.000Z</Time>
            <Position>
              <LatitudeDegrees>43.231687657535076141357421875</LatitudeDegrees>
              <LongitudeDegrees>-2.82174498774111270904541015625</LongitudeDegrees>
            </Position>
            <AltitudeMeters>-3.400000095367431640625</AltitudeMeters>
            <DistanceMeters>NAN</DistanceMeters>
          </Trackpoint>
          <Trackpoint>
            <Time>2022-09-24T14:42:39.000Z</Time>
            <Position>
              <LatitudeDegrees>43.23167868889868259429931640625</LatitudeDegrees>
              <LongitudeDegrees>-2.82165161333978176116943359375</LongitudeDegrees>
            </Position>
            <AltitudeMeters>-3.2000000476837158203125</AltitudeMeters>
            <DistanceMeters>NAN</DistanceMeters>
          </Trackpoint>
          <Trackpoint>
            <Time>2022-09-24T14:42:40.000Z</Time>
            <Position>
              <LatitudeDegrees>43.23167148046195507049560546875</LatitudeDegrees>
              <LongitudeDegrees>-2.82155890949070453643798828125</LongitudeDegrees>
            </Position>
            <AltitudeMeters>-2.7999999523162841796875</AltitudeMeters>
            <DistanceMeters>NAN</DistanceMeters>
          </Trackpoint>
          <Trackpoint>
            <Time>2022-09-24T14:42:41.000Z</Time>
            <Position>
              <LatitudeDegrees>43.2316656969487667083740234375</LatitudeDegrees>
              <LongitudeDegrees>-2.82146461308002471923828125</LongitudeDegrees>
            </Position>
            <AltitudeMeters>-2.599999904632568359375</AltitudeMeters>
            <DistanceMeters>NAN</DistanceMeters>
          </Trackpoint>
          <Trackpoint>
            <Time>2022-09-24T14:42:42.000Z</Time>
            <Position>
              <LatitudeDegrees>43.23166175745427608489990234375</LatitudeDegrees>
              <LongitudeDegrees>-2.82137475907802581787109375</LongitudeDegrees>
            </Position>
            <AltitudeMeters>-2.400000095367431640625</AltitudeMeters>
            <DistanceMeters>NAN</DistanceMeters>
          </Trackpoint>
          <Trackpoint>
            <Time>2022-09-24T14:42:43.000Z</Time>
            <Position>
              <LatitudeDegrees>43.23165773414075374603271484375</LatitudeDegrees>
              <LongitudeDegrees>-2.82128465361893177032470703125</LongitudeDegrees>
            </Position>
            <AltitudeMeters>-2.2000000476837158203125</AltitudeMeters>
            <DistanceMeters>NAN</DistanceMeters>
          </Trackpoint>
          <Trackpoint>
            <Time>2022-09-24T14:42:44.000Z</Time>
            <Position>
              <LatitudeDegrees>43.2316542975604534149169921875</LatitudeDegrees>
              <LongitudeDegrees>-2.82120041549205780029296875</LongitudeDegrees>
            </Position>
            <AltitudeMeters>-2</AltitudeMeters>
            <DistanceMeters>NAN</DistanceMeters>
          </Trackpoint>
          <Trackpoint>
            <Time>2022-09-24T14:42:45.000Z</Time>
            <Position>
              <LatitudeDegrees>43.23163359425961971282958984375</LatitudeDegrees>
              <LongitudeDegrees>-2.82112154178321361541748046875</LongitudeDegrees>
            </Position>
            <AltitudeMeters>-1.39999997615814208984375</AltitudeMeters>
            <DistanceMeters>NAN</DistanceMeters>
          </Trackpoint>
          <Trackpoint>
            <Time>2022-09-24T14:42:46.000Z</Time>
            <Position>
              <LatitudeDegrees>43.23160593397915363311767578125</LatitudeDegrees>
              <LongitudeDegrees>-2.82105096615850925445556640625</LongitudeDegrees>
            </Position>
            <AltitudeMeters>-1</AltitudeMeters>
            <DistanceMeters>NAN</DistanceMeters>
          </Trackpoint>
          <Trackpoint>
            <Time>2022-09-24T14:42:47.000Z</Time>
            <Position>
              <LatitudeDegrees>43.231568969786167144775390625</LatitudeDegrees>
              <LongitudeDegrees>-2.82097586430609226226806640625</LongitudeDegrees>
            </Position>
            <AltitudeMeters>0.4000000059604644775390625</AltitudeMeters>
            <DistanceMeters>NAN</DistanceMeters>
          </Trackpoint>
          <Trackpoint>
            <Time>2022-09-24T14:42:48.000Z</Time>
            <Position>
              <LatitudeDegrees>43.231523372232913970947265625</LatitudeDegrees>
              <LongitudeDegrees>-2.82090646214783191680908203125</LongitudeDegrees>
            </Position>
            <AltitudeMeters>0.60000002384185791015625</AltitudeMeters>
            <DistanceMeters>NAN</DistanceMeters>
          </Trackpoint>
          <Trackpoint>
            <Time>2022-09-24T14:42:49.000Z</Time>
            <Position>
              <LatitudeDegrees>43.2314863242208957672119140625</LatitudeDegrees>
              <LongitudeDegrees>-2.82083990983664989471435546875</LongitudeDegrees>
            </Position>
            <AltitudeMeters>0.800000011920928955078125</AltitudeMeters>
            <DistanceMeters>NAN</DistanceMeters>
          </Trackpoint>
          <Trackpoint>
            <Time>2022-09-24T14:42:50.000Z</Time>
            <Position>
              <LatitudeDegrees>43.231458328664302825927734375</LatitudeDegrees>
              <LongitudeDegrees>-2.82078123651444911956787109375</LongitudeDegrees>
            </Position>
            <AltitudeMeters>1</AltitudeMeters>
            <DistanceMeters>NAN</DistanceMeters>
          </Trackpoint>
          <Trackpoint>
            <Time>2022-09-24T14:42:51.000Z</Time>
            <Position>
              <LatitudeDegrees>43.231458328664302825927734375</LatitudeDegrees>
              <LongitudeDegrees>-2.82078123651444911956787109375</LongitudeDegrees>
            </Position>
            <AltitudeMeters>1.2000000476837158203125</AltitudeMeters>
            <DistanceMeters>NAN</DistanceMeters>
          </Trackpoint>
          <Trackpoint>
            <Time>2022-09-24T14:42:52.000Z</Time>
            <Position>
              <LatitudeDegrees>43.2313947938382625579833984375</LatitudeDegrees>
              <LongitudeDegrees>-2.82067612744867801666259765625</LongitudeDegrees>
            </Position>
            <AltitudeMeters>1.7999999523162841796875</AltitudeMeters>
            <DistanceMeters>NAN</DistanceMeters>
          </Trackpoint>
          <Trackpoint>
            <Time>2022-09-24T14:42:53.000Z</Time>
            <Position>
              <LatitudeDegrees>43.2313569076359272003173828125</LatitudeDegrees>
              <LongitudeDegrees>-2.8206275962293148040771484375</LongitudeDegrees>
            </Position>
            <AltitudeMeters>2</AltitudeMeters>
            <DistanceMeters>NAN</DistanceMeters>
          </Trackpoint>
          <Trackpoint>
            <Time>2022-09-24T14:42:54.000Z</Time>
            <Position>
              <LatitudeDegrees>43.2313237152993679046630859375</LatitudeDegrees>
              <LongitudeDegrees>-2.82057872973382472991943359375</LongitudeDegrees>
            </Position>
            <AltitudeMeters>2.2000000476837158203125</AltitudeMeters>
            <DistanceMeters>NAN</DistanceMeters>
          </Trackpoint>
          <Trackpoint>
            <Time>2022-09-24T14:42:55.000Z</Time>
            <Position>
              <LatitudeDegrees>43.23128901422023773193359375</LatitudeDegrees>
              <LongitudeDegrees>-2.82053648494184017181396484375</LongitudeDegrees>
            </Position>
            <AltitudeMeters>2.599999904632568359375</AltitudeMeters>
            <DistanceMeters>NAN</DistanceMeters>
          </Trackpoint>
          <Trackpoint>
            <Time>2022-09-24T14:42:56.000Z</Time>
            <Position>
              <LatitudeDegrees>43.23125657625496387481689453125</LatitudeDegrees>
              <LongitudeDegrees>-2.82049776054918766021728515625</LongitudeDegrees>
            </Position>
            <AltitudeMeters>2.599999904632568359375</AltitudeMeters>
            <DistanceMeters>NAN</DistanceMeters>
          </Trackpoint>
          <Trackpoint>
            <Time>2022-09-24T14:42:57.000Z</Time>
            <Position>
              <LatitudeDegrees>43.23122120462357997894287109375</LatitudeDegrees>
              <LongitudeDegrees>-2.82045568339526653289794921875</LongitudeDegrees>
            </Position>
            <AltitudeMeters>3.400000095367431640625</AltitudeMeters>
            <DistanceMeters>NAN</DistanceMeters>
          </Trackpoint>
          <Trackpoint>
            <Time>2022-09-24T14:42:58.000Z</Time>
            <Position>
              <LatitudeDegrees>43.2311872579157352447509765625</LatitudeDegrees>
              <LongitudeDegrees>-2.820415534079074859619140625</LongitudeDegrees>
            </Position>
            <AltitudeMeters>3.400000095367431640625</AltitudeMeters>
            <DistanceMeters>NAN</DistanceMeters>
          </Trackpoint>
          <Trackpoint>
            <Time>2022-09-24T14:42:59.000Z</Time>
            <Position>
              <LatitudeDegrees>43.2311500422656536102294921875</LatitudeDegrees>
              <LongitudeDegrees>-2.82037957571446895599365234375</LongitudeDegrees>
            </Position>
            <AltitudeMeters>4.19999980926513671875</AltitudeMeters>
            <DistanceMeters>NAN</DistanceMeters>
          </Trackpoint>
          <Trackpoint>
            <Time>2022-09-24T14:43:00.000Z</Time>
            <Position>
              <LatitudeDegrees>43.2311166822910308837890625</LatitudeDegrees>
              <LongitudeDegrees>-2.82035191543400287628173828125</LongitudeDegrees>
            </Position>
            <AltitudeMeters>4.400000095367431640625</AltitudeMeters>
            <DistanceMeters>NAN</DistanceMeters>
          </Trackpoint>
          <Trackpoint>
            <Time>2022-09-24T14:43:01.000Z</Time>
            <Position>
              <LatitudeDegrees>43.23108156211674213409423828125</LatitudeDegrees>
              <LongitudeDegrees>-2.82031939364969730377197265625</LongitudeDegrees>
            </Position>
            <AltitudeMeters>4.400000095367431640625</AltitudeMeters>
            <DistanceMeters>NAN</DistanceMeters>
          </Trackpoint>
          <Trackpoint>
            <Time>2022-09-24T14:43:02.000Z</Time>
            <Position>
              <LatitudeDegrees>43.2310469448566436767578125</LatitudeDegrees>
              <LongitudeDegrees>-2.820286117494106292724609375</LongitudeDegrees>
            </Position>
            <AltitudeMeters>4.400000095367431640625</AltitudeMeters>
            <DistanceMeters>NAN</DistanceMeters>
          </Trackpoint>
          <Trackpoint>
            <Time>2022-09-24T14:43:03.000Z</Time>
            <Position>
              <LatitudeDegrees>43.23101065121591091156005859375</LatitudeDegrees>
              <LongitudeDegrees>-2.82025116495788097381591796875</LongitudeDegrees>
            </Position>
            <AltitudeMeters>4.400000095367431640625</AltitudeMeters>
            <DistanceMeters>NAN</DistanceMeters>
          </Trackpoint>
          <Trackpoint>
            <Time>2022-09-24T14:43:04.000Z</Time>
            <Position>
              <LatitudeDegrees>43.23101065121591091156005859375</LatitudeDegrees>
              <LongitudeDegrees>-2.82025116495788097381591796875</LongitudeDegrees>
            </Position>
            <AltitudeMeters>4.599999904632568359375</AltitudeMeters>
            <DistanceMeters>NAN</DistanceMeters>
          </Trackpoint>
          <Trackpoint>
            <Time>2022-09-24T14:43:05.000Z</Time>
            <Position>
              <LatitudeDegrees>43.2309304364025592803955078125</LatitudeDegrees>
              <LongitudeDegrees>-2.82017723657190799713134765625</LongitudeDegrees>
            </Position>
            <AltitudeMeters>4.599999904632568359375</AltitudeMeters>
            <DistanceMeters>NAN</DistanceMeters>
          </Trackpoint>
          <Trackpoint>
            <Time>2022-09-24T14:43:06.000Z</Time>
            <Position>
              <LatitudeDegrees>43.23089196346700191497802734375</LatitudeDegrees>
              <LongitudeDegrees>-2.82013867981731891632080078125</LongitudeDegrees>
            </Position>
            <AltitudeMeters>5</AltitudeMeters>
            <DistanceMeters>NAN</DistanceMeters>
          </Trackpoint>
          <Trackpoint>
            <Time>2022-09-24T14:43:07.000Z</Time>
            <Position>
              <LatitudeDegrees>43.23085491545498371124267578125</LatitudeDegrees>
              <LongitudeDegrees>-2.8200995363295078277587890625</LongitudeDegrees>
            </Position>
            <AltitudeMeters>5.19999980926513671875</AltitudeMeters>
            <DistanceMeters>NAN</DistanceMeters>
          </Trackpoint>
          <Trackpoint>
            <Time>2022-09-24T14:43:08.000Z</Time>
            <Position>
              <LatitudeDegrees>43.2308194600045680999755859375</LatitudeDegrees>
              <LongitudeDegrees>-2.8200606442987918853759765625</LongitudeDegrees>
            </Position>
            <AltitudeMeters>5.19999980926513671875</AltitudeMeters>
            <DistanceMeters>NAN</DistanceMeters>
          </Trackpoint>
          <Trackpoint>
            <Time>2022-09-24T14:43:09.000Z</Time>
            <Position>
              <LatitudeDegrees>43.23079020716249942779541015625</LatitudeDegrees>
              <LongitudeDegrees>-2.820028625428676605224609375</LongitudeDegrees>
            </Position>
            <AltitudeMeters>5.599999904632568359375</AltitudeMeters>
            <DistanceMeters>NAN</DistanceMeters>
          </Trackpoint>
          <Trackpoint>
            <Time>2022-09-24T14:43:10.000Z</Time>
            <Position>
              <LatitudeDegrees>43.23075391352176666259765625</LatitudeDegrees>
              <LongitudeDegrees>-2.81998612917959690093994140625</LongitudeDegrees>
            </Position>
            <AltitudeMeters>5.80000019073486328125</AltitudeMeters>
            <DistanceMeters>NAN</DistanceMeters>
          </Trackpoint>
          <Trackpoint>
            <Time>2022-09-24T14:43:11.000Z</Time>
            <Position>
              <LatitudeDegrees>43.23071770370006561279296875</LatitudeDegrees>
              <LongitudeDegrees>-2.81994111835956573486328125</LongitudeDegrees>
            </Position>
            <AltitudeMeters>6</AltitudeMeters>
            <DistanceMeters>NAN</DistanceMeters>
          </Trackpoint>
          <Trackpoint>
            <Time>2022-09-24T14:43:12.000Z</Time>
            <Position>
              <LatitudeDegrees>43.23068576864898204803466796875</LatitudeDegrees>
              <LongitudeDegrees>-2.8198943473398685455322265625</LongitudeDegrees>
            </Position>
            <AltitudeMeters>6.19999980926513671875</AltitudeMeters>
            <DistanceMeters>NAN</DistanceMeters>
          </Trackpoint>
          <Trackpoint>
            <Time>2022-09-24T14:43:13.000Z</Time>
            <Position>
              <LatitudeDegrees>43.230656348168849945068359375</LatitudeDegrees>
              <LongitudeDegrees>-2.8198437206447124481201171875</LongitudeDegrees>
            </Position>
            <AltitudeMeters>6.400000095367431640625</AltitudeMeters>
            <DistanceMeters>NAN</DistanceMeters>
          </Trackpoint>
          <Trackpoint>
            <Time>2022-09-24T14:43:14.000Z</Time>
            <Position>
              <LatitudeDegrees>43.23062776587903499603271484375</LatitudeDegrees>
              <LongitudeDegrees>-2.81979183666408061981201171875</LongitudeDegrees>
            </Position>
            <AltitudeMeters>6.400000095367431640625</AltitudeMeters>
            <DistanceMeters>NAN</DistanceMeters>
          </Trackpoint>
          <Trackpoint>
            <Time>2022-09-24T14:43:15.000Z</Time>
            <Position>
              <LatitudeDegrees>43.2306011952459812164306640625</LatitudeDegrees>
              <LongitudeDegrees>-2.8197367675602436065673828125</LongitudeDegrees>
            </Position>
            <AltitudeMeters>6.80000019073486328125</AltitudeMeters>
            <DistanceMeters>NAN</DistanceMeters>
          </Trackpoint>
          <Trackpoint>
            <Time>2022-09-24T14:43:16.000Z</Time>
            <Position>
              <LatitudeDegrees>43.230577893555164337158203125</LatitudeDegrees>
              <LongitudeDegrees>-2.81967826187610626220703125</LongitudeDegrees>
            </Position>
            <AltitudeMeters>6.80000019073486328125</AltitudeMeters>
            <DistanceMeters>NAN</DistanceMeters>
          </Trackpoint>
          <Trackpoint>
            <Time>2022-09-24T14:43:17.000Z</Time>
            <Position>
              <LatitudeDegrees>43.23056054301559925079345703125</LatitudeDegrees>
              <LongitudeDegrees>-2.81961682252585887908935546875</LongitudeDegrees>
            </Position>
            <AltitudeMeters>6.80000019073486328125</AltitudeMeters>
            <DistanceMeters>NAN</DistanceMeters>
          </Trackpoint>
          <Trackpoint>
            <Time>2022-09-24T14:43:18.000Z</Time>
            <Position>
              <LatitudeDegrees>43.2305384986102581024169921875</LatitudeDegrees>
              <LongitudeDegrees>-2.81955177895724773406982421875</LongitudeDegrees>
            </Position>
            <AltitudeMeters>7</AltitudeMeters>
            <DistanceMeters>NAN</DistanceMeters>
          </Trackpoint>
          <Trackpoint>
            <Time>2022-09-24T14:43:19.000Z</Time>
            <Position>
              <LatitudeDegrees>43.2305193878710269927978515625</LatitudeDegrees>
              <LongitudeDegrees>-2.81948438845574855804443359375</LongitudeDegrees>
            </Position>
            <AltitudeMeters>7.19999980926513671875</AltitudeMeters>
            <DistanceMeters>NAN</DistanceMeters>
          </Trackpoint>
          <Trackpoint>
            <Time>2022-09-24T14:43:20.000Z</Time>
            <Position>
              <LatitudeDegrees>43.230504803359508514404296875</LatitudeDegrees>
              <LongitudeDegrees>-2.81941398046910762786865234375</LongitudeDegrees>
            </Position>
            <AltitudeMeters>7.19999980926513671875</AltitudeMeters>
            <DistanceMeters>NAN</DistanceMeters>
          </Trackpoint>
          <Trackpoint>
            <Time>2022-09-24T14:43:21.000Z</Time>
            <Position>
              <LatitudeDegrees>43.23049315251410007476806640625</LatitudeDegrees>
              <LongitudeDegrees>-2.8193438239395618438720703125</LongitudeDegrees>
            </Position>
            <AltitudeMeters>7.400000095367431640625</AltitudeMeters>
            <DistanceMeters>NAN</DistanceMeters>
          </Trackpoint>
          <Trackpoint>
            <Time>2022-09-24T14:43:22.000Z</Time>
            <Position>
              <LatitudeDegrees>43.23048259131610393524169921875</LatitudeDegrees>
              <LongitudeDegrees>-2.8192707337439060211181640625</LongitudeDegrees>
            </Position>
            <AltitudeMeters>7.400000095367431640625</AltitudeMeters>
            <DistanceMeters>NAN</DistanceMeters>
          </Trackpoint>
          <Trackpoint>
            <Time>2022-09-24T14:43:23.000Z</Time>
            <Position>
              <LatitudeDegrees>43.23047571815550327301025390625</LatitudeDegrees>
              <LongitudeDegrees>-2.81918113119900226593017578125</LongitudeDegrees>
            </Position>
            <AltitudeMeters>7.400000095367431640625</AltitudeMeters>
            <DistanceMeters>NAN</DistanceMeters>
          </Trackpoint>
          <Trackpoint>
            <Time>2022-09-24T14:43:24.000Z</Time>
            <Position>
              <LatitudeDegrees>43.23047672398388385772705078125</LatitudeDegrees>
              <LongitudeDegrees>-2.81911960802972316741943359375</LongitudeDegrees>
            </Position>
            <AltitudeMeters>7.400000095367431640625</AltitudeMeters>
            <DistanceMeters>NAN</DistanceMeters>
          </Trackpoint>
          <Trackpoint>
            <Time>2022-09-24T14:43:25.000Z</Time>
            <Position>
              <LatitudeDegrees>43.23047907091677188873291015625</LatitudeDegrees>
              <LongitudeDegrees>-2.8190400637686252593994140625</LongitudeDegrees>
            </Position>
            <AltitudeMeters>7.599999904632568359375</AltitudeMeters>
            <DistanceMeters>NAN</DistanceMeters>
          </Trackpoint>
          <Trackpoint>
            <Time>2022-09-24T14:43:26.000Z</Time>
            <Position>
              <LatitudeDegrees>43.2304868660867214202880859375</LatitudeDegrees>
              <LongitudeDegrees>-2.81896077096462249755859375</LongitudeDegrees>
            </Position>
            <AltitudeMeters>7.599999904632568359375</AltitudeMeters>
            <DistanceMeters>NAN</DistanceMeters>
          </Trackpoint>
          <Trackpoint>
            <Time>2022-09-24T14:43:27.000Z</Time>
            <Position>
              <LatitudeDegrees>43.23049583472311496734619140625</LatitudeDegrees>
              <LongitudeDegrees>-2.81888290308415889739990234375</LongitudeDegrees>
            </Position>
            <AltitudeMeters>7.80000019073486328125</AltitudeMeters>
            <DistanceMeters>NAN</DistanceMeters>
          </Trackpoint>
          <Trackpoint>
            <Time>2022-09-24T14:43:28.000Z</Time>
            <Position>
              <LatitudeDegrees>43.230511508882045745849609375</LatitudeDegrees>
              <LongitudeDegrees>-2.8187886066734790802001953125</LongitudeDegrees>
            </Position>
            <AltitudeMeters>7.80000019073486328125</AltitudeMeters>
            <DistanceMeters>NAN</DistanceMeters>
          </Trackpoint>
          <Trackpoint>
            <Time>2022-09-24T14:43:29.000Z</Time>
            <Position>
              <LatitudeDegrees>43.23052952997386455535888671875</LatitudeDegrees>
              <LongitudeDegrees>-2.81870906241238117218017578125</LongitudeDegrees>
            </Position>
            <AltitudeMeters>7.80000019073486328125</AltitudeMeters>
            <DistanceMeters>NAN</DistanceMeters>
          </Trackpoint>
          <Trackpoint>
            <Time>2022-09-24T14:43:30.000Z</Time>
            <Position>
              <LatitudeDegrees>43.23055006563663482666015625</LatitudeDegrees>
              <LongitudeDegrees>-2.81862926669418811798095703125</LongitudeDegrees>
            </Position>
            <AltitudeMeters>7.80000019073486328125</AltitudeMeters>
            <DistanceMeters>NAN</DistanceMeters>
          </Trackpoint>
          <Trackpoint>
            <Time>2022-09-24T14:43:31.000Z</Time>
            <Position>
              <LatitudeDegrees>43.23057596571743488311767578125</LatitudeDegrees>
              <LongitudeDegrees>-2.81854913569986820220947265625</LongitudeDegrees>
            </Position>
            <AltitudeMeters>7.80000019073486328125</AltitudeMeters>
            <DistanceMeters>NAN</DistanceMeters>
          </Trackpoint>
          <Trackpoint>
            <Time>2022-09-24T14:43:32.000Z</Time>
            <Position>
              <LatitudeDegrees>43.2306055538356304168701171875</LatitudeDegrees>
              <LongitudeDegrees>-2.81846984289586544036865234375</LongitudeDegrees>
            </Position>
            <AltitudeMeters>7.80000019073486328125</AltitudeMeters>
            <DistanceMeters>NAN</DistanceMeters>
          </Trackpoint>
          <Trackpoint>
            <Time>2022-09-24T14:43:33.000Z</Time>
            <Position>
              <LatitudeDegrees>43.230640254914760589599609375</LatitudeDegrees>
              <LongitudeDegrees>-2.81839348375797271728515625</LongitudeDegrees>
            </Position>
            <AltitudeMeters>7.80000019073486328125</AltitudeMeters>
            <DistanceMeters>NAN</DistanceMeters>
          </Trackpoint>
          <Trackpoint>
            <Time>2022-09-24T14:43:34.000Z</Time>
            <Position>
              <LatitudeDegrees>43.2306806556880474090576171875</LatitudeDegrees>
              <LongitudeDegrees>-2.81831796281039714813232421875</LongitudeDegrees>
            </Position>
            <AltitudeMeters>7.400000095367431640625</AltitudeMeters>
            <DistanceMeters>NAN</DistanceMeters>
          </Trackpoint>
          <Trackpoint>
            <Time>2022-09-24T14:43:35.000Z</Time>
            <Position>
              <LatitudeDegrees>43.23072600178420543670654296875</LatitudeDegrees>
              <LongitudeDegrees>-2.818244285881519317626953125</LongitudeDegrees>
            </Position>
            <AltitudeMeters>7.400000095367431640625</AltitudeMeters>
            <DistanceMeters>NAN</DistanceMeters>
          </Trackpoint>
          <Trackpoint>
            <Time>2022-09-24T14:43:36.000Z</Time>
            <Position>
              <LatitudeDegrees>43.23077562265098094940185546875</LatitudeDegrees>
              <LongitudeDegrees>-2.81817764975130558013916015625</LongitudeDegrees>
            </Position>
            <AltitudeMeters>7</AltitudeMeters>
            <DistanceMeters>NAN</DistanceMeters>
          </Trackpoint>
          <Trackpoint>
            <Time>2022-09-24T14:43:37.000Z</Time>
            <Position>
              <LatitudeDegrees>43.23082608170807361602783203125</LatitudeDegrees>
              <LongitudeDegrees>-2.81811478547751903533935546875</LongitudeDegrees>
            </Position>
            <AltitudeMeters>6.400000095367431640625</AltitudeMeters>
            <DistanceMeters>NAN</DistanceMeters>
          </Trackpoint>
          <Trackpoint>
            <Time>2022-09-24T14:43:38.000Z</Time>
            <Position>
              <LatitudeDegrees>43.23088274337351322174072265625</LatitudeDegrees>
              <LongitudeDegrees>-2.81805309467017650604248046875</LongitudeDegrees>
            </Position>
            <AltitudeMeters>6</AltitudeMeters>
            <DistanceMeters>NAN</DistanceMeters>
          </Trackpoint>
          <Trackpoint>
            <Time>2022-09-24T14:43:39.000Z</Time>
            <Position>
              <LatitudeDegrees>43.23094711638987064361572265625</LatitudeDegrees>
              <LongitudeDegrees>-2.81799810938537120819091796875</LongitudeDegrees>
            </Position>
            <AltitudeMeters>5.80000019073486328125</AltitudeMeters>
            <DistanceMeters>NAN</DistanceMeters>
          </Trackpoint>
          <Trackpoint>
            <Time>2022-09-24T14:43:40.000Z</Time>
            <Position>
              <LatitudeDegrees>43.2310280017554759979248046875</LatitudeDegrees>
              <LongitudeDegrees>-2.8179376758635044097900390625</LongitudeDegrees>
            </Position>
            <AltitudeMeters>5.599999904632568359375</AltitudeMeters>
            <DistanceMeters>NAN</DistanceMeters>
          </Trackpoint>
          <Trackpoint>
            <Time>2022-09-24T14:43:41.000Z</Time>
            <Position>
              <LatitudeDegrees>43.23108525015413761138916015625</LatitudeDegrees>
              <LongitudeDegrees>-2.8179007954895496368408203125</LongitudeDegrees>
            </Position>
            <AltitudeMeters>5.400000095367431640625</AltitudeMeters>
            <DistanceMeters>NAN</DistanceMeters>
          </Trackpoint>
          <Trackpoint>
            <Time>2022-09-24T14:43:42.000Z</Time>
            <Position>
              <LatitudeDegrees>43.231160603463649749755859375</LatitudeDegrees>
              <LongitudeDegrees>-2.81785679049789905548095703125</LongitudeDegrees>
            </Position>
            <AltitudeMeters>5.19999980926513671875</AltitudeMeters>
            <DistanceMeters>NAN</DistanceMeters>
          </Trackpoint>
          <Trackpoint>
            <Time>2022-09-24T14:43:43.000Z</Time>
            <Position>
              <LatitudeDegrees>43.231239058077335357666015625</LatitudeDegrees>
              <LongitudeDegrees>-2.81781404279172420501708984375</LongitudeDegrees>
            </Position>
            <AltitudeMeters>5</AltitudeMeters>
            <DistanceMeters>NAN</DistanceMeters>
          </Trackpoint>
          <Trackpoint>
            <Time>2022-09-24T14:43:44.000Z</Time>
            <Position>
              <LatitudeDegrees>43.23131960816681385040283203125</LatitudeDegrees>
              <LongitudeDegrees>-2.817770205438137054443359375</LongitudeDegrees>
            </Position>
            <AltitudeMeters>4.599999904632568359375</AltitudeMeters>
            <DistanceMeters>NAN</DistanceMeters>
          </Trackpoint>
          <Trackpoint>
            <Time>2022-09-24T14:43:45.000Z</Time>
            <Position>
              <LatitudeDegrees>43.231399320065975189208984375</LatitudeDegrees>
              <LongitudeDegrees>-2.8177261166274547576904296875</LongitudeDegrees>
            </Position>
            <AltitudeMeters>4.599999904632568359375</AltitudeMeters>
            <DistanceMeters>NAN</DistanceMeters>
          </Trackpoint>
          <Trackpoint>
            <Time>2022-09-24T14:43:46.000Z</Time>
            <Position>
              <LatitudeDegrees>43.23148121125996112823486328125</LatitudeDegrees>
              <LongitudeDegrees>-2.817670293152332305908203125</LongitudeDegrees>
            </Position>
            <AltitudeMeters>4.400000095367431640625</AltitudeMeters>
            <DistanceMeters>NAN</DistanceMeters>
          </Trackpoint>
          <Trackpoint>
            <Time>2022-09-24T14:43:47.000Z</Time>
            <Position>
              <LatitudeDegrees>43.23158162645995616912841796875</LatitudeDegrees>
              <LongitudeDegrees>-2.81761019490659236907958984375</LongitudeDegrees>
            </Position>
            <AltitudeMeters>4.400000095367431640625</AltitudeMeters>
            <DistanceMeters>NAN</DistanceMeters>
          </Trackpoint>
          <Trackpoint>
            <Time>2022-09-24T14:43:48.000Z</Time>
            <Position>
              <LatitudeDegrees>43.23165102861821651458740234375</LatitudeDegrees>
              <LongitudeDegrees>-2.81756761483848094940185546875</LongitudeDegrees>
            </Position>
            <AltitudeMeters>3.7999999523162841796875</AltitudeMeters>
            <DistanceMeters>NAN</DistanceMeters>
          </Trackpoint>
          <Trackpoint>
            <Time>2022-09-24T14:43:49.000Z</Time>
            <Position>
              <LatitudeDegrees>43.2317528687417507171630859375</LatitudeDegrees>
              <LongitudeDegrees>-2.8174967877566814422607421875</LongitudeDegrees>
            </Position>
            <AltitudeMeters>3.599999904632568359375</AltitudeMeters>
            <DistanceMeters>NAN</DistanceMeters>
          </Trackpoint>
          <Trackpoint>
            <Time>2022-09-24T14:43:50.000Z</Time>
            <Position>
              <LatitudeDegrees>43.23181875050067901611328125</LatitudeDegrees>
              <LongitudeDegrees>-2.81744490377604961395263671875</LongitudeDegrees>
            </Position>
            <AltitudeMeters>3</AltitudeMeters>
            <DistanceMeters>NAN</DistanceMeters>
          </Trackpoint>
          <Trackpoint>
            <Time>2022-09-24T14:43:51.000Z</Time>
            <Position>
              <LatitudeDegrees>43.23189879767596721649169921875</LatitudeDegrees>
              <LongitudeDegrees>-2.8173750825226306915283203125</LongitudeDegrees>
            </Position>
            <AltitudeMeters>2.599999904632568359375</AltitudeMeters>
            <DistanceMeters>NAN</DistanceMeters>
          </Trackpoint>
          <Trackpoint>
            <Time>2022-09-24T14:43:52.000Z</Time>
            <Position>
              <LatitudeDegrees>43.23199083097279071807861328125</LatitudeDegrees>
              <LongitudeDegrees>-2.8172838874161243438720703125</LongitudeDegrees>
            </Position>
            <AltitudeMeters>2.599999904632568359375</AltitudeMeters>
            <DistanceMeters>NAN</DistanceMeters>
          </Trackpoint>
          <Trackpoint>
            <Time>2022-09-24T14:43:53.000Z</Time>
            <Position>
              <LatitudeDegrees>43.23206325061619281768798828125</LatitudeDegrees>
              <LongitudeDegrees>-2.81720316968858242034912109375</LongitudeDegrees>
            </Position>
            <AltitudeMeters>2.599999904632568359375</AltitudeMeters>
            <DistanceMeters>NAN</DistanceMeters>
          </Trackpoint>
          <Trackpoint>
            <Time>2022-09-24T14:43:54.000Z</Time>
            <Position>
              <LatitudeDegrees>43.23212242685258388519287109375</LatitudeDegrees>
              <LongitudeDegrees>-2.8171219490468502044677734375</LongitudeDegrees>
            </Position>
            <AltitudeMeters>2.400000095367431640625</AltitudeMeters>
            <DistanceMeters>NAN</DistanceMeters>
          </Trackpoint>
          <Trackpoint>
            <Time>2022-09-24T14:43:55.000Z</Time>
            <Position>
              <LatitudeDegrees>43.2321922481060028076171875</LatitudeDegrees>
              <LongitudeDegrees>-2.817029915750026702880859375</LongitudeDegrees>
            </Position>
            <AltitudeMeters>2.400000095367431640625</AltitudeMeters>
            <DistanceMeters>NAN</DistanceMeters>
          </Trackpoint>
          <Trackpoint>
            <Time>2022-09-24T14:43:56.000Z</Time>
            <Position>
              <LatitudeDegrees>43.23226743377745151519775390625</LatitudeDegrees>
              <LongitudeDegrees>-2.816911228001117706298828125</LongitudeDegrees>
            </Position>
            <AltitudeMeters>2.2000000476837158203125</AltitudeMeters>
            <DistanceMeters>NAN</DistanceMeters>
          </Trackpoint>
          <Trackpoint>
            <Time>2022-09-24T14:43:57.000Z</Time>
            <Position>
              <LatitudeDegrees>43.23232577182352542877197265625</LatitudeDegrees>
              <LongitudeDegrees>-2.816803939640522003173828125</LongitudeDegrees>
            </Position>
            <AltitudeMeters>2.2000000476837158203125</AltitudeMeters>
            <DistanceMeters>NAN</DistanceMeters>
          </Trackpoint>
          <Trackpoint>
            <Time>2022-09-24T14:43:58.000Z</Time>
            <Position>
              <LatitudeDegrees>43.23237874545156955718994140625</LatitudeDegrees>
              <LongitudeDegrees>-2.816693969070911407470703125</LongitudeDegrees>
            </Position>
            <AltitudeMeters>2</AltitudeMeters>
            <DistanceMeters>NAN</DistanceMeters>
          </Trackpoint>
          <Trackpoint>
            <Time>2022-09-24T14:43:59.000Z</Time>
            <Position>
              <LatitudeDegrees>43.23243104852735996246337890625</LatitudeDegrees>
              <LongitudeDegrees>-2.8165761195123195648193359375</LongitudeDegrees>
            </Position>
            <AltitudeMeters>2</AltitudeMeters>
            <DistanceMeters>NAN</DistanceMeters>
          </Trackpoint>
          <Trackpoint>
            <Time>2022-09-24T14:44:00.000Z</Time>
            <Position>
              <LatitudeDegrees>43.23246859945356845855712890625</LatitudeDegrees>
              <LongitudeDegrees>-2.8164912946522235870361328125</LongitudeDegrees>
            </Position>
            <AltitudeMeters>1.39999997615814208984375</AltitudeMeters>
            <DistanceMeters>NAN</DistanceMeters>
          </Trackpoint>
          <Trackpoint>
            <Time>2022-09-24T14:44:01.000Z</Time>
            <Position>
              <LatitudeDegrees>43.23252358473837375640869140625</LatitudeDegrees>
              <LongitudeDegrees>-2.8163602016866207122802734375</LongitudeDegrees>
            </Position>
            <AltitudeMeters>1.39999997615814208984375</AltitudeMeters>
            <DistanceMeters>NAN</DistanceMeters>
          </Trackpoint>
          <Trackpoint>
            <Time>2022-09-24T14:44:02.000Z</Time>
            <Position>
              <LatitudeDegrees>43.23252358473837375640869140625</LatitudeDegrees>
              <LongitudeDegrees>-2.8163602016866207122802734375</LongitudeDegrees>
            </Position>
            <AltitudeMeters>1.39999997615814208984375</AltitudeMeters>
            <DistanceMeters>NAN</DistanceMeters>
          </Trackpoint>
          <Trackpoint>
            <Time>2022-09-24T14:44:03.000Z</Time>
            <Position>
              <LatitudeDegrees>43.2326148636639118194580078125</LatitudeDegrees>
              <LongitudeDegrees>-2.81614420004189014434814453125</LongitudeDegrees>
            </Position>
            <AltitudeMeters>1.7999999523162841796875</AltitudeMeters>
            <DistanceMeters>NAN</DistanceMeters>
          </Trackpoint>
          <Trackpoint>
            <Time>2022-09-24T14:44:04.000Z</Time>
            <Position>
              <LatitudeDegrees>43.23267026804387569427490234375</LatitudeDegrees>
              <LongitudeDegrees>-2.8160212375223636627197265625</LongitudeDegrees>
            </Position>
            <AltitudeMeters>1.39999997615814208984375</AltitudeMeters>
            <DistanceMeters>NAN</DistanceMeters>
          </Trackpoint>
          <Trackpoint>
            <Time>2022-09-24T14:44:05.000Z</Time>
            <Position>
              <LatitudeDegrees>43.23267026804387569427490234375</LatitudeDegrees>
              <LongitudeDegrees>-2.8160212375223636627197265625</LongitudeDegrees>
            </Position>
            <AltitudeMeters>1.39999997615814208984375</AltitudeMeters>
            <DistanceMeters>NAN</DistanceMeters>
          </Trackpoint>
          <Trackpoint>
            <Time>2022-09-24T14:44:06.000Z</Time>
            <Position>
              <LatitudeDegrees>43.2327660731971263885498046875</LatitudeDegrees>
              <LongitudeDegrees>-2.8157682716846466064453125</LongitudeDegrees>
            </Position>
            <AltitudeMeters>1.39999997615814208984375</AltitudeMeters>
            <DistanceMeters>NAN</DistanceMeters>
          </Trackpoint>
          <Trackpoint>
            <Time>2022-09-24T14:44:07.000Z</Time>
            <Position>
              <LatitudeDegrees>43.23279733769595623016357421875</LatitudeDegrees>
              <LongitudeDegrees>-2.81568017788231372833251953125</LongitudeDegrees>
            </Position>
            <AltitudeMeters>1.39999997615814208984375</AltitudeMeters>
            <DistanceMeters>NAN</DistanceMeters>
          </Trackpoint>
          <Trackpoint>
            <Time>2022-09-24T14:44:08.000Z</Time>
            <Position>
              <LatitudeDegrees>43.2328493893146514892578125</LatitudeDegrees>
              <LongitudeDegrees>-2.81555025838315486907958984375</LongitudeDegrees>
            </Position>
            <AltitudeMeters>1.39999997615814208984375</AltitudeMeters>
            <DistanceMeters>NAN</DistanceMeters>
          </Trackpoint>
          <Trackpoint>
            <Time>2022-09-24T14:44:09.000Z</Time>
            <Position>
              <LatitudeDegrees>43.2328837551176548004150390625</LatitudeDegrees>
              <LongitudeDegrees>-2.81547012738883495330810546875</LongitudeDegrees>
            </Position>
            <AltitudeMeters>1.39999997615814208984375</AltitudeMeters>
            <DistanceMeters>NAN</DistanceMeters>
          </Trackpoint>
          <Trackpoint>
            <Time>2022-09-24T14:44:10.000Z</Time>
            <Position>
              <LatitudeDegrees>43.232929520308971405029296875</LatitudeDegrees>
              <LongitudeDegrees>-2.815361581742763519287109375</LongitudeDegrees>
            </Position>
            <AltitudeMeters>1.39999997615814208984375</AltitudeMeters>
            <DistanceMeters>NAN</DistanceMeters>
          </Trackpoint>
          <Trackpoint>
            <Time>2022-09-24T14:44:11.000Z</Time>
            <Position>
              <LatitudeDegrees>43.23298442177474498748779296875</LatitudeDegrees>
              <LongitudeDegrees>-2.81521632336080074310302734375</LongitudeDegrees>
            </Position>
            <AltitudeMeters>1.7999999523162841796875</AltitudeMeters>
            <DistanceMeters>NAN</DistanceMeters>
          </Trackpoint>
          <Trackpoint>
            <Time>2022-09-24T14:44:12.000Z</Time>
            <Position>
              <LatitudeDegrees>43.233028091490268707275390625</LatitudeDegrees>
              <LongitudeDegrees>-2.8151029162108898162841796875</LongitudeDegrees>
            </Position>
            <AltitudeMeters>2</AltitudeMeters>
            <DistanceMeters>NAN</DistanceMeters>
          </Trackpoint>
          <Trackpoint>
            <Time>2022-09-24T14:44:13.000Z</Time>
            <Position>
              <LatitudeDegrees>43.2330586016178131103515625</LatitudeDegrees>
              <LongitudeDegrees>-2.81501649878919124603271484375</LongitudeDegrees>
            </Position>
            <AltitudeMeters>1.7999999523162841796875</AltitudeMeters>
            <DistanceMeters>NAN</DistanceMeters>
          </Trackpoint>
          <Trackpoint>
            <Time>2022-09-24T14:44:14.000Z</Time>
            <Position>
              <LatitudeDegrees>43.2330943085253238677978515625</LatitudeDegrees>
              <LongitudeDegrees>-2.81490753404796123504638671875</LongitudeDegrees>
            </Position>
            <AltitudeMeters>1.7999999523162841796875</AltitudeMeters>
            <DistanceMeters>NAN</DistanceMeters>
          </Trackpoint>
          <Trackpoint>
            <Time>2022-09-24T14:44:15.000Z</Time>
            <Position>
              <LatitudeDegrees>43.23313462547957897186279296875</LatitudeDegrees>
              <LongitudeDegrees>-2.81479639001190662384033203125</LongitudeDegrees>
            </Position>
            <AltitudeMeters>2</AltitudeMeters>
            <DistanceMeters>NAN</DistanceMeters>
          </Trackpoint>
          <Trackpoint>
            <Time>2022-09-24T14:44:16.000Z</Time>
            <Position>
              <LatitudeDegrees>43.23318340815603733062744140625</LatitudeDegrees>
              <LongitudeDegrees>-2.81466144137084484100341796875</LongitudeDegrees>
            </Position>
            <AltitudeMeters>2</AltitudeMeters>
            <DistanceMeters>NAN</DistanceMeters>
          </Trackpoint>
          <Trackpoint>
            <Time>2022-09-24T14:44:17.000Z</Time>
            <Position>
              <LatitudeDegrees>43.23322213254868984222412109375</LatitudeDegrees>
              <LongitudeDegrees>-2.81454979442059993743896484375</LongitudeDegrees>
            </Position>
            <AltitudeMeters>1.7999999523162841796875</AltitudeMeters>
            <DistanceMeters>NAN</DistanceMeters>
          </Trackpoint>
          <Trackpoint>
            <Time>2022-09-24T14:44:18.000Z</Time>
            <Position>
              <LatitudeDegrees>43.23322213254868984222412109375</LatitudeDegrees>
              <LongitudeDegrees>-2.81454979442059993743896484375</LongitudeDegrees>
            </Position>
            <AltitudeMeters>1.7999999523162841796875</AltitudeMeters>
            <DistanceMeters>NAN</DistanceMeters>
          </Trackpoint>
          <Trackpoint>
            <Time>2022-09-24T14:44:19.000Z</Time>
            <Position>
              <LatitudeDegrees>43.23329421691596508026123046875</LatitudeDegrees>
              <LongitudeDegrees>-2.81435416080057621002197265625</LongitudeDegrees>
            </Position>
            <AltitudeMeters>1.7999999523162841796875</AltitudeMeters>
            <DistanceMeters>NAN</DistanceMeters>
          </Trackpoint>
          <Trackpoint>
            <Time>2022-09-24T14:44:20.000Z</Time>
            <Position>
              <LatitudeDegrees>43.23334568180143833160400390625</LatitudeDegrees>
              <LongitudeDegrees>-2.81422776170074939727783203125</LongitudeDegrees>
            </Position>
            <AltitudeMeters>2</AltitudeMeters>
            <DistanceMeters>NAN</DistanceMeters>
          </Trackpoint>
          <Trackpoint>
            <Time>2022-09-24T14:44:21.000Z</Time>
            <Position>
              <LatitudeDegrees>43.23338809423148632049560546875</LatitudeDegrees>
              <LongitudeDegrees>-2.8141240775585174560546875</LongitudeDegrees>
            </Position>
            <AltitudeMeters>2.2000000476837158203125</AltitudeMeters>
            <DistanceMeters>NAN</DistanceMeters>
          </Trackpoint>
          <Trackpoint>
            <Time>2022-09-24T14:44:22.000Z</Time>
            <Position>
              <LatitudeDegrees>43.23342564515769481658935546875</LatitudeDegrees>
              <LongitudeDegrees>-2.8140209801495075225830078125</LongitudeDegrees>
            </Position>
            <AltitudeMeters>2.2000000476837158203125</AltitudeMeters>
            <DistanceMeters>NAN</DistanceMeters>
          </Trackpoint>
          <Trackpoint>
            <Time>2022-09-24T14:44:23.000Z</Time>
            <Position>
              <LatitudeDegrees>43.23345263488590717315673828125</LatitudeDegrees>
              <LongitudeDegrees>-2.813937328755855560302734375</LongitudeDegrees>
            </Position>
            <AltitudeMeters>2.400000095367431640625</AltitudeMeters>
            <DistanceMeters>NAN</DistanceMeters>
          </Trackpoint>
          <Trackpoint>
            <Time>2022-09-24T14:44:24.000Z</Time>
            <Position>
              <LatitudeDegrees>43.23348783887922763824462890625</LatitudeDegrees>
              <LongitudeDegrees>-2.81383314169943332672119140625</LongitudeDegrees>
            </Position>
            <AltitudeMeters>2.7999999523162841796875</AltitudeMeters>
            <DistanceMeters>NAN</DistanceMeters>
          </Trackpoint>
          <Trackpoint>
            <Time>2022-09-24T14:44:25.000Z</Time>
            <Position>
              <LatitudeDegrees>43.2335341908037662506103515625</LatitudeDegrees>
              <LongitudeDegrees>-2.81371177174150943756103515625</LongitudeDegrees>
            </Position>
            <AltitudeMeters>2.7999999523162841796875</AltitudeMeters>
            <DistanceMeters>NAN</DistanceMeters>
          </Trackpoint>
          <Trackpoint>
            <Time>2022-09-24T14:44:26.000Z</Time>
            <Position>
              <LatitudeDegrees>43.23357283137738704681396484375</LatitudeDegrees>
              <LongitudeDegrees>-2.81361403875052928924560546875</LongitudeDegrees>
            </Position>
            <AltitudeMeters>3</AltitudeMeters>
            <DistanceMeters>NAN</DistanceMeters>
          </Trackpoint>
          <Trackpoint>
            <Time>2022-09-24T14:44:27.000Z</Time>
            <Position>
              <LatitudeDegrees>43.23361306451261043548583984375</LatitudeDegrees>
              <LongitudeDegrees>-2.81351865269243717193603515625</LongitudeDegrees>
            </Position>
            <AltitudeMeters>3.2000000476837158203125</AltitudeMeters>
            <DistanceMeters>NAN</DistanceMeters>
          </Trackpoint>
          <Trackpoint>
            <Time>2022-09-24T14:44:28.000Z</Time>
            <Position>
              <LatitudeDegrees>43.23364273644983768463134765625</LatitudeDegrees>
              <LongitudeDegrees>-2.81344212591648101806640625</LongitudeDegrees>
            </Position>
            <AltitudeMeters>3.2000000476837158203125</AltitudeMeters>
            <DistanceMeters>NAN</DistanceMeters>
          </Trackpoint>
          <Trackpoint>
            <Time>2022-09-24T14:44:29.000Z</Time>
            <Position>
              <LatitudeDegrees>43.23368011973798274993896484375</LatitudeDegrees>
              <LongitudeDegrees>-2.813344895839691162109375</LongitudeDegrees>
            </Position>
            <AltitudeMeters>3.400000095367431640625</AltitudeMeters>
            <DistanceMeters>NAN</DistanceMeters>
          </Trackpoint>
          <Trackpoint>
            <Time>2022-09-24T14:44:30.000Z</Time>
            <Position>
              <LatitudeDegrees>43.2337216101586818695068359375</LatitudeDegrees>
              <LongitudeDegrees>-2.8132309019565582275390625</LongitudeDegrees>
            </Position>
            <AltitudeMeters>3.599999904632568359375</AltitudeMeters>
            <DistanceMeters>NAN</DistanceMeters>
          </Trackpoint>
          <Trackpoint>
            <Time>2022-09-24T14:44:31.000Z</Time>
            <Position>
              <LatitudeDegrees>43.233748264610767364501953125</LatitudeDegrees>
              <LongitudeDegrees>-2.81315571628510951995849609375</LongitudeDegrees>
            </Position>
            <AltitudeMeters>3.7999999523162841796875</AltitudeMeters>
            <DistanceMeters>NAN</DistanceMeters>
          </Trackpoint>
          <Trackpoint>
            <Time>2022-09-24T14:44:32.000Z</Time>
            <Position>
              <LatitudeDegrees>43.23378338478505611419677734375</LatitudeDegrees>
              <LongitudeDegrees>-2.81306326389312744140625</LongitudeDegrees>
            </Position>
            <AltitudeMeters>3.7999999523162841796875</AltitudeMeters>
            <DistanceMeters>NAN</DistanceMeters>
          </Trackpoint>
          <Trackpoint>
            <Time>2022-09-24T14:44:33.000Z</Time>
            <Position>
              <LatitudeDegrees>43.233820013701915740966796875</LatitudeDegrees>
              <LongitudeDegrees>-2.812973074615001678466796875</LongitudeDegrees>
            </Position>
            <AltitudeMeters>3.7999999523162841796875</AltitudeMeters>
            <DistanceMeters>NAN</DistanceMeters>
          </Trackpoint>
          <Trackpoint>
            <Time>2022-09-24T14:44:34.000Z</Time>
            <Position>
              <LatitudeDegrees>43.2338552176952362060546875</LatitudeDegrees>
              <LongitudeDegrees>-2.81287928111851215362548828125</LongitudeDegrees>
            </Position>
            <AltitudeMeters>3.7999999523162841796875</AltitudeMeters>
            <DistanceMeters>NAN</DistanceMeters>
          </Trackpoint>
          <Trackpoint>
            <Time>2022-09-24T14:44:35.000Z</Time>
            <Position>
              <LatitudeDegrees>43.23389603756368160247802734375</LatitudeDegrees>
              <LongitudeDegrees>-2.81276620924472808837890625</LongitudeDegrees>
            </Position>
            <AltitudeMeters>4</AltitudeMeters>
            <DistanceMeters>NAN</DistanceMeters>
          </Trackpoint>
          <Trackpoint>
            <Time>2022-09-24T14:44:36.000Z</Time>
            <Position>
              <LatitudeDegrees>43.2339301519095897674560546875</LatitudeDegrees>
              <LongitudeDegrees>-2.81267476268112659454345703125</LongitudeDegrees>
            </Position>
            <AltitudeMeters>4.599999904632568359375</AltitudeMeters>
            <DistanceMeters>NAN</DistanceMeters>
          </Trackpoint>
          <Trackpoint>
            <Time>2022-09-24T14:44:37.000Z</Time>
            <Position>
              <LatitudeDegrees>43.23395286686718463897705078125</LatitudeDegrees>
              <LongitudeDegrees>-2.81260083429515361785888671875</LongitudeDegrees>
            </Position>
            <AltitudeMeters>4.599999904632568359375</AltitudeMeters>
            <DistanceMeters>NAN</DistanceMeters>
          </Trackpoint>
          <Trackpoint>
            <Time>2022-09-24T14:44:38.000Z</Time>
            <Position>
              <LatitudeDegrees>43.233982287347316741943359375</LatitudeDegrees>
              <LongitudeDegrees>-2.8125065378844738006591796875</LongitudeDegrees>
            </Position>
            <AltitudeMeters>4.599999904632568359375</AltitudeMeters>
            <DistanceMeters>NAN</DistanceMeters>
          </Trackpoint>
          <Trackpoint>
            <Time>2022-09-24T14:44:39.000Z</Time>
            <Position>
              <LatitudeDegrees>43.23401388712227344512939453125</LatitudeDegrees>
              <LongitudeDegrees>-2.81241224147379398345947265625</LongitudeDegrees>
            </Position>
            <AltitudeMeters>4.599999904632568359375</AltitudeMeters>
            <DistanceMeters>NAN</DistanceMeters>
          </Trackpoint>
          <Trackpoint>
            <Time>2022-09-24T14:44:40.000Z</Time>
            <Position>
              <LatitudeDegrees>43.2340558804571628570556640625</LatitudeDegrees>
              <LongitudeDegrees>-2.8123000077903270721435546875</LongitudeDegrees>
            </Position>
            <AltitudeMeters>4.599999904632568359375</AltitudeMeters>
            <DistanceMeters>NAN</DistanceMeters>
          </Trackpoint>
          <Trackpoint>
            <Time>2022-09-24T14:44:41.000Z</Time>
            <Position>
              <LatitudeDegrees>43.23409284465014934539794921875</LatitudeDegrees>
              <LongitudeDegrees>-2.81220705248415470123291015625</LongitudeDegrees>
            </Position>
            <AltitudeMeters>4.599999904632568359375</AltitudeMeters>
            <DistanceMeters>NAN</DistanceMeters>
          </Trackpoint>
          <Trackpoint>
            <Time>2022-09-24T14:44:42.000Z</Time>
            <Position>
              <LatitudeDegrees>43.234127126634120941162109375</LatitudeDegrees>
              <LongitudeDegrees>-2.8121146000921726226806640625</LongitudeDegrees>
            </Position>
            <AltitudeMeters>4.599999904632568359375</AltitudeMeters>
            <DistanceMeters>NAN</DistanceMeters>
          </Trackpoint>
          <Trackpoint>
            <Time>2022-09-24T14:44:43.000Z</Time>
            <Position>
              <LatitudeDegrees>43.23415420018136501312255859375</LatitudeDegrees>
              <LongitudeDegrees>-2.81204075552523136138916015625</LongitudeDegrees>
            </Position>
            <AltitudeMeters>4.599999904632568359375</AltitudeMeters>
            <DistanceMeters>NAN</DistanceMeters>
          </Trackpoint>
          <Trackpoint>
            <Time>2022-09-24T14:44:44.000Z</Time>
            <Position>
              <LatitudeDegrees>43.234188146889209747314453125</LatitudeDegrees>
              <LongitudeDegrees>-2.811944447457790374755859375</LongitudeDegrees>
            </Position>
            <AltitudeMeters>4.19999980926513671875</AltitudeMeters>
            <DistanceMeters>NAN</DistanceMeters>
          </Trackpoint>
          <Trackpoint>
            <Time>2022-09-24T14:44:45.000Z</Time>
            <Position>
              <LatitudeDegrees>43.2342319004237651824951171875</LatitudeDegrees>
              <LongitudeDegrees>-2.81182684935629367828369140625</LongitudeDegrees>
            </Position>
            <AltitudeMeters>3.7999999523162841796875</AltitudeMeters>
            <DistanceMeters>NAN</DistanceMeters>
          </Trackpoint>
          <Trackpoint>
            <Time>2022-09-24T14:44:46.000Z</Time>
            <Position>
              <LatitudeDegrees>43.23427389375865459442138671875</LatitudeDegrees>
              <LongitudeDegrees>-2.81172811053693294525146484375</LongitudeDegrees>
            </Position>
            <AltitudeMeters>3.599999904632568359375</AltitudeMeters>
            <DistanceMeters>NAN</DistanceMeters>
          </Trackpoint>
          <Trackpoint>
            <Time>2022-09-24T14:44:47.000Z</Time>
            <Position>
              <LatitudeDegrees>43.2343033142387866973876953125</LatitudeDegrees>
              <LongitudeDegrees>-2.8116485662758350372314453125</LongitudeDegrees>
            </Position>
            <AltitudeMeters>3.599999904632568359375</AltitudeMeters>
            <DistanceMeters>NAN</DistanceMeters>
          </Trackpoint>
          <Trackpoint>
            <Time>2022-09-24T14:44:48.000Z</Time>
            <Position>
              <LatitudeDegrees>43.2343033142387866973876953125</LatitudeDegrees>
              <LongitudeDegrees>-2.8116485662758350372314453125</LongitudeDegrees>
            </Position>
            <AltitudeMeters>3.599999904632568359375</AltitudeMeters>
            <DistanceMeters>NAN</DistanceMeters>
          </Trackpoint>
          <Trackpoint>
            <Time>2022-09-24T14:44:49.000Z</Time>
            <Position>
              <LatitudeDegrees>43.234377913177013397216796875</LatitudeDegrees>
              <LongitudeDegrees>-2.8114319778978824615478515625</LongitudeDegrees>
            </Position>
            <AltitudeMeters>3.599999904632568359375</AltitudeMeters>
            <DistanceMeters>NAN</DistanceMeters>
          </Trackpoint>
          <Trackpoint>
            <Time>2022-09-24T14:44:50.000Z</Time>
            <Position>
              <LatitudeDegrees>43.234414122998714447021484375</LatitudeDegrees>
              <LongitudeDegrees>-2.81133281998336315155029296875</LongitudeDegrees>
            </Position>
            <AltitudeMeters>3.599999904632568359375</AltitudeMeters>
            <DistanceMeters>NAN</DistanceMeters>
          </Trackpoint>
          <Trackpoint>
            <Time>2022-09-24T14:44:51.000Z</Time>
            <Position>
              <LatitudeDegrees>43.23444572277367115020751953125</LatitudeDegrees>
              <LongitudeDegrees>-2.8112529404461383819580078125</LongitudeDegrees>
            </Position>
            <AltitudeMeters>3.599999904632568359375</AltitudeMeters>
            <DistanceMeters>NAN</DistanceMeters>
          </Trackpoint>
          <Trackpoint>
            <Time>2022-09-24T14:44:52.000Z</Time>
            <Position>
              <LatitudeDegrees>43.234493918716907501220703125</LatitudeDegrees>
              <LongitudeDegrees>-2.81112494878470897674560546875</LongitudeDegrees>
            </Position>
            <AltitudeMeters>3.599999904632568359375</AltitudeMeters>
            <DistanceMeters>NAN</DistanceMeters>
          </Trackpoint>
          <Trackpoint>
            <Time>2022-09-24T14:44:53.000Z</Time>
            <Position>
              <LatitudeDegrees>43.23453188873827457427978515625</LatitudeDegrees>
              <LongitudeDegrees>-2.811016403138637542724609375</LongitudeDegrees>
            </Position>
            <AltitudeMeters>3.599999904632568359375</AltitudeMeters>
            <DistanceMeters>NAN</DistanceMeters>
          </Trackpoint>
          <Trackpoint>
            <Time>2022-09-24T14:44:54.000Z</Time>
            <Position>
              <LatitudeDegrees>43.23457128368318080902099609375</LatitudeDegrees>
              <LongitudeDegrees>-2.8109109587967395782470703125</LongitudeDegrees>
            </Position>
            <AltitudeMeters>3.400000095367431640625</AltitudeMeters>
            <DistanceMeters>NAN</DistanceMeters>
          </Trackpoint>
          <Trackpoint>
            <Time>2022-09-24T14:44:55.000Z</Time>
            <Position>
              <LatitudeDegrees>43.2346080802381038665771484375</LatitudeDegrees>
              <LongitudeDegrees>-2.81080492772161960601806640625</LongitudeDegrees>
            </Position>
            <AltitudeMeters>3.599999904632568359375</AltitudeMeters>
            <DistanceMeters>NAN</DistanceMeters>
          </Trackpoint>
          <Trackpoint>
            <Time>2022-09-24T14:44:56.000Z</Time>
            <Position>
              <LatitudeDegrees>43.234637081623077392578125</LatitudeDegrees>
              <LongitudeDegrees>-2.81071892939507961273193359375</LongitudeDegrees>
            </Position>
            <AltitudeMeters>3.7999999523162841796875</AltitudeMeters>
            <DistanceMeters>NAN</DistanceMeters>
          </Trackpoint>
          <Trackpoint>
            <Time>2022-09-24T14:44:57.000Z</Time>
            <Position>
              <LatitudeDegrees>43.2346706092357635498046875</LatitudeDegrees>
              <LongitudeDegrees>-2.81061029992997646331787109375</LongitudeDegrees>
            </Position>
            <AltitudeMeters>3.7999999523162841796875</AltitudeMeters>
            <DistanceMeters>NAN</DistanceMeters>
          </Trackpoint>
          <Trackpoint>
            <Time>2022-09-24T14:44:58.000Z</Time>
            <Position>
              <LatitudeDegrees>43.23470824398100376129150390625</LatitudeDegrees>
              <LongitudeDegrees>-2.81049965880811214447021484375</LongitudeDegrees>
            </Position>
            <AltitudeMeters>3.7999999523162841796875</AltitudeMeters>
            <DistanceMeters>NAN</DistanceMeters>
          </Trackpoint>
          <Trackpoint>
            <Time>2022-09-24T14:44:59.000Z</Time>
            <Position>
              <LatitudeDegrees>43.23470824398100376129150390625</LatitudeDegrees>
              <LongitudeDegrees>-2.81049965880811214447021484375</LongitudeDegrees>
            </Position>
            <AltitudeMeters>3.7999999523162841796875</AltitudeMeters>
            <DistanceMeters>NAN</DistanceMeters>
          </Trackpoint>
          <Trackpoint>
            <Time>2022-09-24T14:45:00.000Z</Time>
            <Position>
              <LatitudeDegrees>43.23479063808917999267578125</LatitudeDegrees>
              <LongitudeDegrees>-2.81026915647089481353759765625</LongitudeDegrees>
            </Position>
            <AltitudeMeters>3.7999999523162841796875</AltitudeMeters>
            <DistanceMeters>NAN</DistanceMeters>
          </Trackpoint>
          <Trackpoint>
            <Time>2022-09-24T14:45:01.000Z</Time>
            <Position>
              <LatitudeDegrees>43.23481955565512180328369140625</LatitudeDegrees>
              <LongitudeDegrees>-2.81018726527690887451171875</LongitudeDegrees>
            </Position>
            <AltitudeMeters>3.7999999523162841796875</AltitudeMeters>
            <DistanceMeters>NAN</DistanceMeters>
          </Trackpoint>
          <Trackpoint>
            <Time>2022-09-24T14:45:02.000Z</Time>
            <Position>
              <LatitudeDegrees>43.23481955565512180328369140625</LatitudeDegrees>
              <LongitudeDegrees>-2.81018726527690887451171875</LongitudeDegrees>
            </Position>
            <AltitudeMeters>4</AltitudeMeters>
            <DistanceMeters>NAN</DistanceMeters>
          </Trackpoint>
          <Trackpoint>
            <Time>2022-09-24T14:45:03.000Z</Time>
            <Position>
              <LatitudeDegrees>43.23489331640303134918212890625</LatitudeDegrees>
              <LongitudeDegrees>-2.809966318309307098388671875</LongitudeDegrees>
            </Position>
            <AltitudeMeters>4.400000095367431640625</AltitudeMeters>
            <DistanceMeters>NAN</DistanceMeters>
          </Trackpoint>
          <Trackpoint>
            <Time>2022-09-24T14:45:04.000Z</Time>
            <Position>
              <LatitudeDegrees>43.234929107129573822021484375</LatitudeDegrees>
              <LongitudeDegrees>-2.8098679147660732269287109375</LongitudeDegrees>
            </Position>
            <AltitudeMeters>4.599999904632568359375</AltitudeMeters>
            <DistanceMeters>NAN</DistanceMeters>
          </Trackpoint>
          <Trackpoint>
            <Time>2022-09-24T14:45:05.000Z</Time>
            <Position>
              <LatitudeDegrees>43.234965316951274871826171875</LatitudeDegrees>
              <LongitudeDegrees>-2.80976749956607818603515625</LongitudeDegrees>
            </Position>
            <AltitudeMeters>4.599999904632568359375</AltitudeMeters>
            <DistanceMeters>NAN</DistanceMeters>
          </Trackpoint>
          <Trackpoint>
            <Time>2022-09-24T14:45:06.000Z</Time>
            <Position>
              <LatitudeDegrees>43.23500177823007106781005859375</LatitudeDegrees>
              <LongitudeDegrees>-2.809663228690624237060546875</LongitudeDegrees>
            </Position>
            <AltitudeMeters>4.80000019073486328125</AltitudeMeters>
            <DistanceMeters>NAN</DistanceMeters>
          </Trackpoint>
          <Trackpoint>
            <Time>2022-09-24T14:45:07.000Z</Time>
            <Position>
              <LatitudeDegrees>43.2350313663482666015625</LatitudeDegrees>
              <LongitudeDegrees>-2.8095846064388751983642578125</LongitudeDegrees>
            </Position>
            <AltitudeMeters>5</AltitudeMeters>
            <DistanceMeters>NAN</DistanceMeters>
          </Trackpoint>
          <Trackpoint>
            <Time>2022-09-24T14:45:08.000Z</Time>
            <Position>
              <LatitudeDegrees>43.23507000692188739776611328125</LatitudeDegrees>
              <LongitudeDegrees>-2.80948896892368793487548828125</LongitudeDegrees>
            </Position>
            <AltitudeMeters>5</AltitudeMeters>
            <DistanceMeters>NAN</DistanceMeters>
          </Trackpoint>
          <Trackpoint>
            <Time>2022-09-24T14:45:09.000Z</Time>
            <Position>
              <LatitudeDegrees>43.2351187057793140411376953125</LatitudeDegrees>
              <LongitudeDegrees>-2.8093765676021575927734375</LongitudeDegrees>
            </Position>
            <AltitudeMeters>5</AltitudeMeters>
            <DistanceMeters>NAN</DistanceMeters>
          </Trackpoint>
          <Trackpoint>
            <Time>2022-09-24T14:45:10.000Z</Time>
            <Position>
              <LatitudeDegrees>43.2351616211235523223876953125</LatitudeDegrees>
              <LongitudeDegrees>-2.8092852048575878143310546875</LongitudeDegrees>
            </Position>
            <AltitudeMeters>4.80000019073486328125</AltitudeMeters>
            <DistanceMeters>NAN</DistanceMeters>
          </Trackpoint>
          <Trackpoint>
            <Time>2022-09-24T14:45:11.000Z</Time>
            <Position>
              <LatitudeDegrees>43.235195986926555633544921875</LatitudeDegrees>
              <LongitudeDegrees>-2.8092137910425662994384765625</LongitudeDegrees>
            </Position>
            <AltitudeMeters>4.400000095367431640625</AltitudeMeters>
            <DistanceMeters>NAN</DistanceMeters>
          </Trackpoint>
          <Trackpoint>
            <Time>2022-09-24T14:45:12.000Z</Time>
            <Position>
              <LatitudeDegrees>43.23525222949683666229248046875</LatitudeDegrees>
              <LongitudeDegrees>-2.80910977162420749664306640625</LongitudeDegrees>
            </Position>
            <AltitudeMeters>4</AltitudeMeters>
            <DistanceMeters>NAN</DistanceMeters>
          </Trackpoint>
          <Trackpoint>
            <Time>2022-09-24T14:45:13.000Z</Time>
            <Position>
              <LatitudeDegrees>43.23529195971786975860595703125</LatitudeDegrees>
              <LongitudeDegrees>-2.80904271639883518218994140625</LongitudeDegrees>
            </Position>
            <AltitudeMeters>4</AltitudeMeters>
            <DistanceMeters>NAN</DistanceMeters>
          </Trackpoint>
          <Trackpoint>
            <Time>2022-09-24T14:45:14.000Z</Time>
            <Position>
              <LatitudeDegrees>43.23535013012588024139404296875</LatitudeDegrees>
              <LongitudeDegrees>-2.8089435584843158721923828125</LongitudeDegrees>
            </Position>
            <AltitudeMeters>4</AltitudeMeters>
            <DistanceMeters>NAN</DistanceMeters>
          </Trackpoint>
          <Trackpoint>
            <Time>2022-09-24T14:45:15.000Z</Time>
            <Position>
              <LatitudeDegrees>43.23538868688046932220458984375</LatitudeDegrees>
              <LongitudeDegrees>-2.8088788501918315887451171875</LongitudeDegrees>
            </Position>
            <AltitudeMeters>4.19999980926513671875</AltitudeMeters>
            <DistanceMeters>NAN</DistanceMeters>
          </Trackpoint>
          <Trackpoint>
            <Time>2022-09-24T14:45:16.000Z</Time>
            <Position>
              <LatitudeDegrees>43.2354419119656085968017578125</LatitudeDegrees>
              <LongitudeDegrees>-2.8087950311601161956787109375</LongitudeDegrees>
            </Position>
            <AltitudeMeters>4.400000095367431640625</AltitudeMeters>
            <DistanceMeters>NAN</DistanceMeters>
          </Trackpoint>
          <Trackpoint>
            <Time>2022-09-24T14:45:17.000Z</Time>
            <Position>
              <LatitudeDegrees>43.23549714870750904083251953125</LatitudeDegrees>
              <LongitudeDegrees>-2.808713056147098541259765625</LongitudeDegrees>
            </Position>
            <AltitudeMeters>5</AltitudeMeters>
            <DistanceMeters>NAN</DistanceMeters>
          </Trackpoint>
          <Trackpoint>
            <Time>2022-09-24T14:45:18.000Z</Time>
            <Position>
              <LatitudeDegrees>43.23549714870750904083251953125</LatitudeDegrees>
              <LongitudeDegrees>-2.808713056147098541259765625</LongitudeDegrees>
            </Position>
            <AltitudeMeters>5</AltitudeMeters>
            <DistanceMeters>NAN</DistanceMeters>
          </Trackpoint>
          <Trackpoint>
            <Time>2022-09-24T14:45:19.000Z</Time>
            <Position>
              <LatitudeDegrees>43.23560426943004131317138671875</LatitudeDegrees>
              <LongitudeDegrees>-2.80855002813041210174560546875</LongitudeDegrees>
            </Position>
            <AltitudeMeters>5</AltitudeMeters>
            <DistanceMeters>NAN</DistanceMeters>
          </Trackpoint>
          <Trackpoint>
            <Time>2022-09-24T14:45:20.000Z</Time>
            <Position>
              <LatitudeDegrees>43.23565967381000518798828125</LatitudeDegrees>
              <LongitudeDegrees>-2.808468975126743316650390625</LongitudeDegrees>
            </Position>
            <AltitudeMeters>5</AltitudeMeters>
            <DistanceMeters>NAN</DistanceMeters>
          </Trackpoint>
          <Trackpoint>
            <Time>2022-09-24T14:45:21.000Z</Time>
            <Position>
              <LatitudeDegrees>43.23572002351284027099609375</LatitudeDegrees>
              <LongitudeDegrees>-2.80839026905596256256103515625</LongitudeDegrees>
            </Position>
            <AltitudeMeters>5.400000095367431640625</AltitudeMeters>
            <DistanceMeters>NAN</DistanceMeters>
          </Trackpoint>
          <Trackpoint>
            <Time>2022-09-24T14:45:22.000Z</Time>
            <Position>
              <LatitudeDegrees>43.23577861301600933074951171875</LatitudeDegrees>
              <LongitudeDegrees>-2.80831097625195980072021484375</LongitudeDegrees>
            </Position>
            <AltitudeMeters>5</AltitudeMeters>
            <DistanceMeters>NAN</DistanceMeters>
          </Trackpoint>
          <Trackpoint>
            <Time>2022-09-24T14:45:23.000Z</Time>
            <Position>
              <LatitudeDegrees>43.23583393357694149017333984375</LatitudeDegrees>
              <LongitudeDegrees>-2.80823252163827419281005859375</LongitudeDegrees>
            </Position>
            <AltitudeMeters>5</AltitudeMeters>
            <DistanceMeters>NAN</DistanceMeters>
          </Trackpoint>
          <Trackpoint>
            <Time>2022-09-24T14:45:24.000Z</Time>
            <Position>
              <LatitudeDegrees>43.23590015061199665069580078125</LatitudeDegrees>
              <LongitudeDegrees>-2.8081385605037212371826171875</LongitudeDegrees>
            </Position>
            <AltitudeMeters>5.400000095367431640625</AltitudeMeters>
            <DistanceMeters>NAN</DistanceMeters>
          </Trackpoint>
          <Trackpoint>
            <Time>2022-09-24T14:45:25.000Z</Time>
            <Position>
              <LatitudeDegrees>43.23594138957560062408447265625</LatitudeDegrees>
              <LongitudeDegrees>-2.80807745642960071563720703125</LongitudeDegrees>
            </Position>
            <AltitudeMeters>5.599999904632568359375</AltitudeMeters>
            <DistanceMeters>NAN</DistanceMeters>
          </Trackpoint>
          <Trackpoint>
            <Time>2022-09-24T14:45:26.000Z</Time>
            <Position>
              <LatitudeDegrees>43.2359941117465496063232421875</LatitudeDegrees>
              <LongitudeDegrees>-2.80800201930105686187744140625</LongitudeDegrees>
            </Position>
            <AltitudeMeters>5.599999904632568359375</AltitudeMeters>
            <DistanceMeters>NAN</DistanceMeters>
          </Trackpoint>
          <Trackpoint>
            <Time>2022-09-24T14:45:27.000Z</Time>
            <Position>
              <LatitudeDegrees>43.2360480912029743194580078125</LatitudeDegrees>
              <LongitudeDegrees>-2.807924486696720123291015625</LongitudeDegrees>
            </Position>
            <AltitudeMeters>5.599999904632568359375</AltitudeMeters>
            <DistanceMeters>NAN</DistanceMeters>
          </Trackpoint>
          <Trackpoint>
            <Time>2022-09-24T14:45:28.000Z</Time>
            <Position>
              <LatitudeDegrees>43.23610919527709484100341796875</LatitudeDegrees>
              <LongitudeDegrees>-2.80782147310674190521240234375</LongitudeDegrees>
            </Position>
            <AltitudeMeters>5.599999904632568359375</AltitudeMeters>
            <DistanceMeters>NAN</DistanceMeters>
          </Trackpoint>
          <Trackpoint>
            <Time>2022-09-24T14:45:29.000Z</Time>
            <Position>
              <LatitudeDegrees>43.23615093715488910675048828125</LatitudeDegrees>
              <LongitudeDegrees>-2.807750143110752105712890625</LongitudeDegrees>
            </Position>
            <AltitudeMeters>6</AltitudeMeters>
            <DistanceMeters>NAN</DistanceMeters>
          </Trackpoint>
          <Trackpoint>
            <Time>2022-09-24T14:45:30.000Z</Time>
            <Position>
              <LatitudeDegrees>43.23619804345071315765380859375</LatitudeDegrees>
              <LongitudeDegrees>-2.8076681680977344512939453125</LongitudeDegrees>
            </Position>
            <AltitudeMeters>6</AltitudeMeters>
            <DistanceMeters>NAN</DistanceMeters>
          </Trackpoint>
          <Trackpoint>
            <Time>2022-09-24T14:45:31.000Z</Time>
            <Position>
              <LatitudeDegrees>43.23623576201498508453369140625</LatitudeDegrees>
              <LongitudeDegrees>-2.8075826726853847503662109375</LongitudeDegrees>
            </Position>
            <AltitudeMeters>6</AltitudeMeters>
            <DistanceMeters>NAN</DistanceMeters>
          </Trackpoint>
          <Trackpoint>
            <Time>2022-09-24T14:45:32.000Z</Time>
            <Position>
              <LatitudeDegrees>43.2362718880176544189453125</LatitudeDegrees>
              <LongitudeDegrees>-2.80747513286769390106201171875</LongitudeDegrees>
            </Position>
            <AltitudeMeters>6</AltitudeMeters>
            <DistanceMeters>NAN</DistanceMeters>
          </Trackpoint>
          <Trackpoint>
            <Time>2022-09-24T14:45:33.000Z</Time>
            <Position>
              <LatitudeDegrees>43.23629862628877162933349609375</LatitudeDegrees>
              <LongitudeDegrees>-2.8073815070092678070068359375</LongitudeDegrees>
            </Position>
            <AltitudeMeters>6</AltitudeMeters>
            <DistanceMeters>NAN</DistanceMeters>
          </Trackpoint>
          <Trackpoint>
            <Time>2022-09-24T14:45:34.000Z</Time>
            <Position>
              <LatitudeDegrees>43.2363230176270008087158203125</LatitudeDegrees>
              <LongitudeDegrees>-2.80728855170309543609619140625</LongitudeDegrees>
            </Position>
            <AltitudeMeters>6</AltitudeMeters>
            <DistanceMeters>NAN</DistanceMeters>
          </Trackpoint>
          <Trackpoint>
            <Time>2022-09-24T14:45:35.000Z</Time>
            <Position>
              <LatitudeDegrees>43.23633986525237560272216796875</LatitudeDegrees>
              <LongitudeDegrees>-2.80721210874617099761962890625</LongitudeDegrees>
            </Position>
            <AltitudeMeters>6</AltitudeMeters>
            <DistanceMeters>NAN</DistanceMeters>
          </Trackpoint>
          <Trackpoint>
            <Time>2022-09-24T14:45:36.000Z</Time>
            <Position>
              <LatitudeDegrees>43.2363565452396869659423828125</LatitudeDegrees>
              <LongitudeDegrees>-2.80709333717823028564453125</LongitudeDegrees>
            </Position>
            <AltitudeMeters>6</AltitudeMeters>
            <DistanceMeters>NAN</DistanceMeters>
          </Trackpoint>
          <Trackpoint>
            <Time>2022-09-24T14:45:37.000Z</Time>
            <Position>
              <LatitudeDegrees>43.23636869899928569793701171875</LatitudeDegrees>
              <LongitudeDegrees>-2.806994430720806121826171875</LongitudeDegrees>
            </Position>
            <AltitudeMeters>6.19999980926513671875</AltitudeMeters>
            <DistanceMeters>NAN</DistanceMeters>
          </Trackpoint>
          <Trackpoint>
            <Time>2022-09-24T14:45:38.000Z</Time>
            <Position>
              <LatitudeDegrees>43.2363773323595523834228515625</LatitudeDegrees>
              <LongitudeDegrees>-2.80691270716488361358642578125</LongitudeDegrees>
            </Position>
            <AltitudeMeters>6.19999980926513671875</AltitudeMeters>
            <DistanceMeters>NAN</DistanceMeters>
          </Trackpoint>
          <Trackpoint>
            <Time>2022-09-24T14:45:39.000Z</Time>
            <Position>
              <LatitudeDegrees>43.23638780973851680755615234375</LatitudeDegrees>
              <LongitudeDegrees>-2.8068091906607151031494140625</LongitudeDegrees>
            </Position>
            <AltitudeMeters>6.19999980926513671875</AltitudeMeters>
            <DistanceMeters>NAN</DistanceMeters>
          </Trackpoint>
          <Trackpoint>
            <Time>2022-09-24T14:45:40.000Z</Time>
            <Position>
              <LatitudeDegrees>43.23639485053718090057373046875</LatitudeDegrees>
              <LongitudeDegrees>-2.8067019023001194000244140625</LongitudeDegrees>
            </Position>
            <AltitudeMeters>6.19999980926513671875</AltitudeMeters>
            <DistanceMeters>NAN</DistanceMeters>
          </Trackpoint>
          <Trackpoint>
            <Time>2022-09-24T14:45:41.000Z</Time>
            <Position>
              <LatitudeDegrees>43.236398957669734954833984375</LatitudeDegrees>
              <LongitudeDegrees>-2.806569635868072509765625</LongitudeDegrees>
            </Position>
            <AltitudeMeters>6.19999980926513671875</AltitudeMeters>
            <DistanceMeters>NAN</DistanceMeters>
          </Trackpoint>
          <Trackpoint>
            <Time>2022-09-24T14:45:42.000Z</Time>
            <Position>
              <LatitudeDegrees>43.2363979518413543701171875</LatitudeDegrees>
              <LongitudeDegrees>-2.8064762614667415618896484375</LongitudeDegrees>
            </Position>
            <AltitudeMeters>6</AltitudeMeters>
            <DistanceMeters>NAN</DistanceMeters>
          </Trackpoint>
          <Trackpoint>
            <Time>2022-09-24T14:45:43.000Z</Time>
            <Position>
              <LatitudeDegrees>43.23639401234686374664306640625</LatitudeDegrees>
              <LongitudeDegrees>-2.8063572384417057037353515625</LongitudeDegrees>
            </Position>
            <AltitudeMeters>5.400000095367431640625</AltitudeMeters>
            <DistanceMeters>NAN</DistanceMeters>
          </Trackpoint>
          <Trackpoint>
            <Time>2022-09-24T14:45:44.000Z</Time>
            <Position>
              <LatitudeDegrees>43.2363917492330074310302734375</LatitudeDegrees>
              <LongitudeDegrees>-2.80623293481767177581787109375</LongitudeDegrees>
            </Position>
            <AltitudeMeters>5</AltitudeMeters>
            <DistanceMeters>NAN</DistanceMeters>
          </Trackpoint>
          <Trackpoint>
            <Time>2022-09-24T14:45:45.000Z</Time>
            <Position>
              <LatitudeDegrees>43.236390911042690277099609375</LatitudeDegrees>
              <LongitudeDegrees>-2.8061057813465595245361328125</LongitudeDegrees>
            </Position>
            <AltitudeMeters>4.599999904632568359375</AltitudeMeters>
            <DistanceMeters>NAN</DistanceMeters>
          </Trackpoint>
          <Trackpoint>
            <Time>2022-09-24T14:45:46.000Z</Time>
            <Position>
              <LatitudeDegrees>43.23639057576656341552734375</LatitudeDegrees>
              <LongitudeDegrees>-2.80595012940466403961181640625</LongitudeDegrees>
            </Position>
            <AltitudeMeters>4.19999980926513671875</AltitudeMeters>
            <DistanceMeters>NAN</DistanceMeters>
          </Trackpoint>
          <Trackpoint>
            <Time>2022-09-24T14:45:47.000Z</Time>
            <Position>
              <LatitudeDegrees>43.23639057576656341552734375</LatitudeDegrees>
              <LongitudeDegrees>-2.80595012940466403961181640625</LongitudeDegrees>
            </Position>
            <AltitudeMeters>3.2000000476837158203125</AltitudeMeters>
            <DistanceMeters>NAN</DistanceMeters>
          </Trackpoint>
          <Trackpoint>
            <Time>2022-09-24T14:45:48.000Z</Time>
            <Position>
              <LatitudeDegrees>43.2363904081284999847412109375</LatitudeDegrees>
              <LongitudeDegrees>-2.805707640945911407470703125</LongitudeDegrees>
            </Position>
            <AltitudeMeters>2</AltitudeMeters>
            <DistanceMeters>NAN</DistanceMeters>
          </Trackpoint>
          <Trackpoint>
            <Time>2022-09-24T14:45:49.000Z</Time>
            <Position>
              <LatitudeDegrees>43.23638848029077053070068359375</LatitudeDegrees>
              <LongitudeDegrees>-2.8055731952190399169921875</LongitudeDegrees>
            </Position>
            <AltitudeMeters>2</AltitudeMeters>
            <DistanceMeters>NAN</DistanceMeters>
          </Trackpoint>
          <Trackpoint>
            <Time>2022-09-24T14:45:50.000Z</Time>
            <Position>
              <LatitudeDegrees>43.23638579808175563812255859375</LatitudeDegrees>
              <LongitudeDegrees>-2.80541754327714443206787109375</LongitudeDegrees>
            </Position>
            <AltitudeMeters>2</AltitudeMeters>
            <DistanceMeters>NAN</DistanceMeters>
          </Trackpoint>
          <Trackpoint>
            <Time>2022-09-24T14:45:51.000Z</Time>
            <Position>
              <LatitudeDegrees>43.23638428933918476104736328125</LatitudeDegrees>
              <LongitudeDegrees>-2.8053141944110393524169921875</LongitudeDegrees>
            </Position>
            <AltitudeMeters>2</AltitudeMeters>
            <DistanceMeters>NAN</DistanceMeters>
          </Trackpoint>
          <Trackpoint>
            <Time>2022-09-24T14:45:52.000Z</Time>
            <Position>
              <LatitudeDegrees>43.23638646863400936126708984375</LatitudeDegrees>
              <LongitudeDegrees>-2.80516725964844226837158203125</LongitudeDegrees>
            </Position>
            <AltitudeMeters>4</AltitudeMeters>
            <DistanceMeters>NAN</DistanceMeters>
          </Trackpoint>
          <Trackpoint>
            <Time>2022-09-24T14:45:53.000Z</Time>
            <Position>
              <LatitudeDegrees>43.236380517482757568359375</LatitudeDegrees>
              <LongitudeDegrees>-2.80507455579936504364013671875</LongitudeDegrees>
            </Position>
            <AltitudeMeters>5.400000095367431640625</AltitudeMeters>
            <DistanceMeters>NAN</DistanceMeters>
          </Trackpoint>
          <Trackpoint>
            <Time>2022-09-24T14:45:54.000Z</Time>
            <Position>
              <LatitudeDegrees>43.236380517482757568359375</LatitudeDegrees>
              <LongitudeDegrees>-2.80507455579936504364013671875</LongitudeDegrees>
            </Position>
            <AltitudeMeters>5.599999904632568359375</AltitudeMeters>
            <DistanceMeters>NAN</DistanceMeters>
          </Trackpoint>
          <Trackpoint>
            <Time>2022-09-24T14:45:55.000Z</Time>
            <Position>
              <LatitudeDegrees>43.23637590743601322174072265625</LatitudeDegrees>
              <LongitudeDegrees>-2.80484497547149658203125</LongitudeDegrees>
            </Position>
            <AltitudeMeters>5.599999904632568359375</AltitudeMeters>
            <DistanceMeters>NAN</DistanceMeters>
          </Trackpoint>
          <Trackpoint>
            <Time>2022-09-24T14:45:56.000Z</Time>
            <Position>
              <LatitudeDegrees>43.23637573979794979095458984375</LatitudeDegrees>
              <LongitudeDegrees>-2.80473374761641025543212890625</LongitudeDegrees>
            </Position>
            <AltitudeMeters>5.599999904632568359375</AltitudeMeters>
            <DistanceMeters>NAN</DistanceMeters>
          </Trackpoint>
          <Trackpoint>
            <Time>2022-09-24T14:45:57.000Z</Time>
            <Position>
              <LatitudeDegrees>43.236380852758884429931640625</LatitudeDegrees>
              <LongitudeDegrees>-2.80462595634162425994873046875</LongitudeDegrees>
            </Position>
            <AltitudeMeters>5.599999904632568359375</AltitudeMeters>
            <DistanceMeters>NAN</DistanceMeters>
          </Trackpoint>
          <Trackpoint>
            <Time>2022-09-24T14:45:58.000Z</Time>
            <Position>
              <LatitudeDegrees>43.23638630099594593048095703125</LatitudeDegrees>
              <LongitudeDegrees>-2.80451950617134571075439453125</LongitudeDegrees>
            </Position>
            <AltitudeMeters>5.80000019073486328125</AltitudeMeters>
            <DistanceMeters>NAN</DistanceMeters>
          </Trackpoint>
          <Trackpoint>
            <Time>2022-09-24T14:45:59.000Z</Time>
            <Position>
              <LatitudeDegrees>43.23639116249978542327880859375</LatitudeDegrees>
              <LongitudeDegrees>-2.80441473238170146942138671875</LongitudeDegrees>
            </Position>
            <AltitudeMeters>6.19999980926513671875</AltitudeMeters>
            <DistanceMeters>NAN</DistanceMeters>
          </Trackpoint>
          <Trackpoint>
            <Time>2022-09-24T14:46:00.000Z</Time>
            <Position>
              <LatitudeDegrees>43.23639300651848316192626953125</LatitudeDegrees>
              <LongitudeDegrees>-2.80431129969656467437744140625</LongitudeDegrees>
            </Position>
            <AltitudeMeters>6.19999980926513671875</AltitudeMeters>
            <DistanceMeters>NAN</DistanceMeters>
          </Trackpoint>
          <Trackpoint>
            <Time>2022-09-24T14:46:01.000Z</Time>
            <Position>
              <LatitudeDegrees>43.2363887317478656768798828125</LatitudeDegrees>
              <LongitudeDegrees>-2.8042074479162693023681640625</LongitudeDegrees>
            </Position>
            <AltitudeMeters>6.19999980926513671875</AltitudeMeters>
            <DistanceMeters>NAN</DistanceMeters>
          </Trackpoint>
          <Trackpoint>
            <Time>2022-09-24T14:46:02.000Z</Time>
            <Position>
              <LatitudeDegrees>43.2363887317478656768798828125</LatitudeDegrees>
              <LongitudeDegrees>-2.8042074479162693023681640625</LongitudeDegrees>
            </Position>
            <AltitudeMeters>6.80000019073486328125</AltitudeMeters>
            <DistanceMeters>NAN</DistanceMeters>
          </Trackpoint>
          <Trackpoint>
            <Time>2022-09-24T14:46:03.000Z</Time>
            <Position>
              <LatitudeDegrees>43.23636417277157306671142578125</LatitudeDegrees>
              <LongitudeDegrees>-2.8040041029453277587890625</LongitudeDegrees>
            </Position>
            <AltitudeMeters>6.80000019073486328125</AltitudeMeters>
            <DistanceMeters>NAN</DistanceMeters>
          </Trackpoint>
          <Trackpoint>
            <Time>2022-09-24T14:46:04.000Z</Time>
            <Position>
              <LatitudeDegrees>43.23633785359561443328857421875</LatitudeDegrees>
              <LongitudeDegrees>-2.803908549249172210693359375</LongitudeDegrees>
            </Position>
            <AltitudeMeters>6.80000019073486328125</AltitudeMeters>
            <DistanceMeters>NAN</DistanceMeters>
          </Trackpoint>
          <Trackpoint>
            <Time>2022-09-24T14:46:05.000Z</Time>
            <Position>
              <LatitudeDegrees>43.2363188266754150390625</LatitudeDegrees>
              <LongitudeDegrees>-2.8038071282207965850830078125</LongitudeDegrees>
            </Position>
            <AltitudeMeters>6.80000019073486328125</AltitudeMeters>
            <DistanceMeters>NAN</DistanceMeters>
          </Trackpoint>
          <Trackpoint>
            <Time>2022-09-24T14:46:06.000Z</Time>
            <Position>
              <LatitudeDegrees>43.236310444772243499755859375</LatitudeDegrees>
              <LongitudeDegrees>-2.803683914244174957275390625</LongitudeDegrees>
            </Position>
            <AltitudeMeters>6.400000095367431640625</AltitudeMeters>
            <DistanceMeters>NAN</DistanceMeters>
          </Trackpoint>
          <Trackpoint>
            <Time>2022-09-24T14:46:07.000Z</Time>
            <Position>
              <LatitudeDegrees>43.23632544837892055511474609375</LatitudeDegrees>
              <LongitudeDegrees>-2.80358458869159221649169921875</LongitudeDegrees>
            </Position>
            <AltitudeMeters>6.400000095367431640625</AltitudeMeters>
            <DistanceMeters>NAN</DistanceMeters>
          </Trackpoint>
          <Trackpoint>
            <Time>2022-09-24T14:46:08.000Z</Time>
            <Position>
              <LatitudeDegrees>43.23635243810713291168212890625</LatitudeDegrees>
              <LongitudeDegrees>-2.8035171143710613250732421875</LongitudeDegrees>
            </Position>
            <AltitudeMeters>6.400000095367431640625</AltitudeMeters>
            <DistanceMeters>NAN</DistanceMeters>
          </Trackpoint>
          <Trackpoint>
            <Time>2022-09-24T14:46:09.000Z</Time>
            <Position>
              <LatitudeDegrees>43.23640977032482624053955078125</LatitudeDegrees>
              <LongitudeDegrees>-2.8034423477947711944580078125</LongitudeDegrees>
            </Position>
            <AltitudeMeters>6.400000095367431640625</AltitudeMeters>
            <DistanceMeters>NAN</DistanceMeters>
          </Trackpoint>
          <Trackpoint>
            <Time>2022-09-24T14:46:10.000Z</Time>
            <Position>
              <LatitudeDegrees>43.2364554516971111297607421875</LatitudeDegrees>
              <LongitudeDegrees>-2.8034091554582118988037109375</LongitudeDegrees>
            </Position>
            <AltitudeMeters>6.400000095367431640625</AltitudeMeters>
            <DistanceMeters>NAN</DistanceMeters>
          </Trackpoint>
          <Trackpoint>
            <Time>2022-09-24T14:46:11.000Z</Time>
            <Position>
              <LatitudeDegrees>43.23652963154017925262451171875</LatitudeDegrees>
              <LongitudeDegrees>-2.80338560231029987335205078125</LongitudeDegrees>
            </Position>
            <AltitudeMeters>6.400000095367431640625</AltitudeMeters>
            <DistanceMeters>NAN</DistanceMeters>
          </Trackpoint>
          <Trackpoint>
            <Time>2022-09-24T14:46:12.000Z</Time>
            <Position>
              <LatitudeDegrees>43.23658369481563568115234375</LatitudeDegrees>
              <LongitudeDegrees>-2.80339398421347141265869140625</LongitudeDegrees>
            </Position>
            <AltitudeMeters>6.400000095367431640625</AltitudeMeters>
            <DistanceMeters>NAN</DistanceMeters>
          </Trackpoint>
          <Trackpoint>
            <Time>2022-09-24T14:46:13.000Z</Time>
            <Position>
              <LatitudeDegrees>43.23658369481563568115234375</LatitudeDegrees>
              <LongitudeDegrees>-2.80339398421347141265869140625</LongitudeDegrees>
            </Position>
            <AltitudeMeters>6.599999904632568359375</AltitudeMeters>
            <DistanceMeters>NAN</DistanceMeters>
          </Trackpoint>
          <Trackpoint>
            <Time>2022-09-24T14:46:14.000Z</Time>
            <Position>
              <LatitudeDegrees>43.236714787781238555908203125</LatitudeDegrees>
              <LongitudeDegrees>-2.8034346364438533782958984375</LongitudeDegrees>
            </Position>
            <AltitudeMeters>6.80000019073486328125</AltitudeMeters>
            <DistanceMeters>NAN</DistanceMeters>
          </Trackpoint>
          <Trackpoint>
            <Time>2022-09-24T14:46:15.000Z</Time>
            <Position>
              <LatitudeDegrees>43.23679558932781219482421875</LatitudeDegrees>
              <LongitudeDegrees>-2.80346003361046314239501953125</LongitudeDegrees>
            </Position>
            <AltitudeMeters>7.19999980926513671875</AltitudeMeters>
            <DistanceMeters>NAN</DistanceMeters>
          </Trackpoint>
          <Trackpoint>
            <Time>2022-09-24T14:46:16.000Z</Time>
            <Position>
              <LatitudeDegrees>43.2368490658700466156005859375</LatitudeDegrees>
              <LongitudeDegrees>-2.8034725226461887359619140625</LongitudeDegrees>
            </Position>
            <AltitudeMeters>7.599999904632568359375</AltitudeMeters>
            <DistanceMeters>NAN</DistanceMeters>
          </Trackpoint>
          <Trackpoint>
            <Time>2022-09-24T14:46:17.000Z</Time>
            <Position>
              <LatitudeDegrees>43.23691553436219692230224609375</LatitudeDegrees>
              <LongitudeDegrees>-2.8034839220345020294189453125</LongitudeDegrees>
            </Position>
            <AltitudeMeters>7.80000019073486328125</AltitudeMeters>
            <DistanceMeters>NAN</DistanceMeters>
          </Trackpoint>
          <Trackpoint>
            <Time>2022-09-24T14:46:18.000Z</Time>
            <Position>
              <LatitudeDegrees>43.2369811646640300750732421875</LatitudeDegrees>
              <LongitudeDegrees>-2.8034899570047855377197265625</LongitudeDegrees>
            </Position>
            <AltitudeMeters>7.80000019073486328125</AltitudeMeters>
            <DistanceMeters>NAN</DistanceMeters>
          </Trackpoint>
          <Trackpoint>
            <Time>2022-09-24T14:46:19.000Z</Time>
            <Position>
              <LatitudeDegrees>43.23705920018255710601806640625</LatitudeDegrees>
              <LongitudeDegrees>-2.803486771881580352783203125</LongitudeDegrees>
            </Position>
            <AltitudeMeters>7.80000019073486328125</AltitudeMeters>
            <DistanceMeters>NAN</DistanceMeters>
          </Trackpoint>
          <Trackpoint>
            <Time>2022-09-24T14:46:20.000Z</Time>
            <Position>
              <LatitudeDegrees>43.237124495208263397216796875</LatitudeDegrees>
              <LongitudeDegrees>-2.80348266474902629852294921875</LongitudeDegrees>
            </Position>
            <AltitudeMeters>8</AltitudeMeters>
            <DistanceMeters>NAN</DistanceMeters>
          </Trackpoint>
          <Trackpoint>
            <Time>2022-09-24T14:46:21.000Z</Time>
            <Position>
              <LatitudeDegrees>43.23717688210308551788330078125</LatitudeDegrees>
              <LongitudeDegrees>-2.80347797088325023651123046875</LongitudeDegrees>
            </Position>
            <AltitudeMeters>8</AltitudeMeters>
            <DistanceMeters>NAN</DistanceMeters>
          </Trackpoint>
          <Trackpoint>
            <Time>2022-09-24T14:46:22.000Z</Time>
            <Position>
              <LatitudeDegrees>43.23723991401493549346923828125</LatitudeDegrees>
              <LongitudeDegrees>-2.8034678287804126739501953125</LongitudeDegrees>
            </Position>
            <AltitudeMeters>8</AltitudeMeters>
            <DistanceMeters>NAN</DistanceMeters>
          </Trackpoint>
          <Trackpoint>
            <Time>2022-09-24T14:46:23.000Z</Time>
            <Position>
              <LatitudeDegrees>43.237302862107753753662109375</LatitudeDegrees>
              <LongitudeDegrees>-2.803457938134670257568359375</LongitudeDegrees>
            </Position>
            <AltitudeMeters>8.3999996185302734375</AltitudeMeters>
            <DistanceMeters>NAN</DistanceMeters>
          </Trackpoint>
          <Trackpoint>
            <Time>2022-09-24T14:46:24.000Z</Time>
            <Position>
              <LatitudeDegrees>43.2373650558292865753173828125</LatitudeDegrees>
              <LongitudeDegrees>-2.80344561673700809478759765625</LongitudeDegrees>
            </Position>
            <AltitudeMeters>8.3999996185302734375</AltitudeMeters>
            <DistanceMeters>NAN</DistanceMeters>
          </Trackpoint>
          <Trackpoint>
            <Time>2022-09-24T14:46:25.000Z</Time>
            <Position>
              <LatitudeDegrees>43.2374274171888828277587890625</LatitudeDegrees>
              <LongitudeDegrees>-2.80343304388225078582763671875</LongitudeDegrees>
            </Position>
            <AltitudeMeters>8.19999980926513671875</AltitudeMeters>
            <DistanceMeters>NAN</DistanceMeters>
          </Trackpoint>
          <Trackpoint>
            <Time>2022-09-24T14:46:26.000Z</Time>
            <Position>
              <LatitudeDegrees>43.237491287291049957275390625</LatitudeDegrees>
              <LongitudeDegrees>-2.80341410078108310699462890625</LongitudeDegrees>
            </Position>
            <AltitudeMeters>8.3999996185302734375</AltitudeMeters>
            <DistanceMeters>NAN</DistanceMeters>
          </Trackpoint>
          <Trackpoint>
            <Time>2022-09-24T14:46:27.000Z</Time>
            <Position>
              <LatitudeDegrees>43.23755255900323390960693359375</LatitudeDegrees>
              <LongitudeDegrees>-2.8033937327563762664794921875</LongitudeDegrees>
            </Position>
            <AltitudeMeters>8.80000019073486328125</AltitudeMeters>
            <DistanceMeters>NAN</DistanceMeters>
          </Trackpoint>
          <Trackpoint>
            <Time>2022-09-24T14:46:28.000Z</Time>
            <Position>
              <LatitudeDegrees>43.23762430809438228607177734375</LatitudeDegrees>
              <LongitudeDegrees>-2.803370095789432525634765625</LongitudeDegrees>
            </Position>
            <AltitudeMeters>8.80000019073486328125</AltitudeMeters>
            <DistanceMeters>NAN</DistanceMeters>
          </Trackpoint>
          <Trackpoint>
            <Time>2022-09-24T14:46:29.000Z</Time>
            <Position>
              <LatitudeDegrees>43.2376745156943798065185546875</LatitudeDegrees>
              <LongitudeDegrees>-2.803356014192104339599609375</LongitudeDegrees>
            </Position>
            <AltitudeMeters>9.19999980926513671875</AltitudeMeters>
            <DistanceMeters>NAN</DistanceMeters>
          </Trackpoint>
          <Trackpoint>
            <Time>2022-09-24T14:46:30.000Z</Time>
            <Position>
              <LatitudeDegrees>43.2377365417778491973876953125</LatitudeDegrees>
              <LongitudeDegrees>-2.8033415973186492919921875</LongitudeDegrees>
            </Position>
            <AltitudeMeters>9.19999980926513671875</AltitudeMeters>
            <DistanceMeters>NAN</DistanceMeters>
          </Trackpoint>
          <Trackpoint>
            <Time>2022-09-24T14:46:31.000Z</Time>
            <Position>
              <LatitudeDegrees>43.23780946433544158935546875</LatitudeDegrees>
              <LongitudeDegrees>-2.80332894064486026763916015625</LongitudeDegrees>
            </Position>
            <AltitudeMeters>9.19999980926513671875</AltitudeMeters>
            <DistanceMeters>NAN</DistanceMeters>
          </Trackpoint>
          <Trackpoint>
            <Time>2022-09-24T14:46:32.000Z</Time>
            <Position>
              <LatitudeDegrees>43.23785749264061450958251953125</LatitudeDegrees>
              <LongitudeDegrees>-2.80331452377140522003173828125</LongitudeDegrees>
            </Position>
            <AltitudeMeters>9.19999980926513671875</AltitudeMeters>
            <DistanceMeters>NAN</DistanceMeters>
          </Trackpoint>
          <Trackpoint>
            <Time>2022-09-24T14:46:33.000Z</Time>
            <Position>
              <LatitudeDegrees>43.23792924173176288604736328125</LatitudeDegrees>
              <LongitudeDegrees>-2.8032968379557132720947265625</LongitudeDegrees>
            </Position>
            <AltitudeMeters>9.19999980926513671875</AltitudeMeters>
            <DistanceMeters>NAN</DistanceMeters>
          </Trackpoint>
          <Trackpoint>
            <Time>2022-09-24T14:46:34.000Z</Time>
            <Position>
              <LatitudeDegrees>43.2379906810820102691650390625</LatitudeDegrees>
              <LongitudeDegrees>-2.80328300781548023223876953125</LongitudeDegrees>
            </Position>
            <AltitudeMeters>9.3999996185302734375</AltitudeMeters>
            <DistanceMeters>NAN</DistanceMeters>
          </Trackpoint>
          <Trackpoint>
            <Time>2022-09-24T14:46:35.000Z</Time>
            <Position>
              <LatitudeDegrees>43.238052539527416229248046875</LatitudeDegrees>
              <LongitudeDegrees>-2.803268171846866607666015625</LongitudeDegrees>
            </Position>
            <AltitudeMeters>9.6000003814697265625</AltitudeMeters>
            <DistanceMeters>NAN</DistanceMeters>
          </Trackpoint>
          <Trackpoint>
            <Time>2022-09-24T14:46:36.000Z</Time>
            <Position>
              <LatitudeDegrees>43.2381009869277477264404296875</LatitudeDegrees>
              <LongitudeDegrees>-2.8032589517533779144287109375</LongitudeDegrees>
            </Position>
            <AltitudeMeters>9.6000003814697265625</AltitudeMeters>
            <DistanceMeters>NAN</DistanceMeters>
          </Trackpoint>
          <Trackpoint>
            <Time>2022-09-24T14:46:37.000Z</Time>
            <Position>
              <LatitudeDegrees>43.23816460557281970977783203125</LatitudeDegrees>
              <LongitudeDegrees>-2.80325115658342838287353515625</LongitudeDegrees>
            </Position>
            <AltitudeMeters>9.6000003814697265625</AltitudeMeters>
            <DistanceMeters>NAN</DistanceMeters>
          </Trackpoint>
          <Trackpoint>
            <Time>2022-09-24T14:46:38.000Z</Time>
            <Position>
              <LatitudeDegrees>43.238242305815219879150390625</LatitudeDegrees>
              <LongitudeDegrees>-2.80324830673635005950927734375</LongitudeDegrees>
            </Position>
            <AltitudeMeters>9.6000003814697265625</AltitudeMeters>
            <DistanceMeters>NAN</DistanceMeters>
          </Trackpoint>
          <Trackpoint>
            <Time>2022-09-24T14:46:39.000Z</Time>
            <Position>
              <LatitudeDegrees>43.23829553090035915374755859375</LatitudeDegrees>
              <LongitudeDegrees>-2.80325015075504779815673828125</LongitudeDegrees>
            </Position>
            <AltitudeMeters>9.80000019073486328125</AltitudeMeters>
            <DistanceMeters>NAN</DistanceMeters>
          </Trackpoint>
          <Trackpoint>
            <Time>2022-09-24T14:46:40.000Z</Time>
            <Position>
              <LatitudeDegrees>43.23835990391671657562255859375</LatitudeDegrees>
              <LongitudeDegrees>-2.8032562695443630218505859375</LongitudeDegrees>
            </Position>
            <AltitudeMeters>10</AltitudeMeters>
            <DistanceMeters>NAN</DistanceMeters>
          </Trackpoint>
          <Trackpoint>
            <Time>2022-09-24T14:46:41.000Z</Time>
            <Position>
              <LatitudeDegrees>43.2384255342185497283935546875</LatitudeDegrees>
              <LongitudeDegrees>-2.80326842330396175384521484375</LongitudeDegrees>
            </Position>
            <AltitudeMeters>10</AltitudeMeters>
            <DistanceMeters>NAN</DistanceMeters>
          </Trackpoint>
          <Trackpoint>
            <Time>2022-09-24T14:46:42.000Z</Time>
            <Position>
              <LatitudeDegrees>43.2384942658245563507080078125</LatitudeDegrees>
              <LongitudeDegrees>-2.80328082852065563201904296875</LongitudeDegrees>
            </Position>
            <AltitudeMeters>10</AltitudeMeters>
            <DistanceMeters>NAN</DistanceMeters>
          </Trackpoint>
          <Trackpoint>
            <Time>2022-09-24T14:46:43.000Z</Time>
            <Position>
              <LatitudeDegrees>43.23857565410435199737548828125</LatitudeDegrees>
              <LongitudeDegrees>-2.803294323384761810302734375</LongitudeDegrees>
            </Position>
            <AltitudeMeters>10.19999980926513671875</AltitudeMeters>
            <DistanceMeters>NAN</DistanceMeters>
          </Trackpoint>
          <Trackpoint>
            <Time>2022-09-24T14:46:44.000Z</Time>
            <Position>
              <LatitudeDegrees>43.2386429607868194580078125</LatitudeDegrees>
              <LongitudeDegrees>-2.8033079020678997039794921875</LongitudeDegrees>
            </Position>
            <AltitudeMeters>10.19999980926513671875</AltitudeMeters>
            <DistanceMeters>NAN</DistanceMeters>
          </Trackpoint>
          <Trackpoint>
            <Time>2022-09-24T14:46:45.000Z</Time>
            <Position>
              <LatitudeDegrees>43.2387126982212066650390625</LatitudeDegrees>
              <LongitudeDegrees>-2.80332081019878387451171875</LongitudeDegrees>
            </Position>
            <AltitudeMeters>10.19999980926513671875</AltitudeMeters>
            <DistanceMeters>NAN</DistanceMeters>
          </Trackpoint>
          <Trackpoint>
            <Time>2022-09-24T14:46:46.000Z</Time>
            <Position>
              <LatitudeDegrees>43.23876860551536083221435546875</LatitudeDegrees>
              <LongitudeDegrees>-2.803329862654209136962890625</LongitudeDegrees>
            </Position>
            <AltitudeMeters>10.3999996185302734375</AltitudeMeters>
            <DistanceMeters>NAN</DistanceMeters>
          </Trackpoint>
          <Trackpoint>
            <Time>2022-09-24T14:46:47.000Z</Time>
            <Position>
              <LatitudeDegrees>43.238853514194488525390625</LatitudeDegrees>
              <LongitudeDegrees>-2.80334520153701305389404296875</LongitudeDegrees>
            </Position>
            <AltitudeMeters>10</AltitudeMeters>
            <DistanceMeters>NAN</DistanceMeters>
          </Trackpoint>
          <Trackpoint>
            <Time>2022-09-24T14:46:48.000Z</Time>
            <Position>
              <LatitudeDegrees>43.23891059495508670806884765625</LatitudeDegrees>
              <LongitudeDegrees>-2.80335391871631145477294921875</LongitudeDegrees>
            </Position>
            <AltitudeMeters>10</AltitudeMeters>
            <DistanceMeters>NAN</DistanceMeters>
          </Trackpoint>
          <Trackpoint>
            <Time>2022-09-24T14:46:49.000Z</Time>
            <Position>
              <LatitudeDegrees>43.23899500072002410888671875</LatitudeDegrees>
              <LongitudeDegrees>-2.803369425237178802490234375</LongitudeDegrees>
            </Position>
            <AltitudeMeters>9.80000019073486328125</AltitudeMeters>
            <DistanceMeters>NAN</DistanceMeters>
          </Trackpoint>
          <Trackpoint>
            <Time>2022-09-24T14:46:50.000Z</Time>
            <Position>
              <LatitudeDegrees>43.2390501536428928375244140625</LatitudeDegrees>
              <LongitudeDegrees>-2.80338459648191928863525390625</LongitudeDegrees>
            </Position>
            <AltitudeMeters>9.3999996185302734375</AltitudeMeters>
            <DistanceMeters>NAN</DistanceMeters>
          </Trackpoint>
          <Trackpoint>
            <Time>2022-09-24T14:46:51.000Z</Time>
            <Position>
              <LatitudeDegrees>43.23912031017243862152099609375</LatitudeDegrees>
              <LongitudeDegrees>-2.803403623402118682861328125</LongitudeDegrees>
            </Position>
            <AltitudeMeters>9.3999996185302734375</AltitudeMeters>
            <DistanceMeters>NAN</DistanceMeters>
          </Trackpoint>
          <Trackpoint>
            <Time>2022-09-24T14:46:52.000Z</Time>
            <Position>
              <LatitudeDegrees>43.2392067275941371917724609375</LatitudeDegrees>
              <LongitudeDegrees>-2.80342348851263523101806640625</LongitudeDegrees>
            </Position>
            <AltitudeMeters>7.80000019073486328125</AltitudeMeters>
            <DistanceMeters>NAN</DistanceMeters>
          </Trackpoint>
          <Trackpoint>
            <Time>2022-09-24T14:46:53.000Z</Time>
            <Position>
              <LatitudeDegrees>43.239266909658908843994140625</LatitudeDegrees>
              <LongitudeDegrees>-2.80343706719577312469482421875</LongitudeDegrees>
            </Position>
            <AltitudeMeters>7.80000019073486328125</AltitudeMeters>
            <DistanceMeters>NAN</DistanceMeters>
          </Trackpoint>
          <Trackpoint>
            <Time>2022-09-24T14:46:54.000Z</Time>
            <Position>
              <LatitudeDegrees>43.23934343643486499786376953125</LatitudeDegrees>
              <LongitudeDegrees>-2.8034534119069576263427734375</LongitudeDegrees>
            </Position>
            <AltitudeMeters>7.80000019073486328125</AltitudeMeters>
            <DistanceMeters>NAN</DistanceMeters>
          </Trackpoint>
          <Trackpoint>
            <Time>2022-09-24T14:46:55.000Z</Time>
            <Position>
              <LatitudeDegrees>43.239417113363742828369140625</LatitudeDegrees>
              <LongitudeDegrees>-2.8034728579223155975341796875</LongitudeDegrees>
            </Position>
            <AltitudeMeters>7.80000019073486328125</AltitudeMeters>
            <DistanceMeters>NAN</DistanceMeters>
          </Trackpoint>
          <Trackpoint>
            <Time>2022-09-24T14:46:56.000Z</Time>
            <Position>
              <LatitudeDegrees>43.23948844335973262786865234375</LatitudeDegrees>
              <LongitudeDegrees>-2.80348232947289943695068359375</LongitudeDegrees>
            </Position>
            <AltitudeMeters>7.80000019073486328125</AltitudeMeters>
            <DistanceMeters>NAN</DistanceMeters>
          </Trackpoint>
          <Trackpoint>
            <Time>2022-09-24T14:46:57.000Z</Time>
            <Position>
              <LatitudeDegrees>43.23956253938376903533935546875</LatitudeDegrees>
              <LongitudeDegrees>-2.8034768812358379364013671875</LongitudeDegrees>
            </Position>
            <AltitudeMeters>7.80000019073486328125</AltitudeMeters>
            <DistanceMeters>NAN</DistanceMeters>
          </Trackpoint>
          <Trackpoint>
            <Time>2022-09-24T14:46:58.000Z</Time>
            <Position>
              <LatitudeDegrees>43.23963512666523456573486328125</LatitudeDegrees>
              <LongitudeDegrees>-2.80347126536071300506591796875</LongitudeDegrees>
            </Position>
            <AltitudeMeters>8</AltitudeMeters>
            <DistanceMeters>NAN</DistanceMeters>
          </Trackpoint>
          <Trackpoint>
            <Time>2022-09-24T14:46:59.000Z</Time>
            <Position>
              <LatitudeDegrees>43.23969128541648387908935546875</LatitudeDegrees>
              <LongitudeDegrees>-2.80347009189426898956298828125</LongitudeDegrees>
            </Position>
            <AltitudeMeters>8.19999980926513671875</AltitudeMeters>
            <DistanceMeters>NAN</DistanceMeters>
          </Trackpoint>
          <Trackpoint>
            <Time>2022-09-24T14:47:00.000Z</Time>
            <Position>
              <LatitudeDegrees>43.23976303450763225555419921875</LatitudeDegrees>
              <LongitudeDegrees>-2.80346388928592205047607421875</LongitudeDegrees>
            </Position>
            <AltitudeMeters>8.19999980926513671875</AltitudeMeters>
            <DistanceMeters>NAN</DistanceMeters>
          </Trackpoint>
          <Trackpoint>
            <Time>2022-09-24T14:47:01.000Z</Time>
            <Position>
              <LatitudeDegrees>43.239847607910633087158203125</LatitudeDegrees>
              <LongitudeDegrees>-2.80345089733600616455078125</LongitudeDegrees>
            </Position>
            <AltitudeMeters>8</AltitudeMeters>
            <DistanceMeters>NAN</DistanceMeters>
          </Trackpoint>
          <Trackpoint>
            <Time>2022-09-24T14:47:02.000Z</Time>
            <Position>
              <LatitudeDegrees>43.23990351520478725433349609375</LatitudeDegrees>
              <LongitudeDegrees>-2.80344285070896148681640625</LongitudeDegrees>
            </Position>
            <AltitudeMeters>8.19999980926513671875</AltitudeMeters>
            <DistanceMeters>NAN</DistanceMeters>
          </Trackpoint>
          <Trackpoint>
            <Time>2022-09-24T14:47:03.000Z</Time>
            <Position>
              <LatitudeDegrees>43.2399825565516948699951171875</LatitudeDegrees>
              <LongitudeDegrees>-2.8034239076077938079833984375</LongitudeDegrees>
            </Position>
            <AltitudeMeters>8</AltitudeMeters>
            <DistanceMeters>NAN</DistanceMeters>
          </Trackpoint>
          <Trackpoint>
            <Time>2022-09-24T14:47:04.000Z</Time>
            <Position>
              <LatitudeDegrees>43.2400382123887538909912109375</LatitudeDegrees>
              <LongitudeDegrees>-2.80340773053467273712158203125</LongitudeDegrees>
            </Position>
            <AltitudeMeters>8</AltitudeMeters>
            <DistanceMeters>NAN</DistanceMeters>
          </Trackpoint>
          <Trackpoint>
            <Time>2022-09-24T14:47:05.000Z</Time>
            <Position>
              <LatitudeDegrees>43.2401047646999359130859375</LatitudeDegrees>
              <LongitudeDegrees>-2.80338694341480731964111328125</LongitudeDegrees>
            </Position>
            <AltitudeMeters>8</AltitudeMeters>
            <DistanceMeters>NAN</DistanceMeters>
          </Trackpoint>
          <Trackpoint>
            <Time>2022-09-24T14:47:06.000Z</Time>
            <Position>
              <LatitudeDegrees>43.2401047646999359130859375</LatitudeDegrees>
              <LongitudeDegrees>-2.80338694341480731964111328125</LongitudeDegrees>
            </Position>
            <AltitudeMeters>8</AltitudeMeters>
            <DistanceMeters>NAN</DistanceMeters>
          </Trackpoint>
          <Trackpoint>
            <Time>2022-09-24T14:47:07.000Z</Time>
            <Position>
              <LatitudeDegrees>43.24024491012096405029296875</LatitudeDegrees>
              <LongitudeDegrees>-2.80332692898809909820556640625</LongitudeDegrees>
            </Position>
            <AltitudeMeters>7.80000019073486328125</AltitudeMeters>
            <DistanceMeters>NAN</DistanceMeters>
          </Trackpoint>
          <Trackpoint>
            <Time>2022-09-24T14:47:08.000Z</Time>
            <Position>
              <LatitudeDegrees>43.24031406082212924957275390625</LatitudeDegrees>
              <LongitudeDegrees>-2.80329826287925243377685546875</LongitudeDegrees>
            </Position>
            <AltitudeMeters>8</AltitudeMeters>
            <DistanceMeters>NAN</DistanceMeters>
          </Trackpoint>
          <Trackpoint>
            <Time>2022-09-24T14:47:09.000Z</Time>
            <Position>
              <LatitudeDegrees>43.2403855584561824798583984375</LatitudeDegrees>
              <LongitudeDegrees>-2.80325534753501415252685546875</LongitudeDegrees>
            </Position>
            <AltitudeMeters>8</AltitudeMeters>
            <DistanceMeters>NAN</DistanceMeters>
          </Trackpoint>
          <Trackpoint>
            <Time>2022-09-24T14:47:10.000Z</Time>
            <Position>
              <LatitudeDegrees>43.24045772664248943328857421875</LatitudeDegrees>
              <LongitudeDegrees>-2.80322332866489887237548828125</LongitudeDegrees>
            </Position>
            <AltitudeMeters>8.19999980926513671875</AltitudeMeters>
            <DistanceMeters>NAN</DistanceMeters>
          </Trackpoint>
          <Trackpoint>
            <Time>2022-09-24T14:47:11.000Z</Time>
            <Position>
              <LatitudeDegrees>43.24052788317203521728515625</LatitudeDegrees>
              <LongitudeDegrees>-2.80319583602249622344970703125</LongitudeDegrees>
            </Position>
            <AltitudeMeters>8.80000019073486328125</AltitudeMeters>
            <DistanceMeters>NAN</DistanceMeters>
          </Trackpoint>
          <Trackpoint>
            <Time>2022-09-24T14:47:12.000Z</Time>
            <Position>
              <LatitudeDegrees>43.240595273673534393310546875</LatitudeDegrees>
              <LongitudeDegrees>-2.8031526692211627960205078125</LongitudeDegrees>
            </Position>
            <AltitudeMeters>8.80000019073486328125</AltitudeMeters>
            <DistanceMeters>NAN</DistanceMeters>
          </Trackpoint>
          <Trackpoint>
            <Time>2022-09-24T14:47:13.000Z</Time>
            <Position>
              <LatitudeDegrees>43.240662999451160430908203125</LatitudeDegrees>
              <LongitudeDegrees>-2.8031147830188274383544921875</LongitudeDegrees>
            </Position>
            <AltitudeMeters>8.19999980926513671875</AltitudeMeters>
            <DistanceMeters>NAN</DistanceMeters>
          </Trackpoint>
          <Trackpoint>
            <Time>2022-09-24T14:47:14.000Z</Time>
            <Position>
              <LatitudeDegrees>43.2407325692474842071533203125</LatitudeDegrees>
              <LongitudeDegrees>-2.803066335618495941162109375</LongitudeDegrees>
            </Position>
            <AltitudeMeters>9.19999980926513671875</AltitudeMeters>
            <DistanceMeters>NAN</DistanceMeters>
          </Trackpoint>
          <Trackpoint>
            <Time>2022-09-24T14:47:15.000Z</Time>
            <Position>
              <LatitudeDegrees>43.2408029772341251373291015625</LatitudeDegrees>
              <LongitudeDegrees>-2.80302484519779682159423828125</LongitudeDegrees>
            </Position>
            <AltitudeMeters>9.19999980926513671875</AltitudeMeters>
            <DistanceMeters>NAN</DistanceMeters>
          </Trackpoint>
          <Trackpoint>
            <Time>2022-09-24T14:47:16.000Z</Time>
            <Position>
              <LatitudeDegrees>43.24087615124881267547607421875</LatitudeDegrees>
              <LongitudeDegrees>-2.80298008583486080169677734375</LongitudeDegrees>
            </Position>
            <AltitudeMeters>9.3999996185302734375</AltitudeMeters>
            <DistanceMeters>NAN</DistanceMeters>
          </Trackpoint>
          <Trackpoint>
            <Time>2022-09-24T14:47:17.000Z</Time>
            <Position>
              <LatitudeDegrees>43.24094831943511962890625</LatitudeDegrees>
              <LongitudeDegrees>-2.8029568679630756378173828125</LongitudeDegrees>
            </Position>
            <AltitudeMeters>9.19999980926513671875</AltitudeMeters>
            <DistanceMeters>NAN</DistanceMeters>
          </Trackpoint>
          <Trackpoint>
            <Time>2022-09-24T14:47:18.000Z</Time>
            <Position>
              <LatitudeDegrees>43.24101881124079227447509765625</LatitudeDegrees>
              <LongitudeDegrees>-2.8029414452612400054931640625</LongitudeDegrees>
            </Position>
            <AltitudeMeters>9.6000003814697265625</AltitudeMeters>
            <DistanceMeters>NAN</DistanceMeters>
          </Trackpoint>
          <Trackpoint>
            <Time>2022-09-24T14:47:19.000Z</Time>
            <Position>
              <LatitudeDegrees>43.2410896383225917816162109375</LatitudeDegrees>
              <LongitudeDegrees>-2.80292660929262638092041015625</LongitudeDegrees>
            </Position>
            <AltitudeMeters>10</AltitudeMeters>
            <DistanceMeters>NAN</DistanceMeters>
          </Trackpoint>
          <Trackpoint>
            <Time>2022-09-24T14:47:20.000Z</Time>
            <Position>
              <LatitudeDegrees>43.24115141294896602630615234375</LatitudeDegrees>
              <LongitudeDegrees>-2.80291973613202571868896484375</LongitudeDegrees>
            </Position>
            <AltitudeMeters>10</AltitudeMeters>
            <DistanceMeters>NAN</DistanceMeters>
          </Trackpoint>
          <Trackpoint>
            <Time>2022-09-24T14:47:21.000Z</Time>
            <Position>
              <LatitudeDegrees>43.24122685007750988006591796875</LatitudeDegrees>
              <LongitudeDegrees>-2.80291101895272731781005859375</LongitudeDegrees>
            </Position>
            <AltitudeMeters>10</AltitudeMeters>
            <DistanceMeters>NAN</DistanceMeters>
          </Trackpoint>
          <Trackpoint>
            <Time>2022-09-24T14:47:22.000Z</Time>
            <Position>
              <LatitudeDegrees>43.24128082953393459320068359375</LatitudeDegrees>
              <LongitudeDegrees>-2.80289609916508197784423828125</LongitudeDegrees>
            </Position>
            <AltitudeMeters>10</AltitudeMeters>
            <DistanceMeters>NAN</DistanceMeters>
          </Trackpoint>
          <Trackpoint>
            <Time>2022-09-24T14:47:23.000Z</Time>
            <Position>
              <LatitudeDegrees>43.2413635589182376861572265625</LatitudeDegrees>
              <LongitudeDegrees>-2.8029022179543972015380859375</LongitudeDegrees>
            </Position>
            <AltitudeMeters>10</AltitudeMeters>
            <DistanceMeters>NAN</DistanceMeters>
          </Trackpoint>
          <Trackpoint>
            <Time>2022-09-24T14:47:24.000Z</Time>
            <Position>
              <LatitudeDegrees>43.241417370736598968505859375</LatitudeDegrees>
              <LongitudeDegrees>-2.80290867201983928680419921875</LongitudeDegrees>
            </Position>
            <AltitudeMeters>10</AltitudeMeters>
            <DistanceMeters>NAN</DistanceMeters>
          </Trackpoint>
          <Trackpoint>
            <Time>2022-09-24T14:47:25.000Z</Time>
            <Position>
              <LatitudeDegrees>43.241417370736598968505859375</LatitudeDegrees>
              <LongitudeDegrees>-2.80290867201983928680419921875</LongitudeDegrees>
            </Position>
            <AltitudeMeters>10.19999980926513671875</AltitudeMeters>
            <DistanceMeters>NAN</DistanceMeters>
          </Trackpoint>
          <Trackpoint>
            <Time>2022-09-24T14:47:26.000Z</Time>
            <Position>
              <LatitudeDegrees>43.24156044982373714447021484375</LatitudeDegrees>
              <LongitudeDegrees>-2.80294597148895263671875</LongitudeDegrees>
            </Position>
            <AltitudeMeters>9.80000019073486328125</AltitudeMeters>
            <DistanceMeters>NAN</DistanceMeters>
          </Trackpoint>
          <Trackpoint>
            <Time>2022-09-24T14:47:27.000Z</Time>
            <Position>
              <LatitudeDegrees>43.24162599630653858184814453125</LatitudeDegrees>
              <LongitudeDegrees>-2.80296717770397663116455078125</LongitudeDegrees>
            </Position>
            <AltitudeMeters>9.80000019073486328125</AltitudeMeters>
            <DistanceMeters>NAN</DistanceMeters>
          </Trackpoint>
          <Trackpoint>
            <Time>2022-09-24T14:47:28.000Z</Time>
            <Position>
              <LatitudeDegrees>43.2416934706270694732666015625</LatitudeDegrees>
              <LongitudeDegrees>-2.8029974363744258880615234375</LongitudeDegrees>
            </Position>
            <AltitudeMeters>9.80000019073486328125</AltitudeMeters>
            <DistanceMeters>NAN</DistanceMeters>
          </Trackpoint>
          <Trackpoint>
            <Time>2022-09-24T14:47:29.000Z</Time>
            <Position>
              <LatitudeDegrees>43.24174736626446247100830078125</LatitudeDegrees>
              <LongitudeDegrees>-2.803024090826511383056640625</LongitudeDegrees>
            </Position>
            <AltitudeMeters>9.80000019073486328125</AltitudeMeters>
            <DistanceMeters>NAN</DistanceMeters>
          </Trackpoint>
          <Trackpoint>
            <Time>2022-09-24T14:47:30.000Z</Time>
            <Position>
              <LatitudeDegrees>43.241813667118549346923828125</LatitudeDegrees>
              <LongitudeDegrees>-2.8030571155250072479248046875</LongitudeDegrees>
            </Position>
            <AltitudeMeters>10.19999980926513671875</AltitudeMeters>
            <DistanceMeters>NAN</DistanceMeters>
          </Trackpoint>
          <Trackpoint>
            <Time>2022-09-24T14:47:31.000Z</Time>
            <Position>
              <LatitudeDegrees>43.24187929742038249969482421875</LatitudeDegrees>
              <LongitudeDegrees>-2.80310061760246753692626953125</LongitudeDegrees>
            </Position>
            <AltitudeMeters>10.19999980926513671875</AltitudeMeters>
            <DistanceMeters>NAN</DistanceMeters>
          </Trackpoint>
          <Trackpoint>
            <Time>2022-09-24T14:47:32.000Z</Time>
            <Position>
              <LatitudeDegrees>43.2419393956661224365234375</LatitudeDegrees>
              <LongitudeDegrees>-2.80315342359244823455810546875</LongitudeDegrees>
            </Position>
            <AltitudeMeters>10.19999980926513671875</AltitudeMeters>
            <DistanceMeters>NAN</DistanceMeters>
          </Trackpoint>
          <Trackpoint>
            <Time>2022-09-24T14:47:33.000Z</Time>
            <Position>
              <LatitudeDegrees>43.24199966154992580413818359375</LatitudeDegrees>
              <LongitudeDegrees>-2.8032113425433635711669921875</LongitudeDegrees>
            </Position>
            <AltitudeMeters>10.3999996185302734375</AltitudeMeters>
            <DistanceMeters>NAN</DistanceMeters>
          </Trackpoint>
          <Trackpoint>
            <Time>2022-09-24T14:47:34.000Z</Time>
            <Position>
              <LatitudeDegrees>43.242058418691158294677734375</LatitudeDegrees>
              <LongitudeDegrees>-2.80326984822750091552734375</LongitudeDegrees>
            </Position>
            <AltitudeMeters>10.3999996185302734375</AltitudeMeters>
            <DistanceMeters>NAN</DistanceMeters>
          </Trackpoint>
          <Trackpoint>
            <Time>2022-09-24T14:47:35.000Z</Time>
            <Position>
              <LatitudeDegrees>43.2421172596514225006103515625</LatitudeDegrees>
              <LongitudeDegrees>-2.8033293597400188446044921875</LongitudeDegrees>
            </Position>
            <AltitudeMeters>10.3999996185302734375</AltitudeMeters>
            <DistanceMeters>NAN</DistanceMeters>
          </Trackpoint>
          <Trackpoint>
            <Time>2022-09-24T14:47:36.000Z</Time>
            <Position>
              <LatitudeDegrees>43.2421782799065113067626953125</LatitudeDegrees>
              <LongitudeDegrees>-2.803385518491268157958984375</LongitudeDegrees>
            </Position>
            <AltitudeMeters>10.3999996185302734375</AltitudeMeters>
            <DistanceMeters>NAN</DistanceMeters>
          </Trackpoint>
          <Trackpoint>
            <Time>2022-09-24T14:47:37.000Z</Time>
            <Position>
              <LatitudeDegrees>43.242242820560932159423828125</LatitudeDegrees>
              <LongitudeDegrees>-2.80344628728926181793212890625</LongitudeDegrees>
            </Position>
            <AltitudeMeters>9.80000019073486328125</AltitudeMeters>
            <DistanceMeters>NAN</DistanceMeters>
          </Trackpoint>
          <Trackpoint>
            <Time>2022-09-24T14:47:38.000Z</Time>
            <Position>
              <LatitudeDegrees>43.24229738675057888031005859375</LatitudeDegrees>
              <LongitudeDegrees>-2.80350781045854091644287109375</LongitudeDegrees>
            </Position>
            <AltitudeMeters>9.6000003814697265625</AltitudeMeters>
            <DistanceMeters>NAN</DistanceMeters>
          </Trackpoint>
          <Trackpoint>
            <Time>2022-09-24T14:47:39.000Z</Time>
            <Position>
              <LatitudeDegrees>43.24229738675057888031005859375</LatitudeDegrees>
              <LongitudeDegrees>-2.80350781045854091644287109375</LongitudeDegrees>
            </Position>
            <AltitudeMeters>8.80000019073486328125</AltitudeMeters>
            <DistanceMeters>NAN</DistanceMeters>
          </Trackpoint>
          <Trackpoint>
            <Time>2022-09-24T14:47:40.000Z</Time>
            <Position>
              <LatitudeDegrees>43.24241020716726779937744140625</LatitudeDegrees>
              <LongitudeDegrees>-2.80364678241312503814697265625</LongitudeDegrees>
            </Position>
            <AltitudeMeters>8.80000019073486328125</AltitudeMeters>
            <DistanceMeters>NAN</DistanceMeters>
          </Trackpoint>
          <Trackpoint>
            <Time>2022-09-24T14:47:41.000Z</Time>
            <Position>
              <LatitudeDegrees>43.24246175587177276611328125</LatitudeDegrees>
              <LongitudeDegrees>-2.80372238717973232269287109375</LongitudeDegrees>
            </Position>
            <AltitudeMeters>8.80000019073486328125</AltitudeMeters>
            <DistanceMeters>NAN</DistanceMeters>
          </Trackpoint>
          <Trackpoint>
            <Time>2022-09-24T14:47:42.000Z</Time>
            <Position>
              <LatitudeDegrees>43.2425122149288654327392578125</LatitudeDegrees>
              <LongitudeDegrees>-2.8037984110414981842041015625</LongitudeDegrees>
            </Position>
            <AltitudeMeters>9.3999996185302734375</AltitudeMeters>
            <DistanceMeters>NAN</DistanceMeters>
          </Trackpoint>
          <Trackpoint>
            <Time>2022-09-24T14:47:43.000Z</Time>
            <Position>
              <LatitudeDegrees>43.24255739338696002960205078125</LatitudeDegrees>
              <LongitudeDegrees>-2.8038782067596912384033203125</LongitudeDegrees>
            </Position>
            <AltitudeMeters>9.6000003814697265625</AltitudeMeters>
            <DistanceMeters>NAN</DistanceMeters>
          </Trackpoint>
          <Trackpoint>
            <Time>2022-09-24T14:47:44.000Z</Time>
            <Position>
              <LatitudeDegrees>43.24259276501834392547607421875</LatitudeDegrees>
              <LongitudeDegrees>-2.8039422444999217987060546875</LongitudeDegrees>
            </Position>
            <AltitudeMeters>9.3999996185302734375</AltitudeMeters>
            <DistanceMeters>NAN</DistanceMeters>
          </Trackpoint>
          <Trackpoint>
            <Time>2022-09-24T14:47:45.000Z</Time>
            <Position>
              <LatitudeDegrees>43.24263618327677249908447265625</LatitudeDegrees>
              <LongitudeDegrees>-2.80401122756302356719970703125</LongitudeDegrees>
            </Position>
            <AltitudeMeters>9.3999996185302734375</AltitudeMeters>
            <DistanceMeters>NAN</DistanceMeters>
          </Trackpoint>
          <Trackpoint>
            <Time>2022-09-24T14:47:46.000Z</Time>
            <Position>
              <LatitudeDegrees>43.24268303811550140380859375</LatitudeDegrees>
              <LongitudeDegrees>-2.8040765225887298583984375</LongitudeDegrees>
            </Position>
            <AltitudeMeters>9.6000003814697265625</AltitudeMeters>
            <DistanceMeters>NAN</DistanceMeters>
          </Trackpoint>
          <Trackpoint>
            <Time>2022-09-24T14:47:47.000Z</Time>
            <Position>
              <LatitudeDegrees>43.24273659847676753997802734375</LatitudeDegrees>
              <LongitudeDegrees>-2.80415053479373455047607421875</LongitudeDegrees>
            </Position>
            <AltitudeMeters>9.6000003814697265625</AltitudeMeters>
            <DistanceMeters>NAN</DistanceMeters>
          </Trackpoint>
          <Trackpoint>
            <Time>2022-09-24T14:47:48.000Z</Time>
            <Position>
              <LatitudeDegrees>43.24279862456023693084716796875</LatitudeDegrees>
              <LongitudeDegrees>-2.80422245152294635772705078125</LongitudeDegrees>
            </Position>
            <AltitudeMeters>9.80000019073486328125</AltitudeMeters>
            <DistanceMeters>NAN</DistanceMeters>
          </Trackpoint>
          <Trackpoint>
            <Time>2022-09-24T14:47:49.000Z</Time>
            <Position>
              <LatitudeDegrees>43.24285176582634449005126953125</LatitudeDegrees>
              <LongitudeDegrees>-2.8042919375002384185791015625</LongitudeDegrees>
            </Position>
            <AltitudeMeters>9.80000019073486328125</AltitudeMeters>
            <DistanceMeters>NAN</DistanceMeters>
          </Trackpoint>
          <Trackpoint>
            <Time>2022-09-24T14:47:50.000Z</Time>
            <Position>
              <LatitudeDegrees>43.24290909804403781890869140625</LatitudeDegrees>
              <LongitudeDegrees>-2.80435756780207157135009765625</LongitudeDegrees>
            </Position>
            <AltitudeMeters>11</AltitudeMeters>
            <DistanceMeters>NAN</DistanceMeters>
          </Trackpoint>
          <Trackpoint>
            <Time>2022-09-24T14:47:51.000Z</Time>
            <Position>
              <LatitudeDegrees>43.242979086935520172119140625</LatitudeDegrees>
              <LongitudeDegrees>-2.804436273872852325439453125</LongitudeDegrees>
            </Position>
            <AltitudeMeters>11</AltitudeMeters>
            <DistanceMeters>NAN</DistanceMeters>
          </Trackpoint>
          <Trackpoint>
            <Time>2022-09-24T14:47:52.000Z</Time>
            <Position>
              <LatitudeDegrees>43.24303348548710346221923828125</LatitudeDegrees>
              <LongitudeDegrees>-2.804497964680194854736328125</LongitudeDegrees>
            </Position>
            <AltitudeMeters>11.19999980926513671875</AltitudeMeters>
            <DistanceMeters>NAN</DistanceMeters>
          </Trackpoint>
          <Trackpoint>
            <Time>2022-09-24T14:47:53.000Z</Time>
            <Position>
              <LatitudeDegrees>43.24308872222900390625</LatitudeDegrees>
              <LongitudeDegrees>-2.80455596745014190673828125</LongitudeDegrees>
            </Position>
            <AltitudeMeters>11.19999980926513671875</AltitudeMeters>
            <DistanceMeters>NAN</DistanceMeters>
          </Trackpoint>
          <Trackpoint>
            <Time>2022-09-24T14:47:54.000Z</Time>
            <Position>
              <LatitudeDegrees>43.24308872222900390625</LatitudeDegrees>
              <LongitudeDegrees>-2.80455596745014190673828125</LongitudeDegrees>
            </Position>
            <AltitudeMeters>11.19999980926513671875</AltitudeMeters>
            <DistanceMeters>NAN</DistanceMeters>
          </Trackpoint>
          <Trackpoint>
            <Time>2022-09-24T14:47:55.000Z</Time>
            <Position>
              <LatitudeDegrees>43.2432035543024539947509765625</LatitudeDegrees>
              <LongitudeDegrees>-2.80466032214462757110595703125</LongitudeDegrees>
            </Position>
            <AltitudeMeters>11.19999980926513671875</AltitudeMeters>
            <DistanceMeters>NAN</DistanceMeters>
          </Trackpoint>
          <Trackpoint>
            <Time>2022-09-24T14:47:56.000Z</Time>
            <Position>
              <LatitudeDegrees>43.24326214380562305450439453125</LatitudeDegrees>
              <LongitudeDegrees>-2.8047090210020542144775390625</LongitudeDegrees>
            </Position>
            <AltitudeMeters>11.6000003814697265625</AltitudeMeters>
            <DistanceMeters>NAN</DistanceMeters>
          </Trackpoint>
          <Trackpoint>
            <Time>2022-09-24T14:47:57.000Z</Time>
            <Position>
              <LatitudeDegrees>43.2433232478797435760498046875</LatitudeDegrees>
              <LongitudeDegrees>-2.8047573007643222808837890625</LongitudeDegrees>
            </Position>
            <AltitudeMeters>11.19999980926513671875</AltitudeMeters>
            <DistanceMeters>NAN</DistanceMeters>
          </Trackpoint>
          <Trackpoint>
            <Time>2022-09-24T14:47:58.000Z</Time>
            <Position>
              <LatitudeDegrees>43.243389464914798736572265625</LatitudeDegrees>
              <LongitudeDegrees>-2.80480348505079746246337890625</LongitudeDegrees>
            </Position>
            <AltitudeMeters>11.6000003814697265625</AltitudeMeters>
            <DistanceMeters>NAN</DistanceMeters>
          </Trackpoint>
          <Trackpoint>
            <Time>2022-09-24T14:47:59.000Z</Time>
            <Position>
              <LatitudeDegrees>43.2434543408453464508056640625</LatitudeDegrees>
              <LongitudeDegrees>-2.804843969643115997314453125</LongitudeDegrees>
            </Position>
            <AltitudeMeters>11.6000003814697265625</AltitudeMeters>
            <DistanceMeters>NAN</DistanceMeters>
          </Trackpoint>
          <Trackpoint>
            <Time>2022-09-24T14:48:00.000Z</Time>
            <Position>
              <LatitudeDegrees>43.243519552052021026611328125</LatitudeDegrees>
              <LongitudeDegrees>-2.80487992800772190093994140625</LongitudeDegrees>
            </Position>
            <AltitudeMeters>11.80000019073486328125</AltitudeMeters>
            <DistanceMeters>NAN</DistanceMeters>
          </Trackpoint>
          <Trackpoint>
            <Time>2022-09-24T14:48:01.000Z</Time>
            <Position>
              <LatitudeDegrees>43.24358568526804447174072265625</LatitudeDegrees>
              <LongitudeDegrees>-2.80491136014461517333984375</LongitudeDegrees>
            </Position>
            <AltitudeMeters>11.80000019073486328125</AltitudeMeters>
            <DistanceMeters>NAN</DistanceMeters>
          </Trackpoint>
          <Trackpoint>
            <Time>2022-09-24T14:48:02.000Z</Time>
            <Position>
              <LatitudeDegrees>43.2436484657227993011474609375</LatitudeDegrees>
              <LongitudeDegrees>-2.80494111590087413787841796875</LongitudeDegrees>
            </Position>
            <AltitudeMeters>11.80000019073486328125</AltitudeMeters>
            <DistanceMeters>NAN</DistanceMeters>
          </Trackpoint>
          <Trackpoint>
            <Time>2022-09-24T14:48:03.000Z</Time>
            <Position>
              <LatitudeDegrees>43.24370001442730426788330078125</LatitudeDegrees>
              <LongitudeDegrees>-2.80496408231556415557861328125</LongitudeDegrees>
            </Position>
            <AltitudeMeters>12</AltitudeMeters>
            <DistanceMeters>NAN</DistanceMeters>
          </Trackpoint>
          <Trackpoint>
            <Time>2022-09-24T14:48:04.000Z</Time>
            <Position>
              <LatitudeDegrees>43.24376740492880344390869140625</LatitudeDegrees>
              <LongitudeDegrees>-2.80498838983476161956787109375</LongitudeDegrees>
            </Position>
            <AltitudeMeters>12.6000003814697265625</AltitudeMeters>
            <DistanceMeters>NAN</DistanceMeters>
          </Trackpoint>
          <Trackpoint>
            <Time>2022-09-24T14:48:05.000Z</Time>
            <Position>
              <LatitudeDegrees>43.2438342086970806121826171875</LatitudeDegrees>
              <LongitudeDegrees>-2.80500666238367557525634765625</LongitudeDegrees>
            </Position>
            <AltitudeMeters>12.6000003814697265625</AltitudeMeters>
            <DistanceMeters>NAN</DistanceMeters>
          </Trackpoint>
          <Trackpoint>
            <Time>2022-09-24T14:48:06.000Z</Time>
            <Position>
              <LatitudeDegrees>43.24391325004398822784423828125</LatitudeDegrees>
              <LongitudeDegrees>-2.80502510257065296173095703125</LongitudeDegrees>
            </Position>
            <AltitudeMeters>12.6000003814697265625</AltitudeMeters>
            <DistanceMeters>NAN</DistanceMeters>
          </Trackpoint>
          <Trackpoint>
            <Time>2022-09-24T14:48:07.000Z</Time>
            <Position>
              <LatitudeDegrees>43.24396471492946147918701171875</LatitudeDegrees>
              <LongitudeDegrees>-2.805040441453456878662109375</LongitudeDegrees>
            </Position>
            <AltitudeMeters>12.6000003814697265625</AltitudeMeters>
            <DistanceMeters>NAN</DistanceMeters>
          </Trackpoint>
          <Trackpoint>
            <Time>2022-09-24T14:48:08.000Z</Time>
            <Position>
              <LatitudeDegrees>43.24403009377419948577880859375</LatitudeDegrees>
              <LongitudeDegrees>-2.8050624020397663116455078125</LongitudeDegrees>
            </Position>
            <AltitudeMeters>12.6000003814697265625</AltitudeMeters>
            <DistanceMeters>NAN</DistanceMeters>
          </Trackpoint>
          <Trackpoint>
            <Time>2022-09-24T14:48:09.000Z</Time>
            <Position>
              <LatitudeDegrees>43.244092203676700592041015625</LatitudeDegrees>
              <LongitudeDegrees>-2.8050848655402660369873046875</LongitudeDegrees>
            </Position>
            <AltitudeMeters>12.80000019073486328125</AltitudeMeters>
            <DistanceMeters>NAN</DistanceMeters>
          </Trackpoint>
          <Trackpoint>
            <Time>2022-09-24T14:48:10.000Z</Time>
            <Position>
              <LatitudeDegrees>43.24415548704564571380615234375</LatitudeDegrees>
              <LongitudeDegrees>-2.805112190544605255126953125</LongitudeDegrees>
            </Position>
            <AltitudeMeters>13.19999980926513671875</AltitudeMeters>
            <DistanceMeters>NAN</DistanceMeters>
          </Trackpoint>
          <Trackpoint>
            <Time>2022-09-24T14:48:11.000Z</Time>
            <Position>
              <LatitudeDegrees>43.24422053061425685882568359375</LatitudeDegrees>
              <LongitudeDegrees>-2.80513809062540531158447265625</LongitudeDegrees>
            </Position>
            <AltitudeMeters>12.80000019073486328125</AltitudeMeters>
            <DistanceMeters>NAN</DistanceMeters>
          </Trackpoint>
          <Trackpoint>
            <Time>2022-09-24T14:48:12.000Z</Time>
            <Position>
              <LatitudeDegrees>43.2442875020205974578857421875</LatitudeDegrees>
              <LongitudeDegrees>-2.8051552735269069671630859375</LongitudeDegrees>
            </Position>
            <AltitudeMeters>13</AltitudeMeters>
            <DistanceMeters>NAN</DistanceMeters>
          </Trackpoint>
          <Trackpoint>
            <Time>2022-09-24T14:48:13.000Z</Time>
            <Position>
              <LatitudeDegrees>43.24435346759855747222900390625</LatitudeDegrees>
              <LongitudeDegrees>-2.805175222456455230712890625</LongitudeDegrees>
            </Position>
            <AltitudeMeters>13</AltitudeMeters>
            <DistanceMeters>NAN</DistanceMeters>
          </Trackpoint>
          <Trackpoint>
            <Time>2022-09-24T14:48:14.000Z</Time>
            <Position>
              <LatitudeDegrees>43.24441750533878803253173828125</LatitudeDegrees>
              <LongitudeDegrees>-2.805197350680828094482421875</LongitudeDegrees>
            </Position>
            <AltitudeMeters>13</AltitudeMeters>
            <DistanceMeters>NAN</DistanceMeters>
          </Trackpoint>
          <Trackpoint>
            <Time>2022-09-24T14:48:15.000Z</Time>
            <Position>
              <LatitudeDegrees>43.2444792799651622772216796875</LatitudeDegrees>
              <LongitudeDegrees>-2.8052191436290740966796875</LongitudeDegrees>
            </Position>
            <AltitudeMeters>13.3999996185302734375</AltitudeMeters>
            <DistanceMeters>NAN</DistanceMeters>
          </Trackpoint>
          <Trackpoint>
            <Time>2022-09-24T14:48:16.000Z</Time>
            <Position>
              <LatitudeDegrees>43.244545161724090576171875</LatitudeDegrees>
              <LongitudeDegrees>-2.805240266025066375732421875</LongitudeDegrees>
            </Position>
            <AltitudeMeters>13.3999996185302734375</AltitudeMeters>
            <DistanceMeters>NAN</DistanceMeters>
          </Trackpoint>
          <Trackpoint>
            <Time>2022-09-24T14:48:17.000Z</Time>
            <Position>
              <LatitudeDegrees>43.244609870016574859619140625</LatitudeDegrees>
              <LongitudeDegrees>-2.8052618913352489471435546875</LongitudeDegrees>
            </Position>
            <AltitudeMeters>13.6000003814697265625</AltitudeMeters>
            <DistanceMeters>NAN</DistanceMeters>
          </Trackpoint>
          <Trackpoint>
            <Time>2022-09-24T14:48:18.000Z</Time>
            <Position>
              <LatitudeDegrees>43.24467415921390056610107421875</LatitudeDegrees>
              <LongitudeDegrees>-2.80527924187481403350830078125</LongitudeDegrees>
            </Position>
            <AltitudeMeters>13.80000019073486328125</AltitudeMeters>
            <DistanceMeters>NAN</DistanceMeters>
          </Trackpoint>
          <Trackpoint>
            <Time>2022-09-24T14:48:19.000Z</Time>
            <Position>
              <LatitudeDegrees>43.2447391189634799957275390625</LatitudeDegrees>
              <LongitudeDegrees>-2.8052910603582859039306640625</LongitudeDegrees>
            </Position>
            <AltitudeMeters>14.6000003814697265625</AltitudeMeters>
            <DistanceMeters>NAN</DistanceMeters>
          </Trackpoint>
          <Trackpoint>
            <Time>2022-09-24T14:48:20.000Z</Time>
            <Position>
              <LatitudeDegrees>43.24481598101556301116943359375</LatitudeDegrees>
              <LongitudeDegrees>-2.80530036427080631256103515625</LongitudeDegrees>
            </Position>
            <AltitudeMeters>14.80000019073486328125</AltitudeMeters>
            <DistanceMeters>NAN</DistanceMeters>
          </Trackpoint>
          <Trackpoint>
            <Time>2022-09-24T14:48:21.000Z</Time>
            <Position>
              <LatitudeDegrees>43.24486627243459224700927734375</LatitudeDegrees>
              <LongitudeDegrees>-2.80530421994626522064208984375</LongitudeDegrees>
            </Position>
            <AltitudeMeters>14.80000019073486328125</AltitudeMeters>
            <DistanceMeters>NAN</DistanceMeters>
          </Trackpoint>
          <Trackpoint>
            <Time>2022-09-24T14:48:22.000Z</Time>
            <Position>
              <LatitudeDegrees>43.24493232183158397674560546875</LatitudeDegrees>
              <LongitudeDegrees>-2.8053108416497707366943359375</LongitudeDegrees>
            </Position>
            <AltitudeMeters>14.80000019073486328125</AltitudeMeters>
            <DistanceMeters>NAN</DistanceMeters>
          </Trackpoint>
          <Trackpoint>
            <Time>2022-09-24T14:48:23.000Z</Time>
            <Position>
              <LatitudeDegrees>43.24499920941889286041259765625</LatitudeDegrees>
              <LongitudeDegrees>-2.805303633213043212890625</LongitudeDegrees>
            </Position>
            <AltitudeMeters>14.80000019073486328125</AltitudeMeters>
            <DistanceMeters>NAN</DistanceMeters>
          </Trackpoint>
          <Trackpoint>
            <Time>2022-09-24T14:48:24.000Z</Time>
            <Position>
              <LatitudeDegrees>43.24506643228232860565185546875</LatitudeDegrees>
              <LongitudeDegrees>-2.80531193129718303680419921875</LongitudeDegrees>
            </Position>
            <AltitudeMeters>14.80000019073486328125</AltitudeMeters>
            <DistanceMeters>NAN</DistanceMeters>
          </Trackpoint>
          <Trackpoint>
            <Time>2022-09-24T14:48:25.000Z</Time>
            <Position>
              <LatitudeDegrees>43.245130889117717742919921875</LatitudeDegrees>
              <LongitudeDegrees>-2.805319726467132568359375</LongitudeDegrees>
            </Position>
            <AltitudeMeters>14.80000019073486328125</AltitudeMeters>
            <DistanceMeters>NAN</DistanceMeters>
          </Trackpoint>
          <Trackpoint>
            <Time>2022-09-24T14:48:26.000Z</Time>
            <Position>
              <LatitudeDegrees>43.2451971061527729034423828125</LatitudeDegrees>
              <LongitudeDegrees>-2.80532249249517917633056640625</LongitudeDegrees>
            </Position>
            <AltitudeMeters>15</AltitudeMeters>
            <DistanceMeters>NAN</DistanceMeters>
          </Trackpoint>
          <Trackpoint>
            <Time>2022-09-24T14:48:27.000Z</Time>
            <Position>
              <LatitudeDegrees>43.2452618144452571868896484375</LatitudeDegrees>
              <LongitudeDegrees>-2.8053242526948451995849609375</LongitudeDegrees>
            </Position>
            <AltitudeMeters>15</AltitudeMeters>
            <DistanceMeters>NAN</DistanceMeters>
          </Trackpoint>
          <Trackpoint>
            <Time>2022-09-24T14:48:28.000Z</Time>
            <Position>
              <LatitudeDegrees>43.24532694183290004730224609375</LatitudeDegrees>
              <LongitudeDegrees>-2.80532215721905231475830078125</LongitudeDegrees>
            </Position>
            <AltitudeMeters>15</AltitudeMeters>
            <DistanceMeters>NAN</DistanceMeters>
          </Trackpoint>
          <Trackpoint>
            <Time>2022-09-24T14:48:29.000Z</Time>
            <Position>
              <LatitudeDegrees>43.2453952543437480926513671875</LatitudeDegrees>
              <LongitudeDegrees>-2.805326767265796661376953125</LongitudeDegrees>
            </Position>
            <AltitudeMeters>15</AltitudeMeters>
            <DistanceMeters>NAN</DistanceMeters>
          </Trackpoint>
          <Trackpoint>
            <Time>2022-09-24T14:48:30.000Z</Time>
            <Position>
              <LatitudeDegrees>43.2454665005207061767578125</LatitudeDegrees>
              <LongitudeDegrees>-2.8053359873592853546142578125</LongitudeDegrees>
            </Position>
            <AltitudeMeters>15</AltitudeMeters>
            <DistanceMeters>NAN</DistanceMeters>
          </Trackpoint>
          <Trackpoint>
            <Time>2022-09-24T14:48:31.000Z</Time>
            <Position>
              <LatitudeDegrees>43.2455343939363956451416015625</LatitudeDegrees>
              <LongitudeDegrees>-2.80534177087247371673583984375</LongitudeDegrees>
            </Position>
            <AltitudeMeters>14.80000019073486328125</AltitudeMeters>
            <DistanceMeters>NAN</DistanceMeters>
          </Trackpoint>
          <Trackpoint>
            <Time>2022-09-24T14:48:32.000Z</Time>
            <Position>
              <LatitudeDegrees>43.24561678804457187652587890625</LatitudeDegrees>
              <LongitudeDegrees>-2.80534830875694751739501953125</LongitudeDegrees>
            </Position>
            <AltitudeMeters>14.80000019073486328125</AltitudeMeters>
            <DistanceMeters>NAN</DistanceMeters>
          </Trackpoint>
          <Trackpoint>
            <Time>2022-09-24T14:48:33.000Z</Time>
            <Position>
              <LatitudeDegrees>43.24568786658346652984619140625</LatitudeDegrees>
              <LongitudeDegrees>-2.80535568483173847198486328125</LongitudeDegrees>
            </Position>
            <AltitudeMeters>14.80000019073486328125</AltitudeMeters>
            <DistanceMeters>NAN</DistanceMeters>
          </Trackpoint>
          <Trackpoint>
            <Time>2022-09-24T14:48:34.000Z</Time>
            <Position>
              <LatitudeDegrees>43.24574477970600128173828125</LatitudeDegrees>
              <LongitudeDegrees>-2.80536188744008541107177734375</LongitudeDegrees>
            </Position>
            <AltitudeMeters>14.6000003814697265625</AltitudeMeters>
            <DistanceMeters>NAN</DistanceMeters>
          </Trackpoint>
          <Trackpoint>
            <Time>2022-09-24T14:48:35.000Z</Time>
            <Position>
              <LatitudeDegrees>43.24581761844456195831298828125</LatitudeDegrees>
              <LongitudeDegrees>-2.80536507256329059600830078125</LongitudeDegrees>
            </Position>
            <AltitudeMeters>14.6000003814697265625</AltitudeMeters>
            <DistanceMeters>NAN</DistanceMeters>
          </Trackpoint>
          <Trackpoint>
            <Time>2022-09-24T14:48:36.000Z</Time>
            <Position>
              <LatitudeDegrees>43.24589137919247150421142578125</LatitudeDegrees>
              <LongitudeDegrees>-2.8053641505539417266845703125</LongitudeDegrees>
            </Position>
            <AltitudeMeters>14.80000019073486328125</AltitudeMeters>
            <DistanceMeters>NAN</DistanceMeters>
          </Trackpoint>
          <Trackpoint>
            <Time>2022-09-24T14:48:37.000Z</Time>
            <Position>
              <LatitudeDegrees>43.24596874415874481201171875</LatitudeDegrees>
              <LongitudeDegrees>-2.8053711913526058197021484375</LongitudeDegrees>
            </Position>
            <AltitudeMeters>14.6000003814697265625</AltitudeMeters>
            <DistanceMeters>NAN</DistanceMeters>
          </Trackpoint>
          <Trackpoint>
            <Time>2022-09-24T14:48:38.000Z</Time>
            <Position>
              <LatitudeDegrees>43.24604778550565242767333984375</LatitudeDegrees>
              <LongitudeDegrees>-2.80538150109350681304931640625</LongitudeDegrees>
            </Position>
            <AltitudeMeters>13.6000003814697265625</AltitudeMeters>
            <DistanceMeters>NAN</DistanceMeters>
          </Trackpoint>
          <Trackpoint>
            <Time>2022-09-24T14:48:39.000Z</Time>
            <Position>
              <LatitudeDegrees>43.24612573720514774322509765625</LatitudeDegrees>
              <LongitudeDegrees>-2.80538183636963367462158203125</LongitudeDegrees>
            </Position>
            <AltitudeMeters>13.6000003814697265625</AltitudeMeters>
            <DistanceMeters>NAN</DistanceMeters>
          </Trackpoint>
          <Trackpoint>
            <Time>2022-09-24T14:48:40.000Z</Time>
            <Position>
              <LatitudeDegrees>43.24620486237108707427978515625</LatitudeDegrees>
              <LongitudeDegrees>-2.8053827583789825439453125</LongitudeDegrees>
            </Position>
            <AltitudeMeters>13.6000003814697265625</AltitudeMeters>
            <DistanceMeters>NAN</DistanceMeters>
          </Trackpoint>
          <Trackpoint>
            <Time>2022-09-24T14:48:41.000Z</Time>
            <Position>
              <LatitudeDegrees>43.2462844066321849822998046875</LatitudeDegrees>
              <LongitudeDegrees>-2.80537932179868221282958984375</LongitudeDegrees>
            </Position>
            <AltitudeMeters>13.6000003814697265625</AltitudeMeters>
            <DistanceMeters>NAN</DistanceMeters>
          </Trackpoint>
          <Trackpoint>
            <Time>2022-09-24T14:48:42.000Z</Time>
            <Position>
              <LatitudeDegrees>43.2462844066321849822998046875</LatitudeDegrees>
              <LongitudeDegrees>-2.80537932179868221282958984375</LongitudeDegrees>
            </Position>
            <AltitudeMeters>14.3999996185302734375</AltitudeMeters>
            <DistanceMeters>NAN</DistanceMeters>
          </Trackpoint>
          <Trackpoint>
            <Time>2022-09-24T14:48:43.000Z</Time>
            <Position>
              <LatitudeDegrees>43.2464490272104740142822265625</LatitudeDegrees>
              <LongitudeDegrees>-2.80529734678566455841064453125</LongitudeDegrees>
            </Position>
            <AltitudeMeters>14.3999996185302734375</AltitudeMeters>
            <DistanceMeters>NAN</DistanceMeters>
          </Trackpoint>
          <Trackpoint>
            <Time>2022-09-24T14:48:44.000Z</Time>
            <Position>
              <LatitudeDegrees>43.24653041549026966094970703125</LatitudeDegrees>
              <LongitudeDegrees>-2.80525627546012401580810546875</LongitudeDegrees>
            </Position>
            <AltitudeMeters>14.6000003814697265625</AltitudeMeters>
            <DistanceMeters>NAN</DistanceMeters>
          </Trackpoint>
          <Trackpoint>
            <Time>2022-09-24T14:48:45.000Z</Time>
            <Position>
              <LatitudeDegrees>43.246612809598445892333984375</LatitudeDegrees>
              <LongitudeDegrees>-2.80522274784743785858154296875</LongitudeDegrees>
            </Position>
            <AltitudeMeters>14.6000003814697265625</AltitudeMeters>
            <DistanceMeters>NAN</DistanceMeters>
          </Trackpoint>
          <Trackpoint>
            <Time>2022-09-24T14:48:46.000Z</Time>
            <Position>
              <LatitudeDegrees>43.2466914318501949310302734375</LatitudeDegrees>
              <LongitudeDegrees>-2.8052043914794921875</LongitudeDegrees>
            </Position>
            <AltitudeMeters>14.6000003814697265625</AltitudeMeters>
            <DistanceMeters>NAN</DistanceMeters>
          </Trackpoint>
          <Trackpoint>
            <Time>2022-09-24T14:48:47.000Z</Time>
            <Position>
              <LatitudeDegrees>43.2466914318501949310302734375</LatitudeDegrees>
              <LongitudeDegrees>-2.8052043914794921875</LongitudeDegrees>
            </Position>
            <AltitudeMeters>14.6000003814697265625</AltitudeMeters>
            <DistanceMeters>NAN</DistanceMeters>
          </Trackpoint>
          <Trackpoint>
            <Time>2022-09-24T14:48:48.000Z</Time>
            <Position>
              <LatitudeDegrees>43.24684641323983669281005859375</LatitudeDegrees>
              <LongitudeDegrees>-2.80516105704009532928466796875</LongitudeDegrees>
            </Position>
            <AltitudeMeters>14.6000003814697265625</AltitudeMeters>
            <DistanceMeters>NAN</DistanceMeters>
          </Trackpoint>
          <Trackpoint>
            <Time>2022-09-24T14:48:49.000Z</Time>
            <Position>
              <LatitudeDegrees>43.246923945844173431396484375</LatitudeDegrees>
              <LongitudeDegrees>-2.80513591133058071136474609375</LongitudeDegrees>
            </Position>
            <AltitudeMeters>14.3999996185302734375</AltitudeMeters>
            <DistanceMeters>NAN</DistanceMeters>
          </Trackpoint>
          <Trackpoint>
            <Time>2022-09-24T14:48:50.000Z</Time>
            <Position>
              <LatitudeDegrees>43.24700365774333477020263671875</LatitudeDegrees>
              <LongitudeDegrees>-2.80510841868817806243896484375</LongitudeDegrees>
            </Position>
            <AltitudeMeters>14.3999996185302734375</AltitudeMeters>
            <DistanceMeters>NAN</DistanceMeters>
          </Trackpoint>
          <Trackpoint>
            <Time>2022-09-24T14:48:51.000Z</Time>
            <Position>
              <LatitudeDegrees>43.24708010070025920867919921875</LatitudeDegrees>
              <LongitudeDegrees>-2.8050754778087139129638671875</LongitudeDegrees>
            </Position>
            <AltitudeMeters>14.19999980926513671875</AltitudeMeters>
            <DistanceMeters>NAN</DistanceMeters>
          </Trackpoint>
          <Trackpoint>
            <Time>2022-09-24T14:48:52.000Z</Time>
            <Position>
              <LatitudeDegrees>43.24715503491461277008056640625</LatitudeDegrees>
              <LongitudeDegrees>-2.80503566376864910125732421875</LongitudeDegrees>
            </Position>
            <AltitudeMeters>14.19999980926513671875</AltitudeMeters>
            <DistanceMeters>NAN</DistanceMeters>
          </Trackpoint>
          <Trackpoint>
            <Time>2022-09-24T14:48:53.000Z</Time>
            <Position>
              <LatitudeDegrees>43.2472295500338077545166015625</LatitudeDegrees>
              <LongitudeDegrees>-2.8049883060157299041748046875</LongitudeDegrees>
            </Position>
            <AltitudeMeters>14.19999980926513671875</AltitudeMeters>
            <DistanceMeters>NAN</DistanceMeters>
          </Trackpoint>
          <Trackpoint>
            <Time>2022-09-24T14:48:54.000Z</Time>
            <Position>
              <LatitudeDegrees>43.24730305932462215423583984375</LatitudeDegrees>
              <LongitudeDegrees>-2.80494279228150844573974609375</LongitudeDegrees>
            </Position>
            <AltitudeMeters>14</AltitudeMeters>
            <DistanceMeters>NAN</DistanceMeters>
          </Trackpoint>
          <Trackpoint>
            <Time>2022-09-24T14:48:55.000Z</Time>
            <Position>
              <LatitudeDegrees>43.247373215854167938232421875</LatitudeDegrees>
              <LongitudeDegrees>-2.80489719472825527191162109375</LongitudeDegrees>
            </Position>
            <AltitudeMeters>14</AltitudeMeters>
            <DistanceMeters>NAN</DistanceMeters>
          </Trackpoint>
          <Trackpoint>
            <Time>2022-09-24T14:48:56.000Z</Time>
            <Position>
              <LatitudeDegrees>43.24745711870491504669189453125</LatitudeDegrees>
              <LongitudeDegrees>-2.80483148060739040374755859375</LongitudeDegrees>
            </Position>
            <AltitudeMeters>14</AltitudeMeters>
            <DistanceMeters>NAN</DistanceMeters>
          </Trackpoint>
          <Trackpoint>
            <Time>2022-09-24T14:48:57.000Z</Time>
            <Position>
              <LatitudeDegrees>43.24751294218003749847412109375</LatitudeDegrees>
              <LongitudeDegrees>-2.80478420667350292205810546875</LongitudeDegrees>
            </Position>
            <AltitudeMeters>14</AltitudeMeters>
            <DistanceMeters>NAN</DistanceMeters>
          </Trackpoint>
          <Trackpoint>
            <Time>2022-09-24T14:48:58.000Z</Time>
            <Position>
              <LatitudeDegrees>43.2475812546908855438232421875</LatitudeDegrees>
              <LongitudeDegrees>-2.80472771264612674713134765625</LongitudeDegrees>
            </Position>
            <AltitudeMeters>14</AltitudeMeters>
            <DistanceMeters>NAN</DistanceMeters>
          </Trackpoint>
          <Trackpoint>
            <Time>2022-09-24T14:48:59.000Z</Time>
            <Position>
              <LatitudeDegrees>43.24766146950423717498779296875</LatitudeDegrees>
              <LongitudeDegrees>-2.8046583943068981170654296875</LongitudeDegrees>
            </Position>
            <AltitudeMeters>14</AltitudeMeters>
            <DistanceMeters>NAN</DistanceMeters>
          </Trackpoint>
          <Trackpoint>
            <Time>2022-09-24T14:49:00.000Z</Time>
            <Position>
              <LatitudeDegrees>43.24772651307284832000732421875</LatitudeDegrees>
              <LongitudeDegrees>-2.8045980446040630340576171875</LongitudeDegrees>
            </Position>
            <AltitudeMeters>14</AltitudeMeters>
            <DistanceMeters>NAN</DistanceMeters>
          </Trackpoint>
          <Trackpoint>
            <Time>2022-09-24T14:49:01.000Z</Time>
            <Position>
              <LatitudeDegrees>43.2477760501205921173095703125</LatitudeDegrees>
              <LongitudeDegrees>-2.80455051921308040618896484375</LongitudeDegrees>
            </Position>
            <AltitudeMeters>14</AltitudeMeters>
            <DistanceMeters>NAN</DistanceMeters>
          </Trackpoint>
          <Trackpoint>
            <Time>2022-09-24T14:49:02.000Z</Time>
            <Position>
              <LatitudeDegrees>43.2478494755923748016357421875</LatitudeDegrees>
              <LongitudeDegrees>-2.8044847212731838226318359375</LongitudeDegrees>
            </Position>
            <AltitudeMeters>13.80000019073486328125</AltitudeMeters>
            <DistanceMeters>NAN</DistanceMeters>
          </Trackpoint>
          <Trackpoint>
            <Time>2022-09-24T14:49:03.000Z</Time>
            <Position>
              <LatitudeDegrees>43.2479071430861949920654296875</LatitudeDegrees>
              <LongitudeDegrees>-2.80443099327385425567626953125</LongitudeDegrees>
            </Position>
            <AltitudeMeters>13.80000019073486328125</AltitudeMeters>
            <DistanceMeters>NAN</DistanceMeters>
          </Trackpoint>
          <Trackpoint>
            <Time>2022-09-24T14:49:04.000Z</Time>
            <Position>
              <LatitudeDegrees>43.2479537464678287506103515625</LatitudeDegrees>
              <LongitudeDegrees>-2.80438967049121856689453125</LongitudeDegrees>
            </Position>
            <AltitudeMeters>13.80000019073486328125</AltitudeMeters>
            <DistanceMeters>NAN</DistanceMeters>
          </Trackpoint>
          <Trackpoint>
            <Time>2022-09-24T14:49:05.000Z</Time>
            <Position>
              <LatitudeDegrees>43.24801518581807613372802734375</LatitudeDegrees>
              <LongitudeDegrees>-2.80434398911893367767333984375</LongitudeDegrees>
            </Position>
            <AltitudeMeters>13.80000019073486328125</AltitudeMeters>
            <DistanceMeters>NAN</DistanceMeters>
          </Trackpoint>
          <Trackpoint>
            <Time>2022-09-24T14:49:06.000Z</Time>
            <Position>
              <LatitudeDegrees>43.24807603843510150909423828125</LatitudeDegrees>
              <LongitudeDegrees>-2.80430157668888568878173828125</LongitudeDegrees>
            </Position>
            <AltitudeMeters>14.19999980926513671875</AltitudeMeters>
            <DistanceMeters>NAN</DistanceMeters>
          </Trackpoint>
          <Trackpoint>
            <Time>2022-09-24T14:49:07.000Z</Time>
            <Position>
              <LatitudeDegrees>43.2481347955763339996337890625</LatitudeDegrees>
              <LongitudeDegrees>-2.804257906973361968994140625</LongitudeDegrees>
            </Position>
            <AltitudeMeters>14.19999980926513671875</AltitudeMeters>
            <DistanceMeters>NAN</DistanceMeters>
          </Trackpoint>
          <Trackpoint>
            <Time>2022-09-24T14:49:08.000Z</Time>
            <Position>
              <LatitudeDegrees>43.248190619051456451416015625</LatitudeDegrees>
              <LongitudeDegrees>-2.8042104654014110565185546875</LongitudeDegrees>
            </Position>
            <AltitudeMeters>14.80000019073486328125</AltitudeMeters>
            <DistanceMeters>NAN</DistanceMeters>
          </Trackpoint>
          <Trackpoint>
            <Time>2022-09-24T14:49:09.000Z</Time>
            <Position>
              <LatitudeDegrees>43.2482447661459445953369140625</LatitudeDegrees>
              <LongitudeDegrees>-2.8041631914675235748291015625</LongitudeDegrees>
            </Position>
            <AltitudeMeters>15.19999980926513671875</AltitudeMeters>
            <DistanceMeters>NAN</DistanceMeters>
          </Trackpoint>
          <Trackpoint>
            <Time>2022-09-24T14:49:10.000Z</Time>
            <Position>
              <LatitudeDegrees>43.2482980750501155853271484375</LatitudeDegrees>
              <LongitudeDegrees>-2.8041155822575092315673828125</LongitudeDegrees>
            </Position>
            <AltitudeMeters>15.19999980926513671875</AltitudeMeters>
            <DistanceMeters>NAN</DistanceMeters>
          </Trackpoint>
          <Trackpoint>
            <Time>2022-09-24T14:49:11.000Z</Time>
            <Position>
              <LatitudeDegrees>43.24834576807916164398193359375</LatitudeDegrees>
              <LongitudeDegrees>-2.80406487174332141876220703125</LongitudeDegrees>
            </Position>
            <AltitudeMeters>15.3999996185302734375</AltitudeMeters>
            <DistanceMeters>NAN</DistanceMeters>
          </Trackpoint>
          <Trackpoint>
            <Time>2022-09-24T14:49:12.000Z</Time>
            <Position>
              <LatitudeDegrees>43.24839019216597080230712890625</LatitudeDegrees>
              <LongitudeDegrees>-2.80400753952562808990478515625</LongitudeDegrees>
            </Position>
            <AltitudeMeters>15.80000019073486328125</AltitudeMeters>
            <DistanceMeters>NAN</DistanceMeters>
          </Trackpoint>
          <Trackpoint>
            <Time>2022-09-24T14:49:13.000Z</Time>
            <Position>
              <LatitudeDegrees>43.2484372146427631378173828125</LatitudeDegrees>
              <LongitudeDegrees>-2.803944759070873260498046875</LongitudeDegrees>
            </Position>
            <AltitudeMeters>16</AltitudeMeters>
            <DistanceMeters>NAN</DistanceMeters>
          </Trackpoint>
          <Trackpoint>
            <Time>2022-09-24T14:49:14.000Z</Time>
            <Position>
              <LatitudeDegrees>43.2484791241586208343505859375</LatitudeDegrees>
              <LongitudeDegrees>-2.8038795478641986846923828125</LongitudeDegrees>
            </Position>
            <AltitudeMeters>16.200000762939453125</AltitudeMeters>
            <DistanceMeters>NAN</DistanceMeters>
          </Trackpoint>
          <Trackpoint>
            <Time>2022-09-24T14:49:15.000Z</Time>
            <Position>
              <LatitudeDegrees>43.2485193572938442230224609375</LatitudeDegrees>
              <LongitudeDegrees>-2.8038088046014308929443359375</LongitudeDegrees>
            </Position>
            <AltitudeMeters>16.3999996185302734375</AltitudeMeters>
            <DistanceMeters>NAN</DistanceMeters>
          </Trackpoint>
          <Trackpoint>
            <Time>2022-09-24T14:49:16.000Z</Time>
            <Position>
              <LatitudeDegrees>43.24855632148683071136474609375</LatitudeDegrees>
              <LongitudeDegrees>-2.8037350438535213470458984375</LongitudeDegrees>
            </Position>
            <AltitudeMeters>16.6000003814697265625</AltitudeMeters>
            <DistanceMeters>NAN</DistanceMeters>
          </Trackpoint>
          <Trackpoint>
            <Time>2022-09-24T14:49:17.000Z</Time>
            <Position>
              <LatitudeDegrees>43.24858917854726314544677734375</LatitudeDegrees>
              <LongitudeDegrees>-2.8036535717546939849853515625</LongitudeDegrees>
            </Position>
            <AltitudeMeters>16.6000003814697265625</AltitudeMeters>
            <DistanceMeters>NAN</DistanceMeters>
          </Trackpoint>
          <Trackpoint>
            <Time>2022-09-24T14:49:18.000Z</Time>
            <Position>
              <LatitudeDegrees>43.2486206106841564178466796875</LatitudeDegrees>
              <LongitudeDegrees>-2.8035744465887546539306640625</LongitudeDegrees>
            </Position>
            <AltitudeMeters>16.6000003814697265625</AltitudeMeters>
            <DistanceMeters>NAN</DistanceMeters>
          </Trackpoint>
          <Trackpoint>
            <Time>2022-09-24T14:49:19.000Z</Time>
            <Position>
              <LatitudeDegrees>43.24865631759166717529296875</LatitudeDegrees>
              <LongitudeDegrees>-2.80350244604051113128662109375</LongitudeDegrees>
            </Position>
            <AltitudeMeters>16.6000003814697265625</AltitudeMeters>
            <DistanceMeters>NAN</DistanceMeters>
          </Trackpoint>
          <Trackpoint>
            <Time>2022-09-24T14:49:20.000Z</Time>
            <Position>
              <LatitudeDegrees>43.24869261123239994049072265625</LatitudeDegrees>
              <LongitudeDegrees>-2.80343086458742618560791015625</LongitudeDegrees>
            </Position>
            <AltitudeMeters>17</AltitudeMeters>
            <DistanceMeters>NAN</DistanceMeters>
          </Trackpoint>
          <Trackpoint>
            <Time>2022-09-24T14:49:21.000Z</Time>
            <Position>
              <LatitudeDegrees>43.24873904697597026824951171875</LatitudeDegrees>
              <LongitudeDegrees>-2.80334872193634510040283203125</LongitudeDegrees>
            </Position>
            <AltitudeMeters>17</AltitudeMeters>
            <DistanceMeters>NAN</DistanceMeters>
          </Trackpoint>
          <Trackpoint>
            <Time>2022-09-24T14:49:22.000Z</Time>
            <Position>
              <LatitudeDegrees>43.248778693377971649169921875</LatitudeDegrees>
              <LongitudeDegrees>-2.8032807447016239166259765625</LongitudeDegrees>
            </Position>
            <AltitudeMeters>16.6000003814697265625</AltitudeMeters>
            <DistanceMeters>NAN</DistanceMeters>
          </Trackpoint>
          <Trackpoint>
            <Time>2022-09-24T14:49:23.000Z</Time>
            <Position>
              <LatitudeDegrees>43.24880911968648433685302734375</LatitudeDegrees>
              <LongitudeDegrees>-2.8032260946929454803466796875</LongitudeDegrees>
            </Position>
            <AltitudeMeters>16.6000003814697265625</AltitudeMeters>
            <DistanceMeters>NAN</DistanceMeters>
          </Trackpoint>
          <Trackpoint>
            <Time>2022-09-24T14:49:24.000Z</Time>
            <Position>
              <LatitudeDegrees>43.24884600006043910980224609375</LatitudeDegrees>
              <LongitudeDegrees>-2.80316297896206378936767578125</LongitudeDegrees>
            </Position>
            <AltitudeMeters>16.6000003814697265625</AltitudeMeters>
            <DistanceMeters>NAN</DistanceMeters>
          </Trackpoint>
          <Trackpoint>
            <Time>2022-09-24T14:49:25.000Z</Time>
            <Position>
              <LatitudeDegrees>43.24887885712087154388427734375</LatitudeDegrees>
              <LongitudeDegrees>-2.803105227649211883544921875</LongitudeDegrees>
            </Position>
            <AltitudeMeters>16.6000003814697265625</AltitudeMeters>
            <DistanceMeters>NAN</DistanceMeters>
          </Trackpoint>
          <Trackpoint>
            <Time>2022-09-24T14:49:26.000Z</Time>
            <Position>
              <LatitudeDegrees>43.24891171418130397796630859375</LatitudeDegrees>
              <LongitudeDegrees>-2.803058624267578125</LongitudeDegrees>
            </Position>
            <AltitudeMeters>16.6000003814697265625</AltitudeMeters>
            <DistanceMeters>NAN</DistanceMeters>
          </Trackpoint>
          <Trackpoint>
            <Time>2022-09-24T14:49:27.000Z</Time>
            <Position>
              <LatitudeDegrees>43.2489525340497493743896484375</LatitudeDegrees>
              <LongitudeDegrees>-2.8030058182775974273681640625</LongitudeDegrees>
            </Position>
            <AltitudeMeters>16.200000762939453125</AltitudeMeters>
            <DistanceMeters>NAN</DistanceMeters>
          </Trackpoint>
          <Trackpoint>
            <Time>2022-09-24T14:49:28.000Z</Time>
            <Position>
              <LatitudeDegrees>43.24903710745275020599365234375</LatitudeDegrees>
              <LongitudeDegrees>-2.802927196025848388671875</LongitudeDegrees>
            </Position>
            <AltitudeMeters>16.200000762939453125</AltitudeMeters>
            <DistanceMeters>NAN</DistanceMeters>
          </Trackpoint>
          <Trackpoint>
            <Time>2022-09-24T14:49:29.000Z</Time>
            <Position>
              <LatitudeDegrees>43.24908907525241374969482421875</LatitudeDegrees>
              <LongitudeDegrees>-2.80284580774605274200439453125</LongitudeDegrees>
            </Position>
            <AltitudeMeters>16</AltitudeMeters>
            <DistanceMeters>NAN</DistanceMeters>
          </Trackpoint>
          <Trackpoint>
            <Time>2022-09-24T14:49:30.000Z</Time>
            <Position>
              <LatitudeDegrees>43.249135427176952362060546875</LatitudeDegrees>
              <LongitudeDegrees>-2.80271957628428936004638671875</LongitudeDegrees>
            </Position>
            <AltitudeMeters>15.80000019073486328125</AltitudeMeters>
            <DistanceMeters>NAN</DistanceMeters>
          </Trackpoint>
          <Trackpoint>
            <Time>2022-09-24T14:49:31.000Z</Time>
            <Position>
              <LatitudeDegrees>43.24918479658663272857666015625</LatitudeDegrees>
              <LongitudeDegrees>-2.80264212749898433685302734375</LongitudeDegrees>
            </Position>
            <AltitudeMeters>15.80000019073486328125</AltitudeMeters>
            <DistanceMeters>NAN</DistanceMeters>
          </Trackpoint>
          <Trackpoint>
            <Time>2022-09-24T14:49:32.000Z</Time>
            <Position>
              <LatitudeDegrees>43.2492499239742755889892578125</LatitudeDegrees>
              <LongitudeDegrees>-2.80257054604589939117431640625</LongitudeDegrees>
            </Position>
            <AltitudeMeters>15.80000019073486328125</AltitudeMeters>
            <DistanceMeters>NAN</DistanceMeters>
          </Trackpoint>
          <Trackpoint>
            <Time>2022-09-24T14:49:33.000Z</Time>
            <Position>
              <LatitudeDegrees>43.249303065240383148193359375</LatitudeDegrees>
              <LongitudeDegrees>-2.80252176336944103240966796875</LongitudeDegrees>
            </Position>
            <AltitudeMeters>15.80000019073486328125</AltitudeMeters>
            <DistanceMeters>NAN</DistanceMeters>
          </Trackpoint>
          <Trackpoint>
            <Time>2022-09-24T14:49:34.000Z</Time>
            <Position>
              <LatitudeDegrees>43.249363414943218231201171875</LatitudeDegrees>
              <LongitudeDegrees>-2.802472226321697235107421875</LongitudeDegrees>
            </Position>
            <AltitudeMeters>16.6000003814697265625</AltitudeMeters>
            <DistanceMeters>NAN</DistanceMeters>
          </Trackpoint>
          <Trackpoint>
            <Time>2022-09-24T14:49:35.000Z</Time>
            <Position>
              <LatitudeDegrees>43.249421082437038421630859375</LatitudeDegrees>
              <LongitudeDegrees>-2.80242688022553920745849609375</LongitudeDegrees>
            </Position>
            <AltitudeMeters>15.6000003814697265625</AltitudeMeters>
            <DistanceMeters>NAN</DistanceMeters>
          </Trackpoint>
          <Trackpoint>
            <Time>2022-09-24T14:49:36.000Z</Time>
            <Position>
              <LatitudeDegrees>43.24947950430214405059814453125</LatitudeDegrees>
              <LongitudeDegrees>-2.80238430015742778778076171875</LongitudeDegrees>
            </Position>
            <AltitudeMeters>17.200000762939453125</AltitudeMeters>
            <DistanceMeters>NAN</DistanceMeters>
          </Trackpoint>
          <Trackpoint>
            <Time>2022-09-24T14:49:37.000Z</Time>
            <Position>
              <LatitudeDegrees>43.24947950430214405059814453125</LatitudeDegrees>
              <LongitudeDegrees>-2.80238430015742778778076171875</LongitudeDegrees>
            </Position>
            <AltitudeMeters>17.200000762939453125</AltitudeMeters>
            <DistanceMeters>NAN</DistanceMeters>
          </Trackpoint>
          <Trackpoint>
            <Time>2022-09-24T14:49:38.000Z</Time>
            <Position>
              <LatitudeDegrees>43.249603807926177978515625</LatitudeDegrees>
              <LongitudeDegrees>-2.80230567790567874908447265625</LongitudeDegrees>
            </Position>
            <AltitudeMeters>17.200000762939453125</AltitudeMeters>
            <DistanceMeters>NAN</DistanceMeters>
          </Trackpoint>
          <Trackpoint>
            <Time>2022-09-24T14:49:39.000Z</Time>
            <Position>
              <LatitudeDegrees>43.24966306798160076141357421875</LatitudeDegrees>
              <LongitudeDegrees>-2.8022655285894870758056640625</LongitudeDegrees>
            </Position>
            <AltitudeMeters>17.200000762939453125</AltitudeMeters>
            <DistanceMeters>NAN</DistanceMeters>
          </Trackpoint>
          <Trackpoint>
            <Time>2022-09-24T14:49:40.000Z</Time>
            <Position>
              <LatitudeDegrees>43.24972023256123065948486328125</LatitudeDegrees>
              <LongitudeDegrees>-2.802224121987819671630859375</LongitudeDegrees>
            </Position>
            <AltitudeMeters>17.200000762939453125</AltitudeMeters>
            <DistanceMeters>NAN</DistanceMeters>
          </Trackpoint>
          <Trackpoint>
            <Time>2022-09-24T14:49:41.000Z</Time>
            <Position>
              <LatitudeDegrees>43.249777145683765411376953125</LatitudeDegrees>
              <LongitudeDegrees>-2.80218221247196197509765625</LongitudeDegrees>
            </Position>
            <AltitudeMeters>17.3999996185302734375</AltitudeMeters>
            <DistanceMeters>NAN</DistanceMeters>
          </Trackpoint>
          <Trackpoint>
            <Time>2022-09-24T14:49:42.000Z</Time>
            <Position>
              <LatitudeDegrees>43.24983322061598300933837890625</LatitudeDegrees>
              <LongitudeDegrees>-2.80214189551770687103271484375</LongitudeDegrees>
            </Position>
            <AltitudeMeters>17.3999996185302734375</AltitudeMeters>
            <DistanceMeters>NAN</DistanceMeters>
          </Trackpoint>
          <Trackpoint>
            <Time>2022-09-24T14:49:43.000Z</Time>
            <Position>
              <LatitudeDegrees>43.24988745152950286865234375</LatitudeDegrees>
              <LongitudeDegrees>-2.8021005727350711822509765625</LongitudeDegrees>
            </Position>
            <AltitudeMeters>17.6000003814697265625</AltitudeMeters>
            <DistanceMeters>NAN</DistanceMeters>
          </Trackpoint>
          <Trackpoint>
            <Time>2022-09-24T14:49:44.000Z</Time>
            <Position>
              <LatitudeDegrees>43.24994235299527645111083984375</LatitudeDegrees>
              <LongitudeDegrees>-2.802060507237911224365234375</LongitudeDegrees>
            </Position>
            <AltitudeMeters>17.6000003814697265625</AltitudeMeters>
            <DistanceMeters>NAN</DistanceMeters>
          </Trackpoint>
          <Trackpoint>
            <Time>2022-09-24T14:49:45.000Z</Time>
            <Position>
              <LatitudeDegrees>43.24999348260462284088134765625</LatitudeDegrees>
              <LongitudeDegrees>-2.802037708461284637451171875</LongitudeDegrees>
            </Position>
            <AltitudeMeters>17.799999237060546875</AltitudeMeters>
            <DistanceMeters>NAN</DistanceMeters>
          </Trackpoint>
          <Trackpoint>
            <Time>2022-09-24T14:49:46.000Z</Time>
            <Position>
              <LatitudeDegrees>43.25004762969911098480224609375</LatitudeDegrees>
              <LongitudeDegrees>-2.80200376175343990325927734375</LongitudeDegrees>
            </Position>
            <AltitudeMeters>18</AltitudeMeters>
            <DistanceMeters>NAN</DistanceMeters>
          </Trackpoint>
          <Trackpoint>
            <Time>2022-09-24T14:49:47.000Z</Time>
            <Position>
              <LatitudeDegrees>43.25009993277490139007568359375</LatitudeDegrees>
              <LongitudeDegrees>-2.80196201987564563751220703125</LongitudeDegrees>
            </Position>
            <AltitudeMeters>17.6000003814697265625</AltitudeMeters>
            <DistanceMeters>NAN</DistanceMeters>
          </Trackpoint>
          <Trackpoint>
            <Time>2022-09-24T14:49:48.000Z</Time>
            <Position>
              <LatitudeDegrees>43.25015290640294551849365234375</LatitudeDegrees>
              <LongitudeDegrees>-2.80192061327397823333740234375</LongitudeDegrees>
            </Position>
            <AltitudeMeters>18.200000762939453125</AltitudeMeters>
            <DistanceMeters>NAN</DistanceMeters>
          </Trackpoint>
          <Trackpoint>
            <Time>2022-09-24T14:49:49.000Z</Time>
            <Position>
              <LatitudeDegrees>43.2502074725925922393798828125</LatitudeDegrees>
              <LongitudeDegrees>-2.8018749319016933441162109375</LongitudeDegrees>
            </Position>
            <AltitudeMeters>18.200000762939453125</AltitudeMeters>
            <DistanceMeters>NAN</DistanceMeters>
          </Trackpoint>
          <Trackpoint>
            <Time>2022-09-24T14:49:50.000Z</Time>
            <Position>
              <LatitudeDegrees>43.25026296079158782958984375</LatitudeDegrees>
              <LongitudeDegrees>-2.80182774178683757781982421875</LongitudeDegrees>
            </Position>
            <AltitudeMeters>18.200000762939453125</AltitudeMeters>
            <DistanceMeters>NAN</DistanceMeters>
          </Trackpoint>
          <Trackpoint>
            <Time>2022-09-24T14:49:51.000Z</Time>
            <Position>
              <LatitudeDegrees>43.250322304666042327880859375</LatitudeDegrees>
              <LongitudeDegrees>-2.80178390443325042724609375</LongitudeDegrees>
            </Position>
            <AltitudeMeters>18.3999996185302734375</AltitudeMeters>
            <DistanceMeters>NAN</DistanceMeters>
          </Trackpoint>
          <Trackpoint>
            <Time>2022-09-24T14:49:52.000Z</Time>
            <Position>
              <LatitudeDegrees>43.250322304666042327880859375</LatitudeDegrees>
              <LongitudeDegrees>-2.80178390443325042724609375</LongitudeDegrees>
            </Position>
            <AltitudeMeters>18.3999996185302734375</AltitudeMeters>
            <DistanceMeters>NAN</DistanceMeters>
          </Trackpoint>
          <Trackpoint>
            <Time>2022-09-24T14:49:53.000Z</Time>
            <Position>
              <LatitudeDegrees>43.25044560246169567108154296875</LatitudeDegrees>
              <LongitudeDegrees>-2.80171274207532405853271484375</LongitudeDegrees>
            </Position>
            <AltitudeMeters>18.6000003814697265625</AltitudeMeters>
            <DistanceMeters>NAN</DistanceMeters>
          </Trackpoint>
          <Trackpoint>
            <Time>2022-09-24T14:49:54.000Z</Time>
            <Position>
              <LatitudeDegrees>43.2505090534687042236328125</LatitudeDegrees>
              <LongitudeDegrees>-2.80167435295879840850830078125</LongitudeDegrees>
            </Position>
            <AltitudeMeters>18.6000003814697265625</AltitudeMeters>
            <DistanceMeters>NAN</DistanceMeters>
          </Trackpoint>
          <Trackpoint>
            <Time>2022-09-24T14:49:55.000Z</Time>
            <Position>
              <LatitudeDegrees>43.2505702413618564605712890625</LatitudeDegrees>
              <LongitudeDegrees>-2.80162992887198925018310546875</LongitudeDegrees>
            </Position>
            <AltitudeMeters>18.6000003814697265625</AltitudeMeters>
            <DistanceMeters>NAN</DistanceMeters>
          </Trackpoint>
          <Trackpoint>
            <Time>2022-09-24T14:49:56.000Z</Time>
            <Position>
              <LatitudeDegrees>43.25062832795083522796630859375</LatitudeDegrees>
              <LongitudeDegrees>-2.801571004092693328857421875</LongitudeDegrees>
            </Position>
            <AltitudeMeters>18.3999996185302734375</AltitudeMeters>
            <DistanceMeters>NAN</DistanceMeters>
          </Trackpoint>
          <Trackpoint>
            <Time>2022-09-24T14:49:57.000Z</Time>
            <Position>
              <LatitudeDegrees>43.2506879232823848724365234375</LatitudeDegrees>
              <LongitudeDegrees>-2.80150118283927440643310546875</LongitudeDegrees>
            </Position>
            <AltitudeMeters>18.3999996185302734375</AltitudeMeters>
            <DistanceMeters>NAN</DistanceMeters>
          </Trackpoint>
          <Trackpoint>
            <Time>2022-09-24T14:49:58.000Z</Time>
            <Position>
              <LatitudeDegrees>43.250744082033634185791015625</LatitudeDegrees>
              <LongitudeDegrees>-2.80142758972942829132080078125</LongitudeDegrees>
            </Position>
            <AltitudeMeters>18.200000762939453125</AltitudeMeters>
            <DistanceMeters>NAN</DistanceMeters>
          </Trackpoint>
          <Trackpoint>
            <Time>2022-09-24T14:49:59.000Z</Time>
            <Position>
              <LatitudeDegrees>43.25078465044498443603515625</LatitudeDegrees>
              <LongitudeDegrees>-2.80135609209537506103515625</LongitudeDegrees>
            </Position>
            <AltitudeMeters>17.799999237060546875</AltitudeMeters>
            <DistanceMeters>NAN</DistanceMeters>
          </Trackpoint>
          <Trackpoint>
            <Time>2022-09-24T14:50:00.000Z</Time>
            <Position>
              <LatitudeDegrees>43.25083217583596706390380859375</LatitudeDegrees>
              <LongitudeDegrees>-2.8012714348733425140380859375</LongitudeDegrees>
            </Position>
            <AltitudeMeters>17.799999237060546875</AltitudeMeters>
            <DistanceMeters>NAN</DistanceMeters>
          </Trackpoint>
          <Trackpoint>
            <Time>2022-09-24T14:50:01.000Z</Time>
            <Position>
              <LatitudeDegrees>43.2508818805217742919921875</LatitudeDegrees>
              <LongitudeDegrees>-2.801184095442295074462890625</LongitudeDegrees>
            </Position>
            <AltitudeMeters>17.799999237060546875</AltitudeMeters>
            <DistanceMeters>NAN</DistanceMeters>
          </Trackpoint>
          <Trackpoint>
            <Time>2022-09-24T14:50:02.000Z</Time>
            <Position>
              <LatitudeDegrees>43.2508818805217742919921875</LatitudeDegrees>
              <LongitudeDegrees>-2.801184095442295074462890625</LongitudeDegrees>
            </Position>
            <AltitudeMeters>17.799999237060546875</AltitudeMeters>
            <DistanceMeters>NAN</DistanceMeters>
          </Trackpoint>
          <Trackpoint>
            <Time>2022-09-24T14:50:03.000Z</Time>
            <Position>
              <LatitudeDegrees>43.25098740868270397186279296875</LatitudeDegrees>
              <LongitudeDegrees>-2.80099038966000080108642578125</LongitudeDegrees>
            </Position>
            <AltitudeMeters>17.799999237060546875</AltitudeMeters>
            <DistanceMeters>NAN</DistanceMeters>
          </Trackpoint>
          <Trackpoint>
            <Time>2022-09-24T14:50:04.000Z</Time>
            <Position>
              <LatitudeDegrees>43.25103384442627429962158203125</LatitudeDegrees>
              <LongitudeDegrees>-2.80090405605733394622802734375</LongitudeDegrees>
            </Position>
            <AltitudeMeters>18</AltitudeMeters>
            <DistanceMeters>NAN</DistanceMeters>
          </Trackpoint>
          <Trackpoint>
            <Time>2022-09-24T14:50:05.000Z</Time>
            <Position>
              <LatitudeDegrees>43.25107893906533718109130859375</LatitudeDegrees>
              <LongitudeDegrees>-2.8008188121020793914794921875</LongitudeDegrees>
            </Position>
            <AltitudeMeters>18</AltitudeMeters>
            <DistanceMeters>NAN</DistanceMeters>
          </Trackpoint>
          <Trackpoint>
            <Time>2022-09-24T14:50:06.000Z</Time>
            <Position>
              <LatitudeDegrees>43.2511152327060699462890625</LatitudeDegrees>
              <LongitudeDegrees>-2.80074697919189929962158203125</LongitudeDegrees>
            </Position>
            <AltitudeMeters>18</AltitudeMeters>
            <DistanceMeters>NAN</DistanceMeters>
          </Trackpoint>
          <Trackpoint>
            <Time>2022-09-24T14:50:07.000Z</Time>
            <Position>
              <LatitudeDegrees>43.25116191990673542022705078125</LatitudeDegrees>
              <LongitudeDegrees>-2.80065712518990039825439453125</LongitudeDegrees>
            </Position>
            <AltitudeMeters>17.799999237060546875</AltitudeMeters>
            <DistanceMeters>NAN</DistanceMeters>
          </Trackpoint>
          <Trackpoint>
            <Time>2022-09-24T14:50:08.000Z</Time>
            <Position>
              <LatitudeDegrees>43.2512190006673336029052734375</LatitudeDegrees>
              <LongitudeDegrees>-2.80055587179958820343017578125</LongitudeDegrees>
            </Position>
            <AltitudeMeters>17.799999237060546875</AltitudeMeters>
            <DistanceMeters>NAN</DistanceMeters>
          </Trackpoint>
          <Trackpoint>
            <Time>2022-09-24T14:50:09.000Z</Time>
            <Position>
              <LatitudeDegrees>43.25126417912542819976806640625</LatitudeDegrees>
              <LongitudeDegrees>-2.800472639501094818115234375</LongitudeDegrees>
            </Position>
            <AltitudeMeters>17.200000762939453125</AltitudeMeters>
            <DistanceMeters>NAN</DistanceMeters>
          </Trackpoint>
          <Trackpoint>
            <Time>2022-09-24T14:50:10.000Z</Time>
            <Position>
              <LatitudeDegrees>43.25129829347133636474609375</LatitudeDegrees>
              <LongitudeDegrees>-2.8004040755331516265869140625</LongitudeDegrees>
            </Position>
            <AltitudeMeters>17.799999237060546875</AltitudeMeters>
            <DistanceMeters>NAN</DistanceMeters>
          </Trackpoint>
          <Trackpoint>
            <Time>2022-09-24T14:50:11.000Z</Time>
            <Position>
              <LatitudeDegrees>43.251337520778179168701171875</LatitudeDegrees>
              <LongitudeDegrees>-2.80031883157789707183837890625</LongitudeDegrees>
            </Position>
            <AltitudeMeters>17.799999237060546875</AltitudeMeters>
            <DistanceMeters>NAN</DistanceMeters>
          </Trackpoint>
          <Trackpoint>
            <Time>2022-09-24T14:50:12.000Z</Time>
            <Position>
              <LatitudeDegrees>43.25137750245630741119384765625</LatitudeDegrees>
              <LongitudeDegrees>-2.8002361021935939788818359375</LongitudeDegrees>
            </Position>
            <AltitudeMeters>18</AltitudeMeters>
            <DistanceMeters>NAN</DistanceMeters>
          </Trackpoint>
          <Trackpoint>
            <Time>2022-09-24T14:50:13.000Z</Time>
            <Position>
              <LatitudeDegrees>43.2514255307614803314208984375</LatitudeDegrees>
              <LongitudeDegrees>-2.80014029704034328460693359375</LongitudeDegrees>
            </Position>
            <AltitudeMeters>18.3999996185302734375</AltitudeMeters>
            <DistanceMeters>NAN</DistanceMeters>
          </Trackpoint>
          <Trackpoint>
            <Time>2022-09-24T14:50:14.000Z</Time>
            <Position>
              <LatitudeDegrees>43.25146769173443317413330078125</LatitudeDegrees>
              <LongitudeDegrees>-2.8000513650476932525634765625</LongitudeDegrees>
            </Position>
            <AltitudeMeters>18.3999996185302734375</AltitudeMeters>
            <DistanceMeters>NAN</DistanceMeters>
          </Trackpoint>
          <Trackpoint>
            <Time>2022-09-24T14:50:15.000Z</Time>
            <Position>
              <LatitudeDegrees>43.2515073381364345550537109375</LatitudeDegrees>
              <LongitudeDegrees>-2.79996746219694614410400390625</LongitudeDegrees>
            </Position>
            <AltitudeMeters>18.3999996185302734375</AltitudeMeters>
            <DistanceMeters>NAN</DistanceMeters>
          </Trackpoint>
          <Trackpoint>
            <Time>2022-09-24T14:50:16.000Z</Time>
            <Position>
              <LatitudeDegrees>43.25154379941523075103759765625</LatitudeDegrees>
              <LongitudeDegrees>-2.79988280497491359710693359375</LongitudeDegrees>
            </Position>
            <AltitudeMeters>18.6000003814697265625</AltitudeMeters>
            <DistanceMeters>NAN</DistanceMeters>
          </Trackpoint>
          <Trackpoint>
            <Time>2022-09-24T14:50:17.000Z</Time>
            <Position>
              <LatitudeDegrees>43.251569531857967376708984375</LatitudeDegrees>
              <LongitudeDegrees>-2.799811474978923797607421875</LongitudeDegrees>
            </Position>
            <AltitudeMeters>18.799999237060546875</AltitudeMeters>
            <DistanceMeters>NAN</DistanceMeters>
          </Trackpoint>
          <Trackpoint>
            <Time>2022-09-24T14:50:18.000Z</Time>
            <Position>
              <LatitudeDegrees>43.25160817243158817291259765625</LatitudeDegrees>
              <LongitudeDegrees>-2.79970561154186725616455078125</LongitudeDegrees>
            </Position>
            <AltitudeMeters>18.799999237060546875</AltitudeMeters>
            <DistanceMeters>NAN</DistanceMeters>
          </Trackpoint>
          <Trackpoint>
            <Time>2022-09-24T14:50:19.000Z</Time>
            <Position>
              <LatitudeDegrees>43.2516397722065448760986328125</LatitudeDegrees>
              <LongitudeDegrees>-2.79961642809212207794189453125</LongitudeDegrees>
            </Position>
            <AltitudeMeters>19</AltitudeMeters>
            <DistanceMeters>NAN</DistanceMeters>
          </Trackpoint>
          <Trackpoint>
            <Time>2022-09-24T14:50:20.000Z</Time>
            <Position>
              <LatitudeDegrees>43.25166500173509120941162109375</LatitudeDegrees>
              <LongitudeDegrees>-2.79952238313853740692138671875</LongitudeDegrees>
            </Position>
            <AltitudeMeters>19</AltitudeMeters>
            <DistanceMeters>NAN</DistanceMeters>
          </Trackpoint>
          <Trackpoint>
            <Time>2022-09-24T14:50:21.000Z</Time>
            <Position>
              <LatitudeDegrees>43.25166500173509120941162109375</LatitudeDegrees>
              <LongitudeDegrees>-2.79952238313853740692138671875</LongitudeDegrees>
            </Position>
            <AltitudeMeters>19</AltitudeMeters>
            <DistanceMeters>NAN</DistanceMeters>
          </Trackpoint>
          <Trackpoint>
            <Time>2022-09-24T14:50:22.000Z</Time>
            <Position>
              <LatitudeDegrees>43.25171269476413726806640625</LatitudeDegrees>
              <LongitudeDegrees>-2.7993370592594146728515625</LongitudeDegrees>
            </Position>
            <AltitudeMeters>19.200000762939453125</AltitudeMeters>
            <DistanceMeters>NAN</DistanceMeters>
          </Trackpoint>
          <Trackpoint>
            <Time>2022-09-24T14:50:23.000Z</Time>
            <Position>
              <LatitudeDegrees>43.2517329789698123931884765625</LatitudeDegrees>
              <LongitudeDegrees>-2.799266986548900604248046875</LongitudeDegrees>
            </Position>
            <AltitudeMeters>19.200000762939453125</AltitudeMeters>
            <DistanceMeters>NAN</DistanceMeters>
          </Trackpoint>
          <Trackpoint>
            <Time>2022-09-24T14:50:24.000Z</Time>
            <Position>
              <LatitudeDegrees>43.2517544366419315338134765625</LatitudeDegrees>
              <LongitudeDegrees>-2.7991779707372188568115234375</LongitudeDegrees>
            </Position>
            <AltitudeMeters>19.6000003814697265625</AltitudeMeters>
            <DistanceMeters>NAN</DistanceMeters>
          </Trackpoint>
          <Trackpoint>
            <Time>2022-09-24T14:50:25.000Z</Time>
            <Position>
              <LatitudeDegrees>43.25178083963692188262939453125</LatitudeDegrees>
              <LongitudeDegrees>-2.79907219111919403076171875</LongitudeDegrees>
            </Position>
            <AltitudeMeters>20</AltitudeMeters>
            <DistanceMeters>NAN</DistanceMeters>
          </Trackpoint>
          <Trackpoint>
            <Time>2022-09-24T14:50:26.000Z</Time>
            <Position>
              <LatitudeDegrees>43.25180120766162872314453125</LatitudeDegrees>
              <LongitudeDegrees>-2.79898460023105144500732421875</LongitudeDegrees>
            </Position>
            <AltitudeMeters>20.200000762939453125</AltitudeMeters>
            <DistanceMeters>NAN</DistanceMeters>
          </Trackpoint>
          <Trackpoint>
            <Time>2022-09-24T14:50:27.000Z</Time>
            <Position>
              <LatitudeDegrees>43.25181788764894008636474609375</LatitudeDegrees>
              <LongitudeDegrees>-2.7988939918577671051025390625</LongitudeDegrees>
            </Position>
            <AltitudeMeters>20.200000762939453125</AltitudeMeters>
            <DistanceMeters>NAN</DistanceMeters>
          </Trackpoint>
          <Trackpoint>
            <Time>2022-09-24T14:50:28.000Z</Time>
            <Position>
              <LatitudeDegrees>43.25183339416980743408203125</LatitudeDegrees>
              <LongitudeDegrees>-2.79880355112254619598388671875</LongitudeDegrees>
            </Position>
            <AltitudeMeters>20.200000762939453125</AltitudeMeters>
            <DistanceMeters>NAN</DistanceMeters>
          </Trackpoint>
          <Trackpoint>
            <Time>2022-09-24T14:50:29.000Z</Time>
            <Position>
              <LatitudeDegrees>43.25184940360486507415771484375</LatitudeDegrees>
              <LongitudeDegrees>-2.79871202073991298675537109375</LongitudeDegrees>
            </Position>
            <AltitudeMeters>20.200000762939453125</AltitudeMeters>
            <DistanceMeters>NAN</DistanceMeters>
          </Trackpoint>
          <Trackpoint>
            <Time>2022-09-24T14:50:30.000Z</Time>
            <Position>
              <LatitudeDegrees>43.25186985544860363006591796875</LatitudeDegrees>
              <LongitudeDegrees>-2.79862233437597751617431640625</LongitudeDegrees>
            </Position>
            <AltitudeMeters>20.6000003814697265625</AltitudeMeters>
            <DistanceMeters>NAN</DistanceMeters>
          </Trackpoint>
          <Trackpoint>
            <Time>2022-09-24T14:50:31.000Z</Time>
            <Position>
              <LatitudeDegrees>43.25189148075878620147705078125</LatitudeDegrees>
              <LongitudeDegrees>-2.79853298328816890716552734375</LongitudeDegrees>
            </Position>
            <AltitudeMeters>20.6000003814697265625</AltitudeMeters>
            <DistanceMeters>NAN</DistanceMeters>
          </Trackpoint>
          <Trackpoint>
            <Time>2022-09-24T14:50:32.000Z</Time>
            <Position>
              <LatitudeDegrees>43.25191042385995388031005859375</LatitudeDegrees>
              <LongitudeDegrees>-2.7984651736915111541748046875</LongitudeDegrees>
            </Position>
            <AltitudeMeters>20.200000762939453125</AltitudeMeters>
            <DistanceMeters>NAN</DistanceMeters>
          </Trackpoint>
          <Trackpoint>
            <Time>2022-09-24T14:50:33.000Z</Time>
            <Position>
              <LatitudeDegrees>43.2519328035414218902587890625</LatitudeDegrees>
              <LongitudeDegrees>-2.7983800135552883148193359375</LongitudeDegrees>
            </Position>
            <AltitudeMeters>20.6000003814697265625</AltitudeMeters>
            <DistanceMeters>NAN</DistanceMeters>
          </Trackpoint>
          <Trackpoint>
            <Time>2022-09-24T14:50:34.000Z</Time>
            <Position>
              <LatitudeDegrees>43.2519606314599514007568359375</LatitudeDegrees>
              <LongitudeDegrees>-2.79827666468918323516845703125</LongitudeDegrees>
            </Position>
            <AltitudeMeters>20.6000003814697265625</AltitudeMeters>
            <DistanceMeters>NAN</DistanceMeters>
          </Trackpoint>
          <Trackpoint>
            <Time>2022-09-24T14:50:35.000Z</Time>
            <Position>
              <LatitudeDegrees>43.25198552571237087249755859375</LatitudeDegrees>
              <LongitudeDegrees>-2.798189409077167510986328125</LongitudeDegrees>
            </Position>
            <AltitudeMeters>20.799999237060546875</AltitudeMeters>
            <DistanceMeters>NAN</DistanceMeters>
          </Trackpoint>
          <Trackpoint>
            <Time>2022-09-24T14:50:36.000Z</Time>
            <Position>
              <LatitudeDegrees>43.25200815685093402862548828125</LatitudeDegrees>
              <LongitudeDegrees>-2.7980977110564708709716796875</LongitudeDegrees>
            </Position>
            <AltitudeMeters>20.799999237060546875</AltitudeMeters>
            <DistanceMeters>NAN</DistanceMeters>
          </Trackpoint>
          <Trackpoint>
            <Time>2022-09-24T14:50:37.000Z</Time>
            <Position>
              <LatitudeDegrees>43.25203196145594120025634765625</LatitudeDegrees>
              <LongitudeDegrees>-2.79801062308251857757568359375</LongitudeDegrees>
            </Position>
            <AltitudeMeters>21</AltitudeMeters>
            <DistanceMeters>NAN</DistanceMeters>
          </Trackpoint>
          <Trackpoint>
            <Time>2022-09-24T14:50:38.000Z</Time>
            <Position>
              <LatitudeDegrees>43.2520585320889949798583984375</LatitudeDegrees>
              <LongitudeDegrees>-2.79792554676532745361328125</LongitudeDegrees>
            </Position>
            <AltitudeMeters>21</AltitudeMeters>
            <DistanceMeters>NAN</DistanceMeters>
          </Trackpoint>
          <Trackpoint>
            <Time>2022-09-24T14:50:39.000Z</Time>
            <Position>
              <LatitudeDegrees>43.25208552181720733642578125</LatitudeDegrees>
              <LongitudeDegrees>-2.79784063808619976043701171875</LongitudeDegrees>
            </Position>
            <AltitudeMeters>21</AltitudeMeters>
            <DistanceMeters>NAN</DistanceMeters>
          </Trackpoint>
          <Trackpoint>
            <Time>2022-09-24T14:50:40.000Z</Time>
            <Position>
              <LatitudeDegrees>43.25211125425994396209716796875</LatitudeDegrees>
              <LongitudeDegrees>-2.797757573425769805908203125</LongitudeDegrees>
            </Position>
            <AltitudeMeters>21.200000762939453125</AltitudeMeters>
            <DistanceMeters>NAN</DistanceMeters>
          </Trackpoint>
          <Trackpoint>
            <Time>2022-09-24T14:50:41.000Z</Time>
            <Position>
              <LatitudeDegrees>43.252136148512363433837890625</LatitudeDegrees>
              <LongitudeDegrees>-2.79767484404146671295166015625</LongitudeDegrees>
            </Position>
            <AltitudeMeters>21.200000762939453125</AltitudeMeters>
            <DistanceMeters>NAN</DistanceMeters>
          </Trackpoint>
          <Trackpoint>
            <Time>2022-09-24T14:50:42.000Z</Time>
            <Position>
              <LatitudeDegrees>43.2521571032702922821044921875</LatitudeDegrees>
              <LongitudeDegrees>-2.7976088784635066986083984375</LongitudeDegrees>
            </Position>
            <AltitudeMeters>21.200000762939453125</AltitudeMeters>
            <DistanceMeters>NAN</DistanceMeters>
          </Trackpoint>
          <Trackpoint>
            <Time>2022-09-24T14:50:43.000Z</Time>
            <Position>
              <LatitudeDegrees>43.25218752957880496978759765625</LatitudeDegrees>
              <LongitudeDegrees>-2.7975270710885524749755859375</LongitudeDegrees>
            </Position>
            <AltitudeMeters>21.3999996185302734375</AltitudeMeters>
            <DistanceMeters>NAN</DistanceMeters>
          </Trackpoint>
          <Trackpoint>
            <Time>2022-09-24T14:50:44.000Z</Time>
            <Position>
              <LatitudeDegrees>43.25222608633339405059814453125</LatitudeDegrees>
              <LongitudeDegrees>-2.79743126593530178070068359375</LongitudeDegrees>
            </Position>
            <AltitudeMeters>21.3999996185302734375</AltitudeMeters>
            <DistanceMeters>NAN</DistanceMeters>
          </Trackpoint>
          <Trackpoint>
            <Time>2022-09-24T14:50:45.000Z</Time>
            <Position>
              <LatitudeDegrees>43.252256847918033599853515625</LatitudeDegrees>
              <LongitudeDegrees>-2.79734996147453784942626953125</LongitudeDegrees>
            </Position>
            <AltitudeMeters>21.3999996185302734375</AltitudeMeters>
            <DistanceMeters>NAN</DistanceMeters>
          </Trackpoint>
          <Trackpoint>
            <Time>2022-09-24T14:50:46.000Z</Time>
            <Position>
              <LatitudeDegrees>43.2522848434746265411376953125</LatitudeDegrees>
              <LongitudeDegrees>-2.79726865701377391815185546875</LongitudeDegrees>
            </Position>
            <AltitudeMeters>21.3999996185302734375</AltitudeMeters>
            <DistanceMeters>NAN</DistanceMeters>
          </Trackpoint>
          <Trackpoint>
            <Time>2022-09-24T14:50:47.000Z</Time>
            <Position>
              <LatitudeDegrees>43.252315856516361236572265625</LatitudeDegrees>
              <LongitudeDegrees>-2.79718902893364429473876953125</LongitudeDegrees>
            </Position>
            <AltitudeMeters>21.799999237060546875</AltitudeMeters>
            <DistanceMeters>NAN</DistanceMeters>
          </Trackpoint>
          <Trackpoint>
            <Time>2022-09-24T14:50:48.000Z</Time>
            <Position>
              <LatitudeDegrees>43.25234234333038330078125</LatitudeDegrees>
              <LongitudeDegrees>-2.79712834395468235015869140625</LongitudeDegrees>
            </Position>
            <AltitudeMeters>22</AltitudeMeters>
            <DistanceMeters>NAN</DistanceMeters>
          </Trackpoint>
          <Trackpoint>
            <Time>2022-09-24T14:50:49.000Z</Time>
            <Position>
              <LatitudeDegrees>43.25238198973238468170166015625</LatitudeDegrees>
              <LongitudeDegrees>-2.7970382384955883026123046875</LongitudeDegrees>
            </Position>
            <AltitudeMeters>22</AltitudeMeters>
            <DistanceMeters>NAN</DistanceMeters>
          </Trackpoint>
          <Trackpoint>
            <Time>2022-09-24T14:50:50.000Z</Time>
            <Position>
              <LatitudeDegrees>43.2524186186492443084716796875</LatitudeDegrees>
              <LongitudeDegrees>-2.79696389101445674896240234375</LongitudeDegrees>
            </Position>
            <AltitudeMeters>22.200000762939453125</AltitudeMeters>
            <DistanceMeters>NAN</DistanceMeters>
          </Trackpoint>
          <Trackpoint>
            <Time>2022-09-24T14:50:51.000Z</Time>
            <Position>
              <LatitudeDegrees>43.25245440937578678131103515625</LatitudeDegrees>
              <LongitudeDegrees>-2.7968910522758960723876953125</LongitudeDegrees>
            </Position>
            <AltitudeMeters>22.200000762939453125</AltitudeMeters>
            <DistanceMeters>NAN</DistanceMeters>
          </Trackpoint>
          <Trackpoint>
            <Time>2022-09-24T14:50:52.000Z</Time>
            <Position>
              <LatitudeDegrees>43.2524947263300418853759765625</LatitudeDegrees>
              <LongitudeDegrees>-2.79682307504117488861083984375</LongitudeDegrees>
            </Position>
            <AltitudeMeters>22.3999996185302734375</AltitudeMeters>
            <DistanceMeters>NAN</DistanceMeters>
          </Trackpoint>
          <Trackpoint>
            <Time>2022-09-24T14:50:53.000Z</Time>
            <Position>
              <LatitudeDegrees>43.2524947263300418853759765625</LatitudeDegrees>
              <LongitudeDegrees>-2.79682307504117488861083984375</LongitudeDegrees>
            </Position>
            <AltitudeMeters>22.3999996185302734375</AltitudeMeters>
            <DistanceMeters>NAN</DistanceMeters>
          </Trackpoint>
          <Trackpoint>
            <Time>2022-09-24T14:50:54.000Z</Time>
            <Position>
              <LatitudeDegrees>43.25257427059113979339599609375</LatitudeDegrees>
              <LongitudeDegrees>-2.79669080860912799835205078125</LongitudeDegrees>
            </Position>
            <AltitudeMeters>22.6000003814697265625</AltitudeMeters>
            <DistanceMeters>NAN</DistanceMeters>
          </Trackpoint>
          <Trackpoint>
            <Time>2022-09-24T14:50:55.000Z</Time>
            <Position>
              <LatitudeDegrees>43.252616263926029205322265625</LatitudeDegrees>
              <LongitudeDegrees>-2.79662199318408966064453125</LongitudeDegrees>
            </Position>
            <AltitudeMeters>23</AltitudeMeters>
            <DistanceMeters>NAN</DistanceMeters>
          </Trackpoint>
          <Trackpoint>
            <Time>2022-09-24T14:50:56.000Z</Time>
            <Position>
              <LatitudeDegrees>43.25265817344188690185546875</LatitudeDegrees>
              <LongitudeDegrees>-2.7965527586638927459716796875</LongitudeDegrees>
            </Position>
            <AltitudeMeters>23</AltitudeMeters>
            <DistanceMeters>NAN</DistanceMeters>
          </Trackpoint>
          <Trackpoint>
            <Time>2022-09-24T14:50:57.000Z</Time>
            <Position>
              <LatitudeDegrees>43.25265817344188690185546875</LatitudeDegrees>
              <LongitudeDegrees>-2.7965527586638927459716796875</LongitudeDegrees>
            </Position>
            <AltitudeMeters>23</AltitudeMeters>
            <DistanceMeters>NAN</DistanceMeters>
          </Trackpoint>
          <Trackpoint>
            <Time>2022-09-24T14:50:58.000Z</Time>
            <Position>
              <LatitudeDegrees>43.25274190865457057952880859375</LatitudeDegrees>
              <LongitudeDegrees>-2.79641688801348209381103515625</LongitudeDegrees>
            </Position>
            <AltitudeMeters>23.200000762939453125</AltitudeMeters>
            <DistanceMeters>NAN</DistanceMeters>
          </Trackpoint>
          <Trackpoint>
            <Time>2022-09-24T14:50:59.000Z</Time>
            <Position>
              <LatitudeDegrees>43.25277744792401790618896484375</LatitudeDegrees>
              <LongitudeDegrees>-2.796364836394786834716796875</LongitudeDegrees>
            </Position>
            <AltitudeMeters>23.200000762939453125</AltitudeMeters>
            <DistanceMeters>NAN</DistanceMeters>
          </Trackpoint>
          <Trackpoint>
            <Time>2022-09-24T14:51:00.000Z</Time>
            <Position>
              <LatitudeDegrees>43.25283042155206203460693359375</LatitudeDegrees>
              <LongitudeDegrees>-2.7962831966578960418701171875</LongitudeDegrees>
            </Position>
            <AltitudeMeters>23.200000762939453125</AltitudeMeters>
            <DistanceMeters>NAN</DistanceMeters>
          </Trackpoint>
          <Trackpoint>
            <Time>2022-09-24T14:51:01.000Z</Time>
            <Position>
              <LatitudeDegrees>43.25286679901182651519775390625</LatitudeDegrees>
              <LongitudeDegrees>-2.796229384839534759521484375</LongitudeDegrees>
            </Position>
            <AltitudeMeters>23.3999996185302734375</AltitudeMeters>
            <DistanceMeters>NAN</DistanceMeters>
          </Trackpoint>
          <Trackpoint>
            <Time>2022-09-24T14:51:02.000Z</Time>
            <Position>
              <LatitudeDegrees>43.252912648022174835205078125</LatitudeDegrees>
              <LongitudeDegrees>-2.7961658500134944915771484375</LongitudeDegrees>
            </Position>
            <AltitudeMeters>23.3999996185302734375</AltitudeMeters>
            <DistanceMeters>NAN</DistanceMeters>
          </Trackpoint>
          <Trackpoint>
            <Time>2022-09-24T14:51:03.000Z</Time>
            <Position>
              <LatitudeDegrees>43.252912648022174835205078125</LatitudeDegrees>
              <LongitudeDegrees>-2.7961658500134944915771484375</LongitudeDegrees>
            </Position>
            <AltitudeMeters>23.6000003814697265625</AltitudeMeters>
            <DistanceMeters>NAN</DistanceMeters>
          </Trackpoint>
          <Trackpoint>
            <Time>2022-09-24T14:51:04.000Z</Time>
            <Position>
              <LatitudeDegrees>43.25301348231732845306396484375</LatitudeDegrees>
              <LongitudeDegrees>-2.79602914117276668548583984375</LongitudeDegrees>
            </Position>
            <AltitudeMeters>24</AltitudeMeters>
            <DistanceMeters>NAN</DistanceMeters>
          </Trackpoint>
          <Trackpoint>
            <Time>2022-09-24T14:51:05.000Z</Time>
            <Position>
              <LatitudeDegrees>43.253060169517993927001953125</LatitudeDegrees>
              <LongitudeDegrees>-2.79596543870866298675537109375</LongitudeDegrees>
            </Position>
            <AltitudeMeters>23.799999237060546875</AltitudeMeters>
            <DistanceMeters>NAN</DistanceMeters>
          </Trackpoint>
          <Trackpoint>
            <Time>2022-09-24T14:51:06.000Z</Time>
            <Position>
              <LatitudeDegrees>43.25310702435672283172607421875</LatitudeDegrees>
              <LongitudeDegrees>-2.7959070168435573577880859375</LongitudeDegrees>
            </Position>
            <AltitudeMeters>24.200000762939453125</AltitudeMeters>
            <DistanceMeters>NAN</DistanceMeters>
          </Trackpoint>
          <Trackpoint>
            <Time>2022-09-24T14:51:07.000Z</Time>
            <Position>
              <LatitudeDegrees>43.2531548850238323211669921875</LatitudeDegrees>
              <LongitudeDegrees>-2.795849852263927459716796875</LongitudeDegrees>
            </Position>
            <AltitudeMeters>24.200000762939453125</AltitudeMeters>
            <DistanceMeters>NAN</DistanceMeters>
          </Trackpoint>
          <Trackpoint>
            <Time>2022-09-24T14:51:08.000Z</Time>
            <Position>
              <LatitudeDegrees>43.2532021589577198028564453125</LatitudeDegrees>
              <LongitudeDegrees>-2.7957920171320438385009765625</LongitudeDegrees>
            </Position>
            <AltitudeMeters>24.200000762939453125</AltitudeMeters>
            <DistanceMeters>NAN</DistanceMeters>
          </Trackpoint>
          <Trackpoint>
            <Time>2022-09-24T14:51:09.000Z</Time>
            <Position>
              <LatitudeDegrees>43.25324834324419498443603515625</LatitudeDegrees>
              <LongitudeDegrees>-2.7957336790859699249267578125</LongitudeDegrees>
            </Position>
            <AltitudeMeters>24.200000762939453125</AltitudeMeters>
            <DistanceMeters>NAN</DistanceMeters>
          </Trackpoint>
          <Trackpoint>
            <Time>2022-09-24T14:51:10.000Z</Time>
            <Position>
              <LatitudeDegrees>43.2532977126538753509521484375</LatitudeDegrees>
              <LongitudeDegrees>-2.79567760415375232696533203125</LongitudeDegrees>
            </Position>
            <AltitudeMeters>24.200000762939453125</AltitudeMeters>
            <DistanceMeters>NAN</DistanceMeters>
          </Trackpoint>
          <Trackpoint>
            <Time>2022-09-24T14:51:11.000Z</Time>
            <Position>
              <LatitudeDegrees>43.2533490099012851715087890625</LatitudeDegrees>
              <LongitudeDegrees>-2.7956248819828033447265625</LongitudeDegrees>
            </Position>
            <AltitudeMeters>24.200000762939453125</AltitudeMeters>
            <DistanceMeters>NAN</DistanceMeters>
          </Trackpoint>
          <Trackpoint>
            <Time>2022-09-24T14:51:12.000Z</Time>
            <Position>
              <LatitudeDegrees>43.25340223498642444610595703125</LatitudeDegrees>
              <LongitudeDegrees>-2.79557601548731327056884765625</LongitudeDegrees>
            </Position>
            <AltitudeMeters>24.200000762939453125</AltitudeMeters>
            <DistanceMeters>NAN</DistanceMeters>
          </Trackpoint>
          <Trackpoint>
            <Time>2022-09-24T14:51:13.000Z</Time>
            <Position>
              <LatitudeDegrees>43.253452442586421966552734375</LatitudeDegrees>
              <LongitudeDegrees>-2.79552689753472805023193359375</LongitudeDegrees>
            </Position>
            <AltitudeMeters>24.6000003814697265625</AltitudeMeters>
            <DistanceMeters>NAN</DistanceMeters>
          </Trackpoint>
          <Trackpoint>
            <Time>2022-09-24T14:51:14.000Z</Time>
            <Position>
              <LatitudeDegrees>43.2535032369196414947509765625</LatitudeDegrees>
              <LongitudeDegrees>-2.79547777958214282989501953125</LongitudeDegrees>
            </Position>
            <AltitudeMeters>24.799999237060546875</AltitudeMeters>
            <DistanceMeters>NAN</DistanceMeters>
          </Trackpoint>
          <Trackpoint>
            <Time>2022-09-24T14:51:15.000Z</Time>
            <Position>
              <LatitudeDegrees>43.253553025424480438232421875</LatitudeDegrees>
              <LongitudeDegrees>-2.79543511569499969482421875</LongitudeDegrees>
            </Position>
            <AltitudeMeters>24.799999237060546875</AltitudeMeters>
            <DistanceMeters>NAN</DistanceMeters>
          </Trackpoint>
          <Trackpoint>
            <Time>2022-09-24T14:51:16.000Z</Time>
            <Position>
              <LatitudeDegrees>43.25361111201345920562744140625</LatitudeDegrees>
              <LongitudeDegrees>-2.79540049843490123748779296875</LongitudeDegrees>
            </Position>
            <AltitudeMeters>25</AltitudeMeters>
            <DistanceMeters>NAN</DistanceMeters>
          </Trackpoint>
          <Trackpoint>
            <Time>2022-09-24T14:51:17.000Z</Time>
            <Position>
              <LatitudeDegrees>43.25365863740444183349609375</LatitudeDegrees>
              <LongitudeDegrees>-2.79535196721553802490234375</LongitudeDegrees>
            </Position>
            <AltitudeMeters>25</AltitudeMeters>
            <DistanceMeters>NAN</DistanceMeters>
          </Trackpoint>
          <Trackpoint>
            <Time>2022-09-24T14:51:18.000Z</Time>
            <Position>
              <LatitudeDegrees>43.25371085666120052337646484375</LatitudeDegrees>
              <LongitudeDegrees>-2.79530511237680912017822265625</LongitudeDegrees>
            </Position>
            <AltitudeMeters>25</AltitudeMeters>
            <DistanceMeters>NAN</DistanceMeters>
          </Trackpoint>
          <Trackpoint>
            <Time>2022-09-24T14:51:19.000Z</Time>
            <Position>
              <LatitudeDegrees>43.2537654228508472442626953125</LatitudeDegrees>
              <LongitudeDegrees>-2.795258425176143646240234375</LongitudeDegrees>
            </Position>
            <AltitudeMeters>25</AltitudeMeters>
            <DistanceMeters>NAN</DistanceMeters>
          </Trackpoint>
          <Trackpoint>
            <Time>2022-09-24T14:51:20.000Z</Time>
            <Position>
              <LatitudeDegrees>43.25382225215435028076171875</LatitudeDegrees>
              <LongitudeDegrees>-2.7952163480222225189208984375</LongitudeDegrees>
            </Position>
            <AltitudeMeters>25.200000762939453125</AltitudeMeters>
            <DistanceMeters>NAN</DistanceMeters>
          </Trackpoint>
          <Trackpoint>
            <Time>2022-09-24T14:51:21.000Z</Time>
            <Position>
              <LatitudeDegrees>43.2538805902004241943359375</LatitudeDegrees>
              <LongitudeDegrees>-2.795170582830905914306640625</LongitudeDegrees>
            </Position>
            <AltitudeMeters>25.200000762939453125</AltitudeMeters>
            <DistanceMeters>NAN</DistanceMeters>
          </Trackpoint>
          <Trackpoint>
            <Time>2022-09-24T14:51:22.000Z</Time>
            <Position>
              <LatitudeDegrees>43.25393867678940296173095703125</LatitudeDegrees>
              <LongitudeDegrees>-2.7951259911060333251953125</LongitudeDegrees>
            </Position>
            <AltitudeMeters>25.3999996185302734375</AltitudeMeters>
            <DistanceMeters>NAN</DistanceMeters>
          </Trackpoint>
          <Trackpoint>
            <Time>2022-09-24T14:51:23.000Z</Time>
            <Position>
              <LatitudeDegrees>43.2539984397590160369873046875</LatitudeDegrees>
              <LongitudeDegrees>-2.79508483596146106719970703125</LongitudeDegrees>
            </Position>
            <AltitudeMeters>25.6000003814697265625</AltitudeMeters>
            <DistanceMeters>NAN</DistanceMeters>
          </Trackpoint>
          <Trackpoint>
            <Time>2022-09-24T14:51:24.000Z</Time>
            <Position>
              <LatitudeDegrees>43.25405769981443881988525390625</LatitudeDegrees>
              <LongitudeDegrees>-2.79504812322556972503662109375</LongitudeDegrees>
            </Position>
            <AltitudeMeters>25.6000003814697265625</AltitudeMeters>
            <DistanceMeters>NAN</DistanceMeters>
          </Trackpoint>
          <Trackpoint>
            <Time>2022-09-24T14:51:25.000Z</Time>
            <Position>
              <LatitudeDegrees>43.25411670841276645660400390625</LatitudeDegrees>
              <LongitudeDegrees>-2.7950111590325832366943359375</LongitudeDegrees>
            </Position>
            <AltitudeMeters>25.6000003814697265625</AltitudeMeters>
            <DistanceMeters>NAN</DistanceMeters>
          </Trackpoint>
          <Trackpoint>
            <Time>2022-09-24T14:51:26.000Z</Time>
            <Position>
              <LatitudeDegrees>43.25417756102979183197021484375</LatitudeDegrees>
              <LongitudeDegrees>-2.79497486539185047149658203125</LongitudeDegrees>
            </Position>
            <AltitudeMeters>25.6000003814697265625</AltitudeMeters>
            <DistanceMeters>NAN</DistanceMeters>
          </Trackpoint>
          <Trackpoint>
            <Time>2022-09-24T14:51:27.000Z</Time>
            <Position>
              <LatitudeDegrees>43.254236318171024322509765625</LatitudeDegrees>
              <LongitudeDegrees>-2.7949353866279125213623046875</LongitudeDegrees>
            </Position>
            <AltitudeMeters>25.6000003814697265625</AltitudeMeters>
            <DistanceMeters>NAN</DistanceMeters>
          </Trackpoint>
          <Trackpoint>
            <Time>2022-09-24T14:51:28.000Z</Time>
            <Position>
              <LatitudeDegrees>43.254295326769351959228515625</LatitudeDegrees>
              <LongitudeDegrees>-2.7948921360075473785400390625</LongitudeDegrees>
            </Position>
            <AltitudeMeters>25.6000003814697265625</AltitudeMeters>
            <DistanceMeters>NAN</DistanceMeters>
          </Trackpoint>
          <Trackpoint>
            <Time>2022-09-24T14:51:29.000Z</Time>
            <Position>
              <LatitudeDegrees>43.2543561793863773345947265625</LatitudeDegrees>
              <LongitudeDegrees>-2.79485232196748256683349609375</LongitudeDegrees>
            </Position>
            <AltitudeMeters>25.799999237060546875</AltitudeMeters>
            <DistanceMeters>NAN</DistanceMeters>
          </Trackpoint>
          <Trackpoint>
            <Time>2022-09-24T14:51:30.000Z</Time>
            <Position>
              <LatitudeDegrees>43.25441510416567325592041015625</LatitudeDegrees>
              <LongitudeDegrees>-2.7948143519461154937744140625</LongitudeDegrees>
            </Position>
            <AltitudeMeters>25.799999237060546875</AltitudeMeters>
            <DistanceMeters>NAN</DistanceMeters>
          </Trackpoint>
          <Trackpoint>
            <Time>2022-09-24T14:51:31.000Z</Time>
            <Position>
              <LatitudeDegrees>43.254477716982364654541015625</LatitudeDegrees>
              <LongitudeDegrees>-2.794781662523746490478515625</LongitudeDegrees>
            </Position>
            <AltitudeMeters>27.6000003814697265625</AltitudeMeters>
            <DistanceMeters>NAN</DistanceMeters>
          </Trackpoint>
          <Trackpoint>
            <Time>2022-09-24T14:51:32.000Z</Time>
            <Position>
              <LatitudeDegrees>43.254538737237453460693359375</LatitudeDegrees>
              <LongitudeDegrees>-2.7947523258626461029052734375</LongitudeDegrees>
            </Position>
            <AltitudeMeters>27.6000003814697265625</AltitudeMeters>
            <DistanceMeters>NAN</DistanceMeters>
          </Trackpoint>
          <Trackpoint>
            <Time>2022-09-24T14:51:33.000Z</Time>
            <Position>
              <LatitudeDegrees>43.25459967367351055145263671875</LatitudeDegrees>
              <LongitudeDegrees>-2.79472977854311466217041015625</LongitudeDegrees>
            </Position>
            <AltitudeMeters>27.799999237060546875</AltitudeMeters>
            <DistanceMeters>NAN</DistanceMeters>
          </Trackpoint>
          <Trackpoint>
            <Time>2022-09-24T14:51:34.000Z</Time>
            <Position>
              <LatitudeDegrees>43.25466186739504337310791015625</LatitudeDegrees>
              <LongitudeDegrees>-2.79470781795680522918701171875</LongitudeDegrees>
            </Position>
            <AltitudeMeters>27.799999237060546875</AltitudeMeters>
            <DistanceMeters>NAN</DistanceMeters>
          </Trackpoint>
          <Trackpoint>
            <Time>2022-09-24T14:51:35.000Z</Time>
            <Position>
              <LatitudeDegrees>43.25472406111657619476318359375</LatitudeDegrees>
              <LongitudeDegrees>-2.7946794033050537109375</LongitudeDegrees>
            </Position>
            <AltitudeMeters>27.799999237060546875</AltitudeMeters>
            <DistanceMeters>NAN</DistanceMeters>
          </Trackpoint>
          <Trackpoint>
            <Time>2022-09-24T14:51:36.000Z</Time>
            <Position>
              <LatitudeDegrees>43.25478508137166500091552734375</LatitudeDegrees>
              <LongitudeDegrees>-2.79465652070939540863037109375</LongitudeDegrees>
            </Position>
            <AltitudeMeters>27.799999237060546875</AltitudeMeters>
            <DistanceMeters>NAN</DistanceMeters>
          </Trackpoint>
          <Trackpoint>
            <Time>2022-09-24T14:51:37.000Z</Time>
            <Position>
              <LatitudeDegrees>43.25484040193259716033935546875</LatitudeDegrees>
              <LongitudeDegrees>-2.79463254846632480621337890625</LongitudeDegrees>
            </Position>
            <AltitudeMeters>27.799999237060546875</AltitudeMeters>
            <DistanceMeters>NAN</DistanceMeters>
          </Trackpoint>
          <Trackpoint>
            <Time>2022-09-24T14:51:38.000Z</Time>
            <Position>
              <LatitudeDegrees>43.25489924289286136627197265625</LatitudeDegrees>
              <LongitudeDegrees>-2.79461176134645938873291015625</LongitudeDegrees>
            </Position>
            <AltitudeMeters>27.799999237060546875</AltitudeMeters>
            <DistanceMeters>NAN</DistanceMeters>
          </Trackpoint>
          <Trackpoint>
            <Time>2022-09-24T14:51:39.000Z</Time>
            <Position>
              <LatitudeDegrees>43.25489924289286136627197265625</LatitudeDegrees>
              <LongitudeDegrees>-2.79461176134645938873291015625</LongitudeDegrees>
            </Position>
            <AltitudeMeters>27.799999237060546875</AltitudeMeters>
            <DistanceMeters>NAN</DistanceMeters>
          </Trackpoint>
          <Trackpoint>
            <Time>2022-09-24T14:51:40.000Z</Time>
            <Position>
              <LatitudeDegrees>43.2550193555653095245361328125</LatitudeDegrees>
              <LongitudeDegrees>-2.7945753000676631927490234375</LongitudeDegrees>
            </Position>
            <AltitudeMeters>27.6000003814697265625</AltitudeMeters>
            <DistanceMeters>NAN</DistanceMeters>
          </Trackpoint>
          <Trackpoint>
            <Time>2022-09-24T14:51:41.000Z</Time>
            <Position>
              <LatitudeDegrees>43.255076520144939422607421875</LatitudeDegrees>
              <LongitudeDegrees>-2.7945578657090663909912109375</LongitudeDegrees>
            </Position>
            <AltitudeMeters>27.6000003814697265625</AltitudeMeters>
            <DistanceMeters>NAN</DistanceMeters>
          </Trackpoint>
          <Trackpoint>
            <Time>2022-09-24T14:51:42.000Z</Time>
            <Position>
              <LatitudeDegrees>43.25513393618166446685791015625</LatitudeDegrees>
              <LongitudeDegrees>-2.7945414371788501739501953125</LongitudeDegrees>
            </Position>
            <AltitudeMeters>27.6000003814697265625</AltitudeMeters>
            <DistanceMeters>NAN</DistanceMeters>
          </Trackpoint>
          <Trackpoint>
            <Time>2022-09-24T14:51:43.000Z</Time>
            <Position>
              <LatitudeDegrees>43.255194537341594696044921875</LatitudeDegrees>
              <LongitudeDegrees>-2.79453112743794918060302734375</LongitudeDegrees>
            </Position>
            <AltitudeMeters>27.799999237060546875</AltitudeMeters>
            <DistanceMeters>NAN</DistanceMeters>
          </Trackpoint>
          <Trackpoint>
            <Time>2022-09-24T14:51:44.000Z</Time>
            <Position>
              <LatitudeDegrees>43.25525362975895404815673828125</LatitudeDegrees>
              <LongitudeDegrees>-2.7945159561932086944580078125</LongitudeDegrees>
            </Position>
            <AltitudeMeters>27.6000003814697265625</AltitudeMeters>
            <DistanceMeters>NAN</DistanceMeters>
          </Trackpoint>
          <Trackpoint>
            <Time>2022-09-24T14:51:45.000Z</Time>
            <Position>
              <LatitudeDegrees>43.25531196780502796173095703125</LatitudeDegrees>
              <LongitudeDegrees>-2.79449927620589733123779296875</LongitudeDegrees>
            </Position>
            <AltitudeMeters>27.6000003814697265625</AltitudeMeters>
            <DistanceMeters>NAN</DistanceMeters>
          </Trackpoint>
          <Trackpoint>
            <Time>2022-09-24T14:51:46.000Z</Time>
            <Position>
              <LatitudeDegrees>43.25536712072789669036865234375</LatitudeDegrees>
              <LongitudeDegrees>-2.79448921792209148406982421875</LongitudeDegrees>
            </Position>
            <AltitudeMeters>27.799999237060546875</AltitudeMeters>
            <DistanceMeters>NAN</DistanceMeters>
          </Trackpoint>
          <Trackpoint>
            <Time>2022-09-24T14:51:47.000Z</Time>
            <Position>
              <LatitudeDegrees>43.25536712072789669036865234375</LatitudeDegrees>
              <LongitudeDegrees>-2.79448921792209148406982421875</LongitudeDegrees>
            </Position>
            <AltitudeMeters>28.200000762939453125</AltitudeMeters>
            <DistanceMeters>NAN</DistanceMeters>
          </Trackpoint>
          <Trackpoint>
            <Time>2022-09-24T14:51:48.000Z</Time>
            <Position>
              <LatitudeDegrees>43.255481533706188201904296875</LatitudeDegrees>
              <LongitudeDegrees>-2.79446423985064029693603515625</LongitudeDegrees>
            </Position>
            <AltitudeMeters>28.3999996185302734375</AltitudeMeters>
            <DistanceMeters>NAN</DistanceMeters>
          </Trackpoint>
          <Trackpoint>
            <Time>2022-09-24T14:51:49.000Z</Time>
            <Position>
              <LatitudeDegrees>43.25553911738097667694091796875</LatitudeDegrees>
              <LongitudeDegrees>-2.7944472245872020721435546875</LongitudeDegrees>
            </Position>
            <AltitudeMeters>28.6000003814697265625</AltitudeMeters>
            <DistanceMeters>NAN</DistanceMeters>
          </Trackpoint>
          <Trackpoint>
            <Time>2022-09-24T14:51:50.000Z</Time>
            <Position>
              <LatitudeDegrees>43.2555967010557651519775390625</LatitudeDegrees>
              <LongitudeDegrees>-2.79443222098052501678466796875</LongitudeDegrees>
            </Position>
            <AltitudeMeters>28.799999237060546875</AltitudeMeters>
            <DistanceMeters>NAN</DistanceMeters>
          </Trackpoint>
          <Trackpoint>
            <Time>2022-09-24T14:51:51.000Z</Time>
            <Position>
              <LatitudeDegrees>43.2556567154824733734130859375</LatitudeDegrees>
              <LongitudeDegrees>-2.79441981576383113861083984375</LongitudeDegrees>
            </Position>
            <AltitudeMeters>29.3999996185302734375</AltitudeMeters>
            <DistanceMeters>NAN</DistanceMeters>
          </Trackpoint>
          <Trackpoint>
            <Time>2022-09-24T14:51:52.000Z</Time>
            <Position>
              <LatitudeDegrees>43.2557160593569278717041015625</LatitudeDegrees>
              <LongitudeDegrees>-2.7944103442132472991943359375</LongitudeDegrees>
            </Position>
            <AltitudeMeters>29.3999996185302734375</AltitudeMeters>
            <DistanceMeters>NAN</DistanceMeters>
          </Trackpoint>
          <Trackpoint>
            <Time>2022-09-24T14:51:53.000Z</Time>
            <Position>
              <LatitudeDegrees>43.2557743974030017852783203125</LatitudeDegrees>
              <LongitudeDegrees>-2.79440087266266345977783203125</LongitudeDegrees>
            </Position>
            <AltitudeMeters>29.6000003814697265625</AltitudeMeters>
            <DistanceMeters>NAN</DistanceMeters>
          </Trackpoint>
          <Trackpoint>
            <Time>2022-09-24T14:51:54.000Z</Time>
            <Position>
              <LatitudeDegrees>43.25583114288747310638427734375</LatitudeDegrees>
              <LongitudeDegrees>-2.79438947327435016632080078125</LongitudeDegrees>
            </Position>
            <AltitudeMeters>29.6000003814697265625</AltitudeMeters>
            <DistanceMeters>NAN</DistanceMeters>
          </Trackpoint>
          <Trackpoint>
            <Time>2022-09-24T14:51:55.000Z</Time>
            <Position>
              <LatitudeDegrees>43.25588663108646869659423828125</LatitudeDegrees>
              <LongitudeDegrees>-2.79437572695314884185791015625</LongitudeDegrees>
            </Position>
            <AltitudeMeters>29.799999237060546875</AltitudeMeters>
            <DistanceMeters>NAN</DistanceMeters>
          </Trackpoint>
          <Trackpoint>
            <Time>2022-09-24T14:51:56.000Z</Time>
            <Position>
              <LatitudeDegrees>43.2559440471231937408447265625</LatitudeDegrees>
              <LongitudeDegrees>-2.79436533339321613311767578125</LongitudeDegrees>
            </Position>
            <AltitudeMeters>30</AltitudeMeters>
            <DistanceMeters>NAN</DistanceMeters>
          </Trackpoint>
          <Trackpoint>
            <Time>2022-09-24T14:51:57.000Z</Time>
            <Position>
              <LatitudeDegrees>43.25600213371217250823974609375</LatitudeDegrees>
              <LongitudeDegrees>-2.79435644857585430145263671875</LongitudeDegrees>
            </Position>
            <AltitudeMeters>30.200000762939453125</AltitudeMeters>
            <DistanceMeters>NAN</DistanceMeters>
          </Trackpoint>
          <Trackpoint>
            <Time>2022-09-24T14:51:58.000Z</Time>
            <Position>
              <LatitudeDegrees>43.25605963356792926788330078125</LatitudeDegrees>
              <LongitudeDegrees>-2.79434605501592159271240234375</LongitudeDegrees>
            </Position>
            <AltitudeMeters>30.200000762939453125</AltitudeMeters>
            <DistanceMeters>NAN</DistanceMeters>
          </Trackpoint>
          <Trackpoint>
            <Time>2022-09-24T14:51:59.000Z</Time>
            <Position>
              <LatitudeDegrees>43.2561177201569080352783203125</LatitudeDegrees>
              <LongitudeDegrees>-2.79432895593345165252685546875</LongitudeDegrees>
            </Position>
            <AltitudeMeters>30.200000762939453125</AltitudeMeters>
            <DistanceMeters>NAN</DistanceMeters>
          </Trackpoint>
          <Trackpoint>
            <Time>2022-09-24T14:52:00.000Z</Time>
            <Position>
              <LatitudeDegrees>43.256176225841045379638671875</LatitudeDegrees>
              <LongitudeDegrees>-2.79431168921291828155517578125</LongitudeDegrees>
            </Position>
            <AltitudeMeters>30.200000762939453125</AltitudeMeters>
            <DistanceMeters>NAN</DistanceMeters>
          </Trackpoint>
          <Trackpoint>
            <Time>2022-09-24T14:52:01.000Z</Time>
            <Position>
              <LatitudeDegrees>43.2562343962490558624267578125</LatitudeDegrees>
              <LongitudeDegrees>-2.7942943386733531951904296875</LongitudeDegrees>
            </Position>
            <AltitudeMeters>30.200000762939453125</AltitudeMeters>
            <DistanceMeters>NAN</DistanceMeters>
          </Trackpoint>
          <Trackpoint>
            <Time>2022-09-24T14:52:02.000Z</Time>
            <Position>
              <LatitudeDegrees>43.256292901933193206787109375</LatitudeDegrees>
              <LongitudeDegrees>-2.79427497647702693939208984375</LongitudeDegrees>
            </Position>
            <AltitudeMeters>29</AltitudeMeters>
            <DistanceMeters>NAN</DistanceMeters>
          </Trackpoint>
          <Trackpoint>
            <Time>2022-09-24T14:52:03.000Z</Time>
            <Position>
              <LatitudeDegrees>43.25635216198861598968505859375</LatitudeDegrees>
              <LongitudeDegrees>-2.79425972141325473785400390625</LongitudeDegrees>
            </Position>
            <AltitudeMeters>29</AltitudeMeters>
            <DistanceMeters>NAN</DistanceMeters>
          </Trackpoint>
          <Trackpoint>
            <Time>2022-09-24T14:52:04.000Z</Time>
            <Position>
              <LatitudeDegrees>43.25641284696757793426513671875</LatitudeDegrees>
              <LongitudeDegrees>-2.7942443825304508209228515625</LongitudeDegrees>
            </Position>
            <AltitudeMeters>29</AltitudeMeters>
            <DistanceMeters>NAN</DistanceMeters>
          </Trackpoint>
          <Trackpoint>
            <Time>2022-09-24T14:52:05.000Z</Time>
            <Position>
              <LatitudeDegrees>43.25647336430847644805908203125</LatitudeDegrees>
              <LongitudeDegrees>-2.79423356987535953521728515625</LongitudeDegrees>
            </Position>
            <AltitudeMeters>29</AltitudeMeters>
            <DistanceMeters>NAN</DistanceMeters>
          </Trackpoint>
          <Trackpoint>
            <Time>2022-09-24T14:52:06.000Z</Time>
            <Position>
              <LatitudeDegrees>43.256532289087772369384765625</LatitudeDegrees>
              <LongitudeDegrees>-2.79422317631542682647705078125</LongitudeDegrees>
            </Position>
            <AltitudeMeters>29</AltitudeMeters>
            <DistanceMeters>NAN</DistanceMeters>
          </Trackpoint>
          <Trackpoint>
            <Time>2022-09-24T14:52:07.000Z</Time>
            <Position>
              <LatitudeDegrees>43.25659339316189289093017578125</LatitudeDegrees>
              <LongitudeDegrees>-2.794210016727447509765625</LongitudeDegrees>
            </Position>
            <AltitudeMeters>29.200000762939453125</AltitudeMeters>
            <DistanceMeters>NAN</DistanceMeters>
          </Trackpoint>
          <Trackpoint>
            <Time>2022-09-24T14:52:08.000Z</Time>
            <Position>
              <LatitudeDegrees>43.25665491633117198944091796875</LatitudeDegrees>
              <LongitudeDegrees>-2.79419702477753162384033203125</LongitudeDegrees>
            </Position>
            <AltitudeMeters>29.3999996185302734375</AltitudeMeters>
            <DistanceMeters>NAN</DistanceMeters>
          </Trackpoint>
          <Trackpoint>
            <Time>2022-09-24T14:52:09.000Z</Time>
            <Position>
              <LatitudeDegrees>43.25671635568141937255859375</LatitudeDegrees>
              <LongitudeDegrees>-2.7941858768463134765625</LongitudeDegrees>
            </Position>
            <AltitudeMeters>29.3999996185302734375</AltitudeMeters>
            <DistanceMeters>NAN</DistanceMeters>
          </Trackpoint>
          <Trackpoint>
            <Time>2022-09-24T14:52:10.000Z</Time>
            <Position>
              <LatitudeDegrees>43.25677913613617420196533203125</LatitudeDegrees>
              <LongitudeDegrees>-2.79417514801025390625</LongitudeDegrees>
            </Position>
            <AltitudeMeters>29.6000003814697265625</AltitudeMeters>
            <DistanceMeters>NAN</DistanceMeters>
          </Trackpoint>
          <Trackpoint>
            <Time>2022-09-24T14:52:11.000Z</Time>
            <Position>
              <LatitudeDegrees>43.2568405754864215850830078125</LatitudeDegrees>
              <LongitudeDegrees>-2.79416508972644805908203125</LongitudeDegrees>
            </Position>
            <AltitudeMeters>29.799999237060546875</AltitudeMeters>
            <DistanceMeters>NAN</DistanceMeters>
          </Trackpoint>
          <Trackpoint>
            <Time>2022-09-24T14:52:12.000Z</Time>
            <Position>
              <LatitudeDegrees>43.25690184719860553741455078125</LatitudeDegrees>
              <LongitudeDegrees>-2.79415394179522991180419921875</LongitudeDegrees>
            </Position>
            <AltitudeMeters>29.799999237060546875</AltitudeMeters>
            <DistanceMeters>NAN</DistanceMeters>
          </Trackpoint>
          <Trackpoint>
            <Time>2022-09-24T14:52:13.000Z</Time>
            <Position>
              <LatitudeDegrees>43.25690184719860553741455078125</LatitudeDegrees>
              <LongitudeDegrees>-2.79415394179522991180419921875</LongitudeDegrees>
            </Position>
            <AltitudeMeters>29.799999237060546875</AltitudeMeters>
            <DistanceMeters>NAN</DistanceMeters>
          </Trackpoint>
          <Trackpoint>
            <Time>2022-09-24T14:52:14.000Z</Time>
            <Position>
              <LatitudeDegrees>43.25703025795519351959228515625</LatitudeDegrees>
              <LongitudeDegrees>-2.79412527568638324737548828125</LongitudeDegrees>
            </Position>
            <AltitudeMeters>30</AltitudeMeters>
            <DistanceMeters>NAN</DistanceMeters>
          </Trackpoint>
          <Trackpoint>
            <Time>2022-09-24T14:52:15.000Z</Time>
            <Position>
              <LatitudeDegrees>43.25709396041929721832275390625</LatitudeDegrees>
              <LongitudeDegrees>-2.7941109426319599151611328125</LongitudeDegrees>
            </Position>
            <AltitudeMeters>29.799999237060546875</AltitudeMeters>
            <DistanceMeters>NAN</DistanceMeters>
          </Trackpoint>
          <Trackpoint>
            <Time>2022-09-24T14:52:16.000Z</Time>
            <Position>
              <LatitudeDegrees>43.25715749524533748626708984375</LatitudeDegrees>
              <LongitudeDegrees>-2.7940987050533294677734375</LongitudeDegrees>
            </Position>
            <AltitudeMeters>29.799999237060546875</AltitudeMeters>
            <DistanceMeters>NAN</DistanceMeters>
          </Trackpoint>
          <Trackpoint>
            <Time>2022-09-24T14:52:17.000Z</Time>
            <Position>
              <LatitudeDegrees>43.25722035951912403106689453125</LatitudeDegrees>
              <LongitudeDegrees>-2.7940871380269527435302734375</LongitudeDegrees>
            </Position>
            <AltitudeMeters>29.799999237060546875</AltitudeMeters>
            <DistanceMeters>NAN</DistanceMeters>
          </Trackpoint>
          <Trackpoint>
            <Time>2022-09-24T14:52:18.000Z</Time>
            <Position>
              <LatitudeDegrees>43.2572828046977519989013671875</LatitudeDegrees>
              <LongitudeDegrees>-2.7940743975341320037841796875</LongitudeDegrees>
            </Position>
            <AltitudeMeters>30.200000762939453125</AltitudeMeters>
            <DistanceMeters>NAN</DistanceMeters>
          </Trackpoint>
          <Trackpoint>
            <Time>2022-09-24T14:52:19.000Z</Time>
            <Position>
              <LatitudeDegrees>43.257344327867031097412109375</LatitudeDegrees>
              <LongitudeDegrees>-2.794060818850994110107421875</LongitudeDegrees>
            </Position>
            <AltitudeMeters>30.200000762939453125</AltitudeMeters>
            <DistanceMeters>NAN</DistanceMeters>
          </Trackpoint>
          <Trackpoint>
            <Time>2022-09-24T14:52:20.000Z</Time>
            <Position>
              <LatitudeDegrees>43.25740694068372249603271484375</LatitudeDegrees>
              <LongitudeDegrees>-2.79404682107269763946533203125</LongitudeDegrees>
            </Position>
            <AltitudeMeters>30.3999996185302734375</AltitudeMeters>
            <DistanceMeters>NAN</DistanceMeters>
          </Trackpoint>
          <Trackpoint>
            <Time>2022-09-24T14:52:21.000Z</Time>
            <Position>
              <LatitudeDegrees>43.2574698887765407562255859375</LatitudeDegrees>
              <LongitudeDegrees>-2.7940348349511623382568359375</LongitudeDegrees>
            </Position>
            <AltitudeMeters>30.6000003814697265625</AltitudeMeters>
            <DistanceMeters>NAN</DistanceMeters>
          </Trackpoint>
          <Trackpoint>
            <Time>2022-09-24T14:52:22.000Z</Time>
            <Position>
              <LatitudeDegrees>43.25753216631710529327392578125</LatitudeDegrees>
              <LongitudeDegrees>-2.7940224297344684600830078125</LongitudeDegrees>
            </Position>
            <AltitudeMeters>30.6000003814697265625</AltitudeMeters>
            <DistanceMeters>NAN</DistanceMeters>
          </Trackpoint>
          <Trackpoint>
            <Time>2022-09-24T14:52:23.000Z</Time>
            <Position>
              <LatitudeDegrees>43.25759385712444782257080078125</LatitudeDegrees>
              <LongitudeDegrees>-2.79400725848972797393798828125</LongitudeDegrees>
            </Position>
            <AltitudeMeters>30.799999237060546875</AltitudeMeters>
            <DistanceMeters>NAN</DistanceMeters>
          </Trackpoint>
          <Trackpoint>
            <Time>2022-09-24T14:52:24.000Z</Time>
            <Position>
              <LatitudeDegrees>43.257655799388885498046875</LatitudeDegrees>
              <LongitudeDegrees>-2.7939887344837188720703125</LongitudeDegrees>
            </Position>
            <AltitudeMeters>30.799999237060546875</AltitudeMeters>
            <DistanceMeters>NAN</DistanceMeters>
          </Trackpoint>
          <Trackpoint>
            <Time>2022-09-24T14:52:25.000Z</Time>
            <Position>
              <LatitudeDegrees>43.257655799388885498046875</LatitudeDegrees>
              <LongitudeDegrees>-2.7939887344837188720703125</LongitudeDegrees>
            </Position>
            <AltitudeMeters>31</AltitudeMeters>
            <DistanceMeters>NAN</DistanceMeters>
          </Trackpoint>
          <Trackpoint>
            <Time>2022-09-24T14:52:26.000Z</Time>
            <Position>
              <LatitudeDegrees>43.25777859427034854888916015625</LatitudeDegrees>
              <LongitudeDegrees>-2.79394875280559062957763671875</LongitudeDegrees>
            </Position>
            <AltitudeMeters>31</AltitudeMeters>
            <DistanceMeters>NAN</DistanceMeters>
          </Trackpoint>
          <Trackpoint>
            <Time>2022-09-24T14:52:27.000Z</Time>
            <Position>
              <LatitudeDegrees>43.25784011743962764739990234375</LatitudeDegrees>
              <LongitudeDegrees>-2.79392980970442295074462890625</LongitudeDegrees>
            </Position>
            <AltitudeMeters>31</AltitudeMeters>
            <DistanceMeters>NAN</DistanceMeters>
          </Trackpoint>
          <Trackpoint>
            <Time>2022-09-24T14:52:28.000Z</Time>
            <Position>
              <LatitudeDegrees>43.25790214352309703826904296875</LatitudeDegrees>
              <LongitudeDegrees>-2.79390919022262096405029296875</LongitudeDegrees>
            </Position>
            <AltitudeMeters>31.200000762939453125</AltitudeMeters>
            <DistanceMeters>NAN</DistanceMeters>
          </Trackpoint>
          <Trackpoint>
            <Time>2022-09-24T14:52:29.000Z</Time>
            <Position>
              <LatitudeDegrees>43.25796425342559814453125</LatitudeDegrees>
              <LongitudeDegrees>-2.79388739727437496185302734375</LongitudeDegrees>
            </Position>
            <AltitudeMeters>31</AltitudeMeters>
            <DistanceMeters>NAN</DistanceMeters>
          </Trackpoint>
          <Trackpoint>
            <Time>2022-09-24T14:52:30.000Z</Time>
            <Position>
              <LatitudeDegrees>43.258026950061321258544921875</LatitudeDegrees>
              <LongitudeDegrees>-2.79386493377387523651123046875</LongitudeDegrees>
            </Position>
            <AltitudeMeters>31.200000762939453125</AltitudeMeters>
            <DistanceMeters>NAN</DistanceMeters>
          </Trackpoint>
          <Trackpoint>
            <Time>2022-09-24T14:52:31.000Z</Time>
            <Position>
              <LatitudeDegrees>43.2580888085067272186279296875</LatitudeDegrees>
              <LongitudeDegrees>-2.79384431429207324981689453125</LongitudeDegrees>
            </Position>
            <AltitudeMeters>31.200000762939453125</AltitudeMeters>
            <DistanceMeters>NAN</DistanceMeters>
          </Trackpoint>
          <Trackpoint>
            <Time>2022-09-24T14:52:32.000Z</Time>
            <Position>
              <LatitudeDegrees>43.25815108604729175567626953125</LatitudeDegrees>
              <LongitudeDegrees>-2.79382042586803436279296875</LongitudeDegrees>
            </Position>
            <AltitudeMeters>31.6000003814697265625</AltitudeMeters>
            <DistanceMeters>NAN</DistanceMeters>
          </Trackpoint>
          <Trackpoint>
            <Time>2022-09-24T14:52:33.000Z</Time>
            <Position>
              <LatitudeDegrees>43.2582131959497928619384765625</LatitudeDegrees>
              <LongitudeDegrees>-2.7937934361398220062255859375</LongitudeDegrees>
            </Position>
            <AltitudeMeters>31.6000003814697265625</AltitudeMeters>
            <DistanceMeters>NAN</DistanceMeters>
          </Trackpoint>
          <Trackpoint>
            <Time>2022-09-24T14:52:34.000Z</Time>
            <Position>
              <LatitudeDegrees>43.25827346183359622955322265625</LatitudeDegrees>
              <LongitudeDegrees>-2.79376435093581676483154296875</LongitudeDegrees>
            </Position>
            <AltitudeMeters>32</AltitudeMeters>
            <DistanceMeters>NAN</DistanceMeters>
          </Trackpoint>
          <Trackpoint>
            <Time>2022-09-24T14:52:35.000Z</Time>
            <Position>
              <LatitudeDegrees>43.25833263806998729705810546875</LatitudeDegrees>
              <LongitudeDegrees>-2.7937357686460018157958984375</LongitudeDegrees>
            </Position>
            <AltitudeMeters>32</AltitudeMeters>
            <DistanceMeters>NAN</DistanceMeters>
          </Trackpoint>
          <Trackpoint>
            <Time>2022-09-24T14:52:36.000Z</Time>
            <Position>
              <LatitudeDegrees>43.25839298777282238006591796875</LatitudeDegrees>
              <LongitudeDegrees>-2.79370249249041080474853515625</LongitudeDegrees>
            </Position>
            <AltitudeMeters>32</AltitudeMeters>
            <DistanceMeters>NAN</DistanceMeters>
          </Trackpoint>
          <Trackpoint>
            <Time>2022-09-24T14:52:37.000Z</Time>
            <Position>
              <LatitudeDegrees>43.25845300219953060150146484375</LatitudeDegrees>
              <LongitudeDegrees>-2.7936603315174579620361328125</LongitudeDegrees>
            </Position>
            <AltitudeMeters>32</AltitudeMeters>
            <DistanceMeters>NAN</DistanceMeters>
          </Trackpoint>
          <Trackpoint>
            <Time>2022-09-24T14:52:38.000Z</Time>
            <Position>
              <LatitudeDegrees>43.2585125975310802459716796875</LatitudeDegrees>
              <LongitudeDegrees>-2.79361682943999767303466796875</LongitudeDegrees>
            </Position>
            <AltitudeMeters>32.200000762939453125</AltitudeMeters>
            <DistanceMeters>NAN</DistanceMeters>
          </Trackpoint>
          <Trackpoint>
            <Time>2022-09-24T14:52:39.000Z</Time>
            <Position>
              <LatitudeDegrees>43.2585712708532810211181640625</LatitudeDegrees>
              <LongitudeDegrees>-2.7935758419334888458251953125</LongitudeDegrees>
            </Position>
            <AltitudeMeters>32.200000762939453125</AltitudeMeters>
            <DistanceMeters>NAN</DistanceMeters>
          </Trackpoint>
          <Trackpoint>
            <Time>2022-09-24T14:52:40.000Z</Time>
            <Position>
              <LatitudeDegrees>43.258629105985164642333984375</LatitudeDegrees>
              <LongitudeDegrees>-2.79353418387472629547119140625</LongitudeDegrees>
            </Position>
            <AltitudeMeters>32.200000762939453125</AltitudeMeters>
            <DistanceMeters>NAN</DistanceMeters>
          </Trackpoint>
          <Trackpoint>
            <Time>2022-09-24T14:52:41.000Z</Time>
            <Position>
              <LatitudeDegrees>43.25868803076446056365966796875</LatitudeDegrees>
              <LongitudeDegrees>-2.793492861092090606689453125</LongitudeDegrees>
            </Position>
            <AltitudeMeters>32.200000762939453125</AltitudeMeters>
            <DistanceMeters>NAN</DistanceMeters>
          </Trackpoint>
          <Trackpoint>
            <Time>2022-09-24T14:52:42.000Z</Time>
            <Position>
              <LatitudeDegrees>43.25874653644859790802001953125</LatitudeDegrees>
              <LongitudeDegrees>-2.79345371760427951812744140625</LongitudeDegrees>
            </Position>
            <AltitudeMeters>32.200000762939453125</AltitudeMeters>
            <DistanceMeters>NAN</DistanceMeters>
          </Trackpoint>
          <Trackpoint>
            <Time>2022-09-24T14:52:43.000Z</Time>
            <Position>
              <LatitudeDegrees>43.2588056288659572601318359375</LatitudeDegrees>
              <LongitudeDegrees>-2.7934102155268192291259765625</LongitudeDegrees>
            </Position>
            <AltitudeMeters>32.200000762939453125</AltitudeMeters>
            <DistanceMeters>NAN</DistanceMeters>
          </Trackpoint>
          <Trackpoint>
            <Time>2022-09-24T14:52:44.000Z</Time>
            <Position>
              <LatitudeDegrees>43.25886153616011142730712890625</LatitudeDegrees>
              <LongitudeDegrees>-2.79336336068809032440185546875</LongitudeDegrees>
            </Position>
            <AltitudeMeters>32.59999847412109375</AltitudeMeters>
            <DistanceMeters>NAN</DistanceMeters>
          </Trackpoint>
          <Trackpoint>
            <Time>2022-09-24T14:52:45.000Z</Time>
            <Position>
              <LatitudeDegrees>43.25892825610935688018798828125</LatitudeDegrees>
              <LongitudeDegrees>-2.79330552555620670318603515625</LongitudeDegrees>
            </Position>
            <AltitudeMeters>32.59999847412109375</AltitudeMeters>
            <DistanceMeters>NAN</DistanceMeters>
          </Trackpoint>
          <Trackpoint>
            <Time>2022-09-24T14:52:46.000Z</Time>
            <Position>
              <LatitudeDegrees>43.25898139737546443939208984375</LatitudeDegrees>
              <LongitudeDegrees>-2.79326009564101696014404296875</LongitudeDegrees>
            </Position>
            <AltitudeMeters>32.59999847412109375</AltitudeMeters>
            <DistanceMeters>NAN</DistanceMeters>
          </Trackpoint>
          <Trackpoint>
            <Time>2022-09-24T14:52:47.000Z</Time>
            <Position>
              <LatitudeDegrees>43.25903336517512798309326171875</LatitudeDegrees>
              <LongitudeDegrees>-2.79321315698325634002685546875</LongitudeDegrees>
            </Position>
            <AltitudeMeters>32.59999847412109375</AltitudeMeters>
            <DistanceMeters>NAN</DistanceMeters>
          </Trackpoint>
          <Trackpoint>
            <Time>2022-09-24T14:52:48.000Z</Time>
            <Position>
              <LatitudeDegrees>43.25903336517512798309326171875</LatitudeDegrees>
              <LongitudeDegrees>-2.79321315698325634002685546875</LongitudeDegrees>
            </Position>
            <AltitudeMeters>32.59999847412109375</AltitudeMeters>
            <DistanceMeters>NAN</DistanceMeters>
          </Trackpoint>
          <Trackpoint>
            <Time>2022-09-24T14:52:49.000Z</Time>
            <Position>
              <LatitudeDegrees>43.25913109816610813140869140625</LatitudeDegrees>
              <LongitudeDegrees>-2.79312305152416229248046875</LongitudeDegrees>
            </Position>
            <AltitudeMeters>32.59999847412109375</AltitudeMeters>
            <DistanceMeters>NAN</DistanceMeters>
          </Trackpoint>
          <Trackpoint>
            <Time>2022-09-24T14:52:50.000Z</Time>
            <Position>
              <LatitudeDegrees>43.25918608345091342926025390625</LatitudeDegrees>
              <LongitudeDegrees>-2.79306815005838871002197265625</LongitudeDegrees>
            </Position>
            <AltitudeMeters>32.799999237060546875</AltitudeMeters>
            <DistanceMeters>NAN</DistanceMeters>
          </Trackpoint>
          <Trackpoint>
            <Time>2022-09-24T14:52:51.000Z</Time>
            <Position>
              <LatitudeDegrees>43.25924308039247989654541015625</LatitudeDegrees>
              <LongitudeDegrees>-2.79301802627742290496826171875</LongitudeDegrees>
            </Position>
            <AltitudeMeters>32.40000152587890625</AltitudeMeters>
            <DistanceMeters>NAN</DistanceMeters>
          </Trackpoint>
          <Trackpoint>
            <Time>2022-09-24T14:52:52.000Z</Time>
            <Position>
              <LatitudeDegrees>43.25930074788630008697509765625</LatitudeDegrees>
              <LongitudeDegrees>-2.79297058470547199249267578125</LongitudeDegrees>
            </Position>
            <AltitudeMeters>32.799999237060546875</AltitudeMeters>
            <DistanceMeters>NAN</DistanceMeters>
          </Trackpoint>
          <Trackpoint>
            <Time>2022-09-24T14:52:53.000Z</Time>
            <Position>
              <LatitudeDegrees>43.259355984628200531005859375</LatitudeDegrees>
              <LongitudeDegrees>-2.7929156832396984100341796875</LongitudeDegrees>
            </Position>
            <AltitudeMeters>33.200000762939453125</AltitudeMeters>
            <DistanceMeters>NAN</DistanceMeters>
          </Trackpoint>
          <Trackpoint>
            <Time>2022-09-24T14:52:54.000Z</Time>
            <Position>
              <LatitudeDegrees>43.25941323302686214447021484375</LatitudeDegrees>
              <LongitudeDegrees>-2.79285893775522708892822265625</LongitudeDegrees>
            </Position>
            <AltitudeMeters>33.40000152587890625</AltitudeMeters>
            <DistanceMeters>NAN</DistanceMeters>
          </Trackpoint>
          <Trackpoint>
            <Time>2022-09-24T14:52:55.000Z</Time>
            <Position>
              <LatitudeDegrees>43.259469307959079742431640625</LatitudeDegrees>
              <LongitudeDegrees>-2.79280328191816806793212890625</LongitudeDegrees>
            </Position>
            <AltitudeMeters>33.40000152587890625</AltitudeMeters>
            <DistanceMeters>NAN</DistanceMeters>
          </Trackpoint>
          <Trackpoint>
            <Time>2022-09-24T14:52:56.000Z</Time>
            <Position>
              <LatitudeDegrees>43.25952596962451934814453125</LatitudeDegrees>
              <LongitudeDegrees>-2.792754583060741424560546875</LongitudeDegrees>
            </Position>
            <AltitudeMeters>33.200000762939453125</AltitudeMeters>
            <DistanceMeters>NAN</DistanceMeters>
          </Trackpoint>
          <Trackpoint>
            <Time>2022-09-24T14:52:57.000Z</Time>
            <Position>
              <LatitudeDegrees>43.25958221219480037689208984375</LatitudeDegrees>
              <LongitudeDegrees>-2.79270890168845653533935546875</LongitudeDegrees>
            </Position>
            <AltitudeMeters>33.200000762939453125</AltitudeMeters>
            <DistanceMeters>NAN</DistanceMeters>
          </Trackpoint>
          <Trackpoint>
            <Time>2022-09-24T14:52:58.000Z</Time>
            <Position>
              <LatitudeDegrees>43.259640634059906005859375</LatitudeDegrees>
              <LongitudeDegrees>-2.79266514815390110015869140625</LongitudeDegrees>
            </Position>
            <AltitudeMeters>33.40000152587890625</AltitudeMeters>
            <DistanceMeters>NAN</DistanceMeters>
          </Trackpoint>
          <Trackpoint>
            <Time>2022-09-24T14:52:59.000Z</Time>
            <Position>
              <LatitudeDegrees>43.2597011514008045196533203125</LatitudeDegrees>
              <LongitudeDegrees>-2.79262374155223369598388671875</LongitudeDegrees>
            </Position>
            <AltitudeMeters>34</AltitudeMeters>
            <DistanceMeters>NAN</DistanceMeters>
          </Trackpoint>
          <Trackpoint>
            <Time>2022-09-24T14:53:00.000Z</Time>
            <Position>
              <LatitudeDegrees>43.25977214612066745758056640625</LatitudeDegrees>
              <LongitudeDegrees>-2.7925752103328704833984375</LongitudeDegrees>
            </Position>
            <AltitudeMeters>34</AltitudeMeters>
            <DistanceMeters>NAN</DistanceMeters>
          </Trackpoint>
          <Trackpoint>
            <Time>2022-09-24T14:53:01.000Z</Time>
            <Position>
              <LatitudeDegrees>43.259817324578762054443359375</LatitudeDegrees>
              <LongitudeDegrees>-2.79254235327243804931640625</LongitudeDegrees>
            </Position>
            <AltitudeMeters>34</AltitudeMeters>
            <DistanceMeters>NAN</DistanceMeters>
          </Trackpoint>
          <Trackpoint>
            <Time>2022-09-24T14:53:02.000Z</Time>
            <Position>
              <LatitudeDegrees>43.259817324578762054443359375</LatitudeDegrees>
              <LongitudeDegrees>-2.79254235327243804931640625</LongitudeDegrees>
            </Position>
            <AltitudeMeters>34.200000762939453125</AltitudeMeters>
            <DistanceMeters>NAN</DistanceMeters>
          </Trackpoint>
          <Trackpoint>
            <Time>2022-09-24T14:53:03.000Z</Time>
            <Position>
              <LatitudeDegrees>43.259937353432178497314453125</LatitudeDegrees>
              <LongitudeDegrees>-2.792461551725864410400390625</LongitudeDegrees>
            </Position>
            <AltitudeMeters>34.200000762939453125</AltitudeMeters>
            <DistanceMeters>NAN</DistanceMeters>
          </Trackpoint>
          <Trackpoint>
            <Time>2022-09-24T14:53:04.000Z</Time>
            <Position>
              <LatitudeDegrees>43.2599987089633941650390625</LatitudeDegrees>
              <LongitudeDegrees>-2.79242576099932193756103515625</LongitudeDegrees>
            </Position>
            <AltitudeMeters>34.200000762939453125</AltitudeMeters>
            <DistanceMeters>NAN</DistanceMeters>
          </Trackpoint>
          <Trackpoint>
            <Time>2022-09-24T14:53:05.000Z</Time>
            <Position>
              <LatitudeDegrees>43.260062746703624725341796875</LatitudeDegrees>
              <LongitudeDegrees>-2.792393825948238372802734375</LongitudeDegrees>
            </Position>
            <AltitudeMeters>34.200000762939453125</AltitudeMeters>
            <DistanceMeters>NAN</DistanceMeters>
          </Trackpoint>
          <Trackpoint>
            <Time>2022-09-24T14:53:06.000Z</Time>
            <Position>
              <LatitudeDegrees>43.26012619771063327789306640625</LatitudeDegrees>
              <LongitudeDegrees>-2.79236205853521823883056640625</LongitudeDegrees>
            </Position>
            <AltitudeMeters>34.200000762939453125</AltitudeMeters>
            <DistanceMeters>NAN</DistanceMeters>
          </Trackpoint>
          <Trackpoint>
            <Time>2022-09-24T14:53:07.000Z</Time>
            <Position>
              <LatitudeDegrees>43.26019115746021270751953125</LatitudeDegrees>
              <LongitudeDegrees>-2.79233590699732303619384765625</LongitudeDegrees>
            </Position>
            <AltitudeMeters>34.200000762939453125</AltitudeMeters>
            <DistanceMeters>NAN</DistanceMeters>
          </Trackpoint>
          <Trackpoint>
            <Time>2022-09-24T14:53:08.000Z</Time>
            <Position>
              <LatitudeDegrees>43.260255865752696990966796875</LatitudeDegrees>
              <LongitudeDegrees>-2.79231478460133075714111328125</LongitudeDegrees>
            </Position>
            <AltitudeMeters>34.200000762939453125</AltitudeMeters>
            <DistanceMeters>NAN</DistanceMeters>
          </Trackpoint>
          <Trackpoint>
            <Time>2022-09-24T14:53:09.000Z</Time>
            <Position>
              <LatitudeDegrees>43.2603344880044460296630859375</LatitudeDegrees>
              <LongitudeDegrees>-2.79229290783405303955078125</LongitudeDegrees>
            </Position>
            <AltitudeMeters>34.200000762939453125</AltitudeMeters>
            <DistanceMeters>NAN</DistanceMeters>
          </Trackpoint>
          <Trackpoint>
            <Time>2022-09-24T14:53:10.000Z</Time>
            <Position>
              <LatitudeDegrees>43.2603881321847438812255859375</LatitudeDegrees>
              <LongitudeDegrees>-2.79227706603705883026123046875</LongitudeDegrees>
            </Position>
            <AltitudeMeters>34.200000762939453125</AltitudeMeters>
            <DistanceMeters>NAN</DistanceMeters>
          </Trackpoint>
          <Trackpoint>
            <Time>2022-09-24T14:53:11.000Z</Time>
            <Position>
              <LatitudeDegrees>43.2604551874101161956787109375</LatitudeDegrees>
              <LongitudeDegrees>-2.79225493781268596649169921875</LongitudeDegrees>
            </Position>
            <AltitudeMeters>34.200000762939453125</AltitudeMeters>
            <DistanceMeters>NAN</DistanceMeters>
          </Trackpoint>
          <Trackpoint>
            <Time>2022-09-24T14:53:12.000Z</Time>
            <Position>
              <LatitudeDegrees>43.2605229131877422332763671875</LatitudeDegrees>
              <LongitudeDegrees>-2.79223247431218624114990234375</LongitudeDegrees>
            </Position>
            <AltitudeMeters>34</AltitudeMeters>
            <DistanceMeters>NAN</DistanceMeters>
          </Trackpoint>
          <Trackpoint>
            <Time>2022-09-24T14:53:13.000Z</Time>
            <Position>
              <LatitudeDegrees>43.26059323735535144805908203125</LatitudeDegrees>
              <LongitudeDegrees>-2.792211435735225677490234375</LongitudeDegrees>
            </Position>
            <AltitudeMeters>34</AltitudeMeters>
            <DistanceMeters>NAN</DistanceMeters>
          </Trackpoint>
          <Trackpoint>
            <Time>2022-09-24T14:53:14.000Z</Time>
            <Position>
              <LatitudeDegrees>43.2606620527803897857666015625</LatitudeDegrees>
              <LongitudeDegrees>-2.79219475574791431427001953125</LongitudeDegrees>
            </Position>
            <AltitudeMeters>33.799999237060546875</AltitudeMeters>
            <DistanceMeters>NAN</DistanceMeters>
          </Trackpoint>
          <Trackpoint>
            <Time>2022-09-24T14:53:15.000Z</Time>
            <Position>
              <LatitudeDegrees>43.26072667725384235382080078125</LatitudeDegrees>
              <LongitudeDegrees>-2.79218302108347415924072265625</LongitudeDegrees>
            </Position>
            <AltitudeMeters>33.799999237060546875</AltitudeMeters>
            <DistanceMeters>NAN</DistanceMeters>
          </Trackpoint>
          <Trackpoint>
            <Time>2022-09-24T14:53:16.000Z</Time>
            <Position>
              <LatitudeDegrees>43.2607978396117687225341796875</LatitudeDegrees>
              <LongitudeDegrees>-2.79217229224741458892822265625</LongitudeDegrees>
            </Position>
            <AltitudeMeters>33.200000762939453125</AltitudeMeters>
            <DistanceMeters>NAN</DistanceMeters>
          </Trackpoint>
          <Trackpoint>
            <Time>2022-09-24T14:53:17.000Z</Time>
            <Position>
              <LatitudeDegrees>43.26086841523647308349609375</LatitudeDegrees>
              <LongitudeDegrees>-2.7921660058200359344482421875</LongitudeDegrees>
            </Position>
            <AltitudeMeters>33.59999847412109375</AltitudeMeters>
            <DistanceMeters>NAN</DistanceMeters>
          </Trackpoint>
          <Trackpoint>
            <Time>2022-09-24T14:53:18.000Z</Time>
            <Position>
              <LatitudeDegrees>43.26093840412795543670654296875</LatitudeDegrees>
              <LongitudeDegrees>-2.79216407798230648040771484375</LongitudeDegrees>
            </Position>
            <AltitudeMeters>33.59999847412109375</AltitudeMeters>
            <DistanceMeters>NAN</DistanceMeters>
          </Trackpoint>
          <Trackpoint>
            <Time>2022-09-24T14:53:19.000Z</Time>
            <Position>
              <LatitudeDegrees>43.26100965030491352081298828125</LatitudeDegrees>
              <LongitudeDegrees>-2.79216525144875049591064453125</LongitudeDegrees>
            </Position>
            <AltitudeMeters>33.59999847412109375</AltitudeMeters>
            <DistanceMeters>NAN</DistanceMeters>
          </Trackpoint>
          <Trackpoint>
            <Time>2022-09-24T14:53:20.000Z</Time>
            <Position>
              <LatitudeDegrees>43.2610828243196010589599609375</LatitudeDegrees>
              <LongitudeDegrees>-2.79216818511486053466796875</LongitudeDegrees>
            </Position>
            <AltitudeMeters>33.59999847412109375</AltitudeMeters>
            <DistanceMeters>NAN</DistanceMeters>
          </Trackpoint>
          <Trackpoint>
            <Time>2022-09-24T14:53:21.000Z</Time>
            <Position>
              <LatitudeDegrees>43.2611569203436374664306640625</LatitudeDegrees>
              <LongitudeDegrees>-2.79217212460935115814208984375</LongitudeDegrees>
            </Position>
            <AltitudeMeters>33.59999847412109375</AltitudeMeters>
            <DistanceMeters>NAN</DistanceMeters>
          </Trackpoint>
          <Trackpoint>
            <Time>2022-09-24T14:53:22.000Z</Time>
            <Position>
              <LatitudeDegrees>43.26122858561575412750244140625</LatitudeDegrees>
              <LongitudeDegrees>-2.792179919779300689697265625</LongitudeDegrees>
            </Position>
            <AltitudeMeters>33.59999847412109375</AltitudeMeters>
            <DistanceMeters>NAN</DistanceMeters>
          </Trackpoint>
          <Trackpoint>
            <Time>2022-09-24T14:53:23.000Z</Time>
            <Position>
              <LatitudeDegrees>43.26130268163979053497314453125</LatitudeDegrees>
              <LongitudeDegrees>-2.79218620620667934417724609375</LongitudeDegrees>
            </Position>
            <AltitudeMeters>34</AltitudeMeters>
            <DistanceMeters>NAN</DistanceMeters>
          </Trackpoint>
          <Trackpoint>
            <Time>2022-09-24T14:53:24.000Z</Time>
            <Position>
              <LatitudeDegrees>43.26137744821608066558837890625</LatitudeDegrees>
              <LongitudeDegrees>-2.7921921573579311370849609375</LongitudeDegrees>
            </Position>
            <AltitudeMeters>34.200000762939453125</AltitudeMeters>
            <DistanceMeters>NAN</DistanceMeters>
          </Trackpoint>
          <Trackpoint>
            <Time>2022-09-24T14:53:25.000Z</Time>
            <Position>
              <LatitudeDegrees>43.26145187951624393463134765625</LatitudeDegrees>
              <LongitudeDegrees>-2.792202718555927276611328125</LongitudeDegrees>
            </Position>
            <AltitudeMeters>34.200000762939453125</AltitudeMeters>
            <DistanceMeters>NAN</DistanceMeters>
          </Trackpoint>
          <Trackpoint>
            <Time>2022-09-24T14:53:26.000Z</Time>
            <Position>
              <LatitudeDegrees>43.26152689754962921142578125</LatitudeDegrees>
              <LongitudeDegrees>-2.7922176383435726165771484375</LongitudeDegrees>
            </Position>
            <AltitudeMeters>34.200000762939453125</AltitudeMeters>
            <DistanceMeters>NAN</DistanceMeters>
          </Trackpoint>
          <Trackpoint>
            <Time>2022-09-24T14:53:27.000Z</Time>
            <Position>
              <LatitudeDegrees>43.2616021670401096343994140625</LatitudeDegrees>
              <LongitudeDegrees>-2.79223532415926456451416015625</LongitudeDegrees>
            </Position>
            <AltitudeMeters>34.200000762939453125</AltitudeMeters>
            <DistanceMeters>NAN</DistanceMeters>
          </Trackpoint>
          <Trackpoint>
            <Time>2022-09-24T14:53:28.000Z</Time>
            <Position>
              <LatitudeDegrees>43.26167819090187549591064453125</LatitudeDegrees>
              <LongitudeDegrees>-2.7922587096691131591796875</LongitudeDegrees>
            </Position>
            <AltitudeMeters>34.200000762939453125</AltitudeMeters>
            <DistanceMeters>NAN</DistanceMeters>
          </Trackpoint>
          <Trackpoint>
            <Time>2022-09-24T14:53:29.000Z</Time>
            <Position>
              <LatitudeDegrees>43.26175312511622905731201171875</LatitudeDegrees>
              <LongitudeDegrees>-2.792287878692150115966796875</LongitudeDegrees>
            </Position>
            <AltitudeMeters>34</AltitudeMeters>
            <DistanceMeters>NAN</DistanceMeters>
          </Trackpoint>
          <Trackpoint>
            <Time>2022-09-24T14:53:30.000Z</Time>
            <Position>
              <LatitudeDegrees>43.26175312511622905731201171875</LatitudeDegrees>
              <LongitudeDegrees>-2.792287878692150115966796875</LongitudeDegrees>
            </Position>
            <AltitudeMeters>33.799999237060546875</AltitudeMeters>
            <DistanceMeters>NAN</DistanceMeters>
          </Trackpoint>
          <Trackpoint>
            <Time>2022-09-24T14:53:31.000Z</Time>
            <Position>
              <LatitudeDegrees>43.26190014369785785675048828125</LatitudeDegrees>
              <LongitudeDegrees>-2.79235619120299816131591796875</LongitudeDegrees>
            </Position>
            <AltitudeMeters>33.799999237060546875</AltitudeMeters>
            <DistanceMeters>NAN</DistanceMeters>
          </Trackpoint>
          <Trackpoint>
            <Time>2022-09-24T14:53:32.000Z</Time>
            <Position>
              <LatitudeDegrees>43.26197683811187744140625</LatitudeDegrees>
              <LongitudeDegrees>-2.7923929877579212188720703125</LongitudeDegrees>
            </Position>
            <AltitudeMeters>33.40000152587890625</AltitudeMeters>
            <DistanceMeters>NAN</DistanceMeters>
          </Trackpoint>
          <Trackpoint>
            <Time>2022-09-24T14:53:33.000Z</Time>
            <Position>
              <LatitudeDegrees>43.2620557956397533416748046875</LatitudeDegrees>
              <LongitudeDegrees>-2.79242835938930511474609375</LongitudeDegrees>
            </Position>
            <AltitudeMeters>33.200000762939453125</AltitudeMeters>
            <DistanceMeters>NAN</DistanceMeters>
          </Trackpoint>
          <Trackpoint>
            <Time>2022-09-24T14:53:34.000Z</Time>
            <Position>
              <LatitudeDegrees>43.262132741510868072509765625</LatitudeDegrees>
              <LongitudeDegrees>-2.79246616177260875701904296875</LongitudeDegrees>
            </Position>
            <AltitudeMeters>32.799999237060546875</AltitudeMeters>
            <DistanceMeters>NAN</DistanceMeters>
          </Trackpoint>
          <Trackpoint>
            <Time>2022-09-24T14:53:35.000Z</Time>
            <Position>
              <LatitudeDegrees>43.262132741510868072509765625</LatitudeDegrees>
              <LongitudeDegrees>-2.79246616177260875701904296875</LongitudeDegrees>
            </Position>
            <AltitudeMeters>32.40000152587890625</AltitudeMeters>
            <DistanceMeters>NAN</DistanceMeters>
          </Trackpoint>
          <Trackpoint>
            <Time>2022-09-24T14:53:36.000Z</Time>
            <Position>
              <LatitudeDegrees>43.2622811011970043182373046875</LatitudeDegrees>
              <LongitudeDegrees>-2.79255551286041736602783203125</LongitudeDegrees>
            </Position>
            <AltitudeMeters>31.799999237060546875</AltitudeMeters>
            <DistanceMeters>NAN</DistanceMeters>
          </Trackpoint>
          <Trackpoint>
            <Time>2022-09-24T14:53:37.000Z</Time>
            <Position>
              <LatitudeDegrees>43.26235829852521419525146484375</LatitudeDegrees>
              <LongitudeDegrees>-2.7926005236804485321044921875</LongitudeDegrees>
            </Position>
            <AltitudeMeters>31.799999237060546875</AltitudeMeters>
            <DistanceMeters>NAN</DistanceMeters>
          </Trackpoint>
          <Trackpoint>
            <Time>2022-09-24T14:53:38.000Z</Time>
            <Position>
              <LatitudeDegrees>43.2624370045959949493408203125</LatitudeDegrees>
              <LongitudeDegrees>-2.79265508987009525299072265625</LongitudeDegrees>
            </Position>
            <AltitudeMeters>31.799999237060546875</AltitudeMeters>
            <DistanceMeters>NAN</DistanceMeters>
          </Trackpoint>
          <Trackpoint>
            <Time>2022-09-24T14:53:39.000Z</Time>
            <Position>
              <LatitudeDegrees>43.26251663267612457275390625</LatitudeDegrees>
              <LongitudeDegrees>-2.79271074570715427398681640625</LongitudeDegrees>
            </Position>
            <AltitudeMeters>31.799999237060546875</AltitudeMeters>
            <DistanceMeters>NAN</DistanceMeters>
          </Trackpoint>
          <Trackpoint>
            <Time>2022-09-24T14:53:40.000Z</Time>
            <Position>
              <LatitudeDegrees>43.26259307563304901123046875</LatitudeDegrees>
              <LongitudeDegrees>-2.79276908375322818756103515625</LongitudeDegrees>
            </Position>
            <AltitudeMeters>31.799999237060546875</AltitudeMeters>
            <DistanceMeters>NAN</DistanceMeters>
          </Trackpoint>
          <Trackpoint>
            <Time>2022-09-24T14:53:41.000Z</Time>
            <Position>
              <LatitudeDegrees>43.26266574673354625701904296875</LatitudeDegrees>
              <LongitudeDegrees>-2.792830355465412139892578125</LongitudeDegrees>
            </Position>
            <AltitudeMeters>31.200000762939453125</AltitudeMeters>
            <DistanceMeters>NAN</DistanceMeters>
          </Trackpoint>
          <Trackpoint>
            <Time>2022-09-24T14:53:42.000Z</Time>
            <Position>
              <LatitudeDegrees>43.26274151913821697235107421875</LatitudeDegrees>
              <LongitudeDegrees>-2.79289246536791324615478515625</LongitudeDegrees>
            </Position>
            <AltitudeMeters>31.200000762939453125</AltitudeMeters>
            <DistanceMeters>NAN</DistanceMeters>
          </Trackpoint>
          <Trackpoint>
            <Time>2022-09-24T14:53:43.000Z</Time>
            <Position>
              <LatitudeDegrees>43.26281745918095111846923828125</LatitudeDegrees>
              <LongitudeDegrees>-2.792956419289112091064453125</LongitudeDegrees>
            </Position>
            <AltitudeMeters>31.200000762939453125</AltitudeMeters>
            <DistanceMeters>NAN</DistanceMeters>
          </Trackpoint>
          <Trackpoint>
            <Time>2022-09-24T14:53:44.000Z</Time>
            <Position>
              <LatitudeDegrees>43.26289457269012928009033203125</LatitudeDegrees>
              <LongitudeDegrees>-2.7930098958313465118408203125</LongitudeDegrees>
            </Position>
            <AltitudeMeters>31</AltitudeMeters>
            <DistanceMeters>NAN</DistanceMeters>
          </Trackpoint>
          <Trackpoint>
            <Time>2022-09-24T14:53:45.000Z</Time>
            <Position>
              <LatitudeDegrees>43.2629714347422122955322265625</LatitudeDegrees>
              <LongitudeDegrees>-2.79305993579328060150146484375</LongitudeDegrees>
            </Position>
            <AltitudeMeters>30.799999237060546875</AltitudeMeters>
            <DistanceMeters>NAN</DistanceMeters>
          </Trackpoint>
          <Trackpoint>
            <Time>2022-09-24T14:53:46.000Z</Time>
            <Position>
              <LatitudeDegrees>43.2630508951842784881591796875</LatitudeDegrees>
              <LongitudeDegrees>-2.7931088022887706756591796875</LongitudeDegrees>
            </Position>
            <AltitudeMeters>30.6000003814697265625</AltitudeMeters>
            <DistanceMeters>NAN</DistanceMeters>
          </Trackpoint>
          <Trackpoint>
            <Time>2022-09-24T14:53:47.000Z</Time>
            <Position>
              <LatitudeDegrees>43.26313043944537639617919921875</LatitudeDegrees>
              <LongitudeDegrees>-2.79316999018192291259765625</LongitudeDegrees>
            </Position>
            <AltitudeMeters>30.3999996185302734375</AltitudeMeters>
            <DistanceMeters>NAN</DistanceMeters>
          </Trackpoint>
          <Trackpoint>
            <Time>2022-09-24T14:53:48.000Z</Time>
            <Position>
              <LatitudeDegrees>43.26321207918226718902587890625</LatitudeDegrees>
              <LongitudeDegrees>-2.793225981295108795166015625</LongitudeDegrees>
            </Position>
            <AltitudeMeters>30.6000003814697265625</AltitudeMeters>
            <DistanceMeters>NAN</DistanceMeters>
          </Trackpoint>
          <Trackpoint>
            <Time>2022-09-24T14:53:49.000Z</Time>
            <Position>
              <LatitudeDegrees>43.26321207918226718902587890625</LatitudeDegrees>
              <LongitudeDegrees>-2.793225981295108795166015625</LongitudeDegrees>
            </Position>
            <AltitudeMeters>30.3999996185302734375</AltitudeMeters>
            <DistanceMeters>NAN</DistanceMeters>
          </Trackpoint>
          <Trackpoint>
            <Time>2022-09-24T14:53:50.000Z</Time>
            <Position>
              <LatitudeDegrees>43.26338055543601512908935546875</LatitudeDegrees>
              <LongitudeDegrees>-2.7933247201144695281982421875</LongitudeDegrees>
            </Position>
            <AltitudeMeters>30.200000762939453125</AltitudeMeters>
            <DistanceMeters>NAN</DistanceMeters>
          </Trackpoint>
          <Trackpoint>
            <Time>2022-09-24T14:53:51.000Z</Time>
            <Position>
              <LatitudeDegrees>43.26346906833350658416748046875</LatitudeDegrees>
              <LongitudeDegrees>-2.79336042702198028564453125</LongitudeDegrees>
            </Position>
            <AltitudeMeters>30.200000762939453125</AltitudeMeters>
            <DistanceMeters>NAN</DistanceMeters>
          </Trackpoint>
          <Trackpoint>
            <Time>2022-09-24T14:53:52.000Z</Time>
            <Position>
              <LatitudeDegrees>43.26355808414518833160400390625</LatitudeDegrees>
              <LongitudeDegrees>-2.793390937149524688720703125</LongitudeDegrees>
            </Position>
            <AltitudeMeters>30</AltitudeMeters>
            <DistanceMeters>NAN</DistanceMeters>
          </Trackpoint>
          <Trackpoint>
            <Time>2022-09-24T14:53:53.000Z</Time>
            <Position>
              <LatitudeDegrees>43.26364894397556781768798828125</LatitudeDegrees>
              <LongitudeDegrees>-2.79341734014451503753662109375</LongitudeDegrees>
            </Position>
            <AltitudeMeters>29.3999996185302734375</AltitudeMeters>
            <DistanceMeters>NAN</DistanceMeters>
          </Trackpoint>
          <Trackpoint>
            <Time>2022-09-24T14:53:54.000Z</Time>
            <Position>
              <LatitudeDegrees>43.26373971998691558837890625</LatitudeDegrees>
              <LongitudeDegrees>-2.79344047419726848602294921875</LongitudeDegrees>
            </Position>
            <AltitudeMeters>29.3999996185302734375</AltitudeMeters>
            <DistanceMeters>NAN</DistanceMeters>
          </Trackpoint>
          <Trackpoint>
            <Time>2022-09-24T14:53:55.000Z</Time>
            <Position>
              <LatitudeDegrees>43.2638314180076122283935546875</LatitudeDegrees>
              <LongitudeDegrees>-2.793459333479404449462890625</LongitudeDegrees>
            </Position>
            <AltitudeMeters>29.3999996185302734375</AltitudeMeters>
            <DistanceMeters>NAN</DistanceMeters>
          </Trackpoint>
          <Trackpoint>
            <Time>2022-09-24T14:53:56.000Z</Time>
            <Position>
              <LatitudeDegrees>43.26392370276153087615966796875</LatitudeDegrees>
              <LongitudeDegrees>-2.79347014613449573516845703125</LongitudeDegrees>
            </Position>
            <AltitudeMeters>29.3999996185302734375</AltitudeMeters>
            <DistanceMeters>NAN</DistanceMeters>
          </Trackpoint>
          <Trackpoint>
            <Time>2022-09-24T14:53:57.000Z</Time>
            <Position>
              <LatitudeDegrees>43.26401456259191036224365234375</LatitudeDegrees>
              <LongitudeDegrees>-2.7934732474386692047119140625</LongitudeDegrees>
            </Position>
            <AltitudeMeters>29.3999996185302734375</AltitudeMeters>
            <DistanceMeters>NAN</DistanceMeters>
          </Trackpoint>
          <Trackpoint>
            <Time>2022-09-24T14:53:58.000Z</Time>
            <Position>
              <LatitudeDegrees>43.26410491950809955596923828125</LatitudeDegrees>
              <LongitudeDegrees>-2.79346863739192485809326171875</LongitudeDegrees>
            </Position>
            <AltitudeMeters>29.6000003814697265625</AltitudeMeters>
            <DistanceMeters>NAN</DistanceMeters>
          </Trackpoint>
          <Trackpoint>
            <Time>2022-09-24T14:53:59.000Z</Time>
            <Position>
              <LatitudeDegrees>43.2641955278813838958740234375</LatitudeDegrees>
              <LongitudeDegrees>-2.7934561483561992645263671875</LongitudeDegrees>
            </Position>
            <AltitudeMeters>29.6000003814697265625</AltitudeMeters>
            <DistanceMeters>NAN</DistanceMeters>
          </Trackpoint>
          <Trackpoint>
            <Time>2022-09-24T14:54:00.000Z</Time>
            <Position>
              <LatitudeDegrees>43.26428546570241451263427734375</LatitudeDegrees>
              <LongitudeDegrees>-2.79343913309276103973388671875</LongitudeDegrees>
            </Position>
            <AltitudeMeters>29.6000003814697265625</AltitudeMeters>
            <DistanceMeters>NAN</DistanceMeters>
          </Trackpoint>
          <Trackpoint>
            <Time>2022-09-24T14:54:01.000Z</Time>
            <Position>
              <LatitudeDegrees>43.26437515206634998321533203125</LatitudeDegrees>
              <LongitudeDegrees>-2.7934179268777370452880859375</LongitudeDegrees>
            </Position>
            <AltitudeMeters>29.200000762939453125</AltitudeMeters>
            <DistanceMeters>NAN</DistanceMeters>
          </Trackpoint>
          <Trackpoint>
            <Time>2022-09-24T14:54:02.000Z</Time>
            <Position>
              <LatitudeDegrees>43.26446257531642913818359375</LatitudeDegrees>
              <LongitudeDegrees>-2.79339018277823925018310546875</LongitudeDegrees>
            </Position>
            <AltitudeMeters>28.6000003814697265625</AltitudeMeters>
            <DistanceMeters>NAN</DistanceMeters>
          </Trackpoint>
          <Trackpoint>
            <Time>2022-09-24T14:54:03.000Z</Time>
            <Position>
              <LatitudeDegrees>43.26454681344330310821533203125</LatitudeDegrees>
              <LongitudeDegrees>-2.79335615225136280059814453125</LongitudeDegrees>
            </Position>
            <AltitudeMeters>28.3999996185302734375</AltitudeMeters>
            <DistanceMeters>NAN</DistanceMeters>
          </Trackpoint>
          <Trackpoint>
            <Time>2022-09-24T14:54:04.000Z</Time>
            <Position>
              <LatitudeDegrees>43.26462962664663791656494140625</LatitudeDegrees>
              <LongitudeDegrees>-2.79331617057323455810546875</LongitudeDegrees>
            </Position>
            <AltitudeMeters>28.3999996185302734375</AltitudeMeters>
            <DistanceMeters>NAN</DistanceMeters>
          </Trackpoint>
          <Trackpoint>
            <Time>2022-09-24T14:54:05.000Z</Time>
            <Position>
              <LatitudeDegrees>43.2647108472883701324462890625</LatitudeDegrees>
              <LongitudeDegrees>-2.7932725846767425537109375</LongitudeDegrees>
            </Position>
            <AltitudeMeters>28.3999996185302734375</AltitudeMeters>
            <DistanceMeters>NAN</DistanceMeters>
          </Trackpoint>
          <Trackpoint>
            <Time>2022-09-24T14:54:06.000Z</Time>
            <Position>
              <LatitudeDegrees>43.26479005627334117889404296875</LatitudeDegrees>
              <LongitudeDegrees>-2.79322656802833080291748046875</LongitudeDegrees>
            </Position>
            <AltitudeMeters>27.3999996185302734375</AltitudeMeters>
            <DistanceMeters>NAN</DistanceMeters>
          </Trackpoint>
          <Trackpoint>
            <Time>2022-09-24T14:54:07.000Z</Time>
            <Position>
              <LatitudeDegrees>43.2648680917918682098388671875</LatitudeDegrees>
              <LongitudeDegrees>-2.7931773662567138671875</LongitudeDegrees>
            </Position>
            <AltitudeMeters>27.200000762939453125</AltitudeMeters>
            <DistanceMeters>NAN</DistanceMeters>
          </Trackpoint>
          <Trackpoint>
            <Time>2022-09-24T14:54:08.000Z</Time>
            <Position>
              <LatitudeDegrees>43.2648680917918682098388671875</LatitudeDegrees>
              <LongitudeDegrees>-2.7931773662567138671875</LongitudeDegrees>
            </Position>
            <AltitudeMeters>27.200000762939453125</AltitudeMeters>
            <DistanceMeters>NAN</DistanceMeters>
          </Trackpoint>
          <Trackpoint>
            <Time>2022-09-24T14:54:09.000Z</Time>
            <Position>
              <LatitudeDegrees>43.26501737348735332489013671875</LatitudeDegrees>
              <LongitudeDegrees>-2.793069742619991302490234375</LongitudeDegrees>
            </Position>
            <AltitudeMeters>27.200000762939453125</AltitudeMeters>
            <DistanceMeters>NAN</DistanceMeters>
          </Trackpoint>
          <Trackpoint>
            <Time>2022-09-24T14:54:10.000Z</Time>
            <Position>
              <LatitudeDegrees>43.26508727855980396270751953125</LatitudeDegrees>
              <LongitudeDegrees>-2.79300612397491931915283203125</LongitudeDegrees>
            </Position>
            <AltitudeMeters>27.3999996185302734375</AltitudeMeters>
            <DistanceMeters>NAN</DistanceMeters>
          </Trackpoint>
          <Trackpoint>
            <Time>2022-09-24T14:54:11.000Z</Time>
            <Position>
              <LatitudeDegrees>43.26515450142323970794677734375</LatitudeDegrees>
              <LongitudeDegrees>-2.79293554835021495819091796875</LongitudeDegrees>
            </Position>
            <AltitudeMeters>27.3999996185302734375</AltitudeMeters>
            <DistanceMeters>NAN</DistanceMeters>
          </Trackpoint>
          <Trackpoint>
            <Time>2022-09-24T14:54:12.000Z</Time>
            <Position>
              <LatitudeDegrees>43.26521853916347026824951171875</LatitudeDegrees>
              <LongitudeDegrees>-2.79286153614521026611328125</LongitudeDegrees>
            </Position>
            <AltitudeMeters>27.6000003814697265625</AltitudeMeters>
            <DistanceMeters>NAN</DistanceMeters>
          </Trackpoint>
          <Trackpoint>
            <Time>2022-09-24T14:54:13.000Z</Time>
            <Position>
              <LatitudeDegrees>43.2652798108756542205810546875</LatitudeDegrees>
              <LongitudeDegrees>-2.79278467409312725067138671875</LongitudeDegrees>
            </Position>
            <AltitudeMeters>29.6000003814697265625</AltitudeMeters>
            <DistanceMeters>NAN</DistanceMeters>
          </Trackpoint>
          <Trackpoint>
            <Time>2022-09-24T14:54:14.000Z</Time>
            <Position>
              <LatitudeDegrees>43.2653368078172206878662109375</LatitudeDegrees>
              <LongitudeDegrees>-2.7927066385746002197265625</LongitudeDegrees>
            </Position>
            <AltitudeMeters>29.6000003814697265625</AltitudeMeters>
            <DistanceMeters>NAN</DistanceMeters>
          </Trackpoint>
          <Trackpoint>
            <Time>2022-09-24T14:54:15.000Z</Time>
            <Position>
              <LatitudeDegrees>43.26539137400686740875244140625</LatitudeDegrees>
              <LongitudeDegrees>-2.79262642376124858856201171875</LongitudeDegrees>
            </Position>
            <AltitudeMeters>29.6000003814697265625</AltitudeMeters>
            <DistanceMeters>NAN</DistanceMeters>
          </Trackpoint>
          <Trackpoint>
            <Time>2022-09-24T14:54:16.000Z</Time>
            <Position>
              <LatitudeDegrees>43.26544451527297496795654296875</LatitudeDegrees>
              <LongitudeDegrees>-2.7925411798059940338134765625</LongitudeDegrees>
            </Position>
            <AltitudeMeters>29.6000003814697265625</AltitudeMeters>
            <DistanceMeters>NAN</DistanceMeters>
          </Trackpoint>
          <Trackpoint>
            <Time>2022-09-24T14:54:17.000Z</Time>
            <Position>
              <LatitudeDegrees>43.2654930464923381805419921875</LatitudeDegrees>
              <LongitudeDegrees>-2.79245208017528057098388671875</LongitudeDegrees>
            </Position>
            <AltitudeMeters>29.6000003814697265625</AltitudeMeters>
            <DistanceMeters>NAN</DistanceMeters>
          </Trackpoint>
          <Trackpoint>
            <Time>2022-09-24T14:54:18.000Z</Time>
            <Position>
              <LatitudeDegrees>43.26553805731236934661865234375</LatitudeDegrees>
              <LongitudeDegrees>-2.79236172325909137725830078125</LongitudeDegrees>
            </Position>
            <AltitudeMeters>29.3999996185302734375</AltitudeMeters>
            <DistanceMeters>NAN</DistanceMeters>
          </Trackpoint>
          <Trackpoint>
            <Time>2022-09-24T14:54:19.000Z</Time>
            <Position>
              <LatitudeDegrees>43.26553805731236934661865234375</LatitudeDegrees>
              <LongitudeDegrees>-2.79236172325909137725830078125</LongitudeDegrees>
            </Position>
            <AltitudeMeters>29.200000762939453125</AltitudeMeters>
            <DistanceMeters>NAN</DistanceMeters>
          </Trackpoint>
          <Trackpoint>
            <Time>2022-09-24T14:54:20.000Z</Time>
            <Position>
              <LatitudeDegrees>43.26561701484024524688720703125</LatitudeDegrees>
              <LongitudeDegrees>-2.7921720407903194427490234375</LongitudeDegrees>
            </Position>
            <AltitudeMeters>29.200000762939453125</AltitudeMeters>
            <DistanceMeters>NAN</DistanceMeters>
          </Trackpoint>
          <Trackpoint>
            <Time>2022-09-24T14:54:21.000Z</Time>
            <Position>
              <LatitudeDegrees>43.2656519673764705657958984375</LatitudeDegrees>
              <LongitudeDegrees>-2.7920717932283878326416015625</LongitudeDegrees>
            </Position>
            <AltitudeMeters>29.200000762939453125</AltitudeMeters>
            <DistanceMeters>NAN</DistanceMeters>
          </Trackpoint>
          <Trackpoint>
            <Time>2022-09-24T14:54:22.000Z</Time>
            <Position>
              <LatitudeDegrees>43.26568524353206157684326171875</LatitudeDegrees>
              <LongitudeDegrees>-2.79197816736996173858642578125</LongitudeDegrees>
            </Position>
            <AltitudeMeters>29.200000762939453125</AltitudeMeters>
            <DistanceMeters>NAN</DistanceMeters>
          </Trackpoint>
          <Trackpoint>
            <Time>2022-09-24T14:54:23.000Z</Time>
            <Position>
              <LatitudeDegrees>43.2657099701464176177978515625</LatitudeDegrees>
              <LongitudeDegrees>-2.7918994612991809844970703125</LongitudeDegrees>
            </Position>
            <AltitudeMeters>29.200000762939453125</AltitudeMeters>
            <DistanceMeters>NAN</DistanceMeters>
          </Trackpoint>
          <Trackpoint>
            <Time>2022-09-24T14:54:24.000Z</Time>
            <Position>
              <LatitudeDegrees>43.26573872007429599761962890625</LatitudeDegrees>
              <LongitudeDegrees>-2.79179644770920276641845703125</LongitudeDegrees>
            </Position>
            <AltitudeMeters>29.200000762939453125</AltitudeMeters>
            <DistanceMeters>NAN</DistanceMeters>
          </Trackpoint>
          <Trackpoint>
            <Time>2022-09-24T14:54:25.000Z</Time>
            <Position>
              <LatitudeDegrees>43.2657636143267154693603515625</LatitudeDegrees>
              <LongitudeDegrees>-2.79169184155762195587158203125</LongitudeDegrees>
            </Position>
            <AltitudeMeters>29.200000762939453125</AltitudeMeters>
            <DistanceMeters>NAN</DistanceMeters>
          </Trackpoint>
          <Trackpoint>
            <Time>2022-09-24T14:54:26.000Z</Time>
            <Position>
              <LatitudeDegrees>43.2657842338085174560546875</LatitudeDegrees>
              <LongitudeDegrees>-2.791588492691516876220703125</LongitudeDegrees>
            </Position>
            <AltitudeMeters>30</AltitudeMeters>
            <DistanceMeters>NAN</DistanceMeters>
          </Trackpoint>
          <Trackpoint>
            <Time>2022-09-24T14:54:27.000Z</Time>
            <Position>
              <LatitudeDegrees>43.2658048532903194427490234375</LatitudeDegrees>
              <LongitudeDegrees>-2.7914835512638092041015625</LongitudeDegrees>
            </Position>
            <AltitudeMeters>30.200000762939453125</AltitudeMeters>
            <DistanceMeters>NAN</DistanceMeters>
          </Trackpoint>
          <Trackpoint>
            <Time>2022-09-24T14:54:28.000Z</Time>
            <Position>
              <LatitudeDegrees>43.26582656241953372955322265625</LatitudeDegrees>
              <LongitudeDegrees>-2.7913610078394412994384765625</LongitudeDegrees>
            </Position>
            <AltitudeMeters>30.200000762939453125</AltitudeMeters>
            <DistanceMeters>NAN</DistanceMeters>
          </Trackpoint>
          <Trackpoint>
            <Time>2022-09-24T14:54:29.000Z</Time>
            <Position>
              <LatitudeDegrees>43.265838883817195892333984375</LatitudeDegrees>
              <LongitudeDegrees>-2.79125715605914592742919921875</LongitudeDegrees>
            </Position>
            <AltitudeMeters>30.200000762939453125</AltitudeMeters>
            <DistanceMeters>NAN</DistanceMeters>
          </Trackpoint>
          <Trackpoint>
            <Time>2022-09-24T14:54:30.000Z</Time>
            <Position>
              <LatitudeDegrees>43.26585061848163604736328125</LatitudeDegrees>
              <LongitudeDegrees>-2.79115070588886737823486328125</LongitudeDegrees>
            </Position>
            <AltitudeMeters>30.200000762939453125</AltitudeMeters>
            <DistanceMeters>NAN</DistanceMeters>
          </Trackpoint>
          <Trackpoint>
            <Time>2022-09-24T14:54:31.000Z</Time>
            <Position>
              <LatitudeDegrees>43.265862353146076202392578125</LatitudeDegrees>
              <LongitudeDegrees>-2.79104576446115970611572265625</LongitudeDegrees>
            </Position>
            <AltitudeMeters>30.200000762939453125</AltitudeMeters>
            <DistanceMeters>NAN</DistanceMeters>
          </Trackpoint>
          <Trackpoint>
            <Time>2022-09-24T14:54:32.000Z</Time>
            <Position>
              <LatitudeDegrees>43.26587299816310405731201171875</LatitudeDegrees>
              <LongitudeDegrees>-2.79094509780406951904296875</LongitudeDegrees>
            </Position>
            <AltitudeMeters>30</AltitudeMeters>
            <DistanceMeters>NAN</DistanceMeters>
          </Trackpoint>
          <Trackpoint>
            <Time>2022-09-24T14:54:33.000Z</Time>
            <Position>
              <LatitudeDegrees>43.26588414609432220458984375</LatitudeDegrees>
              <LongitudeDegrees>-2.79084560461342334747314453125</LongitudeDegrees>
            </Position>
            <AltitudeMeters>30</AltitudeMeters>
            <DistanceMeters>NAN</DistanceMeters>
          </Trackpoint>
          <Trackpoint>
            <Time>2022-09-24T14:54:34.000Z</Time>
            <Position>
              <LatitudeDegrees>43.2658943720161914825439453125</LatitudeDegrees>
              <LongitudeDegrees>-2.79074552468955516815185546875</LongitudeDegrees>
            </Position>
            <AltitudeMeters>30</AltitudeMeters>
            <DistanceMeters>NAN</DistanceMeters>
          </Trackpoint>
          <Trackpoint>
            <Time>2022-09-24T14:54:35.000Z</Time>
            <Position>
              <LatitudeDegrees>43.26590518467128276824951171875</LatitudeDegrees>
              <LongitudeDegrees>-2.79064527712762355804443359375</LongitudeDegrees>
            </Position>
            <AltitudeMeters>30.3999996185302734375</AltitudeMeters>
            <DistanceMeters>NAN</DistanceMeters>
          </Trackpoint>
          <Trackpoint>
            <Time>2022-09-24T14:54:36.000Z</Time>
            <Position>
              <LatitudeDegrees>43.26591406948864459991455078125</LatitudeDegrees>
              <LongitudeDegrees>-2.7905456162989139556884765625</LongitudeDegrees>
            </Position>
            <AltitudeMeters>30.3999996185302734375</AltitudeMeters>
            <DistanceMeters>NAN</DistanceMeters>
          </Trackpoint>
          <Trackpoint>
            <Time>2022-09-24T14:54:37.000Z</Time>
            <Position>
              <LatitudeDegrees>43.26592563651502132415771484375</LatitudeDegrees>
              <LongitudeDegrees>-2.790451236069202423095703125</LongitudeDegrees>
            </Position>
            <AltitudeMeters>30.6000003814697265625</AltitudeMeters>
            <DistanceMeters>NAN</DistanceMeters>
          </Trackpoint>
          <Trackpoint>
            <Time>2022-09-24T14:54:38.000Z</Time>
            <Position>
              <LatitudeDegrees>43.2659356109797954559326171875</LatitudeDegrees>
              <LongitudeDegrees>-2.79035844840109348297119140625</LongitudeDegrees>
            </Position>
            <AltitudeMeters>30.6000003814697265625</AltitudeMeters>
            <DistanceMeters>NAN</DistanceMeters>
          </Trackpoint>
          <Trackpoint>
            <Time>2022-09-24T14:54:39.000Z</Time>
            <Position>
              <LatitudeDegrees>43.265941143035888671875</LatitudeDegrees>
              <LongitudeDegrees>-2.79026591219007968902587890625</LongitudeDegrees>
            </Position>
            <AltitudeMeters>31.3999996185302734375</AltitudeMeters>
            <DistanceMeters>NAN</DistanceMeters>
          </Trackpoint>
          <Trackpoint>
            <Time>2022-09-24T14:54:40.000Z</Time>
            <Position>
              <LatitudeDegrees>43.26594759710133075714111328125</LatitudeDegrees>
              <LongitudeDegrees>-2.790175974369049072265625</LongitudeDegrees>
            </Position>
            <AltitudeMeters>31.3999996185302734375</AltitudeMeters>
            <DistanceMeters>NAN</DistanceMeters>
          </Trackpoint>
          <Trackpoint>
            <Time>2022-09-24T14:54:41.000Z</Time>
            <Position>
              <LatitudeDegrees>43.26595430262386798858642578125</LatitudeDegrees>
              <LongitudeDegrees>-2.7900856174528598785400390625</LongitudeDegrees>
            </Position>
            <AltitudeMeters>31.6000003814697265625</AltitudeMeters>
            <DistanceMeters>NAN</DistanceMeters>
          </Trackpoint>
          <Trackpoint>
            <Time>2022-09-24T14:54:42.000Z</Time>
            <Position>
              <LatitudeDegrees>43.26595983467996120452880859375</LatitudeDegrees>
              <LongitudeDegrees>-2.78999735601246356964111328125</LongitudeDegrees>
            </Position>
            <AltitudeMeters>33.40000152587890625</AltitudeMeters>
            <DistanceMeters>NAN</DistanceMeters>
          </Trackpoint>
          <Trackpoint>
            <Time>2022-09-24T14:54:43.000Z</Time>
            <Position>
              <LatitudeDegrees>43.26596838422119617462158203125</LatitudeDegrees>
              <LongitudeDegrees>-2.7899069152772426605224609375</LongitudeDegrees>
            </Position>
            <AltitudeMeters>33.59999847412109375</AltitudeMeters>
            <DistanceMeters>NAN</DistanceMeters>
          </Trackpoint>
          <Trackpoint>
            <Time>2022-09-24T14:54:44.000Z</Time>
            <Position>
              <LatitudeDegrees>43.26597374863922595977783203125</LatitudeDegrees>
              <LongitudeDegrees>-2.78981722891330718994140625</LongitudeDegrees>
            </Position>
            <AltitudeMeters>34</AltitudeMeters>
            <DistanceMeters>NAN</DistanceMeters>
          </Trackpoint>
          <Trackpoint>
            <Time>2022-09-24T14:54:45.000Z</Time>
            <Position>
              <LatitudeDegrees>43.26598472893238067626953125</LatitudeDegrees>
              <LongitudeDegrees>-2.789729051291942596435546875</LongitudeDegrees>
            </Position>
            <AltitudeMeters>34.59999847412109375</AltitudeMeters>
            <DistanceMeters>NAN</DistanceMeters>
          </Trackpoint>
          <Trackpoint>
            <Time>2022-09-24T14:54:46.000Z</Time>
            <Position>
              <LatitudeDegrees>43.26598472893238067626953125</LatitudeDegrees>
              <LongitudeDegrees>-2.789729051291942596435546875</LongitudeDegrees>
            </Position>
            <AltitudeMeters>34.799999237060546875</AltitudeMeters>
            <DistanceMeters>NAN</DistanceMeters>
          </Trackpoint>
          <Trackpoint>
            <Time>2022-09-24T14:54:47.000Z</Time>
            <Position>
              <LatitudeDegrees>43.26600861735641956329345703125</LatitudeDegrees>
              <LongitudeDegrees>-2.78956241905689239501953125</LongitudeDegrees>
            </Position>
            <AltitudeMeters>34.799999237060546875</AltitudeMeters>
            <DistanceMeters>NAN</DistanceMeters>
          </Trackpoint>
          <Trackpoint>
            <Time>2022-09-24T14:54:48.000Z</Time>
            <Position>
              <LatitudeDegrees>43.26602093875408172607421875</LatitudeDegrees>
              <LongitudeDegrees>-2.7894821204245090484619140625</LongitudeDegrees>
            </Position>
            <AltitudeMeters>35.200000762939453125</AltitudeMeters>
            <DistanceMeters>NAN</DistanceMeters>
          </Trackpoint>
          <Trackpoint>
            <Time>2022-09-24T14:54:49.000Z</Time>
            <Position>
              <LatitudeDegrees>43.26602093875408172607421875</LatitudeDegrees>
              <LongitudeDegrees>-2.7894821204245090484619140625</LongitudeDegrees>
            </Position>
            <AltitudeMeters>35.40000152587890625</AltitudeMeters>
            <DistanceMeters>NAN</DistanceMeters>
          </Trackpoint>
          <Trackpoint>
            <Time>2022-09-24T14:54:50.000Z</Time>
            <Position>
              <LatitudeDegrees>43.266050778329372406005859375</LatitudeDegrees>
              <LongitudeDegrees>-2.78933216817677021026611328125</LongitudeDegrees>
            </Position>
            <AltitudeMeters>35.40000152587890625</AltitudeMeters>
            <DistanceMeters>NAN</DistanceMeters>
          </Trackpoint>
          <Trackpoint>
            <Time>2022-09-24T14:54:51.000Z</Time>
            <Position>
              <LatitudeDegrees>43.26606511138379573822021484375</LatitudeDegrees>
              <LongitudeDegrees>-2.789261005818843841552734375</LongitudeDegrees>
            </Position>
            <AltitudeMeters>35.59999847412109375</AltitudeMeters>
            <DistanceMeters>NAN</DistanceMeters>
          </Trackpoint>
          <Trackpoint>
            <Time>2022-09-24T14:54:52.000Z</Time>
            <Position>
              <LatitudeDegrees>43.26606511138379573822021484375</LatitudeDegrees>
              <LongitudeDegrees>-2.789261005818843841552734375</LongitudeDegrees>
            </Position>
            <AltitudeMeters>36</AltitudeMeters>
            <DistanceMeters>NAN</DistanceMeters>
          </Trackpoint>
          <Trackpoint>
            <Time>2022-09-24T14:54:53.000Z</Time>
            <Position>
              <LatitudeDegrees>43.26609729789197444915771484375</LatitudeDegrees>
              <LongitudeDegrees>-2.78912815265357494354248046875</LongitudeDegrees>
            </Position>
            <AltitudeMeters>36.59999847412109375</AltitudeMeters>
            <DistanceMeters>NAN</DistanceMeters>
          </Trackpoint>
          <Trackpoint>
            <Time>2022-09-24T14:54:54.000Z</Time>
            <Position>
              <LatitudeDegrees>43.26611171476542949676513671875</LatitudeDegrees>
              <LongitudeDegrees>-2.78906327672302722930908203125</LongitudeDegrees>
            </Position>
            <AltitudeMeters>37</AltitudeMeters>
            <DistanceMeters>NAN</DistanceMeters>
          </Trackpoint>
          <Trackpoint>
            <Time>2022-09-24T14:54:55.000Z</Time>
            <Position>
              <LatitudeDegrees>43.26611171476542949676513671875</LatitudeDegrees>
              <LongitudeDegrees>-2.78906327672302722930908203125</LongitudeDegrees>
            </Position>
            <AltitudeMeters>37.200000762939453125</AltitudeMeters>
            <DistanceMeters>NAN</DistanceMeters>
          </Trackpoint>
          <Trackpoint>
            <Time>2022-09-24T14:54:56.000Z</Time>
            <Position>
              <LatitudeDegrees>43.26613451354205608367919921875</LatitudeDegrees>
              <LongitudeDegrees>-2.7889386378228664398193359375</LongitudeDegrees>
            </Position>
            <AltitudeMeters>37.40000152587890625</AltitudeMeters>
            <DistanceMeters>NAN</DistanceMeters>
          </Trackpoint>
          <Trackpoint>
            <Time>2022-09-24T14:54:57.000Z</Time>
            <Position>
              <LatitudeDegrees>43.2661471702158451080322265625</LatitudeDegrees>
              <LongitudeDegrees>-2.7888764441013336181640625</LongitudeDegrees>
            </Position>
            <AltitudeMeters>37.59999847412109375</AltitudeMeters>
            <DistanceMeters>NAN</DistanceMeters>
          </Trackpoint>
          <Trackpoint>
            <Time>2022-09-24T14:54:58.000Z</Time>
            <Position>
              <LatitudeDegrees>43.266160078346729278564453125</LatitudeDegrees>
              <LongitudeDegrees>-2.7888165973126888275146484375</LongitudeDegrees>
            </Position>
            <AltitudeMeters>37.799999237060546875</AltitudeMeters>
            <DistanceMeters>NAN</DistanceMeters>
          </Trackpoint>
          <Trackpoint>
            <Time>2022-09-24T14:54:59.000Z</Time>
            <Position>
              <LatitudeDegrees>43.2661739923059940338134765625</LatitudeDegrees>
              <LongitudeDegrees>-2.7887569181621074676513671875</LongitudeDegrees>
            </Position>
            <AltitudeMeters>38</AltitudeMeters>
            <DistanceMeters>NAN</DistanceMeters>
          </Trackpoint>
          <Trackpoint>
            <Time>2022-09-24T14:55:00.000Z</Time>
            <Position>
              <LatitudeDegrees>43.26618983410298824310302734375</LatitudeDegrees>
              <LongitudeDegrees>-2.78869799338281154632568359375</LongitudeDegrees>
            </Position>
            <AltitudeMeters>38.40000152587890625</AltitudeMeters>
            <DistanceMeters>NAN</DistanceMeters>
          </Trackpoint>
          <Trackpoint>
            <Time>2022-09-24T14:55:01.000Z</Time>
            <Position>
              <LatitudeDegrees>43.26618983410298824310302734375</LatitudeDegrees>
              <LongitudeDegrees>-2.78869799338281154632568359375</LongitudeDegrees>
            </Position>
            <AltitudeMeters>38.59999847412109375</AltitudeMeters>
            <DistanceMeters>NAN</DistanceMeters>
          </Trackpoint>
          <Trackpoint>
            <Time>2022-09-24T14:55:02.000Z</Time>
            <Position>
              <LatitudeDegrees>43.26622210443019866943359375</LatitudeDegrees>
              <LongitudeDegrees>-2.78858500532805919647216796875</LongitudeDegrees>
            </Position>
            <AltitudeMeters>39</AltitudeMeters>
            <DistanceMeters>NAN</DistanceMeters>
          </Trackpoint>
          <Trackpoint>
            <Time>2022-09-24T14:55:03.000Z</Time>
            <Position>
              <LatitudeDegrees>43.26623895205557346343994140625</LatitudeDegrees>
              <LongitudeDegrees>-2.78852641582489013671875</LongitudeDegrees>
            </Position>
            <AltitudeMeters>39</AltitudeMeters>
            <DistanceMeters>NAN</DistanceMeters>
          </Trackpoint>
          <Trackpoint>
            <Time>2022-09-24T14:55:04.000Z</Time>
            <Position>
              <LatitudeDegrees>43.2662563025951385498046875</LatitudeDegrees>
              <LongitudeDegrees>-2.78847000561654567718505859375</LongitudeDegrees>
            </Position>
            <AltitudeMeters>39.40000152587890625</AltitudeMeters>
            <DistanceMeters>NAN</DistanceMeters>
          </Trackpoint>
          <Trackpoint>
            <Time>2022-09-24T14:55:05.000Z</Time>
            <Position>
              <LatitudeDegrees>43.26627465896308422088623046875</LatitudeDegrees>
              <LongitudeDegrees>-2.7884162776172161102294921875</LongitudeDegrees>
            </Position>
            <AltitudeMeters>39.40000152587890625</AltitudeMeters>
            <DistanceMeters>NAN</DistanceMeters>
          </Trackpoint>
          <Trackpoint>
            <Time>2022-09-24T14:55:06.000Z</Time>
            <Position>
              <LatitudeDegrees>43.26628890819847583770751953125</LatitudeDegrees>
              <LongitudeDegrees>-2.7883589453995227813720703125</LongitudeDegrees>
            </Position>
            <AltitudeMeters>39.799999237060546875</AltitudeMeters>
            <DistanceMeters>NAN</DistanceMeters>
          </Trackpoint>
          <Trackpoint>
            <Time>2022-09-24T14:55:07.000Z</Time>
            <Position>
              <LatitudeDegrees>43.2663044147193431854248046875</LatitudeDegrees>
              <LongitudeDegrees>-2.78829867951571941375732421875</LongitudeDegrees>
            </Position>
            <AltitudeMeters>40.200000762939453125</AltitudeMeters>
            <DistanceMeters>NAN</DistanceMeters>
          </Trackpoint>
          <Trackpoint>
            <Time>2022-09-24T14:55:08.000Z</Time>
            <Position>
              <LatitudeDegrees>43.266319334506988525390625</LatitudeDegrees>
              <LongitudeDegrees>-2.78825375251471996307373046875</LongitudeDegrees>
            </Position>
            <AltitudeMeters>40.200000762939453125</AltitudeMeters>
            <DistanceMeters>NAN</DistanceMeters>
          </Trackpoint>
          <Trackpoint>
            <Time>2022-09-24T14:55:09.000Z</Time>
            <Position>
              <LatitudeDegrees>43.266319334506988525390625</LatitudeDegrees>
              <LongitudeDegrees>-2.78825375251471996307373046875</LongitudeDegrees>
            </Position>
            <AltitudeMeters>40.40000152587890625</AltitudeMeters>
            <DistanceMeters>NAN</DistanceMeters>
          </Trackpoint>
          <Trackpoint>
            <Time>2022-09-24T14:55:10.000Z</Time>
            <Position>
              <LatitudeDegrees>43.26635981909930706024169921875</LatitudeDegrees>
              <LongitudeDegrees>-2.788132466375827789306640625</LongitudeDegrees>
            </Position>
            <AltitudeMeters>40.40000152587890625</AltitudeMeters>
            <DistanceMeters>NAN</DistanceMeters>
          </Trackpoint>
          <Trackpoint>
            <Time>2022-09-24T14:55:11.000Z</Time>
            <Position>
              <LatitudeDegrees>43.26637272723019123077392578125</LatitudeDegrees>
              <LongitudeDegrees>-2.78808075003325939178466796875</LongitudeDegrees>
            </Position>
            <AltitudeMeters>40.40000152587890625</AltitudeMeters>
            <DistanceMeters>NAN</DistanceMeters>
          </Trackpoint>
          <Trackpoint>
            <Time>2022-09-24T14:55:12.000Z</Time>
            <Position>
              <LatitudeDegrees>43.26638706028461456298828125</LatitudeDegrees>
              <LongitudeDegrees>-2.78801755048334598541259765625</LongitudeDegrees>
            </Position>
            <AltitudeMeters>40.799999237060546875</AltitudeMeters>
            <DistanceMeters>NAN</DistanceMeters>
          </Trackpoint>
          <Trackpoint>
            <Time>2022-09-24T14:55:13.000Z</Time>
            <Position>
              <LatitudeDegrees>43.26639887876808643341064453125</LatitudeDegrees>
              <LongitudeDegrees>-2.78795435093343257904052734375</LongitudeDegrees>
            </Position>
            <AltitudeMeters>41.200000762939453125</AltitudeMeters>
            <DistanceMeters>NAN</DistanceMeters>
          </Trackpoint>
          <Trackpoint>
            <Time>2022-09-24T14:55:14.000Z</Time>
            <Position>
              <LatitudeDegrees>43.26639887876808643341064453125</LatitudeDegrees>
              <LongitudeDegrees>-2.78795435093343257904052734375</LongitudeDegrees>
            </Position>
            <AltitudeMeters>41.200000762939453125</AltitudeMeters>
            <DistanceMeters>NAN</DistanceMeters>
          </Trackpoint>
          <Trackpoint>
            <Time>2022-09-24T14:55:15.000Z</Time>
            <Position>
              <LatitudeDegrees>43.266425617039203643798828125</LatitudeDegrees>
              <LongitudeDegrees>-2.7878271974623203277587890625</LongitudeDegrees>
            </Position>
            <AltitudeMeters>41.59999847412109375</AltitudeMeters>
            <DistanceMeters>NAN</DistanceMeters>
          </Trackpoint>
          <Trackpoint>
            <Time>2022-09-24T14:55:16.000Z</Time>
            <Position>
              <LatitudeDegrees>43.26644263230264186859130859375</LatitudeDegrees>
              <LongitudeDegrees>-2.7877510897815227508544921875</LongitudeDegrees>
            </Position>
            <AltitudeMeters>41.799999237060546875</AltitudeMeters>
            <DistanceMeters>NAN</DistanceMeters>
          </Trackpoint>
          <Trackpoint>
            <Time>2022-09-24T14:55:17.000Z</Time>
            <Position>
              <LatitudeDegrees>43.26645839028060436248779296875</LatitudeDegrees>
              <LongitudeDegrees>-2.78768361546099185943603515625</LongitudeDegrees>
            </Position>
            <AltitudeMeters>41.799999237060546875</AltitudeMeters>
            <DistanceMeters>NAN</DistanceMeters>
          </Trackpoint>
          <Trackpoint>
            <Time>2022-09-24T14:55:18.000Z</Time>
            <Position>
              <LatitudeDegrees>43.2664717175066471099853515625</LatitudeDegrees>
              <LongitudeDegrees>-2.78761823661625385284423828125</LongitudeDegrees>
            </Position>
            <AltitudeMeters>42</AltitudeMeters>
            <DistanceMeters>NAN</DistanceMeters>
          </Trackpoint>
          <Trackpoint>
            <Time>2022-09-24T14:55:19.000Z</Time>
            <Position>
              <LatitudeDegrees>43.26648672111332416534423828125</LatitudeDegrees>
              <LongitudeDegrees>-2.78755235485732555389404296875</LongitudeDegrees>
            </Position>
            <AltitudeMeters>42</AltitudeMeters>
            <DistanceMeters>NAN</DistanceMeters>
          </Trackpoint>
          <Trackpoint>
            <Time>2022-09-24T14:55:20.000Z</Time>
            <Position>
              <LatitudeDegrees>43.2665025629103183746337890625</LatitudeDegrees>
              <LongitudeDegrees>-2.78748697601258754730224609375</LongitudeDegrees>
            </Position>
            <AltitudeMeters>42.200000762939453125</AltitudeMeters>
            <DistanceMeters>NAN</DistanceMeters>
          </Trackpoint>
          <Trackpoint>
            <Time>2022-09-24T14:55:21.000Z</Time>
            <Position>
              <LatitudeDegrees>43.26652050018310546875</LatitudeDegrees>
              <LongitudeDegrees>-2.78742142952978610992431640625</LongitudeDegrees>
            </Position>
            <AltitudeMeters>42.200000762939453125</AltitudeMeters>
            <DistanceMeters>NAN</DistanceMeters>
          </Trackpoint>
          <Trackpoint>
            <Time>2022-09-24T14:55:22.000Z</Time>
            <Position>
              <LatitudeDegrees>43.2665379345417022705078125</LatitudeDegrees>
              <LongitudeDegrees>-2.7873564697802066802978515625</LongitudeDegrees>
            </Position>
            <AltitudeMeters>42.40000152587890625</AltitudeMeters>
            <DistanceMeters>NAN</DistanceMeters>
          </Trackpoint>
          <Trackpoint>
            <Time>2022-09-24T14:55:23.000Z</Time>
            <Position>
              <LatitudeDegrees>43.2665558718144893646240234375</LatitudeDegrees>
              <LongitudeDegrees>-2.7872939407825469970703125</LongitudeDegrees>
            </Position>
            <AltitudeMeters>42.59999847412109375</AltitudeMeters>
            <DistanceMeters>NAN</DistanceMeters>
          </Trackpoint>
          <Trackpoint>
            <Time>2022-09-24T14:55:24.000Z</Time>
            <Position>
              <LatitudeDegrees>43.26657054014503955841064453125</LatitudeDegrees>
              <LongitudeDegrees>-2.787230908870697021484375</LongitudeDegrees>
            </Position>
            <AltitudeMeters>42.59999847412109375</AltitudeMeters>
            <DistanceMeters>NAN</DistanceMeters>
          </Trackpoint>
          <Trackpoint>
            <Time>2022-09-24T14:55:25.000Z</Time>
            <Position>
              <LatitudeDegrees>43.26658688485622406005859375</LatitudeDegrees>
              <LongitudeDegrees>-2.78716712258756160736083984375</LongitudeDegrees>
            </Position>
            <AltitudeMeters>42.799999237060546875</AltitudeMeters>
            <DistanceMeters>NAN</DistanceMeters>
          </Trackpoint>
          <Trackpoint>
            <Time>2022-09-24T14:55:26.000Z</Time>
            <Position>
              <LatitudeDegrees>43.26660088263452053070068359375</LatitudeDegrees>
              <LongitudeDegrees>-2.78710308484733104705810546875</LongitudeDegrees>
            </Position>
            <AltitudeMeters>43</AltitudeMeters>
            <DistanceMeters>NAN</DistanceMeters>
          </Trackpoint>
          <Trackpoint>
            <Time>2022-09-24T14:55:27.000Z</Time>
            <Position>
              <LatitudeDegrees>43.26661362312734127044677734375</LatitudeDegrees>
              <LongitudeDegrees>-2.7870399691164493560791015625</LongitudeDegrees>
            </Position>
            <AltitudeMeters>43.40000152587890625</AltitudeMeters>
            <DistanceMeters>NAN</DistanceMeters>
          </Trackpoint>
          <Trackpoint>
            <Time>2022-09-24T14:55:28.000Z</Time>
            <Position>
              <LatitudeDegrees>43.26662988401949405670166015625</LatitudeDegrees>
              <LongitudeDegrees>-2.78697668574750423431396484375</LongitudeDegrees>
            </Position>
            <AltitudeMeters>43.59999847412109375</AltitudeMeters>
            <DistanceMeters>NAN</DistanceMeters>
          </Trackpoint>
          <Trackpoint>
            <Time>2022-09-24T14:55:29.000Z</Time>
            <Position>
              <LatitudeDegrees>43.266648240387439727783203125</LatitudeDegrees>
              <LongitudeDegrees>-2.78691180981695652008056640625</LongitudeDegrees>
            </Position>
            <AltitudeMeters>43.799999237060546875</AltitudeMeters>
            <DistanceMeters>NAN</DistanceMeters>
          </Trackpoint>
          <Trackpoint>
            <Time>2022-09-24T14:55:30.000Z</Time>
            <Position>
              <LatitudeDegrees>43.26666492037475109100341796875</LatitudeDegrees>
              <LongitudeDegrees>-2.78684559278190135955810546875</LongitudeDegrees>
            </Position>
            <AltitudeMeters>43.799999237060546875</AltitudeMeters>
            <DistanceMeters>NAN</DistanceMeters>
          </Trackpoint>
          <Trackpoint>
            <Time>2022-09-24T14:55:31.000Z</Time>
            <Position>
              <LatitudeDegrees>43.26667900197207927703857421875</LatitudeDegrees>
              <LongitudeDegrees>-2.78677820228040218353271484375</LongitudeDegrees>
            </Position>
            <AltitudeMeters>44</AltitudeMeters>
            <DistanceMeters>NAN</DistanceMeters>
          </Trackpoint>
          <Trackpoint>
            <Time>2022-09-24T14:55:32.000Z</Time>
            <Position>
              <LatitudeDegrees>43.2666926644742488861083984375</LatitudeDegrees>
              <LongitudeDegrees>-2.78671164996922016143798828125</LongitudeDegrees>
            </Position>
            <AltitudeMeters>44.200000762939453125</AltitudeMeters>
            <DistanceMeters>NAN</DistanceMeters>
          </Trackpoint>
          <Trackpoint>
            <Time>2022-09-24T14:55:33.000Z</Time>
            <Position>
              <LatitudeDegrees>43.26670515350997447967529296875</LatitudeDegrees>
              <LongitudeDegrees>-2.78664744459092617034912109375</LongitudeDegrees>
            </Position>
            <AltitudeMeters>44.40000152587890625</AltitudeMeters>
            <DistanceMeters>NAN</DistanceMeters>
          </Trackpoint>
          <Trackpoint>
            <Time>2022-09-24T14:55:34.000Z</Time>
            <Position>
              <LatitudeDegrees>43.26671923510730266571044921875</LatitudeDegrees>
              <LongitudeDegrees>-2.786585502326488494873046875</LongitudeDegrees>
            </Position>
            <AltitudeMeters>44.40000152587890625</AltitudeMeters>
            <DistanceMeters>NAN</DistanceMeters>
          </Trackpoint>
          <Trackpoint>
            <Time>2022-09-24T14:55:35.000Z</Time>
            <Position>
              <LatitudeDegrees>43.266735076904296875</LatitudeDegrees>
              <LongitudeDegrees>-2.78652171604335308074951171875</LongitudeDegrees>
            </Position>
            <AltitudeMeters>44.59999847412109375</AltitudeMeters>
            <DistanceMeters>NAN</DistanceMeters>
          </Trackpoint>
          <Trackpoint>
            <Time>2022-09-24T14:55:36.000Z</Time>
            <Position>
              <LatitudeDegrees>43.266750834882259368896484375</LatitudeDegrees>
              <LongitudeDegrees>-2.78645642101764678955078125</LongitudeDegrees>
            </Position>
            <AltitudeMeters>44.799999237060546875</AltitudeMeters>
            <DistanceMeters>NAN</DistanceMeters>
          </Trackpoint>
          <Trackpoint>
            <Time>2022-09-24T14:55:37.000Z</Time>
            <Position>
              <LatitudeDegrees>43.26676533557474613189697265625</LatitudeDegrees>
              <LongitudeDegrees>-2.7863898687064647674560546875</LongitudeDegrees>
            </Position>
            <AltitudeMeters>44.799999237060546875</AltitudeMeters>
            <DistanceMeters>NAN</DistanceMeters>
          </Trackpoint>
          <Trackpoint>
            <Time>2022-09-24T14:55:38.000Z</Time>
            <Position>
              <LatitudeDegrees>43.26678042300045490264892578125</LatitudeDegrees>
              <LongitudeDegrees>-2.78632239438593387603759765625</LongitudeDegrees>
            </Position>
            <AltitudeMeters>45</AltitudeMeters>
            <DistanceMeters>NAN</DistanceMeters>
          </Trackpoint>
          <Trackpoint>
            <Time>2022-09-24T14:55:39.000Z</Time>
            <Position>
              <LatitudeDegrees>43.26679383404552936553955078125</LatitudeDegrees>
              <LongitudeDegrees>-2.786258272826671600341796875</LongitudeDegrees>
            </Position>
            <AltitudeMeters>45.200000762939453125</AltitudeMeters>
            <DistanceMeters>NAN</DistanceMeters>
          </Trackpoint>
          <Trackpoint>
            <Time>2022-09-24T14:55:40.000Z</Time>
            <Position>
              <LatitudeDegrees>43.26680825091898441314697265625</LatitudeDegrees>
              <LongitudeDegrees>-2.78619281016290187835693359375</LongitudeDegrees>
            </Position>
            <AltitudeMeters>45.200000762939453125</AltitudeMeters>
            <DistanceMeters>NAN</DistanceMeters>
          </Trackpoint>
          <Trackpoint>
            <Time>2022-09-24T14:55:41.000Z</Time>
            <Position>
              <LatitudeDegrees>43.266821242868900299072265625</LatitudeDegrees>
              <LongitudeDegrees>-2.78612793423235416412353515625</LongitudeDegrees>
            </Position>
            <AltitudeMeters>45.200000762939453125</AltitudeMeters>
            <DistanceMeters>NAN</DistanceMeters>
          </Trackpoint>
          <Trackpoint>
            <Time>2022-09-24T14:55:42.000Z</Time>
            <Position>
              <LatitudeDegrees>43.266821242868900299072265625</LatitudeDegrees>
              <LongitudeDegrees>-2.78612793423235416412353515625</LongitudeDegrees>
            </Position>
            <AltitudeMeters>45.40000152587890625</AltitudeMeters>
            <DistanceMeters>NAN</DistanceMeters>
          </Trackpoint>
          <Trackpoint>
            <Time>2022-09-24T14:55:43.000Z</Time>
            <Position>
              <LatitudeDegrees>43.26684881933033466339111328125</LatitudeDegrees>
              <LongitudeDegrees>-2.7859992720186710357666015625</LongitudeDegrees>
            </Position>
            <AltitudeMeters>45.40000152587890625</AltitudeMeters>
            <DistanceMeters>NAN</DistanceMeters>
          </Trackpoint>
          <Trackpoint>
            <Time>2022-09-24T14:55:44.000Z</Time>
            <Position>
              <LatitudeDegrees>43.26686558313667774200439453125</LatitudeDegrees>
              <LongitudeDegrees>-2.7859365753829479217529296875</LongitudeDegrees>
            </Position>
            <AltitudeMeters>45.40000152587890625</AltitudeMeters>
            <DistanceMeters>NAN</DistanceMeters>
          </Trackpoint>
          <Trackpoint>
            <Time>2022-09-24T14:55:45.000Z</Time>
            <Position>
              <LatitudeDegrees>43.2668814249336719512939453125</LatitudeDegrees>
              <LongitudeDegrees>-2.78587304055690765380859375</LongitudeDegrees>
            </Position>
            <AltitudeMeters>45.59999847412109375</AltitudeMeters>
            <DistanceMeters>NAN</DistanceMeters>
          </Trackpoint>
          <Trackpoint>
            <Time>2022-09-24T14:55:46.000Z</Time>
            <Position>
              <LatitudeDegrees>43.26689676381647586822509765625</LatitudeDegrees>
              <LongitudeDegrees>-2.78580841608345508575439453125</LongitudeDegrees>
            </Position>
            <AltitudeMeters>45.59999847412109375</AltitudeMeters>
            <DistanceMeters>NAN</DistanceMeters>
          </Trackpoint>
          <Trackpoint>
            <Time>2022-09-24T14:55:47.000Z</Time>
            <Position>
              <LatitudeDegrees>43.26691201888024806976318359375</LatitudeDegrees>
              <LongitudeDegrees>-2.78574203141033649444580078125</LongitudeDegrees>
            </Position>
            <AltitudeMeters>45.799999237060546875</AltitudeMeters>
            <DistanceMeters>NAN</DistanceMeters>
          </Trackpoint>
          <Trackpoint>
            <Time>2022-09-24T14:55:48.000Z</Time>
            <Position>
              <LatitudeDegrees>43.2669253461062908172607421875</LatitudeDegrees>
              <LongitudeDegrees>-2.7856740541756153106689453125</LongitudeDegrees>
            </Position>
            <AltitudeMeters>46.40000152587890625</AltitudeMeters>
            <DistanceMeters>NAN</DistanceMeters>
          </Trackpoint>
          <Trackpoint>
            <Time>2022-09-24T14:55:49.000Z</Time>
            <Position>
              <LatitudeDegrees>43.2669404335319995880126953125</LatitudeDegrees>
              <LongitudeDegrees>-2.7856029756367206573486328125</LongitudeDegrees>
            </Position>
            <AltitudeMeters>46.40000152587890625</AltitudeMeters>
            <DistanceMeters>NAN</DistanceMeters>
          </Trackpoint>
          <Trackpoint>
            <Time>2022-09-24T14:55:50.000Z</Time>
            <Position>
              <LatitudeDegrees>43.26695728115737438201904296875</LatitudeDegrees>
              <LongitudeDegrees>-2.785530388355255126953125</LongitudeDegrees>
            </Position>
            <AltitudeMeters>46.40000152587890625</AltitudeMeters>
            <DistanceMeters>NAN</DistanceMeters>
          </Trackpoint>
          <Trackpoint>
            <Time>2022-09-24T14:55:51.000Z</Time>
            <Position>
              <LatitudeDegrees>43.2669746316969394683837890625</LatitudeDegrees>
              <LongitudeDegrees>-2.78545704670250415802001953125</LongitudeDegrees>
            </Position>
            <AltitudeMeters>46.40000152587890625</AltitudeMeters>
            <DistanceMeters>NAN</DistanceMeters>
          </Trackpoint>
          <Trackpoint>
            <Time>2022-09-24T14:55:52.000Z</Time>
            <Position>
              <LatitudeDegrees>43.2669927366077899932861328125</LatitudeDegrees>
              <LongitudeDegrees>-2.7853803522884845733642578125</LongitudeDegrees>
            </Position>
            <AltitudeMeters>46.59999847412109375</AltitudeMeters>
            <DistanceMeters>NAN</DistanceMeters>
          </Trackpoint>
          <Trackpoint>
            <Time>2022-09-24T14:55:53.000Z</Time>
            <Position>
              <LatitudeDegrees>43.2670111767947673797607421875</LatitudeDegrees>
              <LongitudeDegrees>-2.7853052504360675811767578125</LongitudeDegrees>
            </Position>
            <AltitudeMeters>46.40000152587890625</AltitudeMeters>
            <DistanceMeters>NAN</DistanceMeters>
          </Trackpoint>
          <Trackpoint>
            <Time>2022-09-24T14:55:54.000Z</Time>
            <Position>
              <LatitudeDegrees>43.26702936552464962005615234375</LatitudeDegrees>
              <LongitudeDegrees>-2.7852291427552700042724609375</LongitudeDegrees>
            </Position>
            <AltitudeMeters>46.40000152587890625</AltitudeMeters>
            <DistanceMeters>NAN</DistanceMeters>
          </Trackpoint>
          <Trackpoint>
            <Time>2022-09-24T14:55:55.000Z</Time>
            <Position>
              <LatitudeDegrees>43.26705317012965679168701171875</LatitudeDegrees>
              <LongitudeDegrees>-2.7851533703505992889404296875</LongitudeDegrees>
            </Position>
            <AltitudeMeters>46.40000152587890625</AltitudeMeters>
            <DistanceMeters>NAN</DistanceMeters>
          </Trackpoint>
          <Trackpoint>
            <Time>2022-09-24T14:55:56.000Z</Time>
            <Position>
              <LatitudeDegrees>43.26707772910594940185546875</LatitudeDegrees>
              <LongitudeDegrees>-2.7850806154310703277587890625</LongitudeDegrees>
            </Position>
            <AltitudeMeters>46.40000152587890625</AltitudeMeters>
            <DistanceMeters>NAN</DistanceMeters>
          </Trackpoint>
          <Trackpoint>
            <Time>2022-09-24T14:55:57.000Z</Time>
            <Position>
              <LatitudeDegrees>43.2670996896922588348388671875</LatitudeDegrees>
              <LongitudeDegrees>-2.78500408865511417388916015625</LongitudeDegrees>
            </Position>
            <AltitudeMeters>46.40000152587890625</AltitudeMeters>
            <DistanceMeters>NAN</DistanceMeters>
          </Trackpoint>
          <Trackpoint>
            <Time>2022-09-24T14:55:58.000Z</Time>
            <Position>
              <LatitudeDegrees>43.2671231590211391448974609375</LatitudeDegrees>
              <LongitudeDegrees>-2.78492932207882404327392578125</LongitudeDegrees>
            </Position>
            <AltitudeMeters>46.40000152587890625</AltitudeMeters>
            <DistanceMeters>NAN</DistanceMeters>
          </Trackpoint>
          <Trackpoint>
            <Time>2022-09-24T14:55:59.000Z</Time>
            <Position>
              <LatitudeDegrees>43.26714637689292430877685546875</LatitudeDegrees>
              <LongitudeDegrees>-2.78485380113124847412109375</LongitudeDegrees>
            </Position>
            <AltitudeMeters>46.200000762939453125</AltitudeMeters>
            <DistanceMeters>NAN</DistanceMeters>
          </Trackpoint>
          <Trackpoint>
            <Time>2022-09-24T14:56:00.000Z</Time>
            <Position>
              <LatitudeDegrees>43.26717454008758068084716796875</LatitudeDegrees>
              <LongitudeDegrees>-2.78478012420237064361572265625</LongitudeDegrees>
            </Position>
            <AltitudeMeters>45.799999237060546875</AltitudeMeters>
            <DistanceMeters>NAN</DistanceMeters>
          </Trackpoint>
          <Trackpoint>
            <Time>2022-09-24T14:56:01.000Z</Time>
            <Position>
              <LatitudeDegrees>43.26720454730093479156494140625</LatitudeDegrees>
              <LongitudeDegrees>-2.78470653109252452850341796875</LongitudeDegrees>
            </Position>
            <AltitudeMeters>45.59999847412109375</AltitudeMeters>
            <DistanceMeters>NAN</DistanceMeters>
          </Trackpoint>
          <Trackpoint>
            <Time>2022-09-24T14:56:02.000Z</Time>
            <Position>
              <LatitudeDegrees>43.267235644161701202392578125</LatitudeDegrees>
              <LongitudeDegrees>-2.78463545255362987518310546875</LongitudeDegrees>
            </Position>
            <AltitudeMeters>45.59999847412109375</AltitudeMeters>
            <DistanceMeters>NAN</DistanceMeters>
          </Trackpoint>
          <Trackpoint>
            <Time>2022-09-24T14:56:03.000Z</Time>
            <Position>
              <LatitudeDegrees>43.2672690041363239288330078125</LatitudeDegrees>
              <LongitudeDegrees>-2.78456688858568668365478515625</LongitudeDegrees>
            </Position>
            <AltitudeMeters>45.59999847412109375</AltitudeMeters>
            <DistanceMeters>NAN</DistanceMeters>
          </Trackpoint>
          <Trackpoint>
            <Time>2022-09-24T14:56:04.000Z</Time>
            <Position>
              <LatitudeDegrees>43.267300687730312347412109375</LatitudeDegrees>
              <LongitudeDegrees>-2.78450134210288524627685546875</LongitudeDegrees>
            </Position>
            <AltitudeMeters>46.200000762939453125</AltitudeMeters>
            <DistanceMeters>NAN</DistanceMeters>
          </Trackpoint>
          <Trackpoint>
            <Time>2022-09-24T14:56:05.000Z</Time>
            <Position>
              <LatitudeDegrees>43.26733128167688846588134765625</LatitudeDegrees>
              <LongitudeDegrees>-2.78443546034395694732666015625</LongitudeDegrees>
            </Position>
            <AltitudeMeters>46.200000762939453125</AltitudeMeters>
            <DistanceMeters>NAN</DistanceMeters>
          </Trackpoint>
          <Trackpoint>
            <Time>2022-09-24T14:56:06.000Z</Time>
            <Position>
              <LatitudeDegrees>43.2673560082912445068359375</LatitudeDegrees>
              <LongitudeDegrees>-2.78438307344913482666015625</LongitudeDegrees>
            </Position>
            <AltitudeMeters>47</AltitudeMeters>
            <DistanceMeters>NAN</DistanceMeters>
          </Trackpoint>
          <Trackpoint>
            <Time>2022-09-24T14:56:07.000Z</Time>
            <Position>
              <LatitudeDegrees>43.2673850096762180328369140625</LatitudeDegrees>
              <LongitudeDegrees>-2.78432029299437999725341796875</LongitudeDegrees>
            </Position>
            <AltitudeMeters>47.59999847412109375</AltitudeMeters>
            <DistanceMeters>NAN</DistanceMeters>
          </Trackpoint>
          <Trackpoint>
            <Time>2022-09-24T14:56:08.000Z</Time>
            <Position>
              <LatitudeDegrees>43.26741275377571582794189453125</LatitudeDegrees>
              <LongitudeDegrees>-2.78425927273929119110107421875</LongitudeDegrees>
            </Position>
            <AltitudeMeters>47.59999847412109375</AltitudeMeters>
            <DistanceMeters>NAN</DistanceMeters>
          </Trackpoint>
          <Trackpoint>
            <Time>2022-09-24T14:56:09.000Z</Time>
            <Position>
              <LatitudeDegrees>43.2674420066177845001220703125</LatitudeDegrees>
              <LongitudeDegrees>-2.7841968275606632232666015625</LongitudeDegrees>
            </Position>
            <AltitudeMeters>47.799999237060546875</AltitudeMeters>
            <DistanceMeters>NAN</DistanceMeters>
          </Trackpoint>
          <Trackpoint>
            <Time>2022-09-24T14:56:10.000Z</Time>
            <Position>
              <LatitudeDegrees>43.2674698345363140106201171875</LatitudeDegrees>
              <LongitudeDegrees>-2.78413203544914722442626953125</LongitudeDegrees>
            </Position>
            <AltitudeMeters>48</AltitudeMeters>
            <DistanceMeters>NAN</DistanceMeters>
          </Trackpoint>
          <Trackpoint>
            <Time>2022-09-24T14:56:11.000Z</Time>
            <Position>
              <LatitudeDegrees>43.2675030268728733062744140625</LatitudeDegrees>
              <LongitudeDegrees>-2.78405928052961826324462890625</LongitudeDegrees>
            </Position>
            <AltitudeMeters>48</AltitudeMeters>
            <DistanceMeters>NAN</DistanceMeters>
          </Trackpoint>
          <Trackpoint>
            <Time>2022-09-24T14:56:12.000Z</Time>
            <Position>
              <LatitudeDegrees>43.26753102242946624755859375</LatitudeDegrees>
              <LongitudeDegrees>-2.7840001881122589111328125</LongitudeDegrees>
            </Position>
            <AltitudeMeters>48</AltitudeMeters>
            <DistanceMeters>NAN</DistanceMeters>
          </Trackpoint>
          <Trackpoint>
            <Time>2022-09-24T14:56:13.000Z</Time>
            <Position>
              <LatitudeDegrees>43.267552144825458526611328125</LatitudeDegrees>
              <LongitudeDegrees>-2.78395551256835460662841796875</LongitudeDegrees>
            </Position>
            <AltitudeMeters>48.799999237060546875</AltitudeMeters>
            <DistanceMeters>NAN</DistanceMeters>
          </Trackpoint>
          <Trackpoint>
            <Time>2022-09-24T14:56:14.000Z</Time>
            <Position>
              <LatitudeDegrees>43.26757955364882946014404296875</LatitudeDegrees>
              <LongitudeDegrees>-2.78390019200742244720458984375</LongitudeDegrees>
            </Position>
            <AltitudeMeters>49.200000762939453125</AltitudeMeters>
            <DistanceMeters>NAN</DistanceMeters>
          </Trackpoint>
          <Trackpoint>
            <Time>2022-09-24T14:56:15.000Z</Time>
            <Position>
              <LatitudeDegrees>43.2676140032708644866943359375</LatitudeDegrees>
              <LongitudeDegrees>-2.78383296914398670196533203125</LongitudeDegrees>
            </Position>
            <AltitudeMeters>49.59999847412109375</AltitudeMeters>
            <DistanceMeters>NAN</DistanceMeters>
          </Trackpoint>
          <Trackpoint>
            <Time>2022-09-24T14:56:16.000Z</Time>
            <Position>
              <LatitudeDegrees>43.26764359138906002044677734375</LatitudeDegrees>
              <LongitudeDegrees>-2.78378133662045001983642578125</LongitudeDegrees>
            </Position>
            <AltitudeMeters>50</AltitudeMeters>
            <DistanceMeters>NAN</DistanceMeters>
          </Trackpoint>
          <Trackpoint>
            <Time>2022-09-24T14:56:17.000Z</Time>
            <Position>
              <LatitudeDegrees>43.26767208985984325408935546875</LatitudeDegrees>
              <LongitudeDegrees>-2.78373062610626220703125</LongitudeDegrees>
            </Position>
            <AltitudeMeters>50</AltitudeMeters>
            <DistanceMeters>NAN</DistanceMeters>
          </Trackpoint>
          <Trackpoint>
            <Time>2022-09-24T14:56:18.000Z</Time>
            <Position>
              <LatitudeDegrees>43.26767208985984325408935546875</LatitudeDegrees>
              <LongitudeDegrees>-2.78373062610626220703125</LongitudeDegrees>
            </Position>
            <AltitudeMeters>50.200000762939453125</AltitudeMeters>
            <DistanceMeters>NAN</DistanceMeters>
          </Trackpoint>
          <Trackpoint>
            <Time>2022-09-24T14:56:19.000Z</Time>
            <Position>
              <LatitudeDegrees>43.2677367143332958221435546875</LatitudeDegrees>
              <LongitudeDegrees>-2.78364689089357852935791015625</LongitudeDegrees>
            </Position>
            <AltitudeMeters>50.200000762939453125</AltitudeMeters>
            <DistanceMeters>NAN</DistanceMeters>
          </Trackpoint>
          <Trackpoint>
            <Time>2022-09-24T14:56:20.000Z</Time>
            <Position>
              <LatitudeDegrees>43.267772085964679718017578125</LatitudeDegrees>
              <LongitudeDegrees>-2.78361353091895580291748046875</LongitudeDegrees>
            </Position>
            <AltitudeMeters>50.40000152587890625</AltitudeMeters>
            <DistanceMeters>NAN</DistanceMeters>
          </Trackpoint>
          <Trackpoint>
            <Time>2022-09-24T14:56:21.000Z</Time>
            <Position>
              <LatitudeDegrees>43.2678074575960636138916015625</LatitudeDegrees>
              <LongitudeDegrees>-2.783580087125301361083984375</LongitudeDegrees>
            </Position>
            <AltitudeMeters>50.40000152587890625</AltitudeMeters>
            <DistanceMeters>NAN</DistanceMeters>
          </Trackpoint>
          <Trackpoint>
            <Time>2022-09-24T14:56:22.000Z</Time>
            <Position>
              <LatitudeDegrees>43.267845176160335540771484375</LatitudeDegrees>
              <LongitudeDegrees>-2.78355024755001068115234375</LongitudeDegrees>
            </Position>
            <AltitudeMeters>50.59999847412109375</AltitudeMeters>
            <DistanceMeters>NAN</DistanceMeters>
          </Trackpoint>
          <Trackpoint>
            <Time>2022-09-24T14:56:23.000Z</Time>
            <Position>
              <LatitudeDegrees>43.267845176160335540771484375</LatitudeDegrees>
              <LongitudeDegrees>-2.78355024755001068115234375</LongitudeDegrees>
            </Position>
            <AltitudeMeters>50.799999237060546875</AltitudeMeters>
            <DistanceMeters>NAN</DistanceMeters>
          </Trackpoint>
          <Trackpoint>
            <Time>2022-09-24T14:56:24.000Z</Time>
            <Position>
              <LatitudeDegrees>43.2679164223372936248779296875</LatitudeDegrees>
              <LongitudeDegrees>-2.78350892476737499237060546875</LongitudeDegrees>
            </Position>
            <AltitudeMeters>51.200000762939453125</AltitudeMeters>
            <DistanceMeters>NAN</DistanceMeters>
          </Trackpoint>
          <Trackpoint>
            <Time>2022-09-24T14:56:25.000Z</Time>
            <Position>
              <LatitudeDegrees>43.2679590024054050445556640625</LatitudeDegrees>
              <LongitudeDegrees>-2.78349165804684162139892578125</LongitudeDegrees>
            </Position>
            <AltitudeMeters>51.59999847412109375</AltitudeMeters>
            <DistanceMeters>NAN</DistanceMeters>
          </Trackpoint>
          <Trackpoint>
            <Time>2022-09-24T14:56:26.000Z</Time>
            <Position>
              <LatitudeDegrees>43.2679985649883747100830078125</LatitudeDegrees>
              <LongitudeDegrees>-2.78347388841211795806884765625</LongitudeDegrees>
            </Position>
            <AltitudeMeters>51.59999847412109375</AltitudeMeters>
            <DistanceMeters>NAN</DistanceMeters>
          </Trackpoint>
          <Trackpoint>
            <Time>2022-09-24T14:56:27.000Z</Time>
            <Position>
              <LatitudeDegrees>43.268046677112579345703125</LatitudeDegrees>
              <LongitudeDegrees>-2.7834528498351573944091796875</LongitudeDegrees>
            </Position>
            <AltitudeMeters>51.59999847412109375</AltitudeMeters>
            <DistanceMeters>NAN</DistanceMeters>
          </Trackpoint>
          <Trackpoint>
            <Time>2022-09-24T14:56:28.000Z</Time>
            <Position>
              <LatitudeDegrees>43.26808515004813671112060546875</LatitudeDegrees>
              <LongitudeDegrees>-2.783437930047512054443359375</LongitudeDegrees>
            </Position>
            <AltitudeMeters>52.200000762939453125</AltitudeMeters>
            <DistanceMeters>NAN</DistanceMeters>
          </Trackpoint>
          <Trackpoint>
            <Time>2022-09-24T14:56:29.000Z</Time>
            <Position>
              <LatitudeDegrees>43.26808515004813671112060546875</LatitudeDegrees>
              <LongitudeDegrees>-2.783437930047512054443359375</LongitudeDegrees>
            </Position>
            <AltitudeMeters>52.40000152587890625</AltitudeMeters>
            <DistanceMeters>NAN</DistanceMeters>
          </Trackpoint>
          <Trackpoint>
            <Time>2022-09-24T14:56:30.000Z</Time>
            <Position>
              <LatitudeDegrees>43.2681601680815219879150390625</LatitudeDegrees>
              <LongitudeDegrees>-2.7834062464535236358642578125</LongitudeDegrees>
            </Position>
            <AltitudeMeters>52.59999847412109375</AltitudeMeters>
            <DistanceMeters>NAN</DistanceMeters>
          </Trackpoint>
          <Trackpoint>
            <Time>2022-09-24T14:56:31.000Z</Time>
            <Position>
              <LatitudeDegrees>43.26819679699838161468505859375</LatitudeDegrees>
              <LongitudeDegrees>-2.7833874709904193878173828125</LongitudeDegrees>
            </Position>
            <AltitudeMeters>52.799999237060546875</AltitudeMeters>
            <DistanceMeters>NAN</DistanceMeters>
          </Trackpoint>
          <Trackpoint>
            <Time>2022-09-24T14:56:32.000Z</Time>
            <Position>
              <LatitudeDegrees>43.26823099516332149505615234375</LatitudeDegrees>
              <LongitudeDegrees>-2.78336995281279087066650390625</LongitudeDegrees>
            </Position>
            <AltitudeMeters>52.799999237060546875</AltitudeMeters>
            <DistanceMeters>NAN</DistanceMeters>
          </Trackpoint>
          <Trackpoint>
            <Time>2022-09-24T14:56:33.000Z</Time>
            <Position>
              <LatitudeDegrees>43.26825982891023159027099609375</LatitudeDegrees>
              <LongitudeDegrees>-2.7833564579486846923828125</LongitudeDegrees>
            </Position>
            <AltitudeMeters>53.200000762939453125</AltitudeMeters>
            <DistanceMeters>NAN</DistanceMeters>
          </Trackpoint>
          <Trackpoint>
            <Time>2022-09-24T14:56:34.000Z</Time>
            <Position>
              <LatitudeDegrees>43.2682966254651546478271484375</LatitudeDegrees>
              <LongitudeDegrees>-2.78334044851362705230712890625</LongitudeDegrees>
            </Position>
            <AltitudeMeters>53.40000152587890625</AltitudeMeters>
            <DistanceMeters>NAN</DistanceMeters>
          </Trackpoint>
          <Trackpoint>
            <Time>2022-09-24T14:56:35.000Z</Time>
            <Position>
              <LatitudeDegrees>43.2682966254651546478271484375</LatitudeDegrees>
              <LongitudeDegrees>-2.78334044851362705230712890625</LongitudeDegrees>
            </Position>
            <AltitudeMeters>53.40000152587890625</AltitudeMeters>
            <DistanceMeters>NAN</DistanceMeters>
          </Trackpoint>
          <Trackpoint>
            <Time>2022-09-24T14:56:36.000Z</Time>
            <Position>
              <LatitudeDegrees>43.26836644671857357025146484375</LatitudeDegrees>
              <LongitudeDegrees>-2.7833103574812412261962890625</LongitudeDegrees>
            </Position>
            <AltitudeMeters>53.59999847412109375</AltitudeMeters>
            <DistanceMeters>NAN</DistanceMeters>
          </Trackpoint>
          <Trackpoint>
            <Time>2022-09-24T14:56:37.000Z</Time>
            <Position>
              <LatitudeDegrees>43.2684045843780040740966796875</LatitudeDegrees>
              <LongitudeDegrees>-2.78328781016170978546142578125</LongitudeDegrees>
            </Position>
            <AltitudeMeters>53.799999237060546875</AltitudeMeters>
            <DistanceMeters>NAN</DistanceMeters>
          </Trackpoint>
          <Trackpoint>
            <Time>2022-09-24T14:56:38.000Z</Time>
            <Position>
              <LatitudeDegrees>43.26843836344778537750244140625</LatitudeDegrees>
              <LongitudeDegrees>-2.78326517902314662933349609375</LongitudeDegrees>
            </Position>
            <AltitudeMeters>54.200000762939453125</AltitudeMeters>
            <DistanceMeters>NAN</DistanceMeters>
          </Trackpoint>
          <Trackpoint>
            <Time>2022-09-24T14:56:39.000Z</Time>
            <Position>
              <LatitudeDegrees>43.268471471965312957763671875</LatitudeDegrees>
              <LongitudeDegrees>-2.78324154205620288848876953125</LongitudeDegrees>
            </Position>
            <AltitudeMeters>54.40000152587890625</AltitudeMeters>
            <DistanceMeters>NAN</DistanceMeters>
          </Trackpoint>
          <Trackpoint>
            <Time>2022-09-24T14:56:40.000Z</Time>
            <Position>
              <LatitudeDegrees>43.26850441284477710723876953125</LatitudeDegrees>
              <LongitudeDegrees>-2.783218659460544586181640625</LongitudeDegrees>
            </Position>
            <AltitudeMeters>54.799999237060546875</AltitudeMeters>
            <DistanceMeters>NAN</DistanceMeters>
          </Trackpoint>
          <Trackpoint>
            <Time>2022-09-24T14:56:41.000Z</Time>
            <Position>
              <LatitudeDegrees>43.26853743754327297210693359375</LatitudeDegrees>
              <LongitudeDegrees>-2.78319493867456912994384765625</LongitudeDegrees>
            </Position>
            <AltitudeMeters>54.799999237060546875</AltitudeMeters>
            <DistanceMeters>NAN</DistanceMeters>
          </Trackpoint>
          <Trackpoint>
            <Time>2022-09-24T14:56:42.000Z</Time>
            <Position>
              <LatitudeDegrees>43.26856878586113452911376953125</LatitudeDegrees>
              <LongitudeDegrees>-2.7831713855266571044921875</LongitudeDegrees>
            </Position>
            <AltitudeMeters>54.799999237060546875</AltitudeMeters>
            <DistanceMeters>NAN</DistanceMeters>
          </Trackpoint>
          <Trackpoint>
            <Time>2022-09-24T14:56:43.000Z</Time>
            <Position>
              <LatitudeDegrees>43.2685993798077106475830078125</LatitudeDegrees>
              <LongitudeDegrees>-2.7831447310745716094970703125</LongitudeDegrees>
            </Position>
            <AltitudeMeters>55.40000152587890625</AltitudeMeters>
            <DistanceMeters>NAN</DistanceMeters>
          </Trackpoint>
          <Trackpoint>
            <Time>2022-09-24T14:56:44.000Z</Time>
            <Position>
              <LatitudeDegrees>43.26862938702106475830078125</LatitudeDegrees>
              <LongitudeDegrees>-2.78311899863183498382568359375</LongitudeDegrees>
            </Position>
            <AltitudeMeters>55.799999237060546875</AltitudeMeters>
            <DistanceMeters>NAN</DistanceMeters>
          </Trackpoint>
          <Trackpoint>
            <Time>2022-09-24T14:56:45.000Z</Time>
            <Position>
              <LatitudeDegrees>43.2686590589582920074462890625</LatitudeDegrees>
              <LongitudeDegrees>-2.7830961160361766815185546875</LongitudeDegrees>
            </Position>
            <AltitudeMeters>56</AltitudeMeters>
            <DistanceMeters>NAN</DistanceMeters>
          </Trackpoint>
          <Trackpoint>
            <Time>2022-09-24T14:56:46.000Z</Time>
            <Position>
              <LatitudeDegrees>43.26869032345712184906005859375</LatitudeDegrees>
              <LongitudeDegrees>-2.78307373635470867156982421875</LongitudeDegrees>
            </Position>
            <AltitudeMeters>56</AltitudeMeters>
            <DistanceMeters>NAN</DistanceMeters>
          </Trackpoint>
          <Trackpoint>
            <Time>2022-09-24T14:56:47.000Z</Time>
            <Position>
              <LatitudeDegrees>43.26872066594660282135009765625</LatitudeDegrees>
              <LongitudeDegrees>-2.7830533683300018310546875</LongitudeDegrees>
            </Position>
            <AltitudeMeters>56.200000762939453125</AltitudeMeters>
            <DistanceMeters>NAN</DistanceMeters>
          </Trackpoint>
          <Trackpoint>
            <Time>2022-09-24T14:56:48.000Z</Time>
            <Position>
              <LatitudeDegrees>43.26875100843608379364013671875</LatitudeDegrees>
              <LongitudeDegrees>-2.7830314077436923980712890625</LongitudeDegrees>
            </Position>
            <AltitudeMeters>56.40000152587890625</AltitudeMeters>
            <DistanceMeters>NAN</DistanceMeters>
          </Trackpoint>
          <Trackpoint>
            <Time>2022-09-24T14:56:49.000Z</Time>
            <Position>
              <LatitudeDegrees>43.2687810994684696197509765625</LatitudeDegrees>
              <LongitudeDegrees>-2.783009447157382965087890625</LongitudeDegrees>
            </Position>
            <AltitudeMeters>57</AltitudeMeters>
            <DistanceMeters>NAN</DistanceMeters>
          </Trackpoint>
          <Trackpoint>
            <Time>2022-09-24T14:56:50.000Z</Time>
            <Position>
              <LatitudeDegrees>43.268809430301189422607421875</LatitudeDegrees>
              <LongitudeDegrees>-2.78298891149461269378662109375</LongitudeDegrees>
            </Position>
            <AltitudeMeters>57</AltitudeMeters>
            <DistanceMeters>NAN</DistanceMeters>
          </Trackpoint>
          <Trackpoint>
            <Time>2022-09-24T14:56:51.000Z</Time>
            <Position>
              <LatitudeDegrees>43.2688387669622898101806640625</LatitudeDegrees>
              <LongitudeDegrees>-2.782967202365398406982421875</LongitudeDegrees>
            </Position>
            <AltitudeMeters>57.200000762939453125</AltitudeMeters>
            <DistanceMeters>NAN</DistanceMeters>
          </Trackpoint>
          <Trackpoint>
            <Time>2022-09-24T14:56:52.000Z</Time>
            <Position>
              <LatitudeDegrees>43.2688645832240581512451171875</LatitudeDegrees>
              <LongitudeDegrees>-2.782950103282928466796875</LongitudeDegrees>
            </Position>
            <AltitudeMeters>57.799999237060546875</AltitudeMeters>
            <DistanceMeters>NAN</DistanceMeters>
          </Trackpoint>
          <Trackpoint>
            <Time>2022-09-24T14:56:53.000Z</Time>
            <Position>
              <LatitudeDegrees>43.268894255161285400390625</LatitudeDegrees>
              <LongitudeDegrees>-2.78292655013501644134521484375</LongitudeDegrees>
            </Position>
            <AltitudeMeters>58</AltitudeMeters>
            <DistanceMeters>NAN</DistanceMeters>
          </Trackpoint>
          <Trackpoint>
            <Time>2022-09-24T14:56:54.000Z</Time>
            <Position>
              <LatitudeDegrees>43.268929459154605865478515625</LatitudeDegrees>
              <LongitudeDegrees>-2.78290123678743839263916015625</LongitudeDegrees>
            </Position>
            <AltitudeMeters>58.200000762939453125</AltitudeMeters>
            <DistanceMeters>NAN</DistanceMeters>
          </Trackpoint>
          <Trackpoint>
            <Time>2022-09-24T14:56:55.000Z</Time>
            <Position>
              <LatitudeDegrees>43.268959634006023406982421875</LatitudeDegrees>
              <LongitudeDegrees>-2.7828815393149852752685546875</LongitudeDegrees>
            </Position>
            <AltitudeMeters>58.40000152587890625</AltitudeMeters>
            <DistanceMeters>NAN</DistanceMeters>
          </Trackpoint>
          <Trackpoint>
            <Time>2022-09-24T14:56:56.000Z</Time>
            <Position>
              <LatitudeDegrees>43.26898436062037944793701171875</LatitudeDegrees>
              <LongitudeDegrees>-2.782870642840862274169921875</LongitudeDegrees>
            </Position>
            <AltitudeMeters>58.799999237060546875</AltitudeMeters>
            <DistanceMeters>NAN</DistanceMeters>
          </Trackpoint>
          <Trackpoint>
            <Time>2022-09-24T14:56:57.000Z</Time>
            <Position>
              <LatitudeDegrees>43.269016630947589874267578125</LatitudeDegrees>
              <LongitudeDegrees>-2.78285932727158069610595703125</LongitudeDegrees>
            </Position>
            <AltitudeMeters>59.200000762939453125</AltitudeMeters>
            <DistanceMeters>NAN</DistanceMeters>
          </Trackpoint>
          <Trackpoint>
            <Time>2022-09-24T14:56:58.000Z</Time>
            <Position>
              <LatitudeDegrees>43.2690496556460857391357421875</LatitudeDegrees>
              <LongitudeDegrees>-2.78285161592066287994384765625</LongitudeDegrees>
            </Position>
            <AltitudeMeters>59.200000762939453125</AltitudeMeters>
            <DistanceMeters>NAN</DistanceMeters>
          </Trackpoint>
          <Trackpoint>
            <Time>2022-09-24T14:56:59.000Z</Time>
            <Position>
              <LatitudeDegrees>43.2690835185348987579345703125</LatitudeDegrees>
              <LongitudeDegrees>-2.78284440748393535614013671875</LongitudeDegrees>
            </Position>
            <AltitudeMeters>59.40000152587890625</AltitudeMeters>
            <DistanceMeters>NAN</DistanceMeters>
          </Trackpoint>
          <Trackpoint>
            <Time>2022-09-24T14:57:00.000Z</Time>
            <Position>
              <LatitudeDegrees>43.26912500895559787750244140625</LatitudeDegrees>
              <LongitudeDegrees>-2.78283275663852691650390625</LongitudeDegrees>
            </Position>
            <AltitudeMeters>59.59999847412109375</AltitudeMeters>
            <DistanceMeters>NAN</DistanceMeters>
          </Trackpoint>
          <Trackpoint>
            <Time>2022-09-24T14:57:01.000Z</Time>
            <Position>
              <LatitudeDegrees>43.26915954239666461944580078125</LatitudeDegrees>
              <LongitudeDegrees>-2.782826386392116546630859375</LongitudeDegrees>
            </Position>
            <AltitudeMeters>59.799999237060546875</AltitudeMeters>
            <DistanceMeters>NAN</DistanceMeters>
          </Trackpoint>
          <Trackpoint>
            <Time>2022-09-24T14:57:02.000Z</Time>
            <Position>
              <LatitudeDegrees>43.2691874541342258453369140625</LatitudeDegrees>
              <LongitudeDegrees>-2.78282797895371913909912109375</LongitudeDegrees>
            </Position>
            <AltitudeMeters>59.799999237060546875</AltitudeMeters>
            <DistanceMeters>NAN</DistanceMeters>
          </Trackpoint>
          <Trackpoint>
            <Time>2022-09-24T14:57:03.000Z</Time>
            <Position>
              <LatitudeDegrees>43.26922190375626087188720703125</LatitudeDegrees>
              <LongitudeDegrees>-2.78283133171498775482177734375</LongitudeDegrees>
            </Position>
            <AltitudeMeters>60</AltitudeMeters>
            <DistanceMeters>NAN</DistanceMeters>
          </Trackpoint>
          <Trackpoint>
            <Time>2022-09-24T14:57:04.000Z</Time>
            <Position>
              <LatitudeDegrees>43.2692558504641056060791015625</LatitudeDegrees>
              <LongitudeDegrees>-2.78283636085689067840576171875</LongitudeDegrees>
            </Position>
            <AltitudeMeters>60.200000762939453125</AltitudeMeters>
            <DistanceMeters>NAN</DistanceMeters>
          </Trackpoint>
          <Trackpoint>
            <Time>2022-09-24T14:57:05.000Z</Time>
            <Position>
              <LatitudeDegrees>43.2692897133529186248779296875</LatitudeDegrees>
              <LongitudeDegrees>-2.7828419767320156097412109375</LongitudeDegrees>
            </Position>
            <AltitudeMeters>60.40000152587890625</AltitudeMeters>
            <DistanceMeters>NAN</DistanceMeters>
          </Trackpoint>
          <Trackpoint>
            <Time>2022-09-24T14:57:06.000Z</Time>
            <Position>
              <LatitudeDegrees>43.2693247497081756591796875</LatitudeDegrees>
              <LongitudeDegrees>-2.78284960426390171051025390625</LongitudeDegrees>
            </Position>
            <AltitudeMeters>60.40000152587890625</AltitudeMeters>
            <DistanceMeters>NAN</DistanceMeters>
          </Trackpoint>
          <Trackpoint>
            <Time>2022-09-24T14:57:07.000Z</Time>
            <Position>
              <LatitudeDegrees>43.2693584449589252471923828125</LatitudeDegrees>
              <LongitudeDegrees>-2.78285798616707324981689453125</LongitudeDegrees>
            </Position>
            <AltitudeMeters>60.40000152587890625</AltitudeMeters>
            <DistanceMeters>NAN</DistanceMeters>
          </Trackpoint>
          <Trackpoint>
            <Time>2022-09-24T14:57:08.000Z</Time>
            <Position>
              <LatitudeDegrees>43.2693998515605926513671875</LatitudeDegrees>
              <LongitudeDegrees>-2.782863266766071319580078125</LongitudeDegrees>
            </Position>
            <AltitudeMeters>60.59999847412109375</AltitudeMeters>
            <DistanceMeters>NAN</DistanceMeters>
          </Trackpoint>
          <Trackpoint>
            <Time>2022-09-24T14:57:09.000Z</Time>
            <Position>
              <LatitudeDegrees>43.269433714449405670166015625</LatitudeDegrees>
              <LongitudeDegrees>-2.78286762535572052001953125</LongitudeDegrees>
            </Position>
            <AltitudeMeters>60.59999847412109375</AltitudeMeters>
            <DistanceMeters>NAN</DistanceMeters>
          </Trackpoint>
          <Trackpoint>
            <Time>2022-09-24T14:57:10.000Z</Time>
            <Position>
              <LatitudeDegrees>43.26945978216826915740966796875</LatitudeDegrees>
              <LongitudeDegrees>-2.7828736603260040283203125</LongitudeDegrees>
            </Position>
            <AltitudeMeters>61.200000762939453125</AltitudeMeters>
            <DistanceMeters>NAN</DistanceMeters>
          </Trackpoint>
          <Trackpoint>
            <Time>2022-09-24T14:57:11.000Z</Time>
            <Position>
              <LatitudeDegrees>43.26949146576225757598876953125</LatitudeDegrees>
              <LongitudeDegrees>-2.782882712781429290771484375</LongitudeDegrees>
            </Position>
            <AltitudeMeters>61.200000762939453125</AltitudeMeters>
            <DistanceMeters>NAN</DistanceMeters>
          </Trackpoint>
          <Trackpoint>
            <Time>2022-09-24T14:57:12.000Z</Time>
            <Position>
              <LatitudeDegrees>43.26952281408011913299560546875</LatitudeDegrees>
              <LongitudeDegrees>-2.78289386071264743804931640625</LongitudeDegrees>
            </Position>
            <AltitudeMeters>61.59999847412109375</AltitudeMeters>
            <DistanceMeters>NAN</DistanceMeters>
          </Trackpoint>
          <Trackpoint>
            <Time>2022-09-24T14:57:13.000Z</Time>
            <Position>
              <LatitudeDegrees>43.26955533586442470550537109375</LatitudeDegrees>
              <LongitudeDegrees>-2.7829023264348506927490234375</LongitudeDegrees>
            </Position>
            <AltitudeMeters>61.799999237060546875</AltitudeMeters>
            <DistanceMeters>NAN</DistanceMeters>
          </Trackpoint>
          <Trackpoint>
            <Time>2022-09-24T14:57:14.000Z</Time>
            <Position>
              <LatitudeDegrees>43.26958852820098400115966796875</LatitudeDegrees>
              <LongitudeDegrees>-2.78290928341448307037353515625</LongitudeDegrees>
            </Position>
            <AltitudeMeters>62.40000152587890625</AltitudeMeters>
            <DistanceMeters>NAN</DistanceMeters>
          </Trackpoint>
          <Trackpoint>
            <Time>2022-09-24T14:57:15.000Z</Time>
            <Position>
              <LatitudeDegrees>43.269620798528194427490234375</LatitudeDegrees>
              <LongitudeDegrees>-2.78291448019444942474365234375</LongitudeDegrees>
            </Position>
            <AltitudeMeters>62.40000152587890625</AltitudeMeters>
            <DistanceMeters>NAN</DistanceMeters>
          </Trackpoint>
          <Trackpoint>
            <Time>2022-09-24T14:57:16.000Z</Time>
            <Position>
              <LatitudeDegrees>43.269661031663417816162109375</LatitudeDegrees>
              <LongitudeDegrees>-2.7829164080321788787841796875</LongitudeDegrees>
            </Position>
            <AltitudeMeters>62.40000152587890625</AltitudeMeters>
            <DistanceMeters>NAN</DistanceMeters>
          </Trackpoint>
          <Trackpoint>
            <Time>2022-09-24T14:57:17.000Z</Time>
            <Position>
              <LatitudeDegrees>43.2696940563619136810302734375</LatitudeDegrees>
              <LongitudeDegrees>-2.78291565366089344024658203125</LongitudeDegrees>
            </Position>
            <AltitudeMeters>63</AltitudeMeters>
            <DistanceMeters>NAN</DistanceMeters>
          </Trackpoint>
          <Trackpoint>
            <Time>2022-09-24T14:57:18.000Z</Time>
            <Position>
              <LatitudeDegrees>43.26971995644271373748779296875</LatitudeDegrees>
              <LongitudeDegrees>-2.7829120494425296783447265625</LongitudeDegrees>
            </Position>
            <AltitudeMeters>63</AltitudeMeters>
            <DistanceMeters>NAN</DistanceMeters>
          </Trackpoint>
          <Trackpoint>
            <Time>2022-09-24T14:57:19.000Z</Time>
            <Position>
              <LatitudeDegrees>43.26975993812084197998046875</LatitudeDegrees>
              <LongitudeDegrees>-2.7829140610992908477783203125</LongitudeDegrees>
            </Position>
            <AltitudeMeters>63</AltitudeMeters>
            <DistanceMeters>NAN</DistanceMeters>
          </Trackpoint>
          <Trackpoint>
            <Time>2022-09-24T14:57:20.000Z</Time>
            <Position>
              <LatitudeDegrees>43.26979346573352813720703125</LatitudeDegrees>
              <LongitudeDegrees>-2.78291900642216205596923828125</LongitudeDegrees>
            </Position>
            <AltitudeMeters>63.40000152587890625</AltitudeMeters>
            <DistanceMeters>NAN</DistanceMeters>
          </Trackpoint>
          <Trackpoint>
            <Time>2022-09-24T14:57:21.000Z</Time>
            <Position>
              <LatitudeDegrees>43.269824981689453125</LatitudeDegrees>
              <LongitudeDegrees>-2.78292520903050899505615234375</LongitudeDegrees>
            </Position>
            <AltitudeMeters>63.40000152587890625</AltitudeMeters>
            <DistanceMeters>NAN</DistanceMeters>
          </Trackpoint>
          <Trackpoint>
            <Time>2022-09-24T14:57:22.000Z</Time>
            <Position>
              <LatitudeDegrees>43.26985708437860012054443359375</LatitudeDegrees>
              <LongitudeDegrees>-2.7829291485249996185302734375</LongitudeDegrees>
            </Position>
            <AltitudeMeters>63.799999237060546875</AltitudeMeters>
            <DistanceMeters>NAN</DistanceMeters>
          </Trackpoint>
          <Trackpoint>
            <Time>2022-09-24T14:57:23.000Z</Time>
            <Position>
              <LatitudeDegrees>43.26989061199128627777099609375</LatitudeDegrees>
              <LongitudeDegrees>-2.7829371951520442962646484375</LongitudeDegrees>
            </Position>
            <AltitudeMeters>64</AltitudeMeters>
            <DistanceMeters>NAN</DistanceMeters>
          </Trackpoint>
          <Trackpoint>
            <Time>2022-09-24T14:57:24.000Z</Time>
            <Position>
              <LatitudeDegrees>43.269923888146877288818359375</LatitudeDegrees>
              <LongitudeDegrees>-2.7829449065029621124267578125</LongitudeDegrees>
            </Position>
            <AltitudeMeters>64.1999969482421875</AltitudeMeters>
            <DistanceMeters>NAN</DistanceMeters>
          </Trackpoint>
          <Trackpoint>
            <Time>2022-09-24T14:57:25.000Z</Time>
            <Position>
              <LatitudeDegrees>43.26995708048343658447265625</LatitudeDegrees>
              <LongitudeDegrees>-2.782954461872577667236328125</LongitudeDegrees>
            </Position>
            <AltitudeMeters>64.1999969482421875</AltitudeMeters>
            <DistanceMeters>NAN</DistanceMeters>
          </Trackpoint>
          <Trackpoint>
            <Time>2022-09-24T14:57:26.000Z</Time>
            <Position>
              <LatitudeDegrees>43.26998985372483730316162109375</LatitudeDegrees>
              <LongitudeDegrees>-2.78296275995671749114990234375</LongitudeDegrees>
            </Position>
            <AltitudeMeters>64.40000152587890625</AltitudeMeters>
            <DistanceMeters>NAN</DistanceMeters>
          </Trackpoint>
          <Trackpoint>
            <Time>2022-09-24T14:57:27.000Z</Time>
            <Position>
              <LatitudeDegrees>43.26998985372483730316162109375</LatitudeDegrees>
              <LongitudeDegrees>-2.78296275995671749114990234375</LongitudeDegrees>
            </Position>
            <AltitudeMeters>64.8000030517578125</AltitudeMeters>
            <DistanceMeters>NAN</DistanceMeters>
          </Trackpoint>
          <Trackpoint>
            <Time>2022-09-24T14:57:28.000Z</Time>
            <Position>
              <LatitudeDegrees>43.27002287842333316802978515625</LatitudeDegrees>
              <LongitudeDegrees>-2.7829707227647304534912109375</LongitudeDegrees>
            </Position>
            <AltitudeMeters>65.1999969482421875</AltitudeMeters>
            <DistanceMeters>NAN</DistanceMeters>
          </Trackpoint>
          <Trackpoint>
            <Time>2022-09-24T14:57:29.000Z</Time>
            <Position>
              <LatitudeDegrees>43.2700823061168193817138671875</LatitudeDegrees>
              <LongitudeDegrees>-2.78298019431531429290771484375</LongitudeDegrees>
            </Position>
            <AltitudeMeters>65.1999969482421875</AltitudeMeters>
            <DistanceMeters>NAN</DistanceMeters>
          </Trackpoint>
          <Trackpoint>
            <Time>2022-09-24T14:57:30.000Z</Time>
            <Position>
              <LatitudeDegrees>43.27012111432850360870361328125</LatitudeDegrees>
              <LongitudeDegrees>-2.78298455290496349334716796875</LongitudeDegrees>
            </Position>
            <AltitudeMeters>65.59999847412109375</AltitudeMeters>
            <DistanceMeters>NAN</DistanceMeters>
          </Trackpoint>
          <Trackpoint>
            <Time>2022-09-24T14:57:31.000Z</Time>
            <Position>
              <LatitudeDegrees>43.2701543904840946197509765625</LatitudeDegrees>
              <LongitudeDegrees>-2.78299025259912014007568359375</LongitudeDegrees>
            </Position>
            <AltitudeMeters>65.59999847412109375</AltitudeMeters>
            <DistanceMeters>NAN</DistanceMeters>
          </Trackpoint>
          <Trackpoint>
            <Time>2022-09-24T14:57:32.000Z</Time>
            <Position>
              <LatitudeDegrees>43.2701805420219898223876953125</LatitudeDegrees>
              <LongitudeDegrees>-2.7829951979219913482666015625</LongitudeDegrees>
            </Position>
            <AltitudeMeters>65.59999847412109375</AltitudeMeters>
            <DistanceMeters>NAN</DistanceMeters>
          </Trackpoint>
          <Trackpoint>
            <Time>2022-09-24T14:57:33.000Z</Time>
            <Position>
              <LatitudeDegrees>43.27021180652081966400146484375</LatitudeDegrees>
              <LongitudeDegrees>-2.78300081379711627960205078125</LongitudeDegrees>
            </Position>
            <AltitudeMeters>66</AltitudeMeters>
            <DistanceMeters>NAN</DistanceMeters>
          </Trackpoint>
          <Trackpoint>
            <Time>2022-09-24T14:57:34.000Z</Time>
            <Position>
              <LatitudeDegrees>43.2702452503144741058349609375</LatitudeDegrees>
              <LongitudeDegrees>-2.78300617821514606475830078125</LongitudeDegrees>
            </Position>
            <AltitudeMeters>66</AltitudeMeters>
            <DistanceMeters>NAN</DistanceMeters>
          </Trackpoint>
          <Trackpoint>
            <Time>2022-09-24T14:57:35.000Z</Time>
            <Position>
              <LatitudeDegrees>43.27027886174619197845458984375</LatitudeDegrees>
              <LongitudeDegrees>-2.783011458814144134521484375</LongitudeDegrees>
            </Position>
            <AltitudeMeters>66.1999969482421875</AltitudeMeters>
            <DistanceMeters>NAN</DistanceMeters>
          </Trackpoint>
          <Trackpoint>
            <Time>2022-09-24T14:57:36.000Z</Time>
            <Position>
              <LatitudeDegrees>43.270310796797275543212890625</LatitudeDegrees>
              <LongitudeDegrees>-2.78301875106990337371826171875</LongitudeDegrees>
            </Position>
            <AltitudeMeters>66.59999847412109375</AltitudeMeters>
            <DistanceMeters>NAN</DistanceMeters>
          </Trackpoint>
          <Trackpoint>
            <Time>2022-09-24T14:57:37.000Z</Time>
            <Position>
              <LatitudeDegrees>43.27034273184835910797119140625</LatitudeDegrees>
              <LongitudeDegrees>-2.7830260433256626129150390625</LongitudeDegrees>
            </Position>
            <AltitudeMeters>66.8000030517578125</AltitudeMeters>
            <DistanceMeters>NAN</DistanceMeters>
          </Trackpoint>
          <Trackpoint>
            <Time>2022-09-24T14:57:38.000Z</Time>
            <Position>
              <LatitudeDegrees>43.27037290669977664947509765625</LatitudeDegrees>
              <LongitudeDegrees>-2.78303300030529499053955078125</LongitudeDegrees>
            </Position>
            <AltitudeMeters>67.1999969482421875</AltitudeMeters>
            <DistanceMeters>NAN</DistanceMeters>
          </Trackpoint>
          <Trackpoint>
            <Time>2022-09-24T14:57:39.000Z</Time>
            <Position>
              <LatitudeDegrees>43.27040274627506732940673828125</LatitudeDegrees>
              <LongitudeDegrees>-2.783040292561054229736328125</LongitudeDegrees>
            </Position>
            <AltitudeMeters>67.1999969482421875</AltitudeMeters>
            <DistanceMeters>NAN</DistanceMeters>
          </Trackpoint>
          <Trackpoint>
            <Time>2022-09-24T14:57:40.000Z</Time>
            <Position>
              <LatitudeDegrees>43.27043308876454830169677734375</LatitudeDegrees>
              <LongitudeDegrees>-2.78304859064519405364990234375</LongitudeDegrees>
            </Position>
            <AltitudeMeters>67.1999969482421875</AltitudeMeters>
            <DistanceMeters>NAN</DistanceMeters>
          </Trackpoint>
          <Trackpoint>
            <Time>2022-09-24T14:57:41.000Z</Time>
            <Position>
              <LatitudeDegrees>43.2704655267298221588134765625</LatitudeDegrees>
              <LongitudeDegrees>-2.783057056367397308349609375</LongitudeDegrees>
            </Position>
            <AltitudeMeters>67.1999969482421875</AltitudeMeters>
            <DistanceMeters>NAN</DistanceMeters>
          </Trackpoint>
          <Trackpoint>
            <Time>2022-09-24T14:57:42.000Z</Time>
            <Position>
              <LatitudeDegrees>43.2704655267298221588134765625</LatitudeDegrees>
              <LongitudeDegrees>-2.783057056367397308349609375</LongitudeDegrees>
            </Position>
            <AltitudeMeters>67.8000030517578125</AltitudeMeters>
            <DistanceMeters>NAN</DistanceMeters>
          </Trackpoint>
          <Trackpoint>
            <Time>2022-09-24T14:57:43.000Z</Time>
            <Position>
              <LatitudeDegrees>43.270535431802272796630859375</LatitudeDegrees>
              <LongitudeDegrees>-2.78308345936238765716552734375</LongitudeDegrees>
            </Position>
            <AltitudeMeters>67.8000030517578125</AltitudeMeters>
            <DistanceMeters>NAN</DistanceMeters>
          </Trackpoint>
          <Trackpoint>
            <Time>2022-09-24T14:57:44.000Z</Time>
            <Position>
              <LatitudeDegrees>43.27056736685335636138916015625</LatitudeDegrees>
              <LongitudeDegrees>-2.78310156427323818206787109375</LongitudeDegrees>
            </Position>
            <AltitudeMeters>68.1999969482421875</AltitudeMeters>
            <DistanceMeters>NAN</DistanceMeters>
          </Trackpoint>
          <Trackpoint>
            <Time>2022-09-24T14:57:45.000Z</Time>
            <Position>
              <LatitudeDegrees>43.27059804461896419525146484375</LatitudeDegrees>
              <LongitudeDegrees>-2.78312302194535732269287109375</LongitudeDegrees>
            </Position>
            <AltitudeMeters>68.40000152587890625</AltitudeMeters>
            <DistanceMeters>NAN</DistanceMeters>
          </Trackpoint>
          <Trackpoint>
            <Time>2022-09-24T14:57:46.000Z</Time>
            <Position>
              <LatitudeDegrees>43.27062855474650859832763671875</LatitudeDegrees>
              <LongitudeDegrees>-2.7831440605223178863525390625</LongitudeDegrees>
            </Position>
            <AltitudeMeters>68.59999847412109375</AltitudeMeters>
            <DistanceMeters>NAN</DistanceMeters>
          </Trackpoint>
          <Trackpoint>
            <Time>2022-09-24T14:57:47.000Z</Time>
            <Position>
              <LatitudeDegrees>43.27065168879926204681396484375</LatitudeDegrees>
              <LongitudeDegrees>-2.78316275216639041900634765625</LongitudeDegrees>
            </Position>
            <AltitudeMeters>68.59999847412109375</AltitudeMeters>
            <DistanceMeters>NAN</DistanceMeters>
          </Trackpoint>
          <Trackpoint>
            <Time>2022-09-24T14:57:48.000Z</Time>
            <Position>
              <LatitudeDegrees>43.27068085782229900360107421875</LatitudeDegrees>
              <LongitudeDegrees>-2.78318588621914386749267578125</LongitudeDegrees>
            </Position>
            <AltitudeMeters>68.8000030517578125</AltitudeMeters>
            <DistanceMeters>NAN</DistanceMeters>
          </Trackpoint>
          <Trackpoint>
            <Time>2022-09-24T14:57:49.000Z</Time>
            <Position>
              <LatitudeDegrees>43.27071673236787319183349609375</LatitudeDegrees>
              <LongitudeDegrees>-2.783209942281246185302734375</LongitudeDegrees>
            </Position>
            <AltitudeMeters>69</AltitudeMeters>
            <DistanceMeters>NAN</DistanceMeters>
          </Trackpoint>
          <Trackpoint>
            <Time>2022-09-24T14:57:50.000Z</Time>
            <Position>
              <LatitudeDegrees>43.270745314657688140869140625</LatitudeDegrees>
              <LongitudeDegrees>-2.7832325734198093414306640625</LongitudeDegrees>
            </Position>
            <AltitudeMeters>69</AltitudeMeters>
            <DistanceMeters>NAN</DistanceMeters>
          </Trackpoint>
          <Trackpoint>
            <Time>2022-09-24T14:57:51.000Z</Time>
            <Position>
              <LatitudeDegrees>43.2707716338336467742919921875</LatitudeDegrees>
              <LongitudeDegrees>-2.78326056897640228271484375</LongitudeDegrees>
            </Position>
            <AltitudeMeters>69.1999969482421875</AltitudeMeters>
            <DistanceMeters>NAN</DistanceMeters>
          </Trackpoint>
          <Trackpoint>
            <Time>2022-09-24T14:57:52.000Z</Time>
            <Position>
              <LatitudeDegrees>43.2707987911999225616455078125</LatitudeDegrees>
              <LongitudeDegrees>-2.78328579850494861602783203125</LongitudeDegrees>
            </Position>
            <AltitudeMeters>69.59999847412109375</AltitudeMeters>
            <DistanceMeters>NAN</DistanceMeters>
          </Trackpoint>
          <Trackpoint>
            <Time>2022-09-24T14:57:53.000Z</Time>
            <Position>
              <LatitudeDegrees>43.27082477509975433349609375</LatitudeDegrees>
              <LongitudeDegrees>-2.783312536776065826416015625</LongitudeDegrees>
            </Position>
            <AltitudeMeters>69.8000030517578125</AltitudeMeters>
            <DistanceMeters>NAN</DistanceMeters>
          </Trackpoint>
          <Trackpoint>
            <Time>2022-09-24T14:57:54.000Z</Time>
            <Position>
              <LatitudeDegrees>43.270851261913776397705078125</LatitudeDegrees>
              <LongitudeDegrees>-2.78333927504718303680419921875</LongitudeDegrees>
            </Position>
            <AltitudeMeters>70</AltitudeMeters>
            <DistanceMeters>NAN</DistanceMeters>
          </Trackpoint>
          <Trackpoint>
            <Time>2022-09-24T14:57:55.000Z</Time>
            <Position>
              <LatitudeDegrees>43.2708785869181156158447265625</LatitudeDegrees>
              <LongitudeDegrees>-2.7833676896989345550537109375</LongitudeDegrees>
            </Position>
            <AltitudeMeters>70.1999969482421875</AltitudeMeters>
            <DistanceMeters>NAN</DistanceMeters>
          </Trackpoint>
          <Trackpoint>
            <Time>2022-09-24T14:57:56.000Z</Time>
            <Position>
              <LatitudeDegrees>43.2709074206650257110595703125</LatitudeDegrees>
              <LongitudeDegrees>-2.78339258395135402679443359375</LongitudeDegrees>
            </Position>
            <AltitudeMeters>70.1999969482421875</AltitudeMeters>
            <DistanceMeters>NAN</DistanceMeters>
          </Trackpoint>
          <Trackpoint>
            <Time>2022-09-24T14:57:57.000Z</Time>
            <Position>
              <LatitudeDegrees>43.27093231491744518280029296875</LatitudeDegrees>
              <LongitudeDegrees>-2.7834176458418369293212890625</LongitudeDegrees>
            </Position>
            <AltitudeMeters>70.40000152587890625</AltitudeMeters>
            <DistanceMeters>NAN</DistanceMeters>
          </Trackpoint>
          <Trackpoint>
            <Time>2022-09-24T14:57:58.000Z</Time>
            <Position>
              <LatitudeDegrees>43.2709590531885623931884765625</LatitudeDegrees>
              <LongitudeDegrees>-2.78344430029392242431640625</LongitudeDegrees>
            </Position>
            <AltitudeMeters>70.40000152587890625</AltitudeMeters>
            <DistanceMeters>NAN</DistanceMeters>
          </Trackpoint>
          <Trackpoint>
            <Time>2022-09-24T14:57:59.000Z</Time>
            <Position>
              <LatitudeDegrees>43.2709841988980770111083984375</LatitudeDegrees>
              <LongitudeDegrees>-2.78347187675535678863525390625</LongitudeDegrees>
            </Position>
            <AltitudeMeters>70.59999847412109375</AltitudeMeters>
            <DistanceMeters>NAN</DistanceMeters>
          </Trackpoint>
          <Trackpoint>
            <Time>2022-09-24T14:58:00.000Z</Time>
            <Position>
              <LatitudeDegrees>43.2710113562643527984619140625</LatitudeDegrees>
              <LongitudeDegrees>-2.7835021354258060455322265625</LongitudeDegrees>
            </Position>
            <AltitudeMeters>70.8000030517578125</AltitudeMeters>
            <DistanceMeters>NAN</DistanceMeters>
          </Trackpoint>
          <Trackpoint>
            <Time>2022-09-24T14:58:01.000Z</Time>
            <Position>
              <LatitudeDegrees>43.2710381783545017242431640625</LatitudeDegrees>
              <LongitudeDegrees>-2.78353256173431873321533203125</LongitudeDegrees>
            </Position>
            <AltitudeMeters>70.8000030517578125</AltitudeMeters>
            <DistanceMeters>NAN</DistanceMeters>
          </Trackpoint>
          <Trackpoint>
            <Time>2022-09-24T14:58:02.000Z</Time>
            <Position>
              <LatitudeDegrees>43.27106474898755550384521484375</LatitudeDegrees>
              <LongitudeDegrees>-2.7835621498525142669677734375</LongitudeDegrees>
            </Position>
            <AltitudeMeters>71.1999969482421875</AltitudeMeters>
            <DistanceMeters>NAN</DistanceMeters>
          </Trackpoint>
          <Trackpoint>
            <Time>2022-09-24T14:58:03.000Z</Time>
            <Position>
              <LatitudeDegrees>43.27106474898755550384521484375</LatitudeDegrees>
              <LongitudeDegrees>-2.7835621498525142669677734375</LongitudeDegrees>
            </Position>
            <AltitudeMeters>71.40000152587890625</AltitudeMeters>
            <DistanceMeters>NAN</DistanceMeters>
          </Trackpoint>
          <Trackpoint>
            <Time>2022-09-24T14:58:04.000Z</Time>
            <Position>
              <LatitudeDegrees>43.27111822552978992462158203125</LatitudeDegrees>
              <LongitudeDegrees>-2.7836194820702075958251953125</LongitudeDegrees>
            </Position>
            <AltitudeMeters>72</AltitudeMeters>
            <DistanceMeters>NAN</DistanceMeters>
          </Trackpoint>
          <Trackpoint>
            <Time>2022-09-24T14:58:05.000Z</Time>
            <Position>
              <LatitudeDegrees>43.27114387415349483489990234375</LatitudeDegrees>
              <LongitudeDegrees>-2.78364873491227626800537109375</LongitudeDegrees>
            </Position>
            <AltitudeMeters>72</AltitudeMeters>
            <DistanceMeters>NAN</DistanceMeters>
          </Trackpoint>
          <Trackpoint>
            <Time>2022-09-24T14:58:06.000Z</Time>
            <Position>
              <LatitudeDegrees>43.27116809785366058349609375</LatitudeDegrees>
              <LongitudeDegrees>-2.78367765247821807861328125</LongitudeDegrees>
            </Position>
            <AltitudeMeters>72</AltitudeMeters>
            <DistanceMeters>NAN</DistanceMeters>
          </Trackpoint>
          <Trackpoint>
            <Time>2022-09-24T14:58:07.000Z</Time>
            <Position>
              <LatitudeDegrees>43.27119265682995319366455078125</LatitudeDegrees>
              <LongitudeDegrees>-2.783708162605762481689453125</LongitudeDegrees>
            </Position>
            <AltitudeMeters>72.59999847412109375</AltitudeMeters>
            <DistanceMeters>NAN</DistanceMeters>
          </Trackpoint>
          <Trackpoint>
            <Time>2022-09-24T14:58:08.000Z</Time>
            <Position>
              <LatitudeDegrees>43.27121914364397525787353515625</LatitudeDegrees>
              <LongitudeDegrees>-2.7837378345429897308349609375</LongitudeDegrees>
            </Position>
            <AltitudeMeters>72.59999847412109375</AltitudeMeters>
            <DistanceMeters>NAN</DistanceMeters>
          </Trackpoint>
          <Trackpoint>
            <Time>2022-09-24T14:58:09.000Z</Time>
            <Position>
              <LatitudeDegrees>43.2712450437247753143310546875</LatitudeDegrees>
              <LongitudeDegrees>-2.78376507572829723358154296875</LongitudeDegrees>
            </Position>
            <AltitudeMeters>72.59999847412109375</AltitudeMeters>
            <DistanceMeters>NAN</DistanceMeters>
          </Trackpoint>
          <Trackpoint>
            <Time>2022-09-24T14:58:10.000Z</Time>
            <Position>
              <LatitudeDegrees>43.27127136290073394775390625</LatitudeDegrees>
              <LongitudeDegrees>-2.78379030525684356689453125</LongitudeDegrees>
            </Position>
            <AltitudeMeters>73</AltitudeMeters>
            <DistanceMeters>NAN</DistanceMeters>
          </Trackpoint>
          <Trackpoint>
            <Time>2022-09-24T14:58:11.000Z</Time>
            <Position>
              <LatitudeDegrees>43.271297514438629150390625</LatitudeDegrees>
              <LongitudeDegrees>-2.78381637297570705413818359375</LongitudeDegrees>
            </Position>
            <AltitudeMeters>73.40000152587890625</AltitudeMeters>
            <DistanceMeters>NAN</DistanceMeters>
          </Trackpoint>
          <Trackpoint>
            <Time>2022-09-24T14:58:12.000Z</Time>
            <Position>
              <LatitudeDegrees>43.27132232487201690673828125</LatitudeDegrees>
              <LongitudeDegrees>-2.783842943608760833740234375</LongitudeDegrees>
            </Position>
            <AltitudeMeters>73.40000152587890625</AltitudeMeters>
            <DistanceMeters>NAN</DistanceMeters>
          </Trackpoint>
          <Trackpoint>
            <Time>2022-09-24T14:58:13.000Z</Time>
            <Position>
              <LatitudeDegrees>43.27135048806667327880859375</LatitudeDegrees>
              <LongitudeDegrees>-2.78386616148054599761962890625</LongitudeDegrees>
            </Position>
            <AltitudeMeters>73.59999847412109375</AltitudeMeters>
            <DistanceMeters>NAN</DistanceMeters>
          </Trackpoint>
          <Trackpoint>
            <Time>2022-09-24T14:58:14.000Z</Time>
            <Position>
              <LatitudeDegrees>43.2713806629180908203125</LatitudeDegrees>
              <LongitudeDegrees>-2.78389013372361660003662109375</LongitudeDegrees>
            </Position>
            <AltitudeMeters>73.59999847412109375</AltitudeMeters>
            <DistanceMeters>NAN</DistanceMeters>
          </Trackpoint>
          <Trackpoint>
            <Time>2022-09-24T14:58:15.000Z</Time>
            <Position>
              <LatitudeDegrees>43.2714103348553180694580078125</LatitudeDegrees>
              <LongitudeDegrees>-2.783914022147655487060546875</LongitudeDegrees>
            </Position>
            <AltitudeMeters>74</AltitudeMeters>
            <DistanceMeters>NAN</DistanceMeters>
          </Trackpoint>
          <Trackpoint>
            <Time>2022-09-24T14:58:16.000Z</Time>
            <Position>
              <LatitudeDegrees>43.2714405097067356109619140625</LatitudeDegrees>
              <LongitudeDegrees>-2.78393489308655261993408203125</LongitudeDegrees>
            </Position>
            <AltitudeMeters>74</AltitudeMeters>
            <DistanceMeters>NAN</DistanceMeters>
          </Trackpoint>
          <Trackpoint>
            <Time>2022-09-24T14:58:17.000Z</Time>
            <Position>
              <LatitudeDegrees>43.27147194184362888336181640625</LatitudeDegrees>
              <LongitudeDegrees>-2.78395283035933971405029296875</LongitudeDegrees>
            </Position>
            <AltitudeMeters>74.40000152587890625</AltitudeMeters>
            <DistanceMeters>NAN</DistanceMeters>
          </Trackpoint>
          <Trackpoint>
            <Time>2022-09-24T14:58:18.000Z</Time>
            <Position>
              <LatitudeDegrees>43.27150404453277587890625</LatitudeDegrees>
              <LongitudeDegrees>-2.7839698456227779388427734375</LongitudeDegrees>
            </Position>
            <AltitudeMeters>74.40000152587890625</AltitudeMeters>
            <DistanceMeters>NAN</DistanceMeters>
          </Trackpoint>
          <Trackpoint>
            <Time>2022-09-24T14:58:19.000Z</Time>
            <Position>
              <LatitudeDegrees>43.27153556048870086669921875</LatitudeDegrees>
              <LongitudeDegrees>-2.7839859388768672943115234375</LongitudeDegrees>
            </Position>
            <AltitudeMeters>74.59999847412109375</AltitudeMeters>
            <DistanceMeters>NAN</DistanceMeters>
          </Trackpoint>
          <Trackpoint>
            <Time>2022-09-24T14:58:20.000Z</Time>
            <Position>
              <LatitudeDegrees>43.27156640589237213134765625</LatitudeDegrees>
              <LongitudeDegrees>-2.7839990146458148956298828125</LongitudeDegrees>
            </Position>
            <AltitudeMeters>74.8000030517578125</AltitudeMeters>
            <DistanceMeters>NAN</DistanceMeters>
          </Trackpoint>
          <Trackpoint>
            <Time>2022-09-24T14:58:21.000Z</Time>
            <Position>
              <LatitudeDegrees>43.27159733511507511138916015625</LatitudeDegrees>
              <LongitudeDegrees>-2.7840080671012401580810546875</LongitudeDegrees>
            </Position>
            <AltitudeMeters>74.8000030517578125</AltitudeMeters>
            <DistanceMeters>NAN</DistanceMeters>
          </Trackpoint>
          <Trackpoint>
            <Time>2022-09-24T14:58:22.000Z</Time>
            <Position>
              <LatitudeDegrees>43.2716314494609832763671875</LatitudeDegrees>
              <LongitudeDegrees>-2.78401234187185764312744140625</LongitudeDegrees>
            </Position>
            <AltitudeMeters>75</AltitudeMeters>
            <DistanceMeters>NAN</DistanceMeters>
          </Trackpoint>
          <Trackpoint>
            <Time>2022-09-24T14:58:23.000Z</Time>
            <Position>
              <LatitudeDegrees>43.271665982902050018310546875</LatitudeDegrees>
              <LongitudeDegrees>-2.7840120904147624969482421875</LongitudeDegrees>
            </Position>
            <AltitudeMeters>75.40000152587890625</AltitudeMeters>
            <DistanceMeters>NAN</DistanceMeters>
          </Trackpoint>
          <Trackpoint>
            <Time>2022-09-24T14:58:24.000Z</Time>
            <Position>
              <LatitudeDegrees>43.27169842086732387542724609375</LatitudeDegrees>
              <LongitudeDegrees>-2.7840114198625087738037109375</LongitudeDegrees>
            </Position>
            <AltitudeMeters>75.8000030517578125</AltitudeMeters>
            <DistanceMeters>NAN</DistanceMeters>
          </Trackpoint>
          <Trackpoint>
            <Time>2022-09-24T14:58:25.000Z</Time>
            <Position>
              <LatitudeDegrees>43.27173144556581974029541015625</LatitudeDegrees>
              <LongitudeDegrees>-2.78400463052093982696533203125</LongitudeDegrees>
            </Position>
            <AltitudeMeters>75.8000030517578125</AltitudeMeters>
            <DistanceMeters>NAN</DistanceMeters>
          </Trackpoint>
          <Trackpoint>
            <Time>2022-09-24T14:58:26.000Z</Time>
            <Position>
              <LatitudeDegrees>43.2717660628259181976318359375</LatitudeDegrees>
              <LongitudeDegrees>-2.7839894592761993408203125</LongitudeDegrees>
            </Position>
            <AltitudeMeters>75.8000030517578125</AltitudeMeters>
            <DistanceMeters>NAN</DistanceMeters>
          </Trackpoint>
          <Trackpoint>
            <Time>2022-09-24T14:58:27.000Z</Time>
            <Position>
              <LatitudeDegrees>43.2717985846102237701416015625</LatitudeDegrees>
              <LongitudeDegrees>-2.783978395164012908935546875</LongitudeDegrees>
            </Position>
            <AltitudeMeters>76.59999847412109375</AltitudeMeters>
            <DistanceMeters>NAN</DistanceMeters>
          </Trackpoint>
          <Trackpoint>
            <Time>2022-09-24T14:58:28.000Z</Time>
            <Position>
              <LatitudeDegrees>43.2718311063945293426513671875</LatitudeDegrees>
              <LongitudeDegrees>-2.78396506793797016143798828125</LongitudeDegrees>
            </Position>
            <AltitudeMeters>76.59999847412109375</AltitudeMeters>
            <DistanceMeters>NAN</DistanceMeters>
          </Trackpoint>
          <Trackpoint>
            <Time>2022-09-24T14:58:29.000Z</Time>
            <Position>
              <LatitudeDegrees>43.2718629576265811920166015625</LatitudeDegrees>
              <LongitudeDegrees>-2.7839497290551662445068359375</LongitudeDegrees>
            </Position>
            <AltitudeMeters>76.8000030517578125</AltitudeMeters>
            <DistanceMeters>NAN</DistanceMeters>
          </Trackpoint>
          <Trackpoint>
            <Time>2022-09-24T14:58:30.000Z</Time>
            <Position>
              <LatitudeDegrees>43.27189237810671329498291015625</LatitudeDegrees>
              <LongitudeDegrees>-2.78393187560141086578369140625</LongitudeDegrees>
            </Position>
            <AltitudeMeters>76.8000030517578125</AltitudeMeters>
            <DistanceMeters>NAN</DistanceMeters>
          </Trackpoint>
          <Trackpoint>
            <Time>2022-09-24T14:58:31.000Z</Time>
            <Position>
              <LatitudeDegrees>43.27192305587232112884521484375</LatitudeDegrees>
              <LongitudeDegrees>-2.78391544707119464874267578125</LongitudeDegrees>
            </Position>
            <AltitudeMeters>77</AltitudeMeters>
            <DistanceMeters>NAN</DistanceMeters>
          </Trackpoint>
          <Trackpoint>
            <Time>2022-09-24T14:58:32.000Z</Time>
            <Position>
              <LatitudeDegrees>43.2719507999718189239501953125</LatitudeDegrees>
              <LongitudeDegrees>-2.7838984318077564239501953125</LongitudeDegrees>
            </Position>
            <AltitudeMeters>77.1999969482421875</AltitudeMeters>
            <DistanceMeters>NAN</DistanceMeters>
          </Trackpoint>
          <Trackpoint>
            <Time>2022-09-24T14:58:33.000Z</Time>
            <Position>
              <LatitudeDegrees>43.271977789700031280517578125</LatitudeDegrees>
              <LongitudeDegrees>-2.78387974016368389129638671875</LongitudeDegrees>
            </Position>
            <AltitudeMeters>77.1999969482421875</AltitudeMeters>
            <DistanceMeters>NAN</DistanceMeters>
          </Trackpoint>
          <Trackpoint>
            <Time>2022-09-24T14:58:34.000Z</Time>
            <Position>
              <LatitudeDegrees>43.2720057852566242218017578125</LatitudeDegrees>
              <LongitudeDegrees>-2.78386808931827545166015625</LongitudeDegrees>
            </Position>
            <AltitudeMeters>78.40000152587890625</AltitudeMeters>
            <DistanceMeters>NAN</DistanceMeters>
          </Trackpoint>
          <Trackpoint>
            <Time>2022-09-24T14:58:35.000Z</Time>
            <Position>
              <LatitudeDegrees>43.27203445136547088623046875</LatitudeDegrees>
              <LongitudeDegrees>-2.783859036862850189208984375</LongitudeDegrees>
            </Position>
            <AltitudeMeters>78.40000152587890625</AltitudeMeters>
            <DistanceMeters>NAN</DistanceMeters>
          </Trackpoint>
          <Trackpoint>
            <Time>2022-09-24T14:58:36.000Z</Time>
            <Position>
              <LatitudeDegrees>43.2720634527504444122314453125</LatitudeDegrees>
              <LongitudeDegrees>-2.78384302742779254913330078125</LongitudeDegrees>
            </Position>
            <AltitudeMeters>78.40000152587890625</AltitudeMeters>
            <DistanceMeters>NAN</DistanceMeters>
          </Trackpoint>
          <Trackpoint>
            <Time>2022-09-24T14:58:37.000Z</Time>
            <Position>
              <LatitudeDegrees>43.27209203504025936126708984375</LatitudeDegrees>
              <LongitudeDegrees>-2.78382609598338603973388671875</LongitudeDegrees>
            </Position>
            <AltitudeMeters>78.59999847412109375</AltitudeMeters>
            <DistanceMeters>NAN</DistanceMeters>
          </Trackpoint>
          <Trackpoint>
            <Time>2022-09-24T14:58:38.000Z</Time>
            <Position>
              <LatitudeDegrees>43.27212103642523288726806640625</LatitudeDegrees>
              <LongitudeDegrees>-2.7838122658431529998779296875</LongitudeDegrees>
            </Position>
            <AltitudeMeters>78.8000030517578125</AltitudeMeters>
            <DistanceMeters>NAN</DistanceMeters>
          </Trackpoint>
          <Trackpoint>
            <Time>2022-09-24T14:58:39.000Z</Time>
            <Position>
              <LatitudeDegrees>43.2721496187150478363037109375</LatitudeDegrees>
              <LongitudeDegrees>-2.783799357712268829345703125</LongitudeDegrees>
            </Position>
            <AltitudeMeters>79</AltitudeMeters>
            <DistanceMeters>NAN</DistanceMeters>
          </Trackpoint>
          <Trackpoint>
            <Time>2022-09-24T14:58:40.000Z</Time>
            <Position>
              <LatitudeDegrees>43.27217970974743366241455078125</LatitudeDegrees>
              <LongitudeDegrees>-2.78378586284816265106201171875</LongitudeDegrees>
            </Position>
            <AltitudeMeters>79.40000152587890625</AltitudeMeters>
            <DistanceMeters>NAN</DistanceMeters>
          </Trackpoint>
          <Trackpoint>
            <Time>2022-09-24T14:58:41.000Z</Time>
            <Position>
              <LatitudeDegrees>43.27221223153173923492431640625</LatitudeDegrees>
              <LongitudeDegrees>-2.78377396054565906524658203125</LongitudeDegrees>
            </Position>
            <AltitudeMeters>79.40000152587890625</AltitudeMeters>
            <DistanceMeters>NAN</DistanceMeters>
          </Trackpoint>
          <Trackpoint>
            <Time>2022-09-24T14:58:42.000Z</Time>
            <Position>
              <LatitudeDegrees>43.27224307693541049957275390625</LatitudeDegrees>
              <LongitudeDegrees>-2.78376172296702861785888671875</LongitudeDegrees>
            </Position>
            <AltitudeMeters>79.8000030517578125</AltitudeMeters>
            <DistanceMeters>NAN</DistanceMeters>
          </Trackpoint>
          <Trackpoint>
            <Time>2022-09-24T14:58:43.000Z</Time>
            <Position>
              <LatitudeDegrees>43.2722713239490985870361328125</LatitudeDegrees>
              <LongitudeDegrees>-2.78374697081744670867919921875</LongitudeDegrees>
            </Position>
            <AltitudeMeters>79.8000030517578125</AltitudeMeters>
            <DistanceMeters>NAN</DistanceMeters>
          </Trackpoint>
          <Trackpoint>
            <Time>2022-09-24T14:58:44.000Z</Time>
            <Position>
              <LatitudeDegrees>43.2723020017147064208984375</LatitudeDegrees>
              <LongitudeDegrees>-2.78373305685818195343017578125</LongitudeDegrees>
            </Position>
            <AltitudeMeters>80</AltitudeMeters>
            <DistanceMeters>NAN</DistanceMeters>
          </Trackpoint>
          <Trackpoint>
            <Time>2022-09-24T14:58:45.000Z</Time>
            <Position>
              <LatitudeDegrees>43.27233016490936279296875</LatitudeDegrees>
              <LongitudeDegrees>-2.7837170474231243133544921875</LongitudeDegrees>
            </Position>
            <AltitudeMeters>80.1999969482421875</AltitudeMeters>
            <DistanceMeters>NAN</DistanceMeters>
          </Trackpoint>
          <Trackpoint>
            <Time>2022-09-24T14:58:46.000Z</Time>
            <Position>
              <LatitudeDegrees>43.27236092649400234222412109375</LatitudeDegrees>
              <LongitudeDegrees>-2.783696763217449188232421875</LongitudeDegrees>
            </Position>
            <AltitudeMeters>80.59999847412109375</AltitudeMeters>
            <DistanceMeters>NAN</DistanceMeters>
          </Trackpoint>
          <Trackpoint>
            <Time>2022-09-24T14:58:47.000Z</Time>
            <Position>
              <LatitudeDegrees>43.27239009551703929901123046875</LatitudeDegrees>
              <LongitudeDegrees>-2.78367698192596435546875</LongitudeDegrees>
            </Position>
            <AltitudeMeters>80.8000030517578125</AltitudeMeters>
            <DistanceMeters>NAN</DistanceMeters>
          </Trackpoint>
          <Trackpoint>
            <Time>2022-09-24T14:58:48.000Z</Time>
            <Position>
              <LatitudeDegrees>43.27241943217813968658447265625</LatitudeDegrees>
              <LongitudeDegrees>-2.78365963138639926910400390625</LongitudeDegrees>
            </Position>
            <AltitudeMeters>81</AltitudeMeters>
            <DistanceMeters>NAN</DistanceMeters>
          </Trackpoint>
          <Trackpoint>
            <Time>2022-09-24T14:58:49.000Z</Time>
            <Position>
              <LatitudeDegrees>43.27244910411536693572998046875</LatitudeDegrees>
              <LongitudeDegrees>-2.78364035300910472869873046875</LongitudeDegrees>
            </Position>
            <AltitudeMeters>81</AltitudeMeters>
            <DistanceMeters>NAN</DistanceMeters>
          </Trackpoint>
          <Trackpoint>
            <Time>2022-09-24T14:58:50.000Z</Time>
            <Position>
              <LatitudeDegrees>43.27247944660484790802001953125</LatitudeDegrees>
              <LongitudeDegrees>-2.78362174518406391143798828125</LongitudeDegrees>
            </Position>
            <AltitudeMeters>81.40000152587890625</AltitudeMeters>
            <DistanceMeters>NAN</DistanceMeters>
          </Trackpoint>
          <Trackpoint>
            <Time>2022-09-24T14:58:51.000Z</Time>
            <Position>
              <LatitudeDegrees>43.272509537637233734130859375</LatitudeDegrees>
              <LongitudeDegrees>-2.783605568110942840576171875</LongitudeDegrees>
            </Position>
            <AltitudeMeters>81.59999847412109375</AltitudeMeters>
            <DistanceMeters>NAN</DistanceMeters>
          </Trackpoint>
          <Trackpoint>
            <Time>2022-09-24T14:58:52.000Z</Time>
            <Position>
              <LatitudeDegrees>43.272540383040904998779296875</LatitudeDegrees>
              <LongitudeDegrees>-2.78359106741845607757568359375</LongitudeDegrees>
            </Position>
            <AltitudeMeters>81.8000030517578125</AltitudeMeters>
            <DistanceMeters>NAN</DistanceMeters>
          </Trackpoint>
          <Trackpoint>
            <Time>2022-09-24T14:58:53.000Z</Time>
            <Position>
              <LatitudeDegrees>43.272570557892322540283203125</LatitudeDegrees>
              <LongitudeDegrees>-2.7835742197930812835693359375</LongitudeDegrees>
            </Position>
            <AltitudeMeters>82.40000152587890625</AltitudeMeters>
            <DistanceMeters>NAN</DistanceMeters>
          </Trackpoint>
          <Trackpoint>
            <Time>2022-09-24T14:58:54.000Z</Time>
            <Position>
              <LatitudeDegrees>43.27259930782020092010498046875</LatitudeDegrees>
              <LongitudeDegrees>-2.78355292975902557373046875</LongitudeDegrees>
            </Position>
            <AltitudeMeters>82.40000152587890625</AltitudeMeters>
            <DistanceMeters>NAN</DistanceMeters>
          </Trackpoint>
          <Trackpoint>
            <Time>2022-09-24T14:58:55.000Z</Time>
            <Position>
              <LatitudeDegrees>43.272626884281635284423828125</LatitudeDegrees>
              <LongitudeDegrees>-2.783529460430145263671875</LongitudeDegrees>
            </Position>
            <AltitudeMeters>82.59999847412109375</AltitudeMeters>
            <DistanceMeters>NAN</DistanceMeters>
          </Trackpoint>
          <Trackpoint>
            <Time>2022-09-24T14:58:56.000Z</Time>
            <Position>
              <LatitudeDegrees>43.27265672385692596435546875</LatitudeDegrees>
              <LongitudeDegrees>-2.78350993059575557708740234375</LongitudeDegrees>
            </Position>
            <AltitudeMeters>83</AltitudeMeters>
            <DistanceMeters>NAN</DistanceMeters>
          </Trackpoint>
          <Trackpoint>
            <Time>2022-09-24T14:58:57.000Z</Time>
            <Position>
              <LatitudeDegrees>43.272685892879962921142578125</LatitudeDegrees>
              <LongitudeDegrees>-2.78348763473331928253173828125</LongitudeDegrees>
            </Position>
            <AltitudeMeters>83.40000152587890625</AltitudeMeters>
            <DistanceMeters>NAN</DistanceMeters>
          </Trackpoint>
          <Trackpoint>
            <Time>2022-09-24T14:58:58.000Z</Time>
            <Position>
              <LatitudeDegrees>43.27271615155041217803955078125</LatitudeDegrees>
              <LongitudeDegrees>-2.7834676019847393035888671875</LongitudeDegrees>
            </Position>
            <AltitudeMeters>83.40000152587890625</AltitudeMeters>
            <DistanceMeters>NAN</DistanceMeters>
          </Trackpoint>
          <Trackpoint>
            <Time>2022-09-24T14:58:59.000Z</Time>
            <Position>
              <LatitudeDegrees>43.27274666167795658111572265625</LatitudeDegrees>
              <LongitudeDegrees>-2.78344832360744476318359375</LongitudeDegrees>
            </Position>
            <AltitudeMeters>83.8000030517578125</AltitudeMeters>
            <DistanceMeters>NAN</DistanceMeters>
          </Trackpoint>
          <Trackpoint>
            <Time>2022-09-24T14:59:00.000Z</Time>
            <Position>
              <LatitudeDegrees>43.2727789320051670074462890625</LatitudeDegrees>
              <LongitudeDegrees>-2.7834288775920867919921875</LongitudeDegrees>
            </Position>
            <AltitudeMeters>84</AltitudeMeters>
            <DistanceMeters>NAN</DistanceMeters>
          </Trackpoint>
          <Trackpoint>
            <Time>2022-09-24T14:59:01.000Z</Time>
            <Position>
              <LatitudeDegrees>43.2728089392185211181640625</LatitudeDegrees>
              <LongitudeDegrees>-2.783411778509616851806640625</LongitudeDegrees>
            </Position>
            <AltitudeMeters>84.1999969482421875</AltitudeMeters>
            <DistanceMeters>NAN</DistanceMeters>
          </Trackpoint>
          <Trackpoint>
            <Time>2022-09-24T14:59:02.000Z</Time>
            <Position>
              <LatitudeDegrees>43.2728397846221923828125</LatitudeDegrees>
              <LongitudeDegrees>-2.783395014703273773193359375</LongitudeDegrees>
            </Position>
            <AltitudeMeters>84.1999969482421875</AltitudeMeters>
            <DistanceMeters>NAN</DistanceMeters>
          </Trackpoint>
          <Trackpoint>
            <Time>2022-09-24T14:59:03.000Z</Time>
            <Position>
              <LatitudeDegrees>43.2728718034923076629638671875</LatitudeDegrees>
              <LongitudeDegrees>-2.7833805978298187255859375</LongitudeDegrees>
            </Position>
            <AltitudeMeters>84.40000152587890625</AltitudeMeters>
            <DistanceMeters>NAN</DistanceMeters>
          </Trackpoint>
          <Trackpoint>
            <Time>2022-09-24T14:59:04.000Z</Time>
            <Position>
              <LatitudeDegrees>43.2729006372392177581787109375</LatitudeDegrees>
              <LongitudeDegrees>-2.78336324729025363922119140625</LongitudeDegrees>
            </Position>
            <AltitudeMeters>84.59999847412109375</AltitudeMeters>
            <DistanceMeters>NAN</DistanceMeters>
          </Trackpoint>
          <Trackpoint>
            <Time>2022-09-24T14:59:05.000Z</Time>
            <Position>
              <LatitudeDegrees>43.272929973900318145751953125</LatitudeDegrees>
              <LongitudeDegrees>-2.78334531001746654510498046875</LongitudeDegrees>
            </Position>
            <AltitudeMeters>84.59999847412109375</AltitudeMeters>
            <DistanceMeters>NAN</DistanceMeters>
          </Trackpoint>
          <Trackpoint>
            <Time>2022-09-24T14:59:06.000Z</Time>
            <Position>
              <LatitudeDegrees>43.27295704744756221771240234375</LatitudeDegrees>
              <LongitudeDegrees>-2.78332762420177459716796875</LongitudeDegrees>
            </Position>
            <AltitudeMeters>84.8000030517578125</AltitudeMeters>
            <DistanceMeters>NAN</DistanceMeters>
          </Trackpoint>
          <Trackpoint>
            <Time>2022-09-24T14:59:07.000Z</Time>
            <Position>
              <LatitudeDegrees>43.27298663556575775146484375</LatitudeDegrees>
              <LongitudeDegrees>-2.7833120338618755340576171875</LongitudeDegrees>
            </Position>
            <AltitudeMeters>85</AltitudeMeters>
            <DistanceMeters>NAN</DistanceMeters>
          </Trackpoint>
          <Trackpoint>
            <Time>2022-09-24T14:59:08.000Z</Time>
            <Position>
              <LatitudeDegrees>43.27301538549363613128662109375</LatitudeDegrees>
              <LongitudeDegrees>-2.78329686261713504791259765625</LongitudeDegrees>
            </Position>
            <AltitudeMeters>85.1999969482421875</AltitudeMeters>
            <DistanceMeters>NAN</DistanceMeters>
          </Trackpoint>
          <Trackpoint>
            <Time>2022-09-24T14:59:09.000Z</Time>
            <Position>
              <LatitudeDegrees>43.273043297231197357177734375</LatitudeDegrees>
              <LongitudeDegrees>-2.78328278101980686187744140625</LongitudeDegrees>
            </Position>
            <AltitudeMeters>85.40000152587890625</AltitudeMeters>
            <DistanceMeters>NAN</DistanceMeters>
          </Trackpoint>
          <Trackpoint>
            <Time>2022-09-24T14:59:10.000Z</Time>
            <Position>
              <LatitudeDegrees>43.27307255007326602935791015625</LatitudeDegrees>
              <LongitudeDegrees>-2.7832671068608760833740234375</LongitudeDegrees>
            </Position>
            <AltitudeMeters>85.59999847412109375</AltitudeMeters>
            <DistanceMeters>NAN</DistanceMeters>
          </Trackpoint>
          <Trackpoint>
            <Time>2022-09-24T14:59:11.000Z</Time>
            <Position>
              <LatitudeDegrees>43.27310238964855670928955078125</LatitudeDegrees>
              <LongitudeDegrees>-2.78324975632131099700927734375</LongitudeDegrees>
            </Position>
            <AltitudeMeters>85.59999847412109375</AltitudeMeters>
            <DistanceMeters>NAN</DistanceMeters>
          </Trackpoint>
          <Trackpoint>
            <Time>2022-09-24T14:59:12.000Z</Time>
            <Position>
              <LatitudeDegrees>43.27313139103353023529052734375</LatitudeDegrees>
              <LongitudeDegrees>-2.783232070505619049072265625</LongitudeDegrees>
            </Position>
            <AltitudeMeters>85.8000030517578125</AltitudeMeters>
            <DistanceMeters>NAN</DistanceMeters>
          </Trackpoint>
          <Trackpoint>
            <Time>2022-09-24T14:59:13.000Z</Time>
            <Position>
              <LatitudeDegrees>43.273160643875598907470703125</LatitudeDegrees>
              <LongitudeDegrees>-2.78321363031864166259765625</LongitudeDegrees>
            </Position>
            <AltitudeMeters>86</AltitudeMeters>
            <DistanceMeters>NAN</DistanceMeters>
          </Trackpoint>
          <Trackpoint>
            <Time>2022-09-24T14:59:14.000Z</Time>
            <Position>
              <LatitudeDegrees>43.2731893099844455718994140625</LatitudeDegrees>
              <LongitudeDegrees>-2.78319611214101314544677734375</LongitudeDegrees>
            </Position>
            <AltitudeMeters>86.1999969482421875</AltitudeMeters>
            <DistanceMeters>NAN</DistanceMeters>
          </Trackpoint>
          <Trackpoint>
            <Time>2022-09-24T14:59:15.000Z</Time>
            <Position>
              <LatitudeDegrees>43.2732194848358631134033203125</LatitudeDegrees>
              <LongitudeDegrees>-2.7831802703440189361572265625</LongitudeDegrees>
            </Position>
            <AltitudeMeters>86.59999847412109375</AltitudeMeters>
            <DistanceMeters>NAN</DistanceMeters>
          </Trackpoint>
          <Trackpoint>
            <Time>2022-09-24T14:59:16.000Z</Time>
            <Position>
              <LatitudeDegrees>43.27325024642050266265869140625</LatitudeDegrees>
              <LongitudeDegrees>-2.7831665240228176116943359375</LongitudeDegrees>
            </Position>
            <AltitudeMeters>87.1999969482421875</AltitudeMeters>
            <DistanceMeters>NAN</DistanceMeters>
          </Trackpoint>
          <Trackpoint>
            <Time>2022-09-24T14:59:17.000Z</Time>
            <Position>
              <LatitudeDegrees>43.2732810080051422119140625</LatitudeDegrees>
              <LongitudeDegrees>-2.7831517718732357025146484375</LongitudeDegrees>
            </Position>
            <AltitudeMeters>87.1999969482421875</AltitudeMeters>
            <DistanceMeters>NAN</DistanceMeters>
          </Trackpoint>
          <Trackpoint>
            <Time>2022-09-24T14:59:18.000Z</Time>
            <Position>
              <LatitudeDegrees>43.2733096741139888763427734375</LatitudeDegrees>
              <LongitudeDegrees>-2.7831338346004486083984375</LongitudeDegrees>
            </Position>
            <AltitudeMeters>87.40000152587890625</AltitudeMeters>
            <DistanceMeters>NAN</DistanceMeters>
          </Trackpoint>
          <Trackpoint>
            <Time>2022-09-24T14:59:19.000Z</Time>
            <Position>
              <LatitudeDegrees>43.2733373343944549560546875</LatitudeDegrees>
              <LongitudeDegrees>-2.78311715461313724517822265625</LongitudeDegrees>
            </Position>
            <AltitudeMeters>87.40000152587890625</AltitudeMeters>
            <DistanceMeters>NAN</DistanceMeters>
          </Trackpoint>
          <Trackpoint>
            <Time>2022-09-24T14:59:20.000Z</Time>
            <Position>
              <LatitudeDegrees>43.27336742542684078216552734375</LatitudeDegrees>
              <LongitudeDegrees>-2.78309938497841358184814453125</LongitudeDegrees>
            </Position>
            <AltitudeMeters>87.40000152587890625</AltitudeMeters>
            <DistanceMeters>NAN</DistanceMeters>
          </Trackpoint>
          <Trackpoint>
            <Time>2022-09-24T14:59:21.000Z</Time>
            <Position>
              <LatitudeDegrees>43.2733965106308460235595703125</LatitudeDegrees>
              <LongitudeDegrees>-2.78307943604886531829833984375</LongitudeDegrees>
            </Position>
            <AltitudeMeters>87.59999847412109375</AltitudeMeters>
            <DistanceMeters>NAN</DistanceMeters>
          </Trackpoint>
          <Trackpoint>
            <Time>2022-09-24T14:59:22.000Z</Time>
            <Position>
              <LatitudeDegrees>43.27342710457742214202880859375</LatitudeDegrees>
              <LongitudeDegrees>-2.78305848129093647003173828125</LongitudeDegrees>
            </Position>
            <AltitudeMeters>87.8000030517578125</AltitudeMeters>
            <DistanceMeters>NAN</DistanceMeters>
          </Trackpoint>
          <Trackpoint>
            <Time>2022-09-24T14:59:23.000Z</Time>
            <Position>
              <LatitudeDegrees>43.27345736324787139892578125</LatitudeDegrees>
              <LongitudeDegrees>-2.7830372750759124755859375</LongitudeDegrees>
            </Position>
            <AltitudeMeters>88</AltitudeMeters>
            <DistanceMeters>NAN</DistanceMeters>
          </Trackpoint>
          <Trackpoint>
            <Time>2022-09-24T14:59:24.000Z</Time>
            <Position>
              <LatitudeDegrees>43.2734903879463672637939453125</LatitudeDegrees>
              <LongitudeDegrees>-2.783018834888935089111328125</LongitudeDegrees>
            </Position>
            <AltitudeMeters>88.1999969482421875</AltitudeMeters>
            <DistanceMeters>NAN</DistanceMeters>
          </Trackpoint>
          <Trackpoint>
            <Time>2022-09-24T14:59:25.000Z</Time>
            <Position>
              <LatitudeDegrees>43.2735232450067996978759765625</LatitudeDegrees>
              <LongitudeDegrees>-2.78300232253968715667724609375</LongitudeDegrees>
            </Position>
            <AltitudeMeters>88.59999847412109375</AltitudeMeters>
            <DistanceMeters>NAN</DistanceMeters>
          </Trackpoint>
          <Trackpoint>
            <Time>2022-09-24T14:59:26.000Z</Time>
            <Position>
              <LatitudeDegrees>43.2735545933246612548828125</LatitudeDegrees>
              <LongitudeDegrees>-2.7829889953136444091796875</LongitudeDegrees>
            </Position>
            <AltitudeMeters>88.8000030517578125</AltitudeMeters>
            <DistanceMeters>NAN</DistanceMeters>
          </Trackpoint>
          <Trackpoint>
            <Time>2022-09-24T14:59:27.000Z</Time>
            <Position>
              <LatitudeDegrees>43.27358610928058624267578125</LatitudeDegrees>
              <LongitudeDegrees>-2.7829755842685699462890625</LongitudeDegrees>
            </Position>
            <AltitudeMeters>88.8000030517578125</AltitudeMeters>
            <DistanceMeters>NAN</DistanceMeters>
          </Trackpoint>
          <Trackpoint>
            <Time>2022-09-24T14:59:28.000Z</Time>
            <Position>
              <LatitudeDegrees>43.27361804433166980743408203125</LatitudeDegrees>
              <LongitudeDegrees>-2.78295521624386310577392578125</LongitudeDegrees>
            </Position>
            <AltitudeMeters>89</AltitudeMeters>
            <DistanceMeters>NAN</DistanceMeters>
          </Trackpoint>
          <Trackpoint>
            <Time>2022-09-24T14:59:29.000Z</Time>
            <Position>
              <LatitudeDegrees>43.27365039847791194915771484375</LatitudeDegrees>
              <LongitudeDegrees>-2.78293912298977375030517578125</LongitudeDegrees>
            </Position>
            <AltitudeMeters>89.1999969482421875</AltitudeMeters>
            <DistanceMeters>NAN</DistanceMeters>
          </Trackpoint>
          <Trackpoint>
            <Time>2022-09-24T14:59:30.000Z</Time>
            <Position>
              <LatitudeDegrees>43.2736811600625514984130859375</LatitudeDegrees>
              <LongitudeDegrees>-2.7829214371740818023681640625</LongitudeDegrees>
            </Position>
            <AltitudeMeters>89.40000152587890625</AltitudeMeters>
            <DistanceMeters>NAN</DistanceMeters>
          </Trackpoint>
          <Trackpoint>
            <Time>2022-09-24T14:59:31.000Z</Time>
            <Position>
              <LatitudeDegrees>43.2737123407423496246337890625</LatitudeDegrees>
              <LongitudeDegrees>-2.782903499901294708251953125</LongitudeDegrees>
            </Position>
            <AltitudeMeters>89.59999847412109375</AltitudeMeters>
            <DistanceMeters>NAN</DistanceMeters>
          </Trackpoint>
          <Trackpoint>
            <Time>2022-09-24T14:59:32.000Z</Time>
            <Position>
              <LatitudeDegrees>43.27374394051730632781982421875</LatitudeDegrees>
              <LongitudeDegrees>-2.78288371860980987548828125</LongitudeDegrees>
            </Position>
            <AltitudeMeters>90.1999969482421875</AltitudeMeters>
            <DistanceMeters>NAN</DistanceMeters>
          </Trackpoint>
          <Trackpoint>
            <Time>2022-09-24T14:59:33.000Z</Time>
            <Position>
              <LatitudeDegrees>43.27377545647323131561279296875</LatitudeDegrees>
              <LongitudeDegrees>-2.78286821208894252777099609375</LongitudeDegrees>
            </Position>
            <AltitudeMeters>90.1999969482421875</AltitudeMeters>
            <DistanceMeters>NAN</DistanceMeters>
          </Trackpoint>
          <Trackpoint>
            <Time>2022-09-24T14:59:34.000Z</Time>
            <Position>
              <LatitudeDegrees>43.27380797825753688812255859375</LatitudeDegrees>
              <LongitudeDegrees>-2.7828503586351871490478515625</LongitudeDegrees>
            </Position>
            <AltitudeMeters>90.1999969482421875</AltitudeMeters>
            <DistanceMeters>NAN</DistanceMeters>
          </Trackpoint>
          <Trackpoint>
            <Time>2022-09-24T14:59:35.000Z</Time>
            <Position>
              <LatitudeDegrees>43.27383915893733501434326171875</LatitudeDegrees>
              <LongitudeDegrees>-2.782832086086273193359375</LongitudeDegrees>
            </Position>
            <AltitudeMeters>90.1999969482421875</AltitudeMeters>
            <DistanceMeters>NAN</DistanceMeters>
          </Trackpoint>
          <Trackpoint>
            <Time>2022-09-24T14:59:36.000Z</Time>
            <Position>
              <LatitudeDegrees>43.27386849559843540191650390625</LatitudeDegrees>
              <LongitudeDegrees>-2.7828178368508815765380859375</LongitudeDegrees>
            </Position>
            <AltitudeMeters>90.40000152587890625</AltitudeMeters>
            <DistanceMeters>NAN</DistanceMeters>
          </Trackpoint>
          <Trackpoint>
            <Time>2022-09-24T14:59:37.000Z</Time>
            <Position>
              <LatitudeDegrees>43.2738977484405040740966796875</LatitudeDegrees>
              <LongitudeDegrees>-2.7828039228916168212890625</LongitudeDegrees>
            </Position>
            <AltitudeMeters>90.8000030517578125</AltitudeMeters>
            <DistanceMeters>NAN</DistanceMeters>
          </Trackpoint>
          <Trackpoint>
            <Time>2022-09-24T14:59:38.000Z</Time>
            <Position>
              <LatitudeDegrees>43.2739259116351604461669921875</LatitudeDegrees>
              <LongitudeDegrees>-2.78278724290430545806884765625</LongitudeDegrees>
            </Position>
            <AltitudeMeters>90.8000030517578125</AltitudeMeters>
            <DistanceMeters>NAN</DistanceMeters>
          </Trackpoint>
          <Trackpoint>
            <Time>2022-09-24T14:59:39.000Z</Time>
            <Position>
              <LatitudeDegrees>43.27395633794367313385009765625</LatitudeDegrees>
              <LongitudeDegrees>-2.7827705629169940948486328125</LongitudeDegrees>
            </Position>
            <AltitudeMeters>91.40000152587890625</AltitudeMeters>
            <DistanceMeters>NAN</DistanceMeters>
          </Trackpoint>
          <Trackpoint>
            <Time>2022-09-24T14:59:40.000Z</Time>
            <Position>
              <LatitudeDegrees>43.27395633794367313385009765625</LatitudeDegrees>
              <LongitudeDegrees>-2.7827705629169940948486328125</LongitudeDegrees>
            </Position>
            <AltitudeMeters>91.40000152587890625</AltitudeMeters>
            <DistanceMeters>NAN</DistanceMeters>
          </Trackpoint>
          <Trackpoint>
            <Time>2022-09-24T14:59:41.000Z</Time>
            <Position>
              <LatitudeDegrees>43.2740174420177936553955078125</LatitudeDegrees>
              <LongitudeDegrees>-2.78273192234337329864501953125</LongitudeDegrees>
            </Position>
            <AltitudeMeters>91.59999847412109375</AltitudeMeters>
            <DistanceMeters>NAN</DistanceMeters>
          </Trackpoint>
          <Trackpoint>
            <Time>2022-09-24T14:59:42.000Z</Time>
            <Position>
              <LatitudeDegrees>43.27404736541211605072021484375</LatitudeDegrees>
              <LongitudeDegrees>-2.78271918185055255889892578125</LongitudeDegrees>
            </Position>
            <AltitudeMeters>92</AltitudeMeters>
            <DistanceMeters>NAN</DistanceMeters>
          </Trackpoint>
          <Trackpoint>
            <Time>2022-09-24T14:59:43.000Z</Time>
            <Position>
              <LatitudeDegrees>43.27404736541211605072021484375</LatitudeDegrees>
              <LongitudeDegrees>-2.78271918185055255889892578125</LongitudeDegrees>
            </Position>
            <AltitudeMeters>92.1999969482421875</AltitudeMeters>
            <DistanceMeters>NAN</DistanceMeters>
          </Trackpoint>
          <Trackpoint>
            <Time>2022-09-24T14:59:44.000Z</Time>
            <Position>
              <LatitudeDegrees>43.27410201542079448699951171875</LatitudeDegrees>
              <LongitudeDegrees>-2.7826947905123233795166015625</LongitudeDegrees>
            </Position>
            <AltitudeMeters>92.1999969482421875</AltitudeMeters>
            <DistanceMeters>NAN</DistanceMeters>
          </Trackpoint>
          <Trackpoint>
            <Time>2022-09-24T14:59:45.000Z</Time>
            <Position>
              <LatitudeDegrees>43.27413034625351428985595703125</LatitudeDegrees>
              <LongitudeDegrees>-2.7826783619821071624755859375</LongitudeDegrees>
            </Position>
            <AltitudeMeters>92.40000152587890625</AltitudeMeters>
            <DistanceMeters>NAN</DistanceMeters>
          </Trackpoint>
          <Trackpoint>
            <Time>2022-09-24T14:59:46.000Z</Time>
            <Position>
              <LatitudeDegrees>43.27413034625351428985595703125</LatitudeDegrees>
              <LongitudeDegrees>-2.7826783619821071624755859375</LongitudeDegrees>
            </Position>
            <AltitudeMeters>92.40000152587890625</AltitudeMeters>
            <DistanceMeters>NAN</DistanceMeters>
          </Trackpoint>
          <Trackpoint>
            <Time>2022-09-24T14:59:47.000Z</Time>
            <Position>
              <LatitudeDegrees>43.27418801374733448028564453125</LatitudeDegrees>
              <LongitudeDegrees>-2.782641313970088958740234375</LongitudeDegrees>
            </Position>
            <AltitudeMeters>93.40000152587890625</AltitudeMeters>
            <DistanceMeters>NAN</DistanceMeters>
          </Trackpoint>
          <Trackpoint>
            <Time>2022-09-24T14:59:48.000Z</Time>
            <Position>
              <LatitudeDegrees>43.27421617694199085235595703125</LatitudeDegrees>
              <LongitudeDegrees>-2.78262228704988956451416015625</LongitudeDegrees>
            </Position>
            <AltitudeMeters>93.40000152587890625</AltitudeMeters>
            <DistanceMeters>NAN</DistanceMeters>
          </Trackpoint>
          <Trackpoint>
            <Time>2022-09-24T14:59:49.000Z</Time>
            <Position>
              <LatitudeDegrees>43.27424199320375919342041015625</LatitudeDegrees>
              <LongitudeDegrees>-2.78260636143386363983154296875</LongitudeDegrees>
            </Position>
            <AltitudeMeters>93.40000152587890625</AltitudeMeters>
            <DistanceMeters>NAN</DistanceMeters>
          </Trackpoint>
          <Trackpoint>
            <Time>2022-09-24T14:59:50.000Z</Time>
            <Position>
              <LatitudeDegrees>43.2742635346949100494384765625</LatitudeDegrees>
              <LongitudeDegrees>-2.78259135782718658447265625</LongitudeDegrees>
            </Position>
            <AltitudeMeters>93.8000030517578125</AltitudeMeters>
            <DistanceMeters>NAN</DistanceMeters>
          </Trackpoint>
          <Trackpoint>
            <Time>2022-09-24T14:59:51.000Z</Time>
            <Position>
              <LatitudeDegrees>43.27429412864148616790771484375</LatitudeDegrees>
              <LongitudeDegrees>-2.78257886879146099090576171875</LongitudeDegrees>
            </Position>
            <AltitudeMeters>93.8000030517578125</AltitudeMeters>
            <DistanceMeters>NAN</DistanceMeters>
          </Trackpoint>
          <Trackpoint>
            <Time>2022-09-24T14:59:52.000Z</Time>
            <Position>
              <LatitudeDegrees>43.27432631514966487884521484375</LatitudeDegrees>
              <LongitudeDegrees>-2.78256990015506744384765625</LongitudeDegrees>
            </Position>
            <AltitudeMeters>94</AltitudeMeters>
            <DistanceMeters>NAN</DistanceMeters>
          </Trackpoint>
          <Trackpoint>
            <Time>2022-09-24T14:59:53.000Z</Time>
            <Position>
              <LatitudeDegrees>43.2743564061820507049560546875</LatitudeDegrees>
              <LongitudeDegrees>-2.78254467062652111053466796875</LongitudeDegrees>
            </Position>
            <AltitudeMeters>94.1999969482421875</AltitudeMeters>
            <DistanceMeters>NAN</DistanceMeters>
          </Trackpoint>
          <Trackpoint>
            <Time>2022-09-24T14:59:54.000Z</Time>
            <Position>
              <LatitudeDegrees>43.27438264153897762298583984375</LatitudeDegrees>
              <LongitudeDegrees>-2.7825221233069896697998046875</LongitudeDegrees>
            </Position>
            <AltitudeMeters>94.59999847412109375</AltitudeMeters>
            <DistanceMeters>NAN</DistanceMeters>
          </Trackpoint>
          <Trackpoint>
            <Time>2022-09-24T14:59:55.000Z</Time>
            <Position>
              <LatitudeDegrees>43.2744033448398113250732421875</LatitudeDegrees>
              <LongitudeDegrees>-2.78249756433069705963134765625</LongitudeDegrees>
            </Position>
            <AltitudeMeters>95</AltitudeMeters>
            <DistanceMeters>NAN</DistanceMeters>
          </Trackpoint>
          <Trackpoint>
            <Time>2022-09-24T14:59:56.000Z</Time>
            <Position>
              <LatitudeDegrees>43.2744311727583408355712890625</LatitudeDegrees>
              <LongitudeDegrees>-2.782469652593135833740234375</LongitudeDegrees>
            </Position>
            <AltitudeMeters>95</AltitudeMeters>
            <DistanceMeters>NAN</DistanceMeters>
          </Trackpoint>
          <Trackpoint>
            <Time>2022-09-24T14:59:57.000Z</Time>
            <Position>
              <LatitudeDegrees>43.27445271424949169158935546875</LatitudeDegrees>
              <LongitudeDegrees>-2.7824443392455577850341796875</LongitudeDegrees>
            </Position>
            <AltitudeMeters>95.1999969482421875</AltitudeMeters>
            <DistanceMeters>NAN</DistanceMeters>
          </Trackpoint>
          <Trackpoint>
            <Time>2022-09-24T14:59:58.000Z</Time>
            <Position>
              <LatitudeDegrees>43.2744760997593402862548828125</LatitudeDegrees>
              <LongitudeDegrees>-2.7824228815734386444091796875</LongitudeDegrees>
            </Position>
            <AltitudeMeters>95.1999969482421875</AltitudeMeters>
            <DistanceMeters>NAN</DistanceMeters>
          </Trackpoint>
          <Trackpoint>
            <Time>2022-09-24T14:59:59.000Z</Time>
            <Position>
              <LatitudeDegrees>43.274498395621776580810546875</LatitudeDegrees>
              <LongitudeDegrees>-2.7824010886251926422119140625</LongitudeDegrees>
            </Position>
            <AltitudeMeters>95.40000152587890625</AltitudeMeters>
            <DistanceMeters>NAN</DistanceMeters>
          </Trackpoint>
          <Trackpoint>
            <Time>2022-09-24T15:00:00.000Z</Time>
            <Position>
              <LatitudeDegrees>43.27452731318771839141845703125</LatitudeDegrees>
              <LongitudeDegrees>-2.7823836542665958404541015625</LongitudeDegrees>
            </Position>
            <AltitudeMeters>95.40000152587890625</AltitudeMeters>
            <DistanceMeters>NAN</DistanceMeters>
          </Trackpoint>
          <Trackpoint>
            <Time>2022-09-24T15:00:01.000Z</Time>
            <Position>
              <LatitudeDegrees>43.27452731318771839141845703125</LatitudeDegrees>
              <LongitudeDegrees>-2.7823836542665958404541015625</LongitudeDegrees>
            </Position>
            <AltitudeMeters>96.1999969482421875</AltitudeMeters>
            <DistanceMeters>NAN</DistanceMeters>
          </Trackpoint>
          <Trackpoint>
            <Time>2022-09-24T15:00:02.000Z</Time>
            <Position>
              <LatitudeDegrees>43.2745807059109210968017578125</LatitudeDegrees>
              <LongitudeDegrees>-2.7823454327881336212158203125</LongitudeDegrees>
            </Position>
            <AltitudeMeters>96.40000152587890625</AltitudeMeters>
            <DistanceMeters>NAN</DistanceMeters>
          </Trackpoint>
          <Trackpoint>
            <Time>2022-09-24T15:00:03.000Z</Time>
            <Position>
              <LatitudeDegrees>43.274603672325611114501953125</LatitudeDegrees>
              <LongitudeDegrees>-2.78232255019247531890869140625</LongitudeDegrees>
            </Position>
            <AltitudeMeters>96.59999847412109375</AltitudeMeters>
            <DistanceMeters>NAN</DistanceMeters>
          </Trackpoint>
          <Trackpoint>
            <Time>2022-09-24T15:00:04.000Z</Time>
            <Position>
              <LatitudeDegrees>43.274603672325611114501953125</LatitudeDegrees>
              <LongitudeDegrees>-2.78232255019247531890869140625</LongitudeDegrees>
            </Position>
            <AltitudeMeters>96.8000030517578125</AltitudeMeters>
            <DistanceMeters>NAN</DistanceMeters>
          </Trackpoint>
          <Trackpoint>
            <Time>2022-09-24T15:00:05.000Z</Time>
            <Position>
              <LatitudeDegrees>43.2746527902781963348388671875</LatitudeDegrees>
              <LongitudeDegrees>-2.7822767011821269989013671875</LongitudeDegrees>
            </Position>
            <AltitudeMeters>97</AltitudeMeters>
            <DistanceMeters>NAN</DistanceMeters>
          </Trackpoint>
          <Trackpoint>
            <Time>2022-09-24T15:00:06.000Z</Time>
            <Position>
              <LatitudeDegrees>43.27467600814998149871826171875</LatitudeDegrees>
              <LongitudeDegrees>-2.7822559140622615814208984375</LongitudeDegrees>
            </Position>
            <AltitudeMeters>97.59999847412109375</AltitudeMeters>
            <DistanceMeters>NAN</DistanceMeters>
          </Trackpoint>
          <Trackpoint>
            <Time>2022-09-24T15:00:07.000Z</Time>
            <Position>
              <LatitudeDegrees>43.27470115385949611663818359375</LatitudeDegrees>
              <LongitudeDegrees>-2.782232277095317840576171875</LongitudeDegrees>
            </Position>
            <AltitudeMeters>97.59999847412109375</AltitudeMeters>
            <DistanceMeters>NAN</DistanceMeters>
          </Trackpoint>
          <Trackpoint>
            <Time>2022-09-24T15:00:08.000Z</Time>
            <Position>
              <LatitudeDegrees>43.27472847886383533477783203125</LatitudeDegrees>
              <LongitudeDegrees>-2.7822059579193592071533203125</LongitudeDegrees>
            </Position>
            <AltitudeMeters>97.8000030517578125</AltitudeMeters>
            <DistanceMeters>NAN</DistanceMeters>
          </Trackpoint>
          <Trackpoint>
            <Time>2022-09-24T15:00:09.000Z</Time>
            <Position>
              <LatitudeDegrees>43.2747520320117473602294921875</LatitudeDegrees>
              <LongitudeDegrees>-2.78217787854373455047607421875</LongitudeDegrees>
            </Position>
            <AltitudeMeters>97.8000030517578125</AltitudeMeters>
            <DistanceMeters>NAN</DistanceMeters>
          </Trackpoint>
          <Trackpoint>
            <Time>2022-09-24T15:00:10.000Z</Time>
            <Position>
              <LatitudeDegrees>43.2747520320117473602294921875</LatitudeDegrees>
              <LongitudeDegrees>-2.78217787854373455047607421875</LongitudeDegrees>
            </Position>
            <AltitudeMeters>98</AltitudeMeters>
            <DistanceMeters>NAN</DistanceMeters>
          </Trackpoint>
          <Trackpoint>
            <Time>2022-09-24T15:00:11.000Z</Time>
            <Position>
              <LatitudeDegrees>43.27479335479438304901123046875</LatitudeDegrees>
              <LongitudeDegrees>-2.7821224741637706756591796875</LongitudeDegrees>
            </Position>
            <AltitudeMeters>98.40000152587890625</AltitudeMeters>
            <DistanceMeters>NAN</DistanceMeters>
          </Trackpoint>
          <Trackpoint>
            <Time>2022-09-24T15:00:12.000Z</Time>
            <Position>
              <LatitudeDegrees>43.2748130522668361663818359375</LatitudeDegrees>
              <LongitudeDegrees>-2.78209473006427288055419921875</LongitudeDegrees>
            </Position>
            <AltitudeMeters>98.40000152587890625</AltitudeMeters>
            <DistanceMeters>NAN</DistanceMeters>
          </Trackpoint>
          <Trackpoint>
            <Time>2022-09-24T15:00:13.000Z</Time>
            <Position>
              <LatitudeDegrees>43.27483140863478183746337890625</LatitudeDegrees>
              <LongitudeDegrees>-2.7820688299834728240966796875</LongitudeDegrees>
            </Position>
            <AltitudeMeters>99</AltitudeMeters>
            <DistanceMeters>NAN</DistanceMeters>
          </Trackpoint>
          <Trackpoint>
            <Time>2022-09-24T15:00:14.000Z</Time>
            <Position>
              <LatitudeDegrees>43.274853117763996124267578125</LatitudeDegrees>
              <LongitudeDegrees>-2.7820383198559284210205078125</LongitudeDegrees>
            </Position>
            <AltitudeMeters>99.1999969482421875</AltitudeMeters>
            <DistanceMeters>NAN</DistanceMeters>
          </Trackpoint>
          <Trackpoint>
            <Time>2022-09-24T15:00:15.000Z</Time>
            <Position>
              <LatitudeDegrees>43.2748764194548130035400390625</LatitudeDegrees>
              <LongitudeDegrees>-2.7820074744522571563720703125</LongitudeDegrees>
            </Position>
            <AltitudeMeters>99.1999969482421875</AltitudeMeters>
            <DistanceMeters>NAN</DistanceMeters>
          </Trackpoint>
          <Trackpoint>
            <Time>2022-09-24T15:00:16.000Z</Time>
            <Position>
              <LatitudeDegrees>43.27489863149821758270263671875</LatitudeDegrees>
              <LongitudeDegrees>-2.7819806523621082305908203125</LongitudeDegrees>
            </Position>
            <AltitudeMeters>99.59999847412109375</AltitudeMeters>
            <DistanceMeters>NAN</DistanceMeters>
          </Trackpoint>
          <Trackpoint>
            <Time>2022-09-24T15:00:17.000Z</Time>
            <Position>
              <LatitudeDegrees>43.2749176584184169769287109375</LatitudeDegrees>
              <LongitudeDegrees>-2.7819571830332279205322265625</LongitudeDegrees>
            </Position>
            <AltitudeMeters>99.8000030517578125</AltitudeMeters>
            <DistanceMeters>NAN</DistanceMeters>
          </Trackpoint>
          <Trackpoint>
            <Time>2022-09-24T15:00:18.000Z</Time>
            <Position>
              <LatitudeDegrees>43.27493584714829921722412109375</LatitudeDegrees>
              <LongitudeDegrees>-2.781931869685649871826171875</LongitudeDegrees>
            </Position>
            <AltitudeMeters>99.8000030517578125</AltitudeMeters>
            <DistanceMeters>NAN</DistanceMeters>
          </Trackpoint>
          <Trackpoint>
            <Time>2022-09-24T15:00:19.000Z</Time>
            <Position>
              <LatitudeDegrees>43.27495814301073551177978515625</LatitudeDegrees>
              <LongitudeDegrees>-2.7819045446813106536865234375</LongitudeDegrees>
            </Position>
            <AltitudeMeters>100</AltitudeMeters>
            <DistanceMeters>NAN</DistanceMeters>
          </Trackpoint>
          <Trackpoint>
            <Time>2022-09-24T15:00:20.000Z</Time>
            <Position>
              <LatitudeDegrees>43.27497951686382293701171875</LatitudeDegrees>
              <LongitudeDegrees>-2.78187881223857402801513671875</LongitudeDegrees>
            </Position>
            <AltitudeMeters>100.40000152587890625</AltitudeMeters>
            <DistanceMeters>NAN</DistanceMeters>
          </Trackpoint>
          <Trackpoint>
            <Time>2022-09-24T15:00:21.000Z</Time>
            <Position>
              <LatitudeDegrees>43.27500072307884693145751953125</LatitudeDegrees>
              <LongitudeDegrees>-2.78185249306261539459228515625</LongitudeDegrees>
            </Position>
            <AltitudeMeters>100.40000152587890625</AltitudeMeters>
            <DistanceMeters>NAN</DistanceMeters>
          </Trackpoint>
          <Trackpoint>
            <Time>2022-09-24T15:00:22.000Z</Time>
            <Position>
              <LatitudeDegrees>43.27502335421741008758544921875</LatitudeDegrees>
              <LongitudeDegrees>-2.781827263534069061279296875</LongitudeDegrees>
            </Position>
            <AltitudeMeters>100.59999847412109375</AltitudeMeters>
            <DistanceMeters>NAN</DistanceMeters>
          </Trackpoint>
          <Trackpoint>
            <Time>2022-09-24T15:00:23.000Z</Time>
            <Position>
              <LatitudeDegrees>43.2750443927943706512451171875</LatitudeDegrees>
              <LongitudeDegrees>-2.78179650194942951202392578125</LongitudeDegrees>
            </Position>
            <AltitudeMeters>100.59999847412109375</AltitudeMeters>
            <DistanceMeters>NAN</DistanceMeters>
          </Trackpoint>
          <Trackpoint>
            <Time>2022-09-24T15:00:24.000Z</Time>
            <Position>
              <LatitudeDegrees>43.27506442554295063018798828125</LatitudeDegrees>
              <LongitudeDegrees>-2.78176783584058284759521484375</LongitudeDegrees>
            </Position>
            <AltitudeMeters>101</AltitudeMeters>
            <DistanceMeters>NAN</DistanceMeters>
          </Trackpoint>
          <Trackpoint>
            <Time>2022-09-24T15:00:25.000Z</Time>
            <Position>
              <LatitudeDegrees>43.27508755959570407867431640625</LatitudeDegrees>
              <LongitudeDegrees>-2.7817409299314022064208984375</LongitudeDegrees>
            </Position>
            <AltitudeMeters>101.1999969482421875</AltitudeMeters>
            <DistanceMeters>NAN</DistanceMeters>
          </Trackpoint>
          <Trackpoint>
            <Time>2022-09-24T15:00:26.000Z</Time>
            <Position>
              <LatitudeDegrees>43.2751047424972057342529296875</LatitudeDegrees>
              <LongitudeDegrees>-2.7817090786993503570556640625</LongitudeDegrees>
            </Position>
            <AltitudeMeters>101.59999847412109375</AltitudeMeters>
            <DistanceMeters>NAN</DistanceMeters>
          </Trackpoint>
          <Trackpoint>
            <Time>2022-09-24T15:00:27.000Z</Time>
            <Position>
              <LatitudeDegrees>43.27512393705546855926513671875</LatitudeDegrees>
              <LongitudeDegrees>-2.7816778980195522308349609375</LongitudeDegrees>
            </Position>
            <AltitudeMeters>101.59999847412109375</AltitudeMeters>
            <DistanceMeters>NAN</DistanceMeters>
          </Trackpoint>
          <Trackpoint>
            <Time>2022-09-24T15:00:28.000Z</Time>
            <Position>
              <LatitudeDegrees>43.27514790929853916168212890625</LatitudeDegrees>
              <LongitudeDegrees>-2.781645543873310089111328125</LongitudeDegrees>
            </Position>
            <AltitudeMeters>101.59999847412109375</AltitudeMeters>
            <DistanceMeters>NAN</DistanceMeters>
          </Trackpoint>
          <Trackpoint>
            <Time>2022-09-24T15:00:29.000Z</Time>
            <Position>
              <LatitudeDegrees>43.27516836114227771759033203125</LatitudeDegrees>
              <LongitudeDegrees>-2.78161008842289447784423828125</LongitudeDegrees>
            </Position>
            <AltitudeMeters>102</AltitudeMeters>
            <DistanceMeters>NAN</DistanceMeters>
          </Trackpoint>
          <Trackpoint>
            <Time>2022-09-24T15:00:30.000Z</Time>
            <Position>
              <LatitudeDegrees>43.275184370577335357666015625</LatitudeDegrees>
              <LongitudeDegrees>-2.78157387860119342803955078125</LongitudeDegrees>
            </Position>
            <AltitudeMeters>102.1999969482421875</AltitudeMeters>
            <DistanceMeters>NAN</DistanceMeters>
          </Trackpoint>
          <Trackpoint>
            <Time>2022-09-24T15:00:31.000Z</Time>
            <Position>
              <LatitudeDegrees>43.2752049900591373443603515625</LatitudeDegrees>
              <LongitudeDegrees>-2.781537584960460662841796875</LongitudeDegrees>
            </Position>
            <AltitudeMeters>102.1999969482421875</AltitudeMeters>
            <DistanceMeters>NAN</DistanceMeters>
          </Trackpoint>
          <Trackpoint>
            <Time>2022-09-24T15:00:32.000Z</Time>
            <Position>
              <LatitudeDegrees>43.27522359788417816162109375</LatitudeDegrees>
              <LongitudeDegrees>-2.78150280006229877471923828125</LongitudeDegrees>
            </Position>
            <AltitudeMeters>102.59999847412109375</AltitudeMeters>
            <DistanceMeters>NAN</DistanceMeters>
          </Trackpoint>
          <Trackpoint>
            <Time>2022-09-24T15:00:33.000Z</Time>
            <Position>
              <LatitudeDegrees>43.2752401940524578094482421875</LatitudeDegrees>
              <LongitudeDegrees>-2.7814681828022003173828125</LongitudeDegrees>
            </Position>
            <AltitudeMeters>102.59999847412109375</AltitudeMeters>
            <DistanceMeters>NAN</DistanceMeters>
          </Trackpoint>
          <Trackpoint>
            <Time>2022-09-24T15:00:34.000Z</Time>
            <Position>
              <LatitudeDegrees>43.2752589695155620574951171875</LatitudeDegrees>
              <LongitudeDegrees>-2.7814333140850067138671875</LongitudeDegrees>
            </Position>
            <AltitudeMeters>102.59999847412109375</AltitudeMeters>
            <DistanceMeters>NAN</DistanceMeters>
          </Trackpoint>
          <Trackpoint>
            <Time>2022-09-24T15:00:35.000Z</Time>
            <Position>
              <LatitudeDegrees>43.2752780802547931671142578125</LatitudeDegrees>
              <LongitudeDegrees>-2.7813939191401004791259765625</LongitudeDegrees>
            </Position>
            <AltitudeMeters>103</AltitudeMeters>
            <DistanceMeters>NAN</DistanceMeters>
          </Trackpoint>
          <Trackpoint>
            <Time>2022-09-24T15:00:36.000Z</Time>
            <Position>
              <LatitudeDegrees>43.275296352803707122802734375</LatitudeDegrees>
              <LongitudeDegrees>-2.78135410510003566741943359375</LongitudeDegrees>
            </Position>
            <AltitudeMeters>103</AltitudeMeters>
            <DistanceMeters>NAN</DistanceMeters>
          </Trackpoint>
          <Trackpoint>
            <Time>2022-09-24T15:00:37.000Z</Time>
            <Position>
              <LatitudeDegrees>43.27531487680971622467041015625</LatitudeDegrees>
              <LongitudeDegrees>-2.78131596744060516357421875</LongitudeDegrees>
            </Position>
            <AltitudeMeters>103.40000152587890625</AltitudeMeters>
            <DistanceMeters>NAN</DistanceMeters>
          </Trackpoint>
          <Trackpoint>
            <Time>2022-09-24T15:00:38.000Z</Time>
            <Position>
              <LatitudeDegrees>43.27533331699669361114501953125</LatitudeDegrees>
              <LongitudeDegrees>-2.7812779136002063751220703125</LongitudeDegrees>
            </Position>
            <AltitudeMeters>103.40000152587890625</AltitudeMeters>
            <DistanceMeters>NAN</DistanceMeters>
          </Trackpoint>
          <Trackpoint>
            <Time>2022-09-24T15:00:39.000Z</Time>
            <Position>
              <LatitudeDegrees>43.27534873969852924346923828125</LatitudeDegrees>
              <LongitudeDegrees>-2.781237177550792694091796875</LongitudeDegrees>
            </Position>
            <AltitudeMeters>103.59999847412109375</AltitudeMeters>
            <DistanceMeters>NAN</DistanceMeters>
          </Trackpoint>
          <Trackpoint>
            <Time>2022-09-24T15:00:40.000Z</Time>
            <Position>
              <LatitudeDegrees>43.27537287957966327667236328125</LatitudeDegrees>
              <LongitudeDegrees>-2.78120071627199649810791015625</LongitudeDegrees>
            </Position>
            <AltitudeMeters>104</AltitudeMeters>
            <DistanceMeters>NAN</DistanceMeters>
          </Trackpoint>
          <Trackpoint>
            <Time>2022-09-24T15:00:41.000Z</Time>
            <Position>
              <LatitudeDegrees>43.27539953403174877166748046875</LatitudeDegrees>
              <LongitudeDegrees>-2.78116752393543720245361328125</LongitudeDegrees>
            </Position>
            <AltitudeMeters>104.40000152587890625</AltitudeMeters>
            <DistanceMeters>NAN</DistanceMeters>
          </Trackpoint>
          <Trackpoint>
            <Time>2022-09-24T15:00:42.000Z</Time>
            <Position>
              <LatitudeDegrees>43.27541646547615528106689453125</LatitudeDegrees>
              <LongitudeDegrees>-2.781132571399211883544921875</LongitudeDegrees>
            </Position>
            <AltitudeMeters>104.40000152587890625</AltitudeMeters>
            <DistanceMeters>NAN</DistanceMeters>
          </Trackpoint>
          <Trackpoint>
            <Time>2022-09-24T15:00:43.000Z</Time>
            <Position>
              <LatitudeDegrees>43.27541646547615528106689453125</LatitudeDegrees>
              <LongitudeDegrees>-2.781132571399211883544921875</LongitudeDegrees>
            </Position>
            <AltitudeMeters>104.40000152587890625</AltitudeMeters>
            <DistanceMeters>NAN</DistanceMeters>
          </Trackpoint>
          <Trackpoint>
            <Time>2022-09-24T15:00:44.000Z</Time>
            <Position>
              <LatitudeDegrees>43.27546021901071071624755859375</LatitudeDegrees>
              <LongitudeDegrees>-2.781060822308063507080078125</LongitudeDegrees>
            </Position>
            <AltitudeMeters>104.59999847412109375</AltitudeMeters>
            <DistanceMeters>NAN</DistanceMeters>
          </Trackpoint>
          <Trackpoint>
            <Time>2022-09-24T15:00:45.000Z</Time>
            <Position>
              <LatitudeDegrees>43.2754802517592906951904296875</LatitudeDegrees>
              <LongitudeDegrees>-2.7810261212289333343505859375</LongitudeDegrees>
            </Position>
            <AltitudeMeters>104.8000030517578125</AltitudeMeters>
            <DistanceMeters>NAN</DistanceMeters>
          </Trackpoint>
          <Trackpoint>
            <Time>2022-09-24T15:00:46.000Z</Time>
            <Position>
              <LatitudeDegrees>43.2754802517592906951904296875</LatitudeDegrees>
              <LongitudeDegrees>-2.7810261212289333343505859375</LongitudeDegrees>
            </Position>
            <AltitudeMeters>105</AltitudeMeters>
            <DistanceMeters>NAN</DistanceMeters>
          </Trackpoint>
          <Trackpoint>
            <Time>2022-09-24T15:00:47.000Z</Time>
            <Position>
              <LatitudeDegrees>43.2755164615809917449951171875</LatitudeDegrees>
              <LongitudeDegrees>-2.78094942681491374969482421875</LongitudeDegrees>
            </Position>
            <AltitudeMeters>105.1999969482421875</AltitudeMeters>
            <DistanceMeters>NAN</DistanceMeters>
          </Trackpoint>
          <Trackpoint>
            <Time>2022-09-24T15:00:48.000Z</Time>
            <Position>
              <LatitudeDegrees>43.2755292020738124847412109375</LatitudeDegrees>
              <LongitudeDegrees>-2.78091204352676868438720703125</LongitudeDegrees>
            </Position>
            <AltitudeMeters>105.59999847412109375</AltitudeMeters>
            <DistanceMeters>NAN</DistanceMeters>
          </Trackpoint>
          <Trackpoint>
            <Time>2022-09-24T15:00:49.000Z</Time>
            <Position>
              <LatitudeDegrees>43.2755292020738124847412109375</LatitudeDegrees>
              <LongitudeDegrees>-2.78091204352676868438720703125</LongitudeDegrees>
            </Position>
            <AltitudeMeters>105.59999847412109375</AltitudeMeters>
            <DistanceMeters>NAN</DistanceMeters>
          </Trackpoint>
          <Trackpoint>
            <Time>2022-09-24T15:00:50.000Z</Time>
            <Position>
              <LatitudeDegrees>43.275558538734912872314453125</LatitudeDegrees>
              <LongitudeDegrees>-2.780830822885036468505859375</LongitudeDegrees>
            </Position>
            <AltitudeMeters>105.59999847412109375</AltitudeMeters>
            <DistanceMeters>NAN</DistanceMeters>
          </Trackpoint>
          <Trackpoint>
            <Time>2022-09-24T15:00:51.000Z</Time>
            <Position>
              <LatitudeDegrees>43.27557387761771678924560546875</LatitudeDegrees>
              <LongitudeDegrees>-2.78079201467335224151611328125</LongitudeDegrees>
            </Position>
            <AltitudeMeters>106</AltitudeMeters>
            <DistanceMeters>NAN</DistanceMeters>
          </Trackpoint>
          <Trackpoint>
            <Time>2022-09-24T15:00:52.000Z</Time>
            <Position>
              <LatitudeDegrees>43.27558661811053752899169921875</LatitudeDegrees>
              <LongitudeDegrees>-2.780749686062335968017578125</LongitudeDegrees>
            </Position>
            <AltitudeMeters>106</AltitudeMeters>
            <DistanceMeters>NAN</DistanceMeters>
          </Trackpoint>
          <Trackpoint>
            <Time>2022-09-24T15:00:53.000Z</Time>
            <Position>
              <LatitudeDegrees>43.2756011188030242919921875</LatitudeDegrees>
              <LongitudeDegrees>-2.780707441270351409912109375</LongitudeDegrees>
            </Position>
            <AltitudeMeters>106.40000152587890625</AltitudeMeters>
            <DistanceMeters>NAN</DistanceMeters>
          </Trackpoint>
          <Trackpoint>
            <Time>2022-09-24T15:00:54.000Z</Time>
            <Position>
              <LatitudeDegrees>43.275613524019718170166015625</LatitudeDegrees>
              <LongitudeDegrees>-2.78066896833479404449462890625</LongitudeDegrees>
            </Position>
            <AltitudeMeters>106.59999847412109375</AltitudeMeters>
            <DistanceMeters>NAN</DistanceMeters>
          </Trackpoint>
          <Trackpoint>
            <Time>2022-09-24T15:00:55.000Z</Time>
            <Position>
              <LatitudeDegrees>43.275613524019718170166015625</LatitudeDegrees>
              <LongitudeDegrees>-2.78066896833479404449462890625</LongitudeDegrees>
            </Position>
            <AltitudeMeters>106.59999847412109375</AltitudeMeters>
            <DistanceMeters>NAN</DistanceMeters>
          </Trackpoint>
          <Trackpoint>
            <Time>2022-09-24T15:00:56.000Z</Time>
            <Position>
              <LatitudeDegrees>43.27564311213791370391845703125</LatitudeDegrees>
              <LongitudeDegrees>-2.78058514930307865142822265625</LongitudeDegrees>
            </Position>
            <AltitudeMeters>106.8000030517578125</AltitudeMeters>
            <DistanceMeters>NAN</DistanceMeters>
          </Trackpoint>
          <Trackpoint>
            <Time>2022-09-24T15:00:57.000Z</Time>
            <Position>
              <LatitudeDegrees>43.2756552658975124359130859375</LatitudeDegrees>
              <LongitudeDegrees>-2.7805449999868869781494140625</LongitudeDegrees>
            </Position>
            <AltitudeMeters>106.8000030517578125</AltitudeMeters>
            <DistanceMeters>NAN</DistanceMeters>
          </Trackpoint>
          <Trackpoint>
            <Time>2022-09-24T15:00:58.000Z</Time>
            <Position>
              <LatitudeDegrees>43.2756708562374114990234375</LatitudeDegrees>
              <LongitudeDegrees>-2.78050418011844158172607421875</LongitudeDegrees>
            </Position>
            <AltitudeMeters>107</AltitudeMeters>
            <DistanceMeters>NAN</DistanceMeters>
          </Trackpoint>
          <Trackpoint>
            <Time>2022-09-24T15:00:59.000Z</Time>
            <Position>
              <LatitudeDegrees>43.2756842672824859619140625</LatitudeDegrees>
              <LongitudeDegrees>-2.7804628573358058929443359375</LongitudeDegrees>
            </Position>
            <AltitudeMeters>107.40000152587890625</AltitudeMeters>
            <DistanceMeters>NAN</DistanceMeters>
          </Trackpoint>
          <Trackpoint>
            <Time>2022-09-24T15:01:00.000Z</Time>
            <Position>
              <LatitudeDegrees>43.2756954990327358245849609375</LatitudeDegrees>
              <LongitudeDegrees>-2.7804194390773773193359375</LongitudeDegrees>
            </Position>
            <AltitudeMeters>107.40000152587890625</AltitudeMeters>
            <DistanceMeters>NAN</DistanceMeters>
          </Trackpoint>
          <Trackpoint>
            <Time>2022-09-24T15:01:01.000Z</Time>
            <Position>
              <LatitudeDegrees>43.2757166214287281036376953125</LatitudeDegrees>
              <LongitudeDegrees>-2.7803792059421539306640625</LongitudeDegrees>
            </Position>
            <AltitudeMeters>107.59999847412109375</AltitudeMeters>
            <DistanceMeters>NAN</DistanceMeters>
          </Trackpoint>
          <Trackpoint>
            <Time>2022-09-24T15:01:02.000Z</Time>
            <Position>
              <LatitudeDegrees>43.27573782764375209808349609375</LatitudeDegrees>
              <LongitudeDegrees>-2.7803381346166133880615234375</LongitudeDegrees>
            </Position>
            <AltitudeMeters>108</AltitudeMeters>
            <DistanceMeters>NAN</DistanceMeters>
          </Trackpoint>
          <Trackpoint>
            <Time>2022-09-24T15:01:03.000Z</Time>
            <Position>
              <LatitudeDegrees>43.2757620513439178466796875</LatitudeDegrees>
              <LongitudeDegrees>-2.78029463253915309906005859375</LongitudeDegrees>
            </Position>
            <AltitudeMeters>108.1999969482421875</AltitudeMeters>
            <DistanceMeters>NAN</DistanceMeters>
          </Trackpoint>
          <Trackpoint>
            <Time>2022-09-24T15:01:04.000Z</Time>
            <Position>
              <LatitudeDegrees>43.27577705495059490203857421875</LatitudeDegrees>
              <LongitudeDegrees>-2.7802504599094390869140625</LongitudeDegrees>
            </Position>
            <AltitudeMeters>108.1999969482421875</AltitudeMeters>
            <DistanceMeters>NAN</DistanceMeters>
          </Trackpoint>
          <Trackpoint>
            <Time>2022-09-24T15:01:05.000Z</Time>
            <Position>
              <LatitudeDegrees>43.27578661032021045684814453125</LatitudeDegrees>
              <LongitudeDegrees>-2.78020729310810565948486328125</LongitudeDegrees>
            </Position>
            <AltitudeMeters>108.1999969482421875</AltitudeMeters>
            <DistanceMeters>NAN</DistanceMeters>
          </Trackpoint>
          <Trackpoint>
            <Time>2022-09-24T15:01:06.000Z</Time>
            <Position>
              <LatitudeDegrees>43.27579490840435028076171875</LatitudeDegrees>
              <LongitudeDegrees>-2.780163288116455078125</LongitudeDegrees>
            </Position>
            <AltitudeMeters>108.40000152587890625</AltitudeMeters>
            <DistanceMeters>NAN</DistanceMeters>
          </Trackpoint>
          <Trackpoint>
            <Time>2022-09-24T15:01:07.000Z</Time>
            <Position>
              <LatitudeDegrees>43.27581007964909076690673828125</LatitudeDegrees>
              <LongitudeDegrees>-2.78012079186737537384033203125</LongitudeDegrees>
            </Position>
            <AltitudeMeters>108.59999847412109375</AltitudeMeters>
            <DistanceMeters>NAN</DistanceMeters>
          </Trackpoint>
          <Trackpoint>
            <Time>2022-09-24T15:01:08.000Z</Time>
            <Position>
              <LatitudeDegrees>43.275823406875133514404296875</LatitudeDegrees>
              <LongitudeDegrees>-2.78007921762764453887939453125</LongitudeDegrees>
            </Position>
            <AltitudeMeters>108.59999847412109375</AltitudeMeters>
            <DistanceMeters>NAN</DistanceMeters>
          </Trackpoint>
          <Trackpoint>
            <Time>2022-09-24T15:01:09.000Z</Time>
            <Position>
              <LatitudeDegrees>43.27583505772054195404052734375</LatitudeDegrees>
              <LongitudeDegrees>-2.78003764338791370391845703125</LongitudeDegrees>
            </Position>
            <AltitudeMeters>109</AltitudeMeters>
            <DistanceMeters>NAN</DistanceMeters>
          </Trackpoint>
          <Trackpoint>
            <Time>2022-09-24T15:01:10.000Z</Time>
            <Position>
              <LatitudeDegrees>43.275848217308521270751953125</LatitudeDegrees>
              <LongitudeDegrees>-2.7799968235194683074951171875</LongitudeDegrees>
            </Position>
            <AltitudeMeters>109.1999969482421875</AltitudeMeters>
            <DistanceMeters>NAN</DistanceMeters>
          </Trackpoint>
          <Trackpoint>
            <Time>2022-09-24T15:01:11.000Z</Time>
            <Position>
              <LatitudeDegrees>43.2758567668497562408447265625</LatitudeDegrees>
              <LongitudeDegrees>-2.7799535728991031646728515625</LongitudeDegrees>
            </Position>
            <AltitudeMeters>109.40000152587890625</AltitudeMeters>
            <DistanceMeters>NAN</DistanceMeters>
          </Trackpoint>
          <Trackpoint>
            <Time>2022-09-24T15:01:12.000Z</Time>
            <Position>
              <LatitudeDegrees>43.2758658193051815032958984375</LatitudeDegrees>
              <LongitudeDegrees>-2.7799113281071186065673828125</LongitudeDegrees>
            </Position>
            <AltitudeMeters>109.8000030517578125</AltitudeMeters>
            <DistanceMeters>NAN</DistanceMeters>
          </Trackpoint>
          <Trackpoint>
            <Time>2022-09-24T15:01:13.000Z</Time>
            <Position>
              <LatitudeDegrees>43.2758772186934947967529296875</LatitudeDegrees>
              <LongitudeDegrees>-2.77986162342131137847900390625</LongitudeDegrees>
            </Position>
            <AltitudeMeters>110</AltitudeMeters>
            <DistanceMeters>NAN</DistanceMeters>
          </Trackpoint>
          <Trackpoint>
            <Time>2022-09-24T15:01:14.000Z</Time>
            <Position>
              <LatitudeDegrees>43.27588702552020549774169921875</LatitudeDegrees>
              <LongitudeDegrees>-2.779826335608959197998046875</LongitudeDegrees>
            </Position>
            <AltitudeMeters>110.40000152587890625</AltitudeMeters>
            <DistanceMeters>NAN</DistanceMeters>
          </Trackpoint>
          <Trackpoint>
            <Time>2022-09-24T15:01:15.000Z</Time>
            <Position>
              <LatitudeDegrees>43.27589775435626506805419921875</LatitudeDegrees>
              <LongitudeDegrees>-2.77978249825537204742431640625</LongitudeDegrees>
            </Position>
            <AltitudeMeters>110.40000152587890625</AltitudeMeters>
            <DistanceMeters>NAN</DistanceMeters>
          </Trackpoint>
          <Trackpoint>
            <Time>2022-09-24T15:01:16.000Z</Time>
            <Position>
              <LatitudeDegrees>43.275910913944244384765625</LatitudeDegrees>
              <LongitudeDegrees>-2.7797400020062923431396484375</LongitudeDegrees>
            </Position>
            <AltitudeMeters>110.59999847412109375</AltitudeMeters>
            <DistanceMeters>NAN</DistanceMeters>
          </Trackpoint>
          <Trackpoint>
            <Time>2022-09-24T15:01:17.000Z</Time>
            <Position>
              <LatitudeDegrees>43.2759261690080165863037109375</LatitudeDegrees>
              <LongitudeDegrees>-2.7796977572143077850341796875</LongitudeDegrees>
            </Position>
            <AltitudeMeters>111</AltitudeMeters>
            <DistanceMeters>NAN</DistanceMeters>
          </Trackpoint>
          <Trackpoint>
            <Time>2022-09-24T15:01:18.000Z</Time>
            <Position>
              <LatitudeDegrees>43.27593170106410980224609375</LatitudeDegrees>
              <LongitudeDegrees>-2.77965207584202289581298828125</LongitudeDegrees>
            </Position>
            <AltitudeMeters>111</AltitudeMeters>
            <DistanceMeters>NAN</DistanceMeters>
          </Trackpoint>
          <Trackpoint>
            <Time>2022-09-24T15:01:19.000Z</Time>
            <Position>
              <LatitudeDegrees>43.27593572437763214111328125</LatitudeDegrees>
              <LongitudeDegrees>-2.77960480190813541412353515625</LongitudeDegrees>
            </Position>
            <AltitudeMeters>111</AltitudeMeters>
            <DistanceMeters>NAN</DistanceMeters>
          </Trackpoint>
          <Trackpoint>
            <Time>2022-09-24T15:01:20.000Z</Time>
            <Position>
              <LatitudeDegrees>43.27594016678631305694580078125</LatitudeDegrees>
              <LongitudeDegrees>-2.77955903671681880950927734375</LongitudeDegrees>
            </Position>
            <AltitudeMeters>111</AltitudeMeters>
            <DistanceMeters>NAN</DistanceMeters>
          </Trackpoint>
          <Trackpoint>
            <Time>2022-09-24T15:01:21.000Z</Time>
            <Position>
              <LatitudeDegrees>43.2759395800530910491943359375</LatitudeDegrees>
              <LongitudeDegrees>-2.77951511554419994354248046875</LongitudeDegrees>
            </Position>
            <AltitudeMeters>111.40000152587890625</AltitudeMeters>
            <DistanceMeters>NAN</DistanceMeters>
          </Trackpoint>
          <Trackpoint>
            <Time>2022-09-24T15:01:22.000Z</Time>
            <Position>
              <LatitudeDegrees>43.27593094669282436370849609375</LatitudeDegrees>
              <LongitudeDegrees>-2.77947069145739078521728515625</LongitudeDegrees>
            </Position>
            <AltitudeMeters>111.59999847412109375</AltitudeMeters>
            <DistanceMeters>NAN</DistanceMeters>
          </Trackpoint>
          <Trackpoint>
            <Time>2022-09-24T15:01:23.000Z</Time>
            <Position>
              <LatitudeDegrees>43.27592021785676479339599609375</LatitudeDegrees>
              <LongitudeDegrees>-2.7794308774173259735107421875</LongitudeDegrees>
            </Position>
            <AltitudeMeters>111.8000030517578125</AltitudeMeters>
            <DistanceMeters>NAN</DistanceMeters>
          </Trackpoint>
          <Trackpoint>
            <Time>2022-09-24T15:01:24.000Z</Time>
            <Position>
              <LatitudeDegrees>43.27590831555426120758056640625</LatitudeDegrees>
              <LongitudeDegrees>-2.77939123101532459259033203125</LongitudeDegrees>
            </Position>
            <AltitudeMeters>112</AltitudeMeters>
            <DistanceMeters>NAN</DistanceMeters>
          </Trackpoint>
          <Trackpoint>
            <Time>2022-09-24T15:01:25.000Z</Time>
            <Position>
              <LatitudeDegrees>43.27589272521436214447021484375</LatitudeDegrees>
              <LongitudeDegrees>-2.7793554402887821197509765625</LongitudeDegrees>
            </Position>
            <AltitudeMeters>112.59999847412109375</AltitudeMeters>
            <DistanceMeters>NAN</DistanceMeters>
          </Trackpoint>
          <Trackpoint>
            <Time>2022-09-24T15:01:26.000Z</Time>
            <Position>
              <LatitudeDegrees>43.27587378211319446563720703125</LatitudeDegrees>
              <LongitudeDegrees>-2.7793229185044765472412109375</LongitudeDegrees>
            </Position>
            <AltitudeMeters>112.8000030517578125</AltitudeMeters>
            <DistanceMeters>NAN</DistanceMeters>
          </Trackpoint>
          <Trackpoint>
            <Time>2022-09-24T15:01:27.000Z</Time>
            <Position>
              <LatitudeDegrees>43.27585081569850444793701171875</LatitudeDegrees>
              <LongitudeDegrees>-2.7792920731008052825927734375</LongitudeDegrees>
            </Position>
            <AltitudeMeters>112.8000030517578125</AltitudeMeters>
            <DistanceMeters>NAN</DistanceMeters>
          </Trackpoint>
          <Trackpoint>
            <Time>2022-09-24T15:01:28.000Z</Time>
            <Position>
              <LatitudeDegrees>43.27582835219800472259521484375</LatitudeDegrees>
              <LongitudeDegrees>-2.7792634069919586181640625</LongitudeDegrees>
            </Position>
            <AltitudeMeters>113.1999969482421875</AltitudeMeters>
            <DistanceMeters>NAN</DistanceMeters>
          </Trackpoint>
          <Trackpoint>
            <Time>2022-09-24T15:01:29.000Z</Time>
            <Position>
              <LatitudeDegrees>43.27580655924975872039794921875</LatitudeDegrees>
              <LongitudeDegrees>-2.7792380936443805694580078125</LongitudeDegrees>
            </Position>
            <AltitudeMeters>113.40000152587890625</AltitudeMeters>
            <DistanceMeters>NAN</DistanceMeters>
          </Trackpoint>
          <Trackpoint>
            <Time>2022-09-24T15:01:30.000Z</Time>
            <Position>
              <LatitudeDegrees>43.27578024007380008697509765625</LatitudeDegrees>
              <LongitudeDegrees>-2.77921638451516628265380859375</LongitudeDegrees>
            </Position>
            <AltitudeMeters>113.40000152587890625</AltitudeMeters>
            <DistanceMeters>NAN</DistanceMeters>
          </Trackpoint>
          <Trackpoint>
            <Time>2022-09-24T15:01:31.000Z</Time>
            <Position>
              <LatitudeDegrees>43.27575107105076313018798828125</LatitudeDegrees>
              <LongitudeDegrees>-2.7791928313672542572021484375</LongitudeDegrees>
            </Position>
            <AltitudeMeters>113.59999847412109375</AltitudeMeters>
            <DistanceMeters>NAN</DistanceMeters>
          </Trackpoint>
          <Trackpoint>
            <Time>2022-09-24T15:01:32.000Z</Time>
            <Position>
              <LatitudeDegrees>43.27571519650518894195556640625</LatitudeDegrees>
              <LongitudeDegrees>-2.77916810475289821624755859375</LongitudeDegrees>
            </Position>
            <AltitudeMeters>113.8000030517578125</AltitudeMeters>
            <DistanceMeters>NAN</DistanceMeters>
          </Trackpoint>
          <Trackpoint>
            <Time>2022-09-24T15:01:33.000Z</Time>
            <Position>
              <LatitudeDegrees>43.27568502165377140045166015625</LatitudeDegrees>
              <LongitudeDegrees>-2.77914664708077907562255859375</LongitudeDegrees>
            </Position>
            <AltitudeMeters>114</AltitudeMeters>
            <DistanceMeters>NAN</DistanceMeters>
          </Trackpoint>
          <Trackpoint>
            <Time>2022-09-24T15:01:34.000Z</Time>
            <Position>
              <LatitudeDegrees>43.27565166167914867401123046875</LatitudeDegrees>
              <LongitudeDegrees>-2.77912468649446964263916015625</LongitudeDegrees>
            </Position>
            <AltitudeMeters>114</AltitudeMeters>
            <DistanceMeters>NAN</DistanceMeters>
          </Trackpoint>
          <Trackpoint>
            <Time>2022-09-24T15:01:35.000Z</Time>
            <Position>
              <LatitudeDegrees>43.2756198942661285400390625</LatitudeDegrees>
              <LongitudeDegrees>-2.77910658158361911773681640625</LongitudeDegrees>
            </Position>
            <AltitudeMeters>114.8000030517578125</AltitudeMeters>
            <DistanceMeters>NAN</DistanceMeters>
          </Trackpoint>
          <Trackpoint>
            <Time>2022-09-24T15:01:36.000Z</Time>
            <Position>
              <LatitudeDegrees>43.27558544464409351348876953125</LatitudeDegrees>
              <LongitudeDegrees>-2.779089398682117462158203125</LongitudeDegrees>
            </Position>
            <AltitudeMeters>114.8000030517578125</AltitudeMeters>
            <DistanceMeters>NAN</DistanceMeters>
          </Trackpoint>
          <Trackpoint>
            <Time>2022-09-24T15:01:37.000Z</Time>
            <Position>
              <LatitudeDegrees>43.2755555212497711181640625</LatitudeDegrees>
              <LongitudeDegrees>-2.77907473035156726837158203125</LongitudeDegrees>
            </Position>
            <AltitudeMeters>114.8000030517578125</AltitudeMeters>
            <DistanceMeters>NAN</DistanceMeters>
          </Trackpoint>
          <Trackpoint>
            <Time>2022-09-24T15:01:38.000Z</Time>
            <Position>
              <LatitudeDegrees>43.27552459202706813812255859375</LatitudeDegrees>
              <LongitudeDegrees>-2.77906157076358795166015625</LongitudeDegrees>
            </Position>
            <AltitudeMeters>114.8000030517578125</AltitudeMeters>
            <DistanceMeters>NAN</DistanceMeters>
          </Trackpoint>
          <Trackpoint>
            <Time>2022-09-24T15:01:39.000Z</Time>
            <Position>
              <LatitudeDegrees>43.27549475245177745819091796875</LatitudeDegrees>
              <LongitudeDegrees>-2.7790443040430545806884765625</LongitudeDegrees>
            </Position>
            <AltitudeMeters>115.1999969482421875</AltitudeMeters>
            <DistanceMeters>NAN</DistanceMeters>
          </Trackpoint>
          <Trackpoint>
            <Time>2022-09-24T15:01:40.000Z</Time>
            <Position>
              <LatitudeDegrees>43.275467343628406524658203125</LatitudeDegrees>
              <LongitudeDegrees>-2.7790305577218532562255859375</LongitudeDegrees>
            </Position>
            <AltitudeMeters>115.8000030517578125</AltitudeMeters>
            <DistanceMeters>NAN</DistanceMeters>
          </Trackpoint>
          <Trackpoint>
            <Time>2022-09-24T15:01:41.000Z</Time>
            <Position>
              <LatitudeDegrees>43.2754423655569553375244140625</LatitudeDegrees>
              <LongitudeDegrees>-2.77901605702936649322509765625</LongitudeDegrees>
            </Position>
            <AltitudeMeters>116</AltitudeMeters>
            <DistanceMeters>NAN</DistanceMeters>
          </Trackpoint>
          <Trackpoint>
            <Time>2022-09-24T15:01:42.000Z</Time>
            <Position>
              <LatitudeDegrees>43.2754168845713138580322265625</LatitudeDegrees>
              <LongitudeDegrees>-2.779000885784626007080078125</LongitudeDegrees>
            </Position>
            <AltitudeMeters>116.1999969482421875</AltitudeMeters>
            <DistanceMeters>NAN</DistanceMeters>
          </Trackpoint>
          <Trackpoint>
            <Time>2022-09-24T15:01:43.000Z</Time>
            <Position>
              <LatitudeDegrees>43.27539182268083095550537109375</LatitudeDegrees>
              <LongitudeDegrees>-2.778984121978282928466796875</LongitudeDegrees>
            </Position>
            <AltitudeMeters>116.40000152587890625</AltitudeMeters>
            <DistanceMeters>NAN</DistanceMeters>
          </Trackpoint>
          <Trackpoint>
            <Time>2022-09-24T15:01:44.000Z</Time>
            <Position>
              <LatitudeDegrees>43.27537103556096553802490234375</LatitudeDegrees>
              <LongitudeDegrees>-2.77896341867744922637939453125</LongitudeDegrees>
            </Position>
            <AltitudeMeters>116.40000152587890625</AltitudeMeters>
            <DistanceMeters>NAN</DistanceMeters>
          </Trackpoint>
          <Trackpoint>
            <Time>2022-09-24T15:01:45.000Z</Time>
            <Position>
              <LatitudeDegrees>43.2753498293459415435791015625</LatitudeDegrees>
              <LongitudeDegrees>-2.7789430506527423858642578125</LongitudeDegrees>
            </Position>
            <AltitudeMeters>117</AltitudeMeters>
            <DistanceMeters>NAN</DistanceMeters>
          </Trackpoint>
          <Trackpoint>
            <Time>2022-09-24T15:01:46.000Z</Time>
            <Position>
              <LatitudeDegrees>43.2753273658454418182373046875</LatitudeDegrees>
              <LongitudeDegrees>-2.7789174020290374755859375</LongitudeDegrees>
            </Position>
            <AltitudeMeters>117.1999969482421875</AltitudeMeters>
            <DistanceMeters>NAN</DistanceMeters>
          </Trackpoint>
          <Trackpoint>
            <Time>2022-09-24T15:01:47.000Z</Time>
            <Position>
              <LatitudeDegrees>43.275303058326244354248046875</LatitudeDegrees>
              <LongitudeDegrees>-2.77889938093721866607666015625</LongitudeDegrees>
            </Position>
            <AltitudeMeters>117.40000152587890625</AltitudeMeters>
            <DistanceMeters>NAN</DistanceMeters>
          </Trackpoint>
          <Trackpoint>
            <Time>2022-09-24T15:01:48.000Z</Time>
            <Position>
              <LatitudeDegrees>43.275303058326244354248046875</LatitudeDegrees>
              <LongitudeDegrees>-2.77889938093721866607666015625</LongitudeDegrees>
            </Position>
            <AltitudeMeters>117.40000152587890625</AltitudeMeters>
            <DistanceMeters>NAN</DistanceMeters>
          </Trackpoint>
          <Trackpoint>
            <Time>2022-09-24T15:01:49.000Z</Time>
            <Position>
              <LatitudeDegrees>43.27525846660137176513671875</LatitudeDegrees>
              <LongitudeDegrees>-2.778858728706836700439453125</LongitudeDegrees>
            </Position>
            <AltitudeMeters>117.59999847412109375</AltitudeMeters>
            <DistanceMeters>NAN</DistanceMeters>
          </Trackpoint>
          <Trackpoint>
            <Time>2022-09-24T15:01:50.000Z</Time>
            <Position>
              <LatitudeDegrees>43.27523432672023773193359375</LatitudeDegrees>
              <LongitudeDegrees>-2.77882897295057773590087890625</LongitudeDegrees>
            </Position>
            <AltitudeMeters>117.59999847412109375</AltitudeMeters>
            <DistanceMeters>NAN</DistanceMeters>
          </Trackpoint>
          <Trackpoint>
            <Time>2022-09-24T15:01:51.000Z</Time>
            <Position>
              <LatitudeDegrees>43.275211863219738006591796875</LatitudeDegrees>
              <LongitudeDegrees>-2.77879427187144756317138671875</LongitudeDegrees>
            </Position>
            <AltitudeMeters>117.8000030517578125</AltitudeMeters>
            <DistanceMeters>NAN</DistanceMeters>
          </Trackpoint>
          <Trackpoint>
            <Time>2022-09-24T15:01:52.000Z</Time>
            <Position>
              <LatitudeDegrees>43.27519317157566547393798828125</LatitudeDegrees>
              <LongitudeDegrees>-2.77875982224941253662109375</LongitudeDegrees>
            </Position>
            <AltitudeMeters>118</AltitudeMeters>
            <DistanceMeters>NAN</DistanceMeters>
          </Trackpoint>
          <Trackpoint>
            <Time>2022-09-24T15:01:53.000Z</Time>
            <Position>
              <LatitudeDegrees>43.2751771621406078338623046875</LatitudeDegrees>
              <LongitudeDegrees>-2.7787227742373943328857421875</LongitudeDegrees>
            </Position>
            <AltitudeMeters>118.40000152587890625</AltitudeMeters>
            <DistanceMeters>NAN</DistanceMeters>
          </Trackpoint>
          <Trackpoint>
            <Time>2022-09-24T15:01:54.000Z</Time>
            <Position>
              <LatitudeDegrees>43.275159560143947601318359375</LatitudeDegrees>
              <LongitudeDegrees>-2.7786848880350589752197265625</LongitudeDegrees>
            </Position>
            <AltitudeMeters>118.59999847412109375</AltitudeMeters>
            <DistanceMeters>NAN</DistanceMeters>
          </Trackpoint>
          <Trackpoint>
            <Time>2022-09-24T15:01:55.000Z</Time>
            <Position>
              <LatitudeDegrees>43.27514690347015857696533203125</LatitudeDegrees>
              <LongitudeDegrees>-2.77864708565175533294677734375</LongitudeDegrees>
            </Position>
            <AltitudeMeters>118.8000030517578125</AltitudeMeters>
            <DistanceMeters>NAN</DistanceMeters>
          </Trackpoint>
          <Trackpoint>
            <Time>2022-09-24T15:01:56.000Z</Time>
            <Position>
              <LatitudeDegrees>43.2751342467963695526123046875</LatitudeDegrees>
              <LongitudeDegrees>-2.7786124683916568756103515625</LongitudeDegrees>
            </Position>
            <AltitudeMeters>118.8000030517578125</AltitudeMeters>
            <DistanceMeters>NAN</DistanceMeters>
          </Trackpoint>
          <Trackpoint>
            <Time>2022-09-24T15:01:57.000Z</Time>
            <Position>
              <LatitudeDegrees>43.27512645162642002105712890625</LatitudeDegrees>
              <LongitudeDegrees>-2.77857416309416294097900390625</LongitudeDegrees>
            </Position>
            <AltitudeMeters>119.1999969482421875</AltitudeMeters>
            <DistanceMeters>NAN</DistanceMeters>
          </Trackpoint>
          <Trackpoint>
            <Time>2022-09-24T15:01:58.000Z</Time>
            <Position>
              <LatitudeDegrees>43.27512108720839023590087890625</LatitudeDegrees>
              <LongitudeDegrees>-2.7785333432257175445556640625</LongitudeDegrees>
            </Position>
            <AltitudeMeters>119.1999969482421875</AltitudeMeters>
            <DistanceMeters>NAN</DistanceMeters>
          </Trackpoint>
          <Trackpoint>
            <Time>2022-09-24T15:01:59.000Z</Time>
            <Position>
              <LatitudeDegrees>43.27512033283710479736328125</LatitudeDegrees>
              <LongitudeDegrees>-2.77849428355693817138671875</LongitudeDegrees>
            </Position>
            <AltitudeMeters>119.1999969482421875</AltitudeMeters>
            <DistanceMeters>NAN</DistanceMeters>
          </Trackpoint>
          <Trackpoint>
            <Time>2022-09-24T15:02:00.000Z</Time>
            <Position>
              <LatitudeDegrees>43.27512125484645366668701171875</LatitudeDegrees>
              <LongitudeDegrees>-2.7784545533359050750732421875</LongitudeDegrees>
            </Position>
            <AltitudeMeters>119.1999969482421875</AltitudeMeters>
            <DistanceMeters>NAN</DistanceMeters>
          </Trackpoint>
          <Trackpoint>
            <Time>2022-09-24T15:02:01.000Z</Time>
            <Position>
              <LatitudeDegrees>43.27512226067483425140380859375</LatitudeDegrees>
              <LongitudeDegrees>-2.7784129790961742401123046875</LongitudeDegrees>
            </Position>
            <AltitudeMeters>119.8000030517578125</AltitudeMeters>
            <DistanceMeters>NAN</DistanceMeters>
          </Trackpoint>
          <Trackpoint>
            <Time>2022-09-24T15:02:02.000Z</Time>
            <Position>
              <LatitudeDegrees>43.2751198299229145050048828125</LatitudeDegrees>
              <LongitudeDegrees>-2.77837215922772884368896484375</LongitudeDegrees>
            </Position>
            <AltitudeMeters>120.1999969482421875</AltitudeMeters>
            <DistanceMeters>NAN</DistanceMeters>
          </Trackpoint>
          <Trackpoint>
            <Time>2022-09-24T15:02:03.000Z</Time>
            <Position>
              <LatitudeDegrees>43.2751194946467876434326171875</LatitudeDegrees>
              <LongitudeDegrees>-2.77833159081637859344482421875</LongitudeDegrees>
            </Position>
            <AltitudeMeters>120.1999969482421875</AltitudeMeters>
            <DistanceMeters>NAN</DistanceMeters>
          </Trackpoint>
          <Trackpoint>
            <Time>2022-09-24T15:02:04.000Z</Time>
            <Position>
              <LatitudeDegrees>43.275121338665485382080078125</LatitudeDegrees>
              <LongitudeDegrees>-2.77829043567180633544921875</LongitudeDegrees>
            </Position>
            <AltitudeMeters>120.40000152587890625</AltitudeMeters>
            <DistanceMeters>NAN</DistanceMeters>
          </Trackpoint>
          <Trackpoint>
            <Time>2022-09-24T15:02:05.000Z</Time>
            <Position>
              <LatitudeDegrees>43.2751272059977054595947265625</LatitudeDegrees>
              <LongitudeDegrees>-2.7782490290701389312744140625</LongitudeDegrees>
            </Position>
            <AltitudeMeters>120.40000152587890625</AltitudeMeters>
            <DistanceMeters>NAN</DistanceMeters>
          </Trackpoint>
          <Trackpoint>
            <Time>2022-09-24T15:02:06.000Z</Time>
            <Position>
              <LatitudeDegrees>43.27513265423476696014404296875</LatitudeDegrees>
              <LongitudeDegrees>-2.77820703573524951934814453125</LongitudeDegrees>
            </Position>
            <AltitudeMeters>120.59999847412109375</AltitudeMeters>
            <DistanceMeters>NAN</DistanceMeters>
          </Trackpoint>
          <Trackpoint>
            <Time>2022-09-24T15:02:07.000Z</Time>
            <Position>
              <LatitudeDegrees>43.2751375995576381683349609375</LatitudeDegrees>
              <LongitudeDegrees>-2.778167389333248138427734375</LongitudeDegrees>
            </Position>
            <AltitudeMeters>120.8000030517578125</AltitudeMeters>
            <DistanceMeters>NAN</DistanceMeters>
          </Trackpoint>
          <Trackpoint>
            <Time>2022-09-24T15:02:08.000Z</Time>
            <Position>
              <LatitudeDegrees>43.27514321543276309967041015625</LatitudeDegrees>
              <LongitudeDegrees>-2.7781269885599613189697265625</LongitudeDegrees>
            </Position>
            <AltitudeMeters>120.8000030517578125</AltitudeMeters>
            <DistanceMeters>NAN</DistanceMeters>
          </Trackpoint>
          <Trackpoint>
            <Time>2022-09-24T15:02:09.000Z</Time>
            <Position>
              <LatitudeDegrees>43.2751479931175708770751953125</LatitudeDegrees>
              <LongitudeDegrees>-2.77808499522507190704345703125</LongitudeDegrees>
            </Position>
            <AltitudeMeters>121.1999969482421875</AltitudeMeters>
            <DistanceMeters>NAN</DistanceMeters>
          </Trackpoint>
          <Trackpoint>
            <Time>2022-09-24T15:02:10.000Z</Time>
            <Position>
              <LatitudeDegrees>43.27515210025012493133544921875</LatitudeDegrees>
              <LongitudeDegrees>-2.77804509736597537994384765625</LongitudeDegrees>
            </Position>
            <AltitudeMeters>121.40000152587890625</AltitudeMeters>
            <DistanceMeters>NAN</DistanceMeters>
          </Trackpoint>
          <Trackpoint>
            <Time>2022-09-24T15:02:11.000Z</Time>
            <Position>
              <LatitudeDegrees>43.2751580514013767242431640625</LatitudeDegrees>
              <LongitudeDegrees>-2.7780056186020374298095703125</LongitudeDegrees>
            </Position>
            <AltitudeMeters>121.59999847412109375</AltitudeMeters>
            <DistanceMeters>NAN</DistanceMeters>
          </Trackpoint>
          <Trackpoint>
            <Time>2022-09-24T15:02:12.000Z</Time>
            <Position>
              <LatitudeDegrees>43.275165259838104248046875</LatitudeDegrees>
              <LongitudeDegrees>-2.7779640443623065948486328125</LongitudeDegrees>
            </Position>
            <AltitudeMeters>121.8000030517578125</AltitudeMeters>
            <DistanceMeters>NAN</DistanceMeters>
          </Trackpoint>
          <Trackpoint>
            <Time>2022-09-24T15:02:13.000Z</Time>
            <Position>
              <LatitudeDegrees>43.27517322264611721038818359375</LatitudeDegrees>
              <LongitudeDegrees>-2.777920626103878021240234375</LongitudeDegrees>
            </Position>
            <AltitudeMeters>122</AltitudeMeters>
            <DistanceMeters>NAN</DistanceMeters>
          </Trackpoint>
          <Trackpoint>
            <Time>2022-09-24T15:02:14.000Z</Time>
            <Position>
              <LatitudeDegrees>43.2751831971108913421630859375</LatitudeDegrees>
              <LongitudeDegrees>-2.77787980623543262481689453125</LongitudeDegrees>
            </Position>
            <AltitudeMeters>122.1999969482421875</AltitudeMeters>
            <DistanceMeters>NAN</DistanceMeters>
          </Trackpoint>
          <Trackpoint>
            <Time>2022-09-24T15:02:15.000Z</Time>
            <Position>
              <LatitudeDegrees>43.2751952670514583587646484375</LatitudeDegrees>
              <LongitudeDegrees>-2.77783890254795551300048828125</LongitudeDegrees>
            </Position>
            <AltitudeMeters>122.59999847412109375</AltitudeMeters>
            <DistanceMeters>NAN</DistanceMeters>
          </Trackpoint>
          <Trackpoint>
            <Time>2022-09-24T15:02:16.000Z</Time>
            <Position>
              <LatitudeDegrees>43.27520348131656646728515625</LatitudeDegrees>
              <LongitudeDegrees>-2.7777989208698272705078125</LongitudeDegrees>
            </Position>
            <AltitudeMeters>123</AltitudeMeters>
            <DistanceMeters>NAN</DistanceMeters>
          </Trackpoint>
          <Trackpoint>
            <Time>2022-09-24T15:02:17.000Z</Time>
            <Position>
              <LatitudeDegrees>43.27521345578134059906005859375</LatitudeDegrees>
              <LongitudeDegrees>-2.77775759808719158172607421875</LongitudeDegrees>
            </Position>
            <AltitudeMeters>123</AltitudeMeters>
            <DistanceMeters>NAN</DistanceMeters>
          </Trackpoint>
          <Trackpoint>
            <Time>2022-09-24T15:02:18.000Z</Time>
            <Position>
              <LatitudeDegrees>43.27522116713225841522216796875</LatitudeDegrees>
              <LongitudeDegrees>-2.7777176164090633392333984375</LongitudeDegrees>
            </Position>
            <AltitudeMeters>123.1999969482421875</AltitudeMeters>
            <DistanceMeters>NAN</DistanceMeters>
          </Trackpoint>
          <Trackpoint>
            <Time>2022-09-24T15:02:19.000Z</Time>
            <Position>
              <LatitudeDegrees>43.2752287946641445159912109375</LatitudeDegrees>
              <LongitudeDegrees>-2.77767428196966648101806640625</LongitudeDegrees>
            </Position>
            <AltitudeMeters>123.40000152587890625</AltitudeMeters>
            <DistanceMeters>NAN</DistanceMeters>
          </Trackpoint>
          <Trackpoint>
            <Time>2022-09-24T15:02:20.000Z</Time>
            <Position>
              <LatitudeDegrees>43.27523625455796718597412109375</LatitudeDegrees>
              <LongitudeDegrees>-2.77763404883444309234619140625</LongitudeDegrees>
            </Position>
            <AltitudeMeters>124</AltitudeMeters>
            <DistanceMeters>NAN</DistanceMeters>
          </Trackpoint>
          <Trackpoint>
            <Time>2022-09-24T15:02:21.000Z</Time>
            <Position>
              <LatitudeDegrees>43.275249414145946502685546875</LatitudeDegrees>
              <LongitudeDegrees>-2.77759247459471225738525390625</LongitudeDegrees>
            </Position>
            <AltitudeMeters>124</AltitudeMeters>
            <DistanceMeters>NAN</DistanceMeters>
          </Trackpoint>
          <Trackpoint>
            <Time>2022-09-24T15:02:22.000Z</Time>
            <Position>
              <LatitudeDegrees>43.27526173554360866546630859375</LatitudeDegrees>
              <LongitudeDegrees>-2.7775496430695056915283203125</LongitudeDegrees>
            </Position>
            <AltitudeMeters>124.40000152587890625</AltitudeMeters>
            <DistanceMeters>NAN</DistanceMeters>
          </Trackpoint>
          <Trackpoint>
            <Time>2022-09-24T15:02:23.000Z</Time>
            <Position>
              <LatitudeDegrees>43.27527053654193878173828125</LatitudeDegrees>
              <LongitudeDegrees>-2.7775092422962188720703125</LongitudeDegrees>
            </Position>
            <AltitudeMeters>124.40000152587890625</AltitudeMeters>
            <DistanceMeters>NAN</DistanceMeters>
          </Trackpoint>
          <Trackpoint>
            <Time>2022-09-24T15:02:24.000Z</Time>
            <Position>
              <LatitudeDegrees>43.27527967281639575958251953125</LatitudeDegrees>
              <LongitudeDegrees>-2.77746808715164661407470703125</LongitudeDegrees>
            </Position>
            <AltitudeMeters>124.8000030517578125</AltitudeMeters>
            <DistanceMeters>NAN</DistanceMeters>
          </Trackpoint>
          <Trackpoint>
            <Time>2022-09-24T15:02:25.000Z</Time>
            <Position>
              <LatitudeDegrees>43.27528838999569416046142578125</LatitudeDegrees>
              <LongitudeDegrees>-2.7774259261786937713623046875</LongitudeDegrees>
            </Position>
            <AltitudeMeters>125</AltitudeMeters>
            <DistanceMeters>NAN</DistanceMeters>
          </Trackpoint>
          <Trackpoint>
            <Time>2022-09-24T15:02:26.000Z</Time>
            <Position>
              <LatitudeDegrees>43.27530129812657833099365234375</LatitudeDegrees>
              <LongitudeDegrees>-2.7773843519389629364013671875</LongitudeDegrees>
            </Position>
            <AltitudeMeters>125</AltitudeMeters>
            <DistanceMeters>NAN</DistanceMeters>
          </Trackpoint>
          <Trackpoint>
            <Time>2022-09-24T15:02:27.000Z</Time>
            <Position>
              <LatitudeDegrees>43.27531202696263790130615234375</LatitudeDegrees>
              <LongitudeDegrees>-2.77734537608921527862548828125</LongitudeDegrees>
            </Position>
            <AltitudeMeters>125.1999969482421875</AltitudeMeters>
            <DistanceMeters>NAN</DistanceMeters>
          </Trackpoint>
          <Trackpoint>
            <Time>2022-09-24T15:02:28.000Z</Time>
            <Position>
              <LatitudeDegrees>43.27532376162707805633544921875</LatitudeDegrees>
              <LongitudeDegrees>-2.7773055620491504669189453125</LongitudeDegrees>
            </Position>
            <AltitudeMeters>125.1999969482421875</AltitudeMeters>
            <DistanceMeters>NAN</DistanceMeters>
          </Trackpoint>
          <Trackpoint>
            <Time>2022-09-24T15:02:29.000Z</Time>
            <Position>
              <LatitudeDegrees>43.27533633448183536529541015625</LatitudeDegrees>
              <LongitudeDegrees>-2.77726474218070507049560546875</LongitudeDegrees>
            </Position>
            <AltitudeMeters>125.1999969482421875</AltitudeMeters>
            <DistanceMeters>NAN</DistanceMeters>
          </Trackpoint>
          <Trackpoint>
            <Time>2022-09-24T15:02:30.000Z</Time>
            <Position>
              <LatitudeDegrees>43.27534857206046581268310546875</LatitudeDegrees>
              <LongitudeDegrees>-2.77722467668354511260986328125</LongitudeDegrees>
            </Position>
            <AltitudeMeters>125.40000152587890625</AltitudeMeters>
            <DistanceMeters>NAN</DistanceMeters>
          </Trackpoint>
          <Trackpoint>
            <Time>2022-09-24T15:02:31.000Z</Time>
            <Position>
              <LatitudeDegrees>43.27536097727715969085693359375</LatitudeDegrees>
              <LongitudeDegrees>-2.77718670666217803955078125</LongitudeDegrees>
            </Position>
            <AltitudeMeters>125.8000030517578125</AltitudeMeters>
            <DistanceMeters>NAN</DistanceMeters>
          </Trackpoint>
          <Trackpoint>
            <Time>2022-09-24T15:02:32.000Z</Time>
            <Position>
              <LatitudeDegrees>43.2753686048090457916259765625</LatitudeDegrees>
              <LongitudeDegrees>-2.7771473117172718048095703125</LongitudeDegrees>
            </Position>
            <AltitudeMeters>126</AltitudeMeters>
            <DistanceMeters>NAN</DistanceMeters>
          </Trackpoint>
          <Trackpoint>
            <Time>2022-09-24T15:02:33.000Z</Time>
            <Position>
              <LatitudeDegrees>43.2753820158541202545166015625</LatitudeDegrees>
              <LongitudeDegrees>-2.77710448019206523895263671875</LongitudeDegrees>
            </Position>
            <AltitudeMeters>126.1999969482421875</AltitudeMeters>
            <DistanceMeters>NAN</DistanceMeters>
          </Trackpoint>
          <Trackpoint>
            <Time>2022-09-24T15:02:34.000Z</Time>
            <Position>
              <LatitudeDegrees>43.27539484016597270965576171875</LatitudeDegrees>
              <LongitudeDegrees>-2.77705988846719264984130859375</LongitudeDegrees>
            </Position>
            <AltitudeMeters>126.40000152587890625</AltitudeMeters>
            <DistanceMeters>NAN</DistanceMeters>
          </Trackpoint>
          <Trackpoint>
            <Time>2022-09-24T15:02:35.000Z</Time>
            <Position>
              <LatitudeDegrees>43.27540464699268341064453125</LatitudeDegrees>
              <LongitudeDegrees>-2.77702904306352138519287109375</LongitudeDegrees>
            </Position>
            <AltitudeMeters>126.59999847412109375</AltitudeMeters>
            <DistanceMeters>NAN</DistanceMeters>
          </Trackpoint>
          <Trackpoint>
            <Time>2022-09-24T15:02:36.000Z</Time>
            <Position>
              <LatitudeDegrees>43.27541696839034557342529296875</LatitudeDegrees>
              <LongitudeDegrees>-2.77699149213731288909912109375</LongitudeDegrees>
            </Position>
            <AltitudeMeters>126.59999847412109375</AltitudeMeters>
            <DistanceMeters>NAN</DistanceMeters>
          </Trackpoint>
          <Trackpoint>
            <Time>2022-09-24T15:02:37.000Z</Time>
            <Position>
              <LatitudeDegrees>43.2754185609519481658935546875</LatitudeDegrees>
              <LongitudeDegrees>-2.77695327065885066986083984375</LongitudeDegrees>
            </Position>
            <AltitudeMeters>127.1999969482421875</AltitudeMeters>
            <DistanceMeters>NAN</DistanceMeters>
          </Trackpoint>
          <Trackpoint>
            <Time>2022-09-24T15:02:38.000Z</Time>
            <Position>
              <LatitudeDegrees>43.27542920596897602081298828125</LatitudeDegrees>
              <LongitudeDegrees>-2.77691504918038845062255859375</LongitudeDegrees>
            </Position>
            <AltitudeMeters>127.40000152587890625</AltitudeMeters>
            <DistanceMeters>NAN</DistanceMeters>
          </Trackpoint>
          <Trackpoint>
            <Time>2022-09-24T15:02:39.000Z</Time>
            <Position>
              <LatitudeDegrees>43.2754416950047016143798828125</LatitudeDegrees>
              <LongitudeDegrees>-2.776873894035816192626953125</LongitudeDegrees>
            </Position>
            <AltitudeMeters>127.8000030517578125</AltitudeMeters>
            <DistanceMeters>NAN</DistanceMeters>
          </Trackpoint>
          <Trackpoint>
            <Time>2022-09-24T15:02:40.000Z</Time>
            <Position>
              <LatitudeDegrees>43.27545116655528545379638671875</LatitudeDegrees>
              <LongitudeDegrees>-2.776831649243831634521484375</LongitudeDegrees>
            </Position>
            <AltitudeMeters>127.8000030517578125</AltitudeMeters>
            <DistanceMeters>NAN</DistanceMeters>
          </Trackpoint>
          <Trackpoint>
            <Time>2022-09-24T15:02:41.000Z</Time>
            <Position>
              <LatitudeDegrees>43.27546021901071071624755859375</LatitudeDegrees>
              <LongitudeDegrees>-2.77678906917572021484375</LongitudeDegrees>
            </Position>
            <AltitudeMeters>128</AltitudeMeters>
            <DistanceMeters>NAN</DistanceMeters>
          </Trackpoint>
          <Trackpoint>
            <Time>2022-09-24T15:02:42.000Z</Time>
            <Position>
              <LatitudeDegrees>43.27547010965645313262939453125</LatitudeDegrees>
              <LongitudeDegrees>-2.77674942277371883392333984375</LongitudeDegrees>
            </Position>
            <AltitudeMeters>128.1999969482421875</AltitudeMeters>
            <DistanceMeters>NAN</DistanceMeters>
          </Trackpoint>
          <Trackpoint>
            <Time>2022-09-24T15:02:43.000Z</Time>
            <Position>
              <LatitudeDegrees>43.27548167668282985687255859375</LatitudeDegrees>
              <LongitudeDegrees>-2.7767104469239711761474609375</LongitudeDegrees>
            </Position>
            <AltitudeMeters>128.399993896484375</AltitudeMeters>
            <DistanceMeters>NAN</DistanceMeters>
          </Trackpoint>
          <Trackpoint>
            <Time>2022-09-24T15:02:44.000Z</Time>
            <Position>
              <LatitudeDegrees>43.2754933275282382965087890625</LatitudeDegrees>
              <LongitudeDegrees>-2.77667147107422351837158203125</LongitudeDegrees>
            </Position>
            <AltitudeMeters>128.8000030517578125</AltitudeMeters>
            <DistanceMeters>NAN</DistanceMeters>
          </Trackpoint>
          <Trackpoint>
            <Time>2022-09-24T15:02:45.000Z</Time>
            <Position>
              <LatitudeDegrees>43.275505565106868743896484375</LatitudeDegrees>
              <LongitudeDegrees>-2.7766329981386661529541015625</LongitudeDegrees>
            </Position>
            <AltitudeMeters>128.8000030517578125</AltitudeMeters>
            <DistanceMeters>NAN</DistanceMeters>
          </Trackpoint>
          <Trackpoint>
            <Time>2022-09-24T15:02:46.000Z</Time>
            <Position>
              <LatitudeDegrees>43.27551838941872119903564453125</LatitudeDegrees>
              <LongitudeDegrees>-2.77659486047923564910888671875</LongitudeDegrees>
            </Position>
            <AltitudeMeters>129</AltitudeMeters>
            <DistanceMeters>NAN</DistanceMeters>
          </Trackpoint>
          <Trackpoint>
            <Time>2022-09-24T15:02:47.000Z</Time>
            <Position>
              <LatitudeDegrees>43.2755305431783199310302734375</LatitudeDegrees>
              <LongitudeDegrees>-2.776552699506282806396484375</LongitudeDegrees>
            </Position>
            <AltitudeMeters>129.399993896484375</AltitudeMeters>
            <DistanceMeters>NAN</DistanceMeters>
          </Trackpoint>
          <Trackpoint>
            <Time>2022-09-24T15:02:48.000Z</Time>
            <Position>
              <LatitudeDegrees>43.2755432836711406707763671875</LatitudeDegrees>
              <LongitudeDegrees>-2.7765106223523616790771484375</LongitudeDegrees>
            </Position>
            <AltitudeMeters>129.600006103515625</AltitudeMeters>
            <DistanceMeters>NAN</DistanceMeters>
          </Trackpoint>
          <Trackpoint>
            <Time>2022-09-24T15:02:49.000Z</Time>
            <Position>
              <LatitudeDegrees>43.2755583710968494415283203125</LatitudeDegrees>
              <LongitudeDegrees>-2.776469886302947998046875</LongitudeDegrees>
            </Position>
            <AltitudeMeters>129.8000030517578125</AltitudeMeters>
            <DistanceMeters>NAN</DistanceMeters>
          </Trackpoint>
          <Trackpoint>
            <Time>2022-09-24T15:02:50.000Z</Time>
            <Position>
              <LatitudeDegrees>43.275572955608367919921875</LatitudeDegrees>
              <LongitudeDegrees>-2.776431329548358917236328125</LongitudeDegrees>
            </Position>
            <AltitudeMeters>129.8000030517578125</AltitudeMeters>
            <DistanceMeters>NAN</DistanceMeters>
          </Trackpoint>
          <Trackpoint>
            <Time>2022-09-24T15:02:51.000Z</Time>
            <Position>
              <LatitudeDegrees>43.2755851931869983673095703125</LatitudeDegrees>
              <LongitudeDegrees>-2.77639000676572322845458984375</LongitudeDegrees>
            </Position>
            <AltitudeMeters>130</AltitudeMeters>
            <DistanceMeters>NAN</DistanceMeters>
          </Trackpoint>
          <Trackpoint>
            <Time>2022-09-24T15:02:52.000Z</Time>
            <Position>
              <LatitudeDegrees>43.2755945809185504913330078125</LatitudeDegrees>
              <LongitudeDegrees>-2.77634776197373867034912109375</LongitudeDegrees>
            </Position>
            <AltitudeMeters>130.600006103515625</AltitudeMeters>
            <DistanceMeters>NAN</DistanceMeters>
          </Trackpoint>
          <Trackpoint>
            <Time>2022-09-24T15:02:53.000Z</Time>
            <Position>
              <LatitudeDegrees>43.2756043039262294769287109375</LatitudeDegrees>
              <LongitudeDegrees>-2.77630669064819812774658203125</LongitudeDegrees>
            </Position>
            <AltitudeMeters>131</AltitudeMeters>
            <DistanceMeters>NAN</DistanceMeters>
          </Trackpoint>
          <Trackpoint>
            <Time>2022-09-24T15:02:54.000Z</Time>
            <Position>
              <LatitudeDegrees>43.275614865124225616455078125</LatitudeDegrees>
              <LongitudeDegrees>-2.77626444585621356964111328125</LongitudeDegrees>
            </Position>
            <AltitudeMeters>131</AltitudeMeters>
            <DistanceMeters>NAN</DistanceMeters>
          </Trackpoint>
          <Trackpoint>
            <Time>2022-09-24T15:02:55.000Z</Time>
            <Position>
              <LatitudeDegrees>43.27562416903674602508544921875</LatitudeDegrees>
              <LongitudeDegrees>-2.7762222848832607269287109375</LongitudeDegrees>
            </Position>
            <AltitudeMeters>131.1999969482421875</AltitudeMeters>
            <DistanceMeters>NAN</DistanceMeters>
          </Trackpoint>
          <Trackpoint>
            <Time>2022-09-24T15:02:56.000Z</Time>
            <Position>
              <LatitudeDegrees>43.2756351493299007415771484375</LatitudeDegrees>
              <LongitudeDegrees>-2.77618062682449817657470703125</LongitudeDegrees>
            </Position>
            <AltitudeMeters>131.600006103515625</AltitudeMeters>
            <DistanceMeters>NAN</DistanceMeters>
          </Trackpoint>
          <Trackpoint>
            <Time>2022-09-24T15:02:57.000Z</Time>
            <Position>
              <LatitudeDegrees>43.27564713545143604278564453125</LatitudeDegrees>
              <LongitudeDegrees>-2.77613838203251361846923828125</LongitudeDegrees>
            </Position>
            <AltitudeMeters>131.600006103515625</AltitudeMeters>
            <DistanceMeters>NAN</DistanceMeters>
          </Trackpoint>
          <Trackpoint>
            <Time>2022-09-24T15:02:58.000Z</Time>
            <Position>
              <LatitudeDegrees>43.27565769664943218231201171875</LatitudeDegrees>
              <LongitudeDegrees>-2.77609798125922679901123046875</LongitudeDegrees>
            </Position>
            <AltitudeMeters>131.8000030517578125</AltitudeMeters>
            <DistanceMeters>NAN</DistanceMeters>
          </Trackpoint>
          <Trackpoint>
            <Time>2022-09-24T15:02:59.000Z</Time>
            <Position>
              <LatitudeDegrees>43.2756681740283966064453125</LatitudeDegrees>
              <LongitudeDegrees>-2.77605774812400341033935546875</LongitudeDegrees>
            </Position>
            <AltitudeMeters>132</AltitudeMeters>
            <DistanceMeters>NAN</DistanceMeters>
          </Trackpoint>
          <Trackpoint>
            <Time>2022-09-24T15:03:00.000Z</Time>
            <Position>
              <LatitudeDegrees>43.2756804116070270538330078125</LatitudeDegrees>
              <LongitudeDegrees>-2.7760164253413677215576171875</LongitudeDegrees>
            </Position>
            <AltitudeMeters>132</AltitudeMeters>
            <DistanceMeters>NAN</DistanceMeters>
          </Trackpoint>
          <Trackpoint>
            <Time>2022-09-24T15:03:01.000Z</Time>
            <Position>
              <LatitudeDegrees>43.275690972805023193359375</LatitudeDegrees>
              <LongitudeDegrees>-2.77597426436841487884521484375</LongitudeDegrees>
            </Position>
            <AltitudeMeters>132.399993896484375</AltitudeMeters>
            <DistanceMeters>NAN</DistanceMeters>
          </Trackpoint>
          <Trackpoint>
            <Time>2022-09-24T15:03:02.000Z</Time>
            <Position>
              <LatitudeDegrees>43.2757005281746387481689453125</LatitudeDegrees>
              <LongitudeDegrees>-2.77593453414738178253173828125</LongitudeDegrees>
            </Position>
            <AltitudeMeters>132.8000030517578125</AltitudeMeters>
            <DistanceMeters>NAN</DistanceMeters>
          </Trackpoint>
          <Trackpoint>
            <Time>2022-09-24T15:03:03.000Z</Time>
            <Position>
              <LatitudeDegrees>43.275712430477142333984375</LatitudeDegrees>
              <LongitudeDegrees>-2.775893546640872955322265625</LongitudeDegrees>
            </Position>
            <AltitudeMeters>133</AltitudeMeters>
            <DistanceMeters>NAN</DistanceMeters>
          </Trackpoint>
          <Trackpoint>
            <Time>2022-09-24T15:03:04.000Z</Time>
            <Position>
              <LatitudeDegrees>43.27572726644575595855712890625</LatitudeDegrees>
              <LongitudeDegrees>-2.77585205622017383575439453125</LongitudeDegrees>
            </Position>
            <AltitudeMeters>133</AltitudeMeters>
            <DistanceMeters>NAN</DistanceMeters>
          </Trackpoint>
          <Trackpoint>
            <Time>2022-09-24T15:03:05.000Z</Time>
            <Position>
              <LatitudeDegrees>43.27574134804308414459228515625</LatitudeDegrees>
              <LongitudeDegrees>-2.77580930851399898529052734375</LongitudeDegrees>
            </Position>
            <AltitudeMeters>133.399993896484375</AltitudeMeters>
            <DistanceMeters>NAN</DistanceMeters>
          </Trackpoint>
          <Trackpoint>
            <Time>2022-09-24T15:03:06.000Z</Time>
            <Position>
              <LatitudeDegrees>43.2757581956684589385986328125</LatitudeDegrees>
              <LongitudeDegrees>-2.77576379477977752685546875</LongitudeDegrees>
            </Position>
            <AltitudeMeters>133.600006103515625</AltitudeMeters>
            <DistanceMeters>NAN</DistanceMeters>
          </Trackpoint>
          <Trackpoint>
            <Time>2022-09-24T15:03:07.000Z</Time>
            <Position>
              <LatitudeDegrees>43.275772444903850555419921875</LatitudeDegrees>
              <LongitudeDegrees>-2.7757183648645877838134765625</LongitudeDegrees>
            </Position>
            <AltitudeMeters>133.600006103515625</AltitudeMeters>
            <DistanceMeters>NAN</DistanceMeters>
          </Trackpoint>
          <Trackpoint>
            <Time>2022-09-24T15:03:08.000Z</Time>
            <Position>
              <LatitudeDegrees>43.27579096890985965728759765625</LatitudeDegrees>
              <LongitudeDegrees>-2.77567218057811260223388671875</LongitudeDegrees>
            </Position>
            <AltitudeMeters>133.600006103515625</AltitudeMeters>
            <DistanceMeters>NAN</DistanceMeters>
          </Trackpoint>
          <Trackpoint>
            <Time>2022-09-24T15:03:09.000Z</Time>
            <Position>
              <LatitudeDegrees>43.2758115045726299285888671875</LatitudeDegrees>
              <LongitudeDegrees>-2.77562306262552738189697265625</LongitudeDegrees>
            </Position>
            <AltitudeMeters>133.600006103515625</AltitudeMeters>
            <DistanceMeters>NAN</DistanceMeters>
          </Trackpoint>
          <Trackpoint>
            <Time>2022-09-24T15:03:10.000Z</Time>
            <Position>
              <LatitudeDegrees>43.27583505772054195404052734375</LatitudeDegrees>
              <LongitudeDegrees>-2.77557528577744960784912109375</LongitudeDegrees>
            </Position>
            <AltitudeMeters>133.600006103515625</AltitudeMeters>
            <DistanceMeters>NAN</DistanceMeters>
          </Trackpoint>
          <Trackpoint>
            <Time>2022-09-24T15:03:11.000Z</Time>
            <Position>
              <LatitudeDegrees>43.2758577726781368255615234375</LatitudeDegrees>
              <LongitudeDegrees>-2.77553044259548187255859375</LongitudeDegrees>
            </Position>
            <AltitudeMeters>133.600006103515625</AltitudeMeters>
            <DistanceMeters>NAN</DistanceMeters>
          </Trackpoint>
          <Trackpoint>
            <Time>2022-09-24T15:03:12.000Z</Time>
            <Position>
              <LatitudeDegrees>43.27588342130184173583984375</LatitudeDegrees>
              <LongitudeDegrees>-2.77548643760383129119873046875</LongitudeDegrees>
            </Position>
            <AltitudeMeters>133.600006103515625</AltitudeMeters>
            <DistanceMeters>NAN</DistanceMeters>
          </Trackpoint>
          <Trackpoint>
            <Time>2022-09-24T15:03:13.000Z</Time>
            <Position>
              <LatitudeDegrees>43.2759194634854793548583984375</LatitudeDegrees>
              <LongitudeDegrees>-2.7754427678883075714111328125</LongitudeDegrees>
            </Position>
            <AltitudeMeters>133.399993896484375</AltitudeMeters>
            <DistanceMeters>NAN</DistanceMeters>
          </Trackpoint>
          <Trackpoint>
            <Time>2022-09-24T15:03:14.000Z</Time>
            <Position>
              <LatitudeDegrees>43.27596078626811504364013671875</LatitudeDegrees>
              <LongitudeDegrees>-2.7754001878201961517333984375</LongitudeDegrees>
            </Position>
            <AltitudeMeters>133.600006103515625</AltitudeMeters>
            <DistanceMeters>NAN</DistanceMeters>
          </Trackpoint>
          <Trackpoint>
            <Time>2022-09-24T15:03:15.000Z</Time>
            <Position>
              <LatitudeDegrees>43.27600135467946529388427734375</LatitudeDegrees>
              <LongitudeDegrees>-2.775361798703670501708984375</LongitudeDegrees>
            </Position>
            <AltitudeMeters>133.600006103515625</AltitudeMeters>
            <DistanceMeters>NAN</DistanceMeters>
          </Trackpoint>
          <Trackpoint>
            <Time>2022-09-24T15:03:16.000Z</Time>
            <Position>
              <LatitudeDegrees>43.27604125253856182098388671875</LatitudeDegrees>
              <LongitudeDegrees>-2.7753187157213687896728515625</LongitudeDegrees>
            </Position>
            <AltitudeMeters>133.600006103515625</AltitudeMeters>
            <DistanceMeters>NAN</DistanceMeters>
          </Trackpoint>
          <Trackpoint>
            <Time>2022-09-24T15:03:17.000Z</Time>
            <Position>
              <LatitudeDegrees>43.2760860957205295562744140625</LatitudeDegrees>
              <LongitudeDegrees>-2.77527906931936740875244140625</LongitudeDegrees>
            </Position>
            <AltitudeMeters>133.600006103515625</AltitudeMeters>
            <DistanceMeters>NAN</DistanceMeters>
          </Trackpoint>
          <Trackpoint>
            <Time>2022-09-24T15:03:18.000Z</Time>
            <Position>
              <LatitudeDegrees>43.27613353729248046875</LatitudeDegrees>
              <LongitudeDegrees>-2.7752449549734592437744140625</LongitudeDegrees>
            </Position>
            <AltitudeMeters>133.399993896484375</AltitudeMeters>
            <DistanceMeters>NAN</DistanceMeters>
          </Trackpoint>
          <Trackpoint>
            <Time>2022-09-24T15:03:19.000Z</Time>
            <Position>
              <LatitudeDegrees>43.27618181705474853515625</LatitudeDegrees>
              <LongitudeDegrees>-2.7752120979130268096923828125</LongitudeDegrees>
            </Position>
            <AltitudeMeters>133.399993896484375</AltitudeMeters>
            <DistanceMeters>NAN</DistanceMeters>
          </Trackpoint>
          <Trackpoint>
            <Time>2022-09-24T15:03:20.000Z</Time>
            <Position>
              <LatitudeDegrees>43.27623588033020496368408203125</LatitudeDegrees>
              <LongitudeDegrees>-2.7751856110990047454833984375</LongitudeDegrees>
            </Position>
            <AltitudeMeters>133</AltitudeMeters>
            <DistanceMeters>NAN</DistanceMeters>
          </Trackpoint>
          <Trackpoint>
            <Time>2022-09-24T15:03:21.000Z</Time>
            <Position>
              <LatitudeDegrees>43.2762943021953105926513671875</LatitudeDegrees>
              <LongitudeDegrees>-2.77516968548297882080078125</LongitudeDegrees>
            </Position>
            <AltitudeMeters>132.8000030517578125</AltitudeMeters>
            <DistanceMeters>NAN</DistanceMeters>
          </Trackpoint>
          <Trackpoint>
            <Time>2022-09-24T15:03:22.000Z</Time>
            <Position>
              <LatitudeDegrees>43.27635322697460651397705078125</LatitudeDegrees>
              <LongitudeDegrees>-2.7751618064939975738525390625</LongitudeDegrees>
            </Position>
            <AltitudeMeters>132.8000030517578125</AltitudeMeters>
            <DistanceMeters>NAN</DistanceMeters>
          </Trackpoint>
          <Trackpoint>
            <Time>2022-09-24T15:03:23.000Z</Time>
            <Position>
              <LatitudeDegrees>43.276414163410663604736328125</LatitudeDegrees>
              <LongitudeDegrees>-2.77516189031302928924560546875</LongitudeDegrees>
            </Position>
            <AltitudeMeters>132.8000030517578125</AltitudeMeters>
            <DistanceMeters>NAN</DistanceMeters>
          </Trackpoint>
          <Trackpoint>
            <Time>2022-09-24T15:03:24.000Z</Time>
            <Position>
              <LatitudeDegrees>43.276476524770259857177734375</LatitudeDegrees>
              <LongitudeDegrees>-2.77516641654074192047119140625</LongitudeDegrees>
            </Position>
            <AltitudeMeters>132.8000030517578125</AltitudeMeters>
            <DistanceMeters>NAN</DistanceMeters>
          </Trackpoint>
          <Trackpoint>
            <Time>2022-09-24T15:03:25.000Z</Time>
            <Position>
              <LatitudeDegrees>43.27654366381466388702392578125</LatitudeDegrees>
              <LongitudeDegrees>-2.7751685120165348052978515625</LongitudeDegrees>
            </Position>
            <AltitudeMeters>132.8000030517578125</AltitudeMeters>
            <DistanceMeters>NAN</DistanceMeters>
          </Trackpoint>
          <Trackpoint>
            <Time>2022-09-24T15:03:26.000Z</Time>
            <Position>
              <LatitudeDegrees>43.27660820446908473968505859375</LatitudeDegrees>
              <LongitudeDegrees>-2.77517446316778659820556640625</LongitudeDegrees>
            </Position>
            <AltitudeMeters>132.600006103515625</AltitudeMeters>
            <DistanceMeters>NAN</DistanceMeters>
          </Trackpoint>
          <Trackpoint>
            <Time>2022-09-24T15:03:27.000Z</Time>
            <Position>
              <LatitudeDegrees>43.27667794190347194671630859375</LatitudeDegrees>
              <LongitudeDegrees>-2.7751856110990047454833984375</LongitudeDegrees>
            </Position>
            <AltitudeMeters>132.399993896484375</AltitudeMeters>
            <DistanceMeters>NAN</DistanceMeters>
          </Trackpoint>
          <Trackpoint>
            <Time>2022-09-24T15:03:28.000Z</Time>
            <Position>
              <LatitudeDegrees>43.2767437398433685302734375</LatitudeDegrees>
              <LongitudeDegrees>-2.77519944123923778533935546875</LongitudeDegrees>
            </Position>
            <AltitudeMeters>132.399993896484375</AltitudeMeters>
            <DistanceMeters>NAN</DistanceMeters>
          </Trackpoint>
          <Trackpoint>
            <Time>2022-09-24T15:03:29.000Z</Time>
            <Position>
              <LatitudeDegrees>43.2767437398433685302734375</LatitudeDegrees>
              <LongitudeDegrees>-2.77519944123923778533935546875</LongitudeDegrees>
            </Position>
            <AltitudeMeters>132.399993896484375</AltitudeMeters>
            <DistanceMeters>NAN</DistanceMeters>
          </Trackpoint>
          <Trackpoint>
            <Time>2022-09-24T15:03:30.000Z</Time>
            <Position>
              <LatitudeDegrees>43.2768837176263332366943359375</LatitudeDegrees>
              <LongitudeDegrees>-2.77523229829967021942138671875</LongitudeDegrees>
            </Position>
            <AltitudeMeters>132.399993896484375</AltitudeMeters>
            <DistanceMeters>NAN</DistanceMeters>
          </Trackpoint>
          <Trackpoint>
            <Time>2022-09-24T15:03:31.000Z</Time>
            <Position>
              <LatitudeDegrees>43.276953287422657012939453125</LatitudeDegrees>
              <LongitudeDegrees>-2.77525057084858417510986328125</LongitudeDegrees>
            </Position>
            <AltitudeMeters>132.399993896484375</AltitudeMeters>
            <DistanceMeters>NAN</DistanceMeters>
          </Trackpoint>
          <Trackpoint>
            <Time>2022-09-24T15:03:32.000Z</Time>
            <Position>
              <LatitudeDegrees>43.27702327631413936614990234375</LatitudeDegrees>
              <LongitudeDegrees>-2.77527035214006900787353515625</LongitudeDegrees>
            </Position>
            <AltitudeMeters>132.399993896484375</AltitudeMeters>
            <DistanceMeters>NAN</DistanceMeters>
          </Trackpoint>
          <Trackpoint>
            <Time>2022-09-24T15:03:33.000Z</Time>
            <Position>
              <LatitudeDegrees>43.27709200792014598846435546875</LatitudeDegrees>
              <LongitudeDegrees>-2.775286026298999786376953125</LongitudeDegrees>
            </Position>
            <AltitudeMeters>132.399993896484375</AltitudeMeters>
            <DistanceMeters>NAN</DistanceMeters>
          </Trackpoint>
          <Trackpoint>
            <Time>2022-09-24T15:03:34.000Z</Time>
            <Position>
              <LatitudeDegrees>43.27716124244034290313720703125</LatitudeDegrees>
              <LongitudeDegrees>-2.7753026224672794342041015625</LongitudeDegrees>
            </Position>
            <AltitudeMeters>133.1999969482421875</AltitudeMeters>
            <DistanceMeters>NAN</DistanceMeters>
          </Trackpoint>
          <Trackpoint>
            <Time>2022-09-24T15:03:35.000Z</Time>
            <Position>
              <LatitudeDegrees>43.27723332680761814117431640625</LatitudeDegrees>
              <LongitudeDegrees>-2.775311507284641265869140625</LongitudeDegrees>
            </Position>
            <AltitudeMeters>132.8000030517578125</AltitudeMeters>
            <DistanceMeters>NAN</DistanceMeters>
          </Trackpoint>
          <Trackpoint>
            <Time>2022-09-24T15:03:36.000Z</Time>
            <Position>
              <LatitudeDegrees>43.2773043215274810791015625</LatitudeDegrees>
              <LongitudeDegrees>-2.77532114647328853607177734375</LongitudeDegrees>
            </Position>
            <AltitudeMeters>132.8000030517578125</AltitudeMeters>
            <DistanceMeters>NAN</DistanceMeters>
          </Trackpoint>
          <Trackpoint>
            <Time>2022-09-24T15:03:37.000Z</Time>
            <Position>
              <LatitudeDegrees>43.27737347222864627838134765625</LatitudeDegrees>
              <LongitudeDegrees>-2.77532734908163547515869140625</LongitudeDegrees>
            </Position>
            <AltitudeMeters>132.8000030517578125</AltitudeMeters>
            <DistanceMeters>NAN</DistanceMeters>
          </Trackpoint>
          <Trackpoint>
            <Time>2022-09-24T15:03:38.000Z</Time>
            <Position>
              <LatitudeDegrees>43.27744312584400177001953125</LatitudeDegrees>
              <LongitudeDegrees>-2.77531360276043415069580078125</LongitudeDegrees>
            </Position>
            <AltitudeMeters>133</AltitudeMeters>
            <DistanceMeters>NAN</DistanceMeters>
          </Trackpoint>
          <Trackpoint>
            <Time>2022-09-24T15:03:39.000Z</Time>
            <Position>
              <LatitudeDegrees>43.2775059901177883148193359375</LatitudeDegrees>
              <LongitudeDegrees>-2.77527404017746448516845703125</LongitudeDegrees>
            </Position>
            <AltitudeMeters>132.8000030517578125</AltitudeMeters>
            <DistanceMeters>NAN</DistanceMeters>
          </Trackpoint>
          <Trackpoint>
            <Time>2022-09-24T15:03:40.000Z</Time>
            <Position>
              <LatitudeDegrees>43.27756256796419620513916015625</LatitudeDegrees>
              <LongitudeDegrees>-2.775215618312358856201171875</LongitudeDegrees>
            </Position>
            <AltitudeMeters>132.600006103515625</AltitudeMeters>
            <DistanceMeters>NAN</DistanceMeters>
          </Trackpoint>
          <Trackpoint>
            <Time>2022-09-24T15:03:41.000Z</Time>
            <Position>
              <LatitudeDegrees>43.2776149548590183258056640625</LatitudeDegrees>
              <LongitudeDegrees>-2.77515585534274578094482421875</LongitudeDegrees>
            </Position>
            <AltitudeMeters>132.399993896484375</AltitudeMeters>
            <DistanceMeters>NAN</DistanceMeters>
          </Trackpoint>
          <Trackpoint>
            <Time>2022-09-24T15:03:42.000Z</Time>
            <Position>
              <LatitudeDegrees>43.2776659168303012847900390625</LatitudeDegrees>
              <LongitudeDegrees>-2.7750893868505954742431640625</LongitudeDegrees>
            </Position>
            <AltitudeMeters>132.399993896484375</AltitudeMeters>
            <DistanceMeters>NAN</DistanceMeters>
          </Trackpoint>
          <Trackpoint>
            <Time>2022-09-24T15:03:43.000Z</Time>
            <Position>
              <LatitudeDegrees>43.2777165435254573822021484375</LatitudeDegrees>
              <LongitudeDegrees>-2.7750203199684619903564453125</LongitudeDegrees>
            </Position>
            <AltitudeMeters>132.399993896484375</AltitudeMeters>
            <DistanceMeters>NAN</DistanceMeters>
          </Trackpoint>
          <Trackpoint>
            <Time>2022-09-24T15:03:44.000Z</Time>
            <Position>
              <LatitudeDegrees>43.27777010388672351837158203125</LatitudeDegrees>
              <LongitudeDegrees>-2.7749552763998508453369140625</LongitudeDegrees>
            </Position>
            <AltitudeMeters>132.399993896484375</AltitudeMeters>
            <DistanceMeters>NAN</DistanceMeters>
          </Trackpoint>
          <Trackpoint>
            <Time>2022-09-24T15:03:45.000Z</Time>
            <Position>
              <LatitudeDegrees>43.27782399952411651611328125</LatitudeDegrees>
              <LongitudeDegrees>-2.77488780207931995391845703125</LongitudeDegrees>
            </Position>
            <AltitudeMeters>132.399993896484375</AltitudeMeters>
            <DistanceMeters>NAN</DistanceMeters>
          </Trackpoint>
          <Trackpoint>
            <Time>2022-09-24T15:03:46.000Z</Time>
            <Position>
              <LatitudeDegrees>43.27787571586668491363525390625</LatitudeDegrees>
              <LongitudeDegrees>-2.77482233941555023193359375</LongitudeDegrees>
            </Position>
            <AltitudeMeters>132.399993896484375</AltitudeMeters>
            <DistanceMeters>NAN</DistanceMeters>
          </Trackpoint>
          <Trackpoint>
            <Time>2022-09-24T15:03:47.000Z</Time>
            <Position>
              <LatitudeDegrees>43.2779277674853801727294921875</LatitudeDegrees>
              <LongitudeDegrees>-2.7747591398656368255615234375</LongitudeDegrees>
            </Position>
            <AltitudeMeters>132.600006103515625</AltitudeMeters>
            <DistanceMeters>NAN</DistanceMeters>
          </Trackpoint>
          <Trackpoint>
            <Time>2022-09-24T15:03:48.000Z</Time>
            <Position>
              <LatitudeDegrees>43.2779777236282825469970703125</LatitudeDegrees>
              <LongitudeDegrees>-2.7746987901628017425537109375</LongitudeDegrees>
            </Position>
            <AltitudeMeters>132.600006103515625</AltitudeMeters>
            <DistanceMeters>NAN</DistanceMeters>
          </Trackpoint>
          <Trackpoint>
            <Time>2022-09-24T15:03:49.000Z</Time>
            <Position>
              <LatitudeDegrees>43.27802977524697780609130859375</LatitudeDegrees>
              <LongitudeDegrees>-2.77463986538350582122802734375</LongitudeDegrees>
            </Position>
            <AltitudeMeters>132.8000030517578125</AltitudeMeters>
            <DistanceMeters>NAN</DistanceMeters>
          </Trackpoint>
          <Trackpoint>
            <Time>2022-09-24T15:03:50.000Z</Time>
            <Position>
              <LatitudeDegrees>43.27808308415114879608154296875</LatitudeDegrees>
              <LongitudeDegrees>-2.7745817787945270538330078125</LongitudeDegrees>
            </Position>
            <AltitudeMeters>133.399993896484375</AltitudeMeters>
            <DistanceMeters>NAN</DistanceMeters>
          </Trackpoint>
          <Trackpoint>
            <Time>2022-09-24T15:03:51.000Z</Time>
            <Position>
              <LatitudeDegrees>43.27813639305531978607177734375</LatitudeDegrees>
              <LongitudeDegrees>-2.77452352456748485565185546875</LongitudeDegrees>
            </Position>
            <AltitudeMeters>133.399993896484375</AltitudeMeters>
            <DistanceMeters>NAN</DistanceMeters>
          </Trackpoint>
          <Trackpoint>
            <Time>2022-09-24T15:03:52.000Z</Time>
            <Position>
              <LatitudeDegrees>43.2781929709017276763916015625</LatitudeDegrees>
              <LongitudeDegrees>-2.7744721435010433197021484375</LongitudeDegrees>
            </Position>
            <AltitudeMeters>133.600006103515625</AltitudeMeters>
            <DistanceMeters>NAN</DistanceMeters>
          </Trackpoint>
          <Trackpoint>
            <Time>2022-09-24T15:03:53.000Z</Time>
            <Position>
              <LatitudeDegrees>43.27825122512876987457275390625</LatitudeDegrees>
              <LongitudeDegrees>-2.7744262106716632843017578125</LongitudeDegrees>
            </Position>
            <AltitudeMeters>133.600006103515625</AltitudeMeters>
            <DistanceMeters>NAN</DistanceMeters>
          </Trackpoint>
          <Trackpoint>
            <Time>2022-09-24T15:03:54.000Z</Time>
            <Position>
              <LatitudeDegrees>43.27831358648836612701416015625</LatitudeDegrees>
              <LongitudeDegrees>-2.77438187040388584136962890625</LongitudeDegrees>
            </Position>
            <AltitudeMeters>133.600006103515625</AltitudeMeters>
            <DistanceMeters>NAN</DistanceMeters>
          </Trackpoint>
          <Trackpoint>
            <Time>2022-09-24T15:03:55.000Z</Time>
            <Position>
              <LatitudeDegrees>43.27837117016315460205078125</LatitudeDegrees>
              <LongitudeDegrees>-2.77433074079453945159912109375</LongitudeDegrees>
            </Position>
            <AltitudeMeters>133.8000030517578125</AltitudeMeters>
            <DistanceMeters>NAN</DistanceMeters>
          </Trackpoint>
          <Trackpoint>
            <Time>2022-09-24T15:03:56.000Z</Time>
            <Position>
              <LatitudeDegrees>43.2784266583621501922607421875</LatitudeDegrees>
              <LongitudeDegrees>-2.7742790244519710540771484375</LongitudeDegrees>
            </Position>
            <AltitudeMeters>133.8000030517578125</AltitudeMeters>
            <DistanceMeters>NAN</DistanceMeters>
          </Trackpoint>
          <Trackpoint>
            <Time>2022-09-24T15:03:57.000Z</Time>
            <Position>
              <LatitudeDegrees>43.2784846611320972442626953125</LatitudeDegrees>
              <LongitudeDegrees>-2.774227894842624664306640625</LongitudeDegrees>
            </Position>
            <AltitudeMeters>133.8000030517578125</AltitudeMeters>
            <DistanceMeters>NAN</DistanceMeters>
          </Trackpoint>
          <Trackpoint>
            <Time>2022-09-24T15:03:58.000Z</Time>
            <Position>
              <LatitudeDegrees>43.27854392118752002716064453125</LatitudeDegrees>
              <LongitudeDegrees>-2.7741848118603229522705078125</LongitudeDegrees>
            </Position>
            <AltitudeMeters>133.8000030517578125</AltitudeMeters>
            <DistanceMeters>NAN</DistanceMeters>
          </Trackpoint>
          <Trackpoint>
            <Time>2022-09-24T15:03:59.000Z</Time>
            <Position>
              <LatitudeDegrees>43.27860460616648197174072265625</LatitudeDegrees>
              <LongitudeDegrees>-2.77413728646934032440185546875</LongitudeDegrees>
            </Position>
            <AltitudeMeters>133.8000030517578125</AltitudeMeters>
            <DistanceMeters>NAN</DistanceMeters>
          </Trackpoint>
          <Trackpoint>
            <Time>2022-09-24T15:04:00.000Z</Time>
            <Position>
              <LatitudeDegrees>43.2786653749644756317138671875</LatitudeDegrees>
              <LongitudeDegrees>-2.77408397756516933441162109375</LongitudeDegrees>
            </Position>
            <AltitudeMeters>133.8000030517578125</AltitudeMeters>
            <DistanceMeters>NAN</DistanceMeters>
          </Trackpoint>
          <Trackpoint>
            <Time>2022-09-24T15:04:01.000Z</Time>
            <Position>
              <LatitudeDegrees>43.27872547321021556854248046875</LatitudeDegrees>
              <LongitudeDegrees>-2.77403175830841064453125</LongitudeDegrees>
            </Position>
            <AltitudeMeters>133.8000030517578125</AltitudeMeters>
            <DistanceMeters>NAN</DistanceMeters>
          </Trackpoint>
          <Trackpoint>
            <Time>2022-09-24T15:04:02.000Z</Time>
            <Position>
              <LatitudeDegrees>43.2787847332656383514404296875</LatitudeDegrees>
              <LongitudeDegrees>-2.7739786170423030853271484375</LongitudeDegrees>
            </Position>
            <AltitudeMeters>133.8000030517578125</AltitudeMeters>
            <DistanceMeters>NAN</DistanceMeters>
          </Trackpoint>
          <Trackpoint>
            <Time>2022-09-24T15:04:03.000Z</Time>
            <Position>
              <LatitudeDegrees>43.278840221464633941650390625</LatitudeDegrees>
              <LongitudeDegrees>-2.77391818352043628692626953125</LongitudeDegrees>
            </Position>
            <AltitudeMeters>133.600006103515625</AltitudeMeters>
            <DistanceMeters>NAN</DistanceMeters>
          </Trackpoint>
          <Trackpoint>
            <Time>2022-09-24T15:04:04.000Z</Time>
            <Position>
              <LatitudeDegrees>43.27889109961688518524169921875</LatitudeDegrees>
              <LongitudeDegrees>-2.77385112829506397247314453125</LongitudeDegrees>
            </Position>
            <AltitudeMeters>133.399993896484375</AltitudeMeters>
            <DistanceMeters>NAN</DistanceMeters>
          </Trackpoint>
          <Trackpoint>
            <Time>2022-09-24T15:04:05.000Z</Time>
            <Position>
              <LatitudeDegrees>43.27893552370369434356689453125</LatitudeDegrees>
              <LongitudeDegrees>-2.7737784571945667266845703125</LongitudeDegrees>
            </Position>
            <AltitudeMeters>133.399993896484375</AltitudeMeters>
            <DistanceMeters>NAN</DistanceMeters>
          </Trackpoint>
          <Trackpoint>
            <Time>2022-09-24T15:04:06.000Z</Time>
            <Position>
              <LatitudeDegrees>43.2789768464863300323486328125</LatitudeDegrees>
              <LongitudeDegrees>-2.7737033553421497344970703125</LongitudeDegrees>
            </Position>
            <AltitudeMeters>133</AltitudeMeters>
            <DistanceMeters>NAN</DistanceMeters>
          </Trackpoint>
          <Trackpoint>
            <Time>2022-09-24T15:04:07.000Z</Time>
            <Position>
              <LatitudeDegrees>43.2790147326886653900146484375</LatitudeDegrees>
              <LongitudeDegrees>-2.7736254036426544189453125</LongitudeDegrees>
            </Position>
            <AltitudeMeters>132.8000030517578125</AltitudeMeters>
            <DistanceMeters>NAN</DistanceMeters>
          </Trackpoint>
          <Trackpoint>
            <Time>2022-09-24T15:04:08.000Z</Time>
            <Position>
              <LatitudeDegrees>43.2790519483387470245361328125</LatitudeDegrees>
              <LongitudeDegrees>-2.7735427580773830413818359375</LongitudeDegrees>
            </Position>
            <AltitudeMeters>132.8000030517578125</AltitudeMeters>
            <DistanceMeters>NAN</DistanceMeters>
          </Trackpoint>
          <Trackpoint>
            <Time>2022-09-24T15:04:09.000Z</Time>
            <Position>
              <LatitudeDegrees>43.2790898345410823822021484375</LatitudeDegrees>
              <LongitudeDegrees>-2.77345801703631877899169921875</LongitudeDegrees>
            </Position>
            <AltitudeMeters>132.8000030517578125</AltitudeMeters>
            <DistanceMeters>NAN</DistanceMeters>
          </Trackpoint>
          <Trackpoint>
            <Time>2022-09-24T15:04:10.000Z</Time>
            <Position>
              <LatitudeDegrees>43.27912151813507080078125</LatitudeDegrees>
              <LongitudeDegrees>-2.7733737789094448089599609375</LongitudeDegrees>
            </Position>
            <AltitudeMeters>133</AltitudeMeters>
            <DistanceMeters>NAN</DistanceMeters>
          </Trackpoint>
          <Trackpoint>
            <Time>2022-09-24T15:04:11.000Z</Time>
            <Position>
              <LatitudeDegrees>43.279151357710361480712890625</LatitudeDegrees>
              <LongitudeDegrees>-2.77328870259225368499755859375</LongitudeDegrees>
            </Position>
            <AltitudeMeters>133.1999969482421875</AltitudeMeters>
            <DistanceMeters>NAN</DistanceMeters>
          </Trackpoint>
          <Trackpoint>
            <Time>2022-09-24T15:04:12.000Z</Time>
            <Position>
              <LatitudeDegrees>43.2791791856288909912109375</LatitudeDegrees>
              <LongitudeDegrees>-2.77320303954184055328369140625</LongitudeDegrees>
            </Position>
            <AltitudeMeters>133.399993896484375</AltitudeMeters>
            <DistanceMeters>NAN</DistanceMeters>
          </Trackpoint>
          <Trackpoint>
            <Time>2022-09-24T15:04:13.000Z</Time>
            <Position>
              <LatitudeDegrees>43.27920257113873958587646484375</LatitudeDegrees>
              <LongitudeDegrees>-2.77311603538691997528076171875</LongitudeDegrees>
            </Position>
            <AltitudeMeters>133.399993896484375</AltitudeMeters>
            <DistanceMeters>NAN</DistanceMeters>
          </Trackpoint>
          <Trackpoint>
            <Time>2022-09-24T15:04:14.000Z</Time>
            <Position>
              <LatitudeDegrees>43.2792239449918270111083984375</LatitudeDegrees>
              <LongitudeDegrees>-2.77302718721330165863037109375</LongitudeDegrees>
            </Position>
            <AltitudeMeters>133.8000030517578125</AltitudeMeters>
            <DistanceMeters>NAN</DistanceMeters>
          </Trackpoint>
          <Trackpoint>
            <Time>2022-09-24T15:04:15.000Z</Time>
            <Position>
              <LatitudeDegrees>43.2792435586452484130859375</LatitudeDegrees>
              <LongitudeDegrees>-2.77294018305838108062744140625</LongitudeDegrees>
            </Position>
            <AltitudeMeters>133.8000030517578125</AltitudeMeters>
            <DistanceMeters>NAN</DistanceMeters>
          </Trackpoint>
          <Trackpoint>
            <Time>2022-09-24T15:04:16.000Z</Time>
            <Position>
              <LatitudeDegrees>43.27925940044224262237548828125</LatitudeDegrees>
              <LongitudeDegrees>-2.772855944931507110595703125</LongitudeDegrees>
            </Position>
            <AltitudeMeters>134.1999969482421875</AltitudeMeters>
            <DistanceMeters>NAN</DistanceMeters>
          </Trackpoint>
          <Trackpoint>
            <Time>2022-09-24T15:04:17.000Z</Time>
            <Position>
              <LatitudeDegrees>43.27925940044224262237548828125</LatitudeDegrees>
              <LongitudeDegrees>-2.772855944931507110595703125</LongitudeDegrees>
            </Position>
            <AltitudeMeters>134.1999969482421875</AltitudeMeters>
            <DistanceMeters>NAN</DistanceMeters>
          </Trackpoint>
          <Trackpoint>
            <Time>2022-09-24T15:04:18.000Z</Time>
            <Position>
              <LatitudeDegrees>43.27928219921886920928955078125</LatitudeDegrees>
              <LongitudeDegrees>-2.77269610203802585601806640625</LongitudeDegrees>
            </Position>
            <AltitudeMeters>134.1999969482421875</AltitudeMeters>
            <DistanceMeters>NAN</DistanceMeters>
          </Trackpoint>
          <Trackpoint>
            <Time>2022-09-24T15:04:19.000Z</Time>
            <Position>
              <LatitudeDegrees>43.27929175458848476409912109375</LatitudeDegrees>
              <LongitudeDegrees>-2.772623598575592041015625</LongitudeDegrees>
            </Position>
            <AltitudeMeters>134.600006103515625</AltitudeMeters>
            <DistanceMeters>NAN</DistanceMeters>
          </Trackpoint>
          <Trackpoint>
            <Time>2022-09-24T15:04:20.000Z</Time>
            <Position>
              <LatitudeDegrees>43.27929996885359287261962890625</LatitudeDegrees>
              <LongitudeDegrees>-2.7725543640553951263427734375</LongitudeDegrees>
            </Position>
            <AltitudeMeters>135.399993896484375</AltitudeMeters>
            <DistanceMeters>NAN</DistanceMeters>
          </Trackpoint>
          <Trackpoint>
            <Time>2022-09-24T15:04:21.000Z</Time>
            <Position>
              <LatitudeDegrees>43.27931019477546215057373046875</LatitudeDegrees>
              <LongitudeDegrees>-2.7724889852106571197509765625</LongitudeDegrees>
            </Position>
            <AltitudeMeters>135.8000030517578125</AltitudeMeters>
            <DistanceMeters>NAN</DistanceMeters>
          </Trackpoint>
          <Trackpoint>
            <Time>2022-09-24T15:04:22.000Z</Time>
            <Position>
              <LatitudeDegrees>43.2793184928596019744873046875</LatitudeDegrees>
              <LongitudeDegrees>-2.772427462041378021240234375</LongitudeDegrees>
            </Position>
            <AltitudeMeters>137.8000030517578125</AltitudeMeters>
            <DistanceMeters>NAN</DistanceMeters>
          </Trackpoint>
          <Trackpoint>
            <Time>2022-09-24T15:04:23.000Z</Time>
            <Position>
              <LatitudeDegrees>43.27932578511536121368408203125</LatitudeDegrees>
              <LongitudeDegrees>-2.772371806204319000244140625</LongitudeDegrees>
            </Position>
            <AltitudeMeters>138</AltitudeMeters>
            <DistanceMeters>NAN</DistanceMeters>
          </Trackpoint>
          <Trackpoint>
            <Time>2022-09-24T15:04:24.000Z</Time>
            <Position>
              <LatitudeDegrees>43.2793322391808032989501953125</LatitudeDegrees>
              <LongitudeDegrees>-2.77231841348111629486083984375</LongitudeDegrees>
            </Position>
            <AltitudeMeters>138.399993896484375</AltitudeMeters>
            <DistanceMeters>NAN</DistanceMeters>
          </Trackpoint>
          <Trackpoint>
            <Time>2022-09-24T15:04:25.000Z</Time>
            <Position>
              <LatitudeDegrees>43.27933668158948421478271484375</LatitudeDegrees>
              <LongitudeDegrees>-2.7722663618624210357666015625</LongitudeDegrees>
            </Position>
            <AltitudeMeters>138.600006103515625</AltitudeMeters>
            <DistanceMeters>NAN</DistanceMeters>
          </Trackpoint>
          <Trackpoint>
            <Time>2022-09-24T15:04:26.000Z</Time>
            <Position>
              <LatitudeDegrees>43.2793412916362285614013671875</LatitudeDegrees>
              <LongitudeDegrees>-2.7722160704433917999267578125</LongitudeDegrees>
            </Position>
            <AltitudeMeters>138.8000030517578125</AltitudeMeters>
            <DistanceMeters>NAN</DistanceMeters>
          </Trackpoint>
          <Trackpoint>
            <Time>2022-09-24T15:04:27.000Z</Time>
            <Position>
              <LatitudeDegrees>43.27934640459716320037841796875</LatitudeDegrees>
              <LongitudeDegrees>-2.77216603048145771026611328125</LongitudeDegrees>
            </Position>
            <AltitudeMeters>139.1999969482421875</AltitudeMeters>
            <DistanceMeters>NAN</DistanceMeters>
          </Trackpoint>
          <Trackpoint>
            <Time>2022-09-24T15:04:28.000Z</Time>
            <Position>
              <LatitudeDegrees>43.27935227192938327789306640625</LatitudeDegrees>
              <LongitudeDegrees>-2.77211708016693592071533203125</LongitudeDegrees>
            </Position>
            <AltitudeMeters>139.600006103515625</AltitudeMeters>
            <DistanceMeters>NAN</DistanceMeters>
          </Trackpoint>
          <Trackpoint>
            <Time>2022-09-24T15:04:29.000Z</Time>
            <Position>
              <LatitudeDegrees>43.2793563790619373321533203125</LatitudeDegrees>
              <LongitudeDegrees>-2.7720692194998264312744140625</LongitudeDegrees>
            </Position>
            <AltitudeMeters>139.8000030517578125</AltitudeMeters>
            <DistanceMeters>NAN</DistanceMeters>
          </Trackpoint>
          <Trackpoint>
            <Time>2022-09-24T15:04:30.000Z</Time>
            <Position>
              <LatitudeDegrees>43.279358558356761932373046875</LatitudeDegrees>
              <LongitudeDegrees>-2.772025130689144134521484375</LongitudeDegrees>
            </Position>
            <AltitudeMeters>140.1999969482421875</AltitudeMeters>
            <DistanceMeters>NAN</DistanceMeters>
          </Trackpoint>
          <Trackpoint>
            <Time>2022-09-24T15:04:31.000Z</Time>
            <Position>
              <LatitudeDegrees>43.279365934431552886962890625</LatitudeDegrees>
              <LongitudeDegrees>-2.77197928167879581451416015625</LongitudeDegrees>
            </Position>
            <AltitudeMeters>140.1999969482421875</AltitudeMeters>
            <DistanceMeters>NAN</DistanceMeters>
          </Trackpoint>
          <Trackpoint>
            <Time>2022-09-24T15:04:32.000Z</Time>
            <Position>
              <LatitudeDegrees>43.27937305904924869537353515625</LatitudeDegrees>
              <LongitudeDegrees>-2.77193586342036724090576171875</LongitudeDegrees>
            </Position>
            <AltitudeMeters>140.600006103515625</AltitudeMeters>
            <DistanceMeters>NAN</DistanceMeters>
          </Trackpoint>
          <Trackpoint>
            <Time>2022-09-24T15:04:33.000Z</Time>
            <Position>
              <LatitudeDegrees>43.2793788425624370574951171875</LatitudeDegrees>
              <LongitudeDegrees>-2.77189068496227264404296875</LongitudeDegrees>
            </Position>
            <AltitudeMeters>140.8000030517578125</AltitudeMeters>
            <DistanceMeters>NAN</DistanceMeters>
          </Trackpoint>
          <Trackpoint>
            <Time>2022-09-24T15:04:34.000Z</Time>
            <Position>
              <LatitudeDegrees>43.2793889008462429046630859375</LatitudeDegrees>
              <LongitudeDegrees>-2.7718482725322246551513671875</LongitudeDegrees>
            </Position>
            <AltitudeMeters>141.1999969482421875</AltitudeMeters>
            <DistanceMeters>NAN</DistanceMeters>
          </Trackpoint>
          <Trackpoint>
            <Time>2022-09-24T15:04:35.000Z</Time>
            <Position>
              <LatitudeDegrees>43.27939904294908046722412109375</LatitudeDegrees>
              <LongitudeDegrees>-2.7718033455312252044677734375</LongitudeDegrees>
            </Position>
            <AltitudeMeters>141.1999969482421875</AltitudeMeters>
            <DistanceMeters>NAN</DistanceMeters>
          </Trackpoint>
          <Trackpoint>
            <Time>2022-09-24T15:04:36.000Z</Time>
            <Position>
              <LatitudeDegrees>43.2794013060629367828369140625</LatitudeDegrees>
              <LongitudeDegrees>-2.77176059782505035400390625</LongitudeDegrees>
            </Position>
            <AltitudeMeters>141.399993896484375</AltitudeMeters>
            <DistanceMeters>NAN</DistanceMeters>
          </Trackpoint>
          <Trackpoint>
            <Time>2022-09-24T15:04:37.000Z</Time>
            <Position>
              <LatitudeDegrees>43.2794063352048397064208984375</LatitudeDegrees>
              <LongitudeDegrees>-2.77171676047146320343017578125</LongitudeDegrees>
            </Position>
            <AltitudeMeters>141.399993896484375</AltitudeMeters>
            <DistanceMeters>NAN</DistanceMeters>
          </Trackpoint>
          <Trackpoint>
            <Time>2022-09-24T15:04:38.000Z</Time>
            <Position>
              <LatitudeDegrees>43.2794133760035037994384765625</LatitudeDegrees>
              <LongitudeDegrees>-2.7716709114611148834228515625</LongitudeDegrees>
            </Position>
            <AltitudeMeters>141.8000030517578125</AltitudeMeters>
            <DistanceMeters>NAN</DistanceMeters>
          </Trackpoint>
          <Trackpoint>
            <Time>2022-09-24T15:04:39.000Z</Time>
            <Position>
              <LatitudeDegrees>43.2794194109737873077392578125</LatitudeDegrees>
              <LongitudeDegrees>-2.7716293372213840484619140625</LongitudeDegrees>
            </Position>
            <AltitudeMeters>142.1999969482421875</AltitudeMeters>
            <DistanceMeters>NAN</DistanceMeters>
          </Trackpoint>
          <Trackpoint>
            <Time>2022-09-24T15:04:40.000Z</Time>
            <Position>
              <LatitudeDegrees>43.27942418865859508514404296875</LatitudeDegrees>
              <LongitudeDegrees>-2.77158700861036777496337890625</LongitudeDegrees>
            </Position>
            <AltitudeMeters>142.399993896484375</AltitudeMeters>
            <DistanceMeters>NAN</DistanceMeters>
          </Trackpoint>
          <Trackpoint>
            <Time>2022-09-24T15:04:41.000Z</Time>
            <Position>
              <LatitudeDegrees>43.27942485921084880828857421875</LatitudeDegrees>
              <LongitudeDegrees>-2.77154627256095409393310546875</LongitudeDegrees>
            </Position>
            <AltitudeMeters>142.600006103515625</AltitudeMeters>
            <DistanceMeters>NAN</DistanceMeters>
          </Trackpoint>
          <Trackpoint>
            <Time>2022-09-24T15:04:42.000Z</Time>
            <Position>
              <LatitudeDegrees>43.27942972071468830108642578125</LatitudeDegrees>
              <LongitudeDegrees>-2.77150553651154041290283203125</LongitudeDegrees>
            </Position>
            <AltitudeMeters>142.8000030517578125</AltitudeMeters>
            <DistanceMeters>NAN</DistanceMeters>
          </Trackpoint>
          <Trackpoint>
            <Time>2022-09-24T15:04:43.000Z</Time>
            <Position>
              <LatitudeDegrees>43.2794341631233692169189453125</LatitudeDegrees>
              <LongitudeDegrees>-2.7714643813669681549072265625</LongitudeDegrees>
            </Position>
            <AltitudeMeters>143</AltitudeMeters>
            <DistanceMeters>NAN</DistanceMeters>
          </Trackpoint>
          <Trackpoint>
            <Time>2022-09-24T15:04:44.000Z</Time>
            <Position>
              <LatitudeDegrees>43.27943927608430385589599609375</LatitudeDegrees>
              <LongitudeDegrees>-2.77141903527081012725830078125</LongitudeDegrees>
            </Position>
            <AltitudeMeters>143.399993896484375</AltitudeMeters>
            <DistanceMeters>NAN</DistanceMeters>
          </Trackpoint>
          <Trackpoint>
            <Time>2022-09-24T15:04:45.000Z</Time>
            <Position>
              <LatitudeDegrees>43.27944162301719188690185546875</LatitudeDegrees>
              <LongitudeDegrees>-2.7713715098798274993896484375</LongitudeDegrees>
            </Position>
            <AltitudeMeters>143.600006103515625</AltitudeMeters>
            <DistanceMeters>NAN</DistanceMeters>
          </Trackpoint>
          <Trackpoint>
            <Time>2022-09-24T15:04:46.000Z</Time>
            <Position>
              <LatitudeDegrees>43.279449082911014556884765625</LatitudeDegrees>
              <LongitudeDegrees>-2.77132415212690830230712890625</LongitudeDegrees>
            </Position>
            <AltitudeMeters>144</AltitudeMeters>
            <DistanceMeters>NAN</DistanceMeters>
          </Trackpoint>
          <Trackpoint>
            <Time>2022-09-24T15:04:47.000Z</Time>
            <Position>
              <LatitudeDegrees>43.2794542796909809112548828125</LatitudeDegrees>
              <LongitudeDegrees>-2.77127922512590885162353515625</LongitudeDegrees>
            </Position>
            <AltitudeMeters>144</AltitudeMeters>
            <DistanceMeters>NAN</DistanceMeters>
          </Trackpoint>
          <Trackpoint>
            <Time>2022-09-24T15:04:48.000Z</Time>
            <Position>
              <LatitudeDegrees>43.27946056611835956573486328125</LatitudeDegrees>
              <LongitudeDegrees>-2.7712340466678142547607421875</LongitudeDegrees>
            </Position>
            <AltitudeMeters>144.1999969482421875</AltitudeMeters>
            <DistanceMeters>NAN</DistanceMeters>
          </Trackpoint>
          <Trackpoint>
            <Time>2022-09-24T15:04:49.000Z</Time>
            <Position>
              <LatitudeDegrees>43.27946525998413562774658203125</LatitudeDegrees>
              <LongitudeDegrees>-2.77118853293359279632568359375</LongitudeDegrees>
            </Position>
            <AltitudeMeters>144.8000030517578125</AltitudeMeters>
            <DistanceMeters>NAN</DistanceMeters>
          </Trackpoint>
          <Trackpoint>
            <Time>2022-09-24T15:04:50.000Z</Time>
            <Position>
              <LatitudeDegrees>43.2794717140495777130126953125</LatitudeDegrees>
              <LongitudeDegrees>-2.771143354475498199462890625</LongitudeDegrees>
            </Position>
            <AltitudeMeters>144.8000030517578125</AltitudeMeters>
            <DistanceMeters>NAN</DistanceMeters>
          </Trackpoint>
          <Trackpoint>
            <Time>2022-09-24T15:04:51.000Z</Time>
            <Position>
              <LatitudeDegrees>43.27947783283889293670654296875</LatitudeDegrees>
              <LongitudeDegrees>-2.771099768579006195068359375</LongitudeDegrees>
            </Position>
            <AltitudeMeters>145</AltitudeMeters>
            <DistanceMeters>NAN</DistanceMeters>
          </Trackpoint>
          <Trackpoint>
            <Time>2022-09-24T15:04:52.000Z</Time>
            <Position>
              <LatitudeDegrees>43.27947783283889293670654296875</LatitudeDegrees>
              <LongitudeDegrees>-2.771099768579006195068359375</LongitudeDegrees>
            </Position>
            <AltitudeMeters>145.1999969482421875</AltitudeMeters>
            <DistanceMeters>NAN</DistanceMeters>
          </Trackpoint>
          <Trackpoint>
            <Time>2022-09-24T15:04:53.000Z</Time>
            <Position>
              <LatitudeDegrees>43.27949275262653827667236328125</LatitudeDegrees>
              <LongitudeDegrees>-2.77100664563477039337158203125</LongitudeDegrees>
            </Position>
            <AltitudeMeters>145.600006103515625</AltitudeMeters>
            <DistanceMeters>NAN</DistanceMeters>
          </Trackpoint>
          <Trackpoint>
            <Time>2022-09-24T15:04:54.000Z</Time>
            <Position>
              <LatitudeDegrees>43.27949224971234798431396484375</LatitudeDegrees>
              <LongitudeDegrees>-2.7709624730050563812255859375</LongitudeDegrees>
            </Position>
            <AltitudeMeters>145.8000030517578125</AltitudeMeters>
            <DistanceMeters>NAN</DistanceMeters>
          </Trackpoint>
          <Trackpoint>
            <Time>2022-09-24T15:04:55.000Z</Time>
            <Position>
              <LatitudeDegrees>43.27949224971234798431396484375</LatitudeDegrees>
              <LongitudeDegrees>-2.7709624730050563812255859375</LongitudeDegrees>
            </Position>
            <AltitudeMeters>145.8000030517578125</AltitudeMeters>
            <DistanceMeters>NAN</DistanceMeters>
          </Trackpoint>
          <Trackpoint>
            <Time>2022-09-24T15:04:56.000Z</Time>
            <Position>
              <LatitudeDegrees>43.27949996106326580047607421875</LatitudeDegrees>
              <LongitudeDegrees>-2.7708779834210872650146484375</LongitudeDegrees>
            </Position>
            <AltitudeMeters>146</AltitudeMeters>
            <DistanceMeters>NAN</DistanceMeters>
          </Trackpoint>
          <Trackpoint>
            <Time>2022-09-24T15:04:57.000Z</Time>
            <Position>
              <LatitudeDegrees>43.2795039005577564239501953125</LatitudeDegrees>
              <LongitudeDegrees>-2.770834900438785552978515625</LongitudeDegrees>
            </Position>
            <AltitudeMeters>146.399993896484375</AltitudeMeters>
            <DistanceMeters>NAN</DistanceMeters>
          </Trackpoint>
          <Trackpoint>
            <Time>2022-09-24T15:04:58.000Z</Time>
            <Position>
              <LatitudeDegrees>43.27950482256710529327392578125</LatitudeDegrees>
              <LongitudeDegrees>-2.77079223655164241790771484375</LongitudeDegrees>
            </Position>
            <AltitudeMeters>146.8000030517578125</AltitudeMeters>
            <DistanceMeters>NAN</DistanceMeters>
          </Trackpoint>
          <Trackpoint>
            <Time>2022-09-24T15:04:59.000Z</Time>
            <Position>
              <LatitudeDegrees>43.27950297854840755462646484375</LatitudeDegrees>
              <LongitudeDegrees>-2.77074948884546756744384765625</LongitudeDegrees>
            </Position>
            <AltitudeMeters>147</AltitudeMeters>
            <DistanceMeters>NAN</DistanceMeters>
          </Trackpoint>
          <Trackpoint>
            <Time>2022-09-24T15:05:00.000Z</Time>
            <Position>
              <LatitudeDegrees>43.27950297854840755462646484375</LatitudeDegrees>
              <LongitudeDegrees>-2.77074948884546756744384765625</LongitudeDegrees>
            </Position>
            <AltitudeMeters>147</AltitudeMeters>
            <DistanceMeters>NAN</DistanceMeters>
          </Trackpoint>
          <Trackpoint>
            <Time>2022-09-24T15:05:01.000Z</Time>
            <Position>
              <LatitudeDegrees>43.2795035652816295623779296875</LatitudeDegrees>
              <LongitudeDegrees>-2.77066550217568874359130859375</LongitudeDegrees>
            </Position>
            <AltitudeMeters>147.1999969482421875</AltitudeMeters>
            <DistanceMeters>NAN</DistanceMeters>
          </Trackpoint>
          <Trackpoint>
            <Time>2022-09-24T15:05:02.000Z</Time>
            <Position>
              <LatitudeDegrees>43.2795065827667713165283203125</LatitudeDegrees>
              <LongitudeDegrees>-2.77062476612627506256103515625</LongitudeDegrees>
            </Position>
            <AltitudeMeters>147.600006103515625</AltitudeMeters>
            <DistanceMeters>NAN</DistanceMeters>
          </Trackpoint>
          <Trackpoint>
            <Time>2022-09-24T15:05:03.000Z</Time>
            <Position>
              <LatitudeDegrees>43.27950733713805675506591796875</LatitudeDegrees>
              <LongitudeDegrees>-2.77058436535298824310302734375</LongitudeDegrees>
            </Position>
            <AltitudeMeters>147.8000030517578125</AltitudeMeters>
            <DistanceMeters>NAN</DistanceMeters>
          </Trackpoint>
          <Trackpoint>
            <Time>2022-09-24T15:05:04.000Z</Time>
            <Position>
              <LatitudeDegrees>43.2795049063861370086669921875</LatitudeDegrees>
              <LongitudeDegrees>-2.77054446749389171600341796875</LongitudeDegrees>
            </Position>
            <AltitudeMeters>148.1999969482421875</AltitudeMeters>
            <DistanceMeters>NAN</DistanceMeters>
          </Trackpoint>
          <Trackpoint>
            <Time>2022-09-24T15:05:05.000Z</Time>
            <Position>
              <LatitudeDegrees>43.279502056539058685302734375</LatitudeDegrees>
              <LongitudeDegrees>-2.7705028094351291656494140625</LongitudeDegrees>
            </Position>
            <AltitudeMeters>148.399993896484375</AltitudeMeters>
            <DistanceMeters>NAN</DistanceMeters>
          </Trackpoint>
          <Trackpoint>
            <Time>2022-09-24T15:05:06.000Z</Time>
            <Position>
              <LatitudeDegrees>43.27950038015842437744140625</LatitudeDegrees>
              <LongitudeDegrees>-2.770462073385715484619140625</LongitudeDegrees>
            </Position>
            <AltitudeMeters>148.399993896484375</AltitudeMeters>
            <DistanceMeters>NAN</DistanceMeters>
          </Trackpoint>
          <Trackpoint>
            <Time>2022-09-24T15:05:07.000Z</Time>
            <Position>
              <LatitudeDegrees>43.279499709606170654296875</LatitudeDegrees>
              <LongitudeDegrees>-2.77042209170758724212646484375</LongitudeDegrees>
            </Position>
            <AltitudeMeters>148.600006103515625</AltitudeMeters>
            <DistanceMeters>NAN</DistanceMeters>
          </Trackpoint>
          <Trackpoint>
            <Time>2022-09-24T15:05:08.000Z</Time>
            <Position>
              <LatitudeDegrees>43.279498703777790069580078125</LatitudeDegrees>
              <LongitudeDegrees>-2.77038135565817356109619140625</LongitudeDegrees>
            </Position>
            <AltitudeMeters>148.8000030517578125</AltitudeMeters>
            <DistanceMeters>NAN</DistanceMeters>
          </Trackpoint>
          <Trackpoint>
            <Time>2022-09-24T15:05:09.000Z</Time>
            <Position>
              <LatitudeDegrees>43.27949903905391693115234375</LatitudeDegrees>
              <LongitudeDegrees>-2.77034103870391845703125</LongitudeDegrees>
            </Position>
            <AltitudeMeters>149.1999969482421875</AltitudeMeters>
            <DistanceMeters>NAN</DistanceMeters>
          </Trackpoint>
          <Trackpoint>
            <Time>2022-09-24T15:05:10.000Z</Time>
            <Position>
              <LatitudeDegrees>43.27949694357812404632568359375</LatitudeDegrees>
              <LongitudeDegrees>-2.77030088938772678375244140625</LongitudeDegrees>
            </Position>
            <AltitudeMeters>149.600006103515625</AltitudeMeters>
            <DistanceMeters>NAN</DistanceMeters>
          </Trackpoint>
          <Trackpoint>
            <Time>2022-09-24T15:05:11.000Z</Time>
            <Position>
              <LatitudeDegrees>43.2794961892068386077880859375</LatitudeDegrees>
              <LongitudeDegrees>-2.770260237157344818115234375</LongitudeDegrees>
            </Position>
            <AltitudeMeters>150</AltitudeMeters>
            <DistanceMeters>NAN</DistanceMeters>
          </Trackpoint>
          <Trackpoint>
            <Time>2022-09-24T15:05:12.000Z</Time>
            <Position>
              <LatitudeDegrees>43.2794961892068386077880859375</LatitudeDegrees>
              <LongitudeDegrees>-2.770218662917613983154296875</LongitudeDegrees>
            </Position>
            <AltitudeMeters>150</AltitudeMeters>
            <DistanceMeters>NAN</DistanceMeters>
          </Trackpoint>
          <Trackpoint>
            <Time>2022-09-24T15:05:13.000Z</Time>
            <Position>
              <LatitudeDegrees>43.2794945128262042999267578125</LatitudeDegrees>
              <LongitudeDegrees>-2.77017717249691486358642578125</LongitudeDegrees>
            </Position>
            <AltitudeMeters>150.1999969482421875</AltitudeMeters>
            <DistanceMeters>NAN</DistanceMeters>
          </Trackpoint>
          <Trackpoint>
            <Time>2022-09-24T15:05:14.000Z</Time>
            <Position>
              <LatitudeDegrees>43.2794901542365550994873046875</LatitudeDegrees>
              <LongitudeDegrees>-2.77013408951461315155029296875</LongitudeDegrees>
            </Position>
            <AltitudeMeters>150.399993896484375</AltitudeMeters>
            <DistanceMeters>NAN</DistanceMeters>
          </Trackpoint>
          <Trackpoint>
            <Time>2022-09-24T15:05:15.000Z</Time>
            <Position>
              <LatitudeDegrees>43.27948655001819133758544921875</LatitudeDegrees>
              <LongitudeDegrees>-2.7700944431126117706298828125</LongitudeDegrees>
            </Position>
            <AltitudeMeters>150.600006103515625</AltitudeMeters>
            <DistanceMeters>NAN</DistanceMeters>
          </Trackpoint>
          <Trackpoint>
            <Time>2022-09-24T15:05:16.000Z</Time>
            <Position>
              <LatitudeDegrees>43.2794854603707790374755859375</LatitudeDegrees>
              <LongitudeDegrees>-2.770054377615451812744140625</LongitudeDegrees>
            </Position>
            <AltitudeMeters>150.600006103515625</AltitudeMeters>
            <DistanceMeters>NAN</DistanceMeters>
          </Trackpoint>
          <Trackpoint>
            <Time>2022-09-24T15:05:17.000Z</Time>
            <Position>
              <LatitudeDegrees>43.27948302961885929107666015625</LatitudeDegrees>
              <LongitudeDegrees>-2.77001439593732357025146484375</LongitudeDegrees>
            </Position>
            <AltitudeMeters>151</AltitudeMeters>
            <DistanceMeters>NAN</DistanceMeters>
          </Trackpoint>
          <Trackpoint>
            <Time>2022-09-24T15:05:18.000Z</Time>
            <Position>
              <LatitudeDegrees>43.2794817723333835601806640625</LatitudeDegrees>
              <LongitudeDegrees>-2.769973911345005035400390625</LongitudeDegrees>
            </Position>
            <AltitudeMeters>151</AltitudeMeters>
            <DistanceMeters>NAN</DistanceMeters>
          </Trackpoint>
          <Trackpoint>
            <Time>2022-09-24T15:05:19.000Z</Time>
            <Position>
              <LatitudeDegrees>43.27948453836143016815185546875</LatitudeDegrees>
              <LongitudeDegrees>-2.76993258856236934661865234375</LongitudeDegrees>
            </Position>
            <AltitudeMeters>151.399993896484375</AltitudeMeters>
            <DistanceMeters>NAN</DistanceMeters>
          </Trackpoint>
          <Trackpoint>
            <Time>2022-09-24T15:05:20.000Z</Time>
            <Position>
              <LatitudeDegrees>43.27948370017111301422119140625</LatitudeDegrees>
              <LongitudeDegrees>-2.7698916010558605194091796875</LongitudeDegrees>
            </Position>
            <AltitudeMeters>151.600006103515625</AltitudeMeters>
            <DistanceMeters>NAN</DistanceMeters>
          </Trackpoint>
          <Trackpoint>
            <Time>2022-09-24T15:05:21.000Z</Time>
            <Position>
              <LatitudeDegrees>43.2794837839901447296142578125</LatitudeDegrees>
              <LongitudeDegrees>-2.76985220611095428466796875</LongitudeDegrees>
            </Position>
            <AltitudeMeters>151.8000030517578125</AltitudeMeters>
            <DistanceMeters>NAN</DistanceMeters>
          </Trackpoint>
          <Trackpoint>
            <Time>2022-09-24T15:05:22.000Z</Time>
            <Position>
              <LatitudeDegrees>43.2794800959527492523193359375</LatitudeDegrees>
              <LongitudeDegrees>-2.76981289498507976531982421875</LongitudeDegrees>
            </Position>
            <AltitudeMeters>152</AltitudeMeters>
            <DistanceMeters>NAN</DistanceMeters>
          </Trackpoint>
          <Trackpoint>
            <Time>2022-09-24T15:05:23.000Z</Time>
            <Position>
              <LatitudeDegrees>43.27947732992470264434814453125</LatitudeDegrees>
              <LongitudeDegrees>-2.76977098546922206878662109375</LongitudeDegrees>
            </Position>
            <AltitudeMeters>152.1999969482421875</AltitudeMeters>
            <DistanceMeters>NAN</DistanceMeters>
          </Trackpoint>
          <Trackpoint>
            <Time>2022-09-24T15:05:24.000Z</Time>
            <Position>
              <LatitudeDegrees>43.2794754020869731903076171875</LatitudeDegrees>
              <LongitudeDegrees>-2.76973192580044269561767578125</LongitudeDegrees>
            </Position>
            <AltitudeMeters>152.399993896484375</AltitudeMeters>
            <DistanceMeters>NAN</DistanceMeters>
          </Trackpoint>
          <Trackpoint>
            <Time>2022-09-24T15:05:25.000Z</Time>
            <Position>
              <LatitudeDegrees>43.279474563896656036376953125</LatitudeDegrees>
              <LongitudeDegrees>-2.7696941234171390533447265625</LongitudeDegrees>
            </Position>
            <AltitudeMeters>152.600006103515625</AltitudeMeters>
            <DistanceMeters>NAN</DistanceMeters>
          </Trackpoint>
          <Trackpoint>
            <Time>2022-09-24T15:05:26.000Z</Time>
            <Position>
              <LatitudeDegrees>43.2794727198779582977294921875</LatitudeDegrees>
              <LongitudeDegrees>-2.7696562372148036956787109375</LongitudeDegrees>
            </Position>
            <AltitudeMeters>152.8000030517578125</AltitudeMeters>
            <DistanceMeters>NAN</DistanceMeters>
          </Trackpoint>
          <Trackpoint>
            <Time>2022-09-24T15:05:27.000Z</Time>
            <Position>
              <LatitudeDegrees>43.27947179786860942840576171875</LatitudeDegrees>
              <LongitudeDegrees>-2.769619524478912353515625</LongitudeDegrees>
            </Position>
            <AltitudeMeters>153.1999969482421875</AltitudeMeters>
            <DistanceMeters>NAN</DistanceMeters>
          </Trackpoint>
          <Trackpoint>
            <Time>2022-09-24T15:05:28.000Z</Time>
            <Position>
              <LatitudeDegrees>43.27946995384991168975830078125</LatitudeDegrees>
              <LongitudeDegrees>-2.76958071626722812652587890625</LongitudeDegrees>
            </Position>
            <AltitudeMeters>153.1999969482421875</AltitudeMeters>
            <DistanceMeters>NAN</DistanceMeters>
          </Trackpoint>
          <Trackpoint>
            <Time>2022-09-24T15:05:29.000Z</Time>
            <Position>
              <LatitudeDegrees>43.279469870030879974365234375</LatitudeDegrees>
              <LongitudeDegrees>-2.7695439197123050689697265625</LongitudeDegrees>
            </Position>
            <AltitudeMeters>153.399993896484375</AltitudeMeters>
            <DistanceMeters>NAN</DistanceMeters>
          </Trackpoint>
          <Trackpoint>
            <Time>2022-09-24T15:05:30.000Z</Time>
            <Position>
              <LatitudeDegrees>43.27946953475475311279296875</LatitudeDegrees>
              <LongitudeDegrees>-2.76950662024319171905517578125</LongitudeDegrees>
            </Position>
            <AltitudeMeters>153.600006103515625</AltitudeMeters>
            <DistanceMeters>NAN</DistanceMeters>
          </Trackpoint>
          <Trackpoint>
            <Time>2022-09-24T15:05:31.000Z</Time>
            <Position>
              <LatitudeDegrees>43.27947163023054599761962890625</LatitudeDegrees>
              <LongitudeDegrees>-2.7694704942405223846435546875</LongitudeDegrees>
            </Position>
            <AltitudeMeters>154</AltitudeMeters>
            <DistanceMeters>NAN</DistanceMeters>
          </Trackpoint>
          <Trackpoint>
            <Time>2022-09-24T15:05:32.000Z</Time>
            <Position>
              <LatitudeDegrees>43.27947364188730716705322265625</LatitudeDegrees>
              <LongitudeDegrees>-2.76943269185721874237060546875</LongitudeDegrees>
            </Position>
            <AltitudeMeters>154.1999969482421875</AltitudeMeters>
            <DistanceMeters>NAN</DistanceMeters>
          </Trackpoint>
          <Trackpoint>
            <Time>2022-09-24T15:05:33.000Z</Time>
            <Position>
              <LatitudeDegrees>43.27947732992470264434814453125</LatitudeDegrees>
              <LongitudeDegrees>-2.76939379982650279998779296875</LongitudeDegrees>
            </Position>
            <AltitudeMeters>154.1999969482421875</AltitudeMeters>
            <DistanceMeters>NAN</DistanceMeters>
          </Trackpoint>
          <Trackpoint>
            <Time>2022-09-24T15:05:34.000Z</Time>
            <Position>
              <LatitudeDegrees>43.27948135323822498321533203125</LatitudeDegrees>
              <LongitudeDegrees>-2.769354991614818572998046875</LongitudeDegrees>
            </Position>
            <AltitudeMeters>154.399993896484375</AltitudeMeters>
            <DistanceMeters>NAN</DistanceMeters>
          </Trackpoint>
          <Trackpoint>
            <Time>2022-09-24T15:05:35.000Z</Time>
            <Position>
              <LatitudeDegrees>43.27948428690433502197265625</LatitudeDegrees>
              <LongitudeDegrees>-2.769315429031848907470703125</LongitudeDegrees>
            </Position>
            <AltitudeMeters>154.600006103515625</AltitudeMeters>
            <DistanceMeters>NAN</DistanceMeters>
          </Trackpoint>
          <Trackpoint>
            <Time>2022-09-24T15:05:36.000Z</Time>
            <Position>
              <LatitudeDegrees>43.2794903218746185302734375</LatitudeDegrees>
              <LongitudeDegrees>-2.7692756988108158111572265625</LongitudeDegrees>
            </Position>
            <AltitudeMeters>154.600006103515625</AltitudeMeters>
            <DistanceMeters>NAN</DistanceMeters>
          </Trackpoint>
          <Trackpoint>
            <Time>2022-09-24T15:05:37.000Z</Time>
            <Position>
              <LatitudeDegrees>43.2794956862926483154296875</LatitudeDegrees>
              <LongitudeDegrees>-2.7692364715039730072021484375</LongitudeDegrees>
            </Position>
            <AltitudeMeters>155</AltitudeMeters>
            <DistanceMeters>NAN</DistanceMeters>
          </Trackpoint>
          <Trackpoint>
            <Time>2022-09-24T15:05:38.000Z</Time>
            <Position>
              <LatitudeDegrees>43.2795005477964878082275390625</LatitudeDegrees>
              <LongitudeDegrees>-2.76919866912066936492919921875</LongitudeDegrees>
            </Position>
            <AltitudeMeters>155.1999969482421875</AltitudeMeters>
            <DistanceMeters>NAN</DistanceMeters>
          </Trackpoint>
          <Trackpoint>
            <Time>2022-09-24T15:05:39.000Z</Time>
            <Position>
              <LatitudeDegrees>43.2795065827667713165283203125</LatitudeDegrees>
              <LongitudeDegrees>-2.76916178874671459197998046875</LongitudeDegrees>
            </Position>
            <AltitudeMeters>155.399993896484375</AltitudeMeters>
            <DistanceMeters>NAN</DistanceMeters>
          </Trackpoint>
          <Trackpoint>
            <Time>2022-09-24T15:05:40.000Z</Time>
            <Position>
              <LatitudeDegrees>43.27951588667929172515869140625</LatitudeDegrees>
              <LongitudeDegrees>-2.76912557892501354217529296875</LongitudeDegrees>
            </Position>
            <AltitudeMeters>155.399993896484375</AltitudeMeters>
            <DistanceMeters>NAN</DistanceMeters>
          </Trackpoint>
          <Trackpoint>
            <Time>2022-09-24T15:05:41.000Z</Time>
            <Position>
              <LatitudeDegrees>43.2795266993343830108642578125</LatitudeDegrees>
              <LongitudeDegrees>-2.7690912969410419464111328125</LongitudeDegrees>
            </Position>
            <AltitudeMeters>156</AltitudeMeters>
            <DistanceMeters>NAN</DistanceMeters>
          </Trackpoint>
          <Trackpoint>
            <Time>2022-09-24T15:05:42.000Z</Time>
            <Position>
              <LatitudeDegrees>43.27953583560883998870849609375</LatitudeDegrees>
              <LongitudeDegrees>-2.7690544165670871734619140625</LongitudeDegrees>
            </Position>
            <AltitudeMeters>156</AltitudeMeters>
            <DistanceMeters>NAN</DistanceMeters>
          </Trackpoint>
          <Trackpoint>
            <Time>2022-09-24T15:05:43.000Z</Time>
            <Position>
              <LatitudeDegrees>43.27954354695975780487060546875</LatitudeDegrees>
              <LongitudeDegrees>-2.7690188772976398468017578125</LongitudeDegrees>
            </Position>
            <AltitudeMeters>156.1999969482421875</AltitudeMeters>
            <DistanceMeters>NAN</DistanceMeters>
          </Trackpoint>
          <Trackpoint>
            <Time>2022-09-24T15:05:44.000Z</Time>
            <Position>
              <LatitudeDegrees>43.279551677405834197998046875</LatitudeDegrees>
              <LongitudeDegrees>-2.7689816616475582122802734375</LongitudeDegrees>
            </Position>
            <AltitudeMeters>156.399993896484375</AltitudeMeters>
            <DistanceMeters>NAN</DistanceMeters>
          </Trackpoint>
          <Trackpoint>
            <Time>2022-09-24T15:05:45.000Z</Time>
            <Position>
              <LatitudeDegrees>43.27956181950867176055908203125</LatitudeDegrees>
              <LongitudeDegrees>-2.76894218288362026214599609375</LongitudeDegrees>
            </Position>
            <AltitudeMeters>156.399993896484375</AltitudeMeters>
            <DistanceMeters>NAN</DistanceMeters>
          </Trackpoint>
          <Trackpoint>
            <Time>2022-09-24T15:05:46.000Z</Time>
            <Position>
              <LatitudeDegrees>43.27957053668797016143798828125</LatitudeDegrees>
              <LongitudeDegrees>-2.768903709948062896728515625</LongitudeDegrees>
            </Position>
            <AltitudeMeters>156.600006103515625</AltitudeMeters>
            <DistanceMeters>NAN</DistanceMeters>
          </Trackpoint>
          <Trackpoint>
            <Time>2022-09-24T15:05:47.000Z</Time>
            <Position>
              <LatitudeDegrees>43.27957908622920513153076171875</LatitudeDegrees>
              <LongitudeDegrees>-2.76886649429798126220703125</LongitudeDegrees>
            </Position>
            <AltitudeMeters>156.8000030517578125</AltitudeMeters>
            <DistanceMeters>NAN</DistanceMeters>
          </Trackpoint>
          <Trackpoint>
            <Time>2022-09-24T15:05:48.000Z</Time>
            <Position>
              <LatitudeDegrees>43.27957908622920513153076171875</LatitudeDegrees>
              <LongitudeDegrees>-2.76886649429798126220703125</LongitudeDegrees>
            </Position>
            <AltitudeMeters>157</AltitudeMeters>
            <DistanceMeters>NAN</DistanceMeters>
          </Trackpoint>
          <Trackpoint>
            <Time>2022-09-24T15:05:49.000Z</Time>
            <Position>
              <LatitudeDegrees>43.27960121445357799530029296875</LatitudeDegrees>
              <LongitudeDegrees>-2.768796421587467193603515625</LongitudeDegrees>
            </Position>
            <AltitudeMeters>157.1999969482421875</AltitudeMeters>
            <DistanceMeters>NAN</DistanceMeters>
          </Trackpoint>
          <Trackpoint>
            <Time>2022-09-24T15:05:50.000Z</Time>
            <Position>
              <LatitudeDegrees>43.279612027108669281005859375</LatitudeDegrees>
              <LongitudeDegrees>-2.76876113377511501312255859375</LongitudeDegrees>
            </Position>
            <AltitudeMeters>157.399993896484375</AltitudeMeters>
            <DistanceMeters>NAN</DistanceMeters>
          </Trackpoint>
          <Trackpoint>
            <Time>2022-09-24T15:05:51.000Z</Time>
            <Position>
              <LatitudeDegrees>43.2796235941350460052490234375</LatitudeDegrees>
              <LongitudeDegrees>-2.76872458867728710174560546875</LongitudeDegrees>
            </Position>
            <AltitudeMeters>157.399993896484375</AltitudeMeters>
            <DistanceMeters>NAN</DistanceMeters>
          </Trackpoint>
          <Trackpoint>
            <Time>2022-09-24T15:05:52.000Z</Time>
            <Position>
              <LatitudeDegrees>43.27963675372302532196044921875</LatitudeDegrees>
              <LongitudeDegrees>-2.768687121570110321044921875</LongitudeDegrees>
            </Position>
            <AltitudeMeters>157.600006103515625</AltitudeMeters>
            <DistanceMeters>NAN</DistanceMeters>
          </Trackpoint>
          <Trackpoint>
            <Time>2022-09-24T15:05:53.000Z</Time>
            <Position>
              <LatitudeDegrees>43.27965058386325836181640625</LatitudeDegrees>
              <LongitudeDegrees>-2.768650241196155548095703125</LongitudeDegrees>
            </Position>
            <AltitudeMeters>158</AltitudeMeters>
            <DistanceMeters>NAN</DistanceMeters>
          </Trackpoint>
          <Trackpoint>
            <Time>2022-09-24T15:05:54.000Z</Time>
            <Position>
              <LatitudeDegrees>43.27966441400349140167236328125</LatitudeDegrees>
              <LongitudeDegrees>-2.76861570775508880615234375</LongitudeDegrees>
            </Position>
            <AltitudeMeters>158.399993896484375</AltitudeMeters>
            <DistanceMeters>NAN</DistanceMeters>
          </Trackpoint>
          <Trackpoint>
            <Time>2022-09-24T15:05:55.000Z</Time>
            <Position>
              <LatitudeDegrees>43.27967883087694644927978515625</LatitudeDegrees>
              <LongitudeDegrees>-2.7685796655714511871337890625</LongitudeDegrees>
            </Position>
            <AltitudeMeters>158.399993896484375</AltitudeMeters>
            <DistanceMeters>NAN</DistanceMeters>
          </Trackpoint>
          <Trackpoint>
            <Time>2022-09-24T15:05:56.000Z</Time>
            <Position>
              <LatitudeDegrees>43.27969341538846492767333984375</LatitudeDegrees>
              <LongitudeDegrees>-2.76854588650166988372802734375</LongitudeDegrees>
            </Position>
            <AltitudeMeters>158.600006103515625</AltitudeMeters>
            <DistanceMeters>NAN</DistanceMeters>
          </Trackpoint>
          <Trackpoint>
            <Time>2022-09-24T15:05:57.000Z</Time>
            <Position>
              <LatitudeDegrees>43.2797067426145076751708984375</LatitudeDegrees>
              <LongitudeDegrees>-2.7685095928609371185302734375</LongitudeDegrees>
            </Position>
            <AltitudeMeters>159</AltitudeMeters>
            <DistanceMeters>NAN</DistanceMeters>
          </Trackpoint>
          <Trackpoint>
            <Time>2022-09-24T15:05:58.000Z</Time>
            <Position>
              <LatitudeDegrees>43.27972124330699443817138671875</LatitudeDegrees>
              <LongitudeDegrees>-2.76847229339182376861572265625</LongitudeDegrees>
            </Position>
            <AltitudeMeters>159</AltitudeMeters>
            <DistanceMeters>NAN</DistanceMeters>
          </Trackpoint>
          <Trackpoint>
            <Time>2022-09-24T15:05:59.000Z</Time>
            <Position>
              <LatitudeDegrees>43.2797344028949737548828125</LatitudeDegrees>
              <LongitudeDegrees>-2.76843775995075702667236328125</LongitudeDegrees>
            </Position>
            <AltitudeMeters>159.1999969482421875</AltitudeMeters>
            <DistanceMeters>NAN</DistanceMeters>
          </Trackpoint>
          <Trackpoint>
            <Time>2022-09-24T15:06:00.000Z</Time>
            <Position>
              <LatitudeDegrees>43.27974538318812847137451171875</LatitudeDegrees>
              <LongitudeDegrees>-2.76840456761419773101806640625</LongitudeDegrees>
            </Position>
            <AltitudeMeters>159.399993896484375</AltitudeMeters>
            <DistanceMeters>NAN</DistanceMeters>
          </Trackpoint>
          <Trackpoint>
            <Time>2022-09-24T15:06:01.000Z</Time>
            <Position>
              <LatitudeDegrees>43.279759548604488372802734375</LatitudeDegrees>
              <LongitudeDegrees>-2.7683714590966701507568359375</LongitudeDegrees>
            </Position>
            <AltitudeMeters>159.600006103515625</AltitudeMeters>
            <DistanceMeters>NAN</DistanceMeters>
          </Trackpoint>
          <Trackpoint>
            <Time>2022-09-24T15:06:02.000Z</Time>
            <Position>
              <LatitudeDegrees>43.27977597713470458984375</LatitudeDegrees>
              <LongitudeDegrees>-2.76833407580852508544921875</LongitudeDegrees>
            </Position>
            <AltitudeMeters>159.600006103515625</AltitudeMeters>
            <DistanceMeters>NAN</DistanceMeters>
          </Trackpoint>
          <Trackpoint>
            <Time>2022-09-24T15:06:03.000Z</Time>
            <Position>
              <LatitudeDegrees>43.27979533933103084564208984375</LatitudeDegrees>
              <LongitudeDegrees>-2.76829660870134830474853515625</LongitudeDegrees>
            </Position>
            <AltitudeMeters>160</AltitudeMeters>
            <DistanceMeters>NAN</DistanceMeters>
          </Trackpoint>
          <Trackpoint>
            <Time>2022-09-24T15:06:04.000Z</Time>
            <Position>
              <LatitudeDegrees>43.27980958856642246246337890625</LatitudeDegrees>
              <LongitudeDegrees>-2.76826031506061553955078125</LongitudeDegrees>
            </Position>
            <AltitudeMeters>160</AltitudeMeters>
            <DistanceMeters>NAN</DistanceMeters>
          </Trackpoint>
          <Trackpoint>
            <Time>2022-09-24T15:06:05.000Z</Time>
            <Position>
              <LatitudeDegrees>43.27982534654438495635986328125</LatitudeDegrees>
              <LongitudeDegrees>-2.7682256139814853668212890625</LongitudeDegrees>
            </Position>
            <AltitudeMeters>160.1999969482421875</AltitudeMeters>
            <DistanceMeters>NAN</DistanceMeters>
          </Trackpoint>
          <Trackpoint>
            <Time>2022-09-24T15:06:06.000Z</Time>
            <Position>
              <LatitudeDegrees>43.27984160743653774261474609375</LatitudeDegrees>
              <LongitudeDegrees>-2.7681900747120380401611328125</LongitudeDegrees>
            </Position>
            <AltitudeMeters>160.399993896484375</AltitudeMeters>
            <DistanceMeters>NAN</DistanceMeters>
          </Trackpoint>
          <Trackpoint>
            <Time>2022-09-24T15:06:07.000Z</Time>
            <Position>
              <LatitudeDegrees>43.27984160743653774261474609375</LatitudeDegrees>
              <LongitudeDegrees>-2.7681900747120380401611328125</LongitudeDegrees>
            </Position>
            <AltitudeMeters>160.600006103515625</AltitudeMeters>
            <DistanceMeters>NAN</DistanceMeters>
          </Trackpoint>
          <Trackpoint>
            <Time>2022-09-24T15:06:08.000Z</Time>
            <Position>
              <LatitudeDegrees>43.27987077645957469940185546875</LatitudeDegrees>
              <LongitudeDegrees>-2.7681206725537776947021484375</LongitudeDegrees>
            </Position>
            <AltitudeMeters>160.8000030517578125</AltitudeMeters>
            <DistanceMeters>NAN</DistanceMeters>
          </Trackpoint>
          <Trackpoint>
            <Time>2022-09-24T15:06:09.000Z</Time>
            <Position>
              <LatitudeDegrees>43.2798847742378711700439453125</LatitudeDegrees>
              <LongitudeDegrees>-2.7680874802172183990478515625</LongitudeDegrees>
            </Position>
            <AltitudeMeters>161.1999969482421875</AltitudeMeters>
            <DistanceMeters>NAN</DistanceMeters>
          </Trackpoint>
          <Trackpoint>
            <Time>2022-09-24T15:06:10.000Z</Time>
            <Position>
              <LatitudeDegrees>43.27989860437810420989990234375</LatitudeDegrees>
              <LongitudeDegrees>-2.76805504225194454193115234375</LongitudeDegrees>
            </Position>
            <AltitudeMeters>161.1999969482421875</AltitudeMeters>
            <DistanceMeters>NAN</DistanceMeters>
          </Trackpoint>
          <Trackpoint>
            <Time>2022-09-24T15:06:11.000Z</Time>
            <Position>
              <LatitudeDegrees>43.279912434518337249755859375</LatitudeDegrees>
              <LongitudeDegrees>-2.76802168227732181549072265625</LongitudeDegrees>
            </Position>
            <AltitudeMeters>161.399993896484375</AltitudeMeters>
            <DistanceMeters>NAN</DistanceMeters>
          </Trackpoint>
          <Trackpoint>
            <Time>2022-09-24T15:06:12.000Z</Time>
            <Position>
              <LatitudeDegrees>43.27992525883018970489501953125</LatitudeDegrees>
              <LongitudeDegrees>-2.76798748411238193511962890625</LongitudeDegrees>
            </Position>
            <AltitudeMeters>161.399993896484375</AltitudeMeters>
            <DistanceMeters>NAN</DistanceMeters>
          </Trackpoint>
          <Trackpoint>
            <Time>2022-09-24T15:06:13.000Z</Time>
            <Position>
              <LatitudeDegrees>43.27994168736040592193603515625</LatitudeDegrees>
              <LongitudeDegrees>-2.767953537404537200927734375</LongitudeDegrees>
            </Position>
            <AltitudeMeters>161.8000030517578125</AltitudeMeters>
            <DistanceMeters>NAN</DistanceMeters>
          </Trackpoint>
          <Trackpoint>
            <Time>2022-09-24T15:06:14.000Z</Time>
            <Position>
              <LatitudeDegrees>43.2799561880528926849365234375</LatitudeDegrees>
              <LongitudeDegrees>-2.7679188363254070281982421875</LongitudeDegrees>
            </Position>
            <AltitudeMeters>162</AltitudeMeters>
            <DistanceMeters>NAN</DistanceMeters>
          </Trackpoint>
          <Trackpoint>
            <Time>2022-09-24T15:06:15.000Z</Time>
            <Position>
              <LatitudeDegrees>43.279972113668918609619140625</LatitudeDegrees>
              <LongitudeDegrees>-2.7678846381604671478271484375</LongitudeDegrees>
            </Position>
            <AltitudeMeters>162.1999969482421875</AltitudeMeters>
            <DistanceMeters>NAN</DistanceMeters>
          </Trackpoint>
          <Trackpoint>
            <Time>2022-09-24T15:06:16.000Z</Time>
            <Position>
              <LatitudeDegrees>43.27998896129429340362548828125</LatitudeDegrees>
              <LongitudeDegrees>-2.767851613461971282958984375</LongitudeDegrees>
            </Position>
            <AltitudeMeters>162.399993896484375</AltitudeMeters>
            <DistanceMeters>NAN</DistanceMeters>
          </Trackpoint>
          <Trackpoint>
            <Time>2022-09-24T15:06:17.000Z</Time>
            <Position>
              <LatitudeDegrees>43.28000471927225589752197265625</LatitudeDegrees>
              <LongitudeDegrees>-2.76781766675412654876708984375</LongitudeDegrees>
            </Position>
            <AltitudeMeters>162.8000030517578125</AltitudeMeters>
            <DistanceMeters>NAN</DistanceMeters>
          </Trackpoint>
          <Trackpoint>
            <Time>2022-09-24T15:06:18.000Z</Time>
            <Position>
              <LatitudeDegrees>43.28000471927225589752197265625</LatitudeDegrees>
              <LongitudeDegrees>-2.76781766675412654876708984375</LongitudeDegrees>
            </Position>
            <AltitudeMeters>163</AltitudeMeters>
            <DistanceMeters>NAN</DistanceMeters>
          </Trackpoint>
          <Trackpoint>
            <Time>2022-09-24T15:06:19.000Z</Time>
            <Position>
              <LatitudeDegrees>43.28003372065722942352294921875</LatitudeDegrees>
              <LongitudeDegrees>-2.7677465043962001800537109375</LongitudeDegrees>
            </Position>
            <AltitudeMeters>163.1999969482421875</AltitudeMeters>
            <DistanceMeters>NAN</DistanceMeters>
          </Trackpoint>
          <Trackpoint>
            <Time>2022-09-24T15:06:20.000Z</Time>
            <Position>
              <LatitudeDegrees>43.28004713170230388641357421875</LatitudeDegrees>
              <LongitudeDegrees>-2.76771247386932373046875</LongitudeDegrees>
            </Position>
            <AltitudeMeters>163.399993896484375</AltitudeMeters>
            <DistanceMeters>NAN</DistanceMeters>
          </Trackpoint>
          <Trackpoint>
            <Time>2022-09-24T15:06:21.000Z</Time>
            <Position>
              <LatitudeDegrees>43.28006104566156864166259765625</LatitudeDegrees>
              <LongitudeDegrees>-2.76767886243760585784912109375</LongitudeDegrees>
            </Position>
            <AltitudeMeters>163.399993896484375</AltitudeMeters>
            <DistanceMeters>NAN</DistanceMeters>
          </Trackpoint>
          <Trackpoint>
            <Time>2022-09-24T15:06:22.000Z</Time>
            <Position>
              <LatitudeDegrees>43.280078060925006866455078125</LatitudeDegrees>
              <LongitudeDegrees>-2.767645083367824554443359375</LongitudeDegrees>
            </Position>
            <AltitudeMeters>163.399993896484375</AltitudeMeters>
            <DistanceMeters>NAN</DistanceMeters>
          </Trackpoint>
          <Trackpoint>
            <Time>2022-09-24T15:06:23.000Z</Time>
            <Position>
              <LatitudeDegrees>43.2800938189029693603515625</LatitudeDegrees>
              <LongitudeDegrees>-2.76760946027934551239013671875</LongitudeDegrees>
            </Position>
            <AltitudeMeters>164.1999969482421875</AltitudeMeters>
            <DistanceMeters>NAN</DistanceMeters>
          </Trackpoint>
          <Trackpoint>
            <Time>2022-09-24T15:06:24.000Z</Time>
            <Position>
              <LatitudeDegrees>43.28010848723351955413818359375</LatitudeDegrees>
              <LongitudeDegrees>-2.76757526211440563201904296875</LongitudeDegrees>
            </Position>
            <AltitudeMeters>164.600006103515625</AltitudeMeters>
            <DistanceMeters>NAN</DistanceMeters>
          </Trackpoint>
          <Trackpoint>
            <Time>2022-09-24T15:06:25.000Z</Time>
            <Position>
              <LatitudeDegrees>43.28012122772634029388427734375</LatitudeDegrees>
              <LongitudeDegrees>-2.76754307560622692108154296875</LongitudeDegrees>
            </Position>
            <AltitudeMeters>164.600006103515625</AltitudeMeters>
            <DistanceMeters>NAN</DistanceMeters>
          </Trackpoint>
          <Trackpoint>
            <Time>2022-09-24T15:06:26.000Z</Time>
            <Position>
              <LatitudeDegrees>43.28012122772634029388427734375</LatitudeDegrees>
              <LongitudeDegrees>-2.76754307560622692108154296875</LongitudeDegrees>
            </Position>
            <AltitudeMeters>164.600006103515625</AltitudeMeters>
            <DistanceMeters>NAN</DistanceMeters>
          </Trackpoint>
          <Trackpoint>
            <Time>2022-09-24T15:06:27.000Z</Time>
            <Position>
              <LatitudeDegrees>43.2801519893109798431396484375</LatitudeDegrees>
              <LongitudeDegrees>-2.7674789540469646453857421875</LongitudeDegrees>
            </Position>
            <AltitudeMeters>165</AltitudeMeters>
            <DistanceMeters>NAN</DistanceMeters>
          </Trackpoint>
          <Trackpoint>
            <Time>2022-09-24T15:06:28.000Z</Time>
            <Position>
              <LatitudeDegrees>43.28017453663051128387451171875</LatitudeDegrees>
              <LongitudeDegrees>-2.7674482762813568115234375</LongitudeDegrees>
            </Position>
            <AltitudeMeters>165.1999969482421875</AltitudeMeters>
            <DistanceMeters>NAN</DistanceMeters>
          </Trackpoint>
          <Trackpoint>
            <Time>2022-09-24T15:06:29.000Z</Time>
            <Position>
              <LatitudeDegrees>43.28019465319812297821044921875</LatitudeDegrees>
              <LongitudeDegrees>-2.767414748668670654296875</LongitudeDegrees>
            </Position>
            <AltitudeMeters>165.8000030517578125</AltitudeMeters>
            <DistanceMeters>NAN</DistanceMeters>
          </Trackpoint>
          <Trackpoint>
            <Time>2022-09-24T15:06:30.000Z</Time>
            <Position>
              <LatitudeDegrees>43.28021259047091007232666015625</LatitudeDegrees>
              <LongitudeDegrees>-2.7673793770372867584228515625</LongitudeDegrees>
            </Position>
            <AltitudeMeters>165.8000030517578125</AltitudeMeters>
            <DistanceMeters>NAN</DistanceMeters>
          </Trackpoint>
          <Trackpoint>
            <Time>2022-09-24T15:06:31.000Z</Time>
            <Position>
              <LatitudeDegrees>43.28022700734436511993408203125</LatitudeDegrees>
              <LongitudeDegrees>-2.7673461847007274627685546875</LongitudeDegrees>
            </Position>
            <AltitudeMeters>165.8000030517578125</AltitudeMeters>
            <DistanceMeters>NAN</DistanceMeters>
          </Trackpoint>
          <Trackpoint>
            <Time>2022-09-24T15:06:32.000Z</Time>
            <Position>
              <LatitudeDegrees>43.280238993465900421142578125</LatitudeDegrees>
              <LongitudeDegrees>-2.7673123218119144439697265625</LongitudeDegrees>
            </Position>
            <AltitudeMeters>166</AltitudeMeters>
            <DistanceMeters>NAN</DistanceMeters>
          </Trackpoint>
          <Trackpoint>
            <Time>2022-09-24T15:06:33.000Z</Time>
            <Position>
              <LatitudeDegrees>43.28025265596807003021240234375</LatitudeDegrees>
              <LongitudeDegrees>-2.7672794647514820098876953125</LongitudeDegrees>
            </Position>
            <AltitudeMeters>166.399993896484375</AltitudeMeters>
            <DistanceMeters>NAN</DistanceMeters>
          </Trackpoint>
          <Trackpoint>
            <Time>2022-09-24T15:06:34.000Z</Time>
            <Position>
              <LatitudeDegrees>43.28026975505053997039794921875</LatitudeDegrees>
              <LongitudeDegrees>-2.76724501512944698333740234375</LongitudeDegrees>
            </Position>
            <AltitudeMeters>166.600006103515625</AltitudeMeters>
            <DistanceMeters>NAN</DistanceMeters>
          </Trackpoint>
          <Trackpoint>
            <Time>2022-09-24T15:06:35.000Z</Time>
            <Position>
              <LatitudeDegrees>43.28028517775237560272216796875</LatitudeDegrees>
              <LongitudeDegrees>-2.767210565507411956787109375</LongitudeDegrees>
            </Position>
            <AltitudeMeters>166.8000030517578125</AltitudeMeters>
            <DistanceMeters>NAN</DistanceMeters>
          </Trackpoint>
          <Trackpoint>
            <Time>2022-09-24T15:06:36.000Z</Time>
            <Position>
              <LatitudeDegrees>43.28030076809227466583251953125</LatitudeDegrees>
              <LongitudeDegrees>-2.7671758644282817840576171875</LongitudeDegrees>
            </Position>
            <AltitudeMeters>167</AltitudeMeters>
            <DistanceMeters>NAN</DistanceMeters>
          </Trackpoint>
          <Trackpoint>
            <Time>2022-09-24T15:06:37.000Z</Time>
            <Position>
              <LatitudeDegrees>43.28030076809227466583251953125</LatitudeDegrees>
              <LongitudeDegrees>-2.7671758644282817840576171875</LongitudeDegrees>
            </Position>
            <AltitudeMeters>167</AltitudeMeters>
            <DistanceMeters>NAN</DistanceMeters>
          </Trackpoint>
          <Trackpoint>
            <Time>2022-09-24T15:06:38.000Z</Time>
            <Position>
              <LatitudeDegrees>43.2803330384194850921630859375</LatitudeDegrees>
              <LongitudeDegrees>-2.76710721664130687713623046875</LongitudeDegrees>
            </Position>
            <AltitudeMeters>167.1999969482421875</AltitudeMeters>
            <DistanceMeters>NAN</DistanceMeters>
          </Trackpoint>
          <Trackpoint>
            <Time>2022-09-24T15:06:39.000Z</Time>
            <Position>
              <LatitudeDegrees>43.28034535981714725494384765625</LatitudeDegrees>
              <LongitudeDegrees>-2.76707268320024013519287109375</LongitudeDegrees>
            </Position>
            <AltitudeMeters>167.399993896484375</AltitudeMeters>
            <DistanceMeters>NAN</DistanceMeters>
          </Trackpoint>
          <Trackpoint>
            <Time>2022-09-24T15:06:40.000Z</Time>
            <Position>
              <LatitudeDegrees>43.28034535981714725494384765625</LatitudeDegrees>
              <LongitudeDegrees>-2.76707268320024013519287109375</LongitudeDegrees>
            </Position>
            <AltitudeMeters>167.8000030517578125</AltitudeMeters>
            <DistanceMeters>NAN</DistanceMeters>
          </Trackpoint>
          <Trackpoint>
            <Time>2022-09-24T15:06:41.000Z</Time>
            <Position>
              <LatitudeDegrees>43.2803700864315032958984375</LatitudeDegrees>
              <LongitudeDegrees>-2.7670102380216121673583984375</LongitudeDegrees>
            </Position>
            <AltitudeMeters>168</AltitudeMeters>
            <DistanceMeters>NAN</DistanceMeters>
          </Trackpoint>
          <Trackpoint>
            <Time>2022-09-24T15:06:42.000Z</Time>
            <Position>
              <LatitudeDegrees>43.28038106672465801239013671875</LatitudeDegrees>
              <LongitudeDegrees>-2.7669803984463214874267578125</LongitudeDegrees>
            </Position>
            <AltitudeMeters>168.1999969482421875</AltitudeMeters>
            <DistanceMeters>NAN</DistanceMeters>
          </Trackpoint>
          <Trackpoint>
            <Time>2022-09-24T15:06:43.000Z</Time>
            <Position>
              <LatitudeDegrees>43.280393220484256744384765625</LatitudeDegrees>
              <LongitudeDegrees>-2.76694896630942821502685546875</LongitudeDegrees>
            </Position>
            <AltitudeMeters>168.399993896484375</AltitudeMeters>
            <DistanceMeters>NAN</DistanceMeters>
          </Trackpoint>
          <Trackpoint>
            <Time>2022-09-24T15:06:44.000Z</Time>
            <Position>
              <LatitudeDegrees>43.28040855936706066131591796875</LatitudeDegrees>
              <LongitudeDegrees>-2.766916193068027496337890625</LongitudeDegrees>
            </Position>
            <AltitudeMeters>168.8000030517578125</AltitudeMeters>
            <DistanceMeters>NAN</DistanceMeters>
          </Trackpoint>
          <Trackpoint>
            <Time>2022-09-24T15:06:45.000Z</Time>
            <Position>
              <LatitudeDegrees>43.28042247332632541656494140625</LatitudeDegrees>
              <LongitudeDegrees>-2.76688274927437305450439453125</LongitudeDegrees>
            </Position>
            <AltitudeMeters>168.8000030517578125</AltitudeMeters>
            <DistanceMeters>NAN</DistanceMeters>
          </Trackpoint>
          <Trackpoint>
            <Time>2022-09-24T15:06:46.000Z</Time>
            <Position>
              <LatitudeDegrees>43.28043781220912933349609375</LatitudeDegrees>
              <LongitudeDegrees>-2.7668462879955768585205078125</LongitudeDegrees>
            </Position>
            <AltitudeMeters>169.1999969482421875</AltitudeMeters>
            <DistanceMeters>NAN</DistanceMeters>
          </Trackpoint>
          <Trackpoint>
            <Time>2022-09-24T15:06:47.000Z</Time>
            <Position>
              <LatitudeDegrees>43.2804493792355060577392578125</LatitudeDegrees>
              <LongitudeDegrees>-2.7668097428977489471435546875</LongitudeDegrees>
            </Position>
            <AltitudeMeters>169.399993896484375</AltitudeMeters>
            <DistanceMeters>NAN</DistanceMeters>
          </Trackpoint>
          <Trackpoint>
            <Time>2022-09-24T15:06:48.000Z</Time>
            <Position>
              <LatitudeDegrees>43.28046421520411968231201171875</LatitudeDegrees>
              <LongitudeDegrees>-2.76677395217120647430419921875</LongitudeDegrees>
            </Position>
            <AltitudeMeters>169.399993896484375</AltitudeMeters>
            <DistanceMeters>NAN</DistanceMeters>
          </Trackpoint>
          <Trackpoint>
            <Time>2022-09-24T15:06:49.000Z</Time>
            <Position>
              <LatitudeDegrees>43.28047980554401874542236328125</LatitudeDegrees>
              <LongitudeDegrees>-2.76674025692045688629150390625</LongitudeDegrees>
            </Position>
            <AltitudeMeters>169.399993896484375</AltitudeMeters>
            <DistanceMeters>NAN</DistanceMeters>
          </Trackpoint>
          <Trackpoint>
            <Time>2022-09-24T15:06:50.000Z</Time>
            <Position>
              <LatitudeDegrees>43.28049355186522006988525390625</LatitudeDegrees>
              <LongitudeDegrees>-2.76670706458389759063720703125</LongitudeDegrees>
            </Position>
            <AltitudeMeters>169.8000030517578125</AltitudeMeters>
            <DistanceMeters>NAN</DistanceMeters>
          </Trackpoint>
          <Trackpoint>
            <Time>2022-09-24T15:06:51.000Z</Time>
            <Position>
              <LatitudeDegrees>43.28050729818642139434814453125</LatitudeDegrees>
              <LongitudeDegrees>-2.766675464808940887451171875</LongitudeDegrees>
            </Position>
            <AltitudeMeters>170</AltitudeMeters>
            <DistanceMeters>NAN</DistanceMeters>
          </Trackpoint>
          <Trackpoint>
            <Time>2022-09-24T15:06:52.000Z</Time>
            <Position>
              <LatitudeDegrees>43.2805202901363372802734375</LatitudeDegrees>
              <LongitudeDegrees>-2.766642607748508453369140625</LongitudeDegrees>
            </Position>
            <AltitudeMeters>170.1999969482421875</AltitudeMeters>
            <DistanceMeters>NAN</DistanceMeters>
          </Trackpoint>
          <Trackpoint>
            <Time>2022-09-24T15:06:53.000Z</Time>
            <Position>
              <LatitudeDegrees>43.280534707009792327880859375</LatitudeDegrees>
              <LongitudeDegrees>-2.766611762344837188720703125</LongitudeDegrees>
            </Position>
            <AltitudeMeters>170.1999969482421875</AltitudeMeters>
            <DistanceMeters>NAN</DistanceMeters>
          </Trackpoint>
          <Trackpoint>
            <Time>2022-09-24T15:06:54.000Z</Time>
            <Position>
              <LatitudeDegrees>43.28054971061646938323974609375</LatitudeDegrees>
              <LongitudeDegrees>-2.7665820904076099395751953125</LongitudeDegrees>
            </Position>
            <AltitudeMeters>170.600006103515625</AltitudeMeters>
            <DistanceMeters>NAN</DistanceMeters>
          </Trackpoint>
          <Trackpoint>
            <Time>2022-09-24T15:06:55.000Z</Time>
            <Position>
              <LatitudeDegrees>43.28054971061646938323974609375</LatitudeDegrees>
              <LongitudeDegrees>-2.7665820904076099395751953125</LongitudeDegrees>
            </Position>
            <AltitudeMeters>170.8000030517578125</AltitudeMeters>
            <DistanceMeters>NAN</DistanceMeters>
          </Trackpoint>
          <Trackpoint>
            <Time>2022-09-24T15:06:56.000Z</Time>
            <Position>
              <LatitudeDegrees>43.280578963458538055419921875</LatitudeDegrees>
              <LongitudeDegrees>-2.76651528663933277130126953125</LongitudeDegrees>
            </Position>
            <AltitudeMeters>171.1999969482421875</AltitudeMeters>
            <DistanceMeters>NAN</DistanceMeters>
          </Trackpoint>
          <Trackpoint>
            <Time>2022-09-24T15:06:57.000Z</Time>
            <Position>
              <LatitudeDegrees>43.280595056712627410888671875</LatitudeDegrees>
              <LongitudeDegrees>-2.7664815075695514678955078125</LongitudeDegrees>
            </Position>
            <AltitudeMeters>171.399993896484375</AltitudeMeters>
            <DistanceMeters>NAN</DistanceMeters>
          </Trackpoint>
          <Trackpoint>
            <Time>2022-09-24T15:06:58.000Z</Time>
            <Position>
              <LatitudeDegrees>43.28061006031930446624755859375</LatitudeDegrees>
              <LongitudeDegrees>-2.76644789613783359527587890625</LongitudeDegrees>
            </Position>
            <AltitudeMeters>171.600006103515625</AltitudeMeters>
            <DistanceMeters>NAN</DistanceMeters>
          </Trackpoint>
          <Trackpoint>
            <Time>2022-09-24T15:06:59.000Z</Time>
            <Position>
              <LatitudeDegrees>43.2806280814111232757568359375</LatitudeDegrees>
              <LongitudeDegrees>-2.76641336269676685333251953125</LongitudeDegrees>
            </Position>
            <AltitudeMeters>171.8000030517578125</AltitudeMeters>
            <DistanceMeters>NAN</DistanceMeters>
          </Trackpoint>
          <Trackpoint>
            <Time>2022-09-24T15:07:00.000Z</Time>
            <Position>
              <LatitudeDegrees>43.280642665922641754150390625</LatitudeDegrees>
              <LongitudeDegrees>-2.76638000272214412689208984375</LongitudeDegrees>
            </Position>
            <AltitudeMeters>172</AltitudeMeters>
            <DistanceMeters>NAN</DistanceMeters>
          </Trackpoint>
          <Trackpoint>
            <Time>2022-09-24T15:07:01.000Z</Time>
            <Position>
              <LatitudeDegrees>43.28065850771963596343994140625</LatitudeDegrees>
              <LongitudeDegrees>-2.7663443796336650848388671875</LongitudeDegrees>
            </Position>
            <AltitudeMeters>172</AltitudeMeters>
            <DistanceMeters>NAN</DistanceMeters>
          </Trackpoint>
          <Trackpoint>
            <Time>2022-09-24T15:07:02.000Z</Time>
            <Position>
              <LatitudeDegrees>43.28067443333566188812255859375</LatitudeDegrees>
              <LongitudeDegrees>-2.76630942709743976593017578125</LongitudeDegrees>
            </Position>
            <AltitudeMeters>172.600006103515625</AltitudeMeters>
            <DistanceMeters>NAN</DistanceMeters>
          </Trackpoint>
          <Trackpoint>
            <Time>2022-09-24T15:07:03.000Z</Time>
            <Position>
              <LatitudeDegrees>43.28068792819976806640625</LatitudeDegrees>
              <LongitudeDegrees>-2.7662739716470241546630859375</LongitudeDegrees>
            </Position>
            <AltitudeMeters>173.1999969482421875</AltitudeMeters>
            <DistanceMeters>NAN</DistanceMeters>
          </Trackpoint>
          <Trackpoint>
            <Time>2022-09-24T15:07:04.000Z</Time>
            <Position>
              <LatitudeDegrees>43.28070008195936679840087890625</LatitudeDegrees>
              <LongitudeDegrees>-2.76623767800629138946533203125</LongitudeDegrees>
            </Position>
            <AltitudeMeters>173.399993896484375</AltitudeMeters>
            <DistanceMeters>NAN</DistanceMeters>
          </Trackpoint>
          <Trackpoint>
            <Time>2022-09-24T15:07:05.000Z</Time>
            <Position>
              <LatitudeDegrees>43.2807129062712192535400390625</LatitudeDegrees>
              <LongitudeDegrees>-2.76619928888976573944091796875</LongitudeDegrees>
            </Position>
            <AltitudeMeters>173.399993896484375</AltitudeMeters>
            <DistanceMeters>NAN</DistanceMeters>
          </Trackpoint>
          <Trackpoint>
            <Time>2022-09-24T15:07:06.000Z</Time>
            <Position>
              <LatitudeDegrees>43.28072606585919857025146484375</LatitudeDegrees>
              <LongitudeDegrees>-2.76616341434419155120849609375</LongitudeDegrees>
            </Position>
            <AltitudeMeters>173.600006103515625</AltitudeMeters>
            <DistanceMeters>NAN</DistanceMeters>
          </Trackpoint>
          <Trackpoint>
            <Time>2022-09-24T15:07:07.000Z</Time>
            <Position>
              <LatitudeDegrees>43.2807410694658756256103515625</LatitudeDegrees>
              <LongitudeDegrees>-2.7661284618079662322998046875</LongitudeDegrees>
            </Position>
            <AltitudeMeters>173.8000030517578125</AltitudeMeters>
            <DistanceMeters>NAN</DistanceMeters>
          </Trackpoint>
          <Trackpoint>
            <Time>2022-09-24T15:07:08.000Z</Time>
            <Position>
              <LatitudeDegrees>43.28075540252029895782470703125</LatitudeDegrees>
              <LongitudeDegrees>-2.7660912461578845977783203125</LongitudeDegrees>
            </Position>
            <AltitudeMeters>174</AltitudeMeters>
            <DistanceMeters>NAN</DistanceMeters>
          </Trackpoint>
          <Trackpoint>
            <Time>2022-09-24T15:07:09.000Z</Time>
            <Position>
              <LatitudeDegrees>43.28077015466988086700439453125</LatitudeDegrees>
              <LongitudeDegrees>-2.76605763472616672515869140625</LongitudeDegrees>
            </Position>
            <AltitudeMeters>174.1999969482421875</AltitudeMeters>
            <DistanceMeters>NAN</DistanceMeters>
          </Trackpoint>
          <Trackpoint>
            <Time>2022-09-24T15:07:10.000Z</Time>
            <Position>
              <LatitudeDegrees>43.28078247606754302978515625</LatitudeDegrees>
              <LongitudeDegrees>-2.76602377183735370635986328125</LongitudeDegrees>
            </Position>
            <AltitudeMeters>174.1999969482421875</AltitudeMeters>
            <DistanceMeters>NAN</DistanceMeters>
          </Trackpoint>
          <Trackpoint>
            <Time>2022-09-24T15:07:11.000Z</Time>
            <Position>
              <LatitudeDegrees>43.28078247606754302978515625</LatitudeDegrees>
              <LongitudeDegrees>-2.76602377183735370635986328125</LongitudeDegrees>
            </Position>
            <AltitudeMeters>174.399993896484375</AltitudeMeters>
            <DistanceMeters>NAN</DistanceMeters>
          </Trackpoint>
          <Trackpoint>
            <Time>2022-09-24T15:07:12.000Z</Time>
            <Position>
              <LatitudeDegrees>43.2808094657957553863525390625</LatitudeDegrees>
              <LongitudeDegrees>-2.7659554593265056610107421875</LongitudeDegrees>
            </Position>
            <AltitudeMeters>175</AltitudeMeters>
            <DistanceMeters>NAN</DistanceMeters>
          </Trackpoint>
          <Trackpoint>
            <Time>2022-09-24T15:07:13.000Z</Time>
            <Position>
              <LatitudeDegrees>43.2808235473930835723876953125</LatitudeDegrees>
              <LongitudeDegrees>-2.765921764075756072998046875</LongitudeDegrees>
            </Position>
            <AltitudeMeters>175.1999969482421875</AltitudeMeters>
            <DistanceMeters>NAN</DistanceMeters>
          </Trackpoint>
          <Trackpoint>
            <Time>2022-09-24T15:07:14.000Z</Time>
            <Position>
              <LatitudeDegrees>43.28083486296236515045166015625</LatitudeDegrees>
              <LongitudeDegrees>-2.76588764972984790802001953125</LongitudeDegrees>
            </Position>
            <AltitudeMeters>175.399993896484375</AltitudeMeters>
            <DistanceMeters>NAN</DistanceMeters>
          </Trackpoint>
          <Trackpoint>
            <Time>2022-09-24T15:07:15.000Z</Time>
            <Position>
              <LatitudeDegrees>43.2808483578264713287353515625</LatitudeDegrees>
              <LongitudeDegrees>-2.76585278101265430450439453125</LongitudeDegrees>
            </Position>
            <AltitudeMeters>175.600006103515625</AltitudeMeters>
            <DistanceMeters>NAN</DistanceMeters>
          </Trackpoint>
          <Trackpoint>
            <Time>2022-09-24T15:07:16.000Z</Time>
            <Position>
              <LatitudeDegrees>43.280859254300594329833984375</LatitudeDegrees>
              <LongitudeDegrees>-2.7658149786293506622314453125</LongitudeDegrees>
            </Position>
            <AltitudeMeters>175.600006103515625</AltitudeMeters>
            <DistanceMeters>NAN</DistanceMeters>
          </Trackpoint>
          <Trackpoint>
            <Time>2022-09-24T15:07:17.000Z</Time>
            <Position>
              <LatitudeDegrees>43.28086721710860729217529296875</LatitudeDegrees>
              <LongitudeDegrees>-2.7657780982553958892822265625</LongitudeDegrees>
            </Position>
            <AltitudeMeters>176.1999969482421875</AltitudeMeters>
            <DistanceMeters>NAN</DistanceMeters>
          </Trackpoint>
          <Trackpoint>
            <Time>2022-09-24T15:07:18.000Z</Time>
            <Position>
              <LatitudeDegrees>43.2808724977076053619384765625</LatitudeDegrees>
              <LongitudeDegrees>-2.7657408826053142547607421875</LongitudeDegrees>
            </Position>
            <AltitudeMeters>176.399993896484375</AltitudeMeters>
            <DistanceMeters>NAN</DistanceMeters>
          </Trackpoint>
          <Trackpoint>
            <Time>2022-09-24T15:07:19.000Z</Time>
            <Position>
              <LatitudeDegrees>43.2808795385062694549560546875</LatitudeDegrees>
              <LongitudeDegrees>-2.765704505145549774169921875</LongitudeDegrees>
            </Position>
            <AltitudeMeters>176.600006103515625</AltitudeMeters>
            <DistanceMeters>NAN</DistanceMeters>
          </Trackpoint>
          <Trackpoint>
            <Time>2022-09-24T15:07:20.000Z</Time>
            <Position>
              <LatitudeDegrees>43.28088708221912384033203125</LatitudeDegrees>
              <LongitudeDegrees>-2.7656684629619121551513671875</LongitudeDegrees>
            </Position>
            <AltitudeMeters>176.600006103515625</AltitudeMeters>
            <DistanceMeters>NAN</DistanceMeters>
          </Trackpoint>
          <Trackpoint>
            <Time>2022-09-24T15:07:21.000Z</Time>
            <Position>
              <LatitudeDegrees>43.28089621849358081817626953125</LatitudeDegrees>
              <LongitudeDegrees>-2.7656297385692596435546875</LongitudeDegrees>
            </Position>
            <AltitudeMeters>177</AltitudeMeters>
            <DistanceMeters>NAN</DistanceMeters>
          </Trackpoint>
          <Trackpoint>
            <Time>2022-09-24T15:07:22.000Z</Time>
            <Position>
              <LatitudeDegrees>43.28090024180710315704345703125</LatitudeDegrees>
              <LongitudeDegrees>-2.76559109799563884735107421875</LongitudeDegrees>
            </Position>
            <AltitudeMeters>177.1999969482421875</AltitudeMeters>
            <DistanceMeters>NAN</DistanceMeters>
          </Trackpoint>
          <Trackpoint>
            <Time>2022-09-24T15:07:23.000Z</Time>
            <Position>
              <LatitudeDegrees>43.2809030078351497650146484375</LatitudeDegrees>
              <LongitudeDegrees>-2.7655501104891300201416015625</LongitudeDegrees>
            </Position>
            <AltitudeMeters>177.600006103515625</AltitudeMeters>
            <DistanceMeters>NAN</DistanceMeters>
          </Trackpoint>
          <Trackpoint>
            <Time>2022-09-24T15:07:24.000Z</Time>
            <Position>
              <LatitudeDegrees>43.2809036783874034881591796875</LatitudeDegrees>
              <LongitudeDegrees>-2.76551130227744579315185546875</LongitudeDegrees>
            </Position>
            <AltitudeMeters>177.600006103515625</AltitudeMeters>
            <DistanceMeters>NAN</DistanceMeters>
          </Trackpoint>
          <Trackpoint>
            <Time>2022-09-24T15:07:25.000Z</Time>
            <Position>
              <LatitudeDegrees>43.280904181301593780517578125</LatitudeDegrees>
              <LongitudeDegrees>-2.7654693089425563812255859375</LongitudeDegrees>
            </Position>
            <AltitudeMeters>177.8000030517578125</AltitudeMeters>
            <DistanceMeters>NAN</DistanceMeters>
          </Trackpoint>
          <Trackpoint>
            <Time>2022-09-24T15:07:26.000Z</Time>
            <Position>
              <LatitudeDegrees>43.28090359456837177276611328125</LatitudeDegrees>
              <LongitudeDegrees>-2.76542999781668186187744140625</LongitudeDegrees>
            </Position>
            <AltitudeMeters>177.8000030517578125</AltitudeMeters>
            <DistanceMeters>NAN</DistanceMeters>
          </Trackpoint>
          <Trackpoint>
            <Time>2022-09-24T15:07:27.000Z</Time>
            <Position>
              <LatitudeDegrees>43.28090258873999118804931640625</LatitudeDegrees>
              <LongitudeDegrees>-2.76539244689047336578369140625</LongitudeDegrees>
            </Position>
            <AltitudeMeters>177.8000030517578125</AltitudeMeters>
            <DistanceMeters>NAN</DistanceMeters>
          </Trackpoint>
          <Trackpoint>
            <Time>2022-09-24T15:07:28.000Z</Time>
            <Position>
              <LatitudeDegrees>43.28090191818773746490478515625</LatitudeDegrees>
              <LongitudeDegrees>-2.76535439305007457733154296875</LongitudeDegrees>
            </Position>
            <AltitudeMeters>178.1999969482421875</AltitudeMeters>
            <DistanceMeters>NAN</DistanceMeters>
          </Trackpoint>
          <Trackpoint>
            <Time>2022-09-24T15:07:29.000Z</Time>
            <Position>
              <LatitudeDegrees>43.28090527094900608062744140625</LatitudeDegrees>
              <LongitudeDegrees>-2.7653186023235321044921875</LongitudeDegrees>
            </Position>
            <AltitudeMeters>179</AltitudeMeters>
            <DistanceMeters>NAN</DistanceMeters>
          </Trackpoint>
          <Trackpoint>
            <Time>2022-09-24T15:07:30.000Z</Time>
            <Position>
              <LatitudeDegrees>43.2809093780815601348876953125</LatitudeDegrees>
              <LongitudeDegrees>-2.76528297923505306243896484375</LongitudeDegrees>
            </Position>
            <AltitudeMeters>179.399993896484375</AltitudeMeters>
            <DistanceMeters>NAN</DistanceMeters>
          </Trackpoint>
          <Trackpoint>
            <Time>2022-09-24T15:07:31.000Z</Time>
            <Position>
              <LatitudeDegrees>43.28091122210025787353515625</LatitudeDegrees>
              <LongitudeDegrees>-2.76524693705141544342041015625</LongitudeDegrees>
            </Position>
            <AltitudeMeters>179.600006103515625</AltitudeMeters>
            <DistanceMeters>NAN</DistanceMeters>
          </Trackpoint>
          <Trackpoint>
            <Time>2022-09-24T15:07:32.000Z</Time>
            <Position>
              <LatitudeDegrees>43.28091113828122615814208984375</LatitudeDegrees>
              <LongitudeDegrees>-2.76520930230617523193359375</LongitudeDegrees>
            </Position>
            <AltitudeMeters>180</AltitudeMeters>
            <DistanceMeters>NAN</DistanceMeters>
          </Trackpoint>
          <Trackpoint>
            <Time>2022-09-24T15:07:33.000Z</Time>
            <Position>
              <LatitudeDegrees>43.2809090428054332733154296875</LatitudeDegrees>
              <LongitudeDegrees>-2.76517267338931560516357421875</LongitudeDegrees>
            </Position>
            <AltitudeMeters>180</AltitudeMeters>
            <DistanceMeters>NAN</DistanceMeters>
          </Trackpoint>
          <Trackpoint>
            <Time>2022-09-24T15:07:34.000Z</Time>
            <Position>
              <LatitudeDegrees>43.2809077017009258270263671875</LatitudeDegrees>
              <LongitudeDegrees>-2.76513596065342426300048828125</LongitudeDegrees>
            </Position>
            <AltitudeMeters>180.1999969482421875</AltitudeMeters>
            <DistanceMeters>NAN</DistanceMeters>
          </Trackpoint>
          <Trackpoint>
            <Time>2022-09-24T15:07:35.000Z</Time>
            <Position>
              <LatitudeDegrees>43.28090376220643520355224609375</LatitudeDegrees>
              <LongitudeDegrees>-2.76509991846978664398193359375</LongitudeDegrees>
            </Position>
            <AltitudeMeters>180.600006103515625</AltitudeMeters>
            <DistanceMeters>NAN</DistanceMeters>
          </Trackpoint>
          <Trackpoint>
            <Time>2022-09-24T15:07:36.000Z</Time>
            <Position>
              <LatitudeDegrees>43.28089839778840541839599609375</LatitudeDegrees>
              <LongitudeDegrees>-2.7650669775903224945068359375</LongitudeDegrees>
            </Position>
            <AltitudeMeters>181.399993896484375</AltitudeMeters>
            <DistanceMeters>NAN</DistanceMeters>
          </Trackpoint>
          <Trackpoint>
            <Time>2022-09-24T15:07:37.000Z</Time>
            <Position>
              <LatitudeDegrees>43.28089320100843906402587890625</LatitudeDegrees>
              <LongitudeDegrees>-2.76503361761569976806640625</LongitudeDegrees>
            </Position>
            <AltitudeMeters>181.399993896484375</AltitudeMeters>
            <DistanceMeters>NAN</DistanceMeters>
          </Trackpoint>
          <Trackpoint>
            <Time>2022-09-24T15:07:38.000Z</Time>
            <Position>
              <LatitudeDegrees>43.28088917769491672515869140625</LatitudeDegrees>
              <LongitudeDegrees>-2.76499933563172817230224609375</LongitudeDegrees>
            </Position>
            <AltitudeMeters>181.399993896484375</AltitudeMeters>
            <DistanceMeters>NAN</DistanceMeters>
          </Trackpoint>
          <Trackpoint>
            <Time>2022-09-24T15:07:39.000Z</Time>
            <Position>
              <LatitudeDegrees>43.28088666312396526336669921875</LatitudeDegrees>
              <LongitudeDegrees>-2.76496144942939281463623046875</LongitudeDegrees>
            </Position>
            <AltitudeMeters>182</AltitudeMeters>
            <DistanceMeters>NAN</DistanceMeters>
          </Trackpoint>
          <Trackpoint>
            <Time>2022-09-24T15:07:40.000Z</Time>
            <Position>
              <LatitudeDegrees>43.280882723629474639892578125</LatitudeDegrees>
              <LongitudeDegrees>-2.76492557488381862640380859375</LongitudeDegrees>
            </Position>
            <AltitudeMeters>182</AltitudeMeters>
            <DistanceMeters>NAN</DistanceMeters>
          </Trackpoint>
          <Trackpoint>
            <Time>2022-09-24T15:07:41.000Z</Time>
            <Position>
              <LatitudeDegrees>43.28088146634399890899658203125</LatitudeDegrees>
              <LongitudeDegrees>-2.7648889459669589996337890625</LongitudeDegrees>
            </Position>
            <AltitudeMeters>182.1999969482421875</AltitudeMeters>
            <DistanceMeters>NAN</DistanceMeters>
          </Trackpoint>
          <Trackpoint>
            <Time>2022-09-24T15:07:42.000Z</Time>
            <Position>
              <LatitudeDegrees>43.28088146634399890899658203125</LatitudeDegrees>
              <LongitudeDegrees>-2.7648889459669589996337890625</LongitudeDegrees>
            </Position>
            <AltitudeMeters>182.600006103515625</AltitudeMeters>
            <DistanceMeters>NAN</DistanceMeters>
          </Trackpoint>
          <Trackpoint>
            <Time>2022-09-24T15:07:43.000Z</Time>
            <Position>
              <LatitudeDegrees>43.28087677247822284698486328125</LatitudeDegrees>
              <LongitudeDegrees>-2.76481459848582744598388671875</LongitudeDegrees>
            </Position>
            <AltitudeMeters>182.600006103515625</AltitudeMeters>
            <DistanceMeters>NAN</DistanceMeters>
          </Trackpoint>
          <Trackpoint>
            <Time>2022-09-24T15:07:44.000Z</Time>
            <Position>
              <LatitudeDegrees>43.28087459318339824676513671875</LatitudeDegrees>
              <LongitudeDegrees>-2.76477889157831668853759765625</LongitudeDegrees>
            </Position>
            <AltitudeMeters>182.8000030517578125</AltitudeMeters>
            <DistanceMeters>NAN</DistanceMeters>
          </Trackpoint>
          <Trackpoint>
            <Time>2022-09-24T15:07:45.000Z</Time>
            <Position>
              <LatitudeDegrees>43.28087325207889080047607421875</LatitudeDegrees>
              <LongitudeDegrees>-2.7647444419562816619873046875</LongitudeDegrees>
            </Position>
            <AltitudeMeters>182.8000030517578125</AltitudeMeters>
            <DistanceMeters>NAN</DistanceMeters>
          </Trackpoint>
          <Trackpoint>
            <Time>2022-09-24T15:07:46.000Z</Time>
            <Position>
              <LatitudeDegrees>43.2808724977076053619384765625</LatitudeDegrees>
              <LongitudeDegrees>-2.7647115848958492279052734375</LongitudeDegrees>
            </Position>
            <AltitudeMeters>183</AltitudeMeters>
            <DistanceMeters>NAN</DistanceMeters>
          </Trackpoint>
          <Trackpoint>
            <Time>2022-09-24T15:07:47.000Z</Time>
            <Position>
              <LatitudeDegrees>43.28086956404149532318115234375</LatitudeDegrees>
              <LongitudeDegrees>-2.7646780572831630706787109375</LongitudeDegrees>
            </Position>
            <AltitudeMeters>183</AltitudeMeters>
            <DistanceMeters>NAN</DistanceMeters>
          </Trackpoint>
          <Trackpoint>
            <Time>2022-09-24T15:07:48.000Z</Time>
            <Position>
              <LatitudeDegrees>43.2808671332895755767822265625</LatitudeDegrees>
              <LongitudeDegrees>-2.76464360766112804412841796875</LongitudeDegrees>
            </Position>
            <AltitudeMeters>183.1999969482421875</AltitudeMeters>
            <DistanceMeters>NAN</DistanceMeters>
          </Trackpoint>
          <Trackpoint>
            <Time>2022-09-24T15:07:49.000Z</Time>
            <Position>
              <LatitudeDegrees>43.2808667980134487152099609375</LatitudeDegrees>
              <LongitudeDegrees>-2.76460790075361728668212890625</LongitudeDegrees>
            </Position>
            <AltitudeMeters>183.1999969482421875</AltitudeMeters>
            <DistanceMeters>NAN</DistanceMeters>
          </Trackpoint>
          <Trackpoint>
            <Time>2022-09-24T15:07:50.000Z</Time>
            <Position>
              <LatitudeDegrees>43.280863277614116668701171875</LatitudeDegrees>
              <LongitudeDegrees>-2.76457085274159908294677734375</LongitudeDegrees>
            </Position>
            <AltitudeMeters>183.600006103515625</AltitudeMeters>
            <DistanceMeters>NAN</DistanceMeters>
          </Trackpoint>
          <Trackpoint>
            <Time>2022-09-24T15:07:51.000Z</Time>
            <Position>
              <LatitudeDegrees>43.280860595405101776123046875</LatitudeDegrees>
              <LongitudeDegrees>-2.7645352296531200408935546875</LongitudeDegrees>
            </Position>
            <AltitudeMeters>184</AltitudeMeters>
            <DistanceMeters>NAN</DistanceMeters>
          </Trackpoint>
          <Trackpoint>
            <Time>2022-09-24T15:07:52.000Z</Time>
            <Position>
              <LatitudeDegrees>43.28085732646286487579345703125</LatitudeDegrees>
              <LongitudeDegrees>-2.76450010947883129119873046875</LongitudeDegrees>
            </Position>
            <AltitudeMeters>184.1999969482421875</AltitudeMeters>
            <DistanceMeters>NAN</DistanceMeters>
          </Trackpoint>
          <Trackpoint>
            <Time>2022-09-24T15:07:53.000Z</Time>
            <Position>
              <LatitudeDegrees>43.28085732646286487579345703125</LatitudeDegrees>
              <LongitudeDegrees>-2.76450010947883129119873046875</LongitudeDegrees>
            </Position>
            <AltitudeMeters>184.399993896484375</AltitudeMeters>
            <DistanceMeters>NAN</DistanceMeters>
          </Trackpoint>
          <Trackpoint>
            <Time>2022-09-24T15:07:54.000Z</Time>
            <Position>
              <LatitudeDegrees>43.2808537222445011138916015625</LatitudeDegrees>
              <LongitudeDegrees>-2.7644306235015392303466796875</LongitudeDegrees>
            </Position>
            <AltitudeMeters>184.399993896484375</AltitudeMeters>
            <DistanceMeters>NAN</DistanceMeters>
          </Trackpoint>
          <Trackpoint>
            <Time>2022-09-24T15:07:55.000Z</Time>
            <Position>
              <LatitudeDegrees>43.280854560434818267822265625</LatitudeDegrees>
              <LongitudeDegrees>-2.76439684443175792694091796875</LongitudeDegrees>
            </Position>
            <AltitudeMeters>184.8000030517578125</AltitudeMeters>
            <DistanceMeters>NAN</DistanceMeters>
          </Trackpoint>
          <Trackpoint>
            <Time>2022-09-24T15:07:56.000Z</Time>
            <Position>
              <LatitudeDegrees>43.28085598535835742950439453125</LatitudeDegrees>
              <LongitudeDegrees>-2.7643618918955326080322265625</LongitudeDegrees>
            </Position>
            <AltitudeMeters>185</AltitudeMeters>
            <DistanceMeters>NAN</DistanceMeters>
          </Trackpoint>
          <Trackpoint>
            <Time>2022-09-24T15:07:57.000Z</Time>
            <Position>
              <LatitudeDegrees>43.280854560434818267822265625</LatitudeDegrees>
              <LongitudeDegrees>-2.7643263526260852813720703125</LongitudeDegrees>
            </Position>
            <AltitudeMeters>185</AltitudeMeters>
            <DistanceMeters>NAN</DistanceMeters>
          </Trackpoint>
          <Trackpoint>
            <Time>2022-09-24T15:07:58.000Z</Time>
            <Position>
              <LatitudeDegrees>43.28085665591061115264892578125</LatitudeDegrees>
              <LongitudeDegrees>-2.76429173536598682403564453125</LongitudeDegrees>
            </Position>
            <AltitudeMeters>185.1999969482421875</AltitudeMeters>
            <DistanceMeters>NAN</DistanceMeters>
          </Trackpoint>
          <Trackpoint>
            <Time>2022-09-24T15:07:59.000Z</Time>
            <Position>
              <LatitudeDegrees>43.2808543927967548370361328125</LatitudeDegrees>
              <LongitudeDegrees>-2.76425887830555438995361328125</LongitudeDegrees>
            </Position>
            <AltitudeMeters>185.1999969482421875</AltitudeMeters>
            <DistanceMeters>NAN</DistanceMeters>
          </Trackpoint>
          <Trackpoint>
            <Time>2022-09-24T15:08:00.000Z</Time>
            <Position>
              <LatitudeDegrees>43.280855901539325714111328125</LatitudeDegrees>
              <LongitudeDegrees>-2.76422417722642421722412109375</LongitudeDegrees>
            </Position>
            <AltitudeMeters>185.399993896484375</AltitudeMeters>
            <DistanceMeters>NAN</DistanceMeters>
          </Trackpoint>
          <Trackpoint>
            <Time>2022-09-24T15:08:01.000Z</Time>
            <Position>
              <LatitudeDegrees>43.28086026012897491455078125</LatitudeDegrees>
              <LongitudeDegrees>-2.7641885541379451751708984375</LongitudeDegrees>
            </Position>
            <AltitudeMeters>186</AltitudeMeters>
            <DistanceMeters>NAN</DistanceMeters>
          </Trackpoint>
          <Trackpoint>
            <Time>2022-09-24T15:08:02.000Z</Time>
            <Position>
              <LatitudeDegrees>43.28086537308990955352783203125</LatitudeDegrees>
              <LongitudeDegrees>-2.76415251195430755615234375</LongitudeDegrees>
            </Position>
            <AltitudeMeters>186</AltitudeMeters>
            <DistanceMeters>NAN</DistanceMeters>
          </Trackpoint>
          <Trackpoint>
            <Time>2022-09-24T15:08:03.000Z</Time>
            <Position>
              <LatitudeDegrees>43.2808694802224636077880859375</LatitudeDegrees>
              <LongitudeDegrees>-2.76411496102809906005859375</LongitudeDegrees>
            </Position>
            <AltitudeMeters>186.399993896484375</AltitudeMeters>
            <DistanceMeters>NAN</DistanceMeters>
          </Trackpoint>
          <Trackpoint>
            <Time>2022-09-24T15:08:04.000Z</Time>
            <Position>
              <LatitudeDegrees>43.2808745093643665313720703125</LatitudeDegrees>
              <LongitudeDegrees>-2.7640799246728420257568359375</LongitudeDegrees>
            </Position>
            <AltitudeMeters>186.600006103515625</AltitudeMeters>
            <DistanceMeters>NAN</DistanceMeters>
          </Trackpoint>
          <Trackpoint>
            <Time>2022-09-24T15:08:05.000Z</Time>
            <Position>
              <LatitudeDegrees>43.28088096342980861663818359375</LatitudeDegrees>
              <LongitudeDegrees>-2.7640463970601558685302734375</LongitudeDegrees>
            </Position>
            <AltitudeMeters>186.600006103515625</AltitudeMeters>
            <DistanceMeters>NAN</DistanceMeters>
          </Trackpoint>
          <Trackpoint>
            <Time>2022-09-24T15:08:06.000Z</Time>
            <Position>
              <LatitudeDegrees>43.280890099704265594482421875</LatitudeDegrees>
              <LongitudeDegrees>-2.764014042913913726806640625</LongitudeDegrees>
            </Position>
            <AltitudeMeters>186.600006103515625</AltitudeMeters>
            <DistanceMeters>NAN</DistanceMeters>
          </Trackpoint>
          <Trackpoint>
            <Time>2022-09-24T15:08:07.000Z</Time>
            <Position>
              <LatitudeDegrees>43.28089839778840541839599609375</LatitudeDegrees>
              <LongitudeDegrees>-2.76397942565381526947021484375</LongitudeDegrees>
            </Position>
            <AltitudeMeters>187</AltitudeMeters>
            <DistanceMeters>NAN</DistanceMeters>
          </Trackpoint>
          <Trackpoint>
            <Time>2022-09-24T15:08:08.000Z</Time>
            <Position>
              <LatitudeDegrees>43.28090208582580089569091796875</LatitudeDegrees>
              <LongitudeDegrees>-2.7639431320130825042724609375</LongitudeDegrees>
            </Position>
            <AltitudeMeters>187.1999969482421875</AltitudeMeters>
            <DistanceMeters>NAN</DistanceMeters>
          </Trackpoint>
          <Trackpoint>
            <Time>2022-09-24T15:08:09.000Z</Time>
            <Position>
              <LatitudeDegrees>43.280910886824131011962890625</LatitudeDegrees>
              <LongitudeDegrees>-2.76391019113361835479736328125</LongitudeDegrees>
            </Position>
            <AltitudeMeters>187.600006103515625</AltitudeMeters>
            <DistanceMeters>NAN</DistanceMeters>
          </Trackpoint>
          <Trackpoint>
            <Time>2022-09-24T15:08:10.000Z</Time>
            <Position>
              <LatitudeDegrees>43.2809191010892391204833984375</LatitudeDegrees>
              <LongitudeDegrees>-2.76387800462543964385986328125</LongitudeDegrees>
            </Position>
            <AltitudeMeters>187.600006103515625</AltitudeMeters>
            <DistanceMeters>NAN</DistanceMeters>
          </Trackpoint>
          <Trackpoint>
            <Time>2022-09-24T15:08:11.000Z</Time>
            <Position>
              <LatitudeDegrees>43.28092840500175952911376953125</LatitudeDegrees>
              <LongitudeDegrees>-2.76384632103145122528076171875</LongitudeDegrees>
            </Position>
            <AltitudeMeters>187.600006103515625</AltitudeMeters>
            <DistanceMeters>NAN</DistanceMeters>
          </Trackpoint>
          <Trackpoint>
            <Time>2022-09-24T15:08:12.000Z</Time>
            <Position>
              <LatitudeDegrees>43.2809392176568508148193359375</LatitudeDegrees>
              <LongitudeDegrees>-2.76381296105682849884033203125</LongitudeDegrees>
            </Position>
            <AltitudeMeters>188</AltitudeMeters>
            <DistanceMeters>NAN</DistanceMeters>
          </Trackpoint>
          <Trackpoint>
            <Time>2022-09-24T15:08:13.000Z</Time>
            <Position>
              <LatitudeDegrees>43.28094877302646636962890625</LatitudeDegrees>
              <LongitudeDegrees>-2.7637805230915546417236328125</LongitudeDegrees>
            </Position>
            <AltitudeMeters>188.399993896484375</AltitudeMeters>
            <DistanceMeters>NAN</DistanceMeters>
          </Trackpoint>
          <Trackpoint>
            <Time>2022-09-24T15:08:14.000Z</Time>
            <Position>
              <LatitudeDegrees>43.28095673583447933197021484375</LatitudeDegrees>
              <LongitudeDegrees>-2.7637459896504878997802734375</LongitudeDegrees>
            </Position>
            <AltitudeMeters>188.600006103515625</AltitudeMeters>
            <DistanceMeters>NAN</DistanceMeters>
          </Trackpoint>
          <Trackpoint>
            <Time>2022-09-24T15:08:15.000Z</Time>
            <Position>
              <LatitudeDegrees>43.28096478246152400970458984375</LatitudeDegrees>
              <LongitudeDegrees>-2.76371053420007228851318359375</LongitudeDegrees>
            </Position>
            <AltitudeMeters>188.8000030517578125</AltitudeMeters>
            <DistanceMeters>NAN</DistanceMeters>
          </Trackpoint>
          <Trackpoint>
            <Time>2022-09-24T15:08:16.000Z</Time>
            <Position>
              <LatitudeDegrees>43.28097827732563018798828125</LatitudeDegrees>
              <LongitudeDegrees>-2.763678766787052154541015625</LongitudeDegrees>
            </Position>
            <AltitudeMeters>189</AltitudeMeters>
            <DistanceMeters>NAN</DistanceMeters>
          </Trackpoint>
          <Trackpoint>
            <Time>2022-09-24T15:08:17.000Z</Time>
            <Position>
              <LatitudeDegrees>43.2809955440461635589599609375</LatitudeDegrees>
              <LongitudeDegrees>-2.7636484242975711822509765625</LongitudeDegrees>
            </Position>
            <AltitudeMeters>189</AltitudeMeters>
            <DistanceMeters>NAN</DistanceMeters>
          </Trackpoint>
          <Trackpoint>
            <Time>2022-09-24T15:08:18.000Z</Time>
            <Position>
              <LatitudeDegrees>43.2809955440461635589599609375</LatitudeDegrees>
              <LongitudeDegrees>-2.7636484242975711822509765625</LongitudeDegrees>
            </Position>
            <AltitudeMeters>189.1999969482421875</AltitudeMeters>
            <DistanceMeters>NAN</DistanceMeters>
          </Trackpoint>
          <Trackpoint>
            <Time>2022-09-24T15:08:19.000Z</Time>
            <Position>
              <LatitudeDegrees>43.28102982603013515472412109375</LatitudeDegrees>
              <LongitudeDegrees>-2.76359486393630504608154296875</LongitudeDegrees>
            </Position>
            <AltitudeMeters>189.399993896484375</AltitudeMeters>
            <DistanceMeters>NAN</DistanceMeters>
          </Trackpoint>
          <Trackpoint>
            <Time>2022-09-24T15:08:20.000Z</Time>
            <Position>
              <LatitudeDegrees>43.28104491345584392547607421875</LatitudeDegrees>
              <LongitudeDegrees>-2.76357105933129787445068359375</LongitudeDegrees>
            </Position>
            <AltitudeMeters>190</AltitudeMeters>
            <DistanceMeters>NAN</DistanceMeters>
          </Trackpoint>
          <Trackpoint>
            <Time>2022-09-24T15:08:21.000Z</Time>
            <Position>
              <LatitudeDegrees>43.28106218017637729644775390625</LatitudeDegrees>
              <LongitudeDegrees>-2.76354423724114894866943359375</LongitudeDegrees>
            </Position>
            <AltitudeMeters>190.1999969482421875</AltitudeMeters>
            <DistanceMeters>NAN</DistanceMeters>
          </Trackpoint>
          <Trackpoint>
            <Time>2022-09-24T15:08:22.000Z</Time>
            <Position>
              <LatitudeDegrees>43.28107726760208606719970703125</LatitudeDegrees>
              <LongitudeDegrees>-2.76351749897003173828125</LongitudeDegrees>
            </Position>
            <AltitudeMeters>190.1999969482421875</AltitudeMeters>
            <DistanceMeters>NAN</DistanceMeters>
          </Trackpoint>
          <Trackpoint>
            <Time>2022-09-24T15:08:23.000Z</Time>
            <Position>
              <LatitudeDegrees>43.281096629798412322998046875</LatitudeDegrees>
              <LongitudeDegrees>-2.7634908445179462432861328125</LongitudeDegrees>
            </Position>
            <AltitudeMeters>190.399993896484375</AltitudeMeters>
            <DistanceMeters>NAN</DistanceMeters>
          </Trackpoint>
          <Trackpoint>
            <Time>2022-09-24T15:08:24.000Z</Time>
            <Position>
              <LatitudeDegrees>43.28110878355801105499267578125</LatitudeDegrees>
              <LongitudeDegrees>-2.76346075348556041717529296875</LongitudeDegrees>
            </Position>
            <AltitudeMeters>190.399993896484375</AltitudeMeters>
            <DistanceMeters>NAN</DistanceMeters>
          </Trackpoint>
          <Trackpoint>
            <Time>2022-09-24T15:08:25.000Z</Time>
            <Position>
              <LatitudeDegrees>43.28112688846886157989501953125</LatitudeDegrees>
              <LongitudeDegrees>-2.76343460194766521453857421875</LongitudeDegrees>
            </Position>
            <AltitudeMeters>190.600006103515625</AltitudeMeters>
            <DistanceMeters>NAN</DistanceMeters>
          </Trackpoint>
          <Trackpoint>
            <Time>2022-09-24T15:08:26.000Z</Time>
            <Position>
              <LatitudeDegrees>43.28112688846886157989501953125</LatitudeDegrees>
              <LongitudeDegrees>-2.76343460194766521453857421875</LongitudeDegrees>
            </Position>
            <AltitudeMeters>190.8000030517578125</AltitudeMeters>
            <DistanceMeters>NAN</DistanceMeters>
          </Trackpoint>
          <Trackpoint>
            <Time>2022-09-24T15:08:27.000Z</Time>
            <Position>
              <LatitudeDegrees>43.281161002814769744873046875</LatitudeDegrees>
              <LongitudeDegrees>-2.76338137686252593994140625</LongitudeDegrees>
            </Position>
            <AltitudeMeters>190.8000030517578125</AltitudeMeters>
            <DistanceMeters>NAN</DistanceMeters>
          </Trackpoint>
          <Trackpoint>
            <Time>2022-09-24T15:08:28.000Z</Time>
            <Position>
              <LatitudeDegrees>43.28117717988789081573486328125</LatitudeDegrees>
              <LongitudeDegrees>-2.76335514150559902191162109375</LongitudeDegrees>
            </Position>
            <AltitudeMeters>191</AltitudeMeters>
            <DistanceMeters>NAN</DistanceMeters>
          </Trackpoint>
          <Trackpoint>
            <Time>2022-09-24T15:08:29.000Z</Time>
            <Position>
              <LatitudeDegrees>43.281193189322948455810546875</LatitudeDegrees>
              <LongitudeDegrees>-2.76332764886319637298583984375</LongitudeDegrees>
            </Position>
            <AltitudeMeters>191.1999969482421875</AltitudeMeters>
            <DistanceMeters>NAN</DistanceMeters>
          </Trackpoint>
          <Trackpoint>
            <Time>2022-09-24T15:08:30.000Z</Time>
            <Position>
              <LatitudeDegrees>43.28120366670191287994384765625</LatitudeDegrees>
              <LongitudeDegrees>-2.763302586972713470458984375</LongitudeDegrees>
            </Position>
            <AltitudeMeters>191.8000030517578125</AltitudeMeters>
            <DistanceMeters>NAN</DistanceMeters>
          </Trackpoint>
          <Trackpoint>
            <Time>2022-09-24T15:08:31.000Z</Time>
            <Position>
              <LatitudeDegrees>43.28121691010892391204833984375</LatitudeDegrees>
              <LongitudeDegrees>-2.7632762677967548370361328125</LongitudeDegrees>
            </Position>
            <AltitudeMeters>191.8000030517578125</AltitudeMeters>
            <DistanceMeters>NAN</DistanceMeters>
          </Trackpoint>
          <Trackpoint>
            <Time>2022-09-24T15:08:32.000Z</Time>
            <Position>
              <LatitudeDegrees>43.28123149462044239044189453125</LatitudeDegrees>
              <LongitudeDegrees>-2.7632477693259716033935546875</LongitudeDegrees>
            </Position>
            <AltitudeMeters>192</AltitudeMeters>
            <DistanceMeters>NAN</DistanceMeters>
          </Trackpoint>
          <Trackpoint>
            <Time>2022-09-24T15:08:33.000Z</Time>
            <Position>
              <LatitudeDegrees>43.28124540857970714569091796875</LatitudeDegrees>
              <LongitudeDegrees>-2.76321818120777606964111328125</LongitudeDegrees>
            </Position>
            <AltitudeMeters>192.399993896484375</AltitudeMeters>
            <DistanceMeters>NAN</DistanceMeters>
          </Trackpoint>
          <Trackpoint>
            <Time>2022-09-24T15:08:34.000Z</Time>
            <Position>
              <LatitudeDegrees>43.28125781379640102386474609375</LatitudeDegrees>
              <LongitudeDegrees>-2.763186581432819366455078125</LongitudeDegrees>
            </Position>
            <AltitudeMeters>192.399993896484375</AltitudeMeters>
            <DistanceMeters>NAN</DistanceMeters>
          </Trackpoint>
          <Trackpoint>
            <Time>2022-09-24T15:08:35.000Z</Time>
            <Position>
              <LatitudeDegrees>43.28126988373696804046630859375</LatitudeDegrees>
              <LongitudeDegrees>-2.76315347291529178619384765625</LongitudeDegrees>
            </Position>
            <AltitudeMeters>192.600006103515625</AltitudeMeters>
            <DistanceMeters>NAN</DistanceMeters>
          </Trackpoint>
          <Trackpoint>
            <Time>2022-09-24T15:08:36.000Z</Time>
            <Position>
              <LatitudeDegrees>43.28128178603947162628173828125</LatitudeDegrees>
              <LongitudeDegrees>-2.76312279514968395233154296875</LongitudeDegrees>
            </Position>
            <AltitudeMeters>192.600006103515625</AltitudeMeters>
            <DistanceMeters>NAN</DistanceMeters>
          </Trackpoint>
          <Trackpoint>
            <Time>2022-09-24T15:08:37.000Z</Time>
            <Position>
              <LatitudeDegrees>43.28129838220775127410888671875</LatitudeDegrees>
              <LongitudeDegrees>-2.76309530250728130340576171875</LongitudeDegrees>
            </Position>
            <AltitudeMeters>193</AltitudeMeters>
            <DistanceMeters>NAN</DistanceMeters>
          </Trackpoint>
          <Trackpoint>
            <Time>2022-09-24T15:08:38.000Z</Time>
            <Position>
              <LatitudeDegrees>43.28131967224180698394775390625</LatitudeDegrees>
              <LongitudeDegrees>-2.76306487619876861572265625</LongitudeDegrees>
            </Position>
            <AltitudeMeters>193.600006103515625</AltitudeMeters>
            <DistanceMeters>NAN</DistanceMeters>
          </Trackpoint>
          <Trackpoint>
            <Time>2022-09-24T15:08:39.000Z</Time>
            <Position>
              <LatitudeDegrees>43.28134129755198955535888671875</LatitudeDegrees>
              <LongitudeDegrees>-2.763037718832492828369140625</LongitudeDegrees>
            </Position>
            <AltitudeMeters>193.600006103515625</AltitudeMeters>
            <DistanceMeters>NAN</DistanceMeters>
          </Trackpoint>
          <Trackpoint>
            <Time>2022-09-24T15:08:40.000Z</Time>
            <Position>
              <LatitudeDegrees>43.28135780990123748779296875</LatitudeDegrees>
              <LongitudeDegrees>-2.763010896742343902587890625</LongitudeDegrees>
            </Position>
            <AltitudeMeters>193.8000030517578125</AltitudeMeters>
            <DistanceMeters>NAN</DistanceMeters>
          </Trackpoint>
          <Trackpoint>
            <Time>2022-09-24T15:08:41.000Z</Time>
            <Position>
              <LatitudeDegrees>43.28137381933629512786865234375</LatitudeDegrees>
              <LongitudeDegrees>-2.7629849128425121307373046875</LongitudeDegrees>
            </Position>
            <AltitudeMeters>194.1999969482421875</AltitudeMeters>
            <DistanceMeters>NAN</DistanceMeters>
          </Trackpoint>
          <Trackpoint>
            <Time>2022-09-24T15:08:42.000Z</Time>
            <Position>
              <LatitudeDegrees>43.2813878171145915985107421875</LatitudeDegrees>
              <LongitudeDegrees>-2.7629560790956020355224609375</LongitudeDegrees>
            </Position>
            <AltitudeMeters>194.1999969482421875</AltitudeMeters>
            <DistanceMeters>NAN</DistanceMeters>
          </Trackpoint>
          <Trackpoint>
            <Time>2022-09-24T15:08:43.000Z</Time>
            <Position>
              <LatitudeDegrees>43.28140181489288806915283203125</LatitudeDegrees>
              <LongitudeDegrees>-2.7629238925874233245849609375</LongitudeDegrees>
            </Position>
            <AltitudeMeters>194.399993896484375</AltitudeMeters>
            <DistanceMeters>NAN</DistanceMeters>
          </Trackpoint>
          <Trackpoint>
            <Time>2022-09-24T15:08:44.000Z</Time>
            <Position>
              <LatitudeDegrees>43.28141950070858001708984375</LatitudeDegrees>
              <LongitudeDegrees>-2.76289178989827632904052734375</LongitudeDegrees>
            </Position>
            <AltitudeMeters>194.600006103515625</AltitudeMeters>
            <DistanceMeters>NAN</DistanceMeters>
          </Trackpoint>
          <Trackpoint>
            <Time>2022-09-24T15:08:45.000Z</Time>
            <Position>
              <LatitudeDegrees>43.28143584541976451873779296875</LatitudeDegrees>
              <LongitudeDegrees>-2.76286580599844455718994140625</LongitudeDegrees>
            </Position>
            <AltitudeMeters>194.600006103515625</AltitudeMeters>
            <DistanceMeters>NAN</DistanceMeters>
          </Trackpoint>
          <Trackpoint>
            <Time>2022-09-24T15:08:46.000Z</Time>
            <Position>
              <LatitudeDegrees>43.28145395033061504364013671875</LatitudeDegrees>
              <LongitudeDegrees>-2.762837894260883331298828125</LongitudeDegrees>
            </Position>
            <AltitudeMeters>194.8000030517578125</AltitudeMeters>
            <DistanceMeters>NAN</DistanceMeters>
          </Trackpoint>
          <Trackpoint>
            <Time>2022-09-24T15:08:47.000Z</Time>
            <Position>
              <LatitudeDegrees>43.281473480165004730224609375</LatitudeDegrees>
              <LongitudeDegrees>-2.76280746795237064361572265625</LongitudeDegrees>
            </Position>
            <AltitudeMeters>195.1999969482421875</AltitudeMeters>
            <DistanceMeters>NAN</DistanceMeters>
          </Trackpoint>
          <Trackpoint>
            <Time>2022-09-24T15:08:48.000Z</Time>
            <Position>
              <LatitudeDegrees>43.281489573419094085693359375</LatitudeDegrees>
              <LongitudeDegrees>-2.7627767063677310943603515625</LongitudeDegrees>
            </Position>
            <AltitudeMeters>195.399993896484375</AltitudeMeters>
            <DistanceMeters>NAN</DistanceMeters>
          </Trackpoint>
          <Trackpoint>
            <Time>2022-09-24T15:08:49.000Z</Time>
            <Position>
              <LatitudeDegrees>43.28150457702577114105224609375</LatitudeDegrees>
              <LongitudeDegrees>-2.76274569332599639892578125</LongitudeDegrees>
            </Position>
            <AltitudeMeters>195.600006103515625</AltitudeMeters>
            <DistanceMeters>NAN</DistanceMeters>
          </Trackpoint>
          <Trackpoint>
            <Time>2022-09-24T15:08:50.000Z</Time>
            <Position>
              <LatitudeDegrees>43.28152201138436794281005859375</LatitudeDegrees>
              <LongitudeDegrees>-2.7627150155603885650634765625</LongitudeDegrees>
            </Position>
            <AltitudeMeters>195.8000030517578125</AltitudeMeters>
            <DistanceMeters>NAN</DistanceMeters>
          </Trackpoint>
          <Trackpoint>
            <Time>2022-09-24T15:08:51.000Z</Time>
            <Position>
              <LatitudeDegrees>43.281539194285869598388671875</LatitudeDegrees>
              <LongitudeDegrees>-2.76268727146089076995849609375</LongitudeDegrees>
            </Position>
            <AltitudeMeters>196</AltitudeMeters>
            <DistanceMeters>NAN</DistanceMeters>
          </Trackpoint>
          <Trackpoint>
            <Time>2022-09-24T15:08:52.000Z</Time>
            <Position>
              <LatitudeDegrees>43.28155604191124439239501953125</LatitudeDegrees>
              <LongitudeDegrees>-2.76265843771398067474365234375</LongitudeDegrees>
            </Position>
            <AltitudeMeters>196.1999969482421875</AltitudeMeters>
            <DistanceMeters>NAN</DistanceMeters>
          </Trackpoint>
          <Trackpoint>
            <Time>2022-09-24T15:08:53.000Z</Time>
            <Position>
              <LatitudeDegrees>43.2815708778798580169677734375</LatitudeDegrees>
              <LongitudeDegrees>-2.762630693614482879638671875</LongitudeDegrees>
            </Position>
            <AltitudeMeters>196.1999969482421875</AltitudeMeters>
            <DistanceMeters>NAN</DistanceMeters>
          </Trackpoint>
          <Trackpoint>
            <Time>2022-09-24T15:08:54.000Z</Time>
            <Position>
              <LatitudeDegrees>43.28159057535231113433837890625</LatitudeDegrees>
              <LongitudeDegrees>-2.76260227896273136138916015625</LongitudeDegrees>
            </Position>
            <AltitudeMeters>196.600006103515625</AltitudeMeters>
            <DistanceMeters>NAN</DistanceMeters>
          </Trackpoint>
          <Trackpoint>
            <Time>2022-09-24T15:08:55.000Z</Time>
            <Position>
              <LatitudeDegrees>43.28160985372960567474365234375</LatitudeDegrees>
              <LongitudeDegrees>-2.76257143355906009674072265625</LongitudeDegrees>
            </Position>
            <AltitudeMeters>196.8000030517578125</AltitudeMeters>
            <DistanceMeters>NAN</DistanceMeters>
          </Trackpoint>
          <Trackpoint>
            <Time>2022-09-24T15:08:56.000Z</Time>
            <Position>
              <LatitudeDegrees>43.2816285453736782073974609375</LatitudeDegrees>
              <LongitudeDegrees>-2.7625430189073085784912109375</LongitudeDegrees>
            </Position>
            <AltitudeMeters>197.1999969482421875</AltitudeMeters>
            <DistanceMeters>NAN</DistanceMeters>
          </Trackpoint>
          <Trackpoint>
            <Time>2022-09-24T15:08:57.000Z</Time>
            <Position>
              <LatitudeDegrees>43.2816466502845287322998046875</LatitudeDegrees>
              <LongitudeDegrees>-2.76251460425555706024169921875</LongitudeDegrees>
            </Position>
            <AltitudeMeters>197.399993896484375</AltitudeMeters>
            <DistanceMeters>NAN</DistanceMeters>
          </Trackpoint>
          <Trackpoint>
            <Time>2022-09-24T15:08:58.000Z</Time>
            <Position>
              <LatitudeDegrees>43.28166400082409381866455078125</LatitudeDegrees>
              <LongitudeDegrees>-2.7624863572418689727783203125</LongitudeDegrees>
            </Position>
            <AltitudeMeters>197.600006103515625</AltitudeMeters>
            <DistanceMeters>NAN</DistanceMeters>
          </Trackpoint>
          <Trackpoint>
            <Time>2022-09-24T15:08:59.000Z</Time>
            <Position>
              <LatitudeDegrees>43.2816821895539760589599609375</LatitudeDegrees>
              <LongitudeDegrees>-2.76245559565722942352294921875</LongitudeDegrees>
            </Position>
            <AltitudeMeters>197.8000030517578125</AltitudeMeters>
            <DistanceMeters>NAN</DistanceMeters>
          </Trackpoint>
          <Trackpoint>
            <Time>2022-09-24T15:09:00.000Z</Time>
            <Position>
              <LatitudeDegrees>43.28169417567551136016845703125</LatitudeDegrees>
              <LongitudeDegrees>-2.7624239958822727203369140625</LongitudeDegrees>
            </Position>
            <AltitudeMeters>198</AltitudeMeters>
            <DistanceMeters>NAN</DistanceMeters>
          </Trackpoint>
          <Trackpoint>
            <Time>2022-09-24T15:09:01.000Z</Time>
            <Position>
              <LatitudeDegrees>43.2817073352634906768798828125</LatitudeDegrees>
              <LongitudeDegrees>-2.762391977012157440185546875</LongitudeDegrees>
            </Position>
            <AltitudeMeters>198</AltitudeMeters>
            <DistanceMeters>NAN</DistanceMeters>
          </Trackpoint>
          <Trackpoint>
            <Time>2022-09-24T15:09:02.000Z</Time>
            <Position>
              <LatitudeDegrees>43.2817073352634906768798828125</LatitudeDegrees>
              <LongitudeDegrees>-2.762391977012157440185546875</LongitudeDegrees>
            </Position>
            <AltitudeMeters>198.600006103515625</AltitudeMeters>
            <DistanceMeters>NAN</DistanceMeters>
          </Trackpoint>
          <Trackpoint>
            <Time>2022-09-24T15:09:03.000Z</Time>
            <Position>
              <LatitudeDegrees>43.281739018857479095458984375</LatitudeDegrees>
              <LongitudeDegrees>-2.76233254931867122650146484375</LongitudeDegrees>
            </Position>
            <AltitudeMeters>198.8000030517578125</AltitudeMeters>
            <DistanceMeters>NAN</DistanceMeters>
          </Trackpoint>
          <Trackpoint>
            <Time>2022-09-24T15:09:04.000Z</Time>
            <Position>
              <LatitudeDegrees>43.28175343573093414306640625</LatitudeDegrees>
              <LongitudeDegrees>-2.7623059786856174468994140625</LongitudeDegrees>
            </Position>
            <AltitudeMeters>198.8000030517578125</AltitudeMeters>
            <DistanceMeters>NAN</DistanceMeters>
          </Trackpoint>
          <Trackpoint>
            <Time>2022-09-24T15:09:05.000Z</Time>
            <Position>
              <LatitudeDegrees>43.28176709823310375213623046875</LatitudeDegrees>
              <LongitudeDegrees>-2.7622783184051513671875</LongitudeDegrees>
            </Position>
            <AltitudeMeters>198.8000030517578125</AltitudeMeters>
            <DistanceMeters>NAN</DistanceMeters>
          </Trackpoint>
          <Trackpoint>
            <Time>2022-09-24T15:09:06.000Z</Time>
            <Position>
              <LatitudeDegrees>43.28176709823310375213623046875</LatitudeDegrees>
              <LongitudeDegrees>-2.7622783184051513671875</LongitudeDegrees>
            </Position>
            <AltitudeMeters>199.1999969482421875</AltitudeMeters>
            <DistanceMeters>NAN</DistanceMeters>
          </Trackpoint>
          <Trackpoint>
            <Time>2022-09-24T15:09:07.000Z</Time>
            <Position>
              <LatitudeDegrees>43.28179836273193359375</LatitudeDegrees>
              <LongitudeDegrees>-2.7622198127210140228271484375</LongitudeDegrees>
            </Position>
            <AltitudeMeters>199.399993896484375</AltitudeMeters>
            <DistanceMeters>NAN</DistanceMeters>
          </Trackpoint>
          <Trackpoint>
            <Time>2022-09-24T15:09:08.000Z</Time>
            <Position>
              <LatitudeDegrees>43.2818152941763401031494140625</LatitudeDegrees>
              <LongitudeDegrees>-2.7621903084218502044677734375</LongitudeDegrees>
            </Position>
            <AltitudeMeters>199.8000030517578125</AltitudeMeters>
            <DistanceMeters>NAN</DistanceMeters>
          </Trackpoint>
          <Trackpoint>
            <Time>2022-09-24T15:09:09.000Z</Time>
            <Position>
              <LatitudeDegrees>43.281833566725254058837890625</LatitudeDegrees>
              <LongitudeDegrees>-2.76215904392302036285400390625</LongitudeDegrees>
            </Position>
            <AltitudeMeters>199.8000030517578125</AltitudeMeters>
            <DistanceMeters>NAN</DistanceMeters>
          </Trackpoint>
          <Trackpoint>
            <Time>2022-09-24T15:09:10.000Z</Time>
            <Position>
              <LatitudeDegrees>43.281852342188358306884765625</LatitudeDegrees>
              <LongitudeDegrees>-2.76212819851934909820556640625</LongitudeDegrees>
            </Position>
            <AltitudeMeters>200</AltitudeMeters>
            <DistanceMeters>NAN</DistanceMeters>
          </Trackpoint>
          <Trackpoint>
            <Time>2022-09-24T15:09:11.000Z</Time>
            <Position>
              <LatitudeDegrees>43.28186717815697193145751953125</LatitudeDegrees>
              <LongitudeDegrees>-2.7620997838675975799560546875</LongitudeDegrees>
            </Position>
            <AltitudeMeters>200.1999969482421875</AltitudeMeters>
            <DistanceMeters>NAN</DistanceMeters>
          </Trackpoint>
          <Trackpoint>
            <Time>2022-09-24T15:09:12.000Z</Time>
            <Position>
              <LatitudeDegrees>43.28188327141106128692626953125</LatitudeDegrees>
              <LongitudeDegrees>-2.7620702795684337615966796875</LongitudeDegrees>
            </Position>
            <AltitudeMeters>200.399993896484375</AltitudeMeters>
            <DistanceMeters>NAN</DistanceMeters>
          </Trackpoint>
          <Trackpoint>
            <Time>2022-09-24T15:09:13.000Z</Time>
            <Position>
              <LatitudeDegrees>43.2819021306931972503662109375</LatitudeDegrees>
              <LongitudeDegrees>-2.7620404399931430816650390625</LongitudeDegrees>
            </Position>
            <AltitudeMeters>200.8000030517578125</AltitudeMeters>
            <DistanceMeters>NAN</DistanceMeters>
          </Trackpoint>
          <Trackpoint>
            <Time>2022-09-24T15:09:14.000Z</Time>
            <Position>
              <LatitudeDegrees>43.2819199003279209136962890625</LatitudeDegrees>
              <LongitudeDegrees>-2.76201210916042327880859375</LongitudeDegrees>
            </Position>
            <AltitudeMeters>200.8000030517578125</AltitudeMeters>
            <DistanceMeters>NAN</DistanceMeters>
          </Trackpoint>
          <Trackpoint>
            <Time>2022-09-24T15:09:15.000Z</Time>
            <Position>
              <LatitudeDegrees>43.2819390110671520233154296875</LatitudeDegrees>
              <LongitudeDegrees>-2.7619824372231960296630859375</LongitudeDegrees>
            </Position>
            <AltitudeMeters>200.8000030517578125</AltitudeMeters>
            <DistanceMeters>NAN</DistanceMeters>
          </Trackpoint>
          <Trackpoint>
            <Time>2022-09-24T15:09:16.000Z</Time>
            <Position>
              <LatitudeDegrees>43.2819571159780025482177734375</LatitudeDegrees>
              <LongitudeDegrees>-2.761954776942729949951171875</LongitudeDegrees>
            </Position>
            <AltitudeMeters>201</AltitudeMeters>
            <DistanceMeters>NAN</DistanceMeters>
          </Trackpoint>
          <Trackpoint>
            <Time>2022-09-24T15:09:17.000Z</Time>
            <Position>
              <LatitudeDegrees>43.2819745503365993499755859375</LatitudeDegrees>
              <LongitudeDegrees>-2.76192368008196353912353515625</LongitudeDegrees>
            </Position>
            <AltitudeMeters>201.1999969482421875</AltitudeMeters>
            <DistanceMeters>NAN</DistanceMeters>
          </Trackpoint>
          <Trackpoint>
            <Time>2022-09-24T15:09:18.000Z</Time>
            <Position>
              <LatitudeDegrees>43.2819909788668155670166015625</LatitudeDegrees>
              <LongitudeDegrees>-2.76189233176410198211669921875</LongitudeDegrees>
            </Position>
            <AltitudeMeters>201.8000030517578125</AltitudeMeters>
            <DistanceMeters>NAN</DistanceMeters>
          </Trackpoint>
          <Trackpoint>
            <Time>2022-09-24T15:09:19.000Z</Time>
            <Position>
              <LatitudeDegrees>43.28200765885412693023681640625</LatitudeDegrees>
              <LongitudeDegrees>-2.761862240731716156005859375</LongitudeDegrees>
            </Position>
            <AltitudeMeters>201.8000030517578125</AltitudeMeters>
            <DistanceMeters>NAN</DistanceMeters>
          </Trackpoint>
          <Trackpoint>
            <Time>2022-09-24T15:09:20.000Z</Time>
            <Position>
              <LatitudeDegrees>43.282025344669818878173828125</LatitudeDegrees>
              <LongitudeDegrees>-2.76182896457612514495849609375</LongitudeDegrees>
            </Position>
            <AltitudeMeters>202.399993896484375</AltitudeMeters>
            <DistanceMeters>NAN</DistanceMeters>
          </Trackpoint>
          <Trackpoint>
            <Time>2022-09-24T15:09:21.000Z</Time>
            <Position>
              <LatitudeDegrees>43.282044120132923126220703125</LatitudeDegrees>
              <LongitudeDegrees>-2.76179828681051731109619140625</LongitudeDegrees>
            </Position>
            <AltitudeMeters>202.399993896484375</AltitudeMeters>
            <DistanceMeters>NAN</DistanceMeters>
          </Trackpoint>
          <Trackpoint>
            <Time>2022-09-24T15:09:22.000Z</Time>
            <Position>
              <LatitudeDegrees>43.28206247650086879730224609375</LatitudeDegrees>
              <LongitudeDegrees>-2.76176911778748035430908203125</LongitudeDegrees>
            </Position>
            <AltitudeMeters>202.600006103515625</AltitudeMeters>
            <DistanceMeters>NAN</DistanceMeters>
          </Trackpoint>
          <Trackpoint>
            <Time>2022-09-24T15:09:23.000Z</Time>
            <Position>
              <LatitudeDegrees>43.28208091668784618377685546875</LatitudeDegrees>
              <LongitudeDegrees>-2.7617420442402362823486328125</LongitudeDegrees>
            </Position>
            <AltitudeMeters>202.8000030517578125</AltitudeMeters>
            <DistanceMeters>NAN</DistanceMeters>
          </Trackpoint>
          <Trackpoint>
            <Time>2022-09-24T15:09:24.000Z</Time>
            <Position>
              <LatitudeDegrees>43.28210120089352130889892578125</LatitudeDegrees>
              <LongitudeDegrees>-2.76171295903623104095458984375</LongitudeDegrees>
            </Position>
            <AltitudeMeters>202.8000030517578125</AltitudeMeters>
            <DistanceMeters>NAN</DistanceMeters>
          </Trackpoint>
          <Trackpoint>
            <Time>2022-09-24T15:09:25.000Z</Time>
            <Position>
              <LatitudeDegrees>43.282120227813720703125</LatitudeDegrees>
              <LongitudeDegrees>-2.761685550212860107421875</LongitudeDegrees>
            </Position>
            <AltitudeMeters>203.1999969482421875</AltitudeMeters>
            <DistanceMeters>NAN</DistanceMeters>
          </Trackpoint>
          <Trackpoint>
            <Time>2022-09-24T15:09:26.000Z</Time>
            <Position>
              <LatitudeDegrees>43.28213959001004695892333984375</LatitudeDegrees>
              <LongitudeDegrees>-2.76165269315242767333984375</LongitudeDegrees>
            </Position>
            <AltitudeMeters>203.600006103515625</AltitudeMeters>
            <DistanceMeters>NAN</DistanceMeters>
          </Trackpoint>
          <Trackpoint>
            <Time>2022-09-24T15:09:27.000Z</Time>
            <Position>
              <LatitudeDegrees>43.2821552641689777374267578125</LatitudeDegrees>
              <LongitudeDegrees>-2.761623524129390716552734375</LongitudeDegrees>
            </Position>
            <AltitudeMeters>203.600006103515625</AltitudeMeters>
            <DistanceMeters>NAN</DistanceMeters>
          </Trackpoint>
          <Trackpoint>
            <Time>2022-09-24T15:09:28.000Z</Time>
            <Position>
              <LatitudeDegrees>43.2821552641689777374267578125</LatitudeDegrees>
              <LongitudeDegrees>-2.761623524129390716552734375</LongitudeDegrees>
            </Position>
            <AltitudeMeters>204</AltitudeMeters>
            <DistanceMeters>NAN</DistanceMeters>
          </Trackpoint>
          <Trackpoint>
            <Time>2022-09-24T15:09:29.000Z</Time>
            <Position>
              <LatitudeDegrees>43.28218703158199787139892578125</LatitudeDegrees>
              <LongitudeDegrees>-2.76157130487263202667236328125</LongitudeDegrees>
            </Position>
            <AltitudeMeters>204</AltitudeMeters>
            <DistanceMeters>NAN</DistanceMeters>
          </Trackpoint>
          <Trackpoint>
            <Time>2022-09-24T15:09:30.000Z</Time>
            <Position>
              <LatitudeDegrees>43.282201029360294342041015625</LatitudeDegrees>
              <LongitudeDegrees>-2.7615425549447536468505859375</LongitudeDegrees>
            </Position>
            <AltitudeMeters>204.399993896484375</AltitudeMeters>
            <DistanceMeters>NAN</DistanceMeters>
          </Trackpoint>
          <Trackpoint>
            <Time>2022-09-24T15:09:31.000Z</Time>
            <Position>
              <LatitudeDegrees>43.28221502713859081268310546875</LatitudeDegrees>
              <LongitudeDegrees>-2.761512883007526397705078125</LongitudeDegrees>
            </Position>
            <AltitudeMeters>204.399993896484375</AltitudeMeters>
            <DistanceMeters>NAN</DistanceMeters>
          </Trackpoint>
          <Trackpoint>
            <Time>2022-09-24T15:09:32.000Z</Time>
            <Position>
              <LatitudeDegrees>43.2822293601930141448974609375</LatitudeDegrees>
              <LongitudeDegrees>-2.76148513890802860260009765625</LongitudeDegrees>
            </Position>
            <AltitudeMeters>204.399993896484375</AltitudeMeters>
            <DistanceMeters>NAN</DistanceMeters>
          </Trackpoint>
          <Trackpoint>
            <Time>2022-09-24T15:09:33.000Z</Time>
            <Position>
              <LatitudeDegrees>43.28224402852356433868408203125</LatitudeDegrees>
              <LongitudeDegrees>-2.7614587359130382537841796875</LongitudeDegrees>
            </Position>
            <AltitudeMeters>204.8000030517578125</AltitudeMeters>
            <DistanceMeters>NAN</DistanceMeters>
          </Trackpoint>
          <Trackpoint>
            <Time>2022-09-24T15:09:34.000Z</Time>
            <Position>
              <LatitudeDegrees>43.28225903213024139404296875</LatitudeDegrees>
              <LongitudeDegrees>-2.7614352665841579437255859375</LongitudeDegrees>
            </Position>
            <AltitudeMeters>204.8000030517578125</AltitudeMeters>
            <DistanceMeters>NAN</DistanceMeters>
          </Trackpoint>
          <Trackpoint>
            <Time>2022-09-24T15:09:35.000Z</Time>
            <Position>
              <LatitudeDegrees>43.28227655030786991119384765625</LatitudeDegrees>
              <LongitudeDegrees>-2.7614079415798187255859375</LongitudeDegrees>
            </Position>
            <AltitudeMeters>205</AltitudeMeters>
            <DistanceMeters>NAN</DistanceMeters>
          </Trackpoint>
          <Trackpoint>
            <Time>2022-09-24T15:09:36.000Z</Time>
            <Position>
              <LatitudeDegrees>43.28229130245745182037353515625</LatitudeDegrees>
              <LongitudeDegrees>-2.76137785054743289947509765625</LongitudeDegrees>
            </Position>
            <AltitudeMeters>205.399993896484375</AltitudeMeters>
            <DistanceMeters>NAN</DistanceMeters>
          </Trackpoint>
          <Trackpoint>
            <Time>2022-09-24T15:09:37.000Z</Time>
            <Position>
              <LatitudeDegrees>43.282308988273143768310546875</LatitudeDegrees>
              <LongitudeDegrees>-2.76134784333407878875732421875</LongitudeDegrees>
            </Position>
            <AltitudeMeters>205.600006103515625</AltitudeMeters>
            <DistanceMeters>NAN</DistanceMeters>
          </Trackpoint>
          <Trackpoint>
            <Time>2022-09-24T15:09:38.000Z</Time>
            <Position>
              <LatitudeDegrees>43.2823249138891696929931640625</LatitudeDegrees>
              <LongitudeDegrees>-2.76131968013942241668701171875</LongitudeDegrees>
            </Position>
            <AltitudeMeters>205.8000030517578125</AltitudeMeters>
            <DistanceMeters>NAN</DistanceMeters>
          </Trackpoint>
          <Trackpoint>
            <Time>2022-09-24T15:09:39.000Z</Time>
            <Position>
              <LatitudeDegrees>43.2823410071432590484619140625</LatitudeDegrees>
              <LongitudeDegrees>-2.7612926065921783447265625</LongitudeDegrees>
            </Position>
            <AltitudeMeters>205.8000030517578125</AltitudeMeters>
            <DistanceMeters>NAN</DistanceMeters>
          </Trackpoint>
          <Trackpoint>
            <Time>2022-09-24T15:09:40.000Z</Time>
            <Position>
              <LatitudeDegrees>43.28235819004476070404052734375</LatitudeDegrees>
              <LongitudeDegrees>-2.7612657845020294189453125</LongitudeDegrees>
            </Position>
            <AltitudeMeters>206.1999969482421875</AltitudeMeters>
            <DistanceMeters>NAN</DistanceMeters>
          </Trackpoint>
          <Trackpoint>
            <Time>2022-09-24T15:09:41.000Z</Time>
            <Position>
              <LatitudeDegrees>43.28237302601337432861328125</LatitudeDegrees>
              <LongitudeDegrees>-2.76123770512640476226806640625</LongitudeDegrees>
            </Position>
            <AltitudeMeters>206.1999969482421875</AltitudeMeters>
            <DistanceMeters>NAN</DistanceMeters>
          </Trackpoint>
          <Trackpoint>
            <Time>2022-09-24T15:09:42.000Z</Time>
            <Position>
              <LatitudeDegrees>43.2823902927339076995849609375</LatitudeDegrees>
              <LongitudeDegrees>-2.761202417314052581787109375</LongitudeDegrees>
            </Position>
            <AltitudeMeters>206.8000030517578125</AltitudeMeters>
            <DistanceMeters>NAN</DistanceMeters>
          </Trackpoint>
          <Trackpoint>
            <Time>2022-09-24T15:09:43.000Z</Time>
            <Position>
              <LatitudeDegrees>43.28240177594125270843505859375</LatitudeDegrees>
              <LongitudeDegrees>-2.7611692249774932861328125</LongitudeDegrees>
            </Position>
            <AltitudeMeters>207</AltitudeMeters>
            <DistanceMeters>NAN</DistanceMeters>
          </Trackpoint>
          <Trackpoint>
            <Time>2022-09-24T15:09:44.000Z</Time>
            <Position>
              <LatitudeDegrees>43.28240797854959964752197265625</LatitudeDegrees>
              <LongitudeDegrees>-2.761138714849948883056640625</LongitudeDegrees>
            </Position>
            <AltitudeMeters>207</AltitudeMeters>
            <DistanceMeters>NAN</DistanceMeters>
          </Trackpoint>
          <Trackpoint>
            <Time>2022-09-24T15:09:45.000Z</Time>
            <Position>
              <LatitudeDegrees>43.28241937793791294097900390625</LatitudeDegrees>
              <LongitudeDegrees>-2.761100493371486663818359375</LongitudeDegrees>
            </Position>
            <AltitudeMeters>207.1999969482421875</AltitudeMeters>
            <DistanceMeters>NAN</DistanceMeters>
          </Trackpoint>
          <Trackpoint>
            <Time>2022-09-24T15:09:46.000Z</Time>
            <Position>
              <LatitudeDegrees>43.28242641873657703399658203125</LatitudeDegrees>
              <LongitudeDegrees>-2.7610671333968639373779296875</LongitudeDegrees>
            </Position>
            <AltitudeMeters>207.1999969482421875</AltitudeMeters>
            <DistanceMeters>NAN</DistanceMeters>
          </Trackpoint>
          <Trackpoint>
            <Time>2022-09-24T15:09:47.000Z</Time>
            <Position>
              <LatitudeDegrees>43.28243027441203594207763671875</LatitudeDegrees>
              <LongitudeDegrees>-2.76103419251739978790283203125</LongitudeDegrees>
            </Position>
            <AltitudeMeters>207.8000030517578125</AltitudeMeters>
            <DistanceMeters>NAN</DistanceMeters>
          </Trackpoint>
          <Trackpoint>
            <Time>2022-09-24T15:09:48.000Z</Time>
            <Position>
              <LatitudeDegrees>43.28243144787847995758056640625</LatitudeDegrees>
              <LongitudeDegrees>-2.76099278591573238372802734375</LongitudeDegrees>
            </Position>
            <AltitudeMeters>208.1999969482421875</AltitudeMeters>
            <DistanceMeters>NAN</DistanceMeters>
          </Trackpoint>
          <Trackpoint>
            <Time>2022-09-24T15:09:49.000Z</Time>
            <Position>
              <LatitudeDegrees>43.28243069350719451904296875</LatitudeDegrees>
              <LongitudeDegrees>-2.7609558217227458953857421875</LongitudeDegrees>
            </Position>
            <AltitudeMeters>208.1999969482421875</AltitudeMeters>
            <DistanceMeters>NAN</DistanceMeters>
          </Trackpoint>
          <Trackpoint>
            <Time>2022-09-24T15:09:50.000Z</Time>
            <Position>
              <LatitudeDegrees>43.2824251614511013031005859375</LatitudeDegrees>
              <LongitudeDegrees>-2.76091919280588626861572265625</LongitudeDegrees>
            </Position>
            <AltitudeMeters>208.600006103515625</AltitudeMeters>
            <DistanceMeters>NAN</DistanceMeters>
          </Trackpoint>
          <Trackpoint>
            <Time>2022-09-24T15:09:51.000Z</Time>
            <Position>
              <LatitudeDegrees>43.282418288290500640869140625</LatitudeDegrees>
              <LongitudeDegrees>-2.76088415645062923431396484375</LongitudeDegrees>
            </Position>
            <AltitudeMeters>208.600006103515625</AltitudeMeters>
            <DistanceMeters>NAN</DistanceMeters>
          </Trackpoint>
          <Trackpoint>
            <Time>2022-09-24T15:09:52.000Z</Time>
            <Position>
              <LatitudeDegrees>43.28240521252155303955078125</LatitudeDegrees>
              <LongitudeDegrees>-2.76084794662892818450927734375</LongitudeDegrees>
            </Position>
            <AltitudeMeters>208.8000030517578125</AltitudeMeters>
            <DistanceMeters>NAN</DistanceMeters>
          </Trackpoint>
          <Trackpoint>
            <Time>2022-09-24T15:09:53.000Z</Time>
            <Position>
              <LatitudeDegrees>43.2823956571519374847412109375</LatitudeDegrees>
              <LongitudeDegrees>-2.7608156763017177581787109375</LongitudeDegrees>
            </Position>
            <AltitudeMeters>209.1999969482421875</AltitudeMeters>
            <DistanceMeters>NAN</DistanceMeters>
          </Trackpoint>
          <Trackpoint>
            <Time>2022-09-24T15:09:54.000Z</Time>
            <Position>
              <LatitudeDegrees>43.282381407916545867919921875</LatitudeDegrees>
              <LongitudeDegrees>-2.76078457944095134735107421875</LongitudeDegrees>
            </Position>
            <AltitudeMeters>209.1999969482421875</AltitudeMeters>
            <DistanceMeters>NAN</DistanceMeters>
          </Trackpoint>
          <Trackpoint>
            <Time>2022-09-24T15:09:55.000Z</Time>
            <Position>
              <LatitudeDegrees>43.2823614589869976043701171875</LatitudeDegrees>
              <LongitudeDegrees>-2.76075708679854869842529296875</LongitudeDegrees>
            </Position>
            <AltitudeMeters>209.399993896484375</AltitudeMeters>
            <DistanceMeters>NAN</DistanceMeters>
          </Trackpoint>
          <Trackpoint>
            <Time>2022-09-24T15:09:56.000Z</Time>
            <Position>
              <LatitudeDegrees>43.28234075568616390228271484375</LatitudeDegrees>
              <LongitudeDegrees>-2.76073135435581207275390625</LongitudeDegrees>
            </Position>
            <AltitudeMeters>209.600006103515625</AltitudeMeters>
            <DistanceMeters>NAN</DistanceMeters>
          </Trackpoint>
          <Trackpoint>
            <Time>2022-09-24T15:09:57.000Z</Time>
            <Position>
              <LatitudeDegrees>43.28231929801404476165771484375</LatitudeDegrees>
              <LongitudeDegrees>-2.7607046999037265777587890625</LongitudeDegrees>
            </Position>
            <AltitudeMeters>210</AltitudeMeters>
            <DistanceMeters>NAN</DistanceMeters>
          </Trackpoint>
          <Trackpoint>
            <Time>2022-09-24T15:09:58.000Z</Time>
            <Position>
              <LatitudeDegrees>43.282294236123561859130859375</LatitudeDegrees>
              <LongitudeDegrees>-2.7606741897761821746826171875</LongitudeDegrees>
            </Position>
            <AltitudeMeters>210</AltitudeMeters>
            <DistanceMeters>NAN</DistanceMeters>
          </Trackpoint>
          <Trackpoint>
            <Time>2022-09-24T15:09:59.000Z</Time>
            <Position>
              <LatitudeDegrees>43.28227319754660129547119140625</LatitudeDegrees>
              <LongitudeDegrees>-2.76064879260957241058349609375</LongitudeDegrees>
            </Position>
            <AltitudeMeters>210.1999969482421875</AltitudeMeters>
            <DistanceMeters>NAN</DistanceMeters>
          </Trackpoint>
          <Trackpoint>
            <Time>2022-09-24T15:10:00.000Z</Time>
            <Position>
              <LatitudeDegrees>43.28225710429251194000244140625</LatitudeDegrees>
              <LongitudeDegrees>-2.7606292627751827239990234375</LongitudeDegrees>
            </Position>
            <AltitudeMeters>210.399993896484375</AltitudeMeters>
            <DistanceMeters>NAN</DistanceMeters>
          </Trackpoint>
          <Trackpoint>
            <Time>2022-09-24T15:10:01.000Z</Time>
            <Position>
              <LatitudeDegrees>43.28223447315394878387451171875</LatitudeDegrees>
              <LongitudeDegrees>-2.76060503907501697540283203125</LongitudeDegrees>
            </Position>
            <AltitudeMeters>210.8000030517578125</AltitudeMeters>
            <DistanceMeters>NAN</DistanceMeters>
          </Trackpoint>
          <Trackpoint>
            <Time>2022-09-24T15:10:02.000Z</Time>
            <Position>
              <LatitudeDegrees>43.28221469186246395111083984375</LatitudeDegrees>
              <LongitudeDegrees>-2.76058140210807323455810546875</LongitudeDegrees>
            </Position>
            <AltitudeMeters>211.1999969482421875</AltitudeMeters>
            <DistanceMeters>NAN</DistanceMeters>
          </Trackpoint>
          <Trackpoint>
            <Time>2022-09-24T15:10:03.000Z</Time>
            <Position>
              <LatitudeDegrees>43.28219658695161342620849609375</LatitudeDegrees>
              <LongitudeDegrees>-2.760556004941463470458984375</LongitudeDegrees>
            </Position>
            <AltitudeMeters>211.399993896484375</AltitudeMeters>
            <DistanceMeters>NAN</DistanceMeters>
          </Trackpoint>
          <Trackpoint>
            <Time>2022-09-24T15:10:04.000Z</Time>
            <Position>
              <LatitudeDegrees>43.2821783982217311859130859375</LatitudeDegrees>
              <LongitudeDegrees>-2.7605316974222660064697265625</LongitudeDegrees>
            </Position>
            <AltitudeMeters>211.399993896484375</AltitudeMeters>
            <DistanceMeters>NAN</DistanceMeters>
          </Trackpoint>
          <Trackpoint>
            <Time>2022-09-24T15:10:05.000Z</Time>
            <Position>
              <LatitudeDegrees>43.28216205351054668426513671875</LatitudeDegrees>
              <LongitudeDegrees>-2.76050814427435398101806640625</LongitudeDegrees>
            </Position>
            <AltitudeMeters>211.600006103515625</AltitudeMeters>
            <DistanceMeters>NAN</DistanceMeters>
          </Trackpoint>
          <Trackpoint>
            <Time>2022-09-24T15:10:06.000Z</Time>
            <Position>
              <LatitudeDegrees>43.2821438647806644439697265625</LatitudeDegrees>
              <LongitudeDegrees>-2.7604840882122516632080078125</LongitudeDegrees>
            </Position>
            <AltitudeMeters>212</AltitudeMeters>
            <DistanceMeters>NAN</DistanceMeters>
          </Trackpoint>
          <Trackpoint>
            <Time>2022-09-24T15:10:07.000Z</Time>
            <Position>
              <LatitudeDegrees>43.282127268612384796142578125</LatitudeDegrees>
              <LongitudeDegrees>-2.76045835576951503753662109375</LongitudeDegrees>
            </Position>
            <AltitudeMeters>212.1999969482421875</AltitudeMeters>
            <DistanceMeters>NAN</DistanceMeters>
          </Trackpoint>
          <Trackpoint>
            <Time>2022-09-24T15:10:08.000Z</Time>
            <Position>
              <LatitudeDegrees>43.28211025334894657135009765625</LatitudeDegrees>
              <LongitudeDegrees>-2.76043002493679523468017578125</LongitudeDegrees>
            </Position>
            <AltitudeMeters>212.399993896484375</AltitudeMeters>
            <DistanceMeters>NAN</DistanceMeters>
          </Trackpoint>
          <Trackpoint>
            <Time>2022-09-24T15:10:09.000Z</Time>
            <Position>
              <LatitudeDegrees>43.28209768049418926239013671875</LatitudeDegrees>
              <LongitudeDegrees>-2.76040370576083660125732421875</LongitudeDegrees>
            </Position>
            <AltitudeMeters>212.8000030517578125</AltitudeMeters>
            <DistanceMeters>NAN</DistanceMeters>
          </Trackpoint>
          <Trackpoint>
            <Time>2022-09-24T15:10:10.000Z</Time>
            <Position>
              <LatitudeDegrees>43.2820831798017024993896484375</LatitudeDegrees>
              <LongitudeDegrees>-2.76037462055683135986328125</LongitudeDegrees>
            </Position>
            <AltitudeMeters>212.8000030517578125</AltitudeMeters>
            <DistanceMeters>NAN</DistanceMeters>
          </Trackpoint>
          <Trackpoint>
            <Time>2022-09-24T15:10:11.000Z</Time>
            <Position>
              <LatitudeDegrees>43.28206750564277172088623046875</LatitudeDegrees>
              <LongitudeDegrees>-2.76034285314381122589111328125</LongitudeDegrees>
            </Position>
            <AltitudeMeters>213.399993896484375</AltitudeMeters>
            <DistanceMeters>NAN</DistanceMeters>
          </Trackpoint>
          <Trackpoint>
            <Time>2022-09-24T15:10:12.000Z</Time>
            <Position>
              <LatitudeDegrees>43.28205493278801441192626953125</LatitudeDegrees>
              <LongitudeDegrees>-2.7603100799024105072021484375</LongitudeDegrees>
            </Position>
            <AltitudeMeters>213.399993896484375</AltitudeMeters>
            <DistanceMeters>NAN</DistanceMeters>
          </Trackpoint>
          <Trackpoint>
            <Time>2022-09-24T15:10:13.000Z</Time>
            <Position>
              <LatitudeDegrees>43.2820426113903522491455078125</LatitudeDegrees>
              <LongitudeDegrees>-2.7602762170135974884033203125</LongitudeDegrees>
            </Position>
            <AltitudeMeters>213.399993896484375</AltitudeMeters>
            <DistanceMeters>NAN</DistanceMeters>
          </Trackpoint>
          <Trackpoint>
            <Time>2022-09-24T15:10:14.000Z</Time>
            <Position>
              <LatitudeDegrees>43.282032720744609832763671875</LatitudeDegrees>
              <LongitudeDegrees>-2.76024126447737216949462890625</LongitudeDegrees>
            </Position>
            <AltitudeMeters>213.600006103515625</AltitudeMeters>
            <DistanceMeters>NAN</DistanceMeters>
          </Trackpoint>
          <Trackpoint>
            <Time>2022-09-24T15:10:15.000Z</Time>
            <Position>
              <LatitudeDegrees>43.28202660195529460906982421875</LatitudeDegrees>
              <LongitudeDegrees>-2.7602048031985759735107421875</LongitudeDegrees>
            </Position>
            <AltitudeMeters>213.8000030517578125</AltitudeMeters>
            <DistanceMeters>NAN</DistanceMeters>
          </Trackpoint>
          <Trackpoint>
            <Time>2022-09-24T15:10:16.000Z</Time>
            <Position>
              <LatitudeDegrees>43.2820208184421062469482421875</LatitudeDegrees>
              <LongitudeDegrees>-2.76016918011009693145751953125</LongitudeDegrees>
            </Position>
            <AltitudeMeters>214</AltitudeMeters>
            <DistanceMeters>NAN</DistanceMeters>
          </Trackpoint>
          <Trackpoint>
            <Time>2022-09-24T15:10:17.000Z</Time>
            <Position>
              <LatitudeDegrees>43.28201520256698131561279296875</LatitudeDegrees>
              <LongitudeDegrees>-2.7601320482790470123291015625</LongitudeDegrees>
            </Position>
            <AltitudeMeters>214.399993896484375</AltitudeMeters>
            <DistanceMeters>NAN</DistanceMeters>
          </Trackpoint>
          <Trackpoint>
            <Time>2022-09-24T15:10:18.000Z</Time>
            <Position>
              <LatitudeDegrees>43.28201117925345897674560546875</LatitudeDegrees>
              <LongitudeDegrees>-2.760092318058013916015625</LongitudeDegrees>
            </Position>
            <AltitudeMeters>215</AltitudeMeters>
            <DistanceMeters>NAN</DistanceMeters>
          </Trackpoint>
          <Trackpoint>
            <Time>2022-09-24T15:10:19.000Z</Time>
            <Position>
              <LatitudeDegrees>43.28200698830187320709228515625</LatitudeDegrees>
              <LongitudeDegrees>-2.7600525878369808197021484375</LongitudeDegrees>
            </Position>
            <AltitudeMeters>215.1999969482421875</AltitudeMeters>
            <DistanceMeters>NAN</DistanceMeters>
          </Trackpoint>
          <Trackpoint>
            <Time>2022-09-24T15:10:20.000Z</Time>
            <Position>
              <LatitudeDegrees>43.28200447373092174530029296875</LatitudeDegrees>
              <LongitudeDegrees>-2.76001746766269207000732421875</LongitudeDegrees>
            </Position>
            <AltitudeMeters>215.399993896484375</AltitudeMeters>
            <DistanceMeters>NAN</DistanceMeters>
          </Trackpoint>
          <Trackpoint>
            <Time>2022-09-24T15:10:21.000Z</Time>
            <Position>
              <LatitudeDegrees>43.282002545893192291259765625</LatitudeDegrees>
              <LongitudeDegrees>-2.75997958146035671234130859375</LongitudeDegrees>
            </Position>
            <AltitudeMeters>215.8000030517578125</AltitudeMeters>
            <DistanceMeters>NAN</DistanceMeters>
          </Trackpoint>
          <Trackpoint>
            <Time>2022-09-24T15:10:22.000Z</Time>
            <Position>
              <LatitudeDegrees>43.2820062339305877685546875</LatitudeDegrees>
              <LongitudeDegrees>-2.75994286872446537017822265625</LongitudeDegrees>
            </Position>
            <AltitudeMeters>215.8000030517578125</AltitudeMeters>
            <DistanceMeters>NAN</DistanceMeters>
          </Trackpoint>
          <Trackpoint>
            <Time>2022-09-24T15:10:23.000Z</Time>
            <Position>
              <LatitudeDegrees>43.28200749121606349945068359375</LatitudeDegrees>
              <LongitudeDegrees>-2.75990330614149570465087890625</LongitudeDegrees>
            </Position>
            <AltitudeMeters>216</AltitudeMeters>
            <DistanceMeters>NAN</DistanceMeters>
          </Trackpoint>
          <Trackpoint>
            <Time>2022-09-24T15:10:24.000Z</Time>
            <Position>
              <LatitudeDegrees>43.2820090837776660919189453125</LatitudeDegrees>
              <LongitudeDegrees>-2.7598661743104457855224609375</LongitudeDegrees>
            </Position>
            <AltitudeMeters>216</AltitudeMeters>
            <DistanceMeters>NAN</DistanceMeters>
          </Trackpoint>
          <Trackpoint>
            <Time>2022-09-24T15:10:25.000Z</Time>
            <Position>
              <LatitudeDegrees>43.28201101161539554595947265625</LatitudeDegrees>
              <LongitudeDegrees>-2.75982736609876155853271484375</LongitudeDegrees>
            </Position>
            <AltitudeMeters>216.399993896484375</AltitudeMeters>
            <DistanceMeters>NAN</DistanceMeters>
          </Trackpoint>
          <Trackpoint>
            <Time>2022-09-24T15:10:26.000Z</Time>
            <Position>
              <LatitudeDegrees>43.28201168216764926910400390625</LatitudeDegrees>
              <LongitudeDegrees>-2.7597904019057750701904296875</LongitudeDegrees>
            </Position>
            <AltitudeMeters>216.600006103515625</AltitudeMeters>
            <DistanceMeters>NAN</DistanceMeters>
          </Trackpoint>
          <Trackpoint>
            <Time>2022-09-24T15:10:27.000Z</Time>
            <Position>
              <LatitudeDegrees>43.28201587311923503875732421875</LatitudeDegrees>
              <LongitudeDegrees>-2.7597511745989322662353515625</LongitudeDegrees>
            </Position>
            <AltitudeMeters>216.600006103515625</AltitudeMeters>
            <DistanceMeters>NAN</DistanceMeters>
          </Trackpoint>
          <Trackpoint>
            <Time>2022-09-24T15:10:28.000Z</Time>
            <Position>
              <LatitudeDegrees>43.2820201478898525238037109375</LatitudeDegrees>
              <LongitudeDegrees>-2.75971219874918460845947265625</LongitudeDegrees>
            </Position>
            <AltitudeMeters>217.1999969482421875</AltitudeMeters>
            <DistanceMeters>NAN</DistanceMeters>
          </Trackpoint>
          <Trackpoint>
            <Time>2022-09-24T15:10:29.000Z</Time>
            <Position>
              <LatitudeDegrees>43.282020650804042816162109375</LatitudeDegrees>
              <LongitudeDegrees>-2.75967615656554698944091796875</LongitudeDegrees>
            </Position>
            <AltitudeMeters>217.1999969482421875</AltitudeMeters>
            <DistanceMeters>NAN</DistanceMeters>
          </Trackpoint>
          <Trackpoint>
            <Time>2022-09-24T15:10:30.000Z</Time>
            <Position>
              <LatitudeDegrees>43.2820198126137256622314453125</LatitudeDegrees>
              <LongitudeDegrees>-2.75964237749576568603515625</LongitudeDegrees>
            </Position>
            <AltitudeMeters>217.1999969482421875</AltitudeMeters>
            <DistanceMeters>NAN</DistanceMeters>
          </Trackpoint>
          <Trackpoint>
            <Time>2022-09-24T15:10:31.000Z</Time>
            <Position>
              <LatitudeDegrees>43.28201830387115478515625</LatitudeDegrees>
              <LongitudeDegrees>-2.759605161845684051513671875</LongitudeDegrees>
            </Position>
            <AltitudeMeters>217.600006103515625</AltitudeMeters>
            <DistanceMeters>NAN</DistanceMeters>
          </Trackpoint>
          <Trackpoint>
            <Time>2022-09-24T15:10:32.000Z</Time>
            <Position>
              <LatitudeDegrees>43.2820204831659793853759765625</LatitudeDegrees>
              <LongitudeDegrees>-2.759566940367221832275390625</LongitudeDegrees>
            </Position>
            <AltitudeMeters>217.8000030517578125</AltitudeMeters>
            <DistanceMeters>NAN</DistanceMeters>
          </Trackpoint>
          <Trackpoint>
            <Time>2022-09-24T15:10:33.000Z</Time>
            <Position>
              <LatitudeDegrees>43.282020986080169677734375</LatitudeDegrees>
              <LongitudeDegrees>-2.75953131727874279022216796875</LongitudeDegrees>
            </Position>
            <AltitudeMeters>218</AltitudeMeters>
            <DistanceMeters>NAN</DistanceMeters>
          </Trackpoint>
          <Trackpoint>
            <Time>2022-09-24T15:10:34.000Z</Time>
            <Position>
              <LatitudeDegrees>43.28202425502240657806396484375</LatitudeDegrees>
              <LongitudeDegrees>-2.759498544037342071533203125</LongitudeDegrees>
            </Position>
            <AltitudeMeters>218</AltitudeMeters>
            <DistanceMeters>NAN</DistanceMeters>
          </Trackpoint>
          <Trackpoint>
            <Time>2022-09-24T15:10:35.000Z</Time>
            <Position>
              <LatitudeDegrees>43.282023333013057708740234375</LatitudeDegrees>
              <LongitudeDegrees>-2.7594635076820850372314453125</LongitudeDegrees>
            </Position>
            <AltitudeMeters>218.600006103515625</AltitudeMeters>
            <DistanceMeters>NAN</DistanceMeters>
          </Trackpoint>
          <Trackpoint>
            <Time>2022-09-24T15:10:36.000Z</Time>
            <Position>
              <LatitudeDegrees>43.2820275239646434783935546875</LatitudeDegrees>
              <LongitudeDegrees>-2.75942805223166942596435546875</LongitudeDegrees>
            </Position>
            <AltitudeMeters>218.8000030517578125</AltitudeMeters>
            <DistanceMeters>NAN</DistanceMeters>
          </Trackpoint>
          <Trackpoint>
            <Time>2022-09-24T15:10:37.000Z</Time>
            <Position>
              <LatitudeDegrees>43.2820276916027069091796875</LatitudeDegrees>
              <LongitudeDegrees>-2.75939963757991790771484375</LongitudeDegrees>
            </Position>
            <AltitudeMeters>219</AltitudeMeters>
            <DistanceMeters>NAN</DistanceMeters>
          </Trackpoint>
          <Trackpoint>
            <Time>2022-09-24T15:10:38.000Z</Time>
            <Position>
              <LatitudeDegrees>43.2820278592407703399658203125</LatitudeDegrees>
              <LongitudeDegrees>-2.75936401449143886566162109375</LongitudeDegrees>
            </Position>
            <AltitudeMeters>219.1999969482421875</AltitudeMeters>
            <DistanceMeters>NAN</DistanceMeters>
          </Trackpoint>
          <Trackpoint>
            <Time>2022-09-24T15:10:39.000Z</Time>
            <Position>
              <LatitudeDegrees>43.282026350498199462890625</LatitudeDegrees>
              <LongitudeDegrees>-2.75931891985237598419189453125</LongitudeDegrees>
            </Position>
            <AltitudeMeters>219.399993896484375</AltitudeMeters>
            <DistanceMeters>NAN</DistanceMeters>
          </Trackpoint>
          <Trackpoint>
            <Time>2022-09-24T15:10:40.000Z</Time>
            <Position>
              <LatitudeDegrees>43.28202492557466030120849609375</LatitudeDegrees>
              <LongitudeDegrees>-2.75929025374352931976318359375</LongitudeDegrees>
            </Position>
            <AltitudeMeters>219.399993896484375</AltitudeMeters>
            <DistanceMeters>NAN</DistanceMeters>
          </Trackpoint>
          <Trackpoint>
            <Time>2022-09-24T15:10:41.000Z</Time>
            <Position>
              <LatitudeDegrees>43.28202106989920139312744140625</LatitudeDegrees>
              <LongitudeDegrees>-2.75924733839929103851318359375</LongitudeDegrees>
            </Position>
            <AltitudeMeters>219.8000030517578125</AltitudeMeters>
            <DistanceMeters>NAN</DistanceMeters>
          </Trackpoint>
          <Trackpoint>
            <Time>2022-09-24T15:10:42.000Z</Time>
            <Position>
              <LatitudeDegrees>43.282015621662139892578125</LatitudeDegrees>
              <LongitudeDegrees>-2.75921196676790714263916015625</LongitudeDegrees>
            </Position>
            <AltitudeMeters>220</AltitudeMeters>
            <DistanceMeters>NAN</DistanceMeters>
          </Trackpoint>
          <Trackpoint>
            <Time>2022-09-24T15:10:43.000Z</Time>
            <Position>
              <LatitudeDegrees>43.28200933523476123809814453125</LatitudeDegrees>
              <LongitudeDegrees>-2.75917726568877696990966796875</LongitudeDegrees>
            </Position>
            <AltitudeMeters>220.399993896484375</AltitudeMeters>
            <DistanceMeters>NAN</DistanceMeters>
          </Trackpoint>
          <Trackpoint>
            <Time>2022-09-24T15:10:44.000Z</Time>
            <Position>
              <LatitudeDegrees>43.28200296498835086822509765625</LatitudeDegrees>
              <LongitudeDegrees>-2.759143151342868804931640625</LongitudeDegrees>
            </Position>
            <AltitudeMeters>220.600006103515625</AltitudeMeters>
            <DistanceMeters>NAN</DistanceMeters>
          </Trackpoint>
          <Trackpoint>
            <Time>2022-09-24T15:10:45.000Z</Time>
            <Position>
              <LatitudeDegrees>43.2819919846951961517333984375</LatitudeDegrees>
              <LongitudeDegrees>-2.75911071337759494781494140625</LongitudeDegrees>
            </Position>
            <AltitudeMeters>220.8000030517578125</AltitudeMeters>
            <DistanceMeters>NAN</DistanceMeters>
          </Trackpoint>
          <Trackpoint>
            <Time>2022-09-24T15:10:46.000Z</Time>
            <Position>
              <LatitudeDegrees>43.28197882510721683502197265625</LatitudeDegrees>
              <LongitudeDegrees>-2.7590769343078136444091796875</LongitudeDegrees>
            </Position>
            <AltitudeMeters>220.8000030517578125</AltitudeMeters>
            <DistanceMeters>NAN</DistanceMeters>
          </Trackpoint>
          <Trackpoint>
            <Time>2022-09-24T15:10:47.000Z</Time>
            <Position>
              <LatitudeDegrees>43.281961977481842041015625</LatitudeDegrees>
              <LongitudeDegrees>-2.75904684327542781829833984375</LongitudeDegrees>
            </Position>
            <AltitudeMeters>221</AltitudeMeters>
            <DistanceMeters>NAN</DistanceMeters>
          </Trackpoint>
          <Trackpoint>
            <Time>2022-09-24T15:10:48.000Z</Time>
            <Position>
              <LatitudeDegrees>43.28193984925746917724609375</LatitudeDegrees>
              <LongitudeDegrees>-2.7590189315378665924072265625</LongitudeDegrees>
            </Position>
            <AltitudeMeters>221</AltitudeMeters>
            <DistanceMeters>NAN</DistanceMeters>
          </Trackpoint>
          <Trackpoint>
            <Time>2022-09-24T15:10:49.000Z</Time>
            <Position>
              <LatitudeDegrees>43.28191881068050861358642578125</LatitudeDegrees>
              <LongitudeDegrees>-2.7589954622089862823486328125</LongitudeDegrees>
            </Position>
            <AltitudeMeters>221.600006103515625</AltitudeMeters>
            <DistanceMeters>NAN</DistanceMeters>
          </Trackpoint>
          <Trackpoint>
            <Time>2022-09-24T15:10:50.000Z</Time>
            <Position>
              <LatitudeDegrees>43.28189601190388202667236328125</LatitudeDegrees>
              <LongitudeDegrees>-2.75897291488945484161376953125</LongitudeDegrees>
            </Position>
            <AltitudeMeters>221.8000030517578125</AltitudeMeters>
            <DistanceMeters>NAN</DistanceMeters>
          </Trackpoint>
          <Trackpoint>
            <Time>2022-09-24T15:10:51.000Z</Time>
            <Position>
              <LatitudeDegrees>43.2818732969462871551513671875</LatitudeDegrees>
              <LongitudeDegrees>-2.7589522115886211395263671875</LongitudeDegrees>
            </Position>
            <AltitudeMeters>222</AltitudeMeters>
            <DistanceMeters>NAN</DistanceMeters>
          </Trackpoint>
          <Trackpoint>
            <Time>2022-09-24T15:10:52.000Z</Time>
            <Position>
              <LatitudeDegrees>43.2818732969462871551513671875</LatitudeDegrees>
              <LongitudeDegrees>-2.7589522115886211395263671875</LongitudeDegrees>
            </Position>
            <AltitudeMeters>222.1999969482421875</AltitudeMeters>
            <DistanceMeters>NAN</DistanceMeters>
          </Trackpoint>
          <Trackpoint>
            <Time>2022-09-24T15:10:53.000Z</Time>
            <Position>
              <LatitudeDegrees>43.28182660974562168121337890625</LatitudeDegrees>
              <LongitudeDegrees>-2.75891809724271297454833984375</LongitudeDegrees>
            </Position>
            <AltitudeMeters>222.399993896484375</AltitudeMeters>
            <DistanceMeters>NAN</DistanceMeters>
          </Trackpoint>
          <Trackpoint>
            <Time>2022-09-24T15:10:54.000Z</Time>
            <Position>
              <LatitudeDegrees>43.28180364333093166351318359375</LatitudeDegrees>
              <LongitudeDegrees>-2.75890116579830646514892578125</LongitudeDegrees>
            </Position>
            <AltitudeMeters>222.399993896484375</AltitudeMeters>
            <DistanceMeters>NAN</DistanceMeters>
          </Trackpoint>
          <Trackpoint>
            <Time>2022-09-24T15:10:55.000Z</Time>
            <Position>
              <LatitudeDegrees>43.28177380375564098358154296875</LatitudeDegrees>
              <LongitudeDegrees>-2.7588854916393756866455078125</LongitudeDegrees>
            </Position>
            <AltitudeMeters>222.399993896484375</AltitudeMeters>
            <DistanceMeters>NAN</DistanceMeters>
          </Trackpoint>
          <Trackpoint>
            <Time>2022-09-24T15:10:56.000Z</Time>
            <Position>
              <LatitudeDegrees>43.2817499153316020965576171875</LatitudeDegrees>
              <LongitudeDegrees>-2.7588710747659206390380859375</LongitudeDegrees>
            </Position>
            <AltitudeMeters>222.600006103515625</AltitudeMeters>
            <DistanceMeters>NAN</DistanceMeters>
          </Trackpoint>
          <Trackpoint>
            <Time>2022-09-24T15:10:57.000Z</Time>
            <Position>
              <LatitudeDegrees>43.28172569163143634796142578125</LatitudeDegrees>
              <LongitudeDegrees>-2.75885506533086299896240234375</LongitudeDegrees>
            </Position>
            <AltitudeMeters>222.8000030517578125</AltitudeMeters>
            <DistanceMeters>NAN</DistanceMeters>
          </Trackpoint>
          <Trackpoint>
            <Time>2022-09-24T15:10:58.000Z</Time>
            <Position>
              <LatitudeDegrees>43.28170649707317352294921875</LatitudeDegrees>
              <LongitudeDegrees>-2.758844085037708282470703125</LongitudeDegrees>
            </Position>
            <AltitudeMeters>223</AltitudeMeters>
            <DistanceMeters>NAN</DistanceMeters>
          </Trackpoint>
          <Trackpoint>
            <Time>2022-09-24T15:10:59.000Z</Time>
            <Position>
              <LatitudeDegrees>43.28167657367885112762451171875</LatitudeDegrees>
              <LongitudeDegrees>-2.758831344544887542724609375</LongitudeDegrees>
            </Position>
            <AltitudeMeters>223.1999969482421875</AltitudeMeters>
            <DistanceMeters>NAN</DistanceMeters>
          </Trackpoint>
          <Trackpoint>
            <Time>2022-09-24T15:11:00.000Z</Time>
            <Position>
              <LatitudeDegrees>43.28165528364479541778564453125</LatitudeDegrees>
              <LongitudeDegrees>-2.7588204480707645416259765625</LongitudeDegrees>
            </Position>
            <AltitudeMeters>223.600006103515625</AltitudeMeters>
            <DistanceMeters>NAN</DistanceMeters>
          </Trackpoint>
          <Trackpoint>
            <Time>2022-09-24T15:11:01.000Z</Time>
            <Position>
              <LatitudeDegrees>43.2816298864781856536865234375</LatitudeDegrees>
              <LongitudeDegrees>-2.7588097192347049713134765625</LongitudeDegrees>
            </Position>
            <AltitudeMeters>224</AltitudeMeters>
            <DistanceMeters>NAN</DistanceMeters>
          </Trackpoint>
          <Trackpoint>
            <Time>2022-09-24T15:11:02.000Z</Time>
            <Position>
              <LatitudeDegrees>43.28160415403544902801513671875</LatitudeDegrees>
              <LongitudeDegrees>-2.75879940949380397796630859375</LongitudeDegrees>
            </Position>
            <AltitudeMeters>224</AltitudeMeters>
            <DistanceMeters>NAN</DistanceMeters>
          </Trackpoint>
          <Trackpoint>
            <Time>2022-09-24T15:11:03.000Z</Time>
            <Position>
              <LatitudeDegrees>43.28157565556466579437255859375</LatitudeDegrees>
              <LongitudeDegrees>-2.758791781961917877197265625</LongitudeDegrees>
            </Position>
            <AltitudeMeters>224.1999969482421875</AltitudeMeters>
            <DistanceMeters>NAN</DistanceMeters>
          </Trackpoint>
          <Trackpoint>
            <Time>2022-09-24T15:11:04.000Z</Time>
            <Position>
              <LatitudeDegrees>43.28154531307518482208251953125</LatitudeDegrees>
              <LongitudeDegrees>-2.75878029875457286834716796875</LongitudeDegrees>
            </Position>
            <AltitudeMeters>224.399993896484375</AltitudeMeters>
            <DistanceMeters>NAN</DistanceMeters>
          </Trackpoint>
          <Trackpoint>
            <Time>2022-09-24T15:11:05.000Z</Time>
            <Position>
              <LatitudeDegrees>43.281515054404735565185546875</LatitudeDegrees>
              <LongitudeDegrees>-2.75876739062368869781494140625</LongitudeDegrees>
            </Position>
            <AltitudeMeters>225</AltitudeMeters>
            <DistanceMeters>NAN</DistanceMeters>
          </Trackpoint>
          <Trackpoint>
            <Time>2022-09-24T15:11:06.000Z</Time>
            <Position>
              <LatitudeDegrees>43.281485550105571746826171875</LatitudeDegrees>
              <LongitudeDegrees>-2.75875632651150226593017578125</LongitudeDegrees>
            </Position>
            <AltitudeMeters>225</AltitudeMeters>
            <DistanceMeters>NAN</DistanceMeters>
          </Trackpoint>
          <Trackpoint>
            <Time>2022-09-24T15:11:07.000Z</Time>
            <Position>
              <LatitudeDegrees>43.28145663253962993621826171875</LatitudeDegrees>
              <LongitudeDegrees>-2.7587429992854595184326171875</LongitudeDegrees>
            </Position>
            <AltitudeMeters>225.1999969482421875</AltitudeMeters>
            <DistanceMeters>NAN</DistanceMeters>
          </Trackpoint>
          <Trackpoint>
            <Time>2022-09-24T15:11:08.000Z</Time>
            <Position>
              <LatitudeDegrees>43.2814290560781955718994140625</LatitudeDegrees>
              <LongitudeDegrees>-2.75872682221233844757080078125</LongitudeDegrees>
            </Position>
            <AltitudeMeters>225.399993896484375</AltitudeMeters>
            <DistanceMeters>NAN</DistanceMeters>
          </Trackpoint>
          <Trackpoint>
            <Time>2022-09-24T15:11:09.000Z</Time>
            <Position>
              <LatitudeDegrees>43.28139762394130229949951171875</LatitudeDegrees>
              <LongitudeDegrees>-2.75870871730148792266845703125</LongitudeDegrees>
            </Position>
            <AltitudeMeters>225.399993896484375</AltitudeMeters>
            <DistanceMeters>NAN</DistanceMeters>
          </Trackpoint>
          <Trackpoint>
            <Time>2022-09-24T15:11:10.000Z</Time>
            <Position>
              <LatitudeDegrees>43.28137666918337345123291015625</LatitudeDegrees>
              <LongitudeDegrees>-2.75869295932352542877197265625</LongitudeDegrees>
            </Position>
            <AltitudeMeters>225.600006103515625</AltitudeMeters>
            <DistanceMeters>NAN</DistanceMeters>
          </Trackpoint>
          <Trackpoint>
            <Time>2022-09-24T15:11:11.000Z</Time>
            <Position>
              <LatitudeDegrees>43.2813485898077487945556640625</LatitudeDegrees>
              <LongitudeDegrees>-2.7586782909929752349853515625</LongitudeDegrees>
            </Position>
            <AltitudeMeters>225.8000030517578125</AltitudeMeters>
            <DistanceMeters>NAN</DistanceMeters>
          </Trackpoint>
          <Trackpoint>
            <Time>2022-09-24T15:11:12.000Z</Time>
            <Position>
              <LatitudeDegrees>43.28132017515599727630615234375</LatitudeDegrees>
              <LongitudeDegrees>-2.758663706481456756591796875</LongitudeDegrees>
            </Position>
            <AltitudeMeters>226.399993896484375</AltitudeMeters>
            <DistanceMeters>NAN</DistanceMeters>
          </Trackpoint>
          <Trackpoint>
            <Time>2022-09-24T15:11:13.000Z</Time>
            <Position>
              <LatitudeDegrees>43.281295783817768096923828125</LatitudeDegrees>
              <LongitudeDegrees>-2.75865004397928714752197265625</LongitudeDegrees>
            </Position>
            <AltitudeMeters>226.399993896484375</AltitudeMeters>
            <DistanceMeters>NAN</DistanceMeters>
          </Trackpoint>
          <Trackpoint>
            <Time>2022-09-24T15:11:14.000Z</Time>
            <Position>
              <LatitudeDegrees>43.2812681235373020172119140625</LatitudeDegrees>
              <LongitudeDegrees>-2.75863965041935443878173828125</LongitudeDegrees>
            </Position>
            <AltitudeMeters>226.399993896484375</AltitudeMeters>
            <DistanceMeters>NAN</DistanceMeters>
          </Trackpoint>
          <Trackpoint>
            <Time>2022-09-24T15:11:15.000Z</Time>
            <Position>
              <LatitudeDegrees>43.2812681235373020172119140625</LatitudeDegrees>
              <LongitudeDegrees>-2.75863965041935443878173828125</LongitudeDegrees>
            </Position>
            <AltitudeMeters>226.8000030517578125</AltitudeMeters>
            <DistanceMeters>NAN</DistanceMeters>
          </Trackpoint>
          <Trackpoint>
            <Time>2022-09-24T15:11:16.000Z</Time>
            <Position>
              <LatitudeDegrees>43.28121774829924106597900390625</LatitudeDegrees>
              <LongitudeDegrees>-2.758606038987636566162109375</LongitudeDegrees>
            </Position>
            <AltitudeMeters>227</AltitudeMeters>
            <DistanceMeters>NAN</DistanceMeters>
          </Trackpoint>
          <Trackpoint>
            <Time>2022-09-24T15:11:17.000Z</Time>
            <Position>
              <LatitudeDegrees>43.2811900041997432708740234375</LatitudeDegrees>
              <LongitudeDegrees>-2.75857728905975818634033203125</LongitudeDegrees>
            </Position>
            <AltitudeMeters>227.399993896484375</AltitudeMeters>
            <DistanceMeters>NAN</DistanceMeters>
          </Trackpoint>
          <Trackpoint>
            <Time>2022-09-24T15:11:18.000Z</Time>
            <Position>
              <LatitudeDegrees>43.28117500059306621551513671875</LatitudeDegrees>
              <LongitudeDegrees>-2.7585532329976558685302734375</LongitudeDegrees>
            </Position>
            <AltitudeMeters>227.399993896484375</AltitudeMeters>
            <DistanceMeters>NAN</DistanceMeters>
          </Trackpoint>
          <Trackpoint>
            <Time>2022-09-24T15:11:19.000Z</Time>
            <Position>
              <LatitudeDegrees>43.28115404583513736724853515625</LatitudeDegrees>
              <LongitudeDegrees>-2.75852917693555355072021484375</LongitudeDegrees>
            </Position>
            <AltitudeMeters>227.399993896484375</AltitudeMeters>
            <DistanceMeters>NAN</DistanceMeters>
          </Trackpoint>
          <Trackpoint>
            <Time>2022-09-24T15:11:20.000Z</Time>
            <Position>
              <LatitudeDegrees>43.2811206020414829254150390625</LatitudeDegrees>
              <LongitudeDegrees>-2.7585026063024997711181640625</LongitudeDegrees>
            </Position>
            <AltitudeMeters>228</AltitudeMeters>
            <DistanceMeters>NAN</DistanceMeters>
          </Trackpoint>
          <Trackpoint>
            <Time>2022-09-24T15:11:21.000Z</Time>
            <Position>
              <LatitudeDegrees>43.28110006637871265411376953125</LatitudeDegrees>
              <LongitudeDegrees>-2.75847301818430423736572265625</LongitudeDegrees>
            </Position>
            <AltitudeMeters>228</AltitudeMeters>
            <DistanceMeters>NAN</DistanceMeters>
          </Trackpoint>
          <Trackpoint>
            <Time>2022-09-24T15:11:22.000Z</Time>
            <Position>
              <LatitudeDegrees>43.28110006637871265411376953125</LatitudeDegrees>
              <LongitudeDegrees>-2.75847301818430423736572265625</LongitudeDegrees>
            </Position>
            <AltitudeMeters>228.1999969482421875</AltitudeMeters>
            <DistanceMeters>NAN</DistanceMeters>
          </Trackpoint>
          <Trackpoint>
            <Time>2022-09-24T15:11:23.000Z</Time>
            <Position>
              <LatitudeDegrees>43.28106679022312164306640625</LatitudeDegrees>
              <LongitudeDegrees>-2.758416272699832916259765625</LongitudeDegrees>
            </Position>
            <AltitudeMeters>228.600006103515625</AltitudeMeters>
            <DistanceMeters>NAN</DistanceMeters>
          </Trackpoint>
          <Trackpoint>
            <Time>2022-09-24T15:11:24.000Z</Time>
            <Position>
              <LatitudeDegrees>43.2810515351593494415283203125</LatitudeDegrees>
              <LongitudeDegrees>-2.75838450528681278228759765625</LongitudeDegrees>
            </Position>
            <AltitudeMeters>228.600006103515625</AltitudeMeters>
            <DistanceMeters>NAN</DistanceMeters>
          </Trackpoint>
          <Trackpoint>
            <Time>2022-09-24T15:11:25.000Z</Time>
            <Position>
              <LatitudeDegrees>43.28104139305651187896728515625</LatitudeDegrees>
              <LongitudeDegrees>-2.7583527378737926483154296875</LongitudeDegrees>
            </Position>
            <AltitudeMeters>229</AltitudeMeters>
            <DistanceMeters>NAN</DistanceMeters>
          </Trackpoint>
          <Trackpoint>
            <Time>2022-09-24T15:11:26.000Z</Time>
            <Position>
              <LatitudeDegrees>43.28103250823915004730224609375</LatitudeDegrees>
              <LongitudeDegrees>-2.7583121694624423980712890625</LongitudeDegrees>
            </Position>
            <AltitudeMeters>229</AltitudeMeters>
            <DistanceMeters>NAN</DistanceMeters>
          </Trackpoint>
          <Trackpoint>
            <Time>2022-09-24T15:11:27.000Z</Time>
            <Position>
              <LatitudeDegrees>43.28101976774632930755615234375</LatitudeDegrees>
              <LongitudeDegrees>-2.7582783065736293792724609375</LongitudeDegrees>
            </Position>
            <AltitudeMeters>229.1999969482421875</AltitudeMeters>
            <DistanceMeters>NAN</DistanceMeters>
          </Trackpoint>
          <Trackpoint>
            <Time>2022-09-24T15:11:28.000Z</Time>
            <Position>
              <LatitudeDegrees>43.28100820071995258331298828125</LatitudeDegrees>
              <LongitudeDegrees>-2.75825190357863903045654296875</LongitudeDegrees>
            </Position>
            <AltitudeMeters>229.399993896484375</AltitudeMeters>
            <DistanceMeters>NAN</DistanceMeters>
          </Trackpoint>
          <Trackpoint>
            <Time>2022-09-24T15:11:29.000Z</Time>
            <Position>
              <LatitudeDegrees>43.28099328093230724334716796875</LatitudeDegrees>
              <LongitudeDegrees>-2.7582139335572719573974609375</LongitudeDegrees>
            </Position>
            <AltitudeMeters>229.600006103515625</AltitudeMeters>
            <DistanceMeters>NAN</DistanceMeters>
          </Trackpoint>
          <Trackpoint>
            <Time>2022-09-24T15:11:30.000Z</Time>
            <Position>
              <LatitudeDegrees>43.28098221682012081146240234375</LatitudeDegrees>
              <LongitudeDegrees>-2.7581814117729663848876953125</LongitudeDegrees>
            </Position>
            <AltitudeMeters>229.8000030517578125</AltitudeMeters>
            <DistanceMeters>NAN</DistanceMeters>
          </Trackpoint>
          <Trackpoint>
            <Time>2022-09-24T15:11:31.000Z</Time>
            <Position>
              <LatitudeDegrees>43.2809754274785518646240234375</LatitudeDegrees>
              <LongitudeDegrees>-2.75815333239734172821044921875</LongitudeDegrees>
            </Position>
            <AltitudeMeters>230.1999969482421875</AltitudeMeters>
            <DistanceMeters>NAN</DistanceMeters>
          </Trackpoint>
          <Trackpoint>
            <Time>2022-09-24T15:11:32.000Z</Time>
            <Position>
              <LatitudeDegrees>43.2809693925082683563232421875</LatitudeDegrees>
              <LongitudeDegrees>-2.75812332518398761749267578125</LongitudeDegrees>
            </Position>
            <AltitudeMeters>230.1999969482421875</AltitudeMeters>
            <DistanceMeters>NAN</DistanceMeters>
          </Trackpoint>
          <Trackpoint>
            <Time>2022-09-24T15:11:33.000Z</Time>
            <Position>
              <LatitudeDegrees>43.2809628546237945556640625</LatitudeDegrees>
              <LongitudeDegrees>-2.75808862410485744476318359375</LongitudeDegrees>
            </Position>
            <AltitudeMeters>230.600006103515625</AltitudeMeters>
            <DistanceMeters>NAN</DistanceMeters>
          </Trackpoint>
          <Trackpoint>
            <Time>2022-09-24T15:11:34.000Z</Time>
            <Position>
              <LatitudeDegrees>43.28095690347254276275634765625</LatitudeDegrees>
              <LongitudeDegrees>-2.75805316865444183349609375</LongitudeDegrees>
            </Position>
            <AltitudeMeters>230.8000030517578125</AltitudeMeters>
            <DistanceMeters>NAN</DistanceMeters>
          </Trackpoint>
          <Trackpoint>
            <Time>2022-09-24T15:11:35.000Z</Time>
            <Position>
              <LatitudeDegrees>43.2809526287019252777099609375</LatitudeDegrees>
              <LongitudeDegrees>-2.7580114267766475677490234375</LongitudeDegrees>
            </Position>
            <AltitudeMeters>231</AltitudeMeters>
            <DistanceMeters>NAN</DistanceMeters>
          </Trackpoint>
          <Trackpoint>
            <Time>2022-09-24T15:11:36.000Z</Time>
            <Position>
              <LatitudeDegrees>43.28094718046486377716064453125</LatitudeDegrees>
              <LongitudeDegrees>-2.7579822577536106109619140625</LongitudeDegrees>
            </Position>
            <AltitudeMeters>231</AltitudeMeters>
            <DistanceMeters>NAN</DistanceMeters>
          </Trackpoint>
          <Trackpoint>
            <Time>2022-09-24T15:11:37.000Z</Time>
            <Position>
              <LatitudeDegrees>43.28094315715134143829345703125</LatitudeDegrees>
              <LongitudeDegrees>-2.75794730521738529205322265625</LongitudeDegrees>
            </Position>
            <AltitudeMeters>231.399993896484375</AltitudeMeters>
            <DistanceMeters>NAN</DistanceMeters>
          </Trackpoint>
          <Trackpoint>
            <Time>2022-09-24T15:11:38.000Z</Time>
            <Position>
              <LatitudeDegrees>43.2809378765523433685302734375</LatitudeDegrees>
              <LongitudeDegrees>-2.75791243650019168853759765625</LongitudeDegrees>
            </Position>
            <AltitudeMeters>231.8000030517578125</AltitudeMeters>
            <DistanceMeters>NAN</DistanceMeters>
          </Trackpoint>
          <Trackpoint>
            <Time>2022-09-24T15:11:39.000Z</Time>
            <Position>
              <LatitudeDegrees>43.2809315063059329986572265625</LatitudeDegrees>
              <LongitudeDegrees>-2.75787287391722202301025390625</LongitudeDegrees>
            </Position>
            <AltitudeMeters>231.8000030517578125</AltitudeMeters>
            <DistanceMeters>NAN</DistanceMeters>
          </Trackpoint>
          <Trackpoint>
            <Time>2022-09-24T15:11:40.000Z</Time>
            <Position>
              <LatitudeDegrees>43.2809264771640300750732421875</LatitudeDegrees>
              <LongitudeDegrees>-2.7578364126384258270263671875</LongitudeDegrees>
            </Position>
            <AltitudeMeters>232.1999969482421875</AltitudeMeters>
            <DistanceMeters>NAN</DistanceMeters>
          </Trackpoint>
          <Trackpoint>
            <Time>2022-09-24T15:11:41.000Z</Time>
            <Position>
              <LatitudeDegrees>43.28091901727020740509033203125</LatitudeDegrees>
              <LongitudeDegrees>-2.75779894553124904632568359375</LongitudeDegrees>
            </Position>
            <AltitudeMeters>232.399993896484375</AltitudeMeters>
            <DistanceMeters>NAN</DistanceMeters>
          </Trackpoint>
          <Trackpoint>
            <Time>2022-09-24T15:11:42.000Z</Time>
            <Position>
              <LatitudeDegrees>43.28091180883347988128662109375</LatitudeDegrees>
              <LongitudeDegrees>-2.757752425968647003173828125</LongitudeDegrees>
            </Position>
            <AltitudeMeters>232.600006103515625</AltitudeMeters>
            <DistanceMeters>NAN</DistanceMeters>
          </Trackpoint>
          <Trackpoint>
            <Time>2022-09-24T15:11:43.000Z</Time>
            <Position>
              <LatitudeDegrees>43.28091130591928958892822265625</LatitudeDegrees>
              <LongitudeDegrees>-2.75772199966013431549072265625</LongitudeDegrees>
            </Position>
            <AltitudeMeters>233</AltitudeMeters>
            <DistanceMeters>NAN</DistanceMeters>
          </Trackpoint>
          <Trackpoint>
            <Time>2022-09-24T15:11:44.000Z</Time>
            <Position>
              <LatitudeDegrees>43.28091130591928958892822265625</LatitudeDegrees>
              <LongitudeDegrees>-2.75772199966013431549072265625</LongitudeDegrees>
            </Position>
            <AltitudeMeters>233.1999969482421875</AltitudeMeters>
            <DistanceMeters>NAN</DistanceMeters>
          </Trackpoint>
          <Trackpoint>
            <Time>2022-09-24T15:11:45.000Z</Time>
            <Position>
              <LatitudeDegrees>43.2809040136635303497314453125</LatitudeDegrees>
              <LongitudeDegrees>-2.757637090981006622314453125</LongitudeDegrees>
            </Position>
            <AltitudeMeters>233.1999969482421875</AltitudeMeters>
            <DistanceMeters>NAN</DistanceMeters>
          </Trackpoint>
          <Trackpoint>
            <Time>2022-09-24T15:11:46.000Z</Time>
            <Position>
              <LatitudeDegrees>43.28089923597872257232666015625</LatitudeDegrees>
              <LongitudeDegrees>-2.757606916129589080810546875</LongitudeDegrees>
            </Position>
            <AltitudeMeters>233.399993896484375</AltitudeMeters>
            <DistanceMeters>NAN</DistanceMeters>
          </Trackpoint>
          <Trackpoint>
            <Time>2022-09-24T15:11:47.000Z</Time>
            <Position>
              <LatitudeDegrees>43.28089638613164424896240234375</LatitudeDegrees>
              <LongitudeDegrees>-2.75756425224244594573974609375</LongitudeDegrees>
            </Position>
            <AltitudeMeters>233.600006103515625</AltitudeMeters>
            <DistanceMeters>NAN</DistanceMeters>
          </Trackpoint>
          <Trackpoint>
            <Time>2022-09-24T15:11:48.000Z</Time>
            <Position>
              <LatitudeDegrees>43.28089403919875621795654296875</LatitudeDegrees>
              <LongitudeDegrees>-2.7575346641242504119873046875</LongitudeDegrees>
            </Position>
            <AltitudeMeters>234</AltitudeMeters>
            <DistanceMeters>NAN</DistanceMeters>
          </Trackpoint>
          <Trackpoint>
            <Time>2022-09-24T15:11:49.000Z</Time>
            <Position>
              <LatitudeDegrees>43.28089403919875621795654296875</LatitudeDegrees>
              <LongitudeDegrees>-2.7575346641242504119873046875</LongitudeDegrees>
            </Position>
            <AltitudeMeters>234</AltitudeMeters>
            <DistanceMeters>NAN</DistanceMeters>
          </Trackpoint>
          <Trackpoint>
            <Time>2022-09-24T15:11:50.000Z</Time>
            <Position>
              <LatitudeDegrees>43.280883729457855224609375</LatitudeDegrees>
              <LongitudeDegrees>-2.75745864026248455047607421875</LongitudeDegrees>
            </Position>
            <AltitudeMeters>234.399993896484375</AltitudeMeters>
            <DistanceMeters>NAN</DistanceMeters>
          </Trackpoint>
          <Trackpoint>
            <Time>2022-09-24T15:11:51.000Z</Time>
            <Position>
              <LatitudeDegrees>43.28087677247822284698486328125</LatitudeDegrees>
              <LongitudeDegrees>-2.75742159225046634674072265625</LongitudeDegrees>
            </Position>
            <AltitudeMeters>234.600006103515625</AltitudeMeters>
            <DistanceMeters>NAN</DistanceMeters>
          </Trackpoint>
          <Trackpoint>
            <Time>2022-09-24T15:11:52.000Z</Time>
            <Position>
              <LatitudeDegrees>43.28087367117404937744140625</LatitudeDegrees>
              <LongitudeDegrees>-2.75738504715263843536376953125</LongitudeDegrees>
            </Position>
            <AltitudeMeters>234.8000030517578125</AltitudeMeters>
            <DistanceMeters>NAN</DistanceMeters>
          </Trackpoint>
          <Trackpoint>
            <Time>2022-09-24T15:11:53.000Z</Time>
            <Position>
              <LatitudeDegrees>43.2808735035359859466552734375</LatitudeDegrees>
              <LongitudeDegrees>-2.75734397582709789276123046875</LongitudeDegrees>
            </Position>
            <AltitudeMeters>235</AltitudeMeters>
            <DistanceMeters>NAN</DistanceMeters>
          </Trackpoint>
          <Trackpoint>
            <Time>2022-09-24T15:11:54.000Z</Time>
            <Position>
              <LatitudeDegrees>43.28086939640343189239501953125</LatitudeDegrees>
              <LongitudeDegrees>-2.75730474852025508880615234375</LongitudeDegrees>
            </Position>
            <AltitudeMeters>235.1999969482421875</AltitudeMeters>
            <DistanceMeters>NAN</DistanceMeters>
          </Trackpoint>
          <Trackpoint>
            <Time>2022-09-24T15:11:55.000Z</Time>
            <Position>
              <LatitudeDegrees>43.28086269088089466094970703125</LatitudeDegrees>
              <LongitudeDegrees>-2.75726753287017345428466796875</LongitudeDegrees>
            </Position>
            <AltitudeMeters>235.600006103515625</AltitudeMeters>
            <DistanceMeters>NAN</DistanceMeters>
          </Trackpoint>
          <Trackpoint>
            <Time>2022-09-24T15:11:56.000Z</Time>
            <Position>
              <LatitudeDegrees>43.2808557339012622833251953125</LatitudeDegrees>
              <LongitudeDegrees>-2.75723911821842193603515625</LongitudeDegrees>
            </Position>
            <AltitudeMeters>235.8000030517578125</AltitudeMeters>
            <DistanceMeters>NAN</DistanceMeters>
          </Trackpoint>
          <Trackpoint>
            <Time>2022-09-24T15:11:57.000Z</Time>
            <Position>
              <LatitudeDegrees>43.28084693290293216705322265625</LatitudeDegrees>
              <LongitudeDegrees>-2.75719645433127880096435546875</LongitudeDegrees>
            </Position>
            <AltitudeMeters>236.1999969482421875</AltitudeMeters>
            <DistanceMeters>NAN</DistanceMeters>
          </Trackpoint>
          <Trackpoint>
            <Time>2022-09-24T15:11:58.000Z</Time>
            <Position>
              <LatitudeDegrees>43.28084005974233150482177734375</LatitudeDegrees>
              <LongitudeDegrees>-2.7571682073175907135009765625</LongitudeDegrees>
            </Position>
            <AltitudeMeters>236.1999969482421875</AltitudeMeters>
            <DistanceMeters>NAN</DistanceMeters>
          </Trackpoint>
          <Trackpoint>
            <Time>2022-09-24T15:11:59.000Z</Time>
            <Position>
              <LatitudeDegrees>43.2808319292962551116943359375</LatitudeDegrees>
              <LongitudeDegrees>-2.7571283094584941864013671875</LongitudeDegrees>
            </Position>
            <AltitudeMeters>236.1999969482421875</AltitudeMeters>
            <DistanceMeters>NAN</DistanceMeters>
          </Trackpoint>
          <Trackpoint>
            <Time>2022-09-24T15:12:00.000Z</Time>
            <Position>
              <LatitudeDegrees>43.2808319292962551116943359375</LatitudeDegrees>
              <LongitudeDegrees>-2.7571283094584941864013671875</LongitudeDegrees>
            </Position>
            <AltitudeMeters>236.600006103515625</AltitudeMeters>
            <DistanceMeters>NAN</DistanceMeters>
          </Trackpoint>
          <Trackpoint>
            <Time>2022-09-24T15:12:01.000Z</Time>
            <Position>
              <LatitudeDegrees>43.28080854378640651702880859375</LatitudeDegrees>
              <LongitudeDegrees>-2.75706133805215358734130859375</LongitudeDegrees>
            </Position>
            <AltitudeMeters>236.8000030517578125</AltitudeMeters>
            <DistanceMeters>NAN</DistanceMeters>
          </Trackpoint>
          <Trackpoint>
            <Time>2022-09-24T15:12:02.000Z</Time>
            <Position>
              <LatitudeDegrees>43.28079680912196636199951171875</LatitudeDegrees>
              <LongitudeDegrees>-2.7570359408855438232421875</LongitudeDegrees>
            </Position>
            <AltitudeMeters>236.8000030517578125</AltitudeMeters>
            <DistanceMeters>NAN</DistanceMeters>
          </Trackpoint>
          <Trackpoint>
            <Time>2022-09-24T15:12:03.000Z</Time>
            <Position>
              <LatitudeDegrees>43.280779458582401275634765625</LatitudeDegrees>
              <LongitudeDegrees>-2.75700568221509456634521484375</LongitudeDegrees>
            </Position>
            <AltitudeMeters>237.1999969482421875</AltitudeMeters>
            <DistanceMeters>NAN</DistanceMeters>
          </Trackpoint>
          <Trackpoint>
            <Time>2022-09-24T15:12:04.000Z</Time>
            <Position>
              <LatitudeDegrees>43.280764706432819366455078125</LatitudeDegrees>
              <LongitudeDegrees>-2.75697818957269191741943359375</LongitudeDegrees>
            </Position>
            <AltitudeMeters>237.399993896484375</AltitudeMeters>
            <DistanceMeters>NAN</DistanceMeters>
          </Trackpoint>
          <Trackpoint>
            <Time>2022-09-24T15:12:05.000Z</Time>
            <Position>
              <LatitudeDegrees>43.280746936798095703125</LatitudeDegrees>
              <LongitudeDegrees>-2.7569479309022426605224609375</LongitudeDegrees>
            </Position>
            <AltitudeMeters>237.399993896484375</AltitudeMeters>
            <DistanceMeters>NAN</DistanceMeters>
          </Trackpoint>
          <Trackpoint>
            <Time>2022-09-24T15:12:06.000Z</Time>
            <Position>
              <LatitudeDegrees>43.28073528595268726348876953125</LatitudeDegrees>
              <LongitudeDegrees>-2.7569281496107578277587890625</LongitudeDegrees>
            </Position>
            <AltitudeMeters>237.600006103515625</AltitudeMeters>
            <DistanceMeters>NAN</DistanceMeters>
          </Trackpoint>
          <Trackpoint>
            <Time>2022-09-24T15:12:07.000Z</Time>
            <Position>
              <LatitudeDegrees>43.28071810305118560791015625</LatitudeDegrees>
              <LongitudeDegrees>-2.7569026686251163482666015625</LongitudeDegrees>
            </Position>
            <AltitudeMeters>237.600006103515625</AltitudeMeters>
            <DistanceMeters>NAN</DistanceMeters>
          </Trackpoint>
          <Trackpoint>
            <Time>2022-09-24T15:12:08.000Z</Time>
            <Position>
              <LatitudeDegrees>43.2806991599500179290771484375</LatitudeDegrees>
              <LongitudeDegrees>-2.75687458924949169158935546875</LongitudeDegrees>
            </Position>
            <AltitudeMeters>238</AltitudeMeters>
            <DistanceMeters>NAN</DistanceMeters>
          </Trackpoint>
          <Trackpoint>
            <Time>2022-09-24T15:12:09.000Z</Time>
            <Position>
              <LatitudeDegrees>43.28067963011562824249267578125</LatitudeDegrees>
              <LongitudeDegrees>-2.7568496949970722198486328125</LongitudeDegrees>
            </Position>
            <AltitudeMeters>238.399993896484375</AltitudeMeters>
            <DistanceMeters>NAN</DistanceMeters>
          </Trackpoint>
          <Trackpoint>
            <Time>2022-09-24T15:12:10.000Z</Time>
            <Position>
              <LatitudeDegrees>43.28065917827188968658447265625</LatitudeDegrees>
              <LongitudeDegrees>-2.7568279020488262176513671875</LongitudeDegrees>
            </Position>
            <AltitudeMeters>238.600006103515625</AltitudeMeters>
            <DistanceMeters>NAN</DistanceMeters>
          </Trackpoint>
          <Trackpoint>
            <Time>2022-09-24T15:12:11.000Z</Time>
            <Position>
              <LatitudeDegrees>43.28063705004751682281494140625</LatitudeDegrees>
              <LongitudeDegrees>-2.75680753402411937713623046875</LongitudeDegrees>
            </Position>
            <AltitudeMeters>238.600006103515625</AltitudeMeters>
            <DistanceMeters>NAN</DistanceMeters>
          </Trackpoint>
          <Trackpoint>
            <Time>2022-09-24T15:12:12.000Z</Time>
            <Position>
              <LatitudeDegrees>43.28061576001346111297607421875</LatitudeDegrees>
              <LongitudeDegrees>-2.75679009966552257537841796875</LongitudeDegrees>
            </Position>
            <AltitudeMeters>239</AltitudeMeters>
            <DistanceMeters>NAN</DistanceMeters>
          </Trackpoint>
          <Trackpoint>
            <Time>2022-09-24T15:12:13.000Z</Time>
            <Position>
              <LatitudeDegrees>43.28058994375169277191162109375</LatitudeDegrees>
              <LongitudeDegrees>-2.7567745931446552276611328125</LongitudeDegrees>
            </Position>
            <AltitudeMeters>239.399993896484375</AltitudeMeters>
            <DistanceMeters>NAN</DistanceMeters>
          </Trackpoint>
          <Trackpoint>
            <Time>2022-09-24T15:12:14.000Z</Time>
            <Position>
              <LatitudeDegrees>43.28056664206087589263916015625</LatitudeDegrees>
              <LongitudeDegrees>-2.7567584998905658721923828125</LongitudeDegrees>
            </Position>
            <AltitudeMeters>239.600006103515625</AltitudeMeters>
            <DistanceMeters>NAN</DistanceMeters>
          </Trackpoint>
          <Trackpoint>
            <Time>2022-09-24T15:12:15.000Z</Time>
            <Position>
              <LatitudeDegrees>43.28054853715002536773681640625</LatitudeDegrees>
              <LongitudeDegrees>-2.75673913769423961639404296875</LongitudeDegrees>
            </Position>
            <AltitudeMeters>239.600006103515625</AltitudeMeters>
            <DistanceMeters>NAN</DistanceMeters>
          </Trackpoint>
          <Trackpoint>
            <Time>2022-09-24T15:12:16.000Z</Time>
            <Position>
              <LatitudeDegrees>43.28052842058241367340087890625</LatitudeDegrees>
              <LongitudeDegrees>-2.756726481020450592041015625</LongitudeDegrees>
            </Position>
            <AltitudeMeters>239.8000030517578125</AltitudeMeters>
            <DistanceMeters>NAN</DistanceMeters>
          </Trackpoint>
          <Trackpoint>
            <Time>2022-09-24T15:12:17.000Z</Time>
            <Position>
              <LatitudeDegrees>43.2805040292441844940185546875</LatitudeDegrees>
              <LongitudeDegrees>-2.7567206136882305145263671875</LongitudeDegrees>
            </Position>
            <AltitudeMeters>239.8000030517578125</AltitudeMeters>
            <DistanceMeters>NAN</DistanceMeters>
          </Trackpoint>
          <Trackpoint>
            <Time>2022-09-24T15:12:18.000Z</Time>
            <Position>
              <LatitudeDegrees>43.2804765366017818450927734375</LatitudeDegrees>
              <LongitudeDegrees>-2.7567172609269618988037109375</LongitudeDegrees>
            </Position>
            <AltitudeMeters>240</AltitudeMeters>
            <DistanceMeters>NAN</DistanceMeters>
          </Trackpoint>
          <Trackpoint>
            <Time>2022-09-24T15:12:19.000Z</Time>
            <Position>
              <LatitudeDegrees>43.28044862486422061920166015625</LatitudeDegrees>
              <LongitudeDegrees>-2.75671583600342273712158203125</LongitudeDegrees>
            </Position>
            <AltitudeMeters>240.600006103515625</AltitudeMeters>
            <DistanceMeters>NAN</DistanceMeters>
          </Trackpoint>
          <Trackpoint>
            <Time>2022-09-24T15:12:20.000Z</Time>
            <Position>
              <LatitudeDegrees>43.28042029403150081634521484375</LatitudeDegrees>
              <LongitudeDegrees>-2.7567132376134395599365234375</LongitudeDegrees>
            </Position>
            <AltitudeMeters>241</AltitudeMeters>
            <DistanceMeters>NAN</DistanceMeters>
          </Trackpoint>
          <Trackpoint>
            <Time>2022-09-24T15:12:21.000Z</Time>
            <Position>
              <LatitudeDegrees>43.280389867722988128662109375</LatitudeDegrees>
              <LongitudeDegrees>-2.7567112259566783905029296875</LongitudeDegrees>
            </Position>
            <AltitudeMeters>241</AltitudeMeters>
            <DistanceMeters>NAN</DistanceMeters>
          </Trackpoint>
          <Trackpoint>
            <Time>2022-09-24T15:12:22.000Z</Time>
            <Position>
              <LatitudeDegrees>43.28036296181380748748779296875</LatitudeDegrees>
              <LongitudeDegrees>-2.75670946575701236724853515625</LongitudeDegrees>
            </Position>
            <AltitudeMeters>241.1999969482421875</AltitudeMeters>
            <DistanceMeters>NAN</DistanceMeters>
          </Trackpoint>
          <Trackpoint>
            <Time>2022-09-24T15:12:23.000Z</Time>
            <Position>
              <LatitudeDegrees>43.2803352177143096923828125</LatitudeDegrees>
              <LongitudeDegrees>-2.756705023348331451416015625</LongitudeDegrees>
            </Position>
            <AltitudeMeters>241.399993896484375</AltitudeMeters>
            <DistanceMeters>NAN</DistanceMeters>
          </Trackpoint>
          <Trackpoint>
            <Time>2022-09-24T15:12:24.000Z</Time>
            <Position>
              <LatitudeDegrees>43.2803352177143096923828125</LatitudeDegrees>
              <LongitudeDegrees>-2.756705023348331451416015625</LongitudeDegrees>
            </Position>
            <AltitudeMeters>241.8000030517578125</AltitudeMeters>
            <DistanceMeters>NAN</DistanceMeters>
          </Trackpoint>
          <Trackpoint>
            <Time>2022-09-24T15:12:25.000Z</Time>
            <Position>
              <LatitudeDegrees>43.2802767120301723480224609375</LatitudeDegrees>
              <LongitudeDegrees>-2.7566991560161113739013671875</LongitudeDegrees>
            </Position>
            <AltitudeMeters>242.1999969482421875</AltitudeMeters>
            <DistanceMeters>NAN</DistanceMeters>
          </Trackpoint>
          <Trackpoint>
            <Time>2022-09-24T15:12:26.000Z</Time>
            <Position>
              <LatitudeDegrees>43.280249051749706268310546875</LatitudeDegrees>
              <LongitudeDegrees>-2.75669756345450878143310546875</LongitudeDegrees>
            </Position>
            <AltitudeMeters>242.399993896484375</AltitudeMeters>
            <DistanceMeters>NAN</DistanceMeters>
          </Trackpoint>
          <Trackpoint>
            <Time>2022-09-24T15:12:27.000Z</Time>
            <Position>
              <LatitudeDegrees>43.280217535793781280517578125</LatitudeDegrees>
              <LongitudeDegrees>-2.7566937915980815887451171875</LongitudeDegrees>
            </Position>
            <AltitudeMeters>242.399993896484375</AltitudeMeters>
            <DistanceMeters>NAN</DistanceMeters>
          </Trackpoint>
          <Trackpoint>
            <Time>2022-09-24T15:12:28.000Z</Time>
            <Position>
              <LatitudeDegrees>43.28018710948526859283447265625</LatitudeDegrees>
              <LongitudeDegrees>-2.75668934918940067291259765625</LongitudeDegrees>
            </Position>
            <AltitudeMeters>242.600006103515625</AltitudeMeters>
            <DistanceMeters>NAN</DistanceMeters>
          </Trackpoint>
          <Trackpoint>
            <Time>2022-09-24T15:12:29.000Z</Time>
            <Position>
              <LatitudeDegrees>43.28015894629061222076416015625</LatitudeDegrees>
              <LongitudeDegrees>-2.7566850744187831878662109375</LongitudeDegrees>
            </Position>
            <AltitudeMeters>243</AltitudeMeters>
            <DistanceMeters>NAN</DistanceMeters>
          </Trackpoint>
          <Trackpoint>
            <Time>2022-09-24T15:12:30.000Z</Time>
            <Position>
              <LatitudeDegrees>43.2801295258104801177978515625</LatitudeDegrees>
              <LongitudeDegrees>-2.75668214075267314910888671875</LongitudeDegrees>
            </Position>
            <AltitudeMeters>243.1999969482421875</AltitudeMeters>
            <DistanceMeters>NAN</DistanceMeters>
          </Trackpoint>
          <Trackpoint>
            <Time>2022-09-24T15:12:31.000Z</Time>
            <Position>
              <LatitudeDegrees>43.28010228462517261505126953125</LatitudeDegrees>
              <LongitudeDegrees>-2.75668012909591197967529296875</LongitudeDegrees>
            </Position>
            <AltitudeMeters>243.399993896484375</AltitudeMeters>
            <DistanceMeters>NAN</DistanceMeters>
          </Trackpoint>
          <Trackpoint>
            <Time>2022-09-24T15:12:32.000Z</Time>
            <Position>
              <LatitudeDegrees>43.28007881529629230499267578125</LatitudeDegrees>
              <LongitudeDegrees>-2.756672836840152740478515625</LongitudeDegrees>
            </Position>
            <AltitudeMeters>243.600006103515625</AltitudeMeters>
            <DistanceMeters>NAN</DistanceMeters>
          </Trackpoint>
          <Trackpoint>
            <Time>2022-09-24T15:12:33.000Z</Time>
            <Position>
              <LatitudeDegrees>43.28005266375839710235595703125</LatitudeDegrees>
              <LongitudeDegrees>-2.756661437451839447021484375</LongitudeDegrees>
            </Position>
            <AltitudeMeters>243.600006103515625</AltitudeMeters>
            <DistanceMeters>NAN</DistanceMeters>
          </Trackpoint>
          <Trackpoint>
            <Time>2022-09-24T15:12:34.000Z</Time>
            <Position>
              <LatitudeDegrees>43.28005266375839710235595703125</LatitudeDegrees>
              <LongitudeDegrees>-2.756661437451839447021484375</LongitudeDegrees>
            </Position>
            <AltitudeMeters>243.8000030517578125</AltitudeMeters>
            <DistanceMeters>NAN</DistanceMeters>
          </Trackpoint>
          <Trackpoint>
            <Time>2022-09-24T15:12:35.000Z</Time>
            <Position>
              <LatitudeDegrees>43.2799984328448772430419921875</LatitudeDegrees>
              <LongitudeDegrees>-2.75664190761744976043701171875</LongitudeDegrees>
            </Position>
            <AltitudeMeters>244.399993896484375</AltitudeMeters>
            <DistanceMeters>NAN</DistanceMeters>
          </Trackpoint>
          <Trackpoint>
            <Time>2022-09-24T15:12:36.000Z</Time>
            <Position>
              <LatitudeDegrees>43.2799731194972991943359375</LatitudeDegrees>
              <LongitudeDegrees>-2.75663587264716625213623046875</LongitudeDegrees>
            </Position>
            <AltitudeMeters>244.399993896484375</AltitudeMeters>
            <DistanceMeters>NAN</DistanceMeters>
          </Trackpoint>
          <Trackpoint>
            <Time>2022-09-24T15:12:37.000Z</Time>
            <Position>
              <LatitudeDegrees>43.279944956302642822265625</LatitudeDegrees>
              <LongitudeDegrees>-2.7566297538578510284423828125</LongitudeDegrees>
            </Position>
            <AltitudeMeters>244.600006103515625</AltitudeMeters>
            <DistanceMeters>NAN</DistanceMeters>
          </Trackpoint>
          <Trackpoint>
            <Time>2022-09-24T15:12:38.000Z</Time>
            <Position>
              <LatitudeDegrees>43.2799183018505573272705078125</LatitudeDegrees>
              <LongitudeDegrees>-2.7566183544695377349853515625</LongitudeDegrees>
            </Position>
            <AltitudeMeters>245</AltitudeMeters>
            <DistanceMeters>NAN</DistanceMeters>
          </Trackpoint>
          <Trackpoint>
            <Time>2022-09-24T15:12:39.000Z</Time>
            <Position>
              <LatitudeDegrees>43.27989223413169384002685546875</LatitudeDegrees>
              <LongitudeDegrees>-2.75659647770226001739501953125</LongitudeDegrees>
            </Position>
            <AltitudeMeters>245</AltitudeMeters>
            <DistanceMeters>NAN</DistanceMeters>
          </Trackpoint>
          <Trackpoint>
            <Time>2022-09-24T15:12:40.000Z</Time>
            <Position>
              <LatitudeDegrees>43.27986842952668666839599609375</LatitudeDegrees>
              <LongitudeDegrees>-2.75657502003014087677001953125</LongitudeDegrees>
            </Position>
            <AltitudeMeters>245.1999969482421875</AltitudeMeters>
            <DistanceMeters>NAN</DistanceMeters>
          </Trackpoint>
          <Trackpoint>
            <Time>2022-09-24T15:12:41.000Z</Time>
            <Position>
              <LatitudeDegrees>43.27984764240682125091552734375</LatitudeDegrees>
              <LongitudeDegrees>-2.756547443568706512451171875</LongitudeDegrees>
            </Position>
            <AltitudeMeters>245.399993896484375</AltitudeMeters>
            <DistanceMeters>NAN</DistanceMeters>
          </Trackpoint>
          <Trackpoint>
            <Time>2022-09-24T15:12:42.000Z</Time>
            <Position>
              <LatitudeDegrees>43.27982517890632152557373046875</LatitudeDegrees>
              <LongitudeDegrees>-2.7565191127359867095947265625</LongitudeDegrees>
            </Position>
            <AltitudeMeters>245.8000030517578125</AltitudeMeters>
            <DistanceMeters>NAN</DistanceMeters>
          </Trackpoint>
          <Trackpoint>
            <Time>2022-09-24T15:12:43.000Z</Time>
            <Position>
              <LatitudeDegrees>43.279811851680278778076171875</LatitudeDegrees>
              <LongitudeDegrees>-2.75650109164416790008544921875</LongitudeDegrees>
            </Position>
            <AltitudeMeters>245.8000030517578125</AltitudeMeters>
            <DistanceMeters>NAN</DistanceMeters>
          </Trackpoint>
          <Trackpoint>
            <Time>2022-09-24T15:12:44.000Z</Time>
            <Position>
              <LatitudeDegrees>43.2797986082732677459716796875</LatitudeDegrees>
              <LongitudeDegrees>-2.75647209025919437408447265625</LongitudeDegrees>
            </Position>
            <AltitudeMeters>246</AltitudeMeters>
            <DistanceMeters>NAN</DistanceMeters>
          </Trackpoint>
          <Trackpoint>
            <Time>2022-09-24T15:12:45.000Z</Time>
            <Position>
              <LatitudeDegrees>43.27978377230465412139892578125</LatitudeDegrees>
              <LongitudeDegrees>-2.75643973611295223236083984375</LongitudeDegrees>
            </Position>
            <AltitudeMeters>246</AltitudeMeters>
            <DistanceMeters>NAN</DistanceMeters>
          </Trackpoint>
          <Trackpoint>
            <Time>2022-09-24T15:12:46.000Z</Time>
            <Position>
              <LatitudeDegrees>43.27977941371500492095947265625</LatitudeDegrees>
              <LongitudeDegrees>-2.7564108185470104217529296875</LongitudeDegrees>
            </Position>
            <AltitudeMeters>246.1999969482421875</AltitudeMeters>
            <DistanceMeters>NAN</DistanceMeters>
          </Trackpoint>
          <Trackpoint>
            <Time>2022-09-24T15:12:47.000Z</Time>
            <Position>
              <LatitudeDegrees>43.279785700142383575439453125</LatitudeDegrees>
              <LongitudeDegrees>-2.7563907019793987274169921875</LongitudeDegrees>
            </Position>
            <AltitudeMeters>246.600006103515625</AltitudeMeters>
            <DistanceMeters>NAN</DistanceMeters>
          </Trackpoint>
          <Trackpoint>
            <Time>2022-09-24T15:12:48.000Z</Time>
            <Position>
              <LatitudeDegrees>43.27978746034204959869384765625</LatitudeDegrees>
              <LongitudeDegrees>-2.7563628740608692169189453125</LongitudeDegrees>
            </Position>
            <AltitudeMeters>246.8000030517578125</AltitudeMeters>
            <DistanceMeters>NAN</DistanceMeters>
          </Trackpoint>
          <Trackpoint>
            <Time>2022-09-24T15:12:49.000Z</Time>
            <Position>
              <LatitudeDegrees>43.27978746034204959869384765625</LatitudeDegrees>
              <LongitudeDegrees>-2.75632917881011962890625</LongitudeDegrees>
            </Position>
            <AltitudeMeters>247</AltitudeMeters>
            <DistanceMeters>NAN</DistanceMeters>
          </Trackpoint>
          <Trackpoint>
            <Time>2022-09-24T15:12:50.000Z</Time>
            <Position>
              <LatitudeDegrees>43.27979232184588909149169921875</LatitudeDegrees>
              <LongitudeDegrees>-2.7562941424548625946044921875</LongitudeDegrees>
            </Position>
            <AltitudeMeters>247</AltitudeMeters>
            <DistanceMeters>NAN</DistanceMeters>
          </Trackpoint>
          <Trackpoint>
            <Time>2022-09-24T15:12:51.000Z</Time>
            <Position>
              <LatitudeDegrees>43.27980254776775836944580078125</LatitudeDegrees>
              <LongitudeDegrees>-2.75626203976571559906005859375</LongitudeDegrees>
            </Position>
            <AltitudeMeters>247.399993896484375</AltitudeMeters>
            <DistanceMeters>NAN</DistanceMeters>
          </Trackpoint>
          <Trackpoint>
            <Time>2022-09-24T15:12:52.000Z</Time>
            <Position>
              <LatitudeDegrees>43.27981688082218170166015625</LatitudeDegrees>
              <LongitudeDegrees>-2.75623152963817119598388671875</LongitudeDegrees>
            </Position>
            <AltitudeMeters>247.600006103515625</AltitudeMeters>
            <DistanceMeters>NAN</DistanceMeters>
          </Trackpoint>
          <Trackpoint>
            <Time>2022-09-24T15:12:53.000Z</Time>
            <Position>
              <LatitudeDegrees>43.27983506955206394195556640625</LatitudeDegrees>
              <LongitudeDegrees>-2.7562039531767368316650390625</LongitudeDegrees>
            </Position>
            <AltitudeMeters>247.600006103515625</AltitudeMeters>
            <DistanceMeters>NAN</DistanceMeters>
          </Trackpoint>
          <Trackpoint>
            <Time>2022-09-24T15:12:54.000Z</Time>
            <Position>
              <LatitudeDegrees>43.27985233627259731292724609375</LatitudeDegrees>
              <LongitudeDegrees>-2.7561747841536998748779296875</LongitudeDegrees>
            </Position>
            <AltitudeMeters>247.8000030517578125</AltitudeMeters>
            <DistanceMeters>NAN</DistanceMeters>
          </Trackpoint>
          <Trackpoint>
            <Time>2022-09-24T15:12:55.000Z</Time>
            <Position>
              <LatitudeDegrees>43.2798743806779384613037109375</LatitudeDegrees>
              <LongitudeDegrees>-2.75615206919610500335693359375</LongitudeDegrees>
            </Position>
            <AltitudeMeters>248.399993896484375</AltitudeMeters>
            <DistanceMeters>NAN</DistanceMeters>
          </Trackpoint>
          <Trackpoint>
            <Time>2022-09-24T15:12:56.000Z</Time>
            <Position>
              <LatitudeDegrees>43.27989759854972362518310546875</LatitudeDegrees>
              <LongitudeDegrees>-2.7561291866004467010498046875</LongitudeDegrees>
            </Position>
            <AltitudeMeters>249.1999969482421875</AltitudeMeters>
            <DistanceMeters>NAN</DistanceMeters>
          </Trackpoint>
          <Trackpoint>
            <Time>2022-09-24T15:12:57.000Z</Time>
            <Position>
              <LatitudeDegrees>43.27992148697376251220703125</LatitudeDegrees>
              <LongitudeDegrees>-2.75611124932765960693359375</LongitudeDegrees>
            </Position>
            <AltitudeMeters>249.1999969482421875</AltitudeMeters>
            <DistanceMeters>NAN</DistanceMeters>
          </Trackpoint>
          <Trackpoint>
            <Time>2022-09-24T15:12:58.000Z</Time>
            <Position>
              <LatitudeDegrees>43.27994302846491336822509765625</LatitudeDegrees>
              <LongitudeDegrees>-2.75610093958675861358642578125</LongitudeDegrees>
            </Position>
            <AltitudeMeters>249.1999969482421875</AltitudeMeters>
            <DistanceMeters>NAN</DistanceMeters>
          </Trackpoint>
          <Trackpoint>
            <Time>2022-09-24T15:12:59.000Z</Time>
            <Position>
              <LatitudeDegrees>43.279964737594127655029296875</LatitudeDegrees>
              <LongitudeDegrees>-2.756097503006458282470703125</LongitudeDegrees>
            </Position>
            <AltitudeMeters>249.399993896484375</AltitudeMeters>
            <DistanceMeters>NAN</DistanceMeters>
          </Trackpoint>
          <Trackpoint>
            <Time>2022-09-24T15:13:00.000Z</Time>
            <Position>
              <LatitudeDegrees>43.2799873687326908111572265625</LatitudeDegrees>
              <LongitudeDegrees>-2.75609658099710941314697265625</LongitudeDegrees>
            </Position>
            <AltitudeMeters>249.600006103515625</AltitudeMeters>
            <DistanceMeters>NAN</DistanceMeters>
          </Trackpoint>
          <Trackpoint>
            <Time>2022-09-24T15:13:01.000Z</Time>
            <Position>
              <LatitudeDegrees>43.28001310117542743682861328125</LatitudeDegrees>
              <LongitudeDegrees>-2.7560973353683948516845703125</LongitudeDegrees>
            </Position>
            <AltitudeMeters>250</AltitudeMeters>
            <DistanceMeters>NAN</DistanceMeters>
          </Trackpoint>
          <Trackpoint>
            <Time>2022-09-24T15:13:02.000Z</Time>
            <Position>
              <LatitudeDegrees>43.2800383307039737701416015625</LatitudeDegrees>
              <LongitudeDegrees>-2.75610378943383693695068359375</LongitudeDegrees>
            </Position>
            <AltitudeMeters>250.1999969482421875</AltitudeMeters>
            <DistanceMeters>NAN</DistanceMeters>
          </Trackpoint>
          <Trackpoint>
            <Time>2022-09-24T15:13:03.000Z</Time>
            <Position>
              <LatitudeDegrees>43.28006590716540813446044921875</LatitudeDegrees>
              <LongitudeDegrees>-2.7561053819954395294189453125</LongitudeDegrees>
            </Position>
            <AltitudeMeters>250.399993896484375</AltitudeMeters>
            <DistanceMeters>NAN</DistanceMeters>
          </Trackpoint>
          <Trackpoint>
            <Time>2022-09-24T15:13:04.000Z</Time>
            <Position>
              <LatitudeDegrees>43.280092142522335052490234375</LatitudeDegrees>
              <LongitudeDegrees>-2.75610697455704212188720703125</LongitudeDegrees>
            </Position>
            <AltitudeMeters>250.600006103515625</AltitudeMeters>
            <DistanceMeters>NAN</DistanceMeters>
          </Trackpoint>
          <Trackpoint>
            <Time>2022-09-24T15:13:05.000Z</Time>
            <Position>
              <LatitudeDegrees>43.28011603094637393951416015625</LatitudeDegrees>
              <LongitudeDegrees>-2.75612021796405315399169921875</LongitudeDegrees>
            </Position>
            <AltitudeMeters>250.8000030517578125</AltitudeMeters>
            <DistanceMeters>NAN</DistanceMeters>
          </Trackpoint>
          <Trackpoint>
            <Time>2022-09-24T15:13:06.000Z</Time>
            <Position>
              <LatitudeDegrees>43.2801429368555545806884765625</LatitudeDegrees>
              <LongitudeDegrees>-2.7561379037797451019287109375</LongitudeDegrees>
            </Position>
            <AltitudeMeters>251</AltitudeMeters>
            <DistanceMeters>NAN</DistanceMeters>
          </Trackpoint>
          <Trackpoint>
            <Time>2022-09-24T15:13:07.000Z</Time>
            <Position>
              <LatitudeDegrees>43.28016095794737339019775390625</LatitudeDegrees>
              <LongitudeDegrees>-2.75615123100578784942626953125</LongitudeDegrees>
            </Position>
            <AltitudeMeters>251.399993896484375</AltitudeMeters>
            <DistanceMeters>NAN</DistanceMeters>
          </Trackpoint>
          <Trackpoint>
            <Time>2022-09-24T15:13:08.000Z</Time>
            <Position>
              <LatitudeDegrees>43.28018434345722198486328125</LatitudeDegrees>
              <LongitudeDegrees>-2.75616447441279888153076171875</LongitudeDegrees>
            </Position>
            <AltitudeMeters>251.600006103515625</AltitudeMeters>
            <DistanceMeters>NAN</DistanceMeters>
          </Trackpoint>
          <Trackpoint>
            <Time>2022-09-24T15:13:09.000Z</Time>
            <Position>
              <LatitudeDegrees>43.2802093215286731719970703125</LatitudeDegrees>
              <LongitudeDegrees>-2.7561771310865879058837890625</LongitudeDegrees>
            </Position>
            <AltitudeMeters>251.8000030517578125</AltitudeMeters>
            <DistanceMeters>NAN</DistanceMeters>
          </Trackpoint>
          <Trackpoint>
            <Time>2022-09-24T15:13:10.000Z</Time>
            <Position>
              <LatitudeDegrees>43.2802348025143146514892578125</LatitudeDegrees>
              <LongitudeDegrees>-2.7561892010271549224853515625</LongitudeDegrees>
            </Position>
            <AltitudeMeters>252</AltitudeMeters>
            <DistanceMeters>NAN</DistanceMeters>
          </Trackpoint>
          <Trackpoint>
            <Time>2022-09-24T15:13:11.000Z</Time>
            <Position>
              <LatitudeDegrees>43.28025852330029010772705078125</LatitudeDegrees>
              <LongitudeDegrees>-2.75620244443416595458984375</LongitudeDegrees>
            </Position>
            <AltitudeMeters>252.1999969482421875</AltitudeMeters>
            <DistanceMeters>NAN</DistanceMeters>
          </Trackpoint>
          <Trackpoint>
            <Time>2022-09-24T15:13:12.000Z</Time>
            <Position>
              <LatitudeDegrees>43.2802815735340118408203125</LatitudeDegrees>
              <LongitudeDegrees>-2.7562143467366695404052734375</LongitudeDegrees>
            </Position>
            <AltitudeMeters>252.399993896484375</AltitudeMeters>
            <DistanceMeters>NAN</DistanceMeters>
          </Trackpoint>
          <Trackpoint>
            <Time>2022-09-24T15:13:13.000Z</Time>
            <Position>
              <LatitudeDegrees>43.28030462376773357391357421875</LatitudeDegrees>
              <LongitudeDegrees>-2.75622398592531681060791015625</LongitudeDegrees>
            </Position>
            <AltitudeMeters>252.399993896484375</AltitudeMeters>
            <DistanceMeters>NAN</DistanceMeters>
          </Trackpoint>
          <Trackpoint>
            <Time>2022-09-24T15:13:14.000Z</Time>
            <Position>
              <LatitudeDegrees>43.28032675199210643768310546875</LatitudeDegrees>
              <LongitudeDegrees>-2.7562327869236469268798828125</LongitudeDegrees>
            </Position>
            <AltitudeMeters>252.600006103515625</AltitudeMeters>
            <DistanceMeters>NAN</DistanceMeters>
          </Trackpoint>
          <Trackpoint>
            <Time>2022-09-24T15:13:15.000Z</Time>
            <Position>
              <LatitudeDegrees>43.2803504727780818939208984375</LatitudeDegrees>
              <LongitudeDegrees>-2.75623957626521587371826171875</LongitudeDegrees>
            </Position>
            <AltitudeMeters>252.8000030517578125</AltitudeMeters>
            <DistanceMeters>NAN</DistanceMeters>
          </Trackpoint>
          <Trackpoint>
            <Time>2022-09-24T15:13:16.000Z</Time>
            <Position>
              <LatitudeDegrees>43.2803754508495330810546875</LatitudeDegrees>
              <LongitudeDegrees>-2.75624577887356281280517578125</LongitudeDegrees>
            </Position>
            <AltitudeMeters>253.1999969482421875</AltitudeMeters>
            <DistanceMeters>NAN</DistanceMeters>
          </Trackpoint>
          <Trackpoint>
            <Time>2022-09-24T15:13:17.000Z</Time>
            <Position>
              <LatitudeDegrees>43.28040168620645999908447265625</LatitudeDegrees>
              <LongitudeDegrees>-2.7562498860061168670654296875</LongitudeDegrees>
            </Position>
            <AltitudeMeters>253.399993896484375</AltitudeMeters>
            <DistanceMeters>NAN</DistanceMeters>
          </Trackpoint>
          <Trackpoint>
            <Time>2022-09-24T15:13:18.000Z</Time>
            <Position>
              <LatitudeDegrees>43.28042842447757720947265625</LatitudeDegrees>
              <LongitudeDegrees>-2.7562518976628780364990234375</LongitudeDegrees>
            </Position>
            <AltitudeMeters>253.600006103515625</AltitudeMeters>
            <DistanceMeters>NAN</DistanceMeters>
          </Trackpoint>
          <Trackpoint>
            <Time>2022-09-24T15:13:19.000Z</Time>
            <Position>
              <LatitudeDegrees>43.28045499511063098907470703125</LatitudeDegrees>
              <LongitudeDegrees>-2.75625114329159259796142578125</LongitudeDegrees>
            </Position>
            <AltitudeMeters>254.399993896484375</AltitudeMeters>
            <DistanceMeters>NAN</DistanceMeters>
          </Trackpoint>
          <Trackpoint>
            <Time>2022-09-24T15:13:20.000Z</Time>
            <Position>
              <LatitudeDegrees>43.2804815657436847686767578125</LatitudeDegrees>
              <LongitudeDegrees>-2.75624393485486507415771484375</LongitudeDegrees>
            </Position>
            <AltitudeMeters>254.399993896484375</AltitudeMeters>
            <DistanceMeters>NAN</DistanceMeters>
          </Trackpoint>
          <Trackpoint>
            <Time>2022-09-24T15:13:21.000Z</Time>
            <Position>
              <LatitudeDegrees>43.2805068790912628173828125</LatitudeDegrees>
              <LongitudeDegrees>-2.75623806752264499664306640625</LongitudeDegrees>
            </Position>
            <AltitudeMeters>254.600006103515625</AltitudeMeters>
            <DistanceMeters>NAN</DistanceMeters>
          </Trackpoint>
          <Trackpoint>
            <Time>2022-09-24T15:13:22.000Z</Time>
            <Position>
              <LatitudeDegrees>43.2805308513343334197998046875</LatitudeDegrees>
              <LongitudeDegrees>-2.75622968561947345733642578125</LongitudeDegrees>
            </Position>
            <AltitudeMeters>254.8000030517578125</AltitudeMeters>
            <DistanceMeters>NAN</DistanceMeters>
          </Trackpoint>
          <Trackpoint>
            <Time>2022-09-24T15:13:23.000Z</Time>
            <Position>
              <LatitudeDegrees>43.2805556617677211761474609375</LatitudeDegrees>
              <LongitudeDegrees>-2.75622130371630191802978515625</LongitudeDegrees>
            </Position>
            <AltitudeMeters>255</AltitudeMeters>
            <DistanceMeters>NAN</DistanceMeters>
          </Trackpoint>
          <Trackpoint>
            <Time>2022-09-24T15:13:24.000Z</Time>
            <Position>
              <LatitudeDegrees>43.28058005310595035552978515625</LatitudeDegrees>
              <LongitudeDegrees>-2.75621577166020870208740234375</LongitudeDegrees>
            </Position>
            <AltitudeMeters>255</AltitudeMeters>
            <DistanceMeters>NAN</DistanceMeters>
          </Trackpoint>
          <Trackpoint>
            <Time>2022-09-24T15:13:25.000Z</Time>
            <Position>
              <LatitudeDegrees>43.2806034386157989501953125</LatitudeDegrees>
              <LongitudeDegrees>-2.75621241889894008636474609375</LongitudeDegrees>
            </Position>
            <AltitudeMeters>255.1999969482421875</AltitudeMeters>
            <DistanceMeters>NAN</DistanceMeters>
          </Trackpoint>
          <Trackpoint>
            <Time>2022-09-24T15:13:26.000Z</Time>
            <Position>
              <LatitudeDegrees>43.28062581829726696014404296875</LatitudeDegrees>
              <LongitudeDegrees>-2.75620705448091030120849609375</LongitudeDegrees>
            </Position>
            <AltitudeMeters>255.399993896484375</AltitudeMeters>
            <DistanceMeters>NAN</DistanceMeters>
          </Trackpoint>
          <Trackpoint>
            <Time>2022-09-24T15:13:27.000Z</Time>
            <Position>
              <LatitudeDegrees>43.28064844943583011627197265625</LatitudeDegrees>
              <LongitudeDegrees>-2.7561990916728973388671875</LongitudeDegrees>
            </Position>
            <AltitudeMeters>255.8000030517578125</AltitudeMeters>
            <DistanceMeters>NAN</DistanceMeters>
          </Trackpoint>
          <Trackpoint>
            <Time>2022-09-24T15:13:28.000Z</Time>
            <Position>
              <LatitudeDegrees>43.28067258931696414947509765625</LatitudeDegrees>
              <LongitudeDegrees>-2.75619582273066043853759765625</LongitudeDegrees>
            </Position>
            <AltitudeMeters>256.20001220703125</AltitudeMeters>
            <DistanceMeters>NAN</DistanceMeters>
          </Trackpoint>
          <Trackpoint>
            <Time>2022-09-24T15:13:29.000Z</Time>
            <Position>
              <LatitudeDegrees>43.28069572336971759796142578125</LatitudeDegrees>
              <LongitudeDegrees>-2.75619213469326496124267578125</LongitudeDegrees>
            </Position>
            <AltitudeMeters>256.399993896484375</AltitudeMeters>
            <DistanceMeters>NAN</DistanceMeters>
          </Trackpoint>
          <Trackpoint>
            <Time>2022-09-24T15:13:30.000Z</Time>
            <Position>
              <LatitudeDegrees>43.28072086907923221588134765625</LatitudeDegrees>
              <LongitudeDegrees>-2.75618727318942546844482421875</LongitudeDegrees>
            </Position>
            <AltitudeMeters>256.399993896484375</AltitudeMeters>
            <DistanceMeters>NAN</DistanceMeters>
          </Trackpoint>
          <Trackpoint>
            <Time>2022-09-24T15:13:31.000Z</Time>
            <Position>
              <LatitudeDegrees>43.2807447575032711029052734375</LatitudeDegrees>
              <LongitudeDegrees>-2.75618023239076137542724609375</LongitudeDegrees>
            </Position>
            <AltitudeMeters>256.399993896484375</AltitudeMeters>
            <DistanceMeters>NAN</DistanceMeters>
          </Trackpoint>
          <Trackpoint>
            <Time>2022-09-24T15:13:32.000Z</Time>
            <Position>
              <LatitudeDegrees>43.2807697355747222900390625</LatitudeDegrees>
              <LongitudeDegrees>-2.75617252103984355926513671875</LongitudeDegrees>
            </Position>
            <AltitudeMeters>256.600006103515625</AltitudeMeters>
            <DistanceMeters>NAN</DistanceMeters>
          </Trackpoint>
          <Trackpoint>
            <Time>2022-09-24T15:13:33.000Z</Time>
            <Position>
              <LatitudeDegrees>43.28079412691295146942138671875</LatitudeDegrees>
              <LongitudeDegrees>-2.75616967119276523590087890625</LongitudeDegrees>
            </Position>
            <AltitudeMeters>256.79998779296875</AltitudeMeters>
            <DistanceMeters>NAN</DistanceMeters>
          </Trackpoint>
          <Trackpoint>
            <Time>2022-09-24T15:13:34.000Z</Time>
            <Position>
              <LatitudeDegrees>43.28081793151795864105224609375</LatitudeDegrees>
              <LongitudeDegrees>-2.75616598315536975860595703125</LongitudeDegrees>
            </Position>
            <AltitudeMeters>257</AltitudeMeters>
            <DistanceMeters>NAN</DistanceMeters>
          </Trackpoint>
          <Trackpoint>
            <Time>2022-09-24T15:13:35.000Z</Time>
            <Position>
              <LatitudeDegrees>43.28084542416036128997802734375</LatitudeDegrees>
              <LongitudeDegrees>-2.756162546575069427490234375</LongitudeDegrees>
            </Position>
            <AltitudeMeters>257.399993896484375</AltitudeMeters>
            <DistanceMeters>NAN</DistanceMeters>
          </Trackpoint>
          <Trackpoint>
            <Time>2022-09-24T15:13:36.000Z</Time>
            <Position>
              <LatitudeDegrees>43.28087274916470050811767578125</LatitudeDegrees>
              <LongitudeDegrees>-2.756161876022815704345703125</LongitudeDegrees>
            </Position>
            <AltitudeMeters>257.399993896484375</AltitudeMeters>
            <DistanceMeters>NAN</DistanceMeters>
          </Trackpoint>
          <Trackpoint>
            <Time>2022-09-24T15:13:37.000Z</Time>
            <Position>
              <LatitudeDegrees>43.2808952964842319488525390625</LatitudeDegrees>
              <LongitudeDegrees>-2.7561684139072895050048828125</LongitudeDegrees>
            </Position>
            <AltitudeMeters>257.79998779296875</AltitudeMeters>
            <DistanceMeters>NAN</DistanceMeters>
          </Trackpoint>
          <Trackpoint>
            <Time>2022-09-24T15:13:38.000Z</Time>
            <Position>
              <LatitudeDegrees>43.2809226214885711669921875</LatitudeDegrees>
              <LongitudeDegrees>-2.75616715662181377410888671875</LongitudeDegrees>
            </Position>
            <AltitudeMeters>258</AltitudeMeters>
            <DistanceMeters>NAN</DistanceMeters>
          </Trackpoint>
          <Trackpoint>
            <Time>2022-09-24T15:13:39.000Z</Time>
            <Position>
              <LatitudeDegrees>43.28094986267387866973876953125</LatitudeDegrees>
              <LongitudeDegrees>-2.756168581545352935791015625</LongitudeDegrees>
            </Position>
            <AltitudeMeters>258</AltitudeMeters>
            <DistanceMeters>NAN</DistanceMeters>
          </Trackpoint>
          <Trackpoint>
            <Time>2022-09-24T15:13:40.000Z</Time>
            <Position>
              <LatitudeDegrees>43.28097115270793437957763671875</LatitudeDegrees>
              <LongitudeDegrees>-2.75617822073400020599365234375</LongitudeDegrees>
            </Position>
            <AltitudeMeters>258.20001220703125</AltitudeMeters>
            <DistanceMeters>NAN</DistanceMeters>
          </Trackpoint>
          <Trackpoint>
            <Time>2022-09-24T15:13:41.000Z</Time>
            <Position>
              <LatitudeDegrees>43.2809950411319732666015625</LatitudeDegrees>
              <LongitudeDegrees>-2.7561942301690578460693359375</LongitudeDegrees>
            </Position>
            <AltitudeMeters>258.79998779296875</AltitudeMeters>
            <DistanceMeters>NAN</DistanceMeters>
          </Trackpoint>
          <Trackpoint>
            <Time>2022-09-24T15:13:42.000Z</Time>
            <Position>
              <LatitudeDegrees>43.28102244995534420013427734375</LatitudeDegrees>
              <LongitudeDegrees>-2.7562042884528636932373046875</LongitudeDegrees>
            </Position>
            <AltitudeMeters>259</AltitudeMeters>
            <DistanceMeters>NAN</DistanceMeters>
          </Trackpoint>
          <Trackpoint>
            <Time>2022-09-24T15:13:43.000Z</Time>
            <Position>
              <LatitudeDegrees>43.28104491345584392547607421875</LatitudeDegrees>
              <LongitudeDegrees>-2.75621878914535045623779296875</LongitudeDegrees>
            </Position>
            <AltitudeMeters>259.20001220703125</AltitudeMeters>
            <DistanceMeters>NAN</DistanceMeters>
          </Trackpoint>
          <Trackpoint>
            <Time>2022-09-24T15:13:44.000Z</Time>
            <Position>
              <LatitudeDegrees>43.2810642756521701812744140625</LatitudeDegrees>
              <LongitudeDegrees>-2.756240330636501312255859375</LongitudeDegrees>
            </Position>
            <AltitudeMeters>259.399993896484375</AltitudeMeters>
            <DistanceMeters>NAN</DistanceMeters>
          </Trackpoint>
          <Trackpoint>
            <Time>2022-09-24T15:13:45.000Z</Time>
            <Position>
              <LatitudeDegrees>43.2810642756521701812744140625</LatitudeDegrees>
              <LongitudeDegrees>-2.756240330636501312255859375</LongitudeDegrees>
            </Position>
            <AltitudeMeters>259.399993896484375</AltitudeMeters>
            <DistanceMeters>NAN</DistanceMeters>
          </Trackpoint>
          <Trackpoint>
            <Time>2022-09-24T15:13:46.000Z</Time>
            <Position>
              <LatitudeDegrees>43.28110207803547382354736328125</LatitudeDegrees>
              <LongitudeDegrees>-2.756283245980739593505859375</LongitudeDegrees>
            </Position>
            <AltitudeMeters>259.399993896484375</AltitudeMeters>
            <DistanceMeters>NAN</DistanceMeters>
          </Trackpoint>
          <Trackpoint>
            <Time>2022-09-24T15:13:47.000Z</Time>
            <Position>
              <LatitudeDegrees>43.28113250434398651123046875</LatitudeDegrees>
              <LongitudeDegrees>-2.756307385861873626708984375</LongitudeDegrees>
            </Position>
            <AltitudeMeters>259.399993896484375</AltitudeMeters>
            <DistanceMeters>NAN</DistanceMeters>
          </Trackpoint>
          <Trackpoint>
            <Time>2022-09-24T15:13:48.000Z</Time>
            <Position>
              <LatitudeDegrees>43.2811559736728668212890625</LatitudeDegrees>
              <LongitudeDegrees>-2.7563357166945934295654296875</LongitudeDegrees>
            </Position>
            <AltitudeMeters>259.79998779296875</AltitudeMeters>
            <DistanceMeters>NAN</DistanceMeters>
          </Trackpoint>
          <Trackpoint>
            <Time>2022-09-24T15:13:49.000Z</Time>
            <Position>
              <LatitudeDegrees>43.2811796106398105621337890625</LatitudeDegrees>
              <LongitudeDegrees>-2.75636832229793071746826171875</LongitudeDegrees>
            </Position>
            <AltitudeMeters>260</AltitudeMeters>
            <DistanceMeters>NAN</DistanceMeters>
          </Trackpoint>
          <Trackpoint>
            <Time>2022-09-24T15:13:50.000Z</Time>
            <Position>
              <LatitudeDegrees>43.2811896689236164093017578125</LatitudeDegrees>
              <LongitudeDegrees>-2.75639313273131847381591796875</LongitudeDegrees>
            </Position>
            <AltitudeMeters>260.20001220703125</AltitudeMeters>
            <DistanceMeters>NAN</DistanceMeters>
          </Trackpoint>
          <Trackpoint>
            <Time>2022-09-24T15:13:51.000Z</Time>
            <Position>
              <LatitudeDegrees>43.28121724538505077362060546875</LatitudeDegrees>
              <LongitudeDegrees>-2.756425403058528900146484375</LongitudeDegrees>
            </Position>
            <AltitudeMeters>260.399993896484375</AltitudeMeters>
            <DistanceMeters>NAN</DistanceMeters>
          </Trackpoint>
          <Trackpoint>
            <Time>2022-09-24T15:13:52.000Z</Time>
            <Position>
              <LatitudeDegrees>43.2812359370291233062744140625</LatitudeDegrees>
              <LongitudeDegrees>-2.75646102614700794219970703125</LongitudeDegrees>
            </Position>
            <AltitudeMeters>260.79998779296875</AltitudeMeters>
            <DistanceMeters>NAN</DistanceMeters>
          </Trackpoint>
          <Trackpoint>
            <Time>2022-09-24T15:13:53.000Z</Time>
            <Position>
              <LatitudeDegrees>43.28125010244548320770263671875</LatitudeDegrees>
              <LongitudeDegrees>-2.75649002753198146820068359375</LongitudeDegrees>
            </Position>
            <AltitudeMeters>260.79998779296875</AltitudeMeters>
            <DistanceMeters>NAN</DistanceMeters>
          </Trackpoint>
          <Trackpoint>
            <Time>2022-09-24T15:13:54.000Z</Time>
            <Position>
              <LatitudeDegrees>43.28126904554665088653564453125</LatitudeDegrees>
              <LongitudeDegrees>-2.75652187876403331756591796875</LongitudeDegrees>
            </Position>
            <AltitudeMeters>260.79998779296875</AltitudeMeters>
            <DistanceMeters>NAN</DistanceMeters>
          </Trackpoint>
          <Trackpoint>
            <Time>2022-09-24T15:13:55.000Z</Time>
            <Position>
              <LatitudeDegrees>43.28128807246685028076171875</LatitudeDegrees>
              <LongitudeDegrees>-2.75655121542513370513916015625</LongitudeDegrees>
            </Position>
            <AltitudeMeters>261.20001220703125</AltitudeMeters>
            <DistanceMeters>NAN</DistanceMeters>
          </Trackpoint>
          <Trackpoint>
            <Time>2022-09-24T15:13:56.000Z</Time>
            <Position>
              <LatitudeDegrees>43.28129787929356098175048828125</LatitudeDegrees>
              <LongitudeDegrees>-2.7565895207226276397705078125</LongitudeDegrees>
            </Position>
            <AltitudeMeters>261.399993896484375</AltitudeMeters>
            <DistanceMeters>NAN</DistanceMeters>
          </Trackpoint>
          <Trackpoint>
            <Time>2022-09-24T15:13:57.000Z</Time>
            <Position>
              <LatitudeDegrees>43.2813164032995700836181640625</LatitudeDegrees>
              <LongitudeDegrees>-2.7566175162792205810546875</LongitudeDegrees>
            </Position>
            <AltitudeMeters>261.600006103515625</AltitudeMeters>
            <DistanceMeters>NAN</DistanceMeters>
          </Trackpoint>
          <Trackpoint>
            <Time>2022-09-24T15:13:58.000Z</Time>
            <Position>
              <LatitudeDegrees>43.28133559785783290863037109375</LatitudeDegrees>
              <LongitudeDegrees>-2.75664727203547954559326171875</LongitudeDegrees>
            </Position>
            <AltitudeMeters>262</AltitudeMeters>
            <DistanceMeters>NAN</DistanceMeters>
          </Trackpoint>
          <Trackpoint>
            <Time>2022-09-24T15:13:59.000Z</Time>
            <Position>
              <LatitudeDegrees>43.28135244548320770263671875</LatitudeDegrees>
              <LongitudeDegrees>-2.75667962618172168731689453125</LongitudeDegrees>
            </Position>
            <AltitudeMeters>262</AltitudeMeters>
            <DistanceMeters>NAN</DistanceMeters>
          </Trackpoint>
          <Trackpoint>
            <Time>2022-09-24T15:14:00.000Z</Time>
            <Position>
              <LatitudeDegrees>43.28137013129889965057373046875</LatitudeDegrees>
              <LongitudeDegrees>-2.7567125670611858367919921875</LongitudeDegrees>
            </Position>
            <AltitudeMeters>262</AltitudeMeters>
            <DistanceMeters>NAN</DistanceMeters>
          </Trackpoint>
          <Trackpoint>
            <Time>2022-09-24T15:14:01.000Z</Time>
            <Position>
              <LatitudeDegrees>43.28138605691492557525634765625</LatitudeDegrees>
              <LongitudeDegrees>-2.75674827396869659423828125</LongitudeDegrees>
            </Position>
            <AltitudeMeters>262.20001220703125</AltitudeMeters>
            <DistanceMeters>NAN</DistanceMeters>
          </Trackpoint>
          <Trackpoint>
            <Time>2022-09-24T15:14:02.000Z</Time>
            <Position>
              <LatitudeDegrees>43.28140734694898128509521484375</LatitudeDegrees>
              <LongitudeDegrees>-2.75677978992462158203125</LongitudeDegrees>
            </Position>
            <AltitudeMeters>262.20001220703125</AltitudeMeters>
            <DistanceMeters>NAN</DistanceMeters>
          </Trackpoint>
          <Trackpoint>
            <Time>2022-09-24T15:14:03.000Z</Time>
            <Position>
              <LatitudeDegrees>43.281427882611751556396484375</LatitudeDegrees>
              <LongitudeDegrees>-2.75681004859507083892822265625</LongitudeDegrees>
            </Position>
            <AltitudeMeters>262.79998779296875</AltitudeMeters>
            <DistanceMeters>NAN</DistanceMeters>
          </Trackpoint>
          <Trackpoint>
            <Time>2022-09-24T15:14:04.000Z</Time>
            <Position>
              <LatitudeDegrees>43.28144389204680919647216796875</LatitudeDegrees>
              <LongitudeDegrees>-2.756846509873867034912109375</LongitudeDegrees>
            </Position>
            <AltitudeMeters>262.79998779296875</AltitudeMeters>
            <DistanceMeters>NAN</DistanceMeters>
          </Trackpoint>
          <Trackpoint>
            <Time>2022-09-24T15:14:05.000Z</Time>
            <Position>
              <LatitudeDegrees>43.2814599014818668365478515625</LatitudeDegrees>
              <LongitudeDegrees>-2.756884731352329254150390625</LongitudeDegrees>
            </Position>
            <AltitudeMeters>263</AltitudeMeters>
            <DistanceMeters>NAN</DistanceMeters>
          </Trackpoint>
          <Trackpoint>
            <Time>2022-09-24T15:14:06.000Z</Time>
            <Position>
              <LatitudeDegrees>43.2814790122210979461669921875</LatitudeDegrees>
              <LongitudeDegrees>-2.75692127645015716552734375</LongitudeDegrees>
            </Position>
            <AltitudeMeters>263.20001220703125</AltitudeMeters>
            <DistanceMeters>NAN</DistanceMeters>
          </Trackpoint>
          <Trackpoint>
            <Time>2022-09-24T15:14:07.000Z</Time>
            <Position>
              <LatitudeDegrees>43.2815008051693439483642578125</LatitudeDegrees>
              <LongitudeDegrees>-2.75695614516735076904296875</LongitudeDegrees>
            </Position>
            <AltitudeMeters>263.399993896484375</AltitudeMeters>
            <DistanceMeters>NAN</DistanceMeters>
          </Trackpoint>
          <Trackpoint>
            <Time>2022-09-24T15:14:08.000Z</Time>
            <Position>
              <LatitudeDegrees>43.28152117319405078887939453125</LatitudeDegrees>
              <LongitudeDegrees>-2.756991684436798095703125</LongitudeDegrees>
            </Position>
            <AltitudeMeters>263.600006103515625</AltitudeMeters>
            <DistanceMeters>NAN</DistanceMeters>
          </Trackpoint>
          <Trackpoint>
            <Time>2022-09-24T15:14:09.000Z</Time>
            <Position>
              <LatitudeDegrees>43.28154288232326507568359375</LatitudeDegrees>
              <LongitudeDegrees>-2.7570226974785327911376953125</LongitudeDegrees>
            </Position>
            <AltitudeMeters>263.600006103515625</AltitudeMeters>
            <DistanceMeters>NAN</DistanceMeters>
          </Trackpoint>
          <Trackpoint>
            <Time>2022-09-24T15:14:10.000Z</Time>
            <Position>
              <LatitudeDegrees>43.28156744129955768585205078125</LatitudeDegrees>
              <LongitudeDegrees>-2.7570488490164279937744140625</LongitudeDegrees>
            </Position>
            <AltitudeMeters>264</AltitudeMeters>
            <DistanceMeters>NAN</DistanceMeters>
          </Trackpoint>
          <Trackpoint>
            <Time>2022-09-24T15:14:11.000Z</Time>
            <Position>
              <LatitudeDegrees>43.28159116208553314208984375</LatitudeDegrees>
              <LongitudeDegrees>-2.75707575492560863494873046875</LongitudeDegrees>
            </Position>
            <AltitudeMeters>264.20001220703125</AltitudeMeters>
            <DistanceMeters>NAN</DistanceMeters>
          </Trackpoint>
          <Trackpoint>
            <Time>2022-09-24T15:14:12.000Z</Time>
            <Position>
              <LatitudeDegrees>43.28161689452826976776123046875</LatitudeDegrees>
              <LongitudeDegrees>-2.7571011520922183990478515625</LongitudeDegrees>
            </Position>
            <AltitudeMeters>264.600006103515625</AltitudeMeters>
            <DistanceMeters>NAN</DistanceMeters>
          </Trackpoint>
          <Trackpoint>
            <Time>2022-09-24T15:14:13.000Z</Time>
            <Position>
              <LatitudeDegrees>43.2816399447619915008544921875</LatitudeDegrees>
              <LongitudeDegrees>-2.75712520815432071685791015625</LongitudeDegrees>
            </Position>
            <AltitudeMeters>264.600006103515625</AltitudeMeters>
            <DistanceMeters>NAN</DistanceMeters>
          </Trackpoint>
          <Trackpoint>
            <Time>2022-09-24T15:14:14.000Z</Time>
            <Position>
              <LatitudeDegrees>43.281664587557315826416015625</LatitudeDegrees>
              <LongitudeDegrees>-2.757147587835788726806640625</LongitudeDegrees>
            </Position>
            <AltitudeMeters>264.600006103515625</AltitudeMeters>
            <DistanceMeters>NAN</DistanceMeters>
          </Trackpoint>
          <Trackpoint>
            <Time>2022-09-24T15:14:15.000Z</Time>
            <Position>
              <LatitudeDegrees>43.28169199638068675994873046875</LatitudeDegrees>
              <LongitudeDegrees>-2.7571722306311130523681640625</LongitudeDegrees>
            </Position>
            <AltitudeMeters>264.79998779296875</AltitudeMeters>
            <DistanceMeters>NAN</DistanceMeters>
          </Trackpoint>
          <Trackpoint>
            <Time>2022-09-24T15:14:16.000Z</Time>
            <Position>
              <LatitudeDegrees>43.28171730972826480865478515625</LatitudeDegrees>
              <LongitudeDegrees>-2.7571983821690082550048828125</LongitudeDegrees>
            </Position>
            <AltitudeMeters>265.20001220703125</AltitudeMeters>
            <DistanceMeters>NAN</DistanceMeters>
          </Trackpoint>
          <Trackpoint>
            <Time>2022-09-24T15:14:17.000Z</Time>
            <Position>
              <LatitudeDegrees>43.281742036342620849609375</LatitudeDegrees>
              <LongitudeDegrees>-2.757220007479190826416015625</LongitudeDegrees>
            </Position>
            <AltitudeMeters>265.399993896484375</AltitudeMeters>
            <DistanceMeters>NAN</DistanceMeters>
          </Trackpoint>
          <Trackpoint>
            <Time>2022-09-24T15:14:18.000Z</Time>
            <Position>
              <LatitudeDegrees>43.28176793642342090606689453125</LatitudeDegrees>
              <LongitudeDegrees>-2.75724104605615139007568359375</LongitudeDegrees>
            </Position>
            <AltitudeMeters>265.79998779296875</AltitudeMeters>
            <DistanceMeters>NAN</DistanceMeters>
          </Trackpoint>
          <Trackpoint>
            <Time>2022-09-24T15:14:19.000Z</Time>
            <Position>
              <LatitudeDegrees>43.28179643489420413970947265625</LatitudeDegrees>
              <LongitudeDegrees>-2.75725998915731906890869140625</LongitudeDegrees>
            </Position>
            <AltitudeMeters>266</AltitudeMeters>
            <DistanceMeters>NAN</DistanceMeters>
          </Trackpoint>
          <Trackpoint>
            <Time>2022-09-24T15:14:20.000Z</Time>
            <Position>
              <LatitudeDegrees>43.2818246819078922271728515625</LatitudeDegrees>
              <LongitudeDegrees>-2.757275998592376708984375</LongitudeDegrees>
            </Position>
            <AltitudeMeters>266.600006103515625</AltitudeMeters>
            <DistanceMeters>NAN</DistanceMeters>
          </Trackpoint>
          <Trackpoint>
            <Time>2022-09-24T15:14:21.000Z</Time>
            <Position>
              <LatitudeDegrees>43.281853683292865753173828125</LatitudeDegrees>
              <LongitudeDegrees>-2.75728932581841945648193359375</LongitudeDegrees>
            </Position>
            <AltitudeMeters>266.600006103515625</AltitudeMeters>
            <DistanceMeters>NAN</DistanceMeters>
          </Trackpoint>
          <Trackpoint>
            <Time>2022-09-24T15:14:22.000Z</Time>
            <Position>
              <LatitudeDegrees>43.2818846963346004486083984375</LatitudeDegrees>
              <LongitudeDegrees>-2.75730106048285961151123046875</LongitudeDegrees>
            </Position>
            <AltitudeMeters>266.79998779296875</AltitudeMeters>
            <DistanceMeters>NAN</DistanceMeters>
          </Trackpoint>
          <Trackpoint>
            <Time>2022-09-24T15:14:23.000Z</Time>
            <Position>
              <LatitudeDegrees>43.2819145359098911285400390625</LatitudeDegrees>
              <LongitudeDegrees>-2.75731564499437808990478515625</LongitudeDegrees>
            </Position>
            <AltitudeMeters>266.79998779296875</AltitudeMeters>
            <DistanceMeters>NAN</DistanceMeters>
          </Trackpoint>
          <Trackpoint>
            <Time>2022-09-24T15:14:24.000Z</Time>
            <Position>
              <LatitudeDegrees>43.2819447107613086700439453125</LatitudeDegrees>
              <LongitudeDegrees>-2.75732721202075481414794921875</LongitudeDegrees>
            </Position>
            <AltitudeMeters>266.79998779296875</AltitudeMeters>
            <DistanceMeters>NAN</DistanceMeters>
          </Trackpoint>
          <Trackpoint>
            <Time>2022-09-24T15:14:25.000Z</Time>
            <Position>
              <LatitudeDegrees>43.28197647817432880401611328125</LatitudeDegrees>
              <LongitudeDegrees>-2.7573363482952117919921875</LongitudeDegrees>
            </Position>
            <AltitudeMeters>267</AltitudeMeters>
            <DistanceMeters>NAN</DistanceMeters>
          </Trackpoint>
          <Trackpoint>
            <Time>2022-09-24T15:14:26.000Z</Time>
            <Position>
              <LatitudeDegrees>43.28200824558734893798828125</LatitudeDegrees>
              <LongitudeDegrees>-2.75734581984579563140869140625</LongitudeDegrees>
            </Position>
            <AltitudeMeters>267.20001220703125</AltitudeMeters>
            <DistanceMeters>NAN</DistanceMeters>
          </Trackpoint>
          <Trackpoint>
            <Time>2022-09-24T15:14:27.000Z</Time>
            <Position>
              <LatitudeDegrees>43.2820395939052104949951171875</LatitudeDegrees>
              <LongitudeDegrees>-2.75735286064445972442626953125</LongitudeDegrees>
            </Position>
            <AltitudeMeters>267.399993896484375</AltitudeMeters>
            <DistanceMeters>NAN</DistanceMeters>
          </Trackpoint>
          <Trackpoint>
            <Time>2022-09-24T15:14:28.000Z</Time>
            <Position>
              <LatitudeDegrees>43.28207194805145263671875</LatitudeDegrees>
              <LongitudeDegrees>-2.75735847651958465576171875</LongitudeDegrees>
            </Position>
            <AltitudeMeters>267.79998779296875</AltitudeMeters>
            <DistanceMeters>NAN</DistanceMeters>
          </Trackpoint>
          <Trackpoint>
            <Time>2022-09-24T15:14:29.000Z</Time>
            <Position>
              <LatitudeDegrees>43.2821043021976947784423828125</LatitudeDegrees>
              <LongitudeDegrees>-2.757366858422756195068359375</LongitudeDegrees>
            </Position>
            <AltitudeMeters>267.79998779296875</AltitudeMeters>
            <DistanceMeters>NAN</DistanceMeters>
          </Trackpoint>
          <Trackpoint>
            <Time>2022-09-24T15:14:30.000Z</Time>
            <Position>
              <LatitudeDegrees>43.28213623724877834320068359375</LatitudeDegrees>
              <LongitudeDegrees>-2.75737230665981769561767578125</LongitudeDegrees>
            </Position>
            <AltitudeMeters>268.600006103515625</AltitudeMeters>
            <DistanceMeters>NAN</DistanceMeters>
          </Trackpoint>
          <Trackpoint>
            <Time>2022-09-24T15:14:31.000Z</Time>
            <Position>
              <LatitudeDegrees>43.2821676693856716156005859375</LatitudeDegrees>
              <LongitudeDegrees>-2.75737700052559375762939453125</LongitudeDegrees>
            </Position>
            <AltitudeMeters>268.79998779296875</AltitudeMeters>
            <DistanceMeters>NAN</DistanceMeters>
          </Trackpoint>
          <Trackpoint>
            <Time>2022-09-24T15:14:32.000Z</Time>
            <Position>
              <LatitudeDegrees>43.28219843097031116485595703125</LatitudeDegrees>
              <LongitudeDegrees>-2.75738018564879894256591796875</LongitudeDegrees>
            </Position>
            <AltitudeMeters>269</AltitudeMeters>
            <DistanceMeters>NAN</DistanceMeters>
          </Trackpoint>
          <Trackpoint>
            <Time>2022-09-24T15:14:33.000Z</Time>
            <Position>
              <LatitudeDegrees>43.28222810290753841400146484375</LatitudeDegrees>
              <LongitudeDegrees>-2.757384292781352996826171875</LongitudeDegrees>
            </Position>
            <AltitudeMeters>269.79998779296875</AltitudeMeters>
            <DistanceMeters>NAN</DistanceMeters>
          </Trackpoint>
          <Trackpoint>
            <Time>2022-09-24T15:14:34.000Z</Time>
            <Position>
              <LatitudeDegrees>43.28225978650152683258056640625</LatitudeDegrees>
              <LongitudeDegrees>-2.7573894895613193511962890625</LongitudeDegrees>
            </Position>
            <AltitudeMeters>269.79998779296875</AltitudeMeters>
            <DistanceMeters>NAN</DistanceMeters>
          </Trackpoint>
          <Trackpoint>
            <Time>2022-09-24T15:14:35.000Z</Time>
            <Position>
              <LatitudeDegrees>43.28229281120002269744873046875</LatitudeDegrees>
              <LongitudeDegrees>-2.75739510543644428253173828125</LongitudeDegrees>
            </Position>
            <AltitudeMeters>270</AltitudeMeters>
            <DistanceMeters>NAN</DistanceMeters>
          </Trackpoint>
          <Trackpoint>
            <Time>2022-09-24T15:14:36.000Z</Time>
            <Position>
              <LatitudeDegrees>43.28232047148048877716064453125</LatitudeDegrees>
              <LongitudeDegrees>-2.75739879347383975982666015625</LongitudeDegrees>
            </Position>
            <AltitudeMeters>270.399993896484375</AltitudeMeters>
            <DistanceMeters>NAN</DistanceMeters>
          </Trackpoint>
          <Trackpoint>
            <Time>2022-09-24T15:14:37.000Z</Time>
            <Position>
              <LatitudeDegrees>43.28235953114926815032958984375</LatitudeDegrees>
              <LongitudeDegrees>-2.75740549899637699127197265625</LongitudeDegrees>
            </Position>
            <AltitudeMeters>270.399993896484375</AltitudeMeters>
            <DistanceMeters>NAN</DistanceMeters>
          </Trackpoint>
          <Trackpoint>
            <Time>2022-09-24T15:14:38.000Z</Time>
            <Position>
              <LatitudeDegrees>43.28239222057163715362548828125</LatitudeDegrees>
              <LongitudeDegrees>-2.75740566663444042205810546875</LongitudeDegrees>
            </Position>
            <AltitudeMeters>270.79998779296875</AltitudeMeters>
            <DistanceMeters>NAN</DistanceMeters>
          </Trackpoint>
          <Trackpoint>
            <Time>2022-09-24T15:14:39.000Z</Time>
            <Position>
              <LatitudeDegrees>43.28242574818432331085205078125</LatitudeDegrees>
              <LongitudeDegrees>-2.757405750453472137451171875</LongitudeDegrees>
            </Position>
            <AltitudeMeters>271</AltitudeMeters>
            <DistanceMeters>NAN</DistanceMeters>
          </Trackpoint>
          <Trackpoint>
            <Time>2022-09-24T15:14:40.000Z</Time>
            <Position>
              <LatitudeDegrees>43.28245776705443859100341796875</LatitudeDegrees>
              <LongitudeDegrees>-2.7574099414050579071044921875</LongitudeDegrees>
            </Position>
            <AltitudeMeters>271.20001220703125</AltitudeMeters>
            <DistanceMeters>NAN</DistanceMeters>
          </Trackpoint>
          <Trackpoint>
            <Time>2022-09-24T15:14:41.000Z</Time>
            <Position>
              <LatitudeDegrees>43.28249012120068073272705078125</LatitudeDegrees>
              <LongitudeDegrees>-2.7574102766811847686767578125</LongitudeDegrees>
            </Position>
            <AltitudeMeters>271.399993896484375</AltitudeMeters>
            <DistanceMeters>NAN</DistanceMeters>
          </Trackpoint>
          <Trackpoint>
            <Time>2022-09-24T15:14:42.000Z</Time>
            <Position>
              <LatitudeDegrees>43.28252264298498630523681640625</LatitudeDegrees>
              <LongitudeDegrees>-2.75741337798535823822021484375</LongitudeDegrees>
            </Position>
            <AltitudeMeters>271.79998779296875</AltitudeMeters>
            <DistanceMeters>NAN</DistanceMeters>
          </Trackpoint>
          <Trackpoint>
            <Time>2022-09-24T15:14:43.000Z</Time>
            <Position>
              <LatitudeDegrees>43.28255541622638702392578125</LatitudeDegrees>
              <LongitudeDegrees>-2.75741455145180225372314453125</LongitudeDegrees>
            </Position>
            <AltitudeMeters>272</AltitudeMeters>
            <DistanceMeters>NAN</DistanceMeters>
          </Trackpoint>
          <Trackpoint>
            <Time>2022-09-24T15:14:44.000Z</Time>
            <Position>
              <LatitudeDegrees>43.28258718363940715789794921875</LatitudeDegrees>
              <LongitudeDegrees>-2.7574159763753414154052734375</LongitudeDegrees>
            </Position>
            <AltitudeMeters>272</AltitudeMeters>
            <DistanceMeters>NAN</DistanceMeters>
          </Trackpoint>
          <Trackpoint>
            <Time>2022-09-24T15:14:45.000Z</Time>
            <Position>
              <LatitudeDegrees>43.28261978924274444580078125</LatitudeDegrees>
              <LongitudeDegrees>-2.75741354562342166900634765625</LongitudeDegrees>
            </Position>
            <AltitudeMeters>272</AltitudeMeters>
            <DistanceMeters>NAN</DistanceMeters>
          </Trackpoint>
          <Trackpoint>
            <Time>2022-09-24T15:14:46.000Z</Time>
            <Position>
              <LatitudeDegrees>43.28265155665576457977294921875</LatitudeDegrees>
              <LongitudeDegrees>-2.7574146352708339691162109375</LongitudeDegrees>
            </Position>
            <AltitudeMeters>272.20001220703125</AltitudeMeters>
            <DistanceMeters>NAN</DistanceMeters>
          </Trackpoint>
          <Trackpoint>
            <Time>2022-09-24T15:14:47.000Z</Time>
            <Position>
              <LatitudeDegrees>43.28265155665576457977294921875</LatitudeDegrees>
              <LongitudeDegrees>-2.7574146352708339691162109375</LongitudeDegrees>
            </Position>
            <AltitudeMeters>272.399993896484375</AltitudeMeters>
            <DistanceMeters>NAN</DistanceMeters>
          </Trackpoint>
          <Trackpoint>
            <Time>2022-09-24T15:14:48.000Z</Time>
            <Position>
              <LatitudeDegrees>43.2827084697782993316650390625</LatitudeDegrees>
              <LongitudeDegrees>-2.7574248611927032470703125</LongitudeDegrees>
            </Position>
            <AltitudeMeters>272.600006103515625</AltitudeMeters>
            <DistanceMeters>NAN</DistanceMeters>
          </Trackpoint>
          <Trackpoint>
            <Time>2022-09-24T15:14:49.000Z</Time>
            <Position>
              <LatitudeDegrees>43.2827393151819705963134765625</LatitudeDegrees>
              <LongitudeDegrees>-2.75742611847817897796630859375</LongitudeDegrees>
            </Position>
            <AltitudeMeters>272.600006103515625</AltitudeMeters>
            <DistanceMeters>NAN</DistanceMeters>
          </Trackpoint>
          <Trackpoint>
            <Time>2022-09-24T15:14:50.000Z</Time>
            <Position>
              <LatitudeDegrees>43.2827701605856418609619140625</LatitudeDegrees>
              <LongitudeDegrees>-2.75742628611624240875244140625</LongitudeDegrees>
            </Position>
            <AltitudeMeters>272.79998779296875</AltitudeMeters>
            <DistanceMeters>NAN</DistanceMeters>
          </Trackpoint>
          <Trackpoint>
            <Time>2022-09-24T15:14:51.000Z</Time>
            <Position>
              <LatitudeDegrees>43.2828000001609325408935546875</LatitudeDegrees>
              <LongitudeDegrees>-2.75742645375430583953857421875</LongitudeDegrees>
            </Position>
            <AltitudeMeters>272.79998779296875</AltitudeMeters>
            <DistanceMeters>NAN</DistanceMeters>
          </Trackpoint>
          <Trackpoint>
            <Time>2022-09-24T15:14:52.000Z</Time>
            <Position>
              <LatitudeDegrees>43.2828301750123500823974609375</LatitudeDegrees>
              <LongitudeDegrees>-2.75742829777300357818603515625</LongitudeDegrees>
            </Position>
            <AltitudeMeters>272.79998779296875</AltitudeMeters>
            <DistanceMeters>NAN</DistanceMeters>
          </Trackpoint>
          <Trackpoint>
            <Time>2022-09-24T15:14:53.000Z</Time>
            <Position>
              <LatitudeDegrees>43.2828613556921482086181640625</LatitudeDegrees>
              <LongitudeDegrees>-2.75743047706782817840576171875</LongitudeDegrees>
            </Position>
            <AltitudeMeters>273</AltitudeMeters>
            <DistanceMeters>NAN</DistanceMeters>
          </Trackpoint>
          <Trackpoint>
            <Time>2022-09-24T15:14:54.000Z</Time>
            <Position>
              <LatitudeDegrees>43.2828922010958194732666015625</LatitudeDegrees>
              <LongitudeDegrees>-2.7574327401816844940185546875</LongitudeDegrees>
            </Position>
            <AltitudeMeters>273</AltitudeMeters>
            <DistanceMeters>NAN</DistanceMeters>
          </Trackpoint>
          <Trackpoint>
            <Time>2022-09-24T15:14:55.000Z</Time>
            <Position>
              <LatitudeDegrees>43.28292019665241241455078125</LatitudeDegrees>
              <LongitudeDegrees>-2.75743701495230197906494140625</LongitudeDegrees>
            </Position>
            <AltitudeMeters>273</AltitudeMeters>
            <DistanceMeters>NAN</DistanceMeters>
          </Trackpoint>
          <Trackpoint>
            <Time>2022-09-24T15:14:56.000Z</Time>
            <Position>
              <LatitudeDegrees>43.28294827602803707122802734375</LatitudeDegrees>
              <LongitudeDegrees>-2.7574409544467926025390625</LongitudeDegrees>
            </Position>
            <AltitudeMeters>273.399993896484375</AltitudeMeters>
            <DistanceMeters>NAN</DistanceMeters>
          </Trackpoint>
          <Trackpoint>
            <Time>2022-09-24T15:14:57.000Z</Time>
            <Position>
              <LatitudeDegrees>43.2829787023365497589111328125</LatitudeDegrees>
              <LongitudeDegrees>-2.7574436366558074951171875</LongitudeDegrees>
            </Position>
            <AltitudeMeters>273.600006103515625</AltitudeMeters>
            <DistanceMeters>NAN</DistanceMeters>
          </Trackpoint>
          <Trackpoint>
            <Time>2022-09-24T15:14:58.000Z</Time>
            <Position>
              <LatitudeDegrees>43.2829787023365497589111328125</LatitudeDegrees>
              <LongitudeDegrees>-2.7574436366558074951171875</LongitudeDegrees>
            </Position>
            <AltitudeMeters>273.600006103515625</AltitudeMeters>
            <DistanceMeters>NAN</DistanceMeters>
          </Trackpoint>
          <Trackpoint>
            <Time>2022-09-24T15:14:59.000Z</Time>
            <Position>
              <LatitudeDegrees>43.2830403931438922882080078125</LatitudeDegrees>
              <LongitudeDegrees>-2.7574501745402812957763671875</LongitudeDegrees>
            </Position>
            <AltitudeMeters>274</AltitudeMeters>
            <DistanceMeters>NAN</DistanceMeters>
          </Trackpoint>
          <Trackpoint>
            <Time>2022-09-24T15:15:00.000Z</Time>
            <Position>
              <LatitudeDegrees>43.28307031653821468353271484375</LatitudeDegrees>
              <LongitudeDegrees>-2.7574538625776767730712890625</LongitudeDegrees>
            </Position>
            <AltitudeMeters>274</AltitudeMeters>
            <DistanceMeters>NAN</DistanceMeters>
          </Trackpoint>
          <Trackpoint>
            <Time>2022-09-24T15:15:01.000Z</Time>
            <Position>
              <LatitudeDegrees>43.283102251589298248291015625</LatitudeDegrees>
              <LongitudeDegrees>-2.75745880790054798126220703125</LongitudeDegrees>
            </Position>
            <AltitudeMeters>274.399993896484375</AltitudeMeters>
            <DistanceMeters>NAN</DistanceMeters>
          </Trackpoint>
          <Trackpoint>
            <Time>2022-09-24T15:15:02.000Z</Time>
            <Position>
              <LatitudeDegrees>43.2831354439258575439453125</LatitudeDegrees>
              <LongitudeDegrees>-2.757462076842784881591796875</LongitudeDegrees>
            </Position>
            <AltitudeMeters>274.600006103515625</AltitudeMeters>
            <DistanceMeters>NAN</DistanceMeters>
          </Trackpoint>
          <Trackpoint>
            <Time>2022-09-24T15:15:03.000Z</Time>
            <Position>
              <LatitudeDegrees>43.2831667922437191009521484375</LatitudeDegrees>
              <LongitudeDegrees>-2.75746551342308521270751953125</LongitudeDegrees>
            </Position>
            <AltitudeMeters>275</AltitudeMeters>
            <DistanceMeters>NAN</DistanceMeters>
          </Trackpoint>
          <Trackpoint>
            <Time>2022-09-24T15:15:04.000Z</Time>
            <Position>
              <LatitudeDegrees>43.2831989787518978118896484375</LatitudeDegrees>
              <LongitudeDegrees>-2.75746450759470462799072265625</LongitudeDegrees>
            </Position>
            <AltitudeMeters>275.399993896484375</AltitudeMeters>
            <DistanceMeters>NAN</DistanceMeters>
          </Trackpoint>
          <Trackpoint>
            <Time>2022-09-24T15:15:05.000Z</Time>
            <Position>
              <LatitudeDegrees>43.28323493711650371551513671875</LatitudeDegrees>
              <LongitudeDegrees>-2.7574669383466243743896484375</LongitudeDegrees>
            </Position>
            <AltitudeMeters>275.600006103515625</AltitudeMeters>
            <DistanceMeters>NAN</DistanceMeters>
          </Trackpoint>
          <Trackpoint>
            <Time>2022-09-24T15:15:06.000Z</Time>
            <Position>
              <LatitudeDegrees>43.2832703925669193267822265625</LatitudeDegrees>
              <LongitudeDegrees>-2.7574719674885272979736328125</LongitudeDegrees>
            </Position>
            <AltitudeMeters>275.79998779296875</AltitudeMeters>
            <DistanceMeters>NAN</DistanceMeters>
          </Trackpoint>
          <Trackpoint>
            <Time>2022-09-24T15:15:07.000Z</Time>
            <Position>
              <LatitudeDegrees>43.28330383636057376861572265625</LatitudeDegrees>
              <LongitudeDegrees>-2.75748210959136486053466796875</LongitudeDegrees>
            </Position>
            <AltitudeMeters>276</AltitudeMeters>
            <DistanceMeters>NAN</DistanceMeters>
          </Trackpoint>
          <Trackpoint>
            <Time>2022-09-24T15:15:08.000Z</Time>
            <Position>
              <LatitudeDegrees>43.2833394594490528106689453125</LatitudeDegrees>
              <LongitudeDegrees>-2.7574907429516315460205078125</LongitudeDegrees>
            </Position>
            <AltitudeMeters>276.20001220703125</AltitudeMeters>
            <DistanceMeters>NAN</DistanceMeters>
          </Trackpoint>
          <Trackpoint>
            <Time>2022-09-24T15:15:09.000Z</Time>
            <Position>
              <LatitudeDegrees>43.2833768427371978759765625</LatitudeDegrees>
              <LongitudeDegrees>-2.757494263350963592529296875</LongitudeDegrees>
            </Position>
            <AltitudeMeters>276.20001220703125</AltitudeMeters>
            <DistanceMeters>NAN</DistanceMeters>
          </Trackpoint>
          <Trackpoint>
            <Time>2022-09-24T15:15:10.000Z</Time>
            <Position>
              <LatitudeDegrees>43.2834159024059772491455078125</LatitudeDegrees>
              <LongitudeDegrees>-2.75749795138835906982421875</LongitudeDegrees>
            </Position>
            <AltitudeMeters>276.20001220703125</AltitudeMeters>
            <DistanceMeters>NAN</DistanceMeters>
          </Trackpoint>
          <Trackpoint>
            <Time>2022-09-24T15:15:11.000Z</Time>
            <Position>
              <LatitudeDegrees>43.2834578119218349456787109375</LatitudeDegrees>
              <LongitudeDegrees>-2.757501639425754547119140625</LongitudeDegrees>
            </Position>
            <AltitudeMeters>276.20001220703125</AltitudeMeters>
            <DistanceMeters>NAN</DistanceMeters>
          </Trackpoint>
          <Trackpoint>
            <Time>2022-09-24T15:15:12.000Z</Time>
            <Position>
              <LatitudeDegrees>43.283491171896457672119140625</LatitudeDegrees>
              <LongitudeDegrees>-2.75750775821506977081298828125</LongitudeDegrees>
            </Position>
            <AltitudeMeters>276.20001220703125</AltitudeMeters>
            <DistanceMeters>NAN</DistanceMeters>
          </Trackpoint>
          <Trackpoint>
            <Time>2022-09-24T15:15:13.000Z</Time>
            <Position>
              <LatitudeDegrees>43.283533416688442230224609375</LatitudeDegrees>
              <LongitudeDegrees>-2.75751831941306591033935546875</LongitudeDegrees>
            </Position>
            <AltitudeMeters>276.20001220703125</AltitudeMeters>
            <DistanceMeters>NAN</DistanceMeters>
          </Trackpoint>
          <Trackpoint>
            <Time>2022-09-24T15:15:14.000Z</Time>
            <Position>
              <LatitudeDegrees>43.2835768349468708038330078125</LatitudeDegrees>
              <LongitudeDegrees>-2.757532484829425811767578125</LongitudeDegrees>
            </Position>
            <AltitudeMeters>276</AltitudeMeters>
            <DistanceMeters>NAN</DistanceMeters>
          </Trackpoint>
          <Trackpoint>
            <Time>2022-09-24T15:15:15.000Z</Time>
            <Position>
              <LatitudeDegrees>43.283633328974246978759765625</LatitudeDegrees>
              <LongitudeDegrees>-2.75755603797733783721923828125</LongitudeDegrees>
            </Position>
            <AltitudeMeters>275.79998779296875</AltitudeMeters>
            <DistanceMeters>NAN</DistanceMeters>
          </Trackpoint>
          <Trackpoint>
            <Time>2022-09-24T15:15:16.000Z</Time>
            <Position>
              <LatitudeDegrees>43.28368655405938625335693359375</LatitudeDegrees>
              <LongitudeDegrees>-2.75758084841072559356689453125</LongitudeDegrees>
            </Position>
            <AltitudeMeters>275.600006103515625</AltitudeMeters>
            <DistanceMeters>NAN</DistanceMeters>
          </Trackpoint>
          <Trackpoint>
            <Time>2022-09-24T15:15:17.000Z</Time>
            <Position>
              <LatitudeDegrees>43.28373181633651256561279296875</LatitudeDegrees>
              <LongitudeDegrees>-2.75760079734027385711669921875</LongitudeDegrees>
            </Position>
            <AltitudeMeters>275</AltitudeMeters>
            <DistanceMeters>NAN</DistanceMeters>
          </Trackpoint>
          <Trackpoint>
            <Time>2022-09-24T15:15:18.000Z</Time>
            <Position>
              <LatitudeDegrees>43.28379132784903049468994140625</LatitudeDegrees>
              <LongitudeDegrees>-2.75762812234461307525634765625</LongitudeDegrees>
            </Position>
            <AltitudeMeters>275</AltitudeMeters>
            <DistanceMeters>NAN</DistanceMeters>
          </Trackpoint>
          <Trackpoint>
            <Time>2022-09-24T15:15:19.000Z</Time>
            <Position>
              <LatitudeDegrees>43.28379132784903049468994140625</LatitudeDegrees>
              <LongitudeDegrees>-2.75762812234461307525634765625</LongitudeDegrees>
            </Position>
            <AltitudeMeters>274.79998779296875</AltitudeMeters>
            <DistanceMeters>NAN</DistanceMeters>
          </Trackpoint>
          <Trackpoint>
            <Time>2022-09-24T15:15:20.000Z</Time>
            <Position>
              <LatitudeDegrees>43.28393566422164440155029296875</LatitudeDegrees>
              <LongitudeDegrees>-2.7576989494264125823974609375</LongitudeDegrees>
            </Position>
            <AltitudeMeters>274</AltitudeMeters>
            <DistanceMeters>NAN</DistanceMeters>
          </Trackpoint>
          <Trackpoint>
            <Time>2022-09-24T15:15:21.000Z</Time>
            <Position>
              <LatitudeDegrees>43.28399349935352802276611328125</LatitudeDegrees>
              <LongitudeDegrees>-2.75772937573492527008056640625</LongitudeDegrees>
            </Position>
            <AltitudeMeters>273.600006103515625</AltitudeMeters>
            <DistanceMeters>NAN</DistanceMeters>
          </Trackpoint>
          <Trackpoint>
            <Time>2022-09-24T15:15:22.000Z</Time>
            <Position>
              <LatitudeDegrees>43.28406742773950099945068359375</LatitudeDegrees>
              <LongitudeDegrees>-2.75776726193726062774658203125</LongitudeDegrees>
            </Position>
            <AltitudeMeters>273.20001220703125</AltitudeMeters>
            <DistanceMeters>NAN</DistanceMeters>
          </Trackpoint>
          <Trackpoint>
            <Time>2022-09-24T15:15:23.000Z</Time>
            <Position>
              <LatitudeDegrees>43.28416214324533939361572265625</LatitudeDegrees>
              <LongitudeDegrees>-2.75781436823308467864990234375</LongitudeDegrees>
            </Position>
            <AltitudeMeters>272.79998779296875</AltitudeMeters>
            <DistanceMeters>NAN</DistanceMeters>
          </Trackpoint>
          <Trackpoint>
            <Time>2022-09-24T15:15:24.000Z</Time>
            <Position>
              <LatitudeDegrees>43.28424948267638683319091796875</LatitudeDegrees>
              <LongitudeDegrees>-2.75785778649151325225830078125</LongitudeDegrees>
            </Position>
            <AltitudeMeters>272.79998779296875</AltitudeMeters>
            <DistanceMeters>NAN</DistanceMeters>
          </Trackpoint>
          <Trackpoint>
            <Time>2022-09-24T15:15:25.000Z</Time>
            <Position>
              <LatitudeDegrees>43.28433983959257602691650390625</LatitudeDegrees>
              <LongitudeDegrees>-2.757903300225734710693359375</LongitudeDegrees>
            </Position>
            <AltitudeMeters>271.600006103515625</AltitudeMeters>
            <DistanceMeters>NAN</DistanceMeters>
          </Trackpoint>
          <Trackpoint>
            <Time>2022-09-24T15:15:26.000Z</Time>
            <Position>
              <LatitudeDegrees>43.2844334654510021209716796875</LatitudeDegrees>
              <LongitudeDegrees>-2.7579571120440959930419921875</LongitudeDegrees>
            </Position>
            <AltitudeMeters>271.20001220703125</AltitudeMeters>
            <DistanceMeters>NAN</DistanceMeters>
          </Trackpoint>
          <Trackpoint>
            <Time>2022-09-24T15:15:27.000Z</Time>
            <Position>
              <LatitudeDegrees>43.28450580127537250518798828125</LatitudeDegrees>
              <LongitudeDegrees>-2.75801025331020355224609375</LongitudeDegrees>
            </Position>
            <AltitudeMeters>270.79998779296875</AltitudeMeters>
            <DistanceMeters>NAN</DistanceMeters>
          </Trackpoint>
          <Trackpoint>
            <Time>2022-09-24T15:15:28.000Z</Time>
            <Position>
              <LatitudeDegrees>43.28459322452545166015625</LatitudeDegrees>
              <LongitudeDegrees>-2.758087031543254852294921875</LongitudeDegrees>
            </Position>
            <AltitudeMeters>266.600006103515625</AltitudeMeters>
            <DistanceMeters>NAN</DistanceMeters>
          </Trackpoint>
          <Trackpoint>
            <Time>2022-09-24T15:15:29.000Z</Time>
            <Position>
              <LatitudeDegrees>43.28467193059623241424560546875</LatitudeDegrees>
              <LongitudeDegrees>-2.7581844292581081390380859375</LongitudeDegrees>
            </Position>
            <AltitudeMeters>266.600006103515625</AltitudeMeters>
            <DistanceMeters>NAN</DistanceMeters>
          </Trackpoint>
          <Trackpoint>
            <Time>2022-09-24T15:15:30.000Z</Time>
            <Position>
              <LatitudeDegrees>43.28473429195582866668701171875</LatitudeDegrees>
              <LongitudeDegrees>-2.75830135680735111236572265625</LongitudeDegrees>
            </Position>
            <AltitudeMeters>266.399993896484375</AltitudeMeters>
            <DistanceMeters>NAN</DistanceMeters>
          </Trackpoint>
          <Trackpoint>
            <Time>2022-09-24T15:15:31.000Z</Time>
            <Position>
              <LatitudeDegrees>43.28478625975549221038818359375</LatitudeDegrees>
              <LongitudeDegrees>-2.75846815668046474456787109375</LongitudeDegrees>
            </Position>
            <AltitudeMeters>266.399993896484375</AltitudeMeters>
            <DistanceMeters>NAN</DistanceMeters>
          </Trackpoint>
          <Trackpoint>
            <Time>2022-09-24T15:15:32.000Z</Time>
            <Position>
              <LatitudeDegrees>43.2848123274743556976318359375</LatitudeDegrees>
              <LongitudeDegrees>-2.75859271176159381866455078125</LongitudeDegrees>
            </Position>
            <AltitudeMeters>265.600006103515625</AltitudeMeters>
            <DistanceMeters>NAN</DistanceMeters>
          </Trackpoint>
          <Trackpoint>
            <Time>2022-09-24T15:15:33.000Z</Time>
            <Position>
              <LatitudeDegrees>43.2848582603037357330322265625</LatitudeDegrees>
              <LongitudeDegrees>-2.75875515304505825042724609375</LongitudeDegrees>
            </Position>
            <AltitudeMeters>265.20001220703125</AltitudeMeters>
            <DistanceMeters>NAN</DistanceMeters>
          </Trackpoint>
          <Trackpoint>
            <Time>2022-09-24T15:15:34.000Z</Time>
            <Position>
              <LatitudeDegrees>43.28491936437785625457763671875</LatitudeDegrees>
              <LongitudeDegrees>-2.75895162485539913177490234375</LongitudeDegrees>
            </Position>
            <AltitudeMeters>265.600006103515625</AltitudeMeters>
            <DistanceMeters>NAN</DistanceMeters>
          </Trackpoint>
          <Trackpoint>
            <Time>2022-09-24T15:15:35.000Z</Time>
            <Position>
              <LatitudeDegrees>43.28495054505765438079833984375</LatitudeDegrees>
              <LongitudeDegrees>-2.7590839751064777374267578125</LongitudeDegrees>
            </Position>
            <AltitudeMeters>265.20001220703125</AltitudeMeters>
            <DistanceMeters>NAN</DistanceMeters>
          </Trackpoint>
          <Trackpoint>
            <Time>2022-09-24T15:15:36.000Z</Time>
            <Position>
              <LatitudeDegrees>43.2849893532693386077880859375</LatitudeDegrees>
              <LongitudeDegrees>-2.7592408843338489532470703125</LongitudeDegrees>
            </Position>
            <AltitudeMeters>264.399993896484375</AltitudeMeters>
            <DistanceMeters>NAN</DistanceMeters>
          </Trackpoint>
          <Trackpoint>
            <Time>2022-09-24T15:15:37.000Z</Time>
            <Position>
              <LatitudeDegrees>43.28503067605197429656982421875</LatitudeDegrees>
              <LongitudeDegrees>-2.759386561810970306396484375</LongitudeDegrees>
            </Position>
            <AltitudeMeters>263.600006103515625</AltitudeMeters>
            <DistanceMeters>NAN</DistanceMeters>
          </Trackpoint>
          <Trackpoint>
            <Time>2022-09-24T15:15:38.000Z</Time>
            <Position>
              <LatitudeDegrees>43.2851164229214191436767578125</LatitudeDegrees>
              <LongitudeDegrees>-2.7595473267138004302978515625</LongitudeDegrees>
            </Position>
            <AltitudeMeters>263.600006103515625</AltitudeMeters>
            <DistanceMeters>NAN</DistanceMeters>
          </Trackpoint>
          <Trackpoint>
            <Time>2022-09-24T15:15:39.000Z</Time>
            <Position>
              <LatitudeDegrees>43.28520585782825946807861328125</LatitudeDegrees>
              <LongitudeDegrees>-2.75966324843466281890869140625</LongitudeDegrees>
            </Position>
            <AltitudeMeters>263</AltitudeMeters>
            <DistanceMeters>NAN</DistanceMeters>
          </Trackpoint>
          <Trackpoint>
            <Time>2022-09-24T15:15:40.000Z</Time>
            <Position>
              <LatitudeDegrees>43.2852931134402751922607421875</LatitudeDegrees>
              <LongitudeDegrees>-2.7597347460687160491943359375</LongitudeDegrees>
            </Position>
            <AltitudeMeters>261</AltitudeMeters>
            <DistanceMeters>NAN</DistanceMeters>
          </Trackpoint>
          <Trackpoint>
            <Time>2022-09-24T15:15:41.000Z</Time>
            <Position>
              <LatitudeDegrees>43.28540484420955181121826171875</LatitudeDegrees>
              <LongitudeDegrees>-2.75981127284467220306396484375</LongitudeDegrees>
            </Position>
            <AltitudeMeters>260.79998779296875</AltitudeMeters>
            <DistanceMeters>NAN</DistanceMeters>
          </Trackpoint>
          <Trackpoint>
            <Time>2022-09-24T15:15:42.000Z</Time>
            <Position>
              <LatitudeDegrees>43.28540484420955181121826171875</LatitudeDegrees>
              <LongitudeDegrees>-2.75981127284467220306396484375</LongitudeDegrees>
            </Position>
            <AltitudeMeters>259</AltitudeMeters>
            <DistanceMeters>NAN</DistanceMeters>
          </Trackpoint>
          <Trackpoint>
            <Time>2022-09-24T15:15:43.000Z</Time>
            <Position>
              <LatitudeDegrees>43.28567809425294399261474609375</LatitudeDegrees>
              <LongitudeDegrees>-2.75992895476520061492919921875</LongitudeDegrees>
            </Position>
            <AltitudeMeters>258</AltitudeMeters>
            <DistanceMeters>NAN</DistanceMeters>
          </Trackpoint>
          <Trackpoint>
            <Time>2022-09-24T15:15:44.000Z</Time>
            <Position>
              <LatitudeDegrees>43.28580717556178569793701171875</LatitudeDegrees>
              <LongitudeDegrees>-2.75997170247137546539306640625</LongitudeDegrees>
            </Position>
            <AltitudeMeters>257.600006103515625</AltitudeMeters>
            <DistanceMeters>NAN</DistanceMeters>
          </Trackpoint>
          <Trackpoint>
            <Time>2022-09-24T15:15:45.000Z</Time>
            <Position>
              <LatitudeDegrees>43.2859093509614467620849609375</LatitudeDegrees>
              <LongitudeDegrees>-2.760013528168201446533203125</LongitudeDegrees>
            </Position>
            <AltitudeMeters>257.600006103515625</AltitudeMeters>
            <DistanceMeters>NAN</DistanceMeters>
          </Trackpoint>
          <Trackpoint>
            <Time>2022-09-24T15:15:46.000Z</Time>
            <Position>
              <LatitudeDegrees>43.286033570766448974609375</LatitudeDegrees>
              <LongitudeDegrees>-2.760081253945827484130859375</LongitudeDegrees>
            </Position>
            <AltitudeMeters>257</AltitudeMeters>
            <DistanceMeters>NAN</DistanceMeters>
          </Trackpoint>
          <Trackpoint>
            <Time>2022-09-24T15:15:47.000Z</Time>
            <Position>
              <LatitudeDegrees>43.2861973531544208526611328125</LatitudeDegrees>
              <LongitudeDegrees>-2.76018762029707431793212890625</LongitudeDegrees>
            </Position>
            <AltitudeMeters>255.8000030517578125</AltitudeMeters>
            <DistanceMeters>NAN</DistanceMeters>
          </Trackpoint>
          <Trackpoint>
            <Time>2022-09-24T15:15:48.000Z</Time>
            <Position>
              <LatitudeDegrees>43.28629709780216217041015625</LatitudeDegrees>
              <LongitudeDegrees>-2.76025786064565181732177734375</LongitudeDegrees>
            </Position>
            <AltitudeMeters>254.8000030517578125</AltitudeMeters>
            <DistanceMeters>NAN</DistanceMeters>
          </Trackpoint>
          <Trackpoint>
            <Time>2022-09-24T15:15:49.000Z</Time>
            <Position>
              <LatitudeDegrees>43.2864216528832912445068359375</LatitudeDegrees>
              <LongitudeDegrees>-2.7603794820606708526611328125</LongitudeDegrees>
            </Position>
            <AltitudeMeters>253.399993896484375</AltitudeMeters>
            <DistanceMeters>NAN</DistanceMeters>
          </Trackpoint>
          <Trackpoint>
            <Time>2022-09-24T15:15:50.000Z</Time>
            <Position>
              <LatitudeDegrees>43.2865051366388797760009765625</LatitudeDegrees>
              <LongitudeDegrees>-2.76049339212477207183837890625</LongitudeDegrees>
            </Position>
            <AltitudeMeters>253.1999969482421875</AltitudeMeters>
            <DistanceMeters>NAN</DistanceMeters>
          </Trackpoint>
          <Trackpoint>
            <Time>2022-09-24T15:15:51.000Z</Time>
            <Position>
              <LatitudeDegrees>43.2865671627223491668701171875</LatitudeDegrees>
              <LongitudeDegrees>-2.7605833299458026885986328125</LongitudeDegrees>
            </Position>
            <AltitudeMeters>252.1999969482421875</AltitudeMeters>
            <DistanceMeters>NAN</DistanceMeters>
          </Trackpoint>
          <Trackpoint>
            <Time>2022-09-24T15:15:52.000Z</Time>
            <Position>
              <LatitudeDegrees>43.2865671627223491668701171875</LatitudeDegrees>
              <LongitudeDegrees>-2.7605833299458026885986328125</LongitudeDegrees>
            </Position>
            <AltitudeMeters>251.8000030517578125</AltitudeMeters>
            <DistanceMeters>NAN</DistanceMeters>
          </Trackpoint>
          <Trackpoint>
            <Time>2022-09-24T15:15:53.000Z</Time>
            <Position>
              <LatitudeDegrees>43.28674745745956897735595703125</LatitudeDegrees>
              <LongitudeDegrees>-2.76077871210873126983642578125</LongitudeDegrees>
            </Position>
            <AltitudeMeters>251</AltitudeMeters>
            <DistanceMeters>NAN</DistanceMeters>
          </Trackpoint>
          <Trackpoint>
            <Time>2022-09-24T15:15:54.000Z</Time>
            <Position>
              <LatitudeDegrees>43.28685491345822811126708984375</LatitudeDegrees>
              <LongitudeDegrees>-2.7608327753841876983642578125</LongitudeDegrees>
            </Position>
            <AltitudeMeters>251</AltitudeMeters>
            <DistanceMeters>NAN</DistanceMeters>
          </Trackpoint>
          <Trackpoint>
            <Time>2022-09-24T15:15:55.000Z</Time>
            <Position>
              <LatitudeDegrees>43.2869725115597248077392578125</LatitudeDegrees>
              <LongitudeDegrees>-2.7608259022235870361328125</LongitudeDegrees>
            </Position>
            <AltitudeMeters>249.399993896484375</AltitudeMeters>
            <DistanceMeters>NAN</DistanceMeters>
          </Trackpoint>
          <Trackpoint>
            <Time>2022-09-24T15:15:56.000Z</Time>
            <Position>
              <LatitudeDegrees>43.28709379769861698150634765625</LatitudeDegrees>
              <LongitudeDegrees>-2.76079581119120121002197265625</LongitudeDegrees>
            </Position>
            <AltitudeMeters>249.1999969482421875</AltitudeMeters>
            <DistanceMeters>NAN</DistanceMeters>
          </Trackpoint>
          <Trackpoint>
            <Time>2022-09-24T15:15:57.000Z</Time>
            <Position>
              <LatitudeDegrees>43.28722069971263408660888671875</LatitudeDegrees>
              <LongitudeDegrees>-2.76076664216816425323486328125</LongitudeDegrees>
            </Position>
            <AltitudeMeters>247.600006103515625</AltitudeMeters>
            <DistanceMeters>NAN</DistanceMeters>
          </Trackpoint>
          <Trackpoint>
            <Time>2022-09-24T15:15:58.000Z</Time>
            <Position>
              <LatitudeDegrees>43.28733972273766994476318359375</LatitudeDegrees>
              <LongitudeDegrees>-2.760738395154476165771484375</LongitudeDegrees>
            </Position>
            <AltitudeMeters>246.600006103515625</AltitudeMeters>
            <DistanceMeters>NAN</DistanceMeters>
          </Trackpoint>
          <Trackpoint>
            <Time>2022-09-24T15:15:59.000Z</Time>
            <Position>
              <LatitudeDegrees>43.28745824284851551055908203125</LatitudeDegrees>
              <LongitudeDegrees>-2.76072456501424312591552734375</LongitudeDegrees>
            </Position>
            <AltitudeMeters>246</AltitudeMeters>
            <DistanceMeters>NAN</DistanceMeters>
          </Trackpoint>
          <Trackpoint>
            <Time>2022-09-24T15:16:00.000Z</Time>
            <Position>
              <LatitudeDegrees>43.28758279792964458465576171875</LatitudeDegrees>
              <LongitudeDegrees>-2.76073479093611240386962890625</LongitudeDegrees>
            </Position>
            <AltitudeMeters>244</AltitudeMeters>
            <DistanceMeters>NAN</DistanceMeters>
          </Trackpoint>
          <Trackpoint>
            <Time>2022-09-24T15:16:01.000Z</Time>
            <Position>
              <LatitudeDegrees>43.28770869411528110504150390625</LatitudeDegrees>
              <LongitudeDegrees>-2.7607751078903675079345703125</LongitudeDegrees>
            </Position>
            <AltitudeMeters>243.8000030517578125</AltitudeMeters>
            <DistanceMeters>NAN</DistanceMeters>
          </Trackpoint>
          <Trackpoint>
            <Time>2022-09-24T15:16:02.000Z</Time>
            <Position>
              <LatitudeDegrees>43.28783324919641017913818359375</LatitudeDegrees>
              <LongitudeDegrees>-2.76082816533744335174560546875</LongitudeDegrees>
            </Position>
            <AltitudeMeters>242.8000030517578125</AltitudeMeters>
            <DistanceMeters>NAN</DistanceMeters>
          </Trackpoint>
          <Trackpoint>
            <Time>2022-09-24T15:16:03.000Z</Time>
            <Position>
              <LatitudeDegrees>43.28794975765049457550048828125</LatitudeDegrees>
              <LongitudeDegrees>-2.760889269411563873291015625</LongitudeDegrees>
            </Position>
            <AltitudeMeters>241.8000030517578125</AltitudeMeters>
            <DistanceMeters>NAN</DistanceMeters>
          </Trackpoint>
          <Trackpoint>
            <Time>2022-09-24T15:16:04.000Z</Time>
            <Position>
              <LatitudeDegrees>43.28806425444781780242919921875</LatitudeDegrees>
              <LongitudeDegrees>-2.76096713729202747344970703125</LongitudeDegrees>
            </Position>
            <AltitudeMeters>241.8000030517578125</AltitudeMeters>
            <DistanceMeters>NAN</DistanceMeters>
          </Trackpoint>
          <Trackpoint>
            <Time>2022-09-24T15:16:05.000Z</Time>
            <Position>
              <LatitudeDegrees>43.288177661597728729248046875</LatitudeDegrees>
              <LongitudeDegrees>-2.76105196215212345123291015625</LongitudeDegrees>
            </Position>
            <AltitudeMeters>241</AltitudeMeters>
            <DistanceMeters>NAN</DistanceMeters>
          </Trackpoint>
          <Trackpoint>
            <Time>2022-09-24T15:16:06.000Z</Time>
            <Position>
              <LatitudeDegrees>43.28828922472894191741943359375</LatitudeDegrees>
              <LongitudeDegrees>-2.7611397206783294677734375</LongitudeDegrees>
            </Position>
            <AltitudeMeters>240</AltitudeMeters>
            <DistanceMeters>NAN</DistanceMeters>
          </Trackpoint>
          <Trackpoint>
            <Time>2022-09-24T15:16:07.000Z</Time>
            <Position>
              <LatitudeDegrees>43.28840003348886966705322265625</LatitudeDegrees>
              <LongitudeDegrees>-2.7612334303557872772216796875</LongitudeDegrees>
            </Position>
            <AltitudeMeters>239.8000030517578125</AltitudeMeters>
            <DistanceMeters>NAN</DistanceMeters>
          </Trackpoint>
          <Trackpoint>
            <Time>2022-09-24T15:16:08.000Z</Time>
            <Position>
              <LatitudeDegrees>43.28850665129721164703369140625</LatitudeDegrees>
              <LongitudeDegrees>-2.7613309957087039947509765625</LongitudeDegrees>
            </Position>
            <AltitudeMeters>238.399993896484375</AltitudeMeters>
            <DistanceMeters>NAN</DistanceMeters>
          </Trackpoint>
          <Trackpoint>
            <Time>2022-09-24T15:16:09.000Z</Time>
            <Position>
              <LatitudeDegrees>43.28861326910555362701416015625</LatitudeDegrees>
              <LongitudeDegrees>-2.76143333874642848968505859375</LongitudeDegrees>
            </Position>
            <AltitudeMeters>237.600006103515625</AltitudeMeters>
            <DistanceMeters>NAN</DistanceMeters>
          </Trackpoint>
          <Trackpoint>
            <Time>2022-09-24T15:16:10.000Z</Time>
            <Position>
              <LatitudeDegrees>43.28871619887650012969970703125</LatitudeDegrees>
              <LongitudeDegrees>-2.7615435607731342315673828125</LongitudeDegrees>
            </Position>
            <AltitudeMeters>237</AltitudeMeters>
            <DistanceMeters>NAN</DistanceMeters>
          </Trackpoint>
          <Trackpoint>
            <Time>2022-09-24T15:16:11.000Z</Time>
            <Position>
              <LatitudeDegrees>43.28882130794227123260498046875</LatitudeDegrees>
              <LongitudeDegrees>-2.761659063398838043212890625</LongitudeDegrees>
            </Position>
            <AltitudeMeters>235.1999969482421875</AltitudeMeters>
            <DistanceMeters>NAN</DistanceMeters>
          </Trackpoint>
          <Trackpoint>
            <Time>2022-09-24T15:16:12.000Z</Time>
            <Position>
              <LatitudeDegrees>43.28892608173191547393798828125</LatitudeDegrees>
              <LongitudeDegrees>-2.7617715485394001007080078125</LongitudeDegrees>
            </Position>
            <AltitudeMeters>231.600006103515625</AltitudeMeters>
            <DistanceMeters>NAN</DistanceMeters>
          </Trackpoint>
          <Trackpoint>
            <Time>2022-09-24T15:16:13.000Z</Time>
            <Position>
              <LatitudeDegrees>43.28903186134994029998779296875</LatitudeDegrees>
              <LongitudeDegrees>-2.761891074478626251220703125</LongitudeDegrees>
            </Position>
            <AltitudeMeters>230.8000030517578125</AltitudeMeters>
            <DistanceMeters>NAN</DistanceMeters>
          </Trackpoint>
          <Trackpoint>
            <Time>2022-09-24T15:16:14.000Z</Time>
            <Position>
              <LatitudeDegrees>43.289140574634075164794921875</LatitudeDegrees>
              <LongitudeDegrees>-2.76200649328529834747314453125</LongitudeDegrees>
            </Position>
            <AltitudeMeters>230.8000030517578125</AltitudeMeters>
            <DistanceMeters>NAN</DistanceMeters>
          </Trackpoint>
          <Trackpoint>
            <Time>2022-09-24T15:16:15.000Z</Time>
            <Position>
              <LatitudeDegrees>43.28924777917563915252685546875</LatitudeDegrees>
              <LongitudeDegrees>-2.76212233118712902069091796875</LongitudeDegrees>
            </Position>
            <AltitudeMeters>229.600006103515625</AltitudeMeters>
            <DistanceMeters>NAN</DistanceMeters>
          </Trackpoint>
          <Trackpoint>
            <Time>2022-09-24T15:16:16.000Z</Time>
            <Position>
              <LatitudeDegrees>43.2893501222133636474609375</LatitudeDegrees>
              <LongitudeDegrees>-2.76223766617476940155029296875</LongitudeDegrees>
            </Position>
            <AltitudeMeters>229.399993896484375</AltitudeMeters>
            <DistanceMeters>NAN</DistanceMeters>
          </Trackpoint>
          <Trackpoint>
            <Time>2022-09-24T15:16:17.000Z</Time>
            <Position>
              <LatitudeDegrees>43.28944844193756580352783203125</LatitudeDegrees>
              <LongitudeDegrees>-2.7623542584478855133056640625</LongitudeDegrees>
            </Position>
            <AltitudeMeters>229.399993896484375</AltitudeMeters>
            <DistanceMeters>NAN</DistanceMeters>
          </Trackpoint>
          <Trackpoint>
            <Time>2022-09-24T15:16:18.000Z</Time>
            <Position>
              <LatitudeDegrees>43.28954081051051616668701171875</LatitudeDegrees>
              <LongitudeDegrees>-2.762469090521335601806640625</LongitudeDegrees>
            </Position>
            <AltitudeMeters>228.8000030517578125</AltitudeMeters>
            <DistanceMeters>NAN</DistanceMeters>
          </Trackpoint>
          <Trackpoint>
            <Time>2022-09-24T15:16:19.000Z</Time>
            <Position>
              <LatitudeDegrees>43.28963083215057849884033203125</LatitudeDegrees>
              <LongitudeDegrees>-2.76258601807057857513427734375</LongitudeDegrees>
            </Position>
            <AltitudeMeters>228</AltitudeMeters>
            <DistanceMeters>NAN</DistanceMeters>
          </Trackpoint>
          <Trackpoint>
            <Time>2022-09-24T15:16:20.000Z</Time>
            <Position>
              <LatitudeDegrees>43.2897073589265346527099609375</LatitudeDegrees>
              <LongitudeDegrees>-2.762707136571407318115234375</LongitudeDegrees>
            </Position>
            <AltitudeMeters>227.8000030517578125</AltitudeMeters>
            <DistanceMeters>NAN</DistanceMeters>
          </Trackpoint>
          <Trackpoint>
            <Time>2022-09-24T15:16:21.000Z</Time>
            <Position>
              <LatitudeDegrees>43.28976829536259174346923828125</LatitudeDegrees>
              <LongitudeDegrees>-2.76283688843250274658203125</LongitudeDegrees>
            </Position>
            <AltitudeMeters>227</AltitudeMeters>
            <DistanceMeters>NAN</DistanceMeters>
          </Trackpoint>
          <Trackpoint>
            <Time>2022-09-24T15:16:22.000Z</Time>
            <Position>
              <LatitudeDegrees>43.28976829536259174346923828125</LatitudeDegrees>
              <LongitudeDegrees>-2.76283688843250274658203125</LongitudeDegrees>
            </Position>
            <AltitudeMeters>225.1999969482421875</AltitudeMeters>
            <DistanceMeters>NAN</DistanceMeters>
          </Trackpoint>
          <Trackpoint>
            <Time>2022-09-24T15:16:23.000Z</Time>
            <Position>
              <LatitudeDegrees>43.28986418433487415313720703125</LatitudeDegrees>
              <LongitudeDegrees>-2.7631260640919208526611328125</LongitudeDegrees>
            </Position>
            <AltitudeMeters>223.1999969482421875</AltitudeMeters>
            <DistanceMeters>NAN</DistanceMeters>
          </Trackpoint>
          <Trackpoint>
            <Time>2022-09-24T15:16:24.000Z</Time>
            <Position>
              <LatitudeDegrees>43.2898981310427188873291015625</LatitudeDegrees>
              <LongitudeDegrees>-2.76328054256737232208251953125</LongitudeDegrees>
            </Position>
            <AltitudeMeters>222.1999969482421875</AltitudeMeters>
            <DistanceMeters>NAN</DistanceMeters>
          </Trackpoint>
          <Trackpoint>
            <Time>2022-09-24T15:16:25.000Z</Time>
            <Position>
              <LatitudeDegrees>43.28993006609380245208740234375</LatitudeDegrees>
              <LongitudeDegrees>-2.7634358592331409454345703125</LongitudeDegrees>
            </Position>
            <AltitudeMeters>221.600006103515625</AltitudeMeters>
            <DistanceMeters>NAN</DistanceMeters>
          </Trackpoint>
          <Trackpoint>
            <Time>2022-09-24T15:16:26.000Z</Time>
            <Position>
              <LatitudeDegrees>43.2899896614253520965576171875</LatitudeDegrees>
              <LongitudeDegrees>-2.7635692991316318511962890625</LongitudeDegrees>
            </Position>
            <AltitudeMeters>221.1999969482421875</AltitudeMeters>
            <DistanceMeters>NAN</DistanceMeters>
          </Trackpoint>
          <Trackpoint>
            <Time>2022-09-24T15:16:27.000Z</Time>
            <Position>
              <LatitudeDegrees>43.2900694571435451507568359375</LatitudeDegrees>
              <LongitudeDegrees>-2.76368505321443080902099609375</LongitudeDegrees>
            </Position>
            <AltitudeMeters>221.1999969482421875</AltitudeMeters>
            <DistanceMeters>NAN</DistanceMeters>
          </Trackpoint>
          <Trackpoint>
            <Time>2022-09-24T15:16:28.000Z</Time>
            <Position>
              <LatitudeDegrees>43.29015268944203853607177734375</LatitudeDegrees>
              <LongitudeDegrees>-2.76376518420875072479248046875</LongitudeDegrees>
            </Position>
            <AltitudeMeters>220.8000030517578125</AltitudeMeters>
            <DistanceMeters>NAN</DistanceMeters>
          </Trackpoint>
          <Trackpoint>
            <Time>2022-09-24T15:16:29.000Z</Time>
            <Position>
              <LatitudeDegrees>43.29024723730981349945068359375</LatitudeDegrees>
              <LongitudeDegrees>-2.76380558498203754425048828125</LongitudeDegrees>
            </Position>
            <AltitudeMeters>218.1999969482421875</AltitudeMeters>
            <DistanceMeters>NAN</DistanceMeters>
          </Trackpoint>
          <Trackpoint>
            <Time>2022-09-24T15:16:30.000Z</Time>
            <Position>
              <LatitudeDegrees>43.2903460599482059478759765625</LatitudeDegrees>
              <LongitudeDegrees>-2.76381715200841426849365234375</LongitudeDegrees>
            </Position>
            <AltitudeMeters>217.8000030517578125</AltitudeMeters>
            <DistanceMeters>NAN</DistanceMeters>
          </Trackpoint>
          <Trackpoint>
            <Time>2022-09-24T15:16:31.000Z</Time>
            <Position>
              <LatitudeDegrees>43.29044555313885211944580078125</LatitudeDegrees>
              <LongitudeDegrees>-2.763800807297229766845703125</LongitudeDegrees>
            </Position>
            <AltitudeMeters>217.1999969482421875</AltitudeMeters>
            <DistanceMeters>NAN</DistanceMeters>
          </Trackpoint>
          <Trackpoint>
            <Time>2022-09-24T15:16:32.000Z</Time>
            <Position>
              <LatitudeDegrees>43.29053725115954875946044921875</LatitudeDegrees>
              <LongitudeDegrees>-2.763759233057498931884765625</LongitudeDegrees>
            </Position>
            <AltitudeMeters>214.8000030517578125</AltitudeMeters>
            <DistanceMeters>NAN</DistanceMeters>
          </Trackpoint>
          <Trackpoint>
            <Time>2022-09-24T15:16:33.000Z</Time>
            <Position>
              <LatitudeDegrees>43.29061721451580524444580078125</LatitudeDegrees>
              <LongitudeDegrees>-2.763668708503246307373046875</LongitudeDegrees>
            </Position>
            <AltitudeMeters>212.1999969482421875</AltitudeMeters>
            <DistanceMeters>NAN</DistanceMeters>
          </Trackpoint>
          <Trackpoint>
            <Time>2022-09-24T15:16:34.000Z</Time>
            <Position>
              <LatitudeDegrees>43.29068292863667011260986328125</LatitudeDegrees>
              <LongitudeDegrees>-2.76354138739407062530517578125</LongitudeDegrees>
            </Position>
            <AltitudeMeters>212</AltitudeMeters>
            <DistanceMeters>NAN</DistanceMeters>
          </Trackpoint>
          <Trackpoint>
            <Time>2022-09-24T15:16:35.000Z</Time>
            <Position>
              <LatitudeDegrees>43.290731795132160186767578125</LatitudeDegrees>
              <LongitudeDegrees>-2.7634030021727085113525390625</LongitudeDegrees>
            </Position>
            <AltitudeMeters>211.600006103515625</AltitudeMeters>
            <DistanceMeters>NAN</DistanceMeters>
          </Trackpoint>
          <Trackpoint>
            <Time>2022-09-24T15:16:36.000Z</Time>
            <Position>
              <LatitudeDegrees>43.29075635410845279693603515625</LatitudeDegrees>
              <LongitudeDegrees>-2.76324550621211528778076171875</LongitudeDegrees>
            </Position>
            <AltitudeMeters>211.600006103515625</AltitudeMeters>
            <DistanceMeters>NAN</DistanceMeters>
          </Trackpoint>
          <Trackpoint>
            <Time>2022-09-24T15:16:37.000Z</Time>
            <Position>
              <LatitudeDegrees>43.29076339490711688995361328125</LatitudeDegrees>
              <LongitudeDegrees>-2.76308775879442691802978515625</LongitudeDegrees>
            </Position>
            <AltitudeMeters>211.600006103515625</AltitudeMeters>
            <DistanceMeters>NAN</DistanceMeters>
          </Trackpoint>
          <Trackpoint>
            <Time>2022-09-24T15:16:38.000Z</Time>
            <Position>
              <LatitudeDegrees>43.29074780456721782684326171875</LatitudeDegrees>
              <LongitudeDegrees>-2.76292749680578708648681640625</LongitudeDegrees>
            </Position>
            <AltitudeMeters>210</AltitudeMeters>
            <DistanceMeters>NAN</DistanceMeters>
          </Trackpoint>
          <Trackpoint>
            <Time>2022-09-24T15:16:39.000Z</Time>
            <Position>
              <LatitudeDegrees>43.29072064720094203948974609375</LatitudeDegrees>
              <LongitudeDegrees>-2.762766145169734954833984375</LongitudeDegrees>
            </Position>
            <AltitudeMeters>207.399993896484375</AltitudeMeters>
            <DistanceMeters>NAN</DistanceMeters>
          </Trackpoint>
          <Trackpoint>
            <Time>2022-09-24T15:16:40.000Z</Time>
            <Position>
              <LatitudeDegrees>43.29072064720094203948974609375</LatitudeDegrees>
              <LongitudeDegrees>-2.762766145169734954833984375</LongitudeDegrees>
            </Position>
            <AltitudeMeters>205.1999969482421875</AltitudeMeters>
            <DistanceMeters>NAN</DistanceMeters>
          </Trackpoint>
          <Trackpoint>
            <Time>2022-09-24T15:16:41.000Z</Time>
            <Position>
              <LatitudeDegrees>43.29065778292715549468994140625</LatitudeDegrees>
              <LongitudeDegrees>-2.76243455708026885986328125</LongitudeDegrees>
            </Position>
            <AltitudeMeters>204.8000030517578125</AltitudeMeters>
            <DistanceMeters>NAN</DistanceMeters>
          </Trackpoint>
          <Trackpoint>
            <Time>2022-09-24T15:16:42.000Z</Time>
            <Position>
              <LatitudeDegrees>43.29062576405704021453857421875</LatitudeDegrees>
              <LongitudeDegrees>-2.76226482354104518890380859375</LongitudeDegrees>
            </Position>
            <AltitudeMeters>204.8000030517578125</AltitudeMeters>
            <DistanceMeters>NAN</DistanceMeters>
          </Trackpoint>
          <Trackpoint>
            <Time>2022-09-24T15:16:43.000Z</Time>
            <Position>
              <LatitudeDegrees>43.290590308606624603271484375</LatitudeDegrees>
              <LongitudeDegrees>-2.76209617964923381805419921875</LongitudeDegrees>
            </Position>
            <AltitudeMeters>203.8000030517578125</AltitudeMeters>
            <DistanceMeters>NAN</DistanceMeters>
          </Trackpoint>
          <Trackpoint>
            <Time>2022-09-24T15:16:44.000Z</Time>
            <Position>
              <LatitudeDegrees>43.29055166803300380706787109375</LatitudeDegrees>
              <LongitudeDegrees>-2.76192954741418361663818359375</LongitudeDegrees>
            </Position>
            <AltitudeMeters>203.1999969482421875</AltitudeMeters>
            <DistanceMeters>NAN</DistanceMeters>
          </Trackpoint>
          <Trackpoint>
            <Time>2022-09-24T15:16:45.000Z</Time>
            <Position>
              <LatitudeDegrees>43.2905101776123046875</LatitudeDegrees>
              <LongitudeDegrees>-2.7617685310542583465576171875</LongitudeDegrees>
            </Position>
            <AltitudeMeters>202.399993896484375</AltitudeMeters>
            <DistanceMeters>NAN</DistanceMeters>
          </Trackpoint>
          <Trackpoint>
            <Time>2022-09-24T15:16:46.000Z</Time>
            <Position>
              <LatitudeDegrees>43.2904712855815887451171875</LatitudeDegrees>
              <LongitudeDegrees>-2.7616144716739654541015625</LongitudeDegrees>
            </Position>
            <AltitudeMeters>201.8000030517578125</AltitudeMeters>
            <DistanceMeters>NAN</DistanceMeters>
          </Trackpoint>
          <Trackpoint>
            <Time>2022-09-24T15:16:47.000Z</Time>
            <Position>
              <LatitudeDegrees>43.29044169746339321136474609375</LatitudeDegrees>
              <LongitudeDegrees>-2.76146485470235347747802734375</LongitudeDegrees>
            </Position>
            <AltitudeMeters>201.8000030517578125</AltitudeMeters>
            <DistanceMeters>NAN</DistanceMeters>
          </Trackpoint>
          <Trackpoint>
            <Time>2022-09-24T15:16:48.000Z</Time>
            <Position>
              <LatitudeDegrees>43.29042635858058929443359375</LatitudeDegrees>
              <LongitudeDegrees>-2.76131850667297840118408203125</LongitudeDegrees>
            </Position>
            <AltitudeMeters>201.399993896484375</AltitudeMeters>
            <DistanceMeters>NAN</DistanceMeters>
          </Trackpoint>
          <Trackpoint>
            <Time>2022-09-24T15:16:49.000Z</Time>
            <Position>
              <LatitudeDegrees>43.29042962752282619476318359375</LatitudeDegrees>
              <LongitudeDegrees>-2.761172242462635040283203125</LongitudeDegrees>
            </Position>
            <AltitudeMeters>200.1999969482421875</AltitudeMeters>
            <DistanceMeters>NAN</DistanceMeters>
          </Trackpoint>
          <Trackpoint>
            <Time>2022-09-24T15:16:50.000Z</Time>
            <Position>
              <LatitudeDegrees>43.2904543541371822357177734375</LatitudeDegrees>
              <LongitudeDegrees>-2.76102639734745025634765625</LongitudeDegrees>
            </Position>
            <AltitudeMeters>200.1999969482421875</AltitudeMeters>
            <DistanceMeters>NAN</DistanceMeters>
          </Trackpoint>
          <Trackpoint>
            <Time>2022-09-24T15:16:51.000Z</Time>
            <Position>
              <LatitudeDegrees>43.2905059866607189178466796875</LatitudeDegrees>
              <LongitudeDegrees>-2.76089102961122989654541015625</LongitudeDegrees>
            </Position>
            <AltitudeMeters>200.1999969482421875</AltitudeMeters>
            <DistanceMeters>NAN</DistanceMeters>
          </Trackpoint>
          <Trackpoint>
            <Time>2022-09-24T15:16:52.000Z</Time>
            <Position>
              <LatitudeDegrees>43.29056658782064914703369140625</LatitudeDegrees>
              <LongitudeDegrees>-2.76076831854879856109619140625</LongitudeDegrees>
            </Position>
            <AltitudeMeters>200</AltitudeMeters>
            <DistanceMeters>NAN</DistanceMeters>
          </Trackpoint>
          <Trackpoint>
            <Time>2022-09-24T15:16:53.000Z</Time>
            <Position>
              <LatitudeDegrees>43.290634565055370330810546875</LatitudeDegrees>
              <LongitudeDegrees>-2.76065683923661708831787109375</LongitudeDegrees>
            </Position>
            <AltitudeMeters>198.1999969482421875</AltitudeMeters>
            <DistanceMeters>NAN</DistanceMeters>
          </Trackpoint>
          <Trackpoint>
            <Time>2022-09-24T15:16:54.000Z</Time>
            <Position>
              <LatitudeDegrees>43.290721736848354339599609375</LatitudeDegrees>
              <LongitudeDegrees>-2.76057117618620395660400390625</LongitudeDegrees>
            </Position>
            <AltitudeMeters>197.1999969482421875</AltitudeMeters>
            <DistanceMeters>NAN</DistanceMeters>
          </Trackpoint>
          <Trackpoint>
            <Time>2022-09-24T15:16:55.000Z</Time>
            <Position>
              <LatitudeDegrees>43.2908171229064464569091796875</LatitudeDegrees>
              <LongitudeDegrees>-2.76050948537886142730712890625</LongitudeDegrees>
            </Position>
            <AltitudeMeters>196.8000030517578125</AltitudeMeters>
            <DistanceMeters>NAN</DistanceMeters>
          </Trackpoint>
          <Trackpoint>
            <Time>2022-09-24T15:16:56.000Z</Time>
            <Position>
              <LatitudeDegrees>43.2909218966960906982421875</LatitudeDegrees>
              <LongitudeDegrees>-2.7604690007865428924560546875</LongitudeDegrees>
            </Position>
            <AltitudeMeters>195.1999969482421875</AltitudeMeters>
            <DistanceMeters>NAN</DistanceMeters>
          </Trackpoint>
          <Trackpoint>
            <Time>2022-09-24T15:16:57.000Z</Time>
            <Position>
              <LatitudeDegrees>43.2910306937992572784423828125</LatitudeDegrees>
              <LongitudeDegrees>-2.7604532428085803985595703125</LongitudeDegrees>
            </Position>
            <AltitudeMeters>194.8000030517578125</AltitudeMeters>
            <DistanceMeters>NAN</DistanceMeters>
          </Trackpoint>
          <Trackpoint>
            <Time>2022-09-24T15:16:58.000Z</Time>
            <Position>
              <LatitudeDegrees>43.291145861148834228515625</LatitudeDegrees>
              <LongitudeDegrees>-2.76046313345432281494140625</LongitudeDegrees>
            </Position>
            <AltitudeMeters>194.399993896484375</AltitudeMeters>
            <DistanceMeters>NAN</DistanceMeters>
          </Trackpoint>
          <Trackpoint>
            <Time>2022-09-24T15:16:59.000Z</Time>
            <Position>
              <LatitudeDegrees>43.2912640459835529327392578125</LatitudeDegrees>
              <LongitudeDegrees>-2.76049054227769374847412109375</LongitudeDegrees>
            </Position>
            <AltitudeMeters>194.399993896484375</AltitudeMeters>
            <DistanceMeters>NAN</DistanceMeters>
          </Trackpoint>
          <Trackpoint>
            <Time>2022-09-24T15:17:00.000Z</Time>
            <Position>
              <LatitudeDegrees>43.2913766987621784210205078125</LatitudeDegrees>
              <LongitudeDegrees>-2.76052557863295078277587890625</LongitudeDegrees>
            </Position>
            <AltitudeMeters>194.1999969482421875</AltitudeMeters>
            <DistanceMeters>NAN</DistanceMeters>
          </Trackpoint>
          <Trackpoint>
            <Time>2022-09-24T15:17:01.000Z</Time>
            <Position>
              <LatitudeDegrees>43.2914906926453113555908203125</LatitudeDegrees>
              <LongitudeDegrees>-2.76055944152176380157470703125</LongitudeDegrees>
            </Position>
            <AltitudeMeters>192.8000030517578125</AltitudeMeters>
            <DistanceMeters>NAN</DistanceMeters>
          </Trackpoint>
          <Trackpoint>
            <Time>2022-09-24T15:17:02.000Z</Time>
            <Position>
              <LatitudeDegrees>43.29160359688103199005126953125</LatitudeDegrees>
              <LongitudeDegrees>-2.76059347204864025115966796875</LongitudeDegrees>
            </Position>
            <AltitudeMeters>192.1999969482421875</AltitudeMeters>
            <DistanceMeters>NAN</DistanceMeters>
          </Trackpoint>
          <Trackpoint>
            <Time>2022-09-24T15:17:03.000Z</Time>
            <Position>
              <LatitudeDegrees>43.2917153276503086090087890625</LatitudeDegrees>
              <LongitudeDegrees>-2.76062716729938983917236328125</LongitudeDegrees>
            </Position>
            <AltitudeMeters>191.8000030517578125</AltitudeMeters>
            <DistanceMeters>NAN</DistanceMeters>
          </Trackpoint>
          <Trackpoint>
            <Time>2022-09-24T15:17:04.000Z</Time>
            <Position>
              <LatitudeDegrees>43.29182387329638004302978515625</LatitudeDegrees>
              <LongitudeDegrees>-2.76066161692142486572265625</LongitudeDegrees>
            </Position>
            <AltitudeMeters>191.399993896484375</AltitudeMeters>
            <DistanceMeters>NAN</DistanceMeters>
          </Trackpoint>
          <Trackpoint>
            <Time>2022-09-24T15:17:05.000Z</Time>
            <Position>
              <LatitudeDegrees>43.29193233512341976165771484375</LatitudeDegrees>
              <LongitudeDegrees>-2.76069254614412784576416015625</LongitudeDegrees>
            </Position>
            <AltitudeMeters>191</AltitudeMeters>
            <DistanceMeters>NAN</DistanceMeters>
          </Trackpoint>
          <Trackpoint>
            <Time>2022-09-24T15:17:06.000Z</Time>
            <Position>
              <LatitudeDegrees>43.29204632900655269622802734375</LatitudeDegrees>
              <LongitudeDegrees>-2.7607248164713382720947265625</LongitudeDegrees>
            </Position>
            <AltitudeMeters>190.1999969482421875</AltitudeMeters>
            <DistanceMeters>NAN</DistanceMeters>
          </Trackpoint>
          <Trackpoint>
            <Time>2022-09-24T15:17:07.000Z</Time>
            <Position>
              <LatitudeDegrees>43.29215210862457752227783203125</LatitudeDegrees>
              <LongitudeDegrees>-2.760756500065326690673828125</LongitudeDegrees>
            </Position>
            <AltitudeMeters>189.8000030517578125</AltitudeMeters>
            <DistanceMeters>NAN</DistanceMeters>
          </Trackpoint>
          <Trackpoint>
            <Time>2022-09-24T15:17:08.000Z</Time>
            <Position>
              <LatitudeDegrees>43.29225352965295314788818359375</LatitudeDegrees>
              <LongitudeDegrees>-2.760790698230266571044921875</LongitudeDegrees>
            </Position>
            <AltitudeMeters>189.8000030517578125</AltitudeMeters>
            <DistanceMeters>NAN</DistanceMeters>
          </Trackpoint>
          <Trackpoint>
            <Time>2022-09-24T15:17:09.000Z</Time>
            <Position>
              <LatitudeDegrees>43.292352519929409027099609375</LatitudeDegrees>
              <LongitudeDegrees>-2.76082514785230159759521484375</LongitudeDegrees>
            </Position>
            <AltitudeMeters>189.8000030517578125</AltitudeMeters>
            <DistanceMeters>NAN</DistanceMeters>
          </Trackpoint>
          <Trackpoint>
            <Time>2022-09-24T15:17:10.000Z</Time>
            <Position>
              <LatitudeDegrees>43.2924485765397548675537109375</LatitudeDegrees>
              <LongitudeDegrees>-2.7608555741608142852783203125</LongitudeDegrees>
            </Position>
            <AltitudeMeters>189.8000030517578125</AltitudeMeters>
            <DistanceMeters>NAN</DistanceMeters>
          </Trackpoint>
          <Trackpoint>
            <Time>2022-09-24T15:17:11.000Z</Time>
            <Position>
              <LatitudeDegrees>43.29254304058849811553955078125</LatitudeDegrees>
              <LongitudeDegrees>-2.76088231243193149566650390625</LongitudeDegrees>
            </Position>
            <AltitudeMeters>189.8000030517578125</AltitudeMeters>
            <DistanceMeters>NAN</DistanceMeters>
          </Trackpoint>
          <Trackpoint>
            <Time>2022-09-24T15:17:12.000Z</Time>
            <Position>
              <LatitudeDegrees>43.29261638224124908447265625</LatitudeDegrees>
              <LongitudeDegrees>-2.760904021561145782470703125</LongitudeDegrees>
            </Position>
            <AltitudeMeters>189.8000030517578125</AltitudeMeters>
            <DistanceMeters>NAN</DistanceMeters>
          </Trackpoint>
          <Trackpoint>
            <Time>2022-09-24T15:17:13.000Z</Time>
            <Position>
              <LatitudeDegrees>43.29271285794675350189208984375</LatitudeDegrees>
              <LongitudeDegrees>-2.7609286643564701080322265625</LongitudeDegrees>
            </Position>
            <AltitudeMeters>190</AltitudeMeters>
            <DistanceMeters>NAN</DistanceMeters>
          </Trackpoint>
          <Trackpoint>
            <Time>2022-09-24T15:17:14.000Z</Time>
            <Position>
              <LatitudeDegrees>43.2928383350372314453125</LatitudeDegrees>
              <LongitudeDegrees>-2.76095389388501644134521484375</LongitudeDegrees>
            </Position>
            <AltitudeMeters>190.1999969482421875</AltitudeMeters>
            <DistanceMeters>NAN</DistanceMeters>
          </Trackpoint>
          <Trackpoint>
            <Time>2022-09-24T15:17:15.000Z</Time>
            <Position>
              <LatitudeDegrees>43.29293514601886272430419921875</LatitudeDegrees>
              <LongitudeDegrees>-2.760969735682010650634765625</LongitudeDegrees>
            </Position>
            <AltitudeMeters>190</AltitudeMeters>
            <DistanceMeters>NAN</DistanceMeters>
          </Trackpoint>
          <Trackpoint>
            <Time>2022-09-24T15:17:16.000Z</Time>
            <Position>
              <LatitudeDegrees>43.29303212463855743408203125</LatitudeDegrees>
              <LongitudeDegrees>-2.76098339818418025970458984375</LongitudeDegrees>
            </Position>
            <AltitudeMeters>190.1999969482421875</AltitudeMeters>
            <DistanceMeters>NAN</DistanceMeters>
          </Trackpoint>
          <Trackpoint>
            <Time>2022-09-24T15:17:17.000Z</Time>
            <Position>
              <LatitudeDegrees>43.29312943853437900543212890625</LatitudeDegrees>
              <LongitudeDegrees>-2.76099823415279388427734375</LongitudeDegrees>
            </Position>
            <AltitudeMeters>190</AltitudeMeters>
            <DistanceMeters>NAN</DistanceMeters>
          </Trackpoint>
          <Trackpoint>
            <Time>2022-09-24T15:17:18.000Z</Time>
            <Position>
              <LatitudeDegrees>43.293208815157413482666015625</LatitudeDegrees>
              <LongitudeDegrees>-2.761009968817234039306640625</LongitudeDegrees>
            </Position>
            <AltitudeMeters>188.8000030517578125</AltitudeMeters>
            <DistanceMeters>NAN</DistanceMeters>
          </Trackpoint>
          <Trackpoint>
            <Time>2022-09-24T15:17:19.000Z</Time>
            <Position>
              <LatitudeDegrees>43.29332926310598850250244140625</LatitudeDegrees>
              <LongitudeDegrees>-2.76102639734745025634765625</LongitudeDegrees>
            </Position>
            <AltitudeMeters>188.8000030517578125</AltitudeMeters>
            <DistanceMeters>NAN</DistanceMeters>
          </Trackpoint>
          <Trackpoint>
            <Time>2022-09-24T15:17:20.000Z</Time>
            <Position>
              <LatitudeDegrees>43.2934306003153324127197265625</LatitudeDegrees>
              <LongitudeDegrees>-2.76103788055479526519775390625</LongitudeDegrees>
            </Position>
            <AltitudeMeters>188.600006103515625</AltitudeMeters>
            <DistanceMeters>NAN</DistanceMeters>
          </Trackpoint>
          <Trackpoint>
            <Time>2022-09-24T15:17:21.000Z</Time>
            <Position>
              <LatitudeDegrees>43.2935321889817714691162109375</LatitudeDegrees>
              <LongitudeDegrees>-2.76104827411472797393798828125</LongitudeDegrees>
            </Position>
            <AltitudeMeters>188.600006103515625</AltitudeMeters>
            <DistanceMeters>NAN</DistanceMeters>
          </Trackpoint>
          <Trackpoint>
            <Time>2022-09-24T15:17:22.000Z</Time>
            <Position>
              <LatitudeDegrees>43.29363754950463771820068359375</LatitudeDegrees>
              <LongitudeDegrees>-2.761055566370487213134765625</LongitudeDegrees>
            </Position>
            <AltitudeMeters>188.600006103515625</AltitudeMeters>
            <DistanceMeters>NAN</DistanceMeters>
          </Trackpoint>
          <Trackpoint>
            <Time>2022-09-24T15:17:23.000Z</Time>
            <Position>
              <LatitudeDegrees>43.29374316148459911346435546875</LatitudeDegrees>
              <LongitudeDegrees>-2.76105514727532863616943359375</LongitudeDegrees>
            </Position>
            <AltitudeMeters>188.1999969482421875</AltitudeMeters>
            <DistanceMeters>NAN</DistanceMeters>
          </Trackpoint>
          <Trackpoint>
            <Time>2022-09-24T15:17:24.000Z</Time>
            <Position>
              <LatitudeDegrees>43.29384642653167247772216796875</LatitudeDegrees>
              <LongitudeDegrees>-2.76103586889803409576416015625</LongitudeDegrees>
            </Position>
            <AltitudeMeters>188.1999969482421875</AltitudeMeters>
            <DistanceMeters>NAN</DistanceMeters>
          </Trackpoint>
          <Trackpoint>
            <Time>2022-09-24T15:17:25.000Z</Time>
            <Position>
              <LatitudeDegrees>43.2939489372074604034423828125</LatitudeDegrees>
              <LongitudeDegrees>-2.760997228324413299560546875</LongitudeDegrees>
            </Position>
            <AltitudeMeters>188.1999969482421875</AltitudeMeters>
            <DistanceMeters>NAN</DistanceMeters>
          </Trackpoint>
          <Trackpoint>
            <Time>2022-09-24T15:17:26.000Z</Time>
            <Position>
              <LatitudeDegrees>43.294053040444850921630859375</LatitudeDegrees>
              <LongitudeDegrees>-2.7609457634389400482177734375</LongitudeDegrees>
            </Position>
            <AltitudeMeters>188.1999969482421875</AltitudeMeters>
            <DistanceMeters>NAN</DistanceMeters>
          </Trackpoint>
          <Trackpoint>
            <Time>2022-09-24T15:17:27.000Z</Time>
            <Position>
              <LatitudeDegrees>43.29415488056838512420654296875</LatitudeDegrees>
              <LongitudeDegrees>-2.76088767684996128082275390625</LongitudeDegrees>
            </Position>
            <AltitudeMeters>188.1999969482421875</AltitudeMeters>
            <DistanceMeters>NAN</DistanceMeters>
          </Trackpoint>
          <Trackpoint>
            <Time>2022-09-24T15:17:28.000Z</Time>
            <Position>
              <LatitudeDegrees>43.29415488056838512420654296875</LatitudeDegrees>
              <LongitudeDegrees>-2.76088767684996128082275390625</LongitudeDegrees>
            </Position>
            <AltitudeMeters>188.1999969482421875</AltitudeMeters>
            <DistanceMeters>NAN</DistanceMeters>
          </Trackpoint>
          <Trackpoint>
            <Time>2022-09-24T15:17:29.000Z</Time>
            <Position>
              <LatitudeDegrees>43.29432629048824310302734375</LatitudeDegrees>
              <LongitudeDegrees>-2.7607067115604877471923828125</LongitudeDegrees>
            </Position>
            <AltitudeMeters>188.1999969482421875</AltitudeMeters>
            <DistanceMeters>NAN</DistanceMeters>
          </Trackpoint>
          <Trackpoint>
            <Time>2022-09-24T15:17:30.000Z</Time>
            <Position>
              <LatitudeDegrees>43.2943931780755519866943359375</LatitudeDegrees>
              <LongitudeDegrees>-2.76058961637318134307861328125</LongitudeDegrees>
            </Position>
            <AltitudeMeters>188.1999969482421875</AltitudeMeters>
            <DistanceMeters>NAN</DistanceMeters>
          </Trackpoint>
          <Trackpoint>
            <Time>2022-09-24T15:17:31.000Z</Time>
            <Position>
              <LatitudeDegrees>43.29445101320743560791015625</LatitudeDegrees>
              <LongitudeDegrees>-2.76045600883662700653076171875</LongitudeDegrees>
            </Position>
            <AltitudeMeters>186.399993896484375</AltitudeMeters>
            <DistanceMeters>NAN</DistanceMeters>
          </Trackpoint>
          <Trackpoint>
            <Time>2022-09-24T15:17:32.000Z</Time>
            <Position>
              <LatitudeDegrees>43.2944947667419910430908203125</LatitudeDegrees>
              <LongitudeDegrees>-2.76031569577753543853759765625</LongitudeDegrees>
            </Position>
            <AltitudeMeters>185.8000030517578125</AltitudeMeters>
            <DistanceMeters>NAN</DistanceMeters>
          </Trackpoint>
          <Trackpoint>
            <Time>2022-09-24T15:17:33.000Z</Time>
            <Position>
              <LatitudeDegrees>43.2945326529443264007568359375</LatitudeDegrees>
              <LongitudeDegrees>-2.76017186231911182403564453125</LongitudeDegrees>
            </Position>
            <AltitudeMeters>185.600006103515625</AltitudeMeters>
            <DistanceMeters>NAN</DistanceMeters>
          </Trackpoint>
          <Trackpoint>
            <Time>2022-09-24T15:17:34.000Z</Time>
            <Position>
              <LatitudeDegrees>43.294568359851837158203125</LatitudeDegrees>
              <LongitudeDegrees>-2.76001989841461181640625</LongitudeDegrees>
            </Position>
            <AltitudeMeters>185.600006103515625</AltitudeMeters>
            <DistanceMeters>NAN</DistanceMeters>
          </Trackpoint>
          <Trackpoint>
            <Time>2022-09-24T15:17:35.000Z</Time>
            <Position>
              <LatitudeDegrees>43.294568359851837158203125</LatitudeDegrees>
              <LongitudeDegrees>-2.76001989841461181640625</LongitudeDegrees>
            </Position>
            <AltitudeMeters>184.1999969482421875</AltitudeMeters>
            <DistanceMeters>NAN</DistanceMeters>
          </Trackpoint>
          <Trackpoint>
            <Time>2022-09-24T15:17:36.000Z</Time>
            <Position>
              <LatitudeDegrees>43.29464287497103214263916015625</LatitudeDegrees>
              <LongitudeDegrees>-2.75972711853682994842529296875</LongitudeDegrees>
            </Position>
            <AltitudeMeters>183.600006103515625</AltitudeMeters>
            <DistanceMeters>NAN</DistanceMeters>
          </Trackpoint>
          <Trackpoint>
            <Time>2022-09-24T15:17:37.000Z</Time>
            <Position>
              <LatitudeDegrees>43.294677995145320892333984375</LatitudeDegrees>
              <LongitudeDegrees>-2.7595775015652179718017578125</LongitudeDegrees>
            </Position>
            <AltitudeMeters>183</AltitudeMeters>
            <DistanceMeters>NAN</DistanceMeters>
          </Trackpoint>
          <Trackpoint>
            <Time>2022-09-24T15:17:38.000Z</Time>
            <Position>
              <LatitudeDegrees>43.2947051525115966796875</LatitudeDegrees>
              <LongitudeDegrees>-2.75942687876522541046142578125</LongitudeDegrees>
            </Position>
            <AltitudeMeters>182.399993896484375</AltitudeMeters>
            <DistanceMeters>NAN</DistanceMeters>
          </Trackpoint>
          <Trackpoint>
            <Time>2022-09-24T15:17:39.000Z</Time>
            <Position>
              <LatitudeDegrees>43.29474329017102718353271484375</LatitudeDegrees>
              <LongitudeDegrees>-2.75928162038326263427734375</LongitudeDegrees>
            </Position>
            <AltitudeMeters>181.8000030517578125</AltitudeMeters>
            <DistanceMeters>NAN</DistanceMeters>
          </Trackpoint>
          <Trackpoint>
            <Time>2022-09-24T15:17:40.000Z</Time>
            <Position>
              <LatitudeDegrees>43.294790647923946380615234375</LatitudeDegrees>
              <LongitudeDegrees>-2.759137116372585296630859375</LongitudeDegrees>
            </Position>
            <AltitudeMeters>181.600006103515625</AltitudeMeters>
            <DistanceMeters>NAN</DistanceMeters>
          </Trackpoint>
          <Trackpoint>
            <Time>2022-09-24T15:17:41.000Z</Time>
            <Position>
              <LatitudeDegrees>43.29484806396067142486572265625</LatitudeDegrees>
              <LongitudeDegrees>-2.759003005921840667724609375</LongitudeDegrees>
            </Position>
            <AltitudeMeters>181</AltitudeMeters>
            <DistanceMeters>NAN</DistanceMeters>
          </Trackpoint>
          <Trackpoint>
            <Time>2022-09-24T15:17:42.000Z</Time>
            <Position>
              <LatitudeDegrees>43.29491914249956607818603515625</LatitudeDegrees>
              <LongitudeDegrees>-2.75888289324939250946044921875</LongitudeDegrees>
            </Position>
            <AltitudeMeters>181</AltitudeMeters>
            <DistanceMeters>NAN</DistanceMeters>
          </Trackpoint>
          <Trackpoint>
            <Time>2022-09-24T15:17:43.000Z</Time>
            <Position>
              <LatitudeDegrees>43.2950010336935520172119140625</LatitudeDegrees>
              <LongitudeDegrees>-2.75877602398395538330078125</LongitudeDegrees>
            </Position>
            <AltitudeMeters>181</AltitudeMeters>
            <DistanceMeters>NAN</DistanceMeters>
          </Trackpoint>
          <Trackpoint>
            <Time>2022-09-24T15:17:44.000Z</Time>
            <Position>
              <LatitudeDegrees>43.29508812166750431060791015625</LatitudeDegrees>
              <LongitudeDegrees>-2.7586759440600872039794921875</LongitudeDegrees>
            </Position>
            <AltitudeMeters>179.600006103515625</AltitudeMeters>
            <DistanceMeters>NAN</DistanceMeters>
          </Trackpoint>
          <Trackpoint>
            <Time>2022-09-24T15:17:45.000Z</Time>
            <Position>
              <LatitudeDegrees>43.2951817475259304046630859375</LatitudeDegrees>
              <LongitudeDegrees>-2.7585824020206928253173828125</LongitudeDegrees>
            </Position>
            <AltitudeMeters>178.399993896484375</AltitudeMeters>
            <DistanceMeters>NAN</DistanceMeters>
          </Trackpoint>
          <Trackpoint>
            <Time>2022-09-24T15:17:46.000Z</Time>
            <Position>
              <LatitudeDegrees>43.29528057016432285308837890625</LatitudeDegrees>
              <LongitudeDegrees>-2.7585124969482421875</LongitudeDegrees>
            </Position>
            <AltitudeMeters>176.600006103515625</AltitudeMeters>
            <DistanceMeters>NAN</DistanceMeters>
          </Trackpoint>
          <Trackpoint>
            <Time>2022-09-24T15:17:47.000Z</Time>
            <Position>
              <LatitudeDegrees>43.29538249410688877105712890625</LatitudeDegrees>
              <LongitudeDegrees>-2.75846312753856182098388671875</LongitudeDegrees>
            </Position>
            <AltitudeMeters>176.399993896484375</AltitudeMeters>
            <DistanceMeters>NAN</DistanceMeters>
          </Trackpoint>
          <Trackpoint>
            <Time>2022-09-24T15:17:48.000Z</Time>
            <Position>
              <LatitudeDegrees>43.295485675334930419921875</LatitudeDegrees>
              <LongitudeDegrees>-2.7584280073642730712890625</LongitudeDegrees>
            </Position>
            <AltitudeMeters>176.399993896484375</AltitudeMeters>
            <DistanceMeters>NAN</DistanceMeters>
          </Trackpoint>
          <Trackpoint>
            <Time>2022-09-24T15:17:49.000Z</Time>
            <Position>
              <LatitudeDegrees>43.295590616762638092041015625</LatitudeDegrees>
              <LongitudeDegrees>-2.7583973295986652374267578125</LongitudeDegrees>
            </Position>
            <AltitudeMeters>175.600006103515625</AltitudeMeters>
            <DistanceMeters>NAN</DistanceMeters>
          </Trackpoint>
          <Trackpoint>
            <Time>2022-09-24T15:17:50.000Z</Time>
            <Position>
              <LatitudeDegrees>43.2956990785896778106689453125</LatitudeDegrees>
              <LongitudeDegrees>-2.7583689987659454345703125</LongitudeDegrees>
            </Position>
            <AltitudeMeters>176.399993896484375</AltitudeMeters>
            <DistanceMeters>NAN</DistanceMeters>
          </Trackpoint>
          <Trackpoint>
            <Time>2022-09-24T15:17:51.000Z</Time>
            <Position>
              <LatitudeDegrees>43.295802511274814605712890625</LatitudeDegrees>
              <LongitudeDegrees>-2.75833488442003726959228515625</LongitudeDegrees>
            </Position>
            <AltitudeMeters>176.600006103515625</AltitudeMeters>
            <DistanceMeters>NAN</DistanceMeters>
          </Trackpoint>
          <Trackpoint>
            <Time>2022-09-24T15:17:52.000Z</Time>
            <Position>
              <LatitudeDegrees>43.2959046028554439544677734375</LatitudeDegrees>
              <LongitudeDegrees>-2.758302949368953704833984375</LongitudeDegrees>
            </Position>
            <AltitudeMeters>178.399993896484375</AltitudeMeters>
            <DistanceMeters>NAN</DistanceMeters>
          </Trackpoint>
          <Trackpoint>
            <Time>2022-09-24T15:17:53.000Z</Time>
            <Position>
              <LatitudeDegrees>43.296006023883819580078125</LatitudeDegrees>
              <LongitudeDegrees>-2.758276462554931640625</LongitudeDegrees>
            </Position>
            <AltitudeMeters>178.399993896484375</AltitudeMeters>
            <DistanceMeters>NAN</DistanceMeters>
          </Trackpoint>
          <Trackpoint>
            <Time>2022-09-24T15:17:54.000Z</Time>
            <Position>
              <LatitudeDegrees>43.29610669054090976715087890625</LatitudeDegrees>
              <LongitudeDegrees>-2.7582514844834804534912109375</LongitudeDegrees>
            </Position>
            <AltitudeMeters>178.399993896484375</AltitudeMeters>
            <DistanceMeters>NAN</DistanceMeters>
          </Trackpoint>
          <Trackpoint>
            <Time>2022-09-24T15:17:55.000Z</Time>
            <Position>
              <LatitudeDegrees>43.29620677046477794647216796875</LatitudeDegrees>
              <LongitudeDegrees>-2.75824134238064289093017578125</LongitudeDegrees>
            </Position>
            <AltitudeMeters>177.600006103515625</AltitudeMeters>
            <DistanceMeters>NAN</DistanceMeters>
          </Trackpoint>
          <Trackpoint>
            <Time>2022-09-24T15:17:56.000Z</Time>
            <Position>
              <LatitudeDegrees>43.296306766569614410400390625</LatitudeDegrees>
              <LongitudeDegrees>-2.75824570097029209136962890625</LongitudeDegrees>
            </Position>
            <AltitudeMeters>178.600006103515625</AltitudeMeters>
            <DistanceMeters>NAN</DistanceMeters>
          </Trackpoint>
          <Trackpoint>
            <Time>2022-09-24T15:17:57.000Z</Time>
            <Position>
              <LatitudeDegrees>43.296306766569614410400390625</LatitudeDegrees>
              <LongitudeDegrees>-2.75824570097029209136962890625</LongitudeDegrees>
            </Position>
            <AltitudeMeters>178.600006103515625</AltitudeMeters>
            <DistanceMeters>NAN</DistanceMeters>
          </Trackpoint>
          <Trackpoint>
            <Time>2022-09-24T15:17:58.000Z</Time>
            <Position>
              <LatitudeDegrees>43.29650600440800189971923828125</LatitudeDegrees>
              <LongitudeDegrees>-2.75827486999332904815673828125</LongitudeDegrees>
            </Position>
            <AltitudeMeters>178.600006103515625</AltitudeMeters>
            <DistanceMeters>NAN</DistanceMeters>
          </Trackpoint>
          <Trackpoint>
            <Time>2022-09-24T15:17:59.000Z</Time>
            <Position>
              <LatitudeDegrees>43.2966023124754428863525390625</LatitudeDegrees>
              <LongitudeDegrees>-2.758293561637401580810546875</LongitudeDegrees>
            </Position>
            <AltitudeMeters>178.600006103515625</AltitudeMeters>
            <DistanceMeters>NAN</DistanceMeters>
          </Trackpoint>
          <Trackpoint>
            <Time>2022-09-24T15:18:00.000Z</Time>
            <Position>
              <LatitudeDegrees>43.2966023124754428863525390625</LatitudeDegrees>
              <LongitudeDegrees>-2.758293561637401580810546875</LongitudeDegrees>
            </Position>
            <AltitudeMeters>179</AltitudeMeters>
            <DistanceMeters>NAN</DistanceMeters>
          </Trackpoint>
          <Trackpoint>
            <Time>2022-09-24T15:18:01.000Z</Time>
            <Position>
              <LatitudeDegrees>43.29679400660097599029541015625</LatitudeDegrees>
              <LongitudeDegrees>-2.7583306096494197845458984375</LongitudeDegrees>
            </Position>
            <AltitudeMeters>179</AltitudeMeters>
            <DistanceMeters>NAN</DistanceMeters>
          </Trackpoint>
          <Trackpoint>
            <Time>2022-09-24T15:18:02.000Z</Time>
            <Position>
              <LatitudeDegrees>43.2968889735639095306396484375</LatitudeDegrees>
              <LongitudeDegrees>-2.7583524025976657867431640625</LongitudeDegrees>
            </Position>
            <AltitudeMeters>179</AltitudeMeters>
            <DistanceMeters>NAN</DistanceMeters>
          </Trackpoint>
          <Trackpoint>
            <Time>2022-09-24T15:18:03.000Z</Time>
            <Position>
              <LatitudeDegrees>43.2969810068607330322265625</LatitudeDegrees>
              <LongitudeDegrees>-2.75837176479399204254150390625</LongitudeDegrees>
            </Position>
            <AltitudeMeters>179</AltitudeMeters>
            <DistanceMeters>NAN</DistanceMeters>
          </Trackpoint>
          <Trackpoint>
            <Time>2022-09-24T15:18:04.000Z</Time>
            <Position>
              <LatitudeDegrees>43.29707345925271511077880859375</LatitudeDegrees>
              <LongitudeDegrees>-2.7583872713148593902587890625</LongitudeDegrees>
            </Position>
            <AltitudeMeters>178.600006103515625</AltitudeMeters>
            <DistanceMeters>NAN</DistanceMeters>
          </Trackpoint>
          <Trackpoint>
            <Time>2022-09-24T15:18:05.000Z</Time>
            <Position>
              <LatitudeDegrees>43.29716582782566547393798828125</LatitudeDegrees>
              <LongitudeDegrees>-2.75839137844741344451904296875</LongitudeDegrees>
            </Position>
            <AltitudeMeters>178.1999969482421875</AltitudeMeters>
            <DistanceMeters>NAN</DistanceMeters>
          </Trackpoint>
          <Trackpoint>
            <Time>2022-09-24T15:18:06.000Z</Time>
            <Position>
              <LatitudeDegrees>43.29725920222699642181396484375</LatitudeDegrees>
              <LongitudeDegrees>-2.7583849243819713592529296875</LongitudeDegrees>
            </Position>
            <AltitudeMeters>177.399993896484375</AltitudeMeters>
            <DistanceMeters>NAN</DistanceMeters>
          </Trackpoint>
          <Trackpoint>
            <Time>2022-09-24T15:18:07.000Z</Time>
            <Position>
              <LatitudeDegrees>43.29735240899026393890380859375</LatitudeDegrees>
              <LongitudeDegrees>-2.75836371816694736480712890625</LongitudeDegrees>
            </Position>
            <AltitudeMeters>176.600006103515625</AltitudeMeters>
            <DistanceMeters>NAN</DistanceMeters>
          </Trackpoint>
          <Trackpoint>
            <Time>2022-09-24T15:18:08.000Z</Time>
            <Position>
              <LatitudeDegrees>43.2974445261061191558837890625</LatitudeDegrees>
              <LongitudeDegrees>-2.75832817889750003814697265625</LongitudeDegrees>
            </Position>
            <AltitudeMeters>176.600006103515625</AltitudeMeters>
            <DistanceMeters>NAN</DistanceMeters>
          </Trackpoint>
          <Trackpoint>
            <Time>2022-09-24T15:18:09.000Z</Time>
            <Position>
              <LatitudeDegrees>43.29753463156521320343017578125</LatitudeDegrees>
              <LongitudeDegrees>-2.75827520526945590972900390625</LongitudeDegrees>
            </Position>
            <AltitudeMeters>176.399993896484375</AltitudeMeters>
            <DistanceMeters>NAN</DistanceMeters>
          </Trackpoint>
          <Trackpoint>
            <Time>2022-09-24T15:18:10.000Z</Time>
            <Position>
              <LatitudeDegrees>43.29761895351111888885498046875</LatitudeDegrees>
              <LongitudeDegrees>-2.75820211507380008697509765625</LongitudeDegrees>
            </Position>
            <AltitudeMeters>175.1999969482421875</AltitudeMeters>
            <DistanceMeters>NAN</DistanceMeters>
          </Trackpoint>
          <Trackpoint>
            <Time>2022-09-24T15:18:11.000Z</Time>
            <Position>
              <LatitudeDegrees>43.29769782721996307373046875</LatitudeDegrees>
              <LongitudeDegrees>-2.75811209343373775482177734375</LongitudeDegrees>
            </Position>
            <AltitudeMeters>175.1999969482421875</AltitudeMeters>
            <DistanceMeters>NAN</DistanceMeters>
          </Trackpoint>
          <Trackpoint>
            <Time>2022-09-24T15:18:12.000Z</Time>
            <Position>
              <LatitudeDegrees>43.29777024686336517333984375</LatitudeDegrees>
              <LongitudeDegrees>-2.75800866074860095977783203125</LongitudeDegrees>
            </Position>
            <AltitudeMeters>175.1999969482421875</AltitudeMeters>
            <DistanceMeters>NAN</DistanceMeters>
          </Trackpoint>
          <Trackpoint>
            <Time>2022-09-24T15:18:13.000Z</Time>
            <Position>
              <LatitudeDegrees>43.29783998429775238037109375</LatitudeDegrees>
              <LongitudeDegrees>-2.7578954212367534637451171875</LongitudeDegrees>
            </Position>
            <AltitudeMeters>174.600006103515625</AltitudeMeters>
            <DistanceMeters>NAN</DistanceMeters>
          </Trackpoint>
          <Trackpoint>
            <Time>2022-09-24T15:18:14.000Z</Time>
            <Position>
              <LatitudeDegrees>43.297907374799251556396484375</LatitudeDegrees>
              <LongitudeDegrees>-2.7577757276594638824462890625</LongitudeDegrees>
            </Position>
            <AltitudeMeters>174.1999969482421875</AltitudeMeters>
            <DistanceMeters>NAN</DistanceMeters>
          </Trackpoint>
          <Trackpoint>
            <Time>2022-09-24T15:18:15.000Z</Time>
            <Position>
              <LatitudeDegrees>43.29797334037721157073974609375</LatitudeDegrees>
              <LongitudeDegrees>-2.7576526813209056854248046875</LongitudeDegrees>
            </Position>
            <AltitudeMeters>174.1999969482421875</AltitudeMeters>
            <DistanceMeters>NAN</DistanceMeters>
          </Trackpoint>
          <Trackpoint>
            <Time>2022-09-24T15:18:16.000Z</Time>
            <Position>
              <LatitudeDegrees>43.2980315946042537689208984375</LatitudeDegrees>
              <LongitudeDegrees>-2.75751848705112934112548828125</LongitudeDegrees>
            </Position>
            <AltitudeMeters>174.1999969482421875</AltitudeMeters>
            <DistanceMeters>NAN</DistanceMeters>
          </Trackpoint>
          <Trackpoint>
            <Time>2022-09-24T15:18:17.000Z</Time>
            <Position>
              <LatitudeDegrees>43.29807744361460208892822265625</LatitudeDegrees>
              <LongitudeDegrees>-2.7573767490684986114501953125</LongitudeDegrees>
            </Position>
            <AltitudeMeters>174.1999969482421875</AltitudeMeters>
            <DistanceMeters>NAN</DistanceMeters>
          </Trackpoint>
          <Trackpoint>
            <Time>2022-09-24T15:18:18.000Z</Time>
            <Position>
              <LatitudeDegrees>43.29810820519924163818359375</LatitudeDegrees>
              <LongitudeDegrees>-2.75723115541040897369384765625</LongitudeDegrees>
            </Position>
            <AltitudeMeters>173.600006103515625</AltitudeMeters>
            <DistanceMeters>NAN</DistanceMeters>
          </Trackpoint>
          <Trackpoint>
            <Time>2022-09-24T15:18:19.000Z</Time>
            <Position>
              <LatitudeDegrees>43.298129998147487640380859375</LatitudeDegrees>
              <LongitudeDegrees>-2.75708028115332126617431640625</LongitudeDegrees>
            </Position>
            <AltitudeMeters>172.8000030517578125</AltitudeMeters>
            <DistanceMeters>NAN</DistanceMeters>
          </Trackpoint>
          <Trackpoint>
            <Time>2022-09-24T15:18:20.000Z</Time>
            <Position>
              <LatitudeDegrees>43.29813946969807147979736328125</LatitudeDegrees>
              <LongitudeDegrees>-2.7569221146404743194580078125</LongitudeDegrees>
            </Position>
            <AltitudeMeters>172.1999969482421875</AltitudeMeters>
            <DistanceMeters>NAN</DistanceMeters>
          </Trackpoint>
          <Trackpoint>
            <Time>2022-09-24T15:18:21.000Z</Time>
            <Position>
              <LatitudeDegrees>43.298135362565517425537109375</LatitudeDegrees>
              <LongitudeDegrees>-2.75675741024315357208251953125</LongitudeDegrees>
            </Position>
            <AltitudeMeters>172.1999969482421875</AltitudeMeters>
            <DistanceMeters>NAN</DistanceMeters>
          </Trackpoint>
          <Trackpoint>
            <Time>2022-09-24T15:18:22.000Z</Time>
            <Position>
              <LatitudeDegrees>43.29811935313045978546142578125</LatitudeDegrees>
              <LongitudeDegrees>-2.7565938793122768402099609375</LongitudeDegrees>
            </Position>
            <AltitudeMeters>171</AltitudeMeters>
            <DistanceMeters>NAN</DistanceMeters>
          </Trackpoint>
          <Trackpoint>
            <Time>2022-09-24T15:18:23.000Z</Time>
            <Position>
              <LatitudeDegrees>43.298093788325786590576171875</LatitudeDegrees>
              <LongitudeDegrees>-2.75643219240009784698486328125</LongitudeDegrees>
            </Position>
            <AltitudeMeters>170.1999969482421875</AltitudeMeters>
            <DistanceMeters>NAN</DistanceMeters>
          </Trackpoint>
          <Trackpoint>
            <Time>2022-09-24T15:18:24.000Z</Time>
            <Position>
              <LatitudeDegrees>43.2980597577989101409912109375</LatitudeDegrees>
              <LongitudeDegrees>-2.756271176040172576904296875</LongitudeDegrees>
            </Position>
            <AltitudeMeters>169.1999969482421875</AltitudeMeters>
            <DistanceMeters>NAN</DistanceMeters>
          </Trackpoint>
          <Trackpoint>
            <Time>2022-09-24T15:18:25.000Z</Time>
            <Position>
              <LatitudeDegrees>43.2980205304920673370361328125</LatitudeDegrees>
              <LongitudeDegrees>-2.75611099787056446075439453125</LongitudeDegrees>
            </Position>
            <AltitudeMeters>168.8000030517578125</AltitudeMeters>
            <DistanceMeters>NAN</DistanceMeters>
          </Trackpoint>
          <Trackpoint>
            <Time>2022-09-24T15:18:26.000Z</Time>
            <Position>
              <LatitudeDegrees>43.29798121936619281768798828125</LatitudeDegrees>
              <LongitudeDegrees>-2.75595165789127349853515625</LongitudeDegrees>
            </Position>
            <AltitudeMeters>168.1999969482421875</AltitudeMeters>
            <DistanceMeters>NAN</DistanceMeters>
          </Trackpoint>
          <Trackpoint>
            <Time>2022-09-24T15:18:27.000Z</Time>
            <Position>
              <LatitudeDegrees>43.29798121936619281768798828125</LatitudeDegrees>
              <LongitudeDegrees>-2.75595165789127349853515625</LongitudeDegrees>
            </Position>
            <AltitudeMeters>168.1999969482421875</AltitudeMeters>
            <DistanceMeters>NAN</DistanceMeters>
          </Trackpoint>
          <Trackpoint>
            <Time>2022-09-24T15:18:28.000Z</Time>
            <Position>
              <LatitudeDegrees>43.29792757518589496612548828125</LatitudeDegrees>
              <LongitudeDegrees>-2.75562870316207408905029296875</LongitudeDegrees>
            </Position>
            <AltitudeMeters>168.1999969482421875</AltitudeMeters>
            <DistanceMeters>NAN</DistanceMeters>
          </Trackpoint>
          <Trackpoint>
            <Time>2022-09-24T15:18:29.000Z</Time>
            <Position>
              <LatitudeDegrees>43.29792254604399204254150390625</LatitudeDegrees>
              <LongitudeDegrees>-2.75547481141984462738037109375</LongitudeDegrees>
            </Position>
            <AltitudeMeters>168</AltitudeMeters>
            <DistanceMeters>NAN</DistanceMeters>
          </Trackpoint>
          <Trackpoint>
            <Time>2022-09-24T15:18:30.000Z</Time>
            <Position>
              <LatitudeDegrees>43.29792640171945095062255859375</LatitudeDegrees>
              <LongitudeDegrees>-2.75532779283821582794189453125</LongitudeDegrees>
            </Position>
            <AltitudeMeters>168.1999969482421875</AltitudeMeters>
            <DistanceMeters>NAN</DistanceMeters>
          </Trackpoint>
          <Trackpoint>
            <Time>2022-09-24T15:18:31.000Z</Time>
            <Position>
              <LatitudeDegrees>43.297927491366863250732421875</LatitudeDegrees>
              <LongitudeDegrees>-2.7551910839974880218505859375</LongitudeDegrees>
            </Position>
            <AltitudeMeters>167.399993896484375</AltitudeMeters>
            <DistanceMeters>NAN</DistanceMeters>
          </Trackpoint>
          <Trackpoint>
            <Time>2022-09-24T15:18:32.000Z</Time>
            <Position>
              <LatitudeDegrees>43.2979316823184490203857421875</LatitudeDegrees>
              <LongitudeDegrees>-2.75506116449832916259765625</LongitudeDegrees>
            </Position>
            <AltitudeMeters>167</AltitudeMeters>
            <DistanceMeters>NAN</DistanceMeters>
          </Trackpoint>
          <Trackpoint>
            <Time>2022-09-24T15:18:33.000Z</Time>
            <Position>
              <LatitudeDegrees>43.2979397289454936981201171875</LatitudeDegrees>
              <LongitudeDegrees>-2.75494021363556385040283203125</LongitudeDegrees>
            </Position>
            <AltitudeMeters>167</AltitudeMeters>
            <DistanceMeters>NAN</DistanceMeters>
          </Trackpoint>
          <Trackpoint>
            <Time>2022-09-24T15:18:34.000Z</Time>
            <Position>
              <LatitudeDegrees>43.297950290143489837646484375</LatitudeDegrees>
              <LongitudeDegrees>-2.75482219643890857696533203125</LongitudeDegrees>
            </Position>
            <AltitudeMeters>167</AltitudeMeters>
            <DistanceMeters>NAN</DistanceMeters>
          </Trackpoint>
          <Trackpoint>
            <Time>2022-09-24T15:18:35.000Z</Time>
            <Position>
              <LatitudeDegrees>43.29796914942562580108642578125</LatitudeDegrees>
              <LongitudeDegrees>-2.75470568798482418060302734375</LongitudeDegrees>
            </Position>
            <AltitudeMeters>166.1999969482421875</AltitudeMeters>
            <DistanceMeters>NAN</DistanceMeters>
          </Trackpoint>
          <Trackpoint>
            <Time>2022-09-24T15:18:36.000Z</Time>
            <Position>
              <LatitudeDegrees>43.297998569905757904052734375</LatitudeDegrees>
              <LongitudeDegrees>-2.7545916102826595306396484375</LongitudeDegrees>
            </Position>
            <AltitudeMeters>166.600006103515625</AltitudeMeters>
            <DistanceMeters>NAN</DistanceMeters>
          </Trackpoint>
          <Trackpoint>
            <Time>2022-09-24T15:18:37.000Z</Time>
            <Position>
              <LatitudeDegrees>43.29803519882261753082275390625</LatitudeDegrees>
              <LongitudeDegrees>-2.7544863335788249969482421875</LongitudeDegrees>
            </Position>
            <AltitudeMeters>166.600006103515625</AltitudeMeters>
            <DistanceMeters>NAN</DistanceMeters>
          </Trackpoint>
          <Trackpoint>
            <Time>2022-09-24T15:18:38.000Z</Time>
            <Position>
              <LatitudeDegrees>43.2980805449187755584716796875</LatitudeDegrees>
              <LongitudeDegrees>-2.75438885204493999481201171875</LongitudeDegrees>
            </Position>
            <AltitudeMeters>165.8000030517578125</AltitudeMeters>
            <DistanceMeters>NAN</DistanceMeters>
          </Trackpoint>
          <Trackpoint>
            <Time>2022-09-24T15:18:39.000Z</Time>
            <Position>
              <LatitudeDegrees>43.2981372065842151641845703125</LatitudeDegrees>
              <LongitudeDegrees>-2.75430209934711456298828125</LongitudeDegrees>
            </Position>
            <AltitudeMeters>165.600006103515625</AltitudeMeters>
            <DistanceMeters>NAN</DistanceMeters>
          </Trackpoint>
          <Trackpoint>
            <Time>2022-09-24T15:18:40.000Z</Time>
            <Position>
              <LatitudeDegrees>43.2982009090483188629150390625</LatitudeDegrees>
              <LongitudeDegrees>-2.75422004051506519317626953125</LongitudeDegrees>
            </Position>
            <AltitudeMeters>165.399993896484375</AltitudeMeters>
            <DistanceMeters>NAN</DistanceMeters>
          </Trackpoint>
          <Trackpoint>
            <Time>2022-09-24T15:18:41.000Z</Time>
            <Position>
              <LatitudeDegrees>43.29827089793980121612548828125</LatitudeDegrees>
              <LongitudeDegrees>-2.75413722731173038482666015625</LongitudeDegrees>
            </Position>
            <AltitudeMeters>164.8000030517578125</AltitudeMeters>
            <DistanceMeters>NAN</DistanceMeters>
          </Trackpoint>
          <Trackpoint>
            <Time>2022-09-24T15:18:42.000Z</Time>
            <Position>
              <LatitudeDegrees>43.29834423959255218505859375</LatitudeDegrees>
              <LongitudeDegrees>-2.754060365259647369384765625</LongitudeDegrees>
            </Position>
            <AltitudeMeters>164.8000030517578125</AltitudeMeters>
            <DistanceMeters>NAN</DistanceMeters>
          </Trackpoint>
          <Trackpoint>
            <Time>2022-09-24T15:18:43.000Z</Time>
            <Position>
              <LatitudeDegrees>43.29842269420623779296875</LatitudeDegrees>
              <LongitudeDegrees>-2.753987610340118408203125</LongitudeDegrees>
            </Position>
            <AltitudeMeters>164.399993896484375</AltitudeMeters>
            <DistanceMeters>NAN</DistanceMeters>
          </Trackpoint>
          <Trackpoint>
            <Time>2022-09-24T15:18:44.000Z</Time>
            <Position>
              <LatitudeDegrees>43.29850173555314540863037109375</LatitudeDegrees>
              <LongitudeDegrees>-2.75391493923962116241455078125</LongitudeDegrees>
            </Position>
            <AltitudeMeters>164.1999969482421875</AltitudeMeters>
            <DistanceMeters>NAN</DistanceMeters>
          </Trackpoint>
          <Trackpoint>
            <Time>2022-09-24T15:18:45.000Z</Time>
            <Position>
              <LatitudeDegrees>43.29857767559587955474853515625</LatitudeDegrees>
              <LongitudeDegrees>-2.75384436361491680145263671875</LongitudeDegrees>
            </Position>
            <AltitudeMeters>163.1999969482421875</AltitudeMeters>
            <DistanceMeters>NAN</DistanceMeters>
          </Trackpoint>
          <Trackpoint>
            <Time>2022-09-24T15:18:46.000Z</Time>
            <Position>
              <LatitudeDegrees>43.29865135252475738525390625</LatitudeDegrees>
              <LongitudeDegrees>-2.75377848185598850250244140625</LongitudeDegrees>
            </Position>
            <AltitudeMeters>162.600006103515625</AltitudeMeters>
            <DistanceMeters>NAN</DistanceMeters>
          </Trackpoint>
          <Trackpoint>
            <Time>2022-09-24T15:18:47.000Z</Time>
            <Position>
              <LatitudeDegrees>43.29865135252475738525390625</LatitudeDegrees>
              <LongitudeDegrees>-2.75377848185598850250244140625</LongitudeDegrees>
            </Position>
            <AltitudeMeters>162.399993896484375</AltitudeMeters>
            <DistanceMeters>NAN</DistanceMeters>
          </Trackpoint>
          <Trackpoint>
            <Time>2022-09-24T15:18:48.000Z</Time>
            <Position>
              <LatitudeDegrees>43.2987983711063861846923828125</LatitudeDegrees>
              <LongitudeDegrees>-2.75364353321492671966552734375</LongitudeDegrees>
            </Position>
            <AltitudeMeters>162.399993896484375</AltitudeMeters>
            <DistanceMeters>NAN</DistanceMeters>
          </Trackpoint>
          <Trackpoint>
            <Time>2022-09-24T15:18:49.000Z</Time>
            <Position>
              <LatitudeDegrees>43.29887372441589832305908203125</LatitudeDegrees>
              <LongitudeDegrees>-2.7535877935588359832763671875</LongitudeDegrees>
            </Position>
            <AltitudeMeters>161.8000030517578125</AltitudeMeters>
            <DistanceMeters>NAN</DistanceMeters>
          </Trackpoint>
          <Trackpoint>
            <Time>2022-09-24T15:18:50.000Z</Time>
            <Position>
              <LatitudeDegrees>43.29895184375345706939697265625</LatitudeDegrees>
              <LongitudeDegrees>-2.75353423319756984710693359375</LongitudeDegrees>
            </Position>
            <AltitudeMeters>161.600006103515625</AltitudeMeters>
            <DistanceMeters>NAN</DistanceMeters>
          </Trackpoint>
          <Trackpoint>
            <Time>2022-09-24T15:18:51.000Z</Time>
            <Position>
              <LatitudeDegrees>43.29903214238584041595458984375</LatitudeDegrees>
              <LongitudeDegrees>-2.75348276831209659576416015625</LongitudeDegrees>
            </Position>
            <AltitudeMeters>161</AltitudeMeters>
            <DistanceMeters>NAN</DistanceMeters>
          </Trackpoint>
          <Trackpoint>
            <Time>2022-09-24T15:18:52.000Z</Time>
            <Position>
              <LatitudeDegrees>43.29911109991371631622314453125</LatitudeDegrees>
              <LongitudeDegrees>-2.7534315548837184906005859375</LongitudeDegrees>
            </Position>
            <AltitudeMeters>161</AltitudeMeters>
            <DistanceMeters>NAN</DistanceMeters>
          </Trackpoint>
          <Trackpoint>
            <Time>2022-09-24T15:18:53.000Z</Time>
            <Position>
              <LatitudeDegrees>43.2991893030703067779541015625</LatitudeDegrees>
              <LongitudeDegrees>-2.75338210165500640869140625</LongitudeDegrees>
            </Position>
            <AltitudeMeters>161</AltitudeMeters>
            <DistanceMeters>NAN</DistanceMeters>
          </Trackpoint>
          <Trackpoint>
            <Time>2022-09-24T15:18:54.000Z</Time>
            <Position>
              <LatitudeDegrees>43.2992677576839923858642578125</LatitudeDegrees>
              <LongitudeDegrees>-2.75333206169307231903076171875</LongitudeDegrees>
            </Position>
            <AltitudeMeters>161</AltitudeMeters>
            <DistanceMeters>NAN</DistanceMeters>
          </Trackpoint>
          <Trackpoint>
            <Time>2022-09-24T15:18:55.000Z</Time>
            <Position>
              <LatitudeDegrees>43.2993440330028533935546875</LatitudeDegrees>
              <LongitudeDegrees>-2.7532835304737091064453125</LongitudeDegrees>
            </Position>
            <AltitudeMeters>161</AltitudeMeters>
            <DistanceMeters>NAN</DistanceMeters>
          </Trackpoint>
          <Trackpoint>
            <Time>2022-09-24T15:18:56.000Z</Time>
            <Position>
              <LatitudeDegrees>43.2994182966649532318115234375</LatitudeDegrees>
              <LongitudeDegrees>-2.753238268196582794189453125</LongitudeDegrees>
            </Position>
            <AltitudeMeters>161</AltitudeMeters>
            <DistanceMeters>NAN</DistanceMeters>
          </Trackpoint>
          <Trackpoint>
            <Time>2022-09-24T15:18:57.000Z</Time>
            <Position>
              <LatitudeDegrees>43.29948979429900646209716796875</LatitudeDegrees>
              <LongitudeDegrees>-2.753192670643329620361328125</LongitudeDegrees>
            </Position>
            <AltitudeMeters>160.8000030517578125</AltitudeMeters>
            <DistanceMeters>NAN</DistanceMeters>
          </Trackpoint>
          <Trackpoint>
            <Time>2022-09-24T15:18:58.000Z</Time>
            <Position>
              <LatitudeDegrees>43.2995597831904888153076171875</LatitudeDegrees>
              <LongitudeDegrees>-2.75314740836620330810546875</LongitudeDegrees>
            </Position>
            <AltitudeMeters>161.1999969482421875</AltitudeMeters>
            <DistanceMeters>NAN</DistanceMeters>
          </Trackpoint>
          <Trackpoint>
            <Time>2022-09-24T15:18:59.000Z</Time>
            <Position>
              <LatitudeDegrees>43.2996291853487491607666015625</LatitudeDegrees>
              <LongitudeDegrees>-2.753102481365203857421875</LongitudeDegrees>
            </Position>
            <AltitudeMeters>160.8000030517578125</AltitudeMeters>
            <DistanceMeters>NAN</DistanceMeters>
          </Trackpoint>
          <Trackpoint>
            <Time>2022-09-24T15:19:00.000Z</Time>
            <Position>
              <LatitudeDegrees>43.2996989227831363677978515625</LatitudeDegrees>
              <LongitudeDegrees>-2.75305763818323612213134765625</LongitudeDegrees>
            </Position>
            <AltitudeMeters>160.8000030517578125</AltitudeMeters>
            <DistanceMeters>NAN</DistanceMeters>
          </Trackpoint>
          <Trackpoint>
            <Time>2022-09-24T15:19:01.000Z</Time>
            <Position>
              <LatitudeDegrees>43.2997626252472400665283203125</LatitudeDegrees>
              <LongitudeDegrees>-2.75301195681095123291015625</LongitudeDegrees>
            </Position>
            <AltitudeMeters>160.8000030517578125</AltitudeMeters>
            <DistanceMeters>NAN</DistanceMeters>
          </Trackpoint>
          <Trackpoint>
            <Time>2022-09-24T15:19:02.000Z</Time>
            <Position>
              <LatitudeDegrees>43.29982616007328033447265625</LatitudeDegrees>
              <LongitudeDegrees>-2.752967365086078643798828125</LongitudeDegrees>
            </Position>
            <AltitudeMeters>160.8000030517578125</AltitudeMeters>
            <DistanceMeters>NAN</DistanceMeters>
          </Trackpoint>
          <Trackpoint>
            <Time>2022-09-24T15:19:03.000Z</Time>
            <Position>
              <LatitudeDegrees>43.29988977871835231781005859375</LatitudeDegrees>
              <LongitudeDegrees>-2.7529209293425083160400390625</LongitudeDegrees>
            </Position>
            <AltitudeMeters>160.600006103515625</AltitudeMeters>
            <DistanceMeters>NAN</DistanceMeters>
          </Trackpoint>
          <Trackpoint>
            <Time>2022-09-24T15:19:04.000Z</Time>
            <Position>
              <LatitudeDegrees>43.299950547516345977783203125</LatitudeDegrees>
              <LongitudeDegrees>-2.75286653079092502593994140625</LongitudeDegrees>
            </Position>
            <AltitudeMeters>160.1999969482421875</AltitudeMeters>
            <DistanceMeters>NAN</DistanceMeters>
          </Trackpoint>
          <Trackpoint>
            <Time>2022-09-24T15:19:05.000Z</Time>
            <Position>
              <LatitudeDegrees>43.30001131631433963775634765625</LatitudeDegrees>
              <LongitudeDegrees>-2.752807438373565673828125</LongitudeDegrees>
            </Position>
            <AltitudeMeters>159.8000030517578125</AltitudeMeters>
            <DistanceMeters>NAN</DistanceMeters>
          </Trackpoint>
          <Trackpoint>
            <Time>2022-09-24T15:19:06.000Z</Time>
            <Position>
              <LatitudeDegrees>43.30007158219814300537109375</LatitudeDegrees>
              <LongitudeDegrees>-2.752743400633335113525390625</LongitudeDegrees>
            </Position>
            <AltitudeMeters>159.600006103515625</AltitudeMeters>
            <DistanceMeters>NAN</DistanceMeters>
          </Trackpoint>
          <Trackpoint>
            <Time>2022-09-24T15:19:07.000Z</Time>
            <Position>
              <LatitudeDegrees>43.3001299202442169189453125</LatitudeDegrees>
              <LongitudeDegrees>-2.75266804732382297515869140625</LongitudeDegrees>
            </Position>
            <AltitudeMeters>159.600006103515625</AltitudeMeters>
            <DistanceMeters>NAN</DistanceMeters>
          </Trackpoint>
          <Trackpoint>
            <Time>2022-09-24T15:19:08.000Z</Time>
            <Position>
              <LatitudeDegrees>43.30018951557576656341552734375</LatitudeDegrees>
              <LongitudeDegrees>-2.75258623994886875152587890625</LongitudeDegrees>
            </Position>
            <AltitudeMeters>159.600006103515625</AltitudeMeters>
            <DistanceMeters>NAN</DistanceMeters>
          </Trackpoint>
          <Trackpoint>
            <Time>2022-09-24T15:19:09.000Z</Time>
            <Position>
              <LatitudeDegrees>43.3002464286983013153076171875</LatitudeDegrees>
              <LongitudeDegrees>-2.7525108866393566131591796875</LongitudeDegrees>
            </Position>
            <AltitudeMeters>158.1999969482421875</AltitudeMeters>
            <DistanceMeters>NAN</DistanceMeters>
          </Trackpoint>
          <Trackpoint>
            <Time>2022-09-24T15:19:10.000Z</Time>
            <Position>
              <LatitudeDegrees>43.30030250363051891326904296875</LatitudeDegrees>
              <LongitudeDegrees>-2.75243888609111309051513671875</LongitudeDegrees>
            </Position>
            <AltitudeMeters>156.8000030517578125</AltitudeMeters>
            <DistanceMeters>NAN</DistanceMeters>
          </Trackpoint>
          <Trackpoint>
            <Time>2022-09-24T15:19:11.000Z</Time>
            <Position>
              <LatitudeDegrees>43.3003597520291805267333984375</LatitudeDegrees>
              <LongitudeDegrees>-2.7523616887629032135009765625</LongitudeDegrees>
            </Position>
            <AltitudeMeters>156.8000030517578125</AltitudeMeters>
            <DistanceMeters>NAN</DistanceMeters>
          </Trackpoint>
          <Trackpoint>
            <Time>2022-09-24T15:19:12.000Z</Time>
            <Position>
              <LatitudeDegrees>43.30041834153234958648681640625</LatitudeDegrees>
              <LongitudeDegrees>-2.752287425100803375244140625</LongitudeDegrees>
            </Position>
            <AltitudeMeters>156.8000030517578125</AltitudeMeters>
            <DistanceMeters>NAN</DistanceMeters>
          </Trackpoint>
          <Trackpoint>
            <Time>2022-09-24T15:19:13.000Z</Time>
            <Position>
              <LatitudeDegrees>43.30047517083585262298583984375</LatitudeDegrees>
              <LongitudeDegrees>-2.752209641039371490478515625</LongitudeDegrees>
            </Position>
            <AltitudeMeters>156.1999969482421875</AltitudeMeters>
            <DistanceMeters>NAN</DistanceMeters>
          </Trackpoint>
          <Trackpoint>
            <Time>2022-09-24T15:19:14.000Z</Time>
            <Position>
              <LatitudeDegrees>43.3005337603390216827392578125</LatitudeDegrees>
              <LongitudeDegrees>-2.75212548673152923583984375</LongitudeDegrees>
            </Position>
            <AltitudeMeters>155.399993896484375</AltitudeMeters>
            <DistanceMeters>NAN</DistanceMeters>
          </Trackpoint>
          <Trackpoint>
            <Time>2022-09-24T15:19:15.000Z</Time>
            <Position>
              <LatitudeDegrees>43.30059452913701534271240234375</LatitudeDegrees>
              <LongitudeDegrees>-2.75204041041433811187744140625</LongitudeDegrees>
            </Position>
            <AltitudeMeters>155</AltitudeMeters>
            <DistanceMeters>NAN</DistanceMeters>
          </Trackpoint>
          <Trackpoint>
            <Time>2022-09-24T15:19:16.000Z</Time>
            <Position>
              <LatitudeDegrees>43.30065940506756305694580078125</LatitudeDegrees>
              <LongitudeDegrees>-2.751954160630702972412109375</LongitudeDegrees>
            </Position>
            <AltitudeMeters>155</AltitudeMeters>
            <DistanceMeters>NAN</DistanceMeters>
          </Trackpoint>
          <Trackpoint>
            <Time>2022-09-24T15:19:17.000Z</Time>
            <Position>
              <LatitudeDegrees>43.30072562210261821746826171875</LatitudeDegrees>
              <LongitudeDegrees>-2.75186405517160892486572265625</LongitudeDegrees>
            </Position>
            <AltitudeMeters>155</AltitudeMeters>
            <DistanceMeters>NAN</DistanceMeters>
          </Trackpoint>
          <Trackpoint>
            <Time>2022-09-24T15:19:18.000Z</Time>
            <Position>
              <LatitudeDegrees>43.3007942698895931243896484375</LatitudeDegrees>
              <LongitudeDegrees>-2.75177478790283203125</LongitudeDegrees>
            </Position>
            <AltitudeMeters>153.8000030517578125</AltitudeMeters>
            <DistanceMeters>NAN</DistanceMeters>
          </Trackpoint>
          <Trackpoint>
            <Time>2022-09-24T15:19:19.000Z</Time>
            <Position>
              <LatitudeDegrees>43.30086191184818744659423828125</LatitudeDegrees>
              <LongitudeDegrees>-2.75168887339532375335693359375</LongitudeDegrees>
            </Position>
            <AltitudeMeters>153.600006103515625</AltitudeMeters>
            <DistanceMeters>NAN</DistanceMeters>
          </Trackpoint>
          <Trackpoint>
            <Time>2022-09-24T15:19:20.000Z</Time>
            <Position>
              <LatitudeDegrees>43.30093265511095523834228515625</LatitudeDegrees>
              <LongitudeDegrees>-2.751607485115528106689453125</LongitudeDegrees>
            </Position>
            <AltitudeMeters>153.1999969482421875</AltitudeMeters>
            <DistanceMeters>NAN</DistanceMeters>
          </Trackpoint>
          <Trackpoint>
            <Time>2022-09-24T15:19:21.000Z</Time>
            <Position>
              <LatitudeDegrees>43.3010007999837398529052734375</LatitudeDegrees>
              <LongitudeDegrees>-2.751524336636066436767578125</LongitudeDegrees>
            </Position>
            <AltitudeMeters>153.1999969482421875</AltitudeMeters>
            <DistanceMeters>NAN</DistanceMeters>
          </Trackpoint>
          <Trackpoint>
            <Time>2022-09-24T15:19:22.000Z</Time>
            <Position>
              <LatitudeDegrees>43.301053941249847412109375</LatitudeDegrees>
              <LongitudeDegrees>-2.75145719759166240692138671875</LongitudeDegrees>
            </Position>
            <AltitudeMeters>152.399993896484375</AltitudeMeters>
            <DistanceMeters>NAN</DistanceMeters>
          </Trackpoint>
          <Trackpoint>
            <Time>2022-09-24T15:19:23.000Z</Time>
            <Position>
              <LatitudeDegrees>43.30113750882446765899658203125</LatitudeDegrees>
              <LongitudeDegrees>-2.75136415846645832061767578125</LongitudeDegrees>
            </Position>
            <AltitudeMeters>151.8000030517578125</AltitudeMeters>
            <DistanceMeters>NAN</DistanceMeters>
          </Trackpoint>
          <Trackpoint>
            <Time>2022-09-24T15:19:24.000Z</Time>
            <Position>
              <LatitudeDegrees>43.30121328122913837432861328125</LatitudeDegrees>
              <LongitudeDegrees>-2.75129735469818115234375</LongitudeDegrees>
            </Position>
            <AltitudeMeters>151.600006103515625</AltitudeMeters>
            <DistanceMeters>NAN</DistanceMeters>
          </Trackpoint>
          <Trackpoint>
            <Time>2022-09-24T15:19:25.000Z</Time>
            <Position>
              <LatitudeDegrees>43.301276899874210357666015625</LatitudeDegrees>
              <LongitudeDegrees>-2.7512482367455959320068359375</LongitudeDegrees>
            </Position>
            <AltitudeMeters>151.1999969482421875</AltitudeMeters>
            <DistanceMeters>NAN</DistanceMeters>
          </Trackpoint>
          <Trackpoint>
            <Time>2022-09-24T15:19:26.000Z</Time>
            <Position>
              <LatitudeDegrees>43.30136583186686038970947265625</LatitudeDegrees>
              <LongitudeDegrees>-2.75120389647781848907470703125</LongitudeDegrees>
            </Position>
            <AltitudeMeters>150.399993896484375</AltitudeMeters>
            <DistanceMeters>NAN</DistanceMeters>
          </Trackpoint>
          <Trackpoint>
            <Time>2022-09-24T15:19:27.000Z</Time>
            <Position>
              <LatitudeDegrees>43.3014602959156036376953125</LatitudeDegrees>
              <LongitudeDegrees>-2.751172296702861785888671875</LongitudeDegrees>
            </Position>
            <AltitudeMeters>150.399993896484375</AltitudeMeters>
            <DistanceMeters>NAN</DistanceMeters>
          </Trackpoint>
          <Trackpoint>
            <Time>2022-09-24T15:19:28.000Z</Time>
            <Position>
              <LatitudeDegrees>43.30157672055065631866455078125</LatitudeDegrees>
              <LongitudeDegrees>-2.7511503361165523529052734375</LongitudeDegrees>
            </Position>
            <AltitudeMeters>150</AltitudeMeters>
            <DistanceMeters>NAN</DistanceMeters>
          </Trackpoint>
          <Trackpoint>
            <Time>2022-09-24T15:19:29.000Z</Time>
            <Position>
              <LatitudeDegrees>43.30165810883045196533203125</LatitudeDegrees>
              <LongitudeDegrees>-2.75114220567047595977783203125</LongitudeDegrees>
            </Position>
            <AltitudeMeters>150</AltitudeMeters>
            <DistanceMeters>NAN</DistanceMeters>
          </Trackpoint>
          <Trackpoint>
            <Time>2022-09-24T15:19:30.000Z</Time>
            <Position>
              <LatitudeDegrees>43.3017585240304470062255859375</LatitudeDegrees>
              <LongitudeDegrees>-2.75113172829151153564453125</LongitudeDegrees>
            </Position>
            <AltitudeMeters>148.8000030517578125</AltitudeMeters>
            <DistanceMeters>NAN</DistanceMeters>
          </Trackpoint>
          <Trackpoint>
            <Time>2022-09-24T15:19:31.000Z</Time>
            <Position>
              <LatitudeDegrees>43.30188215710222721099853515625</LatitudeDegrees>
              <LongitudeDegrees>-2.75111454539000988006591796875</LongitudeDegrees>
            </Position>
            <AltitudeMeters>148</AltitudeMeters>
            <DistanceMeters>NAN</DistanceMeters>
          </Trackpoint>
          <Trackpoint>
            <Time>2022-09-24T15:19:32.000Z</Time>
            <Position>
              <LatitudeDegrees>43.30198659561574459075927734375</LatitudeDegrees>
              <LongitudeDegrees>-2.75109979324042797088623046875</LongitudeDegrees>
            </Position>
            <AltitudeMeters>147.600006103515625</AltitudeMeters>
            <DistanceMeters>NAN</DistanceMeters>
          </Trackpoint>
          <Trackpoint>
            <Time>2022-09-24T15:19:33.000Z</Time>
            <Position>
              <LatitudeDegrees>43.30209153704345226287841796875</LatitudeDegrees>
              <LongitudeDegrees>-2.7510876394808292388916015625</LongitudeDegrees>
            </Position>
            <AltitudeMeters>147.399993896484375</AltitudeMeters>
            <DistanceMeters>NAN</DistanceMeters>
          </Trackpoint>
          <Trackpoint>
            <Time>2022-09-24T15:19:34.000Z</Time>
            <Position>
              <LatitudeDegrees>43.30219832248985767364501953125</LatitudeDegrees>
              <LongitudeDegrees>-2.7510733902454376220703125</LongitudeDegrees>
            </Position>
            <AltitudeMeters>147.399993896484375</AltitudeMeters>
            <DistanceMeters>NAN</DistanceMeters>
          </Trackpoint>
          <Trackpoint>
            <Time>2022-09-24T15:19:35.000Z</Time>
            <Position>
              <LatitudeDegrees>43.3023051917552947998046875</LatitudeDegrees>
              <LongitudeDegrees>-2.75105972774326801300048828125</LongitudeDegrees>
            </Position>
            <AltitudeMeters>147.1999969482421875</AltitudeMeters>
            <DistanceMeters>NAN</DistanceMeters>
          </Trackpoint>
          <Trackpoint>
            <Time>2022-09-24T15:19:36.000Z</Time>
            <Position>
              <LatitudeDegrees>43.30240912735462188720703125</LatitudeDegrees>
              <LongitudeDegrees>-2.75104262866079807281494140625</LongitudeDegrees>
            </Position>
            <AltitudeMeters>144.8000030517578125</AltitudeMeters>
            <DistanceMeters>NAN</DistanceMeters>
          </Trackpoint>
          <Trackpoint>
            <Time>2022-09-24T15:19:37.000Z</Time>
            <Position>
              <LatitudeDegrees>43.30250778235495090484619140625</LatitudeDegrees>
              <LongitudeDegrees>-2.7510189078748226165771484375</LongitudeDegrees>
            </Position>
            <AltitudeMeters>144.600006103515625</AltitudeMeters>
            <DistanceMeters>NAN</DistanceMeters>
          </Trackpoint>
          <Trackpoint>
            <Time>2022-09-24T15:19:38.000Z</Time>
            <Position>
              <LatitudeDegrees>43.30260266549885272979736328125</LatitudeDegrees>
              <LongitudeDegrees>-2.750971801578998565673828125</LongitudeDegrees>
            </Position>
            <AltitudeMeters>143.8000030517578125</AltitudeMeters>
            <DistanceMeters>NAN</DistanceMeters>
          </Trackpoint>
          <Trackpoint>
            <Time>2022-09-24T15:19:39.000Z</Time>
            <Position>
              <LatitudeDegrees>43.3026905916631221771240234375</LatitudeDegrees>
              <LongitudeDegrees>-2.75090910494327545166015625</LongitudeDegrees>
            </Position>
            <AltitudeMeters>143.399993896484375</AltitudeMeters>
            <DistanceMeters>NAN</DistanceMeters>
          </Trackpoint>
          <Trackpoint>
            <Time>2022-09-24T15:19:40.000Z</Time>
            <Position>
              <LatitudeDegrees>43.302768878638744354248046875</LatitudeDegrees>
              <LongitudeDegrees>-2.7508214302361011505126953125</LongitudeDegrees>
            </Position>
            <AltitudeMeters>142.600006103515625</AltitudeMeters>
            <DistanceMeters>NAN</DistanceMeters>
          </Trackpoint>
          <Trackpoint>
            <Time>2022-09-24T15:19:41.000Z</Time>
            <Position>
              <LatitudeDegrees>43.30283819697797298431396484375</LatitudeDegrees>
              <LongitudeDegrees>-2.7507138065993785858154296875</LongitudeDegrees>
            </Position>
            <AltitudeMeters>142.600006103515625</AltitudeMeters>
            <DistanceMeters>NAN</DistanceMeters>
          </Trackpoint>
          <Trackpoint>
            <Time>2022-09-24T15:19:42.000Z</Time>
            <Position>
              <LatitudeDegrees>43.30289804376661777496337890625</LatitudeDegrees>
              <LongitudeDegrees>-2.750596292316913604736328125</LongitudeDegrees>
            </Position>
            <AltitudeMeters>142</AltitudeMeters>
            <DistanceMeters>NAN</DistanceMeters>
          </Trackpoint>
          <Trackpoint>
            <Time>2022-09-24T15:19:43.000Z</Time>
            <Position>
              <LatitudeDegrees>43.3029504306614398956298828125</LatitudeDegrees>
              <LongitudeDegrees>-2.75046880356967449188232421875</LongitudeDegrees>
            </Position>
            <AltitudeMeters>141.600006103515625</AltitudeMeters>
            <DistanceMeters>NAN</DistanceMeters>
          </Trackpoint>
          <Trackpoint>
            <Time>2022-09-24T15:19:44.000Z</Time>
            <Position>
              <LatitudeDegrees>43.30299879424273967742919921875</LatitudeDegrees>
              <LongitudeDegrees>-2.750338129699230194091796875</LongitudeDegrees>
            </Position>
            <AltitudeMeters>139.600006103515625</AltitudeMeters>
            <DistanceMeters>NAN</DistanceMeters>
          </Trackpoint>
          <Trackpoint>
            <Time>2022-09-24T15:19:45.000Z</Time>
            <Position>
              <LatitudeDegrees>43.30304481089115142822265625</LatitudeDegrees>
              <LongitudeDegrees>-2.75020594708621501922607421875</LongitudeDegrees>
            </Position>
            <AltitudeMeters>139.600006103515625</AltitudeMeters>
            <DistanceMeters>NAN</DistanceMeters>
          </Trackpoint>
          <Trackpoint>
            <Time>2022-09-24T15:19:46.000Z</Time>
            <Position>
              <LatitudeDegrees>43.30308730714023113250732421875</LatitudeDegrees>
              <LongitudeDegrees>-2.7500710822641849517822265625</LongitudeDegrees>
            </Position>
            <AltitudeMeters>139</AltitudeMeters>
            <DistanceMeters>NAN</DistanceMeters>
          </Trackpoint>
          <Trackpoint>
            <Time>2022-09-24T15:19:47.000Z</Time>
            <Position>
              <LatitudeDegrees>43.30312217585742473602294921875</LatitudeDegrees>
              <LongitudeDegrees>-2.7499319426715373992919921875</LongitudeDegrees>
            </Position>
            <AltitudeMeters>137.8000030517578125</AltitudeMeters>
            <DistanceMeters>NAN</DistanceMeters>
          </Trackpoint>
          <Trackpoint>
            <Time>2022-09-24T15:19:48.000Z</Time>
            <Position>
              <LatitudeDegrees>43.3031465671956539154052734375</LatitudeDegrees>
              <LongitudeDegrees>-2.74979053996503353118896484375</LongitudeDegrees>
            </Position>
            <AltitudeMeters>137.600006103515625</AltitudeMeters>
            <DistanceMeters>NAN</DistanceMeters>
          </Trackpoint>
          <Trackpoint>
            <Time>2022-09-24T15:19:49.000Z</Time>
            <Position>
              <LatitudeDegrees>43.303160481154918670654296875</LatitudeDegrees>
              <LongitudeDegrees>-2.74964578449726104736328125</LongitudeDegrees>
            </Position>
            <AltitudeMeters>136.600006103515625</AltitudeMeters>
            <DistanceMeters>NAN</DistanceMeters>
          </Trackpoint>
          <Trackpoint>
            <Time>2022-09-24T15:19:50.000Z</Time>
            <Position>
              <LatitudeDegrees>43.3031688630580902099609375</LatitudeDegrees>
              <LongitudeDegrees>-2.74950086139142513275146484375</LongitudeDegrees>
            </Position>
            <AltitudeMeters>136</AltitudeMeters>
            <DistanceMeters>NAN</DistanceMeters>
          </Trackpoint>
          <Trackpoint>
            <Time>2022-09-24T15:19:51.000Z</Time>
            <Position>
              <LatitudeDegrees>43.30316827632486820220947265625</LatitudeDegrees>
              <LongitudeDegrees>-2.74935719557106494903564453125</LongitudeDegrees>
            </Position>
            <AltitudeMeters>135.600006103515625</AltitudeMeters>
            <DistanceMeters>NAN</DistanceMeters>
          </Trackpoint>
          <Trackpoint>
            <Time>2022-09-24T15:19:52.000Z</Time>
            <Position>
              <LatitudeDegrees>43.3031569607555866241455078125</LatitudeDegrees>
              <LongitudeDegrees>-2.7492164634168148040771484375</LongitudeDegrees>
            </Position>
            <AltitudeMeters>135.600006103515625</AltitudeMeters>
            <DistanceMeters>NAN</DistanceMeters>
          </Trackpoint>
          <Trackpoint>
            <Time>2022-09-24T15:19:53.000Z</Time>
            <Position>
              <LatitudeDegrees>43.30312754027545452117919921875</LatitudeDegrees>
              <LongitudeDegrees>-2.7490813471376895904541015625</LongitudeDegrees>
            </Position>
            <AltitudeMeters>134.8000030517578125</AltitudeMeters>
            <DistanceMeters>NAN</DistanceMeters>
          </Trackpoint>
          <Trackpoint>
            <Time>2022-09-24T15:19:54.000Z</Time>
            <Position>
              <LatitudeDegrees>43.3030821941792964935302734375</LatitudeDegrees>
              <LongitudeDegrees>-2.74895335547626018524169921875</LongitudeDegrees>
            </Position>
            <AltitudeMeters>133.1999969482421875</AltitudeMeters>
            <DistanceMeters>NAN</DistanceMeters>
          </Trackpoint>
          <Trackpoint>
            <Time>2022-09-24T15:19:55.000Z</Time>
            <Position>
              <LatitudeDegrees>43.3030265383422374725341796875</LatitudeDegrees>
              <LongitudeDegrees>-2.748832404613494873046875</LongitudeDegrees>
            </Position>
            <AltitudeMeters>132.399993896484375</AltitudeMeters>
            <DistanceMeters>NAN</DistanceMeters>
          </Trackpoint>
          <Trackpoint>
            <Time>2022-09-24T15:19:56.000Z</Time>
            <Position>
              <LatitudeDegrees>43.30296627245843410491943359375</LatitudeDegrees>
              <LongitudeDegrees>-2.74871296249330043792724609375</LongitudeDegrees>
            </Position>
            <AltitudeMeters>132.1999969482421875</AltitudeMeters>
            <DistanceMeters>NAN</DistanceMeters>
          </Trackpoint>
          <Trackpoint>
            <Time>2022-09-24T15:19:57.000Z</Time>
            <Position>
              <LatitudeDegrees>43.30290273763239383697509765625</LatitudeDegrees>
              <LongitudeDegrees>-2.748592682182788848876953125</LongitudeDegrees>
            </Position>
            <AltitudeMeters>132.1999969482421875</AltitudeMeters>
            <DistanceMeters>NAN</DistanceMeters>
          </Trackpoint>
          <Trackpoint>
            <Time>2022-09-24T15:19:58.000Z</Time>
            <Position>
              <LatitudeDegrees>43.302836604416370391845703125</LatitudeDegrees>
              <LongitudeDegrees>-2.7484714798629283905029296875</LongitudeDegrees>
            </Position>
            <AltitudeMeters>131.399993896484375</AltitudeMeters>
            <DistanceMeters>NAN</DistanceMeters>
          </Trackpoint>
          <Trackpoint>
            <Time>2022-09-24T15:19:59.000Z</Time>
            <Position>
              <LatitudeDegrees>43.302765525877475738525390625</LatitudeDegrees>
              <LongitudeDegrees>-2.7483561448752880096435546875</LongitudeDegrees>
            </Position>
            <AltitudeMeters>129.8000030517578125</AltitudeMeters>
            <DistanceMeters>NAN</DistanceMeters>
          </Trackpoint>
          <Trackpoint>
            <Time>2022-09-24T15:20:00.000Z</Time>
            <Position>
              <LatitudeDegrees>43.302691765129566192626953125</LatitudeDegrees>
              <LongitudeDegrees>-2.7482505328953266143798828125</LongitudeDegrees>
            </Position>
            <AltitudeMeters>128.8000030517578125</AltitudeMeters>
            <DistanceMeters>NAN</DistanceMeters>
          </Trackpoint>
          <Trackpoint>
            <Time>2022-09-24T15:20:01.000Z</Time>
            <Position>
              <LatitudeDegrees>43.30261322669684886932373046875</LatitudeDegrees>
              <LongitudeDegrees>-2.74815606884658336639404296875</LongitudeDegrees>
            </Position>
            <AltitudeMeters>127.59999847412109375</AltitudeMeters>
            <DistanceMeters>NAN</DistanceMeters>
          </Trackpoint>
          <Trackpoint>
            <Time>2022-09-24T15:20:02.000Z</Time>
            <Position>
              <LatitudeDegrees>43.30253116786479949951171875</LatitudeDegrees>
              <LongitudeDegrees>-2.748073674738407135009765625</LongitudeDegrees>
            </Position>
            <AltitudeMeters>127.40000152587890625</AltitudeMeters>
            <DistanceMeters>NAN</DistanceMeters>
          </Trackpoint>
          <Trackpoint>
            <Time>2022-09-24T15:20:03.000Z</Time>
            <Position>
              <LatitudeDegrees>43.302444331347942352294921875</LatitudeDegrees>
              <LongitudeDegrees>-2.7479995787143707275390625</LongitudeDegrees>
            </Position>
            <AltitudeMeters>127.1999969482421875</AltitudeMeters>
            <DistanceMeters>NAN</DistanceMeters>
          </Trackpoint>
          <Trackpoint>
            <Time>2022-09-24T15:20:04.000Z</Time>
            <Position>
              <LatitudeDegrees>43.30235187895596027374267578125</LatitudeDegrees>
              <LongitudeDegrees>-2.747935540974140167236328125</LongitudeDegrees>
            </Position>
            <AltitudeMeters>126.8000030517578125</AltitudeMeters>
            <DistanceMeters>NAN</DistanceMeters>
          </Trackpoint>
          <Trackpoint>
            <Time>2022-09-24T15:20:05.000Z</Time>
            <Position>
              <LatitudeDegrees>43.3022577501833438873291015625</LatitudeDegrees>
              <LongitudeDegrees>-2.74788265116512775421142578125</LongitudeDegrees>
            </Position>
            <AltitudeMeters>126.40000152587890625</AltitudeMeters>
            <DistanceMeters>NAN</DistanceMeters>
          </Trackpoint>
          <Trackpoint>
            <Time>2022-09-24T15:20:06.000Z</Time>
            <Position>
              <LatitudeDegrees>43.3021752722561359405517578125</LatitudeDegrees>
              <LongitudeDegrees>-2.747852392494678497314453125</LongitudeDegrees>
            </Position>
            <AltitudeMeters>126</AltitudeMeters>
            <DistanceMeters>NAN</DistanceMeters>
          </Trackpoint>
          <Trackpoint>
            <Time>2022-09-24T15:20:07.000Z</Time>
            <Position>
              <LatitudeDegrees>43.30204895697534084320068359375</LatitudeDegrees>
              <LongitudeDegrees>-2.7478441782295703887939453125</LongitudeDegrees>
            </Position>
            <AltitudeMeters>124</AltitudeMeters>
            <DistanceMeters>NAN</DistanceMeters>
          </Trackpoint>
          <Trackpoint>
            <Time>2022-09-24T15:20:08.000Z</Time>
            <Position>
              <LatitudeDegrees>43.3019472844898700714111328125</LatitudeDegrees>
              <LongitudeDegrees>-2.747871838510036468505859375</LongitudeDegrees>
            </Position>
            <AltitudeMeters>122.59999847412109375</AltitudeMeters>
            <DistanceMeters>NAN</DistanceMeters>
          </Trackpoint>
          <Trackpoint>
            <Time>2022-09-24T15:20:09.000Z</Time>
            <Position>
              <LatitudeDegrees>43.3018517307937145233154296875</LatitudeDegrees>
              <LongitudeDegrees>-2.7479231357574462890625</LongitudeDegrees>
            </Position>
            <AltitudeMeters>122</AltitudeMeters>
            <DistanceMeters>NAN</DistanceMeters>
          </Trackpoint>
          <Trackpoint>
            <Time>2022-09-24T15:20:10.000Z</Time>
            <Position>
              <LatitudeDegrees>43.30177755095064640045166015625</LatitudeDegrees>
              <LongitudeDegrees>-2.747981138527393341064453125</LongitudeDegrees>
            </Position>
            <AltitudeMeters>121.59999847412109375</AltitudeMeters>
            <DistanceMeters>NAN</DistanceMeters>
          </Trackpoint>
          <Trackpoint>
            <Time>2022-09-24T15:20:11.000Z</Time>
            <Position>
              <LatitudeDegrees>43.301686942577362060546875</LatitudeDegrees>
              <LongitudeDegrees>-2.74806085042655467987060546875</LongitudeDegrees>
            </Position>
            <AltitudeMeters>121.40000152587890625</AltitudeMeters>
            <DistanceMeters>NAN</DistanceMeters>
          </Trackpoint>
          <Trackpoint>
            <Time>2022-09-24T15:20:12.000Z</Time>
            <Position>
              <LatitudeDegrees>43.3015781454741954803466796875</LatitudeDegrees>
              <LongitudeDegrees>-2.74815539829432964324951171875</LongitudeDegrees>
            </Position>
            <AltitudeMeters>121.1999969482421875</AltitudeMeters>
            <DistanceMeters>NAN</DistanceMeters>
          </Trackpoint>
          <Trackpoint>
            <Time>2022-09-24T15:20:13.000Z</Time>
            <Position>
              <LatitudeDegrees>43.30148804001510143280029296875</LatitudeDegrees>
              <LongitudeDegrees>-2.74822882376611232757568359375</LongitudeDegrees>
            </Position>
            <AltitudeMeters>120.40000152587890625</AltitudeMeters>
            <DistanceMeters>NAN</DistanceMeters>
          </Trackpoint>
          <Trackpoint>
            <Time>2022-09-24T15:20:14.000Z</Time>
            <Position>
              <LatitudeDegrees>43.30139265395700931549072265625</LatitudeDegrees>
              <LongitudeDegrees>-2.74829252623021602630615234375</LongitudeDegrees>
            </Position>
            <AltitudeMeters>119.1999969482421875</AltitudeMeters>
            <DistanceMeters>NAN</DistanceMeters>
          </Trackpoint>
          <Trackpoint>
            <Time>2022-09-24T15:20:15.000Z</Time>
            <Position>
              <LatitudeDegrees>43.3012988604605197906494140625</LatitudeDegrees>
              <LongitudeDegrees>-2.7483366988599300384521484375</LongitudeDegrees>
            </Position>
            <AltitudeMeters>117.59999847412109375</AltitudeMeters>
            <DistanceMeters>NAN</DistanceMeters>
          </Trackpoint>
          <Trackpoint>
            <Time>2022-09-24T15:20:16.000Z</Time>
            <Position>
              <LatitudeDegrees>43.3012049831449985504150390625</LatitudeDegrees>
              <LongitudeDegrees>-2.74835966527462005615234375</LongitudeDegrees>
            </Position>
            <AltitudeMeters>117.59999847412109375</AltitudeMeters>
            <DistanceMeters>NAN</DistanceMeters>
          </Trackpoint>
          <Trackpoint>
            <Time>2022-09-24T15:20:17.000Z</Time>
            <Position>
              <LatitudeDegrees>43.3011089265346527099609375</LatitudeDegrees>
              <LongitudeDegrees>-2.74835505522787570953369140625</LongitudeDegrees>
            </Position>
            <AltitudeMeters>116.40000152587890625</AltitudeMeters>
            <DistanceMeters>NAN</DistanceMeters>
          </Trackpoint>
          <Trackpoint>
            <Time>2022-09-24T15:20:18.000Z</Time>
            <Position>
              <LatitudeDegrees>43.30101161263883113861083984375</LatitudeDegrees>
              <LongitudeDegrees>-2.74832253344357013702392578125</LongitudeDegrees>
            </Position>
            <AltitudeMeters>115.1999969482421875</AltitudeMeters>
            <DistanceMeters>NAN</DistanceMeters>
          </Trackpoint>
          <Trackpoint>
            <Time>2022-09-24T15:20:19.000Z</Time>
            <Position>
              <LatitudeDegrees>43.3009256981313228607177734375</LatitudeDegrees>
              <LongitudeDegrees>-2.7482686378061771392822265625</LongitudeDegrees>
            </Position>
            <AltitudeMeters>115.1999969482421875</AltitudeMeters>
            <DistanceMeters>NAN</DistanceMeters>
          </Trackpoint>
          <Trackpoint>
            <Time>2022-09-24T15:20:20.000Z</Time>
            <Position>
              <LatitudeDegrees>43.30085881054401397705078125</LatitudeDegrees>
              <LongitudeDegrees>-2.74819026701152324676513671875</LongitudeDegrees>
            </Position>
            <AltitudeMeters>114.1999969482421875</AltitudeMeters>
            <DistanceMeters>NAN</DistanceMeters>
          </Trackpoint>
          <Trackpoint>
            <Time>2022-09-24T15:20:21.000Z</Time>
            <Position>
              <LatitudeDegrees>43.300812877714633941650390625</LatitudeDegrees>
              <LongitudeDegrees>-2.748094461858272552490234375</LongitudeDegrees>
            </Position>
            <AltitudeMeters>113.1999969482421875</AltitudeMeters>
            <DistanceMeters>NAN</DistanceMeters>
          </Trackpoint>
          <Trackpoint>
            <Time>2022-09-24T15:20:22.000Z</Time>
            <Position>
              <LatitudeDegrees>43.3007768355309963226318359375</LatitudeDegrees>
              <LongitudeDegrees>-2.7479799650609493255615234375</LongitudeDegrees>
            </Position>
            <AltitudeMeters>111.8000030517578125</AltitudeMeters>
            <DistanceMeters>NAN</DistanceMeters>
          </Trackpoint>
          <Trackpoint>
            <Time>2022-09-24T15:20:23.000Z</Time>
            <Position>
              <LatitudeDegrees>43.3007523603737354278564453125</LatitudeDegrees>
              <LongitudeDegrees>-2.74785884656012058258056640625</LongitudeDegrees>
            </Position>
            <AltitudeMeters>111.59999847412109375</AltitudeMeters>
            <DistanceMeters>NAN</DistanceMeters>
          </Trackpoint>
          <Trackpoint>
            <Time>2022-09-24T15:20:24.000Z</Time>
            <Position>
              <LatitudeDegrees>43.3007218502461910247802734375</LatitudeDegrees>
              <LongitudeDegrees>-2.747738398611545562744140625</LongitudeDegrees>
            </Position>
            <AltitudeMeters>111.40000152587890625</AltitudeMeters>
            <DistanceMeters>NAN</DistanceMeters>
          </Trackpoint>
          <Trackpoint>
            <Time>2022-09-24T15:20:25.000Z</Time>
            <Position>
              <LatitudeDegrees>43.30067616887390613555908203125</LatitudeDegrees>
              <LongitudeDegrees>-2.74763421155512332916259765625</LongitudeDegrees>
            </Position>
            <AltitudeMeters>110.40000152587890625</AltitudeMeters>
            <DistanceMeters>NAN</DistanceMeters>
          </Trackpoint>
          <Trackpoint>
            <Time>2022-09-24T15:20:26.000Z</Time>
            <Position>
              <LatitudeDegrees>43.3006216026842594146728515625</LatitudeDegrees>
              <LongitudeDegrees>-2.74754888378083705902099609375</LongitudeDegrees>
            </Position>
            <AltitudeMeters>109.59999847412109375</AltitudeMeters>
            <DistanceMeters>NAN</DistanceMeters>
          </Trackpoint>
          <Trackpoint>
            <Time>2022-09-24T15:20:27.000Z</Time>
            <Position>
              <LatitudeDegrees>43.300560414791107177734375</LatitudeDegrees>
              <LongitudeDegrees>-2.74748082272708415985107421875</LongitudeDegrees>
            </Position>
            <AltitudeMeters>109.40000152587890625</AltitudeMeters>
            <DistanceMeters>NAN</DistanceMeters>
          </Trackpoint>
          <Trackpoint>
            <Time>2022-09-24T15:20:28.000Z</Time>
            <Position>
              <LatitudeDegrees>43.30049260519444942474365234375</LatitudeDegrees>
              <LongitudeDegrees>-2.747431285679340362548828125</LongitudeDegrees>
            </Position>
            <AltitudeMeters>108.59999847412109375</AltitudeMeters>
            <DistanceMeters>NAN</DistanceMeters>
          </Trackpoint>
          <Trackpoint>
            <Time>2022-09-24T15:20:29.000Z</Time>
            <Position>
              <LatitudeDegrees>43.30049260519444942474365234375</LatitudeDegrees>
              <LongitudeDegrees>-2.747431285679340362548828125</LongitudeDegrees>
            </Position>
            <AltitudeMeters>108.1999969482421875</AltitudeMeters>
            <DistanceMeters>NAN</DistanceMeters>
          </Trackpoint>
          <Trackpoint>
            <Time>2022-09-24T15:20:30.000Z</Time>
            <Position>
              <LatitudeDegrees>43.3003302477300167083740234375</LatitudeDegrees>
              <LongitudeDegrees>-2.7473650686442852020263671875</LongitudeDegrees>
            </Position>
            <AltitudeMeters>108.1999969482421875</AltitudeMeters>
            <DistanceMeters>NAN</DistanceMeters>
          </Trackpoint>
          <Trackpoint>
            <Time>2022-09-24T15:20:31.000Z</Time>
            <Position>
              <LatitudeDegrees>43.3002400584518909454345703125</LatitudeDegrees>
              <LongitudeDegrees>-2.74734939448535442352294921875</LongitudeDegrees>
            </Position>
            <AltitudeMeters>108</AltitudeMeters>
            <DistanceMeters>NAN</DistanceMeters>
          </Trackpoint>
          <Trackpoint>
            <Time>2022-09-24T15:20:32.000Z</Time>
            <Position>
              <LatitudeDegrees>43.3001478575170040130615234375</LatitudeDegrees>
              <LongitudeDegrees>-2.747353501617908477783203125</LongitudeDegrees>
            </Position>
            <AltitudeMeters>107.1999969482421875</AltitudeMeters>
            <DistanceMeters>NAN</DistanceMeters>
          </Trackpoint>
          <Trackpoint>
            <Time>2022-09-24T15:20:33.000Z</Time>
            <Position>
              <LatitudeDegrees>43.30005548894405364990234375</LatitudeDegrees>
              <LongitudeDegrees>-2.7473773062229156494140625</LongitudeDegrees>
            </Position>
            <AltitudeMeters>106.8000030517578125</AltitudeMeters>
            <DistanceMeters>NAN</DistanceMeters>
          </Trackpoint>
          <Trackpoint>
            <Time>2022-09-24T15:20:34.000Z</Time>
            <Position>
              <LatitudeDegrees>43.299962617456912994384765625</LatitudeDegrees>
              <LongitudeDegrees>-2.74741820991039276123046875</LongitudeDegrees>
            </Position>
            <AltitudeMeters>106.8000030517578125</AltitudeMeters>
            <DistanceMeters>NAN</DistanceMeters>
          </Trackpoint>
          <Trackpoint>
            <Time>2022-09-24T15:20:35.000Z</Time>
            <Position>
              <LatitudeDegrees>43.2998702488839626312255859375</LatitudeDegrees>
              <LongitudeDegrees>-2.747467495501041412353515625</LongitudeDegrees>
            </Position>
            <AltitudeMeters>106.40000152587890625</AltitudeMeters>
            <DistanceMeters>NAN</DistanceMeters>
          </Trackpoint>
          <Trackpoint>
            <Time>2022-09-24T15:20:36.000Z</Time>
            <Position>
              <LatitudeDegrees>43.29977561719715595245361328125</LatitudeDegrees>
              <LongitudeDegrees>-2.7475261688232421875</LongitudeDegrees>
            </Position>
            <AltitudeMeters>105.1999969482421875</AltitudeMeters>
            <DistanceMeters>NAN</DistanceMeters>
          </Trackpoint>
          <Trackpoint>
            <Time>2022-09-24T15:20:37.000Z</Time>
            <Position>
              <LatitudeDegrees>43.29968006350100040435791015625</LatitudeDegrees>
              <LongitudeDegrees>-2.7475886978209018707275390625</LongitudeDegrees>
            </Position>
            <AltitudeMeters>105</AltitudeMeters>
            <DistanceMeters>NAN</DistanceMeters>
          </Trackpoint>
          <Trackpoint>
            <Time>2022-09-24T15:20:38.000Z</Time>
            <Position>
              <LatitudeDegrees>43.2995906285941600799560546875</LatitudeDegrees>
              <LongitudeDegrees>-2.74765533395111560821533203125</LongitudeDegrees>
            </Position>
            <AltitudeMeters>102.40000152587890625</AltitudeMeters>
            <DistanceMeters>NAN</DistanceMeters>
          </Trackpoint>
          <Trackpoint>
            <Time>2022-09-24T15:20:39.000Z</Time>
            <Position>
              <LatitudeDegrees>43.2995074801146984100341796875</LatitudeDegrees>
              <LongitudeDegrees>-2.74771987460553646087646484375</LongitudeDegrees>
            </Position>
            <AltitudeMeters>101.40000152587890625</AltitudeMeters>
            <DistanceMeters>NAN</DistanceMeters>
          </Trackpoint>
          <Trackpoint>
            <Time>2022-09-24T15:20:40.000Z</Time>
            <Position>
              <LatitudeDegrees>43.299428857862949371337890625</LatitudeDegrees>
              <LongitudeDegrees>-2.7477757818996906280517578125</LongitudeDegrees>
            </Position>
            <AltitudeMeters>100.40000152587890625</AltitudeMeters>
            <DistanceMeters>NAN</DistanceMeters>
          </Trackpoint>
          <Trackpoint>
            <Time>2022-09-24T15:20:41.000Z</Time>
            <Position>
              <LatitudeDegrees>43.29935350455343723297119140625</LatitudeDegrees>
              <LongitudeDegrees>-2.74782733060419559478759765625</LongitudeDegrees>
            </Position>
            <AltitudeMeters>99.59999847412109375</AltitudeMeters>
            <DistanceMeters>NAN</DistanceMeters>
          </Trackpoint>
          <Trackpoint>
            <Time>2022-09-24T15:20:42.000Z</Time>
            <Position>
              <LatitudeDegrees>43.29927898943424224853515625</LatitudeDegrees>
              <LongitudeDegrees>-2.747877873480319976806640625</LongitudeDegrees>
            </Position>
            <AltitudeMeters>99.1999969482421875</AltitudeMeters>
            <DistanceMeters>NAN</DistanceMeters>
          </Trackpoint>
          <Trackpoint>
            <Time>2022-09-24T15:20:43.000Z</Time>
            <Position>
              <LatitudeDegrees>43.299203552305698394775390625</LatitudeDegrees>
              <LongitudeDegrees>-2.74792741052806377410888671875</LongitudeDegrees>
            </Position>
            <AltitudeMeters>99.1999969482421875</AltitudeMeters>
            <DistanceMeters>NAN</DistanceMeters>
          </Trackpoint>
          <Trackpoint>
            <Time>2022-09-24T15:20:44.000Z</Time>
            <Position>
              <LatitudeDegrees>43.299203552305698394775390625</LatitudeDegrees>
              <LongitudeDegrees>-2.74792741052806377410888671875</LongitudeDegrees>
            </Position>
            <AltitudeMeters>98.8000030517578125</AltitudeMeters>
            <DistanceMeters>NAN</DistanceMeters>
          </Trackpoint>
          <Trackpoint>
            <Time>2022-09-24T15:20:45.000Z</Time>
            <Position>
              <LatitudeDegrees>43.29904840327799320220947265625</LatitudeDegrees>
              <LongitudeDegrees>-2.74800167419016361236572265625</LongitudeDegrees>
            </Position>
            <AltitudeMeters>98.40000152587890625</AltitudeMeters>
            <DistanceMeters>NAN</DistanceMeters>
          </Trackpoint>
          <Trackpoint>
            <Time>2022-09-24T15:20:46.000Z</Time>
            <Position>
              <LatitudeDegrees>43.29897078685462474822998046875</LatitudeDegrees>
              <LongitudeDegrees>-2.74801676161587238311767578125</LongitudeDegrees>
            </Position>
            <AltitudeMeters>97.40000152587890625</AltitudeMeters>
            <DistanceMeters>NAN</DistanceMeters>
          </Trackpoint>
          <Trackpoint>
            <Time>2022-09-24T15:20:47.000Z</Time>
            <Position>
              <LatitudeDegrees>43.29889300279319286346435546875</LatitudeDegrees>
              <LongitudeDegrees>-2.7480161748826503753662109375</LongitudeDegrees>
            </Position>
            <AltitudeMeters>97.1999969482421875</AltitudeMeters>
            <DistanceMeters>NAN</DistanceMeters>
          </Trackpoint>
          <Trackpoint>
            <Time>2022-09-24T15:20:48.000Z</Time>
            <Position>
              <LatitudeDegrees>43.29881505109369754791259765625</LatitudeDegrees>
              <LongitudeDegrees>-2.7480014227330684661865234375</LongitudeDegrees>
            </Position>
            <AltitudeMeters>97</AltitudeMeters>
            <DistanceMeters>NAN</DistanceMeters>
          </Trackpoint>
          <Trackpoint>
            <Time>2022-09-24T15:20:49.000Z</Time>
            <Position>
              <LatitudeDegrees>43.2987430505454540252685546875</LatitudeDegrees>
              <LongitudeDegrees>-2.74796898476779460906982421875</LongitudeDegrees>
            </Position>
            <AltitudeMeters>96.59999847412109375</AltitudeMeters>
            <DistanceMeters>NAN</DistanceMeters>
          </Trackpoint>
          <Trackpoint>
            <Time>2022-09-24T15:20:50.000Z</Time>
            <Position>
              <LatitudeDegrees>43.29868127591907978057861328125</LatitudeDegrees>
              <LongitudeDegrees>-2.74791215546429157257080078125</LongitudeDegrees>
            </Position>
            <AltitudeMeters>96.40000152587890625</AltitudeMeters>
            <DistanceMeters>NAN</DistanceMeters>
          </Trackpoint>
          <Trackpoint>
            <Time>2022-09-24T15:20:51.000Z</Time>
            <Position>
              <LatitudeDegrees>43.29863098450005054473876953125</LatitudeDegrees>
              <LongitudeDegrees>-2.74783805944025516510009765625</LongitudeDegrees>
            </Position>
            <AltitudeMeters>95.40000152587890625</AltitudeMeters>
            <DistanceMeters>NAN</DistanceMeters>
          </Trackpoint>
          <Trackpoint>
            <Time>2022-09-24T15:20:52.000Z</Time>
            <Position>
              <LatitudeDegrees>43.29859108664095401763916015625</LatitudeDegrees>
              <LongitudeDegrees>-2.747743763029575347900390625</LongitudeDegrees>
            </Position>
            <AltitudeMeters>95.40000152587890625</AltitudeMeters>
            <DistanceMeters>NAN</DistanceMeters>
          </Trackpoint>
          <Trackpoint>
            <Time>2022-09-24T15:20:53.000Z</Time>
            <Position>
              <LatitudeDegrees>43.29856208525598049163818359375</LatitudeDegrees>
              <LongitudeDegrees>-2.74761929176747798919677734375</LongitudeDegrees>
            </Position>
            <AltitudeMeters>95.1999969482421875</AltitudeMeters>
            <DistanceMeters>NAN</DistanceMeters>
          </Trackpoint>
          <Trackpoint>
            <Time>2022-09-24T15:20:54.000Z</Time>
            <Position>
              <LatitudeDegrees>43.298546411097049713134765625</LatitudeDegrees>
              <LongitudeDegrees>-2.74749440141022205352783203125</LongitudeDegrees>
            </Position>
            <AltitudeMeters>94.40000152587890625</AltitudeMeters>
            <DistanceMeters>NAN</DistanceMeters>
          </Trackpoint>
          <Trackpoint>
            <Time>2022-09-24T15:20:55.000Z</Time>
            <Position>
              <LatitudeDegrees>43.298550434410572052001953125</LatitudeDegrees>
              <LongitudeDegrees>-2.74737269617617130279541015625</LongitudeDegrees>
            </Position>
            <AltitudeMeters>94.40000152587890625</AltitudeMeters>
            <DistanceMeters>NAN</DistanceMeters>
          </Trackpoint>
          <Trackpoint>
            <Time>2022-09-24T15:20:56.000Z</Time>
            <Position>
              <LatitudeDegrees>43.29857130534946918487548828125</LatitudeDegrees>
              <LongitudeDegrees>-2.7472537569701671600341796875</LongitudeDegrees>
            </Position>
            <AltitudeMeters>93.40000152587890625</AltitudeMeters>
            <DistanceMeters>NAN</DistanceMeters>
          </Trackpoint>
          <Trackpoint>
            <Time>2022-09-24T15:20:57.000Z</Time>
            <Position>
              <LatitudeDegrees>43.29861153848469257354736328125</LatitudeDegrees>
              <LongitudeDegrees>-2.74714018218219280242919921875</LongitudeDegrees>
            </Position>
            <AltitudeMeters>93.1999969482421875</AltitudeMeters>
            <DistanceMeters>NAN</DistanceMeters>
          </Trackpoint>
          <Trackpoint>
            <Time>2022-09-24T15:20:58.000Z</Time>
            <Position>
              <LatitudeDegrees>43.29866149462759494781494140625</LatitudeDegrees>
              <LongitudeDegrees>-2.747035324573516845703125</LongitudeDegrees>
            </Position>
            <AltitudeMeters>92.59999847412109375</AltitudeMeters>
            <DistanceMeters>NAN</DistanceMeters>
          </Trackpoint>
          <Trackpoint>
            <Time>2022-09-24T15:20:59.000Z</Time>
            <Position>
              <LatitudeDegrees>43.29871631227433681488037109375</LatitudeDegrees>
              <LongitudeDegrees>-2.74693700484931468963623046875</LongitudeDegrees>
            </Position>
            <AltitudeMeters>92.40000152587890625</AltitudeMeters>
            <DistanceMeters>NAN</DistanceMeters>
          </Trackpoint>
          <Trackpoint>
            <Time>2022-09-24T15:21:00.000Z</Time>
            <Position>
              <LatitudeDegrees>43.2987722195684909820556640625</LatitudeDegrees>
              <LongitudeDegrees>-2.74684078060090541839599609375</LongitudeDegrees>
            </Position>
            <AltitudeMeters>92</AltitudeMeters>
            <DistanceMeters>NAN</DistanceMeters>
          </Trackpoint>
          <Trackpoint>
            <Time>2022-09-24T15:21:01.000Z</Time>
            <Position>
              <LatitudeDegrees>43.2988236844539642333984375</LatitudeDegrees>
              <LongitudeDegrees>-2.74674103595316410064697265625</LongitudeDegrees>
            </Position>
            <AltitudeMeters>92</AltitudeMeters>
            <DistanceMeters>NAN</DistanceMeters>
          </Trackpoint>
          <Trackpoint>
            <Time>2022-09-24T15:21:02.000Z</Time>
            <Position>
              <LatitudeDegrees>43.29887523315846920013427734375</LatitudeDegrees>
              <LongitudeDegrees>-2.74663609452545642852783203125</LongitudeDegrees>
            </Position>
            <AltitudeMeters>92</AltitudeMeters>
            <DistanceMeters>NAN</DistanceMeters>
          </Trackpoint>
          <Trackpoint>
            <Time>2022-09-24T15:21:03.000Z</Time>
            <Position>
              <LatitudeDegrees>43.2989217527210712432861328125</LatitudeDegrees>
              <LongitudeDegrees>-2.74652863852679729461669921875</LongitudeDegrees>
            </Position>
            <AltitudeMeters>92</AltitudeMeters>
            <DistanceMeters>NAN</DistanceMeters>
          </Trackpoint>
          <Trackpoint>
            <Time>2022-09-24T15:21:04.000Z</Time>
            <Position>
              <LatitudeDegrees>43.29895980656147003173828125</LatitudeDegrees>
              <LongitudeDegrees>-2.74641464464366436004638671875</LongitudeDegrees>
            </Position>
            <AltitudeMeters>91.40000152587890625</AltitudeMeters>
            <DistanceMeters>NAN</DistanceMeters>
          </Trackpoint>
          <Trackpoint>
            <Time>2022-09-24T15:21:05.000Z</Time>
            <Position>
              <LatitudeDegrees>43.29898855648934841156005859375</LatitudeDegrees>
              <LongitudeDegrees>-2.74629780091345310211181640625</LongitudeDegrees>
            </Position>
            <AltitudeMeters>91.40000152587890625</AltitudeMeters>
            <DistanceMeters>NAN</DistanceMeters>
          </Trackpoint>
          <Trackpoint>
            <Time>2022-09-24T15:21:06.000Z</Time>
            <Position>
              <LatitudeDegrees>43.29900163225829601287841796875</LatitudeDegrees>
              <LongitudeDegrees>-2.74617274291813373565673828125</LongitudeDegrees>
            </Position>
            <AltitudeMeters>91</AltitudeMeters>
            <DistanceMeters>NAN</DistanceMeters>
          </Trackpoint>
          <Trackpoint>
            <Time>2022-09-24T15:21:07.000Z</Time>
            <Position>
              <LatitudeDegrees>43.299016468226909637451171875</LatitudeDegrees>
              <LongitudeDegrees>-2.7460470981895923614501953125</LongitudeDegrees>
            </Position>
            <AltitudeMeters>90.1999969482421875</AltitudeMeters>
            <DistanceMeters>NAN</DistanceMeters>
          </Trackpoint>
          <Trackpoint>
            <Time>2022-09-24T15:21:08.000Z</Time>
            <Position>
              <LatitudeDegrees>43.29902694560587406158447265625</LatitudeDegrees>
              <LongitudeDegrees>-2.74592145346105098724365234375</LongitudeDegrees>
            </Position>
            <AltitudeMeters>89.8000030517578125</AltitudeMeters>
            <DistanceMeters>NAN</DistanceMeters>
          </Trackpoint>
          <Trackpoint>
            <Time>2022-09-24T15:21:09.000Z</Time>
            <Position>
              <LatitudeDegrees>43.29902426339685916900634765625</LatitudeDegrees>
              <LongitudeDegrees>-2.7457959763705730438232421875</LongitudeDegrees>
            </Position>
            <AltitudeMeters>88.40000152587890625</AltitudeMeters>
            <DistanceMeters>NAN</DistanceMeters>
          </Trackpoint>
          <Trackpoint>
            <Time>2022-09-24T15:21:10.000Z</Time>
            <Position>
              <LatitudeDegrees>43.29901604913175106048583984375</LatitudeDegrees>
              <LongitudeDegrees>-2.7456665597856044769287109375</LongitudeDegrees>
            </Position>
            <AltitudeMeters>88.1999969482421875</AltitudeMeters>
            <DistanceMeters>NAN</DistanceMeters>
          </Trackpoint>
          <Trackpoint>
            <Time>2022-09-24T15:21:11.000Z</Time>
            <Position>
              <LatitudeDegrees>43.298994004726409912109375</LatitudeDegrees>
              <LongitudeDegrees>-2.745536975562572479248046875</LongitudeDegrees>
            </Position>
            <AltitudeMeters>88.1999969482421875</AltitudeMeters>
            <DistanceMeters>NAN</DistanceMeters>
          </Trackpoint>
          <Trackpoint>
            <Time>2022-09-24T15:21:12.000Z</Time>
            <Position>
              <LatitudeDegrees>43.2989730499684810638427734375</LatitudeDegrees>
              <LongitudeDegrees>-2.74543605744838714599609375</LongitudeDegrees>
            </Position>
            <AltitudeMeters>88</AltitudeMeters>
            <DistanceMeters>NAN</DistanceMeters>
          </Trackpoint>
          <Trackpoint>
            <Time>2022-09-24T15:21:13.000Z</Time>
            <Position>
              <LatitudeDegrees>43.2989730499684810638427734375</LatitudeDegrees>
              <LongitudeDegrees>-2.74543605744838714599609375</LongitudeDegrees>
            </Position>
            <AltitudeMeters>87.8000030517578125</AltitudeMeters>
            <DistanceMeters>NAN</DistanceMeters>
          </Trackpoint>
          <Trackpoint>
            <Time>2022-09-24T15:21:14.000Z</Time>
            <Position>
              <LatitudeDegrees>43.29889333806931972503662109375</LatitudeDegrees>
              <LongitudeDegrees>-2.74518300779163837432861328125</LongitudeDegrees>
            </Position>
            <AltitudeMeters>87.8000030517578125</AltitudeMeters>
            <DistanceMeters>NAN</DistanceMeters>
          </Trackpoint>
          <Trackpoint>
            <Time>2022-09-24T15:21:15.000Z</Time>
            <Position>
              <LatitudeDegrees>43.298858888447284698486328125</LatitudeDegrees>
              <LongitudeDegrees>-2.74505962617695331573486328125</LongitudeDegrees>
            </Position>
            <AltitudeMeters>87.8000030517578125</AltitudeMeters>
            <DistanceMeters>NAN</DistanceMeters>
          </Trackpoint>
          <Trackpoint>
            <Time>2022-09-24T15:21:16.000Z</Time>
            <Position>
              <LatitudeDegrees>43.29881387762725353240966796875</LatitudeDegrees>
              <LongitudeDegrees>-2.744912020862102508544921875</LongitudeDegrees>
            </Position>
            <AltitudeMeters>87.8000030517578125</AltitudeMeters>
            <DistanceMeters>NAN</DistanceMeters>
          </Trackpoint>
          <Trackpoint>
            <Time>2022-09-24T15:21:17.000Z</Time>
            <Position>
              <LatitudeDegrees>43.29877900891005992889404296875</LatitudeDegrees>
              <LongitudeDegrees>-2.74478872306644916534423828125</LongitudeDegrees>
            </Position>
            <AltitudeMeters>87.59999847412109375</AltitudeMeters>
            <DistanceMeters>NAN</DistanceMeters>
          </Trackpoint>
          <Trackpoint>
            <Time>2022-09-24T15:21:18.000Z</Time>
            <Position>
              <LatitudeDegrees>43.29877900891005992889404296875</LatitudeDegrees>
              <LongitudeDegrees>-2.74478872306644916534423828125</LongitudeDegrees>
            </Position>
            <AltitudeMeters>87.40000152587890625</AltitudeMeters>
            <DistanceMeters>NAN</DistanceMeters>
          </Trackpoint>
          <Trackpoint>
            <Time>2022-09-24T15:21:19.000Z</Time>
            <Position>
              <LatitudeDegrees>43.29872050322592258453369140625</LatitudeDegrees>
              <LongitudeDegrees>-2.74454011581838130950927734375</LongitudeDegrees>
            </Position>
            <AltitudeMeters>87.40000152587890625</AltitudeMeters>
            <DistanceMeters>NAN</DistanceMeters>
          </Trackpoint>
          <Trackpoint>
            <Time>2022-09-24T15:21:20.000Z</Time>
            <Position>
              <LatitudeDegrees>43.2987014763057231903076171875</LatitudeDegrees>
              <LongitudeDegrees>-2.7444161474704742431640625</LongitudeDegrees>
            </Position>
            <AltitudeMeters>87.40000152587890625</AltitudeMeters>
            <DistanceMeters>NAN</DistanceMeters>
          </Trackpoint>
          <Trackpoint>
            <Time>2022-09-24T15:21:21.000Z</Time>
            <Position>
              <LatitudeDegrees>43.29869351349771022796630859375</LatitudeDegrees>
              <LongitudeDegrees>-2.744293771684169769287109375</LongitudeDegrees>
            </Position>
            <AltitudeMeters>85.40000152587890625</AltitudeMeters>
            <DistanceMeters>NAN</DistanceMeters>
          </Trackpoint>
          <Trackpoint>
            <Time>2022-09-24T15:21:22.000Z</Time>
            <Position>
              <LatitudeDegrees>43.298704326152801513671875</LatitudeDegrees>
              <LongitudeDegrees>-2.74417533539235591888427734375</LongitudeDegrees>
            </Position>
            <AltitudeMeters>85.1999969482421875</AltitudeMeters>
            <DistanceMeters>NAN</DistanceMeters>
          </Trackpoint>
          <Trackpoint>
            <Time>2022-09-24T15:21:23.000Z</Time>
            <Position>
              <LatitudeDegrees>43.2987351715564727783203125</LatitudeDegrees>
              <LongitudeDegrees>-2.74406678974628448486328125</LongitudeDegrees>
            </Position>
            <AltitudeMeters>84.1999969482421875</AltitudeMeters>
            <DistanceMeters>NAN</DistanceMeters>
          </Trackpoint>
          <Trackpoint>
            <Time>2022-09-24T15:21:24.000Z</Time>
            <Position>
              <LatitudeDegrees>43.29877875745296478271484375</LatitudeDegrees>
              <LongitudeDegrees>-2.74397316388785839080810546875</LongitudeDegrees>
            </Position>
            <AltitudeMeters>83.8000030517578125</AltitudeMeters>
            <DistanceMeters>NAN</DistanceMeters>
          </Trackpoint>
          <Trackpoint>
            <Time>2022-09-24T15:21:25.000Z</Time>
            <Position>
              <LatitudeDegrees>43.298824690282344818115234375</LatitudeDegrees>
              <LongitudeDegrees>-2.7438912726938724517822265625</LongitudeDegrees>
            </Position>
            <AltitudeMeters>83.8000030517578125</AltitudeMeters>
            <DistanceMeters>NAN</DistanceMeters>
          </Trackpoint>
          <Trackpoint>
            <Time>2022-09-24T15:21:26.000Z</Time>
            <Position>
              <LatitudeDegrees>43.29887188039720058441162109375</LatitudeDegrees>
              <LongitudeDegrees>-2.74382731877267360687255859375</LongitudeDegrees>
            </Position>
            <AltitudeMeters>83.8000030517578125</AltitudeMeters>
            <DistanceMeters>NAN</DistanceMeters>
          </Trackpoint>
          <Trackpoint>
            <Time>2022-09-24T15:21:27.000Z</Time>
            <Position>
              <LatitudeDegrees>43.29893122427165508270263671875</LatitudeDegrees>
              <LongitudeDegrees>-2.7437819726765155792236328125</LongitudeDegrees>
            </Position>
            <AltitudeMeters>84.1999969482421875</AltitudeMeters>
            <DistanceMeters>NAN</DistanceMeters>
          </Trackpoint>
          <Trackpoint>
            <Time>2022-09-24T15:21:28.000Z</Time>
            <Position>
              <LatitudeDegrees>43.2989899814128875732421875</LatitudeDegrees>
              <LongitudeDegrees>-2.743752636015415191650390625</LongitudeDegrees>
            </Position>
            <AltitudeMeters>85.40000152587890625</AltitudeMeters>
            <DistanceMeters>NAN</DistanceMeters>
          </Trackpoint>
          <Trackpoint>
            <Time>2022-09-24T15:21:29.000Z</Time>
            <Position>
              <LatitudeDegrees>43.299048654735088348388671875</LatitudeDegrees>
              <LongitudeDegrees>-2.74373578839004039764404296875</LongitudeDegrees>
            </Position>
            <AltitudeMeters>86</AltitudeMeters>
            <DistanceMeters>NAN</DistanceMeters>
          </Trackpoint>
          <Trackpoint>
            <Time>2022-09-24T15:21:30.000Z</Time>
            <Position>
              <LatitudeDegrees>43.2991074956953525543212890625</LatitudeDegrees>
              <LongitudeDegrees>-2.74372749030590057373046875</LongitudeDegrees>
            </Position>
            <AltitudeMeters>86.1999969482421875</AltitudeMeters>
            <DistanceMeters>NAN</DistanceMeters>
          </Trackpoint>
          <Trackpoint>
            <Time>2022-09-24T15:21:31.000Z</Time>
            <Position>
              <LatitudeDegrees>43.29916105605661869049072265625</LatitudeDegrees>
              <LongitudeDegrees>-2.74372690357267856597900390625</LongitudeDegrees>
            </Position>
            <AltitudeMeters>87.40000152587890625</AltitudeMeters>
            <DistanceMeters>NAN</DistanceMeters>
          </Trackpoint>
          <Trackpoint>
            <Time>2022-09-24T15:21:32.000Z</Time>
            <Position>
              <LatitudeDegrees>43.29921436496078968048095703125</LatitudeDegrees>
              <LongitudeDegrees>-2.74373159743845462799072265625</LongitudeDegrees>
            </Position>
            <AltitudeMeters>87.40000152587890625</AltitudeMeters>
            <DistanceMeters>NAN</DistanceMeters>
          </Trackpoint>
          <Trackpoint>
            <Time>2022-09-24T15:21:33.000Z</Time>
            <Position>
              <LatitudeDegrees>43.29926264472305774688720703125</LatitudeDegrees>
              <LongitudeDegrees>-2.7437383867800235748291015625</LongitudeDegrees>
            </Position>
            <AltitudeMeters>87.8000030517578125</AltitudeMeters>
            <DistanceMeters>NAN</DistanceMeters>
          </Trackpoint>
          <Trackpoint>
            <Time>2022-09-24T15:21:34.000Z</Time>
            <Position>
              <LatitudeDegrees>43.299313522875308990478515625</LatitudeDegrees>
              <LongitudeDegrees>-2.74374869652092456817626953125</LongitudeDegrees>
            </Position>
            <AltitudeMeters>88.59999847412109375</AltitudeMeters>
            <DistanceMeters>NAN</DistanceMeters>
          </Trackpoint>
          <Trackpoint>
            <Time>2022-09-24T15:21:35.000Z</Time>
            <Position>
              <LatitudeDegrees>43.2993612997233867645263671875</LatitudeDegrees>
              <LongitudeDegrees>-2.7437598444521427154541015625</LongitudeDegrees>
            </Position>
            <AltitudeMeters>88.59999847412109375</AltitudeMeters>
            <DistanceMeters>NAN</DistanceMeters>
          </Trackpoint>
          <Trackpoint>
            <Time>2022-09-24T15:21:36.000Z</Time>
            <Position>
              <LatitudeDegrees>43.29940631054341793060302734375</LatitudeDegrees>
              <LongitudeDegrees>-2.7437675558030605316162109375</LongitudeDegrees>
            </Position>
            <AltitudeMeters>88.8000030517578125</AltitudeMeters>
            <DistanceMeters>NAN</DistanceMeters>
          </Trackpoint>
          <Trackpoint>
            <Time>2022-09-24T15:21:37.000Z</Time>
            <Position>
              <LatitudeDegrees>43.299450315535068511962890625</LatitudeDegrees>
              <LongitudeDegrees>-2.74378222413361072540283203125</LongitudeDegrees>
            </Position>
            <AltitudeMeters>89</AltitudeMeters>
            <DistanceMeters>NAN</DistanceMeters>
          </Trackpoint>
          <Trackpoint>
            <Time>2022-09-24T15:21:38.000Z</Time>
            <Position>
              <LatitudeDegrees>43.29948526807129383087158203125</LatitudeDegrees>
              <LongitudeDegrees>-2.74379647336900234222412109375</LongitudeDegrees>
            </Position>
            <AltitudeMeters>89</AltitudeMeters>
            <DistanceMeters>NAN</DistanceMeters>
          </Trackpoint>
          <Trackpoint>
            <Time>2022-09-24T15:21:39.000Z</Time>
            <Position>
              <LatitudeDegrees>43.29952566884458065032958984375</LatitudeDegrees>
              <LongitudeDegrees>-2.7438138239085674285888671875</LongitudeDegrees>
            </Position>
            <AltitudeMeters>89.8000030517578125</AltitudeMeters>
            <DistanceMeters>NAN</DistanceMeters>
          </Trackpoint>
          <Trackpoint>
            <Time>2022-09-24T15:21:40.000Z</Time>
            <Position>
              <LatitudeDegrees>43.29956305213272571563720703125</LatitudeDegrees>
              <LongitudeDegrees>-2.74384626187384128570556640625</LongitudeDegrees>
            </Position>
            <AltitudeMeters>89.8000030517578125</AltitudeMeters>
            <DistanceMeters>NAN</DistanceMeters>
          </Trackpoint>
          <Trackpoint>
            <Time>2022-09-24T15:21:41.000Z</Time>
            <Position>
              <LatitudeDegrees>43.29960479401051998138427734375</LatitudeDegrees>
              <LongitudeDegrees>-2.74386872537434101104736328125</LongitudeDegrees>
            </Position>
            <AltitudeMeters>89.8000030517578125</AltitudeMeters>
            <DistanceMeters>NAN</DistanceMeters>
          </Trackpoint>
          <Trackpoint>
            <Time>2022-09-24T15:21:42.000Z</Time>
            <Position>
              <LatitudeDegrees>43.29963932745158672332763671875</LatitudeDegrees>
              <LongitudeDegrees>-2.74389102123677730560302734375</LongitudeDegrees>
            </Position>
            <AltitudeMeters>90</AltitudeMeters>
            <DistanceMeters>NAN</DistanceMeters>
          </Trackpoint>
          <Trackpoint>
            <Time>2022-09-24T15:21:43.000Z</Time>
            <Position>
              <LatitudeDegrees>43.2996912114322185516357421875</LatitudeDegrees>
              <LongitudeDegrees>-2.74391817860305309295654296875</LongitudeDegrees>
            </Position>
            <AltitudeMeters>90.40000152587890625</AltitudeMeters>
            <DistanceMeters>NAN</DistanceMeters>
          </Trackpoint>
          <Trackpoint>
            <Time>2022-09-24T15:21:44.000Z</Time>
            <Position>
              <LatitudeDegrees>43.2996912114322185516357421875</LatitudeDegrees>
              <LongitudeDegrees>-2.74391817860305309295654296875</LongitudeDegrees>
            </Position>
            <AltitudeMeters>90.40000152587890625</AltitudeMeters>
            <DistanceMeters>NAN</DistanceMeters>
          </Trackpoint>
          <Trackpoint>
            <Time>2022-09-24T15:21:45.000Z</Time>
            <Position>
              <LatitudeDegrees>43.29976136796176433563232421875</LatitudeDegrees>
              <LongitudeDegrees>-2.7439683862030506134033203125</LongitudeDegrees>
            </Position>
            <AltitudeMeters>91.1999969482421875</AltitudeMeters>
            <DistanceMeters>NAN</DistanceMeters>
          </Trackpoint>
          <Trackpoint>
            <Time>2022-09-24T15:21:46.000Z</Time>
            <Position>
              <LatitudeDegrees>43.299793638288974761962890625</LatitudeDegrees>
              <LongitudeDegrees>-2.74399839341640472412109375</LongitudeDegrees>
            </Position>
            <AltitudeMeters>91.59999847412109375</AltitudeMeters>
            <DistanceMeters>NAN</DistanceMeters>
          </Trackpoint>
          <Trackpoint>
            <Time>2022-09-24T15:21:47.000Z</Time>
            <Position>
              <LatitudeDegrees>43.29982280731201171875</LatitudeDegrees>
              <LongitudeDegrees>-2.74402814917266368865966796875</LongitudeDegrees>
            </Position>
            <AltitudeMeters>91.59999847412109375</AltitudeMeters>
            <DistanceMeters>NAN</DistanceMeters>
          </Trackpoint>
          <Trackpoint>
            <Time>2022-09-24T15:21:48.000Z</Time>
            <Position>
              <LatitudeDegrees>43.29984585754573345184326171875</LatitudeDegrees>
              <LongitudeDegrees>-2.744051031768321990966796875</LongitudeDegrees>
            </Position>
            <AltitudeMeters>92</AltitudeMeters>
            <DistanceMeters>NAN</DistanceMeters>
          </Trackpoint>
          <Trackpoint>
            <Time>2022-09-24T15:21:49.000Z</Time>
            <Position>
              <LatitudeDegrees>43.29987519420683383941650390625</LatitudeDegrees>
              <LongitudeDegrees>-2.74407944642007350921630859375</LongitudeDegrees>
            </Position>
            <AltitudeMeters>92.1999969482421875</AltitudeMeters>
            <DistanceMeters>NAN</DistanceMeters>
          </Trackpoint>
          <Trackpoint>
            <Time>2022-09-24T15:21:50.000Z</Time>
            <Position>
              <LatitudeDegrees>43.2999046146869659423828125</LatitudeDegrees>
              <LongitudeDegrees>-2.74410559795796871185302734375</LongitudeDegrees>
            </Position>
            <AltitudeMeters>92.40000152587890625</AltitudeMeters>
            <DistanceMeters>NAN</DistanceMeters>
          </Trackpoint>
          <Trackpoint>
            <Time>2022-09-24T15:21:51.000Z</Time>
            <Position>
              <LatitudeDegrees>43.29993437044322490692138671875</LatitudeDegrees>
              <LongitudeDegrees>-2.74413459934294223785400390625</LongitudeDegrees>
            </Position>
            <AltitudeMeters>92.59999847412109375</AltitudeMeters>
            <DistanceMeters>NAN</DistanceMeters>
          </Trackpoint>
          <Trackpoint>
            <Time>2022-09-24T15:21:52.000Z</Time>
            <Position>
              <LatitudeDegrees>43.29996270127594470977783203125</LatitudeDegrees>
              <LongitudeDegrees>-2.74416008032858371734619140625</LongitudeDegrees>
            </Position>
            <AltitudeMeters>93</AltitudeMeters>
            <DistanceMeters>NAN</DistanceMeters>
          </Trackpoint>
          <Trackpoint>
            <Time>2022-09-24T15:21:53.000Z</Time>
            <Position>
              <LatitudeDegrees>43.29999103210866451263427734375</LatitudeDegrees>
              <LongitudeDegrees>-2.7441900037229061126708984375</LongitudeDegrees>
            </Position>
            <AltitudeMeters>93.40000152587890625</AltitudeMeters>
            <DistanceMeters>NAN</DistanceMeters>
          </Trackpoint>
          <Trackpoint>
            <Time>2022-09-24T15:21:54.000Z</Time>
            <Position>
              <LatitudeDegrees>43.3000187762081623077392578125</LatitudeDegrees>
              <LongitudeDegrees>-2.74422327987849712371826171875</LongitudeDegrees>
            </Position>
            <AltitudeMeters>93.8000030517578125</AltitudeMeters>
            <DistanceMeters>NAN</DistanceMeters>
          </Trackpoint>
          <Trackpoint>
            <Time>2022-09-24T15:21:55.000Z</Time>
            <Position>
              <LatitudeDegrees>43.30004115588963031768798828125</LatitudeDegrees>
              <LongitudeDegrees>-2.7442476712167263031005859375</LongitudeDegrees>
            </Position>
            <AltitudeMeters>93.8000030517578125</AltitudeMeters>
            <DistanceMeters>NAN</DistanceMeters>
          </Trackpoint>
          <Trackpoint>
            <Time>2022-09-24T15:21:56.000Z</Time>
            <Position>
              <LatitudeDegrees>43.30006848089396953582763671875</LatitudeDegrees>
              <LongitudeDegrees>-2.7442754991352558135986328125</LongitudeDegrees>
            </Position>
            <AltitudeMeters>94</AltitudeMeters>
            <DistanceMeters>NAN</DistanceMeters>
          </Trackpoint>
          <Trackpoint>
            <Time>2022-09-24T15:21:57.000Z</Time>
            <Position>
              <LatitudeDegrees>43.30010083504021167755126953125</LatitudeDegrees>
              <LongitudeDegrees>-2.74431346915662288665771484375</LongitudeDegrees>
            </Position>
            <AltitudeMeters>94.59999847412109375</AltitudeMeters>
            <DistanceMeters>NAN</DistanceMeters>
          </Trackpoint>
          <Trackpoint>
            <Time>2022-09-24T15:21:58.000Z</Time>
            <Position>
              <LatitudeDegrees>43.30012648366391658782958984375</LatitudeDegrees>
              <LongitudeDegrees>-2.7443418838083744049072265625</LongitudeDegrees>
            </Position>
            <AltitudeMeters>94.59999847412109375</AltitudeMeters>
            <DistanceMeters>NAN</DistanceMeters>
          </Trackpoint>
          <Trackpoint>
            <Time>2022-09-24T15:21:59.000Z</Time>
            <Position>
              <LatitudeDegrees>43.30015146173536777496337890625</LatitudeDegrees>
              <LongitudeDegrees>-2.7443710528314113616943359375</LongitudeDegrees>
            </Position>
            <AltitudeMeters>94.8000030517578125</AltitudeMeters>
            <DistanceMeters>NAN</DistanceMeters>
          </Trackpoint>
          <Trackpoint>
            <Time>2022-09-24T15:22:00.000Z</Time>
            <Position>
              <LatitudeDegrees>43.30017761327326297760009765625</LatitudeDegrees>
              <LongitudeDegrees>-2.74439804255962371826171875</LongitudeDegrees>
            </Position>
            <AltitudeMeters>95</AltitudeMeters>
            <DistanceMeters>NAN</DistanceMeters>
          </Trackpoint>
          <Trackpoint>
            <Time>2022-09-24T15:22:01.000Z</Time>
            <Position>
              <LatitudeDegrees>43.30019705928862094879150390625</LatitudeDegrees>
              <LongitudeDegrees>-2.74442293681204319000244140625</LongitudeDegrees>
            </Position>
            <AltitudeMeters>95.1999969482421875</AltitudeMeters>
            <DistanceMeters>NAN</DistanceMeters>
          </Trackpoint>
          <Trackpoint>
            <Time>2022-09-24T15:22:02.000Z</Time>
            <Position>
              <LatitudeDegrees>43.300229497253894805908203125</LatitudeDegrees>
              <LongitudeDegrees>-2.74445596151053905487060546875</LongitudeDegrees>
            </Position>
            <AltitudeMeters>95.1999969482421875</AltitudeMeters>
            <DistanceMeters>NAN</DistanceMeters>
          </Trackpoint>
          <Trackpoint>
            <Time>2022-09-24T15:22:03.000Z</Time>
            <Position>
              <LatitudeDegrees>43.3002588339149951934814453125</LatitudeDegrees>
              <LongitudeDegrees>-2.744481526315212249755859375</LongitudeDegrees>
            </Position>
            <AltitudeMeters>95.59999847412109375</AltitudeMeters>
            <DistanceMeters>NAN</DistanceMeters>
          </Trackpoint>
          <Trackpoint>
            <Time>2022-09-24T15:22:04.000Z</Time>
            <Position>
              <LatitudeDegrees>43.300289176404476165771484375</LatitudeDegrees>
              <LongitudeDegrees>-2.74450776167213916778564453125</LongitudeDegrees>
            </Position>
            <AltitudeMeters>96</AltitudeMeters>
            <DistanceMeters>NAN</DistanceMeters>
          </Trackpoint>
          <Trackpoint>
            <Time>2022-09-24T15:22:05.000Z</Time>
            <Position>
              <LatitudeDegrees>43.30031021498143672943115234375</LatitudeDegrees>
              <LongitudeDegrees>-2.74452972225844860076904296875</LongitudeDegrees>
            </Position>
            <AltitudeMeters>96</AltitudeMeters>
            <DistanceMeters>NAN</DistanceMeters>
          </Trackpoint>
          <Trackpoint>
            <Time>2022-09-24T15:22:06.000Z</Time>
            <Position>
              <LatitudeDegrees>43.3003382943570613861083984375</LatitudeDegrees>
              <LongitudeDegrees>-2.74455629289150238037109375</LongitudeDegrees>
            </Position>
            <AltitudeMeters>96.59999847412109375</AltitudeMeters>
            <DistanceMeters>NAN</DistanceMeters>
          </Trackpoint>
          <Trackpoint>
            <Time>2022-09-24T15:22:07.000Z</Time>
            <Position>
              <LatitudeDegrees>43.30036939121782779693603515625</LatitudeDegrees>
              <LongitudeDegrees>-2.74458847939968109130859375</LongitudeDegrees>
            </Position>
            <AltitudeMeters>96.59999847412109375</AltitudeMeters>
            <DistanceMeters>NAN</DistanceMeters>
          </Trackpoint>
          <Trackpoint>
            <Time>2022-09-24T15:22:08.000Z</Time>
            <Position>
              <LatitudeDegrees>43.3003932796418666839599609375</LatitudeDegrees>
              <LongitudeDegrees>-2.74461555294692516326904296875</LongitudeDegrees>
            </Position>
            <AltitudeMeters>96.59999847412109375</AltitudeMeters>
            <DistanceMeters>NAN</DistanceMeters>
          </Trackpoint>
          <Trackpoint>
            <Time>2022-09-24T15:22:09.000Z</Time>
            <Position>
              <LatitudeDegrees>43.3004197664558887481689453125</LatitudeDegrees>
              <LongitudeDegrees>-2.74464086629450321197509765625</LongitudeDegrees>
            </Position>
            <AltitudeMeters>97</AltitudeMeters>
            <DistanceMeters>NAN</DistanceMeters>
          </Trackpoint>
          <Trackpoint>
            <Time>2022-09-24T15:22:10.000Z</Time>
            <Position>
              <LatitudeDegrees>43.3004475943744182586669921875</LatitudeDegrees>
              <LongitudeDegrees>-2.74466492235660552978515625</LongitudeDegrees>
            </Position>
            <AltitudeMeters>97.40000152587890625</AltitudeMeters>
            <DistanceMeters>NAN</DistanceMeters>
          </Trackpoint>
          <Trackpoint>
            <Time>2022-09-24T15:22:11.000Z</Time>
            <Position>
              <LatitudeDegrees>43.30047651194036006927490234375</LatitudeDegrees>
              <LongitudeDegrees>-2.7446848712861537933349609375</LongitudeDegrees>
            </Position>
            <AltitudeMeters>97.40000152587890625</AltitudeMeters>
            <DistanceMeters>NAN</DistanceMeters>
          </Trackpoint>
          <Trackpoint>
            <Time>2022-09-24T15:22:12.000Z</Time>
            <Position>
              <LatitudeDegrees>43.30050735734403133392333984375</LatitudeDegrees>
              <LongitudeDegrees>-2.74470255710184574127197265625</LongitudeDegrees>
            </Position>
            <AltitudeMeters>97.40000152587890625</AltitudeMeters>
            <DistanceMeters>NAN</DistanceMeters>
          </Trackpoint>
          <Trackpoint>
            <Time>2022-09-24T15:22:13.000Z</Time>
            <Position>
              <LatitudeDegrees>43.3005374483764171600341796875</LatitudeDegrees>
              <LongitudeDegrees>-2.74471848271787166595458984375</LongitudeDegrees>
            </Position>
            <AltitudeMeters>98</AltitudeMeters>
            <DistanceMeters>NAN</DistanceMeters>
          </Trackpoint>
          <Trackpoint>
            <Time>2022-09-24T15:22:14.000Z</Time>
            <Position>
              <LatitudeDegrees>43.30056779086589813232421875</LatitudeDegrees>
              <LongitudeDegrees>-2.744730971753597259521484375</LongitudeDegrees>
            </Position>
            <AltitudeMeters>98.59999847412109375</AltitudeMeters>
            <DistanceMeters>NAN</DistanceMeters>
          </Trackpoint>
          <Trackpoint>
            <Time>2022-09-24T15:22:15.000Z</Time>
            <Position>
              <LatitudeDegrees>43.3005984686315059661865234375</LatitudeDegrees>
              <LongitudeDegrees>-2.7447378449141979217529296875</LongitudeDegrees>
            </Position>
            <AltitudeMeters>99</AltitudeMeters>
            <DistanceMeters>NAN</DistanceMeters>
          </Trackpoint>
          <Trackpoint>
            <Time>2022-09-24T15:22:16.000Z</Time>
            <Position>
              <LatitudeDegrees>43.30063040368258953094482421875</LatitudeDegrees>
              <LongitudeDegrees>-2.74474044330418109893798828125</LongitudeDegrees>
            </Position>
            <AltitudeMeters>99</AltitudeMeters>
            <DistanceMeters>NAN</DistanceMeters>
          </Trackpoint>
          <Trackpoint>
            <Time>2022-09-24T15:22:17.000Z</Time>
            <Position>
              <LatitudeDegrees>43.30066141672432422637939453125</LatitudeDegrees>
              <LongitudeDegrees>-2.74473667144775390625</LongitudeDegrees>
            </Position>
            <AltitudeMeters>99</AltitudeMeters>
            <DistanceMeters>NAN</DistanceMeters>
          </Trackpoint>
          <Trackpoint>
            <Time>2022-09-24T15:22:18.000Z</Time>
            <Position>
              <LatitudeDegrees>43.30069058574736118316650390625</LatitudeDegrees>
              <LongitudeDegrees>-2.74472535587847232818603515625</LongitudeDegrees>
            </Position>
            <AltitudeMeters>99.1999969482421875</AltitudeMeters>
            <DistanceMeters>NAN</DistanceMeters>
          </Trackpoint>
          <Trackpoint>
            <Time>2022-09-24T15:22:19.000Z</Time>
            <Position>
              <LatitudeDegrees>43.30071740783751010894775390625</LatitudeDegrees>
              <LongitudeDegrees>-2.74471026845276355743408203125</LongitudeDegrees>
            </Position>
            <AltitudeMeters>99.40000152587890625</AltitudeMeters>
            <DistanceMeters>NAN</DistanceMeters>
          </Trackpoint>
          <Trackpoint>
            <Time>2022-09-24T15:22:20.000Z</Time>
            <Position>
              <LatitudeDegrees>43.3007406257092952728271484375</LatitudeDegrees>
              <LongitudeDegrees>-2.7446924149990081787109375</LongitudeDegrees>
            </Position>
            <AltitudeMeters>99.8000030517578125</AltitudeMeters>
            <DistanceMeters>NAN</DistanceMeters>
          </Trackpoint>
          <Trackpoint>
            <Time>2022-09-24T15:22:21.000Z</Time>
            <Position>
              <LatitudeDegrees>43.3007607422769069671630859375</LatitudeDegrees>
              <LongitudeDegrees>-2.74467171169817447662353515625</LongitudeDegrees>
            </Position>
            <AltitudeMeters>99.8000030517578125</AltitudeMeters>
            <DistanceMeters>NAN</DistanceMeters>
          </Trackpoint>
          <Trackpoint>
            <Time>2022-09-24T15:22:22.000Z</Time>
            <Position>
              <LatitudeDegrees>43.3007781766355037689208984375</LatitudeDegrees>
              <LongitudeDegrees>-2.74464346468448638916015625</LongitudeDegrees>
            </Position>
            <AltitudeMeters>100</AltitudeMeters>
            <DistanceMeters>NAN</DistanceMeters>
          </Trackpoint>
          <Trackpoint>
            <Time>2022-09-24T15:22:23.000Z</Time>
            <Position>
              <LatitudeDegrees>43.30079485662281513214111328125</LatitudeDegrees>
              <LongitudeDegrees>-2.74461287073791027069091796875</LongitudeDegrees>
            </Position>
            <AltitudeMeters>100.59999847412109375</AltitudeMeters>
            <DistanceMeters>NAN</DistanceMeters>
          </Trackpoint>
          <Trackpoint>
            <Time>2022-09-24T15:22:24.000Z</Time>
            <Position>
              <LatitudeDegrees>43.30080994404852390289306640625</LatitudeDegrees>
              <LongitudeDegrees>-2.74457850493490695953369140625</LongitudeDegrees>
            </Position>
            <AltitudeMeters>100.59999847412109375</AltitudeMeters>
            <DistanceMeters>NAN</DistanceMeters>
          </Trackpoint>
          <Trackpoint>
            <Time>2022-09-24T15:22:25.000Z</Time>
            <Position>
              <LatitudeDegrees>43.30082167871296405792236328125</LatitudeDegrees>
              <LongitudeDegrees>-2.74454397149384021759033203125</LongitudeDegrees>
            </Position>
            <AltitudeMeters>100.8000030517578125</AltitudeMeters>
            <DistanceMeters>NAN</DistanceMeters>
          </Trackpoint>
          <Trackpoint>
            <Time>2022-09-24T15:22:26.000Z</Time>
            <Position>
              <LatitudeDegrees>43.30082167871296405792236328125</LatitudeDegrees>
              <LongitudeDegrees>-2.74454397149384021759033203125</LongitudeDegrees>
            </Position>
            <AltitudeMeters>101</AltitudeMeters>
            <DistanceMeters>NAN</DistanceMeters>
          </Trackpoint>
          <Trackpoint>
            <Time>2022-09-24T15:22:27.000Z</Time>
            <Position>
              <LatitudeDegrees>43.300832994282245635986328125</LatitudeDegrees>
              <LongitudeDegrees>-2.74447222240269184112548828125</LongitudeDegrees>
            </Position>
            <AltitudeMeters>101.1999969482421875</AltitudeMeters>
            <DistanceMeters>NAN</DistanceMeters>
          </Trackpoint>
          <Trackpoint>
            <Time>2022-09-24T15:22:28.000Z</Time>
            <Position>
              <LatitudeDegrees>43.30082930624485015869140625</LatitudeDegrees>
              <LongitudeDegrees>-2.7444347552955150604248046875</LongitudeDegrees>
            </Position>
            <AltitudeMeters>102</AltitudeMeters>
            <DistanceMeters>NAN</DistanceMeters>
          </Trackpoint>
          <Trackpoint>
            <Time>2022-09-24T15:22:29.000Z</Time>
            <Position>
              <LatitudeDegrees>43.3008244447410106658935546875</LatitudeDegrees>
              <LongitudeDegrees>-2.74439661763608455657958984375</LongitudeDegrees>
            </Position>
            <AltitudeMeters>102</AltitudeMeters>
            <DistanceMeters>NAN</DistanceMeters>
          </Trackpoint>
          <Trackpoint>
            <Time>2022-09-24T15:22:30.000Z</Time>
            <Position>
              <LatitudeDegrees>43.30081187188625335693359375</LatitudeDegrees>
              <LongitudeDegrees>-2.744358479976654052734375</LongitudeDegrees>
            </Position>
            <AltitudeMeters>102.40000152587890625</AltitudeMeters>
            <DistanceMeters>NAN</DistanceMeters>
          </Trackpoint>
          <Trackpoint>
            <Time>2022-09-24T15:22:31.000Z</Time>
            <Position>
              <LatitudeDegrees>43.30079770646989345550537109375</LatitudeDegrees>
              <LongitudeDegrees>-2.7443210966885089874267578125</LongitudeDegrees>
            </Position>
            <AltitudeMeters>102.40000152587890625</AltitudeMeters>
            <DistanceMeters>NAN</DistanceMeters>
          </Trackpoint>
          <Trackpoint>
            <Time>2022-09-24T15:22:32.000Z</Time>
            <Position>
              <LatitudeDegrees>43.30079770646989345550537109375</LatitudeDegrees>
              <LongitudeDegrees>-2.7443210966885089874267578125</LongitudeDegrees>
            </Position>
            <AltitudeMeters>102.59999847412109375</AltitudeMeters>
            <DistanceMeters>NAN</DistanceMeters>
          </Trackpoint>
          <Trackpoint>
            <Time>2022-09-24T15:22:33.000Z</Time>
            <Position>
              <LatitudeDegrees>43.300764262676239013671875</LatitudeDegrees>
              <LongitudeDegrees>-2.74425127543509006500244140625</LongitudeDegrees>
            </Position>
            <AltitudeMeters>103</AltitudeMeters>
            <DistanceMeters>NAN</DistanceMeters>
          </Trackpoint>
          <Trackpoint>
            <Time>2022-09-24T15:22:34.000Z</Time>
            <Position>
              <LatitudeDegrees>43.30074883997440338134765625</LatitudeDegrees>
              <LongitudeDegrees>-2.74421967566013336181640625</LongitudeDegrees>
            </Position>
            <AltitudeMeters>103.40000152587890625</AltitudeMeters>
            <DistanceMeters>NAN</DistanceMeters>
          </Trackpoint>
          <Trackpoint>
            <Time>2022-09-24T15:22:35.000Z</Time>
            <Position>
              <LatitudeDegrees>43.3007325790822505950927734375</LatitudeDegrees>
              <LongitudeDegrees>-2.74418857879936695098876953125</LongitudeDegrees>
            </Position>
            <AltitudeMeters>103.59999847412109375</AltitudeMeters>
            <DistanceMeters>NAN</DistanceMeters>
          </Trackpoint>
          <Trackpoint>
            <Time>2022-09-24T15:22:36.000Z</Time>
            <Position>
              <LatitudeDegrees>43.300715647637844085693359375</LatitudeDegrees>
              <LongitudeDegrees>-2.7441581524908542633056640625</LongitudeDegrees>
            </Position>
            <AltitudeMeters>103.8000030517578125</AltitudeMeters>
            <DistanceMeters>NAN</DistanceMeters>
          </Trackpoint>
          <Trackpoint>
            <Time>2022-09-24T15:22:37.000Z</Time>
            <Position>
              <LatitudeDegrees>43.30069921910762786865234375</LatitudeDegrees>
              <LongitudeDegrees>-2.7441256307065486907958984375</LongitudeDegrees>
            </Position>
            <AltitudeMeters>104</AltitudeMeters>
            <DistanceMeters>NAN</DistanceMeters>
          </Trackpoint>
          <Trackpoint>
            <Time>2022-09-24T15:22:38.000Z</Time>
            <Position>
              <LatitudeDegrees>43.3006826229393482208251953125</LatitudeDegrees>
              <LongitudeDegrees>-2.744094617664813995361328125</LongitudeDegrees>
            </Position>
            <AltitudeMeters>104.40000152587890625</AltitudeMeters>
            <DistanceMeters>NAN</DistanceMeters>
          </Trackpoint>
          <Trackpoint>
            <Time>2022-09-24T15:22:39.000Z</Time>
            <Position>
              <LatitudeDegrees>43.30066493712365627288818359375</LatitudeDegrees>
              <LongitudeDegrees>-2.7440639398992061614990234375</LongitudeDegrees>
            </Position>
            <AltitudeMeters>104.59999847412109375</AltitudeMeters>
            <DistanceMeters>NAN</DistanceMeters>
          </Trackpoint>
          <Trackpoint>
            <Time>2022-09-24T15:22:40.000Z</Time>
            <Position>
              <LatitudeDegrees>43.3006484247744083404541015625</LatitudeDegrees>
              <LongitudeDegrees>-2.744032256305217742919921875</LongitudeDegrees>
            </Position>
            <AltitudeMeters>104.8000030517578125</AltitudeMeters>
            <DistanceMeters>NAN</DistanceMeters>
          </Trackpoint>
          <Trackpoint>
            <Time>2022-09-24T15:22:41.000Z</Time>
            <Position>
              <LatitudeDegrees>43.30063191242516040802001953125</LatitudeDegrees>
              <LongitudeDegrees>-2.7440009079873561859130859375</LongitudeDegrees>
            </Position>
            <AltitudeMeters>105</AltitudeMeters>
            <DistanceMeters>NAN</DistanceMeters>
          </Trackpoint>
          <Trackpoint>
            <Time>2022-09-24T15:22:42.000Z</Time>
            <Position>
              <LatitudeDegrees>43.30061363987624645233154296875</LatitudeDegrees>
              <LongitudeDegrees>-2.74396796710789203643798828125</LongitudeDegrees>
            </Position>
            <AltitudeMeters>105.40000152587890625</AltitudeMeters>
            <DistanceMeters>NAN</DistanceMeters>
          </Trackpoint>
          <Trackpoint>
            <Time>2022-09-24T15:22:43.000Z</Time>
            <Position>
              <LatitudeDegrees>43.3005966246128082275390625</LatitudeDegrees>
              <LongitudeDegrees>-2.7439360320568084716796875</LongitudeDegrees>
            </Position>
            <AltitudeMeters>105.40000152587890625</AltitudeMeters>
            <DistanceMeters>NAN</DistanceMeters>
          </Trackpoint>
          <Trackpoint>
            <Time>2022-09-24T15:22:44.000Z</Time>
            <Position>
              <LatitudeDegrees>43.30058162100613117218017578125</LatitudeDegrees>
              <LongitudeDegrees>-2.7439040131866931915283203125</LongitudeDegrees>
            </Position>
            <AltitudeMeters>105.8000030517578125</AltitudeMeters>
            <DistanceMeters>NAN</DistanceMeters>
          </Trackpoint>
          <Trackpoint>
            <Time>2022-09-24T15:22:45.000Z</Time>
            <Position>
              <LatitudeDegrees>43.30056653358042240142822265625</LatitudeDegrees>
              <LongitudeDegrees>-2.74387241341173648834228515625</LongitudeDegrees>
            </Position>
            <AltitudeMeters>106</AltitudeMeters>
            <DistanceMeters>NAN</DistanceMeters>
          </Trackpoint>
          <Trackpoint>
            <Time>2022-09-24T15:22:46.000Z</Time>
            <Position>
              <LatitudeDegrees>43.30055329017341136932373046875</LatitudeDegrees>
              <LongitudeDegrees>-2.74383972398936748504638671875</LongitudeDegrees>
            </Position>
            <AltitudeMeters>106.1999969482421875</AltitudeMeters>
            <DistanceMeters>NAN</DistanceMeters>
          </Trackpoint>
          <Trackpoint>
            <Time>2022-09-24T15:22:47.000Z</Time>
            <Position>
              <LatitudeDegrees>43.300537280738353729248046875</LatitudeDegrees>
              <LongitudeDegrees>-2.7438074536621570587158203125</LongitudeDegrees>
            </Position>
            <AltitudeMeters>106.1999969482421875</AltitudeMeters>
            <DistanceMeters>NAN</DistanceMeters>
          </Trackpoint>
          <Trackpoint>
            <Time>2022-09-24T15:22:48.000Z</Time>
            <Position>
              <LatitudeDegrees>43.30052177421748638153076171875</LatitudeDegrees>
              <LongitudeDegrees>-2.7437772788107395172119140625</LongitudeDegrees>
            </Position>
            <AltitudeMeters>106.40000152587890625</AltitudeMeters>
            <DistanceMeters>NAN</DistanceMeters>
          </Trackpoint>
          <Trackpoint>
            <Time>2022-09-24T15:22:49.000Z</Time>
            <Position>
              <LatitudeDegrees>43.3005092851817607879638671875</LatitudeDegrees>
              <LongitudeDegrees>-2.7437487803399562835693359375</LongitudeDegrees>
            </Position>
            <AltitudeMeters>106.40000152587890625</AltitudeMeters>
            <DistanceMeters>NAN</DistanceMeters>
          </Trackpoint>
          <Trackpoint>
            <Time>2022-09-24T15:22:50.000Z</Time>
            <Position>
              <LatitudeDegrees>43.30049864016473293304443359375</LatitudeDegrees>
              <LongitudeDegrees>-2.7437222935259342193603515625</LongitudeDegrees>
            </Position>
            <AltitudeMeters>106.59999847412109375</AltitudeMeters>
            <DistanceMeters>NAN</DistanceMeters>
          </Trackpoint>
          <Trackpoint>
            <Time>2022-09-24T15:22:51.000Z</Time>
            <Position>
              <LatitudeDegrees>43.3004831336438655853271484375</LatitudeDegrees>
              <LongitudeDegrees>-2.74368197657167911529541015625</LongitudeDegrees>
            </Position>
            <AltitudeMeters>107</AltitudeMeters>
            <DistanceMeters>NAN</DistanceMeters>
          </Trackpoint>
          <Trackpoint>
            <Time>2022-09-24T15:22:52.000Z</Time>
            <Position>
              <LatitudeDegrees>43.300470225512981414794921875</LatitudeDegrees>
              <LongitudeDegrees>-2.7436498738825321197509765625</LongitudeDegrees>
            </Position>
            <AltitudeMeters>107.40000152587890625</AltitudeMeters>
            <DistanceMeters>NAN</DistanceMeters>
          </Trackpoint>
          <Trackpoint>
            <Time>2022-09-24T15:22:53.000Z</Time>
            <Position>
              <LatitudeDegrees>43.300458155572414398193359375</LatitudeDegrees>
              <LongitudeDegrees>-2.74361743591725826263427734375</LongitudeDegrees>
            </Position>
            <AltitudeMeters>107.40000152587890625</AltitudeMeters>
            <DistanceMeters>NAN</DistanceMeters>
          </Trackpoint>
          <Trackpoint>
            <Time>2022-09-24T15:22:54.000Z</Time>
            <Position>
              <LatitudeDegrees>43.30044709146022796630859375</LatitudeDegrees>
              <LongitudeDegrees>-2.7435841597616672515869140625</LongitudeDegrees>
            </Position>
            <AltitudeMeters>107.59999847412109375</AltitudeMeters>
            <DistanceMeters>NAN</DistanceMeters>
          </Trackpoint>
          <Trackpoint>
            <Time>2022-09-24T15:22:55.000Z</Time>
            <Position>
              <LatitudeDegrees>43.30043971538543701171875</LatitudeDegrees>
              <LongitudeDegrees>-2.74355851113796234130859375</LongitudeDegrees>
            </Position>
            <AltitudeMeters>107.59999847412109375</AltitudeMeters>
            <DistanceMeters>NAN</DistanceMeters>
          </Trackpoint>
          <Trackpoint>
            <Time>2022-09-24T15:22:56.000Z</Time>
            <Position>
              <LatitudeDegrees>43.3004288189113140106201171875</LatitudeDegrees>
              <LongitudeDegrees>-2.74351735599339008331298828125</LongitudeDegrees>
            </Position>
            <AltitudeMeters>107.8000030517578125</AltitudeMeters>
            <DistanceMeters>NAN</DistanceMeters>
          </Trackpoint>
          <Trackpoint>
            <Time>2022-09-24T15:22:57.000Z</Time>
            <Position>
              <LatitudeDegrees>43.3004224486649036407470703125</LatitudeDegrees>
              <LongitudeDegrees>-2.74348014034330844879150390625</LongitudeDegrees>
            </Position>
            <AltitudeMeters>108</AltitudeMeters>
            <DistanceMeters>NAN</DistanceMeters>
          </Trackpoint>
          <Trackpoint>
            <Time>2022-09-24T15:22:58.000Z</Time>
            <Position>
              <LatitudeDegrees>43.3004157431423664093017578125</LatitudeDegrees>
              <LongitudeDegrees>-2.743449546396732330322265625</LongitudeDegrees>
            </Position>
            <AltitudeMeters>108.1999969482421875</AltitudeMeters>
            <DistanceMeters>NAN</DistanceMeters>
          </Trackpoint>
          <Trackpoint>
            <Time>2022-09-24T15:22:59.000Z</Time>
            <Position>
              <LatitudeDegrees>43.30040493048727512359619140625</LatitudeDegrees>
              <LongitudeDegrees>-2.7434094808995723724365234375</LongitudeDegrees>
            </Position>
            <AltitudeMeters>109</AltitudeMeters>
            <DistanceMeters>NAN</DistanceMeters>
          </Trackpoint>
          <Trackpoint>
            <Time>2022-09-24T15:23:00.000Z</Time>
            <Position>
              <LatitudeDegrees>43.300393782556056976318359375</LatitudeDegrees>
              <LongitudeDegrees>-2.74337477982044219970703125</LongitudeDegrees>
            </Position>
            <AltitudeMeters>109</AltitudeMeters>
            <DistanceMeters>NAN</DistanceMeters>
          </Trackpoint>
          <Trackpoint>
            <Time>2022-09-24T15:23:01.000Z</Time>
            <Position>
              <LatitudeDegrees>43.3003865741193294525146484375</LatitudeDegrees>
              <LongitudeDegrees>-2.74334636516869068145751953125</LongitudeDegrees>
            </Position>
            <AltitudeMeters>109.1999969482421875</AltitudeMeters>
            <DistanceMeters>NAN</DistanceMeters>
          </Trackpoint>
          <Trackpoint>
            <Time>2022-09-24T15:23:02.000Z</Time>
            <Position>
              <LatitudeDegrees>43.30037442035973072052001953125</LatitudeDegrees>
              <LongitudeDegrees>-2.74331149645149707794189453125</LongitudeDegrees>
            </Position>
            <AltitudeMeters>109.1999969482421875</AltitudeMeters>
            <DistanceMeters>NAN</DistanceMeters>
          </Trackpoint>
          <Trackpoint>
            <Time>2022-09-24T15:23:03.000Z</Time>
            <Position>
              <LatitudeDegrees>43.3003634400665760040283203125</LatitudeDegrees>
              <LongitudeDegrees>-2.7432760410010814666748046875</LongitudeDegrees>
            </Position>
            <AltitudeMeters>109.59999847412109375</AltitudeMeters>
            <DistanceMeters>NAN</DistanceMeters>
          </Trackpoint>
          <Trackpoint>
            <Time>2022-09-24T15:23:04.000Z</Time>
            <Position>
              <LatitudeDegrees>43.30035614781081676483154296875</LatitudeDegrees>
              <LongitudeDegrees>-2.743243686854839324951171875</LongitudeDegrees>
            </Position>
            <AltitudeMeters>109.8000030517578125</AltitudeMeters>
            <DistanceMeters>NAN</DistanceMeters>
          </Trackpoint>
          <Trackpoint>
            <Time>2022-09-24T15:23:05.000Z</Time>
            <Position>
              <LatitudeDegrees>43.3003439940512180328369140625</LatitudeDegrees>
              <LongitudeDegrees>-2.7432091534137725830078125</LongitudeDegrees>
            </Position>
            <AltitudeMeters>109.8000030517578125</AltitudeMeters>
            <DistanceMeters>NAN</DistanceMeters>
          </Trackpoint>
          <Trackpoint>
            <Time>2022-09-24T15:23:06.000Z</Time>
            <Position>
              <LatitudeDegrees>43.30032245256006717681884765625</LatitudeDegrees>
              <LongitudeDegrees>-2.74316648952662944793701171875</LongitudeDegrees>
            </Position>
            <AltitudeMeters>110</AltitudeMeters>
            <DistanceMeters>NAN</DistanceMeters>
          </Trackpoint>
          <Trackpoint>
            <Time>2022-09-24T15:23:07.000Z</Time>
            <Position>
              <LatitudeDegrees>43.3003128133714199066162109375</LatitudeDegrees>
              <LongitudeDegrees>-2.743130028247833251953125</LongitudeDegrees>
            </Position>
            <AltitudeMeters>110.1999969482421875</AltitudeMeters>
            <DistanceMeters>NAN</DistanceMeters>
          </Trackpoint>
          <Trackpoint>
            <Time>2022-09-24T15:23:08.000Z</Time>
            <Position>
              <LatitudeDegrees>43.300305269658565521240234375</LatitudeDegrees>
              <LongitudeDegrees>-2.743098847568035125732421875</LongitudeDegrees>
            </Position>
            <AltitudeMeters>110.1999969482421875</AltitudeMeters>
            <DistanceMeters>NAN</DistanceMeters>
          </Trackpoint>
          <Trackpoint>
            <Time>2022-09-24T15:23:09.000Z</Time>
            <Position>
              <LatitudeDegrees>43.30029345117509365081787109375</LatitudeDegrees>
              <LongitudeDegrees>-2.74306121282279491424560546875</LongitudeDegrees>
            </Position>
            <AltitudeMeters>110.40000152587890625</AltitudeMeters>
            <DistanceMeters>NAN</DistanceMeters>
          </Trackpoint>
          <Trackpoint>
            <Time>2022-09-24T15:23:10.000Z</Time>
            <Position>
              <LatitudeDegrees>43.3002823032438755035400390625</LatitudeDegrees>
              <LongitudeDegrees>-2.74302248843014240264892578125</LongitudeDegrees>
            </Position>
            <AltitudeMeters>110.40000152587890625</AltitudeMeters>
            <DistanceMeters>NAN</DistanceMeters>
          </Trackpoint>
          <Trackpoint>
            <Time>2022-09-24T15:23:11.000Z</Time>
            <Position>
              <LatitudeDegrees>43.3002712391316890716552734375</LatitudeDegrees>
              <LongitudeDegrees>-2.74298460222780704498291015625</LongitudeDegrees>
            </Position>
            <AltitudeMeters>110.59999847412109375</AltitudeMeters>
            <DistanceMeters>NAN</DistanceMeters>
          </Trackpoint>
          <Trackpoint>
            <Time>2022-09-24T15:23:12.000Z</Time>
            <Position>
              <LatitudeDegrees>43.30025807954370975494384765625</LatitudeDegrees>
              <LongitudeDegrees>-2.74294839240610599517822265625</LongitudeDegrees>
            </Position>
            <AltitudeMeters>110.8000030517578125</AltitudeMeters>
            <DistanceMeters>NAN</DistanceMeters>
          </Trackpoint>
          <Trackpoint>
            <Time>2022-09-24T15:23:13.000Z</Time>
            <Position>
              <LatitudeDegrees>43.30024550668895244598388671875</LatitudeDegrees>
              <LongitudeDegrees>-2.7429109252989292144775390625</LongitudeDegrees>
            </Position>
            <AltitudeMeters>110.8000030517578125</AltitudeMeters>
            <DistanceMeters>NAN</DistanceMeters>
          </Trackpoint>
          <Trackpoint>
            <Time>2022-09-24T15:23:14.000Z</Time>
            <Position>
              <LatitudeDegrees>43.30023578368127346038818359375</LatitudeDegrees>
              <LongitudeDegrees>-2.7428737096488475799560546875</LongitudeDegrees>
            </Position>
            <AltitudeMeters>111.1999969482421875</AltitudeMeters>
            <DistanceMeters>NAN</DistanceMeters>
          </Trackpoint>
          <Trackpoint>
            <Time>2022-09-24T15:23:15.000Z</Time>
            <Position>
              <LatitudeDegrees>43.300225473940372467041015625</LatitudeDegrees>
              <LongitudeDegrees>-2.7428361587226390838623046875</LongitudeDegrees>
            </Position>
            <AltitudeMeters>111.1999969482421875</AltitudeMeters>
            <DistanceMeters>NAN</DistanceMeters>
          </Trackpoint>
          <Trackpoint>
            <Time>2022-09-24T15:23:16.000Z</Time>
            <Position>
              <LatitudeDegrees>43.3002189360558986663818359375</LatitudeDegrees>
              <LongitudeDegrees>-2.74280556477606296539306640625</LongitudeDegrees>
            </Position>
            <AltitudeMeters>111.40000152587890625</AltitudeMeters>
            <DistanceMeters>NAN</DistanceMeters>
          </Trackpoint>
          <Trackpoint>
            <Time>2022-09-24T15:23:17.000Z</Time>
            <Position>
              <LatitudeDegrees>43.3002103865146636962890625</LatitudeDegrees>
              <LongitudeDegrees>-2.74275946430861949920654296875</LongitudeDegrees>
            </Position>
            <AltitudeMeters>111.40000152587890625</AltitudeMeters>
            <DistanceMeters>NAN</DistanceMeters>
          </Trackpoint>
          <Trackpoint>
            <Time>2022-09-24T15:23:18.000Z</Time>
            <Position>
              <LatitudeDegrees>43.3001988194882869720458984375</LatitudeDegrees>
              <LongitudeDegrees>-2.74272032082080841064453125</LongitudeDegrees>
            </Position>
            <AltitudeMeters>111.8000030517578125</AltitudeMeters>
            <DistanceMeters>NAN</DistanceMeters>
          </Trackpoint>
          <Trackpoint>
            <Time>2022-09-24T15:23:19.000Z</Time>
            <Position>
              <LatitudeDegrees>43.3001901023089885711669921875</LatitudeDegrees>
              <LongitudeDegrees>-2.74268536828458309173583984375</LongitudeDegrees>
            </Position>
            <AltitudeMeters>112</AltitudeMeters>
            <DistanceMeters>NAN</DistanceMeters>
          </Trackpoint>
          <Trackpoint>
            <Time>2022-09-24T15:23:20.000Z</Time>
            <Position>
              <LatitudeDegrees>43.30018331296741962432861328125</LatitudeDegrees>
              <LongitudeDegrees>-2.74264815263450145721435546875</LongitudeDegrees>
            </Position>
            <AltitudeMeters>112.40000152587890625</AltitudeMeters>
            <DistanceMeters>NAN</DistanceMeters>
          </Trackpoint>
          <Trackpoint>
            <Time>2022-09-24T15:23:21.000Z</Time>
            <Position>
              <LatitudeDegrees>43.30017660744488239288330078125</LatitudeDegrees>
              <LongitudeDegrees>-2.7426088415086269378662109375</LongitudeDegrees>
            </Position>
            <AltitudeMeters>112.59999847412109375</AltitudeMeters>
            <DistanceMeters>NAN</DistanceMeters>
          </Trackpoint>
          <Trackpoint>
            <Time>2022-09-24T15:23:22.000Z</Time>
            <Position>
              <LatitudeDegrees>43.30016772262752056121826171875</LatitudeDegrees>
              <LongitudeDegrees>-2.742568440735340118408203125</LongitudeDegrees>
            </Position>
            <AltitudeMeters>112.59999847412109375</AltitudeMeters>
            <DistanceMeters>NAN</DistanceMeters>
          </Trackpoint>
          <Trackpoint>
            <Time>2022-09-24T15:23:23.000Z</Time>
            <Position>
              <LatitudeDegrees>43.30015598796308040618896484375</LatitudeDegrees>
              <LongitudeDegrees>-2.74253114126622676849365234375</LongitudeDegrees>
            </Position>
            <AltitudeMeters>112.8000030517578125</AltitudeMeters>
            <DistanceMeters>NAN</DistanceMeters>
          </Trackpoint>
          <Trackpoint>
            <Time>2022-09-24T15:23:24.000Z</Time>
            <Position>
              <LatitudeDegrees>43.30014400184154510498046875</LatitudeDegrees>
              <LongitudeDegrees>-2.7424930036067962646484375</LongitudeDegrees>
            </Position>
            <AltitudeMeters>112.8000030517578125</AltitudeMeters>
            <DistanceMeters>NAN</DistanceMeters>
          </Trackpoint>
          <Trackpoint>
            <Time>2022-09-24T15:23:25.000Z</Time>
            <Position>
              <LatitudeDegrees>43.3001347817480564117431640625</LatitudeDegrees>
              <LongitudeDegrees>-2.74245453067123889923095703125</LongitudeDegrees>
            </Position>
            <AltitudeMeters>113</AltitudeMeters>
            <DistanceMeters>NAN</DistanceMeters>
          </Trackpoint>
          <Trackpoint>
            <Time>2022-09-24T15:23:26.000Z</Time>
            <Position>
              <LatitudeDegrees>43.300127573311328887939453125</LatitudeDegrees>
              <LongitudeDegrees>-2.74241899140179157257080078125</LongitudeDegrees>
            </Position>
            <AltitudeMeters>113</AltitudeMeters>
            <DistanceMeters>NAN</DistanceMeters>
          </Trackpoint>
          <Trackpoint>
            <Time>2022-09-24T15:23:27.000Z</Time>
            <Position>
              <LatitudeDegrees>43.30011541955173015594482421875</LatitudeDegrees>
              <LongitudeDegrees>-2.74237775243818759918212890625</LongitudeDegrees>
            </Position>
            <AltitudeMeters>113.1999969482421875</AltitudeMeters>
            <DistanceMeters>NAN</DistanceMeters>
          </Trackpoint>
          <Trackpoint>
            <Time>2022-09-24T15:23:28.000Z</Time>
            <Position>
              <LatitudeDegrees>43.30010510981082916259765625</LatitudeDegrees>
              <LongitudeDegrees>-2.742336094379425048828125</LongitudeDegrees>
            </Position>
            <AltitudeMeters>113.40000152587890625</AltitudeMeters>
            <DistanceMeters>NAN</DistanceMeters>
          </Trackpoint>
          <Trackpoint>
            <Time>2022-09-24T15:23:29.000Z</Time>
            <Position>
              <LatitudeDegrees>43.30009580589830875396728515625</LatitudeDegrees>
              <LongitudeDegrees>-2.7422940172255039215087890625</LongitudeDegrees>
            </Position>
            <AltitudeMeters>113.59999847412109375</AltitudeMeters>
            <DistanceMeters>NAN</DistanceMeters>
          </Trackpoint>
          <Trackpoint>
            <Time>2022-09-24T15:23:30.000Z</Time>
            <Position>
              <LatitudeDegrees>43.30008541233837604522705078125</LatitudeDegrees>
              <LongitudeDegrees>-2.74225361645221710205078125</LongitudeDegrees>
            </Position>
            <AltitudeMeters>113.59999847412109375</AltitudeMeters>
            <DistanceMeters>NAN</DistanceMeters>
          </Trackpoint>
          <Trackpoint>
            <Time>2022-09-24T15:23:31.000Z</Time>
            <Position>
              <LatitudeDegrees>43.30007870681583881378173828125</LatitudeDegrees>
              <LongitudeDegrees>-2.7422155626118183135986328125</LongitudeDegrees>
            </Position>
            <AltitudeMeters>113.59999847412109375</AltitudeMeters>
            <DistanceMeters>NAN</DistanceMeters>
          </Trackpoint>
          <Trackpoint>
            <Time>2022-09-24T15:23:32.000Z</Time>
            <Position>
              <LatitudeDegrees>43.300073258578777313232421875</LatitudeDegrees>
              <LongitudeDegrees>-2.7421783469617366790771484375</LongitudeDegrees>
            </Position>
            <AltitudeMeters>113.8000030517578125</AltitudeMeters>
            <DistanceMeters>NAN</DistanceMeters>
          </Trackpoint>
          <Trackpoint>
            <Time>2022-09-24T15:23:33.000Z</Time>
            <Position>
              <LatitudeDegrees>43.3000650443136692047119140625</LatitudeDegrees>
              <LongitudeDegrees>-2.7421377785503864288330078125</LongitudeDegrees>
            </Position>
            <AltitudeMeters>114</AltitudeMeters>
            <DistanceMeters>NAN</DistanceMeters>
          </Trackpoint>
          <Trackpoint>
            <Time>2022-09-24T15:23:34.000Z</Time>
            <Position>
              <LatitudeDegrees>43.30005540512502193450927734375</LatitudeDegrees>
              <LongitudeDegrees>-2.74210031144320964813232421875</LongitudeDegrees>
            </Position>
            <AltitudeMeters>114</AltitudeMeters>
            <DistanceMeters>NAN</DistanceMeters>
          </Trackpoint>
          <Trackpoint>
            <Time>2022-09-24T15:23:35.000Z</Time>
            <Position>
              <LatitudeDegrees>43.3000481128692626953125</LatitudeDegrees>
              <LongitudeDegrees>-2.74206477217376232147216796875</LongitudeDegrees>
            </Position>
            <AltitudeMeters>114.59999847412109375</AltitudeMeters>
            <DistanceMeters>NAN</DistanceMeters>
          </Trackpoint>
          <Trackpoint>
            <Time>2022-09-24T15:23:36.000Z</Time>
            <Position>
              <LatitudeDegrees>43.30003939568996429443359375</LatitudeDegrees>
              <LongitudeDegrees>-2.74202562868595123291015625</LongitudeDegrees>
            </Position>
            <AltitudeMeters>114.59999847412109375</AltitudeMeters>
            <DistanceMeters>NAN</DistanceMeters>
          </Trackpoint>
          <Trackpoint>
            <Time>2022-09-24T15:23:37.000Z</Time>
            <Position>
              <LatitudeDegrees>43.30002841539680957794189453125</LatitudeDegrees>
              <LongitudeDegrees>-2.741985730826854705810546875</LongitudeDegrees>
            </Position>
            <AltitudeMeters>114.8000030517578125</AltitudeMeters>
            <DistanceMeters>NAN</DistanceMeters>
          </Trackpoint>
          <Trackpoint>
            <Time>2022-09-24T15:23:38.000Z</Time>
            <Position>
              <LatitudeDegrees>43.30002137459814548492431640625</LatitudeDegrees>
              <LongitudeDegrees>-2.74194574914872646331787109375</LongitudeDegrees>
            </Position>
            <AltitudeMeters>115.40000152587890625</AltitudeMeters>
            <DistanceMeters>NAN</DistanceMeters>
          </Trackpoint>
          <Trackpoint>
            <Time>2022-09-24T15:23:39.000Z</Time>
            <Position>
              <LatitudeDegrees>43.300014920532703399658203125</LatitudeDegrees>
              <LongitudeDegrees>-2.7419148199260234832763671875</LongitudeDegrees>
            </Position>
            <AltitudeMeters>115.40000152587890625</AltitudeMeters>
            <DistanceMeters>NAN</DistanceMeters>
          </Trackpoint>
          <Trackpoint>
            <Time>2022-09-24T15:23:40.000Z</Time>
            <Position>
              <LatitudeDegrees>43.300002180039882659912109375</LatitudeDegrees>
              <LongitudeDegrees>-2.741871066391468048095703125</LongitudeDegrees>
            </Position>
            <AltitudeMeters>115.59999847412109375</AltitudeMeters>
            <DistanceMeters>NAN</DistanceMeters>
          </Trackpoint>
          <Trackpoint>
            <Time>2022-09-24T15:23:41.000Z</Time>
            <Position>
              <LatitudeDegrees>43.29999379813671112060546875</LatitudeDegrees>
              <LongitudeDegrees>-2.7418330125510692596435546875</LongitudeDegrees>
            </Position>
            <AltitudeMeters>115.59999847412109375</AltitudeMeters>
            <DistanceMeters>NAN</DistanceMeters>
          </Trackpoint>
          <Trackpoint>
            <Time>2022-09-24T15:23:42.000Z</Time>
            <Position>
              <LatitudeDegrees>43.29998684115707874298095703125</LatitudeDegrees>
              <LongitudeDegrees>-2.741794288158416748046875</LongitudeDegrees>
            </Position>
            <AltitudeMeters>115.8000030517578125</AltitudeMeters>
            <DistanceMeters>NAN</DistanceMeters>
          </Trackpoint>
          <Trackpoint>
            <Time>2022-09-24T15:23:43.000Z</Time>
            <Position>
              <LatitudeDegrees>43.29997560940682888031005859375</LatitudeDegrees>
              <LongitudeDegrees>-2.7417518757283687591552734375</LongitudeDegrees>
            </Position>
            <AltitudeMeters>116</AltitudeMeters>
            <DistanceMeters>NAN</DistanceMeters>
          </Trackpoint>
          <Trackpoint>
            <Time>2022-09-24T15:23:44.000Z</Time>
            <Position>
              <LatitudeDegrees>43.29996622167527675628662109375</LatitudeDegrees>
              <LongitudeDegrees>-2.741711139678955078125</LongitudeDegrees>
            </Position>
            <AltitudeMeters>116</AltitudeMeters>
            <DistanceMeters>NAN</DistanceMeters>
          </Trackpoint>
          <Trackpoint>
            <Time>2022-09-24T15:23:45.000Z</Time>
            <Position>
              <LatitudeDegrees>43.2999584265053272247314453125</LatitudeDegrees>
              <LongitudeDegrees>-2.74167425930500030517578125</LongitudeDegrees>
            </Position>
            <AltitudeMeters>116.1999969482421875</AltitudeMeters>
            <DistanceMeters>NAN</DistanceMeters>
          </Trackpoint>
          <Trackpoint>
            <Time>2022-09-24T15:23:46.000Z</Time>
            <Position>
              <LatitudeDegrees>43.299951218068599700927734375</LatitudeDegrees>
              <LongitudeDegrees>-2.741639725863933563232421875</LongitudeDegrees>
            </Position>
            <AltitudeMeters>116.59999847412109375</AltitudeMeters>
            <DistanceMeters>NAN</DistanceMeters>
          </Trackpoint>
          <Trackpoint>
            <Time>2022-09-24T15:23:47.000Z</Time>
            <Position>
              <LatitudeDegrees>43.2999423332512378692626953125</LatitudeDegrees>
              <LongitudeDegrees>-2.74160183966159820556640625</LongitudeDegrees>
            </Position>
            <AltitudeMeters>116.8000030517578125</AltitudeMeters>
            <DistanceMeters>NAN</DistanceMeters>
          </Trackpoint>
          <Trackpoint>
            <Time>2022-09-24T15:23:48.000Z</Time>
            <Position>
              <LatitudeDegrees>43.299933783710002899169921875</LatitudeDegrees>
              <LongitudeDegrees>-2.7415649592876434326171875</LongitudeDegrees>
            </Position>
            <AltitudeMeters>116.8000030517578125</AltitudeMeters>
            <DistanceMeters>NAN</DistanceMeters>
          </Trackpoint>
          <Trackpoint>
            <Time>2022-09-24T15:23:49.000Z</Time>
            <Position>
              <LatitudeDegrees>43.2999208755791187286376953125</LatitudeDegrees>
              <LongitudeDegrees>-2.74152933619916439056396484375</LongitudeDegrees>
            </Position>
            <AltitudeMeters>117</AltitudeMeters>
            <DistanceMeters>NAN</DistanceMeters>
          </Trackpoint>
          <Trackpoint>
            <Time>2022-09-24T15:23:50.000Z</Time>
            <Position>
              <LatitudeDegrees>43.299914337694644927978515625</LatitudeDegrees>
              <LongitudeDegrees>-2.74148977361619472503662109375</LongitudeDegrees>
            </Position>
            <AltitudeMeters>117.59999847412109375</AltitudeMeters>
            <DistanceMeters>NAN</DistanceMeters>
          </Trackpoint>
          <Trackpoint>
            <Time>2022-09-24T15:23:51.000Z</Time>
            <Position>
              <LatitudeDegrees>43.2999071292579174041748046875</LatitudeDegrees>
              <LongitudeDegrees>-2.74144970811903476715087890625</LongitudeDegrees>
            </Position>
            <AltitudeMeters>117.59999847412109375</AltitudeMeters>
            <DistanceMeters>NAN</DistanceMeters>
          </Trackpoint>
          <Trackpoint>
            <Time>2022-09-24T15:23:52.000Z</Time>
            <Position>
              <LatitudeDegrees>43.29989832825958728790283203125</LatitudeDegrees>
              <LongitudeDegrees>-2.74141006171703338623046875</LongitudeDegrees>
            </Position>
            <AltitudeMeters>118</AltitudeMeters>
            <DistanceMeters>NAN</DistanceMeters>
          </Trackpoint>
          <Trackpoint>
            <Time>2022-09-24T15:23:53.000Z</Time>
            <Position>
              <LatitudeDegrees>43.299890868365764617919921875</LatitudeDegrees>
              <LongitudeDegrees>-2.74137158878147602081298828125</LongitudeDegrees>
            </Position>
            <AltitudeMeters>118.1999969482421875</AltitudeMeters>
            <DistanceMeters>NAN</DistanceMeters>
          </Trackpoint>
          <Trackpoint>
            <Time>2022-09-24T15:23:54.000Z</Time>
            <Position>
              <LatitudeDegrees>43.29988257028162479400634765625</LatitudeDegrees>
              <LongitudeDegrees>-2.74133051745593547821044921875</LongitudeDegrees>
            </Position>
            <AltitudeMeters>118.1999969482421875</AltitudeMeters>
            <DistanceMeters>NAN</DistanceMeters>
          </Trackpoint>
          <Trackpoint>
            <Time>2022-09-24T15:23:55.000Z</Time>
            <Position>
              <LatitudeDegrees>43.299877457320690155029296875</LatitudeDegrees>
              <LongitudeDegrees>-2.74128642864525318145751953125</LongitudeDegrees>
            </Position>
            <AltitudeMeters>118.1999969482421875</AltitudeMeters>
            <DistanceMeters>NAN</DistanceMeters>
          </Trackpoint>
          <Trackpoint>
            <Time>2022-09-24T15:23:56.000Z</Time>
            <Position>
              <LatitudeDegrees>43.29986781813204288482666015625</LatitudeDegrees>
              <LongitudeDegrees>-2.74124435149133205413818359375</LongitudeDegrees>
            </Position>
            <AltitudeMeters>118.40000152587890625</AltitudeMeters>
            <DistanceMeters>NAN</DistanceMeters>
          </Trackpoint>
          <Trackpoint>
            <Time>2022-09-24T15:23:57.000Z</Time>
            <Position>
              <LatitudeDegrees>43.29986236989498138427734375</LatitudeDegrees>
              <LongitudeDegrees>-2.74120579473674297332763671875</LongitudeDegrees>
            </Position>
            <AltitudeMeters>118.59999847412109375</AltitudeMeters>
            <DistanceMeters>NAN</DistanceMeters>
          </Trackpoint>
          <Trackpoint>
            <Time>2022-09-24T15:23:58.000Z</Time>
            <Position>
              <LatitudeDegrees>43.29985457472503185272216796875</LatitudeDegrees>
              <LongitudeDegrees>-2.7411708422005176544189453125</LongitudeDegrees>
            </Position>
            <AltitudeMeters>118.8000030517578125</AltitudeMeters>
            <DistanceMeters>NAN</DistanceMeters>
          </Trackpoint>
          <Trackpoint>
            <Time>2022-09-24T15:23:59.000Z</Time>
            <Position>
              <LatitudeDegrees>43.2998440973460674285888671875</LatitudeDegrees>
              <LongitudeDegrees>-2.74113236926496028900146484375</LongitudeDegrees>
            </Position>
            <AltitudeMeters>118.8000030517578125</AltitudeMeters>
            <DistanceMeters>NAN</DistanceMeters>
          </Trackpoint>
          <Trackpoint>
            <Time>2022-09-24T15:24:00.000Z</Time>
            <Position>
              <LatitudeDegrees>43.2998293451964855194091796875</LatitudeDegrees>
              <LongitudeDegrees>-2.7410928905010223388671875</LongitudeDegrees>
            </Position>
            <AltitudeMeters>119</AltitudeMeters>
            <DistanceMeters>NAN</DistanceMeters>
          </Trackpoint>
          <Trackpoint>
            <Time>2022-09-24T15:24:01.000Z</Time>
            <Position>
              <LatitudeDegrees>43.2998169399797916412353515625</LatitudeDegrees>
              <LongitudeDegrees>-2.74105290882289409637451171875</LongitudeDegrees>
            </Position>
            <AltitudeMeters>119.40000152587890625</AltitudeMeters>
            <DistanceMeters>NAN</DistanceMeters>
          </Trackpoint>
          <Trackpoint>
            <Time>2022-09-24T15:24:02.000Z</Time>
            <Position>
              <LatitudeDegrees>43.29980579204857349395751953125</LatitudeDegrees>
              <LongitudeDegrees>-2.74101334623992443084716796875</LongitudeDegrees>
            </Position>
            <AltitudeMeters>119.59999847412109375</AltitudeMeters>
            <DistanceMeters>NAN</DistanceMeters>
          </Trackpoint>
          <Trackpoint>
            <Time>2022-09-24T15:24:03.000Z</Time>
            <Position>
              <LatitudeDegrees>43.299797661602497100830078125</LatitudeDegrees>
              <LongitudeDegrees>-2.74097579531371593475341796875</LongitudeDegrees>
            </Position>
            <AltitudeMeters>119.8000030517578125</AltitudeMeters>
            <DistanceMeters>NAN</DistanceMeters>
          </Trackpoint>
          <Trackpoint>
            <Time>2022-09-24T15:24:04.000Z</Time>
            <Position>
              <LatitudeDegrees>43.29979053698480129241943359375</LatitudeDegrees>
              <LongitudeDegrees>-2.74094159714877605438232421875</LongitudeDegrees>
            </Position>
            <AltitudeMeters>120</AltitudeMeters>
            <DistanceMeters>NAN</DistanceMeters>
          </Trackpoint>
          <Trackpoint>
            <Time>2022-09-24T15:24:05.000Z</Time>
            <Position>
              <LatitudeDegrees>43.29978181980550289154052734375</LatitudeDegrees>
              <LongitudeDegrees>-2.7409006096422672271728515625</LongitudeDegrees>
            </Position>
            <AltitudeMeters>120.1999969482421875</AltitudeMeters>
            <DistanceMeters>NAN</DistanceMeters>
          </Trackpoint>
          <Trackpoint>
            <Time>2022-09-24T15:24:06.000Z</Time>
            <Position>
              <LatitudeDegrees>43.29977259971201419830322265625</LatitudeDegrees>
              <LongitudeDegrees>-2.7408580295741558074951171875</LongitudeDegrees>
            </Position>
            <AltitudeMeters>120.59999847412109375</AltitudeMeters>
            <DistanceMeters>NAN</DistanceMeters>
          </Trackpoint>
          <Trackpoint>
            <Time>2022-09-24T15:24:07.000Z</Time>
            <Position>
              <LatitudeDegrees>43.2997622899711132049560546875</LatitudeDegrees>
              <LongitudeDegrees>-2.740818299353122711181640625</LongitudeDegrees>
            </Position>
            <AltitudeMeters>120.59999847412109375</AltitudeMeters>
            <DistanceMeters>NAN</DistanceMeters>
          </Trackpoint>
          <Trackpoint>
            <Time>2022-09-24T15:24:08.000Z</Time>
            <Position>
              <LatitudeDegrees>43.2997525669634342193603515625</LatitudeDegrees>
              <LongitudeDegrees>-2.74077798239886760711669921875</LongitudeDegrees>
            </Position>
            <AltitudeMeters>120.8000030517578125</AltitudeMeters>
            <DistanceMeters>NAN</DistanceMeters>
          </Trackpoint>
          <Trackpoint>
            <Time>2022-09-24T15:24:09.000Z</Time>
            <Position>
              <LatitudeDegrees>43.2997418381273746490478515625</LatitudeDegrees>
              <LongitudeDegrees>-2.740737497806549072265625</LongitudeDegrees>
            </Position>
            <AltitudeMeters>121</AltitudeMeters>
            <DistanceMeters>NAN</DistanceMeters>
          </Trackpoint>
          <Trackpoint>
            <Time>2022-09-24T15:24:10.000Z</Time>
            <Position>
              <LatitudeDegrees>43.29973354004323482513427734375</LatitudeDegrees>
              <LongitudeDegrees>-2.74070120416581630706787109375</LongitudeDegrees>
            </Position>
            <AltitudeMeters>121.1999969482421875</AltitudeMeters>
            <DistanceMeters>NAN</DistanceMeters>
          </Trackpoint>
          <Trackpoint>
            <Time>2022-09-24T15:24:11.000Z</Time>
            <Position>
              <LatitudeDegrees>43.2997267507016658782958984375</LatitudeDegrees>
              <LongitudeDegrees>-2.74066315032541751861572265625</LongitudeDegrees>
            </Position>
            <AltitudeMeters>121.1999969482421875</AltitudeMeters>
            <DistanceMeters>NAN</DistanceMeters>
          </Trackpoint>
          <Trackpoint>
            <Time>2022-09-24T15:24:12.000Z</Time>
            <Position>
              <LatitudeDegrees>43.2997180335223674774169921875</LatitudeDegrees>
              <LongitudeDegrees>-2.740623168647289276123046875</LongitudeDegrees>
            </Position>
            <AltitudeMeters>121.59999847412109375</AltitudeMeters>
            <DistanceMeters>NAN</DistanceMeters>
          </Trackpoint>
          <Trackpoint>
            <Time>2022-09-24T15:24:13.000Z</Time>
            <Position>
              <LatitudeDegrees>43.2997086457908153533935546875</LatitudeDegrees>
              <LongitudeDegrees>-2.74058436043560504913330078125</LongitudeDegrees>
            </Position>
            <AltitudeMeters>121.8000030517578125</AltitudeMeters>
            <DistanceMeters>NAN</DistanceMeters>
          </Trackpoint>
          <Trackpoint>
            <Time>2022-09-24T15:24:14.000Z</Time>
            <Position>
              <LatitudeDegrees>43.29969967715442180633544921875</LatitudeDegrees>
              <LongitudeDegrees>-2.740544378757476806640625</LongitudeDegrees>
            </Position>
            <AltitudeMeters>122</AltitudeMeters>
            <DistanceMeters>NAN</DistanceMeters>
          </Trackpoint>
          <Trackpoint>
            <Time>2022-09-24T15:24:15.000Z</Time>
            <Position>
              <LatitudeDegrees>43.2996932230889797210693359375</LatitudeDegrees>
              <LongitudeDegrees>-2.74050473235547542572021484375</LongitudeDegrees>
            </Position>
            <AltitudeMeters>122</AltitudeMeters>
            <DistanceMeters>NAN</DistanceMeters>
          </Trackpoint>
          <Trackpoint>
            <Time>2022-09-24T15:24:16.000Z</Time>
            <Position>
              <LatitudeDegrees>43.29968593083322048187255859375</LatitudeDegrees>
              <LongitudeDegrees>-2.7404679358005523681640625</LongitudeDegrees>
            </Position>
            <AltitudeMeters>122.1999969482421875</AltitudeMeters>
            <DistanceMeters>NAN</DistanceMeters>
          </Trackpoint>
          <Trackpoint>
            <Time>2022-09-24T15:24:17.000Z</Time>
            <Position>
              <LatitudeDegrees>43.29968073405325412750244140625</LatitudeDegrees>
              <LongitudeDegrees>-2.740430720150470733642578125</LongitudeDegrees>
            </Position>
            <AltitudeMeters>122.59999847412109375</AltitudeMeters>
            <DistanceMeters>NAN</DistanceMeters>
          </Trackpoint>
          <Trackpoint>
            <Time>2022-09-24T15:24:18.000Z</Time>
            <Position>
              <LatitudeDegrees>43.29968073405325412750244140625</LatitudeDegrees>
              <LongitudeDegrees>-2.740430720150470733642578125</LongitudeDegrees>
            </Position>
            <AltitudeMeters>122.59999847412109375</AltitudeMeters>
            <DistanceMeters>NAN</DistanceMeters>
          </Trackpoint>
          <Trackpoint>
            <Time>2022-09-24T15:24:19.000Z</Time>
            <Position>
              <LatitudeDegrees>43.29967939294874668121337890625</LatitudeDegrees>
              <LongitudeDegrees>-2.740359641611576080322265625</LongitudeDegrees>
            </Position>
            <AltitudeMeters>123</AltitudeMeters>
            <DistanceMeters>NAN</DistanceMeters>
          </Trackpoint>
          <Trackpoint>
            <Time>2022-09-24T15:24:20.000Z</Time>
            <Position>
              <LatitudeDegrees>43.29968534409999847412109375</LatitudeDegrees>
              <LongitudeDegrees>-2.74031898938119411468505859375</LongitudeDegrees>
            </Position>
            <AltitudeMeters>123.1999969482421875</AltitudeMeters>
            <DistanceMeters>NAN</DistanceMeters>
          </Trackpoint>
          <Trackpoint>
            <Time>2022-09-24T15:24:21.000Z</Time>
            <Position>
              <LatitudeDegrees>43.29969062469899654388427734375</LatitudeDegrees>
              <LongitudeDegrees>-2.74027909152209758758544921875</LongitudeDegrees>
            </Position>
            <AltitudeMeters>123.1999969482421875</AltitudeMeters>
            <DistanceMeters>NAN</DistanceMeters>
          </Trackpoint>
          <Trackpoint>
            <Time>2022-09-24T15:24:22.000Z</Time>
            <Position>
              <LatitudeDegrees>43.29969607293605804443359375</LatitudeDegrees>
              <LongitudeDegrees>-2.740236930549144744873046875</LongitudeDegrees>
            </Position>
            <AltitudeMeters>123.8000030517578125</AltitudeMeters>
            <DistanceMeters>NAN</DistanceMeters>
          </Trackpoint>
          <Trackpoint>
            <Time>2022-09-24T15:24:23.000Z</Time>
            <Position>
              <LatitudeDegrees>43.29970520921051502227783203125</LatitudeDegrees>
              <LongitudeDegrees>-2.7401958592236042022705078125</LongitudeDegrees>
            </Position>
            <AltitudeMeters>124</AltitudeMeters>
            <DistanceMeters>NAN</DistanceMeters>
          </Trackpoint>
          <Trackpoint>
            <Time>2022-09-24T15:24:24.000Z</Time>
            <Position>
              <LatitudeDegrees>43.29971744678914546966552734375</LatitudeDegrees>
              <LongitudeDegrees>-2.740158475935459136962890625</LongitudeDegrees>
            </Position>
            <AltitudeMeters>124</AltitudeMeters>
            <DistanceMeters>NAN</DistanceMeters>
          </Trackpoint>
          <Trackpoint>
            <Time>2022-09-24T15:24:25.000Z</Time>
            <Position>
              <LatitudeDegrees>43.2997321151196956634521484375</LatitudeDegrees>
              <LongitudeDegrees>-2.74012184701859951019287109375</LongitudeDegrees>
            </Position>
            <AltitudeMeters>124.1999969482421875</AltitudeMeters>
            <DistanceMeters>NAN</DistanceMeters>
          </Trackpoint>
          <Trackpoint>
            <Time>2022-09-24T15:24:26.000Z</Time>
            <Position>
              <LatitudeDegrees>43.2997490465641021728515625</LatitudeDegrees>
              <LongitudeDegrees>-2.74008396081626415252685546875</LongitudeDegrees>
            </Position>
            <AltitudeMeters>124.1999969482421875</AltitudeMeters>
            <DistanceMeters>NAN</DistanceMeters>
          </Trackpoint>
          <Trackpoint>
            <Time>2022-09-24T15:24:27.000Z</Time>
            <Position>
              <LatitudeDegrees>43.2997678220272064208984375</LatitudeDegrees>
              <LongitudeDegrees>-2.7400456555187702178955078125</LongitudeDegrees>
            </Position>
            <AltitudeMeters>124.1999969482421875</AltitudeMeters>
            <DistanceMeters>NAN</DistanceMeters>
          </Trackpoint>
          <Trackpoint>
            <Time>2022-09-24T15:24:28.000Z</Time>
            <Position>
              <LatitudeDegrees>43.299787938594818115234375</LatitudeDegrees>
              <LongitudeDegrees>-2.74000818841159343719482421875</LongitudeDegrees>
            </Position>
            <AltitudeMeters>124.40000152587890625</AltitudeMeters>
            <DistanceMeters>NAN</DistanceMeters>
          </Trackpoint>
          <Trackpoint>
            <Time>2022-09-24T15:24:29.000Z</Time>
            <Position>
              <LatitudeDegrees>43.2998129166662693023681640625</LatitudeDegrees>
              <LongitudeDegrees>-2.73997248150408267974853515625</LongitudeDegrees>
            </Position>
            <AltitudeMeters>124.40000152587890625</AltitudeMeters>
            <DistanceMeters>NAN</DistanceMeters>
          </Trackpoint>
          <Trackpoint>
            <Time>2022-09-24T15:24:30.000Z</Time>
            <Position>
              <LatitudeDegrees>43.29984091222286224365234375</LatitudeDegrees>
              <LongitudeDegrees>-2.739938199520111083984375</LongitudeDegrees>
            </Position>
            <AltitudeMeters>124.59999847412109375</AltitudeMeters>
            <DistanceMeters>NAN</DistanceMeters>
          </Trackpoint>
          <Trackpoint>
            <Time>2022-09-24T15:24:31.000Z</Time>
            <Position>
              <LatitudeDegrees>43.29987251199781894683837890625</LatitudeDegrees>
              <LongitudeDegrees>-2.73990525864064693450927734375</LongitudeDegrees>
            </Position>
            <AltitudeMeters>124.59999847412109375</AltitudeMeters>
            <DistanceMeters>NAN</DistanceMeters>
          </Trackpoint>
          <Trackpoint>
            <Time>2022-09-24T15:24:32.000Z</Time>
            <Position>
              <LatitudeDegrees>43.29990922473371028900146484375</LatitudeDegrees>
              <LongitudeDegrees>-2.73987608961760997772216796875</LongitudeDegrees>
            </Position>
            <AltitudeMeters>124.59999847412109375</AltitudeMeters>
            <DistanceMeters>NAN</DistanceMeters>
          </Trackpoint>
          <Trackpoint>
            <Time>2022-09-24T15:24:33.000Z</Time>
            <Position>
              <LatitudeDegrees>43.29994861967861652374267578125</LatitudeDegrees>
              <LongitudeDegrees>-2.73984826169908046722412109375</LongitudeDegrees>
            </Position>
            <AltitudeMeters>124.40000152587890625</AltitudeMeters>
            <DistanceMeters>NAN</DistanceMeters>
          </Trackpoint>
          <Trackpoint>
            <Time>2022-09-24T15:24:34.000Z</Time>
            <Position>
              <LatitudeDegrees>43.29999086447060108184814453125</LatitudeDegrees>
              <LongitudeDegrees>-2.73982143960893154144287109375</LongitudeDegrees>
            </Position>
            <AltitudeMeters>124.40000152587890625</AltitudeMeters>
            <DistanceMeters>NAN</DistanceMeters>
          </Trackpoint>
          <Trackpoint>
            <Time>2022-09-24T15:24:35.000Z</Time>
            <Position>
              <LatitudeDegrees>43.3000355400145053863525390625</LatitudeDegrees>
              <LongitudeDegrees>-2.7397972159087657928466796875</LongitudeDegrees>
            </Position>
            <AltitudeMeters>124.1999969482421875</AltitudeMeters>
            <DistanceMeters>NAN</DistanceMeters>
          </Trackpoint>
          <Trackpoint>
            <Time>2022-09-24T15:24:36.000Z</Time>
            <Position>
              <LatitudeDegrees>43.3000355400145053863525390625</LatitudeDegrees>
              <LongitudeDegrees>-2.7397972159087657928466796875</LongitudeDegrees>
            </Position>
            <AltitudeMeters>124</AltitudeMeters>
            <DistanceMeters>NAN</DistanceMeters>
          </Trackpoint>
          <Trackpoint>
            <Time>2022-09-24T15:24:37.000Z</Time>
            <Position>
              <LatitudeDegrees>43.3001314289867877960205078125</LatitudeDegrees>
              <LongitudeDegrees>-2.739754132926464080810546875</LongitudeDegrees>
            </Position>
            <AltitudeMeters>123.8000030517578125</AltitudeMeters>
            <DistanceMeters>NAN</DistanceMeters>
          </Trackpoint>
          <Trackpoint>
            <Time>2022-09-24T15:24:38.000Z</Time>
            <Position>
              <LatitudeDegrees>43.30018482170999050140380859375</LatitudeDegrees>
              <LongitudeDegrees>-2.739739716053009033203125</LongitudeDegrees>
            </Position>
            <AltitudeMeters>123.59999847412109375</AltitudeMeters>
            <DistanceMeters>NAN</DistanceMeters>
          </Trackpoint>
          <Trackpoint>
            <Time>2022-09-24T15:24:39.000Z</Time>
            <Position>
              <LatitudeDegrees>43.30018482170999050140380859375</LatitudeDegrees>
              <LongitudeDegrees>-2.739739716053009033203125</LongitudeDegrees>
            </Position>
            <AltitudeMeters>123.40000152587890625</AltitudeMeters>
            <DistanceMeters>NAN</DistanceMeters>
          </Trackpoint>
          <Trackpoint>
            <Time>2022-09-24T15:24:40.000Z</Time>
            <Position>
              <LatitudeDegrees>43.3002988994121551513671875</LatitudeDegrees>
              <LongitudeDegrees>-2.73972404189407825469970703125</LongitudeDegrees>
            </Position>
            <AltitudeMeters>123.40000152587890625</AltitudeMeters>
            <DistanceMeters>NAN</DistanceMeters>
          </Trackpoint>
          <Trackpoint>
            <Time>2022-09-24T15:24:41.000Z</Time>
            <Position>
              <LatitudeDegrees>43.30035866238176822662353515625</LatitudeDegrees>
              <LongitudeDegrees>-2.7397117204964160919189453125</LongitudeDegrees>
            </Position>
            <AltitudeMeters>123.40000152587890625</AltitudeMeters>
            <DistanceMeters>NAN</DistanceMeters>
          </Trackpoint>
          <Trackpoint>
            <Time>2022-09-24T15:24:42.000Z</Time>
            <Position>
              <LatitudeDegrees>43.30042169429361820220947265625</LatitudeDegrees>
              <LongitudeDegrees>-2.73969923146069049835205078125</LongitudeDegrees>
            </Position>
            <AltitudeMeters>123.1999969482421875</AltitudeMeters>
            <DistanceMeters>NAN</DistanceMeters>
          </Trackpoint>
          <Trackpoint>
            <Time>2022-09-24T15:24:43.000Z</Time>
            <Position>
              <LatitudeDegrees>43.3004871569573879241943359375</LatitudeDegrees>
              <LongitudeDegrees>-2.73968934081494808197021484375</LongitudeDegrees>
            </Position>
            <AltitudeMeters>123.1999969482421875</AltitudeMeters>
            <DistanceMeters>NAN</DistanceMeters>
          </Trackpoint>
          <Trackpoint>
            <Time>2022-09-24T15:24:44.000Z</Time>
            <Position>
              <LatitudeDegrees>43.300554044544696807861328125</LatitudeDegrees>
              <LongitudeDegrees>-2.73968213237822055816650390625</LongitudeDegrees>
            </Position>
            <AltitudeMeters>123.1999969482421875</AltitudeMeters>
            <DistanceMeters>NAN</DistanceMeters>
          </Trackpoint>
          <Trackpoint>
            <Time>2022-09-24T15:24:45.000Z</Time>
            <Position>
              <LatitudeDegrees>43.300624452531337738037109375</LatitudeDegrees>
              <LongitudeDegrees>-2.73966972716152667999267578125</LongitudeDegrees>
            </Position>
            <AltitudeMeters>123.1999969482421875</AltitudeMeters>
            <DistanceMeters>NAN</DistanceMeters>
          </Trackpoint>
          <Trackpoint>
            <Time>2022-09-24T15:24:46.000Z</Time>
            <Position>
              <LatitudeDegrees>43.30069460906088352203369140625</LatitudeDegrees>
              <LongitudeDegrees>-2.73964977823197841644287109375</LongitudeDegrees>
            </Position>
            <AltitudeMeters>123.1999969482421875</AltitudeMeters>
            <DistanceMeters>NAN</DistanceMeters>
          </Trackpoint>
          <Trackpoint>
            <Time>2022-09-24T15:24:47.000Z</Time>
            <Position>
              <LatitudeDegrees>43.30069460906088352203369140625</LatitudeDegrees>
              <LongitudeDegrees>-2.73964977823197841644287109375</LongitudeDegrees>
            </Position>
            <AltitudeMeters>122.8000030517578125</AltitudeMeters>
            <DistanceMeters>NAN</DistanceMeters>
          </Trackpoint>
          <Trackpoint>
            <Time>2022-09-24T15:24:48.000Z</Time>
            <Position>
              <LatitudeDegrees>43.30082771368324756622314453125</LatitudeDegrees>
              <LongitudeDegrees>-2.73963267914950847625732421875</LongitudeDegrees>
            </Position>
            <AltitudeMeters>122.8000030517578125</AltitudeMeters>
            <DistanceMeters>NAN</DistanceMeters>
          </Trackpoint>
          <Trackpoint>
            <Time>2022-09-24T15:24:49.000Z</Time>
            <Position>
              <LatitudeDegrees>43.30088806338608264923095703125</LatitudeDegrees>
              <LongitudeDegrees>-2.73964650928974151611328125</LongitudeDegrees>
            </Position>
            <AltitudeMeters>122.40000152587890625</AltitudeMeters>
            <DistanceMeters>NAN</DistanceMeters>
          </Trackpoint>
          <Trackpoint>
            <Time>2022-09-24T15:24:50.000Z</Time>
            <Position>
              <LatitudeDegrees>43.3009370975196361541748046875</LatitudeDegrees>
              <LongitudeDegrees>-2.739678360521793365478515625</LongitudeDegrees>
            </Position>
            <AltitudeMeters>121.8000030517578125</AltitudeMeters>
            <DistanceMeters>NAN</DistanceMeters>
          </Trackpoint>
          <Trackpoint>
            <Time>2022-09-24T15:24:51.000Z</Time>
            <Position>
              <LatitudeDegrees>43.30097992904484272003173828125</LatitudeDegrees>
              <LongitudeDegrees>-2.73972689174115657806396484375</LongitudeDegrees>
            </Position>
            <AltitudeMeters>121.40000152587890625</AltitudeMeters>
            <DistanceMeters>NAN</DistanceMeters>
          </Trackpoint>
          <Trackpoint>
            <Time>2022-09-24T15:24:52.000Z</Time>
            <Position>
              <LatitudeDegrees>43.30101571977138519287109375</LatitudeDegrees>
              <LongitudeDegrees>-2.7397874929010868072509765625</LongitudeDegrees>
            </Position>
            <AltitudeMeters>121.1999969482421875</AltitudeMeters>
            <DistanceMeters>NAN</DistanceMeters>
          </Trackpoint>
          <Trackpoint>
            <Time>2022-09-24T15:24:53.000Z</Time>
            <Position>
              <LatitudeDegrees>43.30104078166186809539794921875</LatitudeDegrees>
              <LongitudeDegrees>-2.7398636005818843841552734375</LongitudeDegrees>
            </Position>
            <AltitudeMeters>121.40000152587890625</AltitudeMeters>
            <DistanceMeters>NAN</DistanceMeters>
          </Trackpoint>
          <Trackpoint>
            <Time>2022-09-24T15:24:54.000Z</Time>
            <Position>
              <LatitudeDegrees>43.301056958734989166259765625</LatitudeDegrees>
              <LongitudeDegrees>-2.73994951508939266204833984375</LongitudeDegrees>
            </Position>
            <AltitudeMeters>121.40000152587890625</AltitudeMeters>
            <DistanceMeters>NAN</DistanceMeters>
          </Trackpoint>
          <Trackpoint>
            <Time>2022-09-24T15:24:55.000Z</Time>
            <Position>
              <LatitudeDegrees>43.30107229761779308319091796875</LatitudeDegrees>
              <LongitudeDegrees>-2.74003769271075725555419921875</LongitudeDegrees>
            </Position>
            <AltitudeMeters>121.1999969482421875</AltitudeMeters>
            <DistanceMeters>NAN</DistanceMeters>
          </Trackpoint>
          <Trackpoint>
            <Time>2022-09-24T15:24:56.000Z</Time>
            <Position>
              <LatitudeDegrees>43.30108688212931156158447265625</LatitudeDegrees>
              <LongitudeDegrees>-2.74012821726500988006591796875</LongitudeDegrees>
            </Position>
            <AltitudeMeters>120.8000030517578125</AltitudeMeters>
            <DistanceMeters>NAN</DistanceMeters>
          </Trackpoint>
          <Trackpoint>
            <Time>2022-09-24T15:24:57.000Z</Time>
            <Position>
              <LatitudeDegrees>43.30110180191695690155029296875</LatitudeDegrees>
              <LongitudeDegrees>-2.7402206696569919586181640625</LongitudeDegrees>
            </Position>
            <AltitudeMeters>120.59999847412109375</AltitudeMeters>
            <DistanceMeters>NAN</DistanceMeters>
          </Trackpoint>
          <Trackpoint>
            <Time>2022-09-24T15:24:58.000Z</Time>
            <Position>
              <LatitudeDegrees>43.30111940391361713409423828125</LatitudeDegrees>
              <LongitudeDegrees>-2.74031437933444976806640625</LongitudeDegrees>
            </Position>
            <AltitudeMeters>116</AltitudeMeters>
            <DistanceMeters>NAN</DistanceMeters>
          </Trackpoint>
          <Trackpoint>
            <Time>2022-09-24T15:24:59.000Z</Time>
            <Position>
              <LatitudeDegrees>43.30113708972930908203125</LatitudeDegrees>
              <LongitudeDegrees>-2.7404117770493030548095703125</LongitudeDegrees>
            </Position>
            <AltitudeMeters>114.8000030517578125</AltitudeMeters>
            <DistanceMeters>NAN</DistanceMeters>
          </Trackpoint>
          <Trackpoint>
            <Time>2022-09-24T15:25:00.000Z</Time>
            <Position>
              <LatitudeDegrees>43.30115519464015960693359375</LatitudeDegrees>
              <LongitudeDegrees>-2.74051152169704437255859375</LongitudeDegrees>
            </Position>
            <AltitudeMeters>114.8000030517578125</AltitudeMeters>
            <DistanceMeters>NAN</DistanceMeters>
          </Trackpoint>
          <Trackpoint>
            <Time>2022-09-24T15:25:01.000Z</Time>
            <Position>
              <LatitudeDegrees>43.30117455683648586273193359375</LatitudeDegrees>
              <LongitudeDegrees>-2.7406112663447856903076171875</LongitudeDegrees>
            </Position>
            <AltitudeMeters>114.8000030517578125</AltitudeMeters>
            <DistanceMeters>NAN</DistanceMeters>
          </Trackpoint>
          <Trackpoint>
            <Time>2022-09-24T15:25:02.000Z</Time>
            <Position>
              <LatitudeDegrees>43.30119702033698558807373046875</LatitudeDegrees>
              <LongitudeDegrees>-2.74071210063993930816650390625</LongitudeDegrees>
            </Position>
            <AltitudeMeters>114.8000030517578125</AltitudeMeters>
            <DistanceMeters>NAN</DistanceMeters>
          </Trackpoint>
          <Trackpoint>
            <Time>2022-09-24T15:25:03.000Z</Time>
            <Position>
              <LatitudeDegrees>43.30122417770326137542724609375</LatitudeDegrees>
              <LongitudeDegrees>-2.74081251583993434906005859375</LongitudeDegrees>
            </Position>
            <AltitudeMeters>115.40000152587890625</AltitudeMeters>
            <DistanceMeters>NAN</DistanceMeters>
          </Trackpoint>
          <Trackpoint>
            <Time>2022-09-24T15:25:04.000Z</Time>
            <Position>
              <LatitudeDegrees>43.3012515865266323089599609375</LatitudeDegrees>
              <LongitudeDegrees>-2.740912847220897674560546875</LongitudeDegrees>
            </Position>
            <AltitudeMeters>115.40000152587890625</AltitudeMeters>
            <DistanceMeters>NAN</DistanceMeters>
          </Trackpoint>
          <Trackpoint>
            <Time>2022-09-24T15:25:05.000Z</Time>
            <Position>
              <LatitudeDegrees>43.301280252635478973388671875</LatitudeDegrees>
              <LongitudeDegrees>-2.74101485498249530792236328125</LongitudeDegrees>
            </Position>
            <AltitudeMeters>115.40000152587890625</AltitudeMeters>
            <DistanceMeters>NAN</DistanceMeters>
          </Trackpoint>
          <Trackpoint>
            <Time>2022-09-24T15:25:06.000Z</Time>
            <Position>
              <LatitudeDegrees>43.30131000839173793792724609375</LatitudeDegrees>
              <LongitudeDegrees>-2.741118706762790679931640625</LongitudeDegrees>
            </Position>
            <AltitudeMeters>115.40000152587890625</AltitudeMeters>
            <DistanceMeters>NAN</DistanceMeters>
          </Trackpoint>
          <Trackpoint>
            <Time>2022-09-24T15:25:07.000Z</Time>
            <Position>
              <LatitudeDegrees>43.30134152434766292572021484375</LatitudeDegrees>
              <LongitudeDegrees>-2.7412234805524349212646484375</LongitudeDegrees>
            </Position>
            <AltitudeMeters>115.40000152587890625</AltitudeMeters>
            <DistanceMeters>NAN</DistanceMeters>
          </Trackpoint>
          <Trackpoint>
            <Time>2022-09-24T15:25:08.000Z</Time>
            <Position>
              <LatitudeDegrees>43.3013786561787128448486328125</LatitudeDegrees>
              <LongitudeDegrees>-2.741323895752429962158203125</LongitudeDegrees>
            </Position>
            <AltitudeMeters>115.1999969482421875</AltitudeMeters>
            <DistanceMeters>NAN</DistanceMeters>
          </Trackpoint>
          <Trackpoint>
            <Time>2022-09-24T15:25:09.000Z</Time>
            <Position>
              <LatitudeDegrees>43.3014145307242870330810546875</LatitudeDegrees>
              <LongitudeDegrees>-2.7414273284375667572021484375</LongitudeDegrees>
            </Position>
            <AltitudeMeters>115</AltitudeMeters>
            <DistanceMeters>NAN</DistanceMeters>
          </Trackpoint>
          <Trackpoint>
            <Time>2022-09-24T15:25:10.000Z</Time>
            <Position>
              <LatitudeDegrees>43.30145065672695636749267578125</LatitudeDegrees>
              <LongitudeDegrees>-2.7415309287607669830322265625</LongitudeDegrees>
            </Position>
            <AltitudeMeters>115</AltitudeMeters>
            <DistanceMeters>NAN</DistanceMeters>
          </Trackpoint>
          <Trackpoint>
            <Time>2022-09-24T15:25:11.000Z</Time>
            <Position>
              <LatitudeDegrees>43.30148954875767230987548828125</LatitudeDegrees>
              <LongitudeDegrees>-2.74163628928363323211669921875</LongitudeDegrees>
            </Position>
            <AltitudeMeters>114.40000152587890625</AltitudeMeters>
            <DistanceMeters>NAN</DistanceMeters>
          </Trackpoint>
          <Trackpoint>
            <Time>2022-09-24T15:25:12.000Z</Time>
            <Position>
              <LatitudeDegrees>43.301531039178371429443359375</LatitudeDegrees>
              <LongitudeDegrees>-2.74174156598746776580810546875</LongitudeDegrees>
            </Position>
            <AltitudeMeters>113.40000152587890625</AltitudeMeters>
            <DistanceMeters>NAN</DistanceMeters>
          </Trackpoint>
          <Trackpoint>
            <Time>2022-09-24T15:25:13.000Z</Time>
            <Position>
              <LatitudeDegrees>43.301573954522609710693359375</LatitudeDegrees>
              <LongitudeDegrees>-2.74184801615774631500244140625</LongitudeDegrees>
            </Position>
            <AltitudeMeters>113.40000152587890625</AltitudeMeters>
            <DistanceMeters>NAN</DistanceMeters>
          </Trackpoint>
          <Trackpoint>
            <Time>2022-09-24T15:25:14.000Z</Time>
            <Position>
              <LatitudeDegrees>43.3016200549900531768798828125</LatitudeDegrees>
              <LongitudeDegrees>-2.74195614270865917205810546875</LongitudeDegrees>
            </Position>
            <AltitudeMeters>113</AltitudeMeters>
            <DistanceMeters>NAN</DistanceMeters>
          </Trackpoint>
          <Trackpoint>
            <Time>2022-09-24T15:25:15.000Z</Time>
            <Position>
              <LatitudeDegrees>43.30166841857135295867919921875</LatitudeDegrees>
              <LongitudeDegrees>-2.7420663647353649139404296875</LongitudeDegrees>
            </Position>
            <AltitudeMeters>112.8000030517578125</AltitudeMeters>
            <DistanceMeters>NAN</DistanceMeters>
          </Trackpoint>
          <Trackpoint>
            <Time>2022-09-24T15:25:16.000Z</Time>
            <Position>
              <LatitudeDegrees>43.3017182908952236175537109375</LatitudeDegrees>
              <LongitudeDegrees>-2.74217960424721240997314453125</LongitudeDegrees>
            </Position>
            <AltitudeMeters>111.8000030517578125</AltitudeMeters>
            <DistanceMeters>NAN</DistanceMeters>
          </Trackpoint>
          <Trackpoint>
            <Time>2022-09-24T15:25:17.000Z</Time>
            <Position>
              <LatitudeDegrees>43.30177051015198230743408203125</LatitudeDegrees>
              <LongitudeDegrees>-2.7422953583300113677978515625</LongitudeDegrees>
            </Position>
            <AltitudeMeters>111.1999969482421875</AltitudeMeters>
            <DistanceMeters>NAN</DistanceMeters>
          </Trackpoint>
          <Trackpoint>
            <Time>2022-09-24T15:25:18.000Z</Time>
            <Position>
              <LatitudeDegrees>43.30182281322777271270751953125</LatitudeDegrees>
              <LongitudeDegrees>-2.74241295643150806427001953125</LongitudeDegrees>
            </Position>
            <AltitudeMeters>110.59999847412109375</AltitudeMeters>
            <DistanceMeters>NAN</DistanceMeters>
          </Trackpoint>
          <Trackpoint>
            <Time>2022-09-24T15:25:19.000Z</Time>
            <Position>
              <LatitudeDegrees>43.30187578685581684112548828125</LatitudeDegrees>
              <LongitudeDegrees>-2.7425332367420196533203125</LongitudeDegrees>
            </Position>
            <AltitudeMeters>110.1999969482421875</AltitudeMeters>
            <DistanceMeters>NAN</DistanceMeters>
          </Trackpoint>
          <Trackpoint>
            <Time>2022-09-24T15:25:20.000Z</Time>
            <Position>
              <LatitudeDegrees>43.30193194560706615447998046875</LatitudeDegrees>
              <LongitudeDegrees>-2.74265435524284839630126953125</LongitudeDegrees>
            </Position>
            <AltitudeMeters>110.1999969482421875</AltitudeMeters>
            <DistanceMeters>NAN</DistanceMeters>
          </Trackpoint>
          <Trackpoint>
            <Time>2022-09-24T15:25:21.000Z</Time>
            <Position>
              <LatitudeDegrees>43.30199447460472583770751953125</LatitudeDegrees>
              <LongitudeDegrees>-2.7427727915346622467041015625</LongitudeDegrees>
            </Position>
            <AltitudeMeters>110.1999969482421875</AltitudeMeters>
            <DistanceMeters>NAN</DistanceMeters>
          </Trackpoint>
          <Trackpoint>
            <Time>2022-09-24T15:25:22.000Z</Time>
            <Position>
              <LatitudeDegrees>43.30205968581140041351318359375</LatitudeDegrees>
              <LongitudeDegrees>-2.74288594722747802734375</LongitudeDegrees>
            </Position>
            <AltitudeMeters>110.1999969482421875</AltitudeMeters>
            <DistanceMeters>NAN</DistanceMeters>
          </Trackpoint>
          <Trackpoint>
            <Time>2022-09-24T15:25:23.000Z</Time>
            <Position>
              <LatitudeDegrees>43.30212187953293323516845703125</LatitudeDegrees>
              <LongitudeDegrees>-2.74300689809024333953857421875</LongitudeDegrees>
            </Position>
            <AltitudeMeters>110.59999847412109375</AltitudeMeters>
            <DistanceMeters>NAN</DistanceMeters>
          </Trackpoint>
          <Trackpoint>
            <Time>2022-09-24T15:25:24.000Z</Time>
            <Position>
              <LatitudeDegrees>43.302184157073497772216796875</LatitudeDegrees>
              <LongitudeDegrees>-2.74312994442880153656005859375</LongitudeDegrees>
            </Position>
            <AltitudeMeters>110.59999847412109375</AltitudeMeters>
            <DistanceMeters>NAN</DistanceMeters>
          </Trackpoint>
          <Trackpoint>
            <Time>2022-09-24T15:25:25.000Z</Time>
            <Position>
              <LatitudeDegrees>43.3022500388324260711669921875</LatitudeDegrees>
              <LongitudeDegrees>-2.74324913509190082550048828125</LongitudeDegrees>
            </Position>
            <AltitudeMeters>110.1999969482421875</AltitudeMeters>
            <DistanceMeters>NAN</DistanceMeters>
          </Trackpoint>
          <Trackpoint>
            <Time>2022-09-24T15:25:26.000Z</Time>
            <Position>
              <LatitudeDegrees>43.30231885425746440887451171875</LatitudeDegrees>
              <LongitudeDegrees>-2.7433662302792072296142578125</LongitudeDegrees>
            </Position>
            <AltitudeMeters>111</AltitudeMeters>
            <DistanceMeters>NAN</DistanceMeters>
          </Trackpoint>
          <Trackpoint>
            <Time>2022-09-24T15:25:27.000Z</Time>
            <Position>
              <LatitudeDegrees>43.30231885425746440887451171875</LatitudeDegrees>
              <LongitudeDegrees>-2.7433662302792072296142578125</LongitudeDegrees>
            </Position>
            <AltitudeMeters>111</AltitudeMeters>
            <DistanceMeters>NAN</DistanceMeters>
          </Trackpoint>
          <Trackpoint>
            <Time>2022-09-24T15:25:28.000Z</Time>
            <Position>
              <LatitudeDegrees>43.30246386118233203887939453125</LatitudeDegrees>
              <LongitudeDegrees>-2.74357418529689311981201171875</LongitudeDegrees>
            </Position>
            <AltitudeMeters>110.59999847412109375</AltitudeMeters>
            <DistanceMeters>NAN</DistanceMeters>
          </Trackpoint>
          <Trackpoint>
            <Time>2022-09-24T15:25:29.000Z</Time>
            <Position>
              <LatitudeDegrees>43.3025420643389225006103515625</LatitudeDegrees>
              <LongitudeDegrees>-2.74366177618503570556640625</LongitudeDegrees>
            </Position>
            <AltitudeMeters>110</AltitudeMeters>
            <DistanceMeters>NAN</DistanceMeters>
          </Trackpoint>
          <Trackpoint>
            <Time>2022-09-24T15:25:30.000Z</Time>
            <Position>
              <LatitudeDegrees>43.30262915231287479400634765625</LatitudeDegrees>
              <LongitudeDegrees>-2.7437293343245983123779296875</LongitudeDegrees>
            </Position>
            <AltitudeMeters>110</AltitudeMeters>
            <DistanceMeters>NAN</DistanceMeters>
          </Trackpoint>
          <Trackpoint>
            <Time>2022-09-24T15:25:31.000Z</Time>
            <Position>
              <LatitudeDegrees>43.30271883867681026458740234375</LatitudeDegrees>
              <LongitudeDegrees>-2.74378574453294277191162109375</LongitudeDegrees>
            </Position>
            <AltitudeMeters>110</AltitudeMeters>
            <DistanceMeters>NAN</DistanceMeters>
          </Trackpoint>
          <Trackpoint>
            <Time>2022-09-24T15:25:32.000Z</Time>
            <Position>
              <LatitudeDegrees>43.30271883867681026458740234375</LatitudeDegrees>
              <LongitudeDegrees>-2.74378574453294277191162109375</LongitudeDegrees>
            </Position>
            <AltitudeMeters>110</AltitudeMeters>
            <DistanceMeters>NAN</DistanceMeters>
          </Trackpoint>
          <Trackpoint>
            <Time>2022-09-24T15:25:33.000Z</Time>
            <Position>
              <LatitudeDegrees>43.3029031567275524139404296875</LatitudeDegrees>
              <LongitudeDegrees>-2.74388180114328861236572265625</LongitudeDegrees>
            </Position>
            <AltitudeMeters>109.8000030517578125</AltitudeMeters>
            <DistanceMeters>NAN</DistanceMeters>
          </Trackpoint>
          <Trackpoint>
            <Time>2022-09-24T15:25:34.000Z</Time>
            <Position>
              <LatitudeDegrees>43.30300348810851573944091796875</LatitudeDegrees>
              <LongitudeDegrees>-2.743945419788360595703125</LongitudeDegrees>
            </Position>
            <AltitudeMeters>108</AltitudeMeters>
            <DistanceMeters>NAN</DistanceMeters>
          </Trackpoint>
          <Trackpoint>
            <Time>2022-09-24T15:25:35.000Z</Time>
            <Position>
              <LatitudeDegrees>43.30309669487178325653076171875</LatitudeDegrees>
              <LongitudeDegrees>-2.74403183721005916595458984375</LongitudeDegrees>
            </Position>
            <AltitudeMeters>106.8000030517578125</AltitudeMeters>
            <DistanceMeters>NAN</DistanceMeters>
          </Trackpoint>
          <Trackpoint>
            <Time>2022-09-24T15:25:36.000Z</Time>
            <Position>
              <LatitudeDegrees>43.3031800948083400726318359375</LatitudeDegrees>
              <LongitudeDegrees>-2.7441316656768321990966796875</LongitudeDegrees>
            </Position>
            <AltitudeMeters>106.59999847412109375</AltitudeMeters>
            <DistanceMeters>NAN</DistanceMeters>
          </Trackpoint>
          <Trackpoint>
            <Time>2022-09-24T15:25:37.000Z</Time>
            <Position>
              <LatitudeDegrees>43.30325092189013957977294921875</LatitudeDegrees>
              <LongitudeDegrees>-2.7442337572574615478515625</LongitudeDegrees>
            </Position>
            <AltitudeMeters>106.59999847412109375</AltitudeMeters>
            <DistanceMeters>NAN</DistanceMeters>
          </Trackpoint>
          <Trackpoint>
            <Time>2022-09-24T15:25:38.000Z</Time>
            <Position>
              <LatitudeDegrees>43.30331839621067047119140625</LatitudeDegrees>
              <LongitudeDegrees>-2.744324617087841033935546875</LongitudeDegrees>
            </Position>
            <AltitudeMeters>105.1999969482421875</AltitudeMeters>
            <DistanceMeters>NAN</DistanceMeters>
          </Trackpoint>
          <Trackpoint>
            <Time>2022-09-24T15:25:39.000Z</Time>
            <Position>
              <LatitudeDegrees>43.3033899776637554168701171875</LatitudeDegrees>
              <LongitudeDegrees>-2.74440952576696872711181640625</LongitudeDegrees>
            </Position>
            <AltitudeMeters>105.1999969482421875</AltitudeMeters>
            <DistanceMeters>NAN</DistanceMeters>
          </Trackpoint>
          <Trackpoint>
            <Time>2022-09-24T15:25:40.000Z</Time>
            <Position>
              <LatitudeDegrees>43.30348377116024494171142578125</LatitudeDegrees>
              <LongitudeDegrees>-2.744503319263458251953125</LongitudeDegrees>
            </Position>
            <AltitudeMeters>104.8000030517578125</AltitudeMeters>
            <DistanceMeters>NAN</DistanceMeters>
          </Trackpoint>
          <Trackpoint>
            <Time>2022-09-24T15:25:41.000Z</Time>
            <Position>
              <LatitudeDegrees>43.303574211895465850830078125</LatitudeDegrees>
              <LongitudeDegrees>-2.74455872364342212677001953125</LongitudeDegrees>
            </Position>
            <AltitudeMeters>104</AltitudeMeters>
            <DistanceMeters>NAN</DistanceMeters>
          </Trackpoint>
          <Trackpoint>
            <Time>2022-09-24T15:25:42.000Z</Time>
            <Position>
              <LatitudeDegrees>43.3036709390580654144287109375</LatitudeDegrees>
              <LongitudeDegrees>-2.74460281245410442352294921875</LongitudeDegrees>
            </Position>
            <AltitudeMeters>103.8000030517578125</AltitudeMeters>
            <DistanceMeters>NAN</DistanceMeters>
          </Trackpoint>
          <Trackpoint>
            <Time>2022-09-24T15:25:43.000Z</Time>
            <Position>
              <LatitudeDegrees>43.30377562902867794036865234375</LatitudeDegrees>
              <LongitudeDegrees>-2.744631059467792510986328125</LongitudeDegrees>
            </Position>
            <AltitudeMeters>103.8000030517578125</AltitudeMeters>
            <DistanceMeters>NAN</DistanceMeters>
          </Trackpoint>
          <Trackpoint>
            <Time>2022-09-24T15:25:44.000Z</Time>
            <Position>
              <LatitudeDegrees>43.30388325266540050506591796875</LatitudeDegrees>
              <LongitudeDegrees>-2.7446486614644527435302734375</LongitudeDegrees>
            </Position>
            <AltitudeMeters>103.40000152587890625</AltitudeMeters>
            <DistanceMeters>NAN</DistanceMeters>
          </Trackpoint>
          <Trackpoint>
            <Time>2022-09-24T15:25:45.000Z</Time>
            <Position>
              <LatitudeDegrees>43.30398836173117160797119140625</LatitudeDegrees>
              <LongitudeDegrees>-2.7446510083973407745361328125</LongitudeDegrees>
            </Position>
            <AltitudeMeters>103.1999969482421875</AltitudeMeters>
            <DistanceMeters>NAN</DistanceMeters>
          </Trackpoint>
          <Trackpoint>
            <Time>2022-09-24T15:25:46.000Z</Time>
            <Position>
              <LatitudeDegrees>43.30409087240695953369140625</LatitudeDegrees>
              <LongitudeDegrees>-2.74463483132421970367431640625</LongitudeDegrees>
            </Position>
            <AltitudeMeters>102.8000030517578125</AltitudeMeters>
            <DistanceMeters>NAN</DistanceMeters>
          </Trackpoint>
          <Trackpoint>
            <Time>2022-09-24T15:25:47.000Z</Time>
            <Position>
              <LatitudeDegrees>43.30409087240695953369140625</LatitudeDegrees>
              <LongitudeDegrees>-2.74463483132421970367431640625</LongitudeDegrees>
            </Position>
            <AltitudeMeters>102.8000030517578125</AltitudeMeters>
            <DistanceMeters>NAN</DistanceMeters>
          </Trackpoint>
          <Trackpoint>
            <Time>2022-09-24T15:25:48.000Z</Time>
            <Position>
              <LatitudeDegrees>43.30427435226738452911376953125</LatitudeDegrees>
              <LongitudeDegrees>-2.7445453964173793792724609375</LongitudeDegrees>
            </Position>
            <AltitudeMeters>100.8000030517578125</AltitudeMeters>
            <DistanceMeters>NAN</DistanceMeters>
          </Trackpoint>
          <Trackpoint>
            <Time>2022-09-24T15:25:49.000Z</Time>
            <Position>
              <LatitudeDegrees>43.30435213632881641387939453125</LatitudeDegrees>
              <LongitudeDegrees>-2.74447423405945301055908203125</LongitudeDegrees>
            </Position>
            <AltitudeMeters>99.40000152587890625</AltitudeMeters>
            <DistanceMeters>NAN</DistanceMeters>
          </Trackpoint>
          <Trackpoint>
            <Time>2022-09-24T15:25:50.000Z</Time>
            <Position>
              <LatitudeDegrees>43.3044102229177951812744140625</LatitudeDegrees>
              <LongitudeDegrees>-2.74440743029117584228515625</LongitudeDegrees>
            </Position>
            <AltitudeMeters>99.1999969482421875</AltitudeMeters>
            <DistanceMeters>NAN</DistanceMeters>
          </Trackpoint>
          <Trackpoint>
            <Time>2022-09-24T15:25:51.000Z</Time>
            <Position>
              <LatitudeDegrees>43.30448004417121410369873046875</LatitudeDegrees>
              <LongitudeDegrees>-2.74432922713458538055419921875</LongitudeDegrees>
            </Position>
            <AltitudeMeters>98</AltitudeMeters>
            <DistanceMeters>NAN</DistanceMeters>
          </Trackpoint>
          <Trackpoint>
            <Time>2022-09-24T15:25:52.000Z</Time>
            <Position>
              <LatitudeDegrees>43.3045542240142822265625</LatitudeDegrees>
              <LongitudeDegrees>-2.7442538738250732421875</LongitudeDegrees>
            </Position>
            <AltitudeMeters>96.59999847412109375</AltitudeMeters>
            <DistanceMeters>NAN</DistanceMeters>
          </Trackpoint>
          <Trackpoint>
            <Time>2022-09-24T15:25:53.000Z</Time>
            <Position>
              <LatitudeDegrees>43.3046301640570163726806640625</LatitudeDegrees>
              <LongitudeDegrees>-2.7441926859319210052490234375</LongitudeDegrees>
            </Position>
            <AltitudeMeters>96.40000152587890625</AltitudeMeters>
            <DistanceMeters>NAN</DistanceMeters>
          </Trackpoint>
          <Trackpoint>
            <Time>2022-09-24T15:25:54.000Z</Time>
            <Position>
              <LatitudeDegrees>43.3047210238873958587646484375</LatitudeDegrees>
              <LongitudeDegrees>-2.74418673478066921234130859375</LongitudeDegrees>
            </Position>
            <AltitudeMeters>96</AltitudeMeters>
            <DistanceMeters>NAN</DistanceMeters>
          </Trackpoint>
          <Trackpoint>
            <Time>2022-09-24T15:25:55.000Z</Time>
            <Position>
              <LatitudeDegrees>43.30480123870074748992919921875</LatitudeDegrees>
              <LongitudeDegrees>-2.74422445334494113922119140625</LongitudeDegrees>
            </Position>
            <AltitudeMeters>96</AltitudeMeters>
            <DistanceMeters>NAN</DistanceMeters>
          </Trackpoint>
          <Trackpoint>
            <Time>2022-09-24T15:25:56.000Z</Time>
            <Position>
              <LatitudeDegrees>43.3048695512115955352783203125</LatitudeDegrees>
              <LongitudeDegrees>-2.74426904506981372833251953125</LongitudeDegrees>
            </Position>
            <AltitudeMeters>95.8000030517578125</AltitudeMeters>
            <DistanceMeters>NAN</DistanceMeters>
          </Trackpoint>
          <Trackpoint>
            <Time>2022-09-24T15:25:57.000Z</Time>
            <Position>
              <LatitudeDegrees>43.30497792921960353851318359375</LatitudeDegrees>
              <LongitudeDegrees>-2.74432503618299961090087890625</LongitudeDegrees>
            </Position>
            <AltitudeMeters>95.40000152587890625</AltitudeMeters>
            <DistanceMeters>NAN</DistanceMeters>
          </Trackpoint>
          <Trackpoint>
            <Time>2022-09-24T15:25:58.000Z</Time>
            <Position>
              <LatitudeDegrees>43.305071555078029632568359375</LatitudeDegrees>
              <LongitudeDegrees>-2.74434062652289867401123046875</LongitudeDegrees>
            </Position>
            <AltitudeMeters>95.40000152587890625</AltitudeMeters>
            <DistanceMeters>NAN</DistanceMeters>
          </Trackpoint>
          <Trackpoint>
            <Time>2022-09-24T15:25:59.000Z</Time>
            <Position>
              <LatitudeDegrees>43.30516937188804149627685546875</LatitudeDegrees>
              <LongitudeDegrees>-2.74433677084743976593017578125</LongitudeDegrees>
            </Position>
            <AltitudeMeters>94.40000152587890625</AltitudeMeters>
            <DistanceMeters>NAN</DistanceMeters>
          </Trackpoint>
          <Trackpoint>
            <Time>2022-09-24T15:26:00.000Z</Time>
            <Position>
              <LatitudeDegrees>43.305251598358154296875</LatitudeDegrees>
              <LongitudeDegrees>-2.74433635175228118896484375</LongitudeDegrees>
            </Position>
            <AltitudeMeters>94</AltitudeMeters>
            <DistanceMeters>NAN</DistanceMeters>
          </Trackpoint>
          <Trackpoint>
            <Time>2022-09-24T15:26:01.000Z</Time>
            <Position>
              <LatitudeDegrees>43.30535477958619594573974609375</LatitudeDegrees>
              <LongitudeDegrees>-2.74433844722807407379150390625</LongitudeDegrees>
            </Position>
            <AltitudeMeters>93.8000030517578125</AltitudeMeters>
            <DistanceMeters>NAN</DistanceMeters>
          </Trackpoint>
          <Trackpoint>
            <Time>2022-09-24T15:26:02.000Z</Time>
            <Position>
              <LatitudeDegrees>43.3054559491574764251708984375</LatitudeDegrees>
              <LongitudeDegrees>-2.7443375252187252044677734375</LongitudeDegrees>
            </Position>
            <AltitudeMeters>93.59999847412109375</AltitudeMeters>
            <DistanceMeters>NAN</DistanceMeters>
          </Trackpoint>
          <Trackpoint>
            <Time>2022-09-24T15:26:03.000Z</Time>
            <Position>
              <LatitudeDegrees>43.30555276013910770416259765625</LatitudeDegrees>
              <LongitudeDegrees>-2.74434196762740612030029296875</LongitudeDegrees>
            </Position>
            <AltitudeMeters>92.59999847412109375</AltitudeMeters>
            <DistanceMeters>NAN</DistanceMeters>
          </Trackpoint>
          <Trackpoint>
            <Time>2022-09-24T15:26:04.000Z</Time>
            <Position>
              <LatitudeDegrees>43.3056514151394367218017578125</LatitudeDegrees>
              <LongitudeDegrees>-2.744354791939258575439453125</LongitudeDegrees>
            </Position>
            <AltitudeMeters>92.59999847412109375</AltitudeMeters>
            <DistanceMeters>NAN</DistanceMeters>
          </Trackpoint>
          <Trackpoint>
            <Time>2022-09-24T15:26:05.000Z</Time>
            <Position>
              <LatitudeDegrees>43.30577068962156772613525390625</LatitudeDegrees>
              <LongitudeDegrees>-2.74438060820102691650390625</LongitudeDegrees>
            </Position>
            <AltitudeMeters>92.1999969482421875</AltitudeMeters>
            <DistanceMeters>NAN</DistanceMeters>
          </Trackpoint>
          <Trackpoint>
            <Time>2022-09-24T15:26:06.000Z</Time>
            <Position>
              <LatitudeDegrees>43.3058730326592922210693359375</LatitudeDegrees>
              <LongitudeDegrees>-2.74441145360469818115234375</LongitudeDegrees>
            </Position>
            <AltitudeMeters>92.1999969482421875</AltitudeMeters>
            <DistanceMeters>NAN</DistanceMeters>
          </Trackpoint>
          <Trackpoint>
            <Time>2022-09-24T15:26:07.000Z</Time>
            <Position>
              <LatitudeDegrees>43.30597319640219211578369140625</LatitudeDegrees>
              <LongitudeDegrees>-2.744443975389003753662109375</LongitudeDegrees>
            </Position>
            <AltitudeMeters>92.1999969482421875</AltitudeMeters>
            <DistanceMeters>NAN</DistanceMeters>
          </Trackpoint>
          <Trackpoint>
            <Time>2022-09-24T15:26:08.000Z</Time>
            <Position>
              <LatitudeDegrees>43.3060772158205509185791015625</LatitudeDegrees>
              <LongitudeDegrees>-2.744474150240421295166015625</LongitudeDegrees>
            </Position>
            <AltitudeMeters>91.59999847412109375</AltitudeMeters>
            <DistanceMeters>NAN</DistanceMeters>
          </Trackpoint>
          <Trackpoint>
            <Time>2022-09-24T15:26:09.000Z</Time>
            <Position>
              <LatitudeDegrees>43.306180648505687713623046875</LatitudeDegrees>
              <LongitudeDegrees>-2.74449820630252361297607421875</LongitudeDegrees>
            </Position>
            <AltitudeMeters>91.59999847412109375</AltitudeMeters>
            <DistanceMeters>NAN</DistanceMeters>
          </Trackpoint>
          <Trackpoint>
            <Time>2022-09-24T15:26:10.000Z</Time>
            <Position>
              <LatitudeDegrees>43.30628014169633388519287109375</LatitudeDegrees>
              <LongitudeDegrees>-2.744536511600017547607421875</LongitudeDegrees>
            </Position>
            <AltitudeMeters>90.8000030517578125</AltitudeMeters>
            <DistanceMeters>NAN</DistanceMeters>
          </Trackpoint>
          <Trackpoint>
            <Time>2022-09-24T15:26:11.000Z</Time>
            <Position>
              <LatitudeDegrees>43.30635876394808292388916015625</LatitudeDegrees>
              <LongitudeDegrees>-2.74457506835460662841796875</LongitudeDegrees>
            </Position>
            <AltitudeMeters>90.8000030517578125</AltitudeMeters>
            <DistanceMeters>NAN</DistanceMeters>
          </Trackpoint>
          <Trackpoint>
            <Time>2022-09-24T15:26:12.000Z</Time>
            <Position>
              <LatitudeDegrees>43.30647409893572330474853515625</LatitudeDegrees>
              <LongitudeDegrees>-2.74464547634124755859375</LongitudeDegrees>
            </Position>
            <AltitudeMeters>89.8000030517578125</AltitudeMeters>
            <DistanceMeters>NAN</DistanceMeters>
          </Trackpoint>
          <Trackpoint>
            <Time>2022-09-24T15:26:13.000Z</Time>
            <Position>
              <LatitudeDegrees>43.30657183192670345306396484375</LatitudeDegrees>
              <LongitudeDegrees>-2.7447251044213771820068359375</LongitudeDegrees>
            </Position>
            <AltitudeMeters>89</AltitudeMeters>
            <DistanceMeters>NAN</DistanceMeters>
          </Trackpoint>
          <Trackpoint>
            <Time>2022-09-24T15:26:14.000Z</Time>
            <Position>
              <LatitudeDegrees>43.30665640532970428466796875</LatitudeDegrees>
              <LongitudeDegrees>-2.74481520988047122955322265625</LongitudeDegrees>
            </Position>
            <AltitudeMeters>88.8000030517578125</AltitudeMeters>
            <DistanceMeters>NAN</DistanceMeters>
          </Trackpoint>
          <Trackpoint>
            <Time>2022-09-24T15:26:15.000Z</Time>
            <Position>
              <LatitudeDegrees>43.306717760860919952392578125</LatitudeDegrees>
              <LongitudeDegrees>-2.74490959011018276214599609375</LongitudeDegrees>
            </Position>
            <AltitudeMeters>87</AltitudeMeters>
            <DistanceMeters>NAN</DistanceMeters>
          </Trackpoint>
          <Trackpoint>
            <Time>2022-09-24T15:26:16.000Z</Time>
            <Position>
              <LatitudeDegrees>43.30679814331233501434326171875</LatitudeDegrees>
              <LongitudeDegrees>-2.7450610511004924774169921875</LongitudeDegrees>
            </Position>
            <AltitudeMeters>86.59999847412109375</AltitudeMeters>
            <DistanceMeters>NAN</DistanceMeters>
          </Trackpoint>
          <Trackpoint>
            <Time>2022-09-24T15:26:17.000Z</Time>
            <Position>
              <LatitudeDegrees>43.3068647794425487518310546875</LatitudeDegrees>
              <LongitudeDegrees>-2.7451897971332073211669921875</LongitudeDegrees>
            </Position>
            <AltitudeMeters>85.8000030517578125</AltitudeMeters>
            <DistanceMeters>NAN</DistanceMeters>
          </Trackpoint>
          <Trackpoint>
            <Time>2022-09-24T15:26:18.000Z</Time>
            <Position>
              <LatitudeDegrees>43.30693292431533336639404296875</LatitudeDegrees>
              <LongitudeDegrees>-2.7453101612627506256103515625</LongitudeDegrees>
            </Position>
            <AltitudeMeters>85.1999969482421875</AltitudeMeters>
            <DistanceMeters>NAN</DistanceMeters>
          </Trackpoint>
          <Trackpoint>
            <Time>2022-09-24T15:26:19.000Z</Time>
            <Position>
              <LatitudeDegrees>43.30698505975306034088134765625</LatitudeDegrees>
              <LongitudeDegrees>-2.74542340077459812164306640625</LongitudeDegrees>
            </Position>
            <AltitudeMeters>84.8000030517578125</AltitudeMeters>
            <DistanceMeters>NAN</DistanceMeters>
          </Trackpoint>
          <Trackpoint>
            <Time>2022-09-24T15:26:20.000Z</Time>
            <Position>
              <LatitudeDegrees>43.3070418052375316619873046875</LatitudeDegrees>
              <LongitudeDegrees>-2.74551560170948505401611328125</LongitudeDegrees>
            </Position>
            <AltitudeMeters>83.59999847412109375</AltitudeMeters>
            <DistanceMeters>NAN</DistanceMeters>
          </Trackpoint>
          <Trackpoint>
            <Time>2022-09-24T15:26:21.000Z</Time>
            <Position>
              <LatitudeDegrees>43.3071068488061428070068359375</LatitudeDegrees>
              <LongitudeDegrees>-2.74559824727475643157958984375</LongitudeDegrees>
            </Position>
            <AltitudeMeters>83.1999969482421875</AltitudeMeters>
            <DistanceMeters>NAN</DistanceMeters>
          </Trackpoint>
          <Trackpoint>
            <Time>2022-09-24T15:26:22.000Z</Time>
            <Position>
              <LatitudeDegrees>43.3071812801063060760498046875</LatitudeDegrees>
              <LongitudeDegrees>-2.74570352397859096527099609375</LongitudeDegrees>
            </Position>
            <AltitudeMeters>83</AltitudeMeters>
            <DistanceMeters>NAN</DistanceMeters>
          </Trackpoint>
          <Trackpoint>
            <Time>2022-09-24T15:26:23.000Z</Time>
            <Position>
              <LatitudeDegrees>43.30724674277007579803466796875</LatitudeDegrees>
              <LongitudeDegrees>-2.7457651309669017791748046875</LongitudeDegrees>
            </Position>
            <AltitudeMeters>82.8000030517578125</AltitudeMeters>
            <DistanceMeters>NAN</DistanceMeters>
          </Trackpoint>
          <Trackpoint>
            <Time>2022-09-24T15:26:24.000Z</Time>
            <Position>
              <LatitudeDegrees>43.3073378540575504302978515625</LatitudeDegrees>
              <LongitudeDegrees>-2.7458221279084682464599609375</LongitudeDegrees>
            </Position>
            <AltitudeMeters>82.59999847412109375</AltitudeMeters>
            <DistanceMeters>NAN</DistanceMeters>
          </Trackpoint>
          <Trackpoint>
            <Time>2022-09-24T15:26:25.000Z</Time>
            <Position>
              <LatitudeDegrees>43.30743198283016681671142578125</LatitudeDegrees>
              <LongitudeDegrees>-2.745848782360553741455078125</LongitudeDegrees>
            </Position>
            <AltitudeMeters>82.40000152587890625</AltitudeMeters>
            <DistanceMeters>NAN</DistanceMeters>
          </Trackpoint>
          <Trackpoint>
            <Time>2022-09-24T15:26:26.000Z</Time>
            <Position>
              <LatitudeDegrees>43.30753005109727382659912109375</LatitudeDegrees>
              <LongitudeDegrees>-2.7458543144166469573974609375</LongitudeDegrees>
            </Position>
            <AltitudeMeters>81</AltitudeMeters>
            <DistanceMeters>NAN</DistanceMeters>
          </Trackpoint>
          <Trackpoint>
            <Time>2022-09-24T15:26:27.000Z</Time>
            <Position>
              <LatitudeDegrees>43.3076315559446811676025390625</LatitudeDegrees>
              <LongitudeDegrees>-2.74583972990512847900390625</LongitudeDegrees>
            </Position>
            <AltitudeMeters>80.8000030517578125</AltitudeMeters>
            <DistanceMeters>NAN</DistanceMeters>
          </Trackpoint>
          <Trackpoint>
            <Time>2022-09-24T15:26:28.000Z</Time>
            <Position>
              <LatitudeDegrees>43.3077341504395008087158203125</LatitudeDegrees>
              <LongitudeDegrees>-2.745813243091106414794921875</LongitudeDegrees>
            </Position>
            <AltitudeMeters>80</AltitudeMeters>
            <DistanceMeters>NAN</DistanceMeters>
          </Trackpoint>
          <Trackpoint>
            <Time>2022-09-24T15:26:29.000Z</Time>
            <Position>
              <LatitudeDegrees>43.3078364096581935882568359375</LatitudeDegrees>
              <LongitudeDegrees>-2.7457906119525432586669921875</LongitudeDegrees>
            </Position>
            <AltitudeMeters>79.40000152587890625</AltitudeMeters>
            <DistanceMeters>NAN</DistanceMeters>
          </Trackpoint>
          <Trackpoint>
            <Time>2022-09-24T15:26:30.000Z</Time>
            <Position>
              <LatitudeDegrees>43.30793808214366436004638671875</LatitudeDegrees>
              <LongitudeDegrees>-2.74577141739428043365478515625</LongitudeDegrees>
            </Position>
            <AltitudeMeters>79.40000152587890625</AltitudeMeters>
            <DistanceMeters>NAN</DistanceMeters>
          </Trackpoint>
          <Trackpoint>
            <Time>2022-09-24T15:26:31.000Z</Time>
            <Position>
              <LatitudeDegrees>43.30793808214366436004638671875</LatitudeDegrees>
              <LongitudeDegrees>-2.74577141739428043365478515625</LongitudeDegrees>
            </Position>
            <AltitudeMeters>78.40000152587890625</AltitudeMeters>
            <DistanceMeters>NAN</DistanceMeters>
          </Trackpoint>
          <Trackpoint>
            <Time>2022-09-24T15:26:32.000Z</Time>
            <Position>
              <LatitudeDegrees>43.30814712680876255035400390625</LatitudeDegrees>
              <LongitudeDegrees>-2.74575230665504932403564453125</LongitudeDegrees>
            </Position>
            <AltitudeMeters>78.40000152587890625</AltitudeMeters>
            <DistanceMeters>NAN</DistanceMeters>
          </Trackpoint>
          <Trackpoint>
            <Time>2022-09-24T15:26:33.000Z</Time>
            <Position>
              <LatitudeDegrees>43.30825491808354854583740234375</LatitudeDegrees>
              <LongitudeDegrees>-2.74576060473918914794921875</LongitudeDegrees>
            </Position>
            <AltitudeMeters>78.1999969482421875</AltitudeMeters>
            <DistanceMeters>NAN</DistanceMeters>
          </Trackpoint>
          <Trackpoint>
            <Time>2022-09-24T15:26:34.000Z</Time>
            <Position>
              <LatitudeDegrees>43.3083627931773662567138671875</LatitudeDegrees>
              <LongitudeDegrees>-2.74578650481998920440673828125</LongitudeDegrees>
            </Position>
            <AltitudeMeters>77.1999969482421875</AltitudeMeters>
            <DistanceMeters>NAN</DistanceMeters>
          </Trackpoint>
          <Trackpoint>
            <Time>2022-09-24T15:26:35.000Z</Time>
            <Position>
              <LatitudeDegrees>43.30847217701375484466552734375</LatitudeDegrees>
              <LongitudeDegrees>-2.74582254700362682342529296875</LongitudeDegrees>
            </Position>
            <AltitudeMeters>75.40000152587890625</AltitudeMeters>
            <DistanceMeters>NAN</DistanceMeters>
          </Trackpoint>
          <Trackpoint>
            <Time>2022-09-24T15:26:36.000Z</Time>
            <Position>
              <LatitudeDegrees>43.3085797168314456939697265625</LatitudeDegrees>
              <LongitudeDegrees>-2.745875604450702667236328125</LongitudeDegrees>
            </Position>
            <AltitudeMeters>74</AltitudeMeters>
            <DistanceMeters>NAN</DistanceMeters>
          </Trackpoint>
          <Trackpoint>
            <Time>2022-09-24T15:26:37.000Z</Time>
            <Position>
              <LatitudeDegrees>43.3086873404681682586669921875</LatitudeDegrees>
              <LongitudeDegrees>-2.74594089947640895843505859375</LongitudeDegrees>
            </Position>
            <AltitudeMeters>73.8000030517578125</AltitudeMeters>
            <DistanceMeters>NAN</DistanceMeters>
          </Trackpoint>
          <Trackpoint>
            <Time>2022-09-24T15:26:38.000Z</Time>
            <Position>
              <LatitudeDegrees>43.30879705958068370819091796875</LatitudeDegrees>
              <LongitudeDegrees>-2.74601248092949390411376953125</LongitudeDegrees>
            </Position>
            <AltitudeMeters>72</AltitudeMeters>
            <DistanceMeters>NAN</DistanceMeters>
          </Trackpoint>
          <Trackpoint>
            <Time>2022-09-24T15:26:39.000Z</Time>
            <Position>
              <LatitudeDegrees>43.30890267156064510345458984375</LatitudeDegrees>
              <LongitudeDegrees>-2.746091187000274658203125</LongitudeDegrees>
            </Position>
            <AltitudeMeters>71.8000030517578125</AltitudeMeters>
            <DistanceMeters>NAN</DistanceMeters>
          </Trackpoint>
          <Trackpoint>
            <Time>2022-09-24T15:26:40.000Z</Time>
            <Position>
              <LatitudeDegrees>43.309000320732593536376953125</LatitudeDegrees>
              <LongitudeDegrees>-2.74618045426905155181884765625</LongitudeDegrees>
            </Position>
            <AltitudeMeters>71.1999969482421875</AltitudeMeters>
            <DistanceMeters>NAN</DistanceMeters>
          </Trackpoint>
          <Trackpoint>
            <Time>2022-09-24T15:26:41.000Z</Time>
            <Position>
              <LatitudeDegrees>43.30908992327749729156494140625</LatitudeDegrees>
              <LongitudeDegrees>-2.74629025720059871673583984375</LongitudeDegrees>
            </Position>
            <AltitudeMeters>71.1999969482421875</AltitudeMeters>
            <DistanceMeters>NAN</DistanceMeters>
          </Trackpoint>
          <Trackpoint>
            <Time>2022-09-24T15:26:42.000Z</Time>
            <Position>
              <LatitudeDegrees>43.3091674558818340301513671875</LatitudeDegrees>
              <LongitudeDegrees>-2.7464038319885730743408203125</LongitudeDegrees>
            </Position>
            <AltitudeMeters>71</AltitudeMeters>
            <DistanceMeters>NAN</DistanceMeters>
          </Trackpoint>
          <Trackpoint>
            <Time>2022-09-24T15:26:43.000Z</Time>
            <Position>
              <LatitudeDegrees>43.30923392437398433685302734375</LatitudeDegrees>
              <LongitudeDegrees>-2.74651656858623027801513671875</LongitudeDegrees>
            </Position>
            <AltitudeMeters>70.59999847412109375</AltitudeMeters>
            <DistanceMeters>NAN</DistanceMeters>
          </Trackpoint>
          <Trackpoint>
            <Time>2022-09-24T15:26:44.000Z</Time>
            <Position>
              <LatitudeDegrees>43.30929863266646862030029296875</LatitudeDegrees>
              <LongitudeDegrees>-2.74662586860358715057373046875</LongitudeDegrees>
            </Position>
            <AltitudeMeters>70</AltitudeMeters>
            <DistanceMeters>NAN</DistanceMeters>
          </Trackpoint>
          <Trackpoint>
            <Time>2022-09-24T15:26:45.000Z</Time>
            <Position>
              <LatitudeDegrees>43.30936803482472896575927734375</LatitudeDegrees>
              <LongitudeDegrees>-2.746725864708423614501953125</LongitudeDegrees>
            </Position>
            <AltitudeMeters>69.59999847412109375</AltitudeMeters>
            <DistanceMeters>NAN</DistanceMeters>
          </Trackpoint>
          <Trackpoint>
            <Time>2022-09-24T15:26:46.000Z</Time>
            <Position>
              <LatitudeDegrees>43.30944196321070194244384765625</LatitudeDegrees>
              <LongitudeDegrees>-2.746817730367183685302734375</LongitudeDegrees>
            </Position>
            <AltitudeMeters>68.59999847412109375</AltitudeMeters>
            <DistanceMeters>NAN</DistanceMeters>
          </Trackpoint>
          <Trackpoint>
            <Time>2022-09-24T15:26:47.000Z</Time>
            <Position>
              <LatitudeDegrees>43.30952444113790988922119140625</LatitudeDegrees>
              <LongitudeDegrees>-2.74690045975148677825927734375</LongitudeDegrees>
            </Position>
            <AltitudeMeters>68.1999969482421875</AltitudeMeters>
            <DistanceMeters>NAN</DistanceMeters>
          </Trackpoint>
          <Trackpoint>
            <Time>2022-09-24T15:26:48.000Z</Time>
            <Position>
              <LatitudeDegrees>43.3096110261976718902587890625</LatitudeDegrees>
              <LongitudeDegrees>-2.74697070010006427764892578125</LongitudeDegrees>
            </Position>
            <AltitudeMeters>67.1999969482421875</AltitudeMeters>
            <DistanceMeters>NAN</DistanceMeters>
          </Trackpoint>
          <Trackpoint>
            <Time>2022-09-24T15:26:49.000Z</Time>
            <Position>
              <LatitudeDegrees>43.30969291739165782928466796875</LatitudeDegrees>
              <LongitudeDegrees>-2.747035324573516845703125</LongitudeDegrees>
            </Position>
            <AltitudeMeters>66.1999969482421875</AltitudeMeters>
            <DistanceMeters>NAN</DistanceMeters>
          </Trackpoint>
          <Trackpoint>
            <Time>2022-09-24T15:26:50.000Z</Time>
            <Position>
              <LatitudeDegrees>43.3097778260707855224609375</LatitudeDegrees>
              <LongitudeDegrees>-2.747093327343463897705078125</LongitudeDegrees>
            </Position>
            <AltitudeMeters>66.1999969482421875</AltitudeMeters>
            <DistanceMeters>NAN</DistanceMeters>
          </Trackpoint>
          <Trackpoint>
            <Time>2022-09-24T15:26:51.000Z</Time>
            <Position>
              <LatitudeDegrees>43.30986944027245044708251953125</LatitudeDegrees>
              <LongitudeDegrees>-2.747138254344463348388671875</LongitudeDegrees>
            </Position>
            <AltitudeMeters>66.1999969482421875</AltitudeMeters>
            <DistanceMeters>NAN</DistanceMeters>
          </Trackpoint>
          <Trackpoint>
            <Time>2022-09-24T15:26:52.000Z</Time>
            <Position>
              <LatitudeDegrees>43.30994202755391597747802734375</LatitudeDegrees>
              <LongitudeDegrees>-2.74717488326132297515869140625</LongitudeDegrees>
            </Position>
            <AltitudeMeters>65.40000152587890625</AltitudeMeters>
            <DistanceMeters>NAN</DistanceMeters>
          </Trackpoint>
          <Trackpoint>
            <Time>2022-09-24T15:26:53.000Z</Time>
            <Position>
              <LatitudeDegrees>43.31003875471651554107666015625</LatitudeDegrees>
              <LongitudeDegrees>-2.7472064830362796783447265625</LongitudeDegrees>
            </Position>
            <AltitudeMeters>64.40000152587890625</AltitudeMeters>
            <DistanceMeters>NAN</DistanceMeters>
          </Trackpoint>
          <Trackpoint>
            <Time>2022-09-24T15:26:54.000Z</Time>
            <Position>
              <LatitudeDegrees>43.31013799645006656646728515625</LatitudeDegrees>
              <LongitudeDegrees>-2.74723338894546031951904296875</LongitudeDegrees>
            </Position>
            <AltitudeMeters>64.1999969482421875</AltitudeMeters>
            <DistanceMeters>NAN</DistanceMeters>
          </Trackpoint>
          <Trackpoint>
            <Time>2022-09-24T15:26:55.000Z</Time>
            <Position>
              <LatitudeDegrees>43.31024226732552051544189453125</LatitudeDegrees>
              <LongitudeDegrees>-2.7472540922462940216064453125</LongitudeDegrees>
            </Position>
            <AltitudeMeters>64</AltitudeMeters>
            <DistanceMeters>NAN</DistanceMeters>
          </Trackpoint>
          <Trackpoint>
            <Time>2022-09-24T15:26:56.000Z</Time>
            <Position>
              <LatitudeDegrees>43.31034821458160877227783203125</LatitudeDegrees>
              <LongitudeDegrees>-2.74727630428969860076904296875</LongitudeDegrees>
            </Position>
            <AltitudeMeters>63.40000152587890625</AltitudeMeters>
            <DistanceMeters>NAN</DistanceMeters>
          </Trackpoint>
          <Trackpoint>
            <Time>2022-09-24T15:26:57.000Z</Time>
            <Position>
              <LatitudeDegrees>43.310456760227680206298828125</LatitudeDegrees>
              <LongitudeDegrees>-2.7473027072846889495849609375</LongitudeDegrees>
            </Position>
            <AltitudeMeters>61.799999237060546875</AltitudeMeters>
            <DistanceMeters>NAN</DistanceMeters>
          </Trackpoint>
          <Trackpoint>
            <Time>2022-09-24T15:26:58.000Z</Time>
            <Position>
              <LatitudeDegrees>43.31056849099695682525634765625</LatitudeDegrees>
              <LongitudeDegrees>-2.74732835590839385986328125</LongitudeDegrees>
            </Position>
            <AltitudeMeters>61</AltitudeMeters>
            <DistanceMeters>NAN</DistanceMeters>
          </Trackpoint>
          <Trackpoint>
            <Time>2022-09-24T15:26:59.000Z</Time>
            <Position>
              <LatitudeDegrees>43.310683071613311767578125</LatitudeDegrees>
              <LongitudeDegrees>-2.74734713137149810791015625</LongitudeDegrees>
            </Position>
            <AltitudeMeters>60</AltitudeMeters>
            <DistanceMeters>NAN</DistanceMeters>
          </Trackpoint>
          <Trackpoint>
            <Time>2022-09-24T15:27:00.000Z</Time>
            <Position>
              <LatitudeDegrees>43.3107970654964447021484375</LatitudeDegrees>
              <LongitudeDegrees>-2.7473585307598114013671875</LongitudeDegrees>
            </Position>
            <AltitudeMeters>59.799999237060546875</AltitudeMeters>
            <DistanceMeters>NAN</DistanceMeters>
          </Trackpoint>
          <Trackpoint>
            <Time>2022-09-24T15:27:01.000Z</Time>
            <Position>
              <LatitudeDegrees>43.31090527586638927459716796875</LatitudeDegrees>
              <LongitudeDegrees>-2.74736599065363407135009765625</LongitudeDegrees>
            </Position>
            <AltitudeMeters>58.59999847412109375</AltitudeMeters>
            <DistanceMeters>NAN</DistanceMeters>
          </Trackpoint>
          <Trackpoint>
            <Time>2022-09-24T15:27:02.000Z</Time>
            <Position>
              <LatitudeDegrees>43.31102949567139148712158203125</LatitudeDegrees>
              <LongitudeDegrees>-2.74736247025430202484130859375</LongitudeDegrees>
            </Position>
            <AltitudeMeters>58.200000762939453125</AltitudeMeters>
            <DistanceMeters>NAN</DistanceMeters>
          </Trackpoint>
          <Trackpoint>
            <Time>2022-09-24T15:27:03.000Z</Time>
            <Position>
              <LatitudeDegrees>43.31113276071846485137939453125</LatitudeDegrees>
              <LongitudeDegrees>-2.74734620936214923858642578125</LongitudeDegrees>
            </Position>
            <AltitudeMeters>57.40000152587890625</AltitudeMeters>
            <DistanceMeters>NAN</DistanceMeters>
          </Trackpoint>
          <Trackpoint>
            <Time>2022-09-24T15:27:04.000Z</Time>
            <Position>
              <LatitudeDegrees>43.31123569048941135406494140625</LatitudeDegrees>
              <LongitudeDegrees>-2.74731351993978023529052734375</LongitudeDegrees>
            </Position>
            <AltitudeMeters>56.40000152587890625</AltitudeMeters>
            <DistanceMeters>NAN</DistanceMeters>
          </Trackpoint>
          <Trackpoint>
            <Time>2022-09-24T15:27:05.000Z</Time>
            <Position>
              <LatitudeDegrees>43.31133794970810413360595703125</LatitudeDegrees>
              <LongitudeDegrees>-2.747269682586193084716796875</LongitudeDegrees>
            </Position>
            <AltitudeMeters>55.799999237060546875</AltitudeMeters>
            <DistanceMeters>NAN</DistanceMeters>
          </Trackpoint>
          <Trackpoint>
            <Time>2022-09-24T15:27:06.000Z</Time>
            <Position>
              <LatitudeDegrees>43.3114407956600189208984375</LatitudeDegrees>
              <LongitudeDegrees>-2.7472205646336078643798828125</LongitudeDegrees>
            </Position>
            <AltitudeMeters>55.200000762939453125</AltitudeMeters>
            <DistanceMeters>NAN</DistanceMeters>
          </Trackpoint>
          <Trackpoint>
            <Time>2022-09-24T15:27:07.000Z</Time>
            <Position>
              <LatitudeDegrees>43.3115454018115997314453125</LatitudeDegrees>
              <LongitudeDegrees>-2.74716633372008800506591796875</LongitudeDegrees>
            </Position>
            <AltitudeMeters>55</AltitudeMeters>
            <DistanceMeters>NAN</DistanceMeters>
          </Trackpoint>
          <Trackpoint>
            <Time>2022-09-24T15:27:08.000Z</Time>
            <Position>
              <LatitudeDegrees>43.31165227107703685760498046875</LatitudeDegrees>
              <LongitudeDegrees>-2.74711252190172672271728515625</LongitudeDegrees>
            </Position>
            <AltitudeMeters>53.40000152587890625</AltitudeMeters>
            <DistanceMeters>NAN</DistanceMeters>
          </Trackpoint>
          <Trackpoint>
            <Time>2022-09-24T15:27:09.000Z</Time>
            <Position>
              <LatitudeDegrees>43.3117611519992351531982421875</LatitudeDegrees>
              <LongitudeDegrees>-2.7470676787197589874267578125</LongitudeDegrees>
            </Position>
            <AltitudeMeters>51.799999237060546875</AltitudeMeters>
            <DistanceMeters>NAN</DistanceMeters>
          </Trackpoint>
          <Trackpoint>
            <Time>2022-09-24T15:27:10.000Z</Time>
            <Position>
              <LatitudeDegrees>43.31185243092477321624755859375</LatitudeDegrees>
              <LongitudeDegrees>-2.7470366656780242919921875</LongitudeDegrees>
            </Position>
            <AltitudeMeters>51.40000152587890625</AltitudeMeters>
            <DistanceMeters>NAN</DistanceMeters>
          </Trackpoint>
          <Trackpoint>
            <Time>2022-09-24T15:27:11.000Z</Time>
            <Position>
              <LatitudeDegrees>43.31199224106967449188232421875</LatitudeDegrees>
              <LongitudeDegrees>-2.74699869565665721893310546875</LongitudeDegrees>
            </Position>
            <AltitudeMeters>50.200000762939453125</AltitudeMeters>
            <DistanceMeters>NAN</DistanceMeters>
          </Trackpoint>
          <Trackpoint>
            <Time>2022-09-24T15:27:12.000Z</Time>
            <Position>
              <LatitudeDegrees>43.31210908479988574981689453125</LatitudeDegrees>
              <LongitudeDegrees>-2.7469694428145885467529296875</LongitudeDegrees>
            </Position>
            <AltitudeMeters>50.200000762939453125</AltitudeMeters>
            <DistanceMeters>NAN</DistanceMeters>
          </Trackpoint>
          <Trackpoint>
            <Time>2022-09-24T15:27:13.000Z</Time>
            <Position>
              <LatitudeDegrees>43.31222710199654102325439453125</LatitudeDegrees>
              <LongitudeDegrees>-2.7469429560005664825439453125</LongitudeDegrees>
            </Position>
            <AltitudeMeters>50</AltitudeMeters>
            <DistanceMeters>NAN</DistanceMeters>
          </Trackpoint>
          <Trackpoint>
            <Time>2022-09-24T15:27:14.000Z</Time>
            <Position>
              <LatitudeDegrees>43.3123478852212429046630859375</LatitudeDegrees>
              <LongitudeDegrees>-2.74691521190106868743896484375</LongitudeDegrees>
            </Position>
            <AltitudeMeters>49.799999237060546875</AltitudeMeters>
            <DistanceMeters>NAN</DistanceMeters>
          </Trackpoint>
          <Trackpoint>
            <Time>2022-09-24T15:27:15.000Z</Time>
            <Position>
              <LatitudeDegrees>43.3124702610075473785400390625</LatitudeDegrees>
              <LongitudeDegrees>-2.7468832768499851226806640625</LongitudeDegrees>
            </Position>
            <AltitudeMeters>48.40000152587890625</AltitudeMeters>
            <DistanceMeters>NAN</DistanceMeters>
          </Trackpoint>
          <Trackpoint>
            <Time>2022-09-24T15:27:16.000Z</Time>
            <Position>
              <LatitudeDegrees>43.3125976659357547760009765625</LatitudeDegrees>
              <LongitudeDegrees>-2.74686341173946857452392578125</LongitudeDegrees>
            </Position>
            <AltitudeMeters>47.799999237060546875</AltitudeMeters>
            <DistanceMeters>NAN</DistanceMeters>
          </Trackpoint>
          <Trackpoint>
            <Time>2022-09-24T15:27:17.000Z</Time>
            <Position>
              <LatitudeDegrees>43.31272515468299388885498046875</LatitudeDegrees>
              <LongitudeDegrees>-2.74684463627636432647705078125</LongitudeDegrees>
            </Position>
            <AltitudeMeters>46.59999847412109375</AltitudeMeters>
            <DistanceMeters>NAN</DistanceMeters>
          </Trackpoint>
          <Trackpoint>
            <Time>2022-09-24T15:27:18.000Z</Time>
            <Position>
              <LatitudeDegrees>43.3128514699637889862060546875</LatitudeDegrees>
              <LongitudeDegrees>-2.74682686664164066314697265625</LongitudeDegrees>
            </Position>
            <AltitudeMeters>46.200000762939453125</AltitudeMeters>
            <DistanceMeters>NAN</DistanceMeters>
          </Trackpoint>
          <Trackpoint>
            <Time>2022-09-24T15:27:19.000Z</Time>
            <Position>
              <LatitudeDegrees>43.3130087144672870635986328125</LatitudeDegrees>
              <LongitudeDegrees>-2.74680909700691699981689453125</LongitudeDegrees>
            </Position>
            <AltitudeMeters>46.200000762939453125</AltitudeMeters>
            <DistanceMeters>NAN</DistanceMeters>
          </Trackpoint>
          <Trackpoint>
            <Time>2022-09-24T15:27:20.000Z</Time>
            <Position>
              <LatitudeDegrees>43.31311390735208988189697265625</LatitudeDegrees>
              <LongitudeDegrees>-2.7467977814376354217529296875</LongitudeDegrees>
            </Position>
            <AltitudeMeters>46</AltitudeMeters>
            <DistanceMeters>NAN</DistanceMeters>
          </Trackpoint>
          <Trackpoint>
            <Time>2022-09-24T15:27:21.000Z</Time>
            <Position>
              <LatitudeDegrees>43.31311390735208988189697265625</LatitudeDegrees>
              <LongitudeDegrees>-2.7467977814376354217529296875</LongitudeDegrees>
            </Position>
            <AltitudeMeters>44.799999237060546875</AltitudeMeters>
            <DistanceMeters>NAN</DistanceMeters>
          </Trackpoint>
          <Trackpoint>
            <Time>2022-09-24T15:27:22.000Z</Time>
            <Position>
              <LatitudeDegrees>43.31337257288396358489990234375</LatitudeDegrees>
              <LongitudeDegrees>-2.7467598952353000640869140625</LongitudeDegrees>
            </Position>
            <AltitudeMeters>44.799999237060546875</AltitudeMeters>
            <DistanceMeters>NAN</DistanceMeters>
          </Trackpoint>
          <Trackpoint>
            <Time>2022-09-24T15:27:23.000Z</Time>
            <Position>
              <LatitudeDegrees>43.31349603831768035888671875</LatitudeDegrees>
              <LongitudeDegrees>-2.7467414550483226776123046875</LongitudeDegrees>
            </Position>
            <AltitudeMeters>44.200000762939453125</AltitudeMeters>
            <DistanceMeters>NAN</DistanceMeters>
          </Trackpoint>
          <Trackpoint>
            <Time>2022-09-24T15:27:24.000Z</Time>
            <Position>
              <LatitudeDegrees>43.3136158995330333709716796875</LatitudeDegrees>
              <LongitudeDegrees>-2.7467313967645168304443359375</LongitudeDegrees>
            </Position>
            <AltitudeMeters>43.59999847412109375</AltitudeMeters>
            <DistanceMeters>NAN</DistanceMeters>
          </Trackpoint>
          <Trackpoint>
            <Time>2022-09-24T15:27:25.000Z</Time>
            <Position>
              <LatitudeDegrees>43.31373584456741809844970703125</LatitudeDegrees>
              <LongitudeDegrees>-2.74671756662428379058837890625</LongitudeDegrees>
            </Position>
            <AltitudeMeters>43.40000152587890625</AltitudeMeters>
            <DistanceMeters>NAN</DistanceMeters>
          </Trackpoint>
          <Trackpoint>
            <Time>2022-09-24T15:27:26.000Z</Time>
            <Position>
              <LatitudeDegrees>43.3138547837734222412109375</LatitudeDegrees>
              <LongitudeDegrees>-2.74669745005667209625244140625</LongitudeDegrees>
            </Position>
            <AltitudeMeters>43.200000762939453125</AltitudeMeters>
            <DistanceMeters>NAN</DistanceMeters>
          </Trackpoint>
          <Trackpoint>
            <Time>2022-09-24T15:27:27.000Z</Time>
            <Position>
              <LatitudeDegrees>43.31397104077041149139404296875</LatitudeDegrees>
              <LongitudeDegrees>-2.7466723881661891937255859375</LongitudeDegrees>
            </Position>
            <AltitudeMeters>43.200000762939453125</AltitudeMeters>
            <DistanceMeters>NAN</DistanceMeters>
          </Trackpoint>
          <Trackpoint>
            <Time>2022-09-24T15:27:28.000Z</Time>
            <Position>
              <LatitudeDegrees>43.31408687867224216461181640625</LatitudeDegrees>
              <LongitudeDegrees>-2.7466432191431522369384765625</LongitudeDegrees>
            </Position>
            <AltitudeMeters>43.200000762939453125</AltitudeMeters>
            <DistanceMeters>NAN</DistanceMeters>
          </Trackpoint>
          <Trackpoint>
            <Time>2022-09-24T15:27:29.000Z</Time>
            <Position>
              <LatitudeDegrees>43.3141999505460262298583984375</LatitudeDegrees>
              <LongitudeDegrees>-2.746608518064022064208984375</LongitudeDegrees>
            </Position>
            <AltitudeMeters>42.59999847412109375</AltitudeMeters>
            <DistanceMeters>NAN</DistanceMeters>
          </Trackpoint>
          <Trackpoint>
            <Time>2022-09-24T15:27:30.000Z</Time>
            <Position>
              <LatitudeDegrees>43.31430983729660511016845703125</LatitudeDegrees>
              <LongitudeDegrees>-2.7465734817087650299072265625</LongitudeDegrees>
            </Position>
            <AltitudeMeters>42.59999847412109375</AltitudeMeters>
            <DistanceMeters>NAN</DistanceMeters>
          </Trackpoint>
          <Trackpoint>
            <Time>2022-09-24T15:27:31.000Z</Time>
            <Position>
              <LatitudeDegrees>43.31441712565720081329345703125</LatitudeDegrees>
              <LongitudeDegrees>-2.74654322303831577301025390625</LongitudeDegrees>
            </Position>
            <AltitudeMeters>43</AltitudeMeters>
            <DistanceMeters>NAN</DistanceMeters>
          </Trackpoint>
          <Trackpoint>
            <Time>2022-09-24T15:27:32.000Z</Time>
            <Position>
              <LatitudeDegrees>43.314520977437496185302734375</LatitudeDegrees>
              <LongitudeDegrees>-2.74651824496686458587646484375</LongitudeDegrees>
            </Position>
            <AltitudeMeters>42.59999847412109375</AltitudeMeters>
            <DistanceMeters>NAN</DistanceMeters>
          </Trackpoint>
          <Trackpoint>
            <Time>2022-09-24T15:27:33.000Z</Time>
            <Position>
              <LatitudeDegrees>43.3146240748465061187744140625</LatitudeDegrees>
              <LongitudeDegrees>-2.74649209342896938323974609375</LongitudeDegrees>
            </Position>
            <AltitudeMeters>42.59999847412109375</AltitudeMeters>
            <DistanceMeters>NAN</DistanceMeters>
          </Trackpoint>
          <Trackpoint>
            <Time>2022-09-24T15:27:34.000Z</Time>
            <Position>
              <LatitudeDegrees>43.3146240748465061187744140625</LatitudeDegrees>
              <LongitudeDegrees>-2.74649209342896938323974609375</LongitudeDegrees>
            </Position>
            <AltitudeMeters>42.40000152587890625</AltitudeMeters>
            <DistanceMeters>NAN</DistanceMeters>
          </Trackpoint>
          <Trackpoint>
            <Time>2022-09-24T15:27:35.000Z</Time>
            <Position>
              <LatitudeDegrees>43.31483320333063602447509765625</LatitudeDegrees>
              <LongitudeDegrees>-2.74643559940159320831298828125</LongitudeDegrees>
            </Position>
            <AltitudeMeters>42.200000762939453125</AltitudeMeters>
            <DistanceMeters>NAN</DistanceMeters>
          </Trackpoint>
          <Trackpoint>
            <Time>2022-09-24T15:27:36.000Z</Time>
            <Position>
              <LatitudeDegrees>43.314936049282550811767578125</LatitudeDegrees>
              <LongitudeDegrees>-2.74640760384500026702880859375</LongitudeDegrees>
            </Position>
            <AltitudeMeters>42.200000762939453125</AltitudeMeters>
            <DistanceMeters>NAN</DistanceMeters>
          </Trackpoint>
          <Trackpoint>
            <Time>2022-09-24T15:27:37.000Z</Time>
            <Position>
              <LatitudeDegrees>43.315038979053497314453125</LatitudeDegrees>
              <LongitudeDegrees>-2.74637793190777301788330078125</LongitudeDegrees>
            </Position>
            <AltitudeMeters>42.200000762939453125</AltitudeMeters>
            <DistanceMeters>NAN</DistanceMeters>
          </Trackpoint>
          <Trackpoint>
            <Time>2022-09-24T15:27:38.000Z</Time>
            <Position>
              <LatitudeDegrees>43.31514014862477779388427734375</LatitudeDegrees>
              <LongitudeDegrees>-2.7463508583605289459228515625</LongitudeDegrees>
            </Position>
            <AltitudeMeters>41.799999237060546875</AltitudeMeters>
            <DistanceMeters>NAN</DistanceMeters>
          </Trackpoint>
          <Trackpoint>
            <Time>2022-09-24T15:27:39.000Z</Time>
            <Position>
              <LatitudeDegrees>43.31524215638637542724609375</LatitudeDegrees>
              <LongitudeDegrees>-2.746326886117458343505859375</LongitudeDegrees>
            </Position>
            <AltitudeMeters>41.799999237060546875</AltitudeMeters>
            <DistanceMeters>NAN</DistanceMeters>
          </Trackpoint>
          <Trackpoint>
            <Time>2022-09-24T15:27:40.000Z</Time>
            <Position>
              <LatitudeDegrees>43.31534131430089473724365234375</LatitudeDegrees>
              <LongitudeDegrees>-2.74629930965602397918701171875</LongitudeDegrees>
            </Position>
            <AltitudeMeters>41.799999237060546875</AltitudeMeters>
            <DistanceMeters>NAN</DistanceMeters>
          </Trackpoint>
          <Trackpoint>
            <Time>2022-09-24T15:27:41.000Z</Time>
            <Position>
              <LatitudeDegrees>43.3154401369392871856689453125</LatitudeDegrees>
              <LongitudeDegrees>-2.74626745842397212982177734375</LongitudeDegrees>
            </Position>
            <AltitudeMeters>41.799999237060546875</AltitudeMeters>
            <DistanceMeters>NAN</DistanceMeters>
          </Trackpoint>
          <Trackpoint>
            <Time>2022-09-24T15:27:42.000Z</Time>
            <Position>
              <LatitudeDegrees>43.31553745083510875701904296875</LatitudeDegrees>
              <LongitudeDegrees>-2.7462361939251422882080078125</LongitudeDegrees>
            </Position>
            <AltitudeMeters>40.59999847412109375</AltitudeMeters>
            <DistanceMeters>NAN</DistanceMeters>
          </Trackpoint>
          <Trackpoint>
            <Time>2022-09-24T15:27:43.000Z</Time>
            <Position>
              <LatitudeDegrees>43.31563853658735752105712890625</LatitudeDegrees>
              <LongitudeDegrees>-2.746206857264041900634765625</LongitudeDegrees>
            </Position>
            <AltitudeMeters>40.59999847412109375</AltitudeMeters>
            <DistanceMeters>NAN</DistanceMeters>
          </Trackpoint>
          <Trackpoint>
            <Time>2022-09-24T15:27:44.000Z</Time>
            <Position>
              <LatitudeDegrees>43.3157418854534626007080078125</LatitudeDegrees>
              <LongitudeDegrees>-2.746180035173892974853515625</LongitudeDegrees>
            </Position>
            <AltitudeMeters>40.200000762939453125</AltitudeMeters>
            <DistanceMeters>NAN</DistanceMeters>
          </Trackpoint>
          <Trackpoint>
            <Time>2022-09-24T15:27:45.000Z</Time>
            <Position>
              <LatitudeDegrees>43.31584556959569454193115234375</LatitudeDegrees>
              <LongitudeDegrees>-2.7461560629308223724365234375</LongitudeDegrees>
            </Position>
            <AltitudeMeters>40.200000762939453125</AltitudeMeters>
            <DistanceMeters>NAN</DistanceMeters>
          </Trackpoint>
          <Trackpoint>
            <Time>2022-09-24T15:27:46.000Z</Time>
            <Position>
              <LatitudeDegrees>43.3159453980624675750732421875</LatitudeDegrees>
              <LongitudeDegrees>-2.746129743754863739013671875</LongitudeDegrees>
            </Position>
            <AltitudeMeters>40.200000762939453125</AltitudeMeters>
            <DistanceMeters>NAN</DistanceMeters>
          </Trackpoint>
          <Trackpoint>
            <Time>2022-09-24T15:27:47.000Z</Time>
            <Position>
              <LatitudeDegrees>43.3160434663295745849609375</LatitudeDegrees>
              <LongitudeDegrees>-2.74609814397990703582763671875</LongitudeDegrees>
            </Position>
            <AltitudeMeters>40.40000152587890625</AltitudeMeters>
            <DistanceMeters>NAN</DistanceMeters>
          </Trackpoint>
          <Trackpoint>
            <Time>2022-09-24T15:27:48.000Z</Time>
            <Position>
              <LatitudeDegrees>43.316143043339252471923828125</LatitudeDegrees>
              <LongitudeDegrees>-2.74606511928141117095947265625</LongitudeDegrees>
            </Position>
            <AltitudeMeters>40.200000762939453125</AltitudeMeters>
            <DistanceMeters>NAN</DistanceMeters>
          </Trackpoint>
          <Trackpoint>
            <Time>2022-09-24T15:27:49.000Z</Time>
            <Position>
              <LatitudeDegrees>43.316240273416042327880859375</LatitudeDegrees>
              <LongitudeDegrees>-2.746033854782581329345703125</LongitudeDegrees>
            </Position>
            <AltitudeMeters>40.200000762939453125</AltitudeMeters>
            <DistanceMeters>NAN</DistanceMeters>
          </Trackpoint>
          <Trackpoint>
            <Time>2022-09-24T15:27:50.000Z</Time>
            <Position>
              <LatitudeDegrees>43.31633121706545352935791015625</LatitudeDegrees>
              <LongitudeDegrees>-2.74600828997790813446044921875</LongitudeDegrees>
            </Position>
            <AltitudeMeters>40.200000762939453125</AltitudeMeters>
            <DistanceMeters>NAN</DistanceMeters>
          </Trackpoint>
          <Trackpoint>
            <Time>2022-09-24T15:27:51.000Z</Time>
            <Position>
              <LatitudeDegrees>43.31642375327646732330322265625</LatitudeDegrees>
              <LongitudeDegrees>-2.7459787018597126007080078125</LongitudeDegrees>
            </Position>
            <AltitudeMeters>40.200000762939453125</AltitudeMeters>
            <DistanceMeters>NAN</DistanceMeters>
          </Trackpoint>
          <Trackpoint>
            <Time>2022-09-24T15:27:52.000Z</Time>
            <Position>
              <LatitudeDegrees>43.31651846878230571746826171875</LatitudeDegrees>
              <LongitudeDegrees>-2.74594567716121673583984375</LongitudeDegrees>
            </Position>
            <AltitudeMeters>40.200000762939453125</AltitudeMeters>
            <DistanceMeters>NAN</DistanceMeters>
          </Trackpoint>
          <Trackpoint>
            <Time>2022-09-24T15:27:53.000Z</Time>
            <Position>
              <LatitudeDegrees>43.31661251373589038848876953125</LatitudeDegrees>
              <LongitudeDegrees>-2.7459173463284969329833984375</LongitudeDegrees>
            </Position>
            <AltitudeMeters>39.799999237060546875</AltitudeMeters>
            <DistanceMeters>NAN</DistanceMeters>
          </Trackpoint>
          <Trackpoint>
            <Time>2022-09-24T15:27:54.000Z</Time>
            <Position>
              <LatitudeDegrees>43.3167047984898090362548828125</LatitudeDegrees>
              <LongitudeDegrees>-2.745889015495777130126953125</LongitudeDegrees>
            </Position>
            <AltitudeMeters>39.799999237060546875</AltitudeMeters>
            <DistanceMeters>NAN</DistanceMeters>
          </Trackpoint>
          <Trackpoint>
            <Time>2022-09-24T15:27:55.000Z</Time>
            <Position>
              <LatitudeDegrees>43.3167959935963153839111328125</LatitudeDegrees>
              <LongitudeDegrees>-2.74586328305304050445556640625</LongitudeDegrees>
            </Position>
            <AltitudeMeters>39.59999847412109375</AltitudeMeters>
            <DistanceMeters>NAN</DistanceMeters>
          </Trackpoint>
          <Trackpoint>
            <Time>2022-09-24T15:27:56.000Z</Time>
            <Position>
              <LatitudeDegrees>43.316886015236377716064453125</LatitudeDegrees>
              <LongitudeDegrees>-2.74583461694419384002685546875</LongitudeDegrees>
            </Position>
            <AltitudeMeters>39.59999847412109375</AltitudeMeters>
            <DistanceMeters>NAN</DistanceMeters>
          </Trackpoint>
          <Trackpoint>
            <Time>2022-09-24T15:27:57.000Z</Time>
            <Position>
              <LatitudeDegrees>43.3169783838093280792236328125</LatitudeDegrees>
              <LongitudeDegrees>-2.7457989938557147979736328125</LongitudeDegrees>
            </Position>
            <AltitudeMeters>39.59999847412109375</AltitudeMeters>
            <DistanceMeters>NAN</DistanceMeters>
          </Trackpoint>
          <Trackpoint>
            <Time>2022-09-24T15:27:58.000Z</Time>
            <Position>
              <LatitudeDegrees>43.3170702494680881500244140625</LatitudeDegrees>
              <LongitudeDegrees>-2.74576672352850437164306640625</LongitudeDegrees>
            </Position>
            <AltitudeMeters>39.799999237060546875</AltitudeMeters>
            <DistanceMeters>NAN</DistanceMeters>
          </Trackpoint>
          <Trackpoint>
            <Time>2022-09-24T15:27:59.000Z</Time>
            <Position>
              <LatitudeDegrees>43.31716186366975307464599609375</LatitudeDegrees>
              <LongitudeDegrees>-2.74573319591581821441650390625</LongitudeDegrees>
            </Position>
            <AltitudeMeters>39.59999847412109375</AltitudeMeters>
            <DistanceMeters>NAN</DistanceMeters>
          </Trackpoint>
          <Trackpoint>
            <Time>2022-09-24T15:28:00.000Z</Time>
            <Position>
              <LatitudeDegrees>43.31725020892918109893798828125</LatitudeDegrees>
              <LongitudeDegrees>-2.74569891393184661865234375</LongitudeDegrees>
            </Position>
            <AltitudeMeters>40</AltitudeMeters>
            <DistanceMeters>NAN</DistanceMeters>
          </Trackpoint>
          <Trackpoint>
            <Time>2022-09-24T15:28:01.000Z</Time>
            <Position>
              <LatitudeDegrees>43.317334614694118499755859375</LatitudeDegrees>
              <LongitudeDegrees>-2.745665051043033599853515625</LongitudeDegrees>
            </Position>
            <AltitudeMeters>39.59999847412109375</AltitudeMeters>
            <DistanceMeters>NAN</DistanceMeters>
          </Trackpoint>
          <Trackpoint>
            <Time>2022-09-24T15:28:02.000Z</Time>
            <Position>
              <LatitudeDegrees>43.31741482950747013092041015625</LatitudeDegrees>
              <LongitudeDegrees>-2.74563177488744258880615234375</LongitudeDegrees>
            </Position>
            <AltitudeMeters>39.799999237060546875</AltitudeMeters>
            <DistanceMeters>NAN</DistanceMeters>
          </Trackpoint>
          <Trackpoint>
            <Time>2022-09-24T15:28:03.000Z</Time>
            <Position>
              <LatitudeDegrees>43.317495547235012054443359375</LatitudeDegrees>
              <LongitudeDegrees>-2.74560092948377132415771484375</LongitudeDegrees>
            </Position>
            <AltitudeMeters>40.200000762939453125</AltitudeMeters>
            <DistanceMeters>NAN</DistanceMeters>
          </Trackpoint>
          <Trackpoint>
            <Time>2022-09-24T15:28:04.000Z</Time>
            <Position>
              <LatitudeDegrees>43.31757375039160251617431640625</LatitudeDegrees>
              <LongitudeDegrees>-2.74557075463235378265380859375</LongitudeDegrees>
            </Position>
            <AltitudeMeters>39.799999237060546875</AltitudeMeters>
            <DistanceMeters>NAN</DistanceMeters>
          </Trackpoint>
          <Trackpoint>
            <Time>2022-09-24T15:28:05.000Z</Time>
            <Position>
              <LatitudeDegrees>43.31764918752014636993408203125</LatitudeDegrees>
              <LongitudeDegrees>-2.74553990922868251800537109375</LongitudeDegrees>
            </Position>
            <AltitudeMeters>39.799999237060546875</AltitudeMeters>
            <DistanceMeters>NAN</DistanceMeters>
          </Trackpoint>
          <Trackpoint>
            <Time>2022-09-24T15:28:06.000Z</Time>
            <Position>
              <LatitudeDegrees>43.31772454082965850830078125</LatitudeDegrees>
              <LongitudeDegrees>-2.74550654925405979156494140625</LongitudeDegrees>
            </Position>
            <AltitudeMeters>40.200000762939453125</AltitudeMeters>
            <DistanceMeters>NAN</DistanceMeters>
          </Trackpoint>
          <Trackpoint>
            <Time>2022-09-24T15:28:07.000Z</Time>
            <Position>
              <LatitudeDegrees>43.31780089996755123138427734375</LatitudeDegrees>
              <LongitudeDegrees>-2.745476625859737396240234375</LongitudeDegrees>
            </Position>
            <AltitudeMeters>40.200000762939453125</AltitudeMeters>
            <DistanceMeters>NAN</DistanceMeters>
          </Trackpoint>
          <Trackpoint>
            <Time>2022-09-24T15:28:08.000Z</Time>
            <Position>
              <LatitudeDegrees>43.31787751056253910064697265625</LatitudeDegrees>
              <LongitudeDegrees>-2.7454487979412078857421875</LongitudeDegrees>
            </Position>
            <AltitudeMeters>40.799999237060546875</AltitudeMeters>
            <DistanceMeters>NAN</DistanceMeters>
          </Trackpoint>
          <Trackpoint>
            <Time>2022-09-24T15:28:09.000Z</Time>
            <Position>
              <LatitudeDegrees>43.317952193319797515869140625</LatitudeDegrees>
              <LongitudeDegrees>-2.74541887454688549041748046875</LongitudeDegrees>
            </Position>
            <AltitudeMeters>41.40000152587890625</AltitudeMeters>
            <DistanceMeters>NAN</DistanceMeters>
          </Trackpoint>
          <Trackpoint>
            <Time>2022-09-24T15:28:10.000Z</Time>
            <Position>
              <LatitudeDegrees>43.31802352331578731536865234375</LatitudeDegrees>
              <LongitudeDegrees>-2.74538367055356502532958984375</LongitudeDegrees>
            </Position>
            <AltitudeMeters>41.40000152587890625</AltitudeMeters>
            <DistanceMeters>NAN</DistanceMeters>
          </Trackpoint>
          <Trackpoint>
            <Time>2022-09-24T15:28:11.000Z</Time>
            <Position>
              <LatitudeDegrees>43.31809828989207744598388671875</LatitudeDegrees>
              <LongitudeDegrees>-2.74535047821700572967529296875</LongitudeDegrees>
            </Position>
            <AltitudeMeters>41.59999847412109375</AltitudeMeters>
            <DistanceMeters>NAN</DistanceMeters>
          </Trackpoint>
          <Trackpoint>
            <Time>2022-09-24T15:28:12.000Z</Time>
            <Position>
              <LatitudeDegrees>43.31817238591611385345458984375</LatitudeDegrees>
              <LongitudeDegrees>-2.74531829170882701873779296875</LongitudeDegrees>
            </Position>
            <AltitudeMeters>42</AltitudeMeters>
            <DistanceMeters>NAN</DistanceMeters>
          </Trackpoint>
          <Trackpoint>
            <Time>2022-09-24T15:28:13.000Z</Time>
            <Position>
              <LatitudeDegrees>43.31817238591611385345458984375</LatitudeDegrees>
              <LongitudeDegrees>-2.74531829170882701873779296875</LongitudeDegrees>
            </Position>
            <AltitudeMeters>42</AltitudeMeters>
            <DistanceMeters>NAN</DistanceMeters>
          </Trackpoint>
          <Trackpoint>
            <Time>2022-09-24T15:28:14.000Z</Time>
            <Position>
              <LatitudeDegrees>43.3183141238987445831298828125</LatitudeDegrees>
              <LongitudeDegrees>-2.7452568523585796356201171875</LongitudeDegrees>
            </Position>
            <AltitudeMeters>42.200000762939453125</AltitudeMeters>
            <DistanceMeters>NAN</DistanceMeters>
          </Trackpoint>
          <Trackpoint>
            <Time>2022-09-24T15:28:15.000Z</Time>
            <Position>
              <LatitudeDegrees>43.3183850347995758056640625</LatitudeDegrees>
              <LongitudeDegrees>-2.74522776715457439422607421875</LongitudeDegrees>
            </Position>
            <AltitudeMeters>42.40000152587890625</AltitudeMeters>
            <DistanceMeters>NAN</DistanceMeters>
          </Trackpoint>
          <Trackpoint>
            <Time>2022-09-24T15:28:16.000Z</Time>
            <Position>
              <LatitudeDegrees>43.31845837645232677459716796875</LatitudeDegrees>
              <LongitudeDegrees>-2.745200358331203460693359375</LongitudeDegrees>
            </Position>
            <AltitudeMeters>42.40000152587890625</AltitudeMeters>
            <DistanceMeters>NAN</DistanceMeters>
          </Trackpoint>
          <Trackpoint>
            <Time>2022-09-24T15:28:17.000Z</Time>
            <Position>
              <LatitudeDegrees>43.31853431649506092071533203125</LatitudeDegrees>
              <LongitudeDegrees>-2.74517546407878398895263671875</LongitudeDegrees>
            </Position>
            <AltitudeMeters>42.40000152587890625</AltitudeMeters>
            <DistanceMeters>NAN</DistanceMeters>
          </Trackpoint>
          <Trackpoint>
            <Time>2022-09-24T15:28:18.000Z</Time>
            <Position>
              <LatitudeDegrees>43.31861293874680995941162109375</LatitudeDegrees>
              <LongitudeDegrees>-2.7451576106250286102294921875</LongitudeDegrees>
            </Position>
            <AltitudeMeters>42.40000152587890625</AltitudeMeters>
            <DistanceMeters>NAN</DistanceMeters>
          </Trackpoint>
          <Trackpoint>
            <Time>2022-09-24T15:28:19.000Z</Time>
            <Position>
              <LatitudeDegrees>43.318692147731781005859375</LatitudeDegrees>
              <LongitudeDegrees>-2.7451525814831256866455078125</LongitudeDegrees>
            </Position>
            <AltitudeMeters>41</AltitudeMeters>
            <DistanceMeters>NAN</DistanceMeters>
          </Trackpoint>
          <Trackpoint>
            <Time>2022-09-24T15:28:20.000Z</Time>
            <Position>
              <LatitudeDegrees>43.3187754638493061065673828125</LatitudeDegrees>
              <LongitudeDegrees>-2.74515308439731597900390625</LongitudeDegrees>
            </Position>
            <AltitudeMeters>41</AltitudeMeters>
            <DistanceMeters>NAN</DistanceMeters>
          </Trackpoint>
          <Trackpoint>
            <Time>2022-09-24T15:28:21.000Z</Time>
            <Position>
              <LatitudeDegrees>43.31885919906198978424072265625</LatitudeDegrees>
              <LongitudeDegrees>-2.7451525814831256866455078125</LongitudeDegrees>
            </Position>
            <AltitudeMeters>41</AltitudeMeters>
            <DistanceMeters>NAN</DistanceMeters>
          </Trackpoint>
          <Trackpoint>
            <Time>2022-09-24T15:28:22.000Z</Time>
            <Position>
              <LatitudeDegrees>43.31894268281757831573486328125</LatitudeDegrees>
              <LongitudeDegrees>-2.745153419673442840576171875</LongitudeDegrees>
            </Position>
            <AltitudeMeters>41</AltitudeMeters>
            <DistanceMeters>NAN</DistanceMeters>
          </Trackpoint>
          <Trackpoint>
            <Time>2022-09-24T15:28:23.000Z</Time>
            <Position>
              <LatitudeDegrees>43.3190234005451202392578125</LatitudeDegrees>
              <LongitudeDegrees>-2.74515903554856777191162109375</LongitudeDegrees>
            </Position>
            <AltitudeMeters>41.200000762939453125</AltitudeMeters>
            <DistanceMeters>NAN</DistanceMeters>
          </Trackpoint>
          <Trackpoint>
            <Time>2022-09-24T15:28:24.000Z</Time>
            <Position>
              <LatitudeDegrees>43.3191038668155670166015625</LatitudeDegrees>
              <LongitudeDegrees>-2.74517454206943511962890625</LongitudeDegrees>
            </Position>
            <AltitudeMeters>41.200000762939453125</AltitudeMeters>
            <DistanceMeters>NAN</DistanceMeters>
          </Trackpoint>
          <Trackpoint>
            <Time>2022-09-24T15:28:25.000Z</Time>
            <Position>
              <LatitudeDegrees>43.3191843330860137939453125</LatitudeDegrees>
              <LongitudeDegrees>-2.74520547129213809967041015625</LongitudeDegrees>
            </Position>
            <AltitudeMeters>42.59999847412109375</AltitudeMeters>
            <DistanceMeters>NAN</DistanceMeters>
          </Trackpoint>
          <Trackpoint>
            <Time>2022-09-24T15:28:26.000Z</Time>
            <Position>
              <LatitudeDegrees>43.31926069222390651702880859375</LatitudeDegrees>
              <LongitudeDegrees>-2.7452556788921356201171875</LongitudeDegrees>
            </Position>
            <AltitudeMeters>42.59999847412109375</AltitudeMeters>
            <DistanceMeters>NAN</DistanceMeters>
          </Trackpoint>
          <Trackpoint>
            <Time>2022-09-24T15:28:27.000Z</Time>
            <Position>
              <LatitudeDegrees>43.3193370513617992401123046875</LatitudeDegrees>
              <LongitudeDegrees>-2.74531443603336811065673828125</LongitudeDegrees>
            </Position>
            <AltitudeMeters>41.200000762939453125</AltitudeMeters>
            <DistanceMeters>NAN</DistanceMeters>
          </Trackpoint>
          <Trackpoint>
            <Time>2022-09-24T15:28:28.000Z</Time>
            <Position>
              <LatitudeDegrees>43.319413997232913970947265625</LatitudeDegrees>
              <LongitudeDegrees>-2.745377384126186370849609375</LongitudeDegrees>
            </Position>
            <AltitudeMeters>41</AltitudeMeters>
            <DistanceMeters>NAN</DistanceMeters>
          </Trackpoint>
          <Trackpoint>
            <Time>2022-09-24T15:28:29.000Z</Time>
            <Position>
              <LatitudeDegrees>43.31948935054242610931396484375</LatitudeDegrees>
              <LongitudeDegrees>-2.745442427694797515869140625</LongitudeDegrees>
            </Position>
            <AltitudeMeters>40.799999237060546875</AltitudeMeters>
            <DistanceMeters>NAN</DistanceMeters>
          </Trackpoint>
          <Trackpoint>
            <Time>2022-09-24T15:28:30.000Z</Time>
            <Position>
              <LatitudeDegrees>43.319556824862957000732421875</LatitudeDegrees>
              <LongitudeDegrees>-2.74551359005272388458251953125</LongitudeDegrees>
            </Position>
            <AltitudeMeters>39.40000152587890625</AltitudeMeters>
            <DistanceMeters>NAN</DistanceMeters>
          </Trackpoint>
          <Trackpoint>
            <Time>2022-09-24T15:28:31.000Z</Time>
            <Position>
              <LatitudeDegrees>43.3196161687374114990234375</LatitudeDegrees>
              <LongitudeDegrees>-2.74559967219829559326171875</LongitudeDegrees>
            </Position>
            <AltitudeMeters>39.40000152587890625</AltitudeMeters>
            <DistanceMeters>NAN</DistanceMeters>
          </Trackpoint>
          <Trackpoint>
            <Time>2022-09-24T15:28:32.000Z</Time>
            <Position>
              <LatitudeDegrees>43.31966989673674106597900390625</LatitudeDegrees>
              <LongitudeDegrees>-2.74569547735154628753662109375</LongitudeDegrees>
            </Position>
            <AltitudeMeters>39.200000762939453125</AltitudeMeters>
            <DistanceMeters>NAN</DistanceMeters>
          </Trackpoint>
          <Trackpoint>
            <Time>2022-09-24T15:28:33.000Z</Time>
            <Position>
              <LatitudeDegrees>43.3197212778031826019287109375</LatitudeDegrees>
              <LongitudeDegrees>-2.74580041877925395965576171875</LongitudeDegrees>
            </Position>
            <AltitudeMeters>39.200000762939453125</AltitudeMeters>
            <DistanceMeters>NAN</DistanceMeters>
          </Trackpoint>
          <Trackpoint>
            <Time>2022-09-24T15:28:34.000Z</Time>
            <Position>
              <LatitudeDegrees>43.31977567635476589202880859375</LatitudeDegrees>
              <LongitudeDegrees>-2.74590921588242053985595703125</LongitudeDegrees>
            </Position>
            <AltitudeMeters>39</AltitudeMeters>
            <DistanceMeters>NAN</DistanceMeters>
          </Trackpoint>
          <Trackpoint>
            <Time>2022-09-24T15:28:35.000Z</Time>
            <Position>
              <LatitudeDegrees>43.31982797943055629730224609375</LatitudeDegrees>
              <LongitudeDegrees>-2.7460216172039508819580078125</LongitudeDegrees>
            </Position>
            <AltitudeMeters>38.799999237060546875</AltitudeMeters>
            <DistanceMeters>NAN</DistanceMeters>
          </Trackpoint>
          <Trackpoint>
            <Time>2022-09-24T15:28:36.000Z</Time>
            <Position>
              <LatitudeDegrees>43.3198801986873149871826171875</LatitudeDegrees>
              <LongitudeDegrees>-2.74614055640995502471923828125</LongitudeDegrees>
            </Position>
            <AltitudeMeters>38.799999237060546875</AltitudeMeters>
            <DistanceMeters>NAN</DistanceMeters>
          </Trackpoint>
          <Trackpoint>
            <Time>2022-09-24T15:28:37.000Z</Time>
            <Position>
              <LatitudeDegrees>43.31993442960083484649658203125</LatitudeDegrees>
              <LongitudeDegrees>-2.7462606690824031829833984375</LongitudeDegrees>
            </Position>
            <AltitudeMeters>38.59999847412109375</AltitudeMeters>
            <DistanceMeters>NAN</DistanceMeters>
          </Trackpoint>
          <Trackpoint>
            <Time>2022-09-24T15:28:38.000Z</Time>
            <Position>
              <LatitudeDegrees>43.3199918456375598907470703125</LatitudeDegrees>
              <LongitudeDegrees>-2.7463796921074390411376953125</LongitudeDegrees>
            </Position>
            <AltitudeMeters>38.200000762939453125</AltitudeMeters>
            <DistanceMeters>NAN</DistanceMeters>
          </Trackpoint>
          <Trackpoint>
            <Time>2022-09-24T15:28:39.000Z</Time>
            <Position>
              <LatitudeDegrees>43.32005009986460208892822265625</LatitudeDegrees>
              <LongitudeDegrees>-2.7465029060840606689453125</LongitudeDegrees>
            </Position>
            <AltitudeMeters>37.200000762939453125</AltitudeMeters>
            <DistanceMeters>NAN</DistanceMeters>
          </Trackpoint>
          <Trackpoint>
            <Time>2022-09-24T15:28:40.000Z</Time>
            <Position>
              <LatitudeDegrees>43.32011145539581775665283203125</LatitudeDegrees>
              <LongitudeDegrees>-2.74662653915584087371826171875</LongitudeDegrees>
            </Position>
            <AltitudeMeters>37.200000762939453125</AltitudeMeters>
            <DistanceMeters>NAN</DistanceMeters>
          </Trackpoint>
          <Trackpoint>
            <Time>2022-09-24T15:28:41.000Z</Time>
            <Position>
              <LatitudeDegrees>43.32017901353538036346435546875</LatitudeDegrees>
              <LongitudeDegrees>-2.7467461489140987396240234375</LongitudeDegrees>
            </Position>
            <AltitudeMeters>36.40000152587890625</AltitudeMeters>
            <DistanceMeters>NAN</DistanceMeters>
          </Trackpoint>
          <Trackpoint>
            <Time>2022-09-24T15:28:42.000Z</Time>
            <Position>
              <LatitudeDegrees>43.32025160081684589385986328125</LatitudeDegrees>
              <LongitudeDegrees>-2.74686072953045368194580078125</LongitudeDegrees>
            </Position>
            <AltitudeMeters>35.799999237060546875</AltitudeMeters>
            <DistanceMeters>NAN</DistanceMeters>
          </Trackpoint>
          <Trackpoint>
            <Time>2022-09-24T15:28:43.000Z</Time>
            <Position>
              <LatitudeDegrees>43.32032687030732631683349609375</LatitudeDegrees>
              <LongitudeDegrees>-2.74696893990039825439453125</LongitudeDegrees>
            </Position>
            <AltitudeMeters>35.59999847412109375</AltitudeMeters>
            <DistanceMeters>NAN</DistanceMeters>
          </Trackpoint>
          <Trackpoint>
            <Time>2022-09-24T15:28:44.000Z</Time>
            <Position>
              <LatitudeDegrees>43.320410437881946563720703125</LatitudeDegrees>
              <LongitudeDegrees>-2.7470663376152515411376953125</LongitudeDegrees>
            </Position>
            <AltitudeMeters>34</AltitudeMeters>
            <DistanceMeters>NAN</DistanceMeters>
          </Trackpoint>
          <Trackpoint>
            <Time>2022-09-24T15:28:45.000Z</Time>
            <Position>
              <LatitudeDegrees>43.32049467600882053375244140625</LatitudeDegrees>
              <LongitudeDegrees>-2.7471598796546459197998046875</LongitudeDegrees>
            </Position>
            <AltitudeMeters>33.40000152587890625</AltitudeMeters>
            <DistanceMeters>NAN</DistanceMeters>
          </Trackpoint>
          <Trackpoint>
            <Time>2022-09-24T15:28:46.000Z</Time>
            <Position>
              <LatitudeDegrees>43.320573382079601287841796875</LatitudeDegrees>
              <LongitudeDegrees>-2.7472579479217529296875</LongitudeDegrees>
            </Position>
            <AltitudeMeters>33.200000762939453125</AltitudeMeters>
            <DistanceMeters>NAN</DistanceMeters>
          </Trackpoint>
          <Trackpoint>
            <Time>2022-09-24T15:28:47.000Z</Time>
            <Position>
              <LatitudeDegrees>43.32064412534236907958984375</LatitudeDegrees>
              <LongitudeDegrees>-2.74736112914979457855224609375</LongitudeDegrees>
            </Position>
            <AltitudeMeters>32.799999237060546875</AltitudeMeters>
            <DistanceMeters>NAN</DistanceMeters>
          </Trackpoint>
          <Trackpoint>
            <Time>2022-09-24T15:28:48.000Z</Time>
            <Position>
              <LatitudeDegrees>43.32070774398744106292724609375</LatitudeDegrees>
              <LongitudeDegrees>-2.74746757932007312774658203125</LongitudeDegrees>
            </Position>
            <AltitudeMeters>32</AltitudeMeters>
            <DistanceMeters>NAN</DistanceMeters>
          </Trackpoint>
          <Trackpoint>
            <Time>2022-09-24T15:28:49.000Z</Time>
            <Position>
              <LatitudeDegrees>43.32070774398744106292724609375</LatitudeDegrees>
              <LongitudeDegrees>-2.74746757932007312774658203125</LongitudeDegrees>
            </Position>
            <AltitudeMeters>32.799999237060546875</AltitudeMeters>
            <DistanceMeters>NAN</DistanceMeters>
          </Trackpoint>
          <Trackpoint>
            <Time>2022-09-24T15:28:50.000Z</Time>
            <Position>
              <LatitudeDegrees>43.3208183012902736663818359375</LatitudeDegrees>
              <LongitudeDegrees>-2.747690118849277496337890625</LongitudeDegrees>
            </Position>
            <AltitudeMeters>32.799999237060546875</AltitudeMeters>
            <DistanceMeters>NAN</DistanceMeters>
          </Trackpoint>
          <Trackpoint>
            <Time>2022-09-24T15:28:51.000Z</Time>
            <Position>
              <LatitudeDegrees>43.3208732865750789642333984375</LatitudeDegrees>
              <LongitudeDegrees>-2.7478009276092052459716796875</LongitudeDegrees>
            </Position>
            <AltitudeMeters>33.200000762939453125</AltitudeMeters>
            <DistanceMeters>NAN</DistanceMeters>
          </Trackpoint>
          <Trackpoint>
            <Time>2022-09-24T15:28:52.000Z</Time>
            <Position>
              <LatitudeDegrees>43.32091636955738067626953125</LatitudeDegrees>
              <LongitudeDegrees>-2.74788617156445980072021484375</LongitudeDegrees>
            </Position>
            <AltitudeMeters>32.799999237060546875</AltitudeMeters>
            <DistanceMeters>NAN</DistanceMeters>
          </Trackpoint>
          <Trackpoint>
            <Time>2022-09-24T15:28:53.000Z</Time>
            <Position>
              <LatitudeDegrees>43.32096808589994907379150390625</LatitudeDegrees>
              <LongitudeDegrees>-2.747995890676975250244140625</LongitudeDegrees>
            </Position>
            <AltitudeMeters>32.40000152587890625</AltitudeMeters>
            <DistanceMeters>NAN</DistanceMeters>
          </Trackpoint>
          <Trackpoint>
            <Time>2022-09-24T15:28:54.000Z</Time>
            <Position>
              <LatitudeDegrees>43.3210201375186443328857421875</LatitudeDegrees>
              <LongitudeDegrees>-2.74810477159917354583740234375</LongitudeDegrees>
            </Position>
            <AltitudeMeters>32.200000762939453125</AltitudeMeters>
            <DistanceMeters>NAN</DistanceMeters>
          </Trackpoint>
          <Trackpoint>
            <Time>2022-09-24T15:28:55.000Z</Time>
            <Position>
              <LatitudeDegrees>43.32107654772698879241943359375</LatitudeDegrees>
              <LongitudeDegrees>-2.7482046000659465789794921875</LongitudeDegrees>
            </Position>
            <AltitudeMeters>32.200000762939453125</AltitudeMeters>
            <DistanceMeters>NAN</DistanceMeters>
          </Trackpoint>
          <Trackpoint>
            <Time>2022-09-24T15:28:56.000Z</Time>
            <Position>
              <LatitudeDegrees>43.32115567289292812347412109375</LatitudeDegrees>
              <LongitudeDegrees>-2.74830224923789501190185546875</LongitudeDegrees>
            </Position>
            <AltitudeMeters>32.200000762939453125</AltitudeMeters>
            <DistanceMeters>NAN</DistanceMeters>
          </Trackpoint>
          <Trackpoint>
            <Time>2022-09-24T15:28:57.000Z</Time>
            <Position>
              <LatitudeDegrees>43.32123228348791599273681640625</LatitudeDegrees>
              <LongitudeDegrees>-2.74835673160851001739501953125</LongitudeDegrees>
            </Position>
            <AltitudeMeters>32.200000762939453125</AltitudeMeters>
            <DistanceMeters>NAN</DistanceMeters>
          </Trackpoint>
          <Trackpoint>
            <Time>2022-09-24T15:28:58.000Z</Time>
            <Position>
              <LatitudeDegrees>43.3213101513683795928955078125</LatitudeDegrees>
              <LongitudeDegrees>-2.74839051067829132080078125</LongitudeDegrees>
            </Position>
            <AltitudeMeters>31.6000003814697265625</AltitudeMeters>
            <DistanceMeters>NAN</DistanceMeters>
          </Trackpoint>
          <Trackpoint>
            <Time>2022-09-24T15:28:59.000Z</Time>
            <Position>
              <LatitudeDegrees>43.3213731832802295684814453125</LatitudeDegrees>
              <LongitudeDegrees>-2.74840584956109523773193359375</LongitudeDegrees>
            </Position>
            <AltitudeMeters>31.3999996185302734375</AltitudeMeters>
            <DistanceMeters>NAN</DistanceMeters>
          </Trackpoint>
          <Trackpoint>
            <Time>2022-09-24T15:29:00.000Z</Time>
            <Position>
              <LatitudeDegrees>43.32145105116069316864013671875</LatitudeDegrees>
              <LongitudeDegrees>-2.74842496030032634735107421875</LongitudeDegrees>
            </Position>
            <AltitudeMeters>31</AltitudeMeters>
            <DistanceMeters>NAN</DistanceMeters>
          </Trackpoint>
          <Trackpoint>
            <Time>2022-09-24T15:29:01.000Z</Time>
            <Position>
              <LatitudeDegrees>43.32154207862913608551025390625</LatitudeDegrees>
              <LongitudeDegrees>-2.74845530278980731964111328125</LongitudeDegrees>
            </Position>
            <AltitudeMeters>31</AltitudeMeters>
            <DistanceMeters>NAN</DistanceMeters>
          </Trackpoint>
          <Trackpoint>
            <Time>2022-09-24T15:29:02.000Z</Time>
            <Position>
              <LatitudeDegrees>43.32161600701510906219482421875</LatitudeDegrees>
              <LongitudeDegrees>-2.74849017150700092315673828125</LongitudeDegrees>
            </Position>
            <AltitudeMeters>30.799999237060546875</AltitudeMeters>
            <DistanceMeters>NAN</DistanceMeters>
          </Trackpoint>
          <Trackpoint>
            <Time>2022-09-24T15:29:03.000Z</Time>
            <Position>
              <LatitudeDegrees>43.32168691791594028472900390625</LatitudeDegrees>
              <LongitudeDegrees>-2.7485321648418903350830078125</LongitudeDegrees>
            </Position>
            <AltitudeMeters>30.200000762939453125</AltitudeMeters>
            <DistanceMeters>NAN</DistanceMeters>
          </Trackpoint>
          <Trackpoint>
            <Time>2022-09-24T15:29:04.000Z</Time>
            <Position>
              <LatitudeDegrees>43.32175782881677150726318359375</LatitudeDegrees>
              <LongitudeDegrees>-2.7485817857086658477783203125</LongitudeDegrees>
            </Position>
            <AltitudeMeters>30.200000762939453125</AltitudeMeters>
            <DistanceMeters>NAN</DistanceMeters>
          </Trackpoint>
          <Trackpoint>
            <Time>2022-09-24T15:29:05.000Z</Time>
            <Position>
              <LatitudeDegrees>43.32182832062244415283203125</LatitudeDegrees>
              <LongitudeDegrees>-2.74863199330866336822509765625</LongitudeDegrees>
            </Position>
            <AltitudeMeters>30.200000762939453125</AltitudeMeters>
            <DistanceMeters>NAN</DistanceMeters>
          </Trackpoint>
          <Trackpoint>
            <Time>2022-09-24T15:29:06.000Z</Time>
            <Position>
              <LatitudeDegrees>43.3218965493142604827880859375</LatitudeDegrees>
              <LongitudeDegrees>-2.74868287146091461181640625</LongitudeDegrees>
            </Position>
            <AltitudeMeters>30.200000762939453125</AltitudeMeters>
            <DistanceMeters>NAN</DistanceMeters>
          </Trackpoint>
          <Trackpoint>
            <Time>2022-09-24T15:29:07.000Z</Time>
            <Position>
              <LatitudeDegrees>43.32196637056767940521240234375</LatitudeDegrees>
              <LongitudeDegrees>-2.7487345039844512939453125</LongitudeDegrees>
            </Position>
            <AltitudeMeters>29.799999237060546875</AltitudeMeters>
            <DistanceMeters>NAN</DistanceMeters>
          </Trackpoint>
          <Trackpoint>
            <Time>2022-09-24T15:29:08.000Z</Time>
            <Position>
              <LatitudeDegrees>43.32203560508787631988525390625</LatitudeDegrees>
              <LongitudeDegrees>-2.7487839572131633758544921875</LongitudeDegrees>
            </Position>
            <AltitudeMeters>29.799999237060546875</AltitudeMeters>
            <DistanceMeters>NAN</DistanceMeters>
          </Trackpoint>
          <Trackpoint>
            <Time>2022-09-24T15:29:09.000Z</Time>
            <Position>
              <LatitudeDegrees>43.322102911770343780517578125</LatitudeDegrees>
              <LongitudeDegrees>-2.74883734993636608123779296875</LongitudeDegrees>
            </Position>
            <AltitudeMeters>30.200000762939453125</AltitudeMeters>
            <DistanceMeters>NAN</DistanceMeters>
          </Trackpoint>
          <Trackpoint>
            <Time>2022-09-24T15:29:10.000Z</Time>
            <Position>
              <LatitudeDegrees>43.322167284786701202392578125</LatitudeDegrees>
              <LongitudeDegrees>-2.74888780899345874786376953125</LongitudeDegrees>
            </Position>
            <AltitudeMeters>30.799999237060546875</AltitudeMeters>
            <DistanceMeters>NAN</DistanceMeters>
          </Trackpoint>
          <Trackpoint>
            <Time>2022-09-24T15:29:11.000Z</Time>
            <Position>
              <LatitudeDegrees>43.32222620956599712371826171875</LatitudeDegrees>
              <LongitudeDegrees>-2.7489422075450420379638671875</LongitudeDegrees>
            </Position>
            <AltitudeMeters>31.200000762939453125</AltitudeMeters>
            <DistanceMeters>NAN</DistanceMeters>
          </Trackpoint>
          <Trackpoint>
            <Time>2022-09-24T15:29:12.000Z</Time>
            <Position>
              <LatitudeDegrees>43.32228287123143672943115234375</LatitudeDegrees>
              <LongitudeDegrees>-2.7490015514194965362548828125</LongitudeDegrees>
            </Position>
            <AltitudeMeters>31.200000762939453125</AltitudeMeters>
            <DistanceMeters>NAN</DistanceMeters>
          </Trackpoint>
          <Trackpoint>
            <Time>2022-09-24T15:29:13.000Z</Time>
            <Position>
              <LatitudeDegrees>43.32233618013560771942138671875</LatitudeDegrees>
              <LongitudeDegrees>-2.74906919337809085845947265625</LongitudeDegrees>
            </Position>
            <AltitudeMeters>31</AltitudeMeters>
            <DistanceMeters>NAN</DistanceMeters>
          </Trackpoint>
          <Trackpoint>
            <Time>2022-09-24T15:29:14.000Z</Time>
            <Position>
              <LatitudeDegrees>43.322386555373668670654296875</LatitudeDegrees>
              <LongitudeDegrees>-2.7491427026689052581787109375</LongitudeDegrees>
            </Position>
            <AltitudeMeters>31</AltitudeMeters>
            <DistanceMeters>NAN</DistanceMeters>
          </Trackpoint>
          <Trackpoint>
            <Time>2022-09-24T15:29:15.000Z</Time>
            <Position>
              <LatitudeDegrees>43.3224350027740001678466796875</LatitudeDegrees>
              <LongitudeDegrees>-2.74922107346355915069580078125</LongitudeDegrees>
            </Position>
            <AltitudeMeters>31</AltitudeMeters>
            <DistanceMeters>NAN</DistanceMeters>
          </Trackpoint>
          <Trackpoint>
            <Time>2022-09-24T15:29:16.000Z</Time>
            <Position>
              <LatitudeDegrees>43.322481103241443634033203125</LatitudeDegrees>
              <LongitudeDegrees>-2.7493043057620525360107421875</LongitudeDegrees>
            </Position>
            <AltitudeMeters>31.200000762939453125</AltitudeMeters>
            <DistanceMeters>NAN</DistanceMeters>
          </Trackpoint>
          <Trackpoint>
            <Time>2022-09-24T15:29:17.000Z</Time>
            <Position>
              <LatitudeDegrees>43.322527706623077392578125</LatitudeDegrees>
              <LongitudeDegrees>-2.749387286603450775146484375</LongitudeDegrees>
            </Position>
            <AltitudeMeters>31</AltitudeMeters>
            <DistanceMeters>NAN</DistanceMeters>
          </Trackpoint>
          <Trackpoint>
            <Time>2022-09-24T15:29:18.000Z</Time>
            <Position>
              <LatitudeDegrees>43.3225744776427745819091796875</LatitudeDegrees>
              <LongitudeDegrees>-2.74946817196905612945556640625</LongitudeDegrees>
            </Position>
            <AltitudeMeters>31</AltitudeMeters>
            <DistanceMeters>NAN</DistanceMeters>
          </Trackpoint>
          <Trackpoint>
            <Time>2022-09-24T15:29:19.000Z</Time>
            <Position>
              <LatitudeDegrees>43.32261781208217144012451171875</LatitudeDegrees>
              <LongitudeDegrees>-2.7495527453720569610595703125</LongitudeDegrees>
            </Position>
            <AltitudeMeters>30.3999996185302734375</AltitudeMeters>
            <DistanceMeters>NAN</DistanceMeters>
          </Trackpoint>
          <Trackpoint>
            <Time>2022-09-24T15:29:20.000Z</Time>
            <Position>
              <LatitudeDegrees>43.32261781208217144012451171875</LatitudeDegrees>
              <LongitudeDegrees>-2.7495527453720569610595703125</LongitudeDegrees>
            </Position>
            <AltitudeMeters>30.3999996185302734375</AltitudeMeters>
            <DistanceMeters>NAN</DistanceMeters>
          </Trackpoint>
          <Trackpoint>
            <Time>2022-09-24T15:29:21.000Z</Time>
            <Position>
              <LatitudeDegrees>43.322707079350948333740234375</LatitudeDegrees>
              <LongitudeDegrees>-2.7497227303683757781982421875</LongitudeDegrees>
            </Position>
            <AltitudeMeters>30.3999996185302734375</AltitudeMeters>
            <DistanceMeters>NAN</DistanceMeters>
          </Trackpoint>
          <Trackpoint>
            <Time>2022-09-24T15:29:22.000Z</Time>
            <Position>
              <LatitudeDegrees>43.322753012180328369140625</LatitudeDegrees>
              <LongitudeDegrees>-2.74980545975267887115478515625</LongitudeDegrees>
            </Position>
            <AltitudeMeters>30.3999996185302734375</AltitudeMeters>
            <DistanceMeters>NAN</DistanceMeters>
          </Trackpoint>
          <Trackpoint>
            <Time>2022-09-24T15:29:23.000Z</Time>
            <Position>
              <LatitudeDegrees>43.322795927524566650390625</LatitudeDegrees>
              <LongitudeDegrees>-2.749890871345996856689453125</LongitudeDegrees>
            </Position>
            <AltitudeMeters>30.3999996185302734375</AltitudeMeters>
            <DistanceMeters>NAN</DistanceMeters>
          </Trackpoint>
          <Trackpoint>
            <Time>2022-09-24T15:29:24.000Z</Time>
            <Position>
              <LatitudeDegrees>43.32284026779234409332275390625</LatitudeDegrees>
              <LongitudeDegrees>-2.7499738521873950958251953125</LongitudeDegrees>
            </Position>
            <AltitudeMeters>30.3999996185302734375</AltitudeMeters>
            <DistanceMeters>NAN</DistanceMeters>
          </Trackpoint>
          <Trackpoint>
            <Time>2022-09-24T15:29:25.000Z</Time>
            <Position>
              <LatitudeDegrees>43.322883434593677520751953125</LatitudeDegrees>
              <LongitudeDegrees>-2.750055491924285888671875</LongitudeDegrees>
            </Position>
            <AltitudeMeters>30.3999996185302734375</AltitudeMeters>
            <DistanceMeters>NAN</DistanceMeters>
          </Trackpoint>
          <Trackpoint>
            <Time>2022-09-24T15:29:26.000Z</Time>
            <Position>
              <LatitudeDegrees>43.3229325525462627410888671875</LatitudeDegrees>
              <LongitudeDegrees>-2.75013419799506664276123046875</LongitudeDegrees>
            </Position>
            <AltitudeMeters>30.6000003814697265625</AltitudeMeters>
            <DistanceMeters>NAN</DistanceMeters>
          </Trackpoint>
          <Trackpoint>
            <Time>2022-09-24T15:29:27.000Z</Time>
            <Position>
              <LatitudeDegrees>43.3229858614504337310791015625</LatitudeDegrees>
              <LongitudeDegrees>-2.75021080859005451202392578125</LongitudeDegrees>
            </Position>
            <AltitudeMeters>30.200000762939453125</AltitudeMeters>
            <DistanceMeters>NAN</DistanceMeters>
          </Trackpoint>
          <Trackpoint>
            <Time>2022-09-24T15:29:28.000Z</Time>
            <Position>
              <LatitudeDegrees>43.32303841598331928253173828125</LatitudeDegrees>
              <LongitudeDegrees>-2.7502903528511524200439453125</LongitudeDegrees>
            </Position>
            <AltitudeMeters>29.799999237060546875</AltitudeMeters>
            <DistanceMeters>NAN</DistanceMeters>
          </Trackpoint>
          <Trackpoint>
            <Time>2022-09-24T15:29:29.000Z</Time>
            <Position>
              <LatitudeDegrees>43.32309491001069545745849609375</LatitudeDegrees>
              <LongitudeDegrees>-2.75036721490323543548583984375</LongitudeDegrees>
            </Position>
            <AltitudeMeters>29.799999237060546875</AltitudeMeters>
            <DistanceMeters>NAN</DistanceMeters>
          </Trackpoint>
          <Trackpoint>
            <Time>2022-09-24T15:29:30.000Z</Time>
            <Position>
              <LatitudeDegrees>43.32315408624708652496337890625</LatitudeDegrees>
              <LongitudeDegrees>-2.75043904781341552734375</LongitudeDegrees>
            </Position>
            <AltitudeMeters>29.799999237060546875</AltitudeMeters>
            <DistanceMeters>NAN</DistanceMeters>
          </Trackpoint>
          <Trackpoint>
            <Time>2022-09-24T15:29:31.000Z</Time>
            <Position>
              <LatitudeDegrees>43.32321644760668277740478515625</LatitudeDegrees>
              <LongitudeDegrees>-2.7505123056471347808837890625</LongitudeDegrees>
            </Position>
            <AltitudeMeters>28.799999237060546875</AltitudeMeters>
            <DistanceMeters>NAN</DistanceMeters>
          </Trackpoint>
          <Trackpoint>
            <Time>2022-09-24T15:29:32.000Z</Time>
            <Position>
              <LatitudeDegrees>43.32327947951853275299072265625</LatitudeDegrees>
              <LongitudeDegrees>-2.7505887486040592193603515625</LongitudeDegrees>
            </Position>
            <AltitudeMeters>28</AltitudeMeters>
            <DistanceMeters>NAN</DistanceMeters>
          </Trackpoint>
          <Trackpoint>
            <Time>2022-09-24T15:29:33.000Z</Time>
            <Position>
              <LatitudeDegrees>43.32334242761135101318359375</LatitudeDegrees>
              <LongitudeDegrees>-2.7506628446280956268310546875</LongitudeDegrees>
            </Position>
            <AltitudeMeters>28</AltitudeMeters>
            <DistanceMeters>NAN</DistanceMeters>
          </Trackpoint>
          <Trackpoint>
            <Time>2022-09-24T15:29:34.000Z</Time>
            <Position>
              <LatitudeDegrees>43.32340956665575504302978515625</LatitudeDegrees>
              <LongitudeDegrees>-2.75073501281440258026123046875</LongitudeDegrees>
            </Position>
            <AltitudeMeters>27.3999996185302734375</AltitudeMeters>
            <DistanceMeters>NAN</DistanceMeters>
          </Trackpoint>
          <Trackpoint>
            <Time>2022-09-24T15:29:35.000Z</Time>
            <Position>
              <LatitudeDegrees>43.323480226099491119384765625</LatitudeDegrees>
              <LongitudeDegrees>-2.75080659426748752593994140625</LongitudeDegrees>
            </Position>
            <AltitudeMeters>26.200000762939453125</AltitudeMeters>
            <DistanceMeters>NAN</DistanceMeters>
          </Trackpoint>
          <Trackpoint>
            <Time>2022-09-24T15:29:36.000Z</Time>
            <Position>
              <LatitudeDegrees>43.32355256192386150360107421875</LatitudeDegrees>
              <LongitudeDegrees>-2.750880606472492218017578125</LongitudeDegrees>
            </Position>
            <AltitudeMeters>26.200000762939453125</AltitudeMeters>
            <DistanceMeters>NAN</DistanceMeters>
          </Trackpoint>
          <Trackpoint>
            <Time>2022-09-24T15:29:37.000Z</Time>
            <Position>
              <LatitudeDegrees>43.32362447865307331085205078125</LatitudeDegrees>
              <LongitudeDegrees>-2.75095663033425807952880859375</LongitudeDegrees>
            </Position>
            <AltitudeMeters>25.6000003814697265625</AltitudeMeters>
            <DistanceMeters>NAN</DistanceMeters>
          </Trackpoint>
          <Trackpoint>
            <Time>2022-09-24T15:29:38.000Z</Time>
            <Position>
              <LatitudeDegrees>43.3236996643245220184326171875</LatitudeDegrees>
              <LongitudeDegrees>-2.751026786863803863525390625</LongitudeDegrees>
            </Position>
            <AltitudeMeters>25.3999996185302734375</AltitudeMeters>
            <DistanceMeters>NAN</DistanceMeters>
          </Trackpoint>
          <Trackpoint>
            <Time>2022-09-24T15:29:39.000Z</Time>
            <Position>
              <LatitudeDegrees>43.32377484999597072601318359375</LatitudeDegrees>
              <LongitudeDegrees>-2.751084454357624053955078125</LongitudeDegrees>
            </Position>
            <AltitudeMeters>25.3999996185302734375</AltitudeMeters>
            <DistanceMeters>NAN</DistanceMeters>
          </Trackpoint>
          <Trackpoint>
            <Time>2022-09-24T15:29:40.000Z</Time>
            <Position>
              <LatitudeDegrees>43.3238538913428783416748046875</LatitudeDegrees>
              <LongitudeDegrees>-2.75113550014793872833251953125</LongitudeDegrees>
            </Position>
            <AltitudeMeters>25</AltitudeMeters>
            <DistanceMeters>NAN</DistanceMeters>
          </Trackpoint>
          <Trackpoint>
            <Time>2022-09-24T15:29:41.000Z</Time>
            <Position>
              <LatitudeDegrees>43.32392991520464420318603515625</LatitudeDegrees>
              <LongitudeDegrees>-2.7511895634233951568603515625</LongitudeDegrees>
            </Position>
            <AltitudeMeters>24.799999237060546875</AltitudeMeters>
            <DistanceMeters>NAN</DistanceMeters>
          </Trackpoint>
          <Trackpoint>
            <Time>2022-09-24T15:29:42.000Z</Time>
            <Position>
              <LatitudeDegrees>43.32399931736290454864501953125</LatitudeDegrees>
              <LongitudeDegrees>-2.75125837884843349456787109375</LongitudeDegrees>
            </Position>
            <AltitudeMeters>24.799999237060546875</AltitudeMeters>
            <DistanceMeters>NAN</DistanceMeters>
          </Trackpoint>
          <Trackpoint>
            <Time>2022-09-24T15:29:43.000Z</Time>
            <Position>
              <LatitudeDegrees>43.3240627683699131011962890625</LatitudeDegrees>
              <LongitudeDegrees>-2.7513390965759754180908203125</LongitudeDegrees>
            </Position>
            <AltitudeMeters>24</AltitudeMeters>
            <DistanceMeters>NAN</DistanceMeters>
          </Trackpoint>
          <Trackpoint>
            <Time>2022-09-24T15:29:44.000Z</Time>
            <Position>
              <LatitudeDegrees>43.32412202842533588409423828125</LatitudeDegrees>
              <LongitudeDegrees>-2.7514336444437503814697265625</LongitudeDegrees>
            </Position>
            <AltitudeMeters>24</AltitudeMeters>
            <DistanceMeters>NAN</DistanceMeters>
          </Trackpoint>
          <Trackpoint>
            <Time>2022-09-24T15:29:45.000Z</Time>
            <Position>
              <LatitudeDegrees>43.32417516969144344329833984375</LatitudeDegrees>
              <LongitudeDegrees>-2.7515375800430774688720703125</LongitudeDegrees>
            </Position>
            <AltitudeMeters>23.3999996185302734375</AltitudeMeters>
            <DistanceMeters>NAN</DistanceMeters>
          </Trackpoint>
          <Trackpoint>
            <Time>2022-09-24T15:29:46.000Z</Time>
            <Position>
              <LatitudeDegrees>43.3242216892540454864501953125</LatitudeDegrees>
              <LongitudeDegrees>-2.7516472153365612030029296875</LongitudeDegrees>
            </Position>
            <AltitudeMeters>23.3999996185302734375</AltitudeMeters>
            <DistanceMeters>NAN</DistanceMeters>
          </Trackpoint>
          <Trackpoint>
            <Time>2022-09-24T15:29:47.000Z</Time>
            <Position>
              <LatitudeDegrees>43.3242716453969478607177734375</LatitudeDegrees>
              <LongitudeDegrees>-2.7517568506300449371337890625</LongitudeDegrees>
            </Position>
            <AltitudeMeters>23.3999996185302734375</AltitudeMeters>
            <DistanceMeters>NAN</DistanceMeters>
          </Trackpoint>
          <Trackpoint>
            <Time>2022-09-24T15:29:48.000Z</Time>
            <Position>
              <LatitudeDegrees>43.32432143390178680419921875</LatitudeDegrees>
              <LongitudeDegrees>-2.7518631331622600555419921875</LongitudeDegrees>
            </Position>
            <AltitudeMeters>23.6000003814697265625</AltitudeMeters>
            <DistanceMeters>NAN</DistanceMeters>
          </Trackpoint>
          <Trackpoint>
            <Time>2022-09-24T15:29:49.000Z</Time>
            <Position>
              <LatitudeDegrees>43.32437113858759403228759765625</LatitudeDegrees>
              <LongitudeDegrees>-2.7519719302654266357421875</LongitudeDegrees>
            </Position>
            <AltitudeMeters>23.6000003814697265625</AltitudeMeters>
            <DistanceMeters>NAN</DistanceMeters>
          </Trackpoint>
          <Trackpoint>
            <Time>2022-09-24T15:29:50.000Z</Time>
            <Position>
              <LatitudeDegrees>43.3244201727211475372314453125</LatitudeDegrees>
              <LongitudeDegrees>-2.752084247767925262451171875</LongitudeDegrees>
            </Position>
            <AltitudeMeters>23.6000003814697265625</AltitudeMeters>
            <DistanceMeters>NAN</DistanceMeters>
          </Trackpoint>
          <Trackpoint>
            <Time>2022-09-24T15:29:51.000Z</Time>
            <Position>
              <LatitudeDegrees>43.324469961225986480712890625</LatitudeDegrees>
              <LongitudeDegrees>-2.75219388306140899658203125</LongitudeDegrees>
            </Position>
            <AltitudeMeters>22.6000003814697265625</AltitudeMeters>
            <DistanceMeters>NAN</DistanceMeters>
          </Trackpoint>
          <Trackpoint>
            <Time>2022-09-24T15:29:52.000Z</Time>
            <Position>
              <LatitudeDegrees>43.32452201284468173980712890625</LatitudeDegrees>
              <LongitudeDegrees>-2.75230075232684612274169921875</LongitudeDegrees>
            </Position>
            <AltitudeMeters>21.6000003814697265625</AltitudeMeters>
            <DistanceMeters>NAN</DistanceMeters>
          </Trackpoint>
          <Trackpoint>
            <Time>2022-09-24T15:29:53.000Z</Time>
            <Position>
              <LatitudeDegrees>43.3245717175304889678955078125</LatitudeDegrees>
              <LongitudeDegrees>-2.75241005234420299530029296875</LongitudeDegrees>
            </Position>
            <AltitudeMeters>21.6000003814697265625</AltitudeMeters>
            <DistanceMeters>NAN</DistanceMeters>
          </Trackpoint>
          <Trackpoint>
            <Time>2022-09-24T15:29:54.000Z</Time>
            <Position>
              <LatitudeDegrees>43.32462091930210590362548828125</LatitudeDegrees>
              <LongitudeDegrees>-2.7525199390947818756103515625</LongitudeDegrees>
            </Position>
            <AltitudeMeters>21.6000003814697265625</AltitudeMeters>
            <DistanceMeters>NAN</DistanceMeters>
          </Trackpoint>
          <Trackpoint>
            <Time>2022-09-24T15:29:55.000Z</Time>
            <Position>
              <LatitudeDegrees>43.32467121072113513946533203125</LatitudeDegrees>
              <LongitudeDegrees>-2.75263200514018535614013671875</LongitudeDegrees>
            </Position>
            <AltitudeMeters>21.6000003814697265625</AltitudeMeters>
            <DistanceMeters>NAN</DistanceMeters>
          </Trackpoint>
          <Trackpoint>
            <Time>2022-09-24T15:29:56.000Z</Time>
            <Position>
              <LatitudeDegrees>43.3247219212353229522705078125</LatitudeDegrees>
              <LongitudeDegrees>-2.75273141451179981231689453125</LongitudeDegrees>
            </Position>
            <AltitudeMeters>22.200000762939453125</AltitudeMeters>
            <DistanceMeters>NAN</DistanceMeters>
          </Trackpoint>
          <Trackpoint>
            <Time>2022-09-24T15:29:57.000Z</Time>
            <Position>
              <LatitudeDegrees>43.3247732184827327728271484375</LatitudeDegrees>
              <LongitudeDegrees>-2.75282965041697025299072265625</LongitudeDegrees>
            </Position>
            <AltitudeMeters>22.6000003814697265625</AltitudeMeters>
            <DistanceMeters>NAN</DistanceMeters>
          </Trackpoint>
          <Trackpoint>
            <Time>2022-09-24T15:29:58.000Z</Time>
            <Position>
              <LatitudeDegrees>43.3248211629688739776611328125</LatitudeDegrees>
              <LongitudeDegrees>-2.75292838923633098602294921875</LongitudeDegrees>
            </Position>
            <AltitudeMeters>24</AltitudeMeters>
            <DistanceMeters>NAN</DistanceMeters>
          </Trackpoint>
          <Trackpoint>
            <Time>2022-09-24T15:29:59.000Z</Time>
            <Position>
              <LatitudeDegrees>43.32486667670309543609619140625</LatitudeDegrees>
              <LongitudeDegrees>-2.7530255354940891265869140625</LongitudeDegrees>
            </Position>
            <AltitudeMeters>24</AltitudeMeters>
            <DistanceMeters>NAN</DistanceMeters>
          </Trackpoint>
          <Trackpoint>
            <Time>2022-09-24T15:30:00.000Z</Time>
            <Position>
              <LatitudeDegrees>43.32491294480860233306884765625</LatitudeDegrees>
              <LongitudeDegrees>-2.75312150828540325164794921875</LongitudeDegrees>
            </Position>
            <AltitudeMeters>24</AltitudeMeters>
            <DistanceMeters>NAN</DistanceMeters>
          </Trackpoint>
          <Trackpoint>
            <Time>2022-09-24T15:30:01.000Z</Time>
            <Position>
              <LatitudeDegrees>43.3249599672853946685791015625</LatitudeDegrees>
              <LongitudeDegrees>-2.75322125293314456939697265625</LongitudeDegrees>
            </Position>
            <AltitudeMeters>24.3999996185302734375</AltitudeMeters>
            <DistanceMeters>NAN</DistanceMeters>
          </Trackpoint>
          <Trackpoint>
            <Time>2022-09-24T15:30:02.000Z</Time>
            <Position>
              <LatitudeDegrees>43.3249599672853946685791015625</LatitudeDegrees>
              <LongitudeDegrees>-2.75322125293314456939697265625</LongitudeDegrees>
            </Position>
            <AltitudeMeters>24.3999996185302734375</AltitudeMeters>
            <DistanceMeters>NAN</DistanceMeters>
          </Trackpoint>
          <Trackpoint>
            <Time>2022-09-24T15:30:03.000Z</Time>
            <Position>
              <LatitudeDegrees>43.3250558562576770782470703125</LatitudeDegrees>
              <LongitudeDegrees>-2.7534107677638530731201171875</LongitudeDegrees>
            </Position>
            <AltitudeMeters>24.3999996185302734375</AltitudeMeters>
            <DistanceMeters>NAN</DistanceMeters>
          </Trackpoint>
          <Trackpoint>
            <Time>2022-09-24T15:30:04.000Z</Time>
            <Position>
              <LatitudeDegrees>43.3251111768186092376708984375</LatitudeDegrees>
              <LongitudeDegrees>-2.7534999512135982513427734375</LongitudeDegrees>
            </Position>
            <AltitudeMeters>24.200000762939453125</AltitudeMeters>
            <DistanceMeters>NAN</DistanceMeters>
          </Trackpoint>
          <Trackpoint>
            <Time>2022-09-24T15:30:05.000Z</Time>
            <Position>
              <LatitudeDegrees>43.325172029435634613037109375</LatitudeDegrees>
              <LongitudeDegrees>-2.7535841055214405059814453125</LongitudeDegrees>
            </Position>
            <AltitudeMeters>24</AltitudeMeters>
            <DistanceMeters>NAN</DistanceMeters>
          </Trackpoint>
          <Trackpoint>
            <Time>2022-09-24T15:30:06.000Z</Time>
            <Position>
              <LatitudeDegrees>43.325236737728118896484375</LatitudeDegrees>
              <LongitudeDegrees>-2.7536635659635066986083984375</LongitudeDegrees>
            </Position>
            <AltitudeMeters>23.799999237060546875</AltitudeMeters>
            <DistanceMeters>NAN</DistanceMeters>
          </Trackpoint>
          <Trackpoint>
            <Time>2022-09-24T15:30:07.000Z</Time>
            <Position>
              <LatitudeDegrees>43.3253053016960620880126953125</LatitudeDegrees>
              <LongitudeDegrees>-2.7537420205771923065185546875</LongitudeDegrees>
            </Position>
            <AltitudeMeters>23.799999237060546875</AltitudeMeters>
            <DistanceMeters>NAN</DistanceMeters>
          </Trackpoint>
          <Trackpoint>
            <Time>2022-09-24T15:30:08.000Z</Time>
            <Position>
              <LatitudeDegrees>43.32538048736751079559326171875</LatitudeDegrees>
              <LongitudeDegrees>-2.753814272582530975341796875</LongitudeDegrees>
            </Position>
            <AltitudeMeters>23.200000762939453125</AltitudeMeters>
            <DistanceMeters>NAN</DistanceMeters>
          </Trackpoint>
          <Trackpoint>
            <Time>2022-09-24T15:30:09.000Z</Time>
            <Position>
              <LatitudeDegrees>43.32545860670506954193115234375</LatitudeDegrees>
              <LongitudeDegrees>-2.7538774721324443817138671875</LongitudeDegrees>
            </Position>
            <AltitudeMeters>22.799999237060546875</AltitudeMeters>
            <DistanceMeters>NAN</DistanceMeters>
          </Trackpoint>
          <Trackpoint>
            <Time>2022-09-24T15:30:10.000Z</Time>
            <Position>
              <LatitudeDegrees>43.32553924061357975006103515625</LatitudeDegrees>
              <LongitudeDegrees>-2.75393572635948657989501953125</LongitudeDegrees>
            </Position>
            <AltitudeMeters>22.6000003814697265625</AltitudeMeters>
            <DistanceMeters>NAN</DistanceMeters>
          </Trackpoint>
          <Trackpoint>
            <Time>2022-09-24T15:30:11.000Z</Time>
            <Position>
              <LatitudeDegrees>43.32562155090272426605224609375</LatitudeDegrees>
              <LongitudeDegrees>-2.753984928131103515625</LongitudeDegrees>
            </Position>
            <AltitudeMeters>22.6000003814697265625</AltitudeMeters>
            <DistanceMeters>NAN</DistanceMeters>
          </Trackpoint>
          <Trackpoint>
            <Time>2022-09-24T15:30:12.000Z</Time>
            <Position>
              <LatitudeDegrees>43.32570570521056652069091796875</LatitudeDegrees>
              <LongitudeDegrees>-2.75403060950338840484619140625</LongitudeDegrees>
            </Position>
            <AltitudeMeters>22.6000003814697265625</AltitudeMeters>
            <DistanceMeters>NAN</DistanceMeters>
          </Trackpoint>
          <Trackpoint>
            <Time>2022-09-24T15:30:13.000Z</Time>
            <Position>
              <LatitudeDegrees>43.32579019479453563690185546875</LatitudeDegrees>
              <LongitudeDegrees>-2.7540766261518001556396484375</LongitudeDegrees>
            </Position>
            <AltitudeMeters>22.6000003814697265625</AltitudeMeters>
            <DistanceMeters>NAN</DistanceMeters>
          </Trackpoint>
          <Trackpoint>
            <Time>2022-09-24T15:30:14.000Z</Time>
            <Position>
              <LatitudeDegrees>43.32587552256882190704345703125</LatitudeDegrees>
              <LongitudeDegrees>-2.7541185356676578521728515625</LongitudeDegrees>
            </Position>
            <AltitudeMeters>22.3999996185302734375</AltitudeMeters>
            <DistanceMeters>NAN</DistanceMeters>
          </Trackpoint>
          <Trackpoint>
            <Time>2022-09-24T15:30:15.000Z</Time>
            <Position>
              <LatitudeDegrees>43.325959257781505584716796875</LatitudeDegrees>
              <LongitudeDegrees>-2.7541617862880229949951171875</LongitudeDegrees>
            </Position>
            <AltitudeMeters>22.3999996185302734375</AltitudeMeters>
            <DistanceMeters>NAN</DistanceMeters>
          </Trackpoint>
          <Trackpoint>
            <Time>2022-09-24T15:30:16.000Z</Time>
            <Position>
              <LatitudeDegrees>43.32604207098484039306640625</LatitudeDegrees>
              <LongitudeDegrees>-2.7542057074606418609619140625</LongitudeDegrees>
            </Position>
            <AltitudeMeters>21.6000003814697265625</AltitudeMeters>
            <DistanceMeters>NAN</DistanceMeters>
          </Trackpoint>
          <Trackpoint>
            <Time>2022-09-24T15:30:17.000Z</Time>
            <Position>
              <LatitudeDegrees>43.326126895844936370849609375</LatitudeDegrees>
              <LongitudeDegrees>-2.7542479522526264190673828125</LongitudeDegrees>
            </Position>
            <AltitudeMeters>21.6000003814697265625</AltitudeMeters>
            <DistanceMeters>NAN</DistanceMeters>
          </Trackpoint>
          <Trackpoint>
            <Time>2022-09-24T15:30:18.000Z</Time>
            <Position>
              <LatitudeDegrees>43.32621079869568347930908203125</LatitudeDegrees>
              <LongitudeDegrees>-2.75429137051105499267578125</LongitudeDegrees>
            </Position>
            <AltitudeMeters>21.6000003814697265625</AltitudeMeters>
            <DistanceMeters>NAN</DistanceMeters>
          </Trackpoint>
          <Trackpoint>
            <Time>2022-09-24T15:30:19.000Z</Time>
            <Position>
              <LatitudeDegrees>43.326294533908367156982421875</LatitudeDegrees>
              <LongitudeDegrees>-2.7543391473591327667236328125</LongitudeDegrees>
            </Position>
            <AltitudeMeters>21.6000003814697265625</AltitudeMeters>
            <DistanceMeters>NAN</DistanceMeters>
          </Trackpoint>
          <Trackpoint>
            <Time>2022-09-24T15:30:20.000Z</Time>
            <Position>
              <LatitudeDegrees>43.32637868821620941162109375</LatitudeDegrees>
              <LongitudeDegrees>-2.7543897740542888641357421875</LongitudeDegrees>
            </Position>
            <AltitudeMeters>21.6000003814697265625</AltitudeMeters>
            <DistanceMeters>NAN</DistanceMeters>
          </Trackpoint>
          <Trackpoint>
            <Time>2022-09-24T15:30:21.000Z</Time>
            <Position>
              <LatitudeDegrees>43.32637868821620941162109375</LatitudeDegrees>
              <LongitudeDegrees>-2.7543897740542888641357421875</LongitudeDegrees>
            </Position>
            <AltitudeMeters>21.6000003814697265625</AltitudeMeters>
            <DistanceMeters>NAN</DistanceMeters>
          </Trackpoint>
          <Trackpoint>
            <Time>2022-09-24T15:30:22.000Z</Time>
            <Position>
              <LatitudeDegrees>43.32653987221419811248779296875</LatitudeDegrees>
              <LongitudeDegrees>-2.75449614040553569793701171875</LongitudeDegrees>
            </Position>
            <AltitudeMeters>21.6000003814697265625</AltitudeMeters>
            <DistanceMeters>NAN</DistanceMeters>
          </Trackpoint>
          <Trackpoint>
            <Time>2022-09-24T15:30:23.000Z</Time>
            <Position>
              <LatitudeDegrees>43.32662017084658145904541015625</LatitudeDegrees>
              <LongitudeDegrees>-2.75455112569034099578857421875</LongitudeDegrees>
            </Position>
            <AltitudeMeters>20.3999996185302734375</AltitudeMeters>
            <DistanceMeters>NAN</DistanceMeters>
          </Trackpoint>
          <Trackpoint>
            <Time>2022-09-24T15:30:24.000Z</Time>
            <Position>
              <LatitudeDegrees>43.3267020620405673980712890625</LatitudeDegrees>
              <LongitudeDegrees>-2.7546058595180511474609375</LongitudeDegrees>
            </Position>
            <AltitudeMeters>20.3999996185302734375</AltitudeMeters>
            <DistanceMeters>NAN</DistanceMeters>
          </Trackpoint>
          <Trackpoint>
            <Time>2022-09-24T15:30:25.000Z</Time>
            <Position>
              <LatitudeDegrees>43.3267843723297119140625</LatitudeDegrees>
              <LongitudeDegrees>-2.75465522892773151397705078125</LongitudeDegrees>
            </Position>
            <AltitudeMeters>20.3999996185302734375</AltitudeMeters>
            <DistanceMeters>NAN</DistanceMeters>
          </Trackpoint>
          <Trackpoint>
            <Time>2022-09-24T15:30:26.000Z</Time>
            <Position>
              <LatitudeDegrees>43.3268643356859683990478515625</LatitudeDegrees>
              <LongitudeDegrees>-2.754705436527729034423828125</LongitudeDegrees>
            </Position>
            <AltitudeMeters>19.799999237060546875</AltitudeMeters>
            <DistanceMeters>NAN</DistanceMeters>
          </Trackpoint>
          <Trackpoint>
            <Time>2022-09-24T15:30:27.000Z</Time>
            <Position>
              <LatitudeDegrees>43.32694237120449542999267578125</LatitudeDegrees>
              <LongitudeDegrees>-2.75475363247096538543701171875</LongitudeDegrees>
            </Position>
            <AltitudeMeters>19.6000003814697265625</AltitudeMeters>
            <DistanceMeters>NAN</DistanceMeters>
          </Trackpoint>
          <Trackpoint>
            <Time>2022-09-24T15:30:28.000Z</Time>
            <Position>
              <LatitudeDegrees>43.32701864652335643768310546875</LatitudeDegrees>
              <LongitudeDegrees>-2.75480040349066257476806640625</LongitudeDegrees>
            </Position>
            <AltitudeMeters>19.799999237060546875</AltitudeMeters>
            <DistanceMeters>NAN</DistanceMeters>
          </Trackpoint>
          <Trackpoint>
            <Time>2022-09-24T15:30:29.000Z</Time>
            <Position>
              <LatitudeDegrees>43.3270909823477268218994140625</LatitudeDegrees>
              <LongitudeDegrees>-2.754848934710025787353515625</LongitudeDegrees>
            </Position>
            <AltitudeMeters>19.799999237060546875</AltitudeMeters>
            <DistanceMeters>NAN</DistanceMeters>
          </Trackpoint>
          <Trackpoint>
            <Time>2022-09-24T15:30:30.000Z</Time>
            <Position>
              <LatitudeDegrees>43.32716247998178005218505859375</LatitudeDegrees>
              <LongitudeDegrees>-2.7548946999013423919677734375</LongitudeDegrees>
            </Position>
            <AltitudeMeters>20.799999237060546875</AltitudeMeters>
            <DistanceMeters>NAN</DistanceMeters>
          </Trackpoint>
          <Trackpoint>
            <Time>2022-09-24T15:30:31.000Z</Time>
            <Position>
              <LatitudeDegrees>43.3272324688732624053955078125</LatitudeDegrees>
              <LongitudeDegrees>-2.75494272820651531219482421875</LongitudeDegrees>
            </Position>
            <AltitudeMeters>21.799999237060546875</AltitudeMeters>
            <DistanceMeters>NAN</DistanceMeters>
          </Trackpoint>
          <Trackpoint>
            <Time>2022-09-24T15:30:32.000Z</Time>
            <Position>
              <LatitudeDegrees>43.3273015357553958892822265625</LatitudeDegrees>
              <LongitudeDegrees>-2.75498966686427593231201171875</LongitudeDegrees>
            </Position>
            <AltitudeMeters>22.6000003814697265625</AltitudeMeters>
            <DistanceMeters>NAN</DistanceMeters>
          </Trackpoint>
          <Trackpoint>
            <Time>2022-09-24T15:30:33.000Z</Time>
            <Position>
              <LatitudeDegrees>43.32736901007592678070068359375</LatitudeDegrees>
              <LongitudeDegrees>-2.7550395391881465911865234375</LongitudeDegrees>
            </Position>
            <AltitudeMeters>22.6000003814697265625</AltitudeMeters>
            <DistanceMeters>NAN</DistanceMeters>
          </Trackpoint>
          <Trackpoint>
            <Time>2022-09-24T15:30:34.000Z</Time>
            <Position>
              <LatitudeDegrees>43.32743338309228420257568359375</LatitudeDegrees>
              <LongitudeDegrees>-2.75509661994874477386474609375</LongitudeDegrees>
            </Position>
            <AltitudeMeters>23.200000762939453125</AltitudeMeters>
            <DistanceMeters>NAN</DistanceMeters>
          </Trackpoint>
          <Trackpoint>
            <Time>2022-09-24T15:30:35.000Z</Time>
            <Position>
              <LatitudeDegrees>43.32749239169061183929443359375</LatitudeDegrees>
              <LongitudeDegrees>-2.755157388746738433837890625</LongitudeDegrees>
            </Position>
            <AltitudeMeters>23.200000762939453125</AltitudeMeters>
            <DistanceMeters>NAN</DistanceMeters>
          </Trackpoint>
          <Trackpoint>
            <Time>2022-09-24T15:30:36.000Z</Time>
            <Position>
              <LatitudeDegrees>43.32754720933735370635986328125</LatitudeDegrees>
              <LongitudeDegrees>-2.75522000156342983245849609375</LongitudeDegrees>
            </Position>
            <AltitudeMeters>23</AltitudeMeters>
            <DistanceMeters>NAN</DistanceMeters>
          </Trackpoint>
          <Trackpoint>
            <Time>2022-09-24T15:30:37.000Z</Time>
            <Position>
              <LatitudeDegrees>43.3276006020605564117431640625</LatitudeDegrees>
              <LongitudeDegrees>-2.75528605096042156219482421875</LongitudeDegrees>
            </Position>
            <AltitudeMeters>23</AltitudeMeters>
            <DistanceMeters>NAN</DistanceMeters>
          </Trackpoint>
          <Trackpoint>
            <Time>2022-09-24T15:30:38.000Z</Time>
            <Position>
              <LatitudeDegrees>43.3276515640318393707275390625</LatitudeDegrees>
              <LongitudeDegrees>-2.75535243563354015350341796875</LongitudeDegrees>
            </Position>
            <AltitudeMeters>23</AltitudeMeters>
            <DistanceMeters>NAN</DistanceMeters>
          </Trackpoint>
          <Trackpoint>
            <Time>2022-09-24T15:30:39.000Z</Time>
            <Position>
              <LatitudeDegrees>43.3277001790702342987060546875</LatitudeDegrees>
              <LongitudeDegrees>-2.755420915782451629638671875</LongitudeDegrees>
            </Position>
            <AltitudeMeters>23</AltitudeMeters>
            <DistanceMeters>NAN</DistanceMeters>
          </Trackpoint>
          <Trackpoint>
            <Time>2022-09-24T15:30:40.000Z</Time>
            <Position>
              <LatitudeDegrees>43.3277481235563755035400390625</LatitudeDegrees>
              <LongitudeDegrees>-2.75549140758812427520751953125</LongitudeDegrees>
            </Position>
            <AltitudeMeters>23</AltitudeMeters>
            <DistanceMeters>NAN</DistanceMeters>
          </Trackpoint>
          <Trackpoint>
            <Time>2022-09-24T15:30:41.000Z</Time>
            <Position>
              <LatitudeDegrees>43.32779397256672382354736328125</LatitudeDegrees>
              <LongitudeDegrees>-2.7555588819086551666259765625</LongitudeDegrees>
            </Position>
            <AltitudeMeters>23</AltitudeMeters>
            <DistanceMeters>NAN</DistanceMeters>
          </Trackpoint>
          <Trackpoint>
            <Time>2022-09-24T15:30:42.000Z</Time>
            <Position>
              <LatitudeDegrees>43.32783973775804042816162109375</LatitudeDegrees>
              <LongitudeDegrees>-2.75562551803886890411376953125</LongitudeDegrees>
            </Position>
            <AltitudeMeters>23</AltitudeMeters>
            <DistanceMeters>NAN</DistanceMeters>
          </Trackpoint>
          <Trackpoint>
            <Time>2022-09-24T15:30:43.000Z</Time>
            <Position>
              <LatitudeDegrees>43.32788198255002498626708984375</LatitudeDegrees>
              <LongitudeDegrees>-2.75569559074938297271728515625</LongitudeDegrees>
            </Position>
            <AltitudeMeters>23</AltitudeMeters>
            <DistanceMeters>NAN</DistanceMeters>
          </Trackpoint>
          <Trackpoint>
            <Time>2022-09-24T15:30:44.000Z</Time>
            <Position>
              <LatitudeDegrees>43.32792791537940502166748046875</LatitudeDegrees>
              <LongitudeDegrees>-2.75575929321348667144775390625</LongitudeDegrees>
            </Position>
            <AltitudeMeters>23</AltitudeMeters>
            <DistanceMeters>NAN</DistanceMeters>
          </Trackpoint>
          <Trackpoint>
            <Time>2022-09-24T15:30:45.000Z</Time>
            <Position>
              <LatitudeDegrees>43.327971585094928741455078125</LatitudeDegrees>
              <LongitudeDegrees>-2.755826599895954132080078125</LongitudeDegrees>
            </Position>
            <AltitudeMeters>23</AltitudeMeters>
            <DistanceMeters>NAN</DistanceMeters>
          </Trackpoint>
          <Trackpoint>
            <Time>2022-09-24T15:30:46.000Z</Time>
            <Position>
              <LatitudeDegrees>43.3280183561146259307861328125</LatitudeDegrees>
              <LongitudeDegrees>-2.75588837452232837677001953125</LongitudeDegrees>
            </Position>
            <AltitudeMeters>23</AltitudeMeters>
            <DistanceMeters>NAN</DistanceMeters>
          </Trackpoint>
          <Trackpoint>
            <Time>2022-09-24T15:30:47.000Z</Time>
            <Position>
              <LatitudeDegrees>43.32806772552430629730224609375</LatitudeDegrees>
              <LongitudeDegrees>-2.75594989769160747528076171875</LongitudeDegrees>
            </Position>
            <AltitudeMeters>23</AltitudeMeters>
            <DistanceMeters>NAN</DistanceMeters>
          </Trackpoint>
          <Trackpoint>
            <Time>2022-09-24T15:30:48.000Z</Time>
            <Position>
              <LatitudeDegrees>43.32812036387622356414794921875</LatitudeDegrees>
              <LongitudeDegrees>-2.75600798428058624267578125</LongitudeDegrees>
            </Position>
            <AltitudeMeters>23.3999996185302734375</AltitudeMeters>
            <DistanceMeters>NAN</DistanceMeters>
          </Trackpoint>
          <Trackpoint>
            <Time>2022-09-24T15:30:49.000Z</Time>
            <Position>
              <LatitudeDegrees>43.32817585207521915435791015625</LatitudeDegrees>
              <LongitudeDegrees>-2.75605919770896434783935546875</LongitudeDegrees>
            </Position>
            <AltitudeMeters>23.3999996185302734375</AltitudeMeters>
            <DistanceMeters>NAN</DistanceMeters>
          </Trackpoint>
          <Trackpoint>
            <Time>2022-09-24T15:30:50.000Z</Time>
            <Position>
              <LatitudeDegrees>43.32823134027421474456787109375</LatitudeDegrees>
              <LongitudeDegrees>-2.75610311888158321380615234375</LongitudeDegrees>
            </Position>
            <AltitudeMeters>23.6000003814697265625</AltitudeMeters>
            <DistanceMeters>NAN</DistanceMeters>
          </Trackpoint>
          <Trackpoint>
            <Time>2022-09-24T15:30:51.000Z</Time>
            <Position>
              <LatitudeDegrees>43.3282879181206226348876953125</LatitudeDegrees>
              <LongitudeDegrees>-2.75614888407289981842041015625</LongitudeDegrees>
            </Position>
            <AltitudeMeters>23.3999996185302734375</AltitudeMeters>
            <DistanceMeters>NAN</DistanceMeters>
          </Trackpoint>
          <Trackpoint>
            <Time>2022-09-24T15:30:52.000Z</Time>
            <Position>
              <LatitudeDegrees>43.32834416069090366363525390625</LatitudeDegrees>
              <LongitudeDegrees>-2.7561949007213115692138671875</LongitudeDegrees>
            </Position>
            <AltitudeMeters>23.3999996185302734375</AltitudeMeters>
            <DistanceMeters>NAN</DistanceMeters>
          </Trackpoint>
          <Trackpoint>
            <Time>2022-09-24T15:30:53.000Z</Time>
            <Position>
              <LatitudeDegrees>43.32839705049991607666015625</LatitudeDegrees>
              <LongitudeDegrees>-2.75624359957873821258544921875</LongitudeDegrees>
            </Position>
            <AltitudeMeters>23.6000003814697265625</AltitudeMeters>
            <DistanceMeters>NAN</DistanceMeters>
          </Trackpoint>
          <Trackpoint>
            <Time>2022-09-24T15:30:54.000Z</Time>
            <Position>
              <LatitudeDegrees>43.32844625227153301239013671875</LatitudeDegrees>
              <LongitudeDegrees>-2.7562983334064483642578125</LongitudeDegrees>
            </Position>
            <AltitudeMeters>23.799999237060546875</AltitudeMeters>
            <DistanceMeters>NAN</DistanceMeters>
          </Trackpoint>
          <Trackpoint>
            <Time>2022-09-24T15:30:55.000Z</Time>
            <Position>
              <LatitudeDegrees>43.32844625227153301239013671875</LatitudeDegrees>
              <LongitudeDegrees>-2.7562983334064483642578125</LongitudeDegrees>
            </Position>
            <AltitudeMeters>23.799999237060546875</AltitudeMeters>
            <DistanceMeters>NAN</DistanceMeters>
          </Trackpoint>
          <Trackpoint>
            <Time>2022-09-24T15:30:56.000Z</Time>
            <Position>
              <LatitudeDegrees>43.32853158004581928253173828125</LatitudeDegrees>
              <LongitudeDegrees>-2.75642649270594120025634765625</LongitudeDegrees>
            </Position>
            <AltitudeMeters>23.799999237060546875</AltitudeMeters>
            <DistanceMeters>NAN</DistanceMeters>
          </Trackpoint>
          <Trackpoint>
            <Time>2022-09-24T15:30:57.000Z</Time>
            <Position>
              <LatitudeDegrees>43.32856527529656887054443359375</LatitudeDegrees>
              <LongitudeDegrees>-2.756503187119960784912109375</LongitudeDegrees>
            </Position>
            <AltitudeMeters>23.799999237060546875</AltitudeMeters>
            <DistanceMeters>NAN</DistanceMeters>
          </Trackpoint>
          <Trackpoint>
            <Time>2022-09-24T15:30:58.000Z</Time>
            <Position>
              <LatitudeDegrees>43.32859293557703495025634765625</LatitudeDegrees>
              <LongitudeDegrees>-2.75658524595201015472412109375</LongitudeDegrees>
            </Position>
            <AltitudeMeters>24</AltitudeMeters>
            <DistanceMeters>NAN</DistanceMeters>
          </Trackpoint>
          <Trackpoint>
            <Time>2022-09-24T15:30:59.000Z</Time>
            <Position>
              <LatitudeDegrees>43.32861288450658321380615234375</LatitudeDegrees>
              <LongitudeDegrees>-2.75667208246886730194091796875</LongitudeDegrees>
            </Position>
            <AltitudeMeters>24</AltitudeMeters>
            <DistanceMeters>NAN</DistanceMeters>
          </Trackpoint>
          <Trackpoint>
            <Time>2022-09-24T15:31:00.000Z</Time>
            <Position>
              <LatitudeDegrees>43.32863048650324344635009765625</LatitudeDegrees>
              <LongitudeDegrees>-2.7567608468234539031982421875</LongitudeDegrees>
            </Position>
            <AltitudeMeters>24</AltitudeMeters>
            <DistanceMeters>NAN</DistanceMeters>
          </Trackpoint>
          <Trackpoint>
            <Time>2022-09-24T15:31:01.000Z</Time>
            <Position>
              <LatitudeDegrees>43.32864959724247455596923828125</LatitudeDegrees>
              <LongitudeDegrees>-2.75684877298772335052490234375</LongitudeDegrees>
            </Position>
            <AltitudeMeters>23.799999237060546875</AltitudeMeters>
            <DistanceMeters>NAN</DistanceMeters>
          </Trackpoint>
          <Trackpoint>
            <Time>2022-09-24T15:31:02.000Z</Time>
            <Position>
              <LatitudeDegrees>43.32866728305816650390625</LatitudeDegrees>
              <LongitudeDegrees>-2.756942398846149444580078125</LongitudeDegrees>
            </Position>
            <AltitudeMeters>23.799999237060546875</AltitudeMeters>
            <DistanceMeters>NAN</DistanceMeters>
          </Trackpoint>
          <Trackpoint>
            <Time>2022-09-24T15:31:03.000Z</Time>
            <Position>
              <LatitudeDegrees>43.32867910154163837432861328125</LatitudeDegrees>
              <LongitudeDegrees>-2.75703971274197101593017578125</LongitudeDegrees>
            </Position>
            <AltitudeMeters>23.799999237060546875</AltitudeMeters>
            <DistanceMeters>NAN</DistanceMeters>
          </Trackpoint>
          <Trackpoint>
            <Time>2022-09-24T15:31:04.000Z</Time>
            <Position>
              <LatitudeDegrees>43.32867910154163837432861328125</LatitudeDegrees>
              <LongitudeDegrees>-2.75703971274197101593017578125</LongitudeDegrees>
            </Position>
            <AltitudeMeters>23.799999237060546875</AltitudeMeters>
            <DistanceMeters>NAN</DistanceMeters>
          </Trackpoint>
          <Trackpoint>
            <Time>2022-09-24T15:31:05.000Z</Time>
            <Position>
              <LatitudeDegrees>43.32870156504213809967041015625</LatitudeDegrees>
              <LongitudeDegrees>-2.75724104605615139007568359375</LongitudeDegrees>
            </Position>
            <AltitudeMeters>23.3999996185302734375</AltitudeMeters>
            <DistanceMeters>NAN</DistanceMeters>
          </Trackpoint>
          <Trackpoint>
            <Time>2022-09-24T15:31:06.000Z</Time>
            <Position>
              <LatitudeDegrees>43.328713215887546539306640625</LatitudeDegrees>
              <LongitudeDegrees>-2.75734347291290760040283203125</LongitudeDegrees>
            </Position>
            <AltitudeMeters>23</AltitudeMeters>
            <DistanceMeters>NAN</DistanceMeters>
          </Trackpoint>
          <Trackpoint>
            <Time>2022-09-24T15:31:07.000Z</Time>
            <Position>
              <LatitudeDegrees>43.32872319035232067108154296875</LatitudeDegrees>
              <LongitudeDegrees>-2.75745109654963016510009765625</LongitudeDegrees>
            </Position>
            <AltitudeMeters>23</AltitudeMeters>
            <DistanceMeters>NAN</DistanceMeters>
          </Trackpoint>
          <Trackpoint>
            <Time>2022-09-24T15:31:08.000Z</Time>
            <Position>
              <LatitudeDegrees>43.32873442210257053375244140625</LatitudeDegrees>
              <LongitudeDegrees>-2.7575571276247501373291015625</LongitudeDegrees>
            </Position>
            <AltitudeMeters>23</AltitudeMeters>
            <DistanceMeters>NAN</DistanceMeters>
          </Trackpoint>
          <Trackpoint>
            <Time>2022-09-24T15:31:09.000Z</Time>
            <Position>
              <LatitudeDegrees>43.328739367425441741943359375</LatitudeDegrees>
              <LongitudeDegrees>-2.75766550563275814056396484375</LongitudeDegrees>
            </Position>
            <AltitudeMeters>22.799999237060546875</AltitudeMeters>
            <DistanceMeters>NAN</DistanceMeters>
          </Trackpoint>
          <Trackpoint>
            <Time>2022-09-24T15:31:10.000Z</Time>
            <Position>
              <LatitudeDegrees>43.3287459053099155426025390625</LatitudeDegrees>
              <LongitudeDegrees>-2.75777245871722698211669921875</LongitudeDegrees>
            </Position>
            <AltitudeMeters>22.200000762939453125</AltitudeMeters>
            <DistanceMeters>NAN</DistanceMeters>
          </Trackpoint>
          <Trackpoint>
            <Time>2022-09-24T15:31:11.000Z</Time>
            <Position>
              <LatitudeDegrees>43.32874800078570842742919921875</LatitudeDegrees>
              <LongitudeDegrees>-2.75788008235394954681396484375</LongitudeDegrees>
            </Position>
            <AltitudeMeters>22.200000762939453125</AltitudeMeters>
            <DistanceMeters>NAN</DistanceMeters>
          </Trackpoint>
          <Trackpoint>
            <Time>2022-09-24T15:31:12.000Z</Time>
            <Position>
              <LatitudeDegrees>43.32873978652060031890869140625</LatitudeDegrees>
              <LongitudeDegrees>-2.75799147784709930419921875</LongitudeDegrees>
            </Position>
            <AltitudeMeters>21.6000003814697265625</AltitudeMeters>
            <DistanceMeters>NAN</DistanceMeters>
          </Trackpoint>
          <Trackpoint>
            <Time>2022-09-24T15:31:13.000Z</Time>
            <Position>
              <LatitudeDegrees>43.328728638589382171630859375</LatitudeDegrees>
              <LongitudeDegrees>-2.75810421444475650787353515625</LongitudeDegrees>
            </Position>
            <AltitudeMeters>21</AltitudeMeters>
            <DistanceMeters>NAN</DistanceMeters>
          </Trackpoint>
          <Trackpoint>
            <Time>2022-09-24T15:31:14.000Z</Time>
            <Position>
              <LatitudeDegrees>43.32871430553495883941650390625</LatitudeDegrees>
              <LongitudeDegrees>-2.75821988470852375030517578125</LongitudeDegrees>
            </Position>
            <AltitudeMeters>21</AltitudeMeters>
            <DistanceMeters>NAN</DistanceMeters>
          </Trackpoint>
          <Trackpoint>
            <Time>2022-09-24T15:31:15.000Z</Time>
            <Position>
              <LatitudeDegrees>43.32869301550090312957763671875</LatitudeDegrees>
              <LongitudeDegrees>-2.7583356387913227081298828125</LongitudeDegrees>
            </Position>
            <AltitudeMeters>20.3999996185302734375</AltitudeMeters>
            <DistanceMeters>NAN</DistanceMeters>
          </Trackpoint>
          <Trackpoint>
            <Time>2022-09-24T15:31:16.000Z</Time>
            <Position>
              <LatitudeDegrees>43.3286661095917224884033203125</LatitudeDegrees>
              <LongitudeDegrees>-2.75844921357929706573486328125</LongitudeDegrees>
            </Position>
            <AltitudeMeters>20</AltitudeMeters>
            <DistanceMeters>NAN</DistanceMeters>
          </Trackpoint>
          <Trackpoint>
            <Time>2022-09-24T15:31:17.000Z</Time>
            <Position>
              <LatitudeDegrees>43.32863450981676578521728515625</LatitudeDegrees>
              <LongitudeDegrees>-2.75856102816760540008544921875</LongitudeDegrees>
            </Position>
            <AltitudeMeters>19.799999237060546875</AltitudeMeters>
            <DistanceMeters>NAN</DistanceMeters>
          </Trackpoint>
          <Trackpoint>
            <Time>2022-09-24T15:31:18.000Z</Time>
            <Position>
              <LatitudeDegrees>43.32860047928988933563232421875</LatitudeDegrees>
              <LongitudeDegrees>-2.75867451913654804229736328125</LongitudeDegrees>
            </Position>
            <AltitudeMeters>19.200000762939453125</AltitudeMeters>
            <DistanceMeters>NAN</DistanceMeters>
          </Trackpoint>
          <Trackpoint>
            <Time>2022-09-24T15:31:19.000Z</Time>
            <Position>
              <LatitudeDegrees>43.32856678403913974761962890625</LatitudeDegrees>
              <LongitudeDegrees>-2.75878868065774440765380859375</LongitudeDegrees>
            </Position>
            <AltitudeMeters>19.200000762939453125</AltitudeMeters>
            <DistanceMeters>NAN</DistanceMeters>
          </Trackpoint>
          <Trackpoint>
            <Time>2022-09-24T15:31:20.000Z</Time>
            <Position>
              <LatitudeDegrees>43.3285246230661869049072265625</LatitudeDegrees>
              <LongitudeDegrees>-2.75892748497426509857177734375</LongitudeDegrees>
            </Position>
            <AltitudeMeters>19.200000762939453125</AltitudeMeters>
            <DistanceMeters>NAN</DistanceMeters>
          </Trackpoint>
          <Trackpoint>
            <Time>2022-09-24T15:31:21.000Z</Time>
            <Position>
              <LatitudeDegrees>43.32848564721643924713134765625</LatitudeDegrees>
              <LongitudeDegrees>-2.759046591818332672119140625</LongitudeDegrees>
            </Position>
            <AltitudeMeters>18.200000762939453125</AltitudeMeters>
            <DistanceMeters>NAN</DistanceMeters>
          </Trackpoint>
          <Trackpoint>
            <Time>2022-09-24T15:31:22.000Z</Time>
            <Position>
              <LatitudeDegrees>43.328450024127960205078125</LatitudeDegrees>
              <LongitudeDegrees>-2.75916804559528827667236328125</LongitudeDegrees>
            </Position>
            <AltitudeMeters>18.200000762939453125</AltitudeMeters>
            <DistanceMeters>NAN</DistanceMeters>
          </Trackpoint>
          <Trackpoint>
            <Time>2022-09-24T15:31:23.000Z</Time>
            <Position>
              <LatitudeDegrees>43.32841440103948116302490234375</LatitudeDegrees>
              <LongitudeDegrees>-2.75929193012416362762451171875</LongitudeDegrees>
            </Position>
            <AltitudeMeters>17.799999237060546875</AltitudeMeters>
            <DistanceMeters>NAN</DistanceMeters>
          </Trackpoint>
          <Trackpoint>
            <Time>2022-09-24T15:31:24.000Z</Time>
            <Position>
              <LatitudeDegrees>43.328384645283222198486328125</LatitudeDegrees>
              <LongitudeDegrees>-2.75938513688743114471435546875</LongitudeDegrees>
            </Position>
            <AltitudeMeters>17.6000003814697265625</AltitudeMeters>
            <DistanceMeters>NAN</DistanceMeters>
          </Trackpoint>
          <Trackpoint>
            <Time>2022-09-24T15:31:25.000Z</Time>
            <Position>
              <LatitudeDegrees>43.328343071043491363525390625</LatitudeDegrees>
              <LongitudeDegrees>-2.7595258690416812896728515625</LongitudeDegrees>
            </Position>
            <AltitudeMeters>17</AltitudeMeters>
            <DistanceMeters>NAN</DistanceMeters>
          </Trackpoint>
          <Trackpoint>
            <Time>2022-09-24T15:31:26.000Z</Time>
            <Position>
              <LatitudeDegrees>43.328308202326297760009765625</LatitudeDegrees>
              <LongitudeDegrees>-2.75964363478124141693115234375</LongitudeDegrees>
            </Position>
            <AltitudeMeters>16.799999237060546875</AltitudeMeters>
            <DistanceMeters>NAN</DistanceMeters>
          </Trackpoint>
          <Trackpoint>
            <Time>2022-09-24T15:31:27.000Z</Time>
            <Position>
              <LatitudeDegrees>43.32827844657003879547119140625</LatitudeDegrees>
              <LongitudeDegrees>-2.7597602270543575286865234375</LongitudeDegrees>
            </Position>
            <AltitudeMeters>16.799999237060546875</AltitudeMeters>
            <DistanceMeters>NAN</DistanceMeters>
          </Trackpoint>
          <Trackpoint>
            <Time>2022-09-24T15:31:28.000Z</Time>
            <Position>
              <LatitudeDegrees>43.32825464196503162384033203125</LatitudeDegrees>
              <LongitudeDegrees>-2.75985293090343475341796875</LongitudeDegrees>
            </Position>
            <AltitudeMeters>16.6000003814697265625</AltitudeMeters>
            <DistanceMeters>NAN</DistanceMeters>
          </Trackpoint>
          <Trackpoint>
            <Time>2022-09-24T15:31:29.000Z</Time>
            <Position>
              <LatitudeDegrees>43.32822916097939014434814453125</LatitudeDegrees>
              <LongitudeDegrees>-2.75996499694883823394775390625</LongitudeDegrees>
            </Position>
            <AltitudeMeters>16.200000762939453125</AltitudeMeters>
            <DistanceMeters>NAN</DistanceMeters>
          </Trackpoint>
          <Trackpoint>
            <Time>2022-09-24T15:31:30.000Z</Time>
            <Position>
              <LatitudeDegrees>43.32819814793765544891357421875</LatitudeDegrees>
              <LongitudeDegrees>-2.76009944267570972442626953125</LongitudeDegrees>
            </Position>
            <AltitudeMeters>16.200000762939453125</AltitudeMeters>
            <DistanceMeters>NAN</DistanceMeters>
          </Trackpoint>
          <Trackpoint>
            <Time>2022-09-24T15:31:31.000Z</Time>
            <Position>
              <LatitudeDegrees>43.32817375659942626953125</LatitudeDegrees>
              <LongitudeDegrees>-2.7601860277354717254638671875</LongitudeDegrees>
            </Position>
            <AltitudeMeters>16.200000762939453125</AltitudeMeters>
            <DistanceMeters>NAN</DistanceMeters>
          </Trackpoint>
          <Trackpoint>
            <Time>2022-09-24T15:31:32.000Z</Time>
            <Position>
              <LatitudeDegrees>43.328146599233150482177734375</LatitudeDegrees>
              <LongitudeDegrees>-2.76029675267636775970458984375</LongitudeDegrees>
            </Position>
            <AltitudeMeters>17</AltitudeMeters>
            <DistanceMeters>NAN</DistanceMeters>
          </Trackpoint>
          <Trackpoint>
            <Time>2022-09-24T15:31:33.000Z</Time>
            <Position>
              <LatitudeDegrees>43.32811835221946239471435546875</LatitudeDegrees>
              <LongitudeDegrees>-2.76040554977953433990478515625</LongitudeDegrees>
            </Position>
            <AltitudeMeters>17</AltitudeMeters>
            <DistanceMeters>NAN</DistanceMeters>
          </Trackpoint>
          <Trackpoint>
            <Time>2022-09-24T15:31:34.000Z</Time>
            <Position>
              <LatitudeDegrees>43.32809136249125003814697265625</LatitudeDegrees>
              <LongitudeDegrees>-2.76051116175949573516845703125</LongitudeDegrees>
            </Position>
            <AltitudeMeters>17</AltitudeMeters>
            <DistanceMeters>NAN</DistanceMeters>
          </Trackpoint>
          <Trackpoint>
            <Time>2022-09-24T15:31:35.000Z</Time>
            <Position>
              <LatitudeDegrees>43.328064791858196258544921875</LatitudeDegrees>
              <LongitudeDegrees>-2.760615013539791107177734375</LongitudeDegrees>
            </Position>
            <AltitudeMeters>17.200000762939453125</AltitudeMeters>
            <DistanceMeters>NAN</DistanceMeters>
          </Trackpoint>
          <Trackpoint>
            <Time>2022-09-24T15:31:36.000Z</Time>
            <Position>
              <LatitudeDegrees>43.328064791858196258544921875</LatitudeDegrees>
              <LongitudeDegrees>-2.760615013539791107177734375</LongitudeDegrees>
            </Position>
            <AltitudeMeters>17.200000762939453125</AltitudeMeters>
            <DistanceMeters>NAN</DistanceMeters>
          </Trackpoint>
          <Trackpoint>
            <Time>2022-09-24T15:31:37.000Z</Time>
            <Position>
              <LatitudeDegrees>43.3280166797339916229248046875</LatitudeDegrees>
              <LongitudeDegrees>-2.760817520320415496826171875</LongitudeDegrees>
            </Position>
            <AltitudeMeters>17</AltitudeMeters>
            <DistanceMeters>NAN</DistanceMeters>
          </Trackpoint>
          <Trackpoint>
            <Time>2022-09-24T15:31:38.000Z</Time>
            <Position>
              <LatitudeDegrees>43.3279895223677158355712890625</LatitudeDegrees>
              <LongitudeDegrees>-2.76091684587299823760986328125</LongitudeDegrees>
            </Position>
            <AltitudeMeters>17</AltitudeMeters>
            <DistanceMeters>NAN</DistanceMeters>
          </Trackpoint>
          <Trackpoint>
            <Time>2022-09-24T15:31:39.000Z</Time>
            <Position>
              <LatitudeDegrees>43.3279616944491863250732421875</LatitudeDegrees>
              <LongitudeDegrees>-2.7610151655972003936767578125</LongitudeDegrees>
            </Position>
            <AltitudeMeters>16.6000003814697265625</AltitudeMeters>
            <DistanceMeters>NAN</DistanceMeters>
          </Trackpoint>
          <Trackpoint>
            <Time>2022-09-24T15:31:40.000Z</Time>
            <Position>
              <LatitudeDegrees>43.327935039997100830078125</LatitudeDegrees>
              <LongitudeDegrees>-2.761111892759799957275390625</LongitudeDegrees>
            </Position>
            <AltitudeMeters>16.6000003814697265625</AltitudeMeters>
            <DistanceMeters>NAN</DistanceMeters>
          </Trackpoint>
          <Trackpoint>
            <Time>2022-09-24T15:31:41.000Z</Time>
            <Position>
              <LatitudeDegrees>43.32790796644985675811767578125</LatitudeDegrees>
              <LongitudeDegrees>-2.7612086199223995208740234375</LongitudeDegrees>
            </Position>
            <AltitudeMeters>16.6000003814697265625</AltitudeMeters>
            <DistanceMeters>NAN</DistanceMeters>
          </Trackpoint>
          <Trackpoint>
            <Time>2022-09-24T15:31:42.000Z</Time>
            <Position>
              <LatitudeDegrees>43.32788198255002498626708984375</LatitudeDegrees>
              <LongitudeDegrees>-2.7613051794469356536865234375</LongitudeDegrees>
            </Position>
            <AltitudeMeters>16.3999996185302734375</AltitudeMeters>
            <DistanceMeters>NAN</DistanceMeters>
          </Trackpoint>
          <Trackpoint>
            <Time>2022-09-24T15:31:43.000Z</Time>
            <Position>
              <LatitudeDegrees>43.32785599865019321441650390625</LatitudeDegrees>
              <LongitudeDegrees>-2.7613985538482666015625</LongitudeDegrees>
            </Position>
            <AltitudeMeters>16.3999996185302734375</AltitudeMeters>
            <DistanceMeters>NAN</DistanceMeters>
          </Trackpoint>
          <Trackpoint>
            <Time>2022-09-24T15:31:44.000Z</Time>
            <Position>
              <LatitudeDegrees>43.32782833836972713470458984375</LatitudeDegrees>
              <LongitudeDegrees>-2.76149184443056583404541015625</LongitudeDegrees>
            </Position>
            <AltitudeMeters>16.3999996185302734375</AltitudeMeters>
            <DistanceMeters>NAN</DistanceMeters>
          </Trackpoint>
          <Trackpoint>
            <Time>2022-09-24T15:31:45.000Z</Time>
            <Position>
              <LatitudeDegrees>43.32780151627957820892333984375</LatitudeDegrees>
              <LongitudeDegrees>-2.76158588938415050506591796875</LongitudeDegrees>
            </Position>
            <AltitudeMeters>16.3999996185302734375</AltitudeMeters>
            <DistanceMeters>NAN</DistanceMeters>
          </Trackpoint>
          <Trackpoint>
            <Time>2022-09-24T15:31:46.000Z</Time>
            <Position>
              <LatitudeDegrees>43.32777586765587329864501953125</LatitudeDegrees>
              <LongitudeDegrees>-2.7616786770522594451904296875</LongitudeDegrees>
            </Position>
            <AltitudeMeters>16.799999237060546875</AltitudeMeters>
            <DistanceMeters>NAN</DistanceMeters>
          </Trackpoint>
          <Trackpoint>
            <Time>2022-09-24T15:31:47.000Z</Time>
            <Position>
              <LatitudeDegrees>43.327752314507961273193359375</LatitudeDegrees>
              <LongitudeDegrees>-2.761771716177463531494140625</LongitudeDegrees>
            </Position>
            <AltitudeMeters>17</AltitudeMeters>
            <DistanceMeters>NAN</DistanceMeters>
          </Trackpoint>
          <Trackpoint>
            <Time>2022-09-24T15:31:48.000Z</Time>
            <Position>
              <LatitudeDegrees>43.32773186266422271728515625</LatitudeDegrees>
              <LongitudeDegrees>-2.76186534203588962554931640625</LongitudeDegrees>
            </Position>
            <AltitudeMeters>17</AltitudeMeters>
            <DistanceMeters>NAN</DistanceMeters>
          </Trackpoint>
          <Trackpoint>
            <Time>2022-09-24T15:31:49.000Z</Time>
            <Position>
              <LatitudeDegrees>43.3277085609734058380126953125</LatitudeDegrees>
              <LongitudeDegrees>-2.7619606442749500274658203125</LongitudeDegrees>
            </Position>
            <AltitudeMeters>17</AltitudeMeters>
            <DistanceMeters>NAN</DistanceMeters>
          </Trackpoint>
          <Trackpoint>
            <Time>2022-09-24T15:31:50.000Z</Time>
            <Position>
              <LatitudeDegrees>43.32769162952899932861328125</LatitudeDegrees>
              <LongitudeDegrees>-2.76205846108496189117431640625</LongitudeDegrees>
            </Position>
            <AltitudeMeters>17.799999237060546875</AltitudeMeters>
            <DistanceMeters>NAN</DistanceMeters>
          </Trackpoint>
          <Trackpoint>
            <Time>2022-09-24T15:31:51.000Z</Time>
            <Position>
              <LatitudeDegrees>43.32767997868359088897705078125</LatitudeDegrees>
              <LongitudeDegrees>-2.76216004975140094757080078125</LongitudeDegrees>
            </Position>
            <AltitudeMeters>17.799999237060546875</AltitudeMeters>
            <DistanceMeters>NAN</DistanceMeters>
          </Trackpoint>
          <Trackpoint>
            <Time>2022-09-24T15:31:52.000Z</Time>
            <Position>
              <LatitudeDegrees>43.327681235969066619873046875</LatitudeDegrees>
              <LongitudeDegrees>-2.76226381771266460418701171875</LongitudeDegrees>
            </Position>
            <AltitudeMeters>17.799999237060546875</AltitudeMeters>
            <DistanceMeters>NAN</DistanceMeters>
          </Trackpoint>
          <Trackpoint>
            <Time>2022-09-24T15:31:53.000Z</Time>
            <Position>
              <LatitudeDegrees>43.32769875414669513702392578125</LatitudeDegrees>
              <LongitudeDegrees>-2.762365154922008514404296875</LongitudeDegrees>
            </Position>
            <AltitudeMeters>17.3999996185302734375</AltitudeMeters>
            <DistanceMeters>NAN</DistanceMeters>
          </Trackpoint>
          <Trackpoint>
            <Time>2022-09-24T15:31:54.000Z</Time>
            <Position>
              <LatitudeDegrees>43.3277286775410175323486328125</LatitudeDegrees>
              <LongitudeDegrees>-2.762463390827178955078125</LongitudeDegrees>
            </Position>
            <AltitudeMeters>17.3999996185302734375</AltitudeMeters>
            <DistanceMeters>NAN</DistanceMeters>
          </Trackpoint>
          <Trackpoint>
            <Time>2022-09-24T15:31:55.000Z</Time>
            <Position>
              <LatitudeDegrees>43.32776547409594058990478515625</LatitudeDegrees>
              <LongitudeDegrees>-2.7625612914562225341796875</LongitudeDegrees>
            </Position>
            <AltitudeMeters>17.3999996185302734375</AltitudeMeters>
            <DistanceMeters>NAN</DistanceMeters>
          </Trackpoint>
          <Trackpoint>
            <Time>2022-09-24T15:31:56.000Z</Time>
            <Position>
              <LatitudeDegrees>43.32780352793633937835693359375</LatitudeDegrees>
              <LongitudeDegrees>-2.7626593597233295440673828125</LongitudeDegrees>
            </Position>
            <AltitudeMeters>17.3999996185302734375</AltitudeMeters>
            <DistanceMeters>NAN</DistanceMeters>
          </Trackpoint>
          <Trackpoint>
            <Time>2022-09-24T15:31:57.000Z</Time>
            <Position>
              <LatitudeDegrees>43.32785147242248058319091796875</LatitudeDegrees>
              <LongitudeDegrees>-2.76277561672031879425048828125</LongitudeDegrees>
            </Position>
            <AltitudeMeters>16.799999237060546875</AltitudeMeters>
            <DistanceMeters>NAN</DistanceMeters>
          </Trackpoint>
          <Trackpoint>
            <Time>2022-09-24T15:31:58.000Z</Time>
            <Position>
              <LatitudeDegrees>43.327892124652862548828125</LatitudeDegrees>
              <LongitudeDegrees>-2.76287980377674102783203125</LongitudeDegrees>
            </Position>
            <AltitudeMeters>15.80000019073486328125</AltitudeMeters>
            <DistanceMeters>NAN</DistanceMeters>
          </Trackpoint>
          <Trackpoint>
            <Time>2022-09-24T15:31:59.000Z</Time>
            <Position>
              <LatitudeDegrees>43.327925987541675567626953125</LatitudeDegrees>
              <LongitudeDegrees>-2.7629668079316616058349609375</LongitudeDegrees>
            </Position>
            <AltitudeMeters>15.80000019073486328125</AltitudeMeters>
            <DistanceMeters>NAN</DistanceMeters>
          </Trackpoint>
          <Trackpoint>
            <Time>2022-09-24T15:32:00.000Z</Time>
            <Position>
              <LatitudeDegrees>43.327968232333660125732421875</LatitudeDegrees>
              <LongitudeDegrees>-2.76307954452931880950927734375</LongitudeDegrees>
            </Position>
            <AltitudeMeters>15.6000003814697265625</AltitudeMeters>
            <DistanceMeters>NAN</DistanceMeters>
          </Trackpoint>
          <Trackpoint>
            <Time>2022-09-24T15:32:01.000Z</Time>
            <Position>
              <LatitudeDegrees>43.3280163444578647613525390625</LatitudeDegrees>
              <LongitudeDegrees>-2.7632212825119495391845703125</LongitudeDegrees>
            </Position>
            <AltitudeMeters>15.19999980926513671875</AltitudeMeters>
            <DistanceMeters>NAN</DistanceMeters>
          </Trackpoint>
          <Trackpoint>
            <Time>2022-09-24T15:32:02.000Z</Time>
            <Position>
              <LatitudeDegrees>43.32804777659475803375244140625</LatitudeDegrees>
              <LongitudeDegrees>-2.76331624947488307952880859375</LongitudeDegrees>
            </Position>
            <AltitudeMeters>14.80000019073486328125</AltitudeMeters>
            <DistanceMeters>NAN</DistanceMeters>
          </Trackpoint>
          <Trackpoint>
            <Time>2022-09-24T15:32:03.000Z</Time>
            <Position>
              <LatitudeDegrees>43.32807828672230243682861328125</LatitudeDegrees>
              <LongitudeDegrees>-2.7634365297853946685791015625</LongitudeDegrees>
            </Position>
            <AltitudeMeters>14.6000003814697265625</AltitudeMeters>
            <DistanceMeters>NAN</DistanceMeters>
          </Trackpoint>
          <Trackpoint>
            <Time>2022-09-24T15:32:04.000Z</Time>
            <Position>
              <LatitudeDegrees>43.3280921168625354766845703125</LatitudeDegrees>
              <LongitudeDegrees>-2.7635599114000797271728515625</LongitudeDegrees>
            </Position>
            <AltitudeMeters>13.80000019073486328125</AltitudeMeters>
            <DistanceMeters>NAN</DistanceMeters>
          </Trackpoint>
          <Trackpoint>
            <Time>2022-09-24T15:32:05.000Z</Time>
            <Position>
              <LatitudeDegrees>43.32809655927121639251708984375</LatitudeDegrees>
              <LongitudeDegrees>-2.76368312537670135498046875</LongitudeDegrees>
            </Position>
            <AltitudeMeters>12.19999980926513671875</AltitudeMeters>
            <DistanceMeters>NAN</DistanceMeters>
          </Trackpoint>
          <Trackpoint>
            <Time>2022-09-24T15:32:06.000Z</Time>
            <Position>
              <LatitudeDegrees>43.32809672690927982330322265625</LatitudeDegrees>
              <LongitudeDegrees>-2.76380675844848155975341796875</LongitudeDegrees>
            </Position>
            <AltitudeMeters>12.19999980926513671875</AltitudeMeters>
            <DistanceMeters>NAN</DistanceMeters>
          </Trackpoint>
          <Trackpoint>
            <Time>2022-09-24T15:32:07.000Z</Time>
            <Position>
              <LatitudeDegrees>43.32810309715569019317626953125</LatitudeDegrees>
              <LongitudeDegrees>-2.7639277093112468719482421875</LongitudeDegrees>
            </Position>
            <AltitudeMeters>13.80000019073486328125</AltitudeMeters>
            <DistanceMeters>NAN</DistanceMeters>
          </Trackpoint>
          <Trackpoint>
            <Time>2022-09-24T15:32:08.000Z</Time>
            <Position>
              <LatitudeDegrees>43.32811835221946239471435546875</LatitudeDegrees>
              <LongitudeDegrees>-2.76404530741274356842041015625</LongitudeDegrees>
            </Position>
            <AltitudeMeters>14.6000003814697265625</AltitudeMeters>
            <DistanceMeters>NAN</DistanceMeters>
          </Trackpoint>
          <Trackpoint>
            <Time>2022-09-24T15:32:09.000Z</Time>
            <Position>
              <LatitudeDegrees>43.328144587576389312744140625</LatitudeDegrees>
              <LongitudeDegrees>-2.764155864715576171875</LongitudeDegrees>
            </Position>
            <AltitudeMeters>14.6000003814697265625</AltitudeMeters>
            <DistanceMeters>NAN</DistanceMeters>
          </Trackpoint>
          <Trackpoint>
            <Time>2022-09-24T15:32:10.000Z</Time>
            <Position>
              <LatitudeDegrees>43.328178785741329193115234375</LatitudeDegrees>
              <LongitudeDegrees>-2.764262147247791290283203125</LongitudeDegrees>
            </Position>
            <AltitudeMeters>13.80000019073486328125</AltitudeMeters>
            <DistanceMeters>NAN</DistanceMeters>
          </Trackpoint>
          <Trackpoint>
            <Time>2022-09-24T15:32:11.000Z</Time>
            <Position>
              <LatitudeDegrees>43.32821600139141082763671875</LatitudeDegrees>
              <LongitudeDegrees>-2.764367759227752685546875</LongitudeDegrees>
            </Position>
            <AltitudeMeters>13.19999980926513671875</AltitudeMeters>
            <DistanceMeters>NAN</DistanceMeters>
          </Trackpoint>
          <Trackpoint>
            <Time>2022-09-24T15:32:12.000Z</Time>
            <Position>
              <LatitudeDegrees>43.3282537199556827545166015625</LatitudeDegrees>
              <LongitudeDegrees>-2.7644737064838409423828125</LongitudeDegrees>
            </Position>
            <AltitudeMeters>13.19999980926513671875</AltitudeMeters>
            <DistanceMeters>NAN</DistanceMeters>
          </Trackpoint>
          <Trackpoint>
            <Time>2022-09-24T15:32:13.000Z</Time>
            <Position>
              <LatitudeDegrees>43.3282926119863986968994140625</LatitudeDegrees>
              <LongitudeDegrees>-2.76457898318767547607421875</LongitudeDegrees>
            </Position>
            <AltitudeMeters>12.19999980926513671875</AltitudeMeters>
            <DistanceMeters>NAN</DistanceMeters>
          </Trackpoint>
          <Trackpoint>
            <Time>2022-09-24T15:32:14.000Z</Time>
            <Position>
              <LatitudeDegrees>43.32833158783614635467529296875</LatitudeDegrees>
              <LongitudeDegrees>-2.76468568481504917144775390625</LongitudeDegrees>
            </Position>
            <AltitudeMeters>12.19999980926513671875</AltitudeMeters>
            <DistanceMeters>NAN</DistanceMeters>
          </Trackpoint>
          <Trackpoint>
            <Time>2022-09-24T15:32:15.000Z</Time>
            <Position>
              <LatitudeDegrees>43.32836880348622798919677734375</LatitudeDegrees>
              <LongitudeDegrees>-2.764795906841754913330078125</LongitudeDegrees>
            </Position>
            <AltitudeMeters>12.19999980926513671875</AltitudeMeters>
            <DistanceMeters>NAN</DistanceMeters>
          </Trackpoint>
          <Trackpoint>
            <Time>2022-09-24T15:32:16.000Z</Time>
            <Position>
              <LatitudeDegrees>43.32840367220342159271240234375</LatitudeDegrees>
              <LongitudeDegrees>-2.7649077214300632476806640625</LongitudeDegrees>
            </Position>
            <AltitudeMeters>12.3999996185302734375</AltitudeMeters>
            <DistanceMeters>NAN</DistanceMeters>
          </Trackpoint>
          <Trackpoint>
            <Time>2022-09-24T15:32:17.000Z</Time>
            <Position>
              <LatitudeDegrees>43.328428901731967926025390625</LatitudeDegrees>
              <LongitudeDegrees>-2.765023894608020782470703125</LongitudeDegrees>
            </Position>
            <AltitudeMeters>12.3999996185302734375</AltitudeMeters>
            <DistanceMeters>NAN</DistanceMeters>
          </Trackpoint>
          <Trackpoint>
            <Time>2022-09-24T15:32:18.000Z</Time>
            <Position>
              <LatitudeDegrees>43.3284394629299640655517578125</LatitudeDegrees>
              <LongitudeDegrees>-2.765140570700168609619140625</LongitudeDegrees>
            </Position>
            <AltitudeMeters>12.3999996185302734375</AltitudeMeters>
            <DistanceMeters>NAN</DistanceMeters>
          </Trackpoint>
          <Trackpoint>
            <Time>2022-09-24T15:32:19.000Z</Time>
            <Position>
              <LatitudeDegrees>43.3284394629299640655517578125</LatitudeDegrees>
              <LongitudeDegrees>-2.765140570700168609619140625</LongitudeDegrees>
            </Position>
            <AltitudeMeters>12.3999996185302734375</AltitudeMeters>
            <DistanceMeters>NAN</DistanceMeters>
          </Trackpoint>
          <Trackpoint>
            <Time>2022-09-24T15:32:20.000Z</Time>
            <Position>
              <LatitudeDegrees>43.32841171883046627044677734375</LatitudeDegrees>
              <LongitudeDegrees>-2.76539429090917110443115234375</LongitudeDegrees>
            </Position>
            <AltitudeMeters>12.3999996185302734375</AltitudeMeters>
            <DistanceMeters>NAN</DistanceMeters>
          </Trackpoint>
          <Trackpoint>
            <Time>2022-09-24T15:32:21.000Z</Time>
            <Position>
              <LatitudeDegrees>43.32838087342679500579833984375</LatitudeDegrees>
              <LongitudeDegrees>-2.76551465503871440887451171875</LongitudeDegrees>
            </Position>
            <AltitudeMeters>12.3999996185302734375</AltitudeMeters>
            <DistanceMeters>NAN</DistanceMeters>
          </Trackpoint>
          <Trackpoint>
            <Time>2022-09-24T15:32:22.000Z</Time>
            <Position>
              <LatitudeDegrees>43.32834432832896709442138671875</LatitudeDegrees>
              <LongitudeDegrees>-2.7656305767595767974853515625</LongitudeDegrees>
            </Position>
            <AltitudeMeters>12.19999980926513671875</AltitudeMeters>
            <DistanceMeters>NAN</DistanceMeters>
          </Trackpoint>
          <Trackpoint>
            <Time>2022-09-24T15:32:23.000Z</Time>
            <Position>
              <LatitudeDegrees>43.3283110521733760833740234375</LatitudeDegrees>
              <LongitudeDegrees>-2.7657177485525608062744140625</LongitudeDegrees>
            </Position>
            <AltitudeMeters>11.80000019073486328125</AltitudeMeters>
            <DistanceMeters>NAN</DistanceMeters>
          </Trackpoint>
          <Trackpoint>
            <Time>2022-09-24T15:32:24.000Z</Time>
            <Position>
              <LatitudeDegrees>43.32826428115367889404296875</LatitudeDegrees>
              <LongitudeDegrees>-2.765822522342205047607421875</LongitudeDegrees>
            </Position>
            <AltitudeMeters>12.19999980926513671875</AltitudeMeters>
            <DistanceMeters>NAN</DistanceMeters>
          </Trackpoint>
          <Trackpoint>
            <Time>2022-09-24T15:32:25.000Z</Time>
            <Position>
              <LatitudeDegrees>43.328213654458522796630859375</LatitudeDegrees>
              <LongitudeDegrees>-2.76592276990413665771484375</LongitudeDegrees>
            </Position>
            <AltitudeMeters>12</AltitudeMeters>
            <DistanceMeters>NAN</DistanceMeters>
          </Trackpoint>
          <Trackpoint>
            <Time>2022-09-24T15:32:26.000Z</Time>
            <Position>
              <LatitudeDegrees>43.328213654458522796630859375</LatitudeDegrees>
              <LongitudeDegrees>-2.76592276990413665771484375</LongitudeDegrees>
            </Position>
            <AltitudeMeters>11.80000019073486328125</AltitudeMeters>
            <DistanceMeters>NAN</DistanceMeters>
          </Trackpoint>
          <Trackpoint>
            <Time>2022-09-24T15:32:27.000Z</Time>
            <Position>
              <LatitudeDegrees>43.3280844055116176605224609375</LatitudeDegrees>
              <LongitudeDegrees>-2.766088731586933135986328125</LongitudeDegrees>
            </Position>
            <AltitudeMeters>11.80000019073486328125</AltitudeMeters>
            <DistanceMeters>NAN</DistanceMeters>
          </Trackpoint>
          <Trackpoint>
            <Time>2022-09-24T15:32:28.000Z</Time>
            <Position>
              <LatitudeDegrees>43.32801642827689647674560546875</LatitudeDegrees>
              <LongitudeDegrees>-2.7661636658012866973876953125</LongitudeDegrees>
            </Position>
            <AltitudeMeters>12</AltitudeMeters>
            <DistanceMeters>NAN</DistanceMeters>
          </Trackpoint>
          <Trackpoint>
            <Time>2022-09-24T15:32:29.000Z</Time>
            <Position>
              <LatitudeDegrees>43.32794669084250926971435546875</LatitudeDegrees>
              <LongitudeDegrees>-2.76623600162565708160400390625</LongitudeDegrees>
            </Position>
            <AltitudeMeters>12</AltitudeMeters>
            <DistanceMeters>NAN</DistanceMeters>
          </Trackpoint>
          <Trackpoint>
            <Time>2022-09-24T15:32:30.000Z</Time>
            <Position>
              <LatitudeDegrees>43.32787712104618549346923828125</LatitudeDegrees>
              <LongitudeDegrees>-2.76630674488842487335205078125</LongitudeDegrees>
            </Position>
            <AltitudeMeters>12.6000003814697265625</AltitudeMeters>
            <DistanceMeters>NAN</DistanceMeters>
          </Trackpoint>
          <Trackpoint>
            <Time>2022-09-24T15:32:31.000Z</Time>
            <Position>
              <LatitudeDegrees>43.32781056873500347137451171875</LatitudeDegrees>
              <LongitudeDegrees>-2.7663802541792392730712890625</LongitudeDegrees>
            </Position>
            <AltitudeMeters>12.6000003814697265625</AltitudeMeters>
            <DistanceMeters>NAN</DistanceMeters>
          </Trackpoint>
          <Trackpoint>
            <Time>2022-09-24T15:32:32.000Z</Time>
            <Position>
              <LatitudeDegrees>43.32774938084185123443603515625</LatitudeDegrees>
              <LongitudeDegrees>-2.766454853117465972900390625</LongitudeDegrees>
            </Position>
            <AltitudeMeters>12.6000003814697265625</AltitudeMeters>
            <DistanceMeters>NAN</DistanceMeters>
          </Trackpoint>
          <Trackpoint>
            <Time>2022-09-24T15:32:33.000Z</Time>
            <Position>
              <LatitudeDegrees>43.32769640721380710601806640625</LatitudeDegrees>
              <LongitudeDegrees>-2.76653557084500789642333984375</LongitudeDegrees>
            </Position>
            <AltitudeMeters>13</AltitudeMeters>
            <DistanceMeters>NAN</DistanceMeters>
          </Trackpoint>
          <Trackpoint>
            <Time>2022-09-24T15:32:34.000Z</Time>
            <Position>
              <LatitudeDegrees>43.32765382714569568634033203125</LatitudeDegrees>
              <LongitudeDegrees>-2.76663129217922687530517578125</LongitudeDegrees>
            </Position>
            <AltitudeMeters>13</AltitudeMeters>
            <DistanceMeters>NAN</DistanceMeters>
          </Trackpoint>
          <Trackpoint>
            <Time>2022-09-24T15:32:35.000Z</Time>
            <Position>
              <LatitudeDegrees>43.32762935198843479156494140625</LatitudeDegrees>
              <LongitudeDegrees>-2.76675827801227569580078125</LongitudeDegrees>
            </Position>
            <AltitudeMeters>13.80000019073486328125</AltitudeMeters>
            <DistanceMeters>NAN</DistanceMeters>
          </Trackpoint>
          <Trackpoint>
            <Time>2022-09-24T15:32:36.000Z</Time>
            <Position>
              <LatitudeDegrees>43.32762029953300952911376953125</LatitudeDegrees>
              <LongitudeDegrees>-2.76687302626669406890869140625</LongitudeDegrees>
            </Position>
            <AltitudeMeters>14.19999980926513671875</AltitudeMeters>
            <DistanceMeters>NAN</DistanceMeters>
          </Trackpoint>
          <Trackpoint>
            <Time>2022-09-24T15:32:37.000Z</Time>
            <Position>
              <LatitudeDegrees>43.32762683741748332977294921875</LatitudeDegrees>
              <LongitudeDegrees>-2.76699137873947620391845703125</LongitudeDegrees>
            </Position>
            <AltitudeMeters>14.3999996185302734375</AltitudeMeters>
            <DistanceMeters>NAN</DistanceMeters>
          </Trackpoint>
          <Trackpoint>
            <Time>2022-09-24T15:32:38.000Z</Time>
            <Position>
              <LatitudeDegrees>43.32763739861547946929931640625</LatitudeDegrees>
              <LongitudeDegrees>-2.76710570789873600006103515625</LongitudeDegrees>
            </Position>
            <AltitudeMeters>14.19999980926513671875</AltitudeMeters>
            <DistanceMeters>NAN</DistanceMeters>
          </Trackpoint>
          <Trackpoint>
            <Time>2022-09-24T15:32:39.000Z</Time>
            <Position>
              <LatitudeDegrees>43.32765365950763225555419921875</LatitudeDegrees>
              <LongitudeDegrees>-2.76721919886767864227294921875</LongitudeDegrees>
            </Position>
            <AltitudeMeters>14.19999980926513671875</AltitudeMeters>
            <DistanceMeters>NAN</DistanceMeters>
          </Trackpoint>
          <Trackpoint>
            <Time>2022-09-24T15:32:40.000Z</Time>
            <Position>
              <LatitudeDegrees>43.327672183513641357421875</LatitudeDegrees>
              <LongitudeDegrees>-2.76733285747468471527099609375</LongitudeDegrees>
            </Position>
            <AltitudeMeters>14.19999980926513671875</AltitudeMeters>
            <DistanceMeters>NAN</DistanceMeters>
          </Trackpoint>
          <Trackpoint>
            <Time>2022-09-24T15:32:41.000Z</Time>
            <Position>
              <LatitudeDegrees>43.32768819294869899749755859375</LatitudeDegrees>
              <LongitudeDegrees>-2.76742371730506420135498046875</LongitudeDegrees>
            </Position>
            <AltitudeMeters>14.19999980926513671875</AltitudeMeters>
            <DistanceMeters>NAN</DistanceMeters>
          </Trackpoint>
          <Trackpoint>
            <Time>2022-09-24T15:32:42.000Z</Time>
            <Position>
              <LatitudeDegrees>43.32770629785954952239990234375</LatitudeDegrees>
              <LongitudeDegrees>-2.76753821410238742828369140625</LongitudeDegrees>
            </Position>
            <AltitudeMeters>14.19999980926513671875</AltitudeMeters>
            <DistanceMeters>NAN</DistanceMeters>
          </Trackpoint>
          <Trackpoint>
            <Time>2022-09-24T15:32:43.000Z</Time>
            <Position>
              <LatitudeDegrees>43.3277239836752414703369140625</LatitudeDegrees>
              <LongitudeDegrees>-2.7676526270806789398193359375</LongitudeDegrees>
            </Position>
            <AltitudeMeters>14.19999980926513671875</AltitudeMeters>
            <DistanceMeters>NAN</DistanceMeters>
          </Trackpoint>
          <Trackpoint>
            <Time>2022-09-24T15:32:44.000Z</Time>
            <Position>
              <LatitudeDegrees>43.3277410827577114105224609375</LatitudeDegrees>
              <LongitudeDegrees>-2.76776636950671672821044921875</LongitudeDegrees>
            </Position>
            <AltitudeMeters>14.19999980926513671875</AltitudeMeters>
            <DistanceMeters>NAN</DistanceMeters>
          </Trackpoint>
          <Trackpoint>
            <Time>2022-09-24T15:32:45.000Z</Time>
            <Position>
              <LatitudeDegrees>43.32775868475437164306640625</LatitudeDegrees>
              <LongitudeDegrees>-2.7678796090185642242431640625</LongitudeDegrees>
            </Position>
            <AltitudeMeters>14</AltitudeMeters>
            <DistanceMeters>NAN</DistanceMeters>
          </Trackpoint>
          <Trackpoint>
            <Time>2022-09-24T15:32:46.000Z</Time>
            <Position>
              <LatitudeDegrees>43.32777117379009723663330078125</LatitudeDegrees>
              <LongitudeDegrees>-2.767995111644268035888671875</LongitudeDegrees>
            </Position>
            <AltitudeMeters>13.6000003814697265625</AltitudeMeters>
            <DistanceMeters>NAN</DistanceMeters>
          </Trackpoint>
          <Trackpoint>
            <Time>2022-09-24T15:32:47.000Z</Time>
            <Position>
              <LatitudeDegrees>43.32777821458876132965087890625</LatitudeDegrees>
              <LongitudeDegrees>-2.768113799393177032470703125</LongitudeDegrees>
            </Position>
            <AltitudeMeters>13.19999980926513671875</AltitudeMeters>
            <DistanceMeters>NAN</DistanceMeters>
          </Trackpoint>
          <Trackpoint>
            <Time>2022-09-24T15:32:48.000Z</Time>
            <Position>
              <LatitudeDegrees>43.32777821458876132965087890625</LatitudeDegrees>
              <LongitudeDegrees>-2.768113799393177032470703125</LongitudeDegrees>
            </Position>
            <AltitudeMeters>13.19999980926513671875</AltitudeMeters>
            <DistanceMeters>NAN</DistanceMeters>
          </Trackpoint>
          <Trackpoint>
            <Time>2022-09-24T15:32:49.000Z</Time>
            <Position>
              <LatitudeDegrees>43.3277772925794124603271484375</LatitudeDegrees>
              <LongitudeDegrees>-2.7683510072529315948486328125</LongitudeDegrees>
            </Position>
            <AltitudeMeters>13.19999980926513671875</AltitudeMeters>
            <DistanceMeters>NAN</DistanceMeters>
          </Trackpoint>
          <Trackpoint>
            <Time>2022-09-24T15:32:50.000Z</Time>
            <Position>
              <LatitudeDegrees>43.32776765339076519012451171875</LatitudeDegrees>
              <LongitudeDegrees>-2.76848956011235713958740234375</LongitudeDegrees>
            </Position>
            <AltitudeMeters>13.19999980926513671875</AltitudeMeters>
            <DistanceMeters>NAN</DistanceMeters>
          </Trackpoint>
          <Trackpoint>
            <Time>2022-09-24T15:32:51.000Z</Time>
            <Position>
              <LatitudeDegrees>43.3277524821460247039794921875</LatitudeDegrees>
              <LongitudeDegrees>-2.76860355399549007415771484375</LongitudeDegrees>
            </Position>
            <AltitudeMeters>13.19999980926513671875</AltitudeMeters>
            <DistanceMeters>NAN</DistanceMeters>
          </Trackpoint>
          <Trackpoint>
            <Time>2022-09-24T15:32:52.000Z</Time>
            <Position>
              <LatitudeDegrees>43.32773194648325443267822265625</LatitudeDegrees>
              <LongitudeDegrees>-2.76871788315474987030029296875</LongitudeDegrees>
            </Position>
            <AltitudeMeters>13.19999980926513671875</AltitudeMeters>
            <DistanceMeters>NAN</DistanceMeters>
          </Trackpoint>
          <Trackpoint>
            <Time>2022-09-24T15:32:53.000Z</Time>
            <Position>
              <LatitudeDegrees>43.32770646549761295318603515625</LatitudeDegrees>
              <LongitudeDegrees>-2.7688317932188510894775390625</LongitudeDegrees>
            </Position>
            <AltitudeMeters>13.19999980926513671875</AltitudeMeters>
            <DistanceMeters>NAN</DistanceMeters>
          </Trackpoint>
          <Trackpoint>
            <Time>2022-09-24T15:32:54.000Z</Time>
            <Position>
              <LatitudeDegrees>43.327685259282588958740234375</LatitudeDegrees>
              <LongitudeDegrees>-2.76891686953604221343994140625</LongitudeDegrees>
            </Position>
            <AltitudeMeters>13</AltitudeMeters>
            <DistanceMeters>NAN</DistanceMeters>
          </Trackpoint>
          <Trackpoint>
            <Time>2022-09-24T15:32:55.000Z</Time>
            <Position>
              <LatitudeDegrees>43.32764804363250732421875</LatitudeDegrees>
              <LongitudeDegrees>-2.76903924532234668731689453125</LongitudeDegrees>
            </Position>
            <AltitudeMeters>12.80000019073486328125</AltitudeMeters>
            <DistanceMeters>NAN</DistanceMeters>
          </Trackpoint>
          <Trackpoint>
            <Time>2022-09-24T15:32:56.000Z</Time>
            <Position>
              <LatitudeDegrees>43.32760688848793506622314453125</LatitudeDegrees>
              <LongitudeDegrees>-2.7691281773149967193603515625</LongitudeDegrees>
            </Position>
            <AltitudeMeters>12.80000019073486328125</AltitudeMeters>
            <DistanceMeters>NAN</DistanceMeters>
          </Trackpoint>
          <Trackpoint>
            <Time>2022-09-24T15:32:57.000Z</Time>
            <Position>
              <LatitudeDegrees>43.32755927927792072296142578125</LatitudeDegrees>
              <LongitudeDegrees>-2.7692113257944583892822265625</LongitudeDegrees>
            </Position>
            <AltitudeMeters>13</AltitudeMeters>
            <DistanceMeters>NAN</DistanceMeters>
          </Trackpoint>
          <Trackpoint>
            <Time>2022-09-24T15:32:58.000Z</Time>
            <Position>
              <LatitudeDegrees>43.3275053836405277252197265625</LatitudeDegrees>
              <LongitudeDegrees>-2.7692884393036365509033203125</LongitudeDegrees>
            </Position>
            <AltitudeMeters>13</AltitudeMeters>
            <DistanceMeters>NAN</DistanceMeters>
          </Trackpoint>
          <Trackpoint>
            <Time>2022-09-24T15:32:59.000Z</Time>
            <Position>
              <LatitudeDegrees>43.32745031453669071197509765625</LatitudeDegrees>
              <LongitudeDegrees>-2.76935759000480175018310546875</LongitudeDegrees>
            </Position>
            <AltitudeMeters>13</AltitudeMeters>
            <DistanceMeters>NAN</DistanceMeters>
          </Trackpoint>
          <Trackpoint>
            <Time>2022-09-24T15:33:00.000Z</Time>
            <Position>
              <LatitudeDegrees>43.32739331759512424468994140625</LatitudeDegrees>
              <LongitudeDegrees>-2.76941366493701934814453125</LongitudeDegrees>
            </Position>
            <AltitudeMeters>13.80000019073486328125</AltitudeMeters>
            <DistanceMeters>NAN</DistanceMeters>
          </Trackpoint>
          <Trackpoint>
            <Time>2022-09-24T15:33:01.000Z</Time>
            <Position>
              <LatitudeDegrees>43.32733481191098690032958984375</LatitudeDegrees>
              <LongitudeDegrees>-2.76945230551064014434814453125</LongitudeDegrees>
            </Position>
            <AltitudeMeters>13.80000019073486328125</AltitudeMeters>
            <DistanceMeters>NAN</DistanceMeters>
          </Trackpoint>
          <Trackpoint>
            <Time>2022-09-24T15:33:02.000Z</Time>
            <Position>
              <LatitudeDegrees>43.327278904616832733154296875</LatitudeDegrees>
              <LongitudeDegrees>-2.7694862522184848785400390625</LongitudeDegrees>
            </Position>
            <AltitudeMeters>13.80000019073486328125</AltitudeMeters>
            <DistanceMeters>NAN</DistanceMeters>
          </Trackpoint>
          <Trackpoint>
            <Time>2022-09-24T15:33:03.000Z</Time>
            <Position>
              <LatitudeDegrees>43.3272202312946319580078125</LatitudeDegrees>
              <LongitudeDegrees>-2.769522629678249359130859375</LongitudeDegrees>
            </Position>
            <AltitudeMeters>13.80000019073486328125</AltitudeMeters>
            <DistanceMeters>NAN</DistanceMeters>
          </Trackpoint>
          <Trackpoint>
            <Time>2022-09-24T15:33:04.000Z</Time>
            <Position>
              <LatitudeDegrees>43.32716013304889202117919921875</LatitudeDegrees>
              <LongitudeDegrees>-2.76955741457641124725341796875</LongitudeDegrees>
            </Position>
            <AltitudeMeters>14</AltitudeMeters>
            <DistanceMeters>NAN</DistanceMeters>
          </Trackpoint>
          <Trackpoint>
            <Time>2022-09-24T15:33:05.000Z</Time>
            <Position>
              <LatitudeDegrees>43.3271007053554058074951171875</LatitudeDegrees>
              <LongitudeDegrees>-2.76959379203617572784423828125</LongitudeDegrees>
            </Position>
            <AltitudeMeters>14.19999980926513671875</AltitudeMeters>
            <DistanceMeters>NAN</DistanceMeters>
          </Trackpoint>
          <Trackpoint>
            <Time>2022-09-24T15:33:06.000Z</Time>
            <Position>
              <LatitudeDegrees>43.32704144529998302459716796875</LatitudeDegrees>
              <LongitudeDegrees>-2.7696381323039531707763671875</LongitudeDegrees>
            </Position>
            <AltitudeMeters>14.19999980926513671875</AltitudeMeters>
            <DistanceMeters>NAN</DistanceMeters>
          </Trackpoint>
          <Trackpoint>
            <Time>2022-09-24T15:33:07.000Z</Time>
            <Position>
              <LatitudeDegrees>43.3269803412258625030517578125</LatitudeDegrees>
              <LongitudeDegrees>-2.76968750171363353729248046875</LongitudeDegrees>
            </Position>
            <AltitudeMeters>13.80000019073486328125</AltitudeMeters>
            <DistanceMeters>NAN</DistanceMeters>
          </Trackpoint>
          <Trackpoint>
            <Time>2022-09-24T15:33:08.000Z</Time>
            <Position>
              <LatitudeDegrees>43.32692854106426239013671875</LatitudeDegrees>
              <LongitudeDegrees>-2.76973410509526729583740234375</LongitudeDegrees>
            </Position>
            <AltitudeMeters>12.6000003814697265625</AltitudeMeters>
            <DistanceMeters>NAN</DistanceMeters>
          </Trackpoint>
          <Trackpoint>
            <Time>2022-09-24T15:33:09.000Z</Time>
            <Position>
              <LatitudeDegrees>43.32687112502753734588623046875</LatitudeDegrees>
              <LongitudeDegrees>-2.769797556102275848388671875</LongitudeDegrees>
            </Position>
            <AltitudeMeters>12.6000003814697265625</AltitudeMeters>
            <DistanceMeters>NAN</DistanceMeters>
          </Trackpoint>
          <Trackpoint>
            <Time>2022-09-24T15:33:10.000Z</Time>
            <Position>
              <LatitudeDegrees>43.32680658437311649322509765625</LatitudeDegrees>
              <LongitudeDegrees>-2.76988439261913299560546875</LongitudeDegrees>
            </Position>
            <AltitudeMeters>12.6000003814697265625</AltitudeMeters>
            <DistanceMeters>NAN</DistanceMeters>
          </Trackpoint>
          <Trackpoint>
            <Time>2022-09-24T15:33:11.000Z</Time>
            <Position>
              <LatitudeDegrees>43.32675780169665813446044921875</LatitudeDegrees>
              <LongitudeDegrees>-2.76996527798473834991455078125</LongitudeDegrees>
            </Position>
            <AltitudeMeters>12.6000003814697265625</AltitudeMeters>
            <DistanceMeters>NAN</DistanceMeters>
          </Trackpoint>
          <Trackpoint>
            <Time>2022-09-24T15:33:12.000Z</Time>
            <Position>
              <LatitudeDegrees>43.3267137967050075531005859375</LatitudeDegrees>
              <LongitudeDegrees>-2.77005010284483432769775390625</LongitudeDegrees>
            </Position>
            <AltitudeMeters>12.6000003814697265625</AltitudeMeters>
            <DistanceMeters>NAN</DistanceMeters>
          </Trackpoint>
          <Trackpoint>
            <Time>2022-09-24T15:33:13.000Z</Time>
            <Position>
              <LatitudeDegrees>43.32668714225292205810546875</LatitudeDegrees>
              <LongitudeDegrees>-2.7701239474117755889892578125</LongitudeDegrees>
            </Position>
            <AltitudeMeters>12.6000003814697265625</AltitudeMeters>
            <DistanceMeters>NAN</DistanceMeters>
          </Trackpoint>
          <Trackpoint>
            <Time>2022-09-24T15:33:14.000Z</Time>
            <Position>
              <LatitudeDegrees>43.3266635052859783172607421875</LatitudeDegrees>
              <LongitudeDegrees>-2.7702278830111026763916015625</LongitudeDegrees>
            </Position>
            <AltitudeMeters>12.80000019073486328125</AltitudeMeters>
            <DistanceMeters>NAN</DistanceMeters>
          </Trackpoint>
          <Trackpoint>
            <Time>2022-09-24T15:33:15.000Z</Time>
            <Position>
              <LatitudeDegrees>43.32665403373539447784423828125</LatitudeDegrees>
              <LongitudeDegrees>-2.770342715084552764892578125</LongitudeDegrees>
            </Position>
            <AltitudeMeters>12.80000019073486328125</AltitudeMeters>
            <DistanceMeters>NAN</DistanceMeters>
          </Trackpoint>
          <Trackpoint>
            <Time>2022-09-24T15:33:16.000Z</Time>
            <Position>
              <LatitudeDegrees>43.32665897905826568603515625</LatitudeDegrees>
              <LongitudeDegrees>-2.7704622410237789154052734375</LongitudeDegrees>
            </Position>
            <AltitudeMeters>12.80000019073486328125</AltitudeMeters>
            <DistanceMeters>NAN</DistanceMeters>
          </Trackpoint>
          <Trackpoint>
            <Time>2022-09-24T15:33:17.000Z</Time>
            <Position>
              <LatitudeDegrees>43.32666878588497638702392578125</LatitudeDegrees>
              <LongitudeDegrees>-2.77057849802076816558837890625</LongitudeDegrees>
            </Position>
            <AltitudeMeters>12.80000019073486328125</AltitudeMeters>
            <DistanceMeters>NAN</DistanceMeters>
          </Trackpoint>
          <Trackpoint>
            <Time>2022-09-24T15:33:18.000Z</Time>
            <Position>
              <LatitudeDegrees>43.32668253220617771148681640625</LatitudeDegrees>
              <LongitudeDegrees>-2.770694755017757415771484375</LongitudeDegrees>
            </Position>
            <AltitudeMeters>12.19999980926513671875</AltitudeMeters>
            <DistanceMeters>NAN</DistanceMeters>
          </Trackpoint>
          <Trackpoint>
            <Time>2022-09-24T15:33:19.000Z</Time>
            <Position>
              <LatitudeDegrees>43.326700218021869659423828125</LatitudeDegrees>
              <LongitudeDegrees>-2.7708109281957149505615234375</LongitudeDegrees>
            </Position>
            <AltitudeMeters>12.80000019073486328125</AltitudeMeters>
            <DistanceMeters>NAN</DistanceMeters>
          </Trackpoint>
          <Trackpoint>
            <Time>2022-09-24T15:33:20.000Z</Time>
            <Position>
              <LatitudeDegrees>43.32671773619949817657470703125</LatitudeDegrees>
              <LongitudeDegrees>-2.77092835865914821624755859375</LongitudeDegrees>
            </Position>
            <AltitudeMeters>12.19999980926513671875</AltitudeMeters>
            <DistanceMeters>NAN</DistanceMeters>
          </Trackpoint>
          <Trackpoint>
            <Time>2022-09-24T15:33:21.000Z</Time>
            <Position>
              <LatitudeDegrees>43.32673450000584125518798828125</LatitudeDegrees>
              <LongitudeDegrees>-2.77104771696031093597412109375</LongitudeDegrees>
            </Position>
            <AltitudeMeters>12</AltitudeMeters>
            <DistanceMeters>NAN</DistanceMeters>
          </Trackpoint>
          <Trackpoint>
            <Time>2022-09-24T15:33:22.000Z</Time>
            <Position>
              <LatitudeDegrees>43.32675017416477203369140625</LatitudeDegrees>
              <LongitudeDegrees>-2.77116715908050537109375</LongitudeDegrees>
            </Position>
            <AltitudeMeters>12</AltitudeMeters>
            <DistanceMeters>NAN</DistanceMeters>
          </Trackpoint>
          <Trackpoint>
            <Time>2022-09-24T15:33:23.000Z</Time>
            <Position>
              <LatitudeDegrees>43.32676651887595653533935546875</LatitudeDegrees>
              <LongitudeDegrees>-2.77128693647682666778564453125</LongitudeDegrees>
            </Position>
            <AltitudeMeters>12</AltitudeMeters>
            <DistanceMeters>NAN</DistanceMeters>
          </Trackpoint>
          <Trackpoint>
            <Time>2022-09-24T15:33:24.000Z</Time>
            <Position>
              <LatitudeDegrees>43.3267862163484096527099609375</LatitudeDegrees>
              <LongitudeDegrees>-2.77140612713992595672607421875</LongitudeDegrees>
            </Position>
            <AltitudeMeters>11.80000019073486328125</AltitudeMeters>
            <DistanceMeters>NAN</DistanceMeters>
          </Trackpoint>
          <Trackpoint>
            <Time>2022-09-24T15:33:25.000Z</Time>
            <Position>
              <LatitudeDegrees>43.32681412808597087860107421875</LatitudeDegrees>
              <LongitudeDegrees>-2.77152121067047119140625</LongitudeDegrees>
            </Position>
            <AltitudeMeters>11.3999996185302734375</AltitudeMeters>
            <DistanceMeters>NAN</DistanceMeters>
          </Trackpoint>
          <Trackpoint>
            <Time>2022-09-24T15:33:26.000Z</Time>
            <Position>
              <LatitudeDegrees>43.32684614695608615875244140625</LatitudeDegrees>
              <LongitudeDegrees>-2.7716350369155406951904296875</LongitudeDegrees>
            </Position>
            <AltitudeMeters>11.3999996185302734375</AltitudeMeters>
            <DistanceMeters>NAN</DistanceMeters>
          </Trackpoint>
          <Trackpoint>
            <Time>2022-09-24T15:33:27.000Z</Time>
            <Position>
              <LatitudeDegrees>43.32688386552035808563232421875</LatitudeDegrees>
              <LongitudeDegrees>-2.7717466838657855987548828125</LongitudeDegrees>
            </Position>
            <AltitudeMeters>11</AltitudeMeters>
            <DistanceMeters>NAN</DistanceMeters>
          </Trackpoint>
          <Trackpoint>
            <Time>2022-09-24T15:33:28.000Z</Time>
            <Position>
              <LatitudeDegrees>43.32692208699882030487060546875</LatitudeDegrees>
              <LongitudeDegrees>-2.77185590006411075592041015625</LongitudeDegrees>
            </Position>
            <AltitudeMeters>10.3999996185302734375</AltitudeMeters>
            <DistanceMeters>NAN</DistanceMeters>
          </Trackpoint>
          <Trackpoint>
            <Time>2022-09-24T15:33:29.000Z</Time>
            <Position>
              <LatitudeDegrees>43.3269588835537433624267578125</LatitudeDegrees>
              <LongitudeDegrees>-2.77196637354791164398193359375</LongitudeDegrees>
            </Position>
            <AltitudeMeters>10.3999996185302734375</AltitudeMeters>
            <DistanceMeters>NAN</DistanceMeters>
          </Trackpoint>
          <Trackpoint>
            <Time>2022-09-24T15:33:30.000Z</Time>
            <Position>
              <LatitudeDegrees>43.326997943222522735595703125</LatitudeDegrees>
              <LongitudeDegrees>-2.77207709848880767822265625</LongitudeDegrees>
            </Position>
            <AltitudeMeters>10.3999996185302734375</AltitudeMeters>
            <DistanceMeters>NAN</DistanceMeters>
          </Trackpoint>
          <Trackpoint>
            <Time>2022-09-24T15:33:31.000Z</Time>
            <Position>
              <LatitudeDegrees>43.327039182186126708984375</LatitudeDegrees>
              <LongitudeDegrees>-2.77218849398195743560791015625</LongitudeDegrees>
            </Position>
            <AltitudeMeters>9.80000019073486328125</AltitudeMeters>
            <DistanceMeters>NAN</DistanceMeters>
          </Trackpoint>
          <Trackpoint>
            <Time>2022-09-24T15:33:32.000Z</Time>
            <Position>
              <LatitudeDegrees>43.3270785771310329437255859375</LatitudeDegrees>
              <LongitudeDegrees>-2.7723008953034877777099609375</LongitudeDegrees>
            </Position>
            <AltitudeMeters>9.19999980926513671875</AltitudeMeters>
            <DistanceMeters>NAN</DistanceMeters>
          </Trackpoint>
          <Trackpoint>
            <Time>2022-09-24T15:33:33.000Z</Time>
            <Position>
              <LatitudeDegrees>43.327119313180446624755859375</LatitudeDegrees>
              <LongitudeDegrees>-2.77241296134889125823974609375</LongitudeDegrees>
            </Position>
            <AltitudeMeters>9</AltitudeMeters>
            <DistanceMeters>NAN</DistanceMeters>
          </Trackpoint>
          <Trackpoint>
            <Time>2022-09-24T15:33:34.000Z</Time>
            <Position>
              <LatitudeDegrees>43.32715946249663829803466796875</LatitudeDegrees>
              <LongitudeDegrees>-2.7725238539278507232666015625</LongitudeDegrees>
            </Position>
            <AltitudeMeters>8.80000019073486328125</AltitudeMeters>
            <DistanceMeters>NAN</DistanceMeters>
          </Trackpoint>
          <Trackpoint>
            <Time>2022-09-24T15:33:35.000Z</Time>
            <Position>
              <LatitudeDegrees>43.3271982707083225250244140625</LatitudeDegrees>
              <LongitudeDegrees>-2.772633992135524749755859375</LongitudeDegrees>
            </Position>
            <AltitudeMeters>8.6000003814697265625</AltitudeMeters>
            <DistanceMeters>NAN</DistanceMeters>
          </Trackpoint>
          <Trackpoint>
            <Time>2022-09-24T15:33:36.000Z</Time>
            <Position>
              <LatitudeDegrees>43.32723540253937244415283203125</LatitudeDegrees>
              <LongitudeDegrees>-2.772743292152881622314453125</LongitudeDegrees>
            </Position>
            <AltitudeMeters>8.6000003814697265625</AltitudeMeters>
            <DistanceMeters>NAN</DistanceMeters>
          </Trackpoint>
          <Trackpoint>
            <Time>2022-09-24T15:33:37.000Z</Time>
            <Position>
              <LatitudeDegrees>43.32726809196174144744873046875</LatitudeDegrees>
              <LongitudeDegrees>-2.77285384945571422576904296875</LongitudeDegrees>
            </Position>
            <AltitudeMeters>8.6000003814697265625</AltitudeMeters>
            <DistanceMeters>NAN</DistanceMeters>
          </Trackpoint>
          <Trackpoint>
            <Time>2022-09-24T15:33:38.000Z</Time>
            <Position>
              <LatitudeDegrees>43.3272951655089855194091796875</LatitudeDegrees>
              <LongitudeDegrees>-2.7729647420346736907958984375</LongitudeDegrees>
            </Position>
            <AltitudeMeters>8.6000003814697265625</AltitudeMeters>
            <DistanceMeters>NAN</DistanceMeters>
          </Trackpoint>
          <Trackpoint>
            <Time>2022-09-24T15:33:39.000Z</Time>
            <Position>
              <LatitudeDegrees>43.32731452770531177520751953125</LatitudeDegrees>
              <LongitudeDegrees>-2.773076556622982025146484375</LongitudeDegrees>
            </Position>
            <AltitudeMeters>8.6000003814697265625</AltitudeMeters>
            <DistanceMeters>NAN</DistanceMeters>
          </Trackpoint>
          <Trackpoint>
            <Time>2022-09-24T15:33:40.000Z</Time>
            <Position>
              <LatitudeDegrees>43.32731670700013637542724609375</LatitudeDegrees>
              <LongitudeDegrees>-2.7731882035732269287109375</LongitudeDegrees>
            </Position>
            <AltitudeMeters>8.6000003814697265625</AltitudeMeters>
            <DistanceMeters>NAN</DistanceMeters>
          </Trackpoint>
          <Trackpoint>
            <Time>2022-09-24T15:33:41.000Z</Time>
            <Position>
              <LatitudeDegrees>43.3273045532405376434326171875</LatitudeDegrees>
              <LongitudeDegrees>-2.77329507283866405487060546875</LongitudeDegrees>
            </Position>
            <AltitudeMeters>8.80000019073486328125</AltitudeMeters>
            <DistanceMeters>NAN</DistanceMeters>
          </Trackpoint>
          <Trackpoint>
            <Time>2022-09-24T15:33:42.000Z</Time>
            <Position>
              <LatitudeDegrees>43.32728183828294277191162109375</LatitudeDegrees>
              <LongitudeDegrees>-2.77339917607605457305908203125</LongitudeDegrees>
            </Position>
            <AltitudeMeters>9</AltitudeMeters>
            <DistanceMeters>NAN</DistanceMeters>
          </Trackpoint>
          <Trackpoint>
            <Time>2022-09-24T15:33:43.000Z</Time>
            <Position>
              <LatitudeDegrees>43.32724831067025661468505859375</LatitudeDegrees>
              <LongitudeDegrees>-2.77349674142897129058837890625</LongitudeDegrees>
            </Position>
            <AltitudeMeters>8.80000019073486328125</AltitudeMeters>
            <DistanceMeters>NAN</DistanceMeters>
          </Trackpoint>
          <Trackpoint>
            <Time>2022-09-24T15:33:44.000Z</Time>
            <Position>
              <LatitudeDegrees>43.32721092738211154937744140625</LatitudeDegrees>
              <LongitudeDegrees>-2.773590870201587677001953125</LongitudeDegrees>
            </Position>
            <AltitudeMeters>8.80000019073486328125</AltitudeMeters>
            <DistanceMeters>NAN</DistanceMeters>
          </Trackpoint>
          <Trackpoint>
            <Time>2022-09-24T15:33:45.000Z</Time>
            <Position>
              <LatitudeDegrees>43.32717052660882472991943359375</LatitudeDegrees>
              <LongitudeDegrees>-2.7736790478229522705078125</LongitudeDegrees>
            </Position>
            <AltitudeMeters>9</AltitudeMeters>
            <DistanceMeters>NAN</DistanceMeters>
          </Trackpoint>
          <Trackpoint>
            <Time>2022-09-24T15:33:46.000Z</Time>
            <Position>
              <LatitudeDegrees>43.32713347859680652618408203125</LatitudeDegrees>
              <LongitudeDegrees>-2.77376680634915828704833984375</LongitudeDegrees>
            </Position>
            <AltitudeMeters>9.19999980926513671875</AltitudeMeters>
            <DistanceMeters>NAN</DistanceMeters>
          </Trackpoint>
          <Trackpoint>
            <Time>2022-09-24T15:33:47.000Z</Time>
            <Position>
              <LatitudeDegrees>43.3271030522882938385009765625</LatitudeDegrees>
              <LongitudeDegrees>-2.7738582529127597808837890625</LongitudeDegrees>
            </Position>
            <AltitudeMeters>9.19999980926513671875</AltitudeMeters>
            <DistanceMeters>NAN</DistanceMeters>
          </Trackpoint>
          <Trackpoint>
            <Time>2022-09-24T15:33:48.000Z</Time>
            <Position>
              <LatitudeDegrees>43.327073715627193450927734375</LatitudeDegrees>
              <LongitudeDegrees>-2.77393109165132045745849609375</LongitudeDegrees>
            </Position>
            <AltitudeMeters>8.80000019073486328125</AltitudeMeters>
            <DistanceMeters>NAN</DistanceMeters>
          </Trackpoint>
          <Trackpoint>
            <Time>2022-09-24T15:33:49.000Z</Time>
            <Position>
              <LatitudeDegrees>43.32704144529998302459716796875</LatitudeDegrees>
              <LongitudeDegrees>-2.7740218676626682281494140625</LongitudeDegrees>
            </Position>
            <AltitudeMeters>8.3999996185302734375</AltitudeMeters>
            <DistanceMeters>NAN</DistanceMeters>
          </Trackpoint>
          <Trackpoint>
            <Time>2022-09-24T15:33:50.000Z</Time>
            <Position>
              <LatitudeDegrees>43.32700422964990139007568359375</LatitudeDegrees>
              <LongitudeDegrees>-2.77412270195782184600830078125</LongitudeDegrees>
            </Position>
            <AltitudeMeters>8.6000003814697265625</AltitudeMeters>
            <DistanceMeters>NAN</DistanceMeters>
          </Trackpoint>
          <Trackpoint>
            <Time>2022-09-24T15:33:51.000Z</Time>
            <Position>
              <LatitudeDegrees>43.32697388716042041778564453125</LatitudeDegrees>
              <LongitudeDegrees>-2.77420484460890293121337890625</LongitudeDegrees>
            </Position>
            <AltitudeMeters>8.6000003814697265625</AltitudeMeters>
            <DistanceMeters>NAN</DistanceMeters>
          </Trackpoint>
          <Trackpoint>
            <Time>2022-09-24T15:33:52.000Z</Time>
            <Position>
              <LatitudeDegrees>43.32694061100482940673828125</LatitudeDegrees>
              <LongitudeDegrees>-2.77429369278252124786376953125</LongitudeDegrees>
            </Position>
            <AltitudeMeters>8.6000003814697265625</AltitudeMeters>
            <DistanceMeters>NAN</DistanceMeters>
          </Trackpoint>
          <Trackpoint>
            <Time>2022-09-24T15:33:53.000Z</Time>
            <Position>
              <LatitudeDegrees>43.32690867595374584197998046875</LatitudeDegrees>
              <LongitudeDegrees>-2.77438539080321788787841796875</LongitudeDegrees>
            </Position>
            <AltitudeMeters>8.6000003814697265625</AltitudeMeters>
            <DistanceMeters>NAN</DistanceMeters>
          </Trackpoint>
          <Trackpoint>
            <Time>2022-09-24T15:33:54.000Z</Time>
            <Position>
              <LatitudeDegrees>43.326885960996150970458984375</LatitudeDegrees>
              <LongitudeDegrees>-2.77445646934211254119873046875</LongitudeDegrees>
            </Position>
            <AltitudeMeters>8.80000019073486328125</AltitudeMeters>
            <DistanceMeters>NAN</DistanceMeters>
          </Trackpoint>
          <Trackpoint>
            <Time>2022-09-24T15:33:55.000Z</Time>
            <Position>
              <LatitudeDegrees>43.32685536704957485198974609375</LatitudeDegrees>
              <LongitudeDegrees>-2.77456174604594707489013671875</LongitudeDegrees>
            </Position>
            <AltitudeMeters>9</AltitudeMeters>
            <DistanceMeters>NAN</DistanceMeters>
          </Trackpoint>
          <Trackpoint>
            <Time>2022-09-24T15:33:56.000Z</Time>
            <Position>
              <LatitudeDegrees>43.3268361724913120269775390625</LatitudeDegrees>
              <LongitudeDegrees>-2.774650342762470245361328125</LongitudeDegrees>
            </Position>
            <AltitudeMeters>10</AltitudeMeters>
            <DistanceMeters>NAN</DistanceMeters>
          </Trackpoint>
          <Trackpoint>
            <Time>2022-09-24T15:33:57.000Z</Time>
            <Position>
              <LatitudeDegrees>43.32682116888463497161865234375</LatitudeDegrees>
              <LongitudeDegrees>-2.77474229224026203155517578125</LongitudeDegrees>
            </Position>
            <AltitudeMeters>10</AltitudeMeters>
            <DistanceMeters>NAN</DistanceMeters>
          </Trackpoint>
          <Trackpoint>
            <Time>2022-09-24T15:33:58.000Z</Time>
            <Position>
              <LatitudeDegrees>43.3268036507070064544677734375</LatitudeDegrees>
              <LongitudeDegrees>-2.7748345769941806793212890625</LongitudeDegrees>
            </Position>
            <AltitudeMeters>10.3999996185302734375</AltitudeMeters>
            <DistanceMeters>NAN</DistanceMeters>
          </Trackpoint>
          <Trackpoint>
            <Time>2022-09-24T15:33:59.000Z</Time>
            <Position>
              <LatitudeDegrees>43.326790072023868560791015625</LatitudeDegrees>
              <LongitudeDegrees>-2.77492887340486049652099609375</LongitudeDegrees>
            </Position>
            <AltitudeMeters>10.6000003814697265625</AltitudeMeters>
            <DistanceMeters>NAN</DistanceMeters>
          </Trackpoint>
          <Trackpoint>
            <Time>2022-09-24T15:34:00.000Z</Time>
            <Position>
              <LatitudeDegrees>43.32677691243588924407958984375</LatitudeDegrees>
              <LongitudeDegrees>-2.77502291835844516754150390625</LongitudeDegrees>
            </Position>
            <AltitudeMeters>10.6000003814697265625</AltitudeMeters>
            <DistanceMeters>NAN</DistanceMeters>
          </Trackpoint>
          <Trackpoint>
            <Time>2022-09-24T15:34:01.000Z</Time>
            <Position>
              <LatitudeDegrees>43.3267654292285442352294921875</LatitudeDegrees>
              <LongitudeDegrees>-2.77511738240718841552734375</LongitudeDegrees>
            </Position>
            <AltitudeMeters>10.6000003814697265625</AltitudeMeters>
            <DistanceMeters>NAN</DistanceMeters>
          </Trackpoint>
          <Trackpoint>
            <Time>2022-09-24T15:34:02.000Z</Time>
            <Position>
              <LatitudeDegrees>43.32675662823021411895751953125</LatitudeDegrees>
              <LongitudeDegrees>-2.77523263357579708099365234375</LongitudeDegrees>
            </Position>
            <AltitudeMeters>10.6000003814697265625</AltitudeMeters>
            <DistanceMeters>NAN</DistanceMeters>
          </Trackpoint>
          <Trackpoint>
            <Time>2022-09-24T15:34:03.000Z</Time>
            <Position>
              <LatitudeDegrees>43.326751179993152618408203125</LatitudeDegrees>
              <LongitudeDegrees>-2.77531192637979984283447265625</LongitudeDegrees>
            </Position>
            <AltitudeMeters>10.6000003814697265625</AltitudeMeters>
            <DistanceMeters>NAN</DistanceMeters>
          </Trackpoint>
          <Trackpoint>
            <Time>2022-09-24T15:34:04.000Z</Time>
            <Position>
              <LatitudeDegrees>43.3267481625080108642578125</LatitudeDegrees>
              <LongitudeDegrees>-2.77543229050934314727783203125</LongitudeDegrees>
            </Position>
            <AltitudeMeters>10.6000003814697265625</AltitudeMeters>
            <DistanceMeters>NAN</DistanceMeters>
          </Trackpoint>
          <Trackpoint>
            <Time>2022-09-24T15:34:05.000Z</Time>
            <Position>
              <LatitudeDegrees>43.326749838888645172119140625</LatitudeDegrees>
              <LongitudeDegrees>-2.7755326218903064727783203125</LongitudeDegrees>
            </Position>
            <AltitudeMeters>10.6000003814697265625</AltitudeMeters>
            <DistanceMeters>NAN</DistanceMeters>
          </Trackpoint>
          <Trackpoint>
            <Time>2022-09-24T15:34:06.000Z</Time>
            <Position>
              <LatitudeDegrees>43.326752185821533203125</LatitudeDegrees>
              <LongitudeDegrees>-2.77563362382352352142333984375</LongitudeDegrees>
            </Position>
            <AltitudeMeters>10.3999996185302734375</AltitudeMeters>
            <DistanceMeters>NAN</DistanceMeters>
          </Trackpoint>
          <Trackpoint>
            <Time>2022-09-24T15:34:07.000Z</Time>
            <Position>
              <LatitudeDegrees>43.32675553858280181884765625</LatitudeDegrees>
              <LongitudeDegrees>-2.77573621831834316253662109375</LongitudeDegrees>
            </Position>
            <AltitudeMeters>10.19999980926513671875</AltitudeMeters>
            <DistanceMeters>NAN</DistanceMeters>
          </Trackpoint>
          <Trackpoint>
            <Time>2022-09-24T15:34:08.000Z</Time>
            <Position>
              <LatitudeDegrees>43.32676081918179988861083984375</LatitudeDegrees>
              <LongitudeDegrees>-2.775840573012828826904296875</LongitudeDegrees>
            </Position>
            <AltitudeMeters>10.19999980926513671875</AltitudeMeters>
            <DistanceMeters>NAN</DistanceMeters>
          </Trackpoint>
          <Trackpoint>
            <Time>2022-09-24T15:34:09.000Z</Time>
            <Position>
              <LatitudeDegrees>43.32676551304757595062255859375</LatitudeDegrees>
              <LongitudeDegrees>-2.77594760991632938385009765625</LongitudeDegrees>
            </Position>
            <AltitudeMeters>10</AltitudeMeters>
            <DistanceMeters>NAN</DistanceMeters>
          </Trackpoint>
          <Trackpoint>
            <Time>2022-09-24T15:34:10.000Z</Time>
            <Position>
              <LatitudeDegrees>43.32676987163722515106201171875</LatitudeDegrees>
              <LongitudeDegrees>-2.77605439536273479461669921875</LongitudeDegrees>
            </Position>
            <AltitudeMeters>9.80000019073486328125</AltitudeMeters>
            <DistanceMeters>NAN</DistanceMeters>
          </Trackpoint>
          <Trackpoint>
            <Time>2022-09-24T15:34:11.000Z</Time>
            <Position>
              <LatitudeDegrees>43.3267707936465740203857421875</LatitudeDegrees>
              <LongitudeDegrees>-2.7761639468371868133544921875</LongitudeDegrees>
            </Position>
            <AltitudeMeters>9.6000003814697265625</AltitudeMeters>
            <DistanceMeters>NAN</DistanceMeters>
          </Trackpoint>
          <Trackpoint>
            <Time>2022-09-24T15:34:12.000Z</Time>
            <Position>
              <LatitudeDegrees>43.326770626008510589599609375</LatitudeDegrees>
              <LongitudeDegrees>-2.7762742526829242706298828125</LongitudeDegrees>
            </Position>
            <AltitudeMeters>9.3999996185302734375</AltitudeMeters>
            <DistanceMeters>NAN</DistanceMeters>
          </Trackpoint>
          <Trackpoint>
            <Time>2022-09-24T15:34:13.000Z</Time>
            <Position>
              <LatitudeDegrees>43.3267694525420665740966796875</LatitudeDegrees>
              <LongitudeDegrees>-2.776362262666225433349609375</LongitudeDegrees>
            </Position>
            <AltitudeMeters>9.3999996185302734375</AltitudeMeters>
            <DistanceMeters>NAN</DistanceMeters>
          </Trackpoint>
          <Trackpoint>
            <Time>2022-09-24T15:34:14.000Z</Time>
            <Position>
              <LatitudeDegrees>43.3267629146575927734375</LatitudeDegrees>
              <LongitudeDegrees>-2.77649645693600177764892578125</LongitudeDegrees>
            </Position>
            <AltitudeMeters>9.3999996185302734375</AltitudeMeters>
            <DistanceMeters>NAN</DistanceMeters>
          </Trackpoint>
          <Trackpoint>
            <Time>2022-09-24T15:34:15.000Z</Time>
            <Position>
              <LatitudeDegrees>43.32675411365926265716552734375</LatitudeDegrees>
              <LongitudeDegrees>-2.77660743333399295806884765625</LongitudeDegrees>
            </Position>
            <AltitudeMeters>9.3999996185302734375</AltitudeMeters>
            <DistanceMeters>NAN</DistanceMeters>
          </Trackpoint>
          <Trackpoint>
            <Time>2022-09-24T15:34:16.000Z</Time>
            <Position>
              <LatitudeDegrees>43.3267379365861415863037109375</LatitudeDegrees>
              <LongitudeDegrees>-2.7767161466181278228759765625</LongitudeDegrees>
            </Position>
            <AltitudeMeters>9.3999996185302734375</AltitudeMeters>
            <DistanceMeters>NAN</DistanceMeters>
          </Trackpoint>
          <Trackpoint>
            <Time>2022-09-24T15:34:17.000Z</Time>
            <Position>
              <LatitudeDegrees>43.32671086303889751434326171875</LatitudeDegrees>
              <LongitudeDegrees>-2.77682301588356494903564453125</LongitudeDegrees>
            </Position>
            <AltitudeMeters>9.3999996185302734375</AltitudeMeters>
            <DistanceMeters>NAN</DistanceMeters>
          </Trackpoint>
          <Trackpoint>
            <Time>2022-09-24T15:34:18.000Z</Time>
            <Position>
              <LatitudeDegrees>43.32667834125459194183349609375</LatitudeDegrees>
              <LongitudeDegrees>-2.77692829258739948272705078125</LongitudeDegrees>
            </Position>
            <AltitudeMeters>9.3999996185302734375</AltitudeMeters>
            <DistanceMeters>NAN</DistanceMeters>
          </Trackpoint>
          <Trackpoint>
            <Time>2022-09-24T15:34:19.000Z</Time>
            <Position>
              <LatitudeDegrees>43.32663760520517826080322265625</LatitudeDegrees>
              <LongitudeDegrees>-2.777029462158679962158203125</LongitudeDegrees>
            </Position>
            <AltitudeMeters>9.3999996185302734375</AltitudeMeters>
            <DistanceMeters>NAN</DistanceMeters>
          </Trackpoint>
          <Trackpoint>
            <Time>2022-09-24T15:34:20.000Z</Time>
            <Position>
              <LatitudeDegrees>43.32659955136477947235107421875</LatitudeDegrees>
              <LongitudeDegrees>-2.77712878771126270294189453125</LongitudeDegrees>
            </Position>
            <AltitudeMeters>9.3999996185302734375</AltitudeMeters>
            <DistanceMeters>NAN</DistanceMeters>
          </Trackpoint>
          <Trackpoint>
            <Time>2022-09-24T15:34:21.000Z</Time>
            <Position>
              <LatitudeDegrees>43.3265622518956661224365234375</LatitudeDegrees>
              <LongitudeDegrees>-2.77722199447453022003173828125</LongitudeDegrees>
            </Position>
            <AltitudeMeters>9.3999996185302734375</AltitudeMeters>
            <DistanceMeters>NAN</DistanceMeters>
          </Trackpoint>
          <Trackpoint>
            <Time>2022-09-24T15:34:22.000Z</Time>
            <Position>
              <LatitudeDegrees>43.32651858218014240264892578125</LatitudeDegrees>
              <LongitudeDegrees>-2.777309082448482513427734375</LongitudeDegrees>
            </Position>
            <AltitudeMeters>9.3999996185302734375</AltitudeMeters>
            <DistanceMeters>NAN</DistanceMeters>
          </Trackpoint>
          <Trackpoint>
            <Time>2022-09-24T15:34:23.000Z</Time>
            <Position>
              <LatitudeDegrees>43.32648237235844135284423828125</LatitudeDegrees>
              <LongitudeDegrees>-2.77737270109355449676513671875</LongitudeDegrees>
            </Position>
            <AltitudeMeters>9.3999996185302734375</AltitudeMeters>
            <DistanceMeters>NAN</DistanceMeters>
          </Trackpoint>
          <Trackpoint>
            <Time>2022-09-24T15:34:24.000Z</Time>
            <Position>
              <LatitudeDegrees>43.32641297020018100738525390625</LatitudeDegrees>
              <LongitudeDegrees>-2.77745735831558704376220703125</LongitudeDegrees>
            </Position>
            <AltitudeMeters>9.6000003814697265625</AltitudeMeters>
            <DistanceMeters>NAN</DistanceMeters>
          </Trackpoint>
          <Trackpoint>
            <Time>2022-09-24T15:34:25.000Z</Time>
            <Position>
              <LatitudeDegrees>43.32634440623223781585693359375</LatitudeDegrees>
              <LongitudeDegrees>-2.7775094099342823028564453125</LongitudeDegrees>
            </Position>
            <AltitudeMeters>9.6000003814697265625</AltitudeMeters>
            <DistanceMeters>NAN</DistanceMeters>
          </Trackpoint>
          <Trackpoint>
            <Time>2022-09-24T15:34:26.000Z</Time>
            <Position>
              <LatitudeDegrees>43.3262675441801548004150390625</LatitudeDegrees>
              <LongitudeDegrees>-2.777547128498554229736328125</LongitudeDegrees>
            </Position>
            <AltitudeMeters>10.19999980926513671875</AltitudeMeters>
            <DistanceMeters>NAN</DistanceMeters>
          </Trackpoint>
          <Trackpoint>
            <Time>2022-09-24T15:34:27.000Z</Time>
            <Position>
              <LatitudeDegrees>43.3262048475444316864013671875</LatitudeDegrees>
              <LongitudeDegrees>-2.777567915618419647216796875</LongitudeDegrees>
            </Position>
            <AltitudeMeters>10.3999996185302734375</AltitudeMeters>
            <DistanceMeters>NAN</DistanceMeters>
          </Trackpoint>
          <Trackpoint>
            <Time>2022-09-24T15:34:28.000Z</Time>
            <Position>
              <LatitudeDegrees>43.3262048475444316864013671875</LatitudeDegrees>
              <LongitudeDegrees>-2.777567915618419647216796875</LongitudeDegrees>
            </Position>
            <AltitudeMeters>10.3999996185302734375</AltitudeMeters>
            <DistanceMeters>NAN</DistanceMeters>
          </Trackpoint>
          <Trackpoint>
            <Time>2022-09-24T15:34:29.000Z</Time>
            <Position>
              <LatitudeDegrees>43.32604701630771160125732421875</LatitudeDegrees>
              <LongitudeDegrees>-2.777604795992374420166015625</LongitudeDegrees>
            </Position>
            <AltitudeMeters>10.80000019073486328125</AltitudeMeters>
            <DistanceMeters>NAN</DistanceMeters>
          </Trackpoint>
          <Trackpoint>
            <Time>2022-09-24T15:34:30.000Z</Time>
            <Position>
              <LatitudeDegrees>43.32594878040254116058349609375</LatitudeDegrees>
              <LongitudeDegrees>-2.77762197889387607574462890625</LongitudeDegrees>
            </Position>
            <AltitudeMeters>10.80000019073486328125</AltitudeMeters>
            <DistanceMeters>NAN</DistanceMeters>
          </Trackpoint>
          <Trackpoint>
            <Time>2022-09-24T15:34:31.000Z</Time>
            <Position>
              <LatitudeDegrees>43.32586797885596752166748046875</LatitudeDegrees>
              <LongitudeDegrees>-2.77763572521507740020751953125</LongitudeDegrees>
            </Position>
            <AltitudeMeters>11.19999980926513671875</AltitudeMeters>
            <DistanceMeters>NAN</DistanceMeters>
          </Trackpoint>
          <Trackpoint>
            <Time>2022-09-24T15:34:32.000Z</Time>
            <Position>
              <LatitudeDegrees>43.3257877640426158905029296875</LatitudeDegrees>
              <LongitudeDegrees>-2.77765567414462566375732421875</LongitudeDegrees>
            </Position>
            <AltitudeMeters>11.19999980926513671875</AltitudeMeters>
            <DistanceMeters>NAN</DistanceMeters>
          </Trackpoint>
          <Trackpoint>
            <Time>2022-09-24T15:34:33.000Z</Time>
            <Position>
              <LatitudeDegrees>43.32572649233043193817138671875</LatitudeDegrees>
              <LongitudeDegrees>-2.77767947874963283538818359375</LongitudeDegrees>
            </Position>
            <AltitudeMeters>11.19999980926513671875</AltitudeMeters>
            <DistanceMeters>NAN</DistanceMeters>
          </Trackpoint>
          <Trackpoint>
            <Time>2022-09-24T15:34:34.000Z</Time>
            <Position>
              <LatitudeDegrees>43.325640745460987091064453125</LatitudeDegrees>
              <LongitudeDegrees>-2.77773044072091579437255859375</LongitudeDegrees>
            </Position>
            <AltitudeMeters>11.19999980926513671875</AltitudeMeters>
            <DistanceMeters>NAN</DistanceMeters>
          </Trackpoint>
          <Trackpoint>
            <Time>2022-09-24T15:34:35.000Z</Time>
            <Position>
              <LatitudeDegrees>43.32557612098753452301025390625</LatitudeDegrees>
              <LongitudeDegrees>-2.777790538966655731201171875</LongitudeDegrees>
            </Position>
            <AltitudeMeters>11.19999980926513671875</AltitudeMeters>
            <DistanceMeters>NAN</DistanceMeters>
          </Trackpoint>
          <Trackpoint>
            <Time>2022-09-24T15:34:36.000Z</Time>
            <Position>
              <LatitudeDegrees>43.3255188725888729095458984375</LatitudeDegrees>
              <LongitudeDegrees>-2.77786505408585071563720703125</LongitudeDegrees>
            </Position>
            <AltitudeMeters>10.6000003814697265625</AltitudeMeters>
            <DistanceMeters>NAN</DistanceMeters>
          </Trackpoint>
          <Trackpoint>
            <Time>2022-09-24T15:34:37.000Z</Time>
            <Position>
              <LatitudeDegrees>43.3254833333194255828857421875</LatitudeDegrees>
              <LongitudeDegrees>-2.777936048805713653564453125</LongitudeDegrees>
            </Position>
            <AltitudeMeters>10.19999980926513671875</AltitudeMeters>
            <DistanceMeters>NAN</DistanceMeters>
          </Trackpoint>
          <Trackpoint>
            <Time>2022-09-24T15:34:38.000Z</Time>
            <Position>
              <LatitudeDegrees>43.3254424296319484710693359375</LatitudeDegrees>
              <LongitudeDegrees>-2.77805230580270290374755859375</LongitudeDegrees>
            </Position>
            <AltitudeMeters>10</AltitudeMeters>
            <DistanceMeters>NAN</DistanceMeters>
          </Trackpoint>
          <Trackpoint>
            <Time>2022-09-24T15:34:39.000Z</Time>
            <Position>
              <LatitudeDegrees>43.32541443407535552978515625</LatitudeDegrees>
              <LongitudeDegrees>-2.77815154753625392913818359375</LongitudeDegrees>
            </Position>
            <AltitudeMeters>9.6000003814697265625</AltitudeMeters>
            <DistanceMeters>NAN</DistanceMeters>
          </Trackpoint>
          <Trackpoint>
            <Time>2022-09-24T15:34:40.000Z</Time>
            <Position>
              <LatitudeDegrees>43.3253941498696804046630859375</LatitudeDegrees>
              <LongitudeDegrees>-2.7782326005399227142333984375</LongitudeDegrees>
            </Position>
            <AltitudeMeters>9.6000003814697265625</AltitudeMeters>
            <DistanceMeters>NAN</DistanceMeters>
          </Trackpoint>
          <Trackpoint>
            <Time>2022-09-24T15:34:41.000Z</Time>
            <Position>
              <LatitudeDegrees>43.32536892034113407135009765625</LatitudeDegrees>
              <LongitudeDegrees>-2.7783328481018543243408203125</LongitudeDegrees>
            </Position>
            <AltitudeMeters>9.6000003814697265625</AltitudeMeters>
            <DistanceMeters>NAN</DistanceMeters>
          </Trackpoint>
          <Trackpoint>
            <Time>2022-09-24T15:34:42.000Z</Time>
            <Position>
              <LatitudeDegrees>43.3253441937267780303955078125</LatitudeDegrees>
              <LongitudeDegrees>-2.77843385003507137298583984375</LongitudeDegrees>
            </Position>
            <AltitudeMeters>9</AltitudeMeters>
            <DistanceMeters>NAN</DistanceMeters>
          </Trackpoint>
          <Trackpoint>
            <Time>2022-09-24T15:34:43.000Z</Time>
            <Position>
              <LatitudeDegrees>43.32531980238854885101318359375</LatitudeDegrees>
              <LongitudeDegrees>-2.77853543870151042938232421875</LongitudeDegrees>
            </Position>
            <AltitudeMeters>9</AltitudeMeters>
            <DistanceMeters>NAN</DistanceMeters>
          </Trackpoint>
          <Trackpoint>
            <Time>2022-09-24T15:34:44.000Z</Time>
            <Position>
              <LatitudeDegrees>43.32529867999255657196044921875</LatitudeDegrees>
              <LongitudeDegrees>-2.7786359377205371856689453125</LongitudeDegrees>
            </Position>
            <AltitudeMeters>9.19999980926513671875</AltitudeMeters>
            <DistanceMeters>NAN</DistanceMeters>
          </Trackpoint>
          <Trackpoint>
            <Time>2022-09-24T15:34:45.000Z</Time>
            <Position>
              <LatitudeDegrees>43.32527504302561283111572265625</LatitudeDegrees>
              <LongitudeDegrees>-2.778733670711517333984375</LongitudeDegrees>
            </Position>
            <AltitudeMeters>9.19999980926513671875</AltitudeMeters>
            <DistanceMeters>NAN</DistanceMeters>
          </Trackpoint>
          <Trackpoint>
            <Time>2022-09-24T15:34:46.000Z</Time>
            <Position>
              <LatitudeDegrees>43.32525023259222507476806640625</LatitudeDegrees>
              <LongitudeDegrees>-2.778834588825702667236328125</LongitudeDegrees>
            </Position>
            <AltitudeMeters>9.19999980926513671875</AltitudeMeters>
            <DistanceMeters>NAN</DistanceMeters>
          </Trackpoint>
          <Trackpoint>
            <Time>2022-09-24T15:34:47.000Z</Time>
            <Position>
              <LatitudeDegrees>43.325227014720439910888671875</LatitudeDegrees>
              <LongitudeDegrees>-2.778932489454746246337890625</LongitudeDegrees>
            </Position>
            <AltitudeMeters>9.19999980926513671875</AltitudeMeters>
            <DistanceMeters>NAN</DistanceMeters>
          </Trackpoint>
          <Trackpoint>
            <Time>2022-09-24T15:34:48.000Z</Time>
            <Position>
              <LatitudeDegrees>43.3252010308206081390380859375</LatitudeDegrees>
              <LongitudeDegrees>-2.77903080917894840240478515625</LongitudeDegrees>
            </Position>
            <AltitudeMeters>9.19999980926513671875</AltitudeMeters>
            <DistanceMeters>NAN</DistanceMeters>
          </Trackpoint>
          <Trackpoint>
            <Time>2022-09-24T15:34:49.000Z</Time>
            <Position>
              <LatitudeDegrees>43.32517630420625209808349609375</LatitudeDegrees>
              <LongitudeDegrees>-2.7791294641792774200439453125</LongitudeDegrees>
            </Position>
            <AltitudeMeters>9.19999980926513671875</AltitudeMeters>
            <DistanceMeters>NAN</DistanceMeters>
          </Trackpoint>
          <Trackpoint>
            <Time>2022-09-24T15:34:50.000Z</Time>
            <Position>
              <LatitudeDegrees>43.3251537568867206573486328125</LatitudeDegrees>
              <LongitudeDegrees>-2.77922828681766986846923828125</LongitudeDegrees>
            </Position>
            <AltitudeMeters>8.80000019073486328125</AltitudeMeters>
            <DistanceMeters>NAN</DistanceMeters>
          </Trackpoint>
          <Trackpoint>
            <Time>2022-09-24T15:34:51.000Z</Time>
            <Position>
              <LatitudeDegrees>43.3251299522817134857177734375</LatitudeDegrees>
              <LongitudeDegrees>-2.77932585217058658599853515625</LongitudeDegrees>
            </Position>
            <AltitudeMeters>8.6000003814697265625</AltitudeMeters>
            <DistanceMeters>NAN</DistanceMeters>
          </Trackpoint>
          <Trackpoint>
            <Time>2022-09-24T15:34:52.000Z</Time>
            <Position>
              <LatitudeDegrees>43.32510598003864288330078125</LatitudeDegrees>
              <LongitudeDegrees>-2.77942408807575702667236328125</LongitudeDegrees>
            </Position>
            <AltitudeMeters>8.3999996185302734375</AltitudeMeters>
            <DistanceMeters>NAN</DistanceMeters>
          </Trackpoint>
          <Trackpoint>
            <Time>2022-09-24T15:34:53.000Z</Time>
            <Position>
              <LatitudeDegrees>43.3250840194523334503173828125</LatitudeDegrees>
              <LongitudeDegrees>-2.77952349744737148284912109375</LongitudeDegrees>
            </Position>
            <AltitudeMeters>8.3999996185302734375</AltitudeMeters>
            <DistanceMeters>NAN</DistanceMeters>
          </Trackpoint>
          <Trackpoint>
            <Time>2022-09-24T15:34:54.000Z</Time>
            <Position>
              <LatitudeDegrees>43.32505878992378711700439453125</LatitudeDegrees>
              <LongitudeDegrees>-2.779621146619319915771484375</LongitudeDegrees>
            </Position>
            <AltitudeMeters>8.3999996185302734375</AltitudeMeters>
            <DistanceMeters>NAN</DistanceMeters>
          </Trackpoint>
          <Trackpoint>
            <Time>2022-09-24T15:34:55.000Z</Time>
            <Position>
              <LatitudeDegrees>43.32503213547170162200927734375</LatitudeDegrees>
              <LongitudeDegrees>-2.779720388352870941162109375</LongitudeDegrees>
            </Position>
            <AltitudeMeters>8.19999980926513671875</AltitudeMeters>
            <DistanceMeters>NAN</DistanceMeters>
          </Trackpoint>
          <Trackpoint>
            <Time>2022-09-24T15:34:56.000Z</Time>
            <Position>
              <LatitudeDegrees>43.32500548101961612701416015625</LatitudeDegrees>
              <LongitudeDegrees>-2.77981921099126338958740234375</LongitudeDegrees>
            </Position>
            <AltitudeMeters>8.19999980926513671875</AltitudeMeters>
            <DistanceMeters>NAN</DistanceMeters>
          </Trackpoint>
          <Trackpoint>
            <Time>2022-09-24T15:34:57.000Z</Time>
            <Position>
              <LatitudeDegrees>43.32497513853013515472412109375</LatitudeDegrees>
              <LongitudeDegrees>-2.77991778217256069183349609375</LongitudeDegrees>
            </Position>
            <AltitudeMeters>8</AltitudeMeters>
            <DistanceMeters>NAN</DistanceMeters>
          </Trackpoint>
          <Trackpoint>
            <Time>2022-09-24T15:34:58.000Z</Time>
            <Position>
              <LatitudeDegrees>43.3249428682029247283935546875</LatitudeDegrees>
              <LongitudeDegrees>-2.78001668862998485565185546875</LongitudeDegrees>
            </Position>
            <AltitudeMeters>7.599999904632568359375</AltitudeMeters>
            <DistanceMeters>NAN</DistanceMeters>
          </Trackpoint>
          <Trackpoint>
            <Time>2022-09-24T15:34:59.000Z</Time>
            <Position>
              <LatitudeDegrees>43.32490892149507999420166015625</LatitudeDegrees>
              <LongitudeDegrees>-2.780115343630313873291015625</LongitudeDegrees>
            </Position>
            <AltitudeMeters>6.599999904632568359375</AltitudeMeters>
            <DistanceMeters>NAN</DistanceMeters>
          </Trackpoint>
          <Trackpoint>
            <Time>2022-09-24T15:35:00.000Z</Time>
            <Position>
              <LatitudeDegrees>43.3248694427311420440673828125</LatitudeDegrees>
              <LongitudeDegrees>-2.7802140824496746063232421875</LongitudeDegrees>
            </Position>
            <AltitudeMeters>6.400000095367431640625</AltitudeMeters>
            <DistanceMeters>NAN</DistanceMeters>
          </Trackpoint>
          <Trackpoint>
            <Time>2022-09-24T15:35:01.000Z</Time>
            <Position>
              <LatitudeDegrees>43.32482703030109405517578125</LatitudeDegrees>
              <LongitudeDegrees>-2.780313827097415924072265625</LongitudeDegrees>
            </Position>
            <AltitudeMeters>5</AltitudeMeters>
            <DistanceMeters>NAN</DistanceMeters>
          </Trackpoint>
          <Trackpoint>
            <Time>2022-09-24T15:35:02.000Z</Time>
            <Position>
              <LatitudeDegrees>43.32478336058557033538818359375</LatitudeDegrees>
              <LongitudeDegrees>-2.780413739383220672607421875</LongitudeDegrees>
            </Position>
            <AltitudeMeters>5</AltitudeMeters>
            <DistanceMeters>NAN</DistanceMeters>
          </Trackpoint>
          <Trackpoint>
            <Time>2022-09-24T15:35:03.000Z</Time>
            <Position>
              <LatitudeDegrees>43.324739523231983184814453125</LatitudeDegrees>
              <LongitudeDegrees>-2.78051356784999370574951171875</LongitudeDegrees>
            </Position>
            <AltitudeMeters>4.400000095367431640625</AltitudeMeters>
            <DistanceMeters>NAN</DistanceMeters>
          </Trackpoint>
          <Trackpoint>
            <Time>2022-09-24T15:35:04.000Z</Time>
            <Position>
              <LatitudeDegrees>43.324693925678730010986328125</LatitudeDegrees>
              <LongitudeDegrees>-2.7806123904883861541748046875</LongitudeDegrees>
            </Position>
            <AltitudeMeters>4.400000095367431640625</AltitudeMeters>
            <DistanceMeters>NAN</DistanceMeters>
          </Trackpoint>
          <Trackpoint>
            <Time>2022-09-24T15:35:05.000Z</Time>
            <Position>
              <LatitudeDegrees>43.32464908249676227569580078125</LatitudeDegrees>
              <LongitudeDegrees>-2.78071037493646144866943359375</LongitudeDegrees>
            </Position>
            <AltitudeMeters>4.400000095367431640625</AltitudeMeters>
            <DistanceMeters>NAN</DistanceMeters>
          </Trackpoint>
          <Trackpoint>
            <Time>2022-09-24T15:35:06.000Z</Time>
            <Position>
              <LatitudeDegrees>43.32460432313382625579833984375</LatitudeDegrees>
              <LongitudeDegrees>-2.78081045486032962799072265625</LongitudeDegrees>
            </Position>
            <AltitudeMeters>4.400000095367431640625</AltitudeMeters>
            <DistanceMeters>NAN</DistanceMeters>
          </Trackpoint>
          <Trackpoint>
            <Time>2022-09-24T15:35:07.000Z</Time>
            <Position>
              <LatitudeDegrees>43.3245583064854145050048828125</LatitudeDegrees>
              <LongitudeDegrees>-2.78091271407902240753173828125</LongitudeDegrees>
            </Position>
            <AltitudeMeters>4.400000095367431640625</AltitudeMeters>
            <DistanceMeters>NAN</DistanceMeters>
          </Trackpoint>
          <Trackpoint>
            <Time>2022-09-24T15:35:08.000Z</Time>
            <Position>
              <LatitudeDegrees>43.32451128400862216949462890625</LatitudeDegrees>
              <LongitudeDegrees>-2.78101329691708087921142578125</LongitudeDegrees>
            </Position>
            <AltitudeMeters>4.400000095367431640625</AltitudeMeters>
            <DistanceMeters>NAN</DistanceMeters>
          </Trackpoint>
          <Trackpoint>
            <Time>2022-09-24T15:35:09.000Z</Time>
            <Position>
              <LatitudeDegrees>43.3244684524834156036376953125</LatitudeDegrees>
              <LongitudeDegrees>-2.781118489801883697509765625</LongitudeDegrees>
            </Position>
            <AltitudeMeters>4.400000095367431640625</AltitudeMeters>
            <DistanceMeters>NAN</DistanceMeters>
          </Trackpoint>
          <Trackpoint>
            <Time>2022-09-24T15:35:10.000Z</Time>
            <Position>
              <LatitudeDegrees>43.324431069195270538330078125</LatitudeDegrees>
              <LongitudeDegrees>-2.781235165894031524658203125</LongitudeDegrees>
            </Position>
            <AltitudeMeters>4.19999980926513671875</AltitudeMeters>
            <DistanceMeters>NAN</DistanceMeters>
          </Trackpoint>
          <Trackpoint>
            <Time>2022-09-24T15:35:11.000Z</Time>
            <Position>
              <LatitudeDegrees>43.32441120408475399017333984375</LatitudeDegrees>
              <LongitudeDegrees>-2.78135620057582855224609375</LongitudeDegrees>
            </Position>
            <AltitudeMeters>4.19999980926513671875</AltitudeMeters>
            <DistanceMeters>NAN</DistanceMeters>
          </Trackpoint>
          <Trackpoint>
            <Time>2022-09-24T15:35:12.000Z</Time>
            <Position>
              <LatitudeDegrees>43.3244077675044536590576171875</LatitudeDegrees>
              <LongitudeDegrees>-2.78147748671472072601318359375</LongitudeDegrees>
            </Position>
            <AltitudeMeters>4</AltitudeMeters>
            <DistanceMeters>NAN</DistanceMeters>
          </Trackpoint>
          <Trackpoint>
            <Time>2022-09-24T15:35:13.000Z</Time>
            <Position>
              <LatitudeDegrees>43.32441723905503749847412109375</LatitudeDegrees>
              <LongitudeDegrees>-2.7815974317491054534912109375</LongitudeDegrees>
            </Position>
            <AltitudeMeters>3.599999904632568359375</AltitudeMeters>
            <DistanceMeters>NAN</DistanceMeters>
          </Trackpoint>
          <Trackpoint>
            <Time>2022-09-24T15:35:14.000Z</Time>
            <Position>
              <LatitudeDegrees>43.32443383522331714630126953125</LatitudeDegrees>
              <LongitudeDegrees>-2.781715951859951019287109375</LongitudeDegrees>
            </Position>
            <AltitudeMeters>3.599999904632568359375</AltitudeMeters>
            <DistanceMeters>NAN</DistanceMeters>
          </Trackpoint>
          <Trackpoint>
            <Time>2022-09-24T15:35:15.000Z</Time>
            <Position>
              <LatitudeDegrees>43.32445177249610424041748046875</LatitudeDegrees>
              <LongitudeDegrees>-2.78183639980852603912353515625</LongitudeDegrees>
            </Position>
            <AltitudeMeters>3.599999904632568359375</AltitudeMeters>
            <DistanceMeters>NAN</DistanceMeters>
          </Trackpoint>
          <Trackpoint>
            <Time>2022-09-24T15:35:16.000Z</Time>
            <Position>
              <LatitudeDegrees>43.32446903921663761138916015625</LatitudeDegrees>
              <LongitudeDegrees>-2.78195810504257678985595703125</LongitudeDegrees>
            </Position>
            <AltitudeMeters>3.2000000476837158203125</AltitudeMeters>
            <DistanceMeters>NAN</DistanceMeters>
          </Trackpoint>
          <Trackpoint>
            <Time>2022-09-24T15:35:17.000Z</Time>
            <Position>
              <LatitudeDegrees>43.32448865287005901336669921875</LatitudeDegrees>
              <LongitudeDegrees>-2.7820792235434055328369140625</LongitudeDegrees>
            </Position>
            <AltitudeMeters>2.599999904632568359375</AltitudeMeters>
            <DistanceMeters>NAN</DistanceMeters>
          </Trackpoint>
          <Trackpoint>
            <Time>2022-09-24T15:35:18.000Z</Time>
            <Position>
              <LatitudeDegrees>43.32450826652348041534423828125</LatitudeDegrees>
              <LongitudeDegrees>-2.78220118023455142974853515625</LongitudeDegrees>
            </Position>
            <AltitudeMeters>1.7999999523162841796875</AltitudeMeters>
            <DistanceMeters>NAN</DistanceMeters>
          </Trackpoint>
          <Trackpoint>
            <Time>2022-09-24T15:35:19.000Z</Time>
            <Position>
              <LatitudeDegrees>43.3245271258056163787841796875</LatitudeDegrees>
              <LongitudeDegrees>-2.78232489712536334991455078125</LongitudeDegrees>
            </Position>
            <AltitudeMeters>1.7999999523162841796875</AltitudeMeters>
            <DistanceMeters>NAN</DistanceMeters>
          </Trackpoint>
          <Trackpoint>
            <Time>2022-09-24T15:35:20.000Z</Time>
            <Position>
              <LatitudeDegrees>43.324549756944179534912109375</LatitudeDegrees>
              <LongitudeDegrees>-2.78244894929230213165283203125</LongitudeDegrees>
            </Position>
            <AltitudeMeters>1.7999999523162841796875</AltitudeMeters>
            <DistanceMeters>NAN</DistanceMeters>
          </Trackpoint>
          <Trackpoint>
            <Time>2022-09-24T15:35:21.000Z</Time>
            <Position>
              <LatitudeDegrees>43.3245693705976009368896484375</LatitudeDegrees>
              <LongitudeDegrees>-2.78256990015506744384765625</LongitudeDegrees>
            </Position>
            <AltitudeMeters>1.7999999523162841796875</AltitudeMeters>
            <DistanceMeters>NAN</DistanceMeters>
          </Trackpoint>
          <Trackpoint>
            <Time>2022-09-24T15:35:22.000Z</Time>
            <Position>
              <LatitudeDegrees>43.3245891518890857696533203125</LatitudeDegrees>
              <LongitudeDegrees>-2.78268682770431041717529296875</LongitudeDegrees>
            </Position>
            <AltitudeMeters>1.7999999523162841796875</AltitudeMeters>
            <DistanceMeters>NAN</DistanceMeters>
          </Trackpoint>
          <Trackpoint>
            <Time>2022-09-24T15:35:23.000Z</Time>
            <Position>
              <LatitudeDegrees>43.32460968755185604095458984375</LatitudeDegrees>
              <LongitudeDegrees>-2.78280015103518962860107421875</LongitudeDegrees>
            </Position>
            <AltitudeMeters>2.2000000476837158203125</AltitudeMeters>
            <DistanceMeters>NAN</DistanceMeters>
          </Trackpoint>
          <Trackpoint>
            <Time>2022-09-24T15:35:24.000Z</Time>
            <Position>
              <LatitudeDegrees>43.3246330730617046356201171875</LatitudeDegrees>
              <LongitudeDegrees>-2.78290727175772190093994140625</LongitudeDegrees>
            </Position>
            <AltitudeMeters>3.2000000476837158203125</AltitudeMeters>
            <DistanceMeters>NAN</DistanceMeters>
          </Trackpoint>
          <Trackpoint>
            <Time>2022-09-24T15:35:25.000Z</Time>
            <Position>
              <LatitudeDegrees>43.3246672712266445159912109375</LatitudeDegrees>
              <LongitudeDegrees>-2.78300433419644832611083984375</LongitudeDegrees>
            </Position>
            <AltitudeMeters>4.400000095367431640625</AltitudeMeters>
            <DistanceMeters>NAN</DistanceMeters>
          </Trackpoint>
          <Trackpoint>
            <Time>2022-09-24T15:35:26.000Z</Time>
            <Position>
              <LatitudeDegrees>43.3247168920934200286865234375</LatitudeDegrees>
              <LongitudeDegrees>-2.78309435583651065826416015625</LongitudeDegrees>
            </Position>
            <AltitudeMeters>4.400000095367431640625</AltitudeMeters>
            <DistanceMeters>NAN</DistanceMeters>
          </Trackpoint>
          <Trackpoint>
            <Time>2022-09-24T15:35:27.000Z</Time>
            <Position>
              <LatitudeDegrees>43.32477749325335025787353515625</LatitudeDegrees>
              <LongitudeDegrees>-2.78317130170762538909912109375</LongitudeDegrees>
            </Position>
            <AltitudeMeters>4.599999904632568359375</AltitudeMeters>
            <DistanceMeters>NAN</DistanceMeters>
          </Trackpoint>
          <Trackpoint>
            <Time>2022-09-24T15:35:28.000Z</Time>
            <Position>
              <LatitudeDegrees>43.3248667605221271514892578125</LatitudeDegrees>
              <LongitudeDegrees>-2.78324556536972522735595703125</LongitudeDegrees>
            </Position>
            <AltitudeMeters>4.599999904632568359375</AltitudeMeters>
            <DistanceMeters>NAN</DistanceMeters>
          </Trackpoint>
          <Trackpoint>
            <Time>2022-09-24T15:35:29.000Z</Time>
            <Position>
              <LatitudeDegrees>43.3249301277101039886474609375</LatitudeDegrees>
              <LongitudeDegrees>-2.78328604996204376220703125</LongitudeDegrees>
            </Position>
            <AltitudeMeters>4.400000095367431640625</AltitudeMeters>
            <DistanceMeters>NAN</DistanceMeters>
          </Trackpoint>
          <Trackpoint>
            <Time>2022-09-24T15:35:30.000Z</Time>
            <Position>
              <LatitudeDegrees>43.32501168362796306610107421875</LatitudeDegrees>
              <LongitudeDegrees>-2.7833321504294872283935546875</LongitudeDegrees>
            </Position>
            <AltitudeMeters>4.400000095367431640625</AltitudeMeters>
            <DistanceMeters>NAN</DistanceMeters>
          </Trackpoint>
          <Trackpoint>
            <Time>2022-09-24T15:35:31.000Z</Time>
            <Position>
              <LatitudeDegrees>43.32509567029774188995361328125</LatitudeDegrees>
              <LongitudeDegrees>-2.78338151983916759490966796875</LongitudeDegrees>
            </Position>
            <AltitudeMeters>2.7999999523162841796875</AltitudeMeters>
            <DistanceMeters>NAN</DistanceMeters>
          </Trackpoint>
          <Trackpoint>
            <Time>2022-09-24T15:35:32.000Z</Time>
            <Position>
              <LatitudeDegrees>43.32518150098621845245361328125</LatitudeDegrees>
              <LongitudeDegrees>-2.78343013487756252288818359375</LongitudeDegrees>
            </Position>
            <AltitudeMeters>1.7999999523162841796875</AltitudeMeters>
            <DistanceMeters>NAN</DistanceMeters>
          </Trackpoint>
          <Trackpoint>
            <Time>2022-09-24T15:35:33.000Z</Time>
            <Position>
              <LatitudeDegrees>43.3252660743892192840576171875</LatitudeDegrees>
              <LongitudeDegrees>-2.7834763191640377044677734375</LongitudeDegrees>
            </Position>
            <AltitudeMeters>1.7999999523162841796875</AltitudeMeters>
            <DistanceMeters>NAN</DistanceMeters>
          </Trackpoint>
          <Trackpoint>
            <Time>2022-09-24T15:35:34.000Z</Time>
            <Position>
              <LatitudeDegrees>43.3253512345254421234130859375</LatitudeDegrees>
              <LongitudeDegrees>-2.78352149762213230133056640625</LongitudeDegrees>
            </Position>
            <AltitudeMeters>1.7999999523162841796875</AltitudeMeters>
            <DistanceMeters>NAN</DistanceMeters>
          </Trackpoint>
          <Trackpoint>
            <Time>2022-09-24T15:35:35.000Z</Time>
            <Position>
              <LatitudeDegrees>43.32543631084263324737548828125</LatitudeDegrees>
              <LongitudeDegrees>-2.78357078321278095245361328125</LongitudeDegrees>
            </Position>
            <AltitudeMeters>2.2000000476837158203125</AltitudeMeters>
            <DistanceMeters>NAN</DistanceMeters>
          </Trackpoint>
          <Trackpoint>
            <Time>2022-09-24T15:35:36.000Z</Time>
            <Position>
              <LatitudeDegrees>43.32543631084263324737548828125</LatitudeDegrees>
              <LongitudeDegrees>-2.78357078321278095245361328125</LongitudeDegrees>
            </Position>
            <AltitudeMeters>2.2000000476837158203125</AltitudeMeters>
            <DistanceMeters>NAN</DistanceMeters>
          </Trackpoint>
          <Trackpoint>
            <Time>2022-09-24T15:35:37.000Z</Time>
            <Position>
              <LatitudeDegrees>43.32560780458152294158935546875</LatitudeDegrees>
              <LongitudeDegrees>-2.7836748026311397552490234375</LongitudeDegrees>
            </Position>
            <AltitudeMeters>1.39999997615814208984375</AltitudeMeters>
            <DistanceMeters>NAN</DistanceMeters>
          </Trackpoint>
          <Trackpoint>
            <Time>2022-09-24T15:35:38.000Z</Time>
            <Position>
              <LatitudeDegrees>43.3256938867270946502685546875</LatitudeDegrees>
              <LongitudeDegrees>-2.78372148983180522918701171875</LongitudeDegrees>
            </Position>
            <AltitudeMeters>1.39999997615814208984375</AltitudeMeters>
            <DistanceMeters>NAN</DistanceMeters>
          </Trackpoint>
          <Trackpoint>
            <Time>2022-09-24T15:35:39.000Z</Time>
            <Position>
              <LatitudeDegrees>43.32577879540622234344482421875</LatitudeDegrees>
              <LongitudeDegrees>-2.783756442368030548095703125</LongitudeDegrees>
            </Position>
            <AltitudeMeters>0</AltitudeMeters>
            <DistanceMeters>NAN</DistanceMeters>
          </Trackpoint>
          <Trackpoint>
            <Time>2022-09-24T15:35:40.000Z</Time>
            <Position>
              <LatitudeDegrees>43.3258611895143985748291015625</LatitudeDegrees>
              <LongitudeDegrees>-2.783781252801418304443359375</LongitudeDegrees>
            </Position>
            <AltitudeMeters>0</AltitudeMeters>
            <DistanceMeters>NAN</DistanceMeters>
          </Trackpoint>
          <Trackpoint>
            <Time>2022-09-24T15:35:41.000Z</Time>
            <Position>
              <LatitudeDegrees>43.32594106905162334442138671875</LatitudeDegrees>
              <LongitudeDegrees>-2.78379860334098339080810546875</LongitudeDegrees>
            </Position>
            <AltitudeMeters>0</AltitudeMeters>
            <DistanceMeters>NAN</DistanceMeters>
          </Trackpoint>
          <Trackpoint>
            <Time>2022-09-24T15:35:42.000Z</Time>
            <Position>
              <LatitudeDegrees>43.32601633854210376739501953125</LatitudeDegrees>
              <LongitudeDegrees>-2.7838095836341381072998046875</LongitudeDegrees>
            </Position>
            <AltitudeMeters>-0.4000000059604644775390625</AltitudeMeters>
            <DistanceMeters>NAN</DistanceMeters>
          </Trackpoint>
          <Trackpoint>
            <Time>2022-09-24T15:35:43.000Z</Time>
            <Position>
              <LatitudeDegrees>43.3260918594896793365478515625</LatitudeDegrees>
              <LongitudeDegrees>-2.78381033800542354583740234375</LongitudeDegrees>
            </Position>
            <AltitudeMeters>-1.7999999523162841796875</AltitudeMeters>
            <DistanceMeters>NAN</DistanceMeters>
          </Trackpoint>
          <Trackpoint>
            <Time>2022-09-24T15:35:44.000Z</Time>
            <Position>
              <LatitudeDegrees>43.32616888917982578277587890625</LatitudeDegrees>
              <LongitudeDegrees>-2.7838072367012500762939453125</LongitudeDegrees>
            </Position>
            <AltitudeMeters>-1.7999999523162841796875</AltitudeMeters>
            <DistanceMeters>NAN</DistanceMeters>
          </Trackpoint>
          <Trackpoint>
            <Time>2022-09-24T15:35:45.000Z</Time>
            <Position>
              <LatitudeDegrees>43.32624382339417934417724609375</LatitudeDegrees>
              <LongitudeDegrees>-2.7838072367012500762939453125</LongitudeDegrees>
            </Position>
            <AltitudeMeters>-1.7999999523162841796875</AltitudeMeters>
            <DistanceMeters>NAN</DistanceMeters>
          </Trackpoint>
          <Trackpoint>
            <Time>2022-09-24T15:35:46.000Z</Time>
            <Position>
              <LatitudeDegrees>43.32631926052272319793701171875</LatitudeDegrees>
              <LongitudeDegrees>-2.78381335549056529998779296875</LongitudeDegrees>
            </Position>
            <AltitudeMeters>-1.7999999523162841796875</AltitudeMeters>
            <DistanceMeters>NAN</DistanceMeters>
          </Trackpoint>
          <Trackpoint>
            <Time>2022-09-24T15:35:47.000Z</Time>
            <Position>
              <LatitudeDegrees>43.32639318890869617462158203125</LatitudeDegrees>
              <LongitudeDegrees>-2.7838240005075931549072265625</LongitudeDegrees>
            </Position>
            <AltitudeMeters>-2</AltitudeMeters>
            <DistanceMeters>NAN</DistanceMeters>
          </Trackpoint>
          <Trackpoint>
            <Time>2022-09-24T15:35:48.000Z</Time>
            <Position>
              <LatitudeDegrees>43.3264666981995105743408203125</LatitudeDegrees>
              <LongitudeDegrees>-2.7838431112468242645263671875</LongitudeDegrees>
            </Position>
            <AltitudeMeters>-2.599999904632568359375</AltitudeMeters>
            <DistanceMeters>NAN</DistanceMeters>
          </Trackpoint>
          <Trackpoint>
            <Time>2022-09-24T15:35:49.000Z</Time>
            <Position>
              <LatitudeDegrees>43.32653836347162723541259765625</LatitudeDegrees>
              <LongitudeDegrees>-2.783871777355670928955078125</LongitudeDegrees>
            </Position>
            <AltitudeMeters>-3.2000000476837158203125</AltitudeMeters>
            <DistanceMeters>NAN</DistanceMeters>
          </Trackpoint>
          <Trackpoint>
            <Time>2022-09-24T15:35:50.000Z</Time>
            <Position>
              <LatitudeDegrees>43.32660977728664875030517578125</LatitudeDegrees>
              <LongitudeDegrees>-2.783910669386386871337890625</LongitudeDegrees>
            </Position>
            <AltitudeMeters>-3.2000000476837158203125</AltitudeMeters>
            <DistanceMeters>NAN</DistanceMeters>
          </Trackpoint>
          <Trackpoint>
            <Time>2022-09-24T15:35:51.000Z</Time>
            <Position>
              <LatitudeDegrees>43.32667968235909938812255859375</LatitudeDegrees>
              <LongitudeDegrees>-2.78395500965416431427001953125</LongitudeDegrees>
            </Position>
            <AltitudeMeters>-3.2000000476837158203125</AltitudeMeters>
            <DistanceMeters>NAN</DistanceMeters>
          </Trackpoint>
          <Trackpoint>
            <Time>2022-09-24T15:35:52.000Z</Time>
            <Position>
              <LatitudeDegrees>43.32674858160316944122314453125</LatitudeDegrees>
              <LongitudeDegrees>-2.78400144539773464202880859375</LongitudeDegrees>
            </Position>
            <AltitudeMeters>-3.2000000476837158203125</AltitudeMeters>
            <DistanceMeters>NAN</DistanceMeters>
          </Trackpoint>
          <Trackpoint>
            <Time>2022-09-24T15:35:53.000Z</Time>
            <Position>
              <LatitudeDegrees>43.32681681029498577117919921875</LatitudeDegrees>
              <LongitudeDegrees>-2.7840516529977321624755859375</LongitudeDegrees>
            </Position>
            <AltitudeMeters>-3</AltitudeMeters>
            <DistanceMeters>NAN</DistanceMeters>
          </Trackpoint>
          <Trackpoint>
            <Time>2022-09-24T15:35:54.000Z</Time>
            <Position>
              <LatitudeDegrees>43.32688436843454837799072265625</LatitudeDegrees>
              <LongitudeDegrees>-2.784103788435459136962890625</LongitudeDegrees>
            </Position>
            <AltitudeMeters>-3.2000000476837158203125</AltitudeMeters>
            <DistanceMeters>NAN</DistanceMeters>
          </Trackpoint>
          <Trackpoint>
            <Time>2022-09-24T15:35:55.000Z</Time>
            <Position>
              <LatitudeDegrees>43.3269508369266986846923828125</LatitudeDegrees>
              <LongitudeDegrees>-2.784154079854488372802734375</LongitudeDegrees>
            </Position>
            <AltitudeMeters>-3</AltitudeMeters>
            <DistanceMeters>NAN</DistanceMeters>
          </Trackpoint>
          <Trackpoint>
            <Time>2022-09-24T15:35:56.000Z</Time>
            <Position>
              <LatitudeDegrees>43.32701562903821468353271484375</LatitudeDegrees>
              <LongitudeDegrees>-2.78420202434062957763671875</LongitudeDegrees>
            </Position>
            <AltitudeMeters>-3</AltitudeMeters>
            <DistanceMeters>NAN</DistanceMeters>
          </Trackpoint>
          <Trackpoint>
            <Time>2022-09-24T15:35:57.000Z</Time>
            <Position>
              <LatitudeDegrees>43.32708385773003101348876953125</LatitudeDegrees>
              <LongitudeDegrees>-2.78424636460840702056884765625</LongitudeDegrees>
            </Position>
            <AltitudeMeters>-3</AltitudeMeters>
            <DistanceMeters>NAN</DistanceMeters>
          </Trackpoint>
          <Trackpoint>
            <Time>2022-09-24T15:35:58.000Z</Time>
            <Position>
              <LatitudeDegrees>43.327150158584117889404296875</LatitudeDegrees>
              <LongitudeDegrees>-2.78429280035197734832763671875</LongitudeDegrees>
            </Position>
            <AltitudeMeters>-3</AltitudeMeters>
            <DistanceMeters>NAN</DistanceMeters>
          </Trackpoint>
          <Trackpoint>
            <Time>2022-09-24T15:35:59.000Z</Time>
            <Position>
              <LatitudeDegrees>43.32721042446792125701904296875</LatitudeDegrees>
              <LongitudeDegrees>-2.78434007428586483001708984375</LongitudeDegrees>
            </Position>
            <AltitudeMeters>-3</AltitudeMeters>
            <DistanceMeters>NAN</DistanceMeters>
          </Trackpoint>
          <Trackpoint>
            <Time>2022-09-24T15:36:00.000Z</Time>
            <Position>
              <LatitudeDegrees>43.32727261818945407867431640625</LatitudeDegrees>
              <LongitudeDegrees>-2.78438751585781574249267578125</LongitudeDegrees>
            </Position>
            <AltitudeMeters>-3</AltitudeMeters>
            <DistanceMeters>NAN</DistanceMeters>
          </Trackpoint>
          <Trackpoint>
            <Time>2022-09-24T15:36:01.000Z</Time>
            <Position>
              <LatitudeDegrees>43.327329866588115692138671875</LatitudeDegrees>
              <LongitudeDegrees>-2.78443361632525920867919921875</LongitudeDegrees>
            </Position>
            <AltitudeMeters>-3</AltitudeMeters>
            <DistanceMeters>NAN</DistanceMeters>
          </Trackpoint>
          <Trackpoint>
            <Time>2022-09-24T15:36:02.000Z</Time>
            <Position>
              <LatitudeDegrees>43.32738183438777923583984375</LatitudeDegrees>
              <LongitudeDegrees>-2.7844784595072269439697265625</LongitudeDegrees>
            </Position>
            <AltitudeMeters>-3</AltitudeMeters>
            <DistanceMeters>NAN</DistanceMeters>
          </Trackpoint>
          <Trackpoint>
            <Time>2022-09-24T15:36:03.000Z</Time>
            <Position>
              <LatitudeDegrees>43.3274406753480434417724609375</LatitudeDegrees>
              <LongitudeDegrees>-2.7845232188701629638671875</LongitudeDegrees>
            </Position>
            <AltitudeMeters>-3</AltitudeMeters>
            <DistanceMeters>NAN</DistanceMeters>
          </Trackpoint>
          <Trackpoint>
            <Time>2022-09-24T15:36:04.000Z</Time>
            <Position>
              <LatitudeDegrees>43.3274996839463710784912109375</LatitudeDegrees>
              <LongitudeDegrees>-2.78456387110054492950439453125</LongitudeDegrees>
            </Position>
            <AltitudeMeters>-3</AltitudeMeters>
            <DistanceMeters>NAN</DistanceMeters>
          </Trackpoint>
          <Trackpoint>
            <Time>2022-09-24T15:36:05.000Z</Time>
            <Position>
              <LatitudeDegrees>43.3275603689253330230712890625</LatitudeDegrees>
              <LongitudeDegrees>-2.78460393659770488739013671875</LongitudeDegrees>
            </Position>
            <AltitudeMeters>-3</AltitudeMeters>
            <DistanceMeters>NAN</DistanceMeters>
          </Trackpoint>
          <Trackpoint>
            <Time>2022-09-24T15:36:06.000Z</Time>
            <Position>
              <LatitudeDegrees>43.327620215713977813720703125</LatitudeDegrees>
              <LongitudeDegrees>-2.78464190661907196044921875</LongitudeDegrees>
            </Position>
            <AltitudeMeters>-3</AltitudeMeters>
            <DistanceMeters>NAN</DistanceMeters>
          </Trackpoint>
          <Trackpoint>
            <Time>2022-09-24T15:36:07.000Z</Time>
            <Position>
              <LatitudeDegrees>43.32768031395971775054931640625</LatitudeDegrees>
              <LongitudeDegrees>-2.7846792899072170257568359375</LongitudeDegrees>
            </Position>
            <AltitudeMeters>-3</AltitudeMeters>
            <DistanceMeters>NAN</DistanceMeters>
          </Trackpoint>
          <Trackpoint>
            <Time>2022-09-24T15:36:08.000Z</Time>
            <Position>
              <LatitudeDegrees>43.327726833522319793701171875</LatitudeDegrees>
              <LongitudeDegrees>-2.7847108058631420135498046875</LongitudeDegrees>
            </Position>
            <AltitudeMeters>-2.2000000476837158203125</AltitudeMeters>
            <DistanceMeters>NAN</DistanceMeters>
          </Trackpoint>
          <Trackpoint>
            <Time>2022-09-24T15:36:09.000Z</Time>
            <Position>
              <LatitudeDegrees>43.327784836292266845703125</LatitudeDegrees>
              <LongitudeDegrees>-2.7847517095506191253662109375</LongitudeDegrees>
            </Position>
            <AltitudeMeters>-2.2000000476837158203125</AltitudeMeters>
            <DistanceMeters>NAN</DistanceMeters>
          </Trackpoint>
          <Trackpoint>
            <Time>2022-09-24T15:36:10.000Z</Time>
            <Position>
              <LatitudeDegrees>43.3278537355363368988037109375</LatitudeDegrees>
              <LongitudeDegrees>-2.784803174436092376708984375</LongitudeDegrees>
            </Position>
            <AltitudeMeters>-2</AltitudeMeters>
            <DistanceMeters>NAN</DistanceMeters>
          </Trackpoint>
          <Trackpoint>
            <Time>2022-09-24T15:36:11.000Z</Time>
            <Position>
              <LatitudeDegrees>43.3279087208211421966552734375</LatitudeDegrees>
              <LongitudeDegrees>-2.78485036455094814300537109375</LongitudeDegrees>
            </Position>
            <AltitudeMeters>-2</AltitudeMeters>
            <DistanceMeters>NAN</DistanceMeters>
          </Trackpoint>
          <Trackpoint>
            <Time>2022-09-24T15:36:12.000Z</Time>
            <Position>
              <LatitudeDegrees>43.3279658854007720947265625</LatitudeDegrees>
              <LongitudeDegrees>-2.784897387027740478515625</LongitudeDegrees>
            </Position>
            <AltitudeMeters>-1.7999999523162841796875</AltitudeMeters>
            <DistanceMeters>NAN</DistanceMeters>
          </Trackpoint>
          <Trackpoint>
            <Time>2022-09-24T15:36:13.000Z</Time>
            <Position>
              <LatitudeDegrees>43.32802330143749713897705078125</LatitudeDegrees>
              <LongitudeDegrees>-2.78494725935161113739013671875</LongitudeDegrees>
            </Position>
            <AltitudeMeters>-1.7999999523162841796875</AltitudeMeters>
            <DistanceMeters>NAN</DistanceMeters>
          </Trackpoint>
          <Trackpoint>
            <Time>2022-09-24T15:36:14.000Z</Time>
            <Position>
              <LatitudeDegrees>43.32807946018874645233154296875</LatitudeDegrees>
              <LongitudeDegrees>-2.78499838896095752716064453125</LongitudeDegrees>
            </Position>
            <AltitudeMeters>-1.7999999523162841796875</AltitudeMeters>
            <DistanceMeters>NAN</DistanceMeters>
          </Trackpoint>
          <Trackpoint>
            <Time>2022-09-24T15:36:15.000Z</Time>
            <Position>
              <LatitudeDegrees>43.32813628949224948883056640625</LatitudeDegrees>
              <LongitudeDegrees>-2.78505236841738224029541015625</LongitudeDegrees>
            </Position>
            <AltitudeMeters>-2.400000095367431640625</AltitudeMeters>
            <DistanceMeters>NAN</DistanceMeters>
          </Trackpoint>
          <Trackpoint>
            <Time>2022-09-24T15:36:16.000Z</Time>
            <Position>
              <LatitudeDegrees>43.328192867338657379150390625</LatitudeDegrees>
              <LongitudeDegrees>-2.78510718606412410736083984375</LongitudeDegrees>
            </Position>
            <AltitudeMeters>-2.2000000476837158203125</AltitudeMeters>
            <DistanceMeters>NAN</DistanceMeters>
          </Trackpoint>
          <Trackpoint>
            <Time>2022-09-24T15:36:17.000Z</Time>
            <Position>
              <LatitudeDegrees>43.3282523788511753082275390625</LatitudeDegrees>
              <LongitudeDegrees>-2.785161249339580535888671875</LongitudeDegrees>
            </Position>
            <AltitudeMeters>-2.2000000476837158203125</AltitudeMeters>
            <DistanceMeters>NAN</DistanceMeters>
          </Trackpoint>
          <Trackpoint>
            <Time>2022-09-24T15:36:18.000Z</Time>
            <Position>
              <LatitudeDegrees>43.328311555087566375732421875</LatitudeDegrees>
              <LongitudeDegrees>-2.78521581552922725677490234375</LongitudeDegrees>
            </Position>
            <AltitudeMeters>-2.2000000476837158203125</AltitudeMeters>
            <DistanceMeters>NAN</DistanceMeters>
          </Trackpoint>
          <Trackpoint>
            <Time>2022-09-24T15:36:19.000Z</Time>
            <Position>
              <LatitudeDegrees>43.328369557857513427734375</LatitudeDegrees>
              <LongitudeDegrees>-2.7852730639278888702392578125</LongitudeDegrees>
            </Position>
            <AltitudeMeters>-2.599999904632568359375</AltitudeMeters>
            <DistanceMeters>NAN</DistanceMeters>
          </Trackpoint>
          <Trackpoint>
            <Time>2022-09-24T15:36:20.000Z</Time>
            <Position>
              <LatitudeDegrees>43.32842110656201839447021484375</LatitudeDegrees>
              <LongitudeDegrees>-2.7853391133248805999755859375</LongitudeDegrees>
            </Position>
            <AltitudeMeters>-2.599999904632568359375</AltitudeMeters>
            <DistanceMeters>NAN</DistanceMeters>
          </Trackpoint>
          <Trackpoint>
            <Time>2022-09-24T15:36:21.000Z</Time>
            <Position>
              <LatitudeDegrees>43.32846854813396930694580078125</LatitudeDegrees>
              <LongitudeDegrees>-2.78541111387312412261962890625</LongitudeDegrees>
            </Position>
            <AltitudeMeters>-2.2000000476837158203125</AltitudeMeters>
            <DistanceMeters>NAN</DistanceMeters>
          </Trackpoint>
          <Trackpoint>
            <Time>2022-09-24T15:36:22.000Z</Time>
            <Position>
              <LatitudeDegrees>43.32851146347820758819580078125</LatitudeDegrees>
              <LongitudeDegrees>-2.78548671863973140716552734375</LongitudeDegrees>
            </Position>
            <AltitudeMeters>-2.2000000476837158203125</AltitudeMeters>
            <DistanceMeters>NAN</DistanceMeters>
          </Trackpoint>
          <Trackpoint>
            <Time>2022-09-24T15:36:23.000Z</Time>
            <Position>
              <LatitudeDegrees>43.3285551331937313079833984375</LatitudeDegrees>
              <LongitudeDegrees>-2.78555746190249919891357421875</LongitudeDegrees>
            </Position>
            <AltitudeMeters>-2.2000000476837158203125</AltitudeMeters>
            <DistanceMeters>NAN</DistanceMeters>
          </Trackpoint>
          <Trackpoint>
            <Time>2022-09-24T15:36:24.000Z</Time>
            <Position>
              <LatitudeDegrees>43.32859762944281101226806640625</LatitudeDegrees>
              <LongitudeDegrees>-2.7856291271746158599853515625</LongitudeDegrees>
            </Position>
            <AltitudeMeters>-2.2000000476837158203125</AltitudeMeters>
            <DistanceMeters>NAN</DistanceMeters>
          </Trackpoint>
          <Trackpoint>
            <Time>2022-09-24T15:36:25.000Z</Time>
            <Position>
              <LatitudeDegrees>43.32864188589155673980712890625</LatitudeDegrees>
              <LongitudeDegrees>-2.785702385008335113525390625</LongitudeDegrees>
            </Position>
            <AltitudeMeters>-2</AltitudeMeters>
            <DistanceMeters>NAN</DistanceMeters>
          </Trackpoint>
          <Trackpoint>
            <Time>2022-09-24T15:36:26.000Z</Time>
            <Position>
              <LatitudeDegrees>43.32868815399706363677978515625</LatitudeDegrees>
              <LongitudeDegrees>-2.7857773192226886749267578125</LongitudeDegrees>
            </Position>
            <AltitudeMeters>-1.7999999523162841796875</AltitudeMeters>
            <DistanceMeters>NAN</DistanceMeters>
          </Trackpoint>
          <Trackpoint>
            <Time>2022-09-24T15:36:27.000Z</Time>
            <Position>
              <LatitudeDegrees>43.32873442210257053375244140625</LatitudeDegrees>
              <LongitudeDegrees>-2.7858509123325347900390625</LongitudeDegrees>
            </Position>
            <AltitudeMeters>-1.7999999523162841796875</AltitudeMeters>
            <DistanceMeters>NAN</DistanceMeters>
          </Trackpoint>
          <Trackpoint>
            <Time>2022-09-24T15:36:28.000Z</Time>
            <Position>
              <LatitudeDegrees>43.32877968437969684600830078125</LatitudeDegrees>
              <LongitudeDegrees>-2.7859245054423809051513671875</LongitudeDegrees>
            </Position>
            <AltitudeMeters>-1.7999999523162841796875</AltitudeMeters>
            <DistanceMeters>NAN</DistanceMeters>
          </Trackpoint>
          <Trackpoint>
            <Time>2022-09-24T15:36:29.000Z</Time>
            <Position>
              <LatitudeDegrees>43.32882511429488658905029296875</LatitudeDegrees>
              <LongitudeDegrees>-2.78599918819963932037353515625</LongitudeDegrees>
            </Position>
            <AltitudeMeters>-1.7999999523162841796875</AltitudeMeters>
            <DistanceMeters>NAN</DistanceMeters>
          </Trackpoint>
          <Trackpoint>
            <Time>2022-09-24T15:36:30.000Z</Time>
            <Position>
              <LatitudeDegrees>43.3288679458200931549072265625</LatitudeDegrees>
              <LongitudeDegrees>-2.78608049266040325164794921875</LongitudeDegrees>
            </Position>
            <AltitudeMeters>-1.7999999523162841796875</AltitudeMeters>
            <DistanceMeters>NAN</DistanceMeters>
          </Trackpoint>
          <Trackpoint>
            <Time>2022-09-24T15:36:31.000Z</Time>
            <Position>
              <LatitudeDegrees>43.3289145492017269134521484375</LatitudeDegrees>
              <LongitudeDegrees>-2.786161713302135467529296875</LongitudeDegrees>
            </Position>
            <AltitudeMeters>-1.7999999523162841796875</AltitudeMeters>
            <DistanceMeters>NAN</DistanceMeters>
          </Trackpoint>
          <Trackpoint>
            <Time>2022-09-24T15:36:32.000Z</Time>
            <Position>
              <LatitudeDegrees>43.32896123640239238739013671875</LatitudeDegrees>
              <LongitudeDegrees>-2.78624444268643856048583984375</LongitudeDegrees>
            </Position>
            <AltitudeMeters>-1.7999999523162841796875</AltitudeMeters>
            <DistanceMeters>NAN</DistanceMeters>
          </Trackpoint>
          <Trackpoint>
            <Time>2022-09-24T15:36:33.000Z</Time>
            <Position>
              <LatitudeDegrees>43.329008929431438446044921875</LatitudeDegrees>
              <LongitudeDegrees>-2.78632876463234424591064453125</LongitudeDegrees>
            </Position>
            <AltitudeMeters>-2</AltitudeMeters>
            <DistanceMeters>NAN</DistanceMeters>
          </Trackpoint>
          <Trackpoint>
            <Time>2022-09-24T15:36:34.000Z</Time>
            <Position>
              <LatitudeDegrees>43.32905528135597705841064453125</LatitudeDegrees>
              <LongitudeDegrees>-2.7864133380353450775146484375</LongitudeDegrees>
            </Position>
            <AltitudeMeters>-2.400000095367431640625</AltitudeMeters>
            <DistanceMeters>NAN</DistanceMeters>
          </Trackpoint>
          <Trackpoint>
            <Time>2022-09-24T15:36:35.000Z</Time>
            <Position>
              <LatitudeDegrees>43.32909978926181793212890625</LatitudeDegrees>
              <LongitudeDegrees>-2.7865005098283290863037109375</LongitudeDegrees>
            </Position>
            <AltitudeMeters>-4.19999980926513671875</AltitudeMeters>
            <DistanceMeters>NAN</DistanceMeters>
          </Trackpoint>
          <Trackpoint>
            <Time>2022-09-24T15:36:36.000Z</Time>
            <Position>
              <LatitudeDegrees>43.32915402017533779144287109375</LatitudeDegrees>
              <LongitudeDegrees>-2.78660737909376621246337890625</LongitudeDegrees>
            </Position>
            <AltitudeMeters>-4.19999980926513671875</AltitudeMeters>
            <DistanceMeters>NAN</DistanceMeters>
          </Trackpoint>
          <Trackpoint>
            <Time>2022-09-24T15:36:37.000Z</Time>
            <Position>
              <LatitudeDegrees>43.32919299602508544921875</LatitudeDegrees>
              <LongitudeDegrees>-2.78667979873716831207275390625</LongitudeDegrees>
            </Position>
            <AltitudeMeters>-4.400000095367431640625</AltitudeMeters>
            <DistanceMeters>NAN</DistanceMeters>
          </Trackpoint>
          <Trackpoint>
            <Time>2022-09-24T15:36:38.000Z</Time>
            <Position>
              <LatitudeDegrees>43.32925393246114253997802734375</LatitudeDegrees>
              <LongitudeDegrees>-2.78678574599325656890869140625</LongitudeDegrees>
            </Position>
            <AltitudeMeters>-4.400000095367431640625</AltitudeMeters>
            <DistanceMeters>NAN</DistanceMeters>
          </Trackpoint>
          <Trackpoint>
            <Time>2022-09-24T15:36:39.000Z</Time>
            <Position>
              <LatitudeDegrees>43.32925393246114253997802734375</LatitudeDegrees>
              <LongitudeDegrees>-2.78678574599325656890869140625</LongitudeDegrees>
            </Position>
            <AltitudeMeters>-4.400000095367431640625</AltitudeMeters>
            <DistanceMeters>NAN</DistanceMeters>
          </Trackpoint>
          <Trackpoint>
            <Time>2022-09-24T15:36:40.000Z</Time>
            <Position>
              <LatitudeDegrees>43.32935283891856670379638671875</LatitudeDegrees>
              <LongitudeDegrees>-2.7869678847491741180419921875</LongitudeDegrees>
            </Position>
            <AltitudeMeters>-4.599999904632568359375</AltitudeMeters>
            <DistanceMeters>NAN</DistanceMeters>
          </Trackpoint>
          <Trackpoint>
            <Time>2022-09-24T15:36:41.000Z</Time>
            <Position>
              <LatitudeDegrees>43.3293936587870121002197265625</LatitudeDegrees>
              <LongitudeDegrees>-2.78704340569674968719482421875</LongitudeDegrees>
            </Position>
            <AltitudeMeters>-5</AltitudeMeters>
            <DistanceMeters>NAN</DistanceMeters>
          </Trackpoint>
          <Trackpoint>
            <Time>2022-09-24T15:36:42.000Z</Time>
            <Position>
              <LatitudeDegrees>43.329444117844104766845703125</LatitudeDegrees>
              <LongitudeDegrees>-2.7871378697454929351806640625</LongitudeDegrees>
            </Position>
            <AltitudeMeters>-5.599999904632568359375</AltitudeMeters>
            <DistanceMeters>NAN</DistanceMeters>
          </Trackpoint>
          <Trackpoint>
            <Time>2022-09-24T15:36:43.000Z</Time>
            <Position>
              <LatitudeDegrees>43.32950413227081298828125</LatitudeDegrees>
              <LongitudeDegrees>-2.78725177980959415435791015625</LongitudeDegrees>
            </Position>
            <AltitudeMeters>-5.599999904632568359375</AltitudeMeters>
            <DistanceMeters>NAN</DistanceMeters>
          </Trackpoint>
          <Trackpoint>
            <Time>2022-09-24T15:36:44.000Z</Time>
            <Position>
              <LatitudeDegrees>43.32954277284443378448486328125</LatitudeDegrees>
              <LongitudeDegrees>-2.78732813894748687744140625</LongitudeDegrees>
            </Position>
            <AltitudeMeters>-5.599999904632568359375</AltitudeMeters>
            <DistanceMeters>NAN</DistanceMeters>
          </Trackpoint>
          <Trackpoint>
            <Time>2022-09-24T15:36:45.000Z</Time>
            <Position>
              <LatitudeDegrees>43.329608403146266937255859375</LatitudeDegrees>
              <LongitudeDegrees>-2.787441797554492950439453125</LongitudeDegrees>
            </Position>
            <AltitudeMeters>-6.599999904632568359375</AltitudeMeters>
            <DistanceMeters>NAN</DistanceMeters>
          </Trackpoint>
          <Trackpoint>
            <Time>2022-09-24T15:36:46.000Z</Time>
            <Position>
              <LatitudeDegrees>43.32964905537664890289306640625</LatitudeDegrees>
              <LongitudeDegrees>-2.7875241078436374664306640625</LongitudeDegrees>
            </Position>
            <AltitudeMeters>-6.599999904632568359375</AltitudeMeters>
            <DistanceMeters>NAN</DistanceMeters>
          </Trackpoint>
          <Trackpoint>
            <Time>2022-09-24T15:36:47.000Z</Time>
            <Position>
              <LatitudeDegrees>43.32970328629016876220703125</LatitudeDegrees>
              <LongitudeDegrees>-2.78762645088136196136474609375</LongitudeDegrees>
            </Position>
            <AltitudeMeters>-6.599999904632568359375</AltitudeMeters>
            <DistanceMeters>NAN</DistanceMeters>
          </Trackpoint>
          <Trackpoint>
            <Time>2022-09-24T15:36:48.000Z</Time>
            <Position>
              <LatitudeDegrees>43.32975852303206920623779296875</LatitudeDegrees>
              <LongitudeDegrees>-2.78772871010005474090576171875</LongitudeDegrees>
            </Position>
            <AltitudeMeters>-7</AltitudeMeters>
            <DistanceMeters>NAN</DistanceMeters>
          </Trackpoint>
          <Trackpoint>
            <Time>2022-09-24T15:36:49.000Z</Time>
            <Position>
              <LatitudeDegrees>43.32975852303206920623779296875</LatitudeDegrees>
              <LongitudeDegrees>-2.78772871010005474090576171875</LongitudeDegrees>
            </Position>
            <AltitudeMeters>-7.400000095367431640625</AltitudeMeters>
            <DistanceMeters>NAN</DistanceMeters>
          </Trackpoint>
          <Trackpoint>
            <Time>2022-09-24T15:36:50.000Z</Time>
            <Position>
              <LatitudeDegrees>43.32986983470618724822998046875</LatitudeDegrees>
              <LongitudeDegrees>-2.7879405207931995391845703125</LongitudeDegrees>
            </Position>
            <AltitudeMeters>-7.400000095367431640625</AltitudeMeters>
            <DistanceMeters>NAN</DistanceMeters>
          </Trackpoint>
          <Trackpoint>
            <Time>2022-09-24T15:36:51.000Z</Time>
            <Position>
              <LatitudeDegrees>43.32992766983807086944580078125</LatitudeDegrees>
              <LongitudeDegrees>-2.78804160654544830322265625</LongitudeDegrees>
            </Position>
            <AltitudeMeters>-7.400000095367431640625</AltitudeMeters>
            <DistanceMeters>NAN</DistanceMeters>
          </Trackpoint>
          <Trackpoint>
            <Time>2022-09-24T15:36:52.000Z</Time>
            <Position>
              <LatitudeDegrees>43.32998902536928653717041015625</LatitudeDegrees>
              <LongitudeDegrees>-2.78814210556447505950927734375</LongitudeDegrees>
            </Position>
            <AltitudeMeters>-7.400000095367431640625</AltitudeMeters>
            <DistanceMeters>NAN</DistanceMeters>
          </Trackpoint>
          <Trackpoint>
            <Time>2022-09-24T15:36:53.000Z</Time>
            <Position>
              <LatitudeDegrees>43.33005004562437534332275390625</LatitudeDegrees>
              <LongitudeDegrees>-2.78824319131672382354736328125</LongitudeDegrees>
            </Position>
            <AltitudeMeters>-7.80000019073486328125</AltitudeMeters>
            <DistanceMeters>NAN</DistanceMeters>
          </Trackpoint>
          <Trackpoint>
            <Time>2022-09-24T15:36:54.000Z</Time>
            <Position>
              <LatitudeDegrees>43.3301116526126861572265625</LatitudeDegrees>
              <LongitudeDegrees>-2.7883428521454334259033203125</LongitudeDegrees>
            </Position>
            <AltitudeMeters>-7.80000019073486328125</AltitudeMeters>
            <DistanceMeters>NAN</DistanceMeters>
          </Trackpoint>
          <Trackpoint>
            <Time>2022-09-24T15:36:55.000Z</Time>
            <Position>
              <LatitudeDegrees>43.3301808871328830718994140625</LatitudeDegrees>
              <LongitudeDegrees>-2.78843295760452747344970703125</LongitudeDegrees>
            </Position>
            <AltitudeMeters>-8</AltitudeMeters>
            <DistanceMeters>NAN</DistanceMeters>
          </Trackpoint>
          <Trackpoint>
            <Time>2022-09-24T15:36:56.000Z</Time>
            <Position>
              <LatitudeDegrees>43.3302499540150165557861328125</LatitudeDegrees>
              <LongitudeDegrees>-2.78852415271103382110595703125</LongitudeDegrees>
            </Position>
            <AltitudeMeters>-8.19999980926513671875</AltitudeMeters>
            <DistanceMeters>NAN</DistanceMeters>
          </Trackpoint>
          <Trackpoint>
            <Time>2022-09-24T15:36:57.000Z</Time>
            <Position>
              <LatitudeDegrees>43.33031793124973773956298828125</LatitudeDegrees>
              <LongitudeDegrees>-2.7886144258081912994384765625</LongitudeDegrees>
            </Position>
            <AltitudeMeters>-8</AltitudeMeters>
            <DistanceMeters>NAN</DistanceMeters>
          </Trackpoint>
          <Trackpoint>
            <Time>2022-09-24T15:36:58.000Z</Time>
            <Position>
              <LatitudeDegrees>43.33039655350148677825927734375</LatitudeDegrees>
              <LongitudeDegrees>-2.78872364200651645660400390625</LongitudeDegrees>
            </Position>
            <AltitudeMeters>-8</AltitudeMeters>
            <DistanceMeters>NAN</DistanceMeters>
          </Trackpoint>
          <Trackpoint>
            <Time>2022-09-24T15:36:59.000Z</Time>
            <Position>
              <LatitudeDegrees>43.3304630219936370849609375</LatitudeDegrees>
              <LongitudeDegrees>-2.78881408274173736572265625</LongitudeDegrees>
            </Position>
            <AltitudeMeters>-8</AltitudeMeters>
            <DistanceMeters>NAN</DistanceMeters>
          </Trackpoint>
          <Trackpoint>
            <Time>2022-09-24T15:37:00.000Z</Time>
            <Position>
              <LatitudeDegrees>43.330517001450061798095703125</LatitudeDegrees>
              <LongitudeDegrees>-2.78888608328998088836669921875</LongitudeDegrees>
            </Position>
            <AltitudeMeters>-8</AltitudeMeters>
            <DistanceMeters>NAN</DistanceMeters>
          </Trackpoint>
          <Trackpoint>
            <Time>2022-09-24T15:37:01.000Z</Time>
            <Position>
              <LatitudeDegrees>43.33058263175189495086669921875</LatitudeDegrees>
              <LongitudeDegrees>-2.788973338901996612548828125</LongitudeDegrees>
            </Position>
            <AltitudeMeters>-8</AltitudeMeters>
            <DistanceMeters>NAN</DistanceMeters>
          </Trackpoint>
          <Trackpoint>
            <Time>2022-09-24T15:37:02.000Z</Time>
            <Position>
              <LatitudeDegrees>43.33066293038427829742431640625</LatitudeDegrees>
              <LongitudeDegrees>-2.7890764363110065460205078125</LongitudeDegrees>
            </Position>
            <AltitudeMeters>-8</AltitudeMeters>
            <DistanceMeters>NAN</DistanceMeters>
          </Trackpoint>
          <Trackpoint>
            <Time>2022-09-24T15:37:03.000Z</Time>
            <Position>
              <LatitudeDegrees>43.33071741275489330291748046875</LatitudeDegrees>
              <LongitudeDegrees>-2.789147011935710906982421875</LongitudeDegrees>
            </Position>
            <AltitudeMeters>-8</AltitudeMeters>
            <DistanceMeters>NAN</DistanceMeters>
          </Trackpoint>
          <Trackpoint>
            <Time>2022-09-24T15:37:04.000Z</Time>
            <Position>
              <LatitudeDegrees>43.3307969570159912109375</LatitudeDegrees>
              <LongitudeDegrees>-2.78925321064889430999755859375</LongitudeDegrees>
            </Position>
            <AltitudeMeters>-8.3999996185302734375</AltitudeMeters>
            <DistanceMeters>NAN</DistanceMeters>
          </Trackpoint>
          <Trackpoint>
            <Time>2022-09-24T15:37:05.000Z</Time>
            <Position>
              <LatitudeDegrees>43.33085806109011173248291015625</LatitudeDegrees>
              <LongitudeDegrees>-2.78934516012668609619140625</LongitudeDegrees>
            </Position>
            <AltitudeMeters>-8.3999996185302734375</AltitudeMeters>
            <DistanceMeters>NAN</DistanceMeters>
          </Trackpoint>
          <Trackpoint>
            <Time>2022-09-24T15:37:06.000Z</Time>
            <Position>
              <LatitudeDegrees>43.330902568995952606201171875</LatitudeDegrees>
              <LongitudeDegrees>-2.789422608911991119384765625</LongitudeDegrees>
            </Position>
            <AltitudeMeters>-8.6000003814697265625</AltitudeMeters>
            <DistanceMeters>NAN</DistanceMeters>
          </Trackpoint>
          <Trackpoint>
            <Time>2022-09-24T15:37:07.000Z</Time>
            <Position>
              <LatitudeDegrees>43.330902568995952606201171875</LatitudeDegrees>
              <LongitudeDegrees>-2.789422608911991119384765625</LongitudeDegrees>
            </Position>
            <AltitudeMeters>-8.3999996185302734375</AltitudeMeters>
            <DistanceMeters>NAN</DistanceMeters>
          </Trackpoint>
          <Trackpoint>
            <Time>2022-09-24T15:37:08.000Z</Time>
            <Position>
              <LatitudeDegrees>43.33100725896656513214111328125</LatitudeDegrees>
              <LongitudeDegrees>-2.78966258279979228973388671875</LongitudeDegrees>
            </Position>
            <AltitudeMeters>-8.3999996185302734375</AltitudeMeters>
            <DistanceMeters>NAN</DistanceMeters>
          </Trackpoint>
          <Trackpoint>
            <Time>2022-09-24T15:37:09.000Z</Time>
            <Position>
              <LatitudeDegrees>43.331041038036346435546875</LatitudeDegrees>
              <LongitudeDegrees>-2.78978194110095500946044921875</LongitudeDegrees>
            </Position>
            <AltitudeMeters>-8.6000003814697265625</AltitudeMeters>
            <DistanceMeters>NAN</DistanceMeters>
          </Trackpoint>
          <Trackpoint>
            <Time>2022-09-24T15:37:10.000Z</Time>
            <Position>
              <LatitudeDegrees>43.331057131290435791015625</LatitudeDegrees>
              <LongitudeDegrees>-2.789881937205791473388671875</LongitudeDegrees>
            </Position>
            <AltitudeMeters>-8.6000003814697265625</AltitudeMeters>
            <DistanceMeters>NAN</DistanceMeters>
          </Trackpoint>
          <Trackpoint>
            <Time>2022-09-24T15:37:11.000Z</Time>
            <Position>
              <LatitudeDegrees>43.331057131290435791015625</LatitudeDegrees>
              <LongitudeDegrees>-2.789881937205791473388671875</LongitudeDegrees>
            </Position>
            <AltitudeMeters>-8.6000003814697265625</AltitudeMeters>
            <DistanceMeters>NAN</DistanceMeters>
          </Trackpoint>
          <Trackpoint>
            <Time>2022-09-24T15:37:12.000Z</Time>
            <Position>
              <LatitudeDegrees>43.3310925029218196868896484375</LatitudeDegrees>
              <LongitudeDegrees>-2.7901290357112884521484375</LongitudeDegrees>
            </Position>
            <AltitudeMeters>-8.6000003814697265625</AltitudeMeters>
            <DistanceMeters>NAN</DistanceMeters>
          </Trackpoint>
          <Trackpoint>
            <Time>2022-09-24T15:37:13.000Z</Time>
            <Position>
              <LatitudeDegrees>43.33111010491847991943359375</LatitudeDegrees>
              <LongitudeDegrees>-2.79025417752563953399658203125</LongitudeDegrees>
            </Position>
            <AltitudeMeters>-9</AltitudeMeters>
            <DistanceMeters>NAN</DistanceMeters>
          </Trackpoint>
          <Trackpoint>
            <Time>2022-09-24T15:37:14.000Z</Time>
            <Position>
              <LatitudeDegrees>43.33112292923033237457275390625</LatitudeDegrees>
              <LongitudeDegrees>-2.79038158245384693145751953125</LongitudeDegrees>
            </Position>
            <AltitudeMeters>-9.3999996185302734375</AltitudeMeters>
            <DistanceMeters>NAN</DistanceMeters>
          </Trackpoint>
          <Trackpoint>
            <Time>2022-09-24T15:37:15.000Z</Time>
            <Position>
              <LatitudeDegrees>43.33113667555153369903564453125</LatitudeDegrees>
              <LongitudeDegrees>-2.790508568286895751953125</LongitudeDegrees>
            </Position>
            <AltitudeMeters>-9.3999996185302734375</AltitudeMeters>
            <DistanceMeters>NAN</DistanceMeters>
          </Trackpoint>
          <Trackpoint>
            <Time>2022-09-24T15:37:16.000Z</Time>
            <Position>
              <LatitudeDegrees>43.331152014434337615966796875</LatitudeDegrees>
              <LongitudeDegrees>-2.7906337939202785491943359375</LongitudeDegrees>
            </Position>
            <AltitudeMeters>-9.6000003814697265625</AltitudeMeters>
            <DistanceMeters>NAN</DistanceMeters>
          </Trackpoint>
          <Trackpoint>
            <Time>2022-09-24T15:37:17.000Z</Time>
            <Position>
              <LatitudeDegrees>43.33117053844034671783447265625</LatitudeDegrees>
              <LongitudeDegrees>-2.7907561697065830230712890625</LongitudeDegrees>
            </Position>
            <AltitudeMeters>-9.6000003814697265625</AltitudeMeters>
            <DistanceMeters>NAN</DistanceMeters>
          </Trackpoint>
          <Trackpoint>
            <Time>2022-09-24T15:37:18.000Z</Time>
            <Position>
              <LatitudeDegrees>43.33118830807507038116455078125</LatitudeDegrees>
              <LongitudeDegrees>-2.79087829403579235076904296875</LongitudeDegrees>
            </Position>
            <AltitudeMeters>-9.6000003814697265625</AltitudeMeters>
            <DistanceMeters>NAN</DistanceMeters>
          </Trackpoint>
          <Trackpoint>
            <Time>2022-09-24T15:37:19.000Z</Time>
            <Position>
              <LatitudeDegrees>43.33120674826204776763916015625</LatitudeDegrees>
              <LongitudeDegrees>-2.791000418365001678466796875</LongitudeDegrees>
            </Position>
            <AltitudeMeters>-9.6000003814697265625</AltitudeMeters>
            <DistanceMeters>NAN</DistanceMeters>
          </Trackpoint>
          <Trackpoint>
            <Time>2022-09-24T15:37:20.000Z</Time>
            <Position>
              <LatitudeDegrees>43.33121932111680507659912109375</LatitudeDegrees>
              <LongitudeDegrees>-2.79112405143678188323974609375</LongitudeDegrees>
            </Position>
            <AltitudeMeters>-9.6000003814697265625</AltitudeMeters>
            <DistanceMeters>NAN</DistanceMeters>
          </Trackpoint>
          <Trackpoint>
            <Time>2022-09-24T15:37:21.000Z</Time>
            <Position>
              <LatitudeDegrees>43.33123189397156238555908203125</LatitudeDegrees>
              <LongitudeDegrees>-2.791250534355640411376953125</LongitudeDegrees>
            </Position>
            <AltitudeMeters>-9.6000003814697265625</AltitudeMeters>
            <DistanceMeters>NAN</DistanceMeters>
          </Trackpoint>
          <Trackpoint>
            <Time>2022-09-24T15:37:22.000Z</Time>
            <Position>
              <LatitudeDegrees>43.33124362863600254058837890625</LatitudeDegrees>
              <LongitudeDegrees>-2.79140509665012359619140625</LongitudeDegrees>
            </Position>
            <AltitudeMeters>-9.6000003814697265625</AltitudeMeters>
            <DistanceMeters>NAN</DistanceMeters>
          </Trackpoint>
          <Trackpoint>
            <Time>2022-09-24T15:37:23.000Z</Time>
            <Position>
              <LatitudeDegrees>43.33124714903533458709716796875</LatitudeDegrees>
              <LongitudeDegrees>-2.7915091998875141143798828125</LongitudeDegrees>
            </Position>
            <AltitudeMeters>-9.80000019073486328125</AltitudeMeters>
            <DistanceMeters>NAN</DistanceMeters>
          </Trackpoint>
          <Trackpoint>
            <Time>2022-09-24T15:37:24.000Z</Time>
            <Position>
              <LatitudeDegrees>43.3312460593879222869873046875</LatitudeDegrees>
              <LongitudeDegrees>-2.79164121486246585845947265625</LongitudeDegrees>
            </Position>
            <AltitudeMeters>-9.80000019073486328125</AltitudeMeters>
            <DistanceMeters>NAN</DistanceMeters>
          </Trackpoint>
          <Trackpoint>
            <Time>2022-09-24T15:37:25.000Z</Time>
            <Position>
              <LatitudeDegrees>43.331240527331829071044921875</LatitudeDegrees>
              <LongitudeDegrees>-2.79177348129451274871826171875</LongitudeDegrees>
            </Position>
            <AltitudeMeters>-9.80000019073486328125</AltitudeMeters>
            <DistanceMeters>NAN</DistanceMeters>
          </Trackpoint>
          <Trackpoint>
            <Time>2022-09-24T15:37:26.000Z</Time>
            <Position>
              <LatitudeDegrees>43.331240527331829071044921875</LatitudeDegrees>
              <LongitudeDegrees>-2.79177348129451274871826171875</LongitudeDegrees>
            </Position>
            <AltitudeMeters>-10.80000019073486328125</AltitudeMeters>
            <DistanceMeters>NAN</DistanceMeters>
          </Trackpoint>
          <Trackpoint>
            <Time>2022-09-24T15:37:27.000Z</Time>
            <Position>
              <LatitudeDegrees>43.33122720010578632354736328125</LatitudeDegrees>
              <LongitudeDegrees>-2.79205159284174442291259765625</LongitudeDegrees>
            </Position>
            <AltitudeMeters>-10.80000019073486328125</AltitudeMeters>
            <DistanceMeters>NAN</DistanceMeters>
          </Trackpoint>
          <Trackpoint>
            <Time>2022-09-24T15:37:28.000Z</Time>
            <Position>
              <LatitudeDegrees>43.33121043629944324493408203125</LatitudeDegrees>
              <LongitudeDegrees>-2.79215720482170581817626953125</LongitudeDegrees>
            </Position>
            <AltitudeMeters>-10.19999980926513671875</AltitudeMeters>
            <DistanceMeters>NAN</DistanceMeters>
          </Trackpoint>
          <Trackpoint>
            <Time>2022-09-24T15:37:29.000Z</Time>
            <Position>
              <LatitudeDegrees>43.33120574243366718292236328125</LatitudeDegrees>
              <LongitudeDegrees>-2.79228528030216693878173828125</LongitudeDegrees>
            </Position>
            <AltitudeMeters>-11.19999980926513671875</AltitudeMeters>
            <DistanceMeters>NAN</DistanceMeters>
          </Trackpoint>
          <Trackpoint>
            <Time>2022-09-24T15:37:30.000Z</Time>
            <Position>
              <LatitudeDegrees>43.3312001265585422515869140625</LatitudeDegrees>
              <LongitudeDegrees>-2.792412936687469482421875</LongitudeDegrees>
            </Position>
            <AltitudeMeters>-11.19999980926513671875</AltitudeMeters>
            <DistanceMeters>NAN</DistanceMeters>
          </Trackpoint>
          <Trackpoint>
            <Time>2022-09-24T15:37:31.000Z</Time>
            <Position>
              <LatitudeDegrees>43.33119384013116359710693359375</LatitudeDegrees>
              <LongitudeDegrees>-2.7925341390073299407958984375</LongitudeDegrees>
            </Position>
            <AltitudeMeters>-11.3999996185302734375</AltitudeMeters>
            <DistanceMeters>NAN</DistanceMeters>
          </Trackpoint>
          <Trackpoint>
            <Time>2022-09-24T15:37:32.000Z</Time>
            <Position>
              <LatitudeDegrees>43.3311917446553707122802734375</LatitudeDegrees>
              <LongitudeDegrees>-2.792657352983951568603515625</LongitudeDegrees>
            </Position>
            <AltitudeMeters>-11.3999996185302734375</AltitudeMeters>
            <DistanceMeters>NAN</DistanceMeters>
          </Trackpoint>
          <Trackpoint>
            <Time>2022-09-24T15:37:33.000Z</Time>
            <Position>
              <LatitudeDegrees>43.3311914093792438507080078125</LatitudeDegrees>
              <LongitudeDegrees>-2.79277796857059001922607421875</LongitudeDegrees>
            </Position>
            <AltitudeMeters>-10.3999996185302734375</AltitudeMeters>
            <DistanceMeters>NAN</DistanceMeters>
          </Trackpoint>
          <Trackpoint>
            <Time>2022-09-24T15:37:34.000Z</Time>
            <Position>
              <LatitudeDegrees>43.3311860449612140655517578125</LatitudeDegrees>
              <LongitudeDegrees>-2.792896740138530731201171875</LongitudeDegrees>
            </Position>
            <AltitudeMeters>-10.6000003814697265625</AltitudeMeters>
            <DistanceMeters>NAN</DistanceMeters>
          </Trackpoint>
          <Trackpoint>
            <Time>2022-09-24T15:37:35.000Z</Time>
            <Position>
              <LatitudeDegrees>43.331182189285755157470703125</LatitudeDegrees>
              <LongitudeDegrees>-2.793020792305469512939453125</LongitudeDegrees>
            </Position>
            <AltitudeMeters>-11.19999980926513671875</AltitudeMeters>
            <DistanceMeters>NAN</DistanceMeters>
          </Trackpoint>
          <Trackpoint>
            <Time>2022-09-24T15:37:36.000Z</Time>
            <Position>
              <LatitudeDegrees>43.3312031440436840057373046875</LatitudeDegrees>
              <LongitudeDegrees>-2.793166637420654296875</LongitudeDegrees>
            </Position>
            <AltitudeMeters>-10.6000003814697265625</AltitudeMeters>
            <DistanceMeters>NAN</DistanceMeters>
          </Trackpoint>
          <Trackpoint>
            <Time>2022-09-24T15:37:37.000Z</Time>
            <Position>
              <LatitudeDegrees>43.3312031440436840057373046875</LatitudeDegrees>
              <LongitudeDegrees>-2.793166637420654296875</LongitudeDegrees>
            </Position>
            <AltitudeMeters>-10.3999996185302734375</AltitudeMeters>
            <DistanceMeters>NAN</DistanceMeters>
          </Trackpoint>
          <Trackpoint>
            <Time>2022-09-24T15:37:38.000Z</Time>
            <Position>
              <LatitudeDegrees>43.331254608929157257080078125</LatitudeDegrees>
              <LongitudeDegrees>-2.7933683060109615325927734375</LongitudeDegrees>
            </Position>
            <AltitudeMeters>-10.3999996185302734375</AltitudeMeters>
            <DistanceMeters>NAN</DistanceMeters>
          </Trackpoint>
          <Trackpoint>
            <Time>2022-09-24T15:37:39.000Z</Time>
            <Position>
              <LatitudeDegrees>43.331298194825649261474609375</LatitudeDegrees>
              <LongitudeDegrees>-2.7934739179909229278564453125</LongitudeDegrees>
            </Position>
            <AltitudeMeters>-10.6000003814697265625</AltitudeMeters>
            <DistanceMeters>NAN</DistanceMeters>
          </Trackpoint>
          <Trackpoint>
            <Time>2022-09-24T15:37:40.000Z</Time>
            <Position>
              <LatitudeDegrees>43.331351839005947113037109375</LatitudeDegrees>
              <LongitudeDegrees>-2.79356670565903186798095703125</LongitudeDegrees>
            </Position>
            <AltitudeMeters>-11</AltitudeMeters>
            <DistanceMeters>NAN</DistanceMeters>
          </Trackpoint>
          <Trackpoint>
            <Time>2022-09-24T15:37:41.000Z</Time>
            <Position>
              <LatitudeDegrees>43.33140959031879901885986328125</LatitudeDegrees>
              <LongitudeDegrees>-2.79365136288106441497802734375</LongitudeDegrees>
            </Position>
            <AltitudeMeters>-11</AltitudeMeters>
            <DistanceMeters>NAN</DistanceMeters>
          </Trackpoint>
          <Trackpoint>
            <Time>2022-09-24T15:37:42.000Z</Time>
            <Position>
              <LatitudeDegrees>43.33146809600293636322021484375</LatitudeDegrees>
              <LongitudeDegrees>-2.79373920522630214691162109375</LongitudeDegrees>
            </Position>
            <AltitudeMeters>-11</AltitudeMeters>
            <DistanceMeters>NAN</DistanceMeters>
          </Trackpoint>
          <Trackpoint>
            <Time>2022-09-24T15:37:43.000Z</Time>
            <Position>
              <LatitudeDegrees>43.331525512039661407470703125</LatitudeDegrees>
              <LongitudeDegrees>-2.79383174143731594085693359375</LongitudeDegrees>
            </Position>
            <AltitudeMeters>-11</AltitudeMeters>
            <DistanceMeters>NAN</DistanceMeters>
          </Trackpoint>
          <Trackpoint>
            <Time>2022-09-24T15:37:44.000Z</Time>
            <Position>
              <LatitudeDegrees>43.33156197331845760345458984375</LatitudeDegrees>
              <LongitudeDegrees>-2.7939352579414844512939453125</LongitudeDegrees>
            </Position>
            <AltitudeMeters>-11.6000003814697265625</AltitudeMeters>
            <DistanceMeters>NAN</DistanceMeters>
          </Trackpoint>
          <Trackpoint>
            <Time>2022-09-24T15:37:45.000Z</Time>
            <Position>
              <LatitudeDegrees>43.33158577792346477508544921875</LatitudeDegrees>
              <LongitudeDegrees>-2.79404799453914165496826171875</LongitudeDegrees>
            </Position>
            <AltitudeMeters>-11.80000019073486328125</AltitudeMeters>
            <DistanceMeters>NAN</DistanceMeters>
          </Trackpoint>
          <Trackpoint>
            <Time>2022-09-24T15:37:46.000Z</Time>
            <Position>
              <LatitudeDegrees>43.3316007815301418304443359375</LatitudeDegrees>
              <LongitudeDegrees>-2.79416400007903575897216796875</LongitudeDegrees>
            </Position>
            <AltitudeMeters>-11.80000019073486328125</AltitudeMeters>
            <DistanceMeters>NAN</DistanceMeters>
          </Trackpoint>
          <Trackpoint>
            <Time>2022-09-24T15:37:47.000Z</Time>
            <Position>
              <LatitudeDegrees>43.3316121809184551239013671875</LatitudeDegrees>
              <LongitudeDegrees>-2.79430816881358623504638671875</LongitudeDegrees>
            </Position>
            <AltitudeMeters>-11.80000019073486328125</AltitudeMeters>
            <DistanceMeters>NAN</DistanceMeters>
          </Trackpoint>
          <Trackpoint>
            <Time>2022-09-24T15:37:48.000Z</Time>
            <Position>
              <LatitudeDegrees>43.33161301910877227783203125</LatitudeDegrees>
              <LongitudeDegrees>-2.79443238861858844757080078125</LongitudeDegrees>
            </Position>
            <AltitudeMeters>-11.80000019073486328125</AltitudeMeters>
            <DistanceMeters>NAN</DistanceMeters>
          </Trackpoint>
          <Trackpoint>
            <Time>2022-09-24T15:37:49.000Z</Time>
            <Position>
              <LatitudeDegrees>43.33161033689975738525390625</LatitudeDegrees>
              <LongitudeDegrees>-2.79455157928168773651123046875</LongitudeDegrees>
            </Position>
            <AltitudeMeters>-11.3999996185302734375</AltitudeMeters>
            <DistanceMeters>NAN</DistanceMeters>
          </Trackpoint>
          <Trackpoint>
            <Time>2022-09-24T15:37:50.000Z</Time>
            <Position>
              <LatitudeDegrees>43.33161033689975738525390625</LatitudeDegrees>
              <LongitudeDegrees>-2.79455157928168773651123046875</LongitudeDegrees>
            </Position>
            <AltitudeMeters>-10.6000003814697265625</AltitudeMeters>
            <DistanceMeters>NAN</DistanceMeters>
          </Trackpoint>
          <Trackpoint>
            <Time>2022-09-24T15:37:51.000Z</Time>
            <Position>
              <LatitudeDegrees>43.33160522393882274627685546875</LatitudeDegrees>
              <LongitudeDegrees>-2.7947633899748325347900390625</LongitudeDegrees>
            </Position>
            <AltitudeMeters>-10.3999996185302734375</AltitudeMeters>
            <DistanceMeters>NAN</DistanceMeters>
          </Trackpoint>
          <Trackpoint>
            <Time>2022-09-24T15:37:52.000Z</Time>
            <Position>
              <LatitudeDegrees>43.3316017873585224151611328125</LatitudeDegrees>
              <LongitudeDegrees>-2.7949018590152263641357421875</LongitudeDegrees>
            </Position>
            <AltitudeMeters>-10.3999996185302734375</AltitudeMeters>
            <DistanceMeters>NAN</DistanceMeters>
          </Trackpoint>
          <Trackpoint>
            <Time>2022-09-24T15:37:53.000Z</Time>
            <Position>
              <LatitudeDegrees>43.3316017873585224151611328125</LatitudeDegrees>
              <LongitudeDegrees>-2.7949018590152263641357421875</LongitudeDegrees>
            </Position>
            <AltitudeMeters>-10.3999996185302734375</AltitudeMeters>
            <DistanceMeters>NAN</DistanceMeters>
          </Trackpoint>
          <Trackpoint>
            <Time>2022-09-24T15:37:54.000Z</Time>
            <Position>
              <LatitudeDegrees>43.3315840177237987518310546875</LatitudeDegrees>
              <LongitudeDegrees>-2.79511987231671810150146484375</LongitudeDegrees>
            </Position>
            <AltitudeMeters>-10.3999996185302734375</AltitudeMeters>
            <DistanceMeters>NAN</DistanceMeters>
          </Trackpoint>
          <Trackpoint>
            <Time>2022-09-24T15:37:55.000Z</Time>
            <Position>
              <LatitudeDegrees>43.3315840177237987518310546875</LatitudeDegrees>
              <LongitudeDegrees>-2.79511987231671810150146484375</LongitudeDegrees>
            </Position>
            <AltitudeMeters>-10.3999996185302734375</AltitudeMeters>
            <DistanceMeters>NAN</DistanceMeters>
          </Trackpoint>
          <Trackpoint>
            <Time>2022-09-24T15:37:56.000Z</Time>
            <Position>
              <LatitudeDegrees>43.33157789893448352813720703125</LatitudeDegrees>
              <LongitudeDegrees>-2.79535003937780857086181640625</LongitudeDegrees>
            </Position>
            <AltitudeMeters>-10.3999996185302734375</AltitudeMeters>
            <DistanceMeters>NAN</DistanceMeters>
          </Trackpoint>
          <Trackpoint>
            <Time>2022-09-24T15:37:57.000Z</Time>
            <Position>
              <LatitudeDegrees>43.33156800828874111175537109375</LatitudeDegrees>
              <LongitudeDegrees>-2.79546755366027355194091796875</LongitudeDegrees>
            </Position>
            <AltitudeMeters>-10.3999996185302734375</AltitudeMeters>
            <DistanceMeters>NAN</DistanceMeters>
          </Trackpoint>
          <Trackpoint>
            <Time>2022-09-24T15:37:58.000Z</Time>
            <Position>
              <LatitudeDegrees>43.3315538428723812103271484375</LatitudeDegrees>
              <LongitudeDegrees>-2.79558238573372364044189453125</LongitudeDegrees>
            </Position>
            <AltitudeMeters>-11.3999996185302734375</AltitudeMeters>
            <DistanceMeters>NAN</DistanceMeters>
          </Trackpoint>
          <Trackpoint>
            <Time>2022-09-24T15:37:59.000Z</Time>
            <Position>
              <LatitudeDegrees>43.3315439522266387939453125</LatitudeDegrees>
              <LongitudeDegrees>-2.79569336213171482086181640625</LongitudeDegrees>
            </Position>
            <AltitudeMeters>-11.3999996185302734375</AltitudeMeters>
            <DistanceMeters>NAN</DistanceMeters>
          </Trackpoint>
          <Trackpoint>
            <Time>2022-09-24T15:38:00.000Z</Time>
            <Position>
              <LatitudeDegrees>43.33154319785535335540771484375</LatitudeDegrees>
              <LongitudeDegrees>-2.79580249451100826263427734375</LongitudeDegrees>
            </Position>
            <AltitudeMeters>-11.3999996185302734375</AltitudeMeters>
            <DistanceMeters>NAN</DistanceMeters>
          </Trackpoint>
          <Trackpoint>
            <Time>2022-09-24T15:38:01.000Z</Time>
            <Position>
              <LatitudeDegrees>43.33153850398957729339599609375</LatitudeDegrees>
              <LongitudeDegrees>-2.79591120779514312744140625</LongitudeDegrees>
            </Position>
            <AltitudeMeters>-11.3999996185302734375</AltitudeMeters>
            <DistanceMeters>NAN</DistanceMeters>
          </Trackpoint>
          <Trackpoint>
            <Time>2022-09-24T15:38:02.000Z</Time>
            <Position>
              <LatitudeDegrees>43.33151905797421932220458984375</LatitudeDegrees>
              <LongitudeDegrees>-2.796050012111663818359375</LongitudeDegrees>
            </Position>
            <AltitudeMeters>-12</AltitudeMeters>
            <DistanceMeters>NAN</DistanceMeters>
          </Trackpoint>
          <Trackpoint>
            <Time>2022-09-24T15:38:03.000Z</Time>
            <Position>
              <LatitudeDegrees>43.3315062336623668670654296875</LatitudeDegrees>
              <LongitudeDegrees>-2.7961417101323604583740234375</LongitudeDegrees>
            </Position>
            <AltitudeMeters>-12</AltitudeMeters>
            <DistanceMeters>NAN</DistanceMeters>
          </Trackpoint>
          <Trackpoint>
            <Time>2022-09-24T15:38:04.000Z</Time>
            <Position>
              <LatitudeDegrees>43.33149726502597332000732421875</LatitudeDegrees>
              <LongitudeDegrees>-2.7962520159780979156494140625</LongitudeDegrees>
            </Position>
            <AltitudeMeters>-11.3999996185302734375</AltitudeMeters>
            <DistanceMeters>NAN</DistanceMeters>
          </Trackpoint>
          <Trackpoint>
            <Time>2022-09-24T15:38:05.000Z</Time>
            <Position>
              <LatitudeDegrees>43.33148418925702571868896484375</LatitudeDegrees>
              <LongitudeDegrees>-2.79636123217642307281494140625</LongitudeDegrees>
            </Position>
            <AltitudeMeters>-10.80000019073486328125</AltitudeMeters>
            <DistanceMeters>NAN</DistanceMeters>
          </Trackpoint>
          <Trackpoint>
            <Time>2022-09-24T15:38:06.000Z</Time>
            <Position>
              <LatitudeDegrees>43.33148418925702571868896484375</LatitudeDegrees>
              <LongitudeDegrees>-2.79636123217642307281494140625</LongitudeDegrees>
            </Position>
            <AltitudeMeters>-10.80000019073486328125</AltitudeMeters>
            <DistanceMeters>NAN</DistanceMeters>
          </Trackpoint>
          <Trackpoint>
            <Time>2022-09-24T15:38:07.000Z</Time>
            <Position>
              <LatitudeDegrees>43.33145904354751110076904296875</LatitudeDegrees>
              <LongitudeDegrees>-2.79657010920345783233642578125</LongitudeDegrees>
            </Position>
            <AltitudeMeters>-10.6000003814697265625</AltitudeMeters>
            <DistanceMeters>NAN</DistanceMeters>
          </Trackpoint>
          <Trackpoint>
            <Time>2022-09-24T15:38:08.000Z</Time>
            <Position>
              <LatitudeDegrees>43.3314391784369945526123046875</LatitudeDegrees>
              <LongitudeDegrees>-2.79668862931430339813232421875</LongitudeDegrees>
            </Position>
            <AltitudeMeters>-10.3999996185302734375</AltitudeMeters>
            <DistanceMeters>NAN</DistanceMeters>
          </Trackpoint>
          <Trackpoint>
            <Time>2022-09-24T15:38:09.000Z</Time>
            <Position>
              <LatitudeDegrees>43.33141730166971683502197265625</LatitudeDegrees>
              <LongitudeDegrees>-2.79678292572498321533203125</LongitudeDegrees>
            </Position>
            <AltitudeMeters>-10.3999996185302734375</AltitudeMeters>
            <DistanceMeters>NAN</DistanceMeters>
          </Trackpoint>
          <Trackpoint>
            <Time>2022-09-24T15:38:10.000Z</Time>
            <Position>
              <LatitudeDegrees>43.33138880319893360137939453125</LatitudeDegrees>
              <LongitudeDegrees>-2.79687571339309215545654296875</LongitudeDegrees>
            </Position>
            <AltitudeMeters>-10.3999996185302734375</AltitudeMeters>
            <DistanceMeters>NAN</DistanceMeters>
          </Trackpoint>
          <Trackpoint>
            <Time>2022-09-24T15:38:11.000Z</Time>
            <Position>
              <LatitudeDegrees>43.3313577063381671905517578125</LatitudeDegrees>
              <LongitudeDegrees>-2.79695047996938228607177734375</LongitudeDegrees>
            </Position>
            <AltitudeMeters>-10.3999996185302734375</AltitudeMeters>
            <DistanceMeters>NAN</DistanceMeters>
          </Trackpoint>
          <Trackpoint>
            <Time>2022-09-24T15:38:12.000Z</Time>
            <Position>
              <LatitudeDegrees>43.33131621591746807098388671875</LatitudeDegrees>
              <LongitudeDegrees>-2.7970409207046031951904296875</LongitudeDegrees>
            </Position>
            <AltitudeMeters>-10</AltitudeMeters>
            <DistanceMeters>NAN</DistanceMeters>
          </Trackpoint>
          <Trackpoint>
            <Time>2022-09-24T15:38:13.000Z</Time>
            <Position>
              <LatitudeDegrees>43.33127237856388092041015625</LatitudeDegrees>
              <LongitudeDegrees>-2.7971277572214603424072265625</LongitudeDegrees>
            </Position>
            <AltitudeMeters>-9.80000019073486328125</AltitudeMeters>
            <DistanceMeters>NAN</DistanceMeters>
          </Trackpoint>
          <Trackpoint>
            <Time>2022-09-24T15:38:14.000Z</Time>
            <Position>
              <LatitudeDegrees>43.33127237856388092041015625</LatitudeDegrees>
              <LongitudeDegrees>-2.7971277572214603424072265625</LongitudeDegrees>
            </Position>
            <AltitudeMeters>-9.6000003814697265625</AltitudeMeters>
            <DistanceMeters>NAN</DistanceMeters>
          </Trackpoint>
          <Trackpoint>
            <Time>2022-09-24T15:38:15.000Z</Time>
            <Position>
              <LatitudeDegrees>43.33117690868675708770751953125</LatitudeDegrees>
              <LongitudeDegrees>-2.797299921512603759765625</LongitudeDegrees>
            </Position>
            <AltitudeMeters>-9.6000003814697265625</AltitudeMeters>
            <DistanceMeters>NAN</DistanceMeters>
          </Trackpoint>
          <Trackpoint>
            <Time>2022-09-24T15:38:16.000Z</Time>
            <Position>
              <LatitudeDegrees>43.33113047294318675994873046875</LatitudeDegrees>
              <LongitudeDegrees>-2.79736706055700778961181640625</LongitudeDegrees>
            </Position>
            <AltitudeMeters>-9.80000019073486328125</AltitudeMeters>
            <DistanceMeters>NAN</DistanceMeters>
          </Trackpoint>
          <Trackpoint>
            <Time>2022-09-24T15:38:17.000Z</Time>
            <Position>
              <LatitudeDegrees>43.331057131290435791015625</LatitudeDegrees>
              <LongitudeDegrees>-2.79745792038738727569580078125</LongitudeDegrees>
            </Position>
            <AltitudeMeters>-9.80000019073486328125</AltitudeMeters>
            <DistanceMeters>NAN</DistanceMeters>
          </Trackpoint>
          <Trackpoint>
            <Time>2022-09-24T15:38:18.000Z</Time>
            <Position>
              <LatitudeDegrees>43.33099351264536380767822265625</LatitudeDegrees>
              <LongitudeDegrees>-2.79752866365015506744384765625</LongitudeDegrees>
            </Position>
            <AltitudeMeters>-9.80000019073486328125</AltitudeMeters>
            <DistanceMeters>NAN</DistanceMeters>
          </Trackpoint>
          <Trackpoint>
            <Time>2022-09-24T15:38:19.000Z</Time>
            <Position>
              <LatitudeDegrees>43.330928049981594085693359375</LatitudeDegrees>
              <LongitudeDegrees>-2.79759295284748077392578125</LongitudeDegrees>
            </Position>
            <AltitudeMeters>-9.80000019073486328125</AltitudeMeters>
            <DistanceMeters>NAN</DistanceMeters>
          </Trackpoint>
          <Trackpoint>
            <Time>2022-09-24T15:38:20.000Z</Time>
            <Position>
              <LatitudeDegrees>43.330860324203968048095703125</LatitudeDegrees>
              <LongitudeDegrees>-2.7976571582257747650146484375</LongitudeDegrees>
            </Position>
            <AltitudeMeters>-10</AltitudeMeters>
            <DistanceMeters>NAN</DistanceMeters>
          </Trackpoint>
          <Trackpoint>
            <Time>2022-09-24T15:38:21.000Z</Time>
            <Position>
              <LatitudeDegrees>43.3307924307882785797119140625</LatitudeDegrees>
              <LongitudeDegrees>-2.79772044159471988677978515625</LongitudeDegrees>
            </Position>
            <AltitudeMeters>-10</AltitudeMeters>
            <DistanceMeters>NAN</DistanceMeters>
          </Trackpoint>
          <Trackpoint>
            <Time>2022-09-24T15:38:22.000Z</Time>
            <Position>
              <LatitudeDegrees>43.3307230286300182342529296875</LatitudeDegrees>
              <LongitudeDegrees>-2.7977828867733478546142578125</LongitudeDegrees>
            </Position>
            <AltitudeMeters>-10</AltitudeMeters>
            <DistanceMeters>NAN</DistanceMeters>
          </Trackpoint>
          <Trackpoint>
            <Time>2022-09-24T15:38:23.000Z</Time>
            <Position>
              <LatitudeDegrees>43.33065153099596500396728515625</LatitudeDegrees>
              <LongitudeDegrees>-2.79784432612359523773193359375</LongitudeDegrees>
            </Position>
            <AltitudeMeters>-10.3999996185302734375</AltitudeMeters>
            <DistanceMeters>NAN</DistanceMeters>
          </Trackpoint>
          <Trackpoint>
            <Time>2022-09-24T15:38:24.000Z</Time>
            <Position>
              <LatitudeDegrees>43.3305837213993072509765625</LatitudeDegrees>
              <LongitudeDegrees>-2.7979079447686672210693359375</LongitudeDegrees>
            </Position>
            <AltitudeMeters>-10.19999980926513671875</AltitudeMeters>
            <DistanceMeters>NAN</DistanceMeters>
          </Trackpoint>
          <Trackpoint>
            <Time>2022-09-24T15:38:25.000Z</Time>
            <Position>
              <LatitudeDegrees>43.3305141516029834747314453125</LatitudeDegrees>
              <LongitudeDegrees>-2.7979696355760097503662109375</LongitudeDegrees>
            </Position>
            <AltitudeMeters>-10.19999980926513671875</AltitudeMeters>
            <DistanceMeters>NAN</DistanceMeters>
          </Trackpoint>
          <Trackpoint>
            <Time>2022-09-24T15:38:26.000Z</Time>
            <Position>
              <LatitudeDegrees>43.33044650964438915252685546875</LatitudeDegrees>
              <LongitudeDegrees>-2.798028476536273956298828125</LongitudeDegrees>
            </Position>
            <AltitudeMeters>-10.80000019073486328125</AltitudeMeters>
            <DistanceMeters>NAN</DistanceMeters>
          </Trackpoint>
          <Trackpoint>
            <Time>2022-09-24T15:38:27.000Z</Time>
            <Position>
              <LatitudeDegrees>43.33037962205708026885986328125</LatitudeDegrees>
              <LongitudeDegrees>-2.79808823950588703155517578125</LongitudeDegrees>
            </Position>
            <AltitudeMeters>-10.6000003814697265625</AltitudeMeters>
            <DistanceMeters>NAN</DistanceMeters>
          </Trackpoint>
          <Trackpoint>
            <Time>2022-09-24T15:38:28.000Z</Time>
            <Position>
              <LatitudeDegrees>43.33031290210783481597900390625</LatitudeDegrees>
              <LongitudeDegrees>-2.7981493435800075531005859375</LongitudeDegrees>
            </Position>
            <AltitudeMeters>-10.6000003814697265625</AltitudeMeters>
            <DistanceMeters>NAN</DistanceMeters>
          </Trackpoint>
          <Trackpoint>
            <Time>2022-09-24T15:38:29.000Z</Time>
            <Position>
              <LatitudeDegrees>43.3302469365298748016357421875</LatitudeDegrees>
              <LongitudeDegrees>-2.79821262694895267486572265625</LongitudeDegrees>
            </Position>
            <AltitudeMeters>-10.6000003814697265625</AltitudeMeters>
            <DistanceMeters>NAN</DistanceMeters>
          </Trackpoint>
          <Trackpoint>
            <Time>2022-09-24T15:38:30.000Z</Time>
            <Position>
              <LatitudeDegrees>43.33016973920166492462158203125</LatitudeDegrees>
              <LongitudeDegrees>-2.798296697437763214111328125</LongitudeDegrees>
            </Position>
            <AltitudeMeters>-10.19999980926513671875</AltitudeMeters>
            <DistanceMeters>NAN</DistanceMeters>
          </Trackpoint>
          <Trackpoint>
            <Time>2022-09-24T15:38:31.000Z</Time>
            <Position>
              <LatitudeDegrees>43.33011123351752758026123046875</LatitudeDegrees>
              <LongitudeDegrees>-2.79837423004209995269775390625</LongitudeDegrees>
            </Position>
            <AltitudeMeters>-10.6000003814697265625</AltitudeMeters>
            <DistanceMeters>NAN</DistanceMeters>
          </Trackpoint>
          <Trackpoint>
            <Time>2022-09-24T15:38:32.000Z</Time>
            <Position>
              <LatitudeDegrees>43.33007301203906536102294921875</LatitudeDegrees>
              <LongitudeDegrees>-2.798444889485836029052734375</LongitudeDegrees>
            </Position>
            <AltitudeMeters>-10.6000003814697265625</AltitudeMeters>
            <DistanceMeters>NAN</DistanceMeters>
          </Trackpoint>
          <Trackpoint>
            <Time>2022-09-24T15:38:33.000Z</Time>
            <Position>
              <LatitudeDegrees>43.33003479056060314178466796875</LatitudeDegrees>
              <LongitudeDegrees>-2.7985436283051967620849609375</LongitudeDegrees>
            </Position>
            <AltitudeMeters>-10.19999980926513671875</AltitudeMeters>
            <DistanceMeters>NAN</DistanceMeters>
          </Trackpoint>
          <Trackpoint>
            <Time>2022-09-24T15:38:34.000Z</Time>
            <Position>
              <LatitudeDegrees>43.33000662736594676971435546875</LatitudeDegrees>
              <LongitudeDegrees>-2.79867128469049930572509765625</LongitudeDegrees>
            </Position>
            <AltitudeMeters>-10</AltitudeMeters>
            <DistanceMeters>NAN</DistanceMeters>
          </Trackpoint>
          <Trackpoint>
            <Time>2022-09-24T15:38:35.000Z</Time>
            <Position>
              <LatitudeDegrees>43.33000042475759983062744140625</LatitudeDegrees>
              <LongitudeDegrees>-2.79875862412154674530029296875</LongitudeDegrees>
            </Position>
            <AltitudeMeters>-10.19999980926513671875</AltitudeMeters>
            <DistanceMeters>NAN</DistanceMeters>
          </Trackpoint>
          <Trackpoint>
            <Time>2022-09-24T15:38:36.000Z</Time>
            <Position>
              <LatitudeDegrees>43.3300115726888179779052734375</LatitudeDegrees>
              <LongitudeDegrees>-2.79888711869716644287109375</LongitudeDegrees>
            </Position>
            <AltitudeMeters>-10.19999980926513671875</AltitudeMeters>
            <DistanceMeters>NAN</DistanceMeters>
          </Trackpoint>
          <Trackpoint>
            <Time>2022-09-24T15:38:37.000Z</Time>
            <Position>
              <LatitudeDegrees>43.330032527446746826171875</LatitudeDegrees>
              <LongitudeDegrees>-2.798969931900501251220703125</LongitudeDegrees>
            </Position>
            <AltitudeMeters>-10.19999980926513671875</AltitudeMeters>
            <DistanceMeters>NAN</DistanceMeters>
          </Trackpoint>
          <Trackpoint>
            <Time>2022-09-24T15:38:38.000Z</Time>
            <Position>
              <LatitudeDegrees>43.33006647415459156036376953125</LatitudeDegrees>
              <LongitudeDegrees>-2.79906749725341796875</LongitudeDegrees>
            </Position>
            <AltitudeMeters>-10.19999980926513671875</AltitudeMeters>
            <DistanceMeters>NAN</DistanceMeters>
          </Trackpoint>
          <Trackpoint>
            <Time>2022-09-24T15:38:39.000Z</Time>
            <Position>
              <LatitudeDegrees>43.33010586909949779510498046875</LatitudeDegrees>
              <LongitudeDegrees>-2.7991591952741146087646484375</LongitudeDegrees>
            </Position>
            <AltitudeMeters>-10</AltitudeMeters>
            <DistanceMeters>NAN</DistanceMeters>
          </Trackpoint>
          <Trackpoint>
            <Time>2022-09-24T15:38:40.000Z</Time>
            <Position>
              <LatitudeDegrees>43.3301466889679431915283203125</LatitudeDegrees>
              <LongitudeDegrees>-2.7992517314851284027099609375</LongitudeDegrees>
            </Position>
            <AltitudeMeters>-10</AltitudeMeters>
            <DistanceMeters>NAN</DistanceMeters>
          </Trackpoint>
          <Trackpoint>
            <Time>2022-09-24T15:38:41.000Z</Time>
            <Position>
              <LatitudeDegrees>43.33018985576927661895751953125</LatitudeDegrees>
              <LongitudeDegrees>-2.79934686608612537384033203125</LongitudeDegrees>
            </Position>
            <AltitudeMeters>-10</AltitudeMeters>
            <DistanceMeters>NAN</DistanceMeters>
          </Trackpoint>
          <Trackpoint>
            <Time>2022-09-24T15:38:42.000Z</Time>
            <Position>
              <LatitudeDegrees>43.3302362076938152313232421875</LatitudeDegrees>
              <LongitudeDegrees>-2.7994389832019805908203125</LongitudeDegrees>
            </Position>
            <AltitudeMeters>-10</AltitudeMeters>
            <DistanceMeters>NAN</DistanceMeters>
          </Trackpoint>
          <Trackpoint>
            <Time>2022-09-24T15:38:43.000Z</Time>
            <Position>
              <LatitudeDegrees>43.3302841521799564361572265625</LatitudeDegrees>
              <LongitudeDegrees>-2.79953076504170894622802734375</LongitudeDegrees>
            </Position>
            <AltitudeMeters>-10.19999980926513671875</AltitudeMeters>
            <DistanceMeters>NAN</DistanceMeters>
          </Trackpoint>
          <Trackpoint>
            <Time>2022-09-24T15:38:44.000Z</Time>
            <Position>
              <LatitudeDegrees>43.33033268339931964874267578125</LatitudeDegrees>
              <LongitudeDegrees>-2.799623720347881317138671875</LongitudeDegrees>
            </Position>
            <AltitudeMeters>-10.80000019073486328125</AltitudeMeters>
            <DistanceMeters>NAN</DistanceMeters>
          </Trackpoint>
          <Trackpoint>
            <Time>2022-09-24T15:38:45.000Z</Time>
            <Position>
              <LatitudeDegrees>43.33037811331450939178466796875</LatitudeDegrees>
              <LongitudeDegrees>-2.79972170479595661163330078125</LongitudeDegrees>
            </Position>
            <AltitudeMeters>-10.80000019073486328125</AltitudeMeters>
            <DistanceMeters>NAN</DistanceMeters>
          </Trackpoint>
          <Trackpoint>
            <Time>2022-09-24T15:38:46.000Z</Time>
            <Position>
              <LatitudeDegrees>43.33042589016258716583251953125</LatitudeDegrees>
              <LongitudeDegrees>-2.79982429929077625274658203125</LongitudeDegrees>
            </Position>
            <AltitudeMeters>-11.19999980926513671875</AltitudeMeters>
            <DistanceMeters>NAN</DistanceMeters>
          </Trackpoint>
          <Trackpoint>
            <Time>2022-09-24T15:38:47.000Z</Time>
            <Position>
              <LatitudeDegrees>43.3304739184677600860595703125</LatitudeDegrees>
              <LongitudeDegrees>-2.79992454685270786285400390625</LongitudeDegrees>
            </Position>
            <AltitudeMeters>-11.19999980926513671875</AltitudeMeters>
            <DistanceMeters>NAN</DistanceMeters>
          </Trackpoint>
          <Trackpoint>
            <Time>2022-09-24T15:38:48.000Z</Time>
            <Position>
              <LatitudeDegrees>43.330523036420345306396484375</LatitudeDegrees>
              <LongitudeDegrees>-2.8000275604426860809326171875</LongitudeDegrees>
            </Position>
            <AltitudeMeters>-11.19999980926513671875</AltitudeMeters>
            <DistanceMeters>NAN</DistanceMeters>
          </Trackpoint>
          <Trackpoint>
            <Time>2022-09-24T15:38:49.000Z</Time>
            <Position>
              <LatitudeDegrees>43.3305711485445499420166015625</LatitudeDegrees>
              <LongitudeDegrees>-2.8001335076987743377685546875</LongitudeDegrees>
            </Position>
            <AltitudeMeters>-11.3999996185302734375</AltitudeMeters>
            <DistanceMeters>NAN</DistanceMeters>
          </Trackpoint>
          <Trackpoint>
            <Time>2022-09-24T15:38:50.000Z</Time>
            <Position>
              <LatitudeDegrees>43.33061657845973968505859375</LatitudeDegrees>
              <LongitudeDegrees>-2.8002409636974334716796875</LongitudeDegrees>
            </Position>
            <AltitudeMeters>-11.6000003814697265625</AltitudeMeters>
            <DistanceMeters>NAN</DistanceMeters>
          </Trackpoint>
          <Trackpoint>
            <Time>2022-09-24T15:38:51.000Z</Time>
            <Position>
              <LatitudeDegrees>43.3306615054607391357421875</LatitudeDegrees>
              <LongitudeDegrees>-2.80035051517188549041748046875</LongitudeDegrees>
            </Position>
            <AltitudeMeters>-11.80000019073486328125</AltitudeMeters>
            <DistanceMeters>NAN</DistanceMeters>
          </Trackpoint>
          <Trackpoint>
            <Time>2022-09-24T15:38:52.000Z</Time>
            <Position>
              <LatitudeDegrees>43.33070919848978519439697265625</LatitudeDegrees>
              <LongitudeDegrees>-2.80046115629374980926513671875</LongitudeDegrees>
            </Position>
            <AltitudeMeters>-12.3999996185302734375</AltitudeMeters>
            <DistanceMeters>NAN</DistanceMeters>
          </Trackpoint>
          <Trackpoint>
            <Time>2022-09-24T15:38:53.000Z</Time>
            <Position>
              <LatitudeDegrees>43.33075848408043384552001953125</LatitudeDegrees>
              <LongitudeDegrees>-2.80057045631110668182373046875</LongitudeDegrees>
            </Position>
            <AltitudeMeters>-12.3999996185302734375</AltitudeMeters>
            <DistanceMeters>NAN</DistanceMeters>
          </Trackpoint>
          <Trackpoint>
            <Time>2022-09-24T15:38:54.000Z</Time>
            <Position>
              <LatitudeDegrees>43.33080911077558994293212890625</LatitudeDegrees>
              <LongitudeDegrees>-2.80068017542362213134765625</LongitudeDegrees>
            </Position>
            <AltitudeMeters>-12.3999996185302734375</AltitudeMeters>
            <DistanceMeters>NAN</DistanceMeters>
          </Trackpoint>
          <Trackpoint>
            <Time>2022-09-24T15:38:55.000Z</Time>
            <Position>
              <LatitudeDegrees>43.3308608271181583404541015625</LatitudeDegrees>
              <LongitudeDegrees>-2.80079006217420101165771484375</LongitudeDegrees>
            </Position>
            <AltitudeMeters>-11.6000003814697265625</AltitudeMeters>
            <DistanceMeters>NAN</DistanceMeters>
          </Trackpoint>
          <Trackpoint>
            <Time>2022-09-24T15:38:56.000Z</Time>
            <Position>
              <LatitudeDegrees>43.33091304637491703033447265625</LatitudeDegrees>
              <LongitudeDegrees>-2.80089869163930416107177734375</LongitudeDegrees>
            </Position>
            <AltitudeMeters>-11.6000003814697265625</AltitudeMeters>
            <DistanceMeters>NAN</DistanceMeters>
          </Trackpoint>
          <Trackpoint>
            <Time>2022-09-24T15:38:57.000Z</Time>
            <Position>
              <LatitudeDegrees>43.33096903748810291290283203125</LatitudeDegrees>
              <LongitudeDegrees>-2.80100195668637752532958984375</LongitudeDegrees>
            </Position>
            <AltitudeMeters>-11.3999996185302734375</AltitudeMeters>
            <DistanceMeters>NAN</DistanceMeters>
          </Trackpoint>
          <Trackpoint>
            <Time>2022-09-24T15:38:58.000Z</Time>
            <Position>
              <LatitudeDegrees>43.33103223703801631927490234375</LatitudeDegrees>
              <LongitudeDegrees>-2.80109767802059650421142578125</LongitudeDegrees>
            </Position>
            <AltitudeMeters>-11.3999996185302734375</AltitudeMeters>
            <DistanceMeters>NAN</DistanceMeters>
          </Trackpoint>
          <Trackpoint>
            <Time>2022-09-24T15:38:59.000Z</Time>
            <Position>
              <LatitudeDegrees>43.33110717125236988067626953125</LatitudeDegrees>
              <LongitudeDegrees>-2.80117504298686981201171875</LongitudeDegrees>
            </Position>
            <AltitudeMeters>-11.3999996185302734375</AltitudeMeters>
            <DistanceMeters>NAN</DistanceMeters>
          </Trackpoint>
          <Trackpoint>
            <Time>2022-09-24T15:39:00.000Z</Time>
            <Position>
              <LatitudeDegrees>43.33119233138859272003173828125</LatitudeDegrees>
              <LongitudeDegrees>-2.80123136937618255615234375</LongitudeDegrees>
            </Position>
            <AltitudeMeters>-11.80000019073486328125</AltitudeMeters>
            <DistanceMeters>NAN</DistanceMeters>
          </Trackpoint>
          <Trackpoint>
            <Time>2022-09-24T15:39:01.000Z</Time>
            <Position>
              <LatitudeDegrees>43.33119233138859272003173828125</LatitudeDegrees>
              <LongitudeDegrees>-2.80123136937618255615234375</LongitudeDegrees>
            </Position>
            <AltitudeMeters>-12.3999996185302734375</AltitudeMeters>
            <DistanceMeters>NAN</DistanceMeters>
          </Trackpoint>
          <Trackpoint>
            <Time>2022-09-24T15:39:02.000Z</Time>
            <Position>
              <LatitudeDegrees>43.331375978887081146240234375</LatitudeDegrees>
              <LongitudeDegrees>-2.80130186118185520172119140625</LongitudeDegrees>
            </Position>
            <AltitudeMeters>-13.80000019073486328125</AltitudeMeters>
            <DistanceMeters>NAN</DistanceMeters>
          </Trackpoint>
          <Trackpoint>
            <Time>2022-09-24T15:39:03.000Z</Time>
            <Position>
              <LatitudeDegrees>43.3314706943929195404052734375</LatitudeDegrees>
              <LongitudeDegrees>-2.80132533051073551177978515625</LongitudeDegrees>
            </Position>
            <AltitudeMeters>-13.80000019073486328125</AltitudeMeters>
            <DistanceMeters>NAN</DistanceMeters>
          </Trackpoint>
          <Trackpoint>
            <Time>2022-09-24T15:39:04.000Z</Time>
            <Position>
              <LatitudeDegrees>43.33156515844166278839111328125</LatitudeDegrees>
              <LongitudeDegrees>-2.8013415075838565826416015625</LongitudeDegrees>
            </Position>
            <AltitudeMeters>-14.80000019073486328125</AltitudeMeters>
            <DistanceMeters>NAN</DistanceMeters>
          </Trackpoint>
          <Trackpoint>
            <Time>2022-09-24T15:39:05.000Z</Time>
            <Position>
              <LatitudeDegrees>43.33165836520493030548095703125</LatitudeDegrees>
              <LongitudeDegrees>-2.8013619594275951385498046875</LongitudeDegrees>
            </Position>
            <AltitudeMeters>-14.80000019073486328125</AltitudeMeters>
            <DistanceMeters>NAN</DistanceMeters>
          </Trackpoint>
          <Trackpoint>
            <Time>2022-09-24T15:39:06.000Z</Time>
            <Position>
              <LatitudeDegrees>43.3317503146827220916748046875</LatitudeDegrees>
              <LongitudeDegrees>-2.80138215981423854827880859375</LongitudeDegrees>
            </Position>
            <AltitudeMeters>-15.19999980926513671875</AltitudeMeters>
            <DistanceMeters>NAN</DistanceMeters>
          </Trackpoint>
          <Trackpoint>
            <Time>2022-09-24T15:39:07.000Z</Time>
            <Position>
              <LatitudeDegrees>43.3318408392369747161865234375</LatitudeDegrees>
              <LongitudeDegrees>-2.80139976181089878082275390625</LongitudeDegrees>
            </Position>
            <AltitudeMeters>-15.19999980926513671875</AltitudeMeters>
            <DistanceMeters>NAN</DistanceMeters>
          </Trackpoint>
          <Trackpoint>
            <Time>2022-09-24T15:39:08.000Z</Time>
            <Position>
              <LatitudeDegrees>43.3319290168583393096923828125</LatitudeDegrees>
              <LongitudeDegrees>-2.80142172239720821380615234375</LongitudeDegrees>
            </Position>
            <AltitudeMeters>-14.80000019073486328125</AltitudeMeters>
            <DistanceMeters>NAN</DistanceMeters>
          </Trackpoint>
          <Trackpoint>
            <Time>2022-09-24T15:39:09.000Z</Time>
            <Position>
              <LatitudeDegrees>43.332015685737133026123046875</LatitudeDegrees>
              <LongitudeDegrees>-2.80144502408802509307861328125</LongitudeDegrees>
            </Position>
            <AltitudeMeters>-14.80000019073486328125</AltitudeMeters>
            <DistanceMeters>NAN</DistanceMeters>
          </Trackpoint>
          <Trackpoint>
            <Time>2022-09-24T15:39:10.000Z</Time>
            <Position>
              <LatitudeDegrees>43.3321016840636730194091796875</LatitudeDegrees>
              <LongitudeDegrees>-2.80146916396915912628173828125</LongitudeDegrees>
            </Position>
            <AltitudeMeters>-14.80000019073486328125</AltitudeMeters>
            <DistanceMeters>NAN</DistanceMeters>
          </Trackpoint>
          <Trackpoint>
            <Time>2022-09-24T15:39:11.000Z</Time>
            <Position>
              <LatitudeDegrees>43.3321868441998958587646484375</LatitudeDegrees>
              <LongitudeDegrees>-2.80149196274578571319580078125</LongitudeDegrees>
            </Position>
            <AltitudeMeters>-14.80000019073486328125</AltitudeMeters>
            <DistanceMeters>NAN</DistanceMeters>
          </Trackpoint>
          <Trackpoint>
            <Time>2022-09-24T15:39:12.000Z</Time>
            <Position>
              <LatitudeDegrees>43.33227091468870639801025390625</LatitudeDegrees>
              <LongitudeDegrees>-2.80151090584695339202880859375</LongitudeDegrees>
            </Position>
            <AltitudeMeters>-14</AltitudeMeters>
            <DistanceMeters>NAN</DistanceMeters>
          </Trackpoint>
          <Trackpoint>
            <Time>2022-09-24T15:39:13.000Z</Time>
            <Position>
              <LatitudeDegrees>43.3323551528155803680419921875</LatitudeDegrees>
              <LongitudeDegrees>-2.8015284240245819091796875</LongitudeDegrees>
            </Position>
            <AltitudeMeters>-13.6000003814697265625</AltitudeMeters>
            <DistanceMeters>NAN</DistanceMeters>
          </Trackpoint>
          <Trackpoint>
            <Time>2022-09-24T15:39:14.000Z</Time>
            <Position>
              <LatitudeDegrees>43.3324393071234226226806640625</LatitudeDegrees>
              <LongitudeDegrees>-2.8015483729541301727294921875</LongitudeDegrees>
            </Position>
            <AltitudeMeters>-13.6000003814697265625</AltitudeMeters>
            <DistanceMeters>NAN</DistanceMeters>
          </Trackpoint>
          <Trackpoint>
            <Time>2022-09-24T15:39:15.000Z</Time>
            <Position>
              <LatitudeDegrees>43.3325217850506305694580078125</LatitudeDegrees>
              <LongitudeDegrees>-2.801570333540439605712890625</LongitudeDegrees>
            </Position>
            <AltitudeMeters>-13.6000003814697265625</AltitudeMeters>
            <DistanceMeters>NAN</DistanceMeters>
          </Trackpoint>
          <Trackpoint>
            <Time>2022-09-24T15:39:16.000Z</Time>
            <Position>
              <LatitudeDegrees>43.33260275423526763916015625</LatitudeDegrees>
              <LongitudeDegrees>-2.80159438960254192352294921875</LongitudeDegrees>
            </Position>
            <AltitudeMeters>-13.6000003814697265625</AltitudeMeters>
            <DistanceMeters>NAN</DistanceMeters>
          </Trackpoint>
          <Trackpoint>
            <Time>2022-09-24T15:39:17.000Z</Time>
            <Position>
              <LatitudeDegrees>43.33268313668668270111083984375</LatitudeDegrees>
              <LongitudeDegrees>-2.8016147576272487640380859375</LongitudeDegrees>
            </Position>
            <AltitudeMeters>-13.80000019073486328125</AltitudeMeters>
            <DistanceMeters>NAN</DistanceMeters>
          </Trackpoint>
          <Trackpoint>
            <Time>2022-09-24T15:39:18.000Z</Time>
            <Position>
              <LatitudeDegrees>43.33276326768100261688232421875</LatitudeDegrees>
              <LongitudeDegrees>-2.8016328625380992889404296875</LongitudeDegrees>
            </Position>
            <AltitudeMeters>-13.80000019073486328125</AltitudeMeters>
            <DistanceMeters>NAN</DistanceMeters>
          </Trackpoint>
          <Trackpoint>
            <Time>2022-09-24T15:39:19.000Z</Time>
            <Position>
              <LatitudeDegrees>43.33284306339919567108154296875</LatitudeDegrees>
              <LongitudeDegrees>-2.80165021307766437530517578125</LongitudeDegrees>
            </Position>
            <AltitudeMeters>-13.80000019073486328125</AltitudeMeters>
            <DistanceMeters>NAN</DistanceMeters>
          </Trackpoint>
          <Trackpoint>
            <Time>2022-09-24T15:39:20.000Z</Time>
            <Position>
              <LatitudeDegrees>43.33292118273675441741943359375</LatitudeDegrees>
              <LongitudeDegrees>-2.80167250894010066986083984375</LongitudeDegrees>
            </Position>
            <AltitudeMeters>-13.80000019073486328125</AltitudeMeters>
            <DistanceMeters>NAN</DistanceMeters>
          </Trackpoint>
          <Trackpoint>
            <Time>2022-09-24T15:39:21.000Z</Time>
            <Position>
              <LatitudeDegrees>43.33299812860786914825439453125</LatitudeDegrees>
              <LongitudeDegrees>-2.80169396661221981048583984375</LongitudeDegrees>
            </Position>
            <AltitudeMeters>-13.6000003814697265625</AltitudeMeters>
            <DistanceMeters>NAN</DistanceMeters>
          </Trackpoint>
          <Trackpoint>
            <Time>2022-09-24T15:39:22.000Z</Time>
            <Position>
              <LatitudeDegrees>43.33307457156479358673095703125</LatitudeDegrees>
              <LongitudeDegrees>-2.80171358026564121246337890625</LongitudeDegrees>
            </Position>
            <AltitudeMeters>-13.6000003814697265625</AltitudeMeters>
            <DistanceMeters>NAN</DistanceMeters>
          </Trackpoint>
          <Trackpoint>
            <Time>2022-09-24T15:39:23.000Z</Time>
            <Position>
              <LatitudeDegrees>43.3331479132175445556640625</LatitudeDegrees>
              <LongitudeDegrees>-2.80173570849001407623291015625</LongitudeDegrees>
            </Position>
            <AltitudeMeters>-13.3999996185302734375</AltitudeMeters>
            <DistanceMeters>NAN</DistanceMeters>
          </Trackpoint>
          <Trackpoint>
            <Time>2022-09-24T15:39:24.000Z</Time>
            <Position>
              <LatitudeDegrees>43.33322024904191493988037109375</LatitudeDegrees>
              <LongitudeDegrees>-2.8017549030482769012451171875</LongitudeDegrees>
            </Position>
            <AltitudeMeters>-13.3999996185302734375</AltitudeMeters>
            <DistanceMeters>NAN</DistanceMeters>
          </Trackpoint>
          <Trackpoint>
            <Time>2022-09-24T15:39:25.000Z</Time>
            <Position>
              <LatitudeDegrees>43.333290405571460723876953125</LatitudeDegrees>
              <LongitudeDegrees>-2.8017756901681423187255859375</LongitudeDegrees>
            </Position>
            <AltitudeMeters>-13.3999996185302734375</AltitudeMeters>
            <DistanceMeters>NAN</DistanceMeters>
          </Trackpoint>
          <Trackpoint>
            <Time>2022-09-24T15:39:26.000Z</Time>
            <Position>
              <LatitudeDegrees>43.33336056210100650787353515625</LatitudeDegrees>
              <LongitudeDegrees>-2.801789939403533935546875</LongitudeDegrees>
            </Position>
            <AltitudeMeters>-13</AltitudeMeters>
            <DistanceMeters>NAN</DistanceMeters>
          </Trackpoint>
          <Trackpoint>
            <Time>2022-09-24T15:39:27.000Z</Time>
            <Position>
              <LatitudeDegrees>43.33343088626861572265625</LatitudeDegrees>
              <LongitudeDegrees>-2.80180444009602069854736328125</LongitudeDegrees>
            </Position>
            <AltitudeMeters>-12.3999996185302734375</AltitudeMeters>
            <DistanceMeters>NAN</DistanceMeters>
          </Trackpoint>
          <Trackpoint>
            <Time>2022-09-24T15:39:28.000Z</Time>
            <Position>
              <LatitudeDegrees>43.33349986933171749114990234375</LatitudeDegrees>
              <LongitudeDegrees>-2.80181734822690486907958984375</LongitudeDegrees>
            </Position>
            <AltitudeMeters>-12.19999980926513671875</AltitudeMeters>
            <DistanceMeters>NAN</DistanceMeters>
          </Trackpoint>
          <Trackpoint>
            <Time>2022-09-24T15:39:29.000Z</Time>
            <Position>
              <LatitudeDegrees>43.3335681818425655364990234375</LatitudeDegrees>
              <LongitudeDegrees>-2.80183008871972560882568359375</LongitudeDegrees>
            </Position>
            <AltitudeMeters>-12</AltitudeMeters>
            <DistanceMeters>NAN</DistanceMeters>
          </Trackpoint>
          <Trackpoint>
            <Time>2022-09-24T15:39:30.000Z</Time>
            <Position>
              <LatitudeDegrees>43.3336372487246990203857421875</LatitudeDegrees>
              <LongitudeDegrees>-2.801843583583831787109375</LongitudeDegrees>
            </Position>
            <AltitudeMeters>-11.6000003814697265625</AltitudeMeters>
            <DistanceMeters>NAN</DistanceMeters>
          </Trackpoint>
          <Trackpoint>
            <Time>2022-09-24T15:39:31.000Z</Time>
            <Position>
              <LatitudeDegrees>43.33370422013103961944580078125</LatitudeDegrees>
              <LongitudeDegrees>-2.80186126939952373504638671875</LongitudeDegrees>
            </Position>
            <AltitudeMeters>-10.19999980926513671875</AltitudeMeters>
            <DistanceMeters>NAN</DistanceMeters>
          </Trackpoint>
          <Trackpoint>
            <Time>2022-09-24T15:39:32.000Z</Time>
            <Position>
              <LatitudeDegrees>43.3337683416903018951416015625</LatitudeDegrees>
              <LongitudeDegrees>-2.80188121832907199859619140625</LongitudeDegrees>
            </Position>
            <AltitudeMeters>-9.80000019073486328125</AltitudeMeters>
            <DistanceMeters>NAN</DistanceMeters>
          </Trackpoint>
          <Trackpoint>
            <Time>2022-09-24T15:39:33.000Z</Time>
            <Position>
              <LatitudeDegrees>43.33383078686892986297607421875</LatitudeDegrees>
              <LongitudeDegrees>-2.801899574697017669677734375</LongitudeDegrees>
            </Position>
            <AltitudeMeters>-9.80000019073486328125</AltitudeMeters>
            <DistanceMeters>NAN</DistanceMeters>
          </Trackpoint>
          <Trackpoint>
            <Time>2022-09-24T15:39:34.000Z</Time>
            <Position>
              <LatitudeDegrees>43.33389365114271640777587890625</LatitudeDegrees>
              <LongitudeDegrees>-2.80191608704626560211181640625</LongitudeDegrees>
            </Position>
            <AltitudeMeters>-9.6000003814697265625</AltitudeMeters>
            <DistanceMeters>NAN</DistanceMeters>
          </Trackpoint>
          <Trackpoint>
            <Time>2022-09-24T15:39:35.000Z</Time>
            <Position>
              <LatitudeDegrees>43.333956934511661529541015625</LatitudeDegrees>
              <LongitudeDegrees>-2.8019309230148792266845703125</LongitudeDegrees>
            </Position>
            <AltitudeMeters>-9.6000003814697265625</AltitudeMeters>
            <DistanceMeters>NAN</DistanceMeters>
          </Trackpoint>
          <Trackpoint>
            <Time>2022-09-24T15:39:36.000Z</Time>
            <Position>
              <LatitudeDegrees>43.33402105607092380523681640625</LatitudeDegrees>
              <LongitudeDegrees>-2.80194760300219058990478515625</LongitudeDegrees>
            </Position>
            <AltitudeMeters>-9.3999996185302734375</AltitudeMeters>
            <DistanceMeters>NAN</DistanceMeters>
          </Trackpoint>
          <Trackpoint>
            <Time>2022-09-24T15:39:37.000Z</Time>
            <Position>
              <LatitudeDegrees>43.33402105607092380523681640625</LatitudeDegrees>
              <LongitudeDegrees>-2.80194760300219058990478515625</LongitudeDegrees>
            </Position>
            <AltitudeMeters>-9.3999996185302734375</AltitudeMeters>
            <DistanceMeters>NAN</DistanceMeters>
          </Trackpoint>
          <Trackpoint>
            <Time>2022-09-24T15:39:38.000Z</Time>
            <Position>
              <LatitudeDegrees>43.33414829336106777191162109375</LatitudeDegrees>
              <LongitudeDegrees>-2.8019822202622890472412109375</LongitudeDegrees>
            </Position>
            <AltitudeMeters>-9.3999996185302734375</AltitudeMeters>
            <DistanceMeters>NAN</DistanceMeters>
          </Trackpoint>
          <Trackpoint>
            <Time>2022-09-24T15:39:39.000Z</Time>
            <Position>
              <LatitudeDegrees>43.3342095650732517242431640625</LatitudeDegrees>
              <LongitudeDegrees>-2.80199714004993438720703125</LongitudeDegrees>
            </Position>
            <AltitudeMeters>-9.19999980926513671875</AltitudeMeters>
            <DistanceMeters>NAN</DistanceMeters>
          </Trackpoint>
          <Trackpoint>
            <Time>2022-09-24T15:39:40.000Z</Time>
            <Position>
              <LatitudeDegrees>43.334273435175418853759765625</LatitudeDegrees>
              <LongitudeDegrees>-2.80201029963791370391845703125</LongitudeDegrees>
            </Position>
            <AltitudeMeters>-9.19999980926513671875</AltitudeMeters>
            <DistanceMeters>NAN</DistanceMeters>
          </Trackpoint>
          <Trackpoint>
            <Time>2022-09-24T15:39:41.000Z</Time>
            <Position>
              <LatitudeDegrees>43.33433722145855426788330078125</LatitudeDegrees>
              <LongitudeDegrees>-2.80202329158782958984375</LongitudeDegrees>
            </Position>
            <AltitudeMeters>-8.80000019073486328125</AltitudeMeters>
            <DistanceMeters>NAN</DistanceMeters>
          </Trackpoint>
          <Trackpoint>
            <Time>2022-09-24T15:39:42.000Z</Time>
            <Position>
              <LatitudeDegrees>43.33439991809427738189697265625</LatitudeDegrees>
              <LongitudeDegrees>-2.80203913338482379913330078125</LongitudeDegrees>
            </Position>
            <AltitudeMeters>-8.6000003814697265625</AltitudeMeters>
            <DistanceMeters>NAN</DistanceMeters>
          </Trackpoint>
          <Trackpoint>
            <Time>2022-09-24T15:39:43.000Z</Time>
            <Position>
              <LatitudeDegrees>43.3344623632729053497314453125</LatitudeDegrees>
              <LongitudeDegrees>-2.8020566515624523162841796875</LongitudeDegrees>
            </Position>
            <AltitudeMeters>-8.19999980926513671875</AltitudeMeters>
            <DistanceMeters>NAN</DistanceMeters>
          </Trackpoint>
          <Trackpoint>
            <Time>2022-09-24T15:39:44.000Z</Time>
            <Position>
              <LatitudeDegrees>43.33452346734702587127685546875</LatitudeDegrees>
              <LongitudeDegrees>-2.8020729124546051025390625</LongitudeDegrees>
            </Position>
            <AltitudeMeters>-8.19999980926513671875</AltitudeMeters>
            <DistanceMeters>NAN</DistanceMeters>
          </Trackpoint>
          <Trackpoint>
            <Time>2022-09-24T15:39:45.000Z</Time>
            <Position>
              <LatitudeDegrees>43.33458624780178070068359375</LatitudeDegrees>
              <LongitudeDegrees>-2.80208640731871128082275390625</LongitudeDegrees>
            </Position>
            <AltitudeMeters>-8.80000019073486328125</AltitudeMeters>
            <DistanceMeters>NAN</DistanceMeters>
          </Trackpoint>
          <Trackpoint>
            <Time>2022-09-24T15:39:46.000Z</Time>
            <Position>
              <LatitudeDegrees>43.33464550785720348358154296875</LatitudeDegrees>
              <LongitudeDegrees>-2.80210132710635662078857421875</LongitudeDegrees>
            </Position>
            <AltitudeMeters>-8.19999980926513671875</AltitudeMeters>
            <DistanceMeters>NAN</DistanceMeters>
          </Trackpoint>
          <Trackpoint>
            <Time>2022-09-24T15:39:47.000Z</Time>
            <Position>
              <LatitudeDegrees>43.33470719866454601287841796875</LatitudeDegrees>
              <LongitudeDegrees>-2.802114151418209075927734375</LongitudeDegrees>
            </Position>
            <AltitudeMeters>-8.19999980926513671875</AltitudeMeters>
            <DistanceMeters>NAN</DistanceMeters>
          </Trackpoint>
          <Trackpoint>
            <Time>2022-09-24T15:39:48.000Z</Time>
            <Position>
              <LatitudeDegrees>43.334768973290920257568359375</LatitudeDegrees>
              <LongitudeDegrees>-2.8021211922168731689453125</LongitudeDegrees>
            </Position>
            <AltitudeMeters>-8</AltitudeMeters>
            <DistanceMeters>NAN</DistanceMeters>
          </Trackpoint>
          <Trackpoint>
            <Time>2022-09-24T15:39:49.000Z</Time>
            <Position>
              <LatitudeDegrees>43.334828652441501617431640625</LatitudeDegrees>
              <LongitudeDegrees>-2.80212052166461944580078125</LongitudeDegrees>
            </Position>
            <AltitudeMeters>-8</AltitudeMeters>
            <DistanceMeters>NAN</DistanceMeters>
          </Trackpoint>
          <Trackpoint>
            <Time>2022-09-24T15:39:50.000Z</Time>
            <Position>
              <LatitudeDegrees>43.3348886668682098388671875</LatitudeDegrees>
              <LongitudeDegrees>-2.80211205594241619110107421875</LongitudeDegrees>
            </Position>
            <AltitudeMeters>-8</AltitudeMeters>
            <DistanceMeters>NAN</DistanceMeters>
          </Trackpoint>
          <Trackpoint>
            <Time>2022-09-24T15:39:51.000Z</Time>
            <Position>
              <LatitudeDegrees>43.33494834601879119873046875</LatitudeDegrees>
              <LongitudeDegrees>-2.8021102957427501678466796875</LongitudeDegrees>
            </Position>
            <AltitudeMeters>-8</AltitudeMeters>
            <DistanceMeters>NAN</DistanceMeters>
          </Trackpoint>
          <Trackpoint>
            <Time>2022-09-24T15:39:52.000Z</Time>
            <Position>
              <LatitudeDegrees>43.335005342960357666015625</LatitudeDegrees>
              <LongitudeDegrees>-2.8021263889968395233154296875</LongitudeDegrees>
            </Position>
            <AltitudeMeters>-7.80000019073486328125</AltitudeMeters>
            <DistanceMeters>NAN</DistanceMeters>
          </Trackpoint>
          <Trackpoint>
            <Time>2022-09-24T15:39:53.000Z</Time>
            <Position>
              <LatitudeDegrees>43.3350588195025920867919921875</LatitudeDegrees>
              <LongitudeDegrees>-2.8021545521914958953857421875</LongitudeDegrees>
            </Position>
            <AltitudeMeters>-7.599999904632568359375</AltitudeMeters>
            <DistanceMeters>NAN</DistanceMeters>
          </Trackpoint>
          <Trackpoint>
            <Time>2022-09-24T15:39:54.000Z</Time>
            <Position>
              <LatitudeDegrees>43.3351112902164459228515625</LatitudeDegrees>
              <LongitudeDegrees>-2.80218665488064289093017578125</LongitudeDegrees>
            </Position>
            <AltitudeMeters>-7.400000095367431640625</AltitudeMeters>
            <DistanceMeters>NAN</DistanceMeters>
          </Trackpoint>
          <Trackpoint>
            <Time>2022-09-24T15:39:55.000Z</Time>
            <Position>
              <LatitudeDegrees>43.3351651020348072052001953125</LatitudeDegrees>
              <LongitudeDegrees>-2.8022179193794727325439453125</LongitudeDegrees>
            </Position>
            <AltitudeMeters>-7.400000095367431640625</AltitudeMeters>
            <DistanceMeters>NAN</DistanceMeters>
          </Trackpoint>
          <Trackpoint>
            <Time>2022-09-24T15:39:56.000Z</Time>
            <Position>
              <LatitudeDegrees>43.33522469736635684967041015625</LatitudeDegrees>
              <LongitudeDegrees>-2.80224449001252651214599609375</LongitudeDegrees>
            </Position>
            <AltitudeMeters>-7</AltitudeMeters>
            <DistanceMeters>NAN</DistanceMeters>
          </Trackpoint>
          <Trackpoint>
            <Time>2022-09-24T15:39:57.000Z</Time>
            <Position>
              <LatitudeDegrees>43.3352824486792087554931640625</LatitudeDegrees>
              <LongitudeDegrees>-2.80226670205593109130859375</LongitudeDegrees>
            </Position>
            <AltitudeMeters>-6.599999904632568359375</AltitudeMeters>
            <DistanceMeters>NAN</DistanceMeters>
          </Trackpoint>
          <Trackpoint>
            <Time>2022-09-24T15:39:58.000Z</Time>
            <Position>
              <LatitudeDegrees>43.33534405566751956939697265625</LatitudeDegrees>
              <LongitudeDegrees>-2.8022863157093524932861328125</LongitudeDegrees>
            </Position>
            <AltitudeMeters>-6.599999904632568359375</AltitudeMeters>
            <DistanceMeters>NAN</DistanceMeters>
          </Trackpoint>
          <Trackpoint>
            <Time>2022-09-24T15:39:59.000Z</Time>
            <Position>
              <LatitudeDegrees>43.33540675230324268341064453125</LatitudeDegrees>
              <LongitudeDegrees>-2.8023047558963298797607421875</LongitudeDegrees>
            </Position>
            <AltitudeMeters>-7</AltitudeMeters>
            <DistanceMeters>NAN</DistanceMeters>
          </Trackpoint>
          <Trackpoint>
            <Time>2022-09-24T15:40:00.000Z</Time>
            <Position>
              <LatitudeDegrees>43.33547003567218780517578125</LatitudeDegrees>
              <LongitudeDegrees>-2.8023248724639415740966796875</LongitudeDegrees>
            </Position>
            <AltitudeMeters>-7</AltitudeMeters>
            <DistanceMeters>NAN</DistanceMeters>
          </Trackpoint>
          <Trackpoint>
            <Time>2022-09-24T15:40:01.000Z</Time>
            <Position>
              <LatitudeDegrees>43.33553315140306949615478515625</LatitudeDegrees>
              <LongitudeDegrees>-2.80234540812671184539794921875</LongitudeDegrees>
            </Position>
            <AltitudeMeters>-7</AltitudeMeters>
            <DistanceMeters>NAN</DistanceMeters>
          </Trackpoint>
          <Trackpoint>
            <Time>2022-09-24T15:40:02.000Z</Time>
            <Position>
              <LatitudeDegrees>43.33559752441942691802978515625</LatitudeDegrees>
              <LongitudeDegrees>-2.80237223021686077117919921875</LongitudeDegrees>
            </Position>
            <AltitudeMeters>-7</AltitudeMeters>
            <DistanceMeters>NAN</DistanceMeters>
          </Trackpoint>
          <Trackpoint>
            <Time>2022-09-24T15:40:03.000Z</Time>
            <Position>
              <LatitudeDegrees>43.33566315472126007080078125</LatitudeDegrees>
              <LongitudeDegrees>-2.802399806678295135498046875</LongitudeDegrees>
            </Position>
            <AltitudeMeters>-7</AltitudeMeters>
            <DistanceMeters>NAN</DistanceMeters>
          </Trackpoint>
          <Trackpoint>
            <Time>2022-09-24T15:40:04.000Z</Time>
            <Position>
              <LatitudeDegrees>43.33572710864245891571044921875</LatitudeDegrees>
              <LongitudeDegrees>-2.8024261258542537689208984375</LongitudeDegrees>
            </Position>
            <AltitudeMeters>-7</AltitudeMeters>
            <DistanceMeters>NAN</DistanceMeters>
          </Trackpoint>
          <Trackpoint>
            <Time>2022-09-24T15:40:05.000Z</Time>
            <Position>
              <LatitudeDegrees>43.3357910625636577606201171875</LatitudeDegrees>
              <LongitudeDegrees>-2.8024546243250370025634765625</LongitudeDegrees>
            </Position>
            <AltitudeMeters>-7.80000019073486328125</AltitudeMeters>
            <DistanceMeters>NAN</DistanceMeters>
          </Trackpoint>
          <Trackpoint>
            <Time>2022-09-24T15:40:06.000Z</Time>
            <Position>
              <LatitudeDegrees>43.33585417829453945159912109375</LatitudeDegrees>
              <LongitudeDegrees>-2.80248421244323253631591796875</LongitudeDegrees>
            </Position>
            <AltitudeMeters>-9</AltitudeMeters>
            <DistanceMeters>NAN</DistanceMeters>
          </Trackpoint>
          <Trackpoint>
            <Time>2022-09-24T15:40:07.000Z</Time>
            <Position>
              <LatitudeDegrees>43.33591905422508716583251953125</LatitudeDegrees>
              <LongitudeDegrees>-2.802517823874950408935546875</LongitudeDegrees>
            </Position>
            <AltitudeMeters>-10.19999980926513671875</AltitudeMeters>
            <DistanceMeters>NAN</DistanceMeters>
          </Trackpoint>
          <Trackpoint>
            <Time>2022-09-24T15:40:08.000Z</Time>
            <Position>
              <LatitudeDegrees>43.33598359487950801849365234375</LatitudeDegrees>
              <LongitudeDegrees>-2.80255679972469806671142578125</LongitudeDegrees>
            </Position>
            <AltitudeMeters>-10.3999996185302734375</AltitudeMeters>
            <DistanceMeters>NAN</DistanceMeters>
          </Trackpoint>
          <Trackpoint>
            <Time>2022-09-24T15:40:09.000Z</Time>
            <Position>
              <LatitudeDegrees>43.336049728095531463623046875</LatitudeDegrees>
              <LongitudeDegrees>-2.80259720049798488616943359375</LongitudeDegrees>
            </Position>
            <AltitudeMeters>-10.6000003814697265625</AltitudeMeters>
            <DistanceMeters>NAN</DistanceMeters>
          </Trackpoint>
          <Trackpoint>
            <Time>2022-09-24T15:40:10.000Z</Time>
            <Position>
              <LatitudeDegrees>43.3361166156828403472900390625</LatitudeDegrees>
              <LongitudeDegrees>-2.8026363439857959747314453125</LongitudeDegrees>
            </Position>
            <AltitudeMeters>-10.6000003814697265625</AltitudeMeters>
            <DistanceMeters>NAN</DistanceMeters>
          </Trackpoint>
          <Trackpoint>
            <Time>2022-09-24T15:40:11.000Z</Time>
            <Position>
              <LatitudeDegrees>43.33618174307048320770263671875</LatitudeDegrees>
              <LongitudeDegrees>-2.80268420465290546417236328125</LongitudeDegrees>
            </Position>
            <AltitudeMeters>-10.6000003814697265625</AltitudeMeters>
            <DistanceMeters>NAN</DistanceMeters>
          </Trackpoint>
          <Trackpoint>
            <Time>2022-09-24T15:40:12.000Z</Time>
            <Position>
              <LatitudeDegrees>43.33624494262039661407470703125</LatitudeDegrees>
              <LongitudeDegrees>-2.80273902229964733123779296875</LongitudeDegrees>
            </Position>
            <AltitudeMeters>-10.80000019073486328125</AltitudeMeters>
            <DistanceMeters>NAN</DistanceMeters>
          </Trackpoint>
          <Trackpoint>
            <Time>2022-09-24T15:40:13.000Z</Time>
            <Position>
              <LatitudeDegrees>43.33630763925611972808837890625</LatitudeDegrees>
              <LongitudeDegrees>-2.802799455821514129638671875</LongitudeDegrees>
            </Position>
            <AltitudeMeters>-11</AltitudeMeters>
            <DistanceMeters>NAN</DistanceMeters>
          </Trackpoint>
          <Trackpoint>
            <Time>2022-09-24T15:40:14.000Z</Time>
            <Position>
              <LatitudeDegrees>43.336370922625064849853515625</LatitudeDegrees>
              <LongitudeDegrees>-2.80286123044788837432861328125</LongitudeDegrees>
            </Position>
            <AltitudeMeters>-11</AltitudeMeters>
            <DistanceMeters>NAN</DistanceMeters>
          </Trackpoint>
          <Trackpoint>
            <Time>2022-09-24T15:40:15.000Z</Time>
            <Position>
              <LatitudeDegrees>43.33643353544175624847412109375</LatitudeDegrees>
              <LongitudeDegrees>-2.8029260225594043731689453125</LongitudeDegrees>
            </Position>
            <AltitudeMeters>-11</AltitudeMeters>
            <DistanceMeters>NAN</DistanceMeters>
          </Trackpoint>
          <Trackpoint>
            <Time>2022-09-24T15:40:16.000Z</Time>
            <Position>
              <LatitudeDegrees>43.33649321459233760833740234375</LatitudeDegrees>
              <LongitudeDegrees>-2.8029997833073139190673828125</LongitudeDegrees>
            </Position>
            <AltitudeMeters>-11.3999996185302734375</AltitudeMeters>
            <DistanceMeters>NAN</DistanceMeters>
          </Trackpoint>
          <Trackpoint>
            <Time>2022-09-24T15:40:17.000Z</Time>
            <Position>
              <LatitudeDegrees>43.33655004389584064483642578125</LatitudeDegrees>
              <LongitudeDegrees>-2.80307983048260211944580078125</LongitudeDegrees>
            </Position>
            <AltitudeMeters>-11.3999996185302734375</AltitudeMeters>
            <DistanceMeters>NAN</DistanceMeters>
          </Trackpoint>
          <Trackpoint>
            <Time>2022-09-24T15:40:18.000Z</Time>
            <Position>
              <LatitudeDegrees>43.33660352043807506561279296875</LatitudeDegrees>
              <LongitudeDegrees>-2.80316448770463466644287109375</LongitudeDegrees>
            </Position>
            <AltitudeMeters>-11.6000003814697265625</AltitudeMeters>
            <DistanceMeters>NAN</DistanceMeters>
          </Trackpoint>
          <Trackpoint>
            <Time>2022-09-24T15:40:19.000Z</Time>
            <Position>
              <LatitudeDegrees>43.33665959537029266357421875</LatitudeDegrees>
              <LongitudeDegrees>-2.803246714174747467041015625</LongitudeDegrees>
            </Position>
            <AltitudeMeters>-11.80000019073486328125</AltitudeMeters>
            <DistanceMeters>NAN</DistanceMeters>
          </Trackpoint>
          <Trackpoint>
            <Time>2022-09-24T15:40:20.000Z</Time>
            <Position>
              <LatitudeDegrees>43.3367164246737957000732421875</LatitudeDegrees>
              <LongitudeDegrees>-2.8033313713967800140380859375</LongitudeDegrees>
            </Position>
            <AltitudeMeters>-12</AltitudeMeters>
            <DistanceMeters>NAN</DistanceMeters>
          </Trackpoint>
          <Trackpoint>
            <Time>2022-09-24T15:40:21.000Z</Time>
            <Position>
              <LatitudeDegrees>43.33677493035793304443359375</LatitudeDegrees>
              <LongitudeDegrees>-2.80342005193233489990234375</LongitudeDegrees>
            </Position>
            <AltitudeMeters>-12.3999996185302734375</AltitudeMeters>
            <DistanceMeters>NAN</DistanceMeters>
          </Trackpoint>
          <Trackpoint>
            <Time>2022-09-24T15:40:22.000Z</Time>
            <Position>
              <LatitudeDegrees>43.33683351986110210418701171875</LatitudeDegrees>
              <LongitudeDegrees>-2.80350898392498493194580078125</LongitudeDegrees>
            </Position>
            <AltitudeMeters>-13.19999980926513671875</AltitudeMeters>
            <DistanceMeters>NAN</DistanceMeters>
          </Trackpoint>
          <Trackpoint>
            <Time>2022-09-24T15:40:23.000Z</Time>
            <Position>
              <LatitudeDegrees>43.33689319901168346405029296875</LatitudeDegrees>
              <LongitudeDegrees>-2.80359917320311069488525390625</LongitudeDegrees>
            </Position>
            <AltitudeMeters>-13.6000003814697265625</AltitudeMeters>
            <DistanceMeters>NAN</DistanceMeters>
          </Trackpoint>
          <Trackpoint>
            <Time>2022-09-24T15:40:24.000Z</Time>
            <Position>
              <LatitudeDegrees>43.3369554765522480010986328125</LatitudeDegrees>
              <LongitudeDegrees>-2.8036897815763950347900390625</LongitudeDegrees>
            </Position>
            <AltitudeMeters>-14</AltitudeMeters>
            <DistanceMeters>NAN</DistanceMeters>
          </Trackpoint>
          <Trackpoint>
            <Time>2022-09-24T15:40:25.000Z</Time>
            <Position>
              <LatitudeDegrees>43.33701909519731998443603515625</LatitudeDegrees>
              <LongitudeDegrees>-2.8037796355783939361572265625</LongitudeDegrees>
            </Position>
            <AltitudeMeters>-14.3999996185302734375</AltitudeMeters>
            <DistanceMeters>NAN</DistanceMeters>
          </Trackpoint>
          <Trackpoint>
            <Time>2022-09-24T15:40:26.000Z</Time>
            <Position>
              <LatitudeDegrees>43.3370828814804553985595703125</LatitudeDegrees>
              <LongitudeDegrees>-2.80387024395167827606201171875</LongitudeDegrees>
            </Position>
            <AltitudeMeters>-15.6000003814697265625</AltitudeMeters>
            <DistanceMeters>NAN</DistanceMeters>
          </Trackpoint>
          <Trackpoint>
            <Time>2022-09-24T15:40:27.000Z</Time>
            <Position>
              <LatitudeDegrees>43.33714775741100311279296875</LatitudeDegrees>
              <LongitudeDegrees>-2.8039590083062648773193359375</LongitudeDegrees>
            </Position>
            <AltitudeMeters>-15.80000019073486328125</AltitudeMeters>
            <DistanceMeters>NAN</DistanceMeters>
          </Trackpoint>
          <Trackpoint>
            <Time>2022-09-24T15:40:28.000Z</Time>
            <Position>
              <LatitudeDegrees>43.337225206196308135986328125</LatitudeDegrees>
              <LongitudeDegrees>-2.8040683083236217498779296875</LongitudeDegrees>
            </Position>
            <AltitudeMeters>-15.80000019073486328125</AltitudeMeters>
            <DistanceMeters>NAN</DistanceMeters>
          </Trackpoint>
          <Trackpoint>
            <Time>2022-09-24T15:40:29.000Z</Time>
            <Position>
              <LatitudeDegrees>43.3372780121862888336181640625</LatitudeDegrees>
              <LongitudeDegrees>-2.8041450865566730499267578125</LongitudeDegrees>
            </Position>
            <AltitudeMeters>-15.80000019073486328125</AltitudeMeters>
            <DistanceMeters>NAN</DistanceMeters>
          </Trackpoint>
          <Trackpoint>
            <Time>2022-09-24T15:40:30.000Z</Time>
            <Position>
              <LatitudeDegrees>43.337343223392963409423828125</LatitudeDegrees>
              <LongitudeDegrees>-2.8042413108050823211669921875</LongitudeDegrees>
            </Position>
            <AltitudeMeters>-15.80000019073486328125</AltitudeMeters>
            <DistanceMeters>NAN</DistanceMeters>
          </Trackpoint>
          <Trackpoint>
            <Time>2022-09-24T15:40:31.000Z</Time>
            <Position>
              <LatitudeDegrees>43.33740927278995513916015625</LatitudeDegrees>
              <LongitudeDegrees>-2.80434063635766506195068359375</LongitudeDegrees>
            </Position>
            <AltitudeMeters>-15.80000019073486328125</AltitudeMeters>
            <DistanceMeters>NAN</DistanceMeters>
          </Trackpoint>
          <Trackpoint>
            <Time>2022-09-24T15:40:32.000Z</Time>
            <Position>
              <LatitudeDegrees>43.33747389726340770721435546875</LatitudeDegrees>
              <LongitudeDegrees>-2.80443887226283550262451171875</LongitudeDegrees>
            </Position>
            <AltitudeMeters>-15.80000019073486328125</AltitudeMeters>
            <DistanceMeters>NAN</DistanceMeters>
          </Trackpoint>
          <Trackpoint>
            <Time>2022-09-24T15:40:33.000Z</Time>
            <Position>
              <LatitudeDegrees>43.3375428803265094757080078125</LatitudeDegrees>
              <LongitudeDegrees>-2.80453744344413280487060546875</LongitudeDegrees>
            </Position>
            <AltitudeMeters>-16.200000762939453125</AltitudeMeters>
            <DistanceMeters>NAN</DistanceMeters>
          </Trackpoint>
          <Trackpoint>
            <Time>2022-09-24T15:40:34.000Z</Time>
            <Position>
              <LatitudeDegrees>43.33762426860630512237548828125</LatitudeDegrees>
              <LongitudeDegrees>-2.80465579591691493988037109375</LongitudeDegrees>
            </Position>
            <AltitudeMeters>-16.6000003814697265625</AltitudeMeters>
            <DistanceMeters>NAN</DistanceMeters>
          </Trackpoint>
          <Trackpoint>
            <Time>2022-09-24T15:40:35.000Z</Time>
            <Position>
              <LatitudeDegrees>43.33767623640596866607666015625</LatitudeDegrees>
              <LongitudeDegrees>-2.80473525635898113250732421875</LongitudeDegrees>
            </Position>
            <AltitudeMeters>-16.799999237060546875</AltitudeMeters>
            <DistanceMeters>NAN</DistanceMeters>
          </Trackpoint>
          <Trackpoint>
            <Time>2022-09-24T15:40:36.000Z</Time>
            <Position>
              <LatitudeDegrees>43.3377393521368503570556640625</LatitudeDegrees>
              <LongitudeDegrees>-2.8048324026167392730712890625</LongitudeDegrees>
            </Position>
            <AltitudeMeters>-16.799999237060546875</AltitudeMeters>
            <DistanceMeters>NAN</DistanceMeters>
          </Trackpoint>
          <Trackpoint>
            <Time>2022-09-24T15:40:37.000Z</Time>
            <Position>
              <LatitudeDegrees>43.337816633284091949462890625</LatitudeDegrees>
              <LongitudeDegrees>-2.80494891107082366943359375</LongitudeDegrees>
            </Position>
            <AltitudeMeters>-16.799999237060546875</AltitudeMeters>
            <DistanceMeters>NAN</DistanceMeters>
          </Trackpoint>
          <Trackpoint>
            <Time>2022-09-24T15:40:38.000Z</Time>
            <Position>
              <LatitudeDegrees>43.3378670923411846160888671875</LatitudeDegrees>
              <LongitudeDegrees>-2.80502459965646266937255859375</LongitudeDegrees>
            </Position>
            <AltitudeMeters>-16.6000003814697265625</AltitudeMeters>
            <DistanceMeters>NAN</DistanceMeters>
          </Trackpoint>
          <Trackpoint>
            <Time>2022-09-24T15:40:39.000Z</Time>
            <Position>
              <LatitudeDegrees>43.3379318006336688995361328125</LatitudeDegrees>
              <LongitudeDegrees>-2.80511797405779361724853515625</LongitudeDegrees>
            </Position>
            <AltitudeMeters>-17.200000762939453125</AltitudeMeters>
            <DistanceMeters>NAN</DistanceMeters>
          </Trackpoint>
          <Trackpoint>
            <Time>2022-09-24T15:40:40.000Z</Time>
            <Position>
              <LatitudeDegrees>43.33799374289810657501220703125</LatitudeDegrees>
              <LongitudeDegrees>-2.8052115999162197113037109375</LongitudeDegrees>
            </Position>
            <AltitudeMeters>-17.200000762939453125</AltitudeMeters>
            <DistanceMeters>NAN</DistanceMeters>
          </Trackpoint>
          <Trackpoint>
            <Time>2022-09-24T15:40:41.000Z</Time>
            <Position>
              <LatitudeDegrees>43.33805727772414684295654296875</LatitudeDegrees>
              <LongitudeDegrees>-2.80530153773725032806396484375</LongitudeDegrees>
            </Position>
            <AltitudeMeters>-17.6000003814697265625</AltitudeMeters>
            <DistanceMeters>NAN</DistanceMeters>
          </Trackpoint>
          <Trackpoint>
            <Time>2022-09-24T15:40:42.000Z</Time>
            <Position>
              <LatitudeDegrees>43.3381215669214725494384765625</LatitudeDegrees>
              <LongitudeDegrees>-2.80539474450051784515380859375</LongitudeDegrees>
            </Position>
            <AltitudeMeters>-17.6000003814697265625</AltitudeMeters>
            <DistanceMeters>NAN</DistanceMeters>
          </Trackpoint>
          <Trackpoint>
            <Time>2022-09-24T15:40:43.000Z</Time>
            <Position>
              <LatitudeDegrees>43.33819792605936527252197265625</LatitudeDegrees>
              <LongitudeDegrees>-2.80550287105143070220947265625</LongitudeDegrees>
            </Position>
            <AltitudeMeters>-17.6000003814697265625</AltitudeMeters>
            <DistanceMeters>NAN</DistanceMeters>
          </Trackpoint>
          <Trackpoint>
            <Time>2022-09-24T15:40:44.000Z</Time>
            <Position>
              <LatitudeDegrees>43.33825207315385341644287109375</LatitudeDegrees>
              <LongitudeDegrees>-2.805575542151927947998046875</LongitudeDegrees>
            </Position>
            <AltitudeMeters>-17.6000003814697265625</AltitudeMeters>
            <DistanceMeters>NAN</DistanceMeters>
          </Trackpoint>
          <Trackpoint>
            <Time>2022-09-24T15:40:45.000Z</Time>
            <Position>
              <LatitudeDegrees>43.338317535817623138427734375</LatitudeDegrees>
              <LongitudeDegrees>-2.8056658990681171417236328125</LongitudeDegrees>
            </Position>
            <AltitudeMeters>-17.6000003814697265625</AltitudeMeters>
            <DistanceMeters>NAN</DistanceMeters>
          </Trackpoint>
          <Trackpoint>
            <Time>2022-09-24T15:40:46.000Z</Time>
            <Position>
              <LatitudeDegrees>43.3383968286216259002685546875</LatitudeDegrees>
              <LongitudeDegrees>-2.80577637255191802978515625</LongitudeDegrees>
            </Position>
            <AltitudeMeters>-17.6000003814697265625</AltitudeMeters>
            <DistanceMeters>NAN</DistanceMeters>
          </Trackpoint>
          <Trackpoint>
            <Time>2022-09-24T15:40:47.000Z</Time>
            <Position>
              <LatitudeDegrees>43.33844837732613086700439453125</LatitudeDegrees>
              <LongitudeDegrees>-2.8058509714901447296142578125</LongitudeDegrees>
            </Position>
            <AltitudeMeters>-17.6000003814697265625</AltitudeMeters>
            <DistanceMeters>NAN</DistanceMeters>
          </Trackpoint>
          <Trackpoint>
            <Time>2022-09-24T15:40:48.000Z</Time>
            <Position>
              <LatitudeDegrees>43.3385124988853931427001953125</LatitudeDegrees>
              <LongitudeDegrees>-2.80594074167311191558837890625</LongitudeDegrees>
            </Position>
            <AltitudeMeters>-17.6000003814697265625</AltitudeMeters>
            <DistanceMeters>NAN</DistanceMeters>
          </Trackpoint>
          <Trackpoint>
            <Time>2022-09-24T15:40:49.000Z</Time>
            <Position>
              <LatitudeDegrees>43.33857603371143341064453125</LatitudeDegrees>
              <LongitudeDegrees>-2.8060320205986499786376953125</LongitudeDegrees>
            </Position>
            <AltitudeMeters>-17.6000003814697265625</AltitudeMeters>
            <DistanceMeters>NAN</DistanceMeters>
          </Trackpoint>
          <Trackpoint>
            <Time>2022-09-24T15:40:50.000Z</Time>
            <Position>
              <LatitudeDegrees>43.33865155465900897979736328125</LatitudeDegrees>
              <LongitudeDegrees>-2.80614593066275119781494140625</LongitudeDegrees>
            </Position>
            <AltitudeMeters>-18.6000003814697265625</AltitudeMeters>
            <DistanceMeters>NAN</DistanceMeters>
          </Trackpoint>
          <Trackpoint>
            <Time>2022-09-24T15:40:51.000Z</Time>
            <Position>
              <LatitudeDegrees>43.33870184607803821563720703125</LatitudeDegrees>
              <LongitudeDegrees>-2.80622136779129505157470703125</LongitudeDegrees>
            </Position>
            <AltitudeMeters>-18.6000003814697265625</AltitudeMeters>
            <DistanceMeters>NAN</DistanceMeters>
          </Trackpoint>
          <Trackpoint>
            <Time>2022-09-24T15:40:52.000Z</Time>
            <Position>
              <LatitudeDegrees>43.33877778612077236175537109375</LatitudeDegrees>
              <LongitudeDegrees>-2.8063310869038105010986328125</LongitudeDegrees>
            </Position>
            <AltitudeMeters>-18.799999237060546875</AltitudeMeters>
            <DistanceMeters>NAN</DistanceMeters>
          </Trackpoint>
          <Trackpoint>
            <Time>2022-09-24T15:40:53.000Z</Time>
            <Position>
              <LatitudeDegrees>43.33883059211075305938720703125</LatitudeDegrees>
              <LongitudeDegrees>-2.80640090815722942352294921875</LongitudeDegrees>
            </Position>
            <AltitudeMeters>-19</AltitudeMeters>
            <DistanceMeters>NAN</DistanceMeters>
          </Trackpoint>
          <Trackpoint>
            <Time>2022-09-24T15:40:54.000Z</Time>
            <Position>
              <LatitudeDegrees>43.33889412693679332733154296875</LatitudeDegrees>
              <LongitudeDegrees>-2.8064900077879428863525390625</LongitudeDegrees>
            </Position>
            <AltitudeMeters>-19</AltitudeMeters>
            <DistanceMeters>NAN</DistanceMeters>
          </Trackpoint>
          <Trackpoint>
            <Time>2022-09-24T15:40:55.000Z</Time>
            <Position>
              <LatitudeDegrees>43.33895766176283359527587890625</LatitudeDegrees>
              <LongitudeDegrees>-2.806581370532512664794921875</LongitudeDegrees>
            </Position>
            <AltitudeMeters>-18.6000003814697265625</AltitudeMeters>
            <DistanceMeters>NAN</DistanceMeters>
          </Trackpoint>
          <Trackpoint>
            <Time>2022-09-24T15:40:56.000Z</Time>
            <Position>
              <LatitudeDegrees>43.339020274579524993896484375</LatitudeDegrees>
              <LongitudeDegrees>-2.806675247848033905029296875</LongitudeDegrees>
            </Position>
            <AltitudeMeters>-18.3999996185302734375</AltitudeMeters>
            <DistanceMeters>NAN</DistanceMeters>
          </Trackpoint>
          <Trackpoint>
            <Time>2022-09-24T15:40:57.000Z</Time>
            <Position>
              <LatitudeDegrees>43.3390861563384532928466796875</LatitudeDegrees>
              <LongitudeDegrees>-2.80676971189677715301513671875</LongitudeDegrees>
            </Position>
            <AltitudeMeters>-18</AltitudeMeters>
            <DistanceMeters>NAN</DistanceMeters>
          </Trackpoint>
          <Trackpoint>
            <Time>2022-09-24T15:40:58.000Z</Time>
            <Position>
              <LatitudeDegrees>43.33915078081190586090087890625</LatitudeDegrees>
              <LongitudeDegrees>-2.80686191283166408538818359375</LongitudeDegrees>
            </Position>
            <AltitudeMeters>-17.3999996185302734375</AltitudeMeters>
            <DistanceMeters>NAN</DistanceMeters>
          </Trackpoint>
          <Trackpoint>
            <Time>2022-09-24T15:40:59.000Z</Time>
            <Position>
              <LatitudeDegrees>43.3392149023711681365966796875</LatitudeDegrees>
              <LongitudeDegrees>-2.806953527033329010009765625</LongitudeDegrees>
            </Position>
            <AltitudeMeters>-17.3999996185302734375</AltitudeMeters>
            <DistanceMeters>NAN</DistanceMeters>
          </Trackpoint>
          <Trackpoint>
            <Time>2022-09-24T15:41:00.000Z</Time>
            <Position>
              <LatitudeDegrees>43.33927785046398639678955078125</LatitudeDegrees>
              <LongitudeDegrees>-2.80704614706337451934814453125</LongitudeDegrees>
            </Position>
            <AltitudeMeters>-17.3999996185302734375</AltitudeMeters>
            <DistanceMeters>NAN</DistanceMeters>
          </Trackpoint>
          <Trackpoint>
            <Time>2022-09-24T15:41:01.000Z</Time>
            <Position>
              <LatitudeDegrees>43.3393520303070545196533203125</LatitudeDegrees>
              <LongitudeDegrees>-2.80715678818523883819580078125</LongitudeDegrees>
            </Position>
            <AltitudeMeters>-17.3999996185302734375</AltitudeMeters>
            <DistanceMeters>NAN</DistanceMeters>
          </Trackpoint>
          <Trackpoint>
            <Time>2022-09-24T15:41:02.000Z</Time>
            <Position>
              <LatitudeDegrees>43.3394147269427776336669921875</LatitudeDegrees>
              <LongitudeDegrees>-2.80724748037755489349365234375</LongitudeDegrees>
            </Position>
            <AltitudeMeters>-17.3999996185302734375</AltitudeMeters>
            <DistanceMeters>NAN</DistanceMeters>
          </Trackpoint>
          <Trackpoint>
            <Time>2022-09-24T15:41:03.000Z</Time>
            <Position>
              <LatitudeDegrees>43.33946384489536285400390625</LatitudeDegrees>
              <LongitudeDegrees>-2.80731855891644954681396484375</LongitudeDegrees>
            </Position>
            <AltitudeMeters>-18.3999996185302734375</AltitudeMeters>
            <DistanceMeters>NAN</DistanceMeters>
          </Trackpoint>
          <Trackpoint>
            <Time>2022-09-24T15:41:04.000Z</Time>
            <Position>
              <LatitudeDegrees>43.3395377732813358306884765625</LatitudeDegrees>
              <LongitudeDegrees>-2.8074212372303009033203125</LongitudeDegrees>
            </Position>
            <AltitudeMeters>-18.3999996185302734375</AltitudeMeters>
            <DistanceMeters>NAN</DistanceMeters>
          </Trackpoint>
          <Trackpoint>
            <Time>2022-09-24T15:41:05.000Z</Time>
            <Position>
              <LatitudeDegrees>43.33959795534610748291015625</LatitudeDegrees>
              <LongitudeDegrees>-2.80750983394682407379150390625</LongitudeDegrees>
            </Position>
            <AltitudeMeters>-18.3999996185302734375</AltitudeMeters>
            <DistanceMeters>NAN</DistanceMeters>
          </Trackpoint>
          <Trackpoint>
            <Time>2022-09-24T15:41:06.000Z</Time>
            <Position>
              <LatitudeDegrees>43.33964581601321697235107421875</LatitudeDegrees>
              <LongitudeDegrees>-2.80757890082895755767822265625</LongitudeDegrees>
            </Position>
            <AltitudeMeters>-18.3999996185302734375</AltitudeMeters>
            <DistanceMeters>NAN</DistanceMeters>
          </Trackpoint>
          <Trackpoint>
            <Time>2022-09-24T15:41:07.000Z</Time>
            <Position>
              <LatitudeDegrees>43.33970717154443264007568359375</LatitudeDegrees>
              <LongitudeDegrees>-2.807664312422275543212890625</LongitudeDegrees>
            </Position>
            <AltitudeMeters>-18</AltitudeMeters>
            <DistanceMeters>NAN</DistanceMeters>
          </Trackpoint>
          <Trackpoint>
            <Time>2022-09-24T15:41:08.000Z</Time>
            <Position>
              <LatitudeDegrees>43.3397702872753143310546875</LatitudeDegrees>
              <LongitudeDegrees>-2.80774779617786407470703125</LongitudeDegrees>
            </Position>
            <AltitudeMeters>-18</AltitudeMeters>
            <DistanceMeters>NAN</DistanceMeters>
          </Trackpoint>
          <Trackpoint>
            <Time>2022-09-24T15:41:09.000Z</Time>
            <Position>
              <LatitudeDegrees>43.3398292958736419677734375</LatitudeDegrees>
              <LongitudeDegrees>-2.80783094465732574462890625</LongitudeDegrees>
            </Position>
            <AltitudeMeters>-17.6000003814697265625</AltitudeMeters>
            <DistanceMeters>NAN</DistanceMeters>
          </Trackpoint>
          <Trackpoint>
            <Time>2022-09-24T15:41:10.000Z</Time>
            <Position>
              <LatitudeDegrees>43.339897692203521728515625</LatitudeDegrees>
              <LongitudeDegrees>-2.80792909674346446990966796875</LongitudeDegrees>
            </Position>
            <AltitudeMeters>-17.200000762939453125</AltitudeMeters>
            <DistanceMeters>NAN</DistanceMeters>
          </Trackpoint>
          <Trackpoint>
            <Time>2022-09-24T15:41:11.000Z</Time>
            <Position>
              <LatitudeDegrees>43.33994220010936260223388671875</LatitudeDegrees>
              <LongitudeDegrees>-2.807996571063995361328125</LongitudeDegrees>
            </Position>
            <AltitudeMeters>-17.200000762939453125</AltitudeMeters>
            <DistanceMeters>NAN</DistanceMeters>
          </Trackpoint>
          <Trackpoint>
            <Time>2022-09-24T15:41:12.000Z</Time>
            <Position>
              <LatitudeDegrees>43.33999517373740673065185546875</LatitudeDegrees>
              <LongitudeDegrees>-2.80807779170572757720947265625</LongitudeDegrees>
            </Position>
            <AltitudeMeters>-17</AltitudeMeters>
            <DistanceMeters>NAN</DistanceMeters>
          </Trackpoint>
          <Trackpoint>
            <Time>2022-09-24T15:41:13.000Z</Time>
            <Position>
              <LatitudeDegrees>43.34005988202989101409912109375</LatitudeDegrees>
              <LongitudeDegrees>-2.8081787936389446258544921875</LongitudeDegrees>
            </Position>
            <AltitudeMeters>-17</AltitudeMeters>
            <DistanceMeters>NAN</DistanceMeters>
          </Trackpoint>
          <Trackpoint>
            <Time>2022-09-24T15:41:14.000Z</Time>
            <Position>
              <LatitudeDegrees>43.34011184982955455780029296875</LatitudeDegrees>
              <LongitudeDegrees>-2.8082642890512943267822265625</LongitudeDegrees>
            </Position>
            <AltitudeMeters>-16.799999237060546875</AltitudeMeters>
            <DistanceMeters>NAN</DistanceMeters>
          </Trackpoint>
          <Trackpoint>
            <Time>2022-09-24T15:41:15.000Z</Time>
            <Position>
              <LatitudeDegrees>43.34015158005058765411376953125</LatitudeDegrees>
              <LongitudeDegrees>-2.80833159573376178741455078125</LongitudeDegrees>
            </Position>
            <AltitudeMeters>-16</AltitudeMeters>
            <DistanceMeters>NAN</DistanceMeters>
          </Trackpoint>
          <Trackpoint>
            <Time>2022-09-24T15:41:16.000Z</Time>
            <Position>
              <LatitudeDegrees>43.3402002789080142974853515625</LatitudeDegrees>
              <LongitudeDegrees>-2.80841256491839885711669921875</LongitudeDegrees>
            </Position>
            <AltitudeMeters>-15.6000003814697265625</AltitudeMeters>
            <DistanceMeters>NAN</DistanceMeters>
          </Trackpoint>
          <Trackpoint>
            <Time>2022-09-24T15:41:17.000Z</Time>
            <Position>
              <LatitudeDegrees>43.34025165997445583343505859375</LatitudeDegrees>
              <LongitudeDegrees>-2.80849336646497249603271484375</LongitudeDegrees>
            </Position>
            <AltitudeMeters>-15.6000003814697265625</AltitudeMeters>
            <DistanceMeters>NAN</DistanceMeters>
          </Trackpoint>
          <Trackpoint>
            <Time>2022-09-24T15:41:18.000Z</Time>
            <Position>
              <LatitudeDegrees>43.340304382145404815673828125</LatitudeDegrees>
              <LongitudeDegrees>-2.8085771016776561737060546875</LongitudeDegrees>
            </Position>
            <AltitudeMeters>-15.19999980926513671875</AltitudeMeters>
            <DistanceMeters>NAN</DistanceMeters>
          </Trackpoint>
          <Trackpoint>
            <Time>2022-09-24T15:41:19.000Z</Time>
            <Position>
              <LatitudeDegrees>43.340364731848239898681640625</LatitudeDegrees>
              <LongitudeDegrees>-2.8086818754673004150390625</LongitudeDegrees>
            </Position>
            <AltitudeMeters>-15</AltitudeMeters>
            <DistanceMeters>NAN</DistanceMeters>
          </Trackpoint>
          <Trackpoint>
            <Time>2022-09-24T15:41:20.000Z</Time>
            <Position>
              <LatitudeDegrees>43.3404121734201908111572265625</LatitudeDegrees>
              <LongitudeDegrees>-2.80877248384058475494384765625</LongitudeDegrees>
            </Position>
            <AltitudeMeters>-15.19999980926513671875</AltitudeMeters>
            <DistanceMeters>NAN</DistanceMeters>
          </Trackpoint>
          <Trackpoint>
            <Time>2022-09-24T15:41:21.000Z</Time>
            <Position>
              <LatitudeDegrees>43.3404473774135112762451171875</LatitudeDegrees>
              <LongitudeDegrees>-2.80884875915944576263427734375</LongitudeDegrees>
            </Position>
            <AltitudeMeters>-15.19999980926513671875</AltitudeMeters>
            <DistanceMeters>NAN</DistanceMeters>
          </Trackpoint>
          <Trackpoint>
            <Time>2022-09-24T15:41:22.000Z</Time>
            <Position>
              <LatitudeDegrees>43.3404943160712718963623046875</LatitudeDegrees>
              <LongitudeDegrees>-2.8089697100222110748291015625</LongitudeDegrees>
            </Position>
            <AltitudeMeters>-15.6000003814697265625</AltitudeMeters>
            <DistanceMeters>NAN</DistanceMeters>
          </Trackpoint>
          <Trackpoint>
            <Time>2022-09-24T15:41:23.000Z</Time>
            <Position>
              <LatitudeDegrees>43.3405201323330402374267578125</LatitudeDegrees>
              <LongitudeDegrees>-2.80905428342521190643310546875</LongitudeDegrees>
            </Position>
            <AltitudeMeters>-16</AltitudeMeters>
            <DistanceMeters>NAN</DistanceMeters>
          </Trackpoint>
          <Trackpoint>
            <Time>2022-09-24T15:41:24.000Z</Time>
            <Position>
              <LatitudeDegrees>43.3405479602515697479248046875</LatitudeDegrees>
              <LongitudeDegrees>-2.80915805138647556304931640625</LongitudeDegrees>
            </Position>
            <AltitudeMeters>-15.80000019073486328125</AltitudeMeters>
            <DistanceMeters>NAN</DistanceMeters>
          </Trackpoint>
          <Trackpoint>
            <Time>2022-09-24T15:41:25.000Z</Time>
            <Position>
              <LatitudeDegrees>43.34057159721851348876953125</LatitudeDegrees>
              <LongitudeDegrees>-2.809266261756420135498046875</LongitudeDegrees>
            </Position>
            <AltitudeMeters>-15.80000019073486328125</AltitudeMeters>
            <DistanceMeters>NAN</DistanceMeters>
          </Trackpoint>
          <Trackpoint>
            <Time>2022-09-24T15:41:26.000Z</Time>
            <Position>
              <LatitudeDegrees>43.34059196524322032928466796875</LatitudeDegrees>
              <LongitudeDegrees>-2.80937145464122295379638671875</LongitudeDegrees>
            </Position>
            <AltitudeMeters>-15.80000019073486328125</AltitudeMeters>
            <DistanceMeters>NAN</DistanceMeters>
          </Trackpoint>
          <Trackpoint>
            <Time>2022-09-24T15:41:27.000Z</Time>
            <Position>
              <LatitudeDegrees>43.340610153973102569580078125</LatitudeDegrees>
              <LongitudeDegrees>-2.809474803507328033447265625</LongitudeDegrees>
            </Position>
            <AltitudeMeters>-15.80000019073486328125</AltitudeMeters>
            <DistanceMeters>NAN</DistanceMeters>
          </Trackpoint>
          <Trackpoint>
            <Time>2022-09-24T15:41:28.000Z</Time>
            <Position>
              <LatitudeDegrees>43.3406264148652553558349609375</LatitudeDegrees>
              <LongitudeDegrees>-2.80957974493503570556640625</LongitudeDegrees>
            </Position>
            <AltitudeMeters>-15.80000019073486328125</AltitudeMeters>
            <DistanceMeters>NAN</DistanceMeters>
          </Trackpoint>
          <Trackpoint>
            <Time>2022-09-24T15:41:29.000Z</Time>
            <Position>
              <LatitudeDegrees>43.3406264148652553558349609375</LatitudeDegrees>
              <LongitudeDegrees>-2.80957974493503570556640625</LongitudeDegrees>
            </Position>
            <AltitudeMeters>-15.6000003814697265625</AltitudeMeters>
            <DistanceMeters>NAN</DistanceMeters>
          </Trackpoint>
          <Trackpoint>
            <Time>2022-09-24T15:41:30.000Z</Time>
            <Position>
              <LatitudeDegrees>43.340645693242549896240234375</LatitudeDegrees>
              <LongitudeDegrees>-2.8097881190478801727294921875</LongitudeDegrees>
            </Position>
            <AltitudeMeters>-14.80000019073486328125</AltitudeMeters>
            <DistanceMeters>NAN</DistanceMeters>
          </Trackpoint>
          <Trackpoint>
            <Time>2022-09-24T15:41:31.000Z</Time>
            <Position>
              <LatitudeDegrees>43.34064795635640621185302734375</LatitudeDegrees>
              <LongitudeDegrees>-2.80988819897174835205078125</LongitudeDegrees>
            </Position>
            <AltitudeMeters>-14.80000019073486328125</AltitudeMeters>
            <DistanceMeters>NAN</DistanceMeters>
          </Trackpoint>
          <Trackpoint>
            <Time>2022-09-24T15:41:32.000Z</Time>
            <Position>
              <LatitudeDegrees>43.34064795635640621185302734375</LatitudeDegrees>
              <LongitudeDegrees>-2.80988819897174835205078125</LongitudeDegrees>
            </Position>
            <AltitudeMeters>-14.3999996185302734375</AltitudeMeters>
            <DistanceMeters>NAN</DistanceMeters>
          </Trackpoint>
          <Trackpoint>
            <Time>2022-09-24T15:41:33.000Z</Time>
            <Position>
              <LatitudeDegrees>43.34065063856542110443115234375</LatitudeDegrees>
              <LongitudeDegrees>-2.8101133368909358978271484375</LongitudeDegrees>
            </Position>
            <AltitudeMeters>-14</AltitudeMeters>
            <DistanceMeters>NAN</DistanceMeters>
          </Trackpoint>
          <Trackpoint>
            <Time>2022-09-24T15:41:34.000Z</Time>
            <Position>
              <LatitudeDegrees>43.3406522311270236968994140625</LatitudeDegrees>
              <LongitudeDegrees>-2.8101907856762409210205078125</LongitudeDegrees>
            </Position>
            <AltitudeMeters>-13.80000019073486328125</AltitudeMeters>
            <DistanceMeters>NAN</DistanceMeters>
          </Trackpoint>
          <Trackpoint>
            <Time>2022-09-24T15:41:35.000Z</Time>
            <Position>
              <LatitudeDegrees>43.3406522311270236968994140625</LatitudeDegrees>
              <LongitudeDegrees>-2.8101907856762409210205078125</LongitudeDegrees>
            </Position>
            <AltitudeMeters>-13</AltitudeMeters>
            <DistanceMeters>NAN</DistanceMeters>
          </Trackpoint>
          <Trackpoint>
            <Time>2022-09-24T15:41:36.000Z</Time>
            <Position>
              <LatitudeDegrees>43.340654410421848297119140625</LatitudeDegrees>
              <LongitudeDegrees>-2.8103798814117908477783203125</LongitudeDegrees>
            </Position>
            <AltitudeMeters>-13</AltitudeMeters>
            <DistanceMeters>NAN</DistanceMeters>
          </Trackpoint>
          <Trackpoint>
            <Time>2022-09-24T15:41:37.000Z</Time>
            <Position>
              <LatitudeDegrees>43.3406565897166728973388671875</LatitudeDegrees>
              <LongitudeDegrees>-2.8104744292795658111572265625</LongitudeDegrees>
            </Position>
            <AltitudeMeters>-12.6000003814697265625</AltitudeMeters>
            <DistanceMeters>NAN</DistanceMeters>
          </Trackpoint>
          <Trackpoint>
            <Time>2022-09-24T15:41:38.000Z</Time>
            <Position>
              <LatitudeDegrees>43.34065969102084636688232421875</LatitudeDegrees>
              <LongitudeDegrees>-2.81058632768690586090087890625</LongitudeDegrees>
            </Position>
            <AltitudeMeters>-12.3999996185302734375</AltitudeMeters>
            <DistanceMeters>NAN</DistanceMeters>
          </Trackpoint>
          <Trackpoint>
            <Time>2022-09-24T15:41:39.000Z</Time>
            <Position>
              <LatitudeDegrees>43.34066187031567096710205078125</LatitudeDegrees>
              <LongitudeDegrees>-2.81065992079675197601318359375</LongitudeDegrees>
            </Position>
            <AltitudeMeters>-12.19999980926513671875</AltitudeMeters>
            <DistanceMeters>NAN</DistanceMeters>
          </Trackpoint>
          <Trackpoint>
            <Time>2022-09-24T15:41:40.000Z</Time>
            <Position>
              <LatitudeDegrees>43.34066522307693958282470703125</LatitudeDegrees>
              <LongitudeDegrees>-2.81075052917003631591796875</LongitudeDegrees>
            </Position>
            <AltitudeMeters>-12.19999980926513671875</AltitudeMeters>
            <DistanceMeters>NAN</DistanceMeters>
          </Trackpoint>
          <Trackpoint>
            <Time>2022-09-24T15:41:41.000Z</Time>
            <Position>
              <LatitudeDegrees>43.3406723476946353912353515625</LatitudeDegrees>
              <LongitudeDegrees>-2.81085873953998088836669921875</LongitudeDegrees>
            </Position>
            <AltitudeMeters>-12.19999980926513671875</AltitudeMeters>
            <DistanceMeters>NAN</DistanceMeters>
          </Trackpoint>
          <Trackpoint>
            <Time>2022-09-24T15:41:42.000Z</Time>
            <Position>
              <LatitudeDegrees>43.34068022668361663818359375</LatitudeDegrees>
              <LongitudeDegrees>-2.81094691716134548187255859375</LongitudeDegrees>
            </Position>
            <AltitudeMeters>-12.19999980926513671875</AltitudeMeters>
            <DistanceMeters>NAN</DistanceMeters>
          </Trackpoint>
          <Trackpoint>
            <Time>2022-09-24T15:41:43.000Z</Time>
            <Position>
              <LatitudeDegrees>43.34068735130131244659423828125</LatitudeDegrees>
              <LongitudeDegrees>-2.81101598404347896575927734375</LongitudeDegrees>
            </Position>
            <AltitudeMeters>-12</AltitudeMeters>
            <DistanceMeters>NAN</DistanceMeters>
          </Trackpoint>
          <Trackpoint>
            <Time>2022-09-24T15:41:44.000Z</Time>
            <Position>
              <LatitudeDegrees>43.34070059470832347869873046875</LatitudeDegrees>
              <LongitudeDegrees>-2.81109913252294063568115234375</LongitudeDegrees>
            </Position>
            <AltitudeMeters>-11.80000019073486328125</AltitudeMeters>
            <DistanceMeters>NAN</DistanceMeters>
          </Trackpoint>
          <Trackpoint>
            <Time>2022-09-24T15:41:45.000Z</Time>
            <Position>
              <LatitudeDegrees>43.34072054363787174224853515625</LatitudeDegrees>
              <LongitudeDegrees>-2.811195440590381622314453125</LongitudeDegrees>
            </Position>
            <AltitudeMeters>-11.6000003814697265625</AltitudeMeters>
            <DistanceMeters>NAN</DistanceMeters>
          </Trackpoint>
          <Trackpoint>
            <Time>2022-09-24T15:41:46.000Z</Time>
            <Position>
              <LatitudeDegrees>43.34073697216808795928955078125</LatitudeDegrees>
              <LongitudeDegrees>-2.81125671230256557464599609375</LongitudeDegrees>
            </Position>
            <AltitudeMeters>-11.19999980926513671875</AltitudeMeters>
            <DistanceMeters>NAN</DistanceMeters>
          </Trackpoint>
          <Trackpoint>
            <Time>2022-09-24T15:41:47.000Z</Time>
            <Position>
              <LatitudeDegrees>43.34075725637376308441162109375</LatitudeDegrees>
              <LongitudeDegrees>-2.8113330714404582977294921875</LongitudeDegrees>
            </Position>
            <AltitudeMeters>-10.80000019073486328125</AltitudeMeters>
            <DistanceMeters>NAN</DistanceMeters>
          </Trackpoint>
          <Trackpoint>
            <Time>2022-09-24T15:41:48.000Z</Time>
            <Position>
              <LatitudeDegrees>43.34078139625489711761474609375</LatitudeDegrees>
              <LongitudeDegrees>-2.81140767037868499755859375</LongitudeDegrees>
            </Position>
            <AltitudeMeters>-10.80000019073486328125</AltitudeMeters>
            <DistanceMeters>NAN</DistanceMeters>
          </Trackpoint>
          <Trackpoint>
            <Time>2022-09-24T15:41:49.000Z</Time>
            <Position>
              <LatitudeDegrees>43.3408024348318576812744140625</LatitudeDegrees>
              <LongitudeDegrees>-2.8114832751452922821044921875</LongitudeDegrees>
            </Position>
            <AltitudeMeters>-10.80000019073486328125</AltitudeMeters>
            <DistanceMeters>NAN</DistanceMeters>
          </Trackpoint>
          <Trackpoint>
            <Time>2022-09-24T15:41:50.000Z</Time>
            <Position>
              <LatitudeDegrees>43.34082716144621372222900390625</LatitudeDegrees>
              <LongitudeDegrees>-2.81155728735029697418212890625</LongitudeDegrees>
            </Position>
            <AltitudeMeters>-10.6000003814697265625</AltitudeMeters>
            <DistanceMeters>NAN</DistanceMeters>
          </Trackpoint>
          <Trackpoint>
            <Time>2022-09-24T15:41:51.000Z</Time>
            <Position>
              <LatitudeDegrees>43.3408544026315212249755859375</LatitudeDegrees>
              <LongitudeDegrees>-2.811627276241779327392578125</LongitudeDegrees>
            </Position>
            <AltitudeMeters>-10.19999980926513671875</AltitudeMeters>
            <DistanceMeters>NAN</DistanceMeters>
          </Trackpoint>
          <Trackpoint>
            <Time>2022-09-24T15:41:52.000Z</Time>
            <Position>
              <LatitudeDegrees>43.34088868461549282073974609375</LatitudeDegrees>
              <LongitudeDegrees>-2.81169659458100795745849609375</LongitudeDegrees>
            </Position>
            <AltitudeMeters>-10</AltitudeMeters>
            <DistanceMeters>NAN</DistanceMeters>
          </Trackpoint>
          <Trackpoint>
            <Time>2022-09-24T15:41:53.000Z</Time>
            <Position>
              <LatitudeDegrees>43.34092573262751102447509765625</LatitudeDegrees>
              <LongitudeDegrees>-2.8117632307112216949462890625</LongitudeDegrees>
            </Position>
            <AltitudeMeters>-10</AltitudeMeters>
            <DistanceMeters>NAN</DistanceMeters>
          </Trackpoint>
          <Trackpoint>
            <Time>2022-09-24T15:41:54.000Z</Time>
            <Position>
              <LatitudeDegrees>43.34096512757241725921630859375</LatitudeDegrees>
              <LongitudeDegrees>-2.8118286095559597015380859375</LongitudeDegrees>
            </Position>
            <AltitudeMeters>-10.19999980926513671875</AltitudeMeters>
            <DistanceMeters>NAN</DistanceMeters>
          </Trackpoint>
          <Trackpoint>
            <Time>2022-09-24T15:41:55.000Z</Time>
            <Position>
              <LatitudeDegrees>43.3410062827169895172119140625</LatitudeDegrees>
              <LongitudeDegrees>-2.81188921071588993072509765625</LongitudeDegrees>
            </Position>
            <AltitudeMeters>-10</AltitudeMeters>
            <DistanceMeters>NAN</DistanceMeters>
          </Trackpoint>
          <Trackpoint>
            <Time>2022-09-24T15:41:56.000Z</Time>
            <Position>
              <LatitudeDegrees>43.34104844368994235992431640625</LatitudeDegrees>
              <LongitudeDegrees>-2.811950482428073883056640625</LongitudeDegrees>
            </Position>
            <AltitudeMeters>-10</AltitudeMeters>
            <DistanceMeters>NAN</DistanceMeters>
          </Trackpoint>
          <Trackpoint>
            <Time>2022-09-24T15:41:57.000Z</Time>
            <Position>
              <LatitudeDegrees>43.341093622148036956787109375</LatitudeDegrees>
              <LongitudeDegrees>-2.81200856901705265045166015625</LongitudeDegrees>
            </Position>
            <AltitudeMeters>-10.19999980926513671875</AltitudeMeters>
            <DistanceMeters>NAN</DistanceMeters>
          </Trackpoint>
          <Trackpoint>
            <Time>2022-09-24T15:41:58.000Z</Time>
            <Position>
              <LatitudeDegrees>43.34114165045320987701416015625</LatitudeDegrees>
              <LongitudeDegrees>-2.81206523068249225616455078125</LongitudeDegrees>
            </Position>
            <AltitudeMeters>-10.3999996185302734375</AltitudeMeters>
            <DistanceMeters>NAN</DistanceMeters>
          </Trackpoint>
          <Trackpoint>
            <Time>2022-09-24T15:41:59.000Z</Time>
            <Position>
              <LatitudeDegrees>43.34119093604385852813720703125</LatitudeDegrees>
              <LongitudeDegrees>-2.81212021596729755401611328125</LongitudeDegrees>
            </Position>
            <AltitudeMeters>-10.3999996185302734375</AltitudeMeters>
            <DistanceMeters>NAN</DistanceMeters>
          </Trackpoint>
          <Trackpoint>
            <Time>2022-09-24T15:42:00.000Z</Time>
            <Position>
              <LatitudeDegrees>43.34119093604385852813720703125</LatitudeDegrees>
              <LongitudeDegrees>-2.81212021596729755401611328125</LongitudeDegrees>
            </Position>
            <AltitudeMeters>-10.3999996185302734375</AltitudeMeters>
            <DistanceMeters>NAN</DistanceMeters>
          </Trackpoint>
          <Trackpoint>
            <Time>2022-09-24T15:42:01.000Z</Time>
            <Position>
              <LatitudeDegrees>43.34129570983350276947021484375</LatitudeDegrees>
              <LongitudeDegrees>-2.812220714986324310302734375</LongitudeDegrees>
            </Position>
            <AltitudeMeters>-10.3999996185302734375</AltitudeMeters>
            <DistanceMeters>NAN</DistanceMeters>
          </Trackpoint>
          <Trackpoint>
            <Time>2022-09-24T15:42:02.000Z</Time>
            <Position>
              <LatitudeDegrees>43.34135220386087894439697265625</LatitudeDegrees>
              <LongitudeDegrees>-2.81226790510118007659912109375</LongitudeDegrees>
            </Position>
            <AltitudeMeters>-10.3999996185302734375</AltitudeMeters>
            <DistanceMeters>NAN</DistanceMeters>
          </Trackpoint>
          <Trackpoint>
            <Time>2022-09-24T15:42:03.000Z</Time>
            <Position>
              <LatitudeDegrees>43.34135220386087894439697265625</LatitudeDegrees>
              <LongitudeDegrees>-2.81226790510118007659912109375</LongitudeDegrees>
            </Position>
            <AltitudeMeters>-10.3999996185302734375</AltitudeMeters>
            <DistanceMeters>NAN</DistanceMeters>
          </Trackpoint>
          <Trackpoint>
            <Time>2022-09-24T15:42:04.000Z</Time>
            <Position>
              <LatitudeDegrees>43.34147223271429538726806640625</LatitudeDegrees>
              <LongitudeDegrees>-2.8123590163886547088623046875</LongitudeDegrees>
            </Position>
            <AltitudeMeters>-10.80000019073486328125</AltitudeMeters>
            <DistanceMeters>NAN</DistanceMeters>
          </Trackpoint>
          <Trackpoint>
            <Time>2022-09-24T15:42:05.000Z</Time>
            <Position>
              <LatitudeDegrees>43.3415360189974308013916015625</LatitudeDegrees>
              <LongitudeDegrees>-2.812397740781307220458984375</LongitudeDegrees>
            </Position>
            <AltitudeMeters>-10.80000019073486328125</AltitudeMeters>
            <DistanceMeters>NAN</DistanceMeters>
          </Trackpoint>
          <Trackpoint>
            <Time>2022-09-24T15:42:06.000Z</Time>
            <Position>
              <LatitudeDegrees>43.34160416387021541595458984375</LatitudeDegrees>
              <LongitudeDegrees>-2.8124311007559299468994140625</LongitudeDegrees>
            </Position>
            <AltitudeMeters>-10.80000019073486328125</AltitudeMeters>
            <DistanceMeters>NAN</DistanceMeters>
          </Trackpoint>
          <Trackpoint>
            <Time>2022-09-24T15:42:07.000Z</Time>
            <Position>
              <LatitudeDegrees>43.341674990952014923095703125</LatitudeDegrees>
              <LongitudeDegrees>-2.81246311962604522705078125</LongitudeDegrees>
            </Position>
            <AltitudeMeters>-11.19999980926513671875</AltitudeMeters>
            <DistanceMeters>NAN</DistanceMeters>
          </Trackpoint>
          <Trackpoint>
            <Time>2022-09-24T15:42:08.000Z</Time>
            <Position>
              <LatitudeDegrees>43.34174648858606815338134765625</LatitudeDegrees>
              <LongitudeDegrees>-2.81249522231519222259521484375</LongitudeDegrees>
            </Position>
            <AltitudeMeters>-11.19999980926513671875</AltitudeMeters>
            <DistanceMeters>NAN</DistanceMeters>
          </Trackpoint>
          <Trackpoint>
            <Time>2022-09-24T15:42:09.000Z</Time>
            <Position>
              <LatitudeDegrees>43.341819159686565399169921875</LatitudeDegrees>
              <LongitudeDegrees>-2.8125286661088466644287109375</LongitudeDegrees>
            </Position>
            <AltitudeMeters>-11.6000003814697265625</AltitudeMeters>
            <DistanceMeters>NAN</DistanceMeters>
          </Trackpoint>
          <Trackpoint>
            <Time>2022-09-24T15:42:10.000Z</Time>
            <Position>
              <LatitudeDegrees>43.341893255710601806640625</LatitudeDegrees>
              <LongitudeDegrees>-2.81256563030183315277099609375</LongitudeDegrees>
            </Position>
            <AltitudeMeters>-11.6000003814697265625</AltitudeMeters>
            <DistanceMeters>NAN</DistanceMeters>
          </Trackpoint>
          <Trackpoint>
            <Time>2022-09-24T15:42:11.000Z</Time>
            <Position>
              <LatitudeDegrees>43.34196894429624080657958984375</LatitudeDegrees>
              <LongitudeDegrees>-2.8126059472560882568359375</LongitudeDegrees>
            </Position>
            <AltitudeMeters>-11.80000019073486328125</AltitudeMeters>
            <DistanceMeters>NAN</DistanceMeters>
          </Trackpoint>
          <Trackpoint>
            <Time>2022-09-24T15:42:12.000Z</Time>
            <Position>
              <LatitudeDegrees>43.34204538725316524505615234375</LatitudeDegrees>
              <LongitudeDegrees>-2.8126463480293750762939453125</LongitudeDegrees>
            </Position>
            <AltitudeMeters>-11.80000019073486328125</AltitudeMeters>
            <DistanceMeters>NAN</DistanceMeters>
          </Trackpoint>
          <Trackpoint>
            <Time>2022-09-24T15:42:13.000Z</Time>
            <Position>
              <LatitudeDegrees>43.34212099201977252960205078125</LatitudeDegrees>
              <LongitudeDegrees>-2.812693119049072265625</LongitudeDegrees>
            </Position>
            <AltitudeMeters>-12</AltitudeMeters>
            <DistanceMeters>NAN</DistanceMeters>
          </Trackpoint>
          <Trackpoint>
            <Time>2022-09-24T15:42:14.000Z</Time>
            <Position>
              <LatitudeDegrees>43.34219475276768207550048828125</LatitudeDegrees>
              <LongitudeDegrees>-2.81274869106709957122802734375</LongitudeDegrees>
            </Position>
            <AltitudeMeters>-12</AltitudeMeters>
            <DistanceMeters>NAN</DistanceMeters>
          </Trackpoint>
          <Trackpoint>
            <Time>2022-09-24T15:42:15.000Z</Time>
            <Position>
              <LatitudeDegrees>43.3422692678868770599365234375</LatitudeDegrees>
              <LongitudeDegrees>-2.8128062747418880462646484375</LongitudeDegrees>
            </Position>
            <AltitudeMeters>-12.3999996185302734375</AltitudeMeters>
            <DistanceMeters>NAN</DistanceMeters>
          </Trackpoint>
          <Trackpoint>
            <Time>2022-09-24T15:42:16.000Z</Time>
            <Position>
              <LatitudeDegrees>43.34234059788286685943603515625</LatitudeDegrees>
              <LongitudeDegrees>-2.81287274323403835296630859375</LongitudeDegrees>
            </Position>
            <AltitudeMeters>-12.3999996185302734375</AltitudeMeters>
            <DistanceMeters>NAN</DistanceMeters>
          </Trackpoint>
          <Trackpoint>
            <Time>2022-09-24T15:42:17.000Z</Time>
            <Position>
              <LatitudeDegrees>43.342408575117588043212890625</LatitudeDegrees>
              <LongitudeDegrees>-2.8129480965435504913330078125</LongitudeDegrees>
            </Position>
            <AltitudeMeters>-12.3999996185302734375</AltitudeMeters>
            <DistanceMeters>NAN</DistanceMeters>
          </Trackpoint>
          <Trackpoint>
            <Time>2022-09-24T15:42:18.000Z</Time>
            <Position>
              <LatitudeDegrees>43.3424861915409564971923828125</LatitudeDegrees>
              <LongitudeDegrees>-2.81304842792451381683349609375</LongitudeDegrees>
            </Position>
            <AltitudeMeters>-12.3999996185302734375</AltitudeMeters>
            <DistanceMeters>NAN</DistanceMeters>
          </Trackpoint>
          <Trackpoint>
            <Time>2022-09-24T15:42:19.000Z</Time>
            <Position>
              <LatitudeDegrees>43.3425338007509708404541015625</LatitudeDegrees>
              <LongitudeDegrees>-2.81312017701566219329833984375</LongitudeDegrees>
            </Position>
            <AltitudeMeters>-14.3999996185302734375</AltitudeMeters>
            <DistanceMeters>NAN</DistanceMeters>
          </Trackpoint>
          <Trackpoint>
            <Time>2022-09-24T15:42:20.000Z</Time>
            <Position>
              <LatitudeDegrees>43.3425948210060596466064453125</LatitudeDegrees>
              <LongitudeDegrees>-2.81321288086473941802978515625</LongitudeDegrees>
            </Position>
            <AltitudeMeters>-14.80000019073486328125</AltitudeMeters>
            <DistanceMeters>NAN</DistanceMeters>
          </Trackpoint>
          <Trackpoint>
            <Time>2022-09-24T15:42:21.000Z</Time>
            <Position>
              <LatitudeDegrees>43.34265391342341899871826171875</LatitudeDegrees>
              <LongitudeDegrees>-2.8133098594844341278076171875</LongitudeDegrees>
            </Position>
            <AltitudeMeters>-15</AltitudeMeters>
            <DistanceMeters>NAN</DistanceMeters>
          </Trackpoint>
          <Trackpoint>
            <Time>2022-09-24T15:42:22.000Z</Time>
            <Position>
              <LatitudeDegrees>43.34271258674561977386474609375</LatitudeDegrees>
              <LongitudeDegrees>-2.81340834684669971466064453125</LongitudeDegrees>
            </Position>
            <AltitudeMeters>-15.80000019073486328125</AltitudeMeters>
            <DistanceMeters>NAN</DistanceMeters>
          </Trackpoint>
          <Trackpoint>
            <Time>2022-09-24T15:42:23.000Z</Time>
            <Position>
              <LatitudeDegrees>43.34276874549686908721923828125</LatitudeDegrees>
              <LongitudeDegrees>-2.81351186335086822509765625</LongitudeDegrees>
            </Position>
            <AltitudeMeters>-16</AltitudeMeters>
            <DistanceMeters>NAN</DistanceMeters>
          </Trackpoint>
          <Trackpoint>
            <Time>2022-09-24T15:42:24.000Z</Time>
            <Position>
              <LatitudeDegrees>43.34282658062875270843505859375</LatitudeDegrees>
              <LongitudeDegrees>-2.81361705623567104339599609375</LongitudeDegrees>
            </Position>
            <AltitudeMeters>-16</AltitudeMeters>
            <DistanceMeters>NAN</DistanceMeters>
          </Trackpoint>
          <Trackpoint>
            <Time>2022-09-24T15:42:25.000Z</Time>
            <Position>
              <LatitudeDegrees>43.34288491867482662200927734375</LatitudeDegrees>
              <LongitudeDegrees>-2.8137209080159664154052734375</LongitudeDegrees>
            </Position>
            <AltitudeMeters>-16.200000762939453125</AltitudeMeters>
            <DistanceMeters>NAN</DistanceMeters>
          </Trackpoint>
          <Trackpoint>
            <Time>2022-09-24T15:42:26.000Z</Time>
            <Position>
              <LatitudeDegrees>43.3429435081779956817626953125</LatitudeDegrees>
              <LongitudeDegrees>-2.81382576562464237213134765625</LongitudeDegrees>
            </Position>
            <AltitudeMeters>-16.3999996185302734375</AltitudeMeters>
            <DistanceMeters>NAN</DistanceMeters>
          </Trackpoint>
          <Trackpoint>
            <Time>2022-09-24T15:42:27.000Z</Time>
            <Position>
              <LatitudeDegrees>43.3430041931569576263427734375</LatitudeDegrees>
              <LongitudeDegrees>-2.81392903067171573638916015625</LongitudeDegrees>
            </Position>
            <AltitudeMeters>-16.3999996185302734375</AltitudeMeters>
            <DistanceMeters>NAN</DistanceMeters>
          </Trackpoint>
          <Trackpoint>
            <Time>2022-09-24T15:42:28.000Z</Time>
            <Position>
              <LatitudeDegrees>43.3430689014494419097900390625</LatitudeDegrees>
              <LongitudeDegrees>-2.8140310384333133697509765625</LongitudeDegrees>
            </Position>
            <AltitudeMeters>-17</AltitudeMeters>
            <DistanceMeters>NAN</DistanceMeters>
          </Trackpoint>
          <Trackpoint>
            <Time>2022-09-24T15:42:29.000Z</Time>
            <Position>
              <LatitudeDegrees>43.34313402883708477020263671875</LatitudeDegrees>
              <LongitudeDegrees>-2.8141309507191181182861328125</LongitudeDegrees>
            </Position>
            <AltitudeMeters>-17.200000762939453125</AltitudeMeters>
            <DistanceMeters>NAN</DistanceMeters>
          </Trackpoint>
          <Trackpoint>
            <Time>2022-09-24T15:42:30.000Z</Time>
            <Position>
              <LatitudeDegrees>43.34319756366312503814697265625</LatitudeDegrees>
              <LongitudeDegrees>-2.814231030642986297607421875</LongitudeDegrees>
            </Position>
            <AltitudeMeters>-17.3999996185302734375</AltitudeMeters>
            <DistanceMeters>NAN</DistanceMeters>
          </Trackpoint>
          <Trackpoint>
            <Time>2022-09-24T15:42:31.000Z</Time>
            <Position>
              <LatitudeDegrees>43.34326562471687793731689453125</LatitudeDegrees>
              <LongitudeDegrees>-2.81432926654815673828125</LongitudeDegrees>
            </Position>
            <AltitudeMeters>-18.6000003814697265625</AltitudeMeters>
            <DistanceMeters>NAN</DistanceMeters>
          </Trackpoint>
          <Trackpoint>
            <Time>2022-09-24T15:42:32.000Z</Time>
            <Position>
              <LatitudeDegrees>43.34333963692188262939453125</LatitudeDegrees>
              <LongitudeDegrees>-2.8144192881882190704345703125</LongitudeDegrees>
            </Position>
            <AltitudeMeters>-20.6000003814697265625</AltitudeMeters>
            <DistanceMeters>NAN</DistanceMeters>
          </Trackpoint>
          <Trackpoint>
            <Time>2022-09-24T15:42:33.000Z</Time>
            <Position>
              <LatitudeDegrees>43.3434159122407436370849609375</LatitudeDegrees>
              <LongitudeDegrees>-2.814503945410251617431640625</LongitudeDegrees>
            </Position>
            <AltitudeMeters>-20.6000003814697265625</AltitudeMeters>
            <DistanceMeters>NAN</DistanceMeters>
          </Trackpoint>
          <Trackpoint>
            <Time>2022-09-24T15:42:34.000Z</Time>
            <Position>
              <LatitudeDegrees>43.3434947021305561065673828125</LatitudeDegrees>
              <LongitudeDegrees>-2.81458474695682525634765625</LongitudeDegrees>
            </Position>
            <AltitudeMeters>-20.6000003814697265625</AltitudeMeters>
            <DistanceMeters>NAN</DistanceMeters>
          </Trackpoint>
          <Trackpoint>
            <Time>2022-09-24T15:42:35.000Z</Time>
            <Position>
              <LatitudeDegrees>43.34357676096260547637939453125</LatitudeDegrees>
              <LongitudeDegrees>-2.81465775333344936370849609375</LongitudeDegrees>
            </Position>
            <AltitudeMeters>-20.6000003814697265625</AltitudeMeters>
            <DistanceMeters>NAN</DistanceMeters>
          </Trackpoint>
          <Trackpoint>
            <Time>2022-09-24T15:42:36.000Z</Time>
            <Position>
              <LatitudeDegrees>43.34366041235625743865966796875</LatitudeDegrees>
              <LongitudeDegrees>-2.8147227130830287933349609375</LongitudeDegrees>
            </Position>
            <AltitudeMeters>-20.6000003814697265625</AltitudeMeters>
            <DistanceMeters>NAN</DistanceMeters>
          </Trackpoint>
          <Trackpoint>
            <Time>2022-09-24T15:42:37.000Z</Time>
            <Position>
              <LatitudeDegrees>43.34374599158763885498046875</LatitudeDegrees>
              <LongitudeDegrees>-2.81478348188102245330810546875</LongitudeDegrees>
            </Position>
            <AltitudeMeters>-18</AltitudeMeters>
            <DistanceMeters>NAN</DistanceMeters>
          </Trackpoint>
          <Trackpoint>
            <Time>2022-09-24T15:42:38.000Z</Time>
            <Position>
              <LatitudeDegrees>43.34374599158763885498046875</LatitudeDegrees>
              <LongitudeDegrees>-2.81478348188102245330810546875</LongitudeDegrees>
            </Position>
            <AltitudeMeters>-17.6000003814697265625</AltitudeMeters>
            <DistanceMeters>NAN</DistanceMeters>
          </Trackpoint>
          <Trackpoint>
            <Time>2022-09-24T15:42:39.000Z</Time>
            <Position>
              <LatitudeDegrees>43.34391790442168712615966796875</LatitudeDegrees>
              <LongitudeDegrees>-2.81490803696215152740478515625</LongitudeDegrees>
            </Position>
            <AltitudeMeters>-17.6000003814697265625</AltitudeMeters>
            <DistanceMeters>NAN</DistanceMeters>
          </Trackpoint>
          <Trackpoint>
            <Time>2022-09-24T15:42:40.000Z</Time>
            <Position>
              <LatitudeDegrees>43.344002477824687957763671875</LatitudeDegrees>
              <LongitudeDegrees>-2.814973331987857818603515625</LongitudeDegrees>
            </Position>
            <AltitudeMeters>-17.6000003814697265625</AltitudeMeters>
            <DistanceMeters>NAN</DistanceMeters>
          </Trackpoint>
          <Trackpoint>
            <Time>2022-09-24T15:42:41.000Z</Time>
            <Position>
              <LatitudeDegrees>43.34408487193286418914794921875</LatitudeDegrees>
              <LongitudeDegrees>-2.8150365315377712249755859375</LongitudeDegrees>
            </Position>
            <AltitudeMeters>-17.6000003814697265625</AltitudeMeters>
            <DistanceMeters>NAN</DistanceMeters>
          </Trackpoint>
          <Trackpoint>
            <Time>2022-09-24T15:42:42.000Z</Time>
            <Position>
              <LatitudeDegrees>43.3441664278507232666015625</LatitudeDegrees>
              <LongitudeDegrees>-2.815102748572826385498046875</LongitudeDegrees>
            </Position>
            <AltitudeMeters>-17.6000003814697265625</AltitudeMeters>
            <DistanceMeters>NAN</DistanceMeters>
          </Trackpoint>
          <Trackpoint>
            <Time>2022-09-24T15:42:43.000Z</Time>
            <Position>
              <LatitudeDegrees>43.34424697794020175933837890625</LatitudeDegrees>
              <LongitudeDegrees>-2.81516812741756439208984375</LongitudeDegrees>
            </Position>
            <AltitudeMeters>-17.6000003814697265625</AltitudeMeters>
            <DistanceMeters>NAN</DistanceMeters>
          </Trackpoint>
          <Trackpoint>
            <Time>2022-09-24T15:42:44.000Z</Time>
            <Position>
              <LatitudeDegrees>43.34432593546807765960693359375</LatitudeDegrees>
              <LongitudeDegrees>-2.8152336739003658294677734375</LongitudeDegrees>
            </Position>
            <AltitudeMeters>-18</AltitudeMeters>
            <DistanceMeters>NAN</DistanceMeters>
          </Trackpoint>
          <Trackpoint>
            <Time>2022-09-24T15:42:45.000Z</Time>
            <Position>
              <LatitudeDegrees>43.344403468072414398193359375</LatitudeDegrees>
              <LongitudeDegrees>-2.815301902592182159423828125</LongitudeDegrees>
            </Position>
            <AltitudeMeters>-19</AltitudeMeters>
            <DistanceMeters>NAN</DistanceMeters>
          </Trackpoint>
          <Trackpoint>
            <Time>2022-09-24T15:42:46.000Z</Time>
            <Position>
              <LatitudeDegrees>43.344480581581592559814453125</LatitudeDegrees>
              <LongitudeDegrees>-2.8153704665601253509521484375</LongitudeDegrees>
            </Position>
            <AltitudeMeters>-19</AltitudeMeters>
            <DistanceMeters>NAN</DistanceMeters>
          </Trackpoint>
          <Trackpoint>
            <Time>2022-09-24T15:42:47.000Z</Time>
            <Position>
              <LatitudeDegrees>43.34455492906272411346435546875</LatitudeDegrees>
              <LongitudeDegrees>-2.8154410421848297119140625</LongitudeDegrees>
            </Position>
            <AltitudeMeters>-19</AltitudeMeters>
            <DistanceMeters>NAN</DistanceMeters>
          </Trackpoint>
          <Trackpoint>
            <Time>2022-09-24T15:42:48.000Z</Time>
            <Position>
              <LatitudeDegrees>43.344624750316143035888671875</LatitudeDegrees>
              <LongitudeDegrees>-2.81551706604659557342529296875</LongitudeDegrees>
            </Position>
            <AltitudeMeters>-19</AltitudeMeters>
            <DistanceMeters>NAN</DistanceMeters>
          </Trackpoint>
          <Trackpoint>
            <Time>2022-09-24T15:42:49.000Z</Time>
            <Position>
              <LatitudeDegrees>43.3446889556944370269775390625</LatitudeDegrees>
              <LongitudeDegrees>-2.815598286688327789306640625</LongitudeDegrees>
            </Position>
            <AltitudeMeters>-18.3999996185302734375</AltitudeMeters>
            <DistanceMeters>NAN</DistanceMeters>
          </Trackpoint>
          <Trackpoint>
            <Time>2022-09-24T15:42:50.000Z</Time>
            <Position>
              <LatitudeDegrees>43.34475156851112842559814453125</LatitudeDegrees>
              <LongitudeDegrees>-2.81567984260618686676025390625</LongitudeDegrees>
            </Position>
            <AltitudeMeters>-18.3999996185302734375</AltitudeMeters>
            <DistanceMeters>NAN</DistanceMeters>
          </Trackpoint>
          <Trackpoint>
            <Time>2022-09-24T15:42:51.000Z</Time>
            <Position>
              <LatitudeDegrees>43.34481292404234409332275390625</LatitudeDegrees>
              <LongitudeDegrees>-2.8157637454569339752197265625</LongitudeDegrees>
            </Position>
            <AltitudeMeters>-19</AltitudeMeters>
            <DistanceMeters>NAN</DistanceMeters>
          </Trackpoint>
          <Trackpoint>
            <Time>2022-09-24T15:42:52.000Z</Time>
            <Position>
              <LatitudeDegrees>43.34481292404234409332275390625</LatitudeDegrees>
              <LongitudeDegrees>-2.8157637454569339752197265625</LongitudeDegrees>
            </Position>
            <AltitudeMeters>-19</AltitudeMeters>
            <DistanceMeters>NAN</DistanceMeters>
          </Trackpoint>
          <Trackpoint>
            <Time>2022-09-24T15:42:53.000Z</Time>
            <Position>
              <LatitudeDegrees>43.34494602866470813751220703125</LatitudeDegrees>
              <LongitudeDegrees>-2.81595401465892791748046875</LongitudeDegrees>
            </Position>
            <AltitudeMeters>-19</AltitudeMeters>
            <DistanceMeters>NAN</DistanceMeters>
          </Trackpoint>
          <Trackpoint>
            <Time>2022-09-24T15:42:54.000Z</Time>
            <Position>
              <LatitudeDegrees>43.34499162621796131134033203125</LatitudeDegrees>
              <LongitudeDegrees>-2.816024087369441986083984375</LongitudeDegrees>
            </Position>
            <AltitudeMeters>-19</AltitudeMeters>
            <DistanceMeters>NAN</DistanceMeters>
          </Trackpoint>
          <Trackpoint>
            <Time>2022-09-24T15:42:55.000Z</Time>
            <Position>
              <LatitudeDegrees>43.34504828788340091705322265625</LatitudeDegrees>
              <LongitudeDegrees>-2.81611226499080657958984375</LongitudeDegrees>
            </Position>
            <AltitudeMeters>-19.6000003814697265625</AltitudeMeters>
            <DistanceMeters>NAN</DistanceMeters>
          </Trackpoint>
          <Trackpoint>
            <Time>2022-09-24T15:42:56.000Z</Time>
            <Position>
              <LatitudeDegrees>43.34510712884366512298583984375</LatitudeDegrees>
              <LongitudeDegrees>-2.81619600020349025726318359375</LongitudeDegrees>
            </Position>
            <AltitudeMeters>-19.799999237060546875</AltitudeMeters>
            <DistanceMeters>NAN</DistanceMeters>
          </Trackpoint>
          <Trackpoint>
            <Time>2022-09-24T15:42:57.000Z</Time>
            <Position>
              <LatitudeDegrees>43.34516379050910472869873046875</LatitudeDegrees>
              <LongitudeDegrees>-2.81627646647393703460693359375</LongitudeDegrees>
            </Position>
            <AltitudeMeters>-19.6000003814697265625</AltitudeMeters>
            <DistanceMeters>NAN</DistanceMeters>
          </Trackpoint>
          <Trackpoint>
            <Time>2022-09-24T15:42:58.000Z</Time>
            <Position>
              <LatitudeDegrees>43.3452223800122737884521484375</LatitudeDegrees>
              <LongitudeDegrees>-2.81635559163987636566162109375</LongitudeDegrees>
            </Position>
            <AltitudeMeters>-19</AltitudeMeters>
            <DistanceMeters>NAN</DistanceMeters>
          </Trackpoint>
          <Trackpoint>
            <Time>2022-09-24T15:42:59.000Z</Time>
            <Position>
              <LatitudeDegrees>43.345279879868030548095703125</LatitudeDegrees>
              <LongitudeDegrees>-2.816429436206817626953125</LongitudeDegrees>
            </Position>
            <AltitudeMeters>-19</AltitudeMeters>
            <DistanceMeters>NAN</DistanceMeters>
          </Trackpoint>
          <Trackpoint>
            <Time>2022-09-24T15:43:00.000Z</Time>
            <Position>
              <LatitudeDegrees>43.34533478133380413055419921875</LatitudeDegrees>
              <LongitudeDegrees>-2.81650244258344173431396484375</LongitudeDegrees>
            </Position>
            <AltitudeMeters>-18.200000762939453125</AltitudeMeters>
            <DistanceMeters>NAN</DistanceMeters>
          </Trackpoint>
          <Trackpoint>
            <Time>2022-09-24T15:43:01.000Z</Time>
            <Position>
              <LatitudeDegrees>43.34538691677153110504150390625</LatitudeDegrees>
              <LongitudeDegrees>-2.816574610769748687744140625</LongitudeDegrees>
            </Position>
            <AltitudeMeters>-18.200000762939453125</AltitudeMeters>
            <DistanceMeters>NAN</DistanceMeters>
          </Trackpoint>
          <Trackpoint>
            <Time>2022-09-24T15:43:02.000Z</Time>
            <Position>
              <LatitudeDegrees>43.3454382978379726409912109375</LatitudeDegrees>
              <LongitudeDegrees>-2.81664359383285045623779296875</LongitudeDegrees>
            </Position>
            <AltitudeMeters>-17.3999996185302734375</AltitudeMeters>
            <DistanceMeters>NAN</DistanceMeters>
          </Trackpoint>
          <Trackpoint>
            <Time>2022-09-24T15:43:03.000Z</Time>
            <Position>
              <LatitudeDegrees>43.3454382978379726409912109375</LatitudeDegrees>
              <LongitudeDegrees>-2.81664359383285045623779296875</LongitudeDegrees>
            </Position>
            <AltitudeMeters>-17</AltitudeMeters>
            <DistanceMeters>NAN</DistanceMeters>
          </Trackpoint>
          <Trackpoint>
            <Time>2022-09-24T15:43:04.000Z</Time>
            <Position>
              <LatitudeDegrees>43.34554181434214115142822265625</LatitudeDegrees>
              <LongitudeDegrees>-2.81677351333200931549072265625</LongitudeDegrees>
            </Position>
            <AltitudeMeters>-16.799999237060546875</AltitudeMeters>
            <DistanceMeters>NAN</DistanceMeters>
          </Trackpoint>
          <Trackpoint>
            <Time>2022-09-24T15:43:05.000Z</Time>
            <Position>
              <LatitudeDegrees>43.3455925248563289642333984375</LatitudeDegrees>
              <LongitudeDegrees>-2.816836126148700714111328125</LongitudeDegrees>
            </Position>
            <AltitudeMeters>-16.799999237060546875</AltitudeMeters>
            <DistanceMeters>NAN</DistanceMeters>
          </Trackpoint>
          <Trackpoint>
            <Time>2022-09-24T15:43:06.000Z</Time>
            <Position>
              <LatitudeDegrees>43.3455925248563289642333984375</LatitudeDegrees>
              <LongitudeDegrees>-2.816836126148700714111328125</LongitudeDegrees>
            </Position>
            <AltitudeMeters>-16.799999237060546875</AltitudeMeters>
            <DistanceMeters>NAN</DistanceMeters>
          </Trackpoint>
          <Trackpoint>
            <Time>2022-09-24T15:43:07.000Z</Time>
            <Position>
              <LatitudeDegrees>43.345684893429279327392578125</LatitudeDegrees>
              <LongitudeDegrees>-2.81696478836238384246826171875</LongitudeDegrees>
            </Position>
            <AltitudeMeters>-16.3999996185302734375</AltitudeMeters>
            <DistanceMeters>NAN</DistanceMeters>
          </Trackpoint>
          <Trackpoint>
            <Time>2022-09-24T15:43:08.000Z</Time>
            <Position>
              <LatitudeDegrees>43.345728814601898193359375</LatitudeDegrees>
              <LongitudeDegrees>-2.81702631153166294097900390625</LongitudeDegrees>
            </Position>
            <AltitudeMeters>-16.200000762939453125</AltitudeMeters>
            <DistanceMeters>NAN</DistanceMeters>
          </Trackpoint>
          <Trackpoint>
            <Time>2022-09-24T15:43:09.000Z</Time>
            <Position>
              <LatitudeDegrees>43.3457718975841999053955078125</LatitudeDegrees>
              <LongitudeDegrees>-2.81708733178675174713134765625</LongitudeDegrees>
            </Position>
            <AltitudeMeters>-16.200000762939453125</AltitudeMeters>
            <DistanceMeters>NAN</DistanceMeters>
          </Trackpoint>
          <Trackpoint>
            <Time>2022-09-24T15:43:10.000Z</Time>
            <Position>
              <LatitudeDegrees>43.345813639461994171142578125</LatitudeDegrees>
              <LongitudeDegrees>-2.817151285707950592041015625</LongitudeDegrees>
            </Position>
            <AltitudeMeters>-16</AltitudeMeters>
            <DistanceMeters>NAN</DistanceMeters>
          </Trackpoint>
          <Trackpoint>
            <Time>2022-09-24T15:43:11.000Z</Time>
            <Position>
              <LatitudeDegrees>43.34585018455982208251953125</LatitudeDegrees>
              <LongitudeDegrees>-2.8172166645526885986328125</LongitudeDegrees>
            </Position>
            <AltitudeMeters>-15.6000003814697265625</AltitudeMeters>
            <DistanceMeters>NAN</DistanceMeters>
          </Trackpoint>
          <Trackpoint>
            <Time>2022-09-24T15:43:12.000Z</Time>
            <Position>
              <LatitudeDegrees>43.345882035791873931884765625</LatitudeDegrees>
              <LongitudeDegrees>-2.8172835521399974822998046875</LongitudeDegrees>
            </Position>
            <AltitudeMeters>-15.6000003814697265625</AltitudeMeters>
            <DistanceMeters>NAN</DistanceMeters>
          </Trackpoint>
          <Trackpoint>
            <Time>2022-09-24T15:43:13.000Z</Time>
            <Position>
              <LatitudeDegrees>43.3459107019007205963134765625</LatitudeDegrees>
              <LongitudeDegrees>-2.81735287047922611236572265625</LongitudeDegrees>
            </Position>
            <AltitudeMeters>-15.6000003814697265625</AltitudeMeters>
            <DistanceMeters>NAN</DistanceMeters>
          </Trackpoint>
          <Trackpoint>
            <Time>2022-09-24T15:43:14.000Z</Time>
            <Position>
              <LatitudeDegrees>43.34593693725764751434326171875</LatitudeDegrees>
              <LongitudeDegrees>-2.8174216859042644500732421875</LongitudeDegrees>
            </Position>
            <AltitudeMeters>-15.19999980926513671875</AltitudeMeters>
            <DistanceMeters>NAN</DistanceMeters>
          </Trackpoint>
          <Trackpoint>
            <Time>2022-09-24T15:43:15.000Z</Time>
            <Position>
              <LatitudeDegrees>43.3459599874913692474365234375</LatitudeDegrees>
              <LongitudeDegrees>-2.81749201007187366485595703125</LongitudeDegrees>
            </Position>
            <AltitudeMeters>-14.6000003814697265625</AltitudeMeters>
            <DistanceMeters>NAN</DistanceMeters>
          </Trackpoint>
          <Trackpoint>
            <Time>2022-09-24T15:43:16.000Z</Time>
            <Position>
              <LatitudeDegrees>43.34598002023994922637939453125</LatitudeDegrees>
              <LongitudeDegrees>-2.81756342388689517974853515625</LongitudeDegrees>
            </Position>
            <AltitudeMeters>-14.19999980926513671875</AltitudeMeters>
            <DistanceMeters>NAN</DistanceMeters>
          </Trackpoint>
          <Trackpoint>
            <Time>2022-09-24T15:43:17.000Z</Time>
            <Position>
              <LatitudeDegrees>43.346001394093036651611328125</LatitudeDegrees>
              <LongitudeDegrees>-2.8176308982074260711669921875</LongitudeDegrees>
            </Position>
            <AltitudeMeters>-14</AltitudeMeters>
            <DistanceMeters>NAN</DistanceMeters>
          </Trackpoint>
          <Trackpoint>
            <Time>2022-09-24T15:43:18.000Z</Time>
            <Position>
              <LatitudeDegrees>43.34601941518485546112060546875</LatitudeDegrees>
              <LongitudeDegrees>-2.81769988127052783966064453125</LongitudeDegrees>
            </Position>
            <AltitudeMeters>-14</AltitudeMeters>
            <DistanceMeters>NAN</DistanceMeters>
          </Trackpoint>
          <Trackpoint>
            <Time>2022-09-24T15:43:19.000Z</Time>
            <Position>
              <LatitudeDegrees>43.34601941518485546112060546875</LatitudeDegrees>
              <LongitudeDegrees>-2.81769988127052783966064453125</LongitudeDegrees>
            </Position>
            <AltitudeMeters>-14</AltitudeMeters>
            <DistanceMeters>NAN</DistanceMeters>
          </Trackpoint>
          <Trackpoint>
            <Time>2022-09-24T15:43:20.000Z</Time>
            <Position>
              <LatitudeDegrees>43.34605596028268337249755859375</LatitudeDegrees>
              <LongitudeDegrees>-2.81783918850123882293701171875</LongitudeDegrees>
            </Position>
            <AltitudeMeters>-14</AltitudeMeters>
            <DistanceMeters>NAN</DistanceMeters>
          </Trackpoint>
          <Trackpoint>
            <Time>2022-09-24T15:43:21.000Z</Time>
            <Position>
              <LatitudeDegrees>43.34607683122158050537109375</LatitudeDegrees>
              <LongitudeDegrees>-2.81790758483111858367919921875</LongitudeDegrees>
            </Position>
            <AltitudeMeters>-14</AltitudeMeters>
            <DistanceMeters>NAN</DistanceMeters>
          </Trackpoint>
          <Trackpoint>
            <Time>2022-09-24T15:43:22.000Z</Time>
            <Position>
              <LatitudeDegrees>43.34609317593276500701904296875</LatitudeDegrees>
              <LongitudeDegrees>-2.8179772384464740753173828125</LongitudeDegrees>
            </Position>
            <AltitudeMeters>-14</AltitudeMeters>
            <DistanceMeters>NAN</DistanceMeters>
          </Trackpoint>
          <Trackpoint>
            <Time>2022-09-24T15:43:23.000Z</Time>
            <Position>
              <LatitudeDegrees>43.34610910154879093170166015625</LatitudeDegrees>
              <LongitudeDegrees>-2.81804789789021015167236328125</LongitudeDegrees>
            </Position>
            <AltitudeMeters>-14.3999996185302734375</AltitudeMeters>
            <DistanceMeters>NAN</DistanceMeters>
          </Trackpoint>
          <Trackpoint>
            <Time>2022-09-24T15:43:24.000Z</Time>
            <Position>
              <LatitudeDegrees>43.34612318314611911773681640625</LatitudeDegrees>
              <LongitudeDegrees>-2.818118222057819366455078125</LongitudeDegrees>
            </Position>
            <AltitudeMeters>-14.3999996185302734375</AltitudeMeters>
            <DistanceMeters>NAN</DistanceMeters>
          </Trackpoint>
          <Trackpoint>
            <Time>2022-09-24T15:43:25.000Z</Time>
            <Position>
              <LatitudeDegrees>43.34613709710538387298583984375</LatitudeDegrees>
              <LongitudeDegrees>-2.81818737275898456573486328125</LongitudeDegrees>
            </Position>
            <AltitudeMeters>-14.3999996185302734375</AltitudeMeters>
            <DistanceMeters>NAN</DistanceMeters>
          </Trackpoint>
          <Trackpoint>
            <Time>2022-09-24T15:43:26.000Z</Time>
            <Position>
              <LatitudeDegrees>43.34614849649369716644287109375</LatitudeDegrees>
              <LongitudeDegrees>-2.81825845129787921905517578125</LongitudeDegrees>
            </Position>
            <AltitudeMeters>-14</AltitudeMeters>
            <DistanceMeters>NAN</DistanceMeters>
          </Trackpoint>
          <Trackpoint>
            <Time>2022-09-24T15:43:27.000Z</Time>
            <Position>
              <LatitudeDegrees>43.3461606502532958984375</LatitudeDegrees>
              <LongitudeDegrees>-2.8183297812938690185546875</LongitudeDegrees>
            </Position>
            <AltitudeMeters>-14</AltitudeMeters>
            <DistanceMeters>NAN</DistanceMeters>
          </Trackpoint>
          <Trackpoint>
            <Time>2022-09-24T15:43:28.000Z</Time>
            <Position>
              <LatitudeDegrees>43.34617498330771923065185546875</LatitudeDegrees>
              <LongitudeDegrees>-2.81840127892792224884033203125</LongitudeDegrees>
            </Position>
            <AltitudeMeters>-14</AltitudeMeters>
            <DistanceMeters>NAN</DistanceMeters>
          </Trackpoint>
          <Trackpoint>
            <Time>2022-09-24T15:43:29.000Z</Time>
            <Position>
              <LatitudeDegrees>43.346189148724079132080078125</LatitudeDegrees>
              <LongitudeDegrees>-2.81847084872424602508544921875</LongitudeDegrees>
            </Position>
            <AltitudeMeters>-14</AltitudeMeters>
            <DistanceMeters>NAN</DistanceMeters>
          </Trackpoint>
          <Trackpoint>
            <Time>2022-09-24T15:43:30.000Z</Time>
            <Position>
              <LatitudeDegrees>43.3462017215788364410400390625</LatitudeDegrees>
              <LongitudeDegrees>-2.81854075379669666290283203125</LongitudeDegrees>
            </Position>
            <AltitudeMeters>-13.6000003814697265625</AltitudeMeters>
            <DistanceMeters>NAN</DistanceMeters>
          </Trackpoint>
          <Trackpoint>
            <Time>2022-09-24T15:43:31.000Z</Time>
            <Position>
              <LatitudeDegrees>43.34621856920421123504638671875</LatitudeDegrees>
              <LongitudeDegrees>-2.81861149705946445465087890625</LongitudeDegrees>
            </Position>
            <AltitudeMeters>-13.6000003814697265625</AltitudeMeters>
            <DistanceMeters>NAN</DistanceMeters>
          </Trackpoint>
          <Trackpoint>
            <Time>2022-09-24T15:43:32.000Z</Time>
            <Position>
              <LatitudeDegrees>43.346236087381839752197265625</LatitudeDegrees>
              <LongitudeDegrees>-2.81868123449385166168212890625</LongitudeDegrees>
            </Position>
            <AltitudeMeters>-12.3999996185302734375</AltitudeMeters>
            <DistanceMeters>NAN</DistanceMeters>
          </Trackpoint>
          <Trackpoint>
            <Time>2022-09-24T15:43:33.000Z</Time>
            <Position>
              <LatitudeDegrees>43.34625058807432651519775390625</LatitudeDegrees>
              <LongitudeDegrees>-2.81875030137598514556884765625</LongitudeDegrees>
            </Position>
            <AltitudeMeters>-12.19999980926513671875</AltitudeMeters>
            <DistanceMeters>NAN</DistanceMeters>
          </Trackpoint>
          <Trackpoint>
            <Time>2022-09-24T15:43:34.000Z</Time>
            <Position>
              <LatitudeDegrees>43.3462671004235744476318359375</LatitudeDegrees>
              <LongitudeDegrees>-2.81881618313491344451904296875</LongitudeDegrees>
            </Position>
            <AltitudeMeters>-12</AltitudeMeters>
            <DistanceMeters>NAN</DistanceMeters>
          </Trackpoint>
          <Trackpoint>
            <Time>2022-09-24T15:43:35.000Z</Time>
            <Position>
              <LatitudeDegrees>43.34628663025796413421630859375</LatitudeDegrees>
              <LongitudeDegrees>-2.818877957761287689208984375</LongitudeDegrees>
            </Position>
            <AltitudeMeters>-12</AltitudeMeters>
            <DistanceMeters>NAN</DistanceMeters>
          </Trackpoint>
          <Trackpoint>
            <Time>2022-09-24T15:43:36.000Z</Time>
            <Position>
              <LatitudeDegrees>43.34630758501589298248291015625</LatitudeDegrees>
              <LongitudeDegrees>-2.81893772073090076446533203125</LongitudeDegrees>
            </Position>
            <AltitudeMeters>-11.80000019073486328125</AltitudeMeters>
            <DistanceMeters>NAN</DistanceMeters>
          </Trackpoint>
          <Trackpoint>
            <Time>2022-09-24T15:43:37.000Z</Time>
            <Position>
              <LatitudeDegrees>43.346327282488346099853515625</LatitudeDegrees>
              <LongitudeDegrees>-2.81900293193757534027099609375</LongitudeDegrees>
            </Position>
            <AltitudeMeters>-11.80000019073486328125</AltitudeMeters>
            <DistanceMeters>NAN</DistanceMeters>
          </Trackpoint>
          <Trackpoint>
            <Time>2022-09-24T15:43:38.000Z</Time>
            <Position>
              <LatitudeDegrees>43.3463443815708160400390625</LatitudeDegrees>
              <LongitudeDegrees>-2.81906898133456707000732421875</LongitudeDegrees>
            </Position>
            <AltitudeMeters>-11.6000003814697265625</AltitudeMeters>
            <DistanceMeters>NAN</DistanceMeters>
          </Trackpoint>
          <Trackpoint>
            <Time>2022-09-24T15:43:39.000Z</Time>
            <Position>
              <LatitudeDegrees>43.3463619835674762725830078125</LatitudeDegrees>
              <LongitudeDegrees>-2.8191344439983367919921875</LongitudeDegrees>
            </Position>
            <AltitudeMeters>-11.6000003814697265625</AltitudeMeters>
            <DistanceMeters>NAN</DistanceMeters>
          </Trackpoint>
          <Trackpoint>
            <Time>2022-09-24T15:43:40.000Z</Time>
            <Position>
              <LatitudeDegrees>43.3463804237544536590576171875</LatitudeDegrees>
              <LongitudeDegrees>-2.81920040957629680633544921875</LongitudeDegrees>
            </Position>
            <AltitudeMeters>-11</AltitudeMeters>
            <DistanceMeters>NAN</DistanceMeters>
          </Trackpoint>
          <Trackpoint>
            <Time>2022-09-24T15:43:41.000Z</Time>
            <Position>
              <LatitudeDegrees>43.34639961831271648406982421875</LatitudeDegrees>
              <LongitudeDegrees>-2.8192650340497493743896484375</LongitudeDegrees>
            </Position>
            <AltitudeMeters>-11</AltitudeMeters>
            <DistanceMeters>NAN</DistanceMeters>
          </Trackpoint>
          <Trackpoint>
            <Time>2022-09-24T15:43:42.000Z</Time>
            <Position>
              <LatitudeDegrees>43.3464196510612964630126953125</LatitudeDegrees>
              <LongitudeDegrees>-2.81932731159031391143798828125</LongitudeDegrees>
            </Position>
            <AltitudeMeters>-11</AltitudeMeters>
            <DistanceMeters>NAN</DistanceMeters>
          </Trackpoint>
          <Trackpoint>
            <Time>2022-09-24T15:43:43.000Z</Time>
            <Position>
              <LatitudeDegrees>43.3464427851140499114990234375</LatitudeDegrees>
              <LongitudeDegrees>-2.81938883475959300994873046875</LongitudeDegrees>
            </Position>
            <AltitudeMeters>-10.80000019073486328125</AltitudeMeters>
            <DistanceMeters>NAN</DistanceMeters>
          </Trackpoint>
          <Trackpoint>
            <Time>2022-09-24T15:43:44.000Z</Time>
            <Position>
              <LatitudeDegrees>43.3464655838906764984130859375</LatitudeDegrees>
              <LongitudeDegrees>-2.81945019029080867767333984375</LongitudeDegrees>
            </Position>
            <AltitudeMeters>-10.80000019073486328125</AltitudeMeters>
            <DistanceMeters>NAN</DistanceMeters>
          </Trackpoint>
          <Trackpoint>
            <Time>2022-09-24T15:43:45.000Z</Time>
            <Position>
              <LatitudeDegrees>43.34649123251438140869140625</LatitudeDegrees>
              <LongitudeDegrees>-2.81951330602169036865234375</LongitudeDegrees>
            </Position>
            <AltitudeMeters>-10.80000019073486328125</AltitudeMeters>
            <DistanceMeters>NAN</DistanceMeters>
          </Trackpoint>
          <Trackpoint>
            <Time>2022-09-24T15:43:46.000Z</Time>
            <Position>
              <LatitudeDegrees>43.3465182222425937652587890625</LatitudeDegrees>
              <LongitudeDegrees>-2.81957725994288921356201171875</LongitudeDegrees>
            </Position>
            <AltitudeMeters>-10.3999996185302734375</AltitudeMeters>
            <DistanceMeters>NAN</DistanceMeters>
          </Trackpoint>
          <Trackpoint>
            <Time>2022-09-24T15:43:47.000Z</Time>
            <Position>
              <LatitudeDegrees>43.34654244594275951385498046875</LatitudeDegrees>
              <LongitudeDegrees>-2.81963861547410488128662109375</LongitudeDegrees>
            </Position>
            <AltitudeMeters>-10.3999996185302734375</AltitudeMeters>
            <DistanceMeters>NAN</DistanceMeters>
          </Trackpoint>
          <Trackpoint>
            <Time>2022-09-24T15:43:48.000Z</Time>
            <Position>
              <LatitudeDegrees>43.34654244594275951385498046875</LatitudeDegrees>
              <LongitudeDegrees>-2.81963861547410488128662109375</LongitudeDegrees>
            </Position>
            <AltitudeMeters>-10.19999980926513671875</AltitudeMeters>
            <DistanceMeters>NAN</DistanceMeters>
          </Trackpoint>
          <Trackpoint>
            <Time>2022-09-24T15:43:49.000Z</Time>
            <Position>
              <LatitudeDegrees>43.3465933240950107574462890625</LatitudeDegrees>
              <LongitudeDegrees>-2.81975395046174526214599609375</LongitudeDegrees>
            </Position>
            <AltitudeMeters>-10</AltitudeMeters>
            <DistanceMeters>NAN</DistanceMeters>
          </Trackpoint>
          <Trackpoint>
            <Time>2022-09-24T15:43:50.000Z</Time>
            <Position>
              <LatitudeDegrees>43.3466201461851596832275390625</LatitudeDegrees>
              <LongitudeDegrees>-2.81981228850781917572021484375</LongitudeDegrees>
            </Position>
            <AltitudeMeters>-10</AltitudeMeters>
            <DistanceMeters>NAN</DistanceMeters>
          </Trackpoint>
          <Trackpoint>
            <Time>2022-09-24T15:43:51.000Z</Time>
            <Position>
              <LatitudeDegrees>43.346648477017879486083984375</LatitudeDegrees>
              <LongitudeDegrees>-2.81986978836357593536376953125</LongitudeDegrees>
            </Position>
            <AltitudeMeters>-9.6000003814697265625</AltitudeMeters>
            <DistanceMeters>NAN</DistanceMeters>
          </Trackpoint>
          <Trackpoint>
            <Time>2022-09-24T15:43:52.000Z</Time>
            <Position>
              <LatitudeDegrees>43.3466784842312335968017578125</LatitudeDegrees>
              <LongitudeDegrees>-2.819928042590618133544921875</LongitudeDegrees>
            </Position>
            <AltitudeMeters>-9.6000003814697265625</AltitudeMeters>
            <DistanceMeters>NAN</DistanceMeters>
          </Trackpoint>
          <Trackpoint>
            <Time>2022-09-24T15:43:53.000Z</Time>
            <Position>
              <LatitudeDegrees>43.34671092219650745391845703125</LatitudeDegrees>
              <LongitudeDegrees>-2.8199820220470428466796875</LongitudeDegrees>
            </Position>
            <AltitudeMeters>-9.6000003814697265625</AltitudeMeters>
            <DistanceMeters>NAN</DistanceMeters>
          </Trackpoint>
          <Trackpoint>
            <Time>2022-09-24T15:43:54.000Z</Time>
            <Position>
              <LatitudeDegrees>43.3467441983520984649658203125</LatitudeDegrees>
              <LongitudeDegrees>-2.82003306783735752105712890625</LongitudeDegrees>
            </Position>
            <AltitudeMeters>-9.6000003814697265625</AltitudeMeters>
            <DistanceMeters>NAN</DistanceMeters>
          </Trackpoint>
          <Trackpoint>
            <Time>2022-09-24T15:43:55.000Z</Time>
            <Position>
              <LatitudeDegrees>43.3467753790318965911865234375</LatitudeDegrees>
              <LongitudeDegrees>-2.8200866281986236572265625</LongitudeDegrees>
            </Position>
            <AltitudeMeters>-9.6000003814697265625</AltitudeMeters>
            <DistanceMeters>NAN</DistanceMeters>
          </Trackpoint>
          <Trackpoint>
            <Time>2022-09-24T15:43:56.000Z</Time>
            <Position>
              <LatitudeDegrees>43.34680865518748760223388671875</LatitudeDegrees>
              <LongitudeDegrees>-2.8201414458453655242919921875</LongitudeDegrees>
            </Position>
            <AltitudeMeters>-9.6000003814697265625</AltitudeMeters>
            <DistanceMeters>NAN</DistanceMeters>
          </Trackpoint>
          <Trackpoint>
            <Time>2022-09-24T15:43:57.000Z</Time>
            <Position>
              <LatitudeDegrees>43.34684394299983978271484375</LatitudeDegrees>
              <LongitudeDegrees>-2.82019483856856822967529296875</LongitudeDegrees>
            </Position>
            <AltitudeMeters>-9.6000003814697265625</AltitudeMeters>
            <DistanceMeters>NAN</DistanceMeters>
          </Trackpoint>
          <Trackpoint>
            <Time>2022-09-24T15:43:58.000Z</Time>
            <Position>
              <LatitudeDegrees>43.346877805888652801513671875</LatitudeDegrees>
              <LongitudeDegrees>-2.82024529762566089630126953125</LongitudeDegrees>
            </Position>
            <AltitudeMeters>-9.6000003814697265625</AltitudeMeters>
            <DistanceMeters>NAN</DistanceMeters>
          </Trackpoint>
          <Trackpoint>
            <Time>2022-09-24T15:43:59.000Z</Time>
            <Position>
              <LatitudeDegrees>43.3469103276729583740234375</LatitudeDegrees>
              <LongitudeDegrees>-2.82029760070145130157470703125</LongitudeDegrees>
            </Position>
            <AltitudeMeters>-9.19999980926513671875</AltitudeMeters>
            <DistanceMeters>NAN</DistanceMeters>
          </Trackpoint>
          <Trackpoint>
            <Time>2022-09-24T15:44:00.000Z</Time>
            <Position>
              <LatitudeDegrees>43.34694310091435909271240234375</LatitudeDegrees>
              <LongitudeDegrees>-2.8203489817678928375244140625</LongitudeDegrees>
            </Position>
            <AltitudeMeters>-9</AltitudeMeters>
            <DistanceMeters>NAN</DistanceMeters>
          </Trackpoint>
          <Trackpoint>
            <Time>2022-09-24T15:44:01.000Z</Time>
            <Position>
              <LatitudeDegrees>43.34694310091435909271240234375</LatitudeDegrees>
              <LongitudeDegrees>-2.8203489817678928375244140625</LongitudeDegrees>
            </Position>
            <AltitudeMeters>-9</AltitudeMeters>
            <DistanceMeters>NAN</DistanceMeters>
          </Trackpoint>
          <Trackpoint>
            <Time>2022-09-24T15:44:02.000Z</Time>
            <Position>
              <LatitudeDegrees>43.34701384417712688446044921875</LatitudeDegrees>
              <LongitudeDegrees>-2.8204492293298244476318359375</LongitudeDegrees>
            </Position>
            <AltitudeMeters>-9</AltitudeMeters>
            <DistanceMeters>NAN</DistanceMeters>
          </Trackpoint>
          <Trackpoint>
            <Time>2022-09-24T15:44:03.000Z</Time>
            <Position>
              <LatitudeDegrees>43.347050808370113372802734375</LatitudeDegrees>
              <LongitudeDegrees>-2.8204998560249805450439453125</LongitudeDegrees>
            </Position>
            <AltitudeMeters>-9</AltitudeMeters>
            <DistanceMeters>NAN</DistanceMeters>
          </Trackpoint>
          <Trackpoint>
            <Time>2022-09-24T15:44:04.000Z</Time>
            <Position>
              <LatitudeDegrees>43.34708534181118011474609375</LatitudeDegrees>
              <LongitudeDegrees>-2.82055132091045379638671875</LongitudeDegrees>
            </Position>
            <AltitudeMeters>-9</AltitudeMeters>
            <DistanceMeters>NAN</DistanceMeters>
          </Trackpoint>
          <Trackpoint>
            <Time>2022-09-24T15:44:05.000Z</Time>
            <Position>
              <LatitudeDegrees>43.34711845032870769500732421875</LatitudeDegrees>
              <LongitudeDegrees>-2.82060521654784679412841796875</LongitudeDegrees>
            </Position>
            <AltitudeMeters>-9</AltitudeMeters>
            <DistanceMeters>NAN</DistanceMeters>
          </Trackpoint>
          <Trackpoint>
            <Time>2022-09-24T15:44:06.000Z</Time>
            <Position>
              <LatitudeDegrees>43.34715398959815502166748046875</LatitudeDegrees>
              <LongitudeDegrees>-2.82065986655652523040771484375</LongitudeDegrees>
            </Position>
            <AltitudeMeters>-8.19999980926513671875</AltitudeMeters>
            <DistanceMeters>NAN</DistanceMeters>
          </Trackpoint>
          <Trackpoint>
            <Time>2022-09-24T15:44:07.000Z</Time>
            <Position>
              <LatitudeDegrees>43.34718852303922176361083984375</LatitudeDegrees>
              <LongitudeDegrees>-2.8207161091268062591552734375</LongitudeDegrees>
            </Position>
            <AltitudeMeters>-8.19999980926513671875</AltitudeMeters>
            <DistanceMeters>NAN</DistanceMeters>
          </Trackpoint>
          <Trackpoint>
            <Time>2022-09-24T15:44:08.000Z</Time>
            <Position>
              <LatitudeDegrees>43.347222805023193359375</LatitudeDegrees>
              <LongitudeDegrees>-2.82076950185000896453857421875</LongitudeDegrees>
            </Position>
            <AltitudeMeters>-8</AltitudeMeters>
            <DistanceMeters>NAN</DistanceMeters>
          </Trackpoint>
          <Trackpoint>
            <Time>2022-09-24T15:44:09.000Z</Time>
            <Position>
              <LatitudeDegrees>43.34725826047360897064208984375</LatitudeDegrees>
              <LongitudeDegrees>-2.8208210505545139312744140625</LongitudeDegrees>
            </Position>
            <AltitudeMeters>-7.400000095367431640625</AltitudeMeters>
            <DistanceMeters>NAN</DistanceMeters>
          </Trackpoint>
          <Trackpoint>
            <Time>2022-09-24T15:44:10.000Z</Time>
            <Position>
              <LatitudeDegrees>43.3472940512001514434814453125</LatitudeDegrees>
              <LongitudeDegrees>-2.82087243162095546722412109375</LongitudeDegrees>
            </Position>
            <AltitudeMeters>-7.400000095367431640625</AltitudeMeters>
            <DistanceMeters>NAN</DistanceMeters>
          </Trackpoint>
          <Trackpoint>
            <Time>2022-09-24T15:44:11.000Z</Time>
            <Position>
              <LatitudeDegrees>43.34732950665056705474853515625</LatitudeDegrees>
              <LongitudeDegrees>-2.82092523761093616485595703125</LongitudeDegrees>
            </Position>
            <AltitudeMeters>-7.400000095367431640625</AltitudeMeters>
            <DistanceMeters>NAN</DistanceMeters>
          </Trackpoint>
          <Trackpoint>
            <Time>2022-09-24T15:44:12.000Z</Time>
            <Position>
              <LatitudeDegrees>43.3473631180822849273681640625</LatitudeDegrees>
              <LongitudeDegrees>-2.8209772892296314239501953125</LongitudeDegrees>
            </Position>
            <AltitudeMeters>-7.19999980926513671875</AltitudeMeters>
            <DistanceMeters>NAN</DistanceMeters>
          </Trackpoint>
          <Trackpoint>
            <Time>2022-09-24T15:44:13.000Z</Time>
            <Position>
              <LatitudeDegrees>43.347397483885288238525390625</LatitudeDegrees>
              <LongitudeDegrees>-2.821025736629962921142578125</LongitudeDegrees>
            </Position>
            <AltitudeMeters>-7</AltitudeMeters>
            <DistanceMeters>NAN</DistanceMeters>
          </Trackpoint>
          <Trackpoint>
            <Time>2022-09-24T15:44:14.000Z</Time>
            <Position>
              <LatitudeDegrees>43.347432352602481842041015625</LatitudeDegrees>
              <LongitudeDegrees>-2.8210768662393093109130859375</LongitudeDegrees>
            </Position>
            <AltitudeMeters>-7</AltitudeMeters>
            <DistanceMeters>NAN</DistanceMeters>
          </Trackpoint>
          <Trackpoint>
            <Time>2022-09-24T15:44:15.000Z</Time>
            <Position>
              <LatitudeDegrees>43.3474663831293582916259765625</LatitudeDegrees>
              <LongitudeDegrees>-2.8211325220763683319091796875</LongitudeDegrees>
            </Position>
            <AltitudeMeters>-7</AltitudeMeters>
            <DistanceMeters>NAN</DistanceMeters>
          </Trackpoint>
          <Trackpoint>
            <Time>2022-09-24T15:44:16.000Z</Time>
            <Position>
              <LatitudeDegrees>43.34750150330364704132080078125</LatitudeDegrees>
              <LongitudeDegrees>-2.8211854957044124603271484375</LongitudeDegrees>
            </Position>
            <AltitudeMeters>-6.80000019073486328125</AltitudeMeters>
            <DistanceMeters>NAN</DistanceMeters>
          </Trackpoint>
          <Trackpoint>
            <Time>2022-09-24T15:44:17.000Z</Time>
            <Position>
              <LatitudeDegrees>43.347536623477935791015625</LatitudeDegrees>
              <LongitudeDegrees>-2.821238972246646881103515625</LongitudeDegrees>
            </Position>
            <AltitudeMeters>-6.80000019073486328125</AltitudeMeters>
            <DistanceMeters>NAN</DistanceMeters>
          </Trackpoint>
          <Trackpoint>
            <Time>2022-09-24T15:44:18.000Z</Time>
            <Position>
              <LatitudeDegrees>43.3475743420422077178955078125</LatitudeDegrees>
              <LongitudeDegrees>-2.82128867693245410919189453125</LongitudeDegrees>
            </Position>
            <AltitudeMeters>-6.599999904632568359375</AltitudeMeters>
            <DistanceMeters>NAN</DistanceMeters>
          </Trackpoint>
          <Trackpoint>
            <Time>2022-09-24T15:44:19.000Z</Time>
            <Position>
              <LatitudeDegrees>43.34760912694036960601806640625</LatitudeDegrees>
              <LongitudeDegrees>-2.821337878704071044921875</LongitudeDegrees>
            </Position>
            <AltitudeMeters>-6.400000095367431640625</AltitudeMeters>
            <DistanceMeters>NAN</DistanceMeters>
          </Trackpoint>
          <Trackpoint>
            <Time>2022-09-24T15:44:20.000Z</Time>
            <Position>
              <LatitudeDegrees>43.34764399565756320953369140625</LatitudeDegrees>
              <LongitudeDegrees>-2.82138741575181484222412109375</LongitudeDegrees>
            </Position>
            <AltitudeMeters>-6</AltitudeMeters>
            <DistanceMeters>NAN</DistanceMeters>
          </Trackpoint>
          <Trackpoint>
            <Time>2022-09-24T15:44:21.000Z</Time>
            <Position>
              <LatitudeDegrees>43.34768020547926425933837890625</LatitudeDegrees>
              <LongitudeDegrees>-2.82143569551408290863037109375</LongitudeDegrees>
            </Position>
            <AltitudeMeters>-6</AltitudeMeters>
            <DistanceMeters>NAN</DistanceMeters>
          </Trackpoint>
          <Trackpoint>
            <Time>2022-09-24T15:44:22.000Z</Time>
            <Position>
              <LatitudeDegrees>43.3477151580154895782470703125</LatitudeDegrees>
              <LongitudeDegrees>-2.8214848972856998443603515625</LongitudeDegrees>
            </Position>
            <AltitudeMeters>-6</AltitudeMeters>
            <DistanceMeters>NAN</DistanceMeters>
          </Trackpoint>
          <Trackpoint>
            <Time>2022-09-24T15:44:23.000Z</Time>
            <Position>
              <LatitudeDegrees>43.34774943999946117401123046875</LatitudeDegrees>
              <LongitudeDegrees>-2.821537367999553680419921875</LongitudeDegrees>
            </Position>
            <AltitudeMeters>-5.599999904632568359375</AltitudeMeters>
            <DistanceMeters>NAN</DistanceMeters>
          </Trackpoint>
          <Trackpoint>
            <Time>2022-09-24T15:44:24.000Z</Time>
            <Position>
              <LatitudeDegrees>43.34778296761214733123779296875</LatitudeDegrees>
              <LongitudeDegrees>-2.82158807851374149322509765625</LongitudeDegrees>
            </Position>
            <AltitudeMeters>-5.599999904632568359375</AltitudeMeters>
            <DistanceMeters>NAN</DistanceMeters>
          </Trackpoint>
          <Trackpoint>
            <Time>2022-09-24T15:44:25.000Z</Time>
            <Position>
              <LatitudeDegrees>43.34781465120613574981689453125</LatitudeDegrees>
              <LongitudeDegrees>-2.8216387890279293060302734375</LongitudeDegrees>
            </Position>
            <AltitudeMeters>-5.599999904632568359375</AltitudeMeters>
            <DistanceMeters>NAN</DistanceMeters>
          </Trackpoint>
          <Trackpoint>
            <Time>2022-09-24T15:44:26.000Z</Time>
            <Position>
              <LatitudeDegrees>43.34784398786723613739013671875</LatitudeDegrees>
              <LongitudeDegrees>-2.8216927684843540191650390625</LongitudeDegrees>
            </Position>
            <AltitudeMeters>-5.599999904632568359375</AltitudeMeters>
            <DistanceMeters>NAN</DistanceMeters>
          </Trackpoint>
          <Trackpoint>
            <Time>2022-09-24T15:44:27.000Z</Time>
            <Position>
              <LatitudeDegrees>43.347875587642192840576171875</LatitudeDegrees>
              <LongitudeDegrees>-2.82174624502658843994140625</LongitudeDegrees>
            </Position>
            <AltitudeMeters>-5.599999904632568359375</AltitudeMeters>
            <DistanceMeters>NAN</DistanceMeters>
          </Trackpoint>
          <Trackpoint>
            <Time>2022-09-24T15:44:28.000Z</Time>
            <Position>
              <LatitudeDegrees>43.34790467284619808197021484375</LatitudeDegrees>
              <LongitudeDegrees>-2.82179846428334712982177734375</LongitudeDegrees>
            </Position>
            <AltitudeMeters>-5.400000095367431640625</AltitudeMeters>
            <DistanceMeters>NAN</DistanceMeters>
          </Trackpoint>
          <Trackpoint>
            <Time>2022-09-24T15:44:29.000Z</Time>
            <Position>
              <LatitudeDegrees>43.3479327522218227386474609375</LatitudeDegrees>
              <LongitudeDegrees>-2.82185361720621585845947265625</LongitudeDegrees>
            </Position>
            <AltitudeMeters>-5.19999980926513671875</AltitudeMeters>
            <DistanceMeters>NAN</DistanceMeters>
          </Trackpoint>
          <Trackpoint>
            <Time>2022-09-24T15:44:30.000Z</Time>
            <Position>
              <LatitudeDegrees>43.34796049632132053375244140625</LatitudeDegrees>
              <LongitudeDegrees>-2.821904830634593963623046875</LongitudeDegrees>
            </Position>
            <AltitudeMeters>-5.19999980926513671875</AltitudeMeters>
            <DistanceMeters>NAN</DistanceMeters>
          </Trackpoint>
          <Trackpoint>
            <Time>2022-09-24T15:44:31.000Z</Time>
            <Position>
              <LatitudeDegrees>43.34798899479210376739501953125</LatitudeDegrees>
              <LongitudeDegrees>-2.8219586424529552459716796875</LongitudeDegrees>
            </Position>
            <AltitudeMeters>-5.19999980926513671875</AltitudeMeters>
            <DistanceMeters>NAN</DistanceMeters>
          </Trackpoint>
          <Trackpoint>
            <Time>2022-09-24T15:44:32.000Z</Time>
            <Position>
              <LatitudeDegrees>43.34801581688225269317626953125</LatitudeDegrees>
              <LongitudeDegrees>-2.82201237045228481292724609375</LongitudeDegrees>
            </Position>
            <AltitudeMeters>-5.19999980926513671875</AltitudeMeters>
            <DistanceMeters>NAN</DistanceMeters>
          </Trackpoint>
          <Trackpoint>
            <Time>2022-09-24T15:44:33.000Z</Time>
            <Position>
              <LatitudeDegrees>43.34803995676338672637939453125</LatitudeDegrees>
              <LongitudeDegrees>-2.8220652602612972259521484375</LongitudeDegrees>
            </Position>
            <AltitudeMeters>-5.19999980926513671875</AltitudeMeters>
            <DistanceMeters>NAN</DistanceMeters>
          </Trackpoint>
          <Trackpoint>
            <Time>2022-09-24T15:44:34.000Z</Time>
            <Position>
              <LatitudeDegrees>43.34806309081614017486572265625</LatitudeDegrees>
              <LongitudeDegrees>-2.82211882062256336212158203125</LongitudeDegrees>
            </Position>
            <AltitudeMeters>-4.19999980926513671875</AltitudeMeters>
            <DistanceMeters>NAN</DistanceMeters>
          </Trackpoint>
          <Trackpoint>
            <Time>2022-09-24T15:44:35.000Z</Time>
            <Position>
              <LatitudeDegrees>43.3480846323072910308837890625</LatitudeDegrees>
              <LongitudeDegrees>-2.82217380590736865997314453125</LongitudeDegrees>
            </Position>
            <AltitudeMeters>-4.19999980926513671875</AltitudeMeters>
            <DistanceMeters>NAN</DistanceMeters>
          </Trackpoint>
          <Trackpoint>
            <Time>2022-09-24T15:44:36.000Z</Time>
            <Position>
              <LatitudeDegrees>43.34810583852231502532958984375</LatitudeDegrees>
              <LongitudeDegrees>-2.822231389582157135009765625</LongitudeDegrees>
            </Position>
            <AltitudeMeters>-4.19999980926513671875</AltitudeMeters>
            <DistanceMeters>NAN</DistanceMeters>
          </Trackpoint>
          <Trackpoint>
            <Time>2022-09-24T15:44:37.000Z</Time>
            <Position>
              <LatitudeDegrees>43.348126374185085296630859375</LatitudeDegrees>
              <LongitudeDegrees>-2.82228939235210418701171875</LongitudeDegrees>
            </Position>
            <AltitudeMeters>-4.19999980926513671875</AltitudeMeters>
            <DistanceMeters>NAN</DistanceMeters>
          </Trackpoint>
          <Trackpoint>
            <Time>2022-09-24T15:44:38.000Z</Time>
            <Position>
              <LatitudeDegrees>43.34814640693366527557373046875</LatitudeDegrees>
              <LongitudeDegrees>-2.8223465569317340850830078125</LongitudeDegrees>
            </Position>
            <AltitudeMeters>-4.19999980926513671875</AltitudeMeters>
            <DistanceMeters>NAN</DistanceMeters>
          </Trackpoint>
          <Trackpoint>
            <Time>2022-09-24T15:44:39.000Z</Time>
            <Position>
              <LatitudeDegrees>43.34816702641546726226806640625</LatitudeDegrees>
              <LongitudeDegrees>-2.82240196131169795989990234375</LongitudeDegrees>
            </Position>
            <AltitudeMeters>-4</AltitudeMeters>
            <DistanceMeters>NAN</DistanceMeters>
          </Trackpoint>
          <Trackpoint>
            <Time>2022-09-24T15:44:40.000Z</Time>
            <Position>
              <LatitudeDegrees>43.348189406096935272216796875</LatitudeDegrees>
              <LongitudeDegrees>-2.82245493493974208831787109375</LongitudeDegrees>
            </Position>
            <AltitudeMeters>-3.7999999523162841796875</AltitudeMeters>
            <DistanceMeters>NAN</DistanceMeters>
          </Trackpoint>
          <Trackpoint>
            <Time>2022-09-24T15:44:41.000Z</Time>
            <Position>
              <LatitudeDegrees>43.3482117019593715667724609375</LatitudeDegrees>
              <LongitudeDegrees>-2.82250690273940563201904296875</LongitudeDegrees>
            </Position>
            <AltitudeMeters>-3.599999904632568359375</AltitudeMeters>
            <DistanceMeters>NAN</DistanceMeters>
          </Trackpoint>
          <Trackpoint>
            <Time>2022-09-24T15:44:42.000Z</Time>
            <Position>
              <LatitudeDegrees>43.34823106415569782257080078125</LatitudeDegrees>
              <LongitudeDegrees>-2.8225638158619403839111328125</LongitudeDegrees>
            </Position>
            <AltitudeMeters>-3.599999904632568359375</AltitudeMeters>
            <DistanceMeters>NAN</DistanceMeters>
          </Trackpoint>
          <Trackpoint>
            <Time>2022-09-24T15:44:43.000Z</Time>
            <Position>
              <LatitudeDegrees>43.3482445590198040008544921875</LatitudeDegrees>
              <LongitudeDegrees>-2.82261134125292301177978515625</LongitudeDegrees>
            </Position>
            <AltitudeMeters>-3</AltitudeMeters>
            <DistanceMeters>NAN</DistanceMeters>
          </Trackpoint>
          <Trackpoint>
            <Time>2022-09-24T15:44:44.000Z</Time>
            <Position>
              <LatitudeDegrees>43.34826207719743251800537109375</LatitudeDegrees>
              <LongitudeDegrees>-2.82266884110867977142333984375</LongitudeDegrees>
            </Position>
            <AltitudeMeters>-3</AltitudeMeters>
            <DistanceMeters>NAN</DistanceMeters>
          </Trackpoint>
          <Trackpoint>
            <Time>2022-09-24T15:44:45.000Z</Time>
            <Position>
              <LatitudeDegrees>43.34827951155602931976318359375</LatitudeDegrees>
              <LongitudeDegrees>-2.82272684387862682342529296875</LongitudeDegrees>
            </Position>
            <AltitudeMeters>-2.7999999523162841796875</AltitudeMeters>
            <DistanceMeters>NAN</DistanceMeters>
          </Trackpoint>
          <Trackpoint>
            <Time>2022-09-24T15:44:46.000Z</Time>
            <Position>
              <LatitudeDegrees>43.34829677827656269073486328125</LatitudeDegrees>
              <LongitudeDegrees>-2.82278501428663730621337890625</LongitudeDegrees>
            </Position>
            <AltitudeMeters>-2.2000000476837158203125</AltitudeMeters>
            <DistanceMeters>NAN</DistanceMeters>
          </Trackpoint>
          <Trackpoint>
            <Time>2022-09-24T15:44:47.000Z</Time>
            <Position>
              <LatitudeDegrees>43.34831505082547664642333984375</LatitudeDegrees>
              <LongitudeDegrees>-2.82284134067595005035400390625</LongitudeDegrees>
            </Position>
            <AltitudeMeters>-2.2000000476837158203125</AltitudeMeters>
            <DistanceMeters>NAN</DistanceMeters>
          </Trackpoint>
          <Trackpoint>
            <Time>2022-09-24T15:44:48.000Z</Time>
            <Position>
              <LatitudeDegrees>43.34833332337439060211181640625</LatitudeDegrees>
              <LongitudeDegrees>-2.8228990919888019561767578125</LongitudeDegrees>
            </Position>
            <AltitudeMeters>-2.2000000476837158203125</AltitudeMeters>
            <DistanceMeters>NAN</DistanceMeters>
          </Trackpoint>
          <Trackpoint>
            <Time>2022-09-24T15:44:49.000Z</Time>
            <Position>
              <LatitudeDegrees>43.34835226647555828094482421875</LatitudeDegrees>
              <LongitudeDegrees>-2.8229550831019878387451171875</LongitudeDegrees>
            </Position>
            <AltitudeMeters>-2</AltitudeMeters>
            <DistanceMeters>NAN</DistanceMeters>
          </Trackpoint>
          <Trackpoint>
            <Time>2022-09-24T15:44:50.000Z</Time>
            <Position>
              <LatitudeDegrees>43.34837154485285282135009765625</LatitudeDegrees>
              <LongitudeDegrees>-2.82301065512001514434814453125</LongitudeDegrees>
            </Position>
            <AltitudeMeters>-1.7999999523162841796875</AltitudeMeters>
            <DistanceMeters>NAN</DistanceMeters>
          </Trackpoint>
          <Trackpoint>
            <Time>2022-09-24T15:44:51.000Z</Time>
            <Position>
              <LatitudeDegrees>43.34837154485285282135009765625</LatitudeDegrees>
              <LongitudeDegrees>-2.82301065512001514434814453125</LongitudeDegrees>
            </Position>
            <AltitudeMeters>-1.7999999523162841796875</AltitudeMeters>
            <DistanceMeters>NAN</DistanceMeters>
          </Trackpoint>
          <Trackpoint>
            <Time>2022-09-24T15:44:52.000Z</Time>
            <Position>
              <LatitudeDegrees>43.348411358892917633056640625</LatitudeDegrees>
              <LongitudeDegrees>-2.82311945222318172454833984375</LongitudeDegrees>
            </Position>
            <AltitudeMeters>-1.7999999523162841796875</AltitudeMeters>
            <DistanceMeters>NAN</DistanceMeters>
          </Trackpoint>
          <Trackpoint>
            <Time>2022-09-24T15:44:53.000Z</Time>
            <Position>
              <LatitudeDegrees>43.3484353311359882354736328125</LatitudeDegrees>
              <LongitudeDegrees>-2.8231874294579029083251953125</LongitudeDegrees>
            </Position>
            <AltitudeMeters>-1.7999999523162841796875</AltitudeMeters>
            <DistanceMeters>NAN</DistanceMeters>
          </Trackpoint>
          <Trackpoint>
            <Time>2022-09-24T15:44:54.000Z</Time>
            <Position>
              <LatitudeDegrees>43.3484541065990924835205078125</LatitudeDegrees>
              <LongitudeDegrees>-2.82324434258043766021728515625</LongitudeDegrees>
            </Position>
            <AltitudeMeters>-1.7999999523162841796875</AltitudeMeters>
            <DistanceMeters>NAN</DistanceMeters>
          </Trackpoint>
          <Trackpoint>
            <Time>2022-09-24T15:44:55.000Z</Time>
            <Position>
              <LatitudeDegrees>43.34847212769091129302978515625</LatitudeDegrees>
              <LongitudeDegrees>-2.82329983077943325042724609375</LongitudeDegrees>
            </Position>
            <AltitudeMeters>-1</AltitudeMeters>
            <DistanceMeters>NAN</DistanceMeters>
          </Trackpoint>
          <Trackpoint>
            <Time>2022-09-24T15:44:56.000Z</Time>
            <Position>
              <LatitudeDegrees>43.348490484058856964111328125</LatitudeDegrees>
              <LongitudeDegrees>-2.8233554027974605560302734375</LongitudeDegrees>
            </Position>
            <AltitudeMeters>-0.60000002384185791015625</AltitudeMeters>
            <DistanceMeters>NAN</DistanceMeters>
          </Trackpoint>
          <Trackpoint>
            <Time>2022-09-24T15:44:57.000Z</Time>
            <Position>
              <LatitudeDegrees>43.348510265350341796875</LatitudeDegrees>
              <LongitudeDegrees>-2.82341198064386844635009765625</LongitudeDegrees>
            </Position>
            <AltitudeMeters>-0.60000002384185791015625</AltitudeMeters>
            <DistanceMeters>NAN</DistanceMeters>
          </Trackpoint>
          <Trackpoint>
            <Time>2022-09-24T15:44:58.000Z</Time>
            <Position>
              <LatitudeDegrees>43.348527364432811737060546875</LatitudeDegrees>
              <LongitudeDegrees>-2.82346780411899089813232421875</LongitudeDegrees>
            </Position>
            <AltitudeMeters>-0.4000000059604644775390625</AltitudeMeters>
            <DistanceMeters>NAN</DistanceMeters>
          </Trackpoint>
          <Trackpoint>
            <Time>2022-09-24T15:44:59.000Z</Time>
            <Position>
              <LatitudeDegrees>43.34854236803948879241943359375</LatitudeDegrees>
              <LongitudeDegrees>-2.8235153295099735260009765625</LongitudeDegrees>
            </Position>
            <AltitudeMeters>-0.4000000059604644775390625</AltitudeMeters>
            <DistanceMeters>NAN</DistanceMeters>
          </Trackpoint>
          <Trackpoint>
            <Time>2022-09-24T15:45:00.000Z</Time>
            <Position>
              <LatitudeDegrees>43.348561562597751617431640625</LatitudeDegrees>
              <LongitudeDegrees>-2.82357358373701572418212890625</LongitudeDegrees>
            </Position>
            <AltitudeMeters>-0.4000000059604644775390625</AltitudeMeters>
            <DistanceMeters>NAN</DistanceMeters>
          </Trackpoint>
          <Trackpoint>
            <Time>2022-09-24T15:45:01.000Z</Time>
            <Position>
              <LatitudeDegrees>43.3485813438892364501953125</LatitudeDegrees>
              <LongitudeDegrees>-2.8236336819827556610107421875</LongitudeDegrees>
            </Position>
            <AltitudeMeters>0</AltitudeMeters>
            <DistanceMeters>NAN</DistanceMeters>
          </Trackpoint>
          <Trackpoint>
            <Time>2022-09-24T15:45:02.000Z</Time>
            <Position>
              <LatitudeDegrees>43.34859936498105525970458984375</LatitudeDegrees>
              <LongitudeDegrees>-2.82369093038141727447509765625</LongitudeDegrees>
            </Position>
            <AltitudeMeters>0</AltitudeMeters>
            <DistanceMeters>NAN</DistanceMeters>
          </Trackpoint>
          <Trackpoint>
            <Time>2022-09-24T15:45:03.000Z</Time>
            <Position>
              <LatitudeDegrees>43.34862492978572845458984375</LatitudeDegrees>
              <LongitudeDegrees>-2.82375966198742389678955078125</LongitudeDegrees>
            </Position>
            <AltitudeMeters>0</AltitudeMeters>
            <DistanceMeters>NAN</DistanceMeters>
          </Trackpoint>
          <Trackpoint>
            <Time>2022-09-24T15:45:04.000Z</Time>
            <Position>
              <LatitudeDegrees>43.34864311851561069488525390625</LatitudeDegrees>
              <LongitudeDegrees>-2.82380777411162853240966796875</LongitudeDegrees>
            </Position>
            <AltitudeMeters>0</AltitudeMeters>
            <DistanceMeters>NAN</DistanceMeters>
          </Trackpoint>
          <Trackpoint>
            <Time>2022-09-24T15:45:05.000Z</Time>
            <Position>
              <LatitudeDegrees>43.3486671745777130126953125</LatitudeDegrees>
              <LongitudeDegrees>-2.82387902028858661651611328125</LongitudeDegrees>
            </Position>
            <AltitudeMeters>0</AltitudeMeters>
            <DistanceMeters>NAN</DistanceMeters>
          </Trackpoint>
          <Trackpoint>
            <Time>2022-09-24T15:45:06.000Z</Time>
            <Position>
              <LatitudeDegrees>43.348684944212436676025390625</LatitudeDegrees>
              <LongitudeDegrees>-2.8239226900041103363037109375</LongitudeDegrees>
            </Position>
            <AltitudeMeters>0</AltitudeMeters>
            <DistanceMeters>NAN</DistanceMeters>
          </Trackpoint>
          <Trackpoint>
            <Time>2022-09-24T15:45:07.000Z</Time>
            <Position>
              <LatitudeDegrees>43.3487038873136043548583984375</LatitudeDegrees>
              <LongitudeDegrees>-2.8239816986024379730224609375</LongitudeDegrees>
            </Position>
            <AltitudeMeters>0.20000000298023223876953125</AltitudeMeters>
            <DistanceMeters>NAN</DistanceMeters>
          </Trackpoint>
          <Trackpoint>
            <Time>2022-09-24T15:45:08.000Z</Time>
            <Position>
              <LatitudeDegrees>43.3487250097095966339111328125</LatitudeDegrees>
              <LongitudeDegrees>-2.82404196448624134063720703125</LongitudeDegrees>
            </Position>
            <AltitudeMeters>0.20000000298023223876953125</AltitudeMeters>
            <DistanceMeters>NAN</DistanceMeters>
          </Trackpoint>
          <Trackpoint>
            <Time>2022-09-24T15:45:09.000Z</Time>
            <Position>
              <LatitudeDegrees>43.3487478084862232208251953125</LatitudeDegrees>
              <LongitudeDegrees>-2.8241017274558544158935546875</LongitudeDegrees>
            </Position>
            <AltitudeMeters>0.20000000298023223876953125</AltitudeMeters>
            <DistanceMeters>NAN</DistanceMeters>
          </Trackpoint>
          <Trackpoint>
            <Time>2022-09-24T15:45:10.000Z</Time>
            <Position>
              <LatitudeDegrees>43.3487742953002452850341796875</LatitudeDegrees>
              <LongitudeDegrees>-2.8241738118231296539306640625</LongitudeDegrees>
            </Position>
            <AltitudeMeters>0.20000000298023223876953125</AltitudeMeters>
            <DistanceMeters>NAN</DistanceMeters>
          </Trackpoint>
          <Trackpoint>
            <Time>2022-09-24T15:45:11.000Z</Time>
            <Position>
              <LatitudeDegrees>43.3487970940768718719482421875</LatitudeDegrees>
              <LongitudeDegrees>-2.82423525117337703704833984375</LongitudeDegrees>
            </Position>
            <AltitudeMeters>0.20000000298023223876953125</AltitudeMeters>
            <DistanceMeters>NAN</DistanceMeters>
          </Trackpoint>
          <Trackpoint>
            <Time>2022-09-24T15:45:12.000Z</Time>
            <Position>
              <LatitudeDegrees>43.3488175459206104278564453125</LatitudeDegrees>
              <LongitudeDegrees>-2.8242975287139415740966796875</LongitudeDegrees>
            </Position>
            <AltitudeMeters>0.4000000059604644775390625</AltitudeMeters>
            <DistanceMeters>NAN</DistanceMeters>
          </Trackpoint>
          <Trackpoint>
            <Time>2022-09-24T15:45:13.000Z</Time>
            <Position>
              <LatitudeDegrees>43.34883959032595157623291015625</LatitudeDegrees>
              <LongitudeDegrees>-2.8243620693683624267578125</LongitudeDegrees>
            </Position>
            <AltitudeMeters>0.800000011920928955078125</AltitudeMeters>
            <DistanceMeters>NAN</DistanceMeters>
          </Trackpoint>
          <Trackpoint>
            <Time>2022-09-24T15:45:14.000Z</Time>
            <Position>
              <LatitudeDegrees>43.34886901080608367919921875</LatitudeDegrees>
              <LongitudeDegrees>-2.8244242630898952484130859375</LongitudeDegrees>
            </Position>
            <AltitudeMeters>0.800000011920928955078125</AltitudeMeters>
            <DistanceMeters>NAN</DistanceMeters>
          </Trackpoint>
          <Trackpoint>
            <Time>2022-09-24T15:45:15.000Z</Time>
            <Position>
              <LatitudeDegrees>43.34889507852494716644287109375</LatitudeDegrees>
              <LongitudeDegrees>-2.82449173741042613983154296875</LongitudeDegrees>
            </Position>
            <AltitudeMeters>0.800000011920928955078125</AltitudeMeters>
            <DistanceMeters>NAN</DistanceMeters>
          </Trackpoint>
          <Trackpoint>
            <Time>2022-09-24T15:45:16.000Z</Time>
            <Position>
              <LatitudeDegrees>43.34891972132027149200439453125</LatitudeDegrees>
              <LongitudeDegrees>-2.824563570320606231689453125</LongitudeDegrees>
            </Position>
            <AltitudeMeters>0.60000002384185791015625</AltitudeMeters>
            <DistanceMeters>NAN</DistanceMeters>
          </Trackpoint>
          <Trackpoint>
            <Time>2022-09-24T15:45:17.000Z</Time>
            <Position>
              <LatitudeDegrees>43.34894520230591297149658203125</LatitudeDegrees>
              <LongitudeDegrees>-2.82463473267853260040283203125</LongitudeDegrees>
            </Position>
            <AltitudeMeters>0.60000002384185791015625</AltitudeMeters>
            <DistanceMeters>NAN</DistanceMeters>
          </Trackpoint>
          <Trackpoint>
            <Time>2022-09-24T15:45:18.000Z</Time>
            <Position>
              <LatitudeDegrees>43.34896950982511043548583984375</LatitudeDegrees>
              <LongitudeDegrees>-2.82470497302711009979248046875</LongitudeDegrees>
            </Position>
            <AltitudeMeters>0.60000002384185791015625</AltitudeMeters>
            <DistanceMeters>NAN</DistanceMeters>
          </Trackpoint>
          <Trackpoint>
            <Time>2022-09-24T15:45:19.000Z</Time>
            <Position>
              <LatitudeDegrees>43.34896950982511043548583984375</LatitudeDegrees>
              <LongitudeDegrees>-2.82470497302711009979248046875</LongitudeDegrees>
            </Position>
            <AltitudeMeters>0.60000002384185791015625</AltitudeMeters>
            <DistanceMeters>NAN</DistanceMeters>
          </Trackpoint>
          <Trackpoint>
            <Time>2022-09-24T15:45:20.000Z</Time>
            <Position>
              <LatitudeDegrees>43.34902348928153514862060546875</LatitudeDegrees>
              <LongitudeDegrees>-2.82485090196132659912109375</LongitudeDegrees>
            </Position>
            <AltitudeMeters>0.20000000298023223876953125</AltitudeMeters>
            <DistanceMeters>NAN</DistanceMeters>
          </Trackpoint>
          <Trackpoint>
            <Time>2022-09-24T15:45:21.000Z</Time>
            <Position>
              <LatitudeDegrees>43.3490525744855403900146484375</LatitudeDegrees>
              <LongitudeDegrees>-2.82492332160472869873046875</LongitudeDegrees>
            </Position>
            <AltitudeMeters>0</AltitudeMeters>
            <DistanceMeters>NAN</DistanceMeters>
          </Trackpoint>
          <Trackpoint>
            <Time>2022-09-24T15:45:22.000Z</Time>
            <Position>
              <LatitudeDegrees>43.34908165968954563140869140625</LatitudeDegrees>
              <LongitudeDegrees>-2.82499783672392368316650390625</LongitudeDegrees>
            </Position>
            <AltitudeMeters>0</AltitudeMeters>
            <DistanceMeters>NAN</DistanceMeters>
          </Trackpoint>
          <Trackpoint>
            <Time>2022-09-24T15:45:23.000Z</Time>
            <Position>
              <LatitudeDegrees>43.34910999052226543426513671875</LatitudeDegrees>
              <LongitudeDegrees>-2.82507612369954586029052734375</LongitudeDegrees>
            </Position>
            <AltitudeMeters>0</AltitudeMeters>
            <DistanceMeters>NAN</DistanceMeters>
          </Trackpoint>
          <Trackpoint>
            <Time>2022-09-24T15:45:24.000Z</Time>
            <Position>
              <LatitudeDegrees>43.34913748316466808319091796875</LatitudeDegrees>
              <LongitudeDegrees>-2.82515625469386577606201171875</LongitudeDegrees>
            </Position>
            <AltitudeMeters>0</AltitudeMeters>
            <DistanceMeters>NAN</DistanceMeters>
          </Trackpoint>
          <Trackpoint>
            <Time>2022-09-24T15:45:25.000Z</Time>
            <Position>
              <LatitudeDegrees>43.3491633832454681396484375</LatitudeDegrees>
              <LongitudeDegrees>-2.8252379782497882843017578125</LongitudeDegrees>
            </Position>
            <AltitudeMeters>0</AltitudeMeters>
            <DistanceMeters>NAN</DistanceMeters>
          </Trackpoint>
          <Trackpoint>
            <Time>2022-09-24T15:45:26.000Z</Time>
            <Position>
              <LatitudeDegrees>43.34919431246817111968994140625</LatitudeDegrees>
              <LongitudeDegrees>-2.8253171034157276153564453125</LongitudeDegrees>
            </Position>
            <AltitudeMeters>0</AltitudeMeters>
            <DistanceMeters>NAN</DistanceMeters>
          </Trackpoint>
          <Trackpoint>
            <Time>2022-09-24T15:45:27.000Z</Time>
            <Position>
              <LatitudeDegrees>43.34922197274863719940185546875</LatitudeDegrees>
              <LongitudeDegrees>-2.8253974020481109619140625</LongitudeDegrees>
            </Position>
            <AltitudeMeters>-0.60000002384185791015625</AltitudeMeters>
            <DistanceMeters>NAN</DistanceMeters>
          </Trackpoint>
          <Trackpoint>
            <Time>2022-09-24T15:45:28.000Z</Time>
            <Position>
              <LatitudeDegrees>43.3492487110197544097900390625</LatitudeDegrees>
              <LongitudeDegrees>-2.8254766948521137237548828125</LongitudeDegrees>
            </Position>
            <AltitudeMeters>-0.800000011920928955078125</AltitudeMeters>
            <DistanceMeters>NAN</DistanceMeters>
          </Trackpoint>
          <Trackpoint>
            <Time>2022-09-24T15:45:29.000Z</Time>
            <Position>
              <LatitudeDegrees>43.3492808975279331207275390625</LatitudeDegrees>
              <LongitudeDegrees>-2.82555364072322845458984375</LongitudeDegrees>
            </Position>
            <AltitudeMeters>-0.60000002384185791015625</AltitudeMeters>
            <DistanceMeters>NAN</DistanceMeters>
          </Trackpoint>
          <Trackpoint>
            <Time>2022-09-24T15:45:30.000Z</Time>
            <Position>
              <LatitudeDegrees>43.34931534714996814727783203125</LatitudeDegrees>
              <LongitudeDegrees>-2.8256295807659626007080078125</LongitudeDegrees>
            </Position>
            <AltitudeMeters>-0.800000011920928955078125</AltitudeMeters>
            <DistanceMeters>NAN</DistanceMeters>
          </Trackpoint>
          <Trackpoint>
            <Time>2022-09-24T15:45:31.000Z</Time>
            <Position>
              <LatitudeDegrees>43.34934636019170284271240234375</LatitudeDegrees>
              <LongitudeDegrees>-2.8257085382938385009765625</LongitudeDegrees>
            </Position>
            <AltitudeMeters>-0.800000011920928955078125</AltitudeMeters>
            <DistanceMeters>NAN</DistanceMeters>
          </Trackpoint>
          <Trackpoint>
            <Time>2022-09-24T15:45:32.000Z</Time>
            <Position>
              <LatitudeDegrees>43.3493752777576446533203125</LatitudeDegrees>
              <LongitudeDegrees>-2.8257928602397441864013671875</LongitudeDegrees>
            </Position>
            <AltitudeMeters>-0.800000011920928955078125</AltitudeMeters>
            <DistanceMeters>NAN</DistanceMeters>
          </Trackpoint>
          <Trackpoint>
            <Time>2022-09-24T15:45:33.000Z</Time>
            <Position>
              <LatitudeDegrees>43.34940285421907901763916015625</LatitudeDegrees>
              <LongitudeDegrees>-2.82588095404207706451416015625</LongitudeDegrees>
            </Position>
            <AltitudeMeters>-0.800000011920928955078125</AltitudeMeters>
            <DistanceMeters>NAN</DistanceMeters>
          </Trackpoint>
          <Trackpoint>
            <Time>2022-09-24T15:45:34.000Z</Time>
            <Position>
              <LatitudeDegrees>43.3494334481656551361083984375</LatitudeDegrees>
              <LongitudeDegrees>-2.8259675391018390655517578125</LongitudeDegrees>
            </Position>
            <AltitudeMeters>-0.800000011920928955078125</AltitudeMeters>
            <DistanceMeters>NAN</DistanceMeters>
          </Trackpoint>
          <Trackpoint>
            <Time>2022-09-24T15:45:35.000Z</Time>
            <Position>
              <LatitudeDegrees>43.34946504794061183929443359375</LatitudeDegrees>
              <LongitudeDegrees>-2.82605295069515705108642578125</LongitudeDegrees>
            </Position>
            <AltitudeMeters>-1.39999997615814208984375</AltitudeMeters>
            <DistanceMeters>NAN</DistanceMeters>
          </Trackpoint>
          <Trackpoint>
            <Time>2022-09-24T15:45:36.000Z</Time>
            <Position>
              <LatitudeDegrees>43.349496312439441680908203125</LatitudeDegrees>
              <LongitudeDegrees>-2.8261381946504116058349609375</LongitudeDegrees>
            </Position>
            <AltitudeMeters>-1.39999997615814208984375</AltitudeMeters>
            <DistanceMeters>NAN</DistanceMeters>
          </Trackpoint>
          <Trackpoint>
            <Time>2022-09-24T15:45:37.000Z</Time>
            <Position>
              <LatitudeDegrees>43.34952824749052524566650390625</LatitudeDegrees>
              <LongitudeDegrees>-2.8262260369956493377685546875</LongitudeDegrees>
            </Position>
            <AltitudeMeters>-1.39999997615814208984375</AltitudeMeters>
            <DistanceMeters>NAN</DistanceMeters>
          </Trackpoint>
          <Trackpoint>
            <Time>2022-09-24T15:45:38.000Z</Time>
            <Position>
              <LatitudeDegrees>43.34956127218902111053466796875</LatitudeDegrees>
              <LongitudeDegrees>-2.82630809582769870758056640625</LongitudeDegrees>
            </Position>
            <AltitudeMeters>-1.39999997615814208984375</AltitudeMeters>
            <DistanceMeters>NAN</DistanceMeters>
          </Trackpoint>
          <Trackpoint>
            <Time>2022-09-24T15:45:39.000Z</Time>
            <Position>
              <LatitudeDegrees>43.3495930396020412445068359375</LatitudeDegrees>
              <LongitudeDegrees>-2.826390825212001800537109375</LongitudeDegrees>
            </Position>
            <AltitudeMeters>-1.39999997615814208984375</AltitudeMeters>
            <DistanceMeters>NAN</DistanceMeters>
          </Trackpoint>
          <Trackpoint>
            <Time>2022-09-24T15:45:40.000Z</Time>
            <Position>
              <LatitudeDegrees>43.3496248908340930938720703125</LatitudeDegrees>
              <LongitudeDegrees>-2.8264756500720977783203125</LongitudeDegrees>
            </Position>
            <AltitudeMeters>-1.39999997615814208984375</AltitudeMeters>
            <DistanceMeters>NAN</DistanceMeters>
          </Trackpoint>
          <Trackpoint>
            <Time>2022-09-24T15:45:41.000Z</Time>
            <Position>
              <LatitudeDegrees>43.34965766407549381256103515625</LatitudeDegrees>
              <LongitudeDegrees>-2.8265643306076526641845703125</LongitudeDegrees>
            </Position>
            <AltitudeMeters>-1.39999997615814208984375</AltitudeMeters>
            <DistanceMeters>NAN</DistanceMeters>
          </Trackpoint>
          <Trackpoint>
            <Time>2022-09-24T15:45:42.000Z</Time>
            <Position>
              <LatitudeDegrees>43.349688760936260223388671875</LatitudeDegrees>
              <LongitudeDegrees>-2.8266513347625732421875</LongitudeDegrees>
            </Position>
            <AltitudeMeters>-1.39999997615814208984375</AltitudeMeters>
            <DistanceMeters>NAN</DistanceMeters>
          </Trackpoint>
          <Trackpoint>
            <Time>2022-09-24T15:45:43.000Z</Time>
            <Position>
              <LatitudeDegrees>43.3497207798063755035400390625</LatitudeDegrees>
              <LongitudeDegrees>-2.82674093730747699737548828125</LongitudeDegrees>
            </Position>
            <AltitudeMeters>-1.39999997615814208984375</AltitudeMeters>
            <DistanceMeters>NAN</DistanceMeters>
          </Trackpoint>
          <Trackpoint>
            <Time>2022-09-24T15:45:44.000Z</Time>
            <Position>
              <LatitudeDegrees>43.34975020028650760650634765625</LatitudeDegrees>
              <LongitudeDegrees>-2.82683171331882476806640625</LongitudeDegrees>
            </Position>
            <AltitudeMeters>-1.60000002384185791015625</AltitudeMeters>
            <DistanceMeters>NAN</DistanceMeters>
          </Trackpoint>
          <Trackpoint>
            <Time>2022-09-24T15:45:45.000Z</Time>
            <Position>
              <LatitudeDegrees>43.349779285490512847900390625</LatitudeDegrees>
              <LongitudeDegrees>-2.826923914253711700439453125</LongitudeDegrees>
            </Position>
            <AltitudeMeters>-1.60000002384185791015625</AltitudeMeters>
            <DistanceMeters>NAN</DistanceMeters>
          </Trackpoint>
          <Trackpoint>
            <Time>2022-09-24T15:45:46.000Z</Time>
            <Position>
              <LatitudeDegrees>43.34980987943708896636962890625</LatitudeDegrees>
              <LongitudeDegrees>-2.8270136006176471710205078125</LongitudeDegrees>
            </Position>
            <AltitudeMeters>-1.60000002384185791015625</AltitudeMeters>
            <DistanceMeters>NAN</DistanceMeters>
          </Trackpoint>
          <Trackpoint>
            <Time>2022-09-24T15:45:47.000Z</Time>
            <Position>
              <LatitudeDegrees>43.3498438261449337005615234375</LatitudeDegrees>
              <LongitudeDegrees>-2.827104628086090087890625</LongitudeDegrees>
            </Position>
            <AltitudeMeters>-1.60000002384185791015625</AltitudeMeters>
            <DistanceMeters>NAN</DistanceMeters>
          </Trackpoint>
          <Trackpoint>
            <Time>2022-09-24T15:45:48.000Z</Time>
            <Position>
              <LatitudeDegrees>43.34988112561404705047607421875</LatitudeDegrees>
              <LongitudeDegrees>-2.82719523645937442779541015625</LongitudeDegrees>
            </Position>
            <AltitudeMeters>-2</AltitudeMeters>
            <DistanceMeters>NAN</DistanceMeters>
          </Trackpoint>
          <Trackpoint>
            <Time>2022-09-24T15:45:49.000Z</Time>
            <Position>
              <LatitudeDegrees>43.3499172516167163848876953125</LatitudeDegrees>
              <LongitudeDegrees>-2.82728559337556362152099609375</LongitudeDegrees>
            </Position>
            <AltitudeMeters>-2.2000000476837158203125</AltitudeMeters>
            <DistanceMeters>NAN</DistanceMeters>
          </Trackpoint>
          <Trackpoint>
            <Time>2022-09-24T15:45:50.000Z</Time>
            <Position>
              <LatitudeDegrees>43.34995136596262454986572265625</LatitudeDegrees>
              <LongitudeDegrees>-2.8273768723011016845703125</LongitudeDegrees>
            </Position>
            <AltitudeMeters>-2.2000000476837158203125</AltitudeMeters>
            <DistanceMeters>NAN</DistanceMeters>
          </Trackpoint>
          <Trackpoint>
            <Time>2022-09-24T15:45:51.000Z</Time>
            <Position>
              <LatitudeDegrees>43.3499839715659618377685546875</LatitudeDegrees>
              <LongitudeDegrees>-2.82746865414083003997802734375</LongitudeDegrees>
            </Position>
            <AltitudeMeters>-2.599999904632568359375</AltitudeMeters>
            <DistanceMeters>NAN</DistanceMeters>
          </Trackpoint>
          <Trackpoint>
            <Time>2022-09-24T15:45:52.000Z</Time>
            <Position>
              <LatitudeDegrees>43.35002009756863117218017578125</LatitudeDegrees>
              <LongitudeDegrees>-2.82756018452346324920654296875</LongitudeDegrees>
            </Position>
            <AltitudeMeters>-4</AltitudeMeters>
            <DistanceMeters>NAN</DistanceMeters>
          </Trackpoint>
          <Trackpoint>
            <Time>2022-09-24T15:45:53.000Z</Time>
            <Position>
              <LatitudeDegrees>43.35005882196128368377685546875</LatitudeDegrees>
              <LongitudeDegrees>-2.82765288837254047393798828125</LongitudeDegrees>
            </Position>
            <AltitudeMeters>-4.80000019073486328125</AltitudeMeters>
            <DistanceMeters>NAN</DistanceMeters>
          </Trackpoint>
          <Trackpoint>
            <Time>2022-09-24T15:45:54.000Z</Time>
            <Position>
              <LatitudeDegrees>43.35009754635393619537353515625</LatitudeDegrees>
              <LongitudeDegrees>-2.8277465142309665679931640625</LongitudeDegrees>
            </Position>
            <AltitudeMeters>-4.80000019073486328125</AltitudeMeters>
            <DistanceMeters>NAN</DistanceMeters>
          </Trackpoint>
          <Trackpoint>
            <Time>2022-09-24T15:45:55.000Z</Time>
            <Position>
              <LatitudeDegrees>43.35013476200401782989501953125</LatitudeDegrees>
              <LongitudeDegrees>-2.827841900289058685302734375</LongitudeDegrees>
            </Position>
            <AltitudeMeters>-4.80000019073486328125</AltitudeMeters>
            <DistanceMeters>NAN</DistanceMeters>
          </Trackpoint>
          <Trackpoint>
            <Time>2022-09-24T15:45:56.000Z</Time>
            <Position>
              <LatitudeDegrees>43.35013476200401782989501953125</LatitudeDegrees>
              <LongitudeDegrees>-2.827841900289058685302734375</LongitudeDegrees>
            </Position>
            <AltitudeMeters>-4.80000019073486328125</AltitudeMeters>
            <DistanceMeters>NAN</DistanceMeters>
          </Trackpoint>
          <Trackpoint>
            <Time>2022-09-24T15:45:57.000Z</Time>
            <Position>
              <LatitudeDegrees>43.35020206868648529052734375</LatitudeDegrees>
              <LongitudeDegrees>-2.8280179202556610107421875</LongitudeDegrees>
            </Position>
            <AltitudeMeters>-4.80000019073486328125</AltitudeMeters>
            <DistanceMeters>NAN</DistanceMeters>
          </Trackpoint>
          <Trackpoint>
            <Time>2022-09-24T15:45:58.000Z</Time>
            <Position>
              <LatitudeDegrees>43.35023903287947177886962890625</LatitudeDegrees>
              <LongitudeDegrees>-2.82811674289405345916748046875</LongitudeDegrees>
            </Position>
            <AltitudeMeters>-5.400000095367431640625</AltitudeMeters>
            <DistanceMeters>NAN</DistanceMeters>
          </Trackpoint>
          <Trackpoint>
            <Time>2022-09-24T15:45:59.000Z</Time>
            <Position>
              <LatitudeDegrees>43.35028111003339290618896484375</LatitudeDegrees>
              <LongitudeDegrees>-2.82823576591908931732177734375</LongitudeDegrees>
            </Position>
            <AltitudeMeters>-5.400000095367431640625</AltitudeMeters>
            <DistanceMeters>NAN</DistanceMeters>
          </Trackpoint>
          <Trackpoint>
            <Time>2022-09-24T15:46:00.000Z</Time>
            <Position>
              <LatitudeDegrees>43.35031799040734767913818359375</LatitudeDegrees>
              <LongitudeDegrees>-2.8283359296619892120361328125</LongitudeDegrees>
            </Position>
            <AltitudeMeters>-5.400000095367431640625</AltitudeMeters>
            <DistanceMeters>NAN</DistanceMeters>
          </Trackpoint>
          <Trackpoint>
            <Time>2022-09-24T15:46:01.000Z</Time>
            <Position>
              <LatitudeDegrees>43.350354619324207305908203125</LatitudeDegrees>
              <LongitudeDegrees>-2.82843559049069881439208984375</LongitudeDegrees>
            </Position>
            <AltitudeMeters>-5.400000095367431640625</AltitudeMeters>
            <DistanceMeters>NAN</DistanceMeters>
          </Trackpoint>
          <Trackpoint>
            <Time>2022-09-24T15:46:02.000Z</Time>
            <Position>
              <LatitudeDegrees>43.35039191879332065582275390625</LatitudeDegrees>
              <LongitudeDegrees>-2.82853583805263042449951171875</LongitudeDegrees>
            </Position>
            <AltitudeMeters>-5.400000095367431640625</AltitudeMeters>
            <DistanceMeters>NAN</DistanceMeters>
          </Trackpoint>
          <Trackpoint>
            <Time>2022-09-24T15:46:03.000Z</Time>
            <Position>
              <LatitudeDegrees>43.35043047554790973663330078125</LatitudeDegrees>
              <LongitudeDegrees>-2.82863776199519634246826171875</LongitudeDegrees>
            </Position>
            <AltitudeMeters>-5.19999980926513671875</AltitudeMeters>
            <DistanceMeters>NAN</DistanceMeters>
          </Trackpoint>
          <Trackpoint>
            <Time>2022-09-24T15:46:04.000Z</Time>
            <Position>
              <LatitudeDegrees>43.35046165622770786285400390625</LatitudeDegrees>
              <LongitudeDegrees>-2.82871730625629425048828125</LongitudeDegrees>
            </Position>
            <AltitudeMeters>-5.19999980926513671875</AltitudeMeters>
            <DistanceMeters>NAN</DistanceMeters>
          </Trackpoint>
          <Trackpoint>
            <Time>2022-09-24T15:46:05.000Z</Time>
            <Position>
              <LatitudeDegrees>43.3504966087639331817626953125</LatitudeDegrees>
              <LongitudeDegrees>-2.82881478779017925262451171875</LongitudeDegrees>
            </Position>
            <AltitudeMeters>-5.19999980926513671875</AltitudeMeters>
            <DistanceMeters>NAN</DistanceMeters>
          </Trackpoint>
          <Trackpoint>
            <Time>2022-09-24T15:46:06.000Z</Time>
            <Position>
              <LatitudeDegrees>43.35053407587110996246337890625</LatitudeDegrees>
              <LongitudeDegrees>-2.82891235314309597015380859375</LongitudeDegrees>
            </Position>
            <AltitudeMeters>-4.80000019073486328125</AltitudeMeters>
            <DistanceMeters>NAN</DistanceMeters>
          </Trackpoint>
          <Trackpoint>
            <Time>2022-09-24T15:46:07.000Z</Time>
            <Position>
              <LatitudeDegrees>43.3505750633776187896728515625</LatitudeDegrees>
              <LongitudeDegrees>-2.8290116786956787109375</LongitudeDegrees>
            </Position>
            <AltitudeMeters>-4.599999904632568359375</AltitudeMeters>
            <DistanceMeters>NAN</DistanceMeters>
          </Trackpoint>
          <Trackpoint>
            <Time>2022-09-24T15:46:08.000Z</Time>
            <Position>
              <LatitudeDegrees>43.3506144583225250244140625</LatitudeDegrees>
              <LongitudeDegrees>-2.82910865731537342071533203125</LongitudeDegrees>
            </Position>
            <AltitudeMeters>-4.599999904632568359375</AltitudeMeters>
            <DistanceMeters>NAN</DistanceMeters>
          </Trackpoint>
          <Trackpoint>
            <Time>2022-09-24T15:46:09.000Z</Time>
            <Position>
              <LatitudeDegrees>43.350651673972606658935546875</LatitudeDegrees>
              <LongitudeDegrees>-2.829207479953765869140625</LongitudeDegrees>
            </Position>
            <AltitudeMeters>-4.599999904632568359375</AltitudeMeters>
            <DistanceMeters>NAN</DistanceMeters>
          </Trackpoint>
          <Trackpoint>
            <Time>2022-09-24T15:46:10.000Z</Time>
            <Position>
              <LatitudeDegrees>43.35069827735424041748046875</LatitudeDegrees>
              <LongitudeDegrees>-2.8293283469974994659423828125</LongitudeDegrees>
            </Position>
            <AltitudeMeters>-4.80000019073486328125</AltitudeMeters>
            <DistanceMeters>NAN</DistanceMeters>
          </Trackpoint>
          <Trackpoint>
            <Time>2022-09-24T15:46:11.000Z</Time>
            <Position>
              <LatitudeDegrees>43.35073909722268581390380859375</LatitudeDegrees>
              <LongitudeDegrees>-2.8294292651116847991943359375</LongitudeDegrees>
            </Position>
            <AltitudeMeters>-4.80000019073486328125</AltitudeMeters>
            <DistanceMeters>NAN</DistanceMeters>
          </Trackpoint>
          <Trackpoint>
            <Time>2022-09-24T15:46:12.000Z</Time>
            <Position>
              <LatitudeDegrees>43.35077279247343540191650390625</LatitudeDegrees>
              <LongitudeDegrees>-2.8295100666582584381103515625</LongitudeDegrees>
            </Position>
            <AltitudeMeters>-4.80000019073486328125</AltitudeMeters>
            <DistanceMeters>NAN</DistanceMeters>
          </Trackpoint>
          <Trackpoint>
            <Time>2022-09-24T15:46:13.000Z</Time>
            <Position>
              <LatitudeDegrees>43.3508208207786083221435546875</LatitudeDegrees>
              <LongitudeDegrees>-2.82963328063488006591796875</LongitudeDegrees>
            </Position>
            <AltitudeMeters>-5.19999980926513671875</AltitudeMeters>
            <DistanceMeters>NAN</DistanceMeters>
          </Trackpoint>
          <Trackpoint>
            <Time>2022-09-24T15:46:14.000Z</Time>
            <Position>
              <LatitudeDegrees>43.35085828788578510284423828125</LatitudeDegrees>
              <LongitudeDegrees>-2.82973813824355602264404296875</LongitudeDegrees>
            </Position>
            <AltitudeMeters>-5.400000095367431640625</AltitudeMeters>
            <DistanceMeters>NAN</DistanceMeters>
          </Trackpoint>
          <Trackpoint>
            <Time>2022-09-24T15:46:15.000Z</Time>
            <Position>
              <LatitudeDegrees>43.3508979342877864837646484375</LatitudeDegrees>
              <LongitudeDegrees>-2.8298423252999782562255859375</LongitudeDegrees>
            </Position>
            <AltitudeMeters>-5.599999904632568359375</AltitudeMeters>
            <DistanceMeters>NAN</DistanceMeters>
          </Trackpoint>
          <Trackpoint>
            <Time>2022-09-24T15:46:16.000Z</Time>
            <Position>
              <LatitudeDegrees>43.35092986933887004852294921875</LatitudeDegrees>
              <LongitudeDegrees>-2.82992505468428134918212890625</LongitudeDegrees>
            </Position>
            <AltitudeMeters>-5.599999904632568359375</AltitudeMeters>
            <DistanceMeters>NAN</DistanceMeters>
          </Trackpoint>
          <Trackpoint>
            <Time>2022-09-24T15:46:17.000Z</Time>
            <Position>
              <LatitudeDegrees>43.35097060538828372955322265625</LatitudeDegrees>
              <LongitudeDegrees>-2.83003049902617931365966796875</LongitudeDegrees>
            </Position>
            <AltitudeMeters>-5.80000019073486328125</AltitudeMeters>
            <DistanceMeters>NAN</DistanceMeters>
          </Trackpoint>
          <Trackpoint>
            <Time>2022-09-24T15:46:18.000Z</Time>
            <Position>
              <LatitudeDegrees>43.3510095812380313873291015625</LatitudeDegrees>
              <LongitudeDegrees>-2.83013544045388698577880859375</LongitudeDegrees>
            </Position>
            <AltitudeMeters>-6.19999980926513671875</AltitudeMeters>
            <DistanceMeters>NAN</DistanceMeters>
          </Trackpoint>
          <Trackpoint>
            <Time>2022-09-24T15:46:19.000Z</Time>
            <Position>
              <LatitudeDegrees>43.35104906000196933746337890625</LatitudeDegrees>
              <LongitudeDegrees>-2.83024222590029239654541015625</LongitudeDegrees>
            </Position>
            <AltitudeMeters>-6.400000095367431640625</AltitudeMeters>
            <DistanceMeters>NAN</DistanceMeters>
          </Trackpoint>
          <Trackpoint>
            <Time>2022-09-24T15:46:20.000Z</Time>
            <Position>
              <LatitudeDegrees>43.3510877005755901336669921875</LatitudeDegrees>
              <LongitudeDegrees>-2.83035085536539554595947265625</LongitudeDegrees>
            </Position>
            <AltitudeMeters>-6.400000095367431640625</AltitudeMeters>
            <DistanceMeters>NAN</DistanceMeters>
          </Trackpoint>
          <Trackpoint>
            <Time>2022-09-24T15:46:21.000Z</Time>
            <Position>
              <LatitudeDegrees>43.35113556124269962310791015625</LatitudeDegrees>
              <LongitudeDegrees>-2.8304800204932689666748046875</LongitudeDegrees>
            </Position>
            <AltitudeMeters>-6.400000095367431640625</AltitudeMeters>
            <DistanceMeters>NAN</DistanceMeters>
          </Trackpoint>
          <Trackpoint>
            <Time>2022-09-24T15:46:22.000Z</Time>
            <Position>
              <LatitudeDegrees>43.35113556124269962310791015625</LatitudeDegrees>
              <LongitudeDegrees>-2.8304800204932689666748046875</LongitudeDegrees>
            </Position>
            <AltitudeMeters>-6.400000095367431640625</AltitudeMeters>
            <DistanceMeters>NAN</DistanceMeters>
          </Trackpoint>
          <Trackpoint>
            <Time>2022-09-24T15:46:23.000Z</Time>
            <Position>
              <LatitudeDegrees>43.35120462812483310699462890625</LatitudeDegrees>
              <LongitudeDegrees>-2.83067439682781696319580078125</LongitudeDegrees>
            </Position>
            <AltitudeMeters>-6.80000019073486328125</AltitudeMeters>
            <DistanceMeters>NAN</DistanceMeters>
          </Trackpoint>
          <Trackpoint>
            <Time>2022-09-24T15:46:24.000Z</Time>
            <Position>
              <LatitudeDegrees>43.35125349462032318115234375</LatitudeDegrees>
              <LongitudeDegrees>-2.830802388489246368408203125</LongitudeDegrees>
            </Position>
            <AltitudeMeters>-7</AltitudeMeters>
            <DistanceMeters>NAN</DistanceMeters>
          </Trackpoint>
          <Trackpoint>
            <Time>2022-09-24T15:46:25.000Z</Time>
            <Position>
              <LatitudeDegrees>43.35129372775554656982421875</LatitudeDegrees>
              <LongitudeDegrees>-2.8309121914207935333251953125</LongitudeDegrees>
            </Position>
            <AltitudeMeters>-7</AltitudeMeters>
            <DistanceMeters>NAN</DistanceMeters>
          </Trackpoint>
          <Trackpoint>
            <Time>2022-09-24T15:46:26.000Z</Time>
            <Position>
              <LatitudeDegrees>43.35133454762399196624755859375</LatitudeDegrees>
              <LongitudeDegrees>-2.8310214914381504058837890625</LongitudeDegrees>
            </Position>
            <AltitudeMeters>-7</AltitudeMeters>
            <DistanceMeters>NAN</DistanceMeters>
          </Trackpoint>
          <Trackpoint>
            <Time>2022-09-24T15:46:27.000Z</Time>
            <Position>
              <LatitudeDegrees>43.351375870406627655029296875</LatitudeDegrees>
              <LongitudeDegrees>-2.83113238401710987091064453125</LongitudeDegrees>
            </Position>
            <AltitudeMeters>-7</AltitudeMeters>
            <DistanceMeters>NAN</DistanceMeters>
          </Trackpoint>
          <Trackpoint>
            <Time>2022-09-24T15:46:28.000Z</Time>
            <Position>
              <LatitudeDegrees>43.351417444646358489990234375</LatitudeDegrees>
              <LongitudeDegrees>-2.83124285750091075897216796875</LongitudeDegrees>
            </Position>
            <AltitudeMeters>-7.19999980926513671875</AltitudeMeters>
            <DistanceMeters>NAN</DistanceMeters>
          </Trackpoint>
          <Trackpoint>
            <Time>2022-09-24T15:46:29.000Z</Time>
            <Position>
              <LatitudeDegrees>43.3514606952667236328125</LatitudeDegrees>
              <LongitudeDegrees>-2.8313530795276165008544921875</LongitudeDegrees>
            </Position>
            <AltitudeMeters>-7.19999980926513671875</AltitudeMeters>
            <DistanceMeters>NAN</DistanceMeters>
          </Trackpoint>
          <Trackpoint>
            <Time>2022-09-24T15:46:30.000Z</Time>
            <Position>
              <LatitudeDegrees>43.351509310305118560791015625</LatitudeDegrees>
              <LongitudeDegrees>-2.83146363683044910430908203125</LongitudeDegrees>
            </Position>
            <AltitudeMeters>-8</AltitudeMeters>
            <DistanceMeters>NAN</DistanceMeters>
          </Trackpoint>
          <Trackpoint>
            <Time>2022-09-24T15:46:31.000Z</Time>
            <Position>
              <LatitudeDegrees>43.351560942828655242919921875</LatitudeDegrees>
              <LongitudeDegrees>-2.8315753675997257232666015625</LongitudeDegrees>
            </Position>
            <AltitudeMeters>-8</AltitudeMeters>
            <DistanceMeters>NAN</DistanceMeters>
          </Trackpoint>
          <Trackpoint>
            <Time>2022-09-24T15:46:32.000Z</Time>
            <Position>
              <LatitudeDegrees>43.351560942828655242919921875</LatitudeDegrees>
              <LongitudeDegrees>-2.8315753675997257232666015625</LongitudeDegrees>
            </Position>
            <AltitudeMeters>-8.6000003814697265625</AltitudeMeters>
            <DistanceMeters>NAN</DistanceMeters>
          </Trackpoint>
          <Trackpoint>
            <Time>2022-09-24T15:46:33.000Z</Time>
            <Position>
              <LatitudeDegrees>43.35166647098958492279052734375</LatitudeDegrees>
              <LongitudeDegrees>-2.83179841004312038421630859375</LongitudeDegrees>
            </Position>
            <AltitudeMeters>-8.80000019073486328125</AltitudeMeters>
            <DistanceMeters>NAN</DistanceMeters>
          </Trackpoint>
          <Trackpoint>
            <Time>2022-09-24T15:46:34.000Z</Time>
            <Position>
              <LatitudeDegrees>43.3517190255224704742431640625</LatitudeDegrees>
              <LongitudeDegrees>-2.831917516887187957763671875</LongitudeDegrees>
            </Position>
            <AltitudeMeters>-9.6000003814697265625</AltitudeMeters>
            <DistanceMeters>NAN</DistanceMeters>
          </Trackpoint>
          <Trackpoint>
            <Time>2022-09-24T15:46:35.000Z</Time>
            <Position>
              <LatitudeDegrees>43.35177845321595668792724609375</LatitudeDegrees>
              <LongitudeDegrees>-2.8320358693599700927734375</LongitudeDegrees>
            </Position>
            <AltitudeMeters>-10.3999996185302734375</AltitudeMeters>
            <DistanceMeters>NAN</DistanceMeters>
          </Trackpoint>
          <Trackpoint>
            <Time>2022-09-24T15:46:36.000Z</Time>
            <Position>
              <LatitudeDegrees>43.3518424071371555328369140625</LatitudeDegrees>
              <LongitudeDegrees>-2.83215179108083248138427734375</LongitudeDegrees>
            </Position>
            <AltitudeMeters>-11.3999996185302734375</AltitudeMeters>
            <DistanceMeters>NAN</DistanceMeters>
          </Trackpoint>
          <Trackpoint>
            <Time>2022-09-24T15:46:37.000Z</Time>
            <Position>
              <LatitudeDegrees>43.35191038437187671661376953125</LatitudeDegrees>
              <LongitudeDegrees>-2.83226461149752140045166015625</LongitudeDegrees>
            </Position>
            <AltitudeMeters>-12.3999996185302734375</AltitudeMeters>
            <DistanceMeters>NAN</DistanceMeters>
          </Trackpoint>
          <Trackpoint>
            <Time>2022-09-24T15:46:38.000Z</Time>
            <Position>
              <LatitudeDegrees>43.35197894833981990814208984375</LatitudeDegrees>
              <LongitudeDegrees>-2.8323786891996860504150390625</LongitudeDegrees>
            </Position>
            <AltitudeMeters>-12.6000003814697265625</AltitudeMeters>
            <DistanceMeters>NAN</DistanceMeters>
          </Trackpoint>
          <Trackpoint>
            <Time>2022-09-24T15:46:39.000Z</Time>
            <Position>
              <LatitudeDegrees>43.35205321200191974639892578125</LatitudeDegrees>
              <LongitudeDegrees>-2.832490503787994384765625</LongitudeDegrees>
            </Position>
            <AltitudeMeters>-12.80000019073486328125</AltitudeMeters>
            <DistanceMeters>NAN</DistanceMeters>
          </Trackpoint>
          <Trackpoint>
            <Time>2022-09-24T15:46:40.000Z</Time>
            <Position>
              <LatitudeDegrees>43.3521310798823833465576171875</LatitudeDegrees>
              <LongitudeDegrees>-2.8325986303389072418212890625</LongitudeDegrees>
            </Position>
            <AltitudeMeters>-14.19999980926513671875</AltitudeMeters>
            <DistanceMeters>NAN</DistanceMeters>
          </Trackpoint>
          <Trackpoint>
            <Time>2022-09-24T15:46:41.000Z</Time>
            <Position>
              <LatitudeDegrees>43.3522145636379718780517578125</LatitudeDegrees>
              <LongitudeDegrees>-2.83270466141402721405029296875</LongitudeDegrees>
            </Position>
            <AltitudeMeters>-14</AltitudeMeters>
            <DistanceMeters>NAN</DistanceMeters>
          </Trackpoint>
          <Trackpoint>
            <Time>2022-09-24T15:46:42.000Z</Time>
            <Position>
              <LatitudeDegrees>43.352303914725780487060546875</LatitudeDegrees>
              <LongitudeDegrees>-2.8328068368136882781982421875</LongitudeDegrees>
            </Position>
            <AltitudeMeters>-14.6000003814697265625</AltitudeMeters>
            <DistanceMeters>NAN</DistanceMeters>
          </Trackpoint>
          <Trackpoint>
            <Time>2022-09-24T15:46:43.000Z</Time>
            <Position>
              <LatitudeDegrees>43.35239569656550884246826171875</LatitudeDegrees>
              <LongitudeDegrees>-2.83290197141468524932861328125</LongitudeDegrees>
            </Position>
            <AltitudeMeters>-15.3999996185302734375</AltitudeMeters>
            <DistanceMeters>NAN</DistanceMeters>
          </Trackpoint>
          <Trackpoint>
            <Time>2022-09-24T15:46:44.000Z</Time>
            <Position>
              <LatitudeDegrees>43.3524920046329498291015625</LatitudeDegrees>
              <LongitudeDegrees>-2.8329915739595890045166015625</LongitudeDegrees>
            </Position>
            <AltitudeMeters>-15.3999996185302734375</AltitudeMeters>
            <DistanceMeters>NAN</DistanceMeters>
          </Trackpoint>
          <Trackpoint>
            <Time>2022-09-24T15:46:45.000Z</Time>
            <Position>
              <LatitudeDegrees>43.35259216837584972381591796875</LatitudeDegrees>
              <LongitudeDegrees>-2.83307799138128757476806640625</LongitudeDegrees>
            </Position>
            <AltitudeMeters>-15.6000003814697265625</AltitudeMeters>
            <DistanceMeters>NAN</DistanceMeters>
          </Trackpoint>
          <Trackpoint>
            <Time>2022-09-24T15:46:46.000Z</Time>
            <Position>
              <LatitudeDegrees>43.35259216837584972381591796875</LatitudeDegrees>
              <LongitudeDegrees>-2.83307799138128757476806640625</LongitudeDegrees>
            </Position>
            <AltitudeMeters>-15.80000019073486328125</AltitudeMeters>
            <DistanceMeters>NAN</DistanceMeters>
          </Trackpoint>
          <Trackpoint>
            <Time>2022-09-24T15:46:47.000Z</Time>
            <Position>
              <LatitudeDegrees>43.35279635153710842132568359375</LatitudeDegrees>
              <LongitudeDegrees>-2.83324898220598697662353515625</LongitudeDegrees>
            </Position>
            <AltitudeMeters>-16.6000003814697265625</AltitudeMeters>
            <DistanceMeters>NAN</DistanceMeters>
          </Trackpoint>
          <Trackpoint>
            <Time>2022-09-24T15:46:48.000Z</Time>
            <Position>
              <LatitudeDegrees>43.35290171205997467041015625</LatitudeDegrees>
              <LongitudeDegrees>-2.8333338908851146697998046875</LongitudeDegrees>
            </Position>
            <AltitudeMeters>-17.799999237060546875</AltitudeMeters>
            <DistanceMeters>NAN</DistanceMeters>
          </Trackpoint>
          <Trackpoint>
            <Time>2022-09-24T15:46:49.000Z</Time>
            <Position>
              <LatitudeDegrees>43.353008329868316650390625</LatitudeDegrees>
              <LongitudeDegrees>-2.83341041766107082366943359375</LongitudeDegrees>
            </Position>
            <AltitudeMeters>-18</AltitudeMeters>
            <DistanceMeters>NAN</DistanceMeters>
          </Trackpoint>
          <Trackpoint>
            <Time>2022-09-24T15:46:50.000Z</Time>
            <Position>
              <LatitudeDegrees>43.3531169593334197998046875</LatitudeDegrees>
              <LongitudeDegrees>-2.83348099328577518463134765625</LongitudeDegrees>
            </Position>
            <AltitudeMeters>-18.3999996185302734375</AltitudeMeters>
            <DistanceMeters>NAN</DistanceMeters>
          </Trackpoint>
          <Trackpoint>
            <Time>2022-09-24T15:46:51.000Z</Time>
            <Position>
              <LatitudeDegrees>43.35322852246463298797607421875</LatitudeDegrees>
              <LongitudeDegrees>-2.83354721032083034515380859375</LongitudeDegrees>
            </Position>
            <AltitudeMeters>-18.799999237060546875</AltitudeMeters>
            <DistanceMeters>NAN</DistanceMeters>
          </Trackpoint>
          <Trackpoint>
            <Time>2022-09-24T15:46:52.000Z</Time>
            <Position>
              <LatitudeDegrees>43.353341929614543914794921875</LatitudeDegrees>
              <LongitudeDegrees>-2.83360772766172885894775390625</LongitudeDegrees>
            </Position>
            <AltitudeMeters>-19.799999237060546875</AltitudeMeters>
            <DistanceMeters>NAN</DistanceMeters>
          </Trackpoint>
          <Trackpoint>
            <Time>2022-09-24T15:46:53.000Z</Time>
            <Position>
              <LatitudeDegrees>43.3534560911357402801513671875</LatitudeDegrees>
              <LongitudeDegrees>-2.83366187475621700286865234375</LongitudeDegrees>
            </Position>
            <AltitudeMeters>-20.3999996185302734375</AltitudeMeters>
            <DistanceMeters>NAN</DistanceMeters>
          </Trackpoint>
          <Trackpoint>
            <Time>2022-09-24T15:46:54.000Z</Time>
            <Position>
              <LatitudeDegrees>43.35357083939015865325927734375</LatitudeDegrees>
              <LongitudeDegrees>-2.83371736295521259307861328125</LongitudeDegrees>
            </Position>
            <AltitudeMeters>-21.6000003814697265625</AltitudeMeters>
            <DistanceMeters>NAN</DistanceMeters>
          </Trackpoint>
          <Trackpoint>
            <Time>2022-09-24T15:46:55.000Z</Time>
            <Position>
              <LatitudeDegrees>43.35368315689265727996826171875</LatitudeDegrees>
              <LongitudeDegrees>-2.833769582211971282958984375</LongitudeDegrees>
            </Position>
            <AltitudeMeters>-22</AltitudeMeters>
            <DistanceMeters>NAN</DistanceMeters>
          </Trackpoint>
          <Trackpoint>
            <Time>2022-09-24T15:46:56.000Z</Time>
            <Position>
              <LatitudeDegrees>43.3537957258522510528564453125</LatitudeDegrees>
              <LongitudeDegrees>-2.83381811343133449554443359375</LongitudeDegrees>
            </Position>
            <AltitudeMeters>-22.3999996185302734375</AltitudeMeters>
            <DistanceMeters>NAN</DistanceMeters>
          </Trackpoint>
          <Trackpoint>
            <Time>2022-09-24T15:46:57.000Z</Time>
            <Position>
              <LatitudeDegrees>43.3537957258522510528564453125</LatitudeDegrees>
              <LongitudeDegrees>-2.83381811343133449554443359375</LongitudeDegrees>
            </Position>
            <AltitudeMeters>-21.6000003814697265625</AltitudeMeters>
            <DistanceMeters>NAN</DistanceMeters>
          </Trackpoint>
          <Trackpoint>
            <Time>2022-09-24T15:46:58.000Z</Time>
            <Position>
              <LatitudeDegrees>43.3540181815624237060546875</LatitudeDegrees>
              <LongitudeDegrees>-2.833915762603282928466796875</LongitudeDegrees>
            </Position>
            <AltitudeMeters>-23.200000762939453125</AltitudeMeters>
            <DistanceMeters>NAN</DistanceMeters>
          </Trackpoint>
          <Trackpoint>
            <Time>2022-09-24T15:46:59.000Z</Time>
            <Position>
              <LatitudeDegrees>43.35412588901817798614501953125</LatitudeDegrees>
              <LongitudeDegrees>-2.83396580256521701812744140625</LongitudeDegrees>
            </Position>
            <AltitudeMeters>-23.200000762939453125</AltitudeMeters>
            <DistanceMeters>NAN</DistanceMeters>
          </Trackpoint>
          <Trackpoint>
            <Time>2022-09-24T15:47:00.000Z</Time>
            <Position>
              <LatitudeDegrees>43.35423384793102741241455078125</LatitudeDegrees>
              <LongitudeDegrees>-2.8340175189077854156494140625</LongitudeDegrees>
            </Position>
            <AltitudeMeters>-23.200000762939453125</AltitudeMeters>
            <DistanceMeters>NAN</DistanceMeters>
          </Trackpoint>
          <Trackpoint>
            <Time>2022-09-24T15:47:01.000Z</Time>
            <Position>
              <LatitudeDegrees>43.35433996282517910003662109375</LatitudeDegrees>
              <LongitudeDegrees>-2.83406839706003665924072265625</LongitudeDegrees>
            </Position>
            <AltitudeMeters>-23.200000762939453125</AltitudeMeters>
            <DistanceMeters>NAN</DistanceMeters>
          </Trackpoint>
          <Trackpoint>
            <Time>2022-09-24T15:47:02.000Z</Time>
            <Position>
              <LatitudeDegrees>43.35433996282517910003662109375</LatitudeDegrees>
              <LongitudeDegrees>-2.83406839706003665924072265625</LongitudeDegrees>
            </Position>
            <AltitudeMeters>-22.799999237060546875</AltitudeMeters>
            <DistanceMeters>NAN</DistanceMeters>
          </Trackpoint>
          <Trackpoint>
            <Time>2022-09-24T15:47:03.000Z</Time>
            <Position>
              <LatitudeDegrees>43.35454112850129604339599609375</LatitudeDegrees>
              <LongitudeDegrees>-2.8341630287468433380126953125</LongitudeDegrees>
            </Position>
            <AltitudeMeters>-23.200000762939453125</AltitudeMeters>
            <DistanceMeters>NAN</DistanceMeters>
          </Trackpoint>
          <Trackpoint>
            <Time>2022-09-24T15:47:04.000Z</Time>
            <Position>
              <LatitudeDegrees>43.35463584400713443756103515625</LatitudeDegrees>
              <LongitudeDegrees>-2.83421088941395282745361328125</LongitudeDegrees>
            </Position>
            <AltitudeMeters>-22.799999237060546875</AltitudeMeters>
            <DistanceMeters>NAN</DistanceMeters>
          </Trackpoint>
          <Trackpoint>
            <Time>2022-09-24T15:47:05.000Z</Time>
            <Position>
              <LatitudeDegrees>43.3547264523804187774658203125</LatitudeDegrees>
              <LongitudeDegrees>-2.83426185138523578643798828125</LongitudeDegrees>
            </Position>
            <AltitudeMeters>-22.6000003814697265625</AltitudeMeters>
            <DistanceMeters>NAN</DistanceMeters>
          </Trackpoint>
          <Trackpoint>
            <Time>2022-09-24T15:47:06.000Z</Time>
            <Position>
              <LatitudeDegrees>43.35481722839176654815673828125</LatitudeDegrees>
              <LongitudeDegrees>-2.83431784249842166900634765625</LongitudeDegrees>
            </Position>
            <AltitudeMeters>-22.799999237060546875</AltitudeMeters>
            <DistanceMeters>NAN</DistanceMeters>
          </Trackpoint>
          <Trackpoint>
            <Time>2022-09-24T15:47:07.000Z</Time>
            <Position>
              <LatitudeDegrees>43.3549075014889240264892578125</LatitudeDegrees>
              <LongitudeDegrees>-2.8343747556209564208984375</LongitudeDegrees>
            </Position>
            <AltitudeMeters>-22.799999237060546875</AltitudeMeters>
            <DistanceMeters>NAN</DistanceMeters>
          </Trackpoint>
          <Trackpoint>
            <Time>2022-09-24T15:47:08.000Z</Time>
            <Position>
              <LatitudeDegrees>43.3549075014889240264892578125</LatitudeDegrees>
              <LongitudeDegrees>-2.8343747556209564208984375</LongitudeDegrees>
            </Position>
            <AltitudeMeters>-22.6000003814697265625</AltitudeMeters>
            <DistanceMeters>NAN</DistanceMeters>
          </Trackpoint>
          <Trackpoint>
            <Time>2022-09-24T15:47:09.000Z</Time>
            <Position>
              <LatitudeDegrees>43.3550835214555263519287109375</LatitudeDegrees>
              <LongitudeDegrees>-2.8344879113137722015380859375</LongitudeDegrees>
            </Position>
            <AltitudeMeters>-23.6000003814697265625</AltitudeMeters>
            <DistanceMeters>NAN</DistanceMeters>
          </Trackpoint>
          <Trackpoint>
            <Time>2022-09-24T15:47:10.000Z</Time>
            <Position>
              <LatitudeDegrees>43.3551659993827342987060546875</LatitudeDegrees>
              <LongitudeDegrees>-2.83454951830208301544189453125</LongitudeDegrees>
            </Position>
            <AltitudeMeters>-23.200000762939453125</AltitudeMeters>
            <DistanceMeters>NAN</DistanceMeters>
          </Trackpoint>
          <Trackpoint>
            <Time>2022-09-24T15:47:11.000Z</Time>
            <Position>
              <LatitudeDegrees>43.35524638183414936065673828125</LatitudeDegrees>
              <LongitudeDegrees>-2.83461305312812328338623046875</LongitudeDegrees>
            </Position>
            <AltitudeMeters>-23.200000762939453125</AltitudeMeters>
            <DistanceMeters>NAN</DistanceMeters>
          </Trackpoint>
          <Trackpoint>
            <Time>2022-09-24T15:47:12.000Z</Time>
            <Position>
              <LatitudeDegrees>43.35532735101878643035888671875</LatitudeDegrees>
              <LongitudeDegrees>-2.8346823714673519134521484375</LongitudeDegrees>
            </Position>
            <AltitudeMeters>-23.6000003814697265625</AltitudeMeters>
            <DistanceMeters>NAN</DistanceMeters>
          </Trackpoint>
          <Trackpoint>
            <Time>2022-09-24T15:47:13.000Z</Time>
            <Position>
              <LatitudeDegrees>43.3554053865373134613037109375</LatitudeDegrees>
              <LongitudeDegrees>-2.83475755713880062103271484375</LongitudeDegrees>
            </Position>
            <AltitudeMeters>-24.200000762939453125</AltitudeMeters>
            <DistanceMeters>NAN</DistanceMeters>
          </Trackpoint>
          <Trackpoint>
            <Time>2022-09-24T15:47:14.000Z</Time>
            <Position>
              <LatitudeDegrees>43.35548006929457187652587890625</LatitudeDegrees>
              <LongitudeDegrees>-2.83483416773378849029541015625</LongitudeDegrees>
            </Position>
            <AltitudeMeters>-23.6000003814697265625</AltitudeMeters>
            <DistanceMeters>NAN</DistanceMeters>
          </Trackpoint>
          <Trackpoint>
            <Time>2022-09-24T15:47:15.000Z</Time>
            <Position>
              <LatitudeDegrees>43.35555064491927623748779296875</LatitudeDegrees>
              <LongitudeDegrees>-2.8349137119948863983154296875</LongitudeDegrees>
            </Position>
            <AltitudeMeters>-24.200000762939453125</AltitudeMeters>
            <DistanceMeters>NAN</DistanceMeters>
          </Trackpoint>
          <Trackpoint>
            <Time>2022-09-24T15:47:16.000Z</Time>
            <Position>
              <LatitudeDegrees>43.35561803542077541351318359375</LatitudeDegrees>
              <LongitudeDegrees>-2.83500038087368011474609375</LongitudeDegrees>
            </Position>
            <AltitudeMeters>-23.6000003814697265625</AltitudeMeters>
            <DistanceMeters>NAN</DistanceMeters>
          </Trackpoint>
          <Trackpoint>
            <Time>2022-09-24T15:47:17.000Z</Time>
            <Position>
              <LatitudeDegrees>43.355687521398067474365234375</LatitudeDegrees>
              <LongitudeDegrees>-2.83508378081023693084716796875</LongitudeDegrees>
            </Position>
            <AltitudeMeters>-23.6000003814697265625</AltitudeMeters>
            <DistanceMeters>NAN</DistanceMeters>
          </Trackpoint>
          <Trackpoint>
            <Time>2022-09-24T15:47:18.000Z</Time>
            <Position>
              <LatitudeDegrees>43.355755247175693511962890625</LatitudeDegrees>
              <LongitudeDegrees>-2.83516936004161834716796875</LongitudeDegrees>
            </Position>
            <AltitudeMeters>-23.6000003814697265625</AltitudeMeters>
            <DistanceMeters>NAN</DistanceMeters>
          </Trackpoint>
          <Trackpoint>
            <Time>2022-09-24T15:47:19.000Z</Time>
            <Position>
              <LatitudeDegrees>43.35582070983946323394775390625</LatitudeDegrees>
              <LongitudeDegrees>-2.83525711856782436370849609375</LongitudeDegrees>
            </Position>
            <AltitudeMeters>-23.3999996185302734375</AltitudeMeters>
            <DistanceMeters>NAN</DistanceMeters>
          </Trackpoint>
          <Trackpoint>
            <Time>2022-09-24T15:47:20.000Z</Time>
            <Position>
              <LatitudeDegrees>43.35588390938937664031982421875</LatitudeDegrees>
              <LongitudeDegrees>-2.83535032533109188079833984375</LongitudeDegrees>
            </Position>
            <AltitudeMeters>-22.799999237060546875</AltitudeMeters>
            <DistanceMeters>NAN</DistanceMeters>
          </Trackpoint>
          <Trackpoint>
            <Time>2022-09-24T15:47:21.000Z</Time>
            <Position>
              <LatitudeDegrees>43.35594928823411464691162109375</LatitudeDegrees>
              <LongitudeDegrees>-2.8354434482753276824951171875</LongitudeDegrees>
            </Position>
            <AltitudeMeters>-22.799999237060546875</AltitudeMeters>
            <DistanceMeters>NAN</DistanceMeters>
          </Trackpoint>
          <Trackpoint>
            <Time>2022-09-24T15:47:22.000Z</Time>
            <Position>
              <LatitudeDegrees>43.35601466707885265350341796875</LatitudeDegrees>
              <LongitudeDegrees>-2.83553422428667545318603515625</LongitudeDegrees>
            </Position>
            <AltitudeMeters>-22.799999237060546875</AltitudeMeters>
            <DistanceMeters>NAN</DistanceMeters>
          </Trackpoint>
          <Trackpoint>
            <Time>2022-09-24T15:47:23.000Z</Time>
            <Position>
              <LatitudeDegrees>43.35608138702809810638427734375</LatitudeDegrees>
              <LongitudeDegrees>-2.83562860451638698577880859375</LongitudeDegrees>
            </Position>
            <AltitudeMeters>-23.3999996185302734375</AltitudeMeters>
            <DistanceMeters>NAN</DistanceMeters>
          </Trackpoint>
          <Trackpoint>
            <Time>2022-09-24T15:47:24.000Z</Time>
            <Position>
              <LatitudeDegrees>43.356140814721584320068359375</LatitudeDegrees>
              <LongitudeDegrees>-2.83572734333574771881103515625</LongitudeDegrees>
            </Position>
            <AltitudeMeters>-24.6000003814697265625</AltitudeMeters>
            <DistanceMeters>NAN</DistanceMeters>
          </Trackpoint>
          <Trackpoint>
            <Time>2022-09-24T15:47:25.000Z</Time>
            <Position>
              <LatitudeDegrees>43.35620242170989513397216796875</LatitudeDegrees>
              <LongitudeDegrees>-2.83582524396479129791259765625</LongitudeDegrees>
            </Position>
            <AltitudeMeters>-24.6000003814697265625</AltitudeMeters>
            <DistanceMeters>NAN</DistanceMeters>
          </Trackpoint>
          <Trackpoint>
            <Time>2022-09-24T15:47:26.000Z</Time>
            <Position>
              <LatitudeDegrees>43.35626612417399883270263671875</LatitudeDegrees>
              <LongitudeDegrees>-2.835916690528392791748046875</LongitudeDegrees>
            </Position>
            <AltitudeMeters>-24.799999237060546875</AltitudeMeters>
            <DistanceMeters>NAN</DistanceMeters>
          </Trackpoint>
          <Trackpoint>
            <Time>2022-09-24T15:47:27.000Z</Time>
            <Position>
              <LatitudeDegrees>43.3563414774835109710693359375</LatitudeDegrees>
              <LongitudeDegrees>-2.83602758310735225677490234375</LongitudeDegrees>
            </Position>
            <AltitudeMeters>-24.799999237060546875</AltitudeMeters>
            <DistanceMeters>NAN</DistanceMeters>
          </Trackpoint>
          <Trackpoint>
            <Time>2022-09-24T15:47:28.000Z</Time>
            <Position>
              <LatitudeDegrees>43.35639252327382564544677734375</LatitudeDegrees>
              <LongitudeDegrees>-2.836103104054927825927734375</LongitudeDegrees>
            </Position>
            <AltitudeMeters>-24.799999237060546875</AltitudeMeters>
            <DistanceMeters>NAN</DistanceMeters>
          </Trackpoint>
          <Trackpoint>
            <Time>2022-09-24T15:47:29.000Z</Time>
            <Position>
              <LatitudeDegrees>43.35645496845245361328125</LatitudeDegrees>
              <LongitudeDegrees>-2.8361999988555908203125</LongitudeDegrees>
            </Position>
            <AltitudeMeters>-24.799999237060546875</AltitudeMeters>
            <DistanceMeters>NAN</DistanceMeters>
          </Trackpoint>
          <Trackpoint>
            <Time>2022-09-24T15:47:30.000Z</Time>
            <Position>
              <LatitudeDegrees>43.35651556961238384246826171875</LatitudeDegrees>
              <LongitudeDegrees>-2.83630016259849071502685546875</LongitudeDegrees>
            </Position>
            <AltitudeMeters>-25</AltitudeMeters>
            <DistanceMeters>NAN</DistanceMeters>
          </Trackpoint>
          <Trackpoint>
            <Time>2022-09-24T15:47:31.000Z</Time>
            <Position>
              <LatitudeDegrees>43.35651556961238384246826171875</LatitudeDegrees>
              <LongitudeDegrees>-2.83630016259849071502685546875</LongitudeDegrees>
            </Position>
            <AltitudeMeters>-25.3999996185302734375</AltitudeMeters>
            <DistanceMeters>NAN</DistanceMeters>
          </Trackpoint>
          <Trackpoint>
            <Time>2022-09-24T15:47:32.000Z</Time>
            <Position>
              <LatitudeDegrees>43.35663266479969024658203125</LatitudeDegrees>
              <LongitudeDegrees>-2.83648942597210407257080078125</LongitudeDegrees>
            </Position>
            <AltitudeMeters>-25.3999996185302734375</AltitudeMeters>
            <DistanceMeters>NAN</DistanceMeters>
          </Trackpoint>
          <Trackpoint>
            <Time>2022-09-24T15:47:33.000Z</Time>
            <Position>
              <LatitudeDegrees>43.35669142194092273712158203125</LatitudeDegrees>
              <LongitudeDegrees>-2.8365850634872913360595703125</LongitudeDegrees>
            </Position>
            <AltitudeMeters>-25.3999996185302734375</AltitudeMeters>
            <DistanceMeters>NAN</DistanceMeters>
          </Trackpoint>
          <Trackpoint>
            <Time>2022-09-24T15:47:34.000Z</Time>
            <Position>
              <LatitudeDegrees>43.35675193928182125091552734375</LatitudeDegrees>
              <LongitudeDegrees>-2.8366836346685886383056640625</LongitudeDegrees>
            </Position>
            <AltitudeMeters>-25.3999996185302734375</AltitudeMeters>
            <DistanceMeters>NAN</DistanceMeters>
          </Trackpoint>
          <Trackpoint>
            <Time>2022-09-24T15:47:35.000Z</Time>
            <Position>
              <LatitudeDegrees>43.35681505501270294189453125</LatitudeDegrees>
              <LongitudeDegrees>-2.83677734434604644775390625</LongitudeDegrees>
            </Position>
            <AltitudeMeters>-25.3999996185302734375</AltitudeMeters>
            <DistanceMeters>NAN</DistanceMeters>
          </Trackpoint>
          <Trackpoint>
            <Time>2022-09-24T15:47:36.000Z</Time>
            <Position>
              <LatitudeDegrees>43.3568802662193775177001953125</LatitudeDegrees>
              <LongitudeDegrees>-2.836861498653888702392578125</LongitudeDegrees>
            </Position>
            <AltitudeMeters>-25.200000762939453125</AltitudeMeters>
            <DistanceMeters>NAN</DistanceMeters>
          </Trackpoint>
          <Trackpoint>
            <Time>2022-09-24T15:47:37.000Z</Time>
            <Position>
              <LatitudeDegrees>43.35694807581603527069091796875</LatitudeDegrees>
              <LongitudeDegrees>-2.8369389474391937255859375</LongitudeDegrees>
            </Position>
            <AltitudeMeters>-25</AltitudeMeters>
            <DistanceMeters>NAN</DistanceMeters>
          </Trackpoint>
          <Trackpoint>
            <Time>2022-09-24T15:47:38.000Z</Time>
            <Position>
              <LatitudeDegrees>43.35702351294457912445068359375</LatitudeDegrees>
              <LongitudeDegrees>-2.83700105734169483184814453125</LongitudeDegrees>
            </Position>
            <AltitudeMeters>-25</AltitudeMeters>
            <DistanceMeters>NAN</DistanceMeters>
          </Trackpoint>
          <Trackpoint>
            <Time>2022-09-24T15:47:39.000Z</Time>
            <Position>
              <LatitudeDegrees>43.3571049012243747711181640625</LatitudeDegrees>
              <LongitudeDegrees>-2.83704221248626708984375</LongitudeDegrees>
            </Position>
            <AltitudeMeters>-25</AltitudeMeters>
            <DistanceMeters>NAN</DistanceMeters>
          </Trackpoint>
          <Trackpoint>
            <Time>2022-09-24T15:47:40.000Z</Time>
            <Position>
              <LatitudeDegrees>43.3571880497038364410400390625</LatitudeDegrees>
              <LongitudeDegrees>-2.8370564617216587066650390625</LongitudeDegrees>
            </Position>
            <AltitudeMeters>-25</AltitudeMeters>
            <DistanceMeters>NAN</DistanceMeters>
          </Trackpoint>
          <Trackpoint>
            <Time>2022-09-24T15:47:41.000Z</Time>
            <Position>
              <LatitudeDegrees>43.35726994089782238006591796875</LatitudeDegrees>
              <LongitudeDegrees>-2.83704296685755252838134765625</LongitudeDegrees>
            </Position>
            <AltitudeMeters>-25</AltitudeMeters>
            <DistanceMeters>NAN</DistanceMeters>
          </Trackpoint>
          <Trackpoint>
            <Time>2022-09-24T15:47:42.000Z</Time>
            <Position>
              <LatitudeDegrees>43.35734789259731769561767578125</LatitudeDegrees>
              <LongitudeDegrees>-2.83701044507324695587158203125</LongitudeDegrees>
            </Position>
            <AltitudeMeters>-25</AltitudeMeters>
            <DistanceMeters>NAN</DistanceMeters>
          </Trackpoint>
          <Trackpoint>
            <Time>2022-09-24T15:47:43.000Z</Time>
            <Position>
              <LatitudeDegrees>43.35742198862135410308837890625</LatitudeDegrees>
              <LongitudeDegrees>-2.83696417696774005889892578125</LongitudeDegrees>
            </Position>
            <AltitudeMeters>-25.200000762939453125</AltitudeMeters>
            <DistanceMeters>NAN</DistanceMeters>
          </Trackpoint>
          <Trackpoint>
            <Time>2022-09-24T15:47:44.000Z</Time>
            <Position>
              <LatitudeDegrees>43.35749004967510700225830078125</LatitudeDegrees>
              <LongitudeDegrees>-2.83689946867525577545166015625</LongitudeDegrees>
            </Position>
            <AltitudeMeters>-25.200000762939453125</AltitudeMeters>
            <DistanceMeters>NAN</DistanceMeters>
          </Trackpoint>
          <Trackpoint>
            <Time>2022-09-24T15:47:45.000Z</Time>
            <Position>
              <LatitudeDegrees>43.35755492560565471649169921875</LatitudeDegrees>
              <LongitudeDegrees>-2.83682294189929962158203125</LongitudeDegrees>
            </Position>
            <AltitudeMeters>-25</AltitudeMeters>
            <DistanceMeters>NAN</DistanceMeters>
          </Trackpoint>
          <Trackpoint>
            <Time>2022-09-24T15:47:46.000Z</Time>
            <Position>
              <LatitudeDegrees>43.35761410184204578399658203125</LatitudeDegrees>
              <LongitudeDegrees>-2.836740799248218536376953125</LongitudeDegrees>
            </Position>
            <AltitudeMeters>-24.3999996185302734375</AltitudeMeters>
            <DistanceMeters>NAN</DistanceMeters>
          </Trackpoint>
          <Trackpoint>
            <Time>2022-09-24T15:47:47.000Z</Time>
            <Position>
              <LatitudeDegrees>43.35767763666808605194091796875</LatitudeDegrees>
              <LongitudeDegrees>-2.83663728274405002593994140625</LongitudeDegrees>
            </Position>
            <AltitudeMeters>-24.200000762939453125</AltitudeMeters>
            <DistanceMeters>NAN</DistanceMeters>
          </Trackpoint>
          <Trackpoint>
            <Time>2022-09-24T15:47:48.000Z</Time>
            <Position>
              <LatitudeDegrees>43.35771485231816768646240234375</LatitudeDegrees>
              <LongitudeDegrees>-2.8365676291286945343017578125</LongitudeDegrees>
            </Position>
            <AltitudeMeters>-24.200000762939453125</AltitudeMeters>
            <DistanceMeters>NAN</DistanceMeters>
          </Trackpoint>
          <Trackpoint>
            <Time>2022-09-24T15:47:49.000Z</Time>
            <Position>
              <LatitudeDegrees>43.3577570132911205291748046875</LatitudeDegrees>
              <LongitudeDegrees>-2.8364856541156768798828125</LongitudeDegrees>
            </Position>
            <AltitudeMeters>-24.200000762939453125</AltitudeMeters>
            <DistanceMeters>NAN</DistanceMeters>
          </Trackpoint>
          <Trackpoint>
            <Time>2022-09-24T15:47:50.000Z</Time>
            <Position>
              <LatitudeDegrees>43.357805795967578887939453125</LatitudeDegrees>
              <LongitudeDegrees>-2.836392112076282501220703125</LongitudeDegrees>
            </Position>
            <AltitudeMeters>-24</AltitudeMeters>
            <DistanceMeters>NAN</DistanceMeters>
          </Trackpoint>
          <Trackpoint>
            <Time>2022-09-24T15:47:51.000Z</Time>
            <Position>
              <LatitudeDegrees>43.35784544236958026885986328125</LatitudeDegrees>
              <LongitudeDegrees>-2.83631910569965839385986328125</LongitudeDegrees>
            </Position>
            <AltitudeMeters>-23.799999237060546875</AltitudeMeters>
            <DistanceMeters>NAN</DistanceMeters>
          </Trackpoint>
          <Trackpoint>
            <Time>2022-09-24T15:47:52.000Z</Time>
            <Position>
              <LatitudeDegrees>43.357883580029010772705078125</LatitudeDegrees>
              <LongitudeDegrees>-2.83624584786593914031982421875</LongitudeDegrees>
            </Position>
            <AltitudeMeters>-23.3999996185302734375</AltitudeMeters>
            <DistanceMeters>NAN</DistanceMeters>
          </Trackpoint>
          <Trackpoint>
            <Time>2022-09-24T15:47:53.000Z</Time>
            <Position>
              <LatitudeDegrees>43.35791082121431827545166015625</LatitudeDegrees>
              <LongitudeDegrees>-2.8361937962472438812255859375</LongitudeDegrees>
            </Position>
            <AltitudeMeters>-22.6000003814697265625</AltitudeMeters>
            <DistanceMeters>NAN</DistanceMeters>
          </Trackpoint>
          <Trackpoint>
            <Time>2022-09-24T15:47:54.000Z</Time>
            <Position>
              <LatitudeDegrees>43.3579467795789241790771484375</LatitudeDegrees>
              <LongitudeDegrees>-2.8361371345818042755126953125</LongitudeDegrees>
            </Position>
            <AltitudeMeters>-21.6000003814697265625</AltitudeMeters>
            <DistanceMeters>NAN</DistanceMeters>
          </Trackpoint>
          <Trackpoint>
            <Time>2022-09-24T15:47:55.000Z</Time>
            <Position>
              <LatitudeDegrees>43.357984162867069244384765625</LatitudeDegrees>
              <LongitudeDegrees>-2.8360834904015064239501953125</LongitudeDegrees>
            </Position>
            <AltitudeMeters>-21.6000003814697265625</AltitudeMeters>
            <DistanceMeters>NAN</DistanceMeters>
          </Trackpoint>
          <Trackpoint>
            <Time>2022-09-24T15:47:56.000Z</Time>
            <Position>
              <LatitudeDegrees>43.3580272458493709564208984375</LatitudeDegrees>
              <LongitudeDegrees>-2.8360248170793056488037109375</LongitudeDegrees>
            </Position>
            <AltitudeMeters>-21.3999996185302734375</AltitudeMeters>
            <DistanceMeters>NAN</DistanceMeters>
          </Trackpoint>
          <Trackpoint>
            <Time>2022-09-24T15:47:57.000Z</Time>
            <Position>
              <LatitudeDegrees>43.3580554090440273284912109375</LatitudeDegrees>
              <LongitudeDegrees>-2.8359886072576045989990234375</LongitudeDegrees>
            </Position>
            <AltitudeMeters>-20.6000003814697265625</AltitudeMeters>
            <DistanceMeters>NAN</DistanceMeters>
          </Trackpoint>
          <Trackpoint>
            <Time>2022-09-24T15:47:58.000Z</Time>
            <Position>
              <LatitudeDegrees>43.35809086449444293975830078125</LatitudeDegrees>
              <LongitudeDegrees>-2.835946865379810333251953125</LongitudeDegrees>
            </Position>
            <AltitudeMeters>-20.6000003814697265625</AltitudeMeters>
            <DistanceMeters>NAN</DistanceMeters>
          </Trackpoint>
          <Trackpoint>
            <Time>2022-09-24T15:47:59.000Z</Time>
            <Position>
              <LatitudeDegrees>43.35812992416322231292724609375</LatitudeDegrees>
              <LongitudeDegrees>-2.8358984179794788360595703125</LongitudeDegrees>
            </Position>
            <AltitudeMeters>-20.200000762939453125</AltitudeMeters>
            <DistanceMeters>NAN</DistanceMeters>
          </Trackpoint>
          <Trackpoint>
            <Time>2022-09-24T15:48:00.000Z</Time>
            <Position>
              <LatitudeDegrees>43.3581533096730709075927734375</LatitudeDegrees>
              <LongitudeDegrees>-2.8358682431280612945556640625</LongitudeDegrees>
            </Position>
            <AltitudeMeters>-20</AltitudeMeters>
            <DistanceMeters>NAN</DistanceMeters>
          </Trackpoint>
          <Trackpoint>
            <Time>2022-09-24T15:48:01.000Z</Time>
            <Position>
              <LatitudeDegrees>43.35818373598158359527587890625</LatitudeDegrees>
              <LongitudeDegrees>-2.83583513461053371429443359375</LongitudeDegrees>
            </Position>
            <AltitudeMeters>-20</AltitudeMeters>
            <DistanceMeters>NAN</DistanceMeters>
          </Trackpoint>
          <Trackpoint>
            <Time>2022-09-24T15:48:02.000Z</Time>
            <Position>
              <LatitudeDegrees>43.35821525193750858306884765625</LatitudeDegrees>
              <LongitudeDegrees>-2.83580278046429157257080078125</LongitudeDegrees>
            </Position>
            <AltitudeMeters>-19.6000003814697265625</AltitudeMeters>
            <DistanceMeters>NAN</DistanceMeters>
          </Trackpoint>
          <Trackpoint>
            <Time>2022-09-24T15:48:03.000Z</Time>
            <Position>
              <LatitudeDegrees>43.3582461811602115631103515625</LatitudeDegrees>
              <LongitudeDegrees>-2.83576874993741512298583984375</LongitudeDegrees>
            </Position>
            <AltitudeMeters>-19.6000003814697265625</AltitudeMeters>
            <DistanceMeters>NAN</DistanceMeters>
          </Trackpoint>
          <Trackpoint>
            <Time>2022-09-24T15:48:04.000Z</Time>
            <Position>
              <LatitudeDegrees>43.3582770265638828277587890625</LatitudeDegrees>
              <LongitudeDegrees>-2.83573874272406101226806640625</LongitudeDegrees>
            </Position>
            <AltitudeMeters>-18.6000003814697265625</AltitudeMeters>
            <DistanceMeters>NAN</DistanceMeters>
          </Trackpoint>
          <Trackpoint>
            <Time>2022-09-24T15:48:05.000Z</Time>
            <Position>
              <LatitudeDegrees>43.35831633768975734710693359375</LatitudeDegrees>
              <LongitudeDegrees>-2.83570420928299427032470703125</LongitudeDegrees>
            </Position>
            <AltitudeMeters>-18</AltitudeMeters>
            <DistanceMeters>NAN</DistanceMeters>
          </Trackpoint>
          <Trackpoint>
            <Time>2022-09-24T15:48:06.000Z</Time>
            <Position>
              <LatitudeDegrees>43.358340226113796234130859375</LatitudeDegrees>
              <LongitudeDegrees>-2.8356811590492725372314453125</LongitudeDegrees>
            </Position>
            <AltitudeMeters>-18</AltitudeMeters>
            <DistanceMeters>NAN</DistanceMeters>
          </Trackpoint>
          <Trackpoint>
            <Time>2022-09-24T15:48:07.000Z</Time>
            <Position>
              <LatitudeDegrees>43.35836880840361118316650390625</LatitudeDegrees>
              <LongitudeDegrees>-2.83564955927431583404541015625</LongitudeDegrees>
            </Position>
            <AltitudeMeters>-18</AltitudeMeters>
            <DistanceMeters>NAN</DistanceMeters>
          </Trackpoint>
          <Trackpoint>
            <Time>2022-09-24T15:48:08.000Z</Time>
            <Position>
              <LatitudeDegrees>43.35840283893048763275146484375</LatitudeDegrees>
              <LongitudeDegrees>-2.83561334945261478424072265625</LongitudeDegrees>
            </Position>
            <AltitudeMeters>-17.799999237060546875</AltitudeMeters>
            <DistanceMeters>NAN</DistanceMeters>
          </Trackpoint>
          <Trackpoint>
            <Time>2022-09-24T15:48:09.000Z</Time>
            <Position>
              <LatitudeDegrees>43.358425386250019073486328125</LatitudeDegrees>
              <LongitudeDegrees>-2.83559205941855907440185546875</LongitudeDegrees>
            </Position>
            <AltitudeMeters>-17.200000762939453125</AltitudeMeters>
            <DistanceMeters>NAN</DistanceMeters>
          </Trackpoint>
          <Trackpoint>
            <Time>2022-09-24T15:48:10.000Z</Time>
            <Position>
              <LatitudeDegrees>43.3584533818066120147705078125</LatitudeDegrees>
              <LongitudeDegrees>-2.835565991699695587158203125</LongitudeDegrees>
            </Position>
            <AltitudeMeters>-17</AltitudeMeters>
            <DistanceMeters>NAN</DistanceMeters>
          </Trackpoint>
          <Trackpoint>
            <Time>2022-09-24T15:48:11.000Z</Time>
            <Position>
              <LatitudeDegrees>43.35848229937255382537841796875</LatitudeDegrees>
              <LongitudeDegrees>-2.83554059453308582305908203125</LongitudeDegrees>
            </Position>
            <AltitudeMeters>-17</AltitudeMeters>
            <DistanceMeters>NAN</DistanceMeters>
          </Trackpoint>
          <Trackpoint>
            <Time>2022-09-24T15:48:12.000Z</Time>
            <Position>
              <LatitudeDegrees>43.3585103787481784820556640625</LatitudeDegrees>
              <LongitudeDegrees>-2.8355173766613006591796875</LongitudeDegrees>
            </Position>
            <AltitudeMeters>-16.200000762939453125</AltitudeMeters>
            <DistanceMeters>NAN</DistanceMeters>
          </Trackpoint>
          <Trackpoint>
            <Time>2022-09-24T15:48:13.000Z</Time>
            <Position>
              <LatitudeDegrees>43.35853694938123226165771484375</LatitudeDegrees>
              <LongitudeDegrees>-2.83549415878951549530029296875</LongitudeDegrees>
            </Position>
            <AltitudeMeters>-16</AltitudeMeters>
            <DistanceMeters>NAN</DistanceMeters>
          </Trackpoint>
          <Trackpoint>
            <Time>2022-09-24T15:48:14.000Z</Time>
            <Position>
              <LatitudeDegrees>43.3585700578987598419189453125</LatitudeDegrees>
              <LongitudeDegrees>-2.83546800725162029266357421875</LongitudeDegrees>
            </Position>
            <AltitudeMeters>-15.80000019073486328125</AltitudeMeters>
            <DistanceMeters>NAN</DistanceMeters>
          </Trackpoint>
          <Trackpoint>
            <Time>2022-09-24T15:48:15.000Z</Time>
            <Position>
              <LatitudeDegrees>43.35859193466603755950927734375</LatitudeDegrees>
              <LongitudeDegrees>-2.83545006997883319854736328125</LongitudeDegrees>
            </Position>
            <AltitudeMeters>-15.80000019073486328125</AltitudeMeters>
            <DistanceMeters>NAN</DistanceMeters>
          </Trackpoint>
          <Trackpoint>
            <Time>2022-09-24T15:48:16.000Z</Time>
            <Position>
              <LatitudeDegrees>43.3586213551461696624755859375</LatitudeDegrees>
              <LongitudeDegrees>-2.83542953431606292724609375</LongitudeDegrees>
            </Position>
            <AltitudeMeters>-15.6000003814697265625</AltitudeMeters>
            <DistanceMeters>NAN</DistanceMeters>
          </Trackpoint>
          <Trackpoint>
            <Time>2022-09-24T15:48:17.000Z</Time>
            <Position>
              <LatitudeDegrees>43.35865094326436519622802734375</LatitudeDegrees>
              <LongitudeDegrees>-2.83541201613843441009521484375</LongitudeDegrees>
            </Position>
            <AltitudeMeters>-15</AltitudeMeters>
            <DistanceMeters>NAN</DistanceMeters>
          </Trackpoint>
          <Trackpoint>
            <Time>2022-09-24T15:48:18.000Z</Time>
            <Position>
              <LatitudeDegrees>43.35867994464933872222900390625</LatitudeDegrees>
              <LongitudeDegrees>-2.8353944979608058929443359375</LongitudeDegrees>
            </Position>
            <AltitudeMeters>-15</AltitudeMeters>
            <DistanceMeters>NAN</DistanceMeters>
          </Trackpoint>
          <Trackpoint>
            <Time>2022-09-24T15:48:19.000Z</Time>
            <Position>
              <LatitudeDegrees>43.35870944894850254058837890625</LatitudeDegrees>
              <LongitudeDegrees>-2.83538083545863628387451171875</LongitudeDegrees>
            </Position>
            <AltitudeMeters>-14.80000019073486328125</AltitudeMeters>
            <DistanceMeters>NAN</DistanceMeters>
          </Trackpoint>
          <Trackpoint>
            <Time>2022-09-24T15:48:20.000Z</Time>
            <Position>
              <LatitudeDegrees>43.35870944894850254058837890625</LatitudeDegrees>
              <LongitudeDegrees>-2.83538083545863628387451171875</LongitudeDegrees>
            </Position>
            <AltitudeMeters>-14.80000019073486328125</AltitudeMeters>
            <DistanceMeters>NAN</DistanceMeters>
          </Trackpoint>
          <Trackpoint>
            <Time>2022-09-24T15:48:21.000Z</Time>
            <Position>
              <LatitudeDegrees>43.3587692119181156158447265625</LatitudeDegrees>
              <LongitudeDegrees>-2.835355103015899658203125</LongitudeDegrees>
            </Position>
            <AltitudeMeters>-14.6000003814697265625</AltitudeMeters>
            <DistanceMeters>NAN</DistanceMeters>
          </Trackpoint>
          <Trackpoint>
            <Time>2022-09-24T15:48:22.000Z</Time>
            <Position>
              <LatitudeDegrees>43.3587953634560108184814453125</LatitudeDegrees>
              <LongitudeDegrees>-2.835342697799205780029296875</LongitudeDegrees>
            </Position>
            <AltitudeMeters>-14</AltitudeMeters>
            <DistanceMeters>NAN</DistanceMeters>
          </Trackpoint>
          <Trackpoint>
            <Time>2022-09-24T15:48:23.000Z</Time>
            <Position>
              <LatitudeDegrees>43.3588258735835552215576171875</LatitudeDegrees>
              <LongitudeDegrees>-2.8353323042392730712890625</LongitudeDegrees>
            </Position>
            <AltitudeMeters>-14</AltitudeMeters>
            <DistanceMeters>NAN</DistanceMeters>
          </Trackpoint>
          <Trackpoint>
            <Time>2022-09-24T15:48:24.000Z</Time>
            <Position>
              <LatitudeDegrees>43.35885646753013134002685546875</LatitudeDegrees>
              <LongitudeDegrees>-2.83532082103192806243896484375</LongitudeDegrees>
            </Position>
            <AltitudeMeters>-13.3999996185302734375</AltitudeMeters>
            <DistanceMeters>NAN</DistanceMeters>
          </Trackpoint>
          <Trackpoint>
            <Time>2022-09-24T15:48:25.000Z</Time>
            <Position>
              <LatitudeDegrees>43.35888764820992946624755859375</LatitudeDegrees>
              <LongitudeDegrees>-2.83531009219586849212646484375</LongitudeDegrees>
            </Position>
            <AltitudeMeters>-13.19999980926513671875</AltitudeMeters>
            <DistanceMeters>NAN</DistanceMeters>
          </Trackpoint>
          <Trackpoint>
            <Time>2022-09-24T15:48:26.000Z</Time>
            <Position>
              <LatitudeDegrees>43.358918242156505584716796875</LatitudeDegrees>
              <LongitudeDegrees>-2.83530187793076038360595703125</LongitudeDegrees>
            </Position>
            <AltitudeMeters>-13</AltitudeMeters>
            <DistanceMeters>NAN</DistanceMeters>
          </Trackpoint>
          <Trackpoint>
            <Time>2022-09-24T15:48:27.000Z</Time>
            <Position>
              <LatitudeDegrees>43.35895453579723834991455078125</LatitudeDegrees>
              <LongitudeDegrees>-2.83529567532241344451904296875</LongitudeDegrees>
            </Position>
            <AltitudeMeters>-12.80000019073486328125</AltitudeMeters>
            <DistanceMeters>NAN</DistanceMeters>
          </Trackpoint>
          <Trackpoint>
            <Time>2022-09-24T15:48:28.000Z</Time>
            <Position>
              <LatitudeDegrees>43.35897817276418209075927734375</LatitudeDegrees>
              <LongitudeDegrees>-2.8352919034659862518310546875</LongitudeDegrees>
            </Position>
            <AltitudeMeters>-12.3999996185302734375</AltitudeMeters>
            <DistanceMeters>NAN</DistanceMeters>
          </Trackpoint>
          <Trackpoint>
            <Time>2022-09-24T15:48:29.000Z</Time>
            <Position>
              <LatitudeDegrees>43.3590072579681873321533203125</LatitudeDegrees>
              <LongitudeDegrees>-2.8352840244770050048828125</LongitudeDegrees>
            </Position>
            <AltitudeMeters>-12</AltitudeMeters>
            <DistanceMeters>NAN</DistanceMeters>
          </Trackpoint>
          <Trackpoint>
            <Time>2022-09-24T15:48:30.000Z</Time>
            <Position>
              <LatitudeDegrees>43.3590367622673511505126953125</LatitudeDegrees>
              <LongitudeDegrees>-2.8352701105177402496337890625</LongitudeDegrees>
            </Position>
            <AltitudeMeters>-12</AltitudeMeters>
            <DistanceMeters>NAN</DistanceMeters>
          </Trackpoint>
          <Trackpoint>
            <Time>2022-09-24T15:48:31.000Z</Time>
            <Position>
              <LatitudeDegrees>43.35906333290040493011474609375</LatitudeDegrees>
              <LongitudeDegrees>-2.835247479379177093505859375</LongitudeDegrees>
            </Position>
            <AltitudeMeters>-12</AltitudeMeters>
            <DistanceMeters>NAN</DistanceMeters>
          </Trackpoint>
          <Trackpoint>
            <Time>2022-09-24T15:48:32.000Z</Time>
            <Position>
              <LatitudeDegrees>43.3590863831341266632080078125</LatitudeDegrees>
              <LongitudeDegrees>-2.8352339006960391998291015625</LongitudeDegrees>
            </Position>
            <AltitudeMeters>-11.6000003814697265625</AltitudeMeters>
            <DistanceMeters>NAN</DistanceMeters>
          </Trackpoint>
          <Trackpoint>
            <Time>2022-09-24T15:48:33.000Z</Time>
            <Position>
              <LatitudeDegrees>43.3591121993958950042724609375</LatitudeDegrees>
              <LongitudeDegrees>-2.83522526733577251434326171875</LongitudeDegrees>
            </Position>
            <AltitudeMeters>-11</AltitudeMeters>
            <DistanceMeters>NAN</DistanceMeters>
          </Trackpoint>
          <Trackpoint>
            <Time>2022-09-24T15:48:34.000Z</Time>
            <Position>
              <LatitudeDegrees>43.35913809947669506072998046875</LatitudeDegrees>
              <LongitudeDegrees>-2.83521420322358608245849609375</LongitudeDegrees>
            </Position>
            <AltitudeMeters>-11</AltitudeMeters>
            <DistanceMeters>NAN</DistanceMeters>
          </Trackpoint>
          <Trackpoint>
            <Time>2022-09-24T15:48:35.000Z</Time>
            <Position>
              <LatitudeDegrees>43.3591651730239391326904296875</LatitudeDegrees>
              <LongitudeDegrees>-2.83519693650305271148681640625</LongitudeDegrees>
            </Position>
            <AltitudeMeters>-10.80000019073486328125</AltitudeMeters>
            <DistanceMeters>NAN</DistanceMeters>
          </Trackpoint>
          <Trackpoint>
            <Time>2022-09-24T15:48:36.000Z</Time>
            <Position>
              <LatitudeDegrees>43.35919023491442203521728515625</LatitudeDegrees>
              <LongitudeDegrees>-2.83518771640956401824951171875</LongitudeDegrees>
            </Position>
            <AltitudeMeters>-10.6000003814697265625</AltitudeMeters>
            <DistanceMeters>NAN</DistanceMeters>
          </Trackpoint>
          <Trackpoint>
            <Time>2022-09-24T15:48:37.000Z</Time>
            <Position>
              <LatitudeDegrees>43.359214961528778076171875</LatitudeDegrees>
              <LongitudeDegrees>-2.835178077220916748046875</LongitudeDegrees>
            </Position>
            <AltitudeMeters>-10.6000003814697265625</AltitudeMeters>
            <DistanceMeters>NAN</DistanceMeters>
          </Trackpoint>
          <Trackpoint>
            <Time>2022-09-24T15:48:38.000Z</Time>
            <Position>
              <LatitudeDegrees>43.3592385984957218170166015625</LatitudeDegrees>
              <LongitudeDegrees>-2.83516894094645977020263671875</LongitudeDegrees>
            </Position>
            <AltitudeMeters>-10.19999980926513671875</AltitudeMeters>
            <DistanceMeters>NAN</DistanceMeters>
          </Trackpoint>
          <Trackpoint>
            <Time>2022-09-24T15:48:39.000Z</Time>
            <Position>
              <LatitudeDegrees>43.35926097817718982696533203125</LatitudeDegrees>
              <LongitudeDegrees>-2.8351624868810176849365234375</LongitudeDegrees>
            </Position>
            <AltitudeMeters>-9.80000019073486328125</AltitudeMeters>
            <DistanceMeters>NAN</DistanceMeters>
          </Trackpoint>
          <Trackpoint>
            <Time>2022-09-24T15:48:40.000Z</Time>
            <Position>
              <LatitudeDegrees>43.359286375343799591064453125</LatitudeDegrees>
              <LongitudeDegrees>-2.83515821211040019989013671875</LongitudeDegrees>
            </Position>
            <AltitudeMeters>-9.6000003814697265625</AltitudeMeters>
            <DistanceMeters>NAN</DistanceMeters>
          </Trackpoint>
          <Trackpoint>
            <Time>2022-09-24T15:48:41.000Z</Time>
            <Position>
              <LatitudeDegrees>43.359313197433948516845703125</LatitudeDegrees>
              <LongitudeDegrees>-2.8351520933210849761962890625</LongitudeDegrees>
            </Position>
            <AltitudeMeters>-9.3999996185302734375</AltitudeMeters>
            <DistanceMeters>NAN</DistanceMeters>
          </Trackpoint>
          <Trackpoint>
            <Time>2022-09-24T15:48:42.000Z</Time>
            <Position>
              <LatitudeDegrees>43.35934228263795375823974609375</LatitudeDegrees>
              <LongitudeDegrees>-2.83514714799821376800537109375</LongitudeDegrees>
            </Position>
            <AltitudeMeters>-9.19999980926513671875</AltitudeMeters>
            <DistanceMeters>NAN</DistanceMeters>
          </Trackpoint>
          <Trackpoint>
            <Time>2022-09-24T15:48:43.000Z</Time>
            <Position>
              <LatitudeDegrees>43.3593750558793544769287109375</LatitudeDegrees>
              <LongitudeDegrees>-2.8351403586566448211669921875</LongitudeDegrees>
            </Position>
            <AltitudeMeters>-8.6000003814697265625</AltitudeMeters>
            <DistanceMeters>NAN</DistanceMeters>
          </Trackpoint>
          <Trackpoint>
            <Time>2022-09-24T15:48:44.000Z</Time>
            <Position>
              <LatitudeDegrees>43.35939592681825160980224609375</LatitudeDegrees>
              <LongitudeDegrees>-2.83513558097183704376220703125</LongitudeDegrees>
            </Position>
            <AltitudeMeters>-8.6000003814697265625</AltitudeMeters>
            <DistanceMeters>NAN</DistanceMeters>
          </Trackpoint>
          <Trackpoint>
            <Time>2022-09-24T15:48:45.000Z</Time>
            <Position>
              <LatitudeDegrees>43.359424509108066558837890625</LatitudeDegrees>
              <LongitudeDegrees>-2.83513139002025127410888671875</LongitudeDegrees>
            </Position>
            <AltitudeMeters>-8.3999996185302734375</AltitudeMeters>
            <DistanceMeters>NAN</DistanceMeters>
          </Trackpoint>
          <Trackpoint>
            <Time>2022-09-24T15:48:46.000Z</Time>
            <Position>
              <LatitudeDegrees>43.359449990093708038330078125</LatitudeDegrees>
              <LongitudeDegrees>-2.83512501977384090423583984375</LongitudeDegrees>
            </Position>
            <AltitudeMeters>-8</AltitudeMeters>
            <DistanceMeters>NAN</DistanceMeters>
          </Trackpoint>
          <Trackpoint>
            <Time>2022-09-24T15:48:47.000Z</Time>
            <Position>
              <LatitudeDegrees>43.35947454907000064849853515625</LatitudeDegrees>
              <LongitudeDegrees>-2.83511529676616191864013671875</LongitudeDegrees>
            </Position>
            <AltitudeMeters>-7.599999904632568359375</AltitudeMeters>
            <DistanceMeters>NAN</DistanceMeters>
          </Trackpoint>
          <Trackpoint>
            <Time>2022-09-24T15:48:48.000Z</Time>
            <Position>
              <LatitudeDegrees>43.3595004491508007049560546875</LatitudeDegrees>
              <LongitudeDegrees>-2.8351069986820220947265625</LongitudeDegrees>
            </Position>
            <AltitudeMeters>-7.599999904632568359375</AltitudeMeters>
            <DistanceMeters>NAN</DistanceMeters>
          </Trackpoint>
          <Trackpoint>
            <Time>2022-09-24T15:48:49.000Z</Time>
            <Position>
              <LatitudeDegrees>43.3595004491508007049560546875</LatitudeDegrees>
              <LongitudeDegrees>-2.8351069986820220947265625</LongitudeDegrees>
            </Position>
            <AltitudeMeters>-7.19999980926513671875</AltitudeMeters>
            <DistanceMeters>NAN</DistanceMeters>
          </Trackpoint>
          <Trackpoint>
            <Time>2022-09-24T15:48:50.000Z</Time>
            <Position>
              <LatitudeDegrees>43.35955434478819370269775390625</LatitudeDegrees>
              <LongitudeDegrees>-2.83508880995213985443115234375</LongitudeDegrees>
            </Position>
            <AltitudeMeters>-7.19999980926513671875</AltitudeMeters>
            <DistanceMeters>NAN</DistanceMeters>
          </Trackpoint>
          <Trackpoint>
            <Time>2022-09-24T15:48:51.000Z</Time>
            <Position>
              <LatitudeDegrees>43.35958217270672321319580078125</LatitudeDegrees>
              <LongitudeDegrees>-2.8350774943828582763671875</LongitudeDegrees>
            </Position>
            <AltitudeMeters>-7</AltitudeMeters>
            <DistanceMeters>NAN</DistanceMeters>
          </Trackpoint>
          <Trackpoint>
            <Time>2022-09-24T15:48:52.000Z</Time>
            <Position>
              <LatitudeDegrees>43.35958217270672321319580078125</LatitudeDegrees>
              <LongitudeDegrees>-2.8350774943828582763671875</LongitudeDegrees>
            </Position>
            <AltitudeMeters>-6.599999904632568359375</AltitudeMeters>
            <DistanceMeters>NAN</DistanceMeters>
          </Trackpoint>
          <Trackpoint>
            <Time>2022-09-24T15:48:53.000Z</Time>
            <Position>
              <LatitudeDegrees>43.3596355654299259185791015625</LatitudeDegrees>
              <LongitudeDegrees>-2.8350525163114070892333984375</LongitudeDegrees>
            </Position>
            <AltitudeMeters>-6.599999904632568359375</AltitudeMeters>
            <DistanceMeters>NAN</DistanceMeters>
          </Trackpoint>
          <Trackpoint>
            <Time>2022-09-24T15:48:54.000Z</Time>
            <Position>
              <LatitudeDegrees>43.3596593700349330902099609375</LatitudeDegrees>
              <LongitudeDegrees>-2.835038602352142333984375</LongitudeDegrees>
            </Position>
            <AltitudeMeters>-6.400000095367431640625</AltitudeMeters>
            <DistanceMeters>NAN</DistanceMeters>
          </Trackpoint>
          <Trackpoint>
            <Time>2022-09-24T15:48:55.000Z</Time>
            <Position>
              <LatitudeDegrees>43.35968879051506519317626953125</LatitudeDegrees>
              <LongitudeDegrees>-2.8350213356316089630126953125</LongitudeDegrees>
            </Position>
            <AltitudeMeters>-6.19999980926513671875</AltitudeMeters>
            <DistanceMeters>NAN</DistanceMeters>
          </Trackpoint>
          <Trackpoint>
            <Time>2022-09-24T15:48:56.000Z</Time>
            <Position>
              <LatitudeDegrees>43.3597160317003726959228515625</LatitudeDegrees>
              <LongitudeDegrees>-2.83500934951007366180419921875</LongitudeDegrees>
            </Position>
            <AltitudeMeters>-6.19999980926513671875</AltitudeMeters>
            <DistanceMeters>NAN</DistanceMeters>
          </Trackpoint>
          <Trackpoint>
            <Time>2022-09-24T15:48:57.000Z</Time>
            <Position>
              <LatitudeDegrees>43.35973799228668212890625</LatitudeDegrees>
              <LongitudeDegrees>-2.835001386702060699462890625</LongitudeDegrees>
            </Position>
            <AltitudeMeters>-6</AltitudeMeters>
            <DistanceMeters>NAN</DistanceMeters>
          </Trackpoint>
          <Trackpoint>
            <Time>2022-09-24T15:48:58.000Z</Time>
            <Position>
              <LatitudeDegrees>43.359765820205211639404296875</LatitudeDegrees>
              <LongitudeDegrees>-2.83499225042760372161865234375</LongitudeDegrees>
            </Position>
            <AltitudeMeters>-5.80000019073486328125</AltitudeMeters>
            <DistanceMeters>NAN</DistanceMeters>
          </Trackpoint>
          <Trackpoint>
            <Time>2022-09-24T15:48:59.000Z</Time>
            <Position>
              <LatitudeDegrees>43.35979096591472625732421875</LatitudeDegrees>
              <LongitudeDegrees>-2.83498453907668590545654296875</LongitudeDegrees>
            </Position>
            <AltitudeMeters>-5.80000019073486328125</AltitudeMeters>
            <DistanceMeters>NAN</DistanceMeters>
          </Trackpoint>
          <Trackpoint>
            <Time>2022-09-24T15:49:00.000Z</Time>
            <Position>
              <LatitudeDegrees>43.3598152734339237213134765625</LatitudeDegrees>
              <LongitudeDegrees>-2.83497381024062633514404296875</LongitudeDegrees>
            </Position>
            <AltitudeMeters>-5.599999904632568359375</AltitudeMeters>
            <DistanceMeters>NAN</DistanceMeters>
          </Trackpoint>
          <Trackpoint>
            <Time>2022-09-24T15:49:01.000Z</Time>
            <Position>
              <LatitudeDegrees>43.35984620265662670135498046875</LatitudeDegrees>
              <LongitudeDegrees>-2.83495972864329814910888671875</LongitudeDegrees>
            </Position>
            <AltitudeMeters>-5.19999980926513671875</AltitudeMeters>
            <DistanceMeters>NAN</DistanceMeters>
          </Trackpoint>
          <Trackpoint>
            <Time>2022-09-24T15:49:02.000Z</Time>
            <Position>
              <LatitudeDegrees>43.35986766032874584197998046875</LatitudeDegrees>
              <LongitudeDegrees>-2.83494581468403339385986328125</LongitudeDegrees>
            </Position>
            <AltitudeMeters>-4.80000019073486328125</AltitudeMeters>
            <DistanceMeters>NAN</DistanceMeters>
          </Trackpoint>
          <Trackpoint>
            <Time>2022-09-24T15:49:03.000Z</Time>
            <Position>
              <LatitudeDegrees>43.35989079438149929046630859375</LatitudeDegrees>
              <LongitudeDegrees>-2.83492905087769031524658203125</LongitudeDegrees>
            </Position>
            <AltitudeMeters>-4.19999980926513671875</AltitudeMeters>
            <DistanceMeters>NAN</DistanceMeters>
          </Trackpoint>
          <Trackpoint>
            <Time>2022-09-24T15:49:04.000Z</Time>
            <Position>
              <LatitudeDegrees>43.3599158562719821929931640625</LatitudeDegrees>
              <LongitudeDegrees>-2.83491647802293300628662109375</LongitudeDegrees>
            </Position>
            <AltitudeMeters>-4</AltitudeMeters>
            <DistanceMeters>NAN</DistanceMeters>
          </Trackpoint>
          <Trackpoint>
            <Time>2022-09-24T15:49:05.000Z</Time>
            <Position>
              <LatitudeDegrees>43.35995030589401721954345703125</LatitudeDegrees>
              <LongitudeDegrees>-2.8349023126065731048583984375</LongitudeDegrees>
            </Position>
            <AltitudeMeters>-3.599999904632568359375</AltitudeMeters>
            <DistanceMeters>NAN</DistanceMeters>
          </Trackpoint>
          <Trackpoint>
            <Time>2022-09-24T15:49:06.000Z</Time>
            <Position>
              <LatitudeDegrees>43.3599708415567874908447265625</LatitudeDegrees>
              <LongitudeDegrees>-2.83489200286567211151123046875</LongitudeDegrees>
            </Position>
            <AltitudeMeters>-3.400000095367431640625</AltitudeMeters>
            <DistanceMeters>NAN</DistanceMeters>
          </Trackpoint>
          <Trackpoint>
            <Time>2022-09-24T15:49:07.000Z</Time>
            <Position>
              <LatitudeDegrees>43.35999481379985809326171875</LatitudeDegrees>
              <LongitudeDegrees>-2.83487909473478794097900390625</LongitudeDegrees>
            </Position>
            <AltitudeMeters>-3</AltitudeMeters>
            <DistanceMeters>NAN</DistanceMeters>
          </Trackpoint>
          <Trackpoint>
            <Time>2022-09-24T15:49:08.000Z</Time>
            <Position>
              <LatitudeDegrees>43.36002054624259471893310546875</LatitudeDegrees>
              <LongitudeDegrees>-2.834867276251316070556640625</LongitudeDegrees>
            </Position>
            <AltitudeMeters>-3</AltitudeMeters>
            <DistanceMeters>NAN</DistanceMeters>
          </Trackpoint>
          <Trackpoint>
            <Time>2022-09-24T15:49:09.000Z</Time>
            <Position>
              <LatitudeDegrees>43.36004753597080707550048828125</LatitudeDegrees>
              <LongitudeDegrees>-2.8348567150533199310302734375</LongitudeDegrees>
            </Position>
            <AltitudeMeters>-3</AltitudeMeters>
            <DistanceMeters>NAN</DistanceMeters>
          </Trackpoint>
          <Trackpoint>
            <Time>2022-09-24T15:49:10.000Z</Time>
            <Position>
              <LatitudeDegrees>43.3600741066038608551025390625</LatitudeDegrees>
              <LongitudeDegrees>-2.8348456509411334991455078125</LongitudeDegrees>
            </Position>
            <AltitudeMeters>-2.599999904632568359375</AltitudeMeters>
            <DistanceMeters>NAN</DistanceMeters>
          </Trackpoint>
          <Trackpoint>
            <Time>2022-09-24T15:49:11.000Z</Time>
            <Position>
              <LatitudeDegrees>43.36009849794209003448486328125</LatitudeDegrees>
              <LongitudeDegrees>-2.8348332457244396209716796875</LongitudeDegrees>
            </Position>
            <AltitudeMeters>-2.599999904632568359375</AltitudeMeters>
            <DistanceMeters>NAN</DistanceMeters>
          </Trackpoint>
          <Trackpoint>
            <Time>2022-09-24T15:49:12.000Z</Time>
            <Position>
              <LatitudeDegrees>43.3601227216422557830810546875</LatitudeDegrees>
              <LongitudeDegrees>-2.834819667041301727294921875</LongitudeDegrees>
            </Position>
            <AltitudeMeters>-2.2000000476837158203125</AltitudeMeters>
            <DistanceMeters>NAN</DistanceMeters>
          </Trackpoint>
          <Trackpoint>
            <Time>2022-09-24T15:49:13.000Z</Time>
            <Position>
              <LatitudeDegrees>43.3601532317698001861572265625</LatitudeDegrees>
              <LongitudeDegrees>-2.8348037414252758026123046875</LongitudeDegrees>
            </Position>
            <AltitudeMeters>-2</AltitudeMeters>
            <DistanceMeters>NAN</DistanceMeters>
          </Trackpoint>
          <Trackpoint>
            <Time>2022-09-24T15:49:14.000Z</Time>
            <Position>
              <LatitudeDegrees>43.36017494089901447296142578125</LatitudeDegrees>
              <LongitudeDegrees>-2.83479326404631137847900390625</LongitudeDegrees>
            </Position>
            <AltitudeMeters>-2</AltitudeMeters>
            <DistanceMeters>NAN</DistanceMeters>
          </Trackpoint>
          <Trackpoint>
            <Time>2022-09-24T15:49:15.000Z</Time>
            <Position>
              <LatitudeDegrees>43.36020075716078281402587890625</LatitudeDegrees>
              <LongitudeDegrees>-2.8347765840590000152587890625</LongitudeDegrees>
            </Position>
            <AltitudeMeters>-1.39999997615814208984375</AltitudeMeters>
            <DistanceMeters>NAN</DistanceMeters>
          </Trackpoint>
          <Trackpoint>
            <Time>2022-09-24T15:49:16.000Z</Time>
            <Position>
              <LatitudeDegrees>43.360226154327392578125</LatitudeDegrees>
              <LongitudeDegrees>-2.83475940115749835968017578125</LongitudeDegrees>
            </Position>
            <AltitudeMeters>-1.39999997615814208984375</AltitudeMeters>
            <DistanceMeters>NAN</DistanceMeters>
          </Trackpoint>
          <Trackpoint>
            <Time>2022-09-24T15:49:17.000Z</Time>
            <Position>
              <LatitudeDegrees>43.3602585084736347198486328125</LatitudeDegrees>
              <LongitudeDegrees>-2.834740541875362396240234375</LongitudeDegrees>
            </Position>
            <AltitudeMeters>-1.2000000476837158203125</AltitudeMeters>
            <DistanceMeters>NAN</DistanceMeters>
          </Trackpoint>
          <Trackpoint>
            <Time>2022-09-24T15:49:18.000Z</Time>
            <Position>
              <LatitudeDegrees>43.3602796308696269989013671875</LatitudeDegrees>
              <LongitudeDegrees>-2.8347293101251125335693359375</LongitudeDegrees>
            </Position>
            <AltitudeMeters>-1.2000000476837158203125</AltitudeMeters>
            <DistanceMeters>NAN</DistanceMeters>
          </Trackpoint>
          <Trackpoint>
            <Time>2022-09-24T15:49:19.000Z</Time>
            <Position>
              <LatitudeDegrees>43.360303938388824462890625</LatitudeDegrees>
              <LongitudeDegrees>-2.8347112052142620086669921875</LongitudeDegrees>
            </Position>
            <AltitudeMeters>-0.60000002384185791015625</AltitudeMeters>
            <DistanceMeters>NAN</DistanceMeters>
          </Trackpoint>
          <Trackpoint>
            <Time>2022-09-24T15:49:20.000Z</Time>
            <Position>
              <LatitudeDegrees>43.360303938388824462890625</LatitudeDegrees>
              <LongitudeDegrees>-2.8347112052142620086669921875</LongitudeDegrees>
            </Position>
            <AltitudeMeters>-0.4000000059604644775390625</AltitudeMeters>
            <DistanceMeters>NAN</DistanceMeters>
          </Trackpoint>
          <Trackpoint>
            <Time>2022-09-24T15:49:21.000Z</Time>
            <Position>
              <LatitudeDegrees>43.36035029031336307525634765625</LatitudeDegrees>
              <LongitudeDegrees>-2.83467340283095836639404296875</LongitudeDegrees>
            </Position>
            <AltitudeMeters>0</AltitudeMeters>
            <DistanceMeters>NAN</DistanceMeters>
          </Trackpoint>
          <Trackpoint>
            <Time>2022-09-24T15:49:22.000Z</Time>
            <Position>
              <LatitudeDegrees>43.3603731729090213775634765625</LatitudeDegrees>
              <LongitudeDegrees>-2.83465295098721981048583984375</LongitudeDegrees>
            </Position>
            <AltitudeMeters>0.20000000298023223876953125</AltitudeMeters>
            <DistanceMeters>NAN</DistanceMeters>
          </Trackpoint>
          <Trackpoint>
            <Time>2022-09-24T15:49:23.000Z</Time>
            <Position>
              <LatitudeDegrees>43.3603989891707897186279296875</LatitudeDegrees>
              <LongitudeDegrees>-2.83462612889707088470458984375</LongitudeDegrees>
            </Position>
            <AltitudeMeters>0.4000000059604644775390625</AltitudeMeters>
            <DistanceMeters>NAN</DistanceMeters>
          </Trackpoint>
          <Trackpoint>
            <Time>2022-09-24T15:49:24.000Z</Time>
            <Position>
              <LatitudeDegrees>43.3604180999100208282470703125</LatitudeDegrees>
              <LongitudeDegrees>-2.83460835926234722137451171875</LongitudeDegrees>
            </Position>
            <AltitudeMeters>0.4000000059604644775390625</AltitudeMeters>
            <DistanceMeters>NAN</DistanceMeters>
          </Trackpoint>
          <Trackpoint>
            <Time>2022-09-24T15:49:25.000Z</Time>
            <Position>
              <LatitudeDegrees>43.3604420721530914306640625</LatitudeDegrees>
              <LongitudeDegrees>-2.83458891324698925018310546875</LongitudeDegrees>
            </Position>
            <AltitudeMeters>0.60000002384185791015625</AltitudeMeters>
            <DistanceMeters>NAN</DistanceMeters>
          </Trackpoint>
          <Trackpoint>
            <Time>2022-09-24T15:49:26.000Z</Time>
            <Position>
              <LatitudeDegrees>43.3604420721530914306640625</LatitudeDegrees>
              <LongitudeDegrees>-2.83458891324698925018310546875</LongitudeDegrees>
            </Position>
            <AltitudeMeters>0.800000011920928955078125</AltitudeMeters>
            <DistanceMeters>NAN</DistanceMeters>
          </Trackpoint>
          <Trackpoint>
            <Time>2022-09-24T15:49:27.000Z</Time>
            <Position>
              <LatitudeDegrees>43.3604908548295497894287109375</LatitudeDegrees>
              <LongitudeDegrees>-2.83454440534114837646484375</LongitudeDegrees>
            </Position>
            <AltitudeMeters>1</AltitudeMeters>
            <DistanceMeters>NAN</DistanceMeters>
          </Trackpoint>
          <Trackpoint>
            <Time>2022-09-24T15:49:28.000Z</Time>
            <Position>
              <LatitudeDegrees>43.3605139888823032379150390625</LatitudeDegrees>
              <LongitudeDegrees>-2.8345187567174434661865234375</LongitudeDegrees>
            </Position>
            <AltitudeMeters>1.2000000476837158203125</AltitudeMeters>
            <DistanceMeters>NAN</DistanceMeters>
          </Trackpoint>
          <Trackpoint>
            <Time>2022-09-24T15:49:29.000Z</Time>
            <Position>
              <LatitudeDegrees>43.3605139888823032379150390625</LatitudeDegrees>
              <LongitudeDegrees>-2.8345187567174434661865234375</LongitudeDegrees>
            </Position>
            <AltitudeMeters>1.60000002384185791015625</AltitudeMeters>
            <DistanceMeters>NAN</DistanceMeters>
          </Trackpoint>
          <Trackpoint>
            <Time>2022-09-24T15:49:30.000Z</Time>
            <Position>
              <LatitudeDegrees>43.36055665276944637298583984375</LatitudeDegrees>
              <LongitudeDegrees>-2.83446821384131908416748046875</LongitudeDegrees>
            </Position>
            <AltitudeMeters>1.7999999523162841796875</AltitudeMeters>
            <DistanceMeters>NAN</DistanceMeters>
          </Trackpoint>
          <Trackpoint>
            <Time>2022-09-24T15:49:31.000Z</Time>
            <Position>
              <LatitudeDegrees>43.36058381013572216033935546875</LatitudeDegrees>
              <LongitudeDegrees>-2.8344379551708698272705078125</LongitudeDegrees>
            </Position>
            <AltitudeMeters>2</AltitudeMeters>
            <DistanceMeters>NAN</DistanceMeters>
          </Trackpoint>
          <Trackpoint>
            <Time>2022-09-24T15:49:32.000Z</Time>
            <Position>
              <LatitudeDegrees>43.3606031723320484161376953125</LatitudeDegrees>
              <LongitudeDegrees>-2.834409289062023162841796875</LongitudeDegrees>
            </Position>
            <AltitudeMeters>2</AltitudeMeters>
            <DistanceMeters>NAN</DistanceMeters>
          </Trackpoint>
          <Trackpoint>
            <Time>2022-09-24T15:49:33.000Z</Time>
            <Position>
              <LatitudeDegrees>43.36062136106193065643310546875</LatitudeDegrees>
              <LongitudeDegrees>-2.83437953330576419830322265625</LongitudeDegrees>
            </Position>
            <AltitudeMeters>2.400000095367431640625</AltitudeMeters>
            <DistanceMeters>NAN</DistanceMeters>
          </Trackpoint>
          <Trackpoint>
            <Time>2022-09-24T15:49:34.000Z</Time>
            <Position>
              <LatitudeDegrees>43.36063778959214687347412109375</LatitudeDegrees>
              <LongitudeDegrees>-2.8343548066914081573486328125</LongitudeDegrees>
            </Position>
            <AltitudeMeters>2.599999904632568359375</AltitudeMeters>
            <DistanceMeters>NAN</DistanceMeters>
          </Trackpoint>
          <Trackpoint>
            <Time>2022-09-24T15:49:35.000Z</Time>
            <Position>
              <LatitudeDegrees>43.36063778959214687347412109375</LatitudeDegrees>
              <LongitudeDegrees>-2.8343548066914081573486328125</LongitudeDegrees>
            </Position>
            <AltitudeMeters>3</AltitudeMeters>
            <DistanceMeters>NAN</DistanceMeters>
          </Trackpoint>
          <Trackpoint>
            <Time>2022-09-24T15:49:36.000Z</Time>
            <Position>
              <LatitudeDegrees>43.3606781065464019775390625</LatitudeDegrees>
              <LongitudeDegrees>-2.83429437316954135894775390625</LongitudeDegrees>
            </Position>
            <AltitudeMeters>3</AltitudeMeters>
            <DistanceMeters>NAN</DistanceMeters>
          </Trackpoint>
          <Trackpoint>
            <Time>2022-09-24T15:49:37.000Z</Time>
            <Position>
              <LatitudeDegrees>43.36069445125758647918701171875</LatitudeDegrees>
              <LongitudeDegrees>-2.83426386304199695587158203125</LongitudeDegrees>
            </Position>
            <AltitudeMeters>3.400000095367431640625</AltitudeMeters>
            <DistanceMeters>NAN</DistanceMeters>
          </Trackpoint>
          <Trackpoint>
            <Time>2022-09-24T15:49:38.000Z</Time>
            <Position>
              <LatitudeDegrees>43.36071205325424671173095703125</LatitudeDegrees>
              <LongitudeDegrees>-2.83422614447772502899169921875</LongitudeDegrees>
            </Position>
            <AltitudeMeters>3.400000095367431640625</AltitudeMeters>
            <DistanceMeters>NAN</DistanceMeters>
          </Trackpoint>
          <Trackpoint>
            <Time>2022-09-24T15:49:39.000Z</Time>
            <Position>
              <LatitudeDegrees>43.36072613485157489776611328125</LatitudeDegrees>
              <LongitudeDegrees>-2.83419814892113208770751953125</LongitudeDegrees>
            </Position>
            <AltitudeMeters>3.599999904632568359375</AltitudeMeters>
            <DistanceMeters>NAN</DistanceMeters>
          </Trackpoint>
          <Trackpoint>
            <Time>2022-09-24T15:49:40.000Z</Time>
            <Position>
              <LatitudeDegrees>43.36074122227728366851806640625</LatitudeDegrees>
              <LongitudeDegrees>-2.8341636992990970611572265625</LongitudeDegrees>
            </Position>
            <AltitudeMeters>3.599999904632568359375</AltitudeMeters>
            <DistanceMeters>NAN</DistanceMeters>
          </Trackpoint>
          <Trackpoint>
            <Time>2022-09-24T15:49:41.000Z</Time>
            <Position>
              <LatitudeDegrees>43.36075480096042156219482421875</LatitudeDegrees>
              <LongitudeDegrees>-2.83413092605769634246826171875</LongitudeDegrees>
            </Position>
            <AltitudeMeters>3.7999999523162841796875</AltitudeMeters>
            <DistanceMeters>NAN</DistanceMeters>
          </Trackpoint>
          <Trackpoint>
            <Time>2022-09-24T15:49:42.000Z</Time>
            <Position>
              <LatitudeDegrees>43.3607694692909717559814453125</LatitudeDegrees>
              <LongitudeDegrees>-2.834096141159534454345703125</LongitudeDegrees>
            </Position>
            <AltitudeMeters>4.19999980926513671875</AltitudeMeters>
            <DistanceMeters>NAN</DistanceMeters>
          </Trackpoint>
          <Trackpoint>
            <Time>2022-09-24T15:49:43.000Z</Time>
            <Position>
              <LatitudeDegrees>43.36078095249831676483154296875</LatitudeDegrees>
              <LongitudeDegrees>-2.83406085334718227386474609375</LongitudeDegrees>
            </Position>
            <AltitudeMeters>4.19999980926513671875</AltitudeMeters>
            <DistanceMeters>NAN</DistanceMeters>
          </Trackpoint>
          <Trackpoint>
            <Time>2022-09-24T15:49:44.000Z</Time>
            <Position>
              <LatitudeDegrees>43.36079251952469348907470703125</LatitudeDegrees>
              <LongitudeDegrees>-2.834029085934162139892578125</LongitudeDegrees>
            </Position>
            <AltitudeMeters>4.19999980926513671875</AltitudeMeters>
            <DistanceMeters>NAN</DistanceMeters>
          </Trackpoint>
          <Trackpoint>
            <Time>2022-09-24T15:49:45.000Z</Time>
            <Position>
              <LatitudeDegrees>43.36080442182719707489013671875</LatitudeDegrees>
              <LongitudeDegrees>-2.83399463631212711334228515625</LongitudeDegrees>
            </Position>
            <AltitudeMeters>4.599999904632568359375</AltitudeMeters>
            <DistanceMeters>NAN</DistanceMeters>
          </Trackpoint>
          <Trackpoint>
            <Time>2022-09-24T15:49:46.000Z</Time>
            <Position>
              <LatitudeDegrees>43.36081934161484241485595703125</LatitudeDegrees>
              <LongitudeDegrees>-2.83395926468074321746826171875</LongitudeDegrees>
            </Position>
            <AltitudeMeters>4.80000019073486328125</AltitudeMeters>
            <DistanceMeters>NAN</DistanceMeters>
          </Trackpoint>
          <Trackpoint>
            <Time>2022-09-24T15:49:47.000Z</Time>
            <Position>
              <LatitudeDegrees>43.36083476431667804718017578125</LatitudeDegrees>
              <LongitudeDegrees>-2.83391668461263179779052734375</LongitudeDegrees>
            </Position>
            <AltitudeMeters>5</AltitudeMeters>
            <DistanceMeters>NAN</DistanceMeters>
          </Trackpoint>
          <Trackpoint>
            <Time>2022-09-24T15:49:48.000Z</Time>
            <Position>
              <LatitudeDegrees>43.36084381677210330963134765625</LatitudeDegrees>
              <LongitudeDegrees>-2.8338874317705631256103515625</LongitudeDegrees>
            </Position>
            <AltitudeMeters>5.19999980926513671875</AltitudeMeters>
            <DistanceMeters>NAN</DistanceMeters>
          </Trackpoint>
          <Trackpoint>
            <Time>2022-09-24T15:49:49.000Z</Time>
            <Position>
              <LatitudeDegrees>43.36085488088428974151611328125</LatitudeDegrees>
              <LongitudeDegrees>-2.833850048482418060302734375</LongitudeDegrees>
            </Position>
            <AltitudeMeters>5.19999980926513671875</AltitudeMeters>
            <DistanceMeters>NAN</DistanceMeters>
          </Trackpoint>
          <Trackpoint>
            <Time>2022-09-24T15:49:50.000Z</Time>
            <Position>
              <LatitudeDegrees>43.36087164469063282012939453125</LatitudeDegrees>
              <LongitudeDegrees>-2.8338079713284969329833984375</LongitudeDegrees>
            </Position>
            <AltitudeMeters>5.400000095367431640625</AltitudeMeters>
            <DistanceMeters>NAN</DistanceMeters>
          </Trackpoint>
          <Trackpoint>
            <Time>2022-09-24T15:49:51.000Z</Time>
            <Position>
              <LatitudeDegrees>43.36088103242218494415283203125</LatitudeDegrees>
              <LongitudeDegrees>-2.83378064632415771484375</LongitudeDegrees>
            </Position>
            <AltitudeMeters>5.80000019073486328125</AltitudeMeters>
            <DistanceMeters>NAN</DistanceMeters>
          </Trackpoint>
          <Trackpoint>
            <Time>2022-09-24T15:49:52.000Z</Time>
            <Position>
              <LatitudeDegrees>43.36089327000081539154052734375</LatitudeDegrees>
              <LongitudeDegrees>-2.83374569378793239593505859375</LongitudeDegrees>
            </Position>
            <AltitudeMeters>5.80000019073486328125</AltitudeMeters>
            <DistanceMeters>NAN</DistanceMeters>
          </Trackpoint>
          <Trackpoint>
            <Time>2022-09-24T15:49:53.000Z</Time>
            <Position>
              <LatitudeDegrees>43.360905759036540985107421875</LatitudeDegrees>
              <LongitudeDegrees>-2.83371082507073879241943359375</LongitudeDegrees>
            </Position>
            <AltitudeMeters>6</AltitudeMeters>
            <DistanceMeters>NAN</DistanceMeters>
          </Trackpoint>
          <Trackpoint>
            <Time>2022-09-24T15:49:54.000Z</Time>
            <Position>
              <LatitudeDegrees>43.360917158424854278564453125</LatitudeDegrees>
              <LongitudeDegrees>-2.83367536962032318115234375</LongitudeDegrees>
            </Position>
            <AltitudeMeters>6</AltitudeMeters>
            <DistanceMeters>NAN</DistanceMeters>
          </Trackpoint>
          <Trackpoint>
            <Time>2022-09-24T15:49:55.000Z</Time>
            <Position>
              <LatitudeDegrees>43.360927887260913848876953125</LatitudeDegrees>
              <LongitudeDegrees>-2.83363756723701953887939453125</LongitudeDegrees>
            </Position>
            <AltitudeMeters>6</AltitudeMeters>
            <DistanceMeters>NAN</DistanceMeters>
          </Trackpoint>
          <Trackpoint>
            <Time>2022-09-24T15:49:56.000Z</Time>
            <Position>
              <LatitudeDegrees>43.36094171740114688873291015625</LatitudeDegrees>
              <LongitudeDegrees>-2.83359398134052753448486328125</LongitudeDegrees>
            </Position>
            <AltitudeMeters>6.19999980926513671875</AltitudeMeters>
            <DistanceMeters>NAN</DistanceMeters>
          </Trackpoint>
          <Trackpoint>
            <Time>2022-09-24T15:49:57.000Z</Time>
            <Position>
              <LatitudeDegrees>43.3609538711607456207275390625</LatitudeDegrees>
              <LongitudeDegrees>-2.8335591964423656463623046875</LongitudeDegrees>
            </Position>
            <AltitudeMeters>6.19999980926513671875</AltitudeMeters>
            <DistanceMeters>NAN</DistanceMeters>
          </Trackpoint>
          <Trackpoint>
            <Time>2022-09-24T15:49:58.000Z</Time>
            <Position>
              <LatitudeDegrees>43.36096250452101230621337890625</LatitudeDegrees>
              <LongitudeDegrees>-2.8335330449044704437255859375</LongitudeDegrees>
            </Position>
            <AltitudeMeters>6.400000095367431640625</AltitudeMeters>
            <DistanceMeters>NAN</DistanceMeters>
          </Trackpoint>
          <Trackpoint>
            <Time>2022-09-24T15:49:59.000Z</Time>
            <Position>
              <LatitudeDegrees>43.36097641848027706146240234375</LatitudeDegrees>
              <LongitudeDegrees>-2.83349339850246906280517578125</LongitudeDegrees>
            </Position>
            <AltitudeMeters>6.599999904632568359375</AltitudeMeters>
            <DistanceMeters>NAN</DistanceMeters>
          </Trackpoint>
          <Trackpoint>
            <Time>2022-09-24T15:50:00.000Z</Time>
            <Position>
              <LatitudeDegrees>43.36097641848027706146240234375</LatitudeDegrees>
              <LongitudeDegrees>-2.83349339850246906280517578125</LongitudeDegrees>
            </Position>
            <AltitudeMeters>6.599999904632568359375</AltitudeMeters>
            <DistanceMeters>NAN</DistanceMeters>
          </Trackpoint>
          <Trackpoint>
            <Time>2022-09-24T15:50:01.000Z</Time>
            <Position>
              <LatitudeDegrees>43.36100206710398197174072265625</LatitudeDegrees>
              <LongitudeDegrees>-2.8334197215735912322998046875</LongitudeDegrees>
            </Position>
            <AltitudeMeters>7.19999980926513671875</AltitudeMeters>
            <DistanceMeters>NAN</DistanceMeters>
          </Trackpoint>
          <Trackpoint>
            <Time>2022-09-24T15:50:02.000Z</Time>
            <Position>
              <LatitudeDegrees>43.3610135503113269805908203125</LatitudeDegrees>
              <LongitudeDegrees>-2.83339415676891803741455078125</LongitudeDegrees>
            </Position>
            <AltitudeMeters>7.400000095367431640625</AltitudeMeters>
            <DistanceMeters>NAN</DistanceMeters>
          </Trackpoint>
          <Trackpoint>
            <Time>2022-09-24T15:50:03.000Z</Time>
            <Position>
              <LatitudeDegrees>43.361027128994464874267578125</LatitudeDegrees>
              <LongitudeDegrees>-2.83335979096591472625732421875</LongitudeDegrees>
            </Position>
            <AltitudeMeters>7.599999904632568359375</AltitudeMeters>
            <DistanceMeters>NAN</DistanceMeters>
          </Trackpoint>
          <Trackpoint>
            <Time>2022-09-24T15:50:04.000Z</Time>
            <Position>
              <LatitudeDegrees>43.36104146204888820648193359375</LatitudeDegrees>
              <LongitudeDegrees>-2.8333245031535625457763671875</LongitudeDegrees>
            </Position>
            <AltitudeMeters>7.599999904632568359375</AltitudeMeters>
            <DistanceMeters>NAN</DistanceMeters>
          </Trackpoint>
          <Trackpoint>
            <Time>2022-09-24T15:50:05.000Z</Time>
            <Position>
              <LatitudeDegrees>43.3610564656555652618408203125</LatitudeDegrees>
              <LongitudeDegrees>-2.8332882933318614959716796875</LongitudeDegrees>
            </Position>
            <AltitudeMeters>7.80000019073486328125</AltitudeMeters>
            <DistanceMeters>NAN</DistanceMeters>
          </Trackpoint>
          <Trackpoint>
            <Time>2022-09-24T15:50:06.000Z</Time>
            <Position>
              <LatitudeDegrees>43.361071050167083740234375</LatitudeDegrees>
              <LongitudeDegrees>-2.83325149677693843841552734375</LongitudeDegrees>
            </Position>
            <AltitudeMeters>8</AltitudeMeters>
            <DistanceMeters>NAN</DistanceMeters>
          </Trackpoint>
          <Trackpoint>
            <Time>2022-09-24T15:50:07.000Z</Time>
            <Position>
              <LatitudeDegrees>43.36108219809830188751220703125</LatitudeDegrees>
              <LongitudeDegrees>-2.83321713097393512725830078125</LongitudeDegrees>
            </Position>
            <AltitudeMeters>8.3999996185302734375</AltitudeMeters>
            <DistanceMeters>NAN</DistanceMeters>
          </Trackpoint>
          <Trackpoint>
            <Time>2022-09-24T15:50:08.000Z</Time>
            <Position>
              <LatitudeDegrees>43.3610933460295200347900390625</LatitudeDegrees>
              <LongitudeDegrees>-2.8331846930086612701416015625</LongitudeDegrees>
            </Position>
            <AltitudeMeters>8.6000003814697265625</AltitudeMeters>
            <DistanceMeters>NAN</DistanceMeters>
          </Trackpoint>
          <Trackpoint>
            <Time>2022-09-24T15:50:09.000Z</Time>
            <Position>
              <LatitudeDegrees>43.36110700853168964385986328125</LatitudeDegrees>
              <LongitudeDegrees>-2.83315108157694339752197265625</LongitudeDegrees>
            </Position>
            <AltitudeMeters>8.80000019073486328125</AltitudeMeters>
            <DistanceMeters>NAN</DistanceMeters>
          </Trackpoint>
          <Trackpoint>
            <Time>2022-09-24T15:50:10.000Z</Time>
            <Position>
              <LatitudeDegrees>43.3611208386719226837158203125</LatitudeDegrees>
              <LongitudeDegrees>-2.833119817078113555908203125</LongitudeDegrees>
            </Position>
            <AltitudeMeters>9</AltitudeMeters>
            <DistanceMeters>NAN</DistanceMeters>
          </Trackpoint>
          <Trackpoint>
            <Time>2022-09-24T15:50:11.000Z</Time>
            <Position>
              <LatitudeDegrees>43.36113064549863338470458984375</LatitudeDegrees>
              <LongitudeDegrees>-2.83308654092252254486083984375</LongitudeDegrees>
            </Position>
            <AltitudeMeters>9.19999980926513671875</AltitudeMeters>
            <DistanceMeters>NAN</DistanceMeters>
          </Trackpoint>
          <Trackpoint>
            <Time>2022-09-24T15:50:12.000Z</Time>
            <Position>
              <LatitudeDegrees>43.36114145815372467041015625</LatitudeDegrees>
              <LongitudeDegrees>-2.83305251039564609527587890625</LongitudeDegrees>
            </Position>
            <AltitudeMeters>9.80000019073486328125</AltitudeMeters>
            <DistanceMeters>NAN</DistanceMeters>
          </Trackpoint>
          <Trackpoint>
            <Time>2022-09-24T15:50:13.000Z</Time>
            <Position>
              <LatitudeDegrees>43.36115160025656223297119140625</LatitudeDegrees>
              <LongitudeDegrees>-2.8330080024898052215576171875</LongitudeDegrees>
            </Position>
            <AltitudeMeters>9.80000019073486328125</AltitudeMeters>
            <DistanceMeters>NAN</DistanceMeters>
          </Trackpoint>
          <Trackpoint>
            <Time>2022-09-24T15:50:14.000Z</Time>
            <Position>
              <LatitudeDegrees>43.3611640892922878265380859375</LatitudeDegrees>
              <LongitudeDegrees>-2.83297925256192684173583984375</LongitudeDegrees>
            </Position>
            <AltitudeMeters>10.19999980926513671875</AltitudeMeters>
            <DistanceMeters>NAN</DistanceMeters>
          </Trackpoint>
          <Trackpoint>
            <Time>2022-09-24T15:50:15.000Z</Time>
            <Position>
              <LatitudeDegrees>43.36118143983185291290283203125</LatitudeDegrees>
              <LongitudeDegrees>-2.832938767969608306884765625</LongitudeDegrees>
            </Position>
            <AltitudeMeters>10.3999996185302734375</AltitudeMeters>
            <DistanceMeters>NAN</DistanceMeters>
          </Trackpoint>
          <Trackpoint>
            <Time>2022-09-24T15:50:16.000Z</Time>
            <Position>
              <LatitudeDegrees>43.361192084848880767822265625</LatitudeDegrees>
              <LongitudeDegrees>-2.83291102387011051177978515625</LongitudeDegrees>
            </Position>
            <AltitudeMeters>10.6000003814697265625</AltitudeMeters>
            <DistanceMeters>NAN</DistanceMeters>
          </Trackpoint>
          <Trackpoint>
            <Time>2022-09-24T15:50:17.000Z</Time>
            <Position>
              <LatitudeDegrees>43.3612049929797649383544921875</LatitudeDegrees>
              <LongitudeDegrees>-2.83287498168647289276123046875</LongitudeDegrees>
            </Position>
            <AltitudeMeters>10.80000019073486328125</AltitudeMeters>
            <DistanceMeters>NAN</DistanceMeters>
          </Trackpoint>
          <Trackpoint>
            <Time>2022-09-24T15:50:18.000Z</Time>
            <Position>
              <LatitudeDegrees>43.361220918595790863037109375</LatitudeDegrees>
              <LongitudeDegrees>-2.83283391036093235015869140625</LongitudeDegrees>
            </Position>
            <AltitudeMeters>11</AltitudeMeters>
            <DistanceMeters>NAN</DistanceMeters>
          </Trackpoint>
          <Trackpoint>
            <Time>2022-09-24T15:50:19.000Z</Time>
            <Position>
              <LatitudeDegrees>43.36123726330697536468505859375</LatitudeDegrees>
              <LongitudeDegrees>-2.8327984549105167388916015625</LongitudeDegrees>
            </Position>
            <AltitudeMeters>11.6000003814697265625</AltitudeMeters>
            <DistanceMeters>NAN</DistanceMeters>
          </Trackpoint>
          <Trackpoint>
            <Time>2022-09-24T15:50:20.000Z</Time>
            <Position>
              <LatitudeDegrees>43.361248411238193511962890625</LatitudeDegrees>
              <LongitudeDegrees>-2.83276886679232120513916015625</LongitudeDegrees>
            </Position>
            <AltitudeMeters>11.6000003814697265625</AltitudeMeters>
            <DistanceMeters>NAN</DistanceMeters>
          </Trackpoint>
          <Trackpoint>
            <Time>2022-09-24T15:50:21.000Z</Time>
            <Position>
              <LatitudeDegrees>43.3612613193690776824951171875</LatitudeDegrees>
              <LongitudeDegrees>-2.83273282460868358612060546875</LongitudeDegrees>
            </Position>
            <AltitudeMeters>12</AltitudeMeters>
            <DistanceMeters>NAN</DistanceMeters>
          </Trackpoint>
          <Trackpoint>
            <Time>2022-09-24T15:50:22.000Z</Time>
            <Position>
              <LatitudeDegrees>43.3612747304141521453857421875</LatitudeDegrees>
              <LongitudeDegrees>-2.8326911665499210357666015625</LongitudeDegrees>
            </Position>
            <AltitudeMeters>12.19999980926513671875</AltitudeMeters>
            <DistanceMeters>NAN</DistanceMeters>
          </Trackpoint>
          <Trackpoint>
            <Time>2022-09-24T15:50:23.000Z</Time>
            <Position>
              <LatitudeDegrees>43.3612821064889430999755859375</LatitudeDegrees>
              <LongitudeDegrees>-2.83266258426010608673095703125</LongitudeDegrees>
            </Position>
            <AltitudeMeters>12.3999996185302734375</AltitudeMeters>
            <DistanceMeters>NAN</DistanceMeters>
          </Trackpoint>
          <Trackpoint>
            <Time>2022-09-24T15:50:24.000Z</Time>
            <Position>
              <LatitudeDegrees>43.3612955175340175628662109375</LatitudeDegrees>
              <LongitudeDegrees>-2.832624614238739013671875</LongitudeDegrees>
            </Position>
            <AltitudeMeters>12.6000003814697265625</AltitudeMeters>
            <DistanceMeters>NAN</DistanceMeters>
          </Trackpoint>
          <Trackpoint>
            <Time>2022-09-24T15:50:25.000Z</Time>
            <Position>
              <LatitudeDegrees>43.36130750365555286407470703125</LatitudeDegrees>
              <LongitudeDegrees>-2.8325882367789745330810546875</LongitudeDegrees>
            </Position>
            <AltitudeMeters>12.80000019073486328125</AltitudeMeters>
            <DistanceMeters>NAN</DistanceMeters>
          </Trackpoint>
          <Trackpoint>
            <Time>2022-09-24T15:50:26.000Z</Time>
            <Position>
              <LatitudeDegrees>43.36132242344319820404052734375</LatitudeDegrees>
              <LongitudeDegrees>-2.8325553797185420989990234375</LongitudeDegrees>
            </Position>
            <AltitudeMeters>13.19999980926513671875</AltitudeMeters>
            <DistanceMeters>NAN</DistanceMeters>
          </Trackpoint>
          <Trackpoint>
            <Time>2022-09-24T15:50:27.000Z</Time>
            <Position>
              <LatitudeDegrees>43.361338935792446136474609375</LatitudeDegrees>
              <LongitudeDegrees>-2.83251405693590641021728515625</LongitudeDegrees>
            </Position>
            <AltitudeMeters>13.3999996185302734375</AltitudeMeters>
            <DistanceMeters>NAN</DistanceMeters>
          </Trackpoint>
          <Trackpoint>
            <Time>2022-09-24T15:50:28.000Z</Time>
            <Position>
              <LatitudeDegrees>43.36135058663785457611083984375</LatitudeDegrees>
              <LongitudeDegrees>-2.832480110228061676025390625</LongitudeDegrees>
            </Position>
            <AltitudeMeters>13.3999996185302734375</AltitudeMeters>
            <DistanceMeters>NAN</DistanceMeters>
          </Trackpoint>
          <Trackpoint>
            <Time>2022-09-24T15:50:29.000Z</Time>
            <Position>
              <LatitudeDegrees>43.361361064016819000244140625</LatitudeDegrees>
              <LongitudeDegrees>-2.8324470855295658111572265625</LongitudeDegrees>
            </Position>
            <AltitudeMeters>13.80000019073486328125</AltitudeMeters>
            <DistanceMeters>NAN</DistanceMeters>
          </Trackpoint>
          <Trackpoint>
            <Time>2022-09-24T15:50:30.000Z</Time>
            <Position>
              <LatitudeDegrees>43.36137204430997371673583984375</LatitudeDegrees>
              <LongitudeDegrees>-2.83241917379200458526611328125</LongitudeDegrees>
            </Position>
            <AltitudeMeters>14</AltitudeMeters>
            <DistanceMeters>NAN</DistanceMeters>
          </Trackpoint>
          <Trackpoint>
            <Time>2022-09-24T15:50:31.000Z</Time>
            <Position>
              <LatitudeDegrees>43.36137204430997371673583984375</LatitudeDegrees>
              <LongitudeDegrees>-2.83241917379200458526611328125</LongitudeDegrees>
            </Position>
            <AltitudeMeters>14.19999980926513671875</AltitudeMeters>
            <DistanceMeters>NAN</DistanceMeters>
          </Trackpoint>
          <Trackpoint>
            <Time>2022-09-24T15:50:32.000Z</Time>
            <Position>
              <LatitudeDegrees>43.3613967709243297576904296875</LatitudeDegrees>
              <LongitudeDegrees>-2.83235178329050540924072265625</LongitudeDegrees>
            </Position>
            <AltitudeMeters>14.80000019073486328125</AltitudeMeters>
            <DistanceMeters>NAN</DistanceMeters>
          </Trackpoint>
          <Trackpoint>
            <Time>2022-09-24T15:50:33.000Z</Time>
            <Position>
              <LatitudeDegrees>43.361412025988101959228515625</LatitudeDegrees>
              <LongitudeDegrees>-2.832309119403362274169921875</LongitudeDegrees>
            </Position>
            <AltitudeMeters>14.80000019073486328125</AltitudeMeters>
            <DistanceMeters>NAN</DistanceMeters>
          </Trackpoint>
          <Trackpoint>
            <Time>2022-09-24T15:50:34.000Z</Time>
            <Position>
              <LatitudeDegrees>43.361426107585430145263671875</LatitudeDegrees>
              <LongitudeDegrees>-2.832277603447437286376953125</LongitudeDegrees>
            </Position>
            <AltitudeMeters>15</AltitudeMeters>
            <DistanceMeters>NAN</DistanceMeters>
          </Trackpoint>
          <Trackpoint>
            <Time>2022-09-24T15:50:35.000Z</Time>
            <Position>
              <LatitudeDegrees>43.36143675260245800018310546875</LatitudeDegrees>
              <LongitudeDegrees>-2.832249440252780914306640625</LongitudeDegrees>
            </Position>
            <AltitudeMeters>15</AltitudeMeters>
            <DistanceMeters>NAN</DistanceMeters>
          </Trackpoint>
          <Trackpoint>
            <Time>2022-09-24T15:50:36.000Z</Time>
            <Position>
              <LatitudeDegrees>43.36145234294235706329345703125</LatitudeDegrees>
              <LongitudeDegrees>-2.8322102129459381103515625</LongitudeDegrees>
            </Position>
            <AltitudeMeters>15.6000003814697265625</AltitudeMeters>
            <DistanceMeters>NAN</DistanceMeters>
          </Trackpoint>
          <Trackpoint>
            <Time>2022-09-24T15:50:37.000Z</Time>
            <Position>
              <LatitudeDegrees>43.36145234294235706329345703125</LatitudeDegrees>
              <LongitudeDegrees>-2.8322102129459381103515625</LongitudeDegrees>
            </Position>
            <AltitudeMeters>15.6000003814697265625</AltitudeMeters>
            <DistanceMeters>NAN</DistanceMeters>
          </Trackpoint>
          <Trackpoint>
            <Time>2022-09-24T15:50:38.000Z</Time>
            <Position>
              <LatitudeDegrees>43.36147815920412540435791015625</LatitudeDegrees>
              <LongitudeDegrees>-2.832152545452117919921875</LongitudeDegrees>
            </Position>
            <AltitudeMeters>15.80000019073486328125</AltitudeMeters>
            <DistanceMeters>NAN</DistanceMeters>
          </Trackpoint>
          <Trackpoint>
            <Time>2022-09-24T15:50:39.000Z</Time>
            <Position>
              <LatitudeDegrees>43.36149006150662899017333984375</LatitudeDegrees>
              <LongitudeDegrees>-2.83211792819201946258544921875</LongitudeDegrees>
            </Position>
            <AltitudeMeters>16.200000762939453125</AltitudeMeters>
            <DistanceMeters>NAN</DistanceMeters>
          </Trackpoint>
          <Trackpoint>
            <Time>2022-09-24T15:50:40.000Z</Time>
            <Position>
              <LatitudeDegrees>43.36149006150662899017333984375</LatitudeDegrees>
              <LongitudeDegrees>-2.83211792819201946258544921875</LongitudeDegrees>
            </Position>
            <AltitudeMeters>16.200000762939453125</AltitudeMeters>
            <DistanceMeters>NAN</DistanceMeters>
          </Trackpoint>
          <Trackpoint>
            <Time>2022-09-24T15:50:41.000Z</Time>
            <Position>
              <LatitudeDegrees>43.3615218289196491241455078125</LatitudeDegrees>
              <LongitudeDegrees>-2.832040898501873016357421875</LongitudeDegrees>
            </Position>
            <AltitudeMeters>16.6000003814697265625</AltitudeMeters>
            <DistanceMeters>NAN</DistanceMeters>
          </Trackpoint>
          <Trackpoint>
            <Time>2022-09-24T15:50:42.000Z</Time>
            <Position>
              <LatitudeDegrees>43.3615352399647235870361328125</LatitudeDegrees>
              <LongitudeDegrees>-2.8320144116878509521484375</LongitudeDegrees>
            </Position>
            <AltitudeMeters>17</AltitudeMeters>
            <DistanceMeters>NAN</DistanceMeters>
          </Trackpoint>
          <Trackpoint>
            <Time>2022-09-24T15:50:43.000Z</Time>
            <Position>
              <LatitudeDegrees>43.3615498244762420654296875</LatitudeDegrees>
              <LongitudeDegrees>-2.8319807164371013641357421875</LongitudeDegrees>
            </Position>
            <AltitudeMeters>17.200000762939453125</AltitudeMeters>
            <DistanceMeters>NAN</DistanceMeters>
          </Trackpoint>
          <Trackpoint>
            <Time>2022-09-24T15:50:44.000Z</Time>
            <Position>
              <LatitudeDegrees>43.36156348697841167449951171875</LatitudeDegrees>
              <LongitudeDegrees>-2.83194802701473236083984375</LongitudeDegrees>
            </Position>
            <AltitudeMeters>17.6000003814697265625</AltitudeMeters>
            <DistanceMeters>NAN</DistanceMeters>
          </Trackpoint>
          <Trackpoint>
            <Time>2022-09-24T15:50:45.000Z</Time>
            <Position>
              <LatitudeDegrees>43.36157723329961299896240234375</LatitudeDegrees>
              <LongitudeDegrees>-2.83191575668752193450927734375</LongitudeDegrees>
            </Position>
            <AltitudeMeters>17.799999237060546875</AltitudeMeters>
            <DistanceMeters>NAN</DistanceMeters>
          </Trackpoint>
          <Trackpoint>
            <Time>2022-09-24T15:50:46.000Z</Time>
            <Position>
              <LatitudeDegrees>43.3615905605256557464599609375</LatitudeDegrees>
              <LongitudeDegrees>-2.8318831510841846466064453125</LongitudeDegrees>
            </Position>
            <AltitudeMeters>18</AltitudeMeters>
            <DistanceMeters>NAN</DistanceMeters>
          </Trackpoint>
          <Trackpoint>
            <Time>2022-09-24T15:50:47.000Z</Time>
            <Position>
              <LatitudeDegrees>43.3615905605256557464599609375</LatitudeDegrees>
              <LongitudeDegrees>-2.8318831510841846466064453125</LongitudeDegrees>
            </Position>
            <AltitudeMeters>18.200000762939453125</AltitudeMeters>
            <DistanceMeters>NAN</DistanceMeters>
          </Trackpoint>
          <Trackpoint>
            <Time>2022-09-24T15:50:48.000Z</Time>
            <Position>
              <LatitudeDegrees>43.361617214977741241455078125</LatitudeDegrees>
              <LongitudeDegrees>-2.83181450329720973968505859375</LongitudeDegrees>
            </Position>
            <AltitudeMeters>18.3999996185302734375</AltitudeMeters>
            <DistanceMeters>NAN</DistanceMeters>
          </Trackpoint>
          <Trackpoint>
            <Time>2022-09-24T15:50:49.000Z</Time>
            <Position>
              <LatitudeDegrees>43.3616304583847522735595703125</LatitudeDegrees>
              <LongitudeDegrees>-2.83178114332258701324462890625</LongitudeDegrees>
            </Position>
            <AltitudeMeters>18.799999237060546875</AltitudeMeters>
            <DistanceMeters>NAN</DistanceMeters>
          </Trackpoint>
          <Trackpoint>
            <Time>2022-09-24T15:50:50.000Z</Time>
            <Position>
              <LatitudeDegrees>43.3616445399820804595947265625</LatitudeDegrees>
              <LongitudeDegrees>-2.83174811862409114837646484375</LongitudeDegrees>
            </Position>
            <AltitudeMeters>19</AltitudeMeters>
            <DistanceMeters>NAN</DistanceMeters>
          </Trackpoint>
          <Trackpoint>
            <Time>2022-09-24T15:50:51.000Z</Time>
            <Position>
              <LatitudeDegrees>43.3616571128368377685546875</LatitudeDegrees>
              <LongitudeDegrees>-2.83171492628753185272216796875</LongitudeDegrees>
            </Position>
            <AltitudeMeters>19.200000762939453125</AltitudeMeters>
            <DistanceMeters>NAN</DistanceMeters>
          </Trackpoint>
          <Trackpoint>
            <Time>2022-09-24T15:50:52.000Z</Time>
            <Position>
              <LatitudeDegrees>43.36167060770094394683837890625</LatitudeDegrees>
              <LongitudeDegrees>-2.831680141389369964599609375</LongitudeDegrees>
            </Position>
            <AltitudeMeters>19.3999996185302734375</AltitudeMeters>
            <DistanceMeters>NAN</DistanceMeters>
          </Trackpoint>
          <Trackpoint>
            <Time>2022-09-24T15:50:53.000Z</Time>
            <Position>
              <LatitudeDegrees>43.36168753914535045623779296875</LatitudeDegrees>
              <LongitudeDegrees>-2.83164133317768573760986328125</LongitudeDegrees>
            </Position>
            <AltitudeMeters>19.799999237060546875</AltitudeMeters>
            <DistanceMeters>NAN</DistanceMeters>
          </Trackpoint>
          <Trackpoint>
            <Time>2022-09-24T15:50:54.000Z</Time>
            <Position>
              <LatitudeDegrees>43.36169927380979061126708984375</LatitudeDegrees>
              <LongitudeDegrees>-2.83161518163979053497314453125</LongitudeDegrees>
            </Position>
            <AltitudeMeters>19.799999237060546875</AltitudeMeters>
            <DistanceMeters>NAN</DistanceMeters>
          </Trackpoint>
          <Trackpoint>
            <Time>2022-09-24T15:50:55.000Z</Time>
            <Position>
              <LatitudeDegrees>43.361715115606784820556640625</LatitudeDegrees>
              <LongitudeDegrees>-2.83158333040773868560791015625</LongitudeDegrees>
            </Position>
            <AltitudeMeters>20</AltitudeMeters>
            <DistanceMeters>NAN</DistanceMeters>
          </Trackpoint>
          <Trackpoint>
            <Time>2022-09-24T15:50:56.000Z</Time>
            <Position>
              <LatitudeDegrees>43.3617283590137958526611328125</LatitudeDegrees>
              <LongitudeDegrees>-2.83155047334730625152587890625</LongitudeDegrees>
            </Position>
            <AltitudeMeters>20</AltitudeMeters>
            <DistanceMeters>NAN</DistanceMeters>
          </Trackpoint>
          <Trackpoint>
            <Time>2022-09-24T15:50:57.000Z</Time>
            <Position>
              <LatitudeDegrees>43.361739255487918853759765625</LatitudeDegrees>
              <LongitudeDegrees>-2.83151728101074695587158203125</LongitudeDegrees>
            </Position>
            <AltitudeMeters>20.3999996185302734375</AltitudeMeters>
            <DistanceMeters>NAN</DistanceMeters>
          </Trackpoint>
          <Trackpoint>
            <Time>2022-09-24T15:50:58.000Z</Time>
            <Position>
              <LatitudeDegrees>43.36175023578107357025146484375</LatitudeDegrees>
              <LongitudeDegrees>-2.83148207701742649078369140625</LongitudeDegrees>
            </Position>
            <AltitudeMeters>20.799999237060546875</AltitudeMeters>
            <DistanceMeters>NAN</DistanceMeters>
          </Trackpoint>
          <Trackpoint>
            <Time>2022-09-24T15:50:59.000Z</Time>
            <Position>
              <LatitudeDegrees>43.36175023578107357025146484375</LatitudeDegrees>
              <LongitudeDegrees>-2.83148207701742649078369140625</LongitudeDegrees>
            </Position>
            <AltitudeMeters>21.200000762939453125</AltitudeMeters>
            <DistanceMeters>NAN</DistanceMeters>
          </Trackpoint>
          <Trackpoint>
            <Time>2022-09-24T15:51:00.000Z</Time>
            <Position>
              <LatitudeDegrees>43.36177236400544643402099609375</LatitudeDegrees>
              <LongitudeDegrees>-2.831411249935626983642578125</LongitudeDegrees>
            </Position>
            <AltitudeMeters>21.200000762939453125</AltitudeMeters>
            <DistanceMeters>NAN</DistanceMeters>
          </Trackpoint>
          <Trackpoint>
            <Time>2022-09-24T15:51:01.000Z</Time>
            <Position>
              <LatitudeDegrees>43.361787535250186920166015625</LatitudeDegrees>
              <LongitudeDegrees>-2.83137269318103790283203125</LongitudeDegrees>
            </Position>
            <AltitudeMeters>21.200000762939453125</AltitudeMeters>
            <DistanceMeters>NAN</DistanceMeters>
          </Trackpoint>
          <Trackpoint>
            <Time>2022-09-24T15:51:02.000Z</Time>
            <Position>
              <LatitudeDegrees>43.361787535250186920166015625</LatitudeDegrees>
              <LongitudeDegrees>-2.83137269318103790283203125</LongitudeDegrees>
            </Position>
            <AltitudeMeters>21.3999996185302734375</AltitudeMeters>
            <DistanceMeters>NAN</DistanceMeters>
          </Trackpoint>
          <Trackpoint>
            <Time>2022-09-24T15:51:03.000Z</Time>
            <Position>
              <LatitudeDegrees>43.3618172071874141693115234375</LatitudeDegrees>
              <LongitudeDegrees>-2.83132365904748439788818359375</LongitudeDegrees>
            </Position>
            <AltitudeMeters>21.3999996185302734375</AltitudeMeters>
            <DistanceMeters>NAN</DistanceMeters>
          </Trackpoint>
          <Trackpoint>
            <Time>2022-09-24T15:51:04.000Z</Time>
            <Position>
              <LatitudeDegrees>43.3618333004415035247802734375</LatitudeDegrees>
              <LongitudeDegrees>-2.83129281364381313323974609375</LongitudeDegrees>
            </Position>
            <AltitudeMeters>21.799999237060546875</AltitudeMeters>
            <DistanceMeters>NAN</DistanceMeters>
          </Trackpoint>
          <Trackpoint>
            <Time>2022-09-24T15:51:05.000Z</Time>
            <Position>
              <LatitudeDegrees>43.3618483878672122955322265625</LatitudeDegrees>
              <LongitudeDegrees>-2.83126180060207843780517578125</LongitudeDegrees>
            </Position>
            <AltitudeMeters>21.799999237060546875</AltitudeMeters>
            <DistanceMeters>NAN</DistanceMeters>
          </Trackpoint>
          <Trackpoint>
            <Time>2022-09-24T15:51:06.000Z</Time>
            <Position>
              <LatitudeDegrees>43.361859284341335296630859375</LatitudeDegrees>
              <LongitudeDegrees>-2.8312357328832149505615234375</LongitudeDegrees>
            </Position>
            <AltitudeMeters>22.200000762939453125</AltitudeMeters>
            <DistanceMeters>NAN</DistanceMeters>
          </Trackpoint>
          <Trackpoint>
            <Time>2022-09-24T15:51:07.000Z</Time>
            <Position>
              <LatitudeDegrees>43.36187261156737804412841796875</LatitudeDegrees>
              <LongitudeDegrees>-2.83120371401309967041015625</LongitudeDegrees>
            </Position>
            <AltitudeMeters>22.6000003814697265625</AltitudeMeters>
            <DistanceMeters>NAN</DistanceMeters>
          </Trackpoint>
          <Trackpoint>
            <Time>2022-09-24T15:51:08.000Z</Time>
            <Position>
              <LatitudeDegrees>43.3618768863379955291748046875</LatitudeDegrees>
              <LongitudeDegrees>-2.83117018640041351318359375</LongitudeDegrees>
            </Position>
            <AltitudeMeters>22.6000003814697265625</AltitudeMeters>
            <DistanceMeters>NAN</DistanceMeters>
          </Trackpoint>
          <Trackpoint>
            <Time>2022-09-24T15:51:09.000Z</Time>
            <Position>
              <LatitudeDegrees>43.36188468150794506072998046875</LatitudeDegrees>
              <LongitudeDegrees>-2.8311334736645221710205078125</LongitudeDegrees>
            </Position>
            <AltitudeMeters>22.799999237060546875</AltitudeMeters>
            <DistanceMeters>NAN</DistanceMeters>
          </Trackpoint>
          <Trackpoint>
            <Time>2022-09-24T15:51:10.000Z</Time>
            <Position>
              <LatitudeDegrees>43.36189423687756061553955078125</LatitudeDegrees>
              <LongitudeDegrees>-2.8310970962047576904296875</LongitudeDegrees>
            </Position>
            <AltitudeMeters>23</AltitudeMeters>
            <DistanceMeters>NAN</DistanceMeters>
          </Trackpoint>
          <Trackpoint>
            <Time>2022-09-24T15:51:11.000Z</Time>
            <Position>
              <LatitudeDegrees>43.36190597154200077056884765625</LatitudeDegrees>
              <LongitudeDegrees>-2.831063568592071533203125</LongitudeDegrees>
            </Position>
            <AltitudeMeters>23.200000762939453125</AltitudeMeters>
            <DistanceMeters>NAN</DistanceMeters>
          </Trackpoint>
          <Trackpoint>
            <Time>2022-09-24T15:51:12.000Z</Time>
            <Position>
              <LatitudeDegrees>43.36191485635936260223388671875</LatitudeDegrees>
              <LongitudeDegrees>-2.83102643676102161407470703125</LongitudeDegrees>
            </Position>
            <AltitudeMeters>23.3999996185302734375</AltitudeMeters>
            <DistanceMeters>NAN</DistanceMeters>
          </Trackpoint>
          <Trackpoint>
            <Time>2022-09-24T15:51:13.000Z</Time>
            <Position>
              <LatitudeDegrees>43.3619231544435024261474609375</LatitudeDegrees>
              <LongitudeDegrees>-2.83098855055868625640869140625</LongitudeDegrees>
            </Position>
            <AltitudeMeters>23.6000003814697265625</AltitudeMeters>
            <DistanceMeters>NAN</DistanceMeters>
          </Trackpoint>
          <Trackpoint>
            <Time>2022-09-24T15:51:14.000Z</Time>
            <Position>
              <LatitudeDegrees>43.36193564347922801971435546875</LatitudeDegrees>
              <LongitudeDegrees>-2.83095351420342922210693359375</LongitudeDegrees>
            </Position>
            <AltitudeMeters>23.799999237060546875</AltitudeMeters>
            <DistanceMeters>NAN</DistanceMeters>
          </Trackpoint>
          <Trackpoint>
            <Time>2022-09-24T15:51:15.000Z</Time>
            <Position>
              <LatitudeDegrees>43.3619476296007633209228515625</LatitudeDegrees>
              <LongitudeDegrees>-2.83091026358306407928466796875</LongitudeDegrees>
            </Position>
            <AltitudeMeters>23.799999237060546875</AltitudeMeters>
            <DistanceMeters>NAN</DistanceMeters>
          </Trackpoint>
          <Trackpoint>
            <Time>2022-09-24T15:51:16.000Z</Time>
            <Position>
              <LatitudeDegrees>43.3619576878845691680908203125</LatitudeDegrees>
              <LongitudeDegrees>-2.8308816812932491302490234375</LongitudeDegrees>
            </Position>
            <AltitudeMeters>24.200000762939453125</AltitudeMeters>
            <DistanceMeters>NAN</DistanceMeters>
          </Trackpoint>
          <Trackpoint>
            <Time>2022-09-24T15:51:17.000Z</Time>
            <Position>
              <LatitudeDegrees>43.36196799762547016143798828125</LatitudeDegrees>
              <LongitudeDegrees>-2.8308468125760555267333984375</LongitudeDegrees>
            </Position>
            <AltitudeMeters>24.6000003814697265625</AltitudeMeters>
            <DistanceMeters>NAN</DistanceMeters>
          </Trackpoint>
          <Trackpoint>
            <Time>2022-09-24T15:51:18.000Z</Time>
            <Position>
              <LatitudeDegrees>43.3619818277657032012939453125</LatitudeDegrees>
              <LongitudeDegrees>-2.83080540597438812255859375</LongitudeDegrees>
            </Position>
            <AltitudeMeters>24.6000003814697265625</AltitudeMeters>
            <DistanceMeters>NAN</DistanceMeters>
          </Trackpoint>
          <Trackpoint>
            <Time>2022-09-24T15:51:19.000Z</Time>
            <Position>
              <LatitudeDegrees>43.36199305951595306396484375</LatitudeDegrees>
              <LongitudeDegrees>-2.83077648840844631195068359375</LongitudeDegrees>
            </Position>
            <AltitudeMeters>24.6000003814697265625</AltitudeMeters>
            <DistanceMeters>NAN</DistanceMeters>
          </Trackpoint>
          <Trackpoint>
            <Time>2022-09-24T15:51:20.000Z</Time>
            <Position>
              <LatitudeDegrees>43.36200772784650325775146484375</LatitudeDegrees>
              <LongitudeDegrees>-2.8307355009019374847412109375</LongitudeDegrees>
            </Position>
            <AltitudeMeters>24.799999237060546875</AltitudeMeters>
            <DistanceMeters>NAN</DistanceMeters>
          </Trackpoint>
          <Trackpoint>
            <Time>2022-09-24T15:51:21.000Z</Time>
            <Position>
              <LatitudeDegrees>43.3620193786919116973876953125</LatitudeDegrees>
              <LongitudeDegrees>-2.83070758916437625885009765625</LongitudeDegrees>
            </Position>
            <AltitudeMeters>24.799999237060546875</AltitudeMeters>
            <DistanceMeters>NAN</DistanceMeters>
          </Trackpoint>
          <Trackpoint>
            <Time>2022-09-24T15:51:22.000Z</Time>
            <Position>
              <LatitudeDegrees>43.362034969031810760498046875</LatitudeDegrees>
              <LongitudeDegrees>-2.83067263662815093994140625</LongitudeDegrees>
            </Position>
            <AltitudeMeters>25</AltitudeMeters>
            <DistanceMeters>NAN</DistanceMeters>
          </Trackpoint>
          <Trackpoint>
            <Time>2022-09-24T15:51:23.000Z</Time>
            <Position>
              <LatitudeDegrees>43.36205542087554931640625</LatitudeDegrees>
              <LongitudeDegrees>-2.83063097856938838958740234375</LongitudeDegrees>
            </Position>
            <AltitudeMeters>25.3999996185302734375</AltitudeMeters>
            <DistanceMeters>NAN</DistanceMeters>
          </Trackpoint>
          <Trackpoint>
            <Time>2022-09-24T15:51:24.000Z</Time>
            <Position>
              <LatitudeDegrees>43.36206673644483089447021484375</LatitudeDegrees>
              <LongitudeDegrees>-2.8305920027196407318115234375</LongitudeDegrees>
            </Position>
            <AltitudeMeters>25.6000003814697265625</AltitudeMeters>
            <DistanceMeters>NAN</DistanceMeters>
          </Trackpoint>
          <Trackpoint>
            <Time>2022-09-24T15:51:25.000Z</Time>
            <Position>
              <LatitudeDegrees>43.36207092739641666412353515625</LatitudeDegrees>
              <LongitudeDegrees>-2.83056023530662059783935546875</LongitudeDegrees>
            </Position>
            <AltitudeMeters>26</AltitudeMeters>
            <DistanceMeters>NAN</DistanceMeters>
          </Trackpoint>
          <Trackpoint>
            <Time>2022-09-24T15:51:26.000Z</Time>
            <Position>
              <LatitudeDegrees>43.36208132095634937286376953125</LatitudeDegrees>
              <LongitudeDegrees>-2.830523438751697540283203125</LongitudeDegrees>
            </Position>
            <AltitudeMeters>26</AltitudeMeters>
            <DistanceMeters>NAN</DistanceMeters>
          </Trackpoint>
          <Trackpoint>
            <Time>2022-09-24T15:51:27.000Z</Time>
            <Position>
              <LatitudeDegrees>43.362095989286899566650390625</LatitudeDegrees>
              <LongitudeDegrees>-2.83048697747290134429931640625</LongitudeDegrees>
            </Position>
            <AltitudeMeters>26</AltitudeMeters>
            <DistanceMeters>NAN</DistanceMeters>
          </Trackpoint>
          <Trackpoint>
            <Time>2022-09-24T15:51:28.000Z</Time>
            <Position>
              <LatitudeDegrees>43.36211183108389377593994140625</LatitudeDegrees>
              <LongitudeDegrees>-2.8304501809179782867431640625</LongitudeDegrees>
            </Position>
            <AltitudeMeters>26</AltitudeMeters>
            <DistanceMeters>NAN</DistanceMeters>
          </Trackpoint>
          <Trackpoint>
            <Time>2022-09-24T15:51:29.000Z</Time>
            <Position>
              <LatitudeDegrees>43.362132869660854339599609375</LatitudeDegrees>
              <LongitudeDegrees>-2.8304096125066280364990234375</LongitudeDegrees>
            </Position>
            <AltitudeMeters>26.3999996185302734375</AltitudeMeters>
            <DistanceMeters>NAN</DistanceMeters>
          </Trackpoint>
          <Trackpoint>
            <Time>2022-09-24T15:51:30.000Z</Time>
            <Position>
              <LatitudeDegrees>43.362146951258182525634765625</LatitudeDegrees>
              <LongitudeDegrees>-2.83037382178008556365966796875</LongitudeDegrees>
            </Position>
            <AltitudeMeters>26.3999996185302734375</AltitudeMeters>
            <DistanceMeters>NAN</DistanceMeters>
          </Trackpoint>
          <Trackpoint>
            <Time>2022-09-24T15:51:31.000Z</Time>
            <Position>
              <LatitudeDegrees>43.36215642280876636505126953125</LatitudeDegrees>
              <LongitudeDegrees>-2.8303422220051288604736328125</LongitudeDegrees>
            </Position>
            <AltitudeMeters>26.6000003814697265625</AltitudeMeters>
            <DistanceMeters>NAN</DistanceMeters>
          </Trackpoint>
          <Trackpoint>
            <Time>2022-09-24T15:51:32.000Z</Time>
            <Position>
              <LatitudeDegrees>43.36217251606285572052001953125</LatitudeDegrees>
              <LongitudeDegrees>-2.83029771409928798675537109375</LongitudeDegrees>
            </Position>
            <AltitudeMeters>26.6000003814697265625</AltitudeMeters>
            <DistanceMeters>NAN</DistanceMeters>
          </Trackpoint>
          <Trackpoint>
            <Time>2022-09-24T15:51:33.000Z</Time>
            <Position>
              <LatitudeDegrees>43.36218617856502532958984375</LatitudeDegrees>
              <LongitudeDegrees>-2.83026091754436492919921875</LongitudeDegrees>
            </Position>
            <AltitudeMeters>27</AltitudeMeters>
            <DistanceMeters>NAN</DistanceMeters>
          </Trackpoint>
          <Trackpoint>
            <Time>2022-09-24T15:51:34.000Z</Time>
            <Position>
              <LatitudeDegrees>43.36220034398138523101806640625</LatitudeDegrees>
              <LongitudeDegrees>-2.83022336661815643310546875</LongitudeDegrees>
            </Position>
            <AltitudeMeters>27.200000762939453125</AltitudeMeters>
            <DistanceMeters>NAN</DistanceMeters>
          </Trackpoint>
          <Trackpoint>
            <Time>2022-09-24T15:51:35.000Z</Time>
            <Position>
              <LatitudeDegrees>43.36221124045550823211669921875</LatitudeDegrees>
              <LongitudeDegrees>-2.8301947005093097686767578125</LongitudeDegrees>
            </Position>
            <AltitudeMeters>27.3999996185302734375</AltitudeMeters>
            <DistanceMeters>NAN</DistanceMeters>
          </Trackpoint>
          <Trackpoint>
            <Time>2022-09-24T15:51:36.000Z</Time>
            <Position>
              <LatitudeDegrees>43.3622245676815509796142578125</LatitudeDegrees>
              <LongitudeDegrees>-2.83015706576406955718994140625</LongitudeDegrees>
            </Position>
            <AltitudeMeters>27.6000003814697265625</AltitudeMeters>
            <DistanceMeters>NAN</DistanceMeters>
          </Trackpoint>
          <Trackpoint>
            <Time>2022-09-24T15:51:37.000Z</Time>
            <Position>
              <LatitudeDegrees>43.362238816916942596435546875</LatitudeDegrees>
              <LongitudeDegrees>-2.8301192633807659149169921875</LongitudeDegrees>
            </Position>
            <AltitudeMeters>27.6000003814697265625</AltitudeMeters>
            <DistanceMeters>NAN</DistanceMeters>
          </Trackpoint>
          <Trackpoint>
            <Time>2022-09-24T15:51:38.000Z</Time>
            <Position>
              <LatitudeDegrees>43.36225281469523906707763671875</LatitudeDegrees>
              <LongitudeDegrees>-2.83008657395839691162109375</LongitudeDegrees>
            </Position>
            <AltitudeMeters>27.799999237060546875</AltitudeMeters>
            <DistanceMeters>NAN</DistanceMeters>
          </Trackpoint>
          <Trackpoint>
            <Time>2022-09-24T15:51:39.000Z</Time>
            <Position>
              <LatitudeDegrees>43.36227041669189929962158203125</LatitudeDegrees>
              <LongitudeDegrees>-2.8300458379089832305908203125</LongitudeDegrees>
            </Position>
            <AltitudeMeters>27.799999237060546875</AltitudeMeters>
            <DistanceMeters>NAN</DistanceMeters>
          </Trackpoint>
          <Trackpoint>
            <Time>2022-09-24T15:51:40.000Z</Time>
            <Position>
              <LatitudeDegrees>43.36228097788989543914794921875</LatitudeDegrees>
              <LongitudeDegrees>-2.83001624979078769683837890625</LongitudeDegrees>
            </Position>
            <AltitudeMeters>28</AltitudeMeters>
            <DistanceMeters>NAN</DistanceMeters>
          </Trackpoint>
          <Trackpoint>
            <Time>2022-09-24T15:51:41.000Z</Time>
            <Position>
              <LatitudeDegrees>43.36229757405817508697509765625</LatitudeDegrees>
              <LongitudeDegrees>-2.829981632530689239501953125</LongitudeDegrees>
            </Position>
            <AltitudeMeters>28.6000003814697265625</AltitudeMeters>
            <DistanceMeters>NAN</DistanceMeters>
          </Trackpoint>
          <Trackpoint>
            <Time>2022-09-24T15:51:42.000Z</Time>
            <Position>
              <LatitudeDegrees>43.3623169362545013427734375</LatitudeDegrees>
              <LongitudeDegrees>-2.82994047738611698150634765625</LongitudeDegrees>
            </Position>
            <AltitudeMeters>28.799999237060546875</AltitudeMeters>
            <DistanceMeters>NAN</DistanceMeters>
          </Trackpoint>
          <Trackpoint>
            <Time>2022-09-24T15:51:43.000Z</Time>
            <Position>
              <LatitudeDegrees>43.36233437061309814453125</LatitudeDegrees>
              <LongitudeDegrees>-2.829909212887287139892578125</LongitudeDegrees>
            </Position>
            <AltitudeMeters>28.799999237060546875</AltitudeMeters>
            <DistanceMeters>NAN</DistanceMeters>
          </Trackpoint>
          <Trackpoint>
            <Time>2022-09-24T15:51:44.000Z</Time>
            <Position>
              <LatitudeDegrees>43.36234970949590206146240234375</LatitudeDegrees>
              <LongitudeDegrees>-2.82988716848194599151611328125</LongitudeDegrees>
            </Position>
            <AltitudeMeters>29.200000762939453125</AltitudeMeters>
            <DistanceMeters>NAN</DistanceMeters>
          </Trackpoint>
          <Trackpoint>
            <Time>2022-09-24T15:51:45.000Z</Time>
            <Position>
              <LatitudeDegrees>43.36234970949590206146240234375</LatitudeDegrees>
              <LongitudeDegrees>-2.82988716848194599151611328125</LongitudeDegrees>
            </Position>
            <AltitudeMeters>29.200000762939453125</AltitudeMeters>
            <DistanceMeters>NAN</DistanceMeters>
          </Trackpoint>
          <Trackpoint>
            <Time>2022-09-24T15:51:46.000Z</Time>
            <Position>
              <LatitudeDegrees>43.36239011026918888092041015625</LatitudeDegrees>
              <LongitudeDegrees>-2.8298299200832843780517578125</LongitudeDegrees>
            </Position>
            <AltitudeMeters>29.6000003814697265625</AltitudeMeters>
            <DistanceMeters>NAN</DistanceMeters>
          </Trackpoint>
          <Trackpoint>
            <Time>2022-09-24T15:51:47.000Z</Time>
            <Position>
              <LatitudeDegrees>43.36241240613162517547607421875</LatitudeDegrees>
              <LongitudeDegrees>-2.82980150543153285980224609375</LongitudeDegrees>
            </Position>
            <AltitudeMeters>29.799999237060546875</AltitudeMeters>
            <DistanceMeters>NAN</DistanceMeters>
          </Trackpoint>
          <Trackpoint>
            <Time>2022-09-24T15:51:48.000Z</Time>
            <Position>
              <LatitudeDegrees>43.3624327741563320159912109375</LatitudeDegrees>
              <LongitudeDegrees>-2.82977334223687648773193359375</LongitudeDegrees>
            </Position>
            <AltitudeMeters>29.799999237060546875</AltitudeMeters>
            <DistanceMeters>NAN</DistanceMeters>
          </Trackpoint>
          <Trackpoint>
            <Time>2022-09-24T15:51:49.000Z</Time>
            <Position>
              <LatitudeDegrees>43.3624505437910556793212890625</LatitudeDegrees>
              <LongitudeDegrees>-2.82974333502352237701416015625</LongitudeDegrees>
            </Position>
            <AltitudeMeters>30</AltitudeMeters>
            <DistanceMeters>NAN</DistanceMeters>
          </Trackpoint>
          <Trackpoint>
            <Time>2022-09-24T15:51:50.000Z</Time>
            <Position>
              <LatitudeDegrees>43.3624698221683502197265625</LatitudeDegrees>
              <LongitudeDegrees>-2.82971533946692943572998046875</LongitudeDegrees>
            </Position>
            <AltitudeMeters>30.3999996185302734375</AltitudeMeters>
            <DistanceMeters>NAN</DistanceMeters>
          </Trackpoint>
          <Trackpoint>
            <Time>2022-09-24T15:51:51.000Z</Time>
            <Position>
              <LatitudeDegrees>43.36249672807753086090087890625</LatitudeDegrees>
              <LongitudeDegrees>-2.829684913158416748046875</LongitudeDegrees>
            </Position>
            <AltitudeMeters>30.3999996185302734375</AltitudeMeters>
            <DistanceMeters>NAN</DistanceMeters>
          </Trackpoint>
          <Trackpoint>
            <Time>2022-09-24T15:51:52.000Z</Time>
            <Position>
              <LatitudeDegrees>43.36251785047352313995361328125</LatitudeDegrees>
              <LongitudeDegrees>-2.8296646289527416229248046875</LongitudeDegrees>
            </Position>
            <AltitudeMeters>30.3999996185302734375</AltitudeMeters>
            <DistanceMeters>NAN</DistanceMeters>
          </Trackpoint>
          <Trackpoint>
            <Time>2022-09-24T15:51:53.000Z</Time>
            <Position>
              <LatitudeDegrees>43.362544588744640350341796875</LatitudeDegrees>
              <LongitudeDegrees>-2.82963822595775127410888671875</LongitudeDegrees>
            </Position>
            <AltitudeMeters>30.3999996185302734375</AltitudeMeters>
            <DistanceMeters>NAN</DistanceMeters>
          </Trackpoint>
          <Trackpoint>
            <Time>2022-09-24T15:51:54.000Z</Time>
            <Position>
              <LatitudeDegrees>43.36256914772093296051025390625</LatitudeDegrees>
              <LongitudeDegrees>-2.82961056567728519439697265625</LongitudeDegrees>
            </Position>
            <AltitudeMeters>30.6000003814697265625</AltitudeMeters>
            <DistanceMeters>NAN</DistanceMeters>
          </Trackpoint>
          <Trackpoint>
            <Time>2022-09-24T15:51:55.000Z</Time>
            <Position>
              <LatitudeDegrees>43.36259898729622364044189453125</LatitudeDegrees>
              <LongitudeDegrees>-2.82958324067294597625732421875</LongitudeDegrees>
            </Position>
            <AltitudeMeters>30.6000003814697265625</AltitudeMeters>
            <DistanceMeters>NAN</DistanceMeters>
          </Trackpoint>
          <Trackpoint>
            <Time>2022-09-24T15:51:56.000Z</Time>
            <Position>
              <LatitudeDegrees>43.3626186847686767578125</LatitudeDegrees>
              <LongitudeDegrees>-2.82956480048596858978271484375</LongitudeDegrees>
            </Position>
            <AltitudeMeters>31</AltitudeMeters>
            <DistanceMeters>NAN</DistanceMeters>
          </Trackpoint>
          <Trackpoint>
            <Time>2022-09-24T15:51:57.000Z</Time>
            <Position>
              <LatitudeDegrees>43.3626473508775234222412109375</LatitudeDegrees>
              <LongitudeDegrees>-2.8295389004051685333251953125</LongitudeDegrees>
            </Position>
            <AltitudeMeters>31.200000762939453125</AltitudeMeters>
            <DistanceMeters>NAN</DistanceMeters>
          </Trackpoint>
          <Trackpoint>
            <Time>2022-09-24T15:51:58.000Z</Time>
            <Position>
              <LatitudeDegrees>43.36266637779772281646728515625</LatitudeDegrees>
              <LongitudeDegrees>-2.82952238805592060089111328125</LongitudeDegrees>
            </Position>
            <AltitudeMeters>31.6000003814697265625</AltitudeMeters>
            <DistanceMeters>NAN</DistanceMeters>
          </Trackpoint>
          <Trackpoint>
            <Time>2022-09-24T15:51:59.000Z</Time>
            <Position>
              <LatitudeDegrees>43.3626899309456348419189453125</LatitudeDegrees>
              <LongitudeDegrees>-2.8295010142028331756591796875</LongitudeDegrees>
            </Position>
            <AltitudeMeters>31.799999237060546875</AltitudeMeters>
            <DistanceMeters>NAN</DistanceMeters>
          </Trackpoint>
          <Trackpoint>
            <Time>2022-09-24T15:52:00.000Z</Time>
            <Position>
              <LatitudeDegrees>43.36272052489221096038818359375</LatitudeDegrees>
              <LongitudeDegrees>-2.8294778801500797271728515625</LongitudeDegrees>
            </Position>
            <AltitudeMeters>32.200000762939453125</AltitudeMeters>
            <DistanceMeters>NAN</DistanceMeters>
          </Trackpoint>
          <Trackpoint>
            <Time>2022-09-24T15:52:01.000Z</Time>
            <Position>
              <LatitudeDegrees>43.36274667643010616302490234375</LatitudeDegrees>
              <LongitudeDegrees>-2.82945952378213405609130859375</LongitudeDegrees>
            </Position>
            <AltitudeMeters>32.59999847412109375</AltitudeMeters>
            <DistanceMeters>NAN</DistanceMeters>
          </Trackpoint>
          <Trackpoint>
            <Time>2022-09-24T15:52:02.000Z</Time>
            <Position>
              <LatitudeDegrees>43.36277182213962078094482421875</LatitudeDegrees>
              <LongitudeDegrees>-2.82944058068096637725830078125</LongitudeDegrees>
            </Position>
            <AltitudeMeters>32.59999847412109375</AltitudeMeters>
            <DistanceMeters>NAN</DistanceMeters>
          </Trackpoint>
          <Trackpoint>
            <Time>2022-09-24T15:52:03.000Z</Time>
            <Position>
              <LatitudeDegrees>43.36279612965881824493408203125</LatitudeDegrees>
              <LongitudeDegrees>-2.8294207155704498291015625</LongitudeDegrees>
            </Position>
            <AltitudeMeters>32.59999847412109375</AltitudeMeters>
            <DistanceMeters>NAN</DistanceMeters>
          </Trackpoint>
          <Trackpoint>
            <Time>2022-09-24T15:52:04.000Z</Time>
            <Position>
              <LatitudeDegrees>43.36282186210155487060546875</LatitudeDegrees>
              <LongitudeDegrees>-2.8294027782976627349853515625</LongitudeDegrees>
            </Position>
            <AltitudeMeters>33</AltitudeMeters>
            <DistanceMeters>NAN</DistanceMeters>
          </Trackpoint>
          <Trackpoint>
            <Time>2022-09-24T15:52:05.000Z</Time>
            <Position>
              <LatitudeDegrees>43.362849690020084381103515625</LatitudeDegrees>
              <LongitudeDegrees>-2.82938626594841480255126953125</LongitudeDegrees>
            </Position>
            <AltitudeMeters>33</AltitudeMeters>
            <DistanceMeters>NAN</DistanceMeters>
          </Trackpoint>
          <Trackpoint>
            <Time>2022-09-24T15:52:06.000Z</Time>
            <Position>
              <LatitudeDegrees>43.36287575773894786834716796875</LatitudeDegrees>
              <LongitudeDegrees>-2.82936816103756427764892578125</LongitudeDegrees>
            </Position>
            <AltitudeMeters>33.40000152587890625</AltitudeMeters>
            <DistanceMeters>NAN</DistanceMeters>
          </Trackpoint>
          <Trackpoint>
            <Time>2022-09-24T15:52:07.000Z</Time>
            <Position>
              <LatitudeDegrees>43.3628981374204158782958984375</LatitudeDegrees>
              <LongitudeDegrees>-2.82935433089733123779296875</LongitudeDegrees>
            </Position>
            <AltitudeMeters>33.40000152587890625</AltitudeMeters>
            <DistanceMeters>NAN</DistanceMeters>
          </Trackpoint>
          <Trackpoint>
            <Time>2022-09-24T15:52:08.000Z</Time>
            <Position>
              <LatitudeDegrees>43.36292420513927936553955078125</LatitudeDegrees>
              <LongitudeDegrees>-2.829339243471622467041015625</LongitudeDegrees>
            </Position>
            <AltitudeMeters>33.59999847412109375</AltitudeMeters>
            <DistanceMeters>NAN</DistanceMeters>
          </Trackpoint>
          <Trackpoint>
            <Time>2022-09-24T15:52:09.000Z</Time>
            <Position>
              <LatitudeDegrees>43.3629517816007137298583984375</LatitudeDegrees>
              <LongitudeDegrees>-2.829322479665279388427734375</LongitudeDegrees>
            </Position>
            <AltitudeMeters>34</AltitudeMeters>
            <DistanceMeters>NAN</DistanceMeters>
          </Trackpoint>
          <Trackpoint>
            <Time>2022-09-24T15:52:10.000Z</Time>
            <Position>
              <LatitudeDegrees>43.362975083291530609130859375</LatitudeDegrees>
              <LongitudeDegrees>-2.82930814661085605621337890625</LongitudeDegrees>
            </Position>
            <AltitudeMeters>34.200000762939453125</AltitudeMeters>
            <DistanceMeters>NAN</DistanceMeters>
          </Trackpoint>
          <Trackpoint>
            <Time>2022-09-24T15:52:11.000Z</Time>
            <Position>
              <LatitudeDegrees>43.3630000613629817962646484375</LatitudeDegrees>
              <LongitudeDegrees>-2.82928870059549808502197265625</LongitudeDegrees>
            </Position>
            <AltitudeMeters>34.40000152587890625</AltitudeMeters>
            <DistanceMeters>NAN</DistanceMeters>
          </Trackpoint>
          <Trackpoint>
            <Time>2022-09-24T15:52:12.000Z</Time>
            <Position>
              <LatitudeDegrees>43.36301858536899089813232421875</LatitudeDegrees>
              <LongitudeDegrees>-2.8292785584926605224609375</LongitudeDegrees>
            </Position>
            <AltitudeMeters>34.59999847412109375</AltitudeMeters>
            <DistanceMeters>NAN</DistanceMeters>
          </Trackpoint>
          <Trackpoint>
            <Time>2022-09-24T15:52:13.000Z</Time>
            <Position>
              <LatitudeDegrees>43.3630480058491230010986328125</LatitudeDegrees>
              <LongitudeDegrees>-2.82926171086728572845458984375</LongitudeDegrees>
            </Position>
            <AltitudeMeters>34.59999847412109375</AltitudeMeters>
            <DistanceMeters>NAN</DistanceMeters>
          </Trackpoint>
          <Trackpoint>
            <Time>2022-09-24T15:52:14.000Z</Time>
            <Position>
              <LatitudeDegrees>43.36307105608284473419189453125</LatitudeDegrees>
              <LongitudeDegrees>-2.82924712635576725006103515625</LongitudeDegrees>
            </Position>
            <AltitudeMeters>35</AltitudeMeters>
            <DistanceMeters>NAN</DistanceMeters>
          </Trackpoint>
          <Trackpoint>
            <Time>2022-09-24T15:52:15.000Z</Time>
            <Position>
              <LatitudeDegrees>43.3630925975739955902099609375</LatitudeDegrees>
              <LongitudeDegrees>-2.82923304475843906402587890625</LongitudeDegrees>
            </Position>
            <AltitudeMeters>35.40000152587890625</AltitudeMeters>
            <DistanceMeters>NAN</DistanceMeters>
          </Trackpoint>
          <Trackpoint>
            <Time>2022-09-24T15:52:16.000Z</Time>
            <Position>
              <LatitudeDegrees>43.36311682127416133880615234375</LatitudeDegrees>
              <LongitudeDegrees>-2.82922047190368175506591796875</LongitudeDegrees>
            </Position>
            <AltitudeMeters>35.59999847412109375</AltitudeMeters>
            <DistanceMeters>NAN</DistanceMeters>
          </Trackpoint>
          <Trackpoint>
            <Time>2022-09-24T15:52:17.000Z</Time>
            <Position>
              <LatitudeDegrees>43.3631355129182338714599609375</LatitudeDegrees>
              <LongitudeDegrees>-2.8292110003530979156494140625</LongitudeDegrees>
            </Position>
            <AltitudeMeters>35.59999847412109375</AltitudeMeters>
            <DistanceMeters>NAN</DistanceMeters>
          </Trackpoint>
          <Trackpoint>
            <Time>2022-09-24T15:52:18.000Z</Time>
            <Position>
              <LatitudeDegrees>43.3631645143032073974609375</LatitudeDegrees>
              <LongitudeDegrees>-2.82919314689934253692626953125</LongitudeDegrees>
            </Position>
            <AltitudeMeters>36</AltitudeMeters>
            <DistanceMeters>NAN</DistanceMeters>
          </Trackpoint>
          <Trackpoint>
            <Time>2022-09-24T15:52:19.000Z</Time>
            <Position>
              <LatitudeDegrees>43.3631884865462779998779296875</LatitudeDegrees>
              <LongitudeDegrees>-2.829179652035236358642578125</LongitudeDegrees>
            </Position>
            <AltitudeMeters>36.200000762939453125</AltitudeMeters>
            <DistanceMeters>NAN</DistanceMeters>
          </Trackpoint>
          <Trackpoint>
            <Time>2022-09-24T15:52:20.000Z</Time>
            <Position>
              <LatitudeDegrees>43.36321086622774600982666015625</LatitudeDegrees>
              <LongitudeDegrees>-2.8291650675237178802490234375</LongitudeDegrees>
            </Position>
            <AltitudeMeters>36.200000762939453125</AltitudeMeters>
            <DistanceMeters>NAN</DistanceMeters>
          </Trackpoint>
          <Trackpoint>
            <Time>2022-09-24T15:52:21.000Z</Time>
            <Position>
              <LatitudeDegrees>43.36323467083275318145751953125</LatitudeDegrees>
              <LongitudeDegrees>-2.829148471355438232421875</LongitudeDegrees>
            </Position>
            <AltitudeMeters>36.59999847412109375</AltitudeMeters>
            <DistanceMeters>NAN</DistanceMeters>
          </Trackpoint>
          <Trackpoint>
            <Time>2022-09-24T15:52:22.000Z</Time>
            <Position>
              <LatitudeDegrees>43.36325797252357006072998046875</LatitudeDegrees>
              <LongitudeDegrees>-2.82913229428231716156005859375</LongitudeDegrees>
            </Position>
            <AltitudeMeters>36.799999237060546875</AltitudeMeters>
            <DistanceMeters>NAN</DistanceMeters>
          </Trackpoint>
          <Trackpoint>
            <Time>2022-09-24T15:52:23.000Z</Time>
            <Position>
              <LatitudeDegrees>43.36328228004276752471923828125</LatitudeDegrees>
              <LongitudeDegrees>-2.82911603339016437530517578125</LongitudeDegrees>
            </Position>
            <AltitudeMeters>37.200000762939453125</AltitudeMeters>
            <DistanceMeters>NAN</DistanceMeters>
          </Trackpoint>
          <Trackpoint>
            <Time>2022-09-24T15:52:24.000Z</Time>
            <Position>
              <LatitudeDegrees>43.363307006657123565673828125</LatitudeDegrees>
              <LongitudeDegrees>-2.82910287380218505859375</LongitudeDegrees>
            </Position>
            <AltitudeMeters>37.200000762939453125</AltitudeMeters>
            <DistanceMeters>NAN</DistanceMeters>
          </Trackpoint>
          <Trackpoint>
            <Time>2022-09-24T15:52:25.000Z</Time>
            <Position>
              <LatitudeDegrees>43.36333357729017734527587890625</LatitudeDegrees>
              <LongitudeDegrees>-2.82908937893807888031005859375</LongitudeDegrees>
            </Position>
            <AltitudeMeters>37.200000762939453125</AltitudeMeters>
            <DistanceMeters>NAN</DistanceMeters>
          </Trackpoint>
          <Trackpoint>
            <Time>2022-09-24T15:52:26.000Z</Time>
            <Position>
              <LatitudeDegrees>43.36335352621972560882568359375</LatitudeDegrees>
              <LongitudeDegrees>-2.82907680608332157135009765625</LongitudeDegrees>
            </Position>
            <AltitudeMeters>37.59999847412109375</AltitudeMeters>
            <DistanceMeters>NAN</DistanceMeters>
          </Trackpoint>
          <Trackpoint>
            <Time>2022-09-24T15:52:27.000Z</Time>
            <Position>
              <LatitudeDegrees>43.36338336579501628875732421875</LatitudeDegrees>
              <LongitudeDegrees>-2.82905685715377330780029296875</LongitudeDegrees>
            </Position>
            <AltitudeMeters>37.59999847412109375</AltitudeMeters>
            <DistanceMeters>NAN</DistanceMeters>
          </Trackpoint>
          <Trackpoint>
            <Time>2022-09-24T15:52:28.000Z</Time>
            <Position>
              <LatitudeDegrees>43.36340968497097492218017578125</LatitudeDegrees>
              <LongitudeDegrees>-2.82904076389968395233154296875</LongitudeDegrees>
            </Position>
            <AltitudeMeters>37.59999847412109375</AltitudeMeters>
            <DistanceMeters>NAN</DistanceMeters>
          </Trackpoint>
          <Trackpoint>
            <Time>2022-09-24T15:52:29.000Z</Time>
            <Position>
              <LatitudeDegrees>43.36343382485210895538330078125</LatitudeDegrees>
              <LongitudeDegrees>-2.82901980914175510406494140625</LongitudeDegrees>
            </Position>
            <AltitudeMeters>38</AltitudeMeters>
            <DistanceMeters>NAN</DistanceMeters>
          </Trackpoint>
          <Trackpoint>
            <Time>2022-09-24T15:52:30.000Z</Time>
            <Position>
              <LatitudeDegrees>43.36345511488616466522216796875</LatitudeDegrees>
              <LongitudeDegrees>-2.82900698482990264892578125</LongitudeDegrees>
            </Position>
            <AltitudeMeters>38.200000762939453125</AltitudeMeters>
            <DistanceMeters>NAN</DistanceMeters>
          </Trackpoint>
          <Trackpoint>
            <Time>2022-09-24T15:52:31.000Z</Time>
            <Position>
              <LatitudeDegrees>43.36348109878599643707275390625</LatitudeDegrees>
              <LongitudeDegrees>-2.82899198122322559356689453125</LongitudeDegrees>
            </Position>
            <AltitudeMeters>38.200000762939453125</AltitudeMeters>
            <DistanceMeters>NAN</DistanceMeters>
          </Trackpoint>
          <Trackpoint>
            <Time>2022-09-24T15:52:32.000Z</Time>
            <Position>
              <LatitudeDegrees>43.3635053224861621856689453125</LatitudeDegrees>
              <LongitudeDegrees>-2.8289696015417575836181640625</LongitudeDegrees>
            </Position>
            <AltitudeMeters>38.40000152587890625</AltitudeMeters>
            <DistanceMeters>NAN</DistanceMeters>
          </Trackpoint>
          <Trackpoint>
            <Time>2022-09-24T15:52:33.000Z</Time>
            <Position>
              <LatitudeDegrees>43.36353373713791370391845703125</LatitudeDegrees>
              <LongitudeDegrees>-2.82894738949835300445556640625</LongitudeDegrees>
            </Position>
            <AltitudeMeters>38.40000152587890625</AltitudeMeters>
            <DistanceMeters>NAN</DistanceMeters>
          </Trackpoint>
          <Trackpoint>
            <Time>2022-09-24T15:52:34.000Z</Time>
            <Position>
              <LatitudeDegrees>43.3635572902858257293701171875</LatitudeDegrees>
              <LongitudeDegrees>-2.82892383635044097900390625</LongitudeDegrees>
            </Position>
            <AltitudeMeters>38.799999237060546875</AltitudeMeters>
            <DistanceMeters>NAN</DistanceMeters>
          </Trackpoint>
          <Trackpoint>
            <Time>2022-09-24T15:52:35.000Z</Time>
            <Position>
              <LatitudeDegrees>43.36357916705310344696044921875</LatitudeDegrees>
              <LongitudeDegrees>-2.8289085812866687774658203125</LongitudeDegrees>
            </Position>
            <AltitudeMeters>39.200000762939453125</AltitudeMeters>
            <DistanceMeters>NAN</DistanceMeters>
          </Trackpoint>
          <Trackpoint>
            <Time>2022-09-24T15:52:36.000Z</Time>
            <Position>
              <LatitudeDegrees>43.36360414512455463409423828125</LatitudeDegrees>
              <LongitudeDegrees>-2.828888632357120513916015625</LongitudeDegrees>
            </Position>
            <AltitudeMeters>39.40000152587890625</AltitudeMeters>
            <DistanceMeters>NAN</DistanceMeters>
          </Trackpoint>
          <Trackpoint>
            <Time>2022-09-24T15:52:37.000Z</Time>
            <Position>
              <LatitudeDegrees>43.36363381706178188323974609375</LatitudeDegrees>
              <LongitudeDegrees>-2.828865163028240203857421875</LongitudeDegrees>
            </Position>
            <AltitudeMeters>39.59999847412109375</AltitudeMeters>
            <DistanceMeters>NAN</DistanceMeters>
          </Trackpoint>
          <Trackpoint>
            <Time>2022-09-24T15:52:38.000Z</Time>
            <Position>
              <LatitudeDegrees>43.36365996859967708587646484375</LatitudeDegrees>
              <LongitudeDegrees>-2.8288452140986919403076171875</LongitudeDegrees>
            </Position>
            <AltitudeMeters>40</AltitudeMeters>
            <DistanceMeters>NAN</DistanceMeters>
          </Trackpoint>
          <Trackpoint>
            <Time>2022-09-24T15:52:39.000Z</Time>
            <Position>
              <LatitudeDegrees>43.363687209784984588623046875</LatitudeDegrees>
              <LongitudeDegrees>-2.82882635481655597686767578125</LongitudeDegrees>
            </Position>
            <AltitudeMeters>40.200000762939453125</AltitudeMeters>
            <DistanceMeters>NAN</DistanceMeters>
          </Trackpoint>
          <Trackpoint>
            <Time>2022-09-24T15:52:40.000Z</Time>
            <Position>
              <LatitudeDegrees>43.363687209784984588623046875</LatitudeDegrees>
              <LongitudeDegrees>-2.82882635481655597686767578125</LongitudeDegrees>
            </Position>
            <AltitudeMeters>40.40000152587890625</AltitudeMeters>
            <DistanceMeters>NAN</DistanceMeters>
          </Trackpoint>
          <Trackpoint>
            <Time>2022-09-24T15:52:41.000Z</Time>
            <Position>
              <LatitudeDegrees>43.36372350342571735382080078125</LatitudeDegrees>
              <LongitudeDegrees>-2.828783690929412841796875</LongitudeDegrees>
            </Position>
            <AltitudeMeters>40.59999847412109375</AltitudeMeters>
            <DistanceMeters>NAN</DistanceMeters>
          </Trackpoint>
          <Trackpoint>
            <Time>2022-09-24T15:52:42.000Z</Time>
            <Position>
              <LatitudeDegrees>43.363742865622043609619140625</LatitudeDegrees>
              <LongitudeDegrees>-2.82875745557248592376708984375</LongitudeDegrees>
            </Position>
            <AltitudeMeters>40.799999237060546875</AltitudeMeters>
            <DistanceMeters>NAN</DistanceMeters>
          </Trackpoint>
          <Trackpoint>
            <Time>2022-09-24T15:52:43.000Z</Time>
            <Position>
              <LatitudeDegrees>43.36377161554992198944091796875</LatitudeDegrees>
              <LongitudeDegrees>-2.8287248499691486358642578125</LongitudeDegrees>
            </Position>
            <AltitudeMeters>41</AltitudeMeters>
            <DistanceMeters>NAN</DistanceMeters>
          </Trackpoint>
          <Trackpoint>
            <Time>2022-09-24T15:52:44.000Z</Time>
            <Position>
              <LatitudeDegrees>43.3637903071939945220947265625</LatitudeDegrees>
              <LongitudeDegrees>-2.82870532013475894927978515625</LongitudeDegrees>
            </Position>
            <AltitudeMeters>41.200000762939453125</AltitudeMeters>
            <DistanceMeters>NAN</DistanceMeters>
          </Trackpoint>
          <Trackpoint>
            <Time>2022-09-24T15:52:45.000Z</Time>
            <Position>
              <LatitudeDegrees>43.3638104237616062164306640625</LatitudeDegrees>
              <LongitudeDegrees>-2.8286782465875148773193359375</LongitudeDegrees>
            </Position>
            <AltitudeMeters>41.59999847412109375</AltitudeMeters>
            <DistanceMeters>NAN</DistanceMeters>
          </Trackpoint>
          <Trackpoint>
            <Time>2022-09-24T15:52:46.000Z</Time>
            <Position>
              <LatitudeDegrees>43.3638365752995014190673828125</LatitudeDegrees>
              <LongitudeDegrees>-2.82864698208868503570556640625</LongitudeDegrees>
            </Position>
            <AltitudeMeters>41.799999237060546875</AltitudeMeters>
            <DistanceMeters>NAN</DistanceMeters>
          </Trackpoint>
          <Trackpoint>
            <Time>2022-09-24T15:52:47.000Z</Time>
            <Position>
              <LatitudeDegrees>43.36385426111519336700439453125</LatitudeDegrees>
              <LongitudeDegrees>-2.82862066291272640228271484375</LongitudeDegrees>
            </Position>
            <AltitudeMeters>42</AltitudeMeters>
            <DistanceMeters>NAN</DistanceMeters>
          </Trackpoint>
          <Trackpoint>
            <Time>2022-09-24T15:52:48.000Z</Time>
            <Position>
              <LatitudeDegrees>43.36386968381702899932861328125</LatitudeDegrees>
              <LongitudeDegrees>-2.8285893984138965606689453125</LongitudeDegrees>
            </Position>
            <AltitudeMeters>42.200000762939453125</AltitudeMeters>
            <DistanceMeters>NAN</DistanceMeters>
          </Trackpoint>
          <Trackpoint>
            <Time>2022-09-24T15:52:49.000Z</Time>
            <Position>
              <LatitudeDegrees>43.36388275958597660064697265625</LatitudeDegrees>
              <LongitudeDegrees>-2.82856383360922336578369140625</LongitudeDegrees>
            </Position>
            <AltitudeMeters>42.59999847412109375</AltitudeMeters>
            <DistanceMeters>NAN</DistanceMeters>
          </Trackpoint>
          <Trackpoint>
            <Time>2022-09-24T15:52:50.000Z</Time>
            <Position>
              <LatitudeDegrees>43.36390572600066661834716796875</LatitudeDegrees>
              <LongitudeDegrees>-2.828528881072998046875</LongitudeDegrees>
            </Position>
            <AltitudeMeters>42.799999237060546875</AltitudeMeters>
            <DistanceMeters>NAN</DistanceMeters>
          </Trackpoint>
          <Trackpoint>
            <Time>2022-09-24T15:52:51.000Z</Time>
            <Position>
              <LatitudeDegrees>43.363925926387310028076171875</LatitudeDegrees>
              <LongitudeDegrees>-2.82850281335413455963134765625</LongitudeDegrees>
            </Position>
            <AltitudeMeters>43</AltitudeMeters>
            <DistanceMeters>NAN</DistanceMeters>
          </Trackpoint>
          <Trackpoint>
            <Time>2022-09-24T15:52:52.000Z</Time>
            <Position>
              <LatitudeDegrees>43.36394092999398708343505859375</LatitudeDegrees>
              <LongitudeDegrees>-2.8284794278442859649658203125</LongitudeDegrees>
            </Position>
            <AltitudeMeters>43</AltitudeMeters>
            <DistanceMeters>NAN</DistanceMeters>
          </Trackpoint>
          <Trackpoint>
            <Time>2022-09-24T15:52:53.000Z</Time>
            <Position>
              <LatitudeDegrees>43.36396071128547191619873046875</LatitudeDegrees>
              <LongitudeDegrees>-2.828449420630931854248046875</LongitudeDegrees>
            </Position>
            <AltitudeMeters>43.40000152587890625</AltitudeMeters>
            <DistanceMeters>NAN</DistanceMeters>
          </Trackpoint>
          <Trackpoint>
            <Time>2022-09-24T15:52:54.000Z</Time>
            <Position>
              <LatitudeDegrees>43.363974876701831817626953125</LatitudeDegrees>
              <LongitudeDegrees>-2.82842016778886318206787109375</LongitudeDegrees>
            </Position>
            <AltitudeMeters>43.59999847412109375</AltitudeMeters>
            <DistanceMeters>NAN</DistanceMeters>
          </Trackpoint>
          <Trackpoint>
            <Time>2022-09-24T15:52:55.000Z</Time>
            <Position>
              <LatitudeDegrees>43.36399390362203121185302734375</LatitudeDegrees>
              <LongitudeDegrees>-2.8283845447003841400146484375</LongitudeDegrees>
            </Position>
            <AltitudeMeters>44.200000762939453125</AltitudeMeters>
            <DistanceMeters>NAN</DistanceMeters>
          </Trackpoint>
          <Trackpoint>
            <Time>2022-09-24T15:52:56.000Z</Time>
            <Position>
              <LatitudeDegrees>43.36400915868580341339111328125</LatitudeDegrees>
              <LongitudeDegrees>-2.8283531963825225830078125</LongitudeDegrees>
            </Position>
            <AltitudeMeters>44.200000762939453125</AltitudeMeters>
            <DistanceMeters>NAN</DistanceMeters>
          </Trackpoint>
          <Trackpoint>
            <Time>2022-09-24T15:52:57.000Z</Time>
            <Position>
              <LatitudeDegrees>43.36402324028313159942626953125</LatitudeDegrees>
              <LongitudeDegrees>-2.82832008786499500274658203125</LongitudeDegrees>
            </Position>
            <AltitudeMeters>44.59999847412109375</AltitudeMeters>
            <DistanceMeters>NAN</DistanceMeters>
          </Trackpoint>
          <Trackpoint>
            <Time>2022-09-24T15:52:58.000Z</Time>
            <Position>
              <LatitudeDegrees>43.36403581313788890838623046875</LatitudeDegrees>
              <LongitudeDegrees>-2.82829142175614833831787109375</LongitudeDegrees>
            </Position>
            <AltitudeMeters>44.799999237060546875</AltitudeMeters>
            <DistanceMeters>NAN</DistanceMeters>
          </Trackpoint>
          <Trackpoint>
            <Time>2022-09-24T15:52:59.000Z</Time>
            <Position>
              <LatitudeDegrees>43.36404436267912387847900390625</LatitudeDegrees>
              <LongitudeDegrees>-2.82826669514179229736328125</LongitudeDegrees>
            </Position>
            <AltitudeMeters>44.799999237060546875</AltitudeMeters>
            <DistanceMeters>NAN</DistanceMeters>
          </Trackpoint>
          <Trackpoint>
            <Time>2022-09-24T15:53:00.000Z</Time>
            <Position>
              <LatitudeDegrees>43.3640585280954837799072265625</LatitudeDegrees>
              <LongitudeDegrees>-2.8282356821000576019287109375</LongitudeDegrees>
            </Position>
            <AltitudeMeters>45</AltitudeMeters>
            <DistanceMeters>NAN</DistanceMeters>
          </Trackpoint>
          <Trackpoint>
            <Time>2022-09-24T15:53:01.000Z</Time>
            <Position>
              <LatitudeDegrees>43.36407772265374660491943359375</LatitudeDegrees>
              <LongitudeDegrees>-2.8282011486589908599853515625</LongitudeDegrees>
            </Position>
            <AltitudeMeters>45.200000762939453125</AltitudeMeters>
            <DistanceMeters>NAN</DistanceMeters>
          </Trackpoint>
          <Trackpoint>
            <Time>2022-09-24T15:53:02.000Z</Time>
            <Position>
              <LatitudeDegrees>43.3640925586223602294921875</LatitudeDegrees>
              <LongitudeDegrees>-2.8281703032553195953369140625</LongitudeDegrees>
            </Position>
            <AltitudeMeters>45.40000152587890625</AltitudeMeters>
            <DistanceMeters>NAN</DistanceMeters>
          </Trackpoint>
          <Trackpoint>
            <Time>2022-09-24T15:53:03.000Z</Time>
            <Position>
              <LatitudeDegrees>43.36410261690616607666015625</LatitudeDegrees>
              <LongitudeDegrees>-2.82814306207001209259033203125</LongitudeDegrees>
            </Position>
            <AltitudeMeters>45.59999847412109375</AltitudeMeters>
            <DistanceMeters>NAN</DistanceMeters>
          </Trackpoint>
          <Trackpoint>
            <Time>2022-09-24T15:53:04.000Z</Time>
            <Position>
              <LatitudeDegrees>43.36411468684673309326171875</LatitudeDegrees>
              <LongitudeDegrees>-2.82810199074447154998779296875</LongitudeDegrees>
            </Position>
            <AltitudeMeters>45.799999237060546875</AltitudeMeters>
            <DistanceMeters>NAN</DistanceMeters>
          </Trackpoint>
          <Trackpoint>
            <Time>2022-09-24T15:53:05.000Z</Time>
            <Position>
              <LatitudeDegrees>43.3641269244253635406494140625</LatitudeDegrees>
              <LongitudeDegrees>-2.82806687057018280029296875</LongitudeDegrees>
            </Position>
            <AltitudeMeters>46.40000152587890625</AltitudeMeters>
            <DistanceMeters>NAN</DistanceMeters>
          </Trackpoint>
          <Trackpoint>
            <Time>2022-09-24T15:53:06.000Z</Time>
            <Position>
              <LatitudeDegrees>43.364134468138217926025390625</LatitudeDegrees>
              <LongitudeDegrees>-2.82803946174681186676025390625</LongitudeDegrees>
            </Position>
            <AltitudeMeters>46.59999847412109375</AltitudeMeters>
            <DistanceMeters>NAN</DistanceMeters>
          </Trackpoint>
          <Trackpoint>
            <Time>2022-09-24T15:53:07.000Z</Time>
            <Position>
              <LatitudeDegrees>43.36414595134556293487548828125</LatitudeDegrees>
              <LongitudeDegrees>-2.82800811342895030975341796875</LongitudeDegrees>
            </Position>
            <AltitudeMeters>47</AltitudeMeters>
            <DistanceMeters>NAN</DistanceMeters>
          </Trackpoint>
          <Trackpoint>
            <Time>2022-09-24T15:53:08.000Z</Time>
            <Position>
              <LatitudeDegrees>43.3641617931425571441650390625</LatitudeDegrees>
              <LongitudeDegrees>-2.82797140069305896759033203125</LongitudeDegrees>
            </Position>
            <AltitudeMeters>47.200000762939453125</AltitudeMeters>
            <DistanceMeters>NAN</DistanceMeters>
          </Trackpoint>
          <Trackpoint>
            <Time>2022-09-24T15:53:09.000Z</Time>
            <Position>
              <LatitudeDegrees>43.36417377926409244537353515625</LatitudeDegrees>
              <LongitudeDegrees>-2.82794541679322719573974609375</LongitudeDegrees>
            </Position>
            <AltitudeMeters>47.200000762939453125</AltitudeMeters>
            <DistanceMeters>NAN</DistanceMeters>
          </Trackpoint>
          <Trackpoint>
            <Time>2022-09-24T15:53:10.000Z</Time>
            <Position>
              <LatitudeDegrees>43.36418903432786464691162109375</LatitudeDegrees>
              <LongitudeDegrees>-2.82791423611342906951904296875</LongitudeDegrees>
            </Position>
            <AltitudeMeters>47.59999847412109375</AltitudeMeters>
            <DistanceMeters>NAN</DistanceMeters>
          </Trackpoint>
          <Trackpoint>
            <Time>2022-09-24T15:53:11.000Z</Time>
            <Position>
              <LatitudeDegrees>43.3642037026584148406982421875</LatitudeDegrees>
              <LongitudeDegrees>-2.82787567935883998870849609375</LongitudeDegrees>
            </Position>
            <AltitudeMeters>47.799999237060546875</AltitudeMeters>
            <DistanceMeters>NAN</DistanceMeters>
          </Trackpoint>
          <Trackpoint>
            <Time>2022-09-24T15:53:12.000Z</Time>
            <Position>
              <LatitudeDegrees>43.36421267129480838775634765625</LatitudeDegrees>
              <LongitudeDegrees>-2.82784902490675449371337890625</LongitudeDegrees>
            </Position>
            <AltitudeMeters>48</AltitudeMeters>
            <DistanceMeters>NAN</DistanceMeters>
          </Trackpoint>
          <Trackpoint>
            <Time>2022-09-24T15:53:13.000Z</Time>
            <Position>
              <LatitudeDegrees>43.36422599852085113525390625</LatitudeDegrees>
              <LongitudeDegrees>-2.82781097106635570526123046875</LongitudeDegrees>
            </Position>
            <AltitudeMeters>48.200000762939453125</AltitudeMeters>
            <DistanceMeters>NAN</DistanceMeters>
          </Trackpoint>
          <Trackpoint>
            <Time>2022-09-24T15:53:14.000Z</Time>
            <Position>
              <LatitudeDegrees>43.3642345480620861053466796875</LatitudeDegrees>
              <LongitudeDegrees>-2.82778498716652393341064453125</LongitudeDegrees>
            </Position>
            <AltitudeMeters>48.59999847412109375</AltitudeMeters>
            <DistanceMeters>NAN</DistanceMeters>
          </Trackpoint>
          <Trackpoint>
            <Time>2022-09-24T15:53:15.000Z</Time>
            <Position>
              <LatitudeDegrees>43.36424720473587512969970703125</LatitudeDegrees>
              <LongitudeDegrees>-2.82775414176285266876220703125</LongitudeDegrees>
            </Position>
            <AltitudeMeters>48.59999847412109375</AltitudeMeters>
            <DistanceMeters>NAN</DistanceMeters>
          </Trackpoint>
          <Trackpoint>
            <Time>2022-09-24T15:53:16.000Z</Time>
            <Position>
              <LatitudeDegrees>43.36426061578094959259033203125</LatitudeDegrees>
              <LongitudeDegrees>-2.8277230449020862579345703125</LongitudeDegrees>
            </Position>
            <AltitudeMeters>49</AltitudeMeters>
            <DistanceMeters>NAN</DistanceMeters>
          </Trackpoint>
          <Trackpoint>
            <Time>2022-09-24T15:53:17.000Z</Time>
            <Position>
              <LatitudeDegrees>43.364270590245723724365234375</LatitudeDegrees>
              <LongitudeDegrees>-2.82769136130809783935546875</LongitudeDegrees>
            </Position>
            <AltitudeMeters>49</AltitudeMeters>
            <DistanceMeters>NAN</DistanceMeters>
          </Trackpoint>
          <Trackpoint>
            <Time>2022-09-24T15:53:18.000Z</Time>
            <Position>
              <LatitudeDegrees>43.3642851747572422027587890625</LatitudeDegrees>
              <LongitudeDegrees>-2.82765515148639678955078125</LongitudeDegrees>
            </Position>
            <AltitudeMeters>49</AltitudeMeters>
            <DistanceMeters>NAN</DistanceMeters>
          </Trackpoint>
          <Trackpoint>
            <Time>2022-09-24T15:53:19.000Z</Time>
            <Position>
              <LatitudeDegrees>43.36430151946842670440673828125</LatitudeDegrees>
              <LongitudeDegrees>-2.8276129066944122314453125</LongitudeDegrees>
            </Position>
            <AltitudeMeters>49.40000152587890625</AltitudeMeters>
            <DistanceMeters>NAN</DistanceMeters>
          </Trackpoint>
          <Trackpoint>
            <Time>2022-09-24T15:53:20.000Z</Time>
            <Position>
              <LatitudeDegrees>43.36431442759931087493896484375</LatitudeDegrees>
              <LongitudeDegrees>-2.82757812179625034332275390625</LongitudeDegrees>
            </Position>
            <AltitudeMeters>49.59999847412109375</AltitudeMeters>
            <DistanceMeters>NAN</DistanceMeters>
          </Trackpoint>
          <Trackpoint>
            <Time>2022-09-24T15:53:21.000Z</Time>
            <Position>
              <LatitudeDegrees>43.36432146839797496795654296875</LatitudeDegrees>
              <LongitudeDegrees>-2.82755029387772083282470703125</LongitudeDegrees>
            </Position>
            <AltitudeMeters>49.799999237060546875</AltitudeMeters>
            <DistanceMeters>NAN</DistanceMeters>
          </Trackpoint>
          <Trackpoint>
            <Time>2022-09-24T15:53:22.000Z</Time>
            <Position>
              <LatitudeDegrees>43.36433462798595428466796875</LatitudeDegrees>
              <LongitudeDegrees>-2.82751006074249744415283203125</LongitudeDegrees>
            </Position>
            <AltitudeMeters>49.799999237060546875</AltitudeMeters>
            <DistanceMeters>NAN</DistanceMeters>
          </Trackpoint>
          <Trackpoint>
            <Time>2022-09-24T15:53:23.000Z</Time>
            <Position>
              <LatitudeDegrees>43.36434661410748958587646484375</LatitudeDegrees>
              <LongitudeDegrees>-2.8274752758443355560302734375</LongitudeDegrees>
            </Position>
            <AltitudeMeters>50.40000152587890625</AltitudeMeters>
            <DistanceMeters>NAN</DistanceMeters>
          </Trackpoint>
          <Trackpoint>
            <Time>2022-09-24T15:53:24.000Z</Time>
            <Position>
              <LatitudeDegrees>43.3643567562103271484375</LatitudeDegrees>
              <LongitudeDegrees>-2.82744769938290119171142578125</LongitudeDegrees>
            </Position>
            <AltitudeMeters>50.40000152587890625</AltitudeMeters>
            <DistanceMeters>NAN</DistanceMeters>
          </Trackpoint>
          <Trackpoint>
            <Time>2022-09-24T15:53:25.000Z</Time>
            <Position>
              <LatitudeDegrees>43.36436874233186244964599609375</LatitudeDegrees>
              <LongitudeDegrees>-2.82741517759859561920166015625</LongitudeDegrees>
            </Position>
            <AltitudeMeters>50.59999847412109375</AltitudeMeters>
            <DistanceMeters>NAN</DistanceMeters>
          </Trackpoint>
          <Trackpoint>
            <Time>2022-09-24T15:53:26.000Z</Time>
            <Position>
              <LatitudeDegrees>43.36437880061566829681396484375</LatitudeDegrees>
              <LongitudeDegrees>-2.82738198526203632354736328125</LongitudeDegrees>
            </Position>
            <AltitudeMeters>50.59999847412109375</AltitudeMeters>
            <DistanceMeters>NAN</DistanceMeters>
          </Trackpoint>
          <Trackpoint>
            <Time>2022-09-24T15:53:27.000Z</Time>
            <Position>
              <LatitudeDegrees>43.3643887750804424285888671875</LatitudeDegrees>
              <LongitudeDegrees>-2.8273482061922550201416015625</LongitudeDegrees>
            </Position>
            <AltitudeMeters>50.59999847412109375</AltitudeMeters>
            <DistanceMeters>NAN</DistanceMeters>
          </Trackpoint>
          <Trackpoint>
            <Time>2022-09-24T15:53:28.000Z</Time>
            <Position>
              <LatitudeDegrees>43.3643996715545654296875</LatitudeDegrees>
              <LongitudeDegrees>-2.8273140080273151397705078125</LongitudeDegrees>
            </Position>
            <AltitudeMeters>50.59999847412109375</AltitudeMeters>
            <DistanceMeters>NAN</DistanceMeters>
          </Trackpoint>
          <Trackpoint>
            <Time>2022-09-24T15:53:29.000Z</Time>
            <Position>
              <LatitudeDegrees>43.36441383697092533111572265625</LatitudeDegrees>
              <LongitudeDegrees>-2.82727025449275970458984375</LongitudeDegrees>
            </Position>
            <AltitudeMeters>51.40000152587890625</AltitudeMeters>
            <DistanceMeters>NAN</DistanceMeters>
          </Trackpoint>
          <Trackpoint>
            <Time>2022-09-24T15:53:30.000Z</Time>
            <Position>
              <LatitudeDegrees>43.3644233085215091705322265625</LatitudeDegrees>
              <LongitudeDegrees>-2.82724083401262760162353515625</LongitudeDegrees>
            </Position>
            <AltitudeMeters>51.799999237060546875</AltitudeMeters>
            <DistanceMeters>NAN</DistanceMeters>
          </Trackpoint>
          <Trackpoint>
            <Time>2022-09-24T15:53:31.000Z</Time>
            <Position>
              <LatitudeDegrees>43.36443495936691761016845703125</LatitudeDegrees>
              <LongitudeDegrees>-2.8272060491144657135009765625</LongitudeDegrees>
            </Position>
            <AltitudeMeters>52</AltitudeMeters>
            <DistanceMeters>NAN</DistanceMeters>
          </Trackpoint>
          <Trackpoint>
            <Time>2022-09-24T15:53:32.000Z</Time>
            <Position>
              <LatitudeDegrees>43.3644501306116580963134765625</LatitudeDegrees>
              <LongitudeDegrees>-2.82716095447540283203125</LongitudeDegrees>
            </Position>
            <AltitudeMeters>52.200000762939453125</AltitudeMeters>
            <DistanceMeters>NAN</DistanceMeters>
          </Trackpoint>
          <Trackpoint>
            <Time>2022-09-24T15:53:33.000Z</Time>
            <Position>
              <LatitudeDegrees>43.36445574648678302764892578125</LatitudeDegrees>
              <LongitudeDegrees>-2.82713220454752445220947265625</LongitudeDegrees>
            </Position>
            <AltitudeMeters>52.200000762939453125</AltitudeMeters>
            <DistanceMeters>NAN</DistanceMeters>
          </Trackpoint>
          <Trackpoint>
            <Time>2022-09-24T15:53:34.000Z</Time>
            <Position>
              <LatitudeDegrees>43.36446597240865230560302734375</LatitudeDegrees>
              <LongitudeDegrees>-2.82709599472582340240478515625</LongitudeDegrees>
            </Position>
            <AltitudeMeters>52.200000762939453125</AltitudeMeters>
            <DistanceMeters>NAN</DistanceMeters>
          </Trackpoint>
          <Trackpoint>
            <Time>2022-09-24T15:53:35.000Z</Time>
            <Position>
              <LatitudeDegrees>43.36447686888277530670166015625</LatitudeDegrees>
              <LongitudeDegrees>-2.82705995254218578338623046875</LongitudeDegrees>
            </Position>
            <AltitudeMeters>52.40000152587890625</AltitudeMeters>
            <DistanceMeters>NAN</DistanceMeters>
          </Trackpoint>
          <Trackpoint>
            <Time>2022-09-24T15:53:36.000Z</Time>
            <Position>
              <LatitudeDegrees>43.36448960937559604644775390625</LatitudeDegrees>
              <LongitudeDegrees>-2.827020473778247833251953125</LongitudeDegrees>
            </Position>
            <AltitudeMeters>52.59999847412109375</AltitudeMeters>
            <DistanceMeters>NAN</DistanceMeters>
          </Trackpoint>
          <Trackpoint>
            <Time>2022-09-24T15:53:37.000Z</Time>
            <Position>
              <LatitudeDegrees>43.36449849419295787811279296875</LatitudeDegrees>
              <LongitudeDegrees>-2.8269844315946102142333984375</LongitudeDegrees>
            </Position>
            <AltitudeMeters>52.799999237060546875</AltitudeMeters>
            <DistanceMeters>NAN</DistanceMeters>
          </Trackpoint>
          <Trackpoint>
            <Time>2022-09-24T15:53:38.000Z</Time>
            <Position>
              <LatitudeDegrees>43.36450360715389251708984375</LatitudeDegrees>
              <LongitudeDegrees>-2.82694713212549686431884765625</LongitudeDegrees>
            </Position>
            <AltitudeMeters>53.200000762939453125</AltitudeMeters>
            <DistanceMeters>NAN</DistanceMeters>
          </Trackpoint>
          <Trackpoint>
            <Time>2022-09-24T15:53:39.000Z</Time>
            <Position>
              <LatitudeDegrees>43.3645148389041423797607421875</LatitudeDegrees>
              <LongitudeDegrees>-2.826907150447368621826171875</LongitudeDegrees>
            </Position>
            <AltitudeMeters>53.40000152587890625</AltitudeMeters>
            <DistanceMeters>NAN</DistanceMeters>
          </Trackpoint>
          <Trackpoint>
            <Time>2022-09-24T15:53:40.000Z</Time>
            <Position>
              <LatitudeDegrees>43.3645255677402019500732421875</LatitudeDegrees>
              <LongitudeDegrees>-2.8268654085695743560791015625</LongitudeDegrees>
            </Position>
            <AltitudeMeters>53.40000152587890625</AltitudeMeters>
            <DistanceMeters>NAN</DistanceMeters>
          </Trackpoint>
          <Trackpoint>
            <Time>2022-09-24T15:53:41.000Z</Time>
            <Position>
              <LatitudeDegrees>43.36453336291015148162841796875</LatitudeDegrees>
              <LongitudeDegrees>-2.826826684176921844482421875</LongitudeDegrees>
            </Position>
            <AltitudeMeters>53.59999847412109375</AltitudeMeters>
            <DistanceMeters>NAN</DistanceMeters>
          </Trackpoint>
          <Trackpoint>
            <Time>2022-09-24T15:53:42.000Z</Time>
            <Position>
              <LatitudeDegrees>43.36454409174621105194091796875</LatitudeDegrees>
              <LongitudeDegrees>-2.8267909772694110870361328125</LongitudeDegrees>
            </Position>
            <AltitudeMeters>53.59999847412109375</AltitudeMeters>
            <DistanceMeters>NAN</DistanceMeters>
          </Trackpoint>
          <Trackpoint>
            <Time>2022-09-24T15:53:43.000Z</Time>
            <Position>
              <LatitudeDegrees>43.3645550720393657684326171875</LatitudeDegrees>
              <LongitudeDegrees>-2.8267537616193294525146484375</LongitudeDegrees>
            </Position>
            <AltitudeMeters>53.799999237060546875</AltitudeMeters>
            <DistanceMeters>NAN</DistanceMeters>
          </Trackpoint>
          <Trackpoint>
            <Time>2022-09-24T15:53:44.000Z</Time>
            <Position>
              <LatitudeDegrees>43.36456261575222015380859375</LatitudeDegrees>
              <LongitudeDegrees>-2.8267158754169940948486328125</LongitudeDegrees>
            </Position>
            <AltitudeMeters>54.200000762939453125</AltitudeMeters>
            <DistanceMeters>NAN</DistanceMeters>
          </Trackpoint>
          <Trackpoint>
            <Time>2022-09-24T15:53:45.000Z</Time>
            <Position>
              <LatitudeDegrees>43.36457191966474056243896484375</LatitudeDegrees>
              <LongitudeDegrees>-2.82667555846273899078369140625</LongitudeDegrees>
            </Position>
            <AltitudeMeters>54.40000152587890625</AltitudeMeters>
            <DistanceMeters>NAN</DistanceMeters>
          </Trackpoint>
          <Trackpoint>
            <Time>2022-09-24T15:53:46.000Z</Time>
            <Position>
              <LatitudeDegrees>43.36458600126206874847412109375</LatitudeDegrees>
              <LongitudeDegrees>-2.82663700170814990997314453125</LongitudeDegrees>
            </Position>
            <AltitudeMeters>54.40000152587890625</AltitudeMeters>
            <DistanceMeters>NAN</DistanceMeters>
          </Trackpoint>
          <Trackpoint>
            <Time>2022-09-24T15:53:47.000Z</Time>
            <Position>
              <LatitudeDegrees>43.36459924466907978057861328125</LatitudeDegrees>
              <LongitudeDegrees>-2.8266005404293537139892578125</LongitudeDegrees>
            </Position>
            <AltitudeMeters>54.59999847412109375</AltitudeMeters>
            <DistanceMeters>NAN</DistanceMeters>
          </Trackpoint>
          <Trackpoint>
            <Time>2022-09-24T15:53:48.000Z</Time>
            <Position>
              <LatitudeDegrees>43.364612571895122528076171875</LatitudeDegrees>
              <LongitudeDegrees>-2.826564498245716094970703125</LongitudeDegrees>
            </Position>
            <AltitudeMeters>54.799999237060546875</AltitudeMeters>
            <DistanceMeters>NAN</DistanceMeters>
          </Trackpoint>
          <Trackpoint>
            <Time>2022-09-24T15:53:49.000Z</Time>
            <Position>
              <LatitudeDegrees>43.3646251447498798370361328125</LatitudeDegrees>
              <LongitudeDegrees>-2.826530300080776214599609375</LongitudeDegrees>
            </Position>
            <AltitudeMeters>55.200000762939453125</AltitudeMeters>
            <DistanceMeters>NAN</DistanceMeters>
          </Trackpoint>
          <Trackpoint>
            <Time>2022-09-24T15:53:50.000Z</Time>
            <Position>
              <LatitudeDegrees>43.3646398968994617462158203125</LatitudeDegrees>
              <LongitudeDegrees>-2.826496772468090057373046875</LongitudeDegrees>
            </Position>
            <AltitudeMeters>55.200000762939453125</AltitudeMeters>
            <DistanceMeters>NAN</DistanceMeters>
          </Trackpoint>
          <Trackpoint>
            <Time>2022-09-24T15:53:51.000Z</Time>
            <Position>
              <LatitudeDegrees>43.36465372703969478607177734375</LatitudeDegrees>
              <LongitudeDegrees>-2.826461903750896453857421875</LongitudeDegrees>
            </Position>
            <AltitudeMeters>55.200000762939453125</AltitudeMeters>
            <DistanceMeters>NAN</DistanceMeters>
          </Trackpoint>
          <Trackpoint>
            <Time>2022-09-24T15:53:52.000Z</Time>
            <Position>
              <LatitudeDegrees>43.3646680600941181182861328125</LatitudeDegrees>
              <LongitudeDegrees>-2.82642711885273456573486328125</LongitudeDegrees>
            </Position>
            <AltitudeMeters>55.59999847412109375</AltitudeMeters>
            <DistanceMeters>NAN</DistanceMeters>
          </Trackpoint>
          <Trackpoint>
            <Time>2022-09-24T15:53:53.000Z</Time>
            <Position>
              <LatitudeDegrees>43.36468406952917575836181640625</LatitudeDegrees>
              <LongitudeDegrees>-2.8263938426971435546875</LongitudeDegrees>
            </Position>
            <AltitudeMeters>55.59999847412109375</AltitudeMeters>
            <DistanceMeters>NAN</DistanceMeters>
          </Trackpoint>
          <Trackpoint>
            <Time>2022-09-24T15:53:54.000Z</Time>
            <Position>
              <LatitudeDegrees>43.36469798348844051361083984375</LatitudeDegrees>
              <LongitudeDegrees>-2.82636006362736225128173828125</LongitudeDegrees>
            </Position>
            <AltitudeMeters>55.799999237060546875</AltitudeMeters>
            <DistanceMeters>NAN</DistanceMeters>
          </Trackpoint>
          <Trackpoint>
            <Time>2022-09-24T15:53:55.000Z</Time>
            <Position>
              <LatitudeDegrees>43.364717178046703338623046875</LatitudeDegrees>
              <LongitudeDegrees>-2.826317064464092254638671875</LongitudeDegrees>
            </Position>
            <AltitudeMeters>56</AltitudeMeters>
            <DistanceMeters>NAN</DistanceMeters>
          </Trackpoint>
          <Trackpoint>
            <Time>2022-09-24T15:53:56.000Z</Time>
            <Position>
              <LatitudeDegrees>43.36472933180630207061767578125</LatitudeDegrees>
              <LongitudeDegrees>-2.82628613524138927459716796875</LongitudeDegrees>
            </Position>
            <AltitudeMeters>56.40000152587890625</AltitudeMeters>
            <DistanceMeters>NAN</DistanceMeters>
          </Trackpoint>
          <Trackpoint>
            <Time>2022-09-24T15:53:57.000Z</Time>
            <Position>
              <LatitudeDegrees>43.36474240757524967193603515625</LatitudeDegrees>
              <LongitudeDegrees>-2.8262495063245296478271484375</LongitudeDegrees>
            </Position>
            <AltitudeMeters>56.59999847412109375</AltitudeMeters>
            <DistanceMeters>NAN</DistanceMeters>
          </Trackpoint>
          <Trackpoint>
            <Time>2022-09-24T15:53:58.000Z</Time>
            <Position>
              <LatitudeDegrees>43.3647518791258335113525390625</LatitudeDegrees>
              <LongitudeDegrees>-2.82621405087411403656005859375</LongitudeDegrees>
            </Position>
            <AltitudeMeters>56.59999847412109375</AltitudeMeters>
            <DistanceMeters>NAN</DistanceMeters>
          </Trackpoint>
          <Trackpoint>
            <Time>2022-09-24T15:53:59.000Z</Time>
            <Position>
              <LatitudeDegrees>43.36476671509444713592529296875</LatitudeDegrees>
              <LongitudeDegrees>-2.82617096789181232452392578125</LongitudeDegrees>
            </Position>
            <AltitudeMeters>56.799999237060546875</AltitudeMeters>
            <DistanceMeters>NAN</DistanceMeters>
          </Trackpoint>
          <Trackpoint>
            <Time>2022-09-24T15:54:00.000Z</Time>
            <Position>
              <LatitudeDegrees>43.3647736720740795135498046875</LatitudeDegrees>
              <LongitudeDegrees>-2.82614347524940967559814453125</LongitudeDegrees>
            </Position>
            <AltitudeMeters>56.799999237060546875</AltitudeMeters>
            <DistanceMeters>NAN</DistanceMeters>
          </Trackpoint>
          <Trackpoint>
            <Time>2022-09-24T15:54:01.000Z</Time>
            <Position>
              <LatitudeDegrees>43.36478314362466335296630859375</LatitudeDegrees>
              <LongitudeDegrees>-2.8261003084480762481689453125</LongitudeDegrees>
            </Position>
            <AltitudeMeters>57</AltitudeMeters>
            <DistanceMeters>NAN</DistanceMeters>
          </Trackpoint>
          <Trackpoint>
            <Time>2022-09-24T15:54:02.000Z</Time>
            <Position>
              <LatitudeDegrees>43.364790268242359161376953125</LatitudeDegrees>
              <LongitudeDegrees>-2.826070301234722137451171875</LongitudeDegrees>
            </Position>
            <AltitudeMeters>57.200000762939453125</AltitudeMeters>
            <DistanceMeters>NAN</DistanceMeters>
          </Trackpoint>
          <Trackpoint>
            <Time>2022-09-24T15:54:03.000Z</Time>
            <Position>
              <LatitudeDegrees>43.36480292491614818572998046875</LatitudeDegrees>
              <LongitudeDegrees>-2.82603618688881397247314453125</LongitudeDegrees>
            </Position>
            <AltitudeMeters>57.40000152587890625</AltitudeMeters>
            <DistanceMeters>NAN</DistanceMeters>
          </Trackpoint>
          <Trackpoint>
            <Time>2022-09-24T15:54:04.000Z</Time>
            <Position>
              <LatitudeDegrees>43.36481650359928607940673828125</LatitudeDegrees>
              <LongitudeDegrees>-2.8259926848113536834716796875</LongitudeDegrees>
            </Position>
            <AltitudeMeters>58</AltitudeMeters>
            <DistanceMeters>NAN</DistanceMeters>
          </Trackpoint>
          <Trackpoint>
            <Time>2022-09-24T15:54:05.000Z</Time>
            <Position>
              <LatitudeDegrees>43.3648288249969482421875</LatitudeDegrees>
              <LongitudeDegrees>-2.82595572061836719512939453125</LongitudeDegrees>
            </Position>
            <AltitudeMeters>58</AltitudeMeters>
            <DistanceMeters>NAN</DistanceMeters>
          </Trackpoint>
          <Trackpoint>
            <Time>2022-09-24T15:54:06.000Z</Time>
            <Position>
              <LatitudeDegrees>43.36483997292816638946533203125</LatitudeDegrees>
              <LongitudeDegrees>-2.82592655159533023834228515625</LongitudeDegrees>
            </Position>
            <AltitudeMeters>58.40000152587890625</AltitudeMeters>
            <DistanceMeters>NAN</DistanceMeters>
          </Trackpoint>
          <Trackpoint>
            <Time>2022-09-24T15:54:07.000Z</Time>
            <Position>
              <LatitudeDegrees>43.36485355161130428314208984375</LatitudeDegrees>
              <LongitudeDegrees>-2.82588883303105831146240234375</LongitudeDegrees>
            </Position>
            <AltitudeMeters>58.59999847412109375</AltitudeMeters>
            <DistanceMeters>NAN</DistanceMeters>
          </Trackpoint>
          <Trackpoint>
            <Time>2022-09-24T15:54:08.000Z</Time>
            <Position>
              <LatitudeDegrees>43.3648712374269962310791015625</LatitudeDegrees>
              <LongitudeDegrees>-2.82584893517196178436279296875</LongitudeDegrees>
            </Position>
            <AltitudeMeters>58.59999847412109375</AltitudeMeters>
            <DistanceMeters>NAN</DistanceMeters>
          </Trackpoint>
          <Trackpoint>
            <Time>2022-09-24T15:54:09.000Z</Time>
            <Position>
              <LatitudeDegrees>43.364881463348865509033203125</LatitudeDegrees>
              <LongitudeDegrees>-2.82582395710051059722900390625</LongitudeDegrees>
            </Position>
            <AltitudeMeters>59</AltitudeMeters>
            <DistanceMeters>NAN</DistanceMeters>
          </Trackpoint>
          <Trackpoint>
            <Time>2022-09-24T15:54:10.000Z</Time>
            <Position>
              <LatitudeDegrees>43.3648940362036228179931640625</LatitudeDegrees>
              <LongitudeDegrees>-2.8257811255753040313720703125</LongitudeDegrees>
            </Position>
            <AltitudeMeters>59.200000762939453125</AltitudeMeters>
            <DistanceMeters>NAN</DistanceMeters>
          </Trackpoint>
          <Trackpoint>
            <Time>2022-09-24T15:54:11.000Z</Time>
            <Position>
              <LatitudeDegrees>43.36490250192582607269287109375</LatitudeDegrees>
              <LongitudeDegrees>-2.82575346529483795166015625</LongitudeDegrees>
            </Position>
            <AltitudeMeters>59.200000762939453125</AltitudeMeters>
            <DistanceMeters>NAN</DistanceMeters>
          </Trackpoint>
          <Trackpoint>
            <Time>2022-09-24T15:54:12.000Z</Time>
            <Position>
              <LatitudeDegrees>43.36491574533283710479736328125</LatitudeDegrees>
              <LongitudeDegrees>-2.82572069205343723297119140625</LongitudeDegrees>
            </Position>
            <AltitudeMeters>59.799999237060546875</AltitudeMeters>
            <DistanceMeters>NAN</DistanceMeters>
          </Trackpoint>
          <Trackpoint>
            <Time>2022-09-24T15:54:13.000Z</Time>
            <Position>
              <LatitudeDegrees>43.364929072558879852294921875</LatitudeDegrees>
              <LongitudeDegrees>-2.8256875835359096527099609375</LongitudeDegrees>
            </Position>
            <AltitudeMeters>59.799999237060546875</AltitudeMeters>
            <DistanceMeters>NAN</DistanceMeters>
          </Trackpoint>
          <Trackpoint>
            <Time>2022-09-24T15:54:14.000Z</Time>
            <Position>
              <LatitudeDegrees>43.36494022049009799957275390625</LatitudeDegrees>
              <LongitudeDegrees>-2.825653217732906341552734375</LongitudeDegrees>
            </Position>
            <AltitudeMeters>60.200000762939453125</AltitudeMeters>
            <DistanceMeters>NAN</DistanceMeters>
          </Trackpoint>
          <Trackpoint>
            <Time>2022-09-24T15:54:15.000Z</Time>
            <Position>
              <LatitudeDegrees>43.36494877003133296966552734375</LatitudeDegrees>
              <LongitudeDegrees>-2.825617678463459014892578125</LongitudeDegrees>
            </Position>
            <AltitudeMeters>60.59999847412109375</AltitudeMeters>
            <DistanceMeters>NAN</DistanceMeters>
          </Trackpoint>
          <Trackpoint>
            <Time>2022-09-24T15:54:16.000Z</Time>
            <Position>
              <LatitudeDegrees>43.364959247410297393798828125</LatitudeDegrees>
              <LongitudeDegrees>-2.82558389939367771148681640625</LongitudeDegrees>
            </Position>
            <AltitudeMeters>60.799999237060546875</AltitudeMeters>
            <DistanceMeters>NAN</DistanceMeters>
          </Trackpoint>
          <Trackpoint>
            <Time>2022-09-24T15:54:17.000Z</Time>
            <Position>
              <LatitudeDegrees>43.36497039534151554107666015625</LatitudeDegrees>
              <LongitudeDegrees>-2.825547270476818084716796875</LongitudeDegrees>
            </Position>
            <AltitudeMeters>61</AltitudeMeters>
            <DistanceMeters>NAN</DistanceMeters>
          </Trackpoint>
          <Trackpoint>
            <Time>2022-09-24T15:54:18.000Z</Time>
            <Position>
              <LatitudeDegrees>43.36497039534151554107666015625</LatitudeDegrees>
              <LongitudeDegrees>-2.825547270476818084716796875</LongitudeDegrees>
            </Position>
            <AltitudeMeters>61</AltitudeMeters>
            <DistanceMeters>NAN</DistanceMeters>
          </Trackpoint>
          <Trackpoint>
            <Time>2022-09-24T15:54:19.000Z</Time>
            <Position>
              <LatitudeDegrees>43.3649946190416812896728515625</LatitudeDegrees>
              <LongitudeDegrees>-2.8254756890237331390380859375</LongitudeDegrees>
            </Position>
            <AltitudeMeters>61.200000762939453125</AltitudeMeters>
            <DistanceMeters>NAN</DistanceMeters>
          </Trackpoint>
          <Trackpoint>
            <Time>2022-09-24T15:54:20.000Z</Time>
            <Position>
              <LatitudeDegrees>43.3649946190416812896728515625</LatitudeDegrees>
              <LongitudeDegrees>-2.8254756890237331390380859375</LongitudeDegrees>
            </Position>
            <AltitudeMeters>61.59999847412109375</AltitudeMeters>
            <DistanceMeters>NAN</DistanceMeters>
          </Trackpoint>
          <Trackpoint>
            <Time>2022-09-24T15:54:21.000Z</Time>
            <Position>
              <LatitudeDegrees>43.36501582525670528411865234375</LatitudeDegrees>
              <LongitudeDegrees>-2.82540754415094852447509765625</LongitudeDegrees>
            </Position>
            <AltitudeMeters>61.799999237060546875</AltitudeMeters>
            <DistanceMeters>NAN</DistanceMeters>
          </Trackpoint>
          <Trackpoint>
            <Time>2022-09-24T15:54:22.000Z</Time>
            <Position>
              <LatitudeDegrees>43.36502839811146259307861328125</LatitudeDegrees>
              <LongitudeDegrees>-2.82537317834794521331787109375</LongitudeDegrees>
            </Position>
            <AltitudeMeters>62</AltitudeMeters>
            <DistanceMeters>NAN</DistanceMeters>
          </Trackpoint>
          <Trackpoint>
            <Time>2022-09-24T15:54:23.000Z</Time>
            <Position>
              <LatitudeDegrees>43.3650402165949344635009765625</LatitudeDegrees>
              <LongitudeDegrees>-2.825339399278163909912109375</LongitudeDegrees>
            </Position>
            <AltitudeMeters>62.200000762939453125</AltitudeMeters>
            <DistanceMeters>NAN</DistanceMeters>
          </Trackpoint>
          <Trackpoint>
            <Time>2022-09-24T15:54:24.000Z</Time>
            <Position>
              <LatitudeDegrees>43.36504876613616943359375</LatitudeDegrees>
              <LongitudeDegrees>-2.8252995014190673828125</LongitudeDegrees>
            </Position>
            <AltitudeMeters>62.40000152587890625</AltitudeMeters>
            <DistanceMeters>NAN</DistanceMeters>
          </Trackpoint>
          <Trackpoint>
            <Time>2022-09-24T15:54:25.000Z</Time>
            <Position>
              <LatitudeDegrees>43.36505555547773838043212890625</LatitudeDegrees>
              <LongitudeDegrees>-2.82527276314795017242431640625</LongitudeDegrees>
            </Position>
            <AltitudeMeters>62.799999237060546875</AltitudeMeters>
            <DistanceMeters>NAN</DistanceMeters>
          </Trackpoint>
          <Trackpoint>
            <Time>2022-09-24T15:54:26.000Z</Time>
            <Position>
              <LatitudeDegrees>43.36505555547773838043212890625</LatitudeDegrees>
              <LongitudeDegrees>-2.82527276314795017242431640625</LongitudeDegrees>
            </Position>
            <AltitudeMeters>62.799999237060546875</AltitudeMeters>
            <DistanceMeters>NAN</DistanceMeters>
          </Trackpoint>
          <Trackpoint>
            <Time>2022-09-24T15:54:27.000Z</Time>
            <Position>
              <LatitudeDegrees>43.3650742471218109130859375</LatitudeDegrees>
              <LongitudeDegrees>-2.82520587556064128875732421875</LongitudeDegrees>
            </Position>
            <AltitudeMeters>63</AltitudeMeters>
            <DistanceMeters>NAN</DistanceMeters>
          </Trackpoint>
          <Trackpoint>
            <Time>2022-09-24T15:54:28.000Z</Time>
            <Position>
              <LatitudeDegrees>43.36508623324334621429443359375</LatitudeDegrees>
              <LongitudeDegrees>-2.82517234794795513153076171875</LongitudeDegrees>
            </Position>
            <AltitudeMeters>63.40000152587890625</AltitudeMeters>
            <DistanceMeters>NAN</DistanceMeters>
          </Trackpoint>
          <Trackpoint>
            <Time>2022-09-24T15:54:29.000Z</Time>
            <Position>
              <LatitudeDegrees>43.3651025779545307159423828125</LatitudeDegrees>
              <LongitudeDegrees>-2.82513253390789031982421875</LongitudeDegrees>
            </Position>
            <AltitudeMeters>63.59999847412109375</AltitudeMeters>
            <DistanceMeters>NAN</DistanceMeters>
          </Trackpoint>
          <Trackpoint>
            <Time>2022-09-24T15:54:30.000Z</Time>
            <Position>
              <LatitudeDegrees>43.36511380970478057861328125</LatitudeDegrees>
              <LongitudeDegrees>-2.82510302960872650146484375</LongitudeDegrees>
            </Position>
            <AltitudeMeters>63.799999237060546875</AltitudeMeters>
            <DistanceMeters>NAN</DistanceMeters>
          </Trackpoint>
          <Trackpoint>
            <Time>2022-09-24T15:54:31.000Z</Time>
            <Position>
              <LatitudeDegrees>43.365125544369220733642578125</LatitudeDegrees>
              <LongitudeDegrees>-2.825066484510898590087890625</LongitudeDegrees>
            </Position>
            <AltitudeMeters>63.799999237060546875</AltitudeMeters>
            <DistanceMeters>NAN</DistanceMeters>
          </Trackpoint>
          <Trackpoint>
            <Time>2022-09-24T15:54:32.000Z</Time>
            <Position>
              <LatitudeDegrees>43.365136943757534027099609375</LatitudeDegrees>
              <LongitudeDegrees>-2.82503019087016582489013671875</LongitudeDegrees>
            </Position>
            <AltitudeMeters>63.799999237060546875</AltitudeMeters>
            <DistanceMeters>NAN</DistanceMeters>
          </Trackpoint>
          <Trackpoint>
            <Time>2022-09-24T15:54:33.000Z</Time>
            <Position>
              <LatitudeDegrees>43.365149684250354766845703125</LatitudeDegrees>
              <LongitudeDegrees>-2.82499280758202075958251953125</LongitudeDegrees>
            </Position>
            <AltitudeMeters>64</AltitudeMeters>
            <DistanceMeters>NAN</DistanceMeters>
          </Trackpoint>
          <Trackpoint>
            <Time>2022-09-24T15:54:34.000Z</Time>
            <Position>
              <LatitudeDegrees>43.36516485549509525299072265625</LatitudeDegrees>
              <LongitudeDegrees>-2.824955172836780548095703125</LongitudeDegrees>
            </Position>
            <AltitudeMeters>64</AltitudeMeters>
            <DistanceMeters>NAN</DistanceMeters>
          </Trackpoint>
          <Trackpoint>
            <Time>2022-09-24T15:54:35.000Z</Time>
            <Position>
              <LatitudeDegrees>43.36517675779759883880615234375</LatitudeDegrees>
              <LongitudeDegrees>-2.824914269149303436279296875</LongitudeDegrees>
            </Position>
            <AltitudeMeters>64.40000152587890625</AltitudeMeters>
            <DistanceMeters>NAN</DistanceMeters>
          </Trackpoint>
          <Trackpoint>
            <Time>2022-09-24T15:54:36.000Z</Time>
            <Position>
              <LatitudeDegrees>43.36519335396587848663330078125</LatitudeDegrees>
              <LongitudeDegrees>-2.82487093470990657806396484375</LongitudeDegrees>
            </Position>
            <AltitudeMeters>64.40000152587890625</AltitudeMeters>
            <DistanceMeters>NAN</DistanceMeters>
          </Trackpoint>
          <Trackpoint>
            <Time>2022-09-24T15:54:37.000Z</Time>
            <Position>
              <LatitudeDegrees>43.36521162651479244232177734375</LatitudeDegrees>
              <LongitudeDegrees>-2.8248259238898754119873046875</LongitudeDegrees>
            </Position>
            <AltitudeMeters>64.40000152587890625</AltitudeMeters>
            <DistanceMeters>NAN</DistanceMeters>
          </Trackpoint>
          <Trackpoint>
            <Time>2022-09-24T15:54:38.000Z</Time>
            <Position>
              <LatitudeDegrees>43.3652353473007678985595703125</LatitudeDegrees>
              <LongitudeDegrees>-2.82477102242410182952880859375</LongitudeDegrees>
            </Position>
            <AltitudeMeters>64.40000152587890625</AltitudeMeters>
            <DistanceMeters>NAN</DistanceMeters>
          </Trackpoint>
          <Trackpoint>
            <Time>2022-09-24T15:54:39.000Z</Time>
            <Position>
              <LatitudeDegrees>43.3652566373348236083984375</LatitudeDegrees>
              <LongitudeDegrees>-2.82473447732627391815185546875</LongitudeDegrees>
            </Position>
            <AltitudeMeters>64.40000152587890625</AltitudeMeters>
            <DistanceMeters>NAN</DistanceMeters>
          </Trackpoint>
          <Trackpoint>
            <Time>2022-09-24T15:54:40.000Z</Time>
            <Position>
              <LatitudeDegrees>43.36528404615819454193115234375</LatitudeDegrees>
              <LongitudeDegrees>-2.82468485645949840545654296875</LongitudeDegrees>
            </Position>
            <AltitudeMeters>64.40000152587890625</AltitudeMeters>
            <DistanceMeters>NAN</DistanceMeters>
          </Trackpoint>
          <Trackpoint>
            <Time>2022-09-24T15:54:41.000Z</Time>
            <Position>
              <LatitudeDegrees>43.3653228543698787689208984375</LatitudeDegrees>
              <LongitudeDegrees>-2.82462618313729763031005859375</LongitudeDegrees>
            </Position>
            <AltitudeMeters>64.1999969482421875</AltitudeMeters>
            <DistanceMeters>NAN</DistanceMeters>
          </Trackpoint>
          <Trackpoint>
            <Time>2022-09-24T15:54:42.000Z</Time>
            <Position>
              <LatitudeDegrees>43.36535596288740634918212890625</LatitudeDegrees>
              <LongitudeDegrees>-2.82458745874464511871337890625</LongitudeDegrees>
            </Position>
            <AltitudeMeters>64.1999969482421875</AltitudeMeters>
            <DistanceMeters>NAN</DistanceMeters>
          </Trackpoint>
          <Trackpoint>
            <Time>2022-09-24T15:54:43.000Z</Time>
            <Position>
              <LatitudeDegrees>43.36539887823164463043212890625</LatitudeDegrees>
              <LongitudeDegrees>-2.82453708350658416748046875</LongitudeDegrees>
            </Position>
            <AltitudeMeters>64.1999969482421875</AltitudeMeters>
            <DistanceMeters>NAN</DistanceMeters>
          </Trackpoint>
          <Trackpoint>
            <Time>2022-09-24T15:54:44.000Z</Time>
            <Position>
              <LatitudeDegrees>43.3654443919658660888671875</LatitudeDegrees>
              <LongitudeDegrees>-2.82448302023112773895263671875</LongitudeDegrees>
            </Position>
            <AltitudeMeters>64.1999969482421875</AltitudeMeters>
            <DistanceMeters>NAN</DistanceMeters>
          </Trackpoint>
          <Trackpoint>
            <Time>2022-09-24T15:54:45.000Z</Time>
            <Position>
              <LatitudeDegrees>43.36549376137554645538330078125</LatitudeDegrees>
              <LongitudeDegrees>-2.824427783489227294921875</LongitudeDegrees>
            </Position>
            <AltitudeMeters>63.799999237060546875</AltitudeMeters>
            <DistanceMeters>NAN</DistanceMeters>
          </Trackpoint>
          <Trackpoint>
            <Time>2022-09-24T15:54:46.000Z</Time>
            <Position>
              <LatitudeDegrees>43.365547992289066314697265625</LatitudeDegrees>
              <LongitudeDegrees>-2.82437137328088283538818359375</LongitudeDegrees>
            </Position>
            <AltitudeMeters>62.799999237060546875</AltitudeMeters>
            <DistanceMeters>NAN</DistanceMeters>
          </Trackpoint>
          <Trackpoint>
            <Time>2022-09-24T15:54:47.000Z</Time>
            <Position>
              <LatitudeDegrees>43.36560440249741077423095703125</LatitudeDegrees>
              <LongitudeDegrees>-2.8243122808635234832763671875</LongitudeDegrees>
            </Position>
            <AltitudeMeters>62.200000762939453125</AltitudeMeters>
            <DistanceMeters>NAN</DistanceMeters>
          </Trackpoint>
          <Trackpoint>
            <Time>2022-09-24T15:54:48.000Z</Time>
            <Position>
              <LatitudeDegrees>43.36566592566668987274169921875</LatitudeDegrees>
              <LongitudeDegrees>-2.82425117678940296173095703125</LongitudeDegrees>
            </Position>
            <AltitudeMeters>60.40000152587890625</AltitudeMeters>
            <DistanceMeters>NAN</DistanceMeters>
          </Trackpoint>
          <Trackpoint>
            <Time>2022-09-24T15:54:49.000Z</Time>
            <Position>
              <LatitudeDegrees>43.36572845466434955596923828125</LatitudeDegrees>
              <LongitudeDegrees>-2.82418412156403064727783203125</LongitudeDegrees>
            </Position>
            <AltitudeMeters>60</AltitudeMeters>
            <DistanceMeters>NAN</DistanceMeters>
          </Trackpoint>
          <Trackpoint>
            <Time>2022-09-24T15:54:50.000Z</Time>
            <Position>
              <LatitudeDegrees>43.36579148657619953155517578125</LatitudeDegrees>
              <LongitudeDegrees>-2.82410969026386737823486328125</LongitudeDegrees>
            </Position>
            <AltitudeMeters>59.59999847412109375</AltitudeMeters>
            <DistanceMeters>NAN</DistanceMeters>
          </Trackpoint>
          <Trackpoint>
            <Time>2022-09-24T15:54:51.000Z</Time>
            <Position>
              <LatitudeDegrees>43.3658676780760288238525390625</LatitudeDegrees>
              <LongitudeDegrees>-2.82400868833065032958984375</LongitudeDegrees>
            </Position>
            <AltitudeMeters>59.59999847412109375</AltitudeMeters>
            <DistanceMeters>NAN</DistanceMeters>
          </Trackpoint>
          <Trackpoint>
            <Time>2022-09-24T15:54:52.000Z</Time>
            <Position>
              <LatitudeDegrees>43.365913443267345428466796875</LatitudeDegrees>
              <LongitudeDegrees>-2.8239287249743938446044921875</LongitudeDegrees>
            </Position>
            <AltitudeMeters>59.59999847412109375</AltitudeMeters>
            <DistanceMeters>NAN</DistanceMeters>
          </Trackpoint>
          <Trackpoint>
            <Time>2022-09-24T15:54:53.000Z</Time>
            <Position>
              <LatitudeDegrees>43.3659689314663410186767578125</LatitudeDegrees>
              <LongitudeDegrees>-2.8238202631473541259765625</LongitudeDegrees>
            </Position>
            <AltitudeMeters>58.799999237060546875</AltitudeMeters>
            <DistanceMeters>NAN</DistanceMeters>
          </Trackpoint>
          <Trackpoint>
            <Time>2022-09-24T15:54:54.000Z</Time>
            <Position>
              <LatitudeDegrees>43.366022072732448577880859375</LatitudeDegrees>
              <LongitudeDegrees>-2.82370693981647491455078125</LongitudeDegrees>
            </Position>
            <AltitudeMeters>58.200000762939453125</AltitudeMeters>
            <DistanceMeters>NAN</DistanceMeters>
          </Trackpoint>
          <Trackpoint>
            <Time>2022-09-24T15:54:55.000Z</Time>
            <Position>
              <LatitudeDegrees>43.36607848294079303741455078125</LatitudeDegrees>
              <LongitudeDegrees>-2.8235968016088008880615234375</LongitudeDegrees>
            </Position>
            <AltitudeMeters>57</AltitudeMeters>
            <DistanceMeters>NAN</DistanceMeters>
          </Trackpoint>
          <Trackpoint>
            <Time>2022-09-24T15:54:56.000Z</Time>
            <Position>
              <LatitudeDegrees>43.36613715626299381256103515625</LatitudeDegrees>
              <LongitudeDegrees>-2.8235009126365184783935546875</LongitudeDegrees>
            </Position>
            <AltitudeMeters>56</AltitudeMeters>
            <DistanceMeters>NAN</DistanceMeters>
          </Trackpoint>
          <Trackpoint>
            <Time>2022-09-24T15:54:57.000Z</Time>
            <Position>
              <LatitudeDegrees>43.36613715626299381256103515625</LatitudeDegrees>
              <LongitudeDegrees>-2.8235009126365184783935546875</LongitudeDegrees>
            </Position>
            <AltitudeMeters>55.40000152587890625</AltitudeMeters>
            <DistanceMeters>NAN</DistanceMeters>
          </Trackpoint>
          <Trackpoint>
            <Time>2022-09-24T15:54:58.000Z</Time>
            <Position>
              <LatitudeDegrees>43.366259448230266571044921875</LatitudeDegrees>
              <LongitudeDegrees>-2.8233543969690799713134765625</LongitudeDegrees>
            </Position>
            <AltitudeMeters>55.40000152587890625</AltitudeMeters>
            <DistanceMeters>NAN</DistanceMeters>
          </Trackpoint>
          <Trackpoint>
            <Time>2022-09-24T15:54:59.000Z</Time>
            <Position>
              <LatitudeDegrees>43.3663233183324337005615234375</LatitudeDegrees>
              <LongitudeDegrees>-2.82332338392734527587890625</LongitudeDegrees>
            </Position>
            <AltitudeMeters>55.40000152587890625</AltitudeMeters>
            <DistanceMeters>NAN</DistanceMeters>
          </Trackpoint>
          <Trackpoint>
            <Time>2022-09-24T15:55:00.000Z</Time>
            <Position>
              <LatitudeDegrees>43.366385512053966522216796875</LatitudeDegrees>
              <LongitudeDegrees>-2.82332045026123523712158203125</LongitudeDegrees>
            </Position>
            <AltitudeMeters>56</AltitudeMeters>
            <DistanceMeters>NAN</DistanceMeters>
          </Trackpoint>
          <Trackpoint>
            <Time>2022-09-24T15:55:01.000Z</Time>
            <Position>
              <LatitudeDegrees>43.36644125171005725860595703125</LatitudeDegrees>
              <LongitudeDegrees>-2.82332950271666049957275390625</LongitudeDegrees>
            </Position>
            <AltitudeMeters>56</AltitudeMeters>
            <DistanceMeters>NAN</DistanceMeters>
          </Trackpoint>
          <Trackpoint>
            <Time>2022-09-24T15:55:02.000Z</Time>
            <Position>
              <LatitudeDegrees>43.36648953147232532501220703125</LatitudeDegrees>
              <LongitudeDegrees>-2.82332631759345531463623046875</LongitudeDegrees>
            </Position>
            <AltitudeMeters>56.40000152587890625</AltitudeMeters>
            <DistanceMeters>NAN</DistanceMeters>
          </Trackpoint>
          <Trackpoint>
            <Time>2022-09-24T15:55:03.000Z</Time>
            <Position>
              <LatitudeDegrees>43.36653311736881732940673828125</LatitudeDegrees>
              <LongitudeDegrees>-2.82331139780580997467041015625</LongitudeDegrees>
            </Position>
            <AltitudeMeters>56.799999237060546875</AltitudeMeters>
            <DistanceMeters>NAN</DistanceMeters>
          </Trackpoint>
          <Trackpoint>
            <Time>2022-09-24T15:55:04.000Z</Time>
            <Position>
              <LatitudeDegrees>43.3665717579424381256103515625</LatitudeDegrees>
              <LongitudeDegrees>-2.82328558154404163360595703125</LongitudeDegrees>
            </Position>
            <AltitudeMeters>57.200000762939453125</AltitudeMeters>
            <DistanceMeters>NAN</DistanceMeters>
          </Trackpoint>
          <Trackpoint>
            <Time>2022-09-24T15:55:05.000Z</Time>
            <Position>
              <LatitudeDegrees>43.36660469882190227508544921875</LatitudeDegrees>
              <LongitudeDegrees>-2.82325674779713153839111328125</LongitudeDegrees>
            </Position>
            <AltitudeMeters>57.59999847412109375</AltitudeMeters>
            <DistanceMeters>NAN</DistanceMeters>
          </Trackpoint>
          <Trackpoint>
            <Time>2022-09-24T15:55:06.000Z</Time>
            <Position>
              <LatitudeDegrees>43.36663319729268550872802734375</LatitudeDegrees>
              <LongitudeDegrees>-2.8232219628989696502685546875</LongitudeDegrees>
            </Position>
            <AltitudeMeters>58</AltitudeMeters>
            <DistanceMeters>NAN</DistanceMeters>
          </Trackpoint>
          <Trackpoint>
            <Time>2022-09-24T15:55:07.000Z</Time>
            <Position>
              <LatitudeDegrees>43.36665867827832698822021484375</LatitudeDegrees>
              <LongitudeDegrees>-2.8231850825250148773193359375</LongitudeDegrees>
            </Position>
            <AltitudeMeters>58</AltitudeMeters>
            <DistanceMeters>NAN</DistanceMeters>
          </Trackpoint>
          <Trackpoint>
            <Time>2022-09-24T15:55:08.000Z</Time>
            <Position>
              <LatitudeDegrees>43.36668550036847591400146484375</LatitudeDegrees>
              <LongitudeDegrees>-2.82314845360815525054931640625</LongitudeDegrees>
            </Position>
            <AltitudeMeters>58.200000762939453125</AltitudeMeters>
            <DistanceMeters>NAN</DistanceMeters>
          </Trackpoint>
          <Trackpoint>
            <Time>2022-09-24T15:55:09.000Z</Time>
            <Position>
              <LatitudeDegrees>43.3667202852666378021240234375</LatitudeDegrees>
              <LongitudeDegrees>-2.82310537062585353851318359375</LongitudeDegrees>
            </Position>
            <AltitudeMeters>58.40000152587890625</AltitudeMeters>
            <DistanceMeters>NAN</DistanceMeters>
          </Trackpoint>
          <Trackpoint>
            <Time>2022-09-24T15:55:10.000Z</Time>
            <Position>
              <LatitudeDegrees>43.3667447604238986968994140625</LatitudeDegrees>
              <LongitudeDegrees>-2.82308139838278293609619140625</LongitudeDegrees>
            </Position>
            <AltitudeMeters>58.799999237060546875</AltitudeMeters>
            <DistanceMeters>NAN</DistanceMeters>
          </Trackpoint>
          <Trackpoint>
            <Time>2022-09-24T15:55:11.000Z</Time>
            <Position>
              <LatitudeDegrees>43.366773426532745361328125</LatitudeDegrees>
              <LongitudeDegrees>-2.82305222935974597930908203125</LongitudeDegrees>
            </Position>
            <AltitudeMeters>58.799999237060546875</AltitudeMeters>
            <DistanceMeters>NAN</DistanceMeters>
          </Trackpoint>
          <Trackpoint>
            <Time>2022-09-24T15:55:12.000Z</Time>
            <Position>
              <LatitudeDegrees>43.3668037690222263336181640625</LatitudeDegrees>
              <LongitudeDegrees>-2.8230224736034870147705078125</LongitudeDegrees>
            </Position>
            <AltitudeMeters>59.40000152587890625</AltitudeMeters>
            <DistanceMeters>NAN</DistanceMeters>
          </Trackpoint>
          <Trackpoint>
            <Time>2022-09-24T15:55:13.000Z</Time>
            <Position>
              <LatitudeDegrees>43.3668352849781513214111328125</LatitudeDegrees>
              <LongitudeDegrees>-2.82298852689564228057861328125</LongitudeDegrees>
            </Position>
            <AltitudeMeters>59.59999847412109375</AltitudeMeters>
            <DistanceMeters>NAN</DistanceMeters>
          </Trackpoint>
          <Trackpoint>
            <Time>2022-09-24T15:55:14.000Z</Time>
            <Position>
              <LatitudeDegrees>43.36686395108699798583984375</LatitudeDegrees>
              <LongitudeDegrees>-2.8229550831019878387451171875</LongitudeDegrees>
            </Position>
            <AltitudeMeters>59.799999237060546875</AltitudeMeters>
            <DistanceMeters>NAN</DistanceMeters>
          </Trackpoint>
          <Trackpoint>
            <Time>2022-09-24T15:55:15.000Z</Time>
            <Position>
              <LatitudeDegrees>43.36690309457480907440185546875</LatitudeDegrees>
              <LongitudeDegrees>-2.82291895709931850433349609375</LongitudeDegrees>
            </Position>
            <AltitudeMeters>59.799999237060546875</AltitudeMeters>
            <DistanceMeters>NAN</DistanceMeters>
          </Trackpoint>
          <Trackpoint>
            <Time>2022-09-24T15:55:16.000Z</Time>
            <Position>
              <LatitudeDegrees>43.36693360470235347747802734375</LatitudeDegrees>
              <LongitudeDegrees>-2.8228937275707721710205078125</LongitudeDegrees>
            </Position>
            <AltitudeMeters>60</AltitudeMeters>
            <DistanceMeters>NAN</DistanceMeters>
          </Trackpoint>
          <Trackpoint>
            <Time>2022-09-24T15:55:17.000Z</Time>
            <Position>
              <LatitudeDegrees>43.36696964688599109649658203125</LatitudeDegrees>
              <LongitudeDegrees>-2.8228598646819591522216796875</LongitudeDegrees>
            </Position>
            <AltitudeMeters>60</AltitudeMeters>
            <DistanceMeters>NAN</DistanceMeters>
          </Trackpoint>
          <Trackpoint>
            <Time>2022-09-24T15:55:18.000Z</Time>
            <Position>
              <LatitudeDegrees>43.36701608262956142425537109375</LatitudeDegrees>
              <LongitudeDegrees>-2.82281904481351375579833984375</LongitudeDegrees>
            </Position>
            <AltitudeMeters>60.200000762939453125</AltitudeMeters>
            <DistanceMeters>NAN</DistanceMeters>
          </Trackpoint>
          <Trackpoint>
            <Time>2022-09-24T15:55:19.000Z</Time>
            <Position>
              <LatitudeDegrees>43.3670515380799770355224609375</LatitudeDegrees>
              <LongitudeDegrees>-2.82279155217111110687255859375</LongitudeDegrees>
            </Position>
            <AltitudeMeters>60.200000762939453125</AltitudeMeters>
            <DistanceMeters>NAN</DistanceMeters>
          </Trackpoint>
          <Trackpoint>
            <Time>2022-09-24T15:55:20.000Z</Time>
            <Position>
              <LatitudeDegrees>43.36709587834775447845458984375</LatitudeDegrees>
              <LongitudeDegrees>-2.822755761444568634033203125</LongitudeDegrees>
            </Position>
            <AltitudeMeters>60.200000762939453125</AltitudeMeters>
            <DistanceMeters>NAN</DistanceMeters>
          </Trackpoint>
          <Trackpoint>
            <Time>2022-09-24T15:55:21.000Z</Time>
            <Position>
              <LatitudeDegrees>43.3671407215297222137451171875</LatitudeDegrees>
              <LongitudeDegrees>-2.82272064127027988433837890625</LongitudeDegrees>
            </Position>
            <AltitudeMeters>60.200000762939453125</AltitudeMeters>
            <DistanceMeters>NAN</DistanceMeters>
          </Trackpoint>
          <Trackpoint>
            <Time>2022-09-24T15:55:22.000Z</Time>
            <Position>
              <LatitudeDegrees>43.3671913482248783111572265625</LatitudeDegrees>
              <LongitudeDegrees>-2.8226861916482448577880859375</LongitudeDegrees>
            </Position>
            <AltitudeMeters>60.200000762939453125</AltitudeMeters>
            <DistanceMeters>NAN</DistanceMeters>
          </Trackpoint>
          <Trackpoint>
            <Time>2022-09-24T15:55:23.000Z</Time>
            <Position>
              <LatitudeDegrees>43.36724440567195415496826171875</LatitudeDegrees>
              <LongitudeDegrees>-2.8226508200168609619140625</LongitudeDegrees>
            </Position>
            <AltitudeMeters>59.799999237060546875</AltitudeMeters>
            <DistanceMeters>NAN</DistanceMeters>
          </Trackpoint>
          <Trackpoint>
            <Time>2022-09-24T15:55:24.000Z</Time>
            <Position>
              <LatitudeDegrees>43.36730291135609149932861328125</LatitudeDegrees>
              <LongitudeDegrees>-2.8226251713931560516357421875</LongitudeDegrees>
            </Position>
            <AltitudeMeters>59</AltitudeMeters>
            <DistanceMeters>NAN</DistanceMeters>
          </Trackpoint>
          <Trackpoint>
            <Time>2022-09-24T15:55:25.000Z</Time>
            <Position>
              <LatitudeDegrees>43.36730291135609149932861328125</LatitudeDegrees>
              <LongitudeDegrees>-2.8226251713931560516357421875</LongitudeDegrees>
            </Position>
            <AltitudeMeters>58.200000762939453125</AltitudeMeters>
            <DistanceMeters>NAN</DistanceMeters>
          </Trackpoint>
          <Trackpoint>
            <Time>2022-09-24T15:55:26.000Z</Time>
            <Position>
              <LatitudeDegrees>43.36742830462753772735595703125</LatitudeDegrees>
              <LongitudeDegrees>-2.822588793933391571044921875</LongitudeDegrees>
            </Position>
            <AltitudeMeters>58.200000762939453125</AltitudeMeters>
            <DistanceMeters>NAN</DistanceMeters>
          </Trackpoint>
          <Trackpoint>
            <Time>2022-09-24T15:55:27.000Z</Time>
            <Position>
              <LatitudeDegrees>43.3674935996532440185546875</LatitudeDegrees>
              <LongitudeDegrees>-2.82257529906928539276123046875</LongitudeDegrees>
            </Position>
            <AltitudeMeters>58.200000762939453125</AltitudeMeters>
            <DistanceMeters>NAN</DistanceMeters>
          </Trackpoint>
          <Trackpoint>
            <Time>2022-09-24T15:55:28.000Z</Time>
            <Position>
              <LatitudeDegrees>43.367561995983123779296875</LatitudeDegrees>
              <LongitudeDegrees>-2.82256565988063812255859375</LongitudeDegrees>
            </Position>
            <AltitudeMeters>58.200000762939453125</AltitudeMeters>
            <DistanceMeters>NAN</DistanceMeters>
          </Trackpoint>
          <Trackpoint>
            <Time>2022-09-24T15:55:29.000Z</Time>
            <Position>
              <LatitudeDegrees>43.36763047613203525543212890625</LatitudeDegrees>
              <LongitudeDegrees>-2.8225604631006717681884765625</LongitudeDegrees>
            </Position>
            <AltitudeMeters>58.200000762939453125</AltitudeMeters>
            <DistanceMeters>NAN</DistanceMeters>
          </Trackpoint>
          <Trackpoint>
            <Time>2022-09-24T15:55:30.000Z</Time>
            <Position>
              <LatitudeDegrees>43.36769971065223217010498046875</LatitudeDegrees>
              <LongitudeDegrees>-2.8225550986826419830322265625</LongitudeDegrees>
            </Position>
            <AltitudeMeters>58.200000762939453125</AltitudeMeters>
            <DistanceMeters>NAN</DistanceMeters>
          </Trackpoint>
          <Trackpoint>
            <Time>2022-09-24T15:55:31.000Z</Time>
            <Position>
              <LatitudeDegrees>43.36776928044855594635009765625</LatitudeDegrees>
              <LongitudeDegrees>-2.82255233265459537506103515625</LongitudeDegrees>
            </Position>
            <AltitudeMeters>58.200000762939453125</AltitudeMeters>
            <DistanceMeters>NAN</DistanceMeters>
          </Trackpoint>
          <Trackpoint>
            <Time>2022-09-24T15:55:32.000Z</Time>
            <Position>
              <LatitudeDegrees>43.36783834733068943023681640625</LatitudeDegrees>
              <LongitudeDegrees>-2.82254981808364391326904296875</LongitudeDegrees>
            </Position>
            <AltitudeMeters>58.200000762939453125</AltitudeMeters>
            <DistanceMeters>NAN</DistanceMeters>
          </Trackpoint>
          <Trackpoint>
            <Time>2022-09-24T15:55:33.000Z</Time>
            <Position>
              <LatitudeDegrees>43.36783834733068943023681640625</LatitudeDegrees>
              <LongitudeDegrees>-2.82254981808364391326904296875</LongitudeDegrees>
            </Position>
            <AltitudeMeters>58.200000762939453125</AltitudeMeters>
            <DistanceMeters>NAN</DistanceMeters>
          </Trackpoint>
          <Trackpoint>
            <Time>2022-09-24T15:55:34.000Z</Time>
            <Position>
              <LatitudeDegrees>43.367980755865573883056640625</LatitudeDegrees>
              <LongitudeDegrees>-2.82256188802421092987060546875</LongitudeDegrees>
            </Position>
            <AltitudeMeters>58</AltitudeMeters>
            <DistanceMeters>NAN</DistanceMeters>
          </Trackpoint>
          <Trackpoint>
            <Time>2022-09-24T15:55:35.000Z</Time>
            <Position>
              <LatitudeDegrees>43.36805024184286594390869140625</LatitudeDegrees>
              <LongitudeDegrees>-2.8225929848849773406982421875</LongitudeDegrees>
            </Position>
            <AltitudeMeters>57.799999237060546875</AltitudeMeters>
            <DistanceMeters>NAN</DistanceMeters>
          </Trackpoint>
          <Trackpoint>
            <Time>2022-09-24T15:55:36.000Z</Time>
            <Position>
              <LatitudeDegrees>43.36805024184286594390869140625</LatitudeDegrees>
              <LongitudeDegrees>-2.8225929848849773406982421875</LongitudeDegrees>
            </Position>
            <AltitudeMeters>58</AltitudeMeters>
            <DistanceMeters>NAN</DistanceMeters>
          </Trackpoint>
          <Trackpoint>
            <Time>2022-09-24T15:55:37.000Z</Time>
            <Position>
              <LatitudeDegrees>43.368171863257884979248046875</LatitudeDegrees>
              <LongitudeDegrees>-2.822725586593151092529296875</LongitudeDegrees>
            </Position>
            <AltitudeMeters>58</AltitudeMeters>
            <DistanceMeters>NAN</DistanceMeters>
          </Trackpoint>
          <Trackpoint>
            <Time>2022-09-24T15:55:38.000Z</Time>
            <Position>
              <LatitudeDegrees>43.36821771226823329925537109375</LatitudeDegrees>
              <LongitudeDegrees>-2.82282558269798755645751953125</LongitudeDegrees>
            </Position>
            <AltitudeMeters>57.40000152587890625</AltitudeMeters>
            <DistanceMeters>NAN</DistanceMeters>
          </Trackpoint>
          <Trackpoint>
            <Time>2022-09-24T15:55:39.000Z</Time>
            <Position>
              <LatitudeDegrees>43.36825643666088581085205078125</LatitudeDegrees>
              <LongitudeDegrees>-2.8229312784969806671142578125</LongitudeDegrees>
            </Position>
            <AltitudeMeters>57</AltitudeMeters>
            <DistanceMeters>NAN</DistanceMeters>
          </Trackpoint>
          <Trackpoint>
            <Time>2022-09-24T15:55:40.000Z</Time>
            <Position>
              <LatitudeDegrees>43.368290551006793975830078125</LatitudeDegrees>
              <LongitudeDegrees>-2.8230442665517330169677734375</LongitudeDegrees>
            </Position>
            <AltitudeMeters>55</AltitudeMeters>
            <DistanceMeters>NAN</DistanceMeters>
          </Trackpoint>
          <Trackpoint>
            <Time>2022-09-24T15:55:41.000Z</Time>
            <Position>
              <LatitudeDegrees>43.3683282695710659027099609375</LatitudeDegrees>
              <LongitudeDegrees>-2.82315784133970737457275390625</LongitudeDegrees>
            </Position>
            <AltitudeMeters>54.200000762939453125</AltitudeMeters>
            <DistanceMeters>NAN</DistanceMeters>
          </Trackpoint>
          <Trackpoint>
            <Time>2022-09-24T15:55:42.000Z</Time>
            <Position>
              <LatitudeDegrees>43.36836774833500385284423828125</LatitudeDegrees>
              <LongitudeDegrees>-2.8232672251760959625244140625</LongitudeDegrees>
            </Position>
            <AltitudeMeters>54.200000762939453125</AltitudeMeters>
            <DistanceMeters>NAN</DistanceMeters>
          </Trackpoint>
          <Trackpoint>
            <Time>2022-09-24T15:55:43.000Z</Time>
            <Position>
              <LatitudeDegrees>43.36839742027223110198974609375</LatitudeDegrees>
              <LongitudeDegrees>-2.82336520962417125701904296875</LongitudeDegrees>
            </Position>
            <AltitudeMeters>53</AltitudeMeters>
            <DistanceMeters>NAN</DistanceMeters>
          </Trackpoint>
          <Trackpoint>
            <Time>2022-09-24T15:55:44.000Z</Time>
            <Position>
              <LatitudeDegrees>43.36842122487723827362060546875</LatitudeDegrees>
              <LongitudeDegrees>-2.82345003448426723480224609375</LongitudeDegrees>
            </Position>
            <AltitudeMeters>53</AltitudeMeters>
            <DistanceMeters>NAN</DistanceMeters>
          </Trackpoint>
          <Trackpoint>
            <Time>2022-09-24T15:55:45.000Z</Time>
            <Position>
              <LatitudeDegrees>43.36844368837773799896240234375</LatitudeDegrees>
              <LongitudeDegrees>-2.82351641915738582611083984375</LongitudeDegrees>
            </Position>
            <AltitudeMeters>53</AltitudeMeters>
            <DistanceMeters>NAN</DistanceMeters>
          </Trackpoint>
          <Trackpoint>
            <Time>2022-09-24T15:55:46.000Z</Time>
            <Position>
              <LatitudeDegrees>43.36845844052731990814208984375</LatitudeDegrees>
              <LongitudeDegrees>-2.82356201671063899993896484375</LongitudeDegrees>
            </Position>
            <AltitudeMeters>52.799999237060546875</AltitudeMeters>
            <DistanceMeters>NAN</DistanceMeters>
          </Trackpoint>
          <Trackpoint>
            <Time>2022-09-24T15:55:47.000Z</Time>
            <Position>
              <LatitudeDegrees>43.36846363730728626251220703125</LatitudeDegrees>
              <LongitudeDegrees>-2.82358917407691478729248046875</LongitudeDegrees>
            </Position>
            <AltitudeMeters>52.200000762939453125</AltitudeMeters>
            <DistanceMeters>NAN</DistanceMeters>
          </Trackpoint>
          <Trackpoint>
            <Time>2022-09-24T15:55:48.000Z</Time>
            <Position>
              <LatitudeDegrees>43.36847059428691864013671875</LatitudeDegrees>
              <LongitudeDegrees>-2.82359889708459377288818359375</LongitudeDegrees>
            </Position>
            <AltitudeMeters>51.799999237060546875</AltitudeMeters>
            <DistanceMeters>NAN</DistanceMeters>
          </Trackpoint>
          <Trackpoint>
            <Time>2022-09-24T15:55:49.000Z</Time>
            <Position>
              <LatitudeDegrees>43.368478305637836456298828125</LatitudeDegrees>
              <LongitudeDegrees>-2.82360325567424297332763671875</LongitudeDegrees>
            </Position>
            <AltitudeMeters>51.799999237060546875</AltitudeMeters>
            <DistanceMeters>NAN</DistanceMeters>
          </Trackpoint>
          <Trackpoint>
            <Time>2022-09-24T15:55:50.000Z</Time>
            <Position>
              <LatitudeDegrees>43.3684814907610416412353515625</LatitudeDegrees>
              <LongitudeDegrees>-2.823609374463558197021484375</LongitudeDegrees>
            </Position>
            <AltitudeMeters>51.40000152587890625</AltitudeMeters>
            <DistanceMeters>NAN</DistanceMeters>
          </Trackpoint>
          <Trackpoint>
            <Time>2022-09-24T15:55:51.000Z</Time>
            <Position>
              <LatitudeDegrees>43.36848308332264423370361328125</LatitudeDegrees>
              <LongitudeDegrees>-2.82361306250095367431640625</LongitudeDegrees>
            </Position>
            <AltitudeMeters>51.40000152587890625</AltitudeMeters>
            <DistanceMeters>NAN</DistanceMeters>
          </Trackpoint>
          <Trackpoint>
            <Time>2022-09-24T15:55:52.000Z</Time>
            <Position>
              <LatitudeDegrees>43.3684821613132953643798828125</LatitudeDegrees>
              <LongitudeDegrees>-2.82360644079744815826416015625</LongitudeDegrees>
            </Position>
            <AltitudeMeters>51.40000152587890625</AltitudeMeters>
            <DistanceMeters>NAN</DistanceMeters>
          </Trackpoint>
          <Trackpoint>
            <Time>2022-09-24T15:55:53.000Z</Time>
            <Position>
              <LatitudeDegrees>43.3684798143804073333740234375</LatitudeDegrees>
              <LongitudeDegrees>-2.823598645627498626708984375</LongitudeDegrees>
            </Position>
            <AltitudeMeters>51.40000152587890625</AltitudeMeters>
            <DistanceMeters>NAN</DistanceMeters>
          </Trackpoint>
          <Trackpoint>
            <Time>2022-09-24T15:55:54.000Z</Time>
            <Position>
              <LatitudeDegrees>43.3684798143804073333740234375</LatitudeDegrees>
              <LongitudeDegrees>-2.823598645627498626708984375</LongitudeDegrees>
            </Position>
            <AltitudeMeters>51.200000762939453125</AltitudeMeters>
            <DistanceMeters>NAN</DistanceMeters>
          </Trackpoint>
          <Trackpoint>
            <Time>2022-09-24T15:55:55.000Z</Time>
            <Position>
              <LatitudeDegrees>43.3684798143804073333740234375</LatitudeDegrees>
              <LongitudeDegrees>-2.823598645627498626708984375</LongitudeDegrees>
            </Position>
            <AltitudeMeters>51</AltitudeMeters>
            <DistanceMeters>NAN</DistanceMeters>
          </Trackpoint>
          <Trackpoint>
            <Time>2022-09-24T15:55:56.000Z</Time>
            <Position>
              <LatitudeDegrees>43.3684798143804073333740234375</LatitudeDegrees>
              <LongitudeDegrees>-2.823598645627498626708984375</LongitudeDegrees>
            </Position>
            <AltitudeMeters>51</AltitudeMeters>
            <DistanceMeters>NAN</DistanceMeters>
          </Trackpoint>
          <Trackpoint>
            <Time>2022-09-24T15:55:57.000Z</Time>
            <Position>
              <LatitudeDegrees>43.3684798143804073333740234375</LatitudeDegrees>
              <LongitudeDegrees>-2.823598645627498626708984375</LongitudeDegrees>
            </Position>
            <AltitudeMeters>51</AltitudeMeters>
            <DistanceMeters>NAN</DistanceMeters>
          </Trackpoint>
          <Trackpoint>
            <Time>2022-09-24T15:55:58.000Z</Time>
            <Position>
              <LatitudeDegrees>43.3684798143804073333740234375</LatitudeDegrees>
              <LongitudeDegrees>-2.823598645627498626708984375</LongitudeDegrees>
            </Position>
            <AltitudeMeters>51</AltitudeMeters>
            <DistanceMeters>NAN</DistanceMeters>
          </Trackpoint>
          <Trackpoint>
            <Time>2022-09-24T15:55:59.000Z</Time>
            <Position>
              <LatitudeDegrees>43.3684798143804073333740234375</LatitudeDegrees>
              <LongitudeDegrees>-2.823598645627498626708984375</LongitudeDegrees>
            </Position>
            <AltitudeMeters>51</AltitudeMeters>
            <DistanceMeters>NAN</DistanceMeters>
          </Trackpoint>
          <Trackpoint>
            <Time>2022-09-24T15:56:00.000Z</Time>
            <Position>
              <LatitudeDegrees>43.3684798143804073333740234375</LatitudeDegrees>
              <LongitudeDegrees>-2.823598645627498626708984375</LongitudeDegrees>
            </Position>
            <AltitudeMeters>51</AltitudeMeters>
            <DistanceMeters>NAN</DistanceMeters>
          </Trackpoint>
          <Trackpoint>
            <Time>2022-09-24T15:56:01.000Z</Time>
            <Position>
              <LatitudeDegrees>43.3684798143804073333740234375</LatitudeDegrees>
              <LongitudeDegrees>-2.823598645627498626708984375</LongitudeDegrees>
            </Position>
            <AltitudeMeters>51</AltitudeMeters>
            <DistanceMeters>NAN</DistanceMeters>
          </Trackpoint>
          <Trackpoint>
            <Time>2022-09-24T15:56:02.000Z</Time>
            <Position>
              <LatitudeDegrees>43.3684798143804073333740234375</LatitudeDegrees>
              <LongitudeDegrees>-2.823598645627498626708984375</LongitudeDegrees>
            </Position>
            <AltitudeMeters>51</AltitudeMeters>
            <DistanceMeters>NAN</DistanceMeters>
          </Trackpoint>
          <Trackpoint>
            <Time>2022-09-24T15:56:03.000Z</Time>
            <Position>
              <LatitudeDegrees>43.3684791438281536102294921875</LatitudeDegrees>
              <LongitudeDegrees>-2.8235994838178157806396484375</LongitudeDegrees>
            </Position>
            <AltitudeMeters>51</AltitudeMeters>
            <DistanceMeters>NAN</DistanceMeters>
          </Trackpoint>
          <Trackpoint>
            <Time>2022-09-24T15:56:04.000Z</Time>
            <Position>
              <LatitudeDegrees>43.368477635085582733154296875</LatitudeDegrees>
              <LongitudeDegrees>-2.8236045129597187042236328125</LongitudeDegrees>
            </Position>
            <AltitudeMeters>51</AltitudeMeters>
            <DistanceMeters>NAN</DistanceMeters>
          </Trackpoint>
          <Trackpoint>
            <Time>2022-09-24T15:56:05.000Z</Time>
            <Position>
              <LatitudeDegrees>43.368477635085582733154296875</LatitudeDegrees>
              <LongitudeDegrees>-2.8236045129597187042236328125</LongitudeDegrees>
            </Position>
            <AltitudeMeters>51</AltitudeMeters>
            <DistanceMeters>NAN</DistanceMeters>
          </Trackpoint>
          <Trackpoint>
            <Time>2022-09-24T15:56:06.000Z</Time>
            <Position>
              <LatitudeDegrees>43.368477635085582733154296875</LatitudeDegrees>
              <LongitudeDegrees>-2.8236045129597187042236328125</LongitudeDegrees>
            </Position>
            <AltitudeMeters>51.200000762939453125</AltitudeMeters>
            <DistanceMeters>NAN</DistanceMeters>
          </Trackpoint>
          <Trackpoint>
            <Time>2022-09-24T15:56:07.000Z</Time>
            <Position>
              <LatitudeDegrees>43.368477635085582733154296875</LatitudeDegrees>
              <LongitudeDegrees>-2.8236045129597187042236328125</LongitudeDegrees>
            </Position>
            <AltitudeMeters>51.200000762939453125</AltitudeMeters>
            <DistanceMeters>NAN</DistanceMeters>
          </Trackpoint>
          <Trackpoint>
            <Time>2022-09-24T15:56:08.000Z</Time>
            <Position>
              <LatitudeDegrees>43.368477635085582733154296875</LatitudeDegrees>
              <LongitudeDegrees>-2.8236045129597187042236328125</LongitudeDegrees>
            </Position>
            <AltitudeMeters>51.200000762939453125</AltitudeMeters>
            <DistanceMeters>NAN</DistanceMeters>
          </Trackpoint>
          <Trackpoint>
            <Time>2022-09-24T15:56:09.000Z</Time>
            <Position>
              <LatitudeDegrees>43.3684771321713924407958984375</LatitudeDegrees>
              <LongitudeDegrees>-2.8236085362732410430908203125</LongitudeDegrees>
            </Position>
            <AltitudeMeters>51.200000762939453125</AltitudeMeters>
            <DistanceMeters>NAN</DistanceMeters>
          </Trackpoint>
          <Trackpoint>
            <Time>2022-09-24T15:56:10.000Z</Time>
            <Position>
              <LatitudeDegrees>43.36848107166588306427001953125</LatitudeDegrees>
              <LongitudeDegrees>-2.8236370347440242767333984375</LongitudeDegrees>
            </Position>
            <AltitudeMeters>51.200000762939453125</AltitudeMeters>
            <DistanceMeters>NAN</DistanceMeters>
          </Trackpoint>
          <Trackpoint>
            <Time>2022-09-24T15:56:11.000Z</Time>
            <Position>
              <LatitudeDegrees>43.36848995648324489593505859375</LatitudeDegrees>
              <LongitudeDegrees>-2.82367282547056674957275390625</LongitudeDegrees>
            </Position>
            <AltitudeMeters>51.200000762939453125</AltitudeMeters>
            <DistanceMeters>NAN</DistanceMeters>
          </Trackpoint>
          <Trackpoint>
            <Time>2022-09-24T15:56:12.000Z</Time>
            <Position>
              <LatitudeDegrees>43.36850252933800220489501953125</LatitudeDegrees>
              <LongitudeDegrees>-2.82371657900512218475341796875</LongitudeDegrees>
            </Position>
            <AltitudeMeters>51.200000762939453125</AltitudeMeters>
            <DistanceMeters>NAN</DistanceMeters>
          </Trackpoint>
          <Trackpoint>
            <Time>2022-09-24T15:56:13.000Z</Time>
            <Position>
              <LatitudeDegrees>43.36851644329726696014404296875</LatitudeDegrees>
              <LongitudeDegrees>-2.8237639367580413818359375</LongitudeDegrees>
            </Position>
            <AltitudeMeters>51</AltitudeMeters>
            <DistanceMeters>NAN</DistanceMeters>
          </Trackpoint>
          <Trackpoint>
            <Time>2022-09-24T15:56:14.000Z</Time>
            <Position>
              <LatitudeDegrees>43.3685347996652126312255859375</LatitudeDegrees>
              <LongitudeDegrees>-2.8238331712782382965087890625</LongitudeDegrees>
            </Position>
            <AltitudeMeters>51</AltitudeMeters>
            <DistanceMeters>NAN</DistanceMeters>
          </Trackpoint>
          <Trackpoint>
            <Time>2022-09-24T15:56:15.000Z</Time>
            <Position>
              <LatitudeDegrees>43.3685347996652126312255859375</LatitudeDegrees>
              <LongitudeDegrees>-2.8238331712782382965087890625</LongitudeDegrees>
            </Position>
            <AltitudeMeters>51</AltitudeMeters>
            <DistanceMeters>NAN</DistanceMeters>
          </Trackpoint>
          <Trackpoint>
            <Time>2022-09-24T15:56:16.000Z</Time>
            <Position>
              <LatitudeDegrees>43.36857142858207225799560546875</LatitudeDegrees>
              <LongitudeDegrees>-2.823954038321971893310546875</LongitudeDegrees>
            </Position>
            <AltitudeMeters>51</AltitudeMeters>
            <DistanceMeters>NAN</DistanceMeters>
          </Trackpoint>
          <Trackpoint>
            <Time>2022-09-24T15:56:17.000Z</Time>
            <Position>
              <LatitudeDegrees>43.368596993386745452880859375</LatitudeDegrees>
              <LongitudeDegrees>-2.82402285374701023101806640625</LongitudeDegrees>
            </Position>
            <AltitudeMeters>50.799999237060546875</AltitudeMeters>
            <DistanceMeters>NAN</DistanceMeters>
          </Trackpoint>
          <Trackpoint>
            <Time>2022-09-24T15:56:18.000Z</Time>
            <Position>
              <LatitudeDegrees>43.368596993386745452880859375</LatitudeDegrees>
              <LongitudeDegrees>-2.82402285374701023101806640625</LongitudeDegrees>
            </Position>
            <AltitudeMeters>50.59999847412109375</AltitudeMeters>
            <DistanceMeters>NAN</DistanceMeters>
          </Trackpoint>
          <Trackpoint>
            <Time>2022-09-24T15:56:19.000Z</Time>
            <Position>
              <LatitudeDegrees>43.36864954791963100433349609375</LatitudeDegrees>
              <LongitudeDegrees>-2.8241922520101070404052734375</LongitudeDegrees>
            </Position>
            <AltitudeMeters>50.40000152587890625</AltitudeMeters>
            <DistanceMeters>NAN</DistanceMeters>
          </Trackpoint>
          <Trackpoint>
            <Time>2022-09-24T15:56:20.000Z</Time>
            <Position>
              <LatitudeDegrees>43.36868475191295146942138671875</LatitudeDegrees>
              <LongitudeDegrees>-2.82430130057036876678466796875</LongitudeDegrees>
            </Position>
            <AltitudeMeters>50.40000152587890625</AltitudeMeters>
            <DistanceMeters>NAN</DistanceMeters>
          </Trackpoint>
          <Trackpoint>
            <Time>2022-09-24T15:56:21.000Z</Time>
            <Position>
              <LatitudeDegrees>43.36871576495468616485595703125</LatitudeDegrees>
              <LongitudeDegrees>-2.82439987175166606903076171875</LongitudeDegrees>
            </Position>
            <AltitudeMeters>49.59999847412109375</AltitudeMeters>
            <DistanceMeters>NAN</DistanceMeters>
          </Trackpoint>
          <Trackpoint>
            <Time>2022-09-24T15:56:22.000Z</Time>
            <Position>
              <LatitudeDegrees>43.3687393181025981903076171875</LatitudeDegrees>
              <LongitudeDegrees>-2.8244815953075885772705078125</LongitudeDegrees>
            </Position>
            <AltitudeMeters>49.59999847412109375</AltitudeMeters>
            <DistanceMeters>NAN</DistanceMeters>
          </Trackpoint>
          <Trackpoint>
            <Time>2022-09-24T15:56:23.000Z</Time>
            <Position>
              <LatitudeDegrees>43.3687708340585231781005859375</LatitudeDegrees>
              <LongitudeDegrees>-2.82458846457302570343017578125</LongitudeDegrees>
            </Position>
            <AltitudeMeters>49.200000762939453125</AltitudeMeters>
            <DistanceMeters>NAN</DistanceMeters>
          </Trackpoint>
          <Trackpoint>
            <Time>2022-09-24T15:56:24.000Z</Time>
            <Position>
              <LatitudeDegrees>43.36880159564316272735595703125</LatitudeDegrees>
              <LongitudeDegrees>-2.8246988542377948760986328125</LongitudeDegrees>
            </Position>
            <AltitudeMeters>48.799999237060546875</AltitudeMeters>
            <DistanceMeters>NAN</DistanceMeters>
          </Trackpoint>
          <Trackpoint>
            <Time>2022-09-24T15:56:25.000Z</Time>
            <Position>
              <LatitudeDegrees>43.36882908828556537628173828125</LatitudeDegrees>
              <LongitudeDegrees>-2.824809662997722625732421875</LongitudeDegrees>
            </Position>
            <AltitudeMeters>48.799999237060546875</AltitudeMeters>
            <DistanceMeters>NAN</DistanceMeters>
          </Trackpoint>
          <Trackpoint>
            <Time>2022-09-24T15:56:26.000Z</Time>
            <Position>
              <LatitudeDegrees>43.36885909549891948699951171875</LatitudeDegrees>
              <LongitudeDegrees>-2.8249231539666652679443359375</LongitudeDegrees>
            </Position>
            <AltitudeMeters>47.799999237060546875</AltitudeMeters>
            <DistanceMeters>NAN</DistanceMeters>
          </Trackpoint>
          <Trackpoint>
            <Time>2022-09-24T15:56:27.000Z</Time>
            <Position>
              <LatitudeDegrees>43.36889438331127166748046875</LatitudeDegrees>
              <LongitudeDegrees>-2.825040332973003387451171875</LongitudeDegrees>
            </Position>
            <AltitudeMeters>47.40000152587890625</AltitudeMeters>
            <DistanceMeters>NAN</DistanceMeters>
          </Trackpoint>
          <Trackpoint>
            <Time>2022-09-24T15:56:28.000Z</Time>
            <Position>
              <LatitudeDegrees>43.3689421601593494415283203125</LatitudeDegrees>
              <LongitudeDegrees>-2.8251846693456172943115234375</LongitudeDegrees>
            </Position>
            <AltitudeMeters>47.200000762939453125</AltitudeMeters>
            <DistanceMeters>NAN</DistanceMeters>
          </Trackpoint>
          <Trackpoint>
            <Time>2022-09-24T15:56:29.000Z</Time>
            <Position>
              <LatitudeDegrees>43.36898113600909709930419921875</LatitudeDegrees>
              <LongitudeDegrees>-2.82527879811823368072509765625</LongitudeDegrees>
            </Position>
            <AltitudeMeters>47.200000762939453125</AltitudeMeters>
            <DistanceMeters>NAN</DistanceMeters>
          </Trackpoint>
          <Trackpoint>
            <Time>2022-09-24T15:56:30.000Z</Time>
            <Position>
              <LatitudeDegrees>43.3690345287322998046875</LatitudeDegrees>
              <LongitudeDegrees>-2.82539312727749347686767578125</LongitudeDegrees>
            </Position>
            <AltitudeMeters>46.799999237060546875</AltitudeMeters>
            <DistanceMeters>NAN</DistanceMeters>
          </Trackpoint>
          <Trackpoint>
            <Time>2022-09-24T15:56:31.000Z</Time>
            <Position>
              <LatitudeDegrees>43.36908943019807338714599609375</LatitudeDegrees>
              <LongitudeDegrees>-2.82550795935094356536865234375</LongitudeDegrees>
            </Position>
            <AltitudeMeters>46.200000762939453125</AltitudeMeters>
            <DistanceMeters>NAN</DistanceMeters>
          </Trackpoint>
          <Trackpoint>
            <Time>2022-09-24T15:56:32.000Z</Time>
            <Position>
              <LatitudeDegrees>43.36914910934865474700927734375</LatitudeDegrees>
              <LongitudeDegrees>-2.82562203705310821533203125</LongitudeDegrees>
            </Position>
            <AltitudeMeters>45.799999237060546875</AltitudeMeters>
            <DistanceMeters>NAN</DistanceMeters>
          </Trackpoint>
          <Trackpoint>
            <Time>2022-09-24T15:56:33.000Z</Time>
            <Position>
              <LatitudeDegrees>43.36922789923846721649169921875</LatitudeDegrees>
              <LongitudeDegrees>-2.82575153745710849761962890625</LongitudeDegrees>
            </Position>
            <AltitudeMeters>45.799999237060546875</AltitudeMeters>
            <DistanceMeters>NAN</DistanceMeters>
          </Trackpoint>
          <Trackpoint>
            <Time>2022-09-24T15:56:34.000Z</Time>
            <Position>
              <LatitudeDegrees>43.369301743805408477783203125</LatitudeDegrees>
              <LongitudeDegrees>-2.8258555568754673004150390625</LongitudeDegrees>
            </Position>
            <AltitudeMeters>44.799999237060546875</AltitudeMeters>
            <DistanceMeters>NAN</DistanceMeters>
          </Trackpoint>
          <Trackpoint>
            <Time>2022-09-24T15:56:35.000Z</Time>
            <Position>
              <LatitudeDegrees>43.3693615905940532684326171875</LatitudeDegrees>
              <LongitudeDegrees>-2.82593308947980403900146484375</LongitudeDegrees>
            </Position>
            <AltitudeMeters>44.200000762939453125</AltitudeMeters>
            <DistanceMeters>NAN</DistanceMeters>
          </Trackpoint>
          <Trackpoint>
            <Time>2022-09-24T15:56:36.000Z</Time>
            <Position>
              <LatitudeDegrees>43.3694382011890411376953125</LatitudeDegrees>
              <LongitudeDegrees>-2.82602981664240360260009765625</LongitudeDegrees>
            </Position>
            <AltitudeMeters>44</AltitudeMeters>
            <DistanceMeters>NAN</DistanceMeters>
          </Trackpoint>
          <Trackpoint>
            <Time>2022-09-24T15:56:37.000Z</Time>
            <Position>
              <LatitudeDegrees>43.36951439268887042999267578125</LatitudeDegrees>
              <LongitudeDegrees>-2.8261251188814640045166015625</LongitudeDegrees>
            </Position>
            <AltitudeMeters>43.799999237060546875</AltitudeMeters>
            <DistanceMeters>NAN</DistanceMeters>
          </Trackpoint>
          <Trackpoint>
            <Time>2022-09-24T15:56:38.000Z</Time>
            <Position>
              <LatitudeDegrees>43.36959385313093662261962890625</LatitudeDegrees>
              <LongitudeDegrees>-2.8262220136821269989013671875</LongitudeDegrees>
            </Position>
            <AltitudeMeters>42.40000152587890625</AltitudeMeters>
            <DistanceMeters>NAN</DistanceMeters>
          </Trackpoint>
          <Trackpoint>
            <Time>2022-09-24T15:56:39.000Z</Time>
            <Position>
              <LatitudeDegrees>43.3696824498474597930908203125</LatitudeDegrees>
              <LongitudeDegrees>-2.82634246163070201873779296875</LongitudeDegrees>
            </Position>
            <AltitudeMeters>40.59999847412109375</AltitudeMeters>
            <DistanceMeters>NAN</DistanceMeters>
          </Trackpoint>
          <Trackpoint>
            <Time>2022-09-24T15:56:40.000Z</Time>
            <Position>
              <LatitudeDegrees>43.36973634548485279083251953125</LatitudeDegrees>
              <LongitudeDegrees>-2.8264211677014827728271484375</LongitudeDegrees>
            </Position>
            <AltitudeMeters>40.40000152587890625</AltitudeMeters>
            <DistanceMeters>NAN</DistanceMeters>
          </Trackpoint>
          <Trackpoint>
            <Time>2022-09-24T15:56:41.000Z</Time>
            <Position>
              <LatitudeDegrees>43.36980524472892284393310546875</LatitudeDegrees>
              <LongitudeDegrees>-2.8265187330543994903564453125</LongitudeDegrees>
            </Position>
            <AltitudeMeters>40.200000762939453125</AltitudeMeters>
            <DistanceMeters>NAN</DistanceMeters>
          </Trackpoint>
          <Trackpoint>
            <Time>2022-09-24T15:56:42.000Z</Time>
            <Position>
              <LatitudeDegrees>43.36989828385412693023681640625</LatitudeDegrees>
              <LongitudeDegrees>-2.826638929545879364013671875</LongitudeDegrees>
            </Position>
            <AltitudeMeters>40.40000152587890625</AltitudeMeters>
            <DistanceMeters>NAN</DistanceMeters>
          </Trackpoint>
          <Trackpoint>
            <Time>2022-09-24T15:56:43.000Z</Time>
            <Position>
              <LatitudeDegrees>43.36997405625879764556884765625</LatitudeDegrees>
              <LongitudeDegrees>-2.82673791982233524322509765625</LongitudeDegrees>
            </Position>
            <AltitudeMeters>40.40000152587890625</AltitudeMeters>
            <DistanceMeters>NAN</DistanceMeters>
          </Trackpoint>
          <Trackpoint>
            <Time>2022-09-24T15:56:44.000Z</Time>
            <Position>
              <LatitudeDegrees>43.37003323249518871307373046875</LatitudeDegrees>
              <LongitudeDegrees>-2.82682098448276519775390625</LongitudeDegrees>
            </Position>
            <AltitudeMeters>40.200000762939453125</AltitudeMeters>
            <DistanceMeters>NAN</DistanceMeters>
          </Trackpoint>
          <Trackpoint>
            <Time>2022-09-24T15:56:45.000Z</Time>
            <Position>
              <LatitudeDegrees>43.37011185474693775177001953125</LatitudeDegrees>
              <LongitudeDegrees>-2.82692265696823596954345703125</LongitudeDegrees>
            </Position>
            <AltitudeMeters>39.799999237060546875</AltitudeMeters>
            <DistanceMeters>NAN</DistanceMeters>
          </Trackpoint>
          <Trackpoint>
            <Time>2022-09-24T15:56:46.000Z</Time>
            <Position>
              <LatitudeDegrees>43.37019701488316059112548828125</LatitudeDegrees>
              <LongitudeDegrees>-2.8270159475505352020263671875</LongitudeDegrees>
            </Position>
            <AltitudeMeters>39.40000152587890625</AltitudeMeters>
            <DistanceMeters>NAN</DistanceMeters>
          </Trackpoint>
          <Trackpoint>
            <Time>2022-09-24T15:56:47.000Z</Time>
            <Position>
              <LatitudeDegrees>43.370282761752605438232421875</LatitudeDegrees>
              <LongitudeDegrees>-2.827098928391933441162109375</LongitudeDegrees>
            </Position>
            <AltitudeMeters>39</AltitudeMeters>
            <DistanceMeters>NAN</DistanceMeters>
          </Trackpoint>
          <Trackpoint>
            <Time>2022-09-24T15:56:48.000Z</Time>
            <Position>
              <LatitudeDegrees>43.37037487886846065521240234375</LatitudeDegrees>
              <LongitudeDegrees>-2.82718115486204624176025390625</LongitudeDegrees>
            </Position>
            <AltitudeMeters>38</AltitudeMeters>
            <DistanceMeters>NAN</DistanceMeters>
          </Trackpoint>
          <Trackpoint>
            <Time>2022-09-24T15:56:49.000Z</Time>
            <Position>
              <LatitudeDegrees>43.37046171538531780242919921875</LatitudeDegrees>
              <LongitudeDegrees>-2.82727067358791828155517578125</LongitudeDegrees>
            </Position>
            <AltitudeMeters>38</AltitudeMeters>
            <DistanceMeters>NAN</DistanceMeters>
          </Trackpoint>
          <Trackpoint>
            <Time>2022-09-24T15:56:50.000Z</Time>
            <Position>
              <LatitudeDegrees>43.3705504797399044036865234375</LatitudeDegrees>
              <LongitudeDegrees>-2.82735482789576053619384765625</LongitudeDegrees>
            </Position>
            <AltitudeMeters>37.799999237060546875</AltitudeMeters>
            <DistanceMeters>NAN</DistanceMeters>
          </Trackpoint>
          <Trackpoint>
            <Time>2022-09-24T15:56:51.000Z</Time>
            <Position>
              <LatitudeDegrees>43.37064142338931560516357421875</LatitudeDegrees>
              <LongitudeDegrees>-2.8274360485374927520751953125</LongitudeDegrees>
            </Position>
            <AltitudeMeters>37</AltitudeMeters>
            <DistanceMeters>NAN</DistanceMeters>
          </Trackpoint>
          <Trackpoint>
            <Time>2022-09-24T15:56:52.000Z</Time>
            <Position>
              <LatitudeDegrees>43.3707390725612640380859375</LatitudeDegrees>
              <LongitudeDegrees>-2.8275096416473388671875</LongitudeDegrees>
            </Position>
            <AltitudeMeters>36.799999237060546875</AltitudeMeters>
            <DistanceMeters>NAN</DistanceMeters>
          </Trackpoint>
          <Trackpoint>
            <Time>2022-09-24T15:56:53.000Z</Time>
            <Position>
              <LatitudeDegrees>43.3708351291716098785400390625</LatitudeDegrees>
              <LongitudeDegrees>-2.8275839053094387054443359375</LongitudeDegrees>
            </Position>
            <AltitudeMeters>36.59999847412109375</AltitudeMeters>
            <DistanceMeters>NAN</DistanceMeters>
          </Trackpoint>
          <Trackpoint>
            <Time>2022-09-24T15:56:54.000Z</Time>
            <Position>
              <LatitudeDegrees>43.37092556990683078765869140625</LatitudeDegrees>
              <LongitudeDegrees>-2.8276610188186168670654296875</LongitudeDegrees>
            </Position>
            <AltitudeMeters>36.59999847412109375</AltitudeMeters>
            <DistanceMeters>NAN</DistanceMeters>
          </Trackpoint>
          <Trackpoint>
            <Time>2022-09-24T15:56:55.000Z</Time>
            <Position>
              <LatitudeDegrees>43.37100754491984844207763671875</LatitudeDegrees>
              <LongitudeDegrees>-2.82773519866168498992919921875</LongitudeDegrees>
            </Position>
            <AltitudeMeters>34.40000152587890625</AltitudeMeters>
            <DistanceMeters>NAN</DistanceMeters>
          </Trackpoint>
          <Trackpoint>
            <Time>2022-09-24T15:56:56.000Z</Time>
            <Position>
              <LatitudeDegrees>43.37109111249446868896484375</LatitudeDegrees>
              <LongitudeDegrees>-2.82779839821159839630126953125</LongitudeDegrees>
            </Position>
            <AltitudeMeters>34.200000762939453125</AltitudeMeters>
            <DistanceMeters>NAN</DistanceMeters>
          </Trackpoint>
          <Trackpoint>
            <Time>2022-09-24T15:56:57.000Z</Time>
            <Position>
              <LatitudeDegrees>43.37119194678962230682373046875</LatitudeDegrees>
              <LongitudeDegrees>-2.8278125636279582977294921875</LongitudeDegrees>
            </Position>
            <AltitudeMeters>33.799999237060546875</AltitudeMeters>
            <DistanceMeters>NAN</DistanceMeters>
          </Trackpoint>
          <Trackpoint>
            <Time>2022-09-24T15:56:58.000Z</Time>
            <Position>
              <LatitudeDegrees>43.37127861566841602325439453125</LatitudeDegrees>
              <LongitudeDegrees>-2.82777559943497180938720703125</LongitudeDegrees>
            </Position>
            <AltitudeMeters>32.59999847412109375</AltitudeMeters>
            <DistanceMeters>NAN</DistanceMeters>
          </Trackpoint>
          <Trackpoint>
            <Time>2022-09-24T15:56:59.000Z</Time>
            <Position>
              <LatitudeDegrees>43.37136059068143367767333984375</LatitudeDegrees>
              <LongitudeDegrees>-2.82770854420959949493408203125</LongitudeDegrees>
            </Position>
            <AltitudeMeters>32.40000152587890625</AltitudeMeters>
            <DistanceMeters>NAN</DistanceMeters>
          </Trackpoint>
          <Trackpoint>
            <Time>2022-09-24T15:57:00.000Z</Time>
            <Position>
              <LatitudeDegrees>43.3714262209832668304443359375</LatitudeDegrees>
              <LongitudeDegrees>-2.82765758223831653594970703125</LongitudeDegrees>
            </Position>
            <AltitudeMeters>32</AltitudeMeters>
            <DistanceMeters>NAN</DistanceMeters>
          </Trackpoint>
          <Trackpoint>
            <Time>2022-09-24T15:57:01.000Z</Time>
            <Position>
              <LatitudeDegrees>43.371507860720157623291015625</LatitudeDegrees>
              <LongitudeDegrees>-2.8275963105261325836181640625</LongitudeDegrees>
            </Position>
            <AltitudeMeters>31.3999996185302734375</AltitudeMeters>
            <DistanceMeters>NAN</DistanceMeters>
          </Trackpoint>
          <Trackpoint>
            <Time>2022-09-24T15:57:02.000Z</Time>
            <Position>
              <LatitudeDegrees>43.3716052584350109100341796875</LatitudeDegrees>
              <LongitudeDegrees>-2.82752129249274730682373046875</LongitudeDegrees>
            </Position>
            <AltitudeMeters>31</AltitudeMeters>
            <DistanceMeters>NAN</DistanceMeters>
          </Trackpoint>
          <Trackpoint>
            <Time>2022-09-24T15:57:03.000Z</Time>
            <Position>
              <LatitudeDegrees>43.3716927655041217803955078125</LatitudeDegrees>
              <LongitudeDegrees>-2.82746144570410251617431640625</LongitudeDegrees>
            </Position>
            <AltitudeMeters>31</AltitudeMeters>
            <DistanceMeters>NAN</DistanceMeters>
          </Trackpoint>
          <Trackpoint>
            <Time>2022-09-24T15:57:04.000Z</Time>
            <Position>
              <LatitudeDegrees>43.3717842958867549896240234375</LatitudeDegrees>
              <LongitudeDegrees>-2.8274055384099483489990234375</LongitudeDegrees>
            </Position>
            <AltitudeMeters>30</AltitudeMeters>
            <DistanceMeters>NAN</DistanceMeters>
          </Trackpoint>
          <Trackpoint>
            <Time>2022-09-24T15:57:05.000Z</Time>
            <Position>
              <LatitudeDegrees>43.37188513018190860748291015625</LatitudeDegrees>
              <LongitudeDegrees>-2.8273487091064453125</LongitudeDegrees>
            </Position>
            <AltitudeMeters>29.799999237060546875</AltitudeMeters>
            <DistanceMeters>NAN</DistanceMeters>
          </Trackpoint>
          <Trackpoint>
            <Time>2022-09-24T15:57:06.000Z</Time>
            <Position>
              <LatitudeDegrees>43.3719898201525211334228515625</LatitudeDegrees>
              <LongitudeDegrees>-2.82730780541896820068359375</LongitudeDegrees>
            </Position>
            <AltitudeMeters>29.6000003814697265625</AltitudeMeters>
            <DistanceMeters>NAN</DistanceMeters>
          </Trackpoint>
          <Trackpoint>
            <Time>2022-09-24T15:57:07.000Z</Time>
            <Position>
              <LatitudeDegrees>43.37209585122764110565185546875</LatitudeDegrees>
              <LongitudeDegrees>-2.82729045487940311431884765625</LongitudeDegrees>
            </Position>
            <AltitudeMeters>29.3999996185302734375</AltitudeMeters>
            <DistanceMeters>NAN</DistanceMeters>
          </Trackpoint>
          <Trackpoint>
            <Time>2022-09-24T15:57:08.000Z</Time>
            <Position>
              <LatitudeDegrees>43.37209585122764110565185546875</LatitudeDegrees>
              <LongitudeDegrees>-2.82729045487940311431884765625</LongitudeDegrees>
            </Position>
            <AltitudeMeters>28.6000003814697265625</AltitudeMeters>
            <DistanceMeters>NAN</DistanceMeters>
          </Trackpoint>
          <Trackpoint>
            <Time>2022-09-24T15:57:09.000Z</Time>
            <Position>
              <LatitudeDegrees>43.37227203883230686187744140625</LatitudeDegrees>
              <LongitudeDegrees>-2.8272630460560321807861328125</LongitudeDegrees>
            </Position>
            <AltitudeMeters>28.6000003814697265625</AltitudeMeters>
            <DistanceMeters>NAN</DistanceMeters>
          </Trackpoint>
          <Trackpoint>
            <Time>2022-09-24T15:57:10.000Z</Time>
            <Position>
              <LatitudeDegrees>43.37235979735851287841796875</LatitudeDegrees>
              <LongitudeDegrees>-2.82720378600060939788818359375</LongitudeDegrees>
            </Position>
            <AltitudeMeters>27.3999996185302734375</AltitudeMeters>
            <DistanceMeters>NAN</DistanceMeters>
          </Trackpoint>
          <Trackpoint>
            <Time>2022-09-24T15:57:11.000Z</Time>
            <Position>
              <LatitudeDegrees>43.3724395930767059326171875</LatitudeDegrees>
              <LongitudeDegrees>-2.8271165303885936737060546875</LongitudeDegrees>
            </Position>
            <AltitudeMeters>27.200000762939453125</AltitudeMeters>
            <DistanceMeters>NAN</DistanceMeters>
          </Trackpoint>
          <Trackpoint>
            <Time>2022-09-24T15:57:12.000Z</Time>
            <Position>
              <LatitudeDegrees>43.37251603603363037109375</LatitudeDegrees>
              <LongitudeDegrees>-2.82701418735086917877197265625</LongitudeDegrees>
            </Position>
            <AltitudeMeters>26.3999996185302734375</AltitudeMeters>
            <DistanceMeters>NAN</DistanceMeters>
          </Trackpoint>
          <Trackpoint>
            <Time>2022-09-24T15:57:13.000Z</Time>
            <Position>
              <LatitudeDegrees>43.37258870713412761688232421875</LatitudeDegrees>
              <LongitudeDegrees>-2.82690254040062427520751953125</LongitudeDegrees>
            </Position>
            <AltitudeMeters>25.799999237060546875</AltitudeMeters>
            <DistanceMeters>NAN</DistanceMeters>
          </Trackpoint>
          <Trackpoint>
            <Time>2022-09-24T15:57:14.000Z</Time>
            <Position>
              <LatitudeDegrees>43.37266162969172000885009765625</LatitudeDegrees>
              <LongitudeDegrees>-2.8267893008887767791748046875</LongitudeDegrees>
            </Position>
            <AltitudeMeters>23.3999996185302734375</AltitudeMeters>
            <DistanceMeters>NAN</DistanceMeters>
          </Trackpoint>
          <Trackpoint>
            <Time>2022-09-24T15:57:15.000Z</Time>
            <Position>
              <LatitudeDegrees>43.37266162969172000885009765625</LatitudeDegrees>
              <LongitudeDegrees>-2.8267893008887767791748046875</LongitudeDegrees>
            </Position>
            <AltitudeMeters>22.6000003814697265625</AltitudeMeters>
            <DistanceMeters>NAN</DistanceMeters>
          </Trackpoint>
          <Trackpoint>
            <Time>2022-09-24T15:57:16.000Z</Time>
            <Position>
              <LatitudeDegrees>43.3728296868503093719482421875</LatitudeDegrees>
              <LongitudeDegrees>-2.8265655040740966796875</LongitudeDegrees>
            </Position>
            <AltitudeMeters>22.3999996185302734375</AltitudeMeters>
            <DistanceMeters>NAN</DistanceMeters>
          </Trackpoint>
          <Trackpoint>
            <Time>2022-09-24T15:57:17.000Z</Time>
            <Position>
              <LatitudeDegrees>43.37291392497718334197998046875</LatitudeDegrees>
              <LongitudeDegrees>-2.8264630772173404693603515625</LongitudeDegrees>
            </Position>
            <AltitudeMeters>21.6000003814697265625</AltitudeMeters>
            <DistanceMeters>NAN</DistanceMeters>
          </Trackpoint>
          <Trackpoint>
            <Time>2022-09-24T15:57:18.000Z</Time>
            <Position>
              <LatitudeDegrees>43.37299740873277187347412109375</LatitudeDegrees>
              <LongitudeDegrees>-2.82635453157126903533935546875</LongitudeDegrees>
            </Position>
            <AltitudeMeters>21.200000762939453125</AltitudeMeters>
            <DistanceMeters>NAN</DistanceMeters>
          </Trackpoint>
          <Trackpoint>
            <Time>2022-09-24T15:57:19.000Z</Time>
            <Position>
              <LatitudeDegrees>43.3731086365878582000732421875</LatitudeDegrees>
              <LongitudeDegrees>-2.8262347541749477386474609375</LongitudeDegrees>
            </Position>
            <AltitudeMeters>19.799999237060546875</AltitudeMeters>
            <DistanceMeters>NAN</DistanceMeters>
          </Trackpoint>
          <Trackpoint>
            <Time>2022-09-24T15:57:20.000Z</Time>
            <Position>
              <LatitudeDegrees>43.3731086365878582000732421875</LatitudeDegrees>
              <LongitudeDegrees>-2.8262347541749477386474609375</LongitudeDegrees>
            </Position>
            <AltitudeMeters>19.3999996185302734375</AltitudeMeters>
            <DistanceMeters>NAN</DistanceMeters>
          </Trackpoint>
          <Trackpoint>
            <Time>2022-09-24T15:57:21.000Z</Time>
            <Position>
              <LatitudeDegrees>43.37327267043292522430419921875</LatitudeDegrees>
              <LongitudeDegrees>-2.8259849734604358673095703125</LongitudeDegrees>
            </Position>
            <AltitudeMeters>18.6000003814697265625</AltitudeMeters>
            <DistanceMeters>NAN</DistanceMeters>
          </Trackpoint>
          <Trackpoint>
            <Time>2022-09-24T15:57:22.000Z</Time>
            <Position>
              <LatitudeDegrees>43.37335296906530857086181640625</LatitudeDegrees>
              <LongitudeDegrees>-2.82586821354925632476806640625</LongitudeDegrees>
            </Position>
            <AltitudeMeters>18.200000762939453125</AltitudeMeters>
            <DistanceMeters>NAN</DistanceMeters>
          </Trackpoint>
          <Trackpoint>
            <Time>2022-09-24T15:57:23.000Z</Time>
            <Position>
              <LatitudeDegrees>43.37343729101121425628662109375</LatitudeDegrees>
              <LongitudeDegrees>-2.82576025463640689849853515625</LongitudeDegrees>
            </Position>
            <AltitudeMeters>17</AltitudeMeters>
            <DistanceMeters>NAN</DistanceMeters>
          </Trackpoint>
          <Trackpoint>
            <Time>2022-09-24T15:57:24.000Z</Time>
            <Position>
              <LatitudeDegrees>43.3735227026045322418212890625</LatitudeDegrees>
              <LongitudeDegrees>-2.825658582150936126708984375</LongitudeDegrees>
            </Position>
            <AltitudeMeters>16.200000762939453125</AltitudeMeters>
            <DistanceMeters>NAN</DistanceMeters>
          </Trackpoint>
          <Trackpoint>
            <Time>2022-09-24T15:57:25.000Z</Time>
            <Position>
              <LatitudeDegrees>43.3735227026045322418212890625</LatitudeDegrees>
              <LongitudeDegrees>-2.825658582150936126708984375</LongitudeDegrees>
            </Position>
            <AltitudeMeters>16</AltitudeMeters>
            <DistanceMeters>NAN</DistanceMeters>
          </Trackpoint>
          <Trackpoint>
            <Time>2022-09-24T15:57:26.000Z</Time>
            <Position>
              <LatitudeDegrees>43.3737285621464252471923828125</LatitudeDegrees>
              <LongitudeDegrees>-2.82546672038733959197998046875</LongitudeDegrees>
            </Position>
            <AltitudeMeters>15.80000019073486328125</AltitudeMeters>
            <DistanceMeters>NAN</DistanceMeters>
          </Trackpoint>
          <Trackpoint>
            <Time>2022-09-24T15:57:27.000Z</Time>
            <Position>
              <LatitudeDegrees>43.3738388679921627044677734375</LatitudeDegrees>
              <LongitudeDegrees>-2.82539312727749347686767578125</LongitudeDegrees>
            </Position>
            <AltitudeMeters>15.80000019073486328125</AltitudeMeters>
            <DistanceMeters>NAN</DistanceMeters>
          </Trackpoint>
          <Trackpoint>
            <Time>2022-09-24T15:57:28.000Z</Time>
            <Position>
              <LatitudeDegrees>43.37394808419048786163330078125</LatitudeDegrees>
              <LongitudeDegrees>-2.82534786500036716461181640625</LongitudeDegrees>
            </Position>
            <AltitudeMeters>15.3999996185302734375</AltitudeMeters>
            <DistanceMeters>NAN</DistanceMeters>
          </Trackpoint>
          <Trackpoint>
            <Time>2022-09-24T15:57:29.000Z</Time>
            <Position>
              <LatitudeDegrees>43.37403659708797931671142578125</LatitudeDegrees>
              <LongitudeDegrees>-2.825318276882171630859375</LongitudeDegrees>
            </Position>
            <AltitudeMeters>15.3999996185302734375</AltitudeMeters>
            <DistanceMeters>NAN</DistanceMeters>
          </Trackpoint>
          <Trackpoint>
            <Time>2022-09-24T15:57:30.000Z</Time>
            <Position>
              <LatitudeDegrees>43.37414455600082874298095703125</LatitudeDegrees>
              <LongitudeDegrees>-2.825307548046112060546875</LongitudeDegrees>
            </Position>
            <AltitudeMeters>15.3999996185302734375</AltitudeMeters>
            <DistanceMeters>NAN</DistanceMeters>
          </Trackpoint>
          <Trackpoint>
            <Time>2022-09-24T15:57:31.000Z</Time>
            <Position>
              <LatitudeDegrees>43.37424916215240955352783203125</LatitudeDegrees>
              <LongitudeDegrees>-2.82530696131289005279541015625</LongitudeDegrees>
            </Position>
            <AltitudeMeters>15.80000019073486328125</AltitudeMeters>
            <DistanceMeters>NAN</DistanceMeters>
          </Trackpoint>
          <Trackpoint>
            <Time>2022-09-24T15:57:32.000Z</Time>
            <Position>
              <LatitudeDegrees>43.37435091845691204071044921875</LatitudeDegrees>
              <LongitudeDegrees>-2.825315259397029876708984375</LongitudeDegrees>
            </Position>
            <AltitudeMeters>15.3999996185302734375</AltitudeMeters>
            <DistanceMeters>NAN</DistanceMeters>
          </Trackpoint>
          <Trackpoint>
            <Time>2022-09-24T15:57:33.000Z</Time>
            <Position>
              <LatitudeDegrees>43.37444798089563846588134765625</LatitudeDegrees>
              <LongitudeDegrees>-2.82533328048884868621826171875</LongitudeDegrees>
            </Position>
            <AltitudeMeters>16</AltitudeMeters>
            <DistanceMeters>NAN</DistanceMeters>
          </Trackpoint>
          <Trackpoint>
            <Time>2022-09-24T15:57:34.000Z</Time>
            <Position>
              <LatitudeDegrees>43.3745389245450496673583984375</LatitudeDegrees>
              <LongitudeDegrees>-2.82536345534026622772216796875</LongitudeDegrees>
            </Position>
            <AltitudeMeters>16</AltitudeMeters>
            <DistanceMeters>NAN</DistanceMeters>
          </Trackpoint>
          <Trackpoint>
            <Time>2022-09-24T15:57:35.000Z</Time>
            <Position>
              <LatitudeDegrees>43.37462232448160648345947265625</LatitudeDegrees>
              <LongitudeDegrees>-2.8254076279699802398681640625</LongitudeDegrees>
            </Position>
            <AltitudeMeters>16.3999996185302734375</AltitudeMeters>
            <DistanceMeters>NAN</DistanceMeters>
          </Trackpoint>
          <Trackpoint>
            <Time>2022-09-24T15:57:36.000Z</Time>
            <Position>
              <LatitudeDegrees>43.37470429949462413787841796875</LatitudeDegrees>
              <LongitudeDegrees>-2.82545381225645542144775390625</LongitudeDegrees>
            </Position>
            <AltitudeMeters>16.3999996185302734375</AltitudeMeters>
            <DistanceMeters>NAN</DistanceMeters>
          </Trackpoint>
          <Trackpoint>
            <Time>2022-09-24T15:57:37.000Z</Time>
            <Position>
              <LatitudeDegrees>43.3747806586325168609619140625</LatitudeDegrees>
              <LongitudeDegrees>-2.82549706287682056427001953125</LongitudeDegrees>
            </Position>
            <AltitudeMeters>16.3999996185302734375</AltitudeMeters>
            <DistanceMeters>NAN</DistanceMeters>
          </Trackpoint>
          <Trackpoint>
            <Time>2022-09-24T15:57:38.000Z</Time>
            <Position>
              <LatitudeDegrees>43.3748540841042995452880859375</LatitudeDegrees>
              <LongitudeDegrees>-2.82552958466112613677978515625</LongitudeDegrees>
            </Position>
            <AltitudeMeters>16.6000003814697265625</AltitudeMeters>
            <DistanceMeters>NAN</DistanceMeters>
          </Trackpoint>
          <Trackpoint>
            <Time>2022-09-24T15:57:39.000Z</Time>
            <Position>
              <LatitudeDegrees>43.37493195198476314544677734375</LatitudeDegrees>
              <LongitudeDegrees>-2.82555338926613330841064453125</LongitudeDegrees>
            </Position>
            <AltitudeMeters>16.6000003814697265625</AltitudeMeters>
            <DistanceMeters>NAN</DistanceMeters>
          </Trackpoint>
          <Trackpoint>
            <Time>2022-09-24T15:57:40.000Z</Time>
            <Position>
              <LatitudeDegrees>43.375013172626495361328125</LatitudeDegrees>
              <LongitudeDegrees>-2.82556378282606601715087890625</LongitudeDegrees>
            </Position>
            <AltitudeMeters>17.3999996185302734375</AltitudeMeters>
            <DistanceMeters>NAN</DistanceMeters>
          </Trackpoint>
          <Trackpoint>
            <Time>2022-09-24T15:57:41.000Z</Time>
            <Position>
              <LatitudeDegrees>43.37509162724018096923828125</LatitudeDegrees>
              <LongitudeDegrees>-2.8255625255405902862548828125</LongitudeDegrees>
            </Position>
            <AltitudeMeters>17.3999996185302734375</AltitudeMeters>
            <DistanceMeters>NAN</DistanceMeters>
          </Trackpoint>
          <Trackpoint>
            <Time>2022-09-24T15:57:42.000Z</Time>
            <Position>
              <LatitudeDegrees>43.37509162724018096923828125</LatitudeDegrees>
              <LongitudeDegrees>-2.8255625255405902862548828125</LongitudeDegrees>
            </Position>
            <AltitudeMeters>17.3999996185302734375</AltitudeMeters>
            <DistanceMeters>NAN</DistanceMeters>
          </Trackpoint>
          <Trackpoint>
            <Time>2022-09-24T15:57:43.000Z</Time>
            <Position>
              <LatitudeDegrees>43.3752627857029438018798828125</LatitudeDegrees>
              <LongitudeDegrees>-2.82555087469518184661865234375</LongitudeDegrees>
            </Position>
            <AltitudeMeters>17.3999996185302734375</AltitudeMeters>
            <DistanceMeters>NAN</DistanceMeters>
          </Trackpoint>
          <Trackpoint>
            <Time>2022-09-24T15:57:44.000Z</Time>
            <Position>
              <LatitudeDegrees>43.37533612735569477081298828125</LatitudeDegrees>
              <LongitudeDegrees>-2.8255447559058666229248046875</LongitudeDegrees>
            </Position>
            <AltitudeMeters>17.3999996185302734375</AltitudeMeters>
            <DistanceMeters>NAN</DistanceMeters>
          </Trackpoint>
          <Trackpoint>
            <Time>2022-09-24T15:57:45.000Z</Time>
            <Position>
              <LatitudeDegrees>43.37538775987923145294189453125</LatitudeDegrees>
              <LongitudeDegrees>-2.8255430795252323150634765625</LongitudeDegrees>
            </Position>
            <AltitudeMeters>17.3999996185302734375</AltitudeMeters>
            <DistanceMeters>NAN</DistanceMeters>
          </Trackpoint>
          <Trackpoint>
            <Time>2022-09-24T15:57:46.000Z</Time>
            <Position>
              <LatitudeDegrees>43.37545867078006267547607421875</LatitudeDegrees>
              <LongitudeDegrees>-2.8255353681743144989013671875</LongitudeDegrees>
            </Position>
            <AltitudeMeters>18.3999996185302734375</AltitudeMeters>
            <DistanceMeters>NAN</DistanceMeters>
          </Trackpoint>
          <Trackpoint>
            <Time>2022-09-24T15:57:47.000Z</Time>
            <Position>
              <LatitudeDegrees>43.37551834993064403533935546875</LatitudeDegrees>
              <LongitudeDegrees>-2.82551600597798824310302734375</LongitudeDegrees>
            </Position>
            <AltitudeMeters>18.6000003814697265625</AltitudeMeters>
            <DistanceMeters>NAN</DistanceMeters>
          </Trackpoint>
          <Trackpoint>
            <Time>2022-09-24T15:57:48.000Z</Time>
            <Position>
              <LatitudeDegrees>43.375584147870540618896484375</LatitudeDegrees>
              <LongitudeDegrees>-2.82548432238399982452392578125</LongitudeDegrees>
            </Position>
            <AltitudeMeters>18.799999237060546875</AltitudeMeters>
            <DistanceMeters>NAN</DistanceMeters>
          </Trackpoint>
          <Trackpoint>
            <Time>2022-09-24T15:57:49.000Z</Time>
            <Position>
              <LatitudeDegrees>43.37563452310860157012939453125</LatitudeDegrees>
              <LongitudeDegrees>-2.82547049224376678466796875</LongitudeDegrees>
            </Position>
            <AltitudeMeters>19</AltitudeMeters>
            <DistanceMeters>NAN</DistanceMeters>
          </Trackpoint>
          <Trackpoint>
            <Time>2022-09-24T15:57:50.000Z</Time>
            <Position>
              <LatitudeDegrees>43.37568582035601139068603515625</LatitudeDegrees>
              <LongitudeDegrees>-2.8254604339599609375</LongitudeDegrees>
            </Position>
            <AltitudeMeters>19.6000003814697265625</AltitudeMeters>
            <DistanceMeters>NAN</DistanceMeters>
          </Trackpoint>
          <Trackpoint>
            <Time>2022-09-24T15:57:51.000Z</Time>
            <Position>
              <LatitudeDegrees>43.37574206292629241943359375</LatitudeDegrees>
              <LongitudeDegrees>-2.8254483640193939208984375</LongitudeDegrees>
            </Position>
            <AltitudeMeters>19.799999237060546875</AltitudeMeters>
            <DistanceMeters>NAN</DistanceMeters>
          </Trackpoint>
          <Trackpoint>
            <Time>2022-09-24T15:57:52.000Z</Time>
            <Position>
              <LatitudeDegrees>43.375790677964687347412109375</LatitudeDegrees>
              <LongitudeDegrees>-2.82543855719268321990966796875</LongitudeDegrees>
            </Position>
            <AltitudeMeters>20.200000762939453125</AltitudeMeters>
            <DistanceMeters>NAN</DistanceMeters>
          </Trackpoint>
          <Trackpoint>
            <Time>2022-09-24T15:57:53.000Z</Time>
            <Position>
              <LatitudeDegrees>43.37583501823246479034423828125</LatitudeDegrees>
              <LongitudeDegrees>-2.82542615197598934173583984375</LongitudeDegrees>
            </Position>
            <AltitudeMeters>20.6000003814697265625</AltitudeMeters>
            <DistanceMeters>NAN</DistanceMeters>
          </Trackpoint>
          <Trackpoint>
            <Time>2022-09-24T15:57:54.000Z</Time>
            <Position>
              <LatitudeDegrees>43.375883214175701141357421875</LatitudeDegrees>
              <LongitudeDegrees>-2.8254056163132190704345703125</LongitudeDegrees>
            </Position>
            <AltitudeMeters>21.200000762939453125</AltitudeMeters>
            <DistanceMeters>NAN</DistanceMeters>
          </Trackpoint>
          <Trackpoint>
            <Time>2022-09-24T15:57:55.000Z</Time>
            <Position>
              <LatitudeDegrees>43.3759350143373012542724609375</LatitudeDegrees>
              <LongitudeDegrees>-2.82539044506847858428955078125</LongitudeDegrees>
            </Position>
            <AltitudeMeters>21.3999996185302734375</AltitudeMeters>
            <DistanceMeters>NAN</DistanceMeters>
          </Trackpoint>
          <Trackpoint>
            <Time>2022-09-24T15:57:56.000Z</Time>
            <Position>
              <LatitudeDegrees>43.375987149775028228759765625</LatitudeDegrees>
              <LongitudeDegrees>-2.8253757767379283905029296875</LongitudeDegrees>
            </Position>
            <AltitudeMeters>21.3999996185302734375</AltitudeMeters>
            <DistanceMeters>NAN</DistanceMeters>
          </Trackpoint>
          <Trackpoint>
            <Time>2022-09-24T15:57:57.000Z</Time>
            <Position>
              <LatitudeDegrees>43.37603702209889888763427734375</LatitudeDegrees>
              <LongitudeDegrees>-2.825364209711551666259765625</LongitudeDegrees>
            </Position>
            <AltitudeMeters>21.6000003814697265625</AltitudeMeters>
            <DistanceMeters>NAN</DistanceMeters>
          </Trackpoint>
          <Trackpoint>
            <Time>2022-09-24T15:57:58.000Z</Time>
            <Position>
              <LatitudeDegrees>43.376087062060832977294921875</LatitudeDegrees>
              <LongitudeDegrees>-2.8253586776554584503173828125</LongitudeDegrees>
            </Position>
            <AltitudeMeters>22</AltitudeMeters>
            <DistanceMeters>NAN</DistanceMeters>
          </Trackpoint>
          <Trackpoint>
            <Time>2022-09-24T15:57:59.000Z</Time>
            <Position>
              <LatitudeDegrees>43.37612427771091461181640625</LatitudeDegrees>
              <LongitudeDegrees>-2.82535222359001636505126953125</LongitudeDegrees>
            </Position>
            <AltitudeMeters>22</AltitudeMeters>
            <DistanceMeters>NAN</DistanceMeters>
          </Trackpoint>
          <Trackpoint>
            <Time>2022-09-24T15:58:00.000Z</Time>
            <Position>
              <LatitudeDegrees>43.37617180310189723968505859375</LatitudeDegrees>
              <LongitudeDegrees>-2.8253429196774959564208984375</LongitudeDegrees>
            </Position>
            <AltitudeMeters>22.3999996185302734375</AltitudeMeters>
            <DistanceMeters>NAN</DistanceMeters>
          </Trackpoint>
          <Trackpoint>
            <Time>2022-09-24T15:58:01.000Z</Time>
            <Position>
              <LatitudeDegrees>43.37622888386249542236328125</LatitudeDegrees>
              <LongitudeDegrees>-2.8253305144608020782470703125</LongitudeDegrees>
            </Position>
            <AltitudeMeters>23</AltitudeMeters>
            <DistanceMeters>NAN</DistanceMeters>
          </Trackpoint>
          <Trackpoint>
            <Time>2022-09-24T15:58:02.000Z</Time>
            <Position>
              <LatitudeDegrees>43.37622888386249542236328125</LatitudeDegrees>
              <LongitudeDegrees>-2.8253305144608020782470703125</LongitudeDegrees>
            </Position>
            <AltitudeMeters>23.200000762939453125</AltitudeMeters>
            <DistanceMeters>NAN</DistanceMeters>
          </Trackpoint>
          <Trackpoint>
            <Time>2022-09-24T15:58:03.000Z</Time>
            <Position>
              <LatitudeDegrees>43.3763259463012218475341796875</LatitudeDegrees>
              <LongitudeDegrees>-2.825317271053791046142578125</LongitudeDegrees>
            </Position>
            <AltitudeMeters>23.6000003814697265625</AltitudeMeters>
            <DistanceMeters>NAN</DistanceMeters>
          </Trackpoint>
          <Trackpoint>
            <Time>2022-09-24T15:58:04.000Z</Time>
            <Position>
              <LatitudeDegrees>43.376372046768665313720703125</LatitudeDegrees>
              <LongitudeDegrees>-2.82531014643609523773193359375</LongitudeDegrees>
            </Position>
            <AltitudeMeters>23.6000003814697265625</AltitudeMeters>
            <DistanceMeters>NAN</DistanceMeters>
          </Trackpoint>
          <Trackpoint>
            <Time>2022-09-24T15:58:05.000Z</Time>
            <Position>
              <LatitudeDegrees>43.376372046768665313720703125</LatitudeDegrees>
              <LongitudeDegrees>-2.82531014643609523773193359375</LongitudeDegrees>
            </Position>
            <AltitudeMeters>23.799999237060546875</AltitudeMeters>
            <DistanceMeters>NAN</DistanceMeters>
          </Trackpoint>
          <Trackpoint>
            <Time>2022-09-24T15:58:06.000Z</Time>
            <Position>
              <LatitudeDegrees>43.37645192630589008331298828125</LatitudeDegrees>
              <LongitudeDegrees>-2.8253033570945262908935546875</LongitudeDegrees>
            </Position>
            <AltitudeMeters>23.799999237060546875</AltitudeMeters>
            <DistanceMeters>NAN</DistanceMeters>
          </Trackpoint>
          <Trackpoint>
            <Time>2022-09-24T15:58:07.000Z</Time>
            <Position>
              <LatitudeDegrees>43.37650515139102935791015625</LatitudeDegrees>
              <LongitudeDegrees>-2.8253020159900188446044921875</LongitudeDegrees>
            </Position>
            <AltitudeMeters>24</AltitudeMeters>
            <DistanceMeters>NAN</DistanceMeters>
          </Trackpoint>
          <Trackpoint>
            <Time>2022-09-24T15:58:08.000Z</Time>
            <Position>
              <LatitudeDegrees>43.3765499107539653778076171875</LatitudeDegrees>
              <LongitudeDegrees>-2.82529908232390880584716796875</LongitudeDegrees>
            </Position>
            <AltitudeMeters>24.200000762939453125</AltitudeMeters>
            <DistanceMeters>NAN</DistanceMeters>
          </Trackpoint>
          <Trackpoint>
            <Time>2022-09-24T15:58:09.000Z</Time>
            <Position>
              <LatitudeDegrees>43.37659190408885478973388671875</LatitudeDegrees>
              <LongitudeDegrees>-2.82529908232390880584716796875</LongitudeDegrees>
            </Position>
            <AltitudeMeters>25</AltitudeMeters>
            <DistanceMeters>NAN</DistanceMeters>
          </Trackpoint>
          <Trackpoint>
            <Time>2022-09-24T15:58:10.000Z</Time>
            <Position>
              <LatitudeDegrees>43.37663523852825164794921875</LatitudeDegrees>
              <LongitudeDegrees>-2.82530821859836578369140625</LongitudeDegrees>
            </Position>
            <AltitudeMeters>25</AltitudeMeters>
            <DistanceMeters>NAN</DistanceMeters>
          </Trackpoint>
          <Trackpoint>
            <Time>2022-09-24T15:58:11.000Z</Time>
            <Position>
              <LatitudeDegrees>43.3766766451299190521240234375</LatitudeDegrees>
              <LongitudeDegrees>-2.8253214620053768157958984375</LongitudeDegrees>
            </Position>
            <AltitudeMeters>25.200000762939453125</AltitudeMeters>
            <DistanceMeters>NAN</DistanceMeters>
          </Trackpoint>
          <Trackpoint>
            <Time>2022-09-24T15:58:12.000Z</Time>
            <Position>
              <LatitudeDegrees>43.37671880610287189483642578125</LatitudeDegrees>
              <LongitudeDegrees>-2.8253330290317535400390625</LongitudeDegrees>
            </Position>
            <AltitudeMeters>25.200000762939453125</AltitudeMeters>
            <DistanceMeters>NAN</DistanceMeters>
          </Trackpoint>
          <Trackpoint>
            <Time>2022-09-24T15:58:13.000Z</Time>
            <Position>
              <LatitudeDegrees>43.37674814276397228240966796875</LatitudeDegrees>
              <LongitudeDegrees>-2.82534317113459110260009765625</LongitudeDegrees>
            </Position>
            <AltitudeMeters>25.200000762939453125</AltitudeMeters>
            <DistanceMeters>NAN</DistanceMeters>
          </Trackpoint>
          <Trackpoint>
            <Time>2022-09-24T15:58:14.000Z</Time>
            <Position>
              <LatitudeDegrees>43.3767846040427684783935546875</LatitudeDegrees>
              <LongitudeDegrees>-2.8253640420734882354736328125</LongitudeDegrees>
            </Position>
            <AltitudeMeters>25.3999996185302734375</AltitudeMeters>
            <DistanceMeters>NAN</DistanceMeters>
          </Trackpoint>
          <Trackpoint>
            <Time>2022-09-24T15:58:15.000Z</Time>
            <Position>
              <LatitudeDegrees>43.3768224902451038360595703125</LatitudeDegrees>
              <LongitudeDegrees>-2.825388349592685699462890625</LongitudeDegrees>
            </Position>
            <AltitudeMeters>25.799999237060546875</AltitudeMeters>
            <DistanceMeters>NAN</DistanceMeters>
          </Trackpoint>
          <Trackpoint>
            <Time>2022-09-24T15:58:16.000Z</Time>
            <Position>
              <LatitudeDegrees>43.37686398066580295562744140625</LatitudeDegrees>
              <LongitudeDegrees>-2.8254116512835025787353515625</LongitudeDegrees>
            </Position>
            <AltitudeMeters>26</AltitudeMeters>
            <DistanceMeters>NAN</DistanceMeters>
          </Trackpoint>
          <Trackpoint>
            <Time>2022-09-24T15:58:17.000Z</Time>
            <Position>
              <LatitudeDegrees>43.3769076503813266754150390625</LatitudeDegrees>
              <LongitudeDegrees>-2.825436294078826904296875</LongitudeDegrees>
            </Position>
            <AltitudeMeters>26.200000762939453125</AltitudeMeters>
            <DistanceMeters>NAN</DistanceMeters>
          </Trackpoint>
          <Trackpoint>
            <Time>2022-09-24T15:58:18.000Z</Time>
            <Position>
              <LatitudeDegrees>43.37695442140102386474609375</LatitudeDegrees>
              <LongitudeDegrees>-2.82546571455895900726318359375</LongitudeDegrees>
            </Position>
            <AltitudeMeters>26.200000762939453125</AltitudeMeters>
            <DistanceMeters>NAN</DistanceMeters>
          </Trackpoint>
          <Trackpoint>
            <Time>2022-09-24T15:58:19.000Z</Time>
            <Position>
              <LatitudeDegrees>43.3770032040774822235107421875</LatitudeDegrees>
              <LongitudeDegrees>-2.82549940980970859527587890625</LongitudeDegrees>
            </Position>
            <AltitudeMeters>26.200000762939453125</AltitudeMeters>
            <DistanceMeters>NAN</DistanceMeters>
          </Trackpoint>
          <Trackpoint>
            <Time>2022-09-24T15:58:20.000Z</Time>
            <Position>
              <LatitudeDegrees>43.3770484663546085357666015625</LatitudeDegrees>
              <LongitudeDegrees>-2.82552002929151058197021484375</LongitudeDegrees>
            </Position>
            <AltitudeMeters>26.6000003814697265625</AltitudeMeters>
            <DistanceMeters>NAN</DistanceMeters>
          </Trackpoint>
          <Trackpoint>
            <Time>2022-09-24T15:58:21.000Z</Time>
            <Position>
              <LatitudeDegrees>43.37709263898432254791259765625</LatitudeDegrees>
              <LongitudeDegrees>-2.82554383389651775360107421875</LongitudeDegrees>
            </Position>
            <AltitudeMeters>26.6000003814697265625</AltitudeMeters>
            <DistanceMeters>NAN</DistanceMeters>
          </Trackpoint>
          <Trackpoint>
            <Time>2022-09-24T15:58:22.000Z</Time>
            <Position>
              <LatitudeDegrees>43.3771426789462566375732421875</LatitudeDegrees>
              <LongitudeDegrees>-2.82557283528149127960205078125</LongitudeDegrees>
            </Position>
            <AltitudeMeters>26.200000762939453125</AltitudeMeters>
            <DistanceMeters>NAN</DistanceMeters>
          </Trackpoint>
          <Trackpoint>
            <Time>2022-09-24T15:58:23.000Z</Time>
            <Position>
              <LatitudeDegrees>43.377191461622714996337890625</LatitudeDegrees>
              <LongitudeDegrees>-2.82560862600803375244140625</LongitudeDegrees>
            </Position>
            <AltitudeMeters>26.200000762939453125</AltitudeMeters>
            <DistanceMeters>NAN</DistanceMeters>
          </Trackpoint>
          <Trackpoint>
            <Time>2022-09-24T15:58:24.000Z</Time>
            <Position>
              <LatitudeDegrees>43.3772353827953338623046875</LatitudeDegrees>
              <LongitudeDegrees>-2.82564475201070308685302734375</LongitudeDegrees>
            </Position>
            <AltitudeMeters>26.200000762939453125</AltitudeMeters>
            <DistanceMeters>NAN</DistanceMeters>
          </Trackpoint>
          <Trackpoint>
            <Time>2022-09-24T15:58:25.000Z</Time>
            <Position>
              <LatitudeDegrees>43.37728022597730159759521484375</LatitudeDegrees>
              <LongitudeDegrees>-2.82568012364208698272705078125</LongitudeDegrees>
            </Position>
            <AltitudeMeters>26.3999996185302734375</AltitudeMeters>
            <DistanceMeters>NAN</DistanceMeters>
          </Trackpoint>
          <Trackpoint>
            <Time>2022-09-24T15:58:26.000Z</Time>
            <Position>
              <LatitudeDegrees>43.3773243986070156097412109375</LatitudeDegrees>
              <LongitudeDegrees>-2.8257164172828197479248046875</LongitudeDegrees>
            </Position>
            <AltitudeMeters>26.6000003814697265625</AltitudeMeters>
            <DistanceMeters>NAN</DistanceMeters>
          </Trackpoint>
          <Trackpoint>
            <Time>2022-09-24T15:58:27.000Z</Time>
            <Position>
              <LatitudeDegrees>43.3773720078170299530029296875</LatitudeDegrees>
              <LongitudeDegrees>-2.825759835541248321533203125</LongitudeDegrees>
            </Position>
            <AltitudeMeters>26.3999996185302734375</AltitudeMeters>
            <DistanceMeters>NAN</DistanceMeters>
          </Trackpoint>
          <Trackpoint>
            <Time>2022-09-24T15:58:28.000Z</Time>
            <Position>
              <LatitudeDegrees>43.37741718627512454986572265625</LatitudeDegrees>
              <LongitudeDegrees>-2.82580442726612091064453125</LongitudeDegrees>
            </Position>
            <AltitudeMeters>26.3999996185302734375</AltitudeMeters>
            <DistanceMeters>NAN</DistanceMeters>
          </Trackpoint>
          <Trackpoint>
            <Time>2022-09-24T15:58:29.000Z</Time>
            <Position>
              <LatitudeDegrees>43.37745808996260166168212890625</LatitudeDegrees>
              <LongitudeDegrees>-2.8258485160768032073974609375</LongitudeDegrees>
            </Position>
            <AltitudeMeters>26.6000003814697265625</AltitudeMeters>
            <DistanceMeters>NAN</DistanceMeters>
          </Trackpoint>
          <Trackpoint>
            <Time>2022-09-24T15:58:30.000Z</Time>
            <Position>
              <LatitudeDegrees>43.37749681435525417327880859375</LatitudeDegrees>
              <LongitudeDegrees>-2.8258994780480861663818359375</LongitudeDegrees>
            </Position>
            <AltitudeMeters>27</AltitudeMeters>
            <DistanceMeters>NAN</DistanceMeters>
          </Trackpoint>
          <Trackpoint>
            <Time>2022-09-24T15:58:31.000Z</Time>
            <Position>
              <LatitudeDegrees>43.3775349520146846771240234375</LatitudeDegrees>
              <LongitudeDegrees>-2.82595069147646427154541015625</LongitudeDegrees>
            </Position>
            <AltitudeMeters>26.799999237060546875</AltitudeMeters>
            <DistanceMeters>NAN</DistanceMeters>
          </Trackpoint>
          <Trackpoint>
            <Time>2022-09-24T15:58:32.000Z</Time>
            <Position>
              <LatitudeDegrees>43.37757426314055919647216796875</LatitudeDegrees>
              <LongitudeDegrees>-2.825995869934558868408203125</LongitudeDegrees>
            </Position>
            <AltitudeMeters>27</AltitudeMeters>
            <DistanceMeters>NAN</DistanceMeters>
          </Trackpoint>
          <Trackpoint>
            <Time>2022-09-24T15:58:33.000Z</Time>
            <Position>
              <LatitudeDegrees>43.37761332280933856964111328125</LatitudeDegrees>
              <LongitudeDegrees>-2.82603836618363857269287109375</LongitudeDegrees>
            </Position>
            <AltitudeMeters>27</AltitudeMeters>
            <DistanceMeters>NAN</DistanceMeters>
          </Trackpoint>
          <Trackpoint>
            <Time>2022-09-24T15:58:34.000Z</Time>
            <Position>
              <LatitudeDegrees>43.3776469342410564422607421875</LatitudeDegrees>
              <LongitudeDegrees>-2.8260855562984943389892578125</LongitudeDegrees>
            </Position>
            <AltitudeMeters>27.3999996185302734375</AltitudeMeters>
            <DistanceMeters>NAN</DistanceMeters>
          </Trackpoint>
          <Trackpoint>
            <Time>2022-09-24T15:58:35.000Z</Time>
            <Position>
              <LatitudeDegrees>43.37767266668379306793212890625</LatitudeDegrees>
              <LongitudeDegrees>-2.8261412121355533599853515625</LongitudeDegrees>
            </Position>
            <AltitudeMeters>27.3999996185302734375</AltitudeMeters>
            <DistanceMeters>NAN</DistanceMeters>
          </Trackpoint>
          <Trackpoint>
            <Time>2022-09-24T15:58:36.000Z</Time>
            <Position>
              <LatitudeDegrees>43.37770753540098667144775390625</LatitudeDegrees>
              <LongitudeDegrees>-2.8261940181255340576171875</LongitudeDegrees>
            </Position>
            <AltitudeMeters>27.3999996185302734375</AltitudeMeters>
            <DistanceMeters>NAN</DistanceMeters>
          </Trackpoint>
          <Trackpoint>
            <Time>2022-09-24T15:58:37.000Z</Time>
            <Position>
              <LatitudeDegrees>43.37774542160332202911376953125</LatitudeDegrees>
              <LongitudeDegrees>-2.82624405808746814727783203125</LongitudeDegrees>
            </Position>
            <AltitudeMeters>27.6000003814697265625</AltitudeMeters>
            <DistanceMeters>NAN</DistanceMeters>
          </Trackpoint>
          <Trackpoint>
            <Time>2022-09-24T15:58:38.000Z</Time>
            <Position>
              <LatitudeDegrees>43.37777995504438877105712890625</LatitudeDegrees>
              <LongitudeDegrees>-2.82629451714456081390380859375</LongitudeDegrees>
            </Position>
            <AltitudeMeters>27.799999237060546875</AltitudeMeters>
            <DistanceMeters>NAN</DistanceMeters>
          </Trackpoint>
          <Trackpoint>
            <Time>2022-09-24T15:58:39.000Z</Time>
            <Position>
              <LatitudeDegrees>43.37781180627644062042236328125</LatitudeDegrees>
              <LongitudeDegrees>-2.82634363509714603424072265625</LongitudeDegrees>
            </Position>
            <AltitudeMeters>27.799999237060546875</AltitudeMeters>
            <DistanceMeters>NAN</DistanceMeters>
          </Trackpoint>
          <Trackpoint>
            <Time>2022-09-24T15:58:40.000Z</Time>
            <Position>
              <LatitudeDegrees>43.37784650735557079315185546875</LatitudeDegrees>
              <LongitudeDegrees>-2.8263936750590801239013671875</LongitudeDegrees>
            </Position>
            <AltitudeMeters>28</AltitudeMeters>
            <DistanceMeters>NAN</DistanceMeters>
          </Trackpoint>
          <Trackpoint>
            <Time>2022-09-24T15:58:41.000Z</Time>
            <Position>
              <LatitudeDegrees>43.37788514792919158935546875</LatitudeDegrees>
              <LongitudeDegrees>-2.826437763869762420654296875</LongitudeDegrees>
            </Position>
            <AltitudeMeters>28.6000003814697265625</AltitudeMeters>
            <DistanceMeters>NAN</DistanceMeters>
          </Trackpoint>
          <Trackpoint>
            <Time>2022-09-24T15:58:42.000Z</Time>
            <Position>
              <LatitudeDegrees>43.3779315836727619171142578125</LatitudeDegrees>
              <LongitudeDegrees>-2.82647238112986087799072265625</LongitudeDegrees>
            </Position>
            <AltitudeMeters>28.799999237060546875</AltitudeMeters>
            <DistanceMeters>NAN</DistanceMeters>
          </Trackpoint>
          <Trackpoint>
            <Time>2022-09-24T15:58:43.000Z</Time>
            <Position>
              <LatitudeDegrees>43.377971984446048736572265625</LatitudeDegrees>
              <LongitudeDegrees>-2.8265123628079891204833984375</LongitudeDegrees>
            </Position>
            <AltitudeMeters>28.799999237060546875</AltitudeMeters>
            <DistanceMeters>NAN</DistanceMeters>
          </Trackpoint>
          <Trackpoint>
            <Time>2022-09-24T15:58:44.000Z</Time>
            <Position>
              <LatitudeDegrees>43.37800827808678150177001953125</LatitudeDegrees>
              <LongitudeDegrees>-2.826554775238037109375</LongitudeDegrees>
            </Position>
            <AltitudeMeters>29</AltitudeMeters>
            <DistanceMeters>NAN</DistanceMeters>
          </Trackpoint>
          <Trackpoint>
            <Time>2022-09-24T15:58:45.000Z</Time>
            <Position>
              <LatitudeDegrees>43.37804381735622882843017578125</LatitudeDegrees>
              <LongitudeDegrees>-2.82660531811416149139404296875</LongitudeDegrees>
            </Position>
            <AltitudeMeters>29.200000762939453125</AltitudeMeters>
            <DistanceMeters>NAN</DistanceMeters>
          </Trackpoint>
          <Trackpoint>
            <Time>2022-09-24T15:58:46.000Z</Time>
            <Position>
              <LatitudeDegrees>43.378077931702136993408203125</LatitudeDegrees>
              <LongitudeDegrees>-2.82664990983903408050537109375</LongitudeDegrees>
            </Position>
            <AltitudeMeters>29.3999996185302734375</AltitudeMeters>
            <DistanceMeters>NAN</DistanceMeters>
          </Trackpoint>
          <Trackpoint>
            <Time>2022-09-24T15:58:47.000Z</Time>
            <Position>
              <LatitudeDegrees>43.37810953147709369659423828125</LatitudeDegrees>
              <LongitudeDegrees>-2.82670036889612674713134765625</LongitudeDegrees>
            </Position>
            <AltitudeMeters>29.3999996185302734375</AltitudeMeters>
            <DistanceMeters>NAN</DistanceMeters>
          </Trackpoint>
          <Trackpoint>
            <Time>2022-09-24T15:58:48.000Z</Time>
            <Position>
              <LatitudeDegrees>43.3781411312520503997802734375</LatitudeDegrees>
              <LongitudeDegrees>-2.82674261368811130523681640625</LongitudeDegrees>
            </Position>
            <AltitudeMeters>29.799999237060546875</AltitudeMeters>
            <DistanceMeters>NAN</DistanceMeters>
          </Trackpoint>
          <Trackpoint>
            <Time>2022-09-24T15:58:49.000Z</Time>
            <Position>
              <LatitudeDegrees>43.378175161778926849365234375</LatitudeDegrees>
              <LongitudeDegrees>-2.82678368501365184783935546875</LongitudeDegrees>
            </Position>
            <AltitudeMeters>30.200000762939453125</AltitudeMeters>
            <DistanceMeters>NAN</DistanceMeters>
          </Trackpoint>
          <Trackpoint>
            <Time>2022-09-24T15:58:50.000Z</Time>
            <Position>
              <LatitudeDegrees>43.37820927612483501434326171875</LatitudeDegrees>
              <LongitudeDegrees>-2.82682257704436779022216796875</LongitudeDegrees>
            </Position>
            <AltitudeMeters>30.200000762939453125</AltitudeMeters>
            <DistanceMeters>NAN</DistanceMeters>
          </Trackpoint>
          <Trackpoint>
            <Time>2022-09-24T15:58:51.000Z</Time>
            <Position>
              <LatitudeDegrees>43.3782465755939483642578125</LatitudeDegrees>
              <LongitudeDegrees>-2.826864905655384063720703125</LongitudeDegrees>
            </Position>
            <AltitudeMeters>30.6000003814697265625</AltitudeMeters>
            <DistanceMeters>NAN</DistanceMeters>
          </Trackpoint>
          <Trackpoint>
            <Time>2022-09-24T15:58:52.000Z</Time>
            <Position>
              <LatitudeDegrees>43.37827834300696849822998046875</LatitudeDegrees>
              <LongitudeDegrees>-2.8269073180854320526123046875</LongitudeDegrees>
            </Position>
            <AltitudeMeters>30.799999237060546875</AltitudeMeters>
            <DistanceMeters>NAN</DistanceMeters>
          </Trackpoint>
          <Trackpoint>
            <Time>2022-09-24T15:58:53.000Z</Time>
            <Position>
              <LatitudeDegrees>43.3783134631812572479248046875</LatitudeDegrees>
              <LongitudeDegrees>-2.82694579102098941802978515625</LongitudeDegrees>
            </Position>
            <AltitudeMeters>30.799999237060546875</AltitudeMeters>
            <DistanceMeters>NAN</DistanceMeters>
          </Trackpoint>
          <Trackpoint>
            <Time>2022-09-24T15:58:54.000Z</Time>
            <Position>
              <LatitudeDegrees>43.3783419616520404815673828125</LatitudeDegrees>
              <LongitudeDegrees>-2.82698987983167171478271484375</LongitudeDegrees>
            </Position>
            <AltitudeMeters>30.799999237060546875</AltitudeMeters>
            <DistanceMeters>NAN</DistanceMeters>
          </Trackpoint>
          <Trackpoint>
            <Time>2022-09-24T15:58:55.000Z</Time>
            <Position>
              <LatitudeDegrees>43.37837322615087032318115234375</LatitudeDegrees>
              <LongitudeDegrees>-2.827029861509799957275390625</LongitudeDegrees>
            </Position>
            <AltitudeMeters>31.3999996185302734375</AltitudeMeters>
            <DistanceMeters>NAN</DistanceMeters>
          </Trackpoint>
          <Trackpoint>
            <Time>2022-09-24T15:58:56.000Z</Time>
            <Position>
              <LatitudeDegrees>43.3784066699445247650146484375</LatitudeDegrees>
              <LongitudeDegrees>-2.82706883735954761505126953125</LongitudeDegrees>
            </Position>
            <AltitudeMeters>32</AltitudeMeters>
            <DistanceMeters>NAN</DistanceMeters>
          </Trackpoint>
          <Trackpoint>
            <Time>2022-09-24T15:58:57.000Z</Time>
            <Position>
              <LatitudeDegrees>43.37844011373817920684814453125</LatitudeDegrees>
              <LongitudeDegrees>-2.82710529863834381103515625</LongitudeDegrees>
            </Position>
            <AltitudeMeters>32</AltitudeMeters>
            <DistanceMeters>NAN</DistanceMeters>
          </Trackpoint>
          <Trackpoint>
            <Time>2022-09-24T15:58:58.000Z</Time>
            <Position>
              <LatitudeDegrees>43.37847900576889514923095703125</LatitudeDegrees>
              <LongitudeDegrees>-2.82713480293750762939453125</LongitudeDegrees>
            </Position>
            <AltitudeMeters>32.200000762939453125</AltitudeMeters>
            <DistanceMeters>NAN</DistanceMeters>
          </Trackpoint>
          <Trackpoint>
            <Time>2022-09-24T15:58:59.000Z</Time>
            <Position>
              <LatitudeDegrees>43.3785196579992771148681640625</LatitudeDegrees>
              <LongitudeDegrees>-2.82716170884668827056884765625</LongitudeDegrees>
            </Position>
            <AltitudeMeters>32.40000152587890625</AltitudeMeters>
            <DistanceMeters>NAN</DistanceMeters>
          </Trackpoint>
          <Trackpoint>
            <Time>2022-09-24T15:59:00.000Z</Time>
            <Position>
              <LatitudeDegrees>43.37855880148708820343017578125</LatitudeDegrees>
              <LongitudeDegrees>-2.8271899558603763580322265625</LongitudeDegrees>
            </Position>
            <AltitudeMeters>32.799999237060546875</AltitudeMeters>
            <DistanceMeters>NAN</DistanceMeters>
          </Trackpoint>
          <Trackpoint>
            <Time>2022-09-24T15:59:01.000Z</Time>
            <Position>
              <LatitudeDegrees>43.3785977773368358612060546875</LatitudeDegrees>
              <LongitudeDegrees>-2.8272197954356670379638671875</LongitudeDegrees>
            </Position>
            <AltitudeMeters>33.200000762939453125</AltitudeMeters>
            <DistanceMeters>NAN</DistanceMeters>
          </Trackpoint>
          <Trackpoint>
            <Time>2022-09-24T15:59:02.000Z</Time>
            <Position>
              <LatitudeDegrees>43.3786349929869174957275390625</LatitudeDegrees>
              <LongitudeDegrees>-2.82725223340094089508056640625</LongitudeDegrees>
            </Position>
            <AltitudeMeters>33.40000152587890625</AltitudeMeters>
            <DistanceMeters>NAN</DistanceMeters>
          </Trackpoint>
          <Trackpoint>
            <Time>2022-09-24T15:59:03.000Z</Time>
            <Position>
              <LatitudeDegrees>43.3786745555698871612548828125</LatitudeDegrees>
              <LongitudeDegrees>-2.82728232443332672119140625</LongitudeDegrees>
            </Position>
            <AltitudeMeters>33.40000152587890625</AltitudeMeters>
            <DistanceMeters>NAN</DistanceMeters>
          </Trackpoint>
          <Trackpoint>
            <Time>2022-09-24T15:59:04.000Z</Time>
            <Position>
              <LatitudeDegrees>43.37871906347572803497314453125</LatitudeDegrees>
              <LongitudeDegrees>-2.82730721868574619293212890625</LongitudeDegrees>
            </Position>
            <AltitudeMeters>33.40000152587890625</AltitudeMeters>
            <DistanceMeters>NAN</DistanceMeters>
          </Trackpoint>
          <Trackpoint>
            <Time>2022-09-24T15:59:05.000Z</Time>
            <Position>
              <LatitudeDegrees>43.3787657506763935089111328125</LatitudeDegrees>
              <LongitudeDegrees>-2.827328927814960479736328125</LongitudeDegrees>
            </Position>
            <AltitudeMeters>33.40000152587890625</AltitudeMeters>
            <DistanceMeters>NAN</DistanceMeters>
          </Trackpoint>
          <Trackpoint>
            <Time>2022-09-24T15:59:06.000Z</Time>
            <Position>
              <LatitudeDegrees>43.37881092913448810577392578125</LatitudeDegrees>
              <LongitudeDegrees>-2.82735474407672882080078125</LongitudeDegrees>
            </Position>
            <AltitudeMeters>33.59999847412109375</AltitudeMeters>
            <DistanceMeters>NAN</DistanceMeters>
          </Trackpoint>
          <Trackpoint>
            <Time>2022-09-24T15:59:07.000Z</Time>
            <Position>
              <LatitudeDegrees>43.37885468266904354095458984375</LatitudeDegrees>
              <LongitudeDegrees>-2.82738299109041690826416015625</LongitudeDegrees>
            </Position>
            <AltitudeMeters>33.799999237060546875</AltitudeMeters>
            <DistanceMeters>NAN</DistanceMeters>
          </Trackpoint>
          <Trackpoint>
            <Time>2022-09-24T15:59:08.000Z</Time>
            <Position>
              <LatitudeDegrees>43.378899358212947845458984375</LatitudeDegrees>
              <LongitudeDegrees>-2.82741299830377101898193359375</LongitudeDegrees>
            </Position>
            <AltitudeMeters>33.799999237060546875</AltitudeMeters>
            <DistanceMeters>NAN</DistanceMeters>
          </Trackpoint>
          <Trackpoint>
            <Time>2022-09-24T15:59:09.000Z</Time>
            <Position>
              <LatitudeDegrees>43.378945626318454742431640625</LatitudeDegrees>
              <LongitudeDegrees>-2.827448956668376922607421875</LongitudeDegrees>
            </Position>
            <AltitudeMeters>33.799999237060546875</AltitudeMeters>
            <DistanceMeters>NAN</DistanceMeters>
          </Trackpoint>
          <Trackpoint>
            <Time>2022-09-24T15:59:10.000Z</Time>
            <Position>
              <LatitudeDegrees>43.3789920620620250701904296875</LatitudeDegrees>
              <LongitudeDegrees>-2.82748139463365077972412109375</LongitudeDegrees>
            </Position>
            <AltitudeMeters>34</AltitudeMeters>
            <DistanceMeters>NAN</DistanceMeters>
          </Trackpoint>
          <Trackpoint>
            <Time>2022-09-24T15:59:11.000Z</Time>
            <Position>
              <LatitudeDegrees>43.379034809768199920654296875</LatitudeDegrees>
              <LongitudeDegrees>-2.82751701772212982177734375</LongitudeDegrees>
            </Position>
            <AltitudeMeters>34</AltitudeMeters>
            <DistanceMeters>NAN</DistanceMeters>
          </Trackpoint>
          <Trackpoint>
            <Time>2022-09-24T15:59:12.000Z</Time>
            <Position>
              <LatitudeDegrees>43.3790752105414867401123046875</LatitudeDegrees>
              <LongitudeDegrees>-2.827560938894748687744140625</LongitudeDegrees>
            </Position>
            <AltitudeMeters>34</AltitudeMeters>
            <DistanceMeters>NAN</DistanceMeters>
          </Trackpoint>
          <Trackpoint>
            <Time>2022-09-24T15:59:13.000Z</Time>
            <Position>
              <LatitudeDegrees>43.37911435402929782867431640625</LatitudeDegrees>
              <LongitudeDegrees>-2.82760418951511383056640625</LongitudeDegrees>
            </Position>
            <AltitudeMeters>34</AltitudeMeters>
            <DistanceMeters>NAN</DistanceMeters>
          </Trackpoint>
          <Trackpoint>
            <Time>2022-09-24T15:59:14.000Z</Time>
            <Position>
              <LatitudeDegrees>43.379151821136474609375</LatitudeDegrees>
              <LongitudeDegrees>-2.82764718867838382720947265625</LongitudeDegrees>
            </Position>
            <AltitudeMeters>34</AltitudeMeters>
            <DistanceMeters>NAN</DistanceMeters>
          </Trackpoint>
          <Trackpoint>
            <Time>2022-09-24T15:59:15.000Z</Time>
            <Position>
              <LatitudeDegrees>43.3791907131671905517578125</LatitudeDegrees>
              <LongitudeDegrees>-2.82769404351711273193359375</LongitudeDegrees>
            </Position>
            <AltitudeMeters>34</AltitudeMeters>
            <DistanceMeters>NAN</DistanceMeters>
          </Trackpoint>
          <Trackpoint>
            <Time>2022-09-24T15:59:16.000Z</Time>
            <Position>
              <LatitudeDegrees>43.37922935374081134796142578125</LatitudeDegrees>
              <LongitudeDegrees>-2.8277418203651905059814453125</LongitudeDegrees>
            </Position>
            <AltitudeMeters>34</AltitudeMeters>
            <DistanceMeters>NAN</DistanceMeters>
          </Trackpoint>
          <Trackpoint>
            <Time>2022-09-24T15:59:17.000Z</Time>
            <Position>
              <LatitudeDegrees>43.37926690466701984405517578125</LatitudeDegrees>
              <LongitudeDegrees>-2.8277867473661899566650390625</LongitudeDegrees>
            </Position>
            <AltitudeMeters>34</AltitudeMeters>
            <DistanceMeters>NAN</DistanceMeters>
          </Trackpoint>
          <Trackpoint>
            <Time>2022-09-24T15:59:18.000Z</Time>
            <Position>
              <LatitudeDegrees>43.379308395087718963623046875</LatitudeDegrees>
              <LongitudeDegrees>-2.82783460803329944610595703125</LongitudeDegrees>
            </Position>
            <AltitudeMeters>34</AltitudeMeters>
            <DistanceMeters>NAN</DistanceMeters>
          </Trackpoint>
          <Trackpoint>
            <Time>2022-09-24T15:59:19.000Z</Time>
            <Position>
              <LatitudeDegrees>43.37934904731810092926025390625</LatitudeDegrees>
              <LongitudeDegrees>-2.827880121767520904541015625</LongitudeDegrees>
            </Position>
            <AltitudeMeters>34.200000762939453125</AltitudeMeters>
            <DistanceMeters>NAN</DistanceMeters>
          </Trackpoint>
          <Trackpoint>
            <Time>2022-09-24T15:59:20.000Z</Time>
            <Position>
              <LatitudeDegrees>43.37939254939556121826171875</LatitudeDegrees>
              <LongitudeDegrees>-2.82792496494948863983154296875</LongitudeDegrees>
            </Position>
            <AltitudeMeters>34.40000152587890625</AltitudeMeters>
            <DistanceMeters>NAN</DistanceMeters>
          </Trackpoint>
          <Trackpoint>
            <Time>2022-09-24T15:59:21.000Z</Time>
            <Position>
              <LatitudeDegrees>43.37943471036851406097412109375</LatitudeDegrees>
              <LongitudeDegrees>-2.82796762883663177490234375</LongitudeDegrees>
            </Position>
            <AltitudeMeters>34.59999847412109375</AltitudeMeters>
            <DistanceMeters>NAN</DistanceMeters>
          </Trackpoint>
          <Trackpoint>
            <Time>2022-09-24T15:59:22.000Z</Time>
            <Position>
              <LatitudeDegrees>43.3794798888266086578369140625</LatitudeDegrees>
              <LongitudeDegrees>-2.828008197247982025146484375</LongitudeDegrees>
            </Position>
            <AltitudeMeters>34.59999847412109375</AltitudeMeters>
            <DistanceMeters>NAN</DistanceMeters>
          </Trackpoint>
          <Trackpoint>
            <Time>2022-09-24T15:59:23.000Z</Time>
            <Position>
              <LatitudeDegrees>43.3795207925140857696533203125</LatitudeDegrees>
              <LongitudeDegrees>-2.828040383756160736083984375</LongitudeDegrees>
            </Position>
            <AltitudeMeters>35</AltitudeMeters>
            <DistanceMeters>NAN</DistanceMeters>
          </Trackpoint>
          <Trackpoint>
            <Time>2022-09-24T15:59:24.000Z</Time>
            <Position>
              <LatitudeDegrees>43.3795714192092418670654296875</LatitudeDegrees>
              <LongitudeDegrees>-2.82806712202727794647216796875</LongitudeDegrees>
            </Position>
            <AltitudeMeters>35</AltitudeMeters>
            <DistanceMeters>NAN</DistanceMeters>
          </Trackpoint>
          <Trackpoint>
            <Time>2022-09-24T15:59:25.000Z</Time>
            <Position>
              <LatitudeDegrees>43.3796190284192562103271484375</LatitudeDegrees>
              <LongitudeDegrees>-2.8280861489474773406982421875</LongitudeDegrees>
            </Position>
            <AltitudeMeters>35</AltitudeMeters>
            <DistanceMeters>NAN</DistanceMeters>
          </Trackpoint>
          <Trackpoint>
            <Time>2022-09-24T15:59:26.000Z</Time>
            <Position>
              <LatitudeDegrees>43.3796708285808563232421875</LatitudeDegrees>
              <LongitudeDegrees>-2.8281005658209323883056640625</LongitudeDegrees>
            </Position>
            <AltitudeMeters>35.200000762939453125</AltitudeMeters>
            <DistanceMeters>NAN</DistanceMeters>
          </Trackpoint>
          <Trackpoint>
            <Time>2022-09-24T15:59:27.000Z</Time>
            <Position>
              <LatitudeDegrees>43.37972338311374187469482421875</LatitudeDegrees>
              <LongitudeDegrees>-2.8281166590750217437744140625</LongitudeDegrees>
            </Position>
            <AltitudeMeters>35.200000762939453125</AltitudeMeters>
            <DistanceMeters>NAN</DistanceMeters>
          </Trackpoint>
          <Trackpoint>
            <Time>2022-09-24T15:59:28.000Z</Time>
            <Position>
              <LatitudeDegrees>43.37977300398051738739013671875</LatitudeDegrees>
              <LongitudeDegrees>-2.82813618890941143035888671875</LongitudeDegrees>
            </Position>
            <AltitudeMeters>35.200000762939453125</AltitudeMeters>
            <DistanceMeters>NAN</DistanceMeters>
          </Trackpoint>
          <Trackpoint>
            <Time>2022-09-24T15:59:29.000Z</Time>
            <Position>
              <LatitudeDegrees>43.3798245526850223541259765625</LatitudeDegrees>
              <LongitudeDegrees>-2.8281532041728496551513671875</LongitudeDegrees>
            </Position>
            <AltitudeMeters>35.40000152587890625</AltitudeMeters>
            <DistanceMeters>NAN</DistanceMeters>
          </Trackpoint>
          <Trackpoint>
            <Time>2022-09-24T15:59:30.000Z</Time>
            <Position>
              <LatitudeDegrees>43.37986989878118038177490234375</LatitudeDegrees>
              <LongitudeDegrees>-2.8281716443598270416259765625</LongitudeDegrees>
            </Position>
            <AltitudeMeters>35.59999847412109375</AltitudeMeters>
            <DistanceMeters>NAN</DistanceMeters>
          </Trackpoint>
          <Trackpoint>
            <Time>2022-09-24T15:59:31.000Z</Time>
            <Position>
              <LatitudeDegrees>43.3799160830676555633544921875</LatitudeDegrees>
              <LongitudeDegrees>-2.82819821499288082122802734375</LongitudeDegrees>
            </Position>
            <AltitudeMeters>36.200000762939453125</AltitudeMeters>
            <DistanceMeters>NAN</DistanceMeters>
          </Trackpoint>
          <Trackpoint>
            <Time>2022-09-24T15:59:32.000Z</Time>
            <Position>
              <LatitudeDegrees>43.379963524639606475830078125</LatitudeDegrees>
              <LongitudeDegrees>-2.82822805456817150115966796875</LongitudeDegrees>
            </Position>
            <AltitudeMeters>36.200000762939453125</AltitudeMeters>
            <DistanceMeters>NAN</DistanceMeters>
          </Trackpoint>
          <Trackpoint>
            <Time>2022-09-24T15:59:33.000Z</Time>
            <Position>
              <LatitudeDegrees>43.38000635616481304168701171875</LatitudeDegrees>
              <LongitudeDegrees>-2.82826158218085765838623046875</LongitudeDegrees>
            </Position>
            <AltitudeMeters>36.200000762939453125</AltitudeMeters>
            <DistanceMeters>NAN</DistanceMeters>
          </Trackpoint>
          <Trackpoint>
            <Time>2022-09-24T15:59:34.000Z</Time>
            <Position>
              <LatitudeDegrees>43.38004424236714839935302734375</LatitudeDegrees>
              <LongitudeDegrees>-2.82830248586833477020263671875</LongitudeDegrees>
            </Position>
            <AltitudeMeters>36.200000762939453125</AltitudeMeters>
            <DistanceMeters>NAN</DistanceMeters>
          </Trackpoint>
          <Trackpoint>
            <Time>2022-09-24T15:59:35.000Z</Time>
            <Position>
              <LatitudeDegrees>43.38007785379886627197265625</LatitudeDegrees>
              <LongitudeDegrees>-2.8283453173935413360595703125</LongitudeDegrees>
            </Position>
            <AltitudeMeters>36.59999847412109375</AltitudeMeters>
            <DistanceMeters>NAN</DistanceMeters>
          </Trackpoint>
          <Trackpoint>
            <Time>2022-09-24T15:59:36.000Z</Time>
            <Position>
              <LatitudeDegrees>43.3801138959825038909912109375</LatitudeDegrees>
              <LongitudeDegrees>-2.82839066348969936370849609375</LongitudeDegrees>
            </Position>
            <AltitudeMeters>36.799999237060546875</AltitudeMeters>
            <DistanceMeters>NAN</DistanceMeters>
          </Trackpoint>
          <Trackpoint>
            <Time>2022-09-24T15:59:37.000Z</Time>
            <Position>
              <LatitudeDegrees>43.380150608718395233154296875</LatitudeDegrees>
              <LongitudeDegrees>-2.828436680138111114501953125</LongitudeDegrees>
            </Position>
            <AltitudeMeters>36.799999237060546875</AltitudeMeters>
            <DistanceMeters>NAN</DistanceMeters>
          </Trackpoint>
          <Trackpoint>
            <Time>2022-09-24T15:59:38.000Z</Time>
            <Position>
              <LatitudeDegrees>43.380182124674320220947265625</LatitudeDegrees>
              <LongitudeDegrees>-2.82848261296749114990234375</LongitudeDegrees>
            </Position>
            <AltitudeMeters>36.799999237060546875</AltitudeMeters>
            <DistanceMeters>NAN</DistanceMeters>
          </Trackpoint>
          <Trackpoint>
            <Time>2022-09-24T15:59:39.000Z</Time>
            <Position>
              <LatitudeDegrees>43.38021372444927692413330078125</LatitudeDegrees>
              <LongitudeDegrees>-2.8285166434943675994873046875</LongitudeDegrees>
            </Position>
            <AltitudeMeters>37.40000152587890625</AltitudeMeters>
            <DistanceMeters>NAN</DistanceMeters>
          </Trackpoint>
          <Trackpoint>
            <Time>2022-09-24T15:59:40.000Z</Time>
            <Position>
              <LatitudeDegrees>43.38024339638650417327880859375</LatitudeDegrees>
              <LongitudeDegrees>-2.8285619057714939117431640625</LongitudeDegrees>
            </Position>
            <AltitudeMeters>37.59999847412109375</AltitudeMeters>
            <DistanceMeters>NAN</DistanceMeters>
          </Trackpoint>
          <Trackpoint>
            <Time>2022-09-24T15:59:41.000Z</Time>
            <Position>
              <LatitudeDegrees>43.38024339638650417327880859375</LatitudeDegrees>
              <LongitudeDegrees>-2.8285619057714939117431640625</LongitudeDegrees>
            </Position>
            <AltitudeMeters>37.59999847412109375</AltitudeMeters>
            <DistanceMeters>NAN</DistanceMeters>
          </Trackpoint>
          <Trackpoint>
            <Time>2022-09-24T15:59:42.000Z</Time>
            <Position>
              <LatitudeDegrees>43.38029838167130947113037109375</LatitudeDegrees>
              <LongitudeDegrees>-2.82865888439118862152099609375</LongitudeDegrees>
            </Position>
            <AltitudeMeters>38</AltitudeMeters>
            <DistanceMeters>NAN</DistanceMeters>
          </Trackpoint>
          <Trackpoint>
            <Time>2022-09-24T15:59:43.000Z</Time>
            <Position>
              <LatitudeDegrees>43.380326293408870697021484375</LatitudeDegrees>
              <LongitudeDegrees>-2.82870515249669551849365234375</LongitudeDegrees>
            </Position>
            <AltitudeMeters>38.200000762939453125</AltitudeMeters>
            <DistanceMeters>NAN</DistanceMeters>
          </Trackpoint>
          <Trackpoint>
            <Time>2022-09-24T15:59:44.000Z</Time>
            <Position>
              <LatitudeDegrees>43.38035269640386104583740234375</LatitudeDegrees>
              <LongitudeDegrees>-2.828756868839263916015625</LongitudeDegrees>
            </Position>
            <AltitudeMeters>38.40000152587890625</AltitudeMeters>
            <DistanceMeters>NAN</DistanceMeters>
          </Trackpoint>
          <Trackpoint>
            <Time>2022-09-24T15:59:45.000Z</Time>
            <Position>
              <LatitudeDegrees>43.380377255380153656005859375</LatitudeDegrees>
              <LongitudeDegrees>-2.82880975864827632904052734375</LongitudeDegrees>
            </Position>
            <AltitudeMeters>38.40000152587890625</AltitudeMeters>
            <DistanceMeters>NAN</DistanceMeters>
          </Trackpoint>
          <Trackpoint>
            <Time>2022-09-24T15:59:46.000Z</Time>
            <Position>
              <LatitudeDegrees>43.3803978748619556427001953125</LatitudeDegrees>
              <LongitudeDegrees>-2.8288643248379230499267578125</LongitudeDegrees>
            </Position>
            <AltitudeMeters>38.799999237060546875</AltitudeMeters>
            <DistanceMeters>NAN</DistanceMeters>
          </Trackpoint>
          <Trackpoint>
            <Time>2022-09-24T15:59:47.000Z</Time>
            <Position>
              <LatitudeDegrees>43.3804136328399181365966796875</LatitudeDegrees>
              <LongitudeDegrees>-2.82891578972339630126953125</LongitudeDegrees>
            </Position>
            <AltitudeMeters>39</AltitudeMeters>
            <DistanceMeters>NAN</DistanceMeters>
          </Trackpoint>
          <Trackpoint>
            <Time>2022-09-24T15:59:48.000Z</Time>
            <Position>
              <LatitudeDegrees>43.3804230205714702606201171875</LatitudeDegrees>
              <LongitudeDegrees>-2.82896767370402812957763671875</LongitudeDegrees>
            </Position>
            <AltitudeMeters>39.40000152587890625</AltitudeMeters>
            <DistanceMeters>NAN</DistanceMeters>
          </Trackpoint>
          <Trackpoint>
            <Time>2022-09-24T15:59:49.000Z</Time>
            <Position>
              <LatitudeDegrees>43.38043601252138614654541015625</LatitudeDegrees>
              <LongitudeDegrees>-2.8290125168859958648681640625</LongitudeDegrees>
            </Position>
            <AltitudeMeters>39.59999847412109375</AltitudeMeters>
            <DistanceMeters>NAN</DistanceMeters>
          </Trackpoint>
          <Trackpoint>
            <Time>2022-09-24T15:59:50.000Z</Time>
            <Position>
              <LatitudeDegrees>43.38045210577547550201416015625</LatitudeDegrees>
              <LongitudeDegrees>-2.82906490378081798553466796875</LongitudeDegrees>
            </Position>
            <AltitudeMeters>39.799999237060546875</AltitudeMeters>
            <DistanceMeters>NAN</DistanceMeters>
          </Trackpoint>
          <Trackpoint>
            <Time>2022-09-24T15:59:51.000Z</Time>
            <Position>
              <LatitudeDegrees>43.3804692886769771575927734375</LatitudeDegrees>
              <LongitudeDegrees>-2.829118631780147552490234375</LongitudeDegrees>
            </Position>
            <AltitudeMeters>39.799999237060546875</AltitudeMeters>
            <DistanceMeters>NAN</DistanceMeters>
          </Trackpoint>
          <Trackpoint>
            <Time>2022-09-24T15:59:52.000Z</Time>
            <Position>
              <LatitudeDegrees>43.3804840408265590667724609375</LatitudeDegrees>
              <LongitudeDegrees>-2.82917655073106288909912109375</LongitudeDegrees>
            </Position>
            <AltitudeMeters>40</AltitudeMeters>
            <DistanceMeters>NAN</DistanceMeters>
          </Trackpoint>
          <Trackpoint>
            <Time>2022-09-24T15:59:53.000Z</Time>
            <Position>
              <LatitudeDegrees>43.3804981224238872528076171875</LatitudeDegrees>
              <LongitudeDegrees>-2.829236648976802825927734375</LongitudeDegrees>
            </Position>
            <AltitudeMeters>40</AltitudeMeters>
            <DistanceMeters>NAN</DistanceMeters>
          </Trackpoint>
          <Trackpoint>
            <Time>2022-09-24T15:59:54.000Z</Time>
            <Position>
              <LatitudeDegrees>43.38051463477313518524169921875</LatitudeDegrees>
              <LongitudeDegrees>-2.82929599285125732421875</LongitudeDegrees>
            </Position>
            <AltitudeMeters>40.40000152587890625</AltitudeMeters>
            <DistanceMeters>NAN</DistanceMeters>
          </Trackpoint>
          <Trackpoint>
            <Time>2022-09-24T15:59:55.000Z</Time>
            <Position>
              <LatitudeDegrees>43.38053441606462001800537109375</LatitudeDegrees>
              <LongitudeDegrees>-2.829347960650920867919921875</LongitudeDegrees>
            </Position>
            <AltitudeMeters>40.59999847412109375</AltitudeMeters>
            <DistanceMeters>NAN</DistanceMeters>
          </Trackpoint>
          <Trackpoint>
            <Time>2022-09-24T15:59:56.000Z</Time>
            <Position>
              <LatitudeDegrees>43.3805477432906627655029296875</LatitudeDegrees>
              <LongitudeDegrees>-2.82940437085926532745361328125</LongitudeDegrees>
            </Position>
            <AltitudeMeters>40.59999847412109375</AltitudeMeters>
            <DistanceMeters>NAN</DistanceMeters>
          </Trackpoint>
          <Trackpoint>
            <Time>2022-09-24T15:59:57.000Z</Time>
            <Position>
              <LatitudeDegrees>43.38056492619216442108154296875</LatitudeDegrees>
              <LongitudeDegrees>-2.82946103252470493316650390625</LongitudeDegrees>
            </Position>
            <AltitudeMeters>40.799999237060546875</AltitudeMeters>
            <DistanceMeters>NAN</DistanceMeters>
          </Trackpoint>
          <Trackpoint>
            <Time>2022-09-24T15:59:58.000Z</Time>
            <Position>
              <LatitudeDegrees>43.38058604858815670013427734375</LatitudeDegrees>
              <LongitudeDegrees>-2.82952020876109600067138671875</LongitudeDegrees>
            </Position>
            <AltitudeMeters>41.200000762939453125</AltitudeMeters>
            <DistanceMeters>NAN</DistanceMeters>
          </Trackpoint>
          <Trackpoint>
            <Time>2022-09-24T15:59:59.000Z</Time>
            <Position>
              <LatitudeDegrees>43.380611278116703033447265625</LatitudeDegrees>
              <LongitudeDegrees>-2.8295754455029964447021484375</LongitudeDegrees>
            </Position>
            <AltitudeMeters>41.40000152587890625</AltitudeMeters>
            <DistanceMeters>NAN</DistanceMeters>
          </Trackpoint>
          <Trackpoint>
            <Time>2022-09-24T16:00:00.000Z</Time>
            <Position>
              <LatitudeDegrees>43.3806342445313930511474609375</LatitudeDegrees>
              <LongitudeDegrees>-2.8296274133026599884033203125</LongitudeDegrees>
            </Position>
            <AltitudeMeters>41.40000152587890625</AltitudeMeters>
            <DistanceMeters>NAN</DistanceMeters>
          </Trackpoint>
          <Trackpoint>
            <Time>2022-09-24T16:00:01.000Z</Time>
            <Position>
              <LatitudeDegrees>43.3806624077260494232177734375</LatitudeDegrees>
              <LongitudeDegrees>-2.82967125065624713897705078125</LongitudeDegrees>
            </Position>
            <AltitudeMeters>41.59999847412109375</AltitudeMeters>
            <DistanceMeters>NAN</DistanceMeters>
          </Trackpoint>
          <Trackpoint>
            <Time>2022-09-24T16:00:02.000Z</Time>
            <Position>
              <LatitudeDegrees>43.38068847544491291046142578125</LatitudeDegrees>
              <LongitudeDegrees>-2.829711735248565673828125</LongitudeDegrees>
            </Position>
            <AltitudeMeters>41.59999847412109375</AltitudeMeters>
            <DistanceMeters>NAN</DistanceMeters>
          </Trackpoint>
          <Trackpoint>
            <Time>2022-09-24T16:00:03.000Z</Time>
            <Position>
              <LatitudeDegrees>43.3807157166302204132080078125</LatitudeDegrees>
              <LongitudeDegrees>-2.8297538124024868011474609375</LongitudeDegrees>
            </Position>
            <AltitudeMeters>41.799999237060546875</AltitudeMeters>
            <DistanceMeters>NAN</DistanceMeters>
          </Trackpoint>
          <Trackpoint>
            <Time>2022-09-24T16:00:04.000Z</Time>
            <Position>
              <LatitudeDegrees>43.38074513711035251617431640625</LatitudeDegrees>
              <LongitudeDegrees>-2.82979211769998073577880859375</LongitudeDegrees>
            </Position>
            <AltitudeMeters>42</AltitudeMeters>
            <DistanceMeters>NAN</DistanceMeters>
          </Trackpoint>
          <Trackpoint>
            <Time>2022-09-24T16:00:05.000Z</Time>
            <Position>
              <LatitudeDegrees>43.380776233971118927001953125</LatitudeDegrees>
              <LongitudeDegrees>-2.82982246018946170806884765625</LongitudeDegrees>
            </Position>
            <AltitudeMeters>42</AltitudeMeters>
            <DistanceMeters>NAN</DistanceMeters>
          </Trackpoint>
          <Trackpoint>
            <Time>2022-09-24T16:00:06.000Z</Time>
            <Position>
              <LatitudeDegrees>43.38080741465091705322265625</LatitudeDegrees>
              <LongitudeDegrees>-2.82985330559313297271728515625</LongitudeDegrees>
            </Position>
            <AltitudeMeters>42</AltitudeMeters>
            <DistanceMeters>NAN</DistanceMeters>
          </Trackpoint>
          <Trackpoint>
            <Time>2022-09-24T16:00:07.000Z</Time>
            <Position>
              <LatitudeDegrees>43.3808407746255397796630859375</LatitudeDegrees>
              <LongitudeDegrees>-2.829879038035869598388671875</LongitudeDegrees>
            </Position>
            <AltitudeMeters>42.40000152587890625</AltitudeMeters>
            <DistanceMeters>NAN</DistanceMeters>
          </Trackpoint>
          <Trackpoint>
            <Time>2022-09-24T16:00:08.000Z</Time>
            <Position>
              <LatitudeDegrees>43.3808753080666065216064453125</LatitudeDegrees>
              <LongitudeDegrees>-2.82989957369863986968994140625</LongitudeDegrees>
            </Position>
            <AltitudeMeters>42.59999847412109375</AltitudeMeters>
            <DistanceMeters>NAN</DistanceMeters>
          </Trackpoint>
          <Trackpoint>
            <Time>2022-09-24T16:00:09.000Z</Time>
            <Position>
              <LatitudeDegrees>43.3809078298509120941162109375</LatitudeDegrees>
              <LongitudeDegrees>-2.82992430031299591064453125</LongitudeDegrees>
            </Position>
            <AltitudeMeters>42.59999847412109375</AltitudeMeters>
            <DistanceMeters>NAN</DistanceMeters>
          </Trackpoint>
          <Trackpoint>
            <Time>2022-09-24T16:00:10.000Z</Time>
            <Position>
              <LatitudeDegrees>43.380939178168773651123046875</LatitudeDegrees>
              <LongitudeDegrees>-2.82995036803185939788818359375</LongitudeDegrees>
            </Position>
            <AltitudeMeters>42.799999237060546875</AltitudeMeters>
            <DistanceMeters>NAN</DistanceMeters>
          </Trackpoint>
          <Trackpoint>
            <Time>2022-09-24T16:00:11.000Z</Time>
            <Position>
              <LatitudeDegrees>43.380969353020191192626953125</LatitudeDegrees>
              <LongitudeDegrees>-2.8299764357507228851318359375</LongitudeDegrees>
            </Position>
            <AltitudeMeters>43.40000152587890625</AltitudeMeters>
            <DistanceMeters>NAN</DistanceMeters>
          </Trackpoint>
          <Trackpoint>
            <Time>2022-09-24T16:00:12.000Z</Time>
            <Position>
              <LatitudeDegrees>43.380999527871608734130859375</LatitudeDegrees>
              <LongitudeDegrees>-2.83000267110764980316162109375</LongitudeDegrees>
            </Position>
            <AltitudeMeters>43.59999847412109375</AltitudeMeters>
            <DistanceMeters>NAN</DistanceMeters>
          </Trackpoint>
          <Trackpoint>
            <Time>2022-09-24T16:00:13.000Z</Time>
            <Position>
              <LatitudeDegrees>43.381030373275279998779296875</LatitudeDegrees>
              <LongitudeDegrees>-2.83003100194036960601806640625</LongitudeDegrees>
            </Position>
            <AltitudeMeters>44</AltitudeMeters>
            <DistanceMeters>NAN</DistanceMeters>
          </Trackpoint>
          <Trackpoint>
            <Time>2022-09-24T16:00:14.000Z</Time>
            <Position>
              <LatitudeDegrees>43.38106046430766582489013671875</LatitudeDegrees>
              <LongitudeDegrees>-2.83005866222083568572998046875</LongitudeDegrees>
            </Position>
            <AltitudeMeters>44.200000762939453125</AltitudeMeters>
            <DistanceMeters>NAN</DistanceMeters>
          </Trackpoint>
          <Trackpoint>
            <Time>2022-09-24T16:00:15.000Z</Time>
            <Position>
              <LatitudeDegrees>43.3810895495116710662841796875</LatitudeDegrees>
              <LongitudeDegrees>-2.83008632250130176544189453125</LongitudeDegrees>
            </Position>
            <AltitudeMeters>44.200000762939453125</AltitudeMeters>
            <DistanceMeters>NAN</DistanceMeters>
          </Trackpoint>
          <Trackpoint>
            <Time>2022-09-24T16:00:16.000Z</Time>
            <Position>
              <LatitudeDegrees>43.38111595250666141510009765625</LatitudeDegrees>
              <LongitudeDegrees>-2.8301132284104824066162109375</LongitudeDegrees>
            </Position>
            <AltitudeMeters>44.40000152587890625</AltitudeMeters>
            <DistanceMeters>NAN</DistanceMeters>
          </Trackpoint>
          <Trackpoint>
            <Time>2022-09-24T16:00:17.000Z</Time>
            <Position>
              <LatitudeDegrees>43.38114562444388866424560546875</LatitudeDegrees>
              <LongitudeDegrees>-2.83014290034770965576171875</LongitudeDegrees>
            </Position>
            <AltitudeMeters>44.40000152587890625</AltitudeMeters>
            <DistanceMeters>NAN</DistanceMeters>
          </Trackpoint>
          <Trackpoint>
            <Time>2022-09-24T16:00:18.000Z</Time>
            <Position>
              <LatitudeDegrees>43.3811773918569087982177734375</LatitudeDegrees>
              <LongitudeDegrees>-2.83017734996974468231201171875</LongitudeDegrees>
            </Position>
            <AltitudeMeters>44.40000152587890625</AltitudeMeters>
            <DistanceMeters>NAN</DistanceMeters>
          </Trackpoint>
          <Trackpoint>
            <Time>2022-09-24T16:00:19.000Z</Time>
            <Position>
              <LatitudeDegrees>43.3812062256038188934326171875</LatitudeDegrees>
              <LongitudeDegrees>-2.83021305687725543975830078125</LongitudeDegrees>
            </Position>
            <AltitudeMeters>45</AltitudeMeters>
            <DistanceMeters>NAN</DistanceMeters>
          </Trackpoint>
          <Trackpoint>
            <Time>2022-09-24T16:00:20.000Z</Time>
            <Position>
              <LatitudeDegrees>43.381233550608158111572265625</LatitudeDegrees>
              <LongitudeDegrees>-2.8302456624805927276611328125</LongitudeDegrees>
            </Position>
            <AltitudeMeters>45.40000152587890625</AltitudeMeters>
            <DistanceMeters>NAN</DistanceMeters>
          </Trackpoint>
          <Trackpoint>
            <Time>2022-09-24T16:00:21.000Z</Time>
            <Position>
              <LatitudeDegrees>43.381233550608158111572265625</LatitudeDegrees>
              <LongitudeDegrees>-2.8302456624805927276611328125</LongitudeDegrees>
            </Position>
            <AltitudeMeters>45.799999237060546875</AltitudeMeters>
            <DistanceMeters>NAN</DistanceMeters>
          </Trackpoint>
          <Trackpoint>
            <Time>2022-09-24T16:00:22.000Z</Time>
            <Position>
              <LatitudeDegrees>43.38129423558712005615234375</LatitudeDegrees>
              <LongitudeDegrees>-2.83031799830496311187744140625</LongitudeDegrees>
            </Position>
            <AltitudeMeters>45.799999237060546875</AltitudeMeters>
            <DistanceMeters>NAN</DistanceMeters>
          </Trackpoint>
          <Trackpoint>
            <Time>2022-09-24T16:00:23.000Z</Time>
            <Position>
              <LatitudeDegrees>43.38131703436374664306640625</LatitudeDegrees>
              <LongitudeDegrees>-2.83034968189895153045654296875</LongitudeDegrees>
            </Position>
            <AltitudeMeters>46.40000152587890625</AltitudeMeters>
            <DistanceMeters>NAN</DistanceMeters>
          </Trackpoint>
          <Trackpoint>
            <Time>2022-09-24T16:00:24.000Z</Time>
            <Position>
              <LatitudeDegrees>43.38134427554905414581298828125</LatitudeDegrees>
              <LongitudeDegrees>-2.8303831256926059722900390625</LongitudeDegrees>
            </Position>
            <AltitudeMeters>46.40000152587890625</AltitudeMeters>
            <DistanceMeters>NAN</DistanceMeters>
          </Trackpoint>
          <Trackpoint>
            <Time>2022-09-24T16:00:25.000Z</Time>
            <Position>
              <LatitudeDegrees>43.38137361221015453338623046875</LatitudeDegrees>
              <LongitudeDegrees>-2.83041271381080150604248046875</LongitudeDegrees>
            </Position>
            <AltitudeMeters>46.40000152587890625</AltitudeMeters>
            <DistanceMeters>NAN</DistanceMeters>
          </Trackpoint>
          <Trackpoint>
            <Time>2022-09-24T16:00:26.000Z</Time>
            <Position>
              <LatitudeDegrees>43.3814016915857791900634765625</LatitudeDegrees>
              <LongitudeDegrees>-2.83044674433767795562744140625</LongitudeDegrees>
            </Position>
            <AltitudeMeters>46.40000152587890625</AltitudeMeters>
            <DistanceMeters>NAN</DistanceMeters>
          </Trackpoint>
          <Trackpoint>
            <Time>2022-09-24T16:00:27.000Z</Time>
            <Position>
              <LatitudeDegrees>43.381429016590118408203125</LatitudeDegrees>
              <LongitudeDegrees>-2.83048345707356929779052734375</LongitudeDegrees>
            </Position>
            <AltitudeMeters>46.799999237060546875</AltitudeMeters>
            <DistanceMeters>NAN</DistanceMeters>
          </Trackpoint>
          <Trackpoint>
            <Time>2022-09-24T16:00:28.000Z</Time>
            <Position>
              <LatitudeDegrees>43.38145382702350616455078125</LatitudeDegrees>
              <LongitudeDegrees>-2.83052067272365093231201171875</LongitudeDegrees>
            </Position>
            <AltitudeMeters>46.799999237060546875</AltitudeMeters>
            <DistanceMeters>NAN</DistanceMeters>
          </Trackpoint>
          <Trackpoint>
            <Time>2022-09-24T16:00:29.000Z</Time>
            <Position>
              <LatitudeDegrees>43.38147721253335475921630859375</LatitudeDegrees>
              <LongitudeDegrees>-2.8305584751069545745849609375</LongitudeDegrees>
            </Position>
            <AltitudeMeters>47</AltitudeMeters>
            <DistanceMeters>NAN</DistanceMeters>
          </Trackpoint>
          <Trackpoint>
            <Time>2022-09-24T16:00:30.000Z</Time>
            <Position>
              <LatitudeDegrees>43.38149917311966419219970703125</LatitudeDegrees>
              <LongitudeDegrees>-2.83059543929994106292724609375</LongitudeDegrees>
            </Position>
            <AltitudeMeters>47.200000762939453125</AltitudeMeters>
            <DistanceMeters>NAN</DistanceMeters>
          </Trackpoint>
          <Trackpoint>
            <Time>2022-09-24T16:00:31.000Z</Time>
            <Position>
              <LatitudeDegrees>43.3815223909914493560791015625</LatitudeDegrees>
              <LongitudeDegrees>-2.83063131384551525115966796875</LongitudeDegrees>
            </Position>
            <AltitudeMeters>47.40000152587890625</AltitudeMeters>
            <DistanceMeters>NAN</DistanceMeters>
          </Trackpoint>
          <Trackpoint>
            <Time>2022-09-24T16:00:32.000Z</Time>
            <Position>
              <LatitudeDegrees>43.38154829107224941253662109375</LatitudeDegrees>
              <LongitudeDegrees>-2.83066718839108943939208984375</LongitudeDegrees>
            </Position>
            <AltitudeMeters>47.59999847412109375</AltitudeMeters>
            <DistanceMeters>NAN</DistanceMeters>
          </Trackpoint>
          <Trackpoint>
            <Time>2022-09-24T16:00:33.000Z</Time>
            <Position>
              <LatitudeDegrees>43.38157544843852519989013671875</LatitudeDegrees>
              <LongitudeDegrees>-2.8307056613266468048095703125</LongitudeDegrees>
            </Position>
            <AltitudeMeters>48.200000762939453125</AltitudeMeters>
            <DistanceMeters>NAN</DistanceMeters>
          </Trackpoint>
          <Trackpoint>
            <Time>2022-09-24T16:00:34.000Z</Time>
            <Position>
              <LatitudeDegrees>43.3816015161573886871337890625</LatitudeDegrees>
              <LongitudeDegrees>-2.830744050443172454833984375</LongitudeDegrees>
            </Position>
            <AltitudeMeters>48.40000152587890625</AltitudeMeters>
            <DistanceMeters>NAN</DistanceMeters>
          </Trackpoint>
          <Trackpoint>
            <Time>2022-09-24T16:00:35.000Z</Time>
            <Position>
              <LatitudeDegrees>43.3816259913146495819091796875</LatitudeDegrees>
              <LongitudeDegrees>-2.83077967353165149688720703125</LongitudeDegrees>
            </Position>
            <AltitudeMeters>48.40000152587890625</AltitudeMeters>
            <DistanceMeters>NAN</DistanceMeters>
          </Trackpoint>
          <Trackpoint>
            <Time>2022-09-24T16:00:36.000Z</Time>
            <Position>
              <LatitudeDegrees>43.38165222667157649993896484375</LatitudeDegrees>
              <LongitudeDegrees>-2.8308132849633693695068359375</LongitudeDegrees>
            </Position>
            <AltitudeMeters>48.40000152587890625</AltitudeMeters>
            <DistanceMeters>NAN</DistanceMeters>
          </Trackpoint>
          <Trackpoint>
            <Time>2022-09-24T16:00:37.000Z</Time>
            <Position>
              <LatitudeDegrees>43.381680808961391448974609375</LatitudeDegrees>
              <LongitudeDegrees>-2.8308404423296451568603515625</LongitudeDegrees>
            </Position>
            <AltitudeMeters>48.59999847412109375</AltitudeMeters>
            <DistanceMeters>NAN</DistanceMeters>
          </Trackpoint>
          <Trackpoint>
            <Time>2022-09-24T16:00:38.000Z</Time>
            <Position>
              <LatitudeDegrees>43.38170754723250865936279296875</LatitudeDegrees>
              <LongitudeDegrees>-2.83087313175201416015625</LongitudeDegrees>
            </Position>
            <AltitudeMeters>48.799999237060546875</AltitudeMeters>
            <DistanceMeters>NAN</DistanceMeters>
          </Trackpoint>
          <Trackpoint>
            <Time>2022-09-24T16:00:39.000Z</Time>
            <Position>
              <LatitudeDegrees>43.3817322738468647003173828125</LatitudeDegrees>
              <LongitudeDegrees>-2.8309074975550174713134765625</LongitudeDegrees>
            </Position>
            <AltitudeMeters>49</AltitudeMeters>
            <DistanceMeters>NAN</DistanceMeters>
          </Trackpoint>
          <Trackpoint>
            <Time>2022-09-24T16:00:40.000Z</Time>
            <Position>
              <LatitudeDegrees>43.38175834156572818756103515625</LatitudeDegrees>
              <LongitudeDegrees>-2.83094462938606739044189453125</LongitudeDegrees>
            </Position>
            <AltitudeMeters>49.200000762939453125</AltitudeMeters>
            <DistanceMeters>NAN</DistanceMeters>
          </Trackpoint>
          <Trackpoint>
            <Time>2022-09-24T16:00:41.000Z</Time>
            <Position>
              <LatitudeDegrees>43.3817825652658939361572265625</LatitudeDegrees>
              <LongitudeDegrees>-2.8309802524745464324951171875</LongitudeDegrees>
            </Position>
            <AltitudeMeters>49.59999847412109375</AltitudeMeters>
            <DistanceMeters>NAN</DistanceMeters>
          </Trackpoint>
          <Trackpoint>
            <Time>2022-09-24T16:00:42.000Z</Time>
            <Position>
              <LatitudeDegrees>43.38180787861347198486328125</LatitudeDegrees>
              <LongitudeDegrees>-2.83100967295467853546142578125</LongitudeDegrees>
            </Position>
            <AltitudeMeters>49.59999847412109375</AltitudeMeters>
            <DistanceMeters>NAN</DistanceMeters>
          </Trackpoint>
          <Trackpoint>
            <Time>2022-09-24T16:00:43.000Z</Time>
            <Position>
              <LatitudeDegrees>43.38183428160846233367919921875</LatitudeDegrees>
              <LongitudeDegrees>-2.83103884197771549224853515625</LongitudeDegrees>
            </Position>
            <AltitudeMeters>49.799999237060546875</AltitudeMeters>
            <DistanceMeters>NAN</DistanceMeters>
          </Trackpoint>
          <Trackpoint>
            <Time>2022-09-24T16:00:44.000Z</Time>
            <Position>
              <LatitudeDegrees>43.381858505308628082275390625</LatitudeDegrees>
              <LongitudeDegrees>-2.8310657478868961334228515625</LongitudeDegrees>
            </Position>
            <AltitudeMeters>50</AltitudeMeters>
            <DistanceMeters>NAN</DistanceMeters>
          </Trackpoint>
          <Trackpoint>
            <Time>2022-09-24T16:00:45.000Z</Time>
            <Position>
              <LatitudeDegrees>43.38188641704618930816650390625</LatitudeDegrees>
              <LongitudeDegrees>-2.83109080977737903594970703125</LongitudeDegrees>
            </Position>
            <AltitudeMeters>50.200000762939453125</AltitudeMeters>
            <DistanceMeters>NAN</DistanceMeters>
          </Trackpoint>
          <Trackpoint>
            <Time>2022-09-24T16:00:46.000Z</Time>
            <Position>
              <LatitudeDegrees>43.3819146640598773956298828125</LatitudeDegrees>
              <LongitudeDegrees>-2.83111880533397197723388671875</LongitudeDegrees>
            </Position>
            <AltitudeMeters>50.59999847412109375</AltitudeMeters>
            <DistanceMeters>NAN</DistanceMeters>
          </Trackpoint>
          <Trackpoint>
            <Time>2022-09-24T16:00:47.000Z</Time>
            <Position>
              <LatitudeDegrees>43.3819428272545337677001953125</LatitudeDegrees>
              <LongitudeDegrees>-2.83114696852862834930419921875</LongitudeDegrees>
            </Position>
            <AltitudeMeters>50.59999847412109375</AltitudeMeters>
            <DistanceMeters>NAN</DistanceMeters>
          </Trackpoint>
          <Trackpoint>
            <Time>2022-09-24T16:00:48.000Z</Time>
            <Position>
              <LatitudeDegrees>43.38197124190628528594970703125</LatitudeDegrees>
              <LongitudeDegrees>-2.83117420971393585205078125</LongitudeDegrees>
            </Position>
            <AltitudeMeters>51</AltitudeMeters>
            <DistanceMeters>NAN</DistanceMeters>
          </Trackpoint>
          <Trackpoint>
            <Time>2022-09-24T16:00:49.000Z</Time>
            <Position>
              <LatitudeDegrees>43.38200074620544910430908203125</LatitudeDegrees>
              <LongitudeDegrees>-2.8311995230615139007568359375</LongitudeDegrees>
            </Position>
            <AltitudeMeters>51</AltitudeMeters>
            <DistanceMeters>NAN</DistanceMeters>
          </Trackpoint>
          <Trackpoint>
            <Time>2022-09-24T16:00:50.000Z</Time>
            <Position>
              <LatitudeDegrees>43.38203108869493007659912109375</LatitudeDegrees>
              <LongitudeDegrees>-2.8312239982187747955322265625</LongitudeDegrees>
            </Position>
            <AltitudeMeters>51.200000762939453125</AltitudeMeters>
            <DistanceMeters>NAN</DistanceMeters>
          </Trackpoint>
          <Trackpoint>
            <Time>2022-09-24T16:00:51.000Z</Time>
            <Position>
              <LatitudeDegrees>43.38206361047923564910888671875</LatitudeDegrees>
              <LongitudeDegrees>-2.83124738372862339019775390625</LongitudeDegrees>
            </Position>
            <AltitudeMeters>51.40000152587890625</AltitudeMeters>
            <DistanceMeters>NAN</DistanceMeters>
          </Trackpoint>
          <Trackpoint>
            <Time>2022-09-24T16:00:52.000Z</Time>
            <Position>
              <LatitudeDegrees>43.38209579698741436004638671875</LatitudeDegrees>
              <LongitudeDegrees>-2.83127068541944026947021484375</LongitudeDegrees>
            </Position>
            <AltitudeMeters>51.40000152587890625</AltitudeMeters>
            <DistanceMeters>NAN</DistanceMeters>
          </Trackpoint>
          <Trackpoint>
            <Time>2022-09-24T16:00:53.000Z</Time>
            <Position>
              <LatitudeDegrees>43.3821275644004344940185546875</LatitudeDegrees>
              <LongitudeDegrees>-2.83129465766251087188720703125</LongitudeDegrees>
            </Position>
            <AltitudeMeters>51.59999847412109375</AltitudeMeters>
            <DistanceMeters>NAN</DistanceMeters>
          </Trackpoint>
          <Trackpoint>
            <Time>2022-09-24T16:00:54.000Z</Time>
            <Position>
              <LatitudeDegrees>43.38216084055602550506591796875</LatitudeDegrees>
              <LongitudeDegrees>-2.83131963573396205902099609375</LongitudeDegrees>
            </Position>
            <AltitudeMeters>51.799999237060546875</AltitudeMeters>
            <DistanceMeters>NAN</DistanceMeters>
          </Trackpoint>
          <Trackpoint>
            <Time>2022-09-24T16:00:55.000Z</Time>
            <Position>
              <LatitudeDegrees>43.382195122539997100830078125</LatitudeDegrees>
              <LongitudeDegrees>-2.831343524158000946044921875</LongitudeDegrees>
            </Position>
            <AltitudeMeters>51.799999237060546875</AltitudeMeters>
            <DistanceMeters>NAN</DistanceMeters>
          </Trackpoint>
          <Trackpoint>
            <Time>2022-09-24T16:00:56.000Z</Time>
            <Position>
              <LatitudeDegrees>43.382231332361698150634765625</LatitudeDegrees>
              <LongitudeDegrees>-2.83136590383946895599365234375</LongitudeDegrees>
            </Position>
            <AltitudeMeters>52</AltitudeMeters>
            <DistanceMeters>NAN</DistanceMeters>
          </Trackpoint>
          <Trackpoint>
            <Time>2022-09-24T16:00:57.000Z</Time>
            <Position>
              <LatitudeDegrees>43.38227533735334873199462890625</LatitudeDegrees>
              <LongitudeDegrees>-2.83138811588287353515625</LongitudeDegrees>
            </Position>
            <AltitudeMeters>52.40000152587890625</AltitudeMeters>
            <DistanceMeters>NAN</DistanceMeters>
          </Trackpoint>
          <Trackpoint>
            <Time>2022-09-24T16:00:58.000Z</Time>
            <Position>
              <LatitudeDegrees>43.382315821945667266845703125</LatitudeDegrees>
              <LongitudeDegrees>-2.83140622079372406005859375</LongitudeDegrees>
            </Position>
            <AltitudeMeters>52.40000152587890625</AltitudeMeters>
            <DistanceMeters>NAN</DistanceMeters>
          </Trackpoint>
          <Trackpoint>
            <Time>2022-09-24T16:00:59.000Z</Time>
            <Position>
              <LatitudeDegrees>43.38235446251928806304931640625</LatitudeDegrees>
              <LongitudeDegrees>-2.8314248286187648773193359375</LongitudeDegrees>
            </Position>
            <AltitudeMeters>52.799999237060546875</AltitudeMeters>
            <DistanceMeters>NAN</DistanceMeters>
          </Trackpoint>
          <Trackpoint>
            <Time>2022-09-24T16:01:00.000Z</Time>
            <Position>
              <LatitudeDegrees>43.38239260017871856689453125</LatitudeDegrees>
              <LongitudeDegrees>-2.83144553191959857940673828125</LongitudeDegrees>
            </Position>
            <AltitudeMeters>52.799999237060546875</AltitudeMeters>
            <DistanceMeters>NAN</DistanceMeters>
          </Trackpoint>
          <Trackpoint>
            <Time>2022-09-24T16:01:01.000Z</Time>
            <Position>
              <LatitudeDegrees>43.38243057020008563995361328125</LatitudeDegrees>
              <LongitudeDegrees>-2.83146749250590801239013671875</LongitudeDegrees>
            </Position>
            <AltitudeMeters>53</AltitudeMeters>
            <DistanceMeters>NAN</DistanceMeters>
          </Trackpoint>
          <Trackpoint>
            <Time>2022-09-24T16:01:02.000Z</Time>
            <Position>
              <LatitudeDegrees>43.38246325962245464324951171875</LatitudeDegrees>
              <LongitudeDegrees>-2.83149733208119869232177734375</LongitudeDegrees>
            </Position>
            <AltitudeMeters>53.200000762939453125</AltitudeMeters>
            <DistanceMeters>NAN</DistanceMeters>
          </Trackpoint>
          <Trackpoint>
            <Time>2022-09-24T16:01:03.000Z</Time>
            <Position>
              <LatitudeDegrees>43.38249963708221912384033203125</LatitudeDegrees>
              <LongitudeDegrees>-2.83152884803712368011474609375</LongitudeDegrees>
            </Position>
            <AltitudeMeters>53.200000762939453125</AltitudeMeters>
            <DistanceMeters>NAN</DistanceMeters>
          </Trackpoint>
          <Trackpoint>
            <Time>2022-09-24T16:01:04.000Z</Time>
            <Position>
              <LatitudeDegrees>43.3825352601706981658935546875</LatitudeDegrees>
              <LongitudeDegrees>-2.83156178891658782958984375</LongitudeDegrees>
            </Position>
            <AltitudeMeters>53.200000762939453125</AltitudeMeters>
            <DistanceMeters>NAN</DistanceMeters>
          </Trackpoint>
          <Trackpoint>
            <Time>2022-09-24T16:01:05.000Z</Time>
            <Position>
              <LatitudeDegrees>43.38257054798305034637451171875</LatitudeDegrees>
              <LongitudeDegrees>-2.83159397542476654052734375</LongitudeDegrees>
            </Position>
            <AltitudeMeters>53.200000762939453125</AltitudeMeters>
            <DistanceMeters>NAN</DistanceMeters>
          </Trackpoint>
          <Trackpoint>
            <Time>2022-09-24T16:01:06.000Z</Time>
            <Position>
              <LatitudeDegrees>43.38260910473763942718505859375</LatitudeDegrees>
              <LongitudeDegrees>-2.83162943087518215179443359375</LongitudeDegrees>
            </Position>
            <AltitudeMeters>53.200000762939453125</AltitudeMeters>
            <DistanceMeters>NAN</DistanceMeters>
          </Trackpoint>
          <Trackpoint>
            <Time>2022-09-24T16:01:07.000Z</Time>
            <Position>
              <LatitudeDegrees>43.3826418779790401458740234375</LatitudeDegrees>
              <LongitudeDegrees>-2.83166379667818546295166015625</LongitudeDegrees>
            </Position>
            <AltitudeMeters>53.40000152587890625</AltitudeMeters>
            <DistanceMeters>NAN</DistanceMeters>
          </Trackpoint>
          <Trackpoint>
            <Time>2022-09-24T16:01:08.000Z</Time>
            <Position>
              <LatitudeDegrees>43.3826727233827114105224609375</LatitudeDegrees>
              <LongitudeDegrees>-2.831702269613742828369140625</LongitudeDegrees>
            </Position>
            <AltitudeMeters>53.59999847412109375</AltitudeMeters>
            <DistanceMeters>NAN</DistanceMeters>
          </Trackpoint>
          <Trackpoint>
            <Time>2022-09-24T16:01:09.000Z</Time>
            <Position>
              <LatitudeDegrees>43.38271044194698333740234375</LatitudeDegrees>
              <LongitudeDegrees>-2.83173889853060245513916015625</LongitudeDegrees>
            </Position>
            <AltitudeMeters>53.59999847412109375</AltitudeMeters>
            <DistanceMeters>NAN</DistanceMeters>
          </Trackpoint>
          <Trackpoint>
            <Time>2022-09-24T16:01:10.000Z</Time>
            <Position>
              <LatitudeDegrees>43.38274438865482807159423828125</LatitudeDegrees>
              <LongitudeDegrees>-2.8317765332758426666259765625</LongitudeDegrees>
            </Position>
            <AltitudeMeters>53.59999847412109375</AltitudeMeters>
            <DistanceMeters>NAN</DistanceMeters>
          </Trackpoint>
          <Trackpoint>
            <Time>2022-09-24T16:01:11.000Z</Time>
            <Position>
              <LatitudeDegrees>43.38274438865482807159423828125</LatitudeDegrees>
              <LongitudeDegrees>-2.8317765332758426666259765625</LongitudeDegrees>
            </Position>
            <AltitudeMeters>54</AltitudeMeters>
            <DistanceMeters>NAN</DistanceMeters>
          </Trackpoint>
          <Trackpoint>
            <Time>2022-09-24T16:01:12.000Z</Time>
            <Position>
              <LatitudeDegrees>43.38281295262277126312255859375</LatitudeDegrees>
              <LongitudeDegrees>-2.83185741864144802093505859375</LongitudeDegrees>
            </Position>
            <AltitudeMeters>54.200000762939453125</AltitudeMeters>
            <DistanceMeters>NAN</DistanceMeters>
          </Trackpoint>
          <Trackpoint>
            <Time>2022-09-24T16:01:13.000Z</Time>
            <Position>
              <LatitudeDegrees>43.382850587368011474609375</LatitudeDegrees>
              <LongitudeDegrees>-2.83189932815730571746826171875</LongitudeDegrees>
            </Position>
            <AltitudeMeters>54.40000152587890625</AltitudeMeters>
            <DistanceMeters>NAN</DistanceMeters>
          </Trackpoint>
          <Trackpoint>
            <Time>2022-09-24T16:01:14.000Z</Time>
            <Position>
              <LatitudeDegrees>43.38288604281842708587646484375</LatitudeDegrees>
              <LongitudeDegrees>-2.83194291405379772186279296875</LongitudeDegrees>
            </Position>
            <AltitudeMeters>54.40000152587890625</AltitudeMeters>
            <DistanceMeters>NAN</DistanceMeters>
          </Trackpoint>
          <Trackpoint>
            <Time>2022-09-24T16:01:15.000Z</Time>
            <Position>
              <LatitudeDegrees>43.38292007334530353546142578125</LatitudeDegrees>
              <LongitudeDegrees>-2.831986583769321441650390625</LongitudeDegrees>
            </Position>
            <AltitudeMeters>54.59999847412109375</AltitudeMeters>
            <DistanceMeters>NAN</DistanceMeters>
          </Trackpoint>
          <Trackpoint>
            <Time>2022-09-24T16:01:16.000Z</Time>
            <Position>
              <LatitudeDegrees>43.382952176034450531005859375</LatitudeDegrees>
              <LongitudeDegrees>-2.8320278227329254150390625</LongitudeDegrees>
            </Position>
            <AltitudeMeters>54.59999847412109375</AltitudeMeters>
            <DistanceMeters>NAN</DistanceMeters>
          </Trackpoint>
          <Trackpoint>
            <Time>2022-09-24T16:01:17.000Z</Time>
            <Position>
              <LatitudeDegrees>43.38298679329454898834228515625</LatitudeDegrees>
              <LongitudeDegrees>-2.83206981606781482696533203125</LongitudeDegrees>
            </Position>
            <AltitudeMeters>54.799999237060546875</AltitudeMeters>
            <DistanceMeters>NAN</DistanceMeters>
          </Trackpoint>
          <Trackpoint>
            <Time>2022-09-24T16:01:18.000Z</Time>
            <Position>
              <LatitudeDegrees>43.3830235898494720458984375</LatitudeDegrees>
              <LongitudeDegrees>-2.83211440779268741607666015625</LongitudeDegrees>
            </Position>
            <AltitudeMeters>55</AltitudeMeters>
            <DistanceMeters>NAN</DistanceMeters>
          </Trackpoint>
          <Trackpoint>
            <Time>2022-09-24T16:01:19.000Z</Time>
            <Position>
              <LatitudeDegrees>43.3830549381673336029052734375</LatitudeDegrees>
              <LongitudeDegrees>-2.83215849660336971282958984375</LongitudeDegrees>
            </Position>
            <AltitudeMeters>55.200000762939453125</AltitudeMeters>
            <DistanceMeters>NAN</DistanceMeters>
          </Trackpoint>
          <Trackpoint>
            <Time>2022-09-24T16:01:20.000Z</Time>
            <Position>
              <LatitudeDegrees>43.383087627589702606201171875</LatitudeDegrees>
              <LongitudeDegrees>-2.83220283687114715576171875</LongitudeDegrees>
            </Position>
            <AltitudeMeters>55.200000762939453125</AltitudeMeters>
            <DistanceMeters>NAN</DistanceMeters>
          </Trackpoint>
          <Trackpoint>
            <Time>2022-09-24T16:01:21.000Z</Time>
            <Position>
              <LatitudeDegrees>43.3831206522881984710693359375</LatitudeDegrees>
              <LongitudeDegrees>-2.8322459198534488677978515625</LongitudeDegrees>
            </Position>
            <AltitudeMeters>55.200000762939453125</AltitudeMeters>
            <DistanceMeters>NAN</DistanceMeters>
          </Trackpoint>
          <Trackpoint>
            <Time>2022-09-24T16:01:22.000Z</Time>
            <Position>
              <LatitudeDegrees>43.38315392844378948211669921875</LatitudeDegrees>
              <LongitudeDegrees>-2.83228657208383083343505859375</LongitudeDegrees>
            </Position>
            <AltitudeMeters>55.59999847412109375</AltitudeMeters>
            <DistanceMeters>NAN</DistanceMeters>
          </Trackpoint>
          <Trackpoint>
            <Time>2022-09-24T16:01:23.000Z</Time>
            <Position>
              <LatitudeDegrees>43.3831887133419513702392578125</LatitudeDegrees>
              <LongitudeDegrees>-2.832329235970973968505859375</LongitudeDegrees>
            </Position>
            <AltitudeMeters>55.59999847412109375</AltitudeMeters>
            <DistanceMeters>NAN</DistanceMeters>
          </Trackpoint>
          <Trackpoint>
            <Time>2022-09-24T16:01:24.000Z</Time>
            <Position>
              <LatitudeDegrees>43.38322400115430355072021484375</LatitudeDegrees>
              <LongitudeDegrees>-2.83237022347748279571533203125</LongitudeDegrees>
            </Position>
            <AltitudeMeters>55.59999847412109375</AltitudeMeters>
            <DistanceMeters>NAN</DistanceMeters>
          </Trackpoint>
          <Trackpoint>
            <Time>2022-09-24T16:01:25.000Z</Time>
            <Position>
              <LatitudeDegrees>43.3832591213285923004150390625</LatitudeDegrees>
              <LongitudeDegrees>-2.8324127197265625</LongitudeDegrees>
            </Position>
            <AltitudeMeters>55.799999237060546875</AltitudeMeters>
            <DistanceMeters>NAN</DistanceMeters>
          </Trackpoint>
          <Trackpoint>
            <Time>2022-09-24T16:01:26.000Z</Time>
            <Position>
              <LatitudeDegrees>43.38329088874161243438720703125</LatitudeDegrees>
              <LongitudeDegrees>-2.832453288137912750244140625</LongitudeDegrees>
            </Position>
            <AltitudeMeters>55.799999237060546875</AltitudeMeters>
            <DistanceMeters>NAN</DistanceMeters>
          </Trackpoint>
          <Trackpoint>
            <Time>2022-09-24T16:01:27.000Z</Time>
            <Position>
              <LatitudeDegrees>43.3833224885165691375732421875</LatitudeDegrees>
              <LongitudeDegrees>-2.832495868206024169921875</LongitudeDegrees>
            </Position>
            <AltitudeMeters>56.200000762939453125</AltitudeMeters>
            <DistanceMeters>NAN</DistanceMeters>
          </Trackpoint>
          <Trackpoint>
            <Time>2022-09-24T16:01:28.000Z</Time>
            <Position>
              <LatitudeDegrees>43.3833540044724941253662109375</LatitudeDegrees>
              <LongitudeDegrees>-2.832540459930896759033203125</LongitudeDegrees>
            </Position>
            <AltitudeMeters>56.200000762939453125</AltitudeMeters>
            <DistanceMeters>NAN</DistanceMeters>
          </Trackpoint>
          <Trackpoint>
            <Time>2022-09-24T16:01:29.000Z</Time>
            <Position>
              <LatitudeDegrees>43.383387364447116851806640625</LatitudeDegrees>
              <LongitudeDegrees>-2.832577340304851531982421875</LongitudeDegrees>
            </Position>
            <AltitudeMeters>56.40000152587890625</AltitudeMeters>
            <DistanceMeters>NAN</DistanceMeters>
          </Trackpoint>
          <Trackpoint>
            <Time>2022-09-24T16:01:30.000Z</Time>
            <Position>
              <LatitudeDegrees>43.38341879658401012420654296875</LatitudeDegrees>
              <LongitudeDegrees>-2.8326170705258846282958984375</LongitudeDegrees>
            </Position>
            <AltitudeMeters>56.40000152587890625</AltitudeMeters>
            <DistanceMeters>NAN</DistanceMeters>
          </Trackpoint>
          <Trackpoint>
            <Time>2022-09-24T16:01:31.000Z</Time>
            <Position>
              <LatitudeDegrees>43.3834492228925228118896484375</LatitudeDegrees>
              <LongitudeDegrees>-2.83265537582337856292724609375</LongitudeDegrees>
            </Position>
            <AltitudeMeters>56.59999847412109375</AltitudeMeters>
            <DistanceMeters>NAN</DistanceMeters>
          </Trackpoint>
          <Trackpoint>
            <Time>2022-09-24T16:01:32.000Z</Time>
            <Position>
              <LatitudeDegrees>43.38348065502941608428955078125</LatitudeDegrees>
              <LongitudeDegrees>-2.8326891548931598663330078125</LongitudeDegrees>
            </Position>
            <AltitudeMeters>56.799999237060546875</AltitudeMeters>
            <DistanceMeters>NAN</DistanceMeters>
          </Trackpoint>
          <Trackpoint>
            <Time>2022-09-24T16:01:33.000Z</Time>
            <Position>
              <LatitudeDegrees>43.38350898586213588714599609375</LatitudeDegrees>
              <LongitudeDegrees>-2.8327260352671146392822265625</LongitudeDegrees>
            </Position>
            <AltitudeMeters>57</AltitudeMeters>
            <DistanceMeters>NAN</DistanceMeters>
          </Trackpoint>
          <Trackpoint>
            <Time>2022-09-24T16:01:34.000Z</Time>
            <Position>
              <LatitudeDegrees>43.38353614322841167449951171875</LatitudeDegrees>
              <LongitudeDegrees>-2.83276350237429141998291015625</LongitudeDegrees>
            </Position>
            <AltitudeMeters>57</AltitudeMeters>
            <DistanceMeters>NAN</DistanceMeters>
          </Trackpoint>
          <Trackpoint>
            <Time>2022-09-24T16:01:35.000Z</Time>
            <Position>
              <LatitudeDegrees>43.3835632167756557464599609375</LatitudeDegrees>
              <LongitudeDegrees>-2.8328008018434047698974609375</LongitudeDegrees>
            </Position>
            <AltitudeMeters>58</AltitudeMeters>
            <DistanceMeters>NAN</DistanceMeters>
          </Trackpoint>
          <Trackpoint>
            <Time>2022-09-24T16:01:36.000Z</Time>
            <Position>
              <LatitudeDegrees>43.3835903741419315338134765625</LatitudeDegrees>
              <LongitudeDegrees>-2.832839190959930419921875</LongitudeDegrees>
            </Position>
            <AltitudeMeters>58.200000762939453125</AltitudeMeters>
            <DistanceMeters>NAN</DistanceMeters>
          </Trackpoint>
          <Trackpoint>
            <Time>2022-09-24T16:01:37.000Z</Time>
            <Position>
              <LatitudeDegrees>43.38361677713692188262939453125</LatitudeDegrees>
              <LongitudeDegrees>-2.8328775800764560699462890625</LongitudeDegrees>
            </Position>
            <AltitudeMeters>58.200000762939453125</AltitudeMeters>
            <DistanceMeters>NAN</DistanceMeters>
          </Trackpoint>
          <Trackpoint>
            <Time>2022-09-24T16:01:38.000Z</Time>
            <Position>
              <LatitudeDegrees>43.383640833199024200439453125</LatitudeDegrees>
              <LongitudeDegrees>-2.8329156339168548583984375</LongitudeDegrees>
            </Position>
            <AltitudeMeters>58.40000152587890625</AltitudeMeters>
            <DistanceMeters>NAN</DistanceMeters>
          </Trackpoint>
          <Trackpoint>
            <Time>2022-09-24T16:01:39.000Z</Time>
            <Position>
              <LatitudeDegrees>43.38366170413792133331298828125</LatitudeDegrees>
              <LongitudeDegrees>-2.8329558670520782470703125</LongitudeDegrees>
            </Position>
            <AltitudeMeters>59.40000152587890625</AltitudeMeters>
            <DistanceMeters>NAN</DistanceMeters>
          </Trackpoint>
          <Trackpoint>
            <Time>2022-09-24T16:01:40.000Z</Time>
            <Position>
              <LatitudeDegrees>43.38366170413792133331298828125</LatitudeDegrees>
              <LongitudeDegrees>-2.8329558670520782470703125</LongitudeDegrees>
            </Position>
            <AltitudeMeters>59.799999237060546875</AltitudeMeters>
            <DistanceMeters>NAN</DistanceMeters>
          </Trackpoint>
          <Trackpoint>
            <Time>2022-09-24T16:01:41.000Z</Time>
            <Position>
              <LatitudeDegrees>43.3837020210921764373779296875</LatitudeDegrees>
              <LongitudeDegrees>-2.833035998046398162841796875</LongitudeDegrees>
            </Position>
            <AltitudeMeters>59.799999237060546875</AltitudeMeters>
            <DistanceMeters>NAN</DistanceMeters>
          </Trackpoint>
          <Trackpoint>
            <Time>2022-09-24T16:01:42.000Z</Time>
            <Position>
              <LatitudeDegrees>43.38371752761304378509521484375</LatitudeDegrees>
              <LongitudeDegrees>-2.8330817632377147674560546875</LongitudeDegrees>
            </Position>
            <AltitudeMeters>60.200000762939453125</AltitudeMeters>
            <DistanceMeters>NAN</DistanceMeters>
          </Trackpoint>
          <Trackpoint>
            <Time>2022-09-24T16:01:43.000Z</Time>
            <Position>
              <LatitudeDegrees>43.38373211212456226348876953125</LatitudeDegrees>
              <LongitudeDegrees>-2.8331266902387142181396484375</LongitudeDegrees>
            </Position>
            <AltitudeMeters>60.200000762939453125</AltitudeMeters>
            <DistanceMeters>NAN</DistanceMeters>
          </Trackpoint>
          <Trackpoint>
            <Time>2022-09-24T16:01:44.000Z</Time>
            <Position>
              <LatitudeDegrees>43.38374577462673187255859375</LatitudeDegrees>
              <LongitudeDegrees>-2.8331685997545719146728515625</LongitudeDegrees>
            </Position>
            <AltitudeMeters>60.40000152587890625</AltitudeMeters>
            <DistanceMeters>NAN</DistanceMeters>
          </Trackpoint>
          <Trackpoint>
            <Time>2022-09-24T16:01:45.000Z</Time>
            <Position>
              <LatitudeDegrees>43.3837600238621234893798828125</LatitudeDegrees>
              <LongitudeDegrees>-2.8332098387181758880615234375</LongitudeDegrees>
            </Position>
            <AltitudeMeters>60.59999847412109375</AltitudeMeters>
            <DistanceMeters>NAN</DistanceMeters>
          </Trackpoint>
          <Trackpoint>
            <Time>2022-09-24T16:01:46.000Z</Time>
            <Position>
              <LatitudeDegrees>43.38377301581203937530517578125</LatitudeDegrees>
              <LongitudeDegrees>-2.8332547657191753387451171875</LongitudeDegrees>
            </Position>
            <AltitudeMeters>60.59999847412109375</AltitudeMeters>
            <DistanceMeters>NAN</DistanceMeters>
          </Trackpoint>
          <Trackpoint>
            <Time>2022-09-24T16:01:47.000Z</Time>
            <Position>
              <LatitudeDegrees>43.3837838284671306610107421875</LatitudeDegrees>
              <LongitudeDegrees>-2.8333010338246822357177734375</LongitudeDegrees>
            </Position>
            <AltitudeMeters>60.59999847412109375</AltitudeMeters>
            <DistanceMeters>NAN</DistanceMeters>
          </Trackpoint>
          <Trackpoint>
            <Time>2022-09-24T16:01:48.000Z</Time>
            <Position>
              <LatitudeDegrees>43.38379246182739734649658203125</LatitudeDegrees>
              <LongitudeDegrees>-2.83335006795823574066162109375</LongitudeDegrees>
            </Position>
            <AltitudeMeters>60.59999847412109375</AltitudeMeters>
            <DistanceMeters>NAN</DistanceMeters>
          </Trackpoint>
          <Trackpoint>
            <Time>2022-09-24T16:01:49.000Z</Time>
            <Position>
              <LatitudeDegrees>43.38380117900669574737548828125</LatitudeDegrees>
              <LongitudeDegrees>-2.83340052701532840728759765625</LongitudeDegrees>
            </Position>
            <AltitudeMeters>60.59999847412109375</AltitudeMeters>
            <DistanceMeters>NAN</DistanceMeters>
          </Trackpoint>
          <Trackpoint>
            <Time>2022-09-24T16:01:50.000Z</Time>
            <Position>
              <LatitudeDegrees>43.3838072977960109710693359375</LatitudeDegrees>
              <LongitudeDegrees>-2.8334519080817699432373046875</LongitudeDegrees>
            </Position>
            <AltitudeMeters>60.59999847412109375</AltitudeMeters>
            <DistanceMeters>NAN</DistanceMeters>
          </Trackpoint>
          <Trackpoint>
            <Time>2022-09-24T16:01:51.000Z</Time>
            <Position>
              <LatitudeDegrees>43.38380754925310611724853515625</LatitudeDegrees>
              <LongitudeDegrees>-2.83350412733852863311767578125</LongitudeDegrees>
            </Position>
            <AltitudeMeters>60.59999847412109375</AltitudeMeters>
            <DistanceMeters>NAN</DistanceMeters>
          </Trackpoint>
          <Trackpoint>
            <Time>2022-09-24T16:01:52.000Z</Time>
            <Position>
              <LatitudeDegrees>43.383809812366962432861328125</LatitudeDegrees>
              <LongitudeDegrees>-2.8335593640804290771484375</LongitudeDegrees>
            </Position>
            <AltitudeMeters>60.59999847412109375</AltitudeMeters>
            <DistanceMeters>NAN</DistanceMeters>
          </Trackpoint>
          <Trackpoint>
            <Time>2022-09-24T16:01:53.000Z</Time>
            <Position>
              <LatitudeDegrees>43.38381408713757991790771484375</LatitudeDegrees>
              <LongitudeDegrees>-2.83361208625137805938720703125</LongitudeDegrees>
            </Position>
            <AltitudeMeters>60.799999237060546875</AltitudeMeters>
            <DistanceMeters>NAN</DistanceMeters>
          </Trackpoint>
          <Trackpoint>
            <Time>2022-09-24T16:01:54.000Z</Time>
            <Position>
              <LatitudeDegrees>43.38381425477564334869384765625</LatitudeDegrees>
              <LongitudeDegrees>-2.83366757445037364959716796875</LongitudeDegrees>
            </Position>
            <AltitudeMeters>61.40000152587890625</AltitudeMeters>
            <DistanceMeters>NAN</DistanceMeters>
          </Trackpoint>
          <Trackpoint>
            <Time>2022-09-24T16:01:55.000Z</Time>
            <Position>
              <LatitudeDegrees>43.383810482919216156005859375</LatitudeDegrees>
              <LongitudeDegrees>-2.83372859470546245574951171875</LongitudeDegrees>
            </Position>
            <AltitudeMeters>61.40000152587890625</AltitudeMeters>
            <DistanceMeters>NAN</DistanceMeters>
          </Trackpoint>
          <Trackpoint>
            <Time>2022-09-24T16:01:56.000Z</Time>
            <Position>
              <LatitudeDegrees>43.38380201719701290130615234375</LatitudeDegrees>
              <LongitudeDegrees>-2.8337912075221538543701171875</LongitudeDegrees>
            </Position>
            <AltitudeMeters>61.799999237060546875</AltitudeMeters>
            <DistanceMeters>NAN</DistanceMeters>
          </Trackpoint>
          <Trackpoint>
            <Time>2022-09-24T16:01:57.000Z</Time>
            <Position>
              <LatitudeDegrees>43.3837928809225559234619140625</LatitudeDegrees>
              <LongitudeDegrees>-2.83385164104402065277099609375</LongitudeDegrees>
            </Position>
            <AltitudeMeters>61.40000152587890625</AltitudeMeters>
            <DistanceMeters>NAN</DistanceMeters>
          </Trackpoint>
          <Trackpoint>
            <Time>2022-09-24T16:01:58.000Z</Time>
            <Position>
              <LatitudeDegrees>43.383785672485828399658203125</LatitudeDegrees>
              <LongitudeDegrees>-2.8339129127562046051025390625</LongitudeDegrees>
            </Position>
            <AltitudeMeters>61.799999237060546875</AltitudeMeters>
            <DistanceMeters>NAN</DistanceMeters>
          </Trackpoint>
          <Trackpoint>
            <Time>2022-09-24T16:01:59.000Z</Time>
            <Position>
              <LatitudeDegrees>43.38377796113491058349609375</LatitudeDegrees>
              <LongitudeDegrees>-2.8339719213545322418212890625</LongitudeDegrees>
            </Position>
            <AltitudeMeters>61.799999237060546875</AltitudeMeters>
            <DistanceMeters>NAN</DistanceMeters>
          </Trackpoint>
          <Trackpoint>
            <Time>2022-09-24T16:02:00.000Z</Time>
            <Position>
              <LatitudeDegrees>43.38377796113491058349609375</LatitudeDegrees>
              <LongitudeDegrees>-2.8339719213545322418212890625</LongitudeDegrees>
            </Position>
            <AltitudeMeters>62</AltitudeMeters>
            <DistanceMeters>NAN</DistanceMeters>
          </Trackpoint>
          <Trackpoint>
            <Time>2022-09-24T16:02:01.000Z</Time>
            <Position>
              <LatitudeDegrees>43.38376044295728206634521484375</LatitudeDegrees>
              <LongitudeDegrees>-2.83409303985536098480224609375</LongitudeDegrees>
            </Position>
            <AltitudeMeters>62</AltitudeMeters>
            <DistanceMeters>NAN</DistanceMeters>
          </Trackpoint>
          <Trackpoint>
            <Time>2022-09-24T16:02:02.000Z</Time>
            <Position>
              <LatitudeDegrees>43.3837503008544445037841796875</LatitudeDegrees>
              <LongitudeDegrees>-2.8341549821197986602783203125</LongitudeDegrees>
            </Position>
            <AltitudeMeters>61.799999237060546875</AltitudeMeters>
            <DistanceMeters>NAN</DistanceMeters>
          </Trackpoint>
          <Trackpoint>
            <Time>2022-09-24T16:02:03.000Z</Time>
            <Position>
              <LatitudeDegrees>43.38374133221805095672607421875</LatitudeDegrees>
              <LongitudeDegrees>-2.834218181669712066650390625</LongitudeDegrees>
            </Position>
            <AltitudeMeters>61.799999237060546875</AltitudeMeters>
            <DistanceMeters>NAN</DistanceMeters>
          </Trackpoint>
          <Trackpoint>
            <Time>2022-09-24T16:02:04.000Z</Time>
            <Position>
              <LatitudeDegrees>43.38373663835227489471435546875</LatitudeDegrees>
              <LongitudeDegrees>-2.83428180031478404998779296875</LongitudeDegrees>
            </Position>
            <AltitudeMeters>61.799999237060546875</AltitudeMeters>
            <DistanceMeters>NAN</DistanceMeters>
          </Trackpoint>
          <Trackpoint>
            <Time>2022-09-24T16:02:05.000Z</Time>
            <Position>
              <LatitudeDegrees>43.3837342076003551483154296875</LatitudeDegrees>
              <LongitudeDegrees>-2.8343467600643634796142578125</LongitudeDegrees>
            </Position>
            <AltitudeMeters>62.200000762939453125</AltitudeMeters>
            <DistanceMeters>NAN</DistanceMeters>
          </Trackpoint>
          <Trackpoint>
            <Time>2022-09-24T16:02:06.000Z</Time>
            <Position>
              <LatitudeDegrees>43.383731357753276824951171875</LatitudeDegrees>
              <LongitudeDegrees>-2.83441540785133838653564453125</LongitudeDegrees>
            </Position>
            <AltitudeMeters>61.799999237060546875</AltitudeMeters>
            <DistanceMeters>NAN</DistanceMeters>
          </Trackpoint>
          <Trackpoint>
            <Time>2022-09-24T16:02:07.000Z</Time>
            <Position>
              <LatitudeDegrees>43.38372859172523021697998046875</LatitudeDegrees>
              <LongitudeDegrees>-2.834487073123455047607421875</LongitudeDegrees>
            </Position>
            <AltitudeMeters>61.799999237060546875</AltitudeMeters>
            <DistanceMeters>NAN</DistanceMeters>
          </Trackpoint>
          <Trackpoint>
            <Time>2022-09-24T16:02:08.000Z</Time>
            <Position>
              <LatitudeDegrees>43.38372758589684963226318359375</LatitudeDegrees>
              <LongitudeDegrees>-2.83456158824265003204345703125</LongitudeDegrees>
            </Position>
            <AltitudeMeters>61.799999237060546875</AltitudeMeters>
            <DistanceMeters>NAN</DistanceMeters>
          </Trackpoint>
          <Trackpoint>
            <Time>2022-09-24T16:02:09.000Z</Time>
            <Position>
              <LatitudeDegrees>43.38372699916362762451171875</LatitudeDegrees>
              <LongitudeDegrees>-2.834639288485050201416015625</LongitudeDegrees>
            </Position>
            <AltitudeMeters>61.799999237060546875</AltitudeMeters>
            <DistanceMeters>NAN</DistanceMeters>
          </Trackpoint>
          <Trackpoint>
            <Time>2022-09-24T16:02:10.000Z</Time>
            <Position>
              <LatitudeDegrees>43.3837261609733104705810546875</LatitudeDegrees>
              <LongitudeDegrees>-2.8347199223935604095458984375</LongitudeDegrees>
            </Position>
            <AltitudeMeters>61.799999237060546875</AltitudeMeters>
            <DistanceMeters>NAN</DistanceMeters>
          </Trackpoint>
          <Trackpoint>
            <Time>2022-09-24T16:02:11.000Z</Time>
            <Position>
              <LatitudeDegrees>43.38372968137264251708984375</LatitudeDegrees>
              <LongitudeDegrees>-2.83479988574981689453125</LongitudeDegrees>
            </Position>
            <AltitudeMeters>61.799999237060546875</AltitudeMeters>
            <DistanceMeters>NAN</DistanceMeters>
          </Trackpoint>
          <Trackpoint>
            <Time>2022-09-24T16:02:12.000Z</Time>
            <Position>
              <LatitudeDegrees>43.38373194448649883270263671875</LatitudeDegrees>
              <LongitudeDegrees>-2.83488144166767597198486328125</LongitudeDegrees>
            </Position>
            <AltitudeMeters>61.59999847412109375</AltitudeMeters>
            <DistanceMeters>NAN</DistanceMeters>
          </Trackpoint>
          <Trackpoint>
            <Time>2022-09-24T16:02:13.000Z</Time>
            <Position>
              <LatitudeDegrees>43.38373144157230854034423828125</LatitudeDegrees>
              <LongitudeDegrees>-2.83496542833745479583740234375</LongitudeDegrees>
            </Position>
            <AltitudeMeters>61.59999847412109375</AltitudeMeters>
            <DistanceMeters>NAN</DistanceMeters>
          </Trackpoint>
          <Trackpoint>
            <Time>2022-09-24T16:02:14.000Z</Time>
            <Position>
              <LatitudeDegrees>43.38373504579067230224609375</LatitudeDegrees>
              <LongitudeDegrees>-2.8350518457591533660888671875</LongitudeDegrees>
            </Position>
            <AltitudeMeters>61.59999847412109375</AltitudeMeters>
            <DistanceMeters>NAN</DistanceMeters>
          </Trackpoint>
          <Trackpoint>
            <Time>2022-09-24T16:02:15.000Z</Time>
            <Position>
              <LatitudeDegrees>43.38373898528516292572021484375</LatitudeDegrees>
              <LongitudeDegrees>-2.83513977192342281341552734375</LongitudeDegrees>
            </Position>
            <AltitudeMeters>61.200000762939453125</AltitudeMeters>
            <DistanceMeters>NAN</DistanceMeters>
          </Trackpoint>
          <Trackpoint>
            <Time>2022-09-24T16:02:16.000Z</Time>
            <Position>
              <LatitudeDegrees>43.3837429247796535491943359375</LatitudeDegrees>
              <LongitudeDegrees>-2.83523046411573886871337890625</LongitudeDegrees>
            </Position>
            <AltitudeMeters>61.200000762939453125</AltitudeMeters>
            <DistanceMeters>NAN</DistanceMeters>
          </Trackpoint>
          <Trackpoint>
            <Time>2022-09-24T16:02:17.000Z</Time>
            <Position>
              <LatitudeDegrees>43.3837462775409221649169921875</LatitudeDegrees>
              <LongitudeDegrees>-2.83531931228935718536376953125</LongitudeDegrees>
            </Position>
            <AltitudeMeters>60.59999847412109375</AltitudeMeters>
            <DistanceMeters>NAN</DistanceMeters>
          </Trackpoint>
          <Trackpoint>
            <Time>2022-09-24T16:02:18.000Z</Time>
            <Position>
              <LatitudeDegrees>43.38374753482639789581298828125</LatitudeDegrees>
              <LongitudeDegrees>-2.83541201613843441009521484375</LongitudeDegrees>
            </Position>
            <AltitudeMeters>60.59999847412109375</AltitudeMeters>
            <DistanceMeters>NAN</DistanceMeters>
          </Trackpoint>
          <Trackpoint>
            <Time>2022-09-24T16:02:19.000Z</Time>
            <Position>
              <LatitudeDegrees>43.3837499655783176422119140625</LatitudeDegrees>
              <LongitudeDegrees>-2.83550798892974853515625</LongitudeDegrees>
            </Position>
            <AltitudeMeters>60.200000762939453125</AltitudeMeters>
            <DistanceMeters>NAN</DistanceMeters>
          </Trackpoint>
          <Trackpoint>
            <Time>2022-09-24T16:02:20.000Z</Time>
            <Position>
              <LatitudeDegrees>43.38375105522572994232177734375</LatitudeDegrees>
              <LongitudeDegrees>-2.83560127951204776763916015625</LongitudeDegrees>
            </Position>
            <AltitudeMeters>60.200000762939453125</AltitudeMeters>
            <DistanceMeters>NAN</DistanceMeters>
          </Trackpoint>
          <Trackpoint>
            <Time>2022-09-24T16:02:21.000Z</Time>
            <Position>
              <LatitudeDegrees>43.383749462664127349853515625</LatitudeDegrees>
              <LongitudeDegrees>-2.83569649793207645416259765625</LongitudeDegrees>
            </Position>
            <AltitudeMeters>60.200000762939453125</AltitudeMeters>
            <DistanceMeters>NAN</DistanceMeters>
          </Trackpoint>
          <Trackpoint>
            <Time>2022-09-24T16:02:22.000Z</Time>
            <Position>
              <LatitudeDegrees>43.38375289924442768096923828125</LatitudeDegrees>
              <LongitudeDegrees>-2.83579003997147083282470703125</LongitudeDegrees>
            </Position>
            <AltitudeMeters>60.200000762939453125</AltitudeMeters>
            <DistanceMeters>NAN</DistanceMeters>
          </Trackpoint>
          <Trackpoint>
            <Time>2022-09-24T16:02:23.000Z</Time>
            <Position>
              <LatitudeDegrees>43.383762538433074951171875</LatitudeDegrees>
              <LongitudeDegrees>-2.835883833467960357666015625</LongitudeDegrees>
            </Position>
            <AltitudeMeters>59.40000152587890625</AltitudeMeters>
            <DistanceMeters>NAN</DistanceMeters>
          </Trackpoint>
          <Trackpoint>
            <Time>2022-09-24T16:02:24.000Z</Time>
            <Position>
              <LatitudeDegrees>43.38377586565911769866943359375</LatitudeDegrees>
              <LongitudeDegrees>-2.835976369678974151611328125</LongitudeDegrees>
            </Position>
            <AltitudeMeters>59.200000762939453125</AltitudeMeters>
            <DistanceMeters>NAN</DistanceMeters>
          </Trackpoint>
          <Trackpoint>
            <Time>2022-09-24T16:02:25.000Z</Time>
            <Position>
              <LatitudeDegrees>43.3837962336838245391845703125</LatitudeDegrees>
              <LongitudeDegrees>-2.8360660560429096221923828125</LongitudeDegrees>
            </Position>
            <AltitudeMeters>59.200000762939453125</AltitudeMeters>
            <DistanceMeters>NAN</DistanceMeters>
          </Trackpoint>
          <Trackpoint>
            <Time>2022-09-24T16:02:26.000Z</Time>
            <Position>
              <LatitudeDegrees>43.38381995446979999542236328125</LatitudeDegrees>
              <LongitudeDegrees>-2.83615465275943279266357421875</LongitudeDegrees>
            </Position>
            <AltitudeMeters>58.799999237060546875</AltitudeMeters>
            <DistanceMeters>NAN</DistanceMeters>
          </Trackpoint>
          <Trackpoint>
            <Time>2022-09-24T16:02:27.000Z</Time>
            <Position>
              <LatitudeDegrees>43.38384996168315410614013671875</LatitudeDegrees>
              <LongitudeDegrees>-2.8362457640469074249267578125</LongitudeDegrees>
            </Position>
            <AltitudeMeters>58.59999847412109375</AltitudeMeters>
            <DistanceMeters>NAN</DistanceMeters>
          </Trackpoint>
          <Trackpoint>
            <Time>2022-09-24T16:02:28.000Z</Time>
            <Position>
              <LatitudeDegrees>43.38388985954225063323974609375</LatitudeDegrees>
              <LongitudeDegrees>-2.83633410930633544921875</LongitudeDegrees>
            </Position>
            <AltitudeMeters>58.200000762939453125</AltitudeMeters>
            <DistanceMeters>NAN</DistanceMeters>
          </Trackpoint>
          <Trackpoint>
            <Time>2022-09-24T16:02:29.000Z</Time>
            <Position>
              <LatitudeDegrees>43.3839417435228824615478515625</LatitudeDegrees>
              <LongitudeDegrees>-2.8364103846251964569091796875</LongitudeDegrees>
            </Position>
            <AltitudeMeters>57.799999237060546875</AltitudeMeters>
            <DistanceMeters>NAN</DistanceMeters>
          </Trackpoint>
          <Trackpoint>
            <Time>2022-09-24T16:02:30.000Z</Time>
            <Position>
              <LatitudeDegrees>43.38400368578732013702392578125</LatitudeDegrees>
              <LongitudeDegrees>-2.83647685311734676361083984375</LongitudeDegrees>
            </Position>
            <AltitudeMeters>57.200000762939453125</AltitudeMeters>
            <DistanceMeters>NAN</DistanceMeters>
          </Trackpoint>
          <Trackpoint>
            <Time>2022-09-24T16:02:31.000Z</Time>
            <Position>
              <LatitudeDegrees>43.3840778656303882598876953125</LatitudeDegrees>
              <LongitudeDegrees>-2.83654206432402133941650390625</LongitudeDegrees>
            </Position>
            <AltitudeMeters>57</AltitudeMeters>
            <DistanceMeters>NAN</DistanceMeters>
          </Trackpoint>
          <Trackpoint>
            <Time>2022-09-24T16:02:32.000Z</Time>
            <Position>
              <LatitudeDegrees>43.3841586671769618988037109375</LatitudeDegrees>
              <LongitudeDegrees>-2.83659419976174831390380859375</LongitudeDegrees>
            </Position>
            <AltitudeMeters>56.200000762939453125</AltitudeMeters>
            <DistanceMeters>NAN</DistanceMeters>
          </Trackpoint>
          <Trackpoint>
            <Time>2022-09-24T16:02:33.000Z</Time>
            <Position>
              <LatitudeDegrees>43.38424726389348506927490234375</LatitudeDegrees>
              <LongitudeDegrees>-2.83664868213236331939697265625</LongitudeDegrees>
            </Position>
            <AltitudeMeters>56.200000762939453125</AltitudeMeters>
            <DistanceMeters>NAN</DistanceMeters>
          </Trackpoint>
          <Trackpoint>
            <Time>2022-09-24T16:02:34.000Z</Time>
            <Position>
              <LatitudeDegrees>43.38434063829481601715087890625</LatitudeDegrees>
              <LongitudeDegrees>-2.83669176511466503143310546875</LongitudeDegrees>
            </Position>
            <AltitudeMeters>56.200000762939453125</AltitudeMeters>
            <DistanceMeters>NAN</DistanceMeters>
          </Trackpoint>
          <Trackpoint>
            <Time>2022-09-24T16:02:35.000Z</Time>
            <Position>
              <LatitudeDegrees>43.38444155640900135040283203125</LatitudeDegrees>
              <LongitudeDegrees>-2.83672110177576541900634765625</LongitudeDegrees>
            </Position>
            <AltitudeMeters>56</AltitudeMeters>
            <DistanceMeters>NAN</DistanceMeters>
          </Trackpoint>
          <Trackpoint>
            <Time>2022-09-24T16:02:36.000Z</Time>
            <Position>
              <LatitudeDegrees>43.38454884476959705352783203125</LatitudeDegrees>
              <LongitudeDegrees>-2.83674675039947032928466796875</LongitudeDegrees>
            </Position>
            <AltitudeMeters>55.40000152587890625</AltitudeMeters>
            <DistanceMeters>NAN</DistanceMeters>
          </Trackpoint>
          <Trackpoint>
            <Time>2022-09-24T16:02:37.000Z</Time>
            <Position>
              <LatitudeDegrees>43.38466200046241283416748046875</LatitudeDegrees>
              <LongitudeDegrees>-2.83677089028060436248779296875</LongitudeDegrees>
            </Position>
            <AltitudeMeters>54.40000152587890625</AltitudeMeters>
            <DistanceMeters>NAN</DistanceMeters>
          </Trackpoint>
          <Trackpoint>
            <Time>2022-09-24T16:02:38.000Z</Time>
            <Position>
              <LatitudeDegrees>43.38478186167776584625244140625</LatitudeDegrees>
              <LongitudeDegrees>-2.83679301850497722625732421875</LongitudeDegrees>
            </Position>
            <AltitudeMeters>53.59999847412109375</AltitudeMeters>
            <DistanceMeters>NAN</DistanceMeters>
          </Trackpoint>
          <Trackpoint>
            <Time>2022-09-24T16:02:39.000Z</Time>
            <Position>
              <LatitudeDegrees>43.3849053271114826202392578125</LatitudeDegrees>
              <LongitudeDegrees>-2.8368214331567287445068359375</LongitudeDegrees>
            </Position>
            <AltitudeMeters>53</AltitudeMeters>
            <DistanceMeters>NAN</DistanceMeters>
          </Trackpoint>
          <Trackpoint>
            <Time>2022-09-24T16:02:40.000Z</Time>
            <Position>
              <LatitudeDegrees>43.38502644561231136322021484375</LatitudeDegrees>
              <LongitudeDegrees>-2.83685672096908092498779296875</LongitudeDegrees>
            </Position>
            <AltitudeMeters>52.200000762939453125</AltitudeMeters>
            <DistanceMeters>NAN</DistanceMeters>
          </Trackpoint>
          <Trackpoint>
            <Time>2022-09-24T16:02:41.000Z</Time>
            <Position>
              <LatitudeDegrees>43.38514395989477634429931640625</LatitudeDegrees>
              <LongitudeDegrees>-2.83690282143652439117431640625</LongitudeDegrees>
            </Position>
            <AltitudeMeters>47.40000152587890625</AltitudeMeters>
            <DistanceMeters>NAN</DistanceMeters>
          </Trackpoint>
          <Trackpoint>
            <Time>2022-09-24T16:02:42.000Z</Time>
            <Position>
              <LatitudeDegrees>43.38525476865470409393310546875</LatitudeDegrees>
              <LongitudeDegrees>-2.83696669153869152069091796875</LongitudeDegrees>
            </Position>
            <AltitudeMeters>46.59999847412109375</AltitudeMeters>
            <DistanceMeters>NAN</DistanceMeters>
          </Trackpoint>
          <Trackpoint>
            <Time>2022-09-24T16:02:43.000Z</Time>
            <Position>
              <LatitudeDegrees>43.38534981943666934967041015625</LatitudeDegrees>
              <LongitudeDegrees>-2.83706610091030597686767578125</LongitudeDegrees>
            </Position>
            <AltitudeMeters>46</AltitudeMeters>
            <DistanceMeters>NAN</DistanceMeters>
          </Trackpoint>
          <Trackpoint>
            <Time>2022-09-24T16:02:44.000Z</Time>
            <Position>
              <LatitudeDegrees>43.38543078862130641937255859375</LatitudeDegrees>
              <LongitudeDegrees>-2.8371838666498661041259765625</LongitudeDegrees>
            </Position>
            <AltitudeMeters>45</AltitudeMeters>
            <DistanceMeters>NAN</DistanceMeters>
          </Trackpoint>
          <Trackpoint>
            <Time>2022-09-24T16:02:45.000Z</Time>
            <Position>
              <LatitudeDegrees>43.38550806976854801177978515625</LatitudeDegrees>
              <LongitudeDegrees>-2.83731051720678806304931640625</LongitudeDegrees>
            </Position>
            <AltitudeMeters>42.799999237060546875</AltitudeMeters>
            <DistanceMeters>NAN</DistanceMeters>
          </Trackpoint>
          <Trackpoint>
            <Time>2022-09-24T16:02:46.000Z</Time>
            <Position>
              <LatitudeDegrees>43.38557965122163295745849609375</LatitudeDegrees>
              <LongitudeDegrees>-2.83743984997272491455078125</LongitudeDegrees>
            </Position>
            <AltitudeMeters>42</AltitudeMeters>
            <DistanceMeters>NAN</DistanceMeters>
          </Trackpoint>
          <Trackpoint>
            <Time>2022-09-24T16:02:47.000Z</Time>
            <Position>
              <LatitudeDegrees>43.3856432698667049407958984375</LatitudeDegrees>
              <LongitudeDegrees>-2.8375751338899135589599609375</LongitudeDegrees>
            </Position>
            <AltitudeMeters>41.200000762939453125</AltitudeMeters>
            <DistanceMeters>NAN</DistanceMeters>
          </Trackpoint>
          <Trackpoint>
            <Time>2022-09-24T16:02:48.000Z</Time>
            <Position>
              <LatitudeDegrees>43.38570135645568370819091796875</LatitudeDegrees>
              <LongitudeDegrees>-2.83771620132029056549072265625</LongitudeDegrees>
            </Position>
            <AltitudeMeters>41.200000762939453125</AltitudeMeters>
            <DistanceMeters>NAN</DistanceMeters>
          </Trackpoint>
          <Trackpoint>
            <Time>2022-09-24T16:02:49.000Z</Time>
            <Position>
              <LatitudeDegrees>43.38575164787471294403076171875</LatitudeDegrees>
              <LongitudeDegrees>-2.83785693347454071044921875</LongitudeDegrees>
            </Position>
            <AltitudeMeters>41.200000762939453125</AltitudeMeters>
            <DistanceMeters>NAN</DistanceMeters>
          </Trackpoint>
          <Trackpoint>
            <Time>2022-09-24T16:02:50.000Z</Time>
            <Position>
              <LatitudeDegrees>43.3857991732656955718994140625</LatitudeDegrees>
              <LongitudeDegrees>-2.8379972465336322784423828125</LongitudeDegrees>
            </Position>
            <AltitudeMeters>41.200000762939453125</AltitudeMeters>
            <DistanceMeters>NAN</DistanceMeters>
          </Trackpoint>
          <Trackpoint>
            <Time>2022-09-24T16:02:51.000Z</Time>
            <Position>
              <LatitudeDegrees>43.38583915494382381439208984375</LatitudeDegrees>
              <LongitudeDegrees>-2.838140241801738739013671875</LongitudeDegrees>
            </Position>
            <AltitudeMeters>41.200000762939453125</AltitudeMeters>
            <DistanceMeters>NAN</DistanceMeters>
          </Trackpoint>
          <Trackpoint>
            <Time>2022-09-24T16:02:52.000Z</Time>
            <Position>
              <LatitudeDegrees>43.38587452657520771026611328125</LatitudeDegrees>
              <LongitudeDegrees>-2.83827929757535457611083984375</LongitudeDegrees>
            </Position>
            <AltitudeMeters>41.200000762939453125</AltitudeMeters>
            <DistanceMeters>NAN</DistanceMeters>
          </Trackpoint>
          <Trackpoint>
            <Time>2022-09-24T16:02:53.000Z</Time>
            <Position>
              <LatitudeDegrees>43.385899923741817474365234375</LatitudeDegrees>
              <LongitudeDegrees>-2.8384123183786869049072265625</LongitudeDegrees>
            </Position>
            <AltitudeMeters>39.799999237060546875</AltitudeMeters>
            <DistanceMeters>NAN</DistanceMeters>
          </Trackpoint>
          <Trackpoint>
            <Time>2022-09-24T16:02:54.000Z</Time>
            <Position>
              <LatitudeDegrees>43.38591492734849452972412109375</LatitudeDegrees>
              <LongitudeDegrees>-2.8385407291352748870849609375</LongitudeDegrees>
            </Position>
            <AltitudeMeters>39.40000152587890625</AltitudeMeters>
            <DistanceMeters>NAN</DistanceMeters>
          </Trackpoint>
          <Trackpoint>
            <Time>2022-09-24T16:02:55.000Z</Time>
            <Position>
              <LatitudeDegrees>43.38591568171977996826171875</LatitudeDegrees>
              <LongitudeDegrees>-2.8386701457202434539794921875</LongitudeDegrees>
            </Position>
            <AltitudeMeters>39.40000152587890625</AltitudeMeters>
            <DistanceMeters>NAN</DistanceMeters>
          </Trackpoint>
          <Trackpoint>
            <Time>2022-09-24T16:02:56.000Z</Time>
            <Position>
              <LatitudeDegrees>43.38590855710208415985107421875</LatitudeDegrees>
              <LongitudeDegrees>-2.838796041905879974365234375</LongitudeDegrees>
            </Position>
            <AltitudeMeters>39.799999237060546875</AltitudeMeters>
            <DistanceMeters>NAN</DistanceMeters>
          </Trackpoint>
          <Trackpoint>
            <Time>2022-09-24T16:02:57.000Z</Time>
            <Position>
              <LatitudeDegrees>43.3858964033424854278564453125</LatitudeDegrees>
              <LongitudeDegrees>-2.83891749568283557891845703125</LongitudeDegrees>
            </Position>
            <AltitudeMeters>40</AltitudeMeters>
            <DistanceMeters>NAN</DistanceMeters>
          </Trackpoint>
          <Trackpoint>
            <Time>2022-09-24T16:02:58.000Z</Time>
            <Position>
              <LatitudeDegrees>43.3858788013458251953125</LatitudeDegrees>
              <LongitudeDegrees>-2.8390369378030300140380859375</LongitudeDegrees>
            </Position>
            <AltitudeMeters>40</AltitudeMeters>
            <DistanceMeters>NAN</DistanceMeters>
          </Trackpoint>
          <Trackpoint>
            <Time>2022-09-24T16:02:59.000Z</Time>
            <Position>
              <LatitudeDegrees>43.38585809804499149322509765625</LatitudeDegrees>
              <LongitudeDegrees>-2.83915872685611248016357421875</LongitudeDegrees>
            </Position>
            <AltitudeMeters>41.200000762939453125</AltitudeMeters>
            <DistanceMeters>NAN</DistanceMeters>
          </Trackpoint>
          <Trackpoint>
            <Time>2022-09-24T16:03:00.000Z</Time>
            <Position>
              <LatitudeDegrees>43.38583999313414096832275390625</LatitudeDegrees>
              <LongitudeDegrees>-2.83927439711987972259521484375</LongitudeDegrees>
            </Position>
            <AltitudeMeters>42.200000762939453125</AltitudeMeters>
            <DistanceMeters>NAN</DistanceMeters>
          </Trackpoint>
          <Trackpoint>
            <Time>2022-09-24T16:03:01.000Z</Time>
            <Position>
              <LatitudeDegrees>43.38581149466335773468017578125</LatitudeDegrees>
              <LongitudeDegrees>-2.83939115703105926513671875</LongitudeDegrees>
            </Position>
            <AltitudeMeters>42.200000762939453125</AltitudeMeters>
            <DistanceMeters>NAN</DistanceMeters>
          </Trackpoint>
          <Trackpoint>
            <Time>2022-09-24T16:03:02.000Z</Time>
            <Position>
              <LatitudeDegrees>43.3857996761798858642578125</LatitudeDegrees>
              <LongitudeDegrees>-2.83951126970350742340087890625</LongitudeDegrees>
            </Position>
            <AltitudeMeters>42.200000762939453125</AltitudeMeters>
            <DistanceMeters>NAN</DistanceMeters>
          </Trackpoint>
          <Trackpoint>
            <Time>2022-09-24T16:03:03.000Z</Time>
            <Position>
              <LatitudeDegrees>43.38578634895384311676025390625</LatitudeDegrees>
              <LongitudeDegrees>-2.83962744288146495819091796875</LongitudeDegrees>
            </Position>
            <AltitudeMeters>42.200000762939453125</AltitudeMeters>
            <DistanceMeters>NAN</DistanceMeters>
          </Trackpoint>
          <Trackpoint>
            <Time>2022-09-24T16:03:04.000Z</Time>
            <Position>
              <LatitudeDegrees>43.38577888906002044677734375</LatitudeDegrees>
              <LongitudeDegrees>-2.83974562771618366241455078125</LongitudeDegrees>
            </Position>
            <AltitudeMeters>42.59999847412109375</AltitudeMeters>
            <DistanceMeters>NAN</DistanceMeters>
          </Trackpoint>
          <Trackpoint>
            <Time>2022-09-24T16:03:05.000Z</Time>
            <Position>
              <LatitudeDegrees>43.38578383438289165496826171875</LatitudeDegrees>
              <LongitudeDegrees>-2.83986683003604412078857421875</LongitudeDegrees>
            </Position>
            <AltitudeMeters>42.59999847412109375</AltitudeMeters>
            <DistanceMeters>NAN</DistanceMeters>
          </Trackpoint>
          <Trackpoint>
            <Time>2022-09-24T16:03:06.000Z</Time>
            <Position>
              <LatitudeDegrees>43.38578760623931884765625</LatitudeDegrees>
              <LongitudeDegrees>-2.83999205566942691802978515625</LongitudeDegrees>
            </Position>
            <AltitudeMeters>42.59999847412109375</AltitudeMeters>
            <DistanceMeters>NAN</DistanceMeters>
          </Trackpoint>
          <Trackpoint>
            <Time>2022-09-24T16:03:07.000Z</Time>
            <Position>
              <LatitudeDegrees>43.38579456321895122528076171875</LatitudeDegrees>
              <LongitudeDegrees>-2.8401205502450466156005859375</LongitudeDegrees>
            </Position>
            <AltitudeMeters>42</AltitudeMeters>
            <DistanceMeters>NAN</DistanceMeters>
          </Trackpoint>
          <Trackpoint>
            <Time>2022-09-24T16:03:08.000Z</Time>
            <Position>
              <LatitudeDegrees>43.38580898009240627288818359375</LatitudeDegrees>
              <LongitudeDegrees>-2.84025407396256923675537109375</LongitudeDegrees>
            </Position>
            <AltitudeMeters>41</AltitudeMeters>
            <DistanceMeters>NAN</DistanceMeters>
          </Trackpoint>
          <Trackpoint>
            <Time>2022-09-24T16:03:09.000Z</Time>
            <Position>
              <LatitudeDegrees>43.38580898009240627288818359375</LatitudeDegrees>
              <LongitudeDegrees>-2.84025407396256923675537109375</LongitudeDegrees>
            </Position>
            <AltitudeMeters>41</AltitudeMeters>
            <DistanceMeters>NAN</DistanceMeters>
          </Trackpoint>
          <Trackpoint>
            <Time>2022-09-24T16:03:10.000Z</Time>
            <Position>
              <LatitudeDegrees>43.38585927151143550872802734375</LatitudeDegrees>
              <LongitudeDegrees>-2.840538136661052703857421875</LongitudeDegrees>
            </Position>
            <AltitudeMeters>41</AltitudeMeters>
            <DistanceMeters>NAN</DistanceMeters>
          </Trackpoint>
          <Trackpoint>
            <Time>2022-09-24T16:03:11.000Z</Time>
            <Position>
              <LatitudeDegrees>43.3858779631555080413818359375</LatitudeDegrees>
              <LongitudeDegrees>-2.84068926237523555755615234375</LongitudeDegrees>
            </Position>
            <AltitudeMeters>41</AltitudeMeters>
            <DistanceMeters>NAN</DistanceMeters>
          </Trackpoint>
          <Trackpoint>
            <Time>2022-09-24T16:03:12.000Z</Time>
            <Position>
              <LatitudeDegrees>43.3858813159167766571044921875</LatitudeDegrees>
              <LongitudeDegrees>-2.8408574871718883514404296875</LongitudeDegrees>
            </Position>
            <AltitudeMeters>40</AltitudeMeters>
            <DistanceMeters>NAN</DistanceMeters>
          </Trackpoint>
          <Trackpoint>
            <Time>2022-09-24T16:03:13.000Z</Time>
            <Position>
              <LatitudeDegrees>43.38589263148605823516845703125</LatitudeDegrees>
              <LongitudeDegrees>-2.84102889709174633026123046875</LongitudeDegrees>
            </Position>
            <AltitudeMeters>34.200000762939453125</AltitudeMeters>
            <DistanceMeters>NAN</DistanceMeters>
          </Trackpoint>
          <Trackpoint>
            <Time>2022-09-24T16:03:14.000Z</Time>
            <Position>
              <LatitudeDegrees>43.38590906001627445220947265625</LatitudeDegrees>
              <LongitudeDegrees>-2.84121614880859851837158203125</LongitudeDegrees>
            </Position>
            <AltitudeMeters>32.59999847412109375</AltitudeMeters>
            <DistanceMeters>NAN</DistanceMeters>
          </Trackpoint>
          <Trackpoint>
            <Time>2022-09-24T16:03:15.000Z</Time>
            <Position>
              <LatitudeDegrees>43.3859292604029178619384765625</LatitudeDegrees>
              <LongitudeDegrees>-2.8414049930870532989501953125</LongitudeDegrees>
            </Position>
            <AltitudeMeters>29.6000003814697265625</AltitudeMeters>
            <DistanceMeters>NAN</DistanceMeters>
          </Trackpoint>
          <Trackpoint>
            <Time>2022-09-24T16:03:16.000Z</Time>
            <Position>
              <LatitudeDegrees>43.38596454821527004241943359375</LatitudeDegrees>
              <LongitudeDegrees>-2.8415893949568271636962890625</LongitudeDegrees>
            </Position>
            <AltitudeMeters>29.6000003814697265625</AltitudeMeters>
            <DistanceMeters>NAN</DistanceMeters>
          </Trackpoint>
          <Trackpoint>
            <Time>2022-09-24T16:03:17.000Z</Time>
            <Position>
              <LatitudeDegrees>43.3860100619494915008544921875</LatitudeDegrees>
              <LongitudeDegrees>-2.84177564084529876708984375</LongitudeDegrees>
            </Position>
            <AltitudeMeters>29.6000003814697265625</AltitudeMeters>
            <DistanceMeters>NAN</DistanceMeters>
          </Trackpoint>
          <Trackpoint>
            <Time>2022-09-24T16:03:18.000Z</Time>
            <Position>
              <LatitudeDegrees>43.38603411801159381866455078125</LatitudeDegrees>
              <LongitudeDegrees>-2.84198041073977947235107421875</LongitudeDegrees>
            </Position>
            <AltitudeMeters>29.6000003814697265625</AltitudeMeters>
            <DistanceMeters>NAN</DistanceMeters>
          </Trackpoint>
          <Trackpoint>
            <Time>2022-09-24T16:03:19.000Z</Time>
            <Position>
              <LatitudeDegrees>43.38606345467269420623779296875</LatitudeDegrees>
              <LongitudeDegrees>-2.8421519882977008819580078125</LongitudeDegrees>
            </Position>
            <AltitudeMeters>29.3999996185302734375</AltitudeMeters>
            <DistanceMeters>NAN</DistanceMeters>
          </Trackpoint>
          <Trackpoint>
            <Time>2022-09-24T16:03:20.000Z</Time>
            <Position>
              <LatitudeDegrees>43.38609798811376094818115234375</LatitudeDegrees>
              <LongitudeDegrees>-2.84230998717248439788818359375</LongitudeDegrees>
            </Position>
            <AltitudeMeters>29.3999996185302734375</AltitudeMeters>
            <DistanceMeters>NAN</DistanceMeters>
          </Trackpoint>
          <Trackpoint>
            <Time>2022-09-24T16:03:21.000Z</Time>
            <Position>
              <LatitudeDegrees>43.386112153530120849609375</LatitudeDegrees>
              <LongitudeDegrees>-2.84248416312038898468017578125</LongitudeDegrees>
            </Position>
            <AltitudeMeters>29.3999996185302734375</AltitudeMeters>
            <DistanceMeters>NAN</DistanceMeters>
          </Trackpoint>
          <Trackpoint>
            <Time>2022-09-24T16:03:22.000Z</Time>
            <Position>
              <LatitudeDegrees>43.3861019276082515716552734375</LatitudeDegrees>
              <LongitudeDegrees>-2.84266613423824310302734375</LongitudeDegrees>
            </Position>
            <AltitudeMeters>31.3999996185302734375</AltitudeMeters>
            <DistanceMeters>NAN</DistanceMeters>
          </Trackpoint>
          <Trackpoint>
            <Time>2022-09-24T16:03:23.000Z</Time>
            <Position>
              <LatitudeDegrees>43.3860841579735279083251953125</LatitudeDegrees>
              <LongitudeDegrees>-2.842843830585479736328125</LongitudeDegrees>
            </Position>
            <AltitudeMeters>32</AltitudeMeters>
            <DistanceMeters>NAN</DistanceMeters>
          </Trackpoint>
          <Trackpoint>
            <Time>2022-09-24T16:03:24.000Z</Time>
            <Position>
              <LatitudeDegrees>43.38606588542461395263671875</LatitudeDegrees>
              <LongitudeDegrees>-2.84301817417144775390625</LongitudeDegrees>
            </Position>
            <AltitudeMeters>25.200000762939453125</AltitudeMeters>
            <DistanceMeters>NAN</DistanceMeters>
          </Trackpoint>
          <Trackpoint>
            <Time>2022-09-24T16:03:25.000Z</Time>
            <Position>
              <LatitudeDegrees>43.38604333810508251190185546875</LatitudeDegrees>
              <LongitudeDegrees>-2.84319184720516204833984375</LongitudeDegrees>
            </Position>
            <AltitudeMeters>24.799999237060546875</AltitudeMeters>
            <DistanceMeters>NAN</DistanceMeters>
          </Trackpoint>
          <Trackpoint>
            <Time>2022-09-24T16:03:26.000Z</Time>
            <Position>
              <LatitudeDegrees>43.38601685129106044769287109375</LatitudeDegrees>
              <LongitudeDegrees>-2.84336644224822521209716796875</LongitudeDegrees>
            </Position>
            <AltitudeMeters>24.6000003814697265625</AltitudeMeters>
            <DistanceMeters>NAN</DistanceMeters>
          </Trackpoint>
          <Trackpoint>
            <Time>2022-09-24T16:03:27.000Z</Time>
            <Position>
              <LatitudeDegrees>43.38598818518221378326416015625</LatitudeDegrees>
              <LongitudeDegrees>-2.84354480914771556854248046875</LongitudeDegrees>
            </Position>
            <AltitudeMeters>24.3999996185302734375</AltitudeMeters>
            <DistanceMeters>NAN</DistanceMeters>
          </Trackpoint>
          <Trackpoint>
            <Time>2022-09-24T16:03:28.000Z</Time>
            <Position>
              <LatitudeDegrees>43.38595868088304996490478515625</LatitudeDegrees>
              <LongitudeDegrees>-2.84372803755104541778564453125</LongitudeDegrees>
            </Position>
            <AltitudeMeters>22.200000762939453125</AltitudeMeters>
            <DistanceMeters>NAN</DistanceMeters>
          </Trackpoint>
          <Trackpoint>
            <Time>2022-09-24T16:03:29.000Z</Time>
            <Position>
              <LatitudeDegrees>43.38593001477420330047607421875</LatitudeDegrees>
              <LongitudeDegrees>-2.8439135290682315826416015625</LongitudeDegrees>
            </Position>
            <AltitudeMeters>20.6000003814697265625</AltitudeMeters>
            <DistanceMeters>NAN</DistanceMeters>
          </Trackpoint>
          <Trackpoint>
            <Time>2022-09-24T16:03:30.000Z</Time>
            <Position>
              <LatitudeDegrees>43.3859071321785449981689453125</LatitudeDegrees>
              <LongitudeDegrees>-2.8441032953560352325439453125</LongitudeDegrees>
            </Position>
            <AltitudeMeters>19.799999237060546875</AltitudeMeters>
            <DistanceMeters>NAN</DistanceMeters>
          </Trackpoint>
          <Trackpoint>
            <Time>2022-09-24T16:03:31.000Z</Time>
            <Position>
              <LatitudeDegrees>43.385884501039981842041015625</LatitudeDegrees>
              <LongitudeDegrees>-2.844296582043170928955078125</LongitudeDegrees>
            </Position>
            <AltitudeMeters>19.6000003814697265625</AltitudeMeters>
            <DistanceMeters>NAN</DistanceMeters>
          </Trackpoint>
          <Trackpoint>
            <Time>2022-09-24T16:03:32.000Z</Time>
            <Position>
              <LatitudeDegrees>43.38586010970175266265869140625</LatitudeDegrees>
              <LongitudeDegrees>-2.84449565224349498748779296875</LongitudeDegrees>
            </Position>
            <AltitudeMeters>18.3999996185302734375</AltitudeMeters>
            <DistanceMeters>NAN</DistanceMeters>
          </Trackpoint>
          <Trackpoint>
            <Time>2022-09-24T16:03:33.000Z</Time>
            <Position>
              <LatitudeDegrees>43.38583865202963352203369140625</LatitudeDegrees>
              <LongitudeDegrees>-2.84468944184482097625732421875</LongitudeDegrees>
            </Position>
            <AltitudeMeters>17.3999996185302734375</AltitudeMeters>
            <DistanceMeters>NAN</DistanceMeters>
          </Trackpoint>
          <Trackpoint>
            <Time>2022-09-24T16:03:34.000Z</Time>
            <Position>
              <LatitudeDegrees>43.38581250049173831939697265625</LatitudeDegrees>
              <LongitudeDegrees>-2.84488432109355926513671875</LongitudeDegrees>
            </Position>
            <AltitudeMeters>16.200000762939453125</AltitudeMeters>
            <DistanceMeters>NAN</DistanceMeters>
          </Trackpoint>
          <Trackpoint>
            <Time>2022-09-24T16:03:35.000Z</Time>
            <Position>
              <LatitudeDegrees>43.38579003699123859405517578125</LatitudeDegrees>
              <LongitudeDegrees>-2.84508003853261470794677734375</LongitudeDegrees>
            </Position>
            <AltitudeMeters>15</AltitudeMeters>
            <DistanceMeters>NAN</DistanceMeters>
          </Trackpoint>
          <Trackpoint>
            <Time>2022-09-24T16:03:36.000Z</Time>
            <Position>
              <LatitudeDegrees>43.38576522655785083770751953125</LatitudeDegrees>
              <LongitudeDegrees>-2.84527382813394069671630859375</LongitudeDegrees>
            </Position>
            <AltitudeMeters>12.80000019073486328125</AltitudeMeters>
            <DistanceMeters>NAN</DistanceMeters>
          </Trackpoint>
          <Trackpoint>
            <Time>2022-09-24T16:03:37.000Z</Time>
            <Position>
              <LatitudeDegrees>43.385739661753177642822265625</LatitudeDegrees>
              <LongitudeDegrees>-2.8454671986401081085205078125</LongitudeDegrees>
            </Position>
            <AltitudeMeters>12.80000019073486328125</AltitudeMeters>
            <DistanceMeters>NAN</DistanceMeters>
          </Trackpoint>
          <Trackpoint>
            <Time>2022-09-24T16:03:38.000Z</Time>
            <Position>
              <LatitudeDegrees>43.385714851319789886474609375</LatitudeDegrees>
              <LongitudeDegrees>-2.84565771929919719696044921875</LongitudeDegrees>
            </Position>
            <AltitudeMeters>12.80000019073486328125</AltitudeMeters>
            <DistanceMeters>NAN</DistanceMeters>
          </Trackpoint>
          <Trackpoint>
            <Time>2022-09-24T16:03:39.000Z</Time>
            <Position>
              <LatitudeDegrees>43.38569381274282932281494140625</LatitudeDegrees>
              <LongitudeDegrees>-2.84584396518766880035400390625</LongitudeDegrees>
            </Position>
            <AltitudeMeters>12.80000019073486328125</AltitudeMeters>
            <DistanceMeters>NAN</DistanceMeters>
          </Trackpoint>
          <Trackpoint>
            <Time>2022-09-24T16:03:40.000Z</Time>
            <Position>
              <LatitudeDegrees>43.3856731094419956207275390625</LatitudeDegrees>
              <LongitudeDegrees>-2.84603440202772617340087890625</LongitudeDegrees>
            </Position>
            <AltitudeMeters>12.80000019073486328125</AltitudeMeters>
            <DistanceMeters>NAN</DistanceMeters>
          </Trackpoint>
          <Trackpoint>
            <Time>2022-09-24T16:03:41.000Z</Time>
            <Position>
              <LatitudeDegrees>43.38565005920827388763427734375</LatitudeDegrees>
              <LongitudeDegrees>-2.8462242521345615386962890625</LongitudeDegrees>
            </Position>
            <AltitudeMeters>12.6000003814697265625</AltitudeMeters>
            <DistanceMeters>NAN</DistanceMeters>
          </Trackpoint>
          <Trackpoint>
            <Time>2022-09-24T16:03:42.000Z</Time>
            <Position>
              <LatitudeDegrees>43.38562943972647190093994140625</LatitudeDegrees>
              <LongitudeDegrees>-2.84640924073755741119384765625</LongitudeDegrees>
            </Position>
            <AltitudeMeters>12.6000003814697265625</AltitudeMeters>
            <DistanceMeters>NAN</DistanceMeters>
          </Trackpoint>
          <Trackpoint>
            <Time>2022-09-24T16:03:43.000Z</Time>
            <Position>
              <LatitudeDegrees>43.3856073953211307525634765625</LatitudeDegrees>
              <LongitudeDegrees>-2.8465933911502361297607421875</LongitudeDegrees>
            </Position>
            <AltitudeMeters>12</AltitudeMeters>
            <DistanceMeters>NAN</DistanceMeters>
          </Trackpoint>
          <Trackpoint>
            <Time>2022-09-24T16:03:44.000Z</Time>
            <Position>
              <LatitudeDegrees>43.3855825848877429962158203125</LatitudeDegrees>
              <LongitudeDegrees>-2.84677603282034397125244140625</LongitudeDegrees>
            </Position>
            <AltitudeMeters>9.80000019073486328125</AltitudeMeters>
            <DistanceMeters>NAN</DistanceMeters>
          </Trackpoint>
          <Trackpoint>
            <Time>2022-09-24T16:03:45.000Z</Time>
            <Position>
              <LatitudeDegrees>43.38556154631078243255615234375</LatitudeDegrees>
              <LongitudeDegrees>-2.8469558246433734893798828125</LongitudeDegrees>
            </Position>
            <AltitudeMeters>9.80000019073486328125</AltitudeMeters>
            <DistanceMeters>NAN</DistanceMeters>
          </Trackpoint>
          <Trackpoint>
            <Time>2022-09-24T16:03:46.000Z</Time>
            <Position>
              <LatitudeDegrees>43.38554796762764453887939453125</LatitudeDegrees>
              <LongitudeDegrees>-2.84713159315288066864013671875</LongitudeDegrees>
            </Position>
            <AltitudeMeters>9.80000019073486328125</AltitudeMeters>
            <DistanceMeters>NAN</DistanceMeters>
          </Trackpoint>
          <Trackpoint>
            <Time>2022-09-24T16:03:47.000Z</Time>
            <Position>
              <LatitudeDegrees>43.385548554360866546630859375</LatitudeDegrees>
              <LongitudeDegrees>-2.84730442799627780914306640625</LongitudeDegrees>
            </Position>
            <AltitudeMeters>9.6000003814697265625</AltitudeMeters>
            <DistanceMeters>NAN</DistanceMeters>
          </Trackpoint>
          <Trackpoint>
            <Time>2022-09-24T16:03:48.000Z</Time>
            <Position>
              <LatitudeDegrees>43.38556171394884586334228515625</LatitudeDegrees>
              <LongitudeDegrees>-2.84747458063066005706787109375</LongitudeDegrees>
            </Position>
            <AltitudeMeters>9.19999980926513671875</AltitudeMeters>
            <DistanceMeters>NAN</DistanceMeters>
          </Trackpoint>
          <Trackpoint>
            <Time>2022-09-24T16:03:49.000Z</Time>
            <Position>
              <LatitudeDegrees>43.38558518327772617340087890625</LatitudeDegrees>
              <LongitudeDegrees>-2.8476404584944248199462890625</LongitudeDegrees>
            </Position>
            <AltitudeMeters>6.80000019073486328125</AltitudeMeters>
            <DistanceMeters>NAN</DistanceMeters>
          </Trackpoint>
          <Trackpoint>
            <Time>2022-09-24T16:03:50.000Z</Time>
            <Position>
              <LatitudeDegrees>43.385608233511447906494140625</LatitudeDegrees>
              <LongitudeDegrees>-2.847768701612949371337890625</LongitudeDegrees>
            </Position>
            <AltitudeMeters>5.80000019073486328125</AltitudeMeters>
            <DistanceMeters>NAN</DistanceMeters>
          </Trackpoint>
          <Trackpoint>
            <Time>2022-09-24T16:03:51.000Z</Time>
            <Position>
              <LatitudeDegrees>43.3856399171054363250732421875</LatitudeDegrees>
              <LongitudeDegrees>-2.84792653284966945648193359375</LongitudeDegrees>
            </Position>
            <AltitudeMeters>5.19999980926513671875</AltitudeMeters>
            <DistanceMeters>NAN</DistanceMeters>
          </Trackpoint>
          <Trackpoint>
            <Time>2022-09-24T16:03:52.000Z</Time>
            <Position>
              <LatitudeDegrees>43.3856804855167865753173828125</LatitudeDegrees>
              <LongitudeDegrees>-2.84811043180525302886962890625</LongitudeDegrees>
            </Position>
            <AltitudeMeters>5</AltitudeMeters>
            <DistanceMeters>NAN</DistanceMeters>
          </Trackpoint>
          <Trackpoint>
            <Time>2022-09-24T16:03:53.000Z</Time>
            <Position>
              <LatitudeDegrees>43.38571527041494846343994140625</LatitudeDegrees>
              <LongitudeDegrees>-2.84825854003429412841796875</LongitudeDegrees>
            </Position>
            <AltitudeMeters>4.400000095367431640625</AltitudeMeters>
            <DistanceMeters>NAN</DistanceMeters>
          </Trackpoint>
          <Trackpoint>
            <Time>2022-09-24T16:03:54.000Z</Time>
            <Position>
              <LatitudeDegrees>43.3857468701899051666259765625</LatitudeDegrees>
              <LongitudeDegrees>-2.84840446896851062774658203125</LongitudeDegrees>
            </Position>
            <AltitudeMeters>4</AltitudeMeters>
            <DistanceMeters>NAN</DistanceMeters>
          </Trackpoint>
          <Trackpoint>
            <Time>2022-09-24T16:03:55.000Z</Time>
            <Position>
              <LatitudeDegrees>43.38577729649841785430908203125</LatitudeDegrees>
              <LongitudeDegrees>-2.848551236093044281005859375</LongitudeDegrees>
            </Position>
            <AltitudeMeters>3.2000000476837158203125</AltitudeMeters>
            <DistanceMeters>NAN</DistanceMeters>
          </Trackpoint>
          <Trackpoint>
            <Time>2022-09-24T16:03:56.000Z</Time>
            <Position>
              <LatitudeDegrees>43.38580696843564510345458984375</LatitudeDegrees>
              <LongitudeDegrees>-2.848695404827594757080078125</LongitudeDegrees>
            </Position>
            <AltitudeMeters>4</AltitudeMeters>
            <DistanceMeters>NAN</DistanceMeters>
          </Trackpoint>
          <Trackpoint>
            <Time>2022-09-24T16:03:57.000Z</Time>
            <Position>
              <LatitudeDegrees>43.3858345448970794677734375</LatitudeDegrees>
              <LongitudeDegrees>-2.84883655607700347900390625</LongitudeDegrees>
            </Position>
            <AltitudeMeters>4</AltitudeMeters>
            <DistanceMeters>NAN</DistanceMeters>
          </Trackpoint>
          <Trackpoint>
            <Time>2022-09-24T16:03:58.000Z</Time>
            <Position>
              <LatitudeDegrees>43.38585156016051769256591796875</LatitudeDegrees>
              <LongitudeDegrees>-2.84897946752607822418212890625</LongitudeDegrees>
            </Position>
            <AltitudeMeters>5</AltitudeMeters>
            <DistanceMeters>NAN</DistanceMeters>
          </Trackpoint>
          <Trackpoint>
            <Time>2022-09-24T16:03:59.000Z</Time>
            <Position>
              <LatitudeDegrees>43.385859690606594085693359375</LatitudeDegrees>
              <LongitudeDegrees>-2.8491163440048694610595703125</LongitudeDegrees>
            </Position>
            <AltitudeMeters>5.19999980926513671875</AltitudeMeters>
            <DistanceMeters>NAN</DistanceMeters>
          </Trackpoint>
          <Trackpoint>
            <Time>2022-09-24T16:04:00.000Z</Time>
            <Position>
              <LatitudeDegrees>43.3858601935207843780517578125</LatitudeDegrees>
              <LongitudeDegrees>-2.8492481075227260589599609375</LongitudeDegrees>
            </Position>
            <AltitudeMeters>6</AltitudeMeters>
            <DistanceMeters>NAN</DistanceMeters>
          </Trackpoint>
          <Trackpoint>
            <Time>2022-09-24T16:04:01.000Z</Time>
            <Position>
              <LatitudeDegrees>43.38584862649440765380859375</LatitudeDegrees>
              <LongitudeDegrees>-2.84939847886562347412109375</LongitudeDegrees>
            </Position>
            <AltitudeMeters>6.80000019073486328125</AltitudeMeters>
            <DistanceMeters>NAN</DistanceMeters>
          </Trackpoint>
          <Trackpoint>
            <Time>2022-09-24T16:04:02.000Z</Time>
            <Position>
              <LatitudeDegrees>43.38584862649440765380859375</LatitudeDegrees>
              <LongitudeDegrees>-2.84939847886562347412109375</LongitudeDegrees>
            </Position>
            <AltitudeMeters>8.3999996185302734375</AltitudeMeters>
            <DistanceMeters>NAN</DistanceMeters>
          </Trackpoint>
          <Trackpoint>
            <Time>2022-09-24T16:04:03.000Z</Time>
            <Position>
              <LatitudeDegrees>43.38580244220793247222900390625</LatitudeDegrees>
              <LongitudeDegrees>-2.8496014885604381561279296875</LongitudeDegrees>
            </Position>
            <AltitudeMeters>9.19999980926513671875</AltitudeMeters>
            <DistanceMeters>NAN</DistanceMeters>
          </Trackpoint>
          <Trackpoint>
            <Time>2022-09-24T16:04:04.000Z</Time>
            <Position>
              <LatitudeDegrees>43.3857753686606884002685546875</LatitudeDegrees>
              <LongitudeDegrees>-2.84969913773238658905029296875</LongitudeDegrees>
            </Position>
            <AltitudeMeters>9.3999996185302734375</AltitudeMeters>
            <DistanceMeters>NAN</DistanceMeters>
          </Trackpoint>
          <Trackpoint>
            <Time>2022-09-24T16:04:05.000Z</Time>
            <Position>
              <LatitudeDegrees>43.38575064204633235931396484375</LatitudeDegrees>
              <LongitudeDegrees>-2.84978396259248256683349609375</LongitudeDegrees>
            </Position>
            <AltitudeMeters>10.3999996185302734375</AltitudeMeters>
            <DistanceMeters>NAN</DistanceMeters>
          </Trackpoint>
          <Trackpoint>
            <Time>2022-09-24T16:04:06.000Z</Time>
            <Position>
              <LatitudeDegrees>43.38572516106069087982177734375</LatitudeDegrees>
              <LongitudeDegrees>-2.8498671948909759521484375</LongitudeDegrees>
            </Position>
            <AltitudeMeters>10.3999996185302734375</AltitudeMeters>
            <DistanceMeters>NAN</DistanceMeters>
          </Trackpoint>
          <Trackpoint>
            <Time>2022-09-24T16:04:07.000Z</Time>
            <Position>
              <LatitudeDegrees>43.38569766841828823089599609375</LatitudeDegrees>
              <LongitudeDegrees>-2.8499575518071651458740234375</LongitudeDegrees>
            </Position>
            <AltitudeMeters>11.19999980926513671875</AltitudeMeters>
            <DistanceMeters>NAN</DistanceMeters>
          </Trackpoint>
          <Trackpoint>
            <Time>2022-09-24T16:04:08.000Z</Time>
            <Position>
              <LatitudeDegrees>43.38568291626870632171630859375</LatitudeDegrees>
              <LongitudeDegrees>-2.85001002252101898193359375</LongitudeDegrees>
            </Position>
            <AltitudeMeters>13.19999980926513671875</AltitudeMeters>
            <DistanceMeters>NAN</DistanceMeters>
          </Trackpoint>
          <Trackpoint>
            <Time>2022-09-24T16:04:09.000Z</Time>
            <Position>
              <LatitudeDegrees>43.38568291626870632171630859375</LatitudeDegrees>
              <LongitudeDegrees>-2.85001002252101898193359375</LongitudeDegrees>
            </Position>
            <AltitudeMeters>13.6000003814697265625</AltitudeMeters>
            <DistanceMeters>NAN</DistanceMeters>
          </Trackpoint>
          <Trackpoint>
            <Time>2022-09-24T16:04:10.000Z</Time>
            <Position>
              <LatitudeDegrees>43.3856496401131153106689453125</LatitudeDegrees>
              <LongitudeDegrees>-2.85013114102184772491455078125</LongitudeDegrees>
            </Position>
            <AltitudeMeters>13.80000019073486328125</AltitudeMeters>
            <DistanceMeters>NAN</DistanceMeters>
          </Trackpoint>
          <Trackpoint>
            <Time>2022-09-24T16:04:11.000Z</Time>
            <Position>
              <LatitudeDegrees>43.38563564233481884002685546875</LatitudeDegrees>
              <LongitudeDegrees>-2.850187718868255615234375</LongitudeDegrees>
            </Position>
            <AltitudeMeters>15</AltitudeMeters>
            <DistanceMeters>NAN</DistanceMeters>
          </Trackpoint>
          <Trackpoint>
            <Time>2022-09-24T16:04:12.000Z</Time>
            <Position>
              <LatitudeDegrees>43.38561929762363433837890625</LatitudeDegrees>
              <LongitudeDegrees>-2.85025083459913730621337890625</LongitudeDegrees>
            </Position>
            <AltitudeMeters>15.80000019073486328125</AltitudeMeters>
            <DistanceMeters>NAN</DistanceMeters>
          </Trackpoint>
          <Trackpoint>
            <Time>2022-09-24T16:04:13.000Z</Time>
            <Position>
              <LatitudeDegrees>43.3856043778359889984130859375</LatitudeDegrees>
              <LongitudeDegrees>-2.850287966430187225341796875</LongitudeDegrees>
            </Position>
            <AltitudeMeters>16.200000762939453125</AltitudeMeters>
            <DistanceMeters>NAN</DistanceMeters>
          </Trackpoint>
          <Trackpoint>
            <Time>2022-09-24T16:04:14.000Z</Time>
            <Position>
              <LatitudeDegrees>43.385586105287075042724609375</LatitudeDegrees>
              <LongitudeDegrees>-2.85033063031733036041259765625</LongitudeDegrees>
            </Position>
            <AltitudeMeters>16.3999996185302734375</AltitudeMeters>
            <DistanceMeters>NAN</DistanceMeters>
          </Trackpoint>
          <Trackpoint>
            <Time>2022-09-24T16:04:15.000Z</Time>
            <Position>
              <LatitudeDegrees>43.3855708502233028411865234375</LatitudeDegrees>
              <LongitudeDegrees>-2.850373797118663787841796875</LongitudeDegrees>
            </Position>
            <AltitudeMeters>17</AltitudeMeters>
            <DistanceMeters>NAN</DistanceMeters>
          </Trackpoint>
          <Trackpoint>
            <Time>2022-09-24T16:04:16.000Z</Time>
            <Position>
              <LatitudeDegrees>43.3855510689318180084228515625</LatitudeDegrees>
              <LongitudeDegrees>-2.850423753261566162109375</LongitudeDegrees>
            </Position>
            <AltitudeMeters>17.200000762939453125</AltitudeMeters>
            <DistanceMeters>NAN</DistanceMeters>
          </Trackpoint>
          <Trackpoint>
            <Time>2022-09-24T16:04:17.000Z</Time>
            <Position>
              <LatitudeDegrees>43.3855366520583629608154296875</LatitudeDegrees>
              <LongitudeDegrees>-2.85045166499912738800048828125</LongitudeDegrees>
            </Position>
            <AltitudeMeters>18</AltitudeMeters>
            <DistanceMeters>NAN</DistanceMeters>
          </Trackpoint>
          <Trackpoint>
            <Time>2022-09-24T16:04:18.000Z</Time>
            <Position>
              <LatitudeDegrees>43.38552005589008331298828125</LatitudeDegrees>
              <LongitudeDegrees>-2.85048167221248149871826171875</LongitudeDegrees>
            </Position>
            <AltitudeMeters>18.200000762939453125</AltitudeMeters>
            <DistanceMeters>NAN</DistanceMeters>
          </Trackpoint>
          <Trackpoint>
            <Time>2022-09-24T16:04:19.000Z</Time>
            <Position>
              <LatitudeDegrees>43.38549884967505931854248046875</LatitudeDegrees>
              <LongitudeDegrees>-2.8505094163119792938232421875</LongitudeDegrees>
            </Position>
            <AltitudeMeters>18.200000762939453125</AltitudeMeters>
            <DistanceMeters>NAN</DistanceMeters>
          </Trackpoint>
          <Trackpoint>
            <Time>2022-09-24T16:04:20.000Z</Time>
            <Position>
              <LatitudeDegrees>43.385473452508449554443359375</LatitudeDegrees>
              <LongitudeDegrees>-2.85053565166890621185302734375</LongitudeDegrees>
            </Position>
            <AltitudeMeters>18.3999996185302734375</AltitudeMeters>
            <DistanceMeters>NAN</DistanceMeters>
          </Trackpoint>
          <Trackpoint>
            <Time>2022-09-24T16:04:21.000Z</Time>
            <Position>
              <LatitudeDegrees>43.38544587604701519012451171875</LatitudeDegrees>
              <LongitudeDegrees>-2.85055912099778652191162109375</LongitudeDegrees>
            </Position>
            <AltitudeMeters>18.3999996185302734375</AltitudeMeters>
            <DistanceMeters>NAN</DistanceMeters>
          </Trackpoint>
          <Trackpoint>
            <Time>2022-09-24T16:04:22.000Z</Time>
            <Position>
              <LatitudeDegrees>43.385418467223644256591796875</LatitudeDegrees>
              <LongitudeDegrees>-2.85058242268860340118408203125</LongitudeDegrees>
            </Position>
            <AltitudeMeters>18.3999996185302734375</AltitudeMeters>
            <DistanceMeters>NAN</DistanceMeters>
          </Trackpoint>
          <Trackpoint>
            <Time>2022-09-24T16:04:23.000Z</Time>
            <Position>
              <LatitudeDegrees>43.3853881247341632843017578125</LatitudeDegrees>
              <LongitudeDegrees>-2.85060052759945392608642578125</LongitudeDegrees>
            </Position>
            <AltitudeMeters>18.799999237060546875</AltitudeMeters>
            <DistanceMeters>NAN</DistanceMeters>
          </Trackpoint>
          <Trackpoint>
            <Time>2022-09-24T16:04:24.000Z</Time>
            <Position>
              <LatitudeDegrees>43.38535669259727001190185546875</LatitudeDegrees>
              <LongitudeDegrees>-2.85061846487224102020263671875</LongitudeDegrees>
            </Position>
            <AltitudeMeters>19</AltitudeMeters>
            <DistanceMeters>NAN</DistanceMeters>
          </Trackpoint>
          <Trackpoint>
            <Time>2022-09-24T16:04:25.000Z</Time>
            <Position>
              <LatitudeDegrees>43.38532433845102787017822265625</LatitudeDegrees>
              <LongitudeDegrees>-2.850636653602123260498046875</LongitudeDegrees>
            </Position>
            <AltitudeMeters>19.200000762939453125</AltitudeMeters>
            <DistanceMeters>NAN</DistanceMeters>
          </Trackpoint>
          <Trackpoint>
            <Time>2022-09-24T16:04:26.000Z</Time>
            <Position>
              <LatitudeDegrees>43.38529097847640514373779296875</LatitudeDegrees>
              <LongitudeDegrees>-2.8506559319794178009033203125</LongitudeDegrees>
            </Position>
            <AltitudeMeters>19.3999996185302734375</AltitudeMeters>
            <DistanceMeters>NAN</DistanceMeters>
          </Trackpoint>
          <Trackpoint>
            <Time>2022-09-24T16:04:27.000Z</Time>
            <Position>
              <LatitudeDegrees>43.38525543920695781707763671875</LatitudeDegrees>
              <LongitudeDegrees>-2.85067495889961719512939453125</LongitudeDegrees>
            </Position>
            <AltitudeMeters>19.3999996185302734375</AltitudeMeters>
            <DistanceMeters>NAN</DistanceMeters>
          </Trackpoint>
          <Trackpoint>
            <Time>2022-09-24T16:04:28.000Z</Time>
            <Position>
              <LatitudeDegrees>43.38521470315754413604736328125</LatitudeDegrees>
              <LongitudeDegrees>-2.8506959974765777587890625</LongitudeDegrees>
            </Position>
            <AltitudeMeters>19.799999237060546875</AltitudeMeters>
            <DistanceMeters>NAN</DistanceMeters>
          </Trackpoint>
          <Trackpoint>
            <Time>2022-09-24T16:04:29.000Z</Time>
            <Position>
              <LatitudeDegrees>43.3851725421845912933349609375</LatitudeDegrees>
              <LongitudeDegrees>-2.85071938298642635345458984375</LongitudeDegrees>
            </Position>
            <AltitudeMeters>19.799999237060546875</AltitudeMeters>
            <DistanceMeters>NAN</DistanceMeters>
          </Trackpoint>
          <Trackpoint>
            <Time>2022-09-24T16:04:30.000Z</Time>
            <Position>
              <LatitudeDegrees>43.3851264417171478271484375</LatitudeDegrees>
              <LongitudeDegrees>-2.850745953619480133056640625</LongitudeDegrees>
            </Position>
            <AltitudeMeters>19.799999237060546875</AltitudeMeters>
            <DistanceMeters>NAN</DistanceMeters>
          </Trackpoint>
          <Trackpoint>
            <Time>2022-09-24T16:04:31.000Z</Time>
            <Position>
              <LatitudeDegrees>43.38507623411715030670166015625</LatitudeDegrees>
              <LongitudeDegrees>-2.85077252425253391265869140625</LongitudeDegrees>
            </Position>
            <AltitudeMeters>19.799999237060546875</AltitudeMeters>
            <DistanceMeters>NAN</DistanceMeters>
          </Trackpoint>
          <Trackpoint>
            <Time>2022-09-24T16:04:32.000Z</Time>
            <Position>
              <LatitudeDegrees>43.3850277028977870941162109375</LatitudeDegrees>
              <LongitudeDegrees>-2.8508074767887592315673828125</LongitudeDegrees>
            </Position>
            <AltitudeMeters>19.799999237060546875</AltitudeMeters>
            <DistanceMeters>NAN</DistanceMeters>
          </Trackpoint>
          <Trackpoint>
            <Time>2022-09-24T16:04:33.000Z</Time>
            <Position>
              <LatitudeDegrees>43.38497766293585300445556640625</LatitudeDegrees>
              <LongitudeDegrees>-2.850845195353031158447265625</LongitudeDegrees>
            </Position>
            <AltitudeMeters>19.799999237060546875</AltitudeMeters>
            <DistanceMeters>NAN</DistanceMeters>
          </Trackpoint>
          <Trackpoint>
            <Time>2022-09-24T16:04:34.000Z</Time>
            <Position>
              <LatitudeDegrees>43.3849230967462062835693359375</LatitudeDegrees>
              <LongitudeDegrees>-2.85088576376438140869140625</LongitudeDegrees>
            </Position>
            <AltitudeMeters>19.6000003814697265625</AltitudeMeters>
            <DistanceMeters>NAN</DistanceMeters>
          </Trackpoint>
          <Trackpoint>
            <Time>2022-09-24T16:04:35.000Z</Time>
            <Position>
              <LatitudeDegrees>43.3848674409091472625732421875</LatitudeDegrees>
              <LongitudeDegrees>-2.85093278624117374420166015625</LongitudeDegrees>
            </Position>
            <AltitudeMeters>19</AltitudeMeters>
            <DistanceMeters>NAN</DistanceMeters>
          </Trackpoint>
          <Trackpoint>
            <Time>2022-09-24T16:04:36.000Z</Time>
            <Position>
              <LatitudeDegrees>43.38481103070080280303955078125</LatitudeDegrees>
              <LongitudeDegrees>-2.850981652736663818359375</LongitudeDegrees>
            </Position>
            <AltitudeMeters>18.799999237060546875</AltitudeMeters>
            <DistanceMeters>NAN</DistanceMeters>
          </Trackpoint>
          <Trackpoint>
            <Time>2022-09-24T16:04:37.000Z</Time>
            <Position>
              <LatitudeDegrees>43.38475537486374378204345703125</LatitudeDegrees>
              <LongitudeDegrees>-2.85103169269859790802001953125</LongitudeDegrees>
            </Position>
            <AltitudeMeters>18</AltitudeMeters>
            <DistanceMeters>NAN</DistanceMeters>
          </Trackpoint>
          <Trackpoint>
            <Time>2022-09-24T16:04:38.000Z</Time>
            <Position>
              <LatitudeDegrees>43.3846998028457164764404296875</LatitudeDegrees>
              <LongitudeDegrees>-2.85109489224851131439208984375</LongitudeDegrees>
            </Position>
            <AltitudeMeters>16.6000003814697265625</AltitudeMeters>
            <DistanceMeters>NAN</DistanceMeters>
          </Trackpoint>
          <Trackpoint>
            <Time>2022-09-24T16:04:39.000Z</Time>
            <Position>
              <LatitudeDegrees>43.38464029133319854736328125</LatitudeDegrees>
              <LongitudeDegrees>-2.851168401539325714111328125</LongitudeDegrees>
            </Position>
            <AltitudeMeters>15.80000019073486328125</AltitudeMeters>
            <DistanceMeters>NAN</DistanceMeters>
          </Trackpoint>
          <Trackpoint>
            <Time>2022-09-24T16:04:40.000Z</Time>
            <Position>
              <LatitudeDegrees>43.3845765888690948486328125</LatitudeDegrees>
              <LongitudeDegrees>-2.85124459303915500640869140625</LongitudeDegrees>
            </Position>
            <AltitudeMeters>15.3999996185302734375</AltitudeMeters>
            <DistanceMeters>NAN</DistanceMeters>
          </Trackpoint>
          <Trackpoint>
            <Time>2022-09-24T16:04:41.000Z</Time>
            <Position>
              <LatitudeDegrees>43.3845175802707672119140625</LatitudeDegrees>
              <LongitudeDegrees>-2.8513271547853946685791015625</LongitudeDegrees>
            </Position>
            <AltitudeMeters>15</AltitudeMeters>
            <DistanceMeters>NAN</DistanceMeters>
          </Trackpoint>
          <Trackpoint>
            <Time>2022-09-24T16:04:42.000Z</Time>
            <Position>
              <LatitudeDegrees>43.38445496745407581329345703125</LatitudeDegrees>
              <LongitudeDegrees>-2.85142027772963047027587890625</LongitudeDegrees>
            </Position>
            <AltitudeMeters>13</AltitudeMeters>
            <DistanceMeters>NAN</DistanceMeters>
          </Trackpoint>
          <Trackpoint>
            <Time>2022-09-24T16:04:43.000Z</Time>
            <Position>
              <LatitudeDegrees>43.3843906782567501068115234375</LatitudeDegrees>
              <LongitudeDegrees>-2.8515367023646831512451171875</LongitudeDegrees>
            </Position>
            <AltitudeMeters>12</AltitudeMeters>
            <DistanceMeters>NAN</DistanceMeters>
          </Trackpoint>
          <Trackpoint>
            <Time>2022-09-24T16:04:44.000Z</Time>
            <Position>
              <LatitudeDegrees>43.38433527387678623199462890625</LatitudeDegrees>
              <LongitudeDegrees>-2.8516517020761966705322265625</LongitudeDegrees>
            </Position>
            <AltitudeMeters>11.6000003814697265625</AltitudeMeters>
            <DistanceMeters>NAN</DistanceMeters>
          </Trackpoint>
          <Trackpoint>
            <Time>2022-09-24T16:04:45.000Z</Time>
            <Position>
              <LatitudeDegrees>43.38429026305675506591796875</LatitudeDegrees>
              <LongitudeDegrees>-2.8517713956534862518310546875</LongitudeDegrees>
            </Position>
            <AltitudeMeters>10.3999996185302734375</AltitudeMeters>
            <DistanceMeters>NAN</DistanceMeters>
          </Trackpoint>
          <Trackpoint>
            <Time>2022-09-24T16:04:46.000Z</Time>
            <Position>
              <LatitudeDegrees>43.38425899855792522430419921875</LatitudeDegrees>
              <LongitudeDegrees>-2.85188245587050914764404296875</LongitudeDegrees>
            </Position>
            <AltitudeMeters>10.3999996185302734375</AltitudeMeters>
            <DistanceMeters>NAN</DistanceMeters>
          </Trackpoint>
          <Trackpoint>
            <Time>2022-09-24T16:04:47.000Z</Time>
            <Position>
              <LatitudeDegrees>43.3842386305332183837890625</LatitudeDegrees>
              <LongitudeDegrees>-2.85200449638068675994873046875</LongitudeDegrees>
            </Position>
            <AltitudeMeters>10.3999996185302734375</AltitudeMeters>
            <DistanceMeters>NAN</DistanceMeters>
          </Trackpoint>
          <Trackpoint>
            <Time>2022-09-24T16:04:48.000Z</Time>
            <Position>
              <LatitudeDegrees>43.3842444978654384613037109375</LatitudeDegrees>
              <LongitudeDegrees>-2.85213835537433624267578125</LongitudeDegrees>
            </Position>
            <AltitudeMeters>9.3999996185302734375</AltitudeMeters>
            <DistanceMeters>NAN</DistanceMeters>
          </Trackpoint>
          <Trackpoint>
            <Time>2022-09-24T16:04:49.000Z</Time>
            <Position>
              <LatitudeDegrees>43.3842612616717815399169921875</LatitudeDegrees>
              <LongitudeDegrees>-2.852276824414730072021484375</LongitudeDegrees>
            </Position>
            <AltitudeMeters>7.400000095367431640625</AltitudeMeters>
            <DistanceMeters>NAN</DistanceMeters>
          </Trackpoint>
          <Trackpoint>
            <Time>2022-09-24T16:04:50.000Z</Time>
            <Position>
              <LatitudeDegrees>43.384293615818023681640625</LatitudeDegrees>
              <LongitudeDegrees>-2.85241638310253620147705078125</LongitudeDegrees>
            </Position>
            <AltitudeMeters>5.19999980926513671875</AltitudeMeters>
            <DistanceMeters>NAN</DistanceMeters>
          </Trackpoint>
          <Trackpoint>
            <Time>2022-09-24T16:04:51.000Z</Time>
            <Position>
              <LatitudeDegrees>43.38433049619197845458984375</LatitudeDegrees>
              <LongitudeDegrees>-2.85256356932222843170166015625</LongitudeDegrees>
            </Position>
            <AltitudeMeters>2.400000095367431640625</AltitudeMeters>
            <DistanceMeters>NAN</DistanceMeters>
          </Trackpoint>
          <Trackpoint>
            <Time>2022-09-24T16:04:52.000Z</Time>
            <Position>
              <LatitudeDegrees>43.38437098078429698944091796875</LatitudeDegrees>
              <LongitudeDegrees>-2.85273020155727863311767578125</LongitudeDegrees>
            </Position>
            <AltitudeMeters>1.7999999523162841796875</AltitudeMeters>
            <DistanceMeters>NAN</DistanceMeters>
          </Trackpoint>
          <Trackpoint>
            <Time>2022-09-24T16:04:53.000Z</Time>
            <Position>
              <LatitudeDegrees>43.38441993109881877899169921875</LatitudeDegrees>
              <LongitudeDegrees>-2.8528975881636142730712890625</LongitudeDegrees>
            </Position>
            <AltitudeMeters>-0.800000011920928955078125</AltitudeMeters>
            <DistanceMeters>NAN</DistanceMeters>
          </Trackpoint>
          <Trackpoint>
            <Time>2022-09-24T16:04:54.000Z</Time>
            <Position>
              <LatitudeDegrees>43.384475670754909515380859375</LatitudeDegrees>
              <LongitudeDegrees>-2.85306681878864765167236328125</LongitudeDegrees>
            </Position>
            <AltitudeMeters>-2</AltitudeMeters>
            <DistanceMeters>NAN</DistanceMeters>
          </Trackpoint>
          <Trackpoint>
            <Time>2022-09-24T16:04:55.000Z</Time>
            <Position>
              <LatitudeDegrees>43.38452990166842937469482421875</LatitudeDegrees>
              <LongitudeDegrees>-2.85323898307979106903076171875</LongitudeDegrees>
            </Position>
            <AltitudeMeters>-2.599999904632568359375</AltitudeMeters>
            <DistanceMeters>NAN</DistanceMeters>
          </Trackpoint>
          <Trackpoint>
            <Time>2022-09-24T16:04:56.000Z</Time>
            <Position>
              <LatitudeDegrees>43.38458052836358547210693359375</LatitudeDegrees>
              <LongitudeDegrees>-2.853412069380283355712890625</LongitudeDegrees>
            </Position>
            <AltitudeMeters>-6.400000095367431640625</AltitudeMeters>
            <DistanceMeters>NAN</DistanceMeters>
          </Trackpoint>
          <Trackpoint>
            <Time>2022-09-24T16:04:57.000Z</Time>
            <Position>
              <LatitudeDegrees>43.38462746702134609222412109375</LatitudeDegrees>
              <LongitudeDegrees>-2.8535885922610759735107421875</LongitudeDegrees>
            </Position>
            <AltitudeMeters>-7.19999980926513671875</AltitudeMeters>
            <DistanceMeters>NAN</DistanceMeters>
          </Trackpoint>
          <Trackpoint>
            <Time>2022-09-24T16:04:58.000Z</Time>
            <Position>
              <LatitudeDegrees>43.38468253612518310546875</LatitudeDegrees>
              <LongitudeDegrees>-2.85377173684537410736083984375</LongitudeDegrees>
            </Position>
            <AltitudeMeters>-7.599999904632568359375</AltitudeMeters>
            <DistanceMeters>NAN</DistanceMeters>
          </Trackpoint>
          <Trackpoint>
            <Time>2022-09-24T16:04:59.000Z</Time>
            <Position>
              <LatitudeDegrees>43.384737856686115264892578125</LatitudeDegrees>
              <LongitudeDegrees>-2.8539577312767505645751953125</LongitudeDegrees>
            </Position>
            <AltitudeMeters>-8.19999980926513671875</AltitudeMeters>
            <DistanceMeters>NAN</DistanceMeters>
          </Trackpoint>
          <Trackpoint>
            <Time>2022-09-24T16:05:00.000Z</Time>
            <Position>
              <LatitudeDegrees>43.3847911655902862548828125</LatitudeDegrees>
              <LongitudeDegrees>-2.85414892248809337615966796875</LongitudeDegrees>
            </Position>
            <AltitudeMeters>-8.3999996185302734375</AltitudeMeters>
            <DistanceMeters>NAN</DistanceMeters>
          </Trackpoint>
          <Trackpoint>
            <Time>2022-09-24T16:05:01.000Z</Time>
            <Position>
              <LatitudeDegrees>43.38484137319028377532958984375</LatitudeDegrees>
              <LongitudeDegrees>-2.85435025580227375030517578125</LongitudeDegrees>
            </Position>
            <AltitudeMeters>-8.80000019073486328125</AltitudeMeters>
            <DistanceMeters>NAN</DistanceMeters>
          </Trackpoint>
          <Trackpoint>
            <Time>2022-09-24T16:05:02.000Z</Time>
            <Position>
              <LatitudeDegrees>43.38487473316490650177001953125</LatitudeDegrees>
              <LongitudeDegrees>-2.854556702077388763427734375</LongitudeDegrees>
            </Position>
            <AltitudeMeters>-11.3999996185302734375</AltitudeMeters>
            <DistanceMeters>NAN</DistanceMeters>
          </Trackpoint>
          <Trackpoint>
            <Time>2022-09-24T16:05:03.000Z</Time>
            <Position>
              <LatitudeDegrees>43.38490440510213375091552734375</LatitudeDegrees>
              <LongitudeDegrees>-2.85475753247737884521484375</LongitudeDegrees>
            </Position>
            <AltitudeMeters>-11.3999996185302734375</AltitudeMeters>
            <DistanceMeters>NAN</DistanceMeters>
          </Trackpoint>
          <Trackpoint>
            <Time>2022-09-24T16:05:04.000Z</Time>
            <Position>
              <LatitudeDegrees>43.38492971844971179962158203125</LatitudeDegrees>
              <LongitudeDegrees>-2.85495735704898834228515625</LongitudeDegrees>
            </Position>
            <AltitudeMeters>-12.3999996185302734375</AltitudeMeters>
            <DistanceMeters>NAN</DistanceMeters>
          </Trackpoint>
          <Trackpoint>
            <Time>2022-09-24T16:05:05.000Z</Time>
            <Position>
              <LatitudeDegrees>43.38497062213718891143798828125</LatitudeDegrees>
              <LongitudeDegrees>-2.85516011528670787811279296875</LongitudeDegrees>
            </Position>
            <AltitudeMeters>-12.3999996185302734375</AltitudeMeters>
            <DistanceMeters>NAN</DistanceMeters>
          </Trackpoint>
          <Trackpoint>
            <Time>2022-09-24T16:05:06.000Z</Time>
            <Position>
              <LatitudeDegrees>43.38501320220530033111572265625</LatitudeDegrees>
              <LongitudeDegrees>-2.85535356961190700531005859375</LongitudeDegrees>
            </Position>
            <AltitudeMeters>-12.19999980926513671875</AltitudeMeters>
            <DistanceMeters>NAN</DistanceMeters>
          </Trackpoint>
          <Trackpoint>
            <Time>2022-09-24T16:05:07.000Z</Time>
            <Position>
              <LatitudeDegrees>43.3850407786667346954345703125</LatitudeDegrees>
              <LongitudeDegrees>-2.85553310997784137725830078125</LongitudeDegrees>
            </Position>
            <AltitudeMeters>-12.3999996185302734375</AltitudeMeters>
            <DistanceMeters>NAN</DistanceMeters>
          </Trackpoint>
          <Trackpoint>
            <Time>2022-09-24T16:05:08.000Z</Time>
            <Position>
              <LatitudeDegrees>43.38504337705671787261962890625</LatitudeDegrees>
              <LongitudeDegrees>-2.855701334774494171142578125</LongitudeDegrees>
            </Position>
            <AltitudeMeters>-12.6000003814697265625</AltitudeMeters>
            <DistanceMeters>NAN</DistanceMeters>
          </Trackpoint>
          <Trackpoint>
            <Time>2022-09-24T16:05:09.000Z</Time>
            <Position>
              <LatitudeDegrees>43.3850032277405261993408203125</LatitudeDegrees>
              <LongitudeDegrees>-2.855866290628910064697265625</LongitudeDegrees>
            </Position>
            <AltitudeMeters>-12.6000003814697265625</AltitudeMeters>
            <DistanceMeters>NAN</DistanceMeters>
          </Trackpoint>
          <Trackpoint>
            <Time>2022-09-24T16:05:10.000Z</Time>
            <Position>
              <LatitudeDegrees>43.38495545089244842529296875</LatitudeDegrees>
              <LongitudeDegrees>-2.8560237027704715728759765625</LongitudeDegrees>
            </Position>
            <AltitudeMeters>-12.6000003814697265625</AltitudeMeters>
            <DistanceMeters>NAN</DistanceMeters>
          </Trackpoint>
          <Trackpoint>
            <Time>2022-09-24T16:05:11.000Z</Time>
            <Position>
              <LatitudeDegrees>43.3849063329398632049560546875</LatitudeDegrees>
              <LongitudeDegrees>-2.85616979934275150299072265625</LongitudeDegrees>
            </Position>
            <AltitudeMeters>-12.80000019073486328125</AltitudeMeters>
            <DistanceMeters>NAN</DistanceMeters>
          </Trackpoint>
          <Trackpoint>
            <Time>2022-09-24T16:05:12.000Z</Time>
            <Position>
              <LatitudeDegrees>43.384860567748546600341796875</LatitudeDegrees>
              <LongitudeDegrees>-2.85631145350635051727294921875</LongitudeDegrees>
            </Position>
            <AltitudeMeters>-12.80000019073486328125</AltitudeMeters>
            <DistanceMeters>NAN</DistanceMeters>
          </Trackpoint>
          <Trackpoint>
            <Time>2022-09-24T16:05:13.000Z</Time>
            <Position>
              <LatitudeDegrees>43.384816646575927734375</LatitudeDegrees>
              <LongitudeDegrees>-2.85645612515509128570556640625</LongitudeDegrees>
            </Position>
            <AltitudeMeters>-13</AltitudeMeters>
            <DistanceMeters>NAN</DistanceMeters>
          </Trackpoint>
          <Trackpoint>
            <Time>2022-09-24T16:05:14.000Z</Time>
            <Position>
              <LatitudeDegrees>43.3847802691161632537841796875</LatitudeDegrees>
              <LongitudeDegrees>-2.8566000424325466156005859375</LongitudeDegrees>
            </Position>
            <AltitudeMeters>-13.3999996185302734375</AltitudeMeters>
            <DistanceMeters>NAN</DistanceMeters>
          </Trackpoint>
          <Trackpoint>
            <Time>2022-09-24T16:05:15.000Z</Time>
            <Position>
              <LatitudeDegrees>43.38475001044571399688720703125</LatitudeDegrees>
              <LongitudeDegrees>-2.85673909820616245269775390625</LongitudeDegrees>
            </Position>
            <AltitudeMeters>-13</AltitudeMeters>
            <DistanceMeters>NAN</DistanceMeters>
          </Trackpoint>
          <Trackpoint>
            <Time>2022-09-24T16:05:16.000Z</Time>
            <Position>
              <LatitudeDegrees>43.3847219310700893402099609375</LatitudeDegrees>
              <LongitudeDegrees>-2.85687874071300029754638671875</LongitudeDegrees>
            </Position>
            <AltitudeMeters>-12.80000019073486328125</AltitudeMeters>
            <DistanceMeters>NAN</DistanceMeters>
          </Trackpoint>
          <Trackpoint>
            <Time>2022-09-24T16:05:17.000Z</Time>
            <Position>
              <LatitudeDegrees>43.38469955138862133026123046875</LatitudeDegrees>
              <LongitudeDegrees>-2.85701435990631580352783203125</LongitudeDegrees>
            </Position>
            <AltitudeMeters>-12.80000019073486328125</AltitudeMeters>
            <DistanceMeters>NAN</DistanceMeters>
          </Trackpoint>
          <Trackpoint>
            <Time>2022-09-24T16:05:18.000Z</Time>
            <Position>
              <LatitudeDegrees>43.38467784225940704345703125</LatitudeDegrees>
              <LongitudeDegrees>-2.8571445308625698089599609375</LongitudeDegrees>
            </Position>
            <AltitudeMeters>-12.6000003814697265625</AltitudeMeters>
            <DistanceMeters>NAN</DistanceMeters>
          </Trackpoint>
          <Trackpoint>
            <Time>2022-09-24T16:05:19.000Z</Time>
            <Position>
              <LatitudeDegrees>43.384655378758907318115234375</LatitudeDegrees>
              <LongitudeDegrees>-2.8572722710669040679931640625</LongitudeDegrees>
            </Position>
            <AltitudeMeters>-12.6000003814697265625</AltitudeMeters>
            <DistanceMeters>NAN</DistanceMeters>
          </Trackpoint>
          <Trackpoint>
            <Time>2022-09-24T16:05:20.000Z</Time>
            <Position>
              <LatitudeDegrees>43.3846342563629150390625</LatitudeDegrees>
              <LongitudeDegrees>-2.85739590413868427276611328125</LongitudeDegrees>
            </Position>
            <AltitudeMeters>-12.6000003814697265625</AltitudeMeters>
            <DistanceMeters>NAN</DistanceMeters>
          </Trackpoint>
          <Trackpoint>
            <Time>2022-09-24T16:05:21.000Z</Time>
            <Position>
              <LatitudeDegrees>43.3846143074333667755126953125</LatitudeDegrees>
              <LongitudeDegrees>-2.85751878283917903900146484375</LongitudeDegrees>
            </Position>
            <AltitudeMeters>-12.6000003814697265625</AltitudeMeters>
            <DistanceMeters>NAN</DistanceMeters>
          </Trackpoint>
          <Trackpoint>
            <Time>2022-09-24T16:05:22.000Z</Time>
            <Position>
              <LatitudeDegrees>43.3845911733806133270263671875</LatitudeDegrees>
              <LongitudeDegrees>-2.85763931460678577423095703125</LongitudeDegrees>
            </Position>
            <AltitudeMeters>-12.19999980926513671875</AltitudeMeters>
            <DistanceMeters>NAN</DistanceMeters>
          </Trackpoint>
          <Trackpoint>
            <Time>2022-09-24T16:05:23.000Z</Time>
            <Position>
              <LatitudeDegrees>43.3845670334994792938232421875</LatitudeDegrees>
              <LongitudeDegrees>-2.85775347612798213958740234375</LongitudeDegrees>
            </Position>
            <AltitudeMeters>-12.6000003814697265625</AltitudeMeters>
            <DistanceMeters>NAN</DistanceMeters>
          </Trackpoint>
          <Trackpoint>
            <Time>2022-09-24T16:05:24.000Z</Time>
            <Position>
              <LatitudeDegrees>43.38454431854188442230224609375</LatitudeDegrees>
              <LongitudeDegrees>-2.85786126740276813507080078125</LongitudeDegrees>
            </Position>
            <AltitudeMeters>-12.19999980926513671875</AltitudeMeters>
            <DistanceMeters>NAN</DistanceMeters>
          </Trackpoint>
          <Trackpoint>
            <Time>2022-09-24T16:05:25.000Z</Time>
            <Position>
              <LatitudeDegrees>43.3845256268978118896484375</LatitudeDegrees>
              <LongitudeDegrees>-2.85797190852463245391845703125</LongitudeDegrees>
            </Position>
            <AltitudeMeters>-12.19999980926513671875</AltitudeMeters>
            <DistanceMeters>NAN</DistanceMeters>
          </Trackpoint>
          <Trackpoint>
            <Time>2022-09-24T16:05:26.000Z</Time>
            <Position>
              <LatitudeDegrees>43.38451079092919826507568359375</LatitudeDegrees>
              <LongitudeDegrees>-2.8580801188945770263671875</LongitudeDegrees>
            </Position>
            <AltitudeMeters>-11.80000019073486328125</AltitudeMeters>
            <DistanceMeters>NAN</DistanceMeters>
          </Trackpoint>
          <Trackpoint>
            <Time>2022-09-24T16:05:27.000Z</Time>
            <Position>
              <LatitudeDegrees>43.38449469767510890960693359375</LatitudeDegrees>
              <LongitudeDegrees>-2.85818547941744327545166015625</LongitudeDegrees>
            </Position>
            <AltitudeMeters>-11.80000019073486328125</AltitudeMeters>
            <DistanceMeters>NAN</DistanceMeters>
          </Trackpoint>
          <Trackpoint>
            <Time>2022-09-24T16:05:28.000Z</Time>
            <Position>
              <LatitudeDegrees>43.38446594774723052978515625</LatitudeDegrees>
              <LongitudeDegrees>-2.85830735228955745697021484375</LongitudeDegrees>
            </Position>
            <AltitudeMeters>-11.80000019073486328125</AltitudeMeters>
            <DistanceMeters>NAN</DistanceMeters>
          </Trackpoint>
          <Trackpoint>
            <Time>2022-09-24T16:05:29.000Z</Time>
            <Position>
              <LatitudeDegrees>43.384446166455745697021484375</LatitudeDegrees>
              <LongitudeDegrees>-2.85839200951159000396728515625</LongitudeDegrees>
            </Position>
            <AltitudeMeters>-11.80000019073486328125</AltitudeMeters>
            <DistanceMeters>NAN</DistanceMeters>
          </Trackpoint>
          <Trackpoint>
            <Time>2022-09-24T16:05:30.000Z</Time>
            <Position>
              <LatitudeDegrees>43.384420014917850494384765625</LatitudeDegrees>
              <LongitudeDegrees>-2.8584923408925533294677734375</LongitudeDegrees>
            </Position>
            <AltitudeMeters>-11.3999996185302734375</AltitudeMeters>
            <DistanceMeters>NAN</DistanceMeters>
          </Trackpoint>
          <Trackpoint>
            <Time>2022-09-24T16:05:31.000Z</Time>
            <Position>
              <LatitudeDegrees>43.38439579121768474578857421875</LatitudeDegrees>
              <LongitudeDegrees>-2.85859183408319950103759765625</LongitudeDegrees>
            </Position>
            <AltitudeMeters>-11.3999996185302734375</AltitudeMeters>
            <DistanceMeters>NAN</DistanceMeters>
          </Trackpoint>
          <Trackpoint>
            <Time>2022-09-24T16:05:32.000Z</Time>
            <Position>
              <LatitudeDegrees>43.38437466882169246673583984375</LatitudeDegrees>
              <LongitudeDegrees>-2.85868990235030651092529296875</LongitudeDegrees>
            </Position>
            <AltitudeMeters>-11.3999996185302734375</AltitudeMeters>
            <DistanceMeters>NAN</DistanceMeters>
          </Trackpoint>
          <Trackpoint>
            <Time>2022-09-24T16:05:33.000Z</Time>
            <Position>
              <LatitudeDegrees>43.38435321114957332611083984375</LatitudeDegrees>
              <LongitudeDegrees>-2.85879484377801418304443359375</LongitudeDegrees>
            </Position>
            <AltitudeMeters>-11.19999980926513671875</AltitudeMeters>
            <DistanceMeters>NAN</DistanceMeters>
          </Trackpoint>
          <Trackpoint>
            <Time>2022-09-24T16:05:34.000Z</Time>
            <Position>
              <LatitudeDegrees>43.384334854781627655029296875</LatitudeDegrees>
              <LongitudeDegrees>-2.85889978520572185516357421875</LongitudeDegrees>
            </Position>
            <AltitudeMeters>-10.80000019073486328125</AltitudeMeters>
            <DistanceMeters>NAN</DistanceMeters>
          </Trackpoint>
          <Trackpoint>
            <Time>2022-09-24T16:05:35.000Z</Time>
            <Position>
              <LatitudeDegrees>43.38431574404239654541015625</LatitudeDegrees>
              <LongitudeDegrees>-2.85900757648050785064697265625</LongitudeDegrees>
            </Position>
            <AltitudeMeters>-10.80000019073486328125</AltitudeMeters>
            <DistanceMeters>NAN</DistanceMeters>
          </Trackpoint>
          <Trackpoint>
            <Time>2022-09-24T16:05:36.000Z</Time>
            <Position>
              <LatitudeDegrees>43.3842968009412288665771484375</LatitudeDegrees>
              <LongitudeDegrees>-2.85912089981138706207275390625</LongitudeDegrees>
            </Position>
            <AltitudeMeters>-10.80000019073486328125</AltitudeMeters>
            <DistanceMeters>NAN</DistanceMeters>
          </Trackpoint>
          <Trackpoint>
            <Time>2022-09-24T16:05:37.000Z</Time>
            <Position>
              <LatitudeDegrees>43.3842968009412288665771484375</LatitudeDegrees>
              <LongitudeDegrees>-2.85912089981138706207275390625</LongitudeDegrees>
            </Position>
            <AltitudeMeters>-11</AltitudeMeters>
            <DistanceMeters>NAN</DistanceMeters>
          </Trackpoint>
          <Trackpoint>
            <Time>2022-09-24T16:05:38.000Z</Time>
            <Position>
              <LatitudeDegrees>43.38426536880433559417724609375</LatitudeDegrees>
              <LongitudeDegrees>-2.85935207270085811614990234375</LongitudeDegrees>
            </Position>
            <AltitudeMeters>-11</AltitudeMeters>
            <DistanceMeters>NAN</DistanceMeters>
          </Trackpoint>
          <Trackpoint>
            <Time>2022-09-24T16:05:39.000Z</Time>
            <Position>
              <LatitudeDegrees>43.38425271213054656982421875</LatitudeDegrees>
              <LongitudeDegrees>-2.859465815126895904541015625</LongitudeDegrees>
            </Position>
            <AltitudeMeters>-11</AltitudeMeters>
            <DistanceMeters>NAN</DistanceMeters>
          </Trackpoint>
          <Trackpoint>
            <Time>2022-09-24T16:05:40.000Z</Time>
            <Position>
              <LatitudeDegrees>43.384238965809345245361328125</LatitudeDegrees>
              <LongitudeDegrees>-2.85958190448582172393798828125</LongitudeDegrees>
            </Position>
            <AltitudeMeters>-11.19999980926513671875</AltitudeMeters>
            <DistanceMeters>NAN</DistanceMeters>
          </Trackpoint>
          <Trackpoint>
            <Time>2022-09-24T16:05:41.000Z</Time>
            <Position>
              <LatitudeDegrees>43.38422195054590702056884765625</LatitudeDegrees>
              <LongitudeDegrees>-2.85970176570117473602294921875</LongitudeDegrees>
            </Position>
            <AltitudeMeters>-12.19999980926513671875</AltitudeMeters>
            <DistanceMeters>NAN</DistanceMeters>
          </Trackpoint>
          <Trackpoint>
            <Time>2022-09-24T16:05:42.000Z</Time>
            <Position>
              <LatitudeDegrees>43.3842056058347225189208984375</LatitudeDegrees>
              <LongitudeDegrees>-2.85982732661068439483642578125</LongitudeDegrees>
            </Position>
            <AltitudeMeters>-12.19999980926513671875</AltitudeMeters>
            <DistanceMeters>NAN</DistanceMeters>
          </Trackpoint>
          <Trackpoint>
            <Time>2022-09-24T16:05:43.000Z</Time>
            <Position>
              <LatitudeDegrees>43.38418657891452312469482421875</LatitudeDegrees>
              <LongitudeDegrees>-2.859958000481128692626953125</LongitudeDegrees>
            </Position>
            <AltitudeMeters>-12.19999980926513671875</AltitudeMeters>
            <DistanceMeters>NAN</DistanceMeters>
          </Trackpoint>
          <Trackpoint>
            <Time>2022-09-24T16:05:44.000Z</Time>
            <Position>
              <LatitudeDegrees>43.38416964747011661529541015625</LatitudeDegrees>
              <LongitudeDegrees>-2.86008817143738269805908203125</LongitudeDegrees>
            </Position>
            <AltitudeMeters>-12.80000019073486328125</AltitudeMeters>
            <DistanceMeters>NAN</DistanceMeters>
          </Trackpoint>
          <Trackpoint>
            <Time>2022-09-24T16:05:45.000Z</Time>
            <Position>
              <LatitudeDegrees>43.38415372185409069061279296875</LatitudeDegrees>
              <LongitudeDegrees>-2.86022127605974674224853515625</LongitudeDegrees>
            </Position>
            <AltitudeMeters>-13.19999980926513671875</AltitudeMeters>
            <DistanceMeters>NAN</DistanceMeters>
          </Trackpoint>
          <Trackpoint>
            <Time>2022-09-24T16:05:46.000Z</Time>
            <Position>
              <LatitudeDegrees>43.384135700762271881103515625</LatitudeDegrees>
              <LongitudeDegrees>-2.86035605706274509429931640625</LongitudeDegrees>
            </Position>
            <AltitudeMeters>-13.6000003814697265625</AltitudeMeters>
            <DistanceMeters>NAN</DistanceMeters>
          </Trackpoint>
          <Trackpoint>
            <Time>2022-09-24T16:05:47.000Z</Time>
            <Position>
              <LatitudeDegrees>43.38411550037562847137451171875</LatitudeDegrees>
              <LongitudeDegrees>-2.86049502901732921600341796875</LongitudeDegrees>
            </Position>
            <AltitudeMeters>-14.80000019073486328125</AltitudeMeters>
            <DistanceMeters>NAN</DistanceMeters>
          </Trackpoint>
          <Trackpoint>
            <Time>2022-09-24T16:05:48.000Z</Time>
            <Position>
              <LatitudeDegrees>43.38409471325576305389404296875</LatitudeDegrees>
              <LongitudeDegrees>-2.860636599361896514892578125</LongitudeDegrees>
            </Position>
            <AltitudeMeters>-15.6000003814697265625</AltitudeMeters>
            <DistanceMeters>NAN</DistanceMeters>
          </Trackpoint>
          <Trackpoint>
            <Time>2022-09-24T16:05:49.000Z</Time>
            <Position>
              <LatitudeDegrees>43.3840745128691196441650390625</LatitudeDegrees>
              <LongitudeDegrees>-2.8607752360403537750244140625</LongitudeDegrees>
            </Position>
            <AltitudeMeters>-16</AltitudeMeters>
            <DistanceMeters>NAN</DistanceMeters>
          </Trackpoint>
          <Trackpoint>
            <Time>2022-09-24T16:05:50.000Z</Time>
            <Position>
              <LatitudeDegrees>43.38405045680701732635498046875</LatitudeDegrees>
              <LongitudeDegrees>-2.86091580055654048919677734375</LongitudeDegrees>
            </Position>
            <AltitudeMeters>-16.3999996185302734375</AltitudeMeters>
            <DistanceMeters>NAN</DistanceMeters>
          </Trackpoint>
          <Trackpoint>
            <Time>2022-09-24T16:05:51.000Z</Time>
            <Position>
              <LatitudeDegrees>43.38402665220201015472412109375</LatitudeDegrees>
              <LongitudeDegrees>-2.86105494014918804168701171875</LongitudeDegrees>
            </Position>
            <AltitudeMeters>-16.6000003814697265625</AltitudeMeters>
            <DistanceMeters>NAN</DistanceMeters>
          </Trackpoint>
          <Trackpoint>
            <Time>2022-09-24T16:05:52.000Z</Time>
            <Position>
              <LatitudeDegrees>43.3840030990540981292724609375</LatitudeDegrees>
              <LongitudeDegrees>-2.8611943311989307403564453125</LongitudeDegrees>
            </Position>
            <AltitudeMeters>-16.6000003814697265625</AltitudeMeters>
            <DistanceMeters>NAN</DistanceMeters>
          </Trackpoint>
          <Trackpoint>
            <Time>2022-09-24T16:05:53.000Z</Time>
            <Position>
              <LatitudeDegrees>43.3839796297252178192138671875</LatitudeDegrees>
              <LongitudeDegrees>-2.8613324649631977081298828125</LongitudeDegrees>
            </Position>
            <AltitudeMeters>-16.799999237060546875</AltitudeMeters>
            <DistanceMeters>NAN</DistanceMeters>
          </Trackpoint>
          <Trackpoint>
            <Time>2022-09-24T16:05:54.000Z</Time>
            <Position>
              <LatitudeDegrees>43.3839588426053524017333984375</LatitudeDegrees>
              <LongitudeDegrees>-2.86147185601294040679931640625</LongitudeDegrees>
            </Position>
            <AltitudeMeters>-17</AltitudeMeters>
            <DistanceMeters>NAN</DistanceMeters>
          </Trackpoint>
          <Trackpoint>
            <Time>2022-09-24T16:05:55.000Z</Time>
            <Position>
              <LatitudeDegrees>43.383939899504184722900390625</LatitudeDegrees>
              <LongitudeDegrees>-2.86161250434815883636474609375</LongitudeDegrees>
            </Position>
            <AltitudeMeters>-17</AltitudeMeters>
            <DistanceMeters>NAN</DistanceMeters>
          </Trackpoint>
          <Trackpoint>
            <Time>2022-09-24T16:05:56.000Z</Time>
            <Position>
              <LatitudeDegrees>43.38392682373523712158203125</LatitudeDegrees>
              <LongitudeDegrees>-2.86175231449306011199951171875</LongitudeDegrees>
            </Position>
            <AltitudeMeters>-17.3999996185302734375</AltitudeMeters>
            <DistanceMeters>NAN</DistanceMeters>
          </Trackpoint>
          <Trackpoint>
            <Time>2022-09-24T16:05:57.000Z</Time>
            <Position>
              <LatitudeDegrees>43.38392120786011219024658203125</LatitudeDegrees>
              <LongitudeDegrees>-2.86189111880958080291748046875</LongitudeDegrees>
            </Position>
            <AltitudeMeters>-17.799999237060546875</AltitudeMeters>
            <DistanceMeters>NAN</DistanceMeters>
          </Trackpoint>
          <Trackpoint>
            <Time>2022-09-24T16:05:58.000Z</Time>
            <Position>
              <LatitudeDegrees>43.383918106555938720703125</LatitudeDegrees>
              <LongitudeDegrees>-2.86203193478286266326904296875</LongitudeDegrees>
            </Position>
            <AltitudeMeters>-19.6000003814697265625</AltitudeMeters>
            <DistanceMeters>NAN</DistanceMeters>
          </Trackpoint>
          <Trackpoint>
            <Time>2022-09-24T16:05:59.000Z</Time>
            <Position>
              <LatitudeDegrees>43.38392070494592189788818359375</LatitudeDegrees>
              <LongitudeDegrees>-2.86217057146131992340087890625</LongitudeDegrees>
            </Position>
            <AltitudeMeters>-19.6000003814697265625</AltitudeMeters>
            <DistanceMeters>NAN</DistanceMeters>
          </Trackpoint>
          <Trackpoint>
            <Time>2022-09-24T16:06:00.000Z</Time>
            <Position>
              <LatitudeDegrees>43.38392657227814197540283203125</LatitudeDegrees>
              <LongitudeDegrees>-2.86230736412107944488525390625</LongitudeDegrees>
            </Position>
            <AltitudeMeters>-18.799999237060546875</AltitudeMeters>
            <DistanceMeters>NAN</DistanceMeters>
          </Trackpoint>
          <Trackpoint>
            <Time>2022-09-24T16:06:01.000Z</Time>
            <Position>
              <LatitudeDegrees>43.3839323557913303375244140625</LatitudeDegrees>
              <LongitudeDegrees>-2.862438373267650604248046875</LongitudeDegrees>
            </Position>
            <AltitudeMeters>-18.799999237060546875</AltitudeMeters>
            <DistanceMeters>NAN</DistanceMeters>
          </Trackpoint>
          <Trackpoint>
            <Time>2022-09-24T16:06:02.000Z</Time>
            <Position>
              <LatitudeDegrees>43.3839409053325653076171875</LatitudeDegrees>
              <LongitudeDegrees>-2.8625674545764923095703125</LongitudeDegrees>
            </Position>
            <AltitudeMeters>-18.799999237060546875</AltitudeMeters>
            <DistanceMeters>NAN</DistanceMeters>
          </Trackpoint>
          <Trackpoint>
            <Time>2022-09-24T16:06:03.000Z</Time>
            <Position>
              <LatitudeDegrees>43.3839507959783077239990234375</LatitudeDegrees>
              <LongitudeDegrees>-2.8626916743814945220947265625</LongitudeDegrees>
            </Position>
            <AltitudeMeters>-18.3999996185302734375</AltitudeMeters>
            <DistanceMeters>NAN</DistanceMeters>
          </Trackpoint>
          <Trackpoint>
            <Time>2022-09-24T16:06:04.000Z</Time>
            <Position>
              <LatitudeDegrees>43.38395901024341583251953125</LatitudeDegrees>
              <LongitudeDegrees>-2.8628056682646274566650390625</LongitudeDegrees>
            </Position>
            <AltitudeMeters>-18.3999996185302734375</AltitudeMeters>
            <DistanceMeters>NAN</DistanceMeters>
          </Trackpoint>
          <Trackpoint>
            <Time>2022-09-24T16:06:05.000Z</Time>
            <Position>
              <LatitudeDegrees>43.38396747596561908721923828125</LatitudeDegrees>
              <LongitudeDegrees>-2.86293064244091510772705078125</LongitudeDegrees>
            </Position>
            <AltitudeMeters>-18.200000762939453125</AltitudeMeters>
            <DistanceMeters>NAN</DistanceMeters>
          </Trackpoint>
          <Trackpoint>
            <Time>2022-09-24T16:06:06.000Z</Time>
            <Position>
              <LatitudeDegrees>43.38397367857396602630615234375</LatitudeDegrees>
              <LongitudeDegrees>-2.8630028106272220611572265625</LongitudeDegrees>
            </Position>
            <AltitudeMeters>-17.3999996185302734375</AltitudeMeters>
            <DistanceMeters>NAN</DistanceMeters>
          </Trackpoint>
          <Trackpoint>
            <Time>2022-09-24T16:06:07.000Z</Time>
            <Position>
              <LatitudeDegrees>43.38397770188748836517333984375</LatitudeDegrees>
              <LongitudeDegrees>-2.86308503709733486175537109375</LongitudeDegrees>
            </Position>
            <AltitudeMeters>-14.19999980926513671875</AltitudeMeters>
            <DistanceMeters>NAN</DistanceMeters>
          </Trackpoint>
          <Trackpoint>
            <Time>2022-09-24T16:06:08.000Z</Time>
            <Position>
              <LatitudeDegrees>43.3839757740497589111328125</LatitudeDegrees>
              <LongitudeDegrees>-2.8631603904068470001220703125</LongitudeDegrees>
            </Position>
            <AltitudeMeters>-14</AltitudeMeters>
            <DistanceMeters>NAN</DistanceMeters>
          </Trackpoint>
          <Trackpoint>
            <Time>2022-09-24T16:06:09.000Z</Time>
            <Position>
              <LatitudeDegrees>43.3839635364711284637451171875</LatitudeDegrees>
              <LongitudeDegrees>-2.8632254339754581451416015625</LongitudeDegrees>
            </Position>
            <AltitudeMeters>-12.80000019073486328125</AltitudeMeters>
            <DistanceMeters>NAN</DistanceMeters>
          </Trackpoint>
          <Trackpoint>
            <Time>2022-09-24T16:06:10.000Z</Time>
            <Position>
              <LatitudeDegrees>43.38394283317029476165771484375</LatitudeDegrees>
              <LongitudeDegrees>-2.86328318528831005096435546875</LongitudeDegrees>
            </Position>
            <AltitudeMeters>-12.6000003814697265625</AltitudeMeters>
            <DistanceMeters>NAN</DistanceMeters>
          </Trackpoint>
          <Trackpoint>
            <Time>2022-09-24T16:06:11.000Z</Time>
            <Position>
              <LatitudeDegrees>43.3839142508804798126220703125</LatitudeDegrees>
              <LongitudeDegrees>-2.8633337281644344329833984375</LongitudeDegrees>
            </Position>
            <AltitudeMeters>-12.19999980926513671875</AltitudeMeters>
            <DistanceMeters>NAN</DistanceMeters>
          </Trackpoint>
          <Trackpoint>
            <Time>2022-09-24T16:06:12.000Z</Time>
            <Position>
              <LatitudeDegrees>43.38387058116495609283447265625</LatitudeDegrees>
              <LongitudeDegrees>-2.8633930720388889312744140625</LongitudeDegrees>
            </Position>
            <AltitudeMeters>-12.19999980926513671875</AltitudeMeters>
            <DistanceMeters>NAN</DistanceMeters>
          </Trackpoint>
          <Trackpoint>
            <Time>2022-09-24T16:06:13.000Z</Time>
            <Position>
              <LatitudeDegrees>43.383837305009365081787109375</LatitudeDegrees>
              <LongitudeDegrees>-2.86343506537377834320068359375</LongitudeDegrees>
            </Position>
            <AltitudeMeters>-12.19999980926513671875</AltitudeMeters>
            <DistanceMeters>NAN</DistanceMeters>
          </Trackpoint>
          <Trackpoint>
            <Time>2022-09-24T16:06:14.000Z</Time>
            <Position>
              <LatitudeDegrees>43.38379011489450931549072265625</LatitudeDegrees>
              <LongitudeDegrees>-2.86348837427794933319091796875</LongitudeDegrees>
            </Position>
            <AltitudeMeters>-12.19999980926513671875</AltitudeMeters>
            <DistanceMeters>NAN</DistanceMeters>
          </Trackpoint>
          <Trackpoint>
            <Time>2022-09-24T16:06:15.000Z</Time>
            <Position>
              <LatitudeDegrees>43.3837368898093700408935546875</LatitudeDegrees>
              <LongitudeDegrees>-2.8635412640869617462158203125</LongitudeDegrees>
            </Position>
            <AltitudeMeters>-12.19999980926513671875</AltitudeMeters>
            <DistanceMeters>NAN</DistanceMeters>
          </Trackpoint>
          <Trackpoint>
            <Time>2022-09-24T16:06:16.000Z</Time>
            <Position>
              <LatitudeDegrees>43.38368098251521587371826171875</LatitudeDegrees>
              <LongitudeDegrees>-2.86359851248562335968017578125</LongitudeDegrees>
            </Position>
            <AltitudeMeters>-12.19999980926513671875</AltitudeMeters>
            <DistanceMeters>NAN</DistanceMeters>
          </Trackpoint>
          <Trackpoint>
            <Time>2022-09-24T16:06:17.000Z</Time>
            <Position>
              <LatitudeDegrees>43.3836255781352519989013671875</LatitudeDegrees>
              <LongitudeDegrees>-2.86365953274071216583251953125</LongitudeDegrees>
            </Position>
            <AltitudeMeters>-12.80000019073486328125</AltitudeMeters>
            <DistanceMeters>NAN</DistanceMeters>
          </Trackpoint>
          <Trackpoint>
            <Time>2022-09-24T16:06:18.000Z</Time>
            <Position>
              <LatitudeDegrees>43.38356673717498779296875</LatitudeDegrees>
              <LongitudeDegrees>-2.86372147500514984130859375</LongitudeDegrees>
            </Position>
            <AltitudeMeters>-13.19999980926513671875</AltitudeMeters>
            <DistanceMeters>NAN</DistanceMeters>
          </Trackpoint>
          <Trackpoint>
            <Time>2022-09-24T16:06:19.000Z</Time>
            <Position>
              <LatitudeDegrees>43.3835085667669773101806640625</LatitudeDegrees>
              <LongitudeDegrees>-2.86379096098244190216064453125</LongitudeDegrees>
            </Position>
            <AltitudeMeters>-13.3999996185302734375</AltitudeMeters>
            <DistanceMeters>NAN</DistanceMeters>
          </Trackpoint>
          <Trackpoint>
            <Time>2022-09-24T16:06:20.000Z</Time>
            <Position>
              <LatitudeDegrees>43.3834633044898509979248046875</LatitudeDegrees>
              <LongitudeDegrees>-2.86387436091899871826171875</LongitudeDegrees>
            </Position>
            <AltitudeMeters>-13.80000019073486328125</AltitudeMeters>
            <DistanceMeters>NAN</DistanceMeters>
          </Trackpoint>
          <Trackpoint>
            <Time>2022-09-24T16:06:21.000Z</Time>
            <Position>
              <LatitudeDegrees>43.38343153707683086395263671875</LatitudeDegrees>
              <LongitudeDegrees>-2.86397603340446949005126953125</LongitudeDegrees>
            </Position>
            <AltitudeMeters>-14</AltitudeMeters>
            <DistanceMeters>NAN</DistanceMeters>
          </Trackpoint>
          <Trackpoint>
            <Time>2022-09-24T16:06:22.000Z</Time>
            <Position>
              <LatitudeDegrees>43.38341125287115573883056640625</LatitudeDegrees>
              <LongitudeDegrees>-2.86408768035471439361572265625</LongitudeDegrees>
            </Position>
            <AltitudeMeters>-14.6000003814697265625</AltitudeMeters>
            <DistanceMeters>NAN</DistanceMeters>
          </Trackpoint>
          <Trackpoint>
            <Time>2022-09-24T16:06:23.000Z</Time>
            <Position>
              <LatitudeDegrees>43.3833882026374340057373046875</LatitudeDegrees>
              <LongitudeDegrees>-2.86422480829060077667236328125</LongitudeDegrees>
            </Position>
            <AltitudeMeters>-14.80000019073486328125</AltitudeMeters>
            <DistanceMeters>NAN</DistanceMeters>
          </Trackpoint>
          <Trackpoint>
            <Time>2022-09-24T16:06:24.000Z</Time>
            <Position>
              <LatitudeDegrees>43.38337202556431293487548828125</LatitudeDegrees>
              <LongitudeDegrees>-2.86431692540645599365234375</LongitudeDegrees>
            </Position>
            <AltitudeMeters>-14.80000019073486328125</AltitudeMeters>
            <DistanceMeters>NAN</DistanceMeters>
          </Trackpoint>
          <Trackpoint>
            <Time>2022-09-24T16:06:25.000Z</Time>
            <Position>
              <LatitudeDegrees>43.38335190899670124053955078125</LatitudeDegrees>
              <LongitudeDegrees>-2.864434607326984405517578125</LongitudeDegrees>
            </Position>
            <AltitudeMeters>-15</AltitudeMeters>
            <DistanceMeters>NAN</DistanceMeters>
          </Trackpoint>
          <Trackpoint>
            <Time>2022-09-24T16:06:26.000Z</Time>
            <Position>
              <LatitudeDegrees>43.38333212770521640777587890625</LatitudeDegrees>
              <LongitudeDegrees>-2.86455203779041767120361328125</LongitudeDegrees>
            </Position>
            <AltitudeMeters>-15</AltitudeMeters>
            <DistanceMeters>NAN</DistanceMeters>
          </Trackpoint>
          <Trackpoint>
            <Time>2022-09-24T16:06:27.000Z</Time>
            <Position>
              <LatitudeDegrees>43.38331234641373157501220703125</LatitudeDegrees>
              <LongitudeDegrees>-2.864668630063533782958984375</LongitudeDegrees>
            </Position>
            <AltitudeMeters>-15.3999996185302734375</AltitudeMeters>
            <DistanceMeters>NAN</DistanceMeters>
          </Trackpoint>
          <Trackpoint>
            <Time>2022-09-24T16:06:28.000Z</Time>
            <Position>
              <LatitudeDegrees>43.38329675607383251190185546875</LatitudeDegrees>
              <LongitudeDegrees>-2.86478823982179164886474609375</LongitudeDegrees>
            </Position>
            <AltitudeMeters>-15.3999996185302734375</AltitudeMeters>
            <DistanceMeters>NAN</DistanceMeters>
          </Trackpoint>
          <Trackpoint>
            <Time>2022-09-24T16:06:29.000Z</Time>
            <Position>
              <LatitudeDegrees>43.38328384794294834136962890625</LatitudeDegrees>
              <LongitudeDegrees>-2.864907681941986083984375</LongitudeDegrees>
            </Position>
            <AltitudeMeters>-15.3999996185302734375</AltitudeMeters>
            <DistanceMeters>NAN</DistanceMeters>
          </Trackpoint>
          <Trackpoint>
            <Time>2022-09-24T16:06:30.000Z</Time>
            <Position>
              <LatitudeDegrees>43.38327513076364994049072265625</LatitudeDegrees>
              <LongitudeDegrees>-2.86502628587186336517333984375</LongitudeDegrees>
            </Position>
            <AltitudeMeters>-15.6000003814697265625</AltitudeMeters>
            <DistanceMeters>NAN</DistanceMeters>
          </Trackpoint>
          <Trackpoint>
            <Time>2022-09-24T16:06:31.000Z</Time>
            <Position>
              <LatitudeDegrees>43.38327161036431789398193359375</LatitudeDegrees>
              <LongitudeDegrees>-2.86514036357402801513671875</LongitudeDegrees>
            </Position>
            <AltitudeMeters>-15.80000019073486328125</AltitudeMeters>
            <DistanceMeters>NAN</DistanceMeters>
          </Trackpoint>
          <Trackpoint>
            <Time>2022-09-24T16:06:32.000Z</Time>
            <Position>
              <LatitudeDegrees>43.3832742087543010711669921875</LatitudeDegrees>
              <LongitudeDegrees>-2.86525159142911434173583984375</LongitudeDegrees>
            </Position>
            <AltitudeMeters>-15.6000003814697265625</AltitudeMeters>
            <DistanceMeters>NAN</DistanceMeters>
          </Trackpoint>
          <Trackpoint>
            <Time>2022-09-24T16:06:33.000Z</Time>
            <Position>
              <LatitudeDegrees>43.3832757174968719482421875</LatitudeDegrees>
              <LongitudeDegrees>-2.86536323837935924530029296875</LongitudeDegrees>
            </Position>
            <AltitudeMeters>-15.6000003814697265625</AltitudeMeters>
            <DistanceMeters>NAN</DistanceMeters>
          </Trackpoint>
          <Trackpoint>
            <Time>2022-09-24T16:06:34.000Z</Time>
            <Position>
              <LatitudeDegrees>43.3832805790007114410400390625</LatitudeDegrees>
              <LongitudeDegrees>-2.86547220312058925628662109375</LongitudeDegrees>
            </Position>
            <AltitudeMeters>-15.6000003814697265625</AltitudeMeters>
            <DistanceMeters>NAN</DistanceMeters>
          </Trackpoint>
          <Trackpoint>
            <Time>2022-09-24T16:06:35.000Z</Time>
            <Position>
              <LatitudeDegrees>43.3832792378962039947509765625</LatitudeDegrees>
              <LongitudeDegrees>-2.8655780665576457977294921875</LongitudeDegrees>
            </Position>
            <AltitudeMeters>-15.6000003814697265625</AltitudeMeters>
            <DistanceMeters>NAN</DistanceMeters>
          </Trackpoint>
          <Trackpoint>
            <Time>2022-09-24T16:06:36.000Z</Time>
            <Position>
              <LatitudeDegrees>43.383264653384685516357421875</LatitudeDegrees>
              <LongitudeDegrees>-2.8656756319105625152587890625</LongitudeDegrees>
            </Position>
            <AltitudeMeters>-15.6000003814697265625</AltitudeMeters>
            <DistanceMeters>NAN</DistanceMeters>
          </Trackpoint>
          <Trackpoint>
            <Time>2022-09-24T16:06:37.000Z</Time>
            <Position>
              <LatitudeDegrees>43.3832333050668239593505859375</LatitudeDegrees>
              <LongitudeDegrees>-2.8657592833042144775390625</LongitudeDegrees>
            </Position>
            <AltitudeMeters>-15.6000003814697265625</AltitudeMeters>
            <DistanceMeters>NAN</DistanceMeters>
          </Trackpoint>
          <Trackpoint>
            <Time>2022-09-24T16:06:38.000Z</Time>
            <Position>
              <LatitudeDegrees>43.383181504905223846435546875</LatitudeDegrees>
              <LongitudeDegrees>-2.8658156096935272216796875</LongitudeDegrees>
            </Position>
            <AltitudeMeters>-15.6000003814697265625</AltitudeMeters>
            <DistanceMeters>NAN</DistanceMeters>
          </Trackpoint>
          <Trackpoint>
            <Time>2022-09-24T16:06:39.000Z</Time>
            <Position>
              <LatitudeDegrees>43.38311486877501010894775390625</LatitudeDegrees>
              <LongitudeDegrees>-2.8658395819365978240966796875</LongitudeDegrees>
            </Position>
            <AltitudeMeters>-16</AltitudeMeters>
            <DistanceMeters>NAN</DistanceMeters>
          </Trackpoint>
          <Trackpoint>
            <Time>2022-09-24T16:06:40.000Z</Time>
            <Position>
              <LatitudeDegrees>43.3830388449132442474365234375</LatitudeDegrees>
              <LongitudeDegrees>-2.86584201268851757049560546875</LongitudeDegrees>
            </Position>
            <AltitudeMeters>-16</AltitudeMeters>
            <DistanceMeters>NAN</DistanceMeters>
          </Trackpoint>
          <Trackpoint>
            <Time>2022-09-24T16:06:41.000Z</Time>
            <Position>
              <LatitudeDegrees>43.38295896537601947784423828125</LatitudeDegrees>
              <LongitudeDegrees>-2.86583933047950267791748046875</LongitudeDegrees>
            </Position>
            <AltitudeMeters>-16.200000762939453125</AltitudeMeters>
            <DistanceMeters>NAN</DistanceMeters>
          </Trackpoint>
          <Trackpoint>
            <Time>2022-09-24T16:06:42.000Z</Time>
            <Position>
              <LatitudeDegrees>43.38287866674363613128662109375</LatitudeDegrees>
              <LongitudeDegrees>-2.8658370673656463623046875</LongitudeDegrees>
            </Position>
            <AltitudeMeters>-16.799999237060546875</AltitudeMeters>
            <DistanceMeters>NAN</DistanceMeters>
          </Trackpoint>
          <Trackpoint>
            <Time>2022-09-24T16:06:43.000Z</Time>
            <Position>
              <LatitudeDegrees>43.38279400952160358428955078125</LatitudeDegrees>
              <LongitudeDegrees>-2.8658330440521240234375</LongitudeDegrees>
            </Position>
            <AltitudeMeters>-17</AltitudeMeters>
            <DistanceMeters>NAN</DistanceMeters>
          </Trackpoint>
          <Trackpoint>
            <Time>2022-09-24T16:06:44.000Z</Time>
            <Position>
              <LatitudeDegrees>43.38270884938538074493408203125</LatitudeDegrees>
              <LongitudeDegrees>-2.86583312787115573883056640625</LongitudeDegrees>
            </Position>
            <AltitudeMeters>-17</AltitudeMeters>
            <DistanceMeters>NAN</DistanceMeters>
          </Trackpoint>
          <Trackpoint>
            <Time>2022-09-24T16:06:45.000Z</Time>
            <Position>
              <LatitudeDegrees>43.38262259960174560546875</LatitudeDegrees>
              <LongitudeDegrees>-2.8658332116901874542236328125</LongitudeDegrees>
            </Position>
            <AltitudeMeters>-17</AltitudeMeters>
            <DistanceMeters>NAN</DistanceMeters>
          </Trackpoint>
          <Trackpoint>
            <Time>2022-09-24T16:06:46.000Z</Time>
            <Position>
              <LatitudeDegrees>43.3825345896184444427490234375</LatitudeDegrees>
              <LongitudeDegrees>-2.865837402641773223876953125</LongitudeDegrees>
            </Position>
            <AltitudeMeters>-17</AltitudeMeters>
            <DistanceMeters>NAN</DistanceMeters>
          </Trackpoint>
          <Trackpoint>
            <Time>2022-09-24T16:06:47.000Z</Time>
            <Position>
              <LatitudeDegrees>43.3824444003403186798095703125</LatitudeDegrees>
              <LongitudeDegrees>-2.8658419288694858551025390625</LongitudeDegrees>
            </Position>
            <AltitudeMeters>-17.3999996185302734375</AltitudeMeters>
            <DistanceMeters>NAN</DistanceMeters>
          </Trackpoint>
          <Trackpoint>
            <Time>2022-09-24T16:06:48.000Z</Time>
            <Position>
              <LatitudeDegrees>43.382352702319622039794921875</LatitudeDegrees>
              <LongitudeDegrees>-2.86585290916264057159423828125</LongitudeDegrees>
            </Position>
            <AltitudeMeters>-18</AltitudeMeters>
            <DistanceMeters>NAN</DistanceMeters>
          </Trackpoint>
          <Trackpoint>
            <Time>2022-09-24T16:06:49.000Z</Time>
            <Position>
              <LatitudeDegrees>43.38225983083248138427734375</LatitudeDegrees>
              <LongitudeDegrees>-2.86586992442607879638671875</LongitudeDegrees>
            </Position>
            <AltitudeMeters>-18.200000762939453125</AltitudeMeters>
            <DistanceMeters>NAN</DistanceMeters>
          </Trackpoint>
          <Trackpoint>
            <Time>2022-09-24T16:06:50.000Z</Time>
            <Position>
              <LatitudeDegrees>43.38216687552630901336669921875</LatitudeDegrees>
              <LongitudeDegrees>-2.86589481867849826812744140625</LongitudeDegrees>
            </Position>
            <AltitudeMeters>-19</AltitudeMeters>
            <DistanceMeters>NAN</DistanceMeters>
          </Trackpoint>
          <Trackpoint>
            <Time>2022-09-24T16:06:51.000Z</Time>
            <Position>
              <LatitudeDegrees>43.382073082029819488525390625</LatitudeDegrees>
              <LongitudeDegrees>-2.86592566408216953277587890625</LongitudeDegrees>
            </Position>
            <AltitudeMeters>-20.200000762939453125</AltitudeMeters>
            <DistanceMeters>NAN</DistanceMeters>
          </Trackpoint>
          <Trackpoint>
            <Time>2022-09-24T16:06:52.000Z</Time>
            <Position>
              <LatitudeDegrees>43.382073082029819488525390625</LatitudeDegrees>
              <LongitudeDegrees>-2.86592566408216953277587890625</LongitudeDegrees>
            </Position>
            <AltitudeMeters>-21</AltitudeMeters>
            <DistanceMeters>NAN</DistanceMeters>
          </Trackpoint>
          <Trackpoint>
            <Time>2022-09-24T16:06:53.000Z</Time>
            <Position>
              <LatitudeDegrees>43.38188826106488704681396484375</LatitudeDegrees>
              <LongitudeDegrees>-2.86601342260837554931640625</LongitudeDegrees>
            </Position>
            <AltitudeMeters>-22.200000762939453125</AltitudeMeters>
            <DistanceMeters>NAN</DistanceMeters>
          </Trackpoint>
          <Trackpoint>
            <Time>2022-09-24T16:06:54.000Z</Time>
            <Position>
              <LatitudeDegrees>43.38179807178676128387451171875</LatitudeDegrees>
              <LongitudeDegrees>-2.866068072617053985595703125</LongitudeDegrees>
            </Position>
            <AltitudeMeters>-24.3999996185302734375</AltitudeMeters>
            <DistanceMeters>NAN</DistanceMeters>
          </Trackpoint>
          <Trackpoint>
            <Time>2022-09-24T16:06:55.000Z</Time>
            <Position>
              <LatitudeDegrees>43.38170369155704975128173828125</LatitudeDegrees>
              <LongitudeDegrees>-2.86612012423574924468994140625</LongitudeDegrees>
            </Position>
            <AltitudeMeters>-26.3999996185302734375</AltitudeMeters>
            <DistanceMeters>NAN</DistanceMeters>
          </Trackpoint>
          <Trackpoint>
            <Time>2022-09-24T16:06:56.000Z</Time>
            <Position>
              <LatitudeDegrees>43.381609059870243072509765625</LatitudeDegrees>
              <LongitudeDegrees>-2.86617242731153964996337890625</LongitudeDegrees>
            </Position>
            <AltitudeMeters>-26.6000003814697265625</AltitudeMeters>
            <DistanceMeters>NAN</DistanceMeters>
          </Trackpoint>
          <Trackpoint>
            <Time>2022-09-24T16:06:57.000Z</Time>
            <Position>
              <LatitudeDegrees>43.38151283562183380126953125</LatitudeDegrees>
              <LongitudeDegrees>-2.86621953360736370086669921875</LongitudeDegrees>
            </Position>
            <AltitudeMeters>-26.6000003814697265625</AltitudeMeters>
            <DistanceMeters>NAN</DistanceMeters>
          </Trackpoint>
          <Trackpoint>
            <Time>2022-09-24T16:06:58.000Z</Time>
            <Position>
              <LatitudeDegrees>43.38141552172601222991943359375</LatitudeDegrees>
              <LongitudeDegrees>-2.86626311950385570526123046875</LongitudeDegrees>
            </Position>
            <AltitudeMeters>-27.6000003814697265625</AltitudeMeters>
            <DistanceMeters>NAN</DistanceMeters>
          </Trackpoint>
          <Trackpoint>
            <Time>2022-09-24T16:06:59.000Z</Time>
            <Position>
              <LatitudeDegrees>43.38131041266024112701416015625</LatitudeDegrees>
              <LongitudeDegrees>-2.8662999160587787628173828125</LongitudeDegrees>
            </Position>
            <AltitudeMeters>-28</AltitudeMeters>
            <DistanceMeters>NAN</DistanceMeters>
          </Trackpoint>
          <Trackpoint>
            <Time>2022-09-24T16:07:00.000Z</Time>
            <Position>
              <LatitudeDegrees>43.38120278902351856231689453125</LatitudeDegrees>
              <LongitudeDegrees>-2.8663279116153717041015625</LongitudeDegrees>
            </Position>
            <AltitudeMeters>-27.6000003814697265625</AltitudeMeters>
            <DistanceMeters>NAN</DistanceMeters>
          </Trackpoint>
          <Trackpoint>
            <Time>2022-09-24T16:07:01.000Z</Time>
            <Position>
              <LatitudeDegrees>43.38109198026359081268310546875</LatitudeDegrees>
              <LongitudeDegrees>-2.8663562424480915069580078125</LongitudeDegrees>
            </Position>
            <AltitudeMeters>-26.6000003814697265625</AltitudeMeters>
            <DistanceMeters>NAN</DistanceMeters>
          </Trackpoint>
          <Trackpoint>
            <Time>2022-09-24T16:07:02.000Z</Time>
            <Position>
              <LatitudeDegrees>43.38098301552236080169677734375</LatitudeDegrees>
              <LongitudeDegrees>-2.8663840703666210174560546875</LongitudeDegrees>
            </Position>
            <AltitudeMeters>-27.3999996185302734375</AltitudeMeters>
            <DistanceMeters>NAN</DistanceMeters>
          </Trackpoint>
          <Trackpoint>
            <Time>2022-09-24T16:07:03.000Z</Time>
            <Position>
              <LatitudeDegrees>43.38087178766727447509765625</LatitudeDegrees>
              <LongitudeDegrees>-2.866415418684482574462890625</LongitudeDegrees>
            </Position>
            <AltitudeMeters>-27.3999996185302734375</AltitudeMeters>
            <DistanceMeters>NAN</DistanceMeters>
          </Trackpoint>
          <Trackpoint>
            <Time>2022-09-24T16:07:04.000Z</Time>
            <Position>
              <LatitudeDegrees>43.38073675520718097686767578125</LatitudeDegrees>
              <LongitudeDegrees>-2.86645540036261081695556640625</LongitudeDegrees>
            </Position>
            <AltitudeMeters>-28.200000762939453125</AltitudeMeters>
            <DistanceMeters>NAN</DistanceMeters>
          </Trackpoint>
          <Trackpoint>
            <Time>2022-09-24T16:07:05.000Z</Time>
            <Position>
              <LatitudeDegrees>43.38064639829099178314208984375</LatitudeDegrees>
              <LongitudeDegrees>-2.8664819709956645965576171875</LongitudeDegrees>
            </Position>
            <AltitudeMeters>-28</AltitudeMeters>
            <DistanceMeters>NAN</DistanceMeters>
          </Trackpoint>
          <Trackpoint>
            <Time>2022-09-24T16:07:06.000Z</Time>
            <Position>
              <LatitudeDegrees>43.380533494055271148681640625</LatitudeDegrees>
              <LongitudeDegrees>-2.86651507951319217681884765625</LongitudeDegrees>
            </Position>
            <AltitudeMeters>-27.3999996185302734375</AltitudeMeters>
            <DistanceMeters>NAN</DistanceMeters>
          </Trackpoint>
          <Trackpoint>
            <Time>2022-09-24T16:07:07.000Z</Time>
            <Position>
              <LatitudeDegrees>43.380418159067630767822265625</LatitudeDegrees>
              <LongitudeDegrees>-2.8665532171726226806640625</LongitudeDegrees>
            </Position>
            <AltitudeMeters>-27.3999996185302734375</AltitudeMeters>
            <DistanceMeters>NAN</DistanceMeters>
          </Trackpoint>
          <Trackpoint>
            <Time>2022-09-24T16:07:08.000Z</Time>
            <Position>
              <LatitudeDegrees>43.38030726648867130279541015625</LatitudeDegrees>
              <LongitudeDegrees>-2.8665885888040065765380859375</LongitudeDegrees>
            </Position>
            <AltitudeMeters>-28</AltitudeMeters>
            <DistanceMeters>NAN</DistanceMeters>
          </Trackpoint>
          <Trackpoint>
            <Time>2022-09-24T16:07:09.000Z</Time>
            <Position>
              <LatitudeDegrees>43.3802007324993610382080078125</LatitudeDegrees>
              <LongitudeDegrees>-2.8666214458644390106201171875</LongitudeDegrees>
            </Position>
            <AltitudeMeters>-28.200000762939453125</AltitudeMeters>
            <DistanceMeters>NAN</DistanceMeters>
          </Trackpoint>
          <Trackpoint>
            <Time>2022-09-24T16:07:10.000Z</Time>
            <Position>
              <LatitudeDegrees>43.38009755127131938934326171875</LatitudeDegrees>
              <LongitudeDegrees>-2.86665237508714199066162109375</LongitudeDegrees>
            </Position>
            <AltitudeMeters>-28.200000762939453125</AltitudeMeters>
            <DistanceMeters>NAN</DistanceMeters>
          </Trackpoint>
          <Trackpoint>
            <Time>2022-09-24T16:07:11.000Z</Time>
            <Position>
              <LatitudeDegrees>43.38000006973743438720703125</LatitudeDegrees>
              <LongitudeDegrees>-2.86668607033789157867431640625</LongitudeDegrees>
            </Position>
            <AltitudeMeters>-28.200000762939453125</AltitudeMeters>
            <DistanceMeters>NAN</DistanceMeters>
          </Trackpoint>
          <Trackpoint>
            <Time>2022-09-24T16:07:12.000Z</Time>
            <Position>
              <LatitudeDegrees>43.38000006973743438720703125</LatitudeDegrees>
              <LongitudeDegrees>-2.86668607033789157867431640625</LongitudeDegrees>
            </Position>
            <AltitudeMeters>-30.3999996185302734375</AltitudeMeters>
            <DistanceMeters>NAN</DistanceMeters>
          </Trackpoint>
          <Trackpoint>
            <Time>2022-09-24T16:07:13.000Z</Time>
            <Position>
              <LatitudeDegrees>43.37982312776148319244384765625</LatitudeDegrees>
              <LongitudeDegrees>-2.866798304021358489990234375</LongitudeDegrees>
            </Position>
            <AltitudeMeters>-31.3999996185302734375</AltitudeMeters>
            <DistanceMeters>NAN</DistanceMeters>
          </Trackpoint>
          <Trackpoint>
            <Time>2022-09-24T16:07:14.000Z</Time>
            <Position>
              <LatitudeDegrees>43.37974718771874904632568359375</LatitudeDegrees>
              <LongitudeDegrees>-2.86688120104372501373291015625</LongitudeDegrees>
            </Position>
            <AltitudeMeters>-31.6000003814697265625</AltitudeMeters>
            <DistanceMeters>NAN</DistanceMeters>
          </Trackpoint>
          <Trackpoint>
            <Time>2022-09-24T16:07:15.000Z</Time>
            <Position>
              <LatitudeDegrees>43.3796840719878673553466796875</LatitudeDegrees>
              <LongitudeDegrees>-2.86697759293019771575927734375</LongitudeDegrees>
            </Position>
            <AltitudeMeters>-32.40000152587890625</AltitudeMeters>
            <DistanceMeters>NAN</DistanceMeters>
          </Trackpoint>
          <Trackpoint>
            <Time>2022-09-24T16:07:16.000Z</Time>
            <Position>
              <LatitudeDegrees>43.37963654659688472747802734375</LatitudeDegrees>
              <LongitudeDegrees>-2.8670735657215118408203125</LongitudeDegrees>
            </Position>
            <AltitudeMeters>-34.799999237060546875</AltitudeMeters>
            <DistanceMeters>NAN</DistanceMeters>
          </Trackpoint>
          <Trackpoint>
            <Time>2022-09-24T16:07:17.000Z</Time>
            <Position>
              <LatitudeDegrees>43.37959849275648593902587890625</LatitudeDegrees>
              <LongitudeDegrees>-2.86716367118060588836669921875</LongitudeDegrees>
            </Position>
            <AltitudeMeters>-35.200000762939453125</AltitudeMeters>
            <DistanceMeters>NAN</DistanceMeters>
          </Trackpoint>
          <Trackpoint>
            <Time>2022-09-24T16:07:18.000Z</Time>
            <Position>
              <LatitudeDegrees>43.3795606903731822967529296875</LatitudeDegrees>
              <LongitudeDegrees>-2.86726593039929866790771484375</LongitudeDegrees>
            </Position>
            <AltitudeMeters>-36</AltitudeMeters>
            <DistanceMeters>NAN</DistanceMeters>
          </Trackpoint>
          <Trackpoint>
            <Time>2022-09-24T16:07:19.000Z</Time>
            <Position>
              <LatitudeDegrees>43.3795362152159214019775390625</LatitudeDegrees>
              <LongitudeDegrees>-2.86732829175889492034912109375</LongitudeDegrees>
            </Position>
            <AltitudeMeters>-36.200000762939453125</AltitudeMeters>
            <DistanceMeters>NAN</DistanceMeters>
          </Trackpoint>
          <Trackpoint>
            <Time>2022-09-24T16:07:20.000Z</Time>
            <Position>
              <LatitudeDegrees>43.379508554935455322265625</LatitudeDegrees>
              <LongitudeDegrees>-2.8673972748219966888427734375</LongitudeDegrees>
            </Position>
            <AltitudeMeters>-36.59999847412109375</AltitudeMeters>
            <DistanceMeters>NAN</DistanceMeters>
          </Trackpoint>
          <Trackpoint>
            <Time>2022-09-24T16:07:21.000Z</Time>
            <Position>
              <LatitudeDegrees>43.37948516942560672760009765625</LatitudeDegrees>
              <LongitudeDegrees>-2.86746206693351268768310546875</LongitudeDegrees>
            </Position>
            <AltitudeMeters>-37.799999237060546875</AltitudeMeters>
            <DistanceMeters>NAN</DistanceMeters>
          </Trackpoint>
          <Trackpoint>
            <Time>2022-09-24T16:07:22.000Z</Time>
            <Position>
              <LatitudeDegrees>43.37947125546634197235107421875</LatitudeDegrees>
              <LongitudeDegrees>-2.8675209917128086090087890625</LongitudeDegrees>
            </Position>
            <AltitudeMeters>-38.200000762939453125</AltitudeMeters>
            <DistanceMeters>NAN</DistanceMeters>
          </Trackpoint>
          <Trackpoint>
            <Time>2022-09-24T16:07:23.000Z</Time>
            <Position>
              <LatitudeDegrees>43.37947838008403778076171875</LatitudeDegrees>
              <LongitudeDegrees>-2.867598943412303924560546875</LongitudeDegrees>
            </Position>
            <AltitudeMeters>-38.40000152587890625</AltitudeMeters>
            <DistanceMeters>NAN</DistanceMeters>
          </Trackpoint>
          <Trackpoint>
            <Time>2022-09-24T16:07:24.000Z</Time>
            <Position>
              <LatitudeDegrees>43.37950545363128185272216796875</LatitudeDegrees>
              <LongitudeDegrees>-2.86764420568943023681640625</LongitudeDegrees>
            </Position>
            <AltitudeMeters>-38.59999847412109375</AltitudeMeters>
            <DistanceMeters>NAN</DistanceMeters>
          </Trackpoint>
          <Trackpoint>
            <Time>2022-09-24T16:07:25.000Z</Time>
            <Position>
              <LatitudeDegrees>43.3795456029474735260009765625</LatitudeDegrees>
              <LongitudeDegrees>-2.867688126862049102783203125</LongitudeDegrees>
            </Position>
            <AltitudeMeters>-38.59999847412109375</AltitudeMeters>
            <DistanceMeters>NAN</DistanceMeters>
          </Trackpoint>
          <Trackpoint>
            <Time>2022-09-24T16:07:26.000Z</Time>
            <Position>
              <LatitudeDegrees>43.3795891888439655303955078125</LatitudeDegrees>
              <LongitudeDegrees>-2.8677288629114627838134765625</LongitudeDegrees>
            </Position>
            <AltitudeMeters>-38.59999847412109375</AltitudeMeters>
            <DistanceMeters>NAN</DistanceMeters>
          </Trackpoint>
          <Trackpoint>
            <Time>2022-09-24T16:07:27.000Z</Time>
            <Position>
              <LatitudeDegrees>43.37963403202593326568603515625</LatitudeDegrees>
              <LongitudeDegrees>-2.86777387373149394989013671875</LongitudeDegrees>
            </Position>
            <AltitudeMeters>-38.40000152587890625</AltitudeMeters>
            <DistanceMeters>NAN</DistanceMeters>
          </Trackpoint>
          <Trackpoint>
            <Time>2022-09-24T16:07:28.000Z</Time>
            <Position>
              <LatitudeDegrees>43.37967929430305957794189453125</LatitudeDegrees>
              <LongitudeDegrees>-2.867824919521808624267578125</LongitudeDegrees>
            </Position>
            <AltitudeMeters>-38.200000762939453125</AltitudeMeters>
            <DistanceMeters>NAN</DistanceMeters>
          </Trackpoint>
          <Trackpoint>
            <Time>2022-09-24T16:07:29.000Z</Time>
            <Position>
              <LatitudeDegrees>43.3797244727611541748046875</LatitudeDegrees>
              <LongitudeDegrees>-2.86787060089409351348876953125</LongitudeDegrees>
            </Position>
            <AltitudeMeters>-37.799999237060546875</AltitudeMeters>
            <DistanceMeters>NAN</DistanceMeters>
          </Trackpoint>
          <Trackpoint>
            <Time>2022-09-24T16:07:30.000Z</Time>
            <Position>
              <LatitudeDegrees>43.37977233342826366424560546875</LatitudeDegrees>
              <LongitudeDegrees>-2.867911420762538909912109375</LongitudeDegrees>
            </Position>
            <AltitudeMeters>-37.59999847412109375</AltitudeMeters>
            <DistanceMeters>NAN</DistanceMeters>
          </Trackpoint>
          <Trackpoint>
            <Time>2022-09-24T16:07:31.000Z</Time>
            <Position>
              <LatitudeDegrees>43.379819691181182861328125</LatitudeDegrees>
              <LongitudeDegrees>-2.8679531626403331756591796875</LongitudeDegrees>
            </Position>
            <AltitudeMeters>-37.40000152587890625</AltitudeMeters>
            <DistanceMeters>NAN</DistanceMeters>
          </Trackpoint>
          <Trackpoint>
            <Time>2022-09-24T16:07:32.000Z</Time>
            <Position>
              <LatitudeDegrees>43.37986470200121402740478515625</LatitudeDegrees>
              <LongitudeDegrees>-2.8680024482309818267822265625</LongitudeDegrees>
            </Position>
            <AltitudeMeters>-37.40000152587890625</AltitudeMeters>
            <DistanceMeters>NAN</DistanceMeters>
          </Trackpoint>
          <Trackpoint>
            <Time>2022-09-24T16:07:33.000Z</Time>
            <Position>
              <LatitudeDegrees>43.37991097010672092437744140625</LatitudeDegrees>
              <LongitudeDegrees>-2.86805550567805767059326171875</LongitudeDegrees>
            </Position>
            <AltitudeMeters>-37.200000762939453125</AltitudeMeters>
            <DistanceMeters>NAN</DistanceMeters>
          </Trackpoint>
          <Trackpoint>
            <Time>2022-09-24T16:07:34.000Z</Time>
            <Position>
              <LatitudeDegrees>43.3799589984118938446044921875</LatitudeDegrees>
              <LongitudeDegrees>-2.8681088984012603759765625</LongitudeDegrees>
            </Position>
            <AltitudeMeters>-36.799999237060546875</AltitudeMeters>
            <DistanceMeters>NAN</DistanceMeters>
          </Trackpoint>
          <Trackpoint>
            <Time>2022-09-24T16:07:35.000Z</Time>
            <Position>
              <LatitudeDegrees>43.38000677525997161865234375</LatitudeDegrees>
              <LongitudeDegrees>-2.86815927363932132720947265625</LongitudeDegrees>
            </Position>
            <AltitudeMeters>-36.799999237060546875</AltitudeMeters>
            <DistanceMeters>NAN</DistanceMeters>
          </Trackpoint>
          <Trackpoint>
            <Time>2022-09-24T16:07:36.000Z</Time>
            <Position>
              <LatitudeDegrees>43.38000677525997161865234375</LatitudeDegrees>
              <LongitudeDegrees>-2.86815927363932132720947265625</LongitudeDegrees>
            </Position>
            <AltitudeMeters>-36.799999237060546875</AltitudeMeters>
            <DistanceMeters>NAN</DistanceMeters>
          </Trackpoint>
          <Trackpoint>
            <Time>2022-09-24T16:07:37.000Z</Time>
            <Position>
              <LatitudeDegrees>43.38010174222290515899658203125</LatitudeDegrees>
              <LongitudeDegrees>-2.86826438270509243011474609375</LongitudeDegrees>
            </Position>
            <AltitudeMeters>-36.799999237060546875</AltitudeMeters>
            <DistanceMeters>NAN</DistanceMeters>
          </Trackpoint>
          <Trackpoint>
            <Time>2022-09-24T16:07:38.000Z</Time>
            <Position>
              <LatitudeDegrees>43.38014700450003147125244140625</LatitudeDegrees>
              <LongitudeDegrees>-2.86831886507570743560791015625</LongitudeDegrees>
            </Position>
            <AltitudeMeters>-36.799999237060546875</AltitudeMeters>
            <DistanceMeters>NAN</DistanceMeters>
          </Trackpoint>
          <Trackpoint>
            <Time>2022-09-24T16:07:39.000Z</Time>
            <Position>
              <LatitudeDegrees>43.3801950328052043914794921875</LatitudeDegrees>
              <LongitudeDegrees>-2.868370078504085540771484375</LongitudeDegrees>
            </Position>
            <AltitudeMeters>-37</AltitudeMeters>
            <DistanceMeters>NAN</DistanceMeters>
          </Trackpoint>
          <Trackpoint>
            <Time>2022-09-24T16:07:40.000Z</Time>
            <Position>
              <LatitudeDegrees>43.3802419714629650115966796875</LatitudeDegrees>
              <LongitudeDegrees>-2.86842112429440021514892578125</LongitudeDegrees>
            </Position>
            <AltitudeMeters>-37</AltitudeMeters>
            <DistanceMeters>NAN</DistanceMeters>
          </Trackpoint>
          <Trackpoint>
            <Time>2022-09-24T16:07:41.000Z</Time>
            <Position>
              <LatitudeDegrees>43.38028815574944019317626953125</LatitudeDegrees>
              <LongitudeDegrees>-2.8684735111892223358154296875</LongitudeDegrees>
            </Position>
            <AltitudeMeters>-37</AltitudeMeters>
            <DistanceMeters>NAN</DistanceMeters>
          </Trackpoint>
          <Trackpoint>
            <Time>2022-09-24T16:07:42.000Z</Time>
            <Position>
              <LatitudeDegrees>43.38033526204526424407958984375</LatitudeDegrees>
              <LongitudeDegrees>-2.86852371878921985626220703125</LongitudeDegrees>
            </Position>
            <AltitudeMeters>-36.59999847412109375</AltitudeMeters>
            <DistanceMeters>NAN</DistanceMeters>
          </Trackpoint>
          <Trackpoint>
            <Time>2022-09-24T16:07:43.000Z</Time>
            <Position>
              <LatitudeDegrees>43.3803935162723064422607421875</LatitudeDegrees>
              <LongitudeDegrees>-2.8685794584453105926513671875</LongitudeDegrees>
            </Position>
            <AltitudeMeters>-36.59999847412109375</AltitudeMeters>
            <DistanceMeters>NAN</DistanceMeters>
          </Trackpoint>
          <Trackpoint>
            <Time>2022-09-24T16:07:44.000Z</Time>
            <Position>
              <LatitudeDegrees>43.38043098337948322296142578125</LatitudeDegrees>
              <LongitudeDegrees>-2.8686190210282802581787109375</LongitudeDegrees>
            </Position>
            <AltitudeMeters>-36.59999847412109375</AltitudeMeters>
            <DistanceMeters>NAN</DistanceMeters>
          </Trackpoint>
          <Trackpoint>
            <Time>2022-09-24T16:07:45.000Z</Time>
            <Position>
              <LatitudeDegrees>43.3804773353040218353271484375</LatitudeDegrees>
              <LongitudeDegrees>-2.86867459304630756378173828125</LongitudeDegrees>
            </Position>
            <AltitudeMeters>-37</AltitudeMeters>
            <DistanceMeters>NAN</DistanceMeters>
          </Trackpoint>
          <Trackpoint>
            <Time>2022-09-24T16:07:46.000Z</Time>
            <Position>
              <LatitudeDegrees>43.3805242739617824554443359375</LatitudeDegrees>
              <LongitudeDegrees>-2.86873075179755687713623046875</LongitudeDegrees>
            </Position>
            <AltitudeMeters>-36.59999847412109375</AltitudeMeters>
            <DistanceMeters>NAN</DistanceMeters>
          </Trackpoint>
          <Trackpoint>
            <Time>2022-09-24T16:07:47.000Z</Time>
            <Position>
              <LatitudeDegrees>43.38057246990501880645751953125</LatitudeDegrees>
              <LongitudeDegrees>-2.8687836416065692901611328125</LongitudeDegrees>
            </Position>
            <AltitudeMeters>-36.59999847412109375</AltitudeMeters>
            <DistanceMeters>NAN</DistanceMeters>
          </Trackpoint>
          <Trackpoint>
            <Time>2022-09-24T16:07:48.000Z</Time>
            <Position>
              <LatitudeDegrees>43.380622677505016326904296875</LatitudeDegrees>
              <LongitudeDegrees>-2.8688392974436283111572265625</LongitudeDegrees>
            </Position>
            <AltitudeMeters>-37</AltitudeMeters>
            <DistanceMeters>NAN</DistanceMeters>
          </Trackpoint>
          <Trackpoint>
            <Time>2022-09-24T16:07:49.000Z</Time>
            <Position>
              <LatitudeDegrees>43.38067288510501384735107421875</LatitudeDegrees>
              <LongitudeDegrees>-2.86889612674713134765625</LongitudeDegrees>
            </Position>
            <AltitudeMeters>-37</AltitudeMeters>
            <DistanceMeters>NAN</DistanceMeters>
          </Trackpoint>
          <Trackpoint>
            <Time>2022-09-24T16:07:50.000Z</Time>
            <Position>
              <LatitudeDegrees>43.3807249367237091064453125</LatitudeDegrees>
              <LongitudeDegrees>-2.86895303986966609954833984375</LongitudeDegrees>
            </Position>
            <AltitudeMeters>-37</AltitudeMeters>
            <DistanceMeters>NAN</DistanceMeters>
          </Trackpoint>
          <Trackpoint>
            <Time>2022-09-24T16:07:51.000Z</Time>
            <Position>
              <LatitudeDegrees>43.38077363558113574981689453125</LatitudeDegrees>
              <LongitudeDegrees>-2.8690122999250888824462890625</LongitudeDegrees>
            </Position>
            <AltitudeMeters>-37</AltitudeMeters>
            <DistanceMeters>NAN</DistanceMeters>
          </Trackpoint>
          <Trackpoint>
            <Time>2022-09-24T16:07:52.000Z</Time>
            <Position>
              <LatitudeDegrees>43.38082409463822841644287109375</LatitudeDegrees>
              <LongitudeDegrees>-2.86907005123794078826904296875</LongitudeDegrees>
            </Position>
            <AltitudeMeters>-37</AltitudeMeters>
            <DistanceMeters>NAN</DistanceMeters>
          </Trackpoint>
          <Trackpoint>
            <Time>2022-09-24T16:07:53.000Z</Time>
            <Position>
              <LatitudeDegrees>43.38087790645658969879150390625</LatitudeDegrees>
              <LongitudeDegrees>-2.86912889219820499420166015625</LongitudeDegrees>
            </Position>
            <AltitudeMeters>-37.799999237060546875</AltitudeMeters>
            <DistanceMeters>NAN</DistanceMeters>
          </Trackpoint>
          <Trackpoint>
            <Time>2022-09-24T16:07:54.000Z</Time>
            <Position>
              <LatitudeDegrees>43.38093289174139499664306640625</LatitudeDegrees>
              <LongitudeDegrees>-2.86918706260621547698974609375</LongitudeDegrees>
            </Position>
            <AltitudeMeters>-37.799999237060546875</AltitudeMeters>
            <DistanceMeters>NAN</DistanceMeters>
          </Trackpoint>
          <Trackpoint>
            <Time>2022-09-24T16:07:55.000Z</Time>
            <Position>
              <LatitudeDegrees>43.38098770938813686370849609375</LatitudeDegrees>
              <LongitudeDegrees>-2.8692463226616382598876953125</LongitudeDegrees>
            </Position>
            <AltitudeMeters>-38.200000762939453125</AltitudeMeters>
            <DistanceMeters>NAN</DistanceMeters>
          </Trackpoint>
          <Trackpoint>
            <Time>2022-09-24T16:07:56.000Z</Time>
            <Position>
              <LatitudeDegrees>43.3810441195964813232421875</LatitudeDegrees>
              <LongitudeDegrees>-2.86930323578417301177978515625</LongitudeDegrees>
            </Position>
            <AltitudeMeters>-38.200000762939453125</AltitudeMeters>
            <DistanceMeters>NAN</DistanceMeters>
          </Trackpoint>
          <Trackpoint>
            <Time>2022-09-24T16:07:57.000Z</Time>
            <Position>
              <LatitudeDegrees>43.38110488839447498321533203125</LatitudeDegrees>
              <LongitudeDegrees>-2.86935520358383655548095703125</LongitudeDegrees>
            </Position>
            <AltitudeMeters>-38.200000762939453125</AltitudeMeters>
            <DistanceMeters>NAN</DistanceMeters>
          </Trackpoint>
          <Trackpoint>
            <Time>2022-09-24T16:07:58.000Z</Time>
            <Position>
              <LatitudeDegrees>43.38116859085857868194580078125</LatitudeDegrees>
              <LongitudeDegrees>-2.8693998791277408599853515625</LongitudeDegrees>
            </Position>
            <AltitudeMeters>-38.59999847412109375</AltitudeMeters>
            <DistanceMeters>NAN</DistanceMeters>
          </Trackpoint>
          <Trackpoint>
            <Time>2022-09-24T16:07:59.000Z</Time>
            <Position>
              <LatitudeDegrees>43.38123531080782413482666015625</LatitudeDegrees>
              <LongitudeDegrees>-2.86943592131137847900390625</LongitudeDegrees>
            </Position>
            <AltitudeMeters>-39</AltitudeMeters>
            <DistanceMeters>NAN</DistanceMeters>
          </Trackpoint>
          <Trackpoint>
            <Time>2022-09-24T16:08:00.000Z</Time>
            <Position>
              <LatitudeDegrees>43.38130236603319644927978515625</LatitudeDegrees>
              <LongitudeDegrees>-2.8694712929427623748779296875</LongitudeDegrees>
            </Position>
            <AltitudeMeters>-39</AltitudeMeters>
            <DistanceMeters>NAN</DistanceMeters>
          </Trackpoint>
          <Trackpoint>
            <Time>2022-09-24T16:08:01.000Z</Time>
            <Position>
              <LatitudeDegrees>43.38136573322117328643798828125</LatitudeDegrees>
              <LongitudeDegrees>-2.869515717029571533203125</LongitudeDegrees>
            </Position>
            <AltitudeMeters>-39</AltitudeMeters>
            <DistanceMeters>NAN</DistanceMeters>
          </Trackpoint>
          <Trackpoint>
            <Time>2022-09-24T16:08:02.000Z</Time>
            <Position>
              <LatitudeDegrees>43.38142189197242259979248046875</LatitudeDegrees>
              <LongitudeDegrees>-2.86957631818950176239013671875</LongitudeDegrees>
            </Position>
            <AltitudeMeters>-39</AltitudeMeters>
            <DistanceMeters>NAN</DistanceMeters>
          </Trackpoint>
          <Trackpoint>
            <Time>2022-09-24T16:08:03.000Z</Time>
            <Position>
              <LatitudeDegrees>43.38147126138210296630859375</LatitudeDegrees>
              <LongitudeDegrees>-2.8696473129093647003173828125</LongitudeDegrees>
            </Position>
            <AltitudeMeters>-39</AltitudeMeters>
            <DistanceMeters>NAN</DistanceMeters>
          </Trackpoint>
          <Trackpoint>
            <Time>2022-09-24T16:08:04.000Z</Time>
            <Position>
              <LatitudeDegrees>43.3815133385360240936279296875</LatitudeDegrees>
              <LongitudeDegrees>-2.8697289526462554931640625</LongitudeDegrees>
            </Position>
            <AltitudeMeters>-39</AltitudeMeters>
            <DistanceMeters>NAN</DistanceMeters>
          </Trackpoint>
          <Trackpoint>
            <Time>2022-09-24T16:08:05.000Z</Time>
            <Position>
              <LatitudeDegrees>43.381552398204803466796875</LatitudeDegrees>
              <LongitudeDegrees>-2.86982106976211071014404296875</LongitudeDegrees>
            </Position>
            <AltitudeMeters>-38.40000152587890625</AltitudeMeters>
            <DistanceMeters>NAN</DistanceMeters>
          </Trackpoint>
          <Trackpoint>
            <Time>2022-09-24T16:08:06.000Z</Time>
            <Position>
              <LatitudeDegrees>43.38158969767391681671142578125</LatitudeDegrees>
              <LongitudeDegrees>-2.86991327069699764251708984375</LongitudeDegrees>
            </Position>
            <AltitudeMeters>-37.799999237060546875</AltitudeMeters>
            <DistanceMeters>NAN</DistanceMeters>
          </Trackpoint>
          <Trackpoint>
            <Time>2022-09-24T16:08:07.000Z</Time>
            <Position>
              <LatitudeDegrees>43.38162548840045928955078125</LatitudeDegrees>
              <LongitudeDegrees>-2.87000119686126708984375</LongitudeDegrees>
            </Position>
            <AltitudeMeters>-37.59999847412109375</AltitudeMeters>
            <DistanceMeters>NAN</DistanceMeters>
          </Trackpoint>
          <Trackpoint>
            <Time>2022-09-24T16:08:08.000Z</Time>
            <Position>
              <LatitudeDegrees>43.38165700435638427734375</LatitudeDegrees>
              <LongitudeDegrees>-2.87009180523455142974853515625</LongitudeDegrees>
            </Position>
            <AltitudeMeters>-37.59999847412109375</AltitudeMeters>
            <DistanceMeters>NAN</DistanceMeters>
          </Trackpoint>
          <Trackpoint>
            <Time>2022-09-24T16:08:09.000Z</Time>
            <Position>
              <LatitudeDegrees>43.38168717920780181884765625</LatitudeDegrees>
              <LongitudeDegrees>-2.8701834194362163543701171875</LongitudeDegrees>
            </Position>
            <AltitudeMeters>-37.59999847412109375</AltitudeMeters>
            <DistanceMeters>NAN</DistanceMeters>
          </Trackpoint>
          <Trackpoint>
            <Time>2022-09-24T16:08:10.000Z</Time>
            <Position>
              <LatitudeDegrees>43.38171592913568019866943359375</LatitudeDegrees>
              <LongitudeDegrees>-2.8702746145427227020263671875</LongitudeDegrees>
            </Position>
            <AltitudeMeters>-37.59999847412109375</AltitudeMeters>
            <DistanceMeters>NAN</DistanceMeters>
          </Trackpoint>
          <Trackpoint>
            <Time>2022-09-24T16:08:11.000Z</Time>
            <Position>
              <LatitudeDegrees>43.38174283504486083984375</LatitudeDegrees>
              <LongitudeDegrees>-2.87036798894405364990234375</LongitudeDegrees>
            </Position>
            <AltitudeMeters>-37.799999237060546875</AltitudeMeters>
            <DistanceMeters>NAN</DistanceMeters>
          </Trackpoint>
          <Trackpoint>
            <Time>2022-09-24T16:08:12.000Z</Time>
            <Position>
              <LatitudeDegrees>43.38176940567791461944580078125</LatitudeDegrees>
              <LongitudeDegrees>-2.8704610280692577362060546875</LongitudeDegrees>
            </Position>
            <AltitudeMeters>-38</AltitudeMeters>
            <DistanceMeters>NAN</DistanceMeters>
          </Trackpoint>
          <Trackpoint>
            <Time>2022-09-24T16:08:13.000Z</Time>
            <Position>
              <LatitudeDegrees>43.3817942999303340911865234375</LatitudeDegrees>
              <LongitudeDegrees>-2.87055197171866893768310546875</LongitudeDegrees>
            </Position>
            <AltitudeMeters>-38</AltitudeMeters>
            <DistanceMeters>NAN</DistanceMeters>
          </Trackpoint>
          <Trackpoint>
            <Time>2022-09-24T16:08:14.000Z</Time>
            <Position>
              <LatitudeDegrees>43.38181533850729465484619140625</LatitudeDegrees>
              <LongitudeDegrees>-2.87064517848193645477294921875</LongitudeDegrees>
            </Position>
            <AltitudeMeters>-38</AltitudeMeters>
            <DistanceMeters>NAN</DistanceMeters>
          </Trackpoint>
          <Trackpoint>
            <Time>2022-09-24T16:08:15.000Z</Time>
            <Position>
              <LatitudeDegrees>43.381834365427494049072265625</LatitudeDegrees>
              <LongitudeDegrees>-2.87073922343552112579345703125</LongitudeDegrees>
            </Position>
            <AltitudeMeters>-38</AltitudeMeters>
            <DistanceMeters>NAN</DistanceMeters>
          </Trackpoint>
          <Trackpoint>
            <Time>2022-09-24T16:08:16.000Z</Time>
            <Position>
              <LatitudeDegrees>43.38185054250061511993408203125</LatitudeDegrees>
              <LongitudeDegrees>-2.87083628587424755096435546875</LongitudeDegrees>
            </Position>
            <AltitudeMeters>-38</AltitudeMeters>
            <DistanceMeters>NAN</DistanceMeters>
          </Trackpoint>
          <Trackpoint>
            <Time>2022-09-24T16:08:17.000Z</Time>
            <Position>
              <LatitudeDegrees>43.381863534450531005859375</LatitudeDegrees>
              <LongitudeDegrees>-2.87093351595103740692138671875</LongitudeDegrees>
            </Position>
            <AltitudeMeters>-38</AltitudeMeters>
            <DistanceMeters>NAN</DistanceMeters>
          </Trackpoint>
          <Trackpoint>
            <Time>2022-09-24T16:08:18.000Z</Time>
            <Position>
              <LatitudeDegrees>43.38187350891530513763427734375</LatitudeDegrees>
              <LongitudeDegrees>-2.87103242240846157073974609375</LongitudeDegrees>
            </Position>
            <AltitudeMeters>-37.200000762939453125</AltitudeMeters>
            <DistanceMeters>NAN</DistanceMeters>
          </Trackpoint>
          <Trackpoint>
            <Time>2022-09-24T16:08:19.000Z</Time>
            <Position>
              <LatitudeDegrees>43.3818818069994449615478515625</LatitudeDegrees>
              <LongitudeDegrees>-2.87113082595169544219970703125</LongitudeDegrees>
            </Position>
            <AltitudeMeters>-37.200000762939453125</AltitudeMeters>
            <DistanceMeters>NAN</DistanceMeters>
          </Trackpoint>
          <Trackpoint>
            <Time>2022-09-24T16:08:20.000Z</Time>
            <Position>
              <LatitudeDegrees>43.381888009607791900634765625</LatitudeDegrees>
              <LongitudeDegrees>-2.87123174406588077545166015625</LongitudeDegrees>
            </Position>
            <AltitudeMeters>-37.200000762939453125</AltitudeMeters>
            <DistanceMeters>NAN</DistanceMeters>
          </Trackpoint>
          <Trackpoint>
            <Time>2022-09-24T16:08:21.000Z</Time>
            <Position>
              <LatitudeDegrees>43.381894044578075408935546875</LatitudeDegrees>
              <LongitudeDegrees>-2.8713327459990978240966796875</LongitudeDegrees>
            </Position>
            <AltitudeMeters>-38.40000152587890625</AltitudeMeters>
            <DistanceMeters>NAN</DistanceMeters>
          </Trackpoint>
          <Trackpoint>
            <Time>2022-09-24T16:08:22.000Z</Time>
            <Position>
              <LatitudeDegrees>43.3818968944251537322998046875</LatitudeDegrees>
              <LongitudeDegrees>-2.8714321553707122802734375</LongitudeDegrees>
            </Position>
            <AltitudeMeters>-38.40000152587890625</AltitudeMeters>
            <DistanceMeters>NAN</DistanceMeters>
          </Trackpoint>
          <Trackpoint>
            <Time>2022-09-24T16:08:23.000Z</Time>
            <Position>
              <LatitudeDegrees>43.381896726787090301513671875</LatitudeDegrees>
              <LongitudeDegrees>-2.8715339116752147674560546875</LongitudeDegrees>
            </Position>
            <AltitudeMeters>-38.40000152587890625</AltitudeMeters>
            <DistanceMeters>NAN</DistanceMeters>
          </Trackpoint>
          <Trackpoint>
            <Time>2022-09-24T16:08:24.000Z</Time>
            <Position>
              <LatitudeDegrees>43.381892703473567962646484375</LatitudeDegrees>
              <LongitudeDegrees>-2.87163642235100269317626953125</LongitudeDegrees>
            </Position>
            <AltitudeMeters>-38.40000152587890625</AltitudeMeters>
            <DistanceMeters>NAN</DistanceMeters>
          </Trackpoint>
          <Trackpoint>
            <Time>2022-09-24T16:08:25.000Z</Time>
            <Position>
              <LatitudeDegrees>43.38188775815069675445556640625</LatitudeDegrees>
              <LongitudeDegrees>-2.8717387653887271881103515625</LongitudeDegrees>
            </Position>
            <AltitudeMeters>-38.40000152587890625</AltitudeMeters>
            <DistanceMeters>NAN</DistanceMeters>
          </Trackpoint>
          <Trackpoint>
            <Time>2022-09-24T16:08:26.000Z</Time>
            <Position>
              <LatitudeDegrees>43.3818808011710643768310546875</LatitudeDegrees>
              <LongitudeDegrees>-2.87183876149356365203857421875</LongitudeDegrees>
            </Position>
            <AltitudeMeters>-38.40000152587890625</AltitudeMeters>
            <DistanceMeters>NAN</DistanceMeters>
          </Trackpoint>
          <Trackpoint>
            <Time>2022-09-24T16:08:27.000Z</Time>
            <Position>
              <LatitudeDegrees>43.3818808011710643768310546875</LatitudeDegrees>
              <LongitudeDegrees>-2.87183876149356365203857421875</LongitudeDegrees>
            </Position>
            <AltitudeMeters>-37.799999237060546875</AltitudeMeters>
            <DistanceMeters>NAN</DistanceMeters>
          </Trackpoint>
          <Trackpoint>
            <Time>2022-09-24T16:08:28.000Z</Time>
            <Position>
              <LatitudeDegrees>43.3818593434989452362060546875</LatitudeDegrees>
              <LongitudeDegrees>-2.8720405139029026031494140625</LongitudeDegrees>
            </Position>
            <AltitudeMeters>-37.59999847412109375</AltitudeMeters>
            <DistanceMeters>NAN</DistanceMeters>
          </Trackpoint>
          <Trackpoint>
            <Time>2022-09-24T16:08:29.000Z</Time>
            <Position>
              <LatitudeDegrees>43.38184886611998081207275390625</LatitudeDegrees>
              <LongitudeDegrees>-2.872142605483531951904296875</LongitudeDegrees>
            </Position>
            <AltitudeMeters>-37.59999847412109375</AltitudeMeters>
            <DistanceMeters>NAN</DistanceMeters>
          </Trackpoint>
          <Trackpoint>
            <Time>2022-09-24T16:08:30.000Z</Time>
            <Position>
              <LatitudeDegrees>43.38184098713099956512451171875</LatitudeDegrees>
              <LongitudeDegrees>-2.8722413443028926849365234375</LongitudeDegrees>
            </Position>
            <AltitudeMeters>-37.59999847412109375</AltitudeMeters>
            <DistanceMeters>NAN</DistanceMeters>
          </Trackpoint>
          <Trackpoint>
            <Time>2022-09-24T16:08:31.000Z</Time>
            <Position>
              <LatitudeDegrees>43.3818355388939380645751953125</LatitudeDegrees>
              <LongitudeDegrees>-2.87233941256999969482421875</LongitudeDegrees>
            </Position>
            <AltitudeMeters>-37.59999847412109375</AltitudeMeters>
            <DistanceMeters>NAN</DistanceMeters>
          </Trackpoint>
          <Trackpoint>
            <Time>2022-09-24T16:08:32.000Z</Time>
            <Position>
              <LatitudeDegrees>43.38182975538074970245361328125</LatitudeDegrees>
              <LongitudeDegrees>-2.8724358044564723968505859375</LongitudeDegrees>
            </Position>
            <AltitudeMeters>-37.59999847412109375</AltitudeMeters>
            <DistanceMeters>NAN</DistanceMeters>
          </Trackpoint>
          <Trackpoint>
            <Time>2022-09-24T16:08:33.000Z</Time>
            <Position>
              <LatitudeDegrees>43.38182187639176845550537109375</LatitudeDegrees>
              <LongitudeDegrees>-2.87253563292324542999267578125</LongitudeDegrees>
            </Position>
            <AltitudeMeters>-37.59999847412109375</AltitudeMeters>
            <DistanceMeters>NAN</DistanceMeters>
          </Trackpoint>
          <Trackpoint>
            <Time>2022-09-24T16:08:34.000Z</Time>
            <Position>
              <LatitudeDegrees>43.38181458413600921630859375</LatitudeDegrees>
              <LongitudeDegrees>-2.87263487465679645538330078125</LongitudeDegrees>
            </Position>
            <AltitudeMeters>-37.40000152587890625</AltitudeMeters>
            <DistanceMeters>NAN</DistanceMeters>
          </Trackpoint>
          <Trackpoint>
            <Time>2022-09-24T16:08:35.000Z</Time>
            <Position>
              <LatitudeDegrees>43.38180528022348880767822265625</LatitudeDegrees>
              <LongitudeDegrees>-2.87275423295795917510986328125</LongitudeDegrees>
            </Position>
            <AltitudeMeters>-37.40000152587890625</AltitudeMeters>
            <DistanceMeters>NAN</DistanceMeters>
          </Trackpoint>
          <Trackpoint>
            <Time>2022-09-24T16:08:36.000Z</Time>
            <Position>
              <LatitudeDegrees>43.38179958052933216094970703125</LatitudeDegrees>
              <LongitudeDegrees>-2.87285506725311279296875</LongitudeDegrees>
            </Position>
            <AltitudeMeters>-37.40000152587890625</AltitudeMeters>
            <DistanceMeters>NAN</DistanceMeters>
          </Trackpoint>
          <Trackpoint>
            <Time>2022-09-24T16:08:37.000Z</Time>
            <Position>
              <LatitudeDegrees>43.381793461740016937255859375</LatitudeDegrees>
              <LongitudeDegrees>-2.8729556500911712646484375</LongitudeDegrees>
            </Position>
            <AltitudeMeters>-37.200000762939453125</AltitudeMeters>
            <DistanceMeters>NAN</DistanceMeters>
          </Trackpoint>
          <Trackpoint>
            <Time>2022-09-24T16:08:38.000Z</Time>
            <Position>
              <LatitudeDegrees>43.3817879296839237213134765625</LatitudeDegrees>
              <LongitudeDegrees>-2.8730352781713008880615234375</LongitudeDegrees>
            </Position>
            <AltitudeMeters>-37.200000762939453125</AltitudeMeters>
            <DistanceMeters>NAN</DistanceMeters>
          </Trackpoint>
          <Trackpoint>
            <Time>2022-09-24T16:08:39.000Z</Time>
            <Position>
              <LatitudeDegrees>43.3817792125046253204345703125</LatitudeDegrees>
              <LongitudeDegrees>-2.87315555848181247711181640625</LongitudeDegrees>
            </Position>
            <AltitudeMeters>-36.799999237060546875</AltitudeMeters>
            <DistanceMeters>NAN</DistanceMeters>
          </Trackpoint>
          <Trackpoint>
            <Time>2022-09-24T16:08:40.000Z</Time>
            <Position>
              <LatitudeDegrees>43.3817694894969463348388671875</LatitudeDegrees>
              <LongitudeDegrees>-2.87325949408113956451416015625</LongitudeDegrees>
            </Position>
            <AltitudeMeters>-37.200000762939453125</AltitudeMeters>
            <DistanceMeters>NAN</DistanceMeters>
          </Trackpoint>
          <Trackpoint>
            <Time>2022-09-24T16:08:41.000Z</Time>
            <Position>
              <LatitudeDegrees>43.3817580901086330413818359375</LatitudeDegrees>
              <LongitudeDegrees>-2.8733668662607669830322265625</LongitudeDegrees>
            </Position>
            <AltitudeMeters>-37.200000762939453125</AltitudeMeters>
            <DistanceMeters>NAN</DistanceMeters>
          </Trackpoint>
          <Trackpoint>
            <Time>2022-09-24T16:08:42.000Z</Time>
            <Position>
              <LatitudeDegrees>43.38175113312900066375732421875</LatitudeDegrees>
              <LongitudeDegrees>-2.87347189150750637054443359375</LongitudeDegrees>
            </Position>
            <AltitudeMeters>-37.40000152587890625</AltitudeMeters>
            <DistanceMeters>NAN</DistanceMeters>
          </Trackpoint>
          <Trackpoint>
            <Time>2022-09-24T16:08:43.000Z</Time>
            <Position>
              <LatitudeDegrees>43.38174627162516117095947265625</LatitudeDegrees>
              <LongitudeDegrees>-2.87355403415858745574951171875</LongitudeDegrees>
            </Position>
            <AltitudeMeters>-37.40000152587890625</AltitudeMeters>
            <DistanceMeters>NAN</DistanceMeters>
          </Trackpoint>
          <Trackpoint>
            <Time>2022-09-24T16:08:44.000Z</Time>
            <Position>
              <LatitudeDegrees>43.38174141012132167816162109375</LatitudeDegrees>
              <LongitudeDegrees>-2.87367490120232105255126953125</LongitudeDegrees>
            </Position>
            <AltitudeMeters>-37.40000152587890625</AltitudeMeters>
            <DistanceMeters>NAN</DistanceMeters>
          </Trackpoint>
          <Trackpoint>
            <Time>2022-09-24T16:08:45.000Z</Time>
            <Position>
              <LatitudeDegrees>43.38174040429294109344482421875</LatitudeDegrees>
              <LongitudeDegrees>-2.8737752325832843780517578125</LongitudeDegrees>
            </Position>
            <AltitudeMeters>-37.59999847412109375</AltitudeMeters>
            <DistanceMeters>NAN</DistanceMeters>
          </Trackpoint>
          <Trackpoint>
            <Time>2022-09-24T16:08:46.000Z</Time>
            <Position>
              <LatitudeDegrees>43.38173788972198963165283203125</LatitudeDegrees>
              <LongitudeDegrees>-2.87387623451650142669677734375</LongitudeDegrees>
            </Position>
            <AltitudeMeters>-38</AltitudeMeters>
            <DistanceMeters>NAN</DistanceMeters>
          </Trackpoint>
          <Trackpoint>
            <Time>2022-09-24T16:08:47.000Z</Time>
            <Position>
              <LatitudeDegrees>43.38173814117908477783203125</LatitudeDegrees>
              <LongitudeDegrees>-2.87395519204437732696533203125</LongitudeDegrees>
            </Position>
            <AltitudeMeters>-38</AltitudeMeters>
            <DistanceMeters>NAN</DistanceMeters>
          </Trackpoint>
          <Trackpoint>
            <Time>2022-09-24T16:08:48.000Z</Time>
            <Position>
              <LatitudeDegrees>43.3817473612725734710693359375</LatitudeDegrees>
              <LongitudeDegrees>-2.8740706108510494232177734375</LongitudeDegrees>
            </Position>
            <AltitudeMeters>-37.799999237060546875</AltitudeMeters>
            <DistanceMeters>NAN</DistanceMeters>
          </Trackpoint>
          <Trackpoint>
            <Time>2022-09-24T16:08:49.000Z</Time>
            <Position>
              <LatitudeDegrees>43.38175733573734760284423828125</LatitudeDegrees>
              <LongitudeDegrees>-2.87416339851915836334228515625</LongitudeDegrees>
            </Position>
            <AltitudeMeters>-37.799999237060546875</AltitudeMeters>
            <DistanceMeters>NAN</DistanceMeters>
          </Trackpoint>
          <Trackpoint>
            <Time>2022-09-24T16:08:50.000Z</Time>
            <Position>
              <LatitudeDegrees>43.38176764547824859619140625</LatitudeDegrees>
              <LongitudeDegrees>-2.87425191141664981842041015625</LongitudeDegrees>
            </Position>
            <AltitudeMeters>-37.799999237060546875</AltitudeMeters>
            <DistanceMeters>NAN</DistanceMeters>
          </Trackpoint>
          <Trackpoint>
            <Time>2022-09-24T16:08:51.000Z</Time>
            <Position>
              <LatitudeDegrees>43.3817790448665618896484375</LatitudeDegrees>
              <LongitudeDegrees>-2.87433891557157039642333984375</LongitudeDegrees>
            </Position>
            <AltitudeMeters>-37.59999847412109375</AltitudeMeters>
            <DistanceMeters>NAN</DistanceMeters>
          </Trackpoint>
          <Trackpoint>
            <Time>2022-09-24T16:08:52.000Z</Time>
            <Position>
              <LatitudeDegrees>43.38179069571197032928466796875</LatitudeDegrees>
              <LongitudeDegrees>-2.87440731190145015716552734375</LongitudeDegrees>
            </Position>
            <AltitudeMeters>-37.200000762939453125</AltitudeMeters>
            <DistanceMeters>NAN</DistanceMeters>
          </Trackpoint>
          <Trackpoint>
            <Time>2022-09-24T16:08:53.000Z</Time>
            <Position>
              <LatitudeDegrees>43.38180787861347198486328125</LatitudeDegrees>
              <LongitudeDegrees>-2.87451007403433322906494140625</LongitudeDegrees>
            </Position>
            <AltitudeMeters>-36.799999237060546875</AltitudeMeters>
            <DistanceMeters>NAN</DistanceMeters>
          </Trackpoint>
          <Trackpoint>
            <Time>2022-09-24T16:08:54.000Z</Time>
            <Position>
              <LatitudeDegrees>43.38180787861347198486328125</LatitudeDegrees>
              <LongitudeDegrees>-2.87451007403433322906494140625</LongitudeDegrees>
            </Position>
            <AltitudeMeters>-36.799999237060546875</AltitudeMeters>
            <DistanceMeters>NAN</DistanceMeters>
          </Trackpoint>
          <Trackpoint>
            <Time>2022-09-24T16:08:55.000Z</Time>
            <Position>
              <LatitudeDegrees>43.38184366934001445770263671875</LatitudeDegrees>
              <LongitudeDegrees>-2.874655835330486297607421875</LongitudeDegrees>
            </Position>
            <AltitudeMeters>-36.59999847412109375</AltitudeMeters>
            <DistanceMeters>NAN</DistanceMeters>
          </Trackpoint>
          <Trackpoint>
            <Time>2022-09-24T16:08:56.000Z</Time>
            <Position>
              <LatitudeDegrees>43.38186495937407016754150390625</LatitudeDegrees>
              <LongitudeDegrees>-2.874733619391918182373046875</LongitudeDegrees>
            </Position>
            <AltitudeMeters>-36.200000762939453125</AltitudeMeters>
            <DistanceMeters>NAN</DistanceMeters>
          </Trackpoint>
          <Trackpoint>
            <Time>2022-09-24T16:08:57.000Z</Time>
            <Position>
              <LatitudeDegrees>43.3818942122161388397216796875</LatitudeDegrees>
              <LongitudeDegrees>-2.8748279996216297149658203125</LongitudeDegrees>
            </Position>
            <AltitudeMeters>-36.200000762939453125</AltitudeMeters>
            <DistanceMeters>NAN</DistanceMeters>
          </Trackpoint>
          <Trackpoint>
            <Time>2022-09-24T16:08:58.000Z</Time>
            <Position>
              <LatitudeDegrees>43.3819213695824146270751953125</LatitudeDegrees>
              <LongitudeDegrees>-2.87490435875952243804931640625</LongitudeDegrees>
            </Position>
            <AltitudeMeters>-36.40000152587890625</AltitudeMeters>
            <DistanceMeters>NAN</DistanceMeters>
          </Trackpoint>
          <Trackpoint>
            <Time>2022-09-24T16:08:59.000Z</Time>
            <Position>
              <LatitudeDegrees>43.381949365139007568359375</LatitudeDegrees>
              <LongitudeDegrees>-2.8749792091548442840576171875</LongitudeDegrees>
            </Position>
            <AltitudeMeters>-36.59999847412109375</AltitudeMeters>
            <DistanceMeters>NAN</DistanceMeters>
          </Trackpoint>
          <Trackpoint>
            <Time>2022-09-24T16:09:00.000Z</Time>
            <Position>
              <LatitudeDegrees>43.38197828270494937896728515625</LatitudeDegrees>
              <LongitudeDegrees>-2.8750492818653583526611328125</LongitudeDegrees>
            </Position>
            <AltitudeMeters>-36.799999237060546875</AltitudeMeters>
            <DistanceMeters>NAN</DistanceMeters>
          </Trackpoint>
          <Trackpoint>
            <Time>2022-09-24T16:09:01.000Z</Time>
            <Position>
              <LatitudeDegrees>43.38201046921312808990478515625</LatitudeDegrees>
              <LongitudeDegrees>-2.8751176781952381134033203125</LongitudeDegrees>
            </Position>
            <AltitudeMeters>-36.40000152587890625</AltitudeMeters>
            <DistanceMeters>NAN</DistanceMeters>
          </Trackpoint>
          <Trackpoint>
            <Time>2022-09-24T16:09:02.000Z</Time>
            <Position>
              <LatitudeDegrees>43.38204382918775081634521484375</LatitudeDegrees>
              <LongitudeDegrees>-2.875182889401912689208984375</LongitudeDegrees>
            </Position>
            <AltitudeMeters>-36.40000152587890625</AltitudeMeters>
            <DistanceMeters>NAN</DistanceMeters>
          </Trackpoint>
          <Trackpoint>
            <Time>2022-09-24T16:09:03.000Z</Time>
            <Position>
              <LatitudeDegrees>43.3820722438395023345947265625</LatitudeDegrees>
              <LongitudeDegrees>-2.87525053136050701141357421875</LongitudeDegrees>
            </Position>
            <AltitudeMeters>-36.799999237060546875</AltitudeMeters>
            <DistanceMeters>NAN</DistanceMeters>
          </Trackpoint>
          <Trackpoint>
            <Time>2022-09-24T16:09:04.000Z</Time>
            <Position>
              <LatitudeDegrees>43.38210132904350757598876953125</LatitudeDegrees>
              <LongitudeDegrees>-2.87531255744397640228271484375</LongitudeDegrees>
            </Position>
            <AltitudeMeters>-36.799999237060546875</AltitudeMeters>
            <DistanceMeters>NAN</DistanceMeters>
          </Trackpoint>
          <Trackpoint>
            <Time>2022-09-24T16:09:05.000Z</Time>
            <Position>
              <LatitudeDegrees>43.38212697766721248626708984375</LatitudeDegrees>
              <LongitudeDegrees>-2.87535823881626129150390625</LongitudeDegrees>
            </Position>
            <AltitudeMeters>-36.40000152587890625</AltitudeMeters>
            <DistanceMeters>NAN</DistanceMeters>
          </Trackpoint>
          <Trackpoint>
            <Time>2022-09-24T16:09:06.000Z</Time>
            <Position>
              <LatitudeDegrees>43.3821701444685459136962890625</LatitudeDegrees>
              <LongitudeDegrees>-2.87542604841291904449462890625</LongitudeDegrees>
            </Position>
            <AltitudeMeters>-36.200000762939453125</AltitudeMeters>
            <DistanceMeters>NAN</DistanceMeters>
          </Trackpoint>
          <Trackpoint>
            <Time>2022-09-24T16:09:07.000Z</Time>
            <Position>
              <LatitudeDegrees>43.382207192480564117431640625</LatitudeDegrees>
              <LongitudeDegrees>-2.87548388354480266571044921875</LongitudeDegrees>
            </Position>
            <AltitudeMeters>-36.200000762939453125</AltitudeMeters>
            <DistanceMeters>NAN</DistanceMeters>
          </Trackpoint>
          <Trackpoint>
            <Time>2022-09-24T16:09:08.000Z</Time>
            <Position>
              <LatitudeDegrees>43.38224382139742374420166015625</LatitudeDegrees>
              <LongitudeDegrees>-2.87553886882960796356201171875</LongitudeDegrees>
            </Position>
            <AltitudeMeters>-36</AltitudeMeters>
            <DistanceMeters>NAN</DistanceMeters>
          </Trackpoint>
          <Trackpoint>
            <Time>2022-09-24T16:09:09.000Z</Time>
            <Position>
              <LatitudeDegrees>43.38227382861077785491943359375</LatitudeDegrees>
              <LongitudeDegrees>-2.87557675503194332122802734375</LongitudeDegrees>
            </Position>
            <AltitudeMeters>-36</AltitudeMeters>
            <DistanceMeters>NAN</DistanceMeters>
          </Trackpoint>
          <Trackpoint>
            <Time>2022-09-24T16:09:10.000Z</Time>
            <Position>
              <LatitudeDegrees>43.3823102898895740509033203125</LatitudeDegrees>
              <LongitudeDegrees>-2.87562939338386058807373046875</LongitudeDegrees>
            </Position>
            <AltitudeMeters>-35.799999237060546875</AltitudeMeters>
            <DistanceMeters>NAN</DistanceMeters>
          </Trackpoint>
          <Trackpoint>
            <Time>2022-09-24T16:09:11.000Z</Time>
            <Position>
              <LatitudeDegrees>43.38235446251928806304931640625</LatitudeDegrees>
              <LongitudeDegrees>-2.8756926767528057098388671875</LongitudeDegrees>
            </Position>
            <AltitudeMeters>-35.799999237060546875</AltitudeMeters>
            <DistanceMeters>NAN</DistanceMeters>
          </Trackpoint>
          <Trackpoint>
            <Time>2022-09-24T16:09:12.000Z</Time>
            <Position>
              <LatitudeDegrees>43.38239318691194057464599609375</LatitudeDegrees>
              <LongitudeDegrees>-2.87574422545731067657470703125</LongitudeDegrees>
            </Position>
            <AltitudeMeters>-35.40000152587890625</AltitudeMeters>
            <DistanceMeters>NAN</DistanceMeters>
          </Trackpoint>
          <Trackpoint>
            <Time>2022-09-24T16:09:13.000Z</Time>
            <Position>
              <LatitudeDegrees>43.3824323303997516632080078125</LatitudeDegrees>
              <LongitudeDegrees>-2.87579837255179882049560546875</LongitudeDegrees>
            </Position>
            <AltitudeMeters>-34.799999237060546875</AltitudeMeters>
            <DistanceMeters>NAN</DistanceMeters>
          </Trackpoint>
          <Trackpoint>
            <Time>2022-09-24T16:09:14.000Z</Time>
            <Position>
              <LatitudeDegrees>43.3824625052511692047119140625</LatitudeDegrees>
              <LongitudeDegrees>-2.87584128789603710174560546875</LongitudeDegrees>
            </Position>
            <AltitudeMeters>-34.40000152587890625</AltitudeMeters>
            <DistanceMeters>NAN</DistanceMeters>
          </Trackpoint>
          <Trackpoint>
            <Time>2022-09-24T16:09:15.000Z</Time>
            <Position>
              <LatitudeDegrees>43.3825097791850566864013671875</LatitudeDegrees>
              <LongitudeDegrees>-2.87590566091239452362060546875</LongitudeDegrees>
            </Position>
            <AltitudeMeters>-34.40000152587890625</AltitudeMeters>
            <DistanceMeters>NAN</DistanceMeters>
          </Trackpoint>
          <Trackpoint>
            <Time>2022-09-24T16:09:16.000Z</Time>
            <Position>
              <LatitudeDegrees>43.38254808448255062103271484375</LatitudeDegrees>
              <LongitudeDegrees>-2.87595980800688266754150390625</LongitudeDegrees>
            </Position>
            <AltitudeMeters>-34.40000152587890625</AltitudeMeters>
            <DistanceMeters>NAN</DistanceMeters>
          </Trackpoint>
          <Trackpoint>
            <Time>2022-09-24T16:09:17.000Z</Time>
            <Position>
              <LatitudeDegrees>43.38258697651326656341552734375</LatitudeDegrees>
              <LongitudeDegrees>-2.87601261399686336517333984375</LongitudeDegrees>
            </Position>
            <AltitudeMeters>-34.40000152587890625</AltitudeMeters>
            <DistanceMeters>NAN</DistanceMeters>
          </Trackpoint>
          <Trackpoint>
            <Time>2022-09-24T16:09:18.000Z</Time>
            <Position>
              <LatitudeDegrees>43.3826184086501598358154296875</LatitudeDegrees>
              <LongitudeDegrees>-2.87605502642691135406494140625</LongitudeDegrees>
            </Position>
            <AltitudeMeters>-34.200000762939453125</AltitudeMeters>
            <DistanceMeters>NAN</DistanceMeters>
          </Trackpoint>
          <Trackpoint>
            <Time>2022-09-24T16:09:19.000Z</Time>
            <Position>
              <LatitudeDegrees>43.3826650120317935943603515625</LatitudeDegrees>
              <LongitudeDegrees>-2.87611654959619045257568359375</LongitudeDegrees>
            </Position>
            <AltitudeMeters>-33.799999237060546875</AltitudeMeters>
            <DistanceMeters>NAN</DistanceMeters>
          </Trackpoint>
          <Trackpoint>
            <Time>2022-09-24T16:09:20.000Z</Time>
            <Position>
              <LatitudeDegrees>43.38270549662411212921142578125</LatitudeDegrees>
              <LongitudeDegrees>-2.87616885267198085784912109375</LongitudeDegrees>
            </Position>
            <AltitudeMeters>-33.59999847412109375</AltitudeMeters>
            <DistanceMeters>NAN</DistanceMeters>
          </Trackpoint>
          <Trackpoint>
            <Time>2022-09-24T16:09:21.000Z</Time>
            <Position>
              <LatitudeDegrees>43.382746316492557525634765625</LatitudeDegrees>
              <LongitudeDegrees>-2.8762143664062023162841796875</LongitudeDegrees>
            </Position>
            <AltitudeMeters>-33.59999847412109375</AltitudeMeters>
            <DistanceMeters>NAN</DistanceMeters>
          </Trackpoint>
          <Trackpoint>
            <Time>2022-09-24T16:09:22.000Z</Time>
            <Position>
              <LatitudeDegrees>43.38278998620808124542236328125</LatitudeDegrees>
              <LongitudeDegrees>-2.8762623108923435211181640625</LongitudeDegrees>
            </Position>
            <AltitudeMeters>-33.40000152587890625</AltitudeMeters>
            <DistanceMeters>NAN</DistanceMeters>
          </Trackpoint>
          <Trackpoint>
            <Time>2022-09-24T16:09:23.000Z</Time>
            <Position>
              <LatitudeDegrees>43.38282451964914798736572265625</LatitudeDegrees>
              <LongitudeDegrees>-2.876298017799854278564453125</LongitudeDegrees>
            </Position>
            <AltitudeMeters>-33.40000152587890625</AltitudeMeters>
            <DistanceMeters>NAN</DistanceMeters>
          </Trackpoint>
          <Trackpoint>
            <Time>2022-09-24T16:09:24.000Z</Time>
            <Position>
              <LatitudeDegrees>43.38287430815398693084716796875</LatitudeDegrees>
              <LongitudeDegrees>-2.87635744549334049224853515625</LongitudeDegrees>
            </Position>
            <AltitudeMeters>-33.200000762939453125</AltitudeMeters>
            <DistanceMeters>NAN</DistanceMeters>
          </Trackpoint>
          <Trackpoint>
            <Time>2022-09-24T16:09:25.000Z</Time>
            <Position>
              <LatitudeDegrees>43.38291504420340061187744140625</LatitudeDegrees>
              <LongitudeDegrees>-2.87640807218849658966064453125</LongitudeDegrees>
            </Position>
            <AltitudeMeters>-33.200000762939453125</AltitudeMeters>
            <DistanceMeters>NAN</DistanceMeters>
          </Trackpoint>
          <Trackpoint>
            <Time>2022-09-24T16:09:26.000Z</Time>
            <Position>
              <LatitudeDegrees>43.3829550258815288543701171875</LatitudeDegrees>
              <LongitudeDegrees>-2.87645903415977954864501953125</LongitudeDegrees>
            </Position>
            <AltitudeMeters>-33.200000762939453125</AltitudeMeters>
            <DistanceMeters>NAN</DistanceMeters>
          </Trackpoint>
          <Trackpoint>
            <Time>2022-09-24T16:09:27.000Z</Time>
            <Position>
              <LatitudeDegrees>43.38299400173127651214599609375</LatitudeDegrees>
              <LongitudeDegrees>-2.87651016376912593841552734375</LongitudeDegrees>
            </Position>
            <AltitudeMeters>-33.200000762939453125</AltitudeMeters>
            <DistanceMeters>NAN</DistanceMeters>
          </Trackpoint>
          <Trackpoint>
            <Time>2022-09-24T16:09:28.000Z</Time>
            <Position>
              <LatitudeDegrees>43.3830249309539794921875</LatitudeDegrees>
              <LongitudeDegrees>-2.87655224092304706573486328125</LongitudeDegrees>
            </Position>
            <AltitudeMeters>-33.200000762939453125</AltitudeMeters>
            <DistanceMeters>NAN</DistanceMeters>
          </Trackpoint>
          <Trackpoint>
            <Time>2022-09-24T16:09:29.000Z</Time>
            <Position>
              <LatitudeDegrees>43.38307446800172328948974609375</LatitudeDegrees>
              <LongitudeDegrees>-2.87661460228264331817626953125</LongitudeDegrees>
            </Position>
            <AltitudeMeters>-33</AltitudeMeters>
            <DistanceMeters>NAN</DistanceMeters>
          </Trackpoint>
          <Trackpoint>
            <Time>2022-09-24T16:09:30.000Z</Time>
            <Position>
              <LatitudeDegrees>43.3831172995269298553466796875</LatitudeDegrees>
              <LongitudeDegrees>-2.87666791118681430816650390625</LongitudeDegrees>
            </Position>
            <AltitudeMeters>-33</AltitudeMeters>
            <DistanceMeters>NAN</DistanceMeters>
          </Trackpoint>
          <Trackpoint>
            <Time>2022-09-24T16:09:31.000Z</Time>
            <Position>
              <LatitudeDegrees>43.383160717785358428955078125</LatitudeDegrees>
              <LongitudeDegrees>-2.87672021426260471343994140625</LongitudeDegrees>
            </Position>
            <AltitudeMeters>-33.200000762939453125</AltitudeMeters>
            <DistanceMeters>NAN</DistanceMeters>
          </Trackpoint>
          <Trackpoint>
            <Time>2022-09-24T16:09:32.000Z</Time>
            <Position>
              <LatitudeDegrees>43.3831925690174102783203125</LatitudeDegrees>
              <LongitudeDegrees>-2.8767645545303821563720703125</LongitudeDegrees>
            </Position>
            <AltitudeMeters>-33.200000762939453125</AltitudeMeters>
            <DistanceMeters>NAN</DistanceMeters>
          </Trackpoint>
          <Trackpoint>
            <Time>2022-09-24T16:09:33.000Z</Time>
            <Position>
              <LatitudeDegrees>43.38324562646448612213134765625</LatitudeDegrees>
              <LongitudeDegrees>-2.87682901136577129364013671875</LongitudeDegrees>
            </Position>
            <AltitudeMeters>-33.200000762939453125</AltitudeMeters>
            <DistanceMeters>NAN</DistanceMeters>
          </Trackpoint>
          <Trackpoint>
            <Time>2022-09-24T16:09:34.000Z</Time>
            <Position>
              <LatitudeDegrees>43.38329189456999301910400390625</LatitudeDegrees>
              <LongitudeDegrees>-2.87687980569899082183837890625</LongitudeDegrees>
            </Position>
            <AltitudeMeters>-33.200000762939453125</AltitudeMeters>
            <DistanceMeters>NAN</DistanceMeters>
          </Trackpoint>
          <Trackpoint>
            <Time>2022-09-24T16:09:35.000Z</Time>
            <Position>
              <LatitudeDegrees>43.38334168307483196258544921875</LatitudeDegrees>
              <LongitudeDegrees>-2.87692196667194366455078125</LongitudeDegrees>
            </Position>
            <AltitudeMeters>-33.200000762939453125</AltitudeMeters>
            <DistanceMeters>NAN</DistanceMeters>
          </Trackpoint>
          <Trackpoint>
            <Time>2022-09-24T16:09:36.000Z</Time>
            <Position>
              <LatitudeDegrees>43.38338367640972137451171875</LatitudeDegrees>
              <LongitudeDegrees>-2.876952476799488067626953125</LongitudeDegrees>
            </Position>
            <AltitudeMeters>-33.200000762939453125</AltitudeMeters>
            <DistanceMeters>NAN</DistanceMeters>
          </Trackpoint>
          <Trackpoint>
            <Time>2022-09-24T16:09:37.000Z</Time>
            <Position>
              <LatitudeDegrees>43.38343706913292407989501953125</LatitudeDegrees>
              <LongitudeDegrees>-2.876988351345062255859375</LongitudeDegrees>
            </Position>
            <AltitudeMeters>-33.200000762939453125</AltitudeMeters>
            <DistanceMeters>NAN</DistanceMeters>
          </Trackpoint>
          <Trackpoint>
            <Time>2022-09-24T16:09:38.000Z</Time>
            <Position>
              <LatitudeDegrees>43.38349289260804653167724609375</LatitudeDegrees>
              <LongitudeDegrees>-2.87701584398746490478515625</LongitudeDegrees>
            </Position>
            <AltitudeMeters>-33.200000762939453125</AltitudeMeters>
            <DistanceMeters>NAN</DistanceMeters>
          </Trackpoint>
          <Trackpoint>
            <Time>2022-09-24T16:09:39.000Z</Time>
            <Position>
              <LatitudeDegrees>43.38355743326246738433837890625</LatitudeDegrees>
              <LongitudeDegrees>-2.8770438395440578460693359375</LongitudeDegrees>
            </Position>
            <AltitudeMeters>-33</AltitudeMeters>
            <DistanceMeters>NAN</DistanceMeters>
          </Trackpoint>
          <Trackpoint>
            <Time>2022-09-24T16:09:40.000Z</Time>
            <Position>
              <LatitudeDegrees>43.38361275382339954376220703125</LatitudeDegrees>
              <LongitudeDegrees>-2.87706605158746242523193359375</LongitudeDegrees>
            </Position>
            <AltitudeMeters>-32.59999847412109375</AltitudeMeters>
            <DistanceMeters>NAN</DistanceMeters>
          </Trackpoint>
          <Trackpoint>
            <Time>2022-09-24T16:09:41.000Z</Time>
            <Position>
              <LatitudeDegrees>43.38365499861538410186767578125</LatitudeDegrees>
              <LongitudeDegrees>-2.8770897723734378814697265625</LongitudeDegrees>
            </Position>
            <AltitudeMeters>-33</AltitudeMeters>
            <DistanceMeters>NAN</DistanceMeters>
          </Trackpoint>
          <Trackpoint>
            <Time>2022-09-24T16:09:42.000Z</Time>
            <Position>
              <LatitudeDegrees>43.3837048709392547607421875</LatitudeDegrees>
              <LongitudeDegrees>-2.877127490937709808349609375</LongitudeDegrees>
            </Position>
            <AltitudeMeters>-32.40000152587890625</AltitudeMeters>
            <DistanceMeters>NAN</DistanceMeters>
          </Trackpoint>
          <Trackpoint>
            <Time>2022-09-24T16:09:43.000Z</Time>
            <Position>
              <LatitudeDegrees>43.38375021703541278839111328125</LatitudeDegrees>
              <LongitudeDegrees>-2.8771801292896270751953125</LongitudeDegrees>
            </Position>
            <AltitudeMeters>-32.40000152587890625</AltitudeMeters>
            <DistanceMeters>NAN</DistanceMeters>
          </Trackpoint>
          <Trackpoint>
            <Time>2022-09-24T16:09:44.000Z</Time>
            <Position>
              <LatitudeDegrees>43.383787013590335845947265625</LatitudeDegrees>
              <LongitudeDegrees>-2.87724223919212818145751953125</LongitudeDegrees>
            </Position>
            <AltitudeMeters>-33</AltitudeMeters>
            <DistanceMeters>NAN</DistanceMeters>
          </Trackpoint>
          <Trackpoint>
            <Time>2022-09-24T16:09:45.000Z</Time>
            <Position>
              <LatitudeDegrees>43.38381291367113590240478515625</LatitudeDegrees>
              <LongitudeDegrees>-2.87731683813035488128662109375</LongitudeDegrees>
            </Position>
            <AltitudeMeters>-32.799999237060546875</AltitudeMeters>
            <DistanceMeters>NAN</DistanceMeters>
          </Trackpoint>
          <Trackpoint>
            <Time>2022-09-24T16:09:46.000Z</Time>
            <Position>
              <LatitudeDegrees>43.38381291367113590240478515625</LatitudeDegrees>
              <LongitudeDegrees>-2.87731683813035488128662109375</LongitudeDegrees>
            </Position>
            <AltitudeMeters>-32.799999237060546875</AltitudeMeters>
            <DistanceMeters>NAN</DistanceMeters>
          </Trackpoint>
          <Trackpoint>
            <Time>2022-09-24T16:09:47.000Z</Time>
            <Position>
              <LatitudeDegrees>43.3838202059268951416015625</LatitudeDegrees>
              <LongitudeDegrees>-2.877473495900630950927734375</LongitudeDegrees>
            </Position>
            <AltitudeMeters>-33</AltitudeMeters>
            <DistanceMeters>NAN</DistanceMeters>
          </Trackpoint>
          <Trackpoint>
            <Time>2022-09-24T16:09:48.000Z</Time>
            <Position>
              <LatitudeDegrees>43.38379112072288990020751953125</LatitudeDegrees>
              <LongitudeDegrees>-2.87754331715404987335205078125</LongitudeDegrees>
            </Position>
            <AltitudeMeters>-32.799999237060546875</AltitudeMeters>
            <DistanceMeters>NAN</DistanceMeters>
          </Trackpoint>
          <Trackpoint>
            <Time>2022-09-24T16:09:49.000Z</Time>
            <Position>
              <LatitudeDegrees>43.38379112072288990020751953125</LatitudeDegrees>
              <LongitudeDegrees>-2.87754331715404987335205078125</LongitudeDegrees>
            </Position>
            <AltitudeMeters>-32.799999237060546875</AltitudeMeters>
            <DistanceMeters>NAN</DistanceMeters>
          </Trackpoint>
          <Trackpoint>
            <Time>2022-09-24T16:09:50.000Z</Time>
            <Position>
              <LatitudeDegrees>43.3836819045245647430419921875</LatitudeDegrees>
              <LongitudeDegrees>-2.87762026302516460418701171875</LongitudeDegrees>
            </Position>
            <AltitudeMeters>-32.799999237060546875</AltitudeMeters>
            <DistanceMeters>NAN</DistanceMeters>
          </Trackpoint>
          <Trackpoint>
            <Time>2022-09-24T16:09:51.000Z</Time>
            <Position>
              <LatitudeDegrees>43.38361660949885845184326171875</LatitudeDegrees>
              <LongitudeDegrees>-2.877631746232509613037109375</LongitudeDegrees>
            </Position>
            <AltitudeMeters>-32.59999847412109375</AltitudeMeters>
            <DistanceMeters>NAN</DistanceMeters>
          </Trackpoint>
          <Trackpoint>
            <Time>2022-09-24T16:09:52.000Z</Time>
            <Position>
              <LatitudeDegrees>43.38361660949885845184326171875</LatitudeDegrees>
              <LongitudeDegrees>-2.877631746232509613037109375</LongitudeDegrees>
            </Position>
            <AltitudeMeters>-32.59999847412109375</AltitudeMeters>
            <DistanceMeters>NAN</DistanceMeters>
          </Trackpoint>
          <Trackpoint>
            <Time>2022-09-24T16:09:53.000Z</Time>
            <Position>
              <LatitudeDegrees>43.38348484598100185394287109375</LatitudeDegrees>
              <LongitudeDegrees>-2.8776684589684009552001953125</LongitudeDegrees>
            </Position>
            <AltitudeMeters>-32.799999237060546875</AltitudeMeters>
            <DistanceMeters>NAN</DistanceMeters>
          </Trackpoint>
          <Trackpoint>
            <Time>2022-09-24T16:09:54.000Z</Time>
            <Position>
              <LatitudeDegrees>43.38341678492724895477294921875</LatitudeDegrees>
              <LongitudeDegrees>-2.8777003102004528045654296875</LongitudeDegrees>
            </Position>
            <AltitudeMeters>-32.799999237060546875</AltitudeMeters>
            <DistanceMeters>NAN</DistanceMeters>
          </Trackpoint>
          <Trackpoint>
            <Time>2022-09-24T16:09:55.000Z</Time>
            <Position>
              <LatitudeDegrees>43.38341678492724895477294921875</LatitudeDegrees>
              <LongitudeDegrees>-2.8777003102004528045654296875</LongitudeDegrees>
            </Position>
            <AltitudeMeters>-33.59999847412109375</AltitudeMeters>
            <DistanceMeters>NAN</DistanceMeters>
          </Trackpoint>
          <Trackpoint>
            <Time>2022-09-24T16:09:56.000Z</Time>
            <Position>
              <LatitudeDegrees>43.38327546603977680206298828125</LatitudeDegrees>
              <LongitudeDegrees>-2.877809107303619384765625</LongitudeDegrees>
            </Position>
            <AltitudeMeters>-33.59999847412109375</AltitudeMeters>
            <DistanceMeters>NAN</DistanceMeters>
          </Trackpoint>
          <Trackpoint>
            <Time>2022-09-24T16:09:57.000Z</Time>
            <Position>
              <LatitudeDegrees>43.3832014538347721099853515625</LatitudeDegrees>
              <LongitudeDegrees>-2.87787691690027713775634765625</LongitudeDegrees>
            </Position>
            <AltitudeMeters>-34.59999847412109375</AltitudeMeters>
            <DistanceMeters>NAN</DistanceMeters>
          </Trackpoint>
          <Trackpoint>
            <Time>2022-09-24T16:09:58.000Z</Time>
            <Position>
              <LatitudeDegrees>43.3831250108778476715087890625</LatitudeDegrees>
              <LongitudeDegrees>-2.877949588000774383544921875</LongitudeDegrees>
            </Position>
            <AltitudeMeters>-35.200000762939453125</AltitudeMeters>
            <DistanceMeters>NAN</DistanceMeters>
          </Trackpoint>
          <Trackpoint>
            <Time>2022-09-24T16:09:59.000Z</Time>
            <Position>
              <LatitudeDegrees>43.38304680772125720977783203125</LatitudeDegrees>
              <LongitudeDegrees>-2.878025360405445098876953125</LongitudeDegrees>
            </Position>
            <AltitudeMeters>-36.40000152587890625</AltitudeMeters>
            <DistanceMeters>NAN</DistanceMeters>
          </Trackpoint>
          <Trackpoint>
            <Time>2022-09-24T16:10:00.000Z</Time>
            <Position>
              <LatitudeDegrees>43.3829701133072376251220703125</LatitudeDegrees>
              <LongitudeDegrees>-2.87810255773365497589111328125</LongitudeDegrees>
            </Position>
            <AltitudeMeters>-36.799999237060546875</AltitudeMeters>
            <DistanceMeters>NAN</DistanceMeters>
          </Trackpoint>
          <Trackpoint>
            <Time>2022-09-24T16:10:01.000Z</Time>
            <Position>
              <LatitudeDegrees>43.38288939557969570159912109375</LatitudeDegrees>
              <LongitudeDegrees>-2.878174893558025360107421875</LongitudeDegrees>
            </Position>
            <AltitudeMeters>-37</AltitudeMeters>
            <DistanceMeters>NAN</DistanceMeters>
          </Trackpoint>
          <Trackpoint>
            <Time>2022-09-24T16:10:02.000Z</Time>
            <Position>
              <LatitudeDegrees>43.38280574418604373931884765625</LatitudeDegrees>
              <LongitudeDegrees>-2.8782474808394908905029296875</LongitudeDegrees>
            </Position>
            <AltitudeMeters>-37</AltitudeMeters>
            <DistanceMeters>NAN</DistanceMeters>
          </Trackpoint>
          <Trackpoint>
            <Time>2022-09-24T16:10:03.000Z</Time>
            <Position>
              <LatitudeDegrees>43.3827231824398040771484375</LatitudeDegrees>
              <LongitudeDegrees>-2.8783215768635272979736328125</LongitudeDegrees>
            </Position>
            <AltitudeMeters>-37.40000152587890625</AltitudeMeters>
            <DistanceMeters>NAN</DistanceMeters>
          </Trackpoint>
          <Trackpoint>
            <Time>2022-09-24T16:10:04.000Z</Time>
            <Position>
              <LatitudeDegrees>43.38264564983546733856201171875</LatitudeDegrees>
              <LongitudeDegrees>-2.87839357741177082061767578125</LongitudeDegrees>
            </Position>
            <AltitudeMeters>-37.59999847412109375</AltitudeMeters>
            <DistanceMeters>NAN</DistanceMeters>
          </Trackpoint>
          <Trackpoint>
            <Time>2022-09-24T16:10:05.000Z</Time>
            <Position>
              <LatitudeDegrees>43.38257138617336750030517578125</LatitudeDegrees>
              <LongitudeDegrees>-2.8784660808742046356201171875</LongitudeDegrees>
            </Position>
            <AltitudeMeters>-37.799999237060546875</AltitudeMeters>
            <DistanceMeters>NAN</DistanceMeters>
          </Trackpoint>
          <Trackpoint>
            <Time>2022-09-24T16:10:06.000Z</Time>
            <Position>
              <LatitudeDegrees>43.38249988853931427001953125</LatitudeDegrees>
              <LongitudeDegrees>-2.87853925488889217376708984375</LongitudeDegrees>
            </Position>
            <AltitudeMeters>-38.200000762939453125</AltitudeMeters>
            <DistanceMeters>NAN</DistanceMeters>
          </Trackpoint>
          <Trackpoint>
            <Time>2022-09-24T16:10:07.000Z</Time>
            <Position>
              <LatitudeDegrees>43.38243023492395877838134765625</LatitudeDegrees>
              <LongitudeDegrees>-2.87861519493162631988525390625</LongitudeDegrees>
            </Position>
            <AltitudeMeters>-39.200000762939453125</AltitudeMeters>
            <DistanceMeters>NAN</DistanceMeters>
          </Trackpoint>
          <Trackpoint>
            <Time>2022-09-24T16:10:08.000Z</Time>
            <Position>
              <LatitudeDegrees>43.382364101707935333251953125</LatitudeDegrees>
              <LongitudeDegrees>-2.878692559897899627685546875</LongitudeDegrees>
            </Position>
            <AltitudeMeters>-39.200000762939453125</AltitudeMeters>
            <DistanceMeters>NAN</DistanceMeters>
          </Trackpoint>
          <Trackpoint>
            <Time>2022-09-24T16:10:09.000Z</Time>
            <Position>
              <LatitudeDegrees>43.382364101707935333251953125</LatitudeDegrees>
              <LongitudeDegrees>-2.878692559897899627685546875</LongitudeDegrees>
            </Position>
            <AltitudeMeters>-39.200000762939453125</AltitudeMeters>
            <DistanceMeters>NAN</DistanceMeters>
          </Trackpoint>
          <Trackpoint>
            <Time>2022-09-24T16:10:10.000Z</Time>
            <Position>
              <LatitudeDegrees>43.38224147446453571319580078125</LatitudeDegrees>
              <LongitudeDegrees>-2.878836728632450103759765625</LongitudeDegrees>
            </Position>
            <AltitudeMeters>-37.799999237060546875</AltitudeMeters>
            <DistanceMeters>NAN</DistanceMeters>
          </Trackpoint>
          <Trackpoint>
            <Time>2022-09-24T16:10:11.000Z</Time>
            <Position>
              <LatitudeDegrees>43.3821848966181278228759765625</LatitudeDegrees>
              <LongitudeDegrees>-2.8789153508841991424560546875</LongitudeDegrees>
            </Position>
            <AltitudeMeters>-37.799999237060546875</AltitudeMeters>
            <DistanceMeters>NAN</DistanceMeters>
          </Trackpoint>
          <Trackpoint>
            <Time>2022-09-24T16:10:12.000Z</Time>
            <Position>
              <LatitudeDegrees>43.38213468901813030242919921875</LatitudeDegrees>
              <LongitudeDegrees>-2.878996990621089935302734375</LongitudeDegrees>
            </Position>
            <AltitudeMeters>-37.59999847412109375</AltitudeMeters>
            <DistanceMeters>NAN</DistanceMeters>
          </Trackpoint>
          <Trackpoint>
            <Time>2022-09-24T16:10:13.000Z</Time>
            <Position>
              <LatitudeDegrees>43.3820821344852447509765625</LatitudeDegrees>
              <LongitudeDegrees>-2.879083156585693359375</LongitudeDegrees>
            </Position>
            <AltitudeMeters>-37.59999847412109375</AltitudeMeters>
            <DistanceMeters>NAN</DistanceMeters>
          </Trackpoint>
          <Trackpoint>
            <Time>2022-09-24T16:10:14.000Z</Time>
            <Position>
              <LatitudeDegrees>43.3820365369319915771484375</LatitudeDegrees>
              <LongitudeDegrees>-2.87916270084679126739501953125</LongitudeDegrees>
            </Position>
            <AltitudeMeters>-37.59999847412109375</AltitudeMeters>
            <DistanceMeters>NAN</DistanceMeters>
          </Trackpoint>
          <Trackpoint>
            <Time>2022-09-24T16:10:15.000Z</Time>
            <Position>
              <LatitudeDegrees>43.38199219666421413421630859375</LatitudeDegrees>
              <LongitudeDegrees>-2.8792432509362697601318359375</LongitudeDegrees>
            </Position>
            <AltitudeMeters>-37.200000762939453125</AltitudeMeters>
            <DistanceMeters>NAN</DistanceMeters>
          </Trackpoint>
          <Trackpoint>
            <Time>2022-09-24T16:10:16.000Z</Time>
            <Position>
              <LatitudeDegrees>43.3819495327770709991455078125</LatitudeDegrees>
              <LongitudeDegrees>-2.87932279519736766815185546875</LongitudeDegrees>
            </Position>
            <AltitudeMeters>-37.200000762939453125</AltitudeMeters>
            <DistanceMeters>NAN</DistanceMeters>
          </Trackpoint>
          <Trackpoint>
            <Time>2022-09-24T16:10:17.000Z</Time>
            <Position>
              <LatitudeDegrees>43.3819062821567058563232421875</LatitudeDegrees>
              <LongitudeDegrees>-2.87939789704978466033935546875</LongitudeDegrees>
            </Position>
            <AltitudeMeters>-37.200000762939453125</AltitudeMeters>
            <DistanceMeters>NAN</DistanceMeters>
          </Trackpoint>
          <Trackpoint>
            <Time>2022-09-24T16:10:18.000Z</Time>
            <Position>
              <LatitudeDegrees>43.38186428882181644439697265625</LatitudeDegrees>
              <LongitudeDegrees>-2.8794722445309162139892578125</LongitudeDegrees>
            </Position>
            <AltitudeMeters>-37</AltitudeMeters>
            <DistanceMeters>NAN</DistanceMeters>
          </Trackpoint>
          <Trackpoint>
            <Time>2022-09-24T16:10:19.000Z</Time>
            <Position>
              <LatitudeDegrees>43.3818211220204830169677734375</LatitudeDegrees>
              <LongitudeDegrees>-2.87954307161271572113037109375</LongitudeDegrees>
            </Position>
            <AltitudeMeters>-37.200000762939453125</AltitudeMeters>
            <DistanceMeters>NAN</DistanceMeters>
          </Trackpoint>
          <Trackpoint>
            <Time>2022-09-24T16:10:20.000Z</Time>
            <Position>
              <LatitudeDegrees>43.381778709590435028076171875</LatitudeDegrees>
              <LongitudeDegrees>-2.87961297668516635894775390625</LongitudeDegrees>
            </Position>
            <AltitudeMeters>-37</AltitudeMeters>
            <DistanceMeters>NAN</DistanceMeters>
          </Trackpoint>
          <Trackpoint>
            <Time>2022-09-24T16:10:21.000Z</Time>
            <Position>
              <LatitudeDegrees>43.38174090720713138580322265625</LatitudeDegrees>
              <LongitudeDegrees>-2.8796854801476001739501953125</LongitudeDegrees>
            </Position>
            <AltitudeMeters>-36.40000152587890625</AltitudeMeters>
            <DistanceMeters>NAN</DistanceMeters>
          </Trackpoint>
          <Trackpoint>
            <Time>2022-09-24T16:10:22.000Z</Time>
            <Position>
              <LatitudeDegrees>43.3817039430141448974609375</LatitudeDegrees>
              <LongitudeDegrees>-2.87975463084876537322998046875</LongitudeDegrees>
            </Position>
            <AltitudeMeters>-36.799999237060546875</AltitudeMeters>
            <DistanceMeters>NAN</DistanceMeters>
          </Trackpoint>
          <Trackpoint>
            <Time>2022-09-24T16:10:23.000Z</Time>
            <Position>
              <LatitudeDegrees>43.3817039430141448974609375</LatitudeDegrees>
              <LongitudeDegrees>-2.87975463084876537322998046875</LongitudeDegrees>
            </Position>
            <AltitudeMeters>-36.799999237060546875</AltitudeMeters>
            <DistanceMeters>NAN</DistanceMeters>
          </Trackpoint>
          <Trackpoint>
            <Time>2022-09-24T16:10:24.000Z</Time>
            <Position>
              <LatitudeDegrees>43.3816293440759181976318359375</LatitudeDegrees>
              <LongitudeDegrees>-2.87989293225109577178955078125</LongitudeDegrees>
            </Position>
            <AltitudeMeters>-36.40000152587890625</AltitudeMeters>
            <DistanceMeters>NAN</DistanceMeters>
          </Trackpoint>
          <Trackpoint>
            <Time>2022-09-24T16:10:25.000Z</Time>
            <Position>
              <LatitudeDegrees>43.3815907873213291168212890625</LatitudeDegrees>
              <LongitudeDegrees>-2.87995747290551662445068359375</LongitudeDegrees>
            </Position>
            <AltitudeMeters>-35.59999847412109375</AltitudeMeters>
            <DistanceMeters>NAN</DistanceMeters>
          </Trackpoint>
          <Trackpoint>
            <Time>2022-09-24T16:10:26.000Z</Time>
            <Position>
              <LatitudeDegrees>43.3815535716712474822998046875</LatitudeDegrees>
              <LongitudeDegrees>-2.8800251148641109466552734375</LongitudeDegrees>
            </Position>
            <AltitudeMeters>-35.59999847412109375</AltitudeMeters>
            <DistanceMeters>NAN</DistanceMeters>
          </Trackpoint>
          <Trackpoint>
            <Time>2022-09-24T16:10:27.000Z</Time>
            <Position>
              <LatitudeDegrees>43.381517194211483001708984375</LatitudeDegrees>
              <LongitudeDegrees>-2.88009074516594409942626953125</LongitudeDegrees>
            </Position>
            <AltitudeMeters>-35.40000152587890625</AltitudeMeters>
            <DistanceMeters>NAN</DistanceMeters>
          </Trackpoint>
          <Trackpoint>
            <Time>2022-09-24T16:10:28.000Z</Time>
            <Position>
              <LatitudeDegrees>43.38147905655205249786376953125</LatitudeDegrees>
              <LongitudeDegrees>-2.88015411235392093658447265625</LongitudeDegrees>
            </Position>
            <AltitudeMeters>-35.200000762939453125</AltitudeMeters>
            <DistanceMeters>NAN</DistanceMeters>
          </Trackpoint>
          <Trackpoint>
            <Time>2022-09-24T16:10:29.000Z</Time>
            <Position>
              <LatitudeDegrees>43.38143899105489253997802734375</LatitudeDegrees>
              <LongitudeDegrees>-2.88021840155124664306640625</LongitudeDegrees>
            </Position>
            <AltitudeMeters>-35.200000762939453125</AltitudeMeters>
            <DistanceMeters>NAN</DistanceMeters>
          </Trackpoint>
          <Trackpoint>
            <Time>2022-09-24T16:10:30.000Z</Time>
            <Position>
              <LatitudeDegrees>43.3813981711864471435546875</LatitudeDegrees>
              <LongitudeDegrees>-2.8802812658250331878662109375</LongitudeDegrees>
            </Position>
            <AltitudeMeters>-35.200000762939453125</AltitudeMeters>
            <DistanceMeters>NAN</DistanceMeters>
          </Trackpoint>
          <Trackpoint>
            <Time>2022-09-24T16:10:31.000Z</Time>
            <Position>
              <LatitudeDegrees>43.38135617785155773162841796875</LatitudeDegrees>
              <LongitudeDegrees>-2.880346477031707763671875</LongitudeDegrees>
            </Position>
            <AltitudeMeters>-35.200000762939453125</AltitudeMeters>
            <DistanceMeters>NAN</DistanceMeters>
          </Trackpoint>
          <Trackpoint>
            <Time>2022-09-24T16:10:32.000Z</Time>
            <Position>
              <LatitudeDegrees>43.381312005221843719482421875</LatitudeDegrees>
              <LongitudeDegrees>-2.880411855876445770263671875</LongitudeDegrees>
            </Position>
            <AltitudeMeters>-35.200000762939453125</AltitudeMeters>
            <DistanceMeters>NAN</DistanceMeters>
          </Trackpoint>
          <Trackpoint>
            <Time>2022-09-24T16:10:33.000Z</Time>
            <Position>
              <LatitudeDegrees>43.38126833550631999969482421875</LatitudeDegrees>
              <LongitudeDegrees>-2.88048000074923038482666015625</LongitudeDegrees>
            </Position>
            <AltitudeMeters>-35.200000762939453125</AltitudeMeters>
            <DistanceMeters>NAN</DistanceMeters>
          </Trackpoint>
          <Trackpoint>
            <Time>2022-09-24T16:10:34.000Z</Time>
            <Position>
              <LatitudeDegrees>43.3812216483056545257568359375</LatitudeDegrees>
              <LongitudeDegrees>-2.88054889999330043792724609375</LongitudeDegrees>
            </Position>
            <AltitudeMeters>-35.200000762939453125</AltitudeMeters>
            <DistanceMeters>NAN</DistanceMeters>
          </Trackpoint>
          <Trackpoint>
            <Time>2022-09-24T16:10:35.000Z</Time>
            <Position>
              <LatitudeDegrees>43.38117026723921298980712890625</LatitudeDegrees>
              <LongitudeDegrees>-2.8806212358176708221435546875</LongitudeDegrees>
            </Position>
            <AltitudeMeters>-35.200000762939453125</AltitudeMeters>
            <DistanceMeters>NAN</DistanceMeters>
          </Trackpoint>
          <Trackpoint>
            <Time>2022-09-24T16:10:36.000Z</Time>
            <Position>
              <LatitudeDegrees>43.38112064637243747711181640625</LatitudeDegrees>
              <LongitudeDegrees>-2.8806980140507221221923828125</LongitudeDegrees>
            </Position>
            <AltitudeMeters>-35.40000152587890625</AltitudeMeters>
            <DistanceMeters>NAN</DistanceMeters>
          </Trackpoint>
          <Trackpoint>
            <Time>2022-09-24T16:10:37.000Z</Time>
            <Position>
              <LatitudeDegrees>43.3810709416866302490234375</LatitudeDegrees>
              <LongitudeDegrees>-2.88077487610280513763427734375</LongitudeDegrees>
            </Position>
            <AltitudeMeters>-36</AltitudeMeters>
            <DistanceMeters>NAN</DistanceMeters>
          </Trackpoint>
          <Trackpoint>
            <Time>2022-09-24T16:10:38.000Z</Time>
            <Position>
              <LatitudeDegrees>43.38102006353437900543212890625</LatitudeDegrees>
              <LongitudeDegrees>-2.88085064850747585296630859375</LongitudeDegrees>
            </Position>
            <AltitudeMeters>-36</AltitudeMeters>
            <DistanceMeters>NAN</DistanceMeters>
          </Trackpoint>
          <Trackpoint>
            <Time>2022-09-24T16:10:39.000Z</Time>
            <Position>
              <LatitudeDegrees>43.3809663355350494384765625</LatitudeDegrees>
              <LongitudeDegrees>-2.880929522216320037841796875</LongitudeDegrees>
            </Position>
            <AltitudeMeters>-36</AltitudeMeters>
            <DistanceMeters>NAN</DistanceMeters>
          </Trackpoint>
          <Trackpoint>
            <Time>2022-09-24T16:10:40.000Z</Time>
            <Position>
              <LatitudeDegrees>43.3809115178883075714111328125</LatitudeDegrees>
              <LongitudeDegrees>-2.88101124577224254608154296875</LongitudeDegrees>
            </Position>
            <AltitudeMeters>-36.59999847412109375</AltitudeMeters>
            <DistanceMeters>NAN</DistanceMeters>
          </Trackpoint>
          <Trackpoint>
            <Time>2022-09-24T16:10:41.000Z</Time>
            <Position>
              <LatitudeDegrees>43.38085510767996311187744140625</LatitudeDegrees>
              <LongitudeDegrees>-2.88109414279460906982421875</LongitudeDegrees>
            </Position>
            <AltitudeMeters>-36.799999237060546875</AltitudeMeters>
            <DistanceMeters>NAN</DistanceMeters>
          </Trackpoint>
          <Trackpoint>
            <Time>2022-09-24T16:10:42.000Z</Time>
            <Position>
              <LatitudeDegrees>43.380797691643238067626953125</LatitudeDegrees>
              <LongitudeDegrees>-2.88117653690278530120849609375</LongitudeDegrees>
            </Position>
            <AltitudeMeters>-36.799999237060546875</AltitudeMeters>
            <DistanceMeters>NAN</DistanceMeters>
          </Trackpoint>
          <Trackpoint>
            <Time>2022-09-24T16:10:43.000Z</Time>
            <Position>
              <LatitudeDegrees>43.3807354979217052459716796875</LatitudeDegrees>
              <LongitudeDegrees>-2.881260104477405548095703125</LongitudeDegrees>
            </Position>
            <AltitudeMeters>-37</AltitudeMeters>
            <DistanceMeters>NAN</DistanceMeters>
          </Trackpoint>
          <Trackpoint>
            <Time>2022-09-24T16:10:44.000Z</Time>
            <Position>
              <LatitudeDegrees>43.3806721307337284088134765625</LatitudeDegrees>
              <LongitudeDegrees>-2.881341241300106048583984375</LongitudeDegrees>
            </Position>
            <AltitudeMeters>-37.40000152587890625</AltitudeMeters>
            <DistanceMeters>NAN</DistanceMeters>
          </Trackpoint>
          <Trackpoint>
            <Time>2022-09-24T16:10:45.000Z</Time>
            <Position>
              <LatitudeDegrees>43.3806114457547664642333984375</LatitudeDegrees>
              <LongitudeDegrees>-2.8814168460667133331298828125</LongitudeDegrees>
            </Position>
            <AltitudeMeters>-37.40000152587890625</AltitudeMeters>
            <DistanceMeters>NAN</DistanceMeters>
          </Trackpoint>
          <Trackpoint>
            <Time>2022-09-24T16:10:46.000Z</Time>
            <Position>
              <LatitudeDegrees>43.38055218569934368133544921875</LatitudeDegrees>
              <LongitudeDegrees>-2.8814916126430034637451171875</LongitudeDegrees>
            </Position>
            <AltitudeMeters>-37.59999847412109375</AltitudeMeters>
            <DistanceMeters>NAN</DistanceMeters>
          </Trackpoint>
          <Trackpoint>
            <Time>2022-09-24T16:10:47.000Z</Time>
            <Position>
              <LatitudeDegrees>43.38048932142555713653564453125</LatitudeDegrees>
              <LongitudeDegrees>-2.88155724294483661651611328125</LongitudeDegrees>
            </Position>
            <AltitudeMeters>-37.59999847412109375</AltitudeMeters>
            <DistanceMeters>NAN</DistanceMeters>
          </Trackpoint>
          <Trackpoint>
            <Time>2022-09-24T16:10:48.000Z</Time>
            <Position>
              <LatitudeDegrees>43.38042679242789745330810546875</LatitudeDegrees>
              <LongitudeDegrees>-2.88162345997989177703857421875</LongitudeDegrees>
            </Position>
            <AltitudeMeters>-37.799999237060546875</AltitudeMeters>
            <DistanceMeters>NAN</DistanceMeters>
          </Trackpoint>
          <Trackpoint>
            <Time>2022-09-24T16:10:49.000Z</Time>
            <Position>
              <LatitudeDegrees>43.380365185439586639404296875</LatitudeDegrees>
              <LongitudeDegrees>-2.8816902637481689453125</LongitudeDegrees>
            </Position>
            <AltitudeMeters>-37.799999237060546875</AltitudeMeters>
            <DistanceMeters>NAN</DistanceMeters>
          </Trackpoint>
          <Trackpoint>
            <Time>2022-09-24T16:10:50.000Z</Time>
            <Position>
              <LatitudeDegrees>43.38030341081321239471435546875</LatitudeDegrees>
              <LongitudeDegrees>-2.88175664842128753662109375</LongitudeDegrees>
            </Position>
            <AltitudeMeters>-37.59999847412109375</AltitudeMeters>
            <DistanceMeters>NAN</DistanceMeters>
          </Trackpoint>
          <Trackpoint>
            <Time>2022-09-24T16:10:51.000Z</Time>
            <Position>
              <LatitudeDegrees>43.38024507276713848114013671875</LatitudeDegrees>
              <LongitudeDegrees>-2.88182294927537441253662109375</LongitudeDegrees>
            </Position>
            <AltitudeMeters>-37.59999847412109375</AltitudeMeters>
            <DistanceMeters>NAN</DistanceMeters>
          </Trackpoint>
          <Trackpoint>
            <Time>2022-09-24T16:10:52.000Z</Time>
            <Position>
              <LatitudeDegrees>43.38018706999719142913818359375</LatitudeDegrees>
              <LongitudeDegrees>-2.88189050741493701934814453125</LongitudeDegrees>
            </Position>
            <AltitudeMeters>-37.59999847412109375</AltitudeMeters>
            <DistanceMeters>NAN</DistanceMeters>
          </Trackpoint>
          <Trackpoint>
            <Time>2022-09-24T16:10:53.000Z</Time>
            <Position>
              <LatitudeDegrees>43.38012755848467350006103515625</LatitudeDegrees>
              <LongitudeDegrees>-2.8819571435451507568359375</LongitudeDegrees>
            </Position>
            <AltitudeMeters>-37.59999847412109375</AltitudeMeters>
            <DistanceMeters>NAN</DistanceMeters>
          </Trackpoint>
          <Trackpoint>
            <Time>2022-09-24T16:10:54.000Z</Time>
            <Position>
              <LatitudeDegrees>43.38006955571472644805908203125</LatitudeDegrees>
              <LongitudeDegrees>-2.8820236958563327789306640625</LongitudeDegrees>
            </Position>
            <AltitudeMeters>-37.40000152587890625</AltitudeMeters>
            <DistanceMeters>NAN</DistanceMeters>
          </Trackpoint>
          <Trackpoint>
            <Time>2022-09-24T16:10:55.000Z</Time>
            <Position>
              <LatitudeDegrees>43.380013145506381988525390625</LatitudeDegrees>
              <LongitudeDegrees>-2.88208614103496074676513671875</LongitudeDegrees>
            </Position>
            <AltitudeMeters>-37.40000152587890625</AltitudeMeters>
            <DistanceMeters>NAN</DistanceMeters>
          </Trackpoint>
          <Trackpoint>
            <Time>2022-09-24T16:10:56.000Z</Time>
            <Position>
              <LatitudeDegrees>43.37995958514511585235595703125</LatitudeDegrees>
              <LongitudeDegrees>-2.88214531727135181427001953125</LongitudeDegrees>
            </Position>
            <AltitudeMeters>-37.200000762939453125</AltitudeMeters>
            <DistanceMeters>NAN</DistanceMeters>
          </Trackpoint>
          <Trackpoint>
            <Time>2022-09-24T16:10:57.000Z</Time>
            <Position>
              <LatitudeDegrees>43.3799056895077228546142578125</LatitudeDegrees>
              <LongitudeDegrees>-2.882202565670013427734375</LongitudeDegrees>
            </Position>
            <AltitudeMeters>-36.40000152587890625</AltitudeMeters>
            <DistanceMeters>NAN</DistanceMeters>
          </Trackpoint>
          <Trackpoint>
            <Time>2022-09-24T16:10:58.000Z</Time>
            <Position>
              <LatitudeDegrees>43.37985347025096416473388671875</LatitudeDegrees>
              <LongitudeDegrees>-2.88226266391575336456298828125</LongitudeDegrees>
            </Position>
            <AltitudeMeters>-36.40000152587890625</AltitudeMeters>
            <DistanceMeters>NAN</DistanceMeters>
          </Trackpoint>
          <Trackpoint>
            <Time>2022-09-24T16:10:59.000Z</Time>
            <Position>
              <LatitudeDegrees>43.37980267591774463653564453125</LatitudeDegrees>
              <LongitudeDegrees>-2.88232133723795413970947265625</LongitudeDegrees>
            </Position>
            <AltitudeMeters>-36.40000152587890625</AltitudeMeters>
            <DistanceMeters>NAN</DistanceMeters>
          </Trackpoint>
          <Trackpoint>
            <Time>2022-09-24T16:11:00.000Z</Time>
            <Position>
              <LatitudeDegrees>43.37975305505096912384033203125</LatitudeDegrees>
              <LongitudeDegrees>-2.88237649016082286834716796875</LongitudeDegrees>
            </Position>
            <AltitudeMeters>-36.200000762939453125</AltitudeMeters>
            <DistanceMeters>NAN</DistanceMeters>
          </Trackpoint>
          <Trackpoint>
            <Time>2022-09-24T16:11:01.000Z</Time>
            <Position>
              <LatitudeDegrees>43.3797035180032253265380859375</LatitudeDegrees>
              <LongitudeDegrees>-2.8824293799698352813720703125</LongitudeDegrees>
            </Position>
            <AltitudeMeters>-36.200000762939453125</AltitudeMeters>
            <DistanceMeters>NAN</DistanceMeters>
          </Trackpoint>
          <Trackpoint>
            <Time>2022-09-24T16:11:02.000Z</Time>
            <Position>
              <LatitudeDegrees>43.379657752811908721923828125</LatitudeDegrees>
              <LongitudeDegrees>-2.88248076103627681732177734375</LongitudeDegrees>
            </Position>
            <AltitudeMeters>-36.200000762939453125</AltitudeMeters>
            <DistanceMeters>NAN</DistanceMeters>
          </Trackpoint>
          <Trackpoint>
            <Time>2022-09-24T16:11:03.000Z</Time>
            <Position>
              <LatitudeDegrees>43.379613496363162994384765625</LatitudeDegrees>
              <LongitudeDegrees>-2.88253122009336948394775390625</LongitudeDegrees>
            </Position>
            <AltitudeMeters>-36</AltitudeMeters>
            <DistanceMeters>NAN</DistanceMeters>
          </Trackpoint>
          <Trackpoint>
            <Time>2022-09-24T16:11:04.000Z</Time>
            <Position>
              <LatitudeDegrees>43.37956815026700496673583984375</LatitudeDegrees>
              <LongitudeDegrees>-2.88258142769336700439453125</LongitudeDegrees>
            </Position>
            <AltitudeMeters>-36</AltitudeMeters>
            <DistanceMeters>NAN</DistanceMeters>
          </Trackpoint>
          <Trackpoint>
            <Time>2022-09-24T16:11:05.000Z</Time>
            <Position>
              <LatitudeDegrees>43.379524648189544677734375</LatitudeDegrees>
              <LongitudeDegrees>-2.88263104856014251708984375</LongitudeDegrees>
            </Position>
            <AltitudeMeters>-36</AltitudeMeters>
            <DistanceMeters>NAN</DistanceMeters>
          </Trackpoint>
          <Trackpoint>
            <Time>2022-09-24T16:11:06.000Z</Time>
            <Position>
              <LatitudeDegrees>43.37947905063629150390625</LatitudeDegrees>
              <LongitudeDegrees>-2.88268075324594974517822265625</LongitudeDegrees>
            </Position>
            <AltitudeMeters>-35.799999237060546875</AltitudeMeters>
            <DistanceMeters>NAN</DistanceMeters>
          </Trackpoint>
          <Trackpoint>
            <Time>2022-09-24T16:11:07.000Z</Time>
            <Position>
              <LatitudeDegrees>43.379431776702404022216796875</LatitudeDegrees>
              <LongitudeDegrees>-2.8827304579317569732666015625</LongitudeDegrees>
            </Position>
            <AltitudeMeters>-35.799999237060546875</AltitudeMeters>
            <DistanceMeters>NAN</DistanceMeters>
          </Trackpoint>
          <Trackpoint>
            <Time>2022-09-24T16:11:08.000Z</Time>
            <Position>
              <LatitudeDegrees>43.379384838044643402099609375</LatitudeDegrees>
              <LongitudeDegrees>-2.88278116844594478607177734375</LongitudeDegrees>
            </Position>
            <AltitudeMeters>-35.799999237060546875</AltitudeMeters>
            <DistanceMeters>NAN</DistanceMeters>
          </Trackpoint>
          <Trackpoint>
            <Time>2022-09-24T16:11:09.000Z</Time>
            <Position>
              <LatitudeDegrees>43.3793355524539947509765625</LatitudeDegrees>
              <LongitudeDegrees>-2.88282743655145168304443359375</LongitudeDegrees>
            </Position>
            <AltitudeMeters>-35.799999237060546875</AltitudeMeters>
            <DistanceMeters>NAN</DistanceMeters>
          </Trackpoint>
          <Trackpoint>
            <Time>2022-09-24T16:11:10.000Z</Time>
            <Position>
              <LatitudeDegrees>43.37928593158721923828125</LatitudeDegrees>
              <LongitudeDegrees>-2.8828763030469417572021484375</LongitudeDegrees>
            </Position>
            <AltitudeMeters>-35.59999847412109375</AltitudeMeters>
            <DistanceMeters>NAN</DistanceMeters>
          </Trackpoint>
          <Trackpoint>
            <Time>2022-09-24T16:11:11.000Z</Time>
            <Position>
              <LatitudeDegrees>43.37923455052077770233154296875</LatitudeDegrees>
              <LongitudeDegrees>-2.88292751647531986236572265625</LongitudeDegrees>
            </Position>
            <AltitudeMeters>-35.200000762939453125</AltitudeMeters>
            <DistanceMeters>NAN</DistanceMeters>
          </Trackpoint>
          <Trackpoint>
            <Time>2022-09-24T16:11:12.000Z</Time>
            <Position>
              <LatitudeDegrees>43.37918191216886043548583984375</LatitudeDegrees>
              <LongitudeDegrees>-2.88298065774142742156982421875</LongitudeDegrees>
            </Position>
            <AltitudeMeters>-34.799999237060546875</AltitudeMeters>
            <DistanceMeters>NAN</DistanceMeters>
          </Trackpoint>
          <Trackpoint>
            <Time>2022-09-24T16:11:13.000Z</Time>
            <Position>
              <LatitudeDegrees>43.37913178838789463043212890625</LatitudeDegrees>
              <LongitudeDegrees>-2.88303195498883724212646484375</LongitudeDegrees>
            </Position>
            <AltitudeMeters>-34.799999237060546875</AltitudeMeters>
            <DistanceMeters>NAN</DistanceMeters>
          </Trackpoint>
          <Trackpoint>
            <Time>2022-09-24T16:11:14.000Z</Time>
            <Position>
              <LatitudeDegrees>43.37907881475985050201416015625</LatitudeDegrees>
              <LongitudeDegrees>-2.88308157585561275482177734375</LongitudeDegrees>
            </Position>
            <AltitudeMeters>-34.59999847412109375</AltitudeMeters>
            <DistanceMeters>NAN</DistanceMeters>
          </Trackpoint>
          <Trackpoint>
            <Time>2022-09-24T16:11:15.000Z</Time>
            <Position>
              <LatitudeDegrees>43.37902550585567951202392578125</LatitudeDegrees>
              <LongitudeDegrees>-2.883129604160785675048828125</LongitudeDegrees>
            </Position>
            <AltitudeMeters>-34.59999847412109375</AltitudeMeters>
            <DistanceMeters>NAN</DistanceMeters>
          </Trackpoint>
          <Trackpoint>
            <Time>2022-09-24T16:11:16.000Z</Time>
            <Position>
              <LatitudeDegrees>43.378972448408603668212890625</LatitudeDegrees>
              <LongitudeDegrees>-2.8831829130649566650390625</LongitudeDegrees>
            </Position>
            <AltitudeMeters>-34.59999847412109375</AltitudeMeters>
            <DistanceMeters>NAN</DistanceMeters>
          </Trackpoint>
          <Trackpoint>
            <Time>2022-09-24T16:11:17.000Z</Time>
            <Position>
              <LatitudeDegrees>43.3789186365902423858642578125</LatitudeDegrees>
              <LongitudeDegrees>-2.88323680870234966278076171875</LongitudeDegrees>
            </Position>
            <AltitudeMeters>-34.799999237060546875</AltitudeMeters>
            <DistanceMeters>NAN</DistanceMeters>
          </Trackpoint>
          <Trackpoint>
            <Time>2022-09-24T16:11:18.000Z</Time>
            <Position>
              <LatitudeDegrees>43.3788646571338176727294921875</LatitudeDegrees>
              <LongitudeDegrees>-2.883295230567455291748046875</LongitudeDegrees>
            </Position>
            <AltitudeMeters>-34.799999237060546875</AltitudeMeters>
            <DistanceMeters>NAN</DistanceMeters>
          </Trackpoint>
          <Trackpoint>
            <Time>2022-09-24T16:11:19.000Z</Time>
            <Position>
              <LatitudeDegrees>43.3788093365728855133056640625</LatitudeDegrees>
              <LongitudeDegrees>-2.8833544068038463592529296875</LongitudeDegrees>
            </Position>
            <AltitudeMeters>-35</AltitudeMeters>
            <DistanceMeters>NAN</DistanceMeters>
          </Trackpoint>
          <Trackpoint>
            <Time>2022-09-24T16:11:20.000Z</Time>
            <Position>
              <LatitudeDegrees>43.37875275872647762298583984375</LatitudeDegrees>
              <LongitudeDegrees>-2.8834167681634426116943359375</LongitudeDegrees>
            </Position>
            <AltitudeMeters>-35.40000152587890625</AltitudeMeters>
            <DistanceMeters>NAN</DistanceMeters>
          </Trackpoint>
          <Trackpoint>
            <Time>2022-09-24T16:11:21.000Z</Time>
            <Position>
              <LatitudeDegrees>43.37869475595653057098388671875</LatitudeDegrees>
              <LongitudeDegrees>-2.88347904570400714874267578125</LongitudeDegrees>
            </Position>
            <AltitudeMeters>-35.40000152587890625</AltitudeMeters>
            <DistanceMeters>NAN</DistanceMeters>
          </Trackpoint>
          <Trackpoint>
            <Time>2022-09-24T16:11:22.000Z</Time>
            <Position>
              <LatitudeDegrees>43.37863340042531490325927734375</LatitudeDegrees>
              <LongitudeDegrees>-2.8835435025393962860107421875</LongitudeDegrees>
            </Position>
            <AltitudeMeters>-36</AltitudeMeters>
            <DistanceMeters>NAN</DistanceMeters>
          </Trackpoint>
          <Trackpoint>
            <Time>2022-09-24T16:11:23.000Z</Time>
            <Position>
              <LatitudeDegrees>43.37857271544635295867919921875</LatitudeDegrees>
              <LongitudeDegrees>-2.88361047394573688507080078125</LongitudeDegrees>
            </Position>
            <AltitudeMeters>-36</AltitudeMeters>
            <DistanceMeters>NAN</DistanceMeters>
          </Trackpoint>
          <Trackpoint>
            <Time>2022-09-24T16:11:24.000Z</Time>
            <Position>
              <LatitudeDegrees>43.37851756252348423004150390625</LatitudeDegrees>
              <LongitudeDegrees>-2.88368138484656810760498046875</LongitudeDegrees>
            </Position>
            <AltitudeMeters>-36</AltitudeMeters>
            <DistanceMeters>NAN</DistanceMeters>
          </Trackpoint>
          <Trackpoint>
            <Time>2022-09-24T16:11:25.000Z</Time>
            <Position>
              <LatitudeDegrees>43.3784619905054569244384765625</LatitudeDegrees>
              <LongitudeDegrees>-2.88375665433704853057861328125</LongitudeDegrees>
            </Position>
            <AltitudeMeters>-36.200000762939453125</AltitudeMeters>
            <DistanceMeters>NAN</DistanceMeters>
          </Trackpoint>
          <Trackpoint>
            <Time>2022-09-24T16:11:26.000Z</Time>
            <Position>
              <LatitudeDegrees>43.37840323336422443389892578125</LatitudeDegrees>
              <LongitudeDegrees>-2.8838278166949748992919921875</LongitudeDegrees>
            </Position>
            <AltitudeMeters>-36.200000762939453125</AltitudeMeters>
            <DistanceMeters>NAN</DistanceMeters>
          </Trackpoint>
          <Trackpoint>
            <Time>2022-09-24T16:11:27.000Z</Time>
            <Position>
              <LatitudeDegrees>43.37834288366138935089111328125</LatitudeDegrees>
              <LongitudeDegrees>-2.883893363177776336669921875</LongitudeDegrees>
            </Position>
            <AltitudeMeters>-36.200000762939453125</AltitudeMeters>
            <DistanceMeters>NAN</DistanceMeters>
          </Trackpoint>
          <Trackpoint>
            <Time>2022-09-24T16:11:28.000Z</Time>
            <Position>
              <LatitudeDegrees>43.37834288366138935089111328125</LatitudeDegrees>
              <LongitudeDegrees>-2.883893363177776336669921875</LongitudeDegrees>
            </Position>
            <AltitudeMeters>-36.59999847412109375</AltitudeMeters>
            <DistanceMeters>NAN</DistanceMeters>
          </Trackpoint>
          <Trackpoint>
            <Time>2022-09-24T16:11:29.000Z</Time>
            <Position>
              <LatitudeDegrees>43.3782172389328479766845703125</LatitudeDegrees>
              <LongitudeDegrees>-2.88402311503887176513671875</LongitudeDegrees>
            </Position>
            <AltitudeMeters>-36.200000762939453125</AltitudeMeters>
            <DistanceMeters>NAN</DistanceMeters>
          </Trackpoint>
          <Trackpoint>
            <Time>2022-09-24T16:11:30.000Z</Time>
            <Position>
              <LatitudeDegrees>43.3781521953642368316650390625</LatitudeDegrees>
              <LongitudeDegrees>-2.88408623076975345611572265625</LongitudeDegrees>
            </Position>
            <AltitudeMeters>-36.40000152587890625</AltitudeMeters>
            <DistanceMeters>NAN</DistanceMeters>
          </Trackpoint>
          <Trackpoint>
            <Time>2022-09-24T16:11:31.000Z</Time>
            <Position>
              <LatitudeDegrees>43.3780861459672451019287109375</LatitudeDegrees>
              <LongitudeDegrees>-2.88414658047258853912353515625</LongitudeDegrees>
            </Position>
            <AltitudeMeters>-36.40000152587890625</AltitudeMeters>
            <DistanceMeters>NAN</DistanceMeters>
          </Trackpoint>
          <Trackpoint>
            <Time>2022-09-24T16:11:32.000Z</Time>
            <Position>
              <LatitudeDegrees>43.37801833637058734893798828125</LatitudeDegrees>
              <LongitudeDegrees>-2.884207852184772491455078125</LongitudeDegrees>
            </Position>
            <AltitudeMeters>-36.40000152587890625</AltitudeMeters>
            <DistanceMeters>NAN</DistanceMeters>
          </Trackpoint>
          <Trackpoint>
            <Time>2022-09-24T16:11:33.000Z</Time>
            <Position>
              <LatitudeDegrees>43.37794952094554901123046875</LatitudeDegrees>
              <LongitudeDegrees>-2.88426945917308330535888671875</LongitudeDegrees>
            </Position>
            <AltitudeMeters>-36.40000152587890625</AltitudeMeters>
            <DistanceMeters>NAN</DistanceMeters>
          </Trackpoint>
          <Trackpoint>
            <Time>2022-09-24T16:11:34.000Z</Time>
            <Position>
              <LatitudeDegrees>43.377878777682781219482421875</LatitudeDegrees>
              <LongitudeDegrees>-2.8843287192285060882568359375</LongitudeDegrees>
            </Position>
            <AltitudeMeters>-37.200000762939453125</AltitudeMeters>
            <DistanceMeters>NAN</DistanceMeters>
          </Trackpoint>
          <Trackpoint>
            <Time>2022-09-24T16:11:35.000Z</Time>
            <Position>
              <LatitudeDegrees>43.377809040248394012451171875</LatitudeDegrees>
              <LongitudeDegrees>-2.8843863867223262786865234375</LongitudeDegrees>
            </Position>
            <AltitudeMeters>-37.59999847412109375</AltitudeMeters>
            <DistanceMeters>NAN</DistanceMeters>
          </Trackpoint>
          <Trackpoint>
            <Time>2022-09-24T16:11:36.000Z</Time>
            <Position>
              <LatitudeDegrees>43.37773703970015048980712890625</LatitudeDegrees>
              <LongitudeDegrees>-2.8844477422535419464111328125</LongitudeDegrees>
            </Position>
            <AltitudeMeters>-37.59999847412109375</AltitudeMeters>
            <DistanceMeters>NAN</DistanceMeters>
          </Trackpoint>
          <Trackpoint>
            <Time>2022-09-24T16:11:37.000Z</Time>
            <Position>
              <LatitudeDegrees>43.37766679935157299041748046875</LatitudeDegrees>
              <LongitudeDegrees>-2.88450867868959903717041015625</LongitudeDegrees>
            </Position>
            <AltitudeMeters>-37.799999237060546875</AltitudeMeters>
            <DistanceMeters>NAN</DistanceMeters>
          </Trackpoint>
          <Trackpoint>
            <Time>2022-09-24T16:11:38.000Z</Time>
            <Position>
              <LatitudeDegrees>43.3775966428220272064208984375</LatitudeDegrees>
              <LongitudeDegrees>-2.884571962058544158935546875</LongitudeDegrees>
            </Position>
            <AltitudeMeters>-38</AltitudeMeters>
            <DistanceMeters>NAN</DistanceMeters>
          </Trackpoint>
          <Trackpoint>
            <Time>2022-09-24T16:11:39.000Z</Time>
            <Position>
              <LatitudeDegrees>43.37751097977161407470703125</LatitudeDegrees>
              <LongitudeDegrees>-2.88464647717773914337158203125</LongitudeDegrees>
            </Position>
            <AltitudeMeters>-38</AltitudeMeters>
            <DistanceMeters>NAN</DistanceMeters>
          </Trackpoint>
          <Trackpoint>
            <Time>2022-09-24T16:11:40.000Z</Time>
            <Position>
              <LatitudeDegrees>43.37743780575692653656005859375</LatitudeDegrees>
              <LongitudeDegrees>-2.8847085870802402496337890625</LongitudeDegrees>
            </Position>
            <AltitudeMeters>-38.200000762939453125</AltitudeMeters>
            <DistanceMeters>NAN</DistanceMeters>
          </Trackpoint>
          <Trackpoint>
            <Time>2022-09-24T16:11:41.000Z</Time>
            <Position>
              <LatitudeDegrees>43.37738030590116977691650390625</LatitudeDegrees>
              <LongitudeDegrees>-2.88476130925118923187255859375</LongitudeDegrees>
            </Position>
            <AltitudeMeters>-38.200000762939453125</AltitudeMeters>
            <DistanceMeters>NAN</DistanceMeters>
          </Trackpoint>
          <Trackpoint>
            <Time>2022-09-24T16:11:42.000Z</Time>
            <Position>
              <LatitudeDegrees>43.37730620987713336944580078125</LatitudeDegrees>
              <LongitudeDegrees>-2.8848323039710521697998046875</LongitudeDegrees>
            </Position>
            <AltitudeMeters>-38.59999847412109375</AltitudeMeters>
            <DistanceMeters>NAN</DistanceMeters>
          </Trackpoint>
          <Trackpoint>
            <Time>2022-09-24T16:11:43.000Z</Time>
            <Position>
              <LatitudeDegrees>43.37722389958798885345458984375</LatitudeDegrees>
              <LongitudeDegrees>-2.88491771556437015533447265625</LongitudeDegrees>
            </Position>
            <AltitudeMeters>-38.59999847412109375</AltitudeMeters>
            <DistanceMeters>NAN</DistanceMeters>
          </Trackpoint>
          <Trackpoint>
            <Time>2022-09-24T16:11:44.000Z</Time>
            <Position>
              <LatitudeDegrees>43.37715701200067996978759765625</LatitudeDegrees>
              <LongitudeDegrees>-2.88499348796904087066650390625</LongitudeDegrees>
            </Position>
            <AltitudeMeters>-39</AltitudeMeters>
            <DistanceMeters>NAN</DistanceMeters>
          </Trackpoint>
          <Trackpoint>
            <Time>2022-09-24T16:11:45.000Z</Time>
            <Position>
              <LatitudeDegrees>43.37710320018231868743896484375</LatitudeDegrees>
              <LongitudeDegrees>-2.8850549273192882537841796875</LongitudeDegrees>
            </Position>
            <AltitudeMeters>-39.59999847412109375</AltitudeMeters>
            <DistanceMeters>NAN</DistanceMeters>
          </Trackpoint>
          <Trackpoint>
            <Time>2022-09-24T16:11:46.000Z</Time>
            <Position>
              <LatitudeDegrees>43.37703715078532695770263671875</LatitudeDegrees>
              <LongitudeDegrees>-2.8851327113807201385498046875</LongitudeDegrees>
            </Position>
            <AltitudeMeters>-39.59999847412109375</AltitudeMeters>
            <DistanceMeters>NAN</DistanceMeters>
          </Trackpoint>
          <Trackpoint>
            <Time>2022-09-24T16:11:47.000Z</Time>
            <Position>
              <LatitudeDegrees>43.376960121095180511474609375</LatitudeDegrees>
              <LongitudeDegrees>-2.88522700779139995574951171875</LongitudeDegrees>
            </Position>
            <AltitudeMeters>-39.799999237060546875</AltitudeMeters>
            <DistanceMeters>NAN</DistanceMeters>
          </Trackpoint>
          <Trackpoint>
            <Time>2022-09-24T16:11:48.000Z</Time>
            <Position>
              <LatitudeDegrees>43.37689432315528392791748046875</LatitudeDegrees>
              <LongitudeDegrees>-2.8853063844144344329833984375</LongitudeDegrees>
            </Position>
            <AltitudeMeters>-39.799999237060546875</AltitudeMeters>
            <DistanceMeters>NAN</DistanceMeters>
          </Trackpoint>
          <Trackpoint>
            <Time>2022-09-24T16:11:49.000Z</Time>
            <Position>
              <LatitudeDegrees>43.37682961486279964447021484375</LatitudeDegrees>
              <LongitudeDegrees>-2.8853855095803737640380859375</LongitudeDegrees>
            </Position>
            <AltitudeMeters>-40.40000152587890625</AltitudeMeters>
            <DistanceMeters>NAN</DistanceMeters>
          </Trackpoint>
          <Trackpoint>
            <Time>2022-09-24T16:11:50.000Z</Time>
            <Position>
              <LatitudeDegrees>43.3767651580274105072021484375</LatitudeDegrees>
              <LongitudeDegrees>-2.8854659758508205413818359375</LongitudeDegrees>
            </Position>
            <AltitudeMeters>-40.799999237060546875</AltitudeMeters>
            <DistanceMeters>NAN</DistanceMeters>
          </Trackpoint>
          <Trackpoint>
            <Time>2022-09-24T16:11:51.000Z</Time>
            <Position>
              <LatitudeDegrees>43.3767138607800006866455078125</LatitudeDegrees>
              <LongitudeDegrees>-2.8855296783149242401123046875</LongitudeDegrees>
            </Position>
            <AltitudeMeters>-40.799999237060546875</AltitudeMeters>
            <DistanceMeters>NAN</DistanceMeters>
          </Trackpoint>
          <Trackpoint>
            <Time>2022-09-24T16:11:52.000Z</Time>
            <Position>
              <LatitudeDegrees>43.37664906866848468780517578125</LatitudeDegrees>
              <LongitudeDegrees>-2.88561022840440273284912109375</LongitudeDegrees>
            </Position>
            <AltitudeMeters>-41.200000762939453125</AltitudeMeters>
            <DistanceMeters>NAN</DistanceMeters>
          </Trackpoint>
          <Trackpoint>
            <Time>2022-09-24T16:11:53.000Z</Time>
            <Position>
              <LatitudeDegrees>43.37656843475997447967529296875</LatitudeDegrees>
              <LongitudeDegrees>-2.8857103921473026275634765625</LongitudeDegrees>
            </Position>
            <AltitudeMeters>-41.799999237060546875</AltitudeMeters>
            <DistanceMeters>NAN</DistanceMeters>
          </Trackpoint>
          <Trackpoint>
            <Time>2022-09-24T16:11:54.000Z</Time>
            <Position>
              <LatitudeDegrees>43.376504816114902496337890625</LatitudeDegrees>
              <LongitudeDegrees>-2.885793037712574005126953125</LongitudeDegrees>
            </Position>
            <AltitudeMeters>-42</AltitudeMeters>
            <DistanceMeters>NAN</DistanceMeters>
          </Trackpoint>
          <Trackpoint>
            <Time>2022-09-24T16:11:55.000Z</Time>
            <Position>
              <LatitudeDegrees>43.3764536865055561065673828125</LatitudeDegrees>
              <LongitudeDegrees>-2.88585782982409000396728515625</LongitudeDegrees>
            </Position>
            <AltitudeMeters>-42.59999847412109375</AltitudeMeters>
            <DistanceMeters>NAN</DistanceMeters>
          </Trackpoint>
          <Trackpoint>
            <Time>2022-09-24T16:11:56.000Z</Time>
            <Position>
              <LatitudeDegrees>43.376387469470500946044921875</LatitudeDegrees>
              <LongitudeDegrees>-2.88593812845647335052490234375</LongitudeDegrees>
            </Position>
            <AltitudeMeters>-42.59999847412109375</AltitudeMeters>
            <DistanceMeters>NAN</DistanceMeters>
          </Trackpoint>
          <Trackpoint>
            <Time>2022-09-24T16:11:57.000Z</Time>
            <Position>
              <LatitudeDegrees>43.37630541063845157623291015625</LatitudeDegrees>
              <LongitudeDegrees>-2.88603586144745349884033203125</LongitudeDegrees>
            </Position>
            <AltitudeMeters>-42.59999847412109375</AltitudeMeters>
            <DistanceMeters>NAN</DistanceMeters>
          </Trackpoint>
          <Trackpoint>
            <Time>2022-09-24T16:11:58.000Z</Time>
            <Position>
              <LatitudeDegrees>43.37623718194663524627685546875</LatitudeDegrees>
              <LongitudeDegrees>-2.8861160762608051300048828125</LongitudeDegrees>
            </Position>
            <AltitudeMeters>-42.59999847412109375</AltitudeMeters>
            <DistanceMeters>NAN</DistanceMeters>
          </Trackpoint>
          <Trackpoint>
            <Time>2022-09-24T16:11:59.000Z</Time>
            <Position>
              <LatitudeDegrees>43.376170881092548370361328125</LatitudeDegrees>
              <LongitudeDegrees>-2.88620106875896453857421875</LongitudeDegrees>
            </Position>
            <AltitudeMeters>-42.59999847412109375</AltitudeMeters>
            <DistanceMeters>NAN</DistanceMeters>
          </Trackpoint>
          <Trackpoint>
            <Time>2022-09-24T16:12:00.000Z</Time>
            <Position>
              <LatitudeDegrees>43.37611665017902851104736328125</LatitudeDegrees>
              <LongitudeDegrees>-2.88626703433692455291748046875</LongitudeDegrees>
            </Position>
            <AltitudeMeters>-42.59999847412109375</AltitudeMeters>
            <DistanceMeters>NAN</DistanceMeters>
          </Trackpoint>
          <Trackpoint>
            <Time>2022-09-24T16:12:01.000Z</Time>
            <Position>
              <LatitudeDegrees>43.3760329149663448333740234375</LatitudeDegrees>
              <LongitudeDegrees>-2.88636610843241214752197265625</LongitudeDegrees>
            </Position>
            <AltitudeMeters>-42.59999847412109375</AltitudeMeters>
            <DistanceMeters>NAN</DistanceMeters>
          </Trackpoint>
          <Trackpoint>
            <Time>2022-09-24T16:12:02.000Z</Time>
            <Position>
              <LatitudeDegrees>43.3760329149663448333740234375</LatitudeDegrees>
              <LongitudeDegrees>-2.88636610843241214752197265625</LongitudeDegrees>
            </Position>
            <AltitudeMeters>-43.40000152587890625</AltitudeMeters>
            <DistanceMeters>NAN</DistanceMeters>
          </Trackpoint>
          <Trackpoint>
            <Time>2022-09-24T16:12:03.000Z</Time>
            <Position>
              <LatitudeDegrees>43.37589117698371410369873046875</LatitudeDegrees>
              <LongitudeDegrees>-2.8865288011729717254638671875</LongitudeDegrees>
            </Position>
            <AltitudeMeters>-43.40000152587890625</AltitudeMeters>
            <DistanceMeters>NAN</DistanceMeters>
          </Trackpoint>
          <Trackpoint>
            <Time>2022-09-24T16:12:04.000Z</Time>
            <Position>
              <LatitudeDegrees>43.375837616622447967529296875</LatitudeDegrees>
              <LongitudeDegrees>-2.88659443147480487823486328125</LongitudeDegrees>
            </Position>
            <AltitudeMeters>-43.799999237060546875</AltitudeMeters>
            <DistanceMeters>NAN</DistanceMeters>
          </Trackpoint>
          <Trackpoint>
            <Time>2022-09-24T16:12:05.000Z</Time>
            <Position>
              <LatitudeDegrees>43.37577098049223423004150390625</LatitudeDegrees>
              <LongitudeDegrees>-2.88667975924909114837646484375</LongitudeDegrees>
            </Position>
            <AltitudeMeters>-43.799999237060546875</AltitudeMeters>
            <DistanceMeters>NAN</DistanceMeters>
          </Trackpoint>
          <Trackpoint>
            <Time>2022-09-24T16:12:06.000Z</Time>
            <Position>
              <LatitudeDegrees>43.3757063560187816619873046875</LatitudeDegrees>
              <LongitudeDegrees>-2.88676491938531398773193359375</LongitudeDegrees>
            </Position>
            <AltitudeMeters>-44.40000152587890625</AltitudeMeters>
            <DistanceMeters>NAN</DistanceMeters>
          </Trackpoint>
          <Trackpoint>
            <Time>2022-09-24T16:12:07.000Z</Time>
            <Position>
              <LatitudeDegrees>43.37562966160476207733154296875</LatitudeDegrees>
              <LongitudeDegrees>-2.88686902262270450592041015625</LongitudeDegrees>
            </Position>
            <AltitudeMeters>-44.40000152587890625</AltitudeMeters>
            <DistanceMeters>NAN</DistanceMeters>
          </Trackpoint>
          <Trackpoint>
            <Time>2022-09-24T16:12:08.000Z</Time>
            <Position>
              <LatitudeDegrees>43.37556310929358005523681640625</LatitudeDegrees>
              <LongitudeDegrees>-2.8869509138166904449462890625</LongitudeDegrees>
            </Position>
            <AltitudeMeters>-44.40000152587890625</AltitudeMeters>
            <DistanceMeters>NAN</DistanceMeters>
          </Trackpoint>
          <Trackpoint>
            <Time>2022-09-24T16:12:09.000Z</Time>
            <Position>
              <LatitudeDegrees>43.3755078725516796112060546875</LatitudeDegrees>
              <LongitudeDegrees>-2.88701436482369899749755859375</LongitudeDegrees>
            </Position>
            <AltitudeMeters>-44</AltitudeMeters>
            <DistanceMeters>NAN</DistanceMeters>
          </Trackpoint>
          <Trackpoint>
            <Time>2022-09-24T16:12:10.000Z</Time>
            <Position>
              <LatitudeDegrees>43.37542824447154998779296875</LatitudeDegrees>
              <LongitudeDegrees>-2.88710690103471279144287109375</LongitudeDegrees>
            </Position>
            <AltitudeMeters>-44</AltitudeMeters>
            <DistanceMeters>NAN</DistanceMeters>
          </Trackpoint>
          <Trackpoint>
            <Time>2022-09-24T16:12:11.000Z</Time>
            <Position>
              <LatitudeDegrees>43.37536294944584369659423828125</LatitudeDegrees>
              <LongitudeDegrees>-2.8871859423816204071044921875</LongitudeDegrees>
            </Position>
            <AltitudeMeters>-44</AltitudeMeters>
            <DistanceMeters>NAN</DistanceMeters>
          </Trackpoint>
          <Trackpoint>
            <Time>2022-09-24T16:12:12.000Z</Time>
            <Position>
              <LatitudeDegrees>43.3753016777336597442626953125</LatitudeDegrees>
              <LongitudeDegrees>-2.8872667439281940460205078125</LongitudeDegrees>
            </Position>
            <AltitudeMeters>-44</AltitudeMeters>
            <DistanceMeters>NAN</DistanceMeters>
          </Trackpoint>
          <Trackpoint>
            <Time>2022-09-24T16:12:13.000Z</Time>
            <Position>
              <LatitudeDegrees>43.375244177877902984619140625</LatitudeDegrees>
              <LongitudeDegrees>-2.887352071702480316162109375</LongitudeDegrees>
            </Position>
            <AltitudeMeters>-44</AltitudeMeters>
            <DistanceMeters>NAN</DistanceMeters>
          </Trackpoint>
          <Trackpoint>
            <Time>2022-09-24T16:12:14.000Z</Time>
            <Position>
              <LatitudeDegrees>43.3751883544027805328369140625</LatitudeDegrees>
              <LongitudeDegrees>-2.8874397464096546173095703125</LongitudeDegrees>
            </Position>
            <AltitudeMeters>-44</AltitudeMeters>
            <DistanceMeters>NAN</DistanceMeters>
          </Trackpoint>
          <Trackpoint>
            <Time>2022-09-24T16:12:15.000Z</Time>
            <Position>
              <LatitudeDegrees>43.3751360513269901275634765625</LatitudeDegrees>
              <LongitudeDegrees>-2.887531779706478118896484375</LongitudeDegrees>
            </Position>
            <AltitudeMeters>-44</AltitudeMeters>
            <DistanceMeters>NAN</DistanceMeters>
          </Trackpoint>
          <Trackpoint>
            <Time>2022-09-24T16:12:16.000Z</Time>
            <Position>
              <LatitudeDegrees>43.37508869357407093048095703125</LatitudeDegrees>
              <LongitudeDegrees>-2.8876224718987941741943359375</LongitudeDegrees>
            </Position>
            <AltitudeMeters>-44</AltitudeMeters>
            <DistanceMeters>NAN</DistanceMeters>
          </Trackpoint>
          <Trackpoint>
            <Time>2022-09-24T16:12:17.000Z</Time>
            <Position>
              <LatitudeDegrees>43.37504125200212001800537109375</LatitudeDegrees>
              <LongitudeDegrees>-2.887717522680759429931640625</LongitudeDegrees>
            </Position>
            <AltitudeMeters>-44</AltitudeMeters>
            <DistanceMeters>NAN</DistanceMeters>
          </Trackpoint>
          <Trackpoint>
            <Time>2022-09-24T16:12:18.000Z</Time>
            <Position>
              <LatitudeDegrees>43.3749945648014545440673828125</LatitudeDegrees>
              <LongitudeDegrees>-2.88780360482633113861083984375</LongitudeDegrees>
            </Position>
            <AltitudeMeters>-44</AltitudeMeters>
            <DistanceMeters>NAN</DistanceMeters>
          </Trackpoint>
          <Trackpoint>
            <Time>2022-09-24T16:12:19.000Z</Time>
            <Position>
              <LatitudeDegrees>43.37495148181915283203125</LatitudeDegrees>
              <LongitudeDegrees>-2.88789278827607631683349609375</LongitudeDegrees>
            </Position>
            <AltitudeMeters>-44</AltitudeMeters>
            <DistanceMeters>NAN</DistanceMeters>
          </Trackpoint>
          <Trackpoint>
            <Time>2022-09-24T16:12:20.000Z</Time>
            <Position>
              <LatitudeDegrees>43.37490831501781940460205078125</LatitudeDegrees>
              <LongitudeDegrees>-2.88798230700194835662841796875</LongitudeDegrees>
            </Position>
            <AltitudeMeters>-44</AltitudeMeters>
            <DistanceMeters>NAN</DistanceMeters>
          </Trackpoint>
          <Trackpoint>
            <Time>2022-09-24T16:12:21.000Z</Time>
            <Position>
              <LatitudeDegrees>43.37486565113067626953125</LatitudeDegrees>
              <LongitudeDegrees>-2.88806931115686893463134765625</LongitudeDegrees>
            </Position>
            <AltitudeMeters>-44</AltitudeMeters>
            <DistanceMeters>NAN</DistanceMeters>
          </Trackpoint>
          <Trackpoint>
            <Time>2022-09-24T16:12:22.000Z</Time>
            <Position>
              <LatitudeDegrees>43.37482340633869171142578125</LatitudeDegrees>
              <LongitudeDegrees>-2.88815681822597980499267578125</LongitudeDegrees>
            </Position>
            <AltitudeMeters>-42</AltitudeMeters>
            <DistanceMeters>NAN</DistanceMeters>
          </Trackpoint>
          <Trackpoint>
            <Time>2022-09-24T16:12:23.000Z</Time>
            <Position>
              <LatitudeDegrees>43.37479013018310070037841796875</LatitudeDegrees>
              <LongitudeDegrees>-2.88822420872747898101806640625</LongitudeDegrees>
            </Position>
            <AltitudeMeters>-41.59999847412109375</AltitudeMeters>
            <DistanceMeters>NAN</DistanceMeters>
          </Trackpoint>
          <Trackpoint>
            <Time>2022-09-24T16:12:24.000Z</Time>
            <Position>
              <LatitudeDegrees>43.37474050931632518768310546875</LatitudeDegrees>
              <LongitudeDegrees>-2.88832663558423519134521484375</LongitudeDegrees>
            </Position>
            <AltitudeMeters>-41</AltitudeMeters>
            <DistanceMeters>NAN</DistanceMeters>
          </Trackpoint>
          <Trackpoint>
            <Time>2022-09-24T16:12:25.000Z</Time>
            <Position>
              <LatitudeDegrees>43.3747092448174953460693359375</LatitudeDegrees>
              <LongitudeDegrees>-2.88839536719024181365966796875</LongitudeDegrees>
            </Position>
            <AltitudeMeters>-40.799999237060546875</AltitudeMeters>
            <DistanceMeters>NAN</DistanceMeters>
          </Trackpoint>
          <Trackpoint>
            <Time>2022-09-24T16:12:26.000Z</Time>
            <Position>
              <LatitudeDegrees>43.3746726997196674346923828125</LatitudeDegrees>
              <LongitudeDegrees>-2.8884814493358135223388671875</LongitudeDegrees>
            </Position>
            <AltitudeMeters>-40.799999237060546875</AltitudeMeters>
            <DistanceMeters>NAN</DistanceMeters>
          </Trackpoint>
          <Trackpoint>
            <Time>2022-09-24T16:12:27.000Z</Time>
            <Position>
              <LatitudeDegrees>43.37463372386991977691650390625</LatitudeDegrees>
              <LongitudeDegrees>-2.888565100729465484619140625</LongitudeDegrees>
            </Position>
            <AltitudeMeters>-40.799999237060546875</AltitudeMeters>
            <DistanceMeters>NAN</DistanceMeters>
          </Trackpoint>
          <Trackpoint>
            <Time>2022-09-24T16:12:28.000Z</Time>
            <Position>
              <LatitudeDegrees>43.3745920658111572265625</LatitudeDegrees>
              <LongitudeDegrees>-2.88864950649440288543701171875</LongitudeDegrees>
            </Position>
            <AltitudeMeters>-41</AltitudeMeters>
            <DistanceMeters>NAN</DistanceMeters>
          </Trackpoint>
          <Trackpoint>
            <Time>2022-09-24T16:12:29.000Z</Time>
            <Position>
              <LatitudeDegrees>43.37455250322818756103515625</LatitudeDegrees>
              <LongitudeDegrees>-2.88873231969773769378662109375</LongitudeDegrees>
            </Position>
            <AltitudeMeters>-41.59999847412109375</AltitudeMeters>
            <DistanceMeters>NAN</DistanceMeters>
          </Trackpoint>
          <Trackpoint>
            <Time>2022-09-24T16:12:30.000Z</Time>
            <Position>
              <LatitudeDegrees>43.37451570667326450347900390625</LatitudeDegrees>
              <LongitudeDegrees>-2.88881622254848480224609375</LongitudeDegrees>
            </Position>
            <AltitudeMeters>-42.59999847412109375</AltitudeMeters>
            <DistanceMeters>NAN</DistanceMeters>
          </Trackpoint>
          <Trackpoint>
            <Time>2022-09-24T16:12:31.000Z</Time>
            <Position>
              <LatitudeDegrees>43.37447714991867542266845703125</LatitudeDegrees>
              <LongitudeDegrees>-2.88892057724297046661376953125</LongitudeDegrees>
            </Position>
            <AltitudeMeters>-42.59999847412109375</AltitudeMeters>
            <DistanceMeters>NAN</DistanceMeters>
          </Trackpoint>
          <Trackpoint>
            <Time>2022-09-24T16:12:32.000Z</Time>
            <Position>
              <LatitudeDegrees>43.37444915436208248138427734375</LatitudeDegrees>
              <LongitudeDegrees>-2.88899014703929424285888671875</LongitudeDegrees>
            </Position>
            <AltitudeMeters>-43</AltitudeMeters>
            <DistanceMeters>NAN</DistanceMeters>
          </Trackpoint>
          <Trackpoint>
            <Time>2022-09-24T16:12:33.000Z</Time>
            <Position>
              <LatitudeDegrees>43.374417722225189208984375</LatitudeDegrees>
              <LongitudeDegrees>-2.88908050395548343658447265625</LongitudeDegrees>
            </Position>
            <AltitudeMeters>-43</AltitudeMeters>
            <DistanceMeters>NAN</DistanceMeters>
          </Trackpoint>
          <Trackpoint>
            <Time>2022-09-24T16:12:34.000Z</Time>
            <Position>
              <LatitudeDegrees>43.3743920736014842987060546875</LatitudeDegrees>
              <LongitudeDegrees>-2.8891749680042266845703125</LongitudeDegrees>
            </Position>
            <AltitudeMeters>-43</AltitudeMeters>
            <DistanceMeters>NAN</DistanceMeters>
          </Trackpoint>
          <Trackpoint>
            <Time>2022-09-24T16:12:35.000Z</Time>
            <Position>
              <LatitudeDegrees>43.37435963563621044158935546875</LatitudeDegrees>
              <LongitudeDegrees>-2.889289297163486480712890625</LongitudeDegrees>
            </Position>
            <AltitudeMeters>-43</AltitudeMeters>
            <DistanceMeters>NAN</DistanceMeters>
          </Trackpoint>
          <Trackpoint>
            <Time>2022-09-24T16:12:36.000Z</Time>
            <Position>
              <LatitudeDegrees>43.37433717213571071624755859375</LatitudeDegrees>
              <LongitudeDegrees>-2.88936750032007694244384765625</LongitudeDegrees>
            </Position>
            <AltitudeMeters>-43</AltitudeMeters>
            <DistanceMeters>NAN</DistanceMeters>
          </Trackpoint>
          <Trackpoint>
            <Time>2022-09-24T16:12:37.000Z</Time>
            <Position>
              <LatitudeDegrees>43.3743116073310375213623046875</LatitudeDegrees>
              <LongitudeDegrees>-2.88946640677750110626220703125</LongitudeDegrees>
            </Position>
            <AltitudeMeters>-43</AltitudeMeters>
            <DistanceMeters>NAN</DistanceMeters>
          </Trackpoint>
          <Trackpoint>
            <Time>2022-09-24T16:12:38.000Z</Time>
            <Position>
              <LatitudeDegrees>43.3742888085544109344482421875</LatitudeDegrees>
              <LongitudeDegrees>-2.88956548087298870086669921875</LongitudeDegrees>
            </Position>
            <AltitudeMeters>-43</AltitudeMeters>
            <DistanceMeters>NAN</DistanceMeters>
          </Trackpoint>
          <Trackpoint>
            <Time>2022-09-24T16:12:39.000Z</Time>
            <Position>
              <LatitudeDegrees>43.3742653392255306243896484375</LatitudeDegrees>
              <LongitudeDegrees>-2.88966220803558826446533203125</LongitudeDegrees>
            </Position>
            <AltitudeMeters>-43</AltitudeMeters>
            <DistanceMeters>NAN</DistanceMeters>
          </Trackpoint>
          <Trackpoint>
            <Time>2022-09-24T16:12:40.000Z</Time>
            <Position>
              <LatitudeDegrees>43.37423725984990596771240234375</LatitudeDegrees>
              <LongitudeDegrees>-2.88975440897047519683837890625</LongitudeDegrees>
            </Position>
            <AltitudeMeters>-43</AltitudeMeters>
            <DistanceMeters>NAN</DistanceMeters>
          </Trackpoint>
          <Trackpoint>
            <Time>2022-09-24T16:12:41.000Z</Time>
            <Position>
              <LatitudeDegrees>43.37419082410633563995361328125</LatitudeDegrees>
              <LongitudeDegrees>-2.889860607683658599853515625</LongitudeDegrees>
            </Position>
            <AltitudeMeters>-44.40000152587890625</AltitudeMeters>
            <DistanceMeters>NAN</DistanceMeters>
          </Trackpoint>
          <Trackpoint>
            <Time>2022-09-24T16:12:42.000Z</Time>
            <Position>
              <LatitudeDegrees>43.37415344081819057464599609375</LatitudeDegrees>
              <LongitudeDegrees>-2.88993076421320438385009765625</LongitudeDegrees>
            </Position>
            <AltitudeMeters>-44.40000152587890625</AltitudeMeters>
            <DistanceMeters>NAN</DistanceMeters>
          </Trackpoint>
          <Trackpoint>
            <Time>2022-09-24T16:12:43.000Z</Time>
            <Position>
              <LatitudeDegrees>43.37410591542720794677734375</LatitudeDegrees>
              <LongitudeDegrees>-2.89002179168164730072021484375</LongitudeDegrees>
            </Position>
            <AltitudeMeters>-44.40000152587890625</AltitudeMeters>
            <DistanceMeters>NAN</DistanceMeters>
          </Trackpoint>
          <Trackpoint>
            <Time>2022-09-24T16:12:44.000Z</Time>
            <Position>
              <LatitudeDegrees>43.37405185215175151824951171875</LatitudeDegrees>
              <LongitudeDegrees>-2.8901393897831439971923828125</LongitudeDegrees>
            </Position>
            <AltitudeMeters>-45</AltitudeMeters>
            <DistanceMeters>NAN</DistanceMeters>
          </Trackpoint>
          <Trackpoint>
            <Time>2022-09-24T16:12:45.000Z</Time>
            <Position>
              <LatitudeDegrees>43.37405185215175151824951171875</LatitudeDegrees>
              <LongitudeDegrees>-2.8901393897831439971923828125</LongitudeDegrees>
            </Position>
            <AltitudeMeters>-45.200000762939453125</AltitudeMeters>
            <DistanceMeters>NAN</DistanceMeters>
          </Trackpoint>
          <Trackpoint>
            <Time>2022-09-24T16:12:46.000Z</Time>
            <Position>
              <LatitudeDegrees>43.37401203811168670654296875</LatitudeDegrees>
              <LongitudeDegrees>-2.89033711887896060943603515625</LongitudeDegrees>
            </Position>
            <AltitudeMeters>-45.200000762939453125</AltitudeMeters>
            <DistanceMeters>NAN</DistanceMeters>
          </Trackpoint>
          <Trackpoint>
            <Time>2022-09-24T16:12:47.000Z</Time>
            <Position>
              <LatitudeDegrees>43.3740142174065113067626953125</LatitudeDegrees>
              <LongitudeDegrees>-2.8904478438198566436767578125</LongitudeDegrees>
            </Position>
            <AltitudeMeters>-45.200000762939453125</AltitudeMeters>
            <DistanceMeters>NAN</DistanceMeters>
          </Trackpoint>
          <Trackpoint>
            <Time>2022-09-24T16:12:48.000Z</Time>
            <Position>
              <LatitudeDegrees>43.3740182407200336456298828125</LatitudeDegrees>
              <LongitudeDegrees>-2.89055907167494297027587890625</LongitudeDegrees>
            </Position>
            <AltitudeMeters>-45.40000152587890625</AltitudeMeters>
            <DistanceMeters>NAN</DistanceMeters>
          </Trackpoint>
          <Trackpoint>
            <Time>2022-09-24T16:12:49.000Z</Time>
            <Position>
              <LatitudeDegrees>43.37401748634874820709228515625</LatitudeDegrees>
              <LongitudeDegrees>-2.89067373611032962799072265625</LongitudeDegrees>
            </Position>
            <AltitudeMeters>-45.799999237060546875</AltitudeMeters>
            <DistanceMeters>NAN</DistanceMeters>
          </Trackpoint>
          <Trackpoint>
            <Time>2022-09-24T16:12:50.000Z</Time>
            <Position>
              <LatitudeDegrees>43.37401329539716243743896484375</LatitudeDegrees>
              <LongitudeDegrees>-2.89080985821783542633056640625</LongitudeDegrees>
            </Position>
            <AltitudeMeters>-46</AltitudeMeters>
            <DistanceMeters>NAN</DistanceMeters>
          </Trackpoint>
          <Trackpoint>
            <Time>2022-09-24T16:12:51.000Z</Time>
            <Position>
              <LatitudeDegrees>43.37400709278881549835205078125</LatitudeDegrees>
              <LongitudeDegrees>-2.8909225948154926300048828125</LongitudeDegrees>
            </Position>
            <AltitudeMeters>-45.799999237060546875</AltitudeMeters>
            <DistanceMeters>NAN</DistanceMeters>
          </Trackpoint>
          <Trackpoint>
            <Time>2022-09-24T16:12:52.000Z</Time>
            <Position>
              <LatitudeDegrees>43.37399787269532680511474609375</LatitudeDegrees>
              <LongitudeDegrees>-2.891013287007808685302734375</LongitudeDegrees>
            </Position>
            <AltitudeMeters>-45.799999237060546875</AltitudeMeters>
            <DistanceMeters>NAN</DistanceMeters>
          </Trackpoint>
          <Trackpoint>
            <Time>2022-09-24T16:12:53.000Z</Time>
            <Position>
              <LatitudeDegrees>43.373985551297664642333984375</LatitudeDegrees>
              <LongitudeDegrees>-2.8911291249096393585205078125</LongitudeDegrees>
            </Position>
            <AltitudeMeters>-45.40000152587890625</AltitudeMeters>
            <DistanceMeters>NAN</DistanceMeters>
          </Trackpoint>
          <Trackpoint>
            <Time>2022-09-24T16:12:54.000Z</Time>
            <Position>
              <LatitudeDegrees>43.3739729784429073333740234375</LatitudeDegrees>
              <LongitudeDegrees>-2.891266085207462310791015625</LongitudeDegrees>
            </Position>
            <AltitudeMeters>-45.40000152587890625</AltitudeMeters>
            <DistanceMeters>NAN</DistanceMeters>
          </Trackpoint>
          <Trackpoint>
            <Time>2022-09-24T16:12:55.000Z</Time>
            <Position>
              <LatitudeDegrees>43.37396233342587947845458984375</LatitudeDegrees>
              <LongitudeDegrees>-2.8913799114525318145751953125</LongitudeDegrees>
            </Position>
            <AltitudeMeters>-45.200000762939453125</AltitudeMeters>
            <DistanceMeters>NAN</DistanceMeters>
          </Trackpoint>
          <Trackpoint>
            <Time>2022-09-24T16:12:56.000Z</Time>
            <Position>
              <LatitudeDegrees>43.37395059876143932342529296875</LatitudeDegrees>
              <LongitudeDegrees>-2.89149105548858642578125</LongitudeDegrees>
            </Position>
            <AltitudeMeters>-45.200000762939453125</AltitudeMeters>
            <DistanceMeters>NAN</DistanceMeters>
          </Trackpoint>
          <Trackpoint>
            <Time>2022-09-24T16:12:57.000Z</Time>
            <Position>
              <LatitudeDegrees>43.3739414624869823455810546875</LatitudeDegrees>
              <LongitudeDegrees>-2.89158015511929988861083984375</LongitudeDegrees>
            </Position>
            <AltitudeMeters>-45.200000762939453125</AltitudeMeters>
            <DistanceMeters>NAN</DistanceMeters>
          </Trackpoint>
          <Trackpoint>
            <Time>2022-09-24T16:12:58.000Z</Time>
            <Position>
              <LatitudeDegrees>43.3739273808896541595458984375</LatitudeDegrees>
              <LongitudeDegrees>-2.8917171992361545562744140625</LongitudeDegrees>
            </Position>
            <AltitudeMeters>-45.40000152587890625</AltitudeMeters>
            <DistanceMeters>NAN</DistanceMeters>
          </Trackpoint>
          <Trackpoint>
            <Time>2022-09-24T16:12:59.000Z</Time>
            <Position>
              <LatitudeDegrees>43.37391790933907032012939453125</LatitudeDegrees>
              <LongitudeDegrees>-2.8918311931192874908447265625</LongitudeDegrees>
            </Position>
            <AltitudeMeters>-45.59999847412109375</AltitudeMeters>
            <DistanceMeters>NAN</DistanceMeters>
          </Trackpoint>
          <Trackpoint>
            <Time>2022-09-24T16:13:00.000Z</Time>
            <Position>
              <LatitudeDegrees>43.373908102512359619140625</LatitudeDegrees>
              <LongitudeDegrees>-2.891943342983722686767578125</LongitudeDegrees>
            </Position>
            <AltitudeMeters>-45.799999237060546875</AltitudeMeters>
            <DistanceMeters>NAN</DistanceMeters>
          </Trackpoint>
          <Trackpoint>
            <Time>2022-09-24T16:13:01.000Z</Time>
            <Position>
              <LatitudeDegrees>43.37390340864658355712890625</LatitudeDegrees>
              <LongitudeDegrees>-2.8920531459152698516845703125</LongitudeDegrees>
            </Position>
            <AltitudeMeters>-45.799999237060546875</AltitudeMeters>
            <DistanceMeters>NAN</DistanceMeters>
          </Trackpoint>
          <Trackpoint>
            <Time>2022-09-24T16:13:02.000Z</Time>
            <Position>
              <LatitudeDegrees>43.373897038400173187255859375</LatitudeDegrees>
              <LongitudeDegrees>-2.892143167555332183837890625</LongitudeDegrees>
            </Position>
            <AltitudeMeters>-45.799999237060546875</AltitudeMeters>
            <DistanceMeters>NAN</DistanceMeters>
          </Trackpoint>
          <Trackpoint>
            <Time>2022-09-24T16:13:03.000Z</Time>
            <Position>
              <LatitudeDegrees>43.3738837949931621551513671875</LatitudeDegrees>
              <LongitudeDegrees>-2.89228172041475772857666015625</LongitudeDegrees>
            </Position>
            <AltitudeMeters>-46</AltitudeMeters>
            <DistanceMeters>NAN</DistanceMeters>
          </Trackpoint>
          <Trackpoint>
            <Time>2022-09-24T16:13:04.000Z</Time>
            <Position>
              <LatitudeDegrees>43.3738837949931621551513671875</LatitudeDegrees>
              <LongitudeDegrees>-2.89228172041475772857666015625</LongitudeDegrees>
            </Position>
            <AltitudeMeters>-45.799999237060546875</AltitudeMeters>
            <DistanceMeters>NAN</DistanceMeters>
          </Trackpoint>
          <Trackpoint>
            <Time>2022-09-24T16:13:05.000Z</Time>
            <Position>
              <LatitudeDegrees>43.373870551586151123046875</LatitudeDegrees>
              <LongitudeDegrees>-2.8925128094851970672607421875</LongitudeDegrees>
            </Position>
            <AltitudeMeters>-45.59999847412109375</AltitudeMeters>
            <DistanceMeters>NAN</DistanceMeters>
          </Trackpoint>
          <Trackpoint>
            <Time>2022-09-24T16:13:06.000Z</Time>
            <Position>
              <LatitudeDegrees>43.3738613314926624298095703125</LatitudeDegrees>
              <LongitudeDegrees>-2.89262906648218631744384765625</LongitudeDegrees>
            </Position>
            <AltitudeMeters>-45.59999847412109375</AltitudeMeters>
            <DistanceMeters>NAN</DistanceMeters>
          </Trackpoint>
          <Trackpoint>
            <Time>2022-09-24T16:13:07.000Z</Time>
            <Position>
              <LatitudeDegrees>43.3738613314926624298095703125</LatitudeDegrees>
              <LongitudeDegrees>-2.89262906648218631744384765625</LongitudeDegrees>
            </Position>
            <AltitudeMeters>-45.40000152587890625</AltitudeMeters>
            <DistanceMeters>NAN</DistanceMeters>
          </Trackpoint>
          <Trackpoint>
            <Time>2022-09-24T16:13:08.000Z</Time>
            <Position>
              <LatitudeDegrees>43.3738452382385730743408203125</LatitudeDegrees>
              <LongitudeDegrees>-2.8928517736494541168212890625</LongitudeDegrees>
            </Position>
            <AltitudeMeters>-45.59999847412109375</AltitudeMeters>
            <DistanceMeters>NAN</DistanceMeters>
          </Trackpoint>
          <Trackpoint>
            <Time>2022-09-24T16:13:09.000Z</Time>
            <Position>
              <LatitudeDegrees>43.37383643724024295806884765625</LatitudeDegrees>
              <LongitudeDegrees>-2.89293936453759670257568359375</LongitudeDegrees>
            </Position>
            <AltitudeMeters>-45.59999847412109375</AltitudeMeters>
            <DistanceMeters>NAN</DistanceMeters>
          </Trackpoint>
          <Trackpoint>
            <Time>2022-09-24T16:13:10.000Z</Time>
            <Position>
              <LatitudeDegrees>43.37382470257580280303955078125</LatitudeDegrees>
              <LongitudeDegrees>-2.893049418926239013671875</LongitudeDegrees>
            </Position>
            <AltitudeMeters>-45.59999847412109375</AltitudeMeters>
            <DistanceMeters>NAN</DistanceMeters>
          </Trackpoint>
          <Trackpoint>
            <Time>2022-09-24T16:13:11.000Z</Time>
            <Position>
              <LatitudeDegrees>43.37382470257580280303955078125</LatitudeDegrees>
              <LongitudeDegrees>-2.893049418926239013671875</LongitudeDegrees>
            </Position>
            <AltitudeMeters>-45.59999847412109375</AltitudeMeters>
            <DistanceMeters>NAN</DistanceMeters>
          </Trackpoint>
          <Trackpoint>
            <Time>2022-09-24T16:13:12.000Z</Time>
            <Position>
              <LatitudeDegrees>43.373803831636905670166015625</LatitudeDegrees>
              <LongitudeDegrees>-2.8932701982557773590087890625</LongitudeDegrees>
            </Position>
            <AltitudeMeters>-45.59999847412109375</AltitudeMeters>
            <DistanceMeters>NAN</DistanceMeters>
          </Trackpoint>
          <Trackpoint>
            <Time>2022-09-24T16:13:13.000Z</Time>
            <Position>
              <LatitudeDegrees>43.3737895824015140533447265625</LatitudeDegrees>
              <LongitudeDegrees>-2.8933989442884922027587890625</LongitudeDegrees>
            </Position>
            <AltitudeMeters>-45.799999237060546875</AltitudeMeters>
            <DistanceMeters>NAN</DistanceMeters>
          </Trackpoint>
          <Trackpoint>
            <Time>2022-09-24T16:13:14.000Z</Time>
            <Position>
              <LatitudeDegrees>43.37377709336578845977783203125</LatitudeDegrees>
              <LongitudeDegrees>-2.89350598119199275970458984375</LongitudeDegrees>
            </Position>
            <AltitudeMeters>-45.799999237060546875</AltitudeMeters>
            <DistanceMeters>NAN</DistanceMeters>
          </Trackpoint>
          <Trackpoint>
            <Time>2022-09-24T16:13:15.000Z</Time>
            <Position>
              <LatitudeDegrees>43.37377206422388553619384765625</LatitudeDegrees>
              <LongitudeDegrees>-2.8936138562858104705810546875</LongitudeDegrees>
            </Position>
            <AltitudeMeters>-46.200000762939453125</AltitudeMeters>
            <DistanceMeters>NAN</DistanceMeters>
          </Trackpoint>
          <Trackpoint>
            <Time>2022-09-24T16:13:16.000Z</Time>
            <Position>
              <LatitudeDegrees>43.37376929819583892822265625</LatitudeDegrees>
              <LongitudeDegrees>-2.89370312355458736419677734375</LongitudeDegrees>
            </Position>
            <AltitudeMeters>-46.59999847412109375</AltitudeMeters>
            <DistanceMeters>NAN</DistanceMeters>
          </Trackpoint>
          <Trackpoint>
            <Time>2022-09-24T16:13:17.000Z</Time>
            <Position>
              <LatitudeDegrees>43.37376418523490428924560546875</LatitudeDegrees>
              <LongitudeDegrees>-2.89381560869514942169189453125</LongitudeDegrees>
            </Position>
            <AltitudeMeters>-46.59999847412109375</AltitudeMeters>
            <DistanceMeters>NAN</DistanceMeters>
          </Trackpoint>
          <Trackpoint>
            <Time>2022-09-24T16:13:18.000Z</Time>
            <Position>
              <LatitudeDegrees>43.37376418523490428924560546875</LatitudeDegrees>
              <LongitudeDegrees>-2.89381560869514942169189453125</LongitudeDegrees>
            </Position>
            <AltitudeMeters>-46.59999847412109375</AltitudeMeters>
            <DistanceMeters>NAN</DistanceMeters>
          </Trackpoint>
          <Trackpoint>
            <Time>2022-09-24T16:13:19.000Z</Time>
            <Position>
              <LatitudeDegrees>43.3737527020275592803955078125</LatitudeDegrees>
              <LongitudeDegrees>-2.8940269164741039276123046875</LongitudeDegrees>
            </Position>
            <AltitudeMeters>-46.200000762939453125</AltitudeMeters>
            <DistanceMeters>NAN</DistanceMeters>
          </Trackpoint>
          <Trackpoint>
            <Time>2022-09-24T16:13:20.000Z</Time>
            <Position>
              <LatitudeDegrees>43.37373979389667510986328125</LatitudeDegrees>
              <LongitudeDegrees>-2.8941305167973041534423828125</LongitudeDegrees>
            </Position>
            <AltitudeMeters>-45.59999847412109375</AltitudeMeters>
            <DistanceMeters>NAN</DistanceMeters>
          </Trackpoint>
          <Trackpoint>
            <Time>2022-09-24T16:13:21.000Z</Time>
            <Position>
              <LatitudeDegrees>43.37372596375644207000732421875</LatitudeDegrees>
              <LongitudeDegrees>-2.894235961139202117919921875</LongitudeDegrees>
            </Position>
            <AltitudeMeters>-45</AltitudeMeters>
            <DistanceMeters>NAN</DistanceMeters>
          </Trackpoint>
          <Trackpoint>
            <Time>2022-09-24T16:13:22.000Z</Time>
            <Position>
              <LatitudeDegrees>43.373713977634906768798828125</LatitudeDegrees>
              <LongitudeDegrees>-2.8943417407572269439697265625</LongitudeDegrees>
            </Position>
            <AltitudeMeters>-45</AltitudeMeters>
            <DistanceMeters>NAN</DistanceMeters>
          </Trackpoint>
          <Trackpoint>
            <Time>2022-09-24T16:13:23.000Z</Time>
            <Position>
              <LatitudeDegrees>43.373703248798847198486328125</LatitudeDegrees>
              <LongitudeDegrees>-2.89447040297091007232666015625</LongitudeDegrees>
            </Position>
            <AltitudeMeters>-45</AltitudeMeters>
            <DistanceMeters>NAN</DistanceMeters>
          </Trackpoint>
          <Trackpoint>
            <Time>2022-09-24T16:13:24.000Z</Time>
            <Position>
              <LatitudeDegrees>43.37369293905794620513916015625</LatitudeDegrees>
              <LongitudeDegrees>-2.894577272236347198486328125</LongitudeDegrees>
            </Position>
            <AltitudeMeters>-45</AltitudeMeters>
            <DistanceMeters>NAN</DistanceMeters>
          </Trackpoint>
          <Trackpoint>
            <Time>2022-09-24T16:13:25.000Z</Time>
            <Position>
              <LatitudeDegrees>43.37368556298315525054931640625</LatitudeDegrees>
              <LongitudeDegrees>-2.89466335438191890716552734375</LongitudeDegrees>
            </Position>
            <AltitudeMeters>-46.200000762939453125</AltitudeMeters>
            <DistanceMeters>NAN</DistanceMeters>
          </Trackpoint>
          <Trackpoint>
            <Time>2022-09-24T16:13:26.000Z</Time>
            <Position>
              <LatitudeDegrees>43.3736776001751422882080078125</LatitudeDegrees>
              <LongitudeDegrees>-2.89477215148508548736572265625</LongitudeDegrees>
            </Position>
            <AltitudeMeters>-46.200000762939453125</AltitudeMeters>
            <DistanceMeters>NAN</DistanceMeters>
          </Trackpoint>
          <Trackpoint>
            <Time>2022-09-24T16:13:27.000Z</Time>
            <Position>
              <LatitudeDegrees>43.3736672066152095794677734375</LatitudeDegrees>
              <LongitudeDegrees>-2.89490140043199062347412109375</LongitudeDegrees>
            </Position>
            <AltitudeMeters>-46.200000762939453125</AltitudeMeters>
            <DistanceMeters>NAN</DistanceMeters>
          </Trackpoint>
          <Trackpoint>
            <Time>2022-09-24T16:13:28.000Z</Time>
            <Position>
              <LatitudeDegrees>43.37365857325494289398193359375</LatitudeDegrees>
              <LongitudeDegrees>-2.89498488418757915496826171875</LongitudeDegrees>
            </Position>
            <AltitudeMeters>-46.200000762939453125</AltitudeMeters>
            <DistanceMeters>NAN</DistanceMeters>
          </Trackpoint>
          <Trackpoint>
            <Time>2022-09-24T16:13:29.000Z</Time>
            <Position>
              <LatitudeDegrees>43.3736477605998516082763671875</LatitudeDegrees>
              <LongitudeDegrees>-2.89510994218289852142333984375</LongitudeDegrees>
            </Position>
            <AltitudeMeters>-46</AltitudeMeters>
            <DistanceMeters>NAN</DistanceMeters>
          </Trackpoint>
          <Trackpoint>
            <Time>2022-09-24T16:13:30.000Z</Time>
            <Position>
              <LatitudeDegrees>43.3736383728682994842529296875</LatitudeDegrees>
              <LongitudeDegrees>-2.8951943479478359222412109375</LongitudeDegrees>
            </Position>
            <AltitudeMeters>-46</AltitudeMeters>
            <DistanceMeters>NAN</DistanceMeters>
          </Trackpoint>
          <Trackpoint>
            <Time>2022-09-24T16:13:31.000Z</Time>
            <Position>
              <LatitudeDegrees>43.37362621910870075225830078125</LatitudeDegrees>
              <LongitudeDegrees>-2.895300127565860748291015625</LongitudeDegrees>
            </Position>
            <AltitudeMeters>-45.40000152587890625</AltitudeMeters>
            <DistanceMeters>NAN</DistanceMeters>
          </Trackpoint>
          <Trackpoint>
            <Time>2022-09-24T16:13:32.000Z</Time>
            <Position>
              <LatitudeDegrees>43.3736170828342437744140625</LatitudeDegrees>
              <LongitudeDegrees>-2.89542409591376781463623046875</LongitudeDegrees>
            </Position>
            <AltitudeMeters>-45.40000152587890625</AltitudeMeters>
            <DistanceMeters>NAN</DistanceMeters>
          </Trackpoint>
          <Trackpoint>
            <Time>2022-09-24T16:13:33.000Z</Time>
            <Position>
              <LatitudeDegrees>43.37360744364559650421142578125</LatitudeDegrees>
              <LongitudeDegrees>-2.895527780055999755859375</LongitudeDegrees>
            </Position>
            <AltitudeMeters>-46</AltitudeMeters>
            <DistanceMeters>NAN</DistanceMeters>
          </Trackpoint>
          <Trackpoint>
            <Time>2022-09-24T16:13:34.000Z</Time>
            <Position>
              <LatitudeDegrees>43.37359629571437835693359375</LatitudeDegrees>
              <LongitudeDegrees>-2.89563196711242198944091796875</LongitudeDegrees>
            </Position>
            <AltitudeMeters>-46</AltitudeMeters>
            <DistanceMeters>NAN</DistanceMeters>
          </Trackpoint>
          <Trackpoint>
            <Time>2022-09-24T16:13:35.000Z</Time>
            <Position>
              <LatitudeDegrees>43.37358933873474597930908203125</LatitudeDegrees>
              <LongitudeDegrees>-2.89571327157318592071533203125</LongitudeDegrees>
            </Position>
            <AltitudeMeters>-46</AltitudeMeters>
            <DistanceMeters>NAN</DistanceMeters>
          </Trackpoint>
          <Trackpoint>
            <Time>2022-09-24T16:13:36.000Z</Time>
            <Position>
              <LatitudeDegrees>43.37358011864125728607177734375</LatitudeDegrees>
              <LongitudeDegrees>-2.89581636898219585418701171875</LongitudeDegrees>
            </Position>
            <AltitudeMeters>-45.799999237060546875</AltitudeMeters>
            <DistanceMeters>NAN</DistanceMeters>
          </Trackpoint>
          <Trackpoint>
            <Time>2022-09-24T16:13:37.000Z</Time>
            <Position>
              <LatitudeDegrees>43.373572491109371185302734375</LatitudeDegrees>
              <LongitudeDegrees>-2.89594058878719806671142578125</LongitudeDegrees>
            </Position>
            <AltitudeMeters>-45</AltitudeMeters>
            <DistanceMeters>NAN</DistanceMeters>
          </Trackpoint>
          <Trackpoint>
            <Time>2022-09-24T16:13:38.000Z</Time>
            <Position>
              <LatitudeDegrees>43.37356704287230968475341796875</LatitudeDegrees>
              <LongitudeDegrees>-2.89602390490472316741943359375</LongitudeDegrees>
            </Position>
            <AltitudeMeters>-45</AltitudeMeters>
            <DistanceMeters>NAN</DistanceMeters>
          </Trackpoint>
          <Trackpoint>
            <Time>2022-09-24T16:13:39.000Z</Time>
            <Position>
              <LatitudeDegrees>43.3735565654933452606201171875</LatitudeDegrees>
              <LongitudeDegrees>-2.896132282912731170654296875</LongitudeDegrees>
            </Position>
            <AltitudeMeters>-45</AltitudeMeters>
            <DistanceMeters>NAN</DistanceMeters>
          </Trackpoint>
          <Trackpoint>
            <Time>2022-09-24T16:13:40.000Z</Time>
            <Position>
              <LatitudeDegrees>43.3735461719334125518798828125</LatitudeDegrees>
              <LongitudeDegrees>-2.8962340392172336578369140625</LongitudeDegrees>
            </Position>
            <AltitudeMeters>-45</AltitudeMeters>
            <DistanceMeters>NAN</DistanceMeters>
          </Trackpoint>
          <Trackpoint>
            <Time>2022-09-24T16:13:41.000Z</Time>
            <Position>
              <LatitudeDegrees>43.3735344372689723968505859375</LatitudeDegrees>
              <LongitudeDegrees>-2.89633604697883129119873046875</LongitudeDegrees>
            </Position>
            <AltitudeMeters>-45</AltitudeMeters>
            <DistanceMeters>NAN</DistanceMeters>
          </Trackpoint>
          <Trackpoint>
            <Time>2022-09-24T16:13:42.000Z</Time>
            <Position>
              <LatitudeDegrees>43.37352328933775424957275390625</LatitudeDegrees>
              <LongitudeDegrees>-2.896438725292682647705078125</LongitudeDegrees>
            </Position>
            <AltitudeMeters>-45</AltitudeMeters>
            <DistanceMeters>NAN</DistanceMeters>
          </Trackpoint>
          <Trackpoint>
            <Time>2022-09-24T16:13:43.000Z</Time>
            <Position>
              <LatitudeDegrees>43.37351038120687007904052734375</LatitudeDegrees>
              <LongitudeDegrees>-2.89653922431170940399169921875</LongitudeDegrees>
            </Position>
            <AltitudeMeters>-45.200000762939453125</AltitudeMeters>
            <DistanceMeters>NAN</DistanceMeters>
          </Trackpoint>
          <Trackpoint>
            <Time>2022-09-24T16:13:44.000Z</Time>
            <Position>
              <LatitudeDegrees>43.37349596433341503143310546875</LatitudeDegrees>
              <LongitudeDegrees>-2.8966403938829898834228515625</LongitudeDegrees>
            </Position>
            <AltitudeMeters>-45.40000152587890625</AltitudeMeters>
            <DistanceMeters>NAN</DistanceMeters>
          </Trackpoint>
          <Trackpoint>
            <Time>2022-09-24T16:13:45.000Z</Time>
            <Position>
              <LatitudeDegrees>43.37348137982189655303955078125</LatitudeDegrees>
              <LongitudeDegrees>-2.8967396356165409088134765625</LongitudeDegrees>
            </Position>
            <AltitudeMeters>-45.40000152587890625</AltitudeMeters>
            <DistanceMeters>NAN</DistanceMeters>
          </Trackpoint>
          <Trackpoint>
            <Time>2022-09-24T16:13:46.000Z</Time>
            <Position>
              <LatitudeDegrees>43.37346930988132953643798828125</LatitudeDegrees>
              <LongitudeDegrees>-2.89683745242655277252197265625</LongitudeDegrees>
            </Position>
            <AltitudeMeters>-45.40000152587890625</AltitudeMeters>
            <DistanceMeters>NAN</DistanceMeters>
          </Trackpoint>
          <Trackpoint>
            <Time>2022-09-24T16:13:47.000Z</Time>
            <Position>
              <LatitudeDegrees>43.37345992214977741241455078125</LatitudeDegrees>
              <LongitudeDegrees>-2.89693485014140605926513671875</LongitudeDegrees>
            </Position>
            <AltitudeMeters>-45.40000152587890625</AltitudeMeters>
            <DistanceMeters>NAN</DistanceMeters>
          </Trackpoint>
          <Trackpoint>
            <Time>2022-09-24T16:13:48.000Z</Time>
            <Position>
              <LatitudeDegrees>43.373450450599193572998046875</LatitudeDegrees>
              <LongitudeDegrees>-2.89703140966594219207763671875</LongitudeDegrees>
            </Position>
            <AltitudeMeters>-45.40000152587890625</AltitudeMeters>
            <DistanceMeters>NAN</DistanceMeters>
          </Trackpoint>
          <Trackpoint>
            <Time>2022-09-24T16:13:49.000Z</Time>
            <Position>
              <LatitudeDegrees>43.37344449944794178009033203125</LatitudeDegrees>
              <LongitudeDegrees>-2.8971490077674388885498046875</LongitudeDegrees>
            </Position>
            <AltitudeMeters>-44</AltitudeMeters>
            <DistanceMeters>NAN</DistanceMeters>
          </Trackpoint>
          <Trackpoint>
            <Time>2022-09-24T16:13:50.000Z</Time>
            <Position>
              <LatitudeDegrees>43.3734422363340854644775390625</LatitudeDegrees>
              <LongitudeDegrees>-2.8972261212766170501708984375</LongitudeDegrees>
            </Position>
            <AltitudeMeters>-43.799999237060546875</AltitudeMeters>
            <DistanceMeters>NAN</DistanceMeters>
          </Trackpoint>
          <Trackpoint>
            <Time>2022-09-24T16:13:51.000Z</Time>
            <Position>
              <LatitudeDegrees>43.3734405599534511566162109375</LatitudeDegrees>
              <LongitudeDegrees>-2.89732293225824832916259765625</LongitudeDegrees>
            </Position>
            <AltitudeMeters>-43.59999847412109375</AltitudeMeters>
            <DistanceMeters>NAN</DistanceMeters>
          </Trackpoint>
          <Trackpoint>
            <Time>2022-09-24T16:13:52.000Z</Time>
            <Position>
              <LatitudeDegrees>43.37344148196280002593994140625</LatitudeDegrees>
              <LongitudeDegrees>-2.89741714484989643096923828125</LongitudeDegrees>
            </Position>
            <AltitudeMeters>-43.59999847412109375</AltitudeMeters>
            <DistanceMeters>NAN</DistanceMeters>
          </Trackpoint>
          <Trackpoint>
            <Time>2022-09-24T16:13:53.000Z</Time>
            <Position>
              <LatitudeDegrees>43.3734427392482757568359375</LatitudeDegrees>
              <LongitudeDegrees>-2.89751353673636913299560546875</LongitudeDegrees>
            </Position>
            <AltitudeMeters>-43.59999847412109375</AltitudeMeters>
            <DistanceMeters>NAN</DistanceMeters>
          </Trackpoint>
          <Trackpoint>
            <Time>2022-09-24T16:13:54.000Z</Time>
            <Position>
              <LatitudeDegrees>43.373442403972148895263671875</LatitudeDegrees>
              <LongitudeDegrees>-2.89761026389896869659423828125</LongitudeDegrees>
            </Position>
            <AltitudeMeters>-44</AltitudeMeters>
            <DistanceMeters>NAN</DistanceMeters>
          </Trackpoint>
          <Trackpoint>
            <Time>2022-09-24T16:13:55.000Z</Time>
            <Position>
              <LatitudeDegrees>43.373447097837924957275390625</LatitudeDegrees>
              <LongitudeDegrees>-2.89770347066223621368408203125</LongitudeDegrees>
            </Position>
            <AltitudeMeters>-43.40000152587890625</AltitudeMeters>
            <DistanceMeters>NAN</DistanceMeters>
          </Trackpoint>
          <Trackpoint>
            <Time>2022-09-24T16:13:56.000Z</Time>
            <Position>
              <LatitudeDegrees>43.37345204316079616546630859375</LatitudeDegrees>
              <LongitudeDegrees>-2.8977997787296772003173828125</LongitudeDegrees>
            </Position>
            <AltitudeMeters>-43.59999847412109375</AltitudeMeters>
            <DistanceMeters>NAN</DistanceMeters>
          </Trackpoint>
          <Trackpoint>
            <Time>2022-09-24T16:13:57.000Z</Time>
            <Position>
              <LatitudeDegrees>43.373459838330745697021484375</LatitudeDegrees>
              <LongitudeDegrees>-2.89789608679711818695068359375</LongitudeDegrees>
            </Position>
            <AltitudeMeters>-44</AltitudeMeters>
            <DistanceMeters>NAN</DistanceMeters>
          </Trackpoint>
          <Trackpoint>
            <Time>2022-09-24T16:13:58.000Z</Time>
            <Position>
              <LatitudeDegrees>43.37347115390002727508544921875</LatitudeDegrees>
              <LongitudeDegrees>-2.89799205958843231201171875</LongitudeDegrees>
            </Position>
            <AltitudeMeters>-44.200000762939453125</AltitudeMeters>
            <DistanceMeters>NAN</DistanceMeters>
          </Trackpoint>
          <Trackpoint>
            <Time>2022-09-24T16:13:59.000Z</Time>
            <Position>
              <LatitudeDegrees>43.37347115390002727508544921875</LatitudeDegrees>
              <LongitudeDegrees>-2.89799205958843231201171875</LongitudeDegrees>
            </Position>
            <AltitudeMeters>-44.200000762939453125</AltitudeMeters>
            <DistanceMeters>NAN</DistanceMeters>
          </Trackpoint>
          <Trackpoint>
            <Time>2022-09-24T16:14:00.000Z</Time>
            <Position>
              <LatitudeDegrees>43.37349780835211277008056640625</LatitudeDegrees>
              <LongitudeDegrees>-2.89818258024752140045166015625</LongitudeDegrees>
            </Position>
            <AltitudeMeters>-44.200000762939453125</AltitudeMeters>
            <DistanceMeters>NAN</DistanceMeters>
          </Trackpoint>
          <Trackpoint>
            <Time>2022-09-24T16:14:01.000Z</Time>
            <Position>
              <LatitudeDegrees>43.3735123090445995330810546875</LatitudeDegrees>
              <LongitudeDegrees>-2.89830051362514495849609375</LongitudeDegrees>
            </Position>
            <AltitudeMeters>-44.40000152587890625</AltitudeMeters>
            <DistanceMeters>NAN</DistanceMeters>
          </Trackpoint>
          <Trackpoint>
            <Time>2022-09-24T16:14:02.000Z</Time>
            <Position>
              <LatitudeDegrees>43.37352312169969081878662109375</LatitudeDegrees>
              <LongitudeDegrees>-2.8984012641012668609619140625</LongitudeDegrees>
            </Position>
            <AltitudeMeters>-44.40000152587890625</AltitudeMeters>
            <DistanceMeters>NAN</DistanceMeters>
          </Trackpoint>
          <Trackpoint>
            <Time>2022-09-24T16:14:03.000Z</Time>
            <Position>
              <LatitudeDegrees>43.37353770621120929718017578125</LatitudeDegrees>
              <LongitudeDegrees>-2.898505032062530517578125</LongitudeDegrees>
            </Position>
            <AltitudeMeters>-44.40000152587890625</AltitudeMeters>
            <DistanceMeters>NAN</DistanceMeters>
          </Trackpoint>
          <Trackpoint>
            <Time>2022-09-24T16:14:04.000Z</Time>
            <Position>
              <LatitudeDegrees>43.37354893796145915985107421875</LatitudeDegrees>
              <LongitudeDegrees>-2.8986094705760478973388671875</LongitudeDegrees>
            </Position>
            <AltitudeMeters>-44.59999847412109375</AltitudeMeters>
            <DistanceMeters>NAN</DistanceMeters>
          </Trackpoint>
          <Trackpoint>
            <Time>2022-09-24T16:14:05.000Z</Time>
            <Position>
              <LatitudeDegrees>43.3735582418739795684814453125</LatitudeDegrees>
              <LongitudeDegrees>-2.8987113945186138153076171875</LongitudeDegrees>
            </Position>
            <AltitudeMeters>-44.59999847412109375</AltitudeMeters>
            <DistanceMeters>NAN</DistanceMeters>
          </Trackpoint>
          <Trackpoint>
            <Time>2022-09-24T16:14:06.000Z</Time>
            <Position>
              <LatitudeDegrees>43.37356972508132457733154296875</LatitudeDegrees>
              <LongitudeDegrees>-2.89881440810859203338623046875</LongitudeDegrees>
            </Position>
            <AltitudeMeters>-44.59999847412109375</AltitudeMeters>
            <DistanceMeters>NAN</DistanceMeters>
          </Trackpoint>
          <Trackpoint>
            <Time>2022-09-24T16:14:07.000Z</Time>
            <Position>
              <LatitudeDegrees>43.37358481250703334808349609375</LatitudeDegrees>
              <LongitudeDegrees>-2.89891800843179225921630859375</LongitudeDegrees>
            </Position>
            <AltitudeMeters>-45.200000762939453125</AltitudeMeters>
            <DistanceMeters>NAN</DistanceMeters>
          </Trackpoint>
          <Trackpoint>
            <Time>2022-09-24T16:14:08.000Z</Time>
            <Position>
              <LatitudeDegrees>43.37359922938048839569091796875</LatitudeDegrees>
              <LongitudeDegrees>-2.8990242071449756622314453125</LongitudeDegrees>
            </Position>
            <AltitudeMeters>-45.200000762939453125</AltitudeMeters>
            <DistanceMeters>NAN</DistanceMeters>
          </Trackpoint>
          <Trackpoint>
            <Time>2022-09-24T16:14:09.000Z</Time>
            <Position>
              <LatitudeDegrees>43.37361515499651432037353515625</LatitudeDegrees>
              <LongitudeDegrees>-2.899131663143634796142578125</LongitudeDegrees>
            </Position>
            <AltitudeMeters>-44.59999847412109375</AltitudeMeters>
            <DistanceMeters>NAN</DistanceMeters>
          </Trackpoint>
          <Trackpoint>
            <Time>2022-09-24T16:14:10.000Z</Time>
            <Position>
              <LatitudeDegrees>43.37362789548933506011962890625</LatitudeDegrees>
              <LongitudeDegrees>-2.89923702366650104522705078125</LongitudeDegrees>
            </Position>
            <AltitudeMeters>-45</AltitudeMeters>
            <DistanceMeters>NAN</DistanceMeters>
          </Trackpoint>
          <Trackpoint>
            <Time>2022-09-24T16:14:11.000Z</Time>
            <Position>
              <LatitudeDegrees>43.37364130653440952301025390625</LatitudeDegrees>
              <LongitudeDegrees>-2.899345569312572479248046875</LongitudeDegrees>
            </Position>
            <AltitudeMeters>-45.799999237060546875</AltitudeMeters>
            <DistanceMeters>NAN</DistanceMeters>
          </Trackpoint>
          <Trackpoint>
            <Time>2022-09-24T16:14:12.000Z</Time>
            <Position>
              <LatitudeDegrees>43.37365823797881603240966796875</LatitudeDegrees>
              <LongitudeDegrees>-2.89945252239704132080078125</LongitudeDegrees>
            </Position>
            <AltitudeMeters>-45.799999237060546875</AltitudeMeters>
            <DistanceMeters>NAN</DistanceMeters>
          </Trackpoint>
          <Trackpoint>
            <Time>2022-09-24T16:14:13.000Z</Time>
            <Position>
              <LatitudeDegrees>43.3736708946526050567626953125</LatitudeDegrees>
              <LongitudeDegrees>-2.8995572961866855621337890625</LongitudeDegrees>
            </Position>
            <AltitudeMeters>-46</AltitudeMeters>
            <DistanceMeters>NAN</DistanceMeters>
          </Trackpoint>
          <Trackpoint>
            <Time>2022-09-24T16:14:14.000Z</Time>
            <Position>
              <LatitudeDegrees>43.3736772648990154266357421875</LatitudeDegrees>
              <LongitudeDegrees>-2.89966533891856670379638671875</LongitudeDegrees>
            </Position>
            <AltitudeMeters>-45.799999237060546875</AltitudeMeters>
            <DistanceMeters>NAN</DistanceMeters>
          </Trackpoint>
          <Trackpoint>
            <Time>2022-09-24T16:14:15.000Z</Time>
            <Position>
              <LatitudeDegrees>43.37368891574442386627197265625</LatitudeDegrees>
              <LongitudeDegrees>-2.899774052202701568603515625</LongitudeDegrees>
            </Position>
            <AltitudeMeters>-46</AltitudeMeters>
            <DistanceMeters>NAN</DistanceMeters>
          </Trackpoint>
          <Trackpoint>
            <Time>2022-09-24T16:14:16.000Z</Time>
            <Position>
              <LatitudeDegrees>43.37370702065527439117431640625</LatitudeDegrees>
              <LongitudeDegrees>-2.899884022772312164306640625</LongitudeDegrees>
            </Position>
            <AltitudeMeters>-46</AltitudeMeters>
            <DistanceMeters>NAN</DistanceMeters>
          </Trackpoint>
          <Trackpoint>
            <Time>2022-09-24T16:14:17.000Z</Time>
            <Position>
              <LatitudeDegrees>43.373722694814205169677734375</LatitudeDegrees>
              <LongitudeDegrees>-2.89999902248382568359375</LongitudeDegrees>
            </Position>
            <AltitudeMeters>-46</AltitudeMeters>
            <DistanceMeters>NAN</DistanceMeters>
          </Trackpoint>
          <Trackpoint>
            <Time>2022-09-24T16:14:18.000Z</Time>
            <Position>
              <LatitudeDegrees>43.373738117516040802001953125</LatitudeDegrees>
              <LongitudeDegrees>-2.9001111723482608795166015625</LongitudeDegrees>
            </Position>
            <AltitudeMeters>-45.200000762939453125</AltitudeMeters>
            <DistanceMeters>NAN</DistanceMeters>
          </Trackpoint>
          <Trackpoint>
            <Time>2022-09-24T16:14:19.000Z</Time>
            <Position>
              <LatitudeDegrees>43.37374909780919551849365234375</LatitudeDegrees>
              <LongitudeDegrees>-2.90019926615059375762939453125</LongitudeDegrees>
            </Position>
            <AltitudeMeters>-45.200000762939453125</AltitudeMeters>
            <DistanceMeters>NAN</DistanceMeters>
          </Trackpoint>
          <Trackpoint>
            <Time>2022-09-24T16:14:20.000Z</Time>
            <Position>
              <LatitudeDegrees>43.373764939606189727783203125</LatitudeDegrees>
              <LongitudeDegrees>-2.90033304132521152496337890625</LongitudeDegrees>
            </Position>
            <AltitudeMeters>-45</AltitudeMeters>
            <DistanceMeters>NAN</DistanceMeters>
          </Trackpoint>
          <Trackpoint>
            <Time>2022-09-24T16:14:21.000Z</Time>
            <Position>
              <LatitudeDegrees>43.3737828768789768218994140625</LatitudeDegrees>
              <LongitudeDegrees>-2.9004216380417346954345703125</LongitudeDegrees>
            </Position>
            <AltitudeMeters>-45</AltitudeMeters>
            <DistanceMeters>NAN</DistanceMeters>
          </Trackpoint>
          <Trackpoint>
            <Time>2022-09-24T16:14:22.000Z</Time>
            <Position>
              <LatitudeDegrees>43.37380416691303253173828125</LatitudeDegrees>
              <LongitudeDegrees>-2.90053051896393299102783203125</LongitudeDegrees>
            </Position>
            <AltitudeMeters>-44.799999237060546875</AltitudeMeters>
            <DistanceMeters>NAN</DistanceMeters>
          </Trackpoint>
          <Trackpoint>
            <Time>2022-09-24T16:14:23.000Z</Time>
            <Position>
              <LatitudeDegrees>43.37381866760551929473876953125</LatitudeDegrees>
              <LongitudeDegrees>-2.90064250119030475616455078125</LongitudeDegrees>
            </Position>
            <AltitudeMeters>-44.799999237060546875</AltitudeMeters>
            <DistanceMeters>NAN</DistanceMeters>
          </Trackpoint>
          <Trackpoint>
            <Time>2022-09-24T16:14:24.000Z</Time>
            <Position>
              <LatitudeDegrees>43.373838029801845550537109375</LatitudeDegrees>
              <LongitudeDegrees>-2.90077778510749340057373046875</LongitudeDegrees>
            </Position>
            <AltitudeMeters>-44.799999237060546875</AltitudeMeters>
            <DistanceMeters>NAN</DistanceMeters>
          </Trackpoint>
          <Trackpoint>
            <Time>2022-09-24T16:14:25.000Z</Time>
            <Position>
              <LatitudeDegrees>43.37385655380785465240478515625</LatitudeDegrees>
              <LongitudeDegrees>-2.90088624693453311920166015625</LongitudeDegrees>
            </Position>
            <AltitudeMeters>-44.799999237060546875</AltitudeMeters>
            <DistanceMeters>NAN</DistanceMeters>
          </Trackpoint>
          <Trackpoint>
            <Time>2022-09-24T16:14:26.000Z</Time>
            <Position>
              <LatitudeDegrees>43.3738750778138637542724609375</LatitudeDegrees>
              <LongitudeDegrees>-2.9009956307709217071533203125</LongitudeDegrees>
            </Position>
            <AltitudeMeters>-44.799999237060546875</AltitudeMeters>
            <DistanceMeters>NAN</DistanceMeters>
          </Trackpoint>
          <Trackpoint>
            <Time>2022-09-24T16:14:27.000Z</Time>
            <Position>
              <LatitudeDegrees>43.37389309890568256378173828125</LatitudeDegrees>
              <LongitudeDegrees>-2.9011052660644054412841796875</LongitudeDegrees>
            </Position>
            <AltitudeMeters>-44.799999237060546875</AltitudeMeters>
            <DistanceMeters>NAN</DistanceMeters>
          </Trackpoint>
          <Trackpoint>
            <Time>2022-09-24T16:14:28.000Z</Time>
            <Position>
              <LatitudeDegrees>43.37391153909265995025634765625</LatitudeDegrees>
              <LongitudeDegrees>-2.90121833793818950653076171875</LongitudeDegrees>
            </Position>
            <AltitudeMeters>-44.799999237060546875</AltitudeMeters>
            <DistanceMeters>NAN</DistanceMeters>
          </Trackpoint>
          <Trackpoint>
            <Time>2022-09-24T16:14:29.000Z</Time>
            <Position>
              <LatitudeDegrees>43.373929560184478759765625</LatitudeDegrees>
              <LongitudeDegrees>-2.90133266709744930267333984375</LongitudeDegrees>
            </Position>
            <AltitudeMeters>-44.59999847412109375</AltitudeMeters>
            <DistanceMeters>NAN</DistanceMeters>
          </Trackpoint>
          <Trackpoint>
            <Time>2022-09-24T16:14:30.000Z</Time>
            <Position>
              <LatitudeDegrees>43.373929560184478759765625</LatitudeDegrees>
              <LongitudeDegrees>-2.90133266709744930267333984375</LongitudeDegrees>
            </Position>
            <AltitudeMeters>-44.799999237060546875</AltitudeMeters>
            <DistanceMeters>NAN</DistanceMeters>
          </Trackpoint>
          <Trackpoint>
            <Time>2022-09-24T16:14:31.000Z</Time>
            <Position>
              <LatitudeDegrees>43.3739635907113552093505859375</LatitudeDegrees>
              <LongitudeDegrees>-2.90155562572181224822998046875</LongitudeDegrees>
            </Position>
            <AltitudeMeters>-44.59999847412109375</AltitudeMeters>
            <DistanceMeters>NAN</DistanceMeters>
          </Trackpoint>
          <Trackpoint>
            <Time>2022-09-24T16:14:32.000Z</Time>
            <Position>
              <LatitudeDegrees>43.37397691793739795684814453125</LatitudeDegrees>
              <LongitudeDegrees>-2.90166961960494518280029296875</LongitudeDegrees>
            </Position>
            <AltitudeMeters>-45.40000152587890625</AltitudeMeters>
            <DistanceMeters>NAN</DistanceMeters>
          </Trackpoint>
          <Trackpoint>
            <Time>2022-09-24T16:14:33.000Z</Time>
            <Position>
              <LatitudeDegrees>43.373986892402172088623046875</LatitudeDegrees>
              <LongitudeDegrees>-2.90175779722630977630615234375</LongitudeDegrees>
            </Position>
            <AltitudeMeters>-45.40000152587890625</AltitudeMeters>
            <DistanceMeters>NAN</DistanceMeters>
          </Trackpoint>
          <Trackpoint>
            <Time>2022-09-24T16:14:34.000Z</Time>
            <Position>
              <LatitudeDegrees>43.37400306947529315948486328125</LatitudeDegrees>
              <LongitudeDegrees>-2.9018891416490077972412109375</LongitudeDegrees>
            </Position>
            <AltitudeMeters>-45.40000152587890625</AltitudeMeters>
            <DistanceMeters>NAN</DistanceMeters>
          </Trackpoint>
          <Trackpoint>
            <Time>2022-09-24T16:14:35.000Z</Time>
            <Position>
              <LatitudeDegrees>43.37401698343455791473388671875</LatitudeDegrees>
              <LongitudeDegrees>-2.90199684910476207733154296875</LongitudeDegrees>
            </Position>
            <AltitudeMeters>-45.40000152587890625</AltitudeMeters>
            <DistanceMeters>NAN</DistanceMeters>
          </Trackpoint>
          <Trackpoint>
            <Time>2022-09-24T16:14:36.000Z</Time>
            <Position>
              <LatitudeDegrees>43.37402813136577606201171875</LatitudeDegrees>
              <LongitudeDegrees>-2.9021084122359752655029296875</LongitudeDegrees>
            </Position>
            <AltitudeMeters>-45.40000152587890625</AltitudeMeters>
            <DistanceMeters>NAN</DistanceMeters>
          </Trackpoint>
          <Trackpoint>
            <Time>2022-09-24T16:14:37.000Z</Time>
            <Position>
              <LatitudeDegrees>43.37404263205826282501220703125</LatitudeDegrees>
              <LongitudeDegrees>-2.90221679024398326873779296875</LongitudeDegrees>
            </Position>
            <AltitudeMeters>-45.40000152587890625</AltitudeMeters>
            <DistanceMeters>NAN</DistanceMeters>
          </Trackpoint>
          <Trackpoint>
            <Time>2022-09-24T16:14:38.000Z</Time>
            <Position>
              <LatitudeDegrees>43.37405721656978130340576171875</LatitudeDegrees>
              <LongitudeDegrees>-2.9023270122706890106201171875</LongitudeDegrees>
            </Position>
            <AltitudeMeters>-45.40000152587890625</AltitudeMeters>
            <DistanceMeters>NAN</DistanceMeters>
          </Trackpoint>
          <Trackpoint>
            <Time>2022-09-24T16:14:39.000Z</Time>
            <Position>
              <LatitudeDegrees>43.37407196871936321258544921875</LatitudeDegrees>
              <LongitudeDegrees>-2.90243941359221935272216796875</LongitudeDegrees>
            </Position>
            <AltitudeMeters>-46</AltitudeMeters>
            <DistanceMeters>NAN</DistanceMeters>
          </Trackpoint>
          <Trackpoint>
            <Time>2022-09-24T16:14:40.000Z</Time>
            <Position>
              <LatitudeDegrees>43.37408655323088169097900390625</LatitudeDegrees>
              <LongitudeDegrees>-2.90254913270473480224609375</LongitudeDegrees>
            </Position>
            <AltitudeMeters>-46</AltitudeMeters>
            <DistanceMeters>NAN</DistanceMeters>
          </Trackpoint>
          <Trackpoint>
            <Time>2022-09-24T16:14:41.000Z</Time>
            <Position>
              <LatitudeDegrees>43.37409610860049724578857421875</LatitudeDegrees>
              <LongitudeDegrees>-2.9026378132402896881103515625</LongitudeDegrees>
            </Position>
            <AltitudeMeters>-45.40000152587890625</AltitudeMeters>
            <DistanceMeters>NAN</DistanceMeters>
          </Trackpoint>
          <Trackpoint>
            <Time>2022-09-24T16:14:42.000Z</Time>
            <Position>
              <LatitudeDegrees>43.3741104416549205780029296875</LatitudeDegrees>
              <LongitudeDegrees>-2.9027672298252582550048828125</LongitudeDegrees>
            </Position>
            <AltitudeMeters>-45</AltitudeMeters>
            <DistanceMeters>NAN</DistanceMeters>
          </Trackpoint>
          <Trackpoint>
            <Time>2022-09-24T16:14:43.000Z</Time>
            <Position>
              <LatitudeDegrees>43.3741164766252040863037109375</LatitudeDegrees>
              <LongitudeDegrees>-2.9028540663421154022216796875</LongitudeDegrees>
            </Position>
            <AltitudeMeters>-45.40000152587890625</AltitudeMeters>
            <DistanceMeters>NAN</DistanceMeters>
          </Trackpoint>
          <Trackpoint>
            <Time>2022-09-24T16:14:44.000Z</Time>
            <Position>
              <LatitudeDegrees>43.3741213381290435791015625</LatitudeDegrees>
              <LongitudeDegrees>-2.9029640369117259979248046875</LongitudeDegrees>
            </Position>
            <AltitudeMeters>-45.40000152587890625</AltitudeMeters>
            <DistanceMeters>NAN</DistanceMeters>
          </Trackpoint>
          <Trackpoint>
            <Time>2022-09-24T16:14:45.000Z</Time>
            <Position>
              <LatitudeDegrees>43.37412376888096332550048828125</LatitudeDegrees>
              <LongitudeDegrees>-2.90307057090103626251220703125</LongitudeDegrees>
            </Position>
            <AltitudeMeters>-45.40000152587890625</AltitudeMeters>
            <DistanceMeters>NAN</DistanceMeters>
          </Trackpoint>
          <Trackpoint>
            <Time>2022-09-24T16:14:46.000Z</Time>
            <Position>
              <LatitudeDegrees>43.37412812747061252593994140625</LatitudeDegrees>
              <LongitudeDegrees>-2.9031776078045368194580078125</LongitudeDegrees>
            </Position>
            <AltitudeMeters>-45.40000152587890625</AltitudeMeters>
            <DistanceMeters>NAN</DistanceMeters>
          </Trackpoint>
          <Trackpoint>
            <Time>2022-09-24T16:14:47.000Z</Time>
            <Position>
              <LatitudeDegrees>43.374127708375453948974609375</LatitudeDegrees>
              <LongitudeDegrees>-2.90328313596546649932861328125</LongitudeDegrees>
            </Position>
            <AltitudeMeters>-45.200000762939453125</AltitudeMeters>
            <DistanceMeters>NAN</DistanceMeters>
          </Trackpoint>
          <Trackpoint>
            <Time>2022-09-24T16:14:48.000Z</Time>
            <Position>
              <LatitudeDegrees>43.37411773391067981719970703125</LatitudeDegrees>
              <LongitudeDegrees>-2.903384305536746978759765625</LongitudeDegrees>
            </Position>
            <AltitudeMeters>-45</AltitudeMeters>
            <DistanceMeters>NAN</DistanceMeters>
          </Trackpoint>
          <Trackpoint>
            <Time>2022-09-24T16:14:49.000Z</Time>
            <Position>
              <LatitudeDegrees>43.374097533524036407470703125</LatitudeDegrees>
              <LongitudeDegrees>-2.9034863971173763275146484375</LongitudeDegrees>
            </Position>
            <AltitudeMeters>-45.200000762939453125</AltitudeMeters>
            <DistanceMeters>NAN</DistanceMeters>
          </Trackpoint>
          <Trackpoint>
            <Time>2022-09-24T16:14:50.000Z</Time>
            <Position>
              <LatitudeDegrees>43.37407750077545642852783203125</LatitudeDegrees>
              <LongitudeDegrees>-2.90359242819249629974365234375</LongitudeDegrees>
            </Position>
            <AltitudeMeters>-45.200000762939453125</AltitudeMeters>
            <DistanceMeters>NAN</DistanceMeters>
          </Trackpoint>
          <Trackpoint>
            <Time>2022-09-24T16:14:51.000Z</Time>
            <Position>
              <LatitudeDegrees>43.37406023405492305755615234375</LatitudeDegrees>
              <LongitudeDegrees>-2.90370206348598003387451171875</LongitudeDegrees>
            </Position>
            <AltitudeMeters>-45.200000762939453125</AltitudeMeters>
            <DistanceMeters>NAN</DistanceMeters>
          </Trackpoint>
          <Trackpoint>
            <Time>2022-09-24T16:14:52.000Z</Time>
            <Position>
              <LatitudeDegrees>43.374041877686977386474609375</LatitudeDegrees>
              <LongitudeDegrees>-2.903813458979129791259765625</LongitudeDegrees>
            </Position>
            <AltitudeMeters>-45.200000762939453125</AltitudeMeters>
            <DistanceMeters>NAN</DistanceMeters>
          </Trackpoint>
          <Trackpoint>
            <Time>2022-09-24T16:14:53.000Z</Time>
            <Position>
              <LatitudeDegrees>43.37402276694774627685546875</LatitudeDegrees>
              <LongitudeDegrees>-2.9039282910525798797607421875</LongitudeDegrees>
            </Position>
            <AltitudeMeters>-45.40000152587890625</AltitudeMeters>
            <DistanceMeters>NAN</DistanceMeters>
          </Trackpoint>
          <Trackpoint>
            <Time>2022-09-24T16:14:54.000Z</Time>
            <Position>
              <LatitudeDegrees>43.37399267591536045074462890625</LatitudeDegrees>
              <LongitudeDegrees>-2.90406717918813228607177734375</LongitudeDegrees>
            </Position>
            <AltitudeMeters>-46</AltitudeMeters>
            <DistanceMeters>NAN</DistanceMeters>
          </Trackpoint>
          <Trackpoint>
            <Time>2022-09-24T16:14:55.000Z</Time>
            <Position>
              <LatitudeDegrees>43.37396115995943546295166015625</LatitudeDegrees>
              <LongitudeDegrees>-2.90418335236608982086181640625</LongitudeDegrees>
            </Position>
            <AltitudeMeters>-46</AltitudeMeters>
            <DistanceMeters>NAN</DistanceMeters>
          </Trackpoint>
          <Trackpoint>
            <Time>2022-09-24T16:14:56.000Z</Time>
            <Position>
              <LatitudeDegrees>43.3739337511360645294189453125</LatitudeDegrees>
              <LongitudeDegrees>-2.904296256601810455322265625</LongitudeDegrees>
            </Position>
            <AltitudeMeters>-46.40000152587890625</AltitudeMeters>
            <DistanceMeters>NAN</DistanceMeters>
          </Trackpoint>
          <Trackpoint>
            <Time>2022-09-24T16:14:57.000Z</Time>
            <Position>
              <LatitudeDegrees>43.37390718050301074981689453125</LatitudeDegrees>
              <LongitudeDegrees>-2.9044094122946262359619140625</LongitudeDegrees>
            </Position>
            <AltitudeMeters>-46.40000152587890625</AltitudeMeters>
            <DistanceMeters>NAN</DistanceMeters>
          </Trackpoint>
          <Trackpoint>
            <Time>2022-09-24T16:14:58.000Z</Time>
            <Position>
              <LatitudeDegrees>43.373880945146083831787109375</LatitudeDegrees>
              <LongitudeDegrees>-2.9045220650732517242431640625</LongitudeDegrees>
            </Position>
            <AltitudeMeters>-46.40000152587890625</AltitudeMeters>
            <DistanceMeters>NAN</DistanceMeters>
          </Trackpoint>
          <Trackpoint>
            <Time>2022-09-24T16:14:59.000Z</Time>
            <Position>
              <LatitudeDegrees>43.37385915219783782958984375</LatitudeDegrees>
              <LongitudeDegrees>-2.90463178418576717376708984375</LongitudeDegrees>
            </Position>
            <AltitudeMeters>-46.59999847412109375</AltitudeMeters>
            <DistanceMeters>NAN</DistanceMeters>
          </Trackpoint>
          <Trackpoint>
            <Time>2022-09-24T16:15:00.000Z</Time>
            <Position>
              <LatitudeDegrees>43.37383660487830638885498046875</LatitudeDegrees>
              <LongitudeDegrees>-2.9047383181750774383544921875</LongitudeDegrees>
            </Position>
            <AltitudeMeters>-46.200000762939453125</AltitudeMeters>
            <DistanceMeters>NAN</DistanceMeters>
          </Trackpoint>
          <Trackpoint>
            <Time>2022-09-24T16:15:01.000Z</Time>
            <Position>
              <LatitudeDegrees>43.37381162680685520172119140625</LatitudeDegrees>
              <LongitudeDegrees>-2.90484736673533916473388671875</LongitudeDegrees>
            </Position>
            <AltitudeMeters>-46.59999847412109375</AltitudeMeters>
            <DistanceMeters>NAN</DistanceMeters>
          </Trackpoint>
          <Trackpoint>
            <Time>2022-09-24T16:15:02.000Z</Time>
            <Position>
              <LatitudeDegrees>43.37379519827663898468017578125</LatitudeDegrees>
              <LongitudeDegrees>-2.90495649911463260650634765625</LongitudeDegrees>
            </Position>
            <AltitudeMeters>-47</AltitudeMeters>
            <DistanceMeters>NAN</DistanceMeters>
          </Trackpoint>
          <Trackpoint>
            <Time>2022-09-24T16:15:03.000Z</Time>
            <Position>
              <LatitudeDegrees>43.3737842179834842681884765625</LatitudeDegrees>
              <LongitudeDegrees>-2.905044592916965484619140625</LongitudeDegrees>
            </Position>
            <AltitudeMeters>-47</AltitudeMeters>
            <DistanceMeters>NAN</DistanceMeters>
          </Trackpoint>
          <Trackpoint>
            <Time>2022-09-24T16:15:04.000Z</Time>
            <Position>
              <LatitudeDegrees>43.3737647719681262969970703125</LatitudeDegrees>
              <LongitudeDegrees>-2.90517459623515605926513671875</LongitudeDegrees>
            </Position>
            <AltitudeMeters>-46.40000152587890625</AltitudeMeters>
            <DistanceMeters>NAN</DistanceMeters>
          </Trackpoint>
          <Trackpoint>
            <Time>2022-09-24T16:15:05.000Z</Time>
            <Position>
              <LatitudeDegrees>43.37374675087630748748779296875</LatitudeDegrees>
              <LongitudeDegrees>-2.9052787832915782928466796875</LongitudeDegrees>
            </Position>
            <AltitudeMeters>-46.40000152587890625</AltitudeMeters>
            <DistanceMeters>NAN</DistanceMeters>
          </Trackpoint>
          <Trackpoint>
            <Time>2022-09-24T16:15:06.000Z</Time>
            <Position>
              <LatitudeDegrees>43.3737221919000148773193359375</LatitudeDegrees>
              <LongitudeDegrees>-2.90538598783314228057861328125</LongitudeDegrees>
            </Position>
            <AltitudeMeters>-46.40000152587890625</AltitudeMeters>
            <DistanceMeters>NAN</DistanceMeters>
          </Trackpoint>
          <Trackpoint>
            <Time>2022-09-24T16:15:07.000Z</Time>
            <Position>
              <LatitudeDegrees>43.37368824519217014312744140625</LatitudeDegrees>
              <LongitudeDegrees>-2.9054962098598480224609375</LongitudeDegrees>
            </Position>
            <AltitudeMeters>-46.40000152587890625</AltitudeMeters>
            <DistanceMeters>NAN</DistanceMeters>
          </Trackpoint>
          <Trackpoint>
            <Time>2022-09-24T16:15:08.000Z</Time>
            <Position>
              <LatitudeDegrees>43.373660333454608917236328125</LatitudeDegrees>
              <LongitudeDegrees>-2.9056046716868877410888671875</LongitudeDegrees>
            </Position>
            <AltitudeMeters>-46.40000152587890625</AltitudeMeters>
            <DistanceMeters>NAN</DistanceMeters>
          </Trackpoint>
          <Trackpoint>
            <Time>2022-09-24T16:15:09.000Z</Time>
            <Position>
              <LatitudeDegrees>43.373637534677982330322265625</LatitudeDegrees>
              <LongitudeDegrees>-2.905711121857166290283203125</LongitudeDegrees>
            </Position>
            <AltitudeMeters>-46.40000152587890625</AltitudeMeters>
            <DistanceMeters>NAN</DistanceMeters>
          </Trackpoint>
          <Trackpoint>
            <Time>2022-09-24T16:15:10.000Z</Time>
            <Position>
              <LatitudeDegrees>43.37361373007297515869140625</LatitudeDegrees>
              <LongitudeDegrees>-2.90581832639873027801513671875</LongitudeDegrees>
            </Position>
            <AltitudeMeters>-45.200000762939453125</AltitudeMeters>
            <DistanceMeters>NAN</DistanceMeters>
          </Trackpoint>
          <Trackpoint>
            <Time>2022-09-24T16:15:11.000Z</Time>
            <Position>
              <LatitudeDegrees>43.37359302677214145660400390625</LatitudeDegrees>
              <LongitudeDegrees>-2.905926369130611419677734375</LongitudeDegrees>
            </Position>
            <AltitudeMeters>-45.200000762939453125</AltitudeMeters>
            <DistanceMeters>NAN</DistanceMeters>
          </Trackpoint>
          <Trackpoint>
            <Time>2022-09-24T16:15:12.000Z</Time>
            <Position>
              <LatitudeDegrees>43.3735716529190540313720703125</LatitudeDegrees>
              <LongitudeDegrees>-2.90603105910122394561767578125</LongitudeDegrees>
            </Position>
            <AltitudeMeters>-45.200000762939453125</AltitudeMeters>
            <DistanceMeters>NAN</DistanceMeters>
          </Trackpoint>
          <Trackpoint>
            <Time>2022-09-24T16:15:13.000Z</Time>
            <Position>
              <LatitudeDegrees>43.37354927323758602142333984375</LatitudeDegrees>
              <LongitudeDegrees>-2.90613390505313873291015625</LongitudeDegrees>
            </Position>
            <AltitudeMeters>-45.200000762939453125</AltitudeMeters>
            <DistanceMeters>NAN</DistanceMeters>
          </Trackpoint>
          <Trackpoint>
            <Time>2022-09-24T16:15:14.000Z</Time>
            <Position>
              <LatitudeDegrees>43.373531587421894073486328125</LatitudeDegrees>
              <LongitudeDegrees>-2.90624253451824188232421875</LongitudeDegrees>
            </Position>
            <AltitudeMeters>-45.200000762939453125</AltitudeMeters>
            <DistanceMeters>NAN</DistanceMeters>
          </Trackpoint>
          <Trackpoint>
            <Time>2022-09-24T16:15:15.000Z</Time>
            <Position>
              <LatitudeDegrees>43.37352178059518337249755859375</LatitudeDegrees>
              <LongitudeDegrees>-2.90635921061038970947265625</LongitudeDegrees>
            </Position>
            <AltitudeMeters>-45.200000762939453125</AltitudeMeters>
            <DistanceMeters>NAN</DistanceMeters>
          </Trackpoint>
          <Trackpoint>
            <Time>2022-09-24T16:15:16.000Z</Time>
            <Position>
              <LatitudeDegrees>43.3735012449324131011962890625</LatitudeDegrees>
              <LongitudeDegrees>-2.906471528112888336181640625</LongitudeDegrees>
            </Position>
            <AltitudeMeters>-45.40000152587890625</AltitudeMeters>
            <DistanceMeters>NAN</DistanceMeters>
          </Trackpoint>
          <Trackpoint>
            <Time>2022-09-24T16:15:17.000Z</Time>
            <Position>
              <LatitudeDegrees>43.3734767697751522064208984375</LatitudeDegrees>
              <LongitudeDegrees>-2.90657915174961090087890625</LongitudeDegrees>
            </Position>
            <AltitudeMeters>-45.40000152587890625</AltitudeMeters>
            <DistanceMeters>NAN</DistanceMeters>
          </Trackpoint>
          <Trackpoint>
            <Time>2022-09-24T16:15:18.000Z</Time>
            <Position>
              <LatitudeDegrees>43.373449109494686126708984375</LatitudeDegrees>
              <LongitudeDegrees>-2.90668509900569915771484375</LongitudeDegrees>
            </Position>
            <AltitudeMeters>-46</AltitudeMeters>
            <DistanceMeters>NAN</DistanceMeters>
          </Trackpoint>
          <Trackpoint>
            <Time>2022-09-24T16:15:19.000Z</Time>
            <Position>
              <LatitudeDegrees>43.37341851554811000823974609375</LatitudeDegrees>
              <LongitudeDegrees>-2.90678895078599452972412109375</LongitudeDegrees>
            </Position>
            <AltitudeMeters>-46.200000762939453125</AltitudeMeters>
            <DistanceMeters>NAN</DistanceMeters>
          </Trackpoint>
          <Trackpoint>
            <Time>2022-09-24T16:15:20.000Z</Time>
            <Position>
              <LatitudeDegrees>43.37339303456246852874755859375</LatitudeDegrees>
              <LongitudeDegrees>-2.90687578730285167694091796875</LongitudeDegrees>
            </Position>
            <AltitudeMeters>-46.200000762939453125</AltitudeMeters>
            <DistanceMeters>NAN</DistanceMeters>
          </Trackpoint>
          <Trackpoint>
            <Time>2022-09-24T16:15:21.000Z</Time>
            <Position>
              <LatitudeDegrees>43.37336487136781215667724609375</LatitudeDegrees>
              <LongitudeDegrees>-2.90698324330151081085205078125</LongitudeDegrees>
            </Position>
            <AltitudeMeters>-46</AltitudeMeters>
            <DistanceMeters>NAN</DistanceMeters>
          </Trackpoint>
          <Trackpoint>
            <Time>2022-09-24T16:15:22.000Z</Time>
            <Position>
              <LatitudeDegrees>43.37333201430737972259521484375</LatitudeDegrees>
              <LongitudeDegrees>-2.9071108996868133544921875</LongitudeDegrees>
            </Position>
            <AltitudeMeters>-46</AltitudeMeters>
            <DistanceMeters>NAN</DistanceMeters>
          </Trackpoint>
          <Trackpoint>
            <Time>2022-09-24T16:15:23.000Z</Time>
            <Position>
              <LatitudeDegrees>43.37333201430737972259521484375</LatitudeDegrees>
              <LongitudeDegrees>-2.9071108996868133544921875</LongitudeDegrees>
            </Position>
            <AltitudeMeters>-45.799999237060546875</AltitudeMeters>
            <DistanceMeters>NAN</DistanceMeters>
          </Trackpoint>
          <Trackpoint>
            <Time>2022-09-24T16:15:24.000Z</Time>
            <Position>
              <LatitudeDegrees>43.37325791828334331512451171875</LatitudeDegrees>
              <LongitudeDegrees>-2.90730980224907398223876953125</LongitudeDegrees>
            </Position>
            <AltitudeMeters>-45.799999237060546875</AltitudeMeters>
            <DistanceMeters>NAN</DistanceMeters>
          </Trackpoint>
          <Trackpoint>
            <Time>2022-09-24T16:15:25.000Z</Time>
            <Position>
              <LatitudeDegrees>43.3732293359935283660888671875</LatitudeDegrees>
              <LongitudeDegrees>-2.90738515555858612060546875</LongitudeDegrees>
            </Position>
            <AltitudeMeters>-45.799999237060546875</AltitudeMeters>
            <DistanceMeters>NAN</DistanceMeters>
          </Trackpoint>
          <Trackpoint>
            <Time>2022-09-24T16:15:26.000Z</Time>
            <Position>
              <LatitudeDegrees>43.3731897734105587005615234375</LatitudeDegrees>
              <LongitudeDegrees>-2.90748163126409053802490234375</LongitudeDegrees>
            </Position>
            <AltitudeMeters>-45.799999237060546875</AltitudeMeters>
            <DistanceMeters>NAN</DistanceMeters>
          </Trackpoint>
          <Trackpoint>
            <Time>2022-09-24T16:15:27.000Z</Time>
            <Position>
              <LatitudeDegrees>43.37313721887767314910888671875</LatitudeDegrees>
              <LongitudeDegrees>-2.90759009309113025665283203125</LongitudeDegrees>
            </Position>
            <AltitudeMeters>-45.799999237060546875</AltitudeMeters>
            <DistanceMeters>NAN</DistanceMeters>
          </Trackpoint>
          <Trackpoint>
            <Time>2022-09-24T16:15:28.000Z</Time>
            <Position>
              <LatitudeDegrees>43.37309782393276691436767578125</LatitudeDegrees>
              <LongitudeDegrees>-2.9076589085161685943603515625</LongitudeDegrees>
            </Position>
            <AltitudeMeters>-46.200000762939453125</AltitudeMeters>
            <DistanceMeters>NAN</DistanceMeters>
          </Trackpoint>
          <Trackpoint>
            <Time>2022-09-24T16:15:29.000Z</Time>
            <Position>
              <LatitudeDegrees>43.37304510176181793212890625</LatitudeDegrees>
              <LongitudeDegrees>-2.9077410511672496795654296875</LongitudeDegrees>
            </Position>
            <AltitudeMeters>-46.200000762939453125</AltitudeMeters>
            <DistanceMeters>NAN</DistanceMeters>
          </Trackpoint>
          <Trackpoint>
            <Time>2022-09-24T16:15:30.000Z</Time>
            <Position>
              <LatitudeDegrees>43.372989781200885772705078125</LatitudeDegrees>
              <LongitudeDegrees>-2.9078225232660770416259765625</LongitudeDegrees>
            </Position>
            <AltitudeMeters>-46.200000762939453125</AltitudeMeters>
            <DistanceMeters>NAN</DistanceMeters>
          </Trackpoint>
          <Trackpoint>
            <Time>2022-09-24T16:15:31.000Z</Time>
            <Position>
              <LatitudeDegrees>43.37293169461190700531005859375</LatitudeDegrees>
              <LongitudeDegrees>-2.90790139697492122650146484375</LongitudeDegrees>
            </Position>
            <AltitudeMeters>-46.200000762939453125</AltitudeMeters>
            <DistanceMeters>NAN</DistanceMeters>
          </Trackpoint>
          <Trackpoint>
            <Time>2022-09-24T16:15:32.000Z</Time>
            <Position>
              <LatitudeDegrees>43.3728628791868686676025390625</LatitudeDegrees>
              <LongitudeDegrees>-2.9079918377101421356201171875</LongitudeDegrees>
            </Position>
            <AltitudeMeters>-46</AltitudeMeters>
            <DistanceMeters>NAN</DistanceMeters>
          </Trackpoint>
          <Trackpoint>
            <Time>2022-09-24T16:15:33.000Z</Time>
            <Position>
              <LatitudeDegrees>43.37280781008303165435791015625</LatitudeDegrees>
              <LongitudeDegrees>-2.9080684483051300048828125</LongitudeDegrees>
            </Position>
            <AltitudeMeters>-46</AltitudeMeters>
            <DistanceMeters>NAN</DistanceMeters>
          </Trackpoint>
          <Trackpoint>
            <Time>2022-09-24T16:15:34.000Z</Time>
            <Position>
              <LatitudeDegrees>43.37275114841759204864501953125</LatitudeDegrees>
              <LongitudeDegrees>-2.90814748965203762054443359375</LongitudeDegrees>
            </Position>
            <AltitudeMeters>-45.799999237060546875</AltitudeMeters>
            <DistanceMeters>NAN</DistanceMeters>
          </Trackpoint>
          <Trackpoint>
            <Time>2022-09-24T16:15:35.000Z</Time>
            <Position>
              <LatitudeDegrees>43.3727009408175945281982421875</LatitudeDegrees>
              <LongitudeDegrees>-2.9082278721034526824951171875</LongitudeDegrees>
            </Position>
            <AltitudeMeters>-45.799999237060546875</AltitudeMeters>
            <DistanceMeters>NAN</DistanceMeters>
          </Trackpoint>
          <Trackpoint>
            <Time>2022-09-24T16:15:36.000Z</Time>
            <Position>
              <LatitudeDegrees>43.3726499788463115692138671875</LatitudeDegrees>
              <LongitudeDegrees>-2.9082969389855861663818359375</LongitudeDegrees>
            </Position>
            <AltitudeMeters>-45.799999237060546875</AltitudeMeters>
            <DistanceMeters>NAN</DistanceMeters>
          </Trackpoint>
          <Trackpoint>
            <Time>2022-09-24T16:15:37.000Z</Time>
            <Position>
              <LatitudeDegrees>43.37259356863796710968017578125</LatitudeDegrees>
              <LongitudeDegrees>-2.90836508385837078094482421875</LongitudeDegrees>
            </Position>
            <AltitudeMeters>-45.799999237060546875</AltitudeMeters>
            <DistanceMeters>NAN</DistanceMeters>
          </Trackpoint>
          <Trackpoint>
            <Time>2022-09-24T16:15:38.000Z</Time>
            <Position>
              <LatitudeDegrees>43.3725366555154323577880859375</LatitudeDegrees>
              <LongitudeDegrees>-2.90843767113983631134033203125</LongitudeDegrees>
            </Position>
            <AltitudeMeters>-45.799999237060546875</AltitudeMeters>
            <DistanceMeters>NAN</DistanceMeters>
          </Trackpoint>
          <Trackpoint>
            <Time>2022-09-24T16:15:39.000Z</Time>
            <Position>
              <LatitudeDegrees>43.37247773073613643646240234375</LatitudeDegrees>
              <LongitudeDegrees>-2.908504307270050048828125</LongitudeDegrees>
            </Position>
            <AltitudeMeters>-45.799999237060546875</AltitudeMeters>
            <DistanceMeters>NAN</DistanceMeters>
          </Trackpoint>
          <Trackpoint>
            <Time>2022-09-24T16:15:40.000Z</Time>
            <Position>
              <LatitudeDegrees>43.37241905741393566131591796875</LatitudeDegrees>
              <LongitudeDegrees>-2.90857362560927867889404296875</LongitudeDegrees>
            </Position>
            <AltitudeMeters>-45.59999847412109375</AltitudeMeters>
            <DistanceMeters>NAN</DistanceMeters>
          </Trackpoint>
          <Trackpoint>
            <Time>2022-09-24T16:15:41.000Z</Time>
            <Position>
              <LatitudeDegrees>43.37236113846302032470703125</LatitudeDegrees>
              <LongitudeDegrees>-2.9086424410343170166015625</LongitudeDegrees>
            </Position>
            <AltitudeMeters>-45</AltitudeMeters>
            <DistanceMeters>NAN</DistanceMeters>
          </Trackpoint>
          <Trackpoint>
            <Time>2022-09-24T16:15:42.000Z</Time>
            <Position>
              <LatitudeDegrees>43.37230271659791469573974609375</LatitudeDegrees>
              <LongitudeDegrees>-2.90871963836252689361572265625</LongitudeDegrees>
            </Position>
            <AltitudeMeters>-44.799999237060546875</AltitudeMeters>
            <DistanceMeters>NAN</DistanceMeters>
          </Trackpoint>
          <Trackpoint>
            <Time>2022-09-24T16:15:43.000Z</Time>
            <Position>
              <LatitudeDegrees>43.37224069051444530487060546875</LatitudeDegrees>
              <LongitudeDegrees>-2.90879373438656330108642578125</LongitudeDegrees>
            </Position>
            <AltitudeMeters>-44.799999237060546875</AltitudeMeters>
            <DistanceMeters>NAN</DistanceMeters>
          </Trackpoint>
          <Trackpoint>
            <Time>2022-09-24T16:15:44.000Z</Time>
            <Position>
              <LatitudeDegrees>43.372183106839656829833984375</LatitudeDegrees>
              <LongitudeDegrees>-2.90885877795517444610595703125</LongitudeDegrees>
            </Position>
            <AltitudeMeters>-44.799999237060546875</AltitudeMeters>
            <DistanceMeters>NAN</DistanceMeters>
          </Trackpoint>
          <Trackpoint>
            <Time>2022-09-24T16:15:45.000Z</Time>
            <Position>
              <LatitudeDegrees>43.372126780450344085693359375</LatitudeDegrees>
              <LongitudeDegrees>-2.9089198820292949676513671875</LongitudeDegrees>
            </Position>
            <AltitudeMeters>-44.799999237060546875</AltitudeMeters>
            <DistanceMeters>NAN</DistanceMeters>
          </Trackpoint>
          <Trackpoint>
            <Time>2022-09-24T16:15:46.000Z</Time>
            <Position>
              <LatitudeDegrees>43.372126780450344085693359375</LatitudeDegrees>
              <LongitudeDegrees>-2.9089198820292949676513671875</LongitudeDegrees>
            </Position>
            <AltitudeMeters>-44.200000762939453125</AltitudeMeters>
            <DistanceMeters>NAN</DistanceMeters>
          </Trackpoint>
          <Trackpoint>
            <Time>2022-09-24T16:15:47.000Z</Time>
            <Position>
              <LatitudeDegrees>43.37201655842363834381103515625</LatitudeDegrees>
              <LongitudeDegrees>-2.9090492986142635345458984375</LongitudeDegrees>
            </Position>
            <AltitudeMeters>-44.200000762939453125</AltitudeMeters>
            <DistanceMeters>NAN</DistanceMeters>
          </Trackpoint>
          <Trackpoint>
            <Time>2022-09-24T16:15:48.000Z</Time>
            <Position>
              <LatitudeDegrees>43.3719613216817378997802734375</LatitudeDegrees>
              <LongitudeDegrees>-2.90911652147769927978515625</LongitudeDegrees>
            </Position>
            <AltitudeMeters>-44.200000762939453125</AltitudeMeters>
            <DistanceMeters>NAN</DistanceMeters>
          </Trackpoint>
          <Trackpoint>
            <Time>2022-09-24T16:15:49.000Z</Time>
            <Position>
              <LatitudeDegrees>43.37191455066204071044921875</LatitudeDegrees>
              <LongitudeDegrees>-2.90918265469372272491455078125</LongitudeDegrees>
            </Position>
            <AltitudeMeters>-43.799999237060546875</AltitudeMeters>
            <DistanceMeters>NAN</DistanceMeters>
          </Trackpoint>
          <Trackpoint>
            <Time>2022-09-24T16:15:50.000Z</Time>
            <Position>
              <LatitudeDegrees>43.3718657679855823516845703125</LatitudeDegrees>
              <LongitudeDegrees>-2.90925373323261737823486328125</LongitudeDegrees>
            </Position>
            <AltitudeMeters>-43.59999847412109375</AltitudeMeters>
            <DistanceMeters>NAN</DistanceMeters>
          </Trackpoint>
          <Trackpoint>
            <Time>2022-09-24T16:15:51.000Z</Time>
            <Position>
              <LatitudeDegrees>43.371817655861377716064453125</LatitudeDegrees>
              <LongitudeDegrees>-2.90931542403995990753173828125</LongitudeDegrees>
            </Position>
            <AltitudeMeters>-43.59999847412109375</AltitudeMeters>
            <DistanceMeters>NAN</DistanceMeters>
          </Trackpoint>
          <Trackpoint>
            <Time>2022-09-24T16:15:52.000Z</Time>
            <Position>
              <LatitudeDegrees>43.37177013047039508819580078125</LatitudeDegrees>
              <LongitudeDegrees>-2.9093798808753490447998046875</LongitudeDegrees>
            </Position>
            <AltitudeMeters>-43.59999847412109375</AltitudeMeters>
            <DistanceMeters>NAN</DistanceMeters>
          </Trackpoint>
          <Trackpoint>
            <Time>2022-09-24T16:15:53.000Z</Time>
            <Position>
              <LatitudeDegrees>43.371724449098110198974609375</LatitudeDegrees>
              <LongitudeDegrees>-2.90945741347968578338623046875</LongitudeDegrees>
            </Position>
            <AltitudeMeters>-43.200000762939453125</AltitudeMeters>
            <DistanceMeters>NAN</DistanceMeters>
          </Trackpoint>
          <Trackpoint>
            <Time>2022-09-24T16:15:54.000Z</Time>
            <Position>
              <LatitudeDegrees>43.371681869029998779296875</LatitudeDegrees>
              <LongitudeDegrees>-2.9095186851918697357177734375</LongitudeDegrees>
            </Position>
            <AltitudeMeters>-42.799999237060546875</AltitudeMeters>
            <DistanceMeters>NAN</DistanceMeters>
          </Trackpoint>
          <Trackpoint>
            <Time>2022-09-24T16:15:55.000Z</Time>
            <Position>
              <LatitudeDegrees>43.371646665036678314208984375</LatitudeDegrees>
              <LongitudeDegrees>-2.90956252254545688629150390625</LongitudeDegrees>
            </Position>
            <AltitudeMeters>-42.59999847412109375</AltitudeMeters>
            <DistanceMeters>NAN</DistanceMeters>
          </Trackpoint>
          <Trackpoint>
            <Time>2022-09-24T16:15:56.000Z</Time>
            <Position>
              <LatitudeDegrees>43.37159997783601284027099609375</LatitudeDegrees>
              <LongitudeDegrees>-2.909614406526088714599609375</LongitudeDegrees>
            </Position>
            <AltitudeMeters>-42.200000762939453125</AltitudeMeters>
            <DistanceMeters>NAN</DistanceMeters>
          </Trackpoint>
          <Trackpoint>
            <Time>2022-09-24T16:15:57.000Z</Time>
            <Position>
              <LatitudeDegrees>43.37155471555888652801513671875</LatitudeDegrees>
              <LongitudeDegrees>-2.9096652008593082427978515625</LongitudeDegrees>
            </Position>
            <AltitudeMeters>-42</AltitudeMeters>
            <DistanceMeters>NAN</DistanceMeters>
          </Trackpoint>
          <Trackpoint>
            <Time>2022-09-24T16:15:58.000Z</Time>
            <Position>
              <LatitudeDegrees>43.3715117163956165313720703125</LatitudeDegrees>
              <LongitudeDegrees>-2.90971490554511547088623046875</LongitudeDegrees>
            </Position>
            <AltitudeMeters>-41.799999237060546875</AltitudeMeters>
            <DistanceMeters>NAN</DistanceMeters>
          </Trackpoint>
          <Trackpoint>
            <Time>2022-09-24T16:15:59.000Z</Time>
            <Position>
              <LatitudeDegrees>43.37146167643368244171142578125</LatitudeDegrees>
              <LongitudeDegrees>-2.90977156721055507659912109375</LongitudeDegrees>
            </Position>
            <AltitudeMeters>-41.799999237060546875</AltitudeMeters>
            <DistanceMeters>NAN</DistanceMeters>
          </Trackpoint>
          <Trackpoint>
            <Time>2022-09-24T16:16:00.000Z</Time>
            <Position>
              <LatitudeDegrees>43.37141943164169788360595703125</LatitudeDegrees>
              <LongitudeDegrees>-2.90981599129736423492431640625</LongitudeDegrees>
            </Position>
            <AltitudeMeters>-41.200000762939453125</AltitudeMeters>
            <DistanceMeters>NAN</DistanceMeters>
          </Trackpoint>
          <Trackpoint>
            <Time>2022-09-24T16:16:01.000Z</Time>
            <Position>
              <LatitudeDegrees>43.37138087488710880279541015625</LatitudeDegrees>
              <LongitudeDegrees>-2.90986678563058376312255859375</LongitudeDegrees>
            </Position>
            <AltitudeMeters>-41</AltitudeMeters>
            <DistanceMeters>NAN</DistanceMeters>
          </Trackpoint>
          <Trackpoint>
            <Time>2022-09-24T16:16:02.000Z</Time>
            <Position>
              <LatitudeDegrees>43.37134164758026599884033203125</LatitudeDegrees>
              <LongitudeDegrees>-2.90991892106831073760986328125</LongitudeDegrees>
            </Position>
            <AltitudeMeters>-40.799999237060546875</AltitudeMeters>
            <DistanceMeters>NAN</DistanceMeters>
          </Trackpoint>
          <Trackpoint>
            <Time>2022-09-24T16:16:03.000Z</Time>
            <Position>
              <LatitudeDegrees>43.3713031746447086334228515625</LatitudeDegrees>
              <LongitudeDegrees>-2.9099615849554538726806640625</LongitudeDegrees>
            </Position>
            <AltitudeMeters>-40.59999847412109375</AltitudeMeters>
            <DistanceMeters>NAN</DistanceMeters>
          </Trackpoint>
          <Trackpoint>
            <Time>2022-09-24T16:16:04.000Z</Time>
            <Position>
              <LatitudeDegrees>43.371268473565578460693359375</LatitudeDegrees>
              <LongitudeDegrees>-2.91000810451805591583251953125</LongitudeDegrees>
            </Position>
            <AltitudeMeters>-40.200000762939453125</AltitudeMeters>
            <DistanceMeters>NAN</DistanceMeters>
          </Trackpoint>
          <Trackpoint>
            <Time>2022-09-24T16:16:05.000Z</Time>
            <Position>
              <LatitudeDegrees>43.3712352812290191650390625</LatitudeDegrees>
              <LongitudeDegrees>-2.9100547917187213897705078125</LongitudeDegrees>
            </Position>
            <AltitudeMeters>-40.200000762939453125</AltitudeMeters>
            <DistanceMeters>NAN</DistanceMeters>
          </Trackpoint>
          <Trackpoint>
            <Time>2022-09-24T16:16:06.000Z</Time>
            <Position>
              <LatitudeDegrees>43.37119865231215953826904296875</LatitudeDegrees>
              <LongitudeDegrees>-2.910103239119052886962890625</LongitudeDegrees>
            </Position>
            <AltitudeMeters>-40</AltitudeMeters>
            <DistanceMeters>NAN</DistanceMeters>
          </Trackpoint>
          <Trackpoint>
            <Time>2022-09-24T16:16:07.000Z</Time>
            <Position>
              <LatitudeDegrees>43.3711626939475536346435546875</LatitudeDegrees>
              <LongitudeDegrees>-2.91015177033841609954833984375</LongitudeDegrees>
            </Position>
            <AltitudeMeters>-40</AltitudeMeters>
            <DistanceMeters>NAN</DistanceMeters>
          </Trackpoint>
          <Trackpoint>
            <Time>2022-09-24T16:16:08.000Z</Time>
            <Position>
              <LatitudeDegrees>43.37112824432551860809326171875</LatitudeDegrees>
              <LongitudeDegrees>-2.91020214557647705078125</LongitudeDegrees>
            </Position>
            <AltitudeMeters>-39.799999237060546875</AltitudeMeters>
            <DistanceMeters>NAN</DistanceMeters>
          </Trackpoint>
          <Trackpoint>
            <Time>2022-09-24T16:16:09.000Z</Time>
            <Position>
              <LatitudeDegrees>43.3710936270654201507568359375</LatitudeDegrees>
              <LongitudeDegrees>-2.91024765931069850921630859375</LongitudeDegrees>
            </Position>
            <AltitudeMeters>-39.40000152587890625</AltitudeMeters>
            <DistanceMeters>NAN</DistanceMeters>
          </Trackpoint>
          <Trackpoint>
            <Time>2022-09-24T16:16:10.000Z</Time>
            <Position>
              <LatitudeDegrees>43.37105481885373592376708984375</LatitudeDegrees>
              <LongitudeDegrees>-2.91029107756912708282470703125</LongitudeDegrees>
            </Position>
            <AltitudeMeters>-39.40000152587890625</AltitudeMeters>
            <DistanceMeters>NAN</DistanceMeters>
          </Trackpoint>
          <Trackpoint>
            <Time>2022-09-24T16:16:11.000Z</Time>
            <Position>
              <LatitudeDegrees>43.37101676501333713531494140625</LatitudeDegrees>
              <LongitudeDegrees>-2.9103354178369045257568359375</LongitudeDegrees>
            </Position>
            <AltitudeMeters>-38.799999237060546875</AltitudeMeters>
            <DistanceMeters>NAN</DistanceMeters>
          </Trackpoint>
          <Trackpoint>
            <Time>2022-09-24T16:16:12.000Z</Time>
            <Position>
              <LatitudeDegrees>43.37097653187811374664306640625</LatitudeDegrees>
              <LongitudeDegrees>-2.91037254966795444488525390625</LongitudeDegrees>
            </Position>
            <AltitudeMeters>-38.40000152587890625</AltitudeMeters>
            <DistanceMeters>NAN</DistanceMeters>
          </Trackpoint>
          <Trackpoint>
            <Time>2022-09-24T16:16:13.000Z</Time>
            <Position>
              <LatitudeDegrees>43.37094233371317386627197265625</LatitudeDegrees>
              <LongitudeDegrees>-2.91040020994842052459716796875</LongitudeDegrees>
            </Position>
            <AltitudeMeters>-38.40000152587890625</AltitudeMeters>
            <DistanceMeters>NAN</DistanceMeters>
          </Trackpoint>
          <Trackpoint>
            <Time>2022-09-24T16:16:14.000Z</Time>
            <Position>
              <LatitudeDegrees>43.37090193293988704681396484375</LatitudeDegrees>
              <LongitudeDegrees>-2.9104440473020076751708984375</LongitudeDegrees>
            </Position>
            <AltitudeMeters>-38</AltitudeMeters>
            <DistanceMeters>NAN</DistanceMeters>
          </Trackpoint>
          <Trackpoint>
            <Time>2022-09-24T16:16:15.000Z</Time>
            <Position>
              <LatitudeDegrees>43.3708656392991542816162109375</LatitudeDegrees>
              <LongitudeDegrees>-2.910488136112689971923828125</LongitudeDegrees>
            </Position>
            <AltitudeMeters>-37.799999237060546875</AltitudeMeters>
            <DistanceMeters>NAN</DistanceMeters>
          </Trackpoint>
          <Trackpoint>
            <Time>2022-09-24T16:16:16.000Z</Time>
            <Position>
              <LatitudeDegrees>43.3708354644477367401123046875</LatitudeDegrees>
              <LongitudeDegrees>-2.91052392683923244476318359375</LongitudeDegrees>
            </Position>
            <AltitudeMeters>-37.799999237060546875</AltitudeMeters>
            <DistanceMeters>NAN</DistanceMeters>
          </Trackpoint>
          <Trackpoint>
            <Time>2022-09-24T16:16:17.000Z</Time>
            <Position>
              <LatitudeDegrees>43.37080470286309719085693359375</LatitudeDegrees>
              <LongitudeDegrees>-2.91056835092604160308837890625</LongitudeDegrees>
            </Position>
            <AltitudeMeters>-37.799999237060546875</AltitudeMeters>
            <DistanceMeters>NAN</DistanceMeters>
          </Trackpoint>
          <Trackpoint>
            <Time>2022-09-24T16:16:18.000Z</Time>
            <Position>
              <LatitudeDegrees>43.3707739412784576416015625</LatitudeDegrees>
              <LongitudeDegrees>-2.91061277501285076141357421875</LongitudeDegrees>
            </Position>
            <AltitudeMeters>-37.59999847412109375</AltitudeMeters>
            <DistanceMeters>NAN</DistanceMeters>
          </Trackpoint>
          <Trackpoint>
            <Time>2022-09-24T16:16:19.000Z</Time>
            <Position>
              <LatitudeDegrees>43.3707405813038349151611328125</LatitudeDegrees>
              <LongitudeDegrees>-2.91065300814807415008544921875</LongitudeDegrees>
            </Position>
            <AltitudeMeters>-37.40000152587890625</AltitudeMeters>
            <DistanceMeters>NAN</DistanceMeters>
          </Trackpoint>
          <Trackpoint>
            <Time>2022-09-24T16:16:20.000Z</Time>
            <Position>
              <LatitudeDegrees>43.37070328183472156524658203125</LatitudeDegrees>
              <LongitudeDegrees>-2.9106958396732807159423828125</LongitudeDegrees>
            </Position>
            <AltitudeMeters>-37.200000762939453125</AltitudeMeters>
            <DistanceMeters>NAN</DistanceMeters>
          </Trackpoint>
          <Trackpoint>
            <Time>2022-09-24T16:16:21.000Z</Time>
            <Position>
              <LatitudeDegrees>43.37066757492721080780029296875</LatitudeDegrees>
              <LongitudeDegrees>-2.9107360728085041046142578125</LongitudeDegrees>
            </Position>
            <AltitudeMeters>-36.59999847412109375</AltitudeMeters>
            <DistanceMeters>NAN</DistanceMeters>
          </Trackpoint>
          <Trackpoint>
            <Time>2022-09-24T16:16:22.000Z</Time>
            <Position>
              <LatitudeDegrees>43.37063052691519260406494140625</LatitudeDegrees>
              <LongitudeDegrees>-2.91077370755374431610107421875</LongitudeDegrees>
            </Position>
            <AltitudeMeters>-36.200000762939453125</AltitudeMeters>
            <DistanceMeters>NAN</DistanceMeters>
          </Trackpoint>
          <Trackpoint>
            <Time>2022-09-24T16:16:23.000Z</Time>
            <Position>
              <LatitudeDegrees>43.37059766985476016998291015625</LatitudeDegrees>
              <LongitudeDegrees>-2.91081259958446025848388671875</LongitudeDegrees>
            </Position>
            <AltitudeMeters>-36</AltitudeMeters>
            <DistanceMeters>NAN</DistanceMeters>
          </Trackpoint>
          <Trackpoint>
            <Time>2022-09-24T16:16:24.000Z</Time>
            <Position>
              <LatitudeDegrees>43.3705647289752960205078125</LatitudeDegrees>
              <LongitudeDegrees>-2.910856269299983978271484375</LongitudeDegrees>
            </Position>
            <AltitudeMeters>-36</AltitudeMeters>
            <DistanceMeters>NAN</DistanceMeters>
          </Trackpoint>
          <Trackpoint>
            <Time>2022-09-24T16:16:25.000Z</Time>
            <Position>
              <LatitudeDegrees>43.370527513325214385986328125</LatitudeDegrees>
              <LongitudeDegrees>-2.91090396232903003692626953125</LongitudeDegrees>
            </Position>
            <AltitudeMeters>-36</AltitudeMeters>
            <DistanceMeters>NAN</DistanceMeters>
          </Trackpoint>
          <Trackpoint>
            <Time>2022-09-24T16:16:26.000Z</Time>
            <Position>
              <LatitudeDegrees>43.37048736400902271270751953125</LatitudeDegrees>
              <LongitudeDegrees>-2.91095316410064697265625</LongitudeDegrees>
            </Position>
            <AltitudeMeters>-36</AltitudeMeters>
            <DistanceMeters>NAN</DistanceMeters>
          </Trackpoint>
          <Trackpoint>
            <Time>2022-09-24T16:16:27.000Z</Time>
            <Position>
              <LatitudeDegrees>43.37045048363506793975830078125</LatitudeDegrees>
              <LongitudeDegrees>-2.91100337170064449310302734375</LongitudeDegrees>
            </Position>
            <AltitudeMeters>-35.799999237060546875</AltitudeMeters>
            <DistanceMeters>NAN</DistanceMeters>
          </Trackpoint>
          <Trackpoint>
            <Time>2022-09-24T16:16:28.000Z</Time>
            <Position>
              <LatitudeDegrees>43.370413519442081451416015625</LatitudeDegrees>
              <LongitudeDegrees>-2.911063134670257568359375</LongitudeDegrees>
            </Position>
            <AltitudeMeters>-35.799999237060546875</AltitudeMeters>
            <DistanceMeters>NAN</DistanceMeters>
          </Trackpoint>
          <Trackpoint>
            <Time>2022-09-24T16:16:29.000Z</Time>
            <Position>
              <LatitudeDegrees>43.37037093937397003173828125</LatitudeDegrees>
              <LongitudeDegrees>-2.9111209698021411895751953125</LongitudeDegrees>
            </Position>
            <AltitudeMeters>-35.799999237060546875</AltitudeMeters>
            <DistanceMeters>NAN</DistanceMeters>
          </Trackpoint>
          <Trackpoint>
            <Time>2022-09-24T16:16:30.000Z</Time>
            <Position>
              <LatitudeDegrees>43.37032425217330455780029296875</LatitudeDegrees>
              <LongitudeDegrees>-2.911173440515995025634765625</LongitudeDegrees>
            </Position>
            <AltitudeMeters>-35.799999237060546875</AltitudeMeters>
            <DistanceMeters>NAN</DistanceMeters>
          </Trackpoint>
          <Trackpoint>
            <Time>2022-09-24T16:16:31.000Z</Time>
            <Position>
              <LatitudeDegrees>43.37027865462005138397216796875</LatitudeDegrees>
              <LongitudeDegrees>-2.91122549213469028472900390625</LongitudeDegrees>
            </Position>
            <AltitudeMeters>-35.799999237060546875</AltitudeMeters>
            <DistanceMeters>NAN</DistanceMeters>
          </Trackpoint>
          <Trackpoint>
            <Time>2022-09-24T16:16:32.000Z</Time>
            <Position>
              <LatitudeDegrees>43.37022819556295871734619140625</LatitudeDegrees>
              <LongitudeDegrees>-2.91127561591565608978271484375</LongitudeDegrees>
            </Position>
            <AltitudeMeters>-35.799999237060546875</AltitudeMeters>
            <DistanceMeters>NAN</DistanceMeters>
          </Trackpoint>
          <Trackpoint>
            <Time>2022-09-24T16:16:33.000Z</Time>
            <Position>
              <LatitudeDegrees>43.370174802839756011962890625</LatitudeDegrees>
              <LongitudeDegrees>-2.911325655877590179443359375</LongitudeDegrees>
            </Position>
            <AltitudeMeters>-35.799999237060546875</AltitudeMeters>
            <DistanceMeters>NAN</DistanceMeters>
          </Trackpoint>
          <Trackpoint>
            <Time>2022-09-24T16:16:34.000Z</Time>
            <Position>
              <LatitudeDegrees>43.37011906318366527557373046875</LatitudeDegrees>
              <LongitudeDegrees>-2.911373265087604522705078125</LongitudeDegrees>
            </Position>
            <AltitudeMeters>-36.799999237060546875</AltitudeMeters>
            <DistanceMeters>NAN</DistanceMeters>
          </Trackpoint>
          <Trackpoint>
            <Time>2022-09-24T16:16:35.000Z</Time>
            <Position>
              <LatitudeDegrees>43.370063491165637969970703125</LatitudeDegrees>
              <LongitudeDegrees>-2.9114265739917755126953125</LongitudeDegrees>
            </Position>
            <AltitudeMeters>-37.799999237060546875</AltitudeMeters>
            <DistanceMeters>NAN</DistanceMeters>
          </Trackpoint>
          <Trackpoint>
            <Time>2022-09-24T16:16:36.000Z</Time>
            <Position>
              <LatitudeDegrees>43.37000691331923007965087890625</LatitudeDegrees>
              <LongitudeDegrees>-2.9114800505340099334716796875</LongitudeDegrees>
            </Position>
            <AltitudeMeters>-38</AltitudeMeters>
            <DistanceMeters>NAN</DistanceMeters>
          </Trackpoint>
          <Trackpoint>
            <Time>2022-09-24T16:16:37.000Z</Time>
            <Position>
              <LatitudeDegrees>43.369950838387012481689453125</LatitudeDegrees>
              <LongitudeDegrees>-2.9115373827517032623291015625</LongitudeDegrees>
            </Position>
            <AltitudeMeters>-38.40000152587890625</AltitudeMeters>
            <DistanceMeters>NAN</DistanceMeters>
          </Trackpoint>
          <Trackpoint>
            <Time>2022-09-24T16:16:38.000Z</Time>
            <Position>
              <LatitudeDegrees>43.36989576928317546844482421875</LatitudeDegrees>
              <LongitudeDegrees>-2.91158641688525676727294921875</LongitudeDegrees>
            </Position>
            <AltitudeMeters>-38.59999847412109375</AltitudeMeters>
            <DistanceMeters>NAN</DistanceMeters>
          </Trackpoint>
          <Trackpoint>
            <Time>2022-09-24T16:16:39.000Z</Time>
            <Position>
              <LatitudeDegrees>43.3698393590748310089111328125</LatitudeDegrees>
              <LongitudeDegrees>-2.9116396419703960418701171875</LongitudeDegrees>
            </Position>
            <AltitudeMeters>-38.59999847412109375</AltitudeMeters>
            <DistanceMeters>NAN</DistanceMeters>
          </Trackpoint>
          <Trackpoint>
            <Time>2022-09-24T16:16:40.000Z</Time>
            <Position>
              <LatitudeDegrees>43.36978127248585224151611328125</LatitudeDegrees>
              <LongitudeDegrees>-2.91169471107423305511474609375</LongitudeDegrees>
            </Position>
            <AltitudeMeters>-38.799999237060546875</AltitudeMeters>
            <DistanceMeters>NAN</DistanceMeters>
          </Trackpoint>
          <Trackpoint>
            <Time>2022-09-24T16:16:41.000Z</Time>
            <Position>
              <LatitudeDegrees>43.3697226829826831817626953125</LatitudeDegrees>
              <LongitudeDegrees>-2.911750115454196929931640625</LongitudeDegrees>
            </Position>
            <AltitudeMeters>-38.799999237060546875</AltitudeMeters>
            <DistanceMeters>NAN</DistanceMeters>
          </Trackpoint>
          <Trackpoint>
            <Time>2022-09-24T16:16:42.000Z</Time>
            <Position>
              <LatitudeDegrees>43.3696609921753406524658203125</LatitudeDegrees>
              <LongitudeDegrees>-2.91180887259542942047119140625</LongitudeDegrees>
            </Position>
            <AltitudeMeters>-38.59999847412109375</AltitudeMeters>
            <DistanceMeters>NAN</DistanceMeters>
          </Trackpoint>
          <Trackpoint>
            <Time>2022-09-24T16:16:43.000Z</Time>
            <Position>
              <LatitudeDegrees>43.369602151215076446533203125</LatitudeDegrees>
              <LongitudeDegrees>-2.9118696413934230804443359375</LongitudeDegrees>
            </Position>
            <AltitudeMeters>-38</AltitudeMeters>
            <DistanceMeters>NAN</DistanceMeters>
          </Trackpoint>
          <Trackpoint>
            <Time>2022-09-24T16:16:44.000Z</Time>
            <Position>
              <LatitudeDegrees>43.36954071186482906341552734375</LatitudeDegrees>
              <LongitudeDegrees>-2.91193242184817790985107421875</LongitudeDegrees>
            </Position>
            <AltitudeMeters>-37.799999237060546875</AltitudeMeters>
            <DistanceMeters>NAN</DistanceMeters>
          </Trackpoint>
          <Trackpoint>
            <Time>2022-09-24T16:16:45.000Z</Time>
            <Position>
              <LatitudeDegrees>43.36948270909488201141357421875</LatitudeDegrees>
              <LongitudeDegrees>-2.911990173161029815673828125</LongitudeDegrees>
            </Position>
            <AltitudeMeters>-37.799999237060546875</AltitudeMeters>
            <DistanceMeters>NAN</DistanceMeters>
          </Trackpoint>
          <Trackpoint>
            <Time>2022-09-24T16:16:46.000Z</Time>
            <Position>
              <LatitudeDegrees>43.369425125420093536376953125</LatitudeDegrees>
              <LongitudeDegrees>-2.91204758919775485992431640625</LongitudeDegrees>
            </Position>
            <AltitudeMeters>-37.799999237060546875</AltitudeMeters>
            <DistanceMeters>NAN</DistanceMeters>
          </Trackpoint>
          <Trackpoint>
            <Time>2022-09-24T16:16:47.000Z</Time>
            <Position>
              <LatitudeDegrees>43.36936821229755878448486328125</LatitudeDegrees>
              <LongitudeDegrees>-2.9121051728725433349609375</LongitudeDegrees>
            </Position>
            <AltitudeMeters>-37.40000152587890625</AltitudeMeters>
            <DistanceMeters>NAN</DistanceMeters>
          </Trackpoint>
          <Trackpoint>
            <Time>2022-09-24T16:16:48.000Z</Time>
            <Position>
              <LatitudeDegrees>43.36931222118437290191650390625</LatitudeDegrees>
              <LongitudeDegrees>-2.912161163985729217529296875</LongitudeDegrees>
            </Position>
            <AltitudeMeters>-37.200000762939453125</AltitudeMeters>
            <DistanceMeters>NAN</DistanceMeters>
          </Trackpoint>
          <Trackpoint>
            <Time>2022-09-24T16:16:49.000Z</Time>
            <Position>
              <LatitudeDegrees>43.36926008574664592742919921875</LatitudeDegrees>
              <LongitudeDegrees>-2.91222092695534229278564453125</LongitudeDegrees>
            </Position>
            <AltitudeMeters>-37.200000762939453125</AltitudeMeters>
            <DistanceMeters>NAN</DistanceMeters>
          </Trackpoint>
          <Trackpoint>
            <Time>2022-09-24T16:16:50.000Z</Time>
            <Position>
              <LatitudeDegrees>43.36921230889856815338134765625</LatitudeDegrees>
              <LongitudeDegrees>-2.91228429414331912994384765625</LongitudeDegrees>
            </Position>
            <AltitudeMeters>-37.200000762939453125</AltitudeMeters>
            <DistanceMeters>NAN</DistanceMeters>
          </Trackpoint>
          <Trackpoint>
            <Time>2022-09-24T16:16:51.000Z</Time>
            <Position>
              <LatitudeDegrees>43.3691704832017421722412109375</LatitudeDegrees>
              <LongitudeDegrees>-2.91235252283513545989990234375</LongitudeDegrees>
            </Position>
            <AltitudeMeters>-37.200000762939453125</AltitudeMeters>
            <DistanceMeters>NAN</DistanceMeters>
          </Trackpoint>
          <Trackpoint>
            <Time>2022-09-24T16:16:52.000Z</Time>
            <Position>
              <LatitudeDegrees>43.36913217790424823760986328125</LatitudeDegrees>
              <LongitudeDegrees>-2.91241974569857120513916015625</LongitudeDegrees>
            </Position>
            <AltitudeMeters>-37.200000762939453125</AltitudeMeters>
            <DistanceMeters>NAN</DistanceMeters>
          </Trackpoint>
          <Trackpoint>
            <Time>2022-09-24T16:16:53.000Z</Time>
            <Position>
              <LatitudeDegrees>43.36909630335867404937744140625</LatitudeDegrees>
              <LongitudeDegrees>-2.912487722933292388916015625</LongitudeDegrees>
            </Position>
            <AltitudeMeters>-37</AltitudeMeters>
            <DistanceMeters>NAN</DistanceMeters>
          </Trackpoint>
          <Trackpoint>
            <Time>2022-09-24T16:16:54.000Z</Time>
            <Position>
              <LatitudeDegrees>43.36906612850725650787353515625</LatitudeDegrees>
              <LongitudeDegrees>-2.91255419142544269561767578125</LongitudeDegrees>
            </Position>
            <AltitudeMeters>-36.200000762939453125</AltitudeMeters>
            <DistanceMeters>NAN</DistanceMeters>
          </Trackpoint>
          <Trackpoint>
            <Time>2022-09-24T16:16:55.000Z</Time>
            <Position>
              <LatitudeDegrees>43.36904165334999561309814453125</LatitudeDegrees>
              <LongitudeDegrees>-2.9126213304698467254638671875</LongitudeDegrees>
            </Position>
            <AltitudeMeters>-35.40000152587890625</AltitudeMeters>
            <DistanceMeters>NAN</DistanceMeters>
          </Trackpoint>
          <Trackpoint>
            <Time>2022-09-24T16:16:56.000Z</Time>
            <Position>
              <LatitudeDegrees>43.36901768110692501068115234375</LatitudeDegrees>
              <LongitudeDegrees>-2.91268922388553619384765625</LongitudeDegrees>
            </Position>
            <AltitudeMeters>-35.40000152587890625</AltitudeMeters>
            <DistanceMeters>NAN</DistanceMeters>
          </Trackpoint>
          <Trackpoint>
            <Time>2022-09-24T16:16:57.000Z</Time>
            <Position>
              <LatitudeDegrees>43.368995301425457000732421875</LatitudeDegrees>
              <LongitudeDegrees>-2.9127574525773525238037109375</LongitudeDegrees>
            </Position>
            <AltitudeMeters>-35.40000152587890625</AltitudeMeters>
            <DistanceMeters>NAN</DistanceMeters>
          </Trackpoint>
          <Trackpoint>
            <Time>2022-09-24T16:16:58.000Z</Time>
            <Position>
              <LatitudeDegrees>43.36897350847721099853515625</LatitudeDegrees>
              <LongitudeDegrees>-2.912822663784027099609375</LongitudeDegrees>
            </Position>
            <AltitudeMeters>-34.799999237060546875</AltitudeMeters>
            <DistanceMeters>NAN</DistanceMeters>
          </Trackpoint>
          <Trackpoint>
            <Time>2022-09-24T16:16:59.000Z</Time>
            <Position>
              <LatitudeDegrees>43.3689528889954090118408203125</LatitudeDegrees>
              <LongitudeDegrees>-2.91288510896265506744384765625</LongitudeDegrees>
            </Position>
            <AltitudeMeters>-34.799999237060546875</AltitudeMeters>
            <DistanceMeters>NAN</DistanceMeters>
          </Trackpoint>
          <Trackpoint>
            <Time>2022-09-24T16:17:00.000Z</Time>
            <Position>
              <LatitudeDegrees>43.36893260478973388671875</LatitudeDegrees>
              <LongitudeDegrees>-2.9129455424845218658447265625</LongitudeDegrees>
            </Position>
            <AltitudeMeters>-34.59999847412109375</AltitudeMeters>
            <DistanceMeters>NAN</DistanceMeters>
          </Trackpoint>
          <Trackpoint>
            <Time>2022-09-24T16:17:01.000Z</Time>
            <Position>
              <LatitudeDegrees>43.3689076267182826995849609375</LatitudeDegrees>
              <LongitudeDegrees>-2.9130032099783420562744140625</LongitudeDegrees>
            </Position>
            <AltitudeMeters>-34.59999847412109375</AltitudeMeters>
            <DistanceMeters>NAN</DistanceMeters>
          </Trackpoint>
          <Trackpoint>
            <Time>2022-09-24T16:17:02.000Z</Time>
            <Position>
              <LatitudeDegrees>43.368879295885562896728515625</LatitudeDegrees>
              <LongitudeDegrees>-2.91306196711957454681396484375</LongitudeDegrees>
            </Position>
            <AltitudeMeters>-34.40000152587890625</AltitudeMeters>
            <DistanceMeters>NAN</DistanceMeters>
          </Trackpoint>
          <Trackpoint>
            <Time>2022-09-24T16:17:03.000Z</Time>
            <Position>
              <LatitudeDegrees>43.36885121650993824005126953125</LatitudeDegrees>
              <LongitudeDegrees>-2.91312332265079021453857421875</LongitudeDegrees>
            </Position>
            <AltitudeMeters>-34.40000152587890625</AltitudeMeters>
            <DistanceMeters>NAN</DistanceMeters>
          </Trackpoint>
          <Trackpoint>
            <Time>2022-09-24T16:17:04.000Z</Time>
            <Position>
              <LatitudeDegrees>43.36883411742746829986572265625</LatitudeDegrees>
              <LongitudeDegrees>-2.9131845943629741668701171875</LongitudeDegrees>
            </Position>
            <AltitudeMeters>-34.200000762939453125</AltitudeMeters>
            <DistanceMeters>NAN</DistanceMeters>
          </Trackpoint>
          <Trackpoint>
            <Time>2022-09-24T16:17:05.000Z</Time>
            <Position>
              <LatitudeDegrees>43.368818946182727813720703125</LatitudeDegrees>
              <LongitudeDegrees>-2.91323463432490825653076171875</LongitudeDegrees>
            </Position>
            <AltitudeMeters>-34</AltitudeMeters>
            <DistanceMeters>NAN</DistanceMeters>
          </Trackpoint>
          <Trackpoint>
            <Time>2022-09-24T16:17:06.000Z</Time>
            <Position>
              <LatitudeDegrees>43.36880142800509929656982421875</LatitudeDegrees>
              <LongitudeDegrees>-2.9133089818060398101806640625</LongitudeDegrees>
            </Position>
            <AltitudeMeters>-33.59999847412109375</AltitudeMeters>
            <DistanceMeters>NAN</DistanceMeters>
          </Trackpoint>
          <Trackpoint>
            <Time>2022-09-24T16:17:07.000Z</Time>
            <Position>
              <LatitudeDegrees>43.36880142800509929656982421875</LatitudeDegrees>
              <LongitudeDegrees>-2.9133089818060398101806640625</LongitudeDegrees>
            </Position>
            <AltitudeMeters>-33.59999847412109375</AltitudeMeters>
            <DistanceMeters>NAN</DistanceMeters>
          </Trackpoint>
          <Trackpoint>
            <Time>2022-09-24T16:17:08.000Z</Time>
            <Position>
              <LatitudeDegrees>43.368769325315952301025390625</LatitudeDegrees>
              <LongitudeDegrees>-2.91343429125845432281494140625</LongitudeDegrees>
            </Position>
            <AltitudeMeters>-33.59999847412109375</AltitudeMeters>
            <DistanceMeters>NAN</DistanceMeters>
          </Trackpoint>
          <Trackpoint>
            <Time>2022-09-24T16:17:09.000Z</Time>
            <Position>
              <LatitudeDegrees>43.368743173778057098388671875</LatitudeDegrees>
              <LongitudeDegrees>-2.91349749080836772918701171875</LongitudeDegrees>
            </Position>
            <AltitudeMeters>-32.799999237060546875</AltitudeMeters>
            <DistanceMeters>NAN</DistanceMeters>
          </Trackpoint>
          <Trackpoint>
            <Time>2022-09-24T16:17:10.000Z</Time>
            <Position>
              <LatitudeDegrees>43.36871375329792499542236328125</LatitudeDegrees>
              <LongitudeDegrees>-2.91355834342539310455322265625</LongitudeDegrees>
            </Position>
            <AltitudeMeters>-32.799999237060546875</AltitudeMeters>
            <DistanceMeters>NAN</DistanceMeters>
          </Trackpoint>
          <Trackpoint>
            <Time>2022-09-24T16:17:11.000Z</Time>
            <Position>
              <LatitudeDegrees>43.36869028396904468536376953125</LatitudeDegrees>
              <LongitudeDegrees>-2.91362439282238483428955078125</LongitudeDegrees>
            </Position>
            <AltitudeMeters>-32.799999237060546875</AltitudeMeters>
            <DistanceMeters>NAN</DistanceMeters>
          </Trackpoint>
          <Trackpoint>
            <Time>2022-09-24T16:17:12.000Z</Time>
            <Position>
              <LatitudeDegrees>43.3686689101159572601318359375</LatitudeDegrees>
              <LongitudeDegrees>-2.91369429789483547210693359375</LongitudeDegrees>
            </Position>
            <AltitudeMeters>-32.799999237060546875</AltitudeMeters>
            <DistanceMeters>NAN</DistanceMeters>
          </Trackpoint>
          <Trackpoint>
            <Time>2022-09-24T16:17:13.000Z</Time>
            <Position>
              <LatitudeDegrees>43.36863663978874683380126953125</LatitudeDegrees>
              <LongitudeDegrees>-2.9137817211449146270751953125</LongitudeDegrees>
            </Position>
            <AltitudeMeters>-33.40000152587890625</AltitudeMeters>
            <DistanceMeters>NAN</DistanceMeters>
          </Trackpoint>
          <Trackpoint>
            <Time>2022-09-24T16:17:14.000Z</Time>
            <Position>
              <LatitudeDegrees>43.36861870251595973968505859375</LatitudeDegrees>
              <LongitudeDegrees>-2.91385070420801639556884765625</LongitudeDegrees>
            </Position>
            <AltitudeMeters>-33.40000152587890625</AltitudeMeters>
            <DistanceMeters>NAN</DistanceMeters>
          </Trackpoint>
          <Trackpoint>
            <Time>2022-09-24T16:17:15.000Z</Time>
            <Position>
              <LatitudeDegrees>43.36859473027288913726806640625</LatitudeDegrees>
              <LongitudeDegrees>-2.913943491876125335693359375</LongitudeDegrees>
            </Position>
            <AltitudeMeters>-33.59999847412109375</AltitudeMeters>
            <DistanceMeters>NAN</DistanceMeters>
          </Trackpoint>
          <Trackpoint>
            <Time>2022-09-24T16:17:16.000Z</Time>
            <Position>
              <LatitudeDegrees>43.3685716800391674041748046875</LatitudeDegrees>
              <LongitudeDegrees>-2.91404239833354949951171875</LongitudeDegrees>
            </Position>
            <AltitudeMeters>-33.799999237060546875</AltitudeMeters>
            <DistanceMeters>NAN</DistanceMeters>
          </Trackpoint>
          <Trackpoint>
            <Time>2022-09-24T16:17:17.000Z</Time>
            <Position>
              <LatitudeDegrees>43.36854678578674793243408203125</LatitudeDegrees>
              <LongitudeDegrees>-2.91414675302803516387939453125</LongitudeDegrees>
            </Position>
            <AltitudeMeters>-34.40000152587890625</AltitudeMeters>
            <DistanceMeters>NAN</DistanceMeters>
          </Trackpoint>
          <Trackpoint>
            <Time>2022-09-24T16:17:18.000Z</Time>
            <Position>
              <LatitudeDegrees>43.36851795203983783721923828125</LatitudeDegrees>
              <LongitudeDegrees>-2.91425638832151889801025390625</LongitudeDegrees>
            </Position>
            <AltitudeMeters>-34.40000152587890625</AltitudeMeters>
            <DistanceMeters>NAN</DistanceMeters>
          </Trackpoint>
          <Trackpoint>
            <Time>2022-09-24T16:17:19.000Z</Time>
            <Position>
              <LatitudeDegrees>43.3684858493506908416748046875</LatitudeDegrees>
              <LongitudeDegrees>-2.9143667779862880706787109375</LongitudeDegrees>
            </Position>
            <AltitudeMeters>-34.40000152587890625</AltitudeMeters>
            <DistanceMeters>NAN</DistanceMeters>
          </Trackpoint>
          <Trackpoint>
            <Time>2022-09-24T16:17:20.000Z</Time>
            <Position>
              <LatitudeDegrees>43.368453495204448699951171875</LatitudeDegrees>
              <LongitudeDegrees>-2.9144827835261821746826171875</LongitudeDegrees>
            </Position>
            <AltitudeMeters>-35</AltitudeMeters>
            <DistanceMeters>NAN</DistanceMeters>
          </Trackpoint>
          <Trackpoint>
            <Time>2022-09-24T16:17:21.000Z</Time>
            <Position>
              <LatitudeDegrees>43.36842139251530170440673828125</LatitudeDegrees>
              <LongitudeDegrees>-2.9146028123795986175537109375</LongitudeDegrees>
            </Position>
            <AltitudeMeters>-35</AltitudeMeters>
            <DistanceMeters>NAN</DistanceMeters>
          </Trackpoint>
          <Trackpoint>
            <Time>2022-09-24T16:17:22.000Z</Time>
            <Position>
              <LatitudeDegrees>43.36842139251530170440673828125</LatitudeDegrees>
              <LongitudeDegrees>-2.9146028123795986175537109375</LongitudeDegrees>
            </Position>
            <AltitudeMeters>-35.40000152587890625</AltitudeMeters>
            <DistanceMeters>NAN</DistanceMeters>
          </Trackpoint>
          <Trackpoint>
            <Time>2022-09-24T16:17:23.000Z</Time>
            <Position>
              <LatitudeDegrees>43.36839021183550357818603515625</LatitudeDegrees>
              <LongitudeDegrees>-2.9147282056510448455810546875</LongitudeDegrees>
            </Position>
            <AltitudeMeters>-36.200000762939453125</AltitudeMeters>
            <DistanceMeters>NAN</DistanceMeters>
          </Trackpoint>
          <Trackpoint>
            <Time>2022-09-24T16:17:24.000Z</Time>
            <Position>
              <LatitudeDegrees>43.36833153851330280303955078125</LatitudeDegrees>
              <LongitudeDegrees>-2.914988212287425994873046875</LongitudeDegrees>
            </Position>
            <AltitudeMeters>-37.40000152587890625</AltitudeMeters>
            <DistanceMeters>NAN</DistanceMeters>
          </Trackpoint>
          <Trackpoint>
            <Time>2022-09-24T16:17:25.000Z</Time>
            <Position>
              <LatitudeDegrees>43.36830505169928073883056640625</LatitudeDegrees>
              <LongitudeDegrees>-2.91509248316287994384765625</LongitudeDegrees>
            </Position>
            <AltitudeMeters>-37.59999847412109375</AltitudeMeters>
            <DistanceMeters>NAN</DistanceMeters>
          </Trackpoint>
          <Trackpoint>
            <Time>2022-09-24T16:17:26.000Z</Time>
            <Position>
              <LatitudeDegrees>43.36826381273567676544189453125</LatitudeDegrees>
              <LongitudeDegrees>-2.91525349952280521392822265625</LongitudeDegrees>
            </Position>
            <AltitudeMeters>-38.40000152587890625</AltitudeMeters>
            <DistanceMeters>NAN</DistanceMeters>
          </Trackpoint>
          <Trackpoint>
            <Time>2022-09-24T16:17:27.000Z</Time>
            <Position>
              <LatitudeDegrees>43.36822676472365856170654296875</LatitudeDegrees>
              <LongitudeDegrees>-2.91538760997354984283447265625</LongitudeDegrees>
            </Position>
            <AltitudeMeters>-38.799999237060546875</AltitudeMeters>
            <DistanceMeters>NAN</DistanceMeters>
          </Trackpoint>
          <Trackpoint>
            <Time>2022-09-24T16:17:28.000Z</Time>
            <Position>
              <LatitudeDegrees>43.368190638720989227294921875</LatitudeDegrees>
              <LongitudeDegrees>-2.91552607901394367218017578125</LongitudeDegrees>
            </Position>
            <AltitudeMeters>-39.59999847412109375</AltitudeMeters>
            <DistanceMeters>NAN</DistanceMeters>
          </Trackpoint>
          <Trackpoint>
            <Time>2022-09-24T16:17:29.000Z</Time>
            <Position>
              <LatitudeDegrees>43.3681668341159820556640625</LatitudeDegrees>
              <LongitudeDegrees>-2.9156431742012500762939453125</LongitudeDegrees>
            </Position>
            <AltitudeMeters>-39.59999847412109375</AltitudeMeters>
            <DistanceMeters>NAN</DistanceMeters>
          </Trackpoint>
          <Trackpoint>
            <Time>2022-09-24T16:17:30.000Z</Time>
            <Position>
              <LatitudeDegrees>43.368147052824497222900390625</LatitudeDegrees>
              <LongitudeDegrees>-2.91582078672945499420166015625</LongitudeDegrees>
            </Position>
            <AltitudeMeters>-40.200000762939453125</AltitudeMeters>
            <DistanceMeters>NAN</DistanceMeters>
          </Trackpoint>
          <Trackpoint>
            <Time>2022-09-24T16:17:31.000Z</Time>
            <Position>
              <LatitudeDegrees>43.3681499026715755462646484375</LatitudeDegrees>
              <LongitudeDegrees>-2.91597652249038219451904296875</LongitudeDegrees>
            </Position>
            <AltitudeMeters>-43.40000152587890625</AltitudeMeters>
            <DistanceMeters>NAN</DistanceMeters>
          </Trackpoint>
          <Trackpoint>
            <Time>2022-09-24T16:17:32.000Z</Time>
            <Position>
              <LatitudeDegrees>43.36816339753568172454833984375</LatitudeDegrees>
              <LongitudeDegrees>-2.91612722910940647125244140625</LongitudeDegrees>
            </Position>
            <AltitudeMeters>-44.40000152587890625</AltitudeMeters>
            <DistanceMeters>NAN</DistanceMeters>
          </Trackpoint>
          <Trackpoint>
            <Time>2022-09-24T16:17:33.000Z</Time>
            <Position>
              <LatitudeDegrees>43.36818569339811801910400390625</LatitudeDegrees>
              <LongitudeDegrees>-2.9162775166332721710205078125</LongitudeDegrees>
            </Position>
            <AltitudeMeters>-45.200000762939453125</AltitudeMeters>
            <DistanceMeters>NAN</DistanceMeters>
          </Trackpoint>
          <Trackpoint>
            <Time>2022-09-24T16:17:34.000Z</Time>
            <Position>
              <LatitudeDegrees>43.36821335367858409881591796875</LatitudeDegrees>
              <LongitudeDegrees>-2.91642897762358188629150390625</LongitudeDegrees>
            </Position>
            <AltitudeMeters>-45.799999237060546875</AltitudeMeters>
            <DistanceMeters>NAN</DistanceMeters>
          </Trackpoint>
          <Trackpoint>
            <Time>2022-09-24T16:17:35.000Z</Time>
            <Position>
              <LatitudeDegrees>43.3682437799870967864990234375</LatitudeDegrees>
              <LongitudeDegrees>-2.91658052243292331695556640625</LongitudeDegrees>
            </Position>
            <AltitudeMeters>-46.59999847412109375</AltitudeMeters>
            <DistanceMeters>NAN</DistanceMeters>
          </Trackpoint>
          <Trackpoint>
            <Time>2022-09-24T16:17:36.000Z</Time>
            <Position>
              <LatitudeDegrees>43.36827470920979976654052734375</LatitudeDegrees>
              <LongitudeDegrees>-2.91673600673675537109375</LongitudeDegrees>
            </Position>
            <AltitudeMeters>-48.59999847412109375</AltitudeMeters>
            <DistanceMeters>NAN</DistanceMeters>
          </Trackpoint>
          <Trackpoint>
            <Time>2022-09-24T16:17:37.000Z</Time>
            <Position>
              <LatitudeDegrees>43.36830429732799530029296875</LatitudeDegrees>
              <LongitudeDegrees>-2.91688981465995311737060546875</LongitudeDegrees>
            </Position>
            <AltitudeMeters>-48.799999237060546875</AltitudeMeters>
            <DistanceMeters>NAN</DistanceMeters>
          </Trackpoint>
          <Trackpoint>
            <Time>2022-09-24T16:17:38.000Z</Time>
            <Position>
              <LatitudeDegrees>43.36833111941814422607421875</LatitudeDegrees>
              <LongitudeDegrees>-2.91704487986862659454345703125</LongitudeDegrees>
            </Position>
            <AltitudeMeters>-49.200000762939453125</AltitudeMeters>
            <DistanceMeters>NAN</DistanceMeters>
          </Trackpoint>
          <Trackpoint>
            <Time>2022-09-24T16:17:39.000Z</Time>
            <Position>
              <LatitudeDegrees>43.3683547563850879669189453125</LatitudeDegrees>
              <LongitudeDegrees>-2.91719994507730007171630859375</LongitudeDegrees>
            </Position>
            <AltitudeMeters>-49.200000762939453125</AltitudeMeters>
            <DistanceMeters>NAN</DistanceMeters>
          </Trackpoint>
          <Trackpoint>
            <Time>2022-09-24T16:17:40.000Z</Time>
            <Position>
              <LatitudeDegrees>43.36836992762982845306396484375</LatitudeDegrees>
              <LongitudeDegrees>-2.9173581115901470184326171875</LongitudeDegrees>
            </Position>
            <AltitudeMeters>-49.59999847412109375</AltitudeMeters>
            <DistanceMeters>NAN</DistanceMeters>
          </Trackpoint>
          <Trackpoint>
            <Time>2022-09-24T16:17:41.000Z</Time>
            <Position>
              <LatitudeDegrees>43.36836623959243297576904296875</LatitudeDegrees>
              <LongitudeDegrees>-2.91752046905457973480224609375</LongitudeDegrees>
            </Position>
            <AltitudeMeters>-50.200000762939453125</AltitudeMeters>
            <DistanceMeters>NAN</DistanceMeters>
          </Trackpoint>
          <Trackpoint>
            <Time>2022-09-24T16:17:42.000Z</Time>
            <Position>
              <LatitudeDegrees>43.3683369867503643035888671875</LatitudeDegrees>
              <LongitudeDegrees>-2.917672432959079742431640625</LongitudeDegrees>
            </Position>
            <AltitudeMeters>-50.200000762939453125</AltitudeMeters>
            <DistanceMeters>NAN</DistanceMeters>
          </Trackpoint>
          <Trackpoint>
            <Time>2022-09-24T16:17:43.000Z</Time>
            <Position>
              <LatitudeDegrees>43.36828887462615966796875</LatitudeDegrees>
              <LongitudeDegrees>-2.91780746541917324066162109375</LongitudeDegrees>
            </Position>
            <AltitudeMeters>-50.200000762939453125</AltitudeMeters>
            <DistanceMeters>NAN</DistanceMeters>
          </Trackpoint>
          <Trackpoint>
            <Time>2022-09-24T16:17:44.000Z</Time>
            <Position>
              <LatitudeDegrees>43.36822726763784885406494140625</LatitudeDegrees>
              <LongitudeDegrees>-2.91793160140514373779296875</LongitudeDegrees>
            </Position>
            <AltitudeMeters>-50.200000762939453125</AltitudeMeters>
            <DistanceMeters>NAN</DistanceMeters>
          </Trackpoint>
          <Trackpoint>
            <Time>2022-09-24T16:17:45.000Z</Time>
            <Position>
              <LatitudeDegrees>43.36815468035638332366943359375</LatitudeDegrees>
              <LongitudeDegrees>-2.91803712956607341766357421875</LongitudeDegrees>
            </Position>
            <AltitudeMeters>-50.200000762939453125</AltitudeMeters>
            <DistanceMeters>NAN</DistanceMeters>
          </Trackpoint>
          <Trackpoint>
            <Time>2022-09-24T16:17:46.000Z</Time>
            <Position>
              <LatitudeDegrees>43.36807429790496826171875</LatitudeDegrees>
              <LongitudeDegrees>-2.918136119842529296875</LongitudeDegrees>
            </Position>
            <AltitudeMeters>-50.200000762939453125</AltitudeMeters>
            <DistanceMeters>NAN</DistanceMeters>
          </Trackpoint>
          <Trackpoint>
            <Time>2022-09-24T16:17:47.000Z</Time>
            <Position>
              <LatitudeDegrees>43.36799156852066516876220703125</LatitudeDegrees>
              <LongitudeDegrees>-2.9182274825870990753173828125</LongitudeDegrees>
            </Position>
            <AltitudeMeters>-49.799999237060546875</AltitudeMeters>
            <DistanceMeters>NAN</DistanceMeters>
          </Trackpoint>
          <Trackpoint>
            <Time>2022-09-24T16:17:48.000Z</Time>
            <Position>
              <LatitudeDegrees>43.3679068274796009063720703125</LatitudeDegrees>
              <LongitudeDegrees>-2.91831725277006626129150390625</LongitudeDegrees>
            </Position>
            <AltitudeMeters>-49.799999237060546875</AltitudeMeters>
            <DistanceMeters>NAN</DistanceMeters>
          </Trackpoint>
          <Trackpoint>
            <Time>2022-09-24T16:17:49.000Z</Time>
            <Position>
              <LatitudeDegrees>43.36782284080982208251953125</LatitudeDegrees>
              <LongitudeDegrees>-2.91840911842882633209228515625</LongitudeDegrees>
            </Position>
            <AltitudeMeters>-49.799999237060546875</AltitudeMeters>
            <DistanceMeters>NAN</DistanceMeters>
          </Trackpoint>
          <Trackpoint>
            <Time>2022-09-24T16:17:50.000Z</Time>
            <Position>
              <LatitudeDegrees>43.367743380367755889892578125</LatitudeDegrees>
              <LongitudeDegrees>-2.91849620640277862548828125</LongitudeDegrees>
            </Position>
            <AltitudeMeters>-49.799999237060546875</AltitudeMeters>
            <DistanceMeters>NAN</DistanceMeters>
          </Trackpoint>
          <Trackpoint>
            <Time>2022-09-24T16:17:51.000Z</Time>
            <Position>
              <LatitudeDegrees>43.36766752414405345916748046875</LatitudeDegrees>
              <LongitudeDegrees>-2.91858010925352573394775390625</LongitudeDegrees>
            </Position>
            <AltitudeMeters>-49.59999847412109375</AltitudeMeters>
            <DistanceMeters>NAN</DistanceMeters>
          </Trackpoint>
          <Trackpoint>
            <Time>2022-09-24T16:17:52.000Z</Time>
            <Position>
              <LatitudeDegrees>43.3675933443009853363037109375</LatitudeDegrees>
              <LongitudeDegrees>-2.91866241954267024993896484375</LongitudeDegrees>
            </Position>
            <AltitudeMeters>-49</AltitudeMeters>
            <DistanceMeters>NAN</DistanceMeters>
          </Trackpoint>
          <Trackpoint>
            <Time>2022-09-24T16:17:53.000Z</Time>
            <Position>
              <LatitudeDegrees>43.3675236068665981292724609375</LatitudeDegrees>
              <LongitudeDegrees>-2.91874003596603870391845703125</LongitudeDegrees>
            </Position>
            <AltitudeMeters>-49</AltitudeMeters>
            <DistanceMeters>NAN</DistanceMeters>
          </Trackpoint>
          <Trackpoint>
            <Time>2022-09-24T16:17:54.000Z</Time>
            <Position>
              <LatitudeDegrees>43.36745395325124263763427734375</LatitudeDegrees>
              <LongitudeDegrees>-2.918813712894916534423828125</LongitudeDegrees>
            </Position>
            <AltitudeMeters>-48.799999237060546875</AltitudeMeters>
            <DistanceMeters>NAN</DistanceMeters>
          </Trackpoint>
          <Trackpoint>
            <Time>2022-09-24T16:17:55.000Z</Time>
            <Position>
              <LatitudeDegrees>43.3673864789307117462158203125</LatitudeDegrees>
              <LongitudeDegrees>-2.9188856296241283416748046875</LongitudeDegrees>
            </Position>
            <AltitudeMeters>-48.799999237060546875</AltitudeMeters>
            <DistanceMeters>NAN</DistanceMeters>
          </Trackpoint>
          <Trackpoint>
            <Time>2022-09-24T16:17:56.000Z</Time>
            <Position>
              <LatitudeDegrees>43.36732101626694202423095703125</LatitudeDegrees>
              <LongitudeDegrees>-2.9189563728868961334228515625</LongitudeDegrees>
            </Position>
            <AltitudeMeters>-48.59999847412109375</AltitudeMeters>
            <DistanceMeters>NAN</DistanceMeters>
          </Trackpoint>
          <Trackpoint>
            <Time>2022-09-24T16:17:57.000Z</Time>
            <Position>
              <LatitudeDegrees>43.367252536118030548095703125</LatitudeDegrees>
              <LongitudeDegrees>-2.91902770288288593292236328125</LongitudeDegrees>
            </Position>
            <AltitudeMeters>-48.59999847412109375</AltitudeMeters>
            <DistanceMeters>NAN</DistanceMeters>
          </Trackpoint>
          <Trackpoint>
            <Time>2022-09-24T16:17:58.000Z</Time>
            <Position>
              <LatitudeDegrees>43.3671849779784679412841796875</LatitudeDegrees>
              <LongitudeDegrees>-2.91909878142178058624267578125</LongitudeDegrees>
            </Position>
            <AltitudeMeters>-48.59999847412109375</AltitudeMeters>
            <DistanceMeters>NAN</DistanceMeters>
          </Trackpoint>
          <Trackpoint>
            <Time>2022-09-24T16:17:59.000Z</Time>
            <Position>
              <LatitudeDegrees>43.36711565963923931121826171875</LatitudeDegrees>
              <LongitudeDegrees>-2.9191709496080875396728515625</LongitudeDegrees>
            </Position>
            <AltitudeMeters>-48.200000762939453125</AltitudeMeters>
            <DistanceMeters>NAN</DistanceMeters>
          </Trackpoint>
          <Trackpoint>
            <Time>2022-09-24T16:18:00.000Z</Time>
            <Position>
              <LatitudeDegrees>43.3670475147664546966552734375</LatitudeDegrees>
              <LongitudeDegrees>-2.9192425310611724853515625</LongitudeDegrees>
            </Position>
            <AltitudeMeters>-48.200000762939453125</AltitudeMeters>
            <DistanceMeters>NAN</DistanceMeters>
          </Trackpoint>
          <Trackpoint>
            <Time>2022-09-24T16:18:01.000Z</Time>
            <Position>
              <LatitudeDegrees>43.36697752587497234344482421875</LatitudeDegrees>
              <LongitudeDegrees>-2.919310592114925384521484375</LongitudeDegrees>
            </Position>
            <AltitudeMeters>-48.200000762939453125</AltitudeMeters>
            <DistanceMeters>NAN</DistanceMeters>
          </Trackpoint>
          <Trackpoint>
            <Time>2022-09-24T16:18:02.000Z</Time>
            <Position>
              <LatitudeDegrees>43.366903178393840789794921875</LatitudeDegrees>
              <LongitudeDegrees>-2.919384352862834930419921875</LongitudeDegrees>
            </Position>
            <AltitudeMeters>-48.200000762939453125</AltitudeMeters>
            <DistanceMeters>NAN</DistanceMeters>
          </Trackpoint>
          <Trackpoint>
            <Time>2022-09-24T16:18:03.000Z</Time>
            <Position>
              <LatitudeDegrees>43.36683981120586395263671875</LatitudeDegrees>
              <LongitudeDegrees>-2.91945375502109527587890625</LongitudeDegrees>
            </Position>
            <AltitudeMeters>-48.200000762939453125</AltitudeMeters>
            <DistanceMeters>NAN</DistanceMeters>
          </Trackpoint>
          <Trackpoint>
            <Time>2022-09-24T16:18:04.000Z</Time>
            <Position>
              <LatitudeDegrees>43.36678692139685153961181640625</LatitudeDegrees>
              <LongitudeDegrees>-2.91952944360673427581787109375</LongitudeDegrees>
            </Position>
            <AltitudeMeters>-48.200000762939453125</AltitudeMeters>
            <DistanceMeters>NAN</DistanceMeters>
          </Trackpoint>
          <Trackpoint>
            <Time>2022-09-24T16:18:05.000Z</Time>
            <Position>
              <LatitudeDegrees>43.36673612706363201141357421875</LatitudeDegrees>
              <LongitudeDegrees>-2.9196059703826904296875</LongitudeDegrees>
            </Position>
            <AltitudeMeters>-48.200000762939453125</AltitudeMeters>
            <DistanceMeters>NAN</DistanceMeters>
          </Trackpoint>
          <Trackpoint>
            <Time>2022-09-24T16:18:06.000Z</Time>
            <Position>
              <LatitudeDegrees>43.36668633855879306793212890625</LatitudeDegrees>
              <LongitudeDegrees>-2.91968937031924724578857421875</LongitudeDegrees>
            </Position>
            <AltitudeMeters>-48.59999847412109375</AltitudeMeters>
            <DistanceMeters>NAN</DistanceMeters>
          </Trackpoint>
          <Trackpoint>
            <Time>2022-09-24T16:18:07.000Z</Time>
            <Position>
              <LatitudeDegrees>43.36664074100553989410400390625</LatitudeDegrees>
              <LongitudeDegrees>-2.9197845049202442169189453125</LongitudeDegrees>
            </Position>
            <AltitudeMeters>-48.59999847412109375</AltitudeMeters>
            <DistanceMeters>NAN</DistanceMeters>
          </Trackpoint>
          <Trackpoint>
            <Time>2022-09-24T16:18:08.000Z</Time>
            <Position>
              <LatitudeDegrees>43.366598077118396759033203125</LatitudeDegrees>
              <LongitudeDegrees>-2.9198810644447803497314453125</LongitudeDegrees>
            </Position>
            <AltitudeMeters>-48.59999847412109375</AltitudeMeters>
            <DistanceMeters>NAN</DistanceMeters>
          </Trackpoint>
          <Trackpoint>
            <Time>2022-09-24T16:18:09.000Z</Time>
            <Position>
              <LatitudeDegrees>43.3665687404572963714599609375</LatitudeDegrees>
              <LongitudeDegrees>-2.9199793003499507904052734375</LongitudeDegrees>
            </Position>
            <AltitudeMeters>-48.799999237060546875</AltitudeMeters>
            <DistanceMeters>NAN</DistanceMeters>
          </Trackpoint>
          <Trackpoint>
            <Time>2022-09-24T16:18:10.000Z</Time>
            <Position>
              <LatitudeDegrees>43.3665499649941921234130859375</LatitudeDegrees>
              <LongitudeDegrees>-2.9200778715312480926513671875</LongitudeDegrees>
            </Position>
            <AltitudeMeters>-48.799999237060546875</AltitudeMeters>
            <DistanceMeters>NAN</DistanceMeters>
          </Trackpoint>
          <Trackpoint>
            <Time>2022-09-24T16:18:11.000Z</Time>
            <Position>
              <LatitudeDegrees>43.36653881706297397613525390625</LatitudeDegrees>
              <LongitudeDegrees>-2.9201737605035305023193359375</LongitudeDegrees>
            </Position>
            <AltitudeMeters>-48.799999237060546875</AltitudeMeters>
            <DistanceMeters>NAN</DistanceMeters>
          </Trackpoint>
          <Trackpoint>
            <Time>2022-09-24T16:18:12.000Z</Time>
            <Position>
              <LatitudeDegrees>43.366534709930419921875</LatitudeDegrees>
              <LongitudeDegrees>-2.92026939801871776580810546875</LongitudeDegrees>
            </Position>
            <AltitudeMeters>-48.59999847412109375</AltitudeMeters>
            <DistanceMeters>NAN</DistanceMeters>
          </Trackpoint>
          <Trackpoint>
            <Time>2022-09-24T16:18:13.000Z</Time>
            <Position>
              <LatitudeDegrees>43.3665382303297519683837890625</LatitudeDegrees>
              <LongitudeDegrees>-2.9203645326197147369384765625</LongitudeDegrees>
            </Position>
            <AltitudeMeters>-48.40000152587890625</AltitudeMeters>
            <DistanceMeters>NAN</DistanceMeters>
          </Trackpoint>
          <Trackpoint>
            <Time>2022-09-24T16:18:14.000Z</Time>
            <Position>
              <LatitudeDegrees>43.36654745042324066162109375</LatitudeDegrees>
              <LongitudeDegrees>-2.92045832611620426177978515625</LongitudeDegrees>
            </Position>
            <AltitudeMeters>-48.200000762939453125</AltitudeMeters>
            <DistanceMeters>NAN</DistanceMeters>
          </Trackpoint>
          <Trackpoint>
            <Time>2022-09-24T16:18:15.000Z</Time>
            <Position>
              <LatitudeDegrees>43.366562537848949432373046875</LatitudeDegrees>
              <LongitudeDegrees>-2.92057181708514690399169921875</LongitudeDegrees>
            </Position>
            <AltitudeMeters>-48.200000762939453125</AltitudeMeters>
            <DistanceMeters>NAN</DistanceMeters>
          </Trackpoint>
          <Trackpoint>
            <Time>2022-09-24T16:18:16.000Z</Time>
            <Position>
              <LatitudeDegrees>43.3665747754275798797607421875</LatitudeDegrees>
              <LongitudeDegrees>-2.9206444881856441497802734375</LongitudeDegrees>
            </Position>
            <AltitudeMeters>-48</AltitudeMeters>
            <DistanceMeters>NAN</DistanceMeters>
          </Trackpoint>
          <Trackpoint>
            <Time>2022-09-24T16:18:17.000Z</Time>
            <Position>
              <LatitudeDegrees>43.3665915392339229583740234375</LatitudeDegrees>
              <LongitudeDegrees>-2.92073358781635761260986328125</LongitudeDegrees>
            </Position>
            <AltitudeMeters>-47.40000152587890625</AltitudeMeters>
            <DistanceMeters>NAN</DistanceMeters>
          </Trackpoint>
          <Trackpoint>
            <Time>2022-09-24T16:18:18.000Z</Time>
            <Position>
              <LatitudeDegrees>43.366608805954456329345703125</LatitudeDegrees>
              <LongitudeDegrees>-2.92082210071384906768798828125</LongitudeDegrees>
            </Position>
            <AltitudeMeters>-47.40000152587890625</AltitudeMeters>
            <DistanceMeters>NAN</DistanceMeters>
          </Trackpoint>
          <Trackpoint>
            <Time>2022-09-24T16:18:19.000Z</Time>
            <Position>
              <LatitudeDegrees>43.36662783287465572357177734375</LatitudeDegrees>
              <LongitudeDegrees>-2.92090390808880329132080078125</LongitudeDegrees>
            </Position>
            <AltitudeMeters>-47</AltitudeMeters>
            <DistanceMeters>NAN</DistanceMeters>
          </Trackpoint>
          <Trackpoint>
            <Time>2022-09-24T16:18:20.000Z</Time>
            <Position>
              <LatitudeDegrees>43.36664711125195026397705078125</LatitudeDegrees>
              <LongitudeDegrees>-2.92098320089280605316162109375</LongitudeDegrees>
            </Position>
            <AltitudeMeters>-47</AltitudeMeters>
            <DistanceMeters>NAN</DistanceMeters>
          </Trackpoint>
          <Trackpoint>
            <Time>2022-09-24T16:18:21.000Z</Time>
            <Position>
              <LatitudeDegrees>43.36666773073375225067138671875</LatitudeDegrees>
              <LongitudeDegrees>-2.9210588894784450531005859375</LongitudeDegrees>
            </Position>
            <AltitudeMeters>-46.59999847412109375</AltitudeMeters>
            <DistanceMeters>NAN</DistanceMeters>
          </Trackpoint>
          <Trackpoint>
            <Time>2022-09-24T16:18:22.000Z</Time>
            <Position>
              <LatitudeDegrees>43.36669036187231540679931640625</LatitudeDegrees>
              <LongitudeDegrees>-2.9211334884166717529296875</LongitudeDegrees>
            </Position>
            <AltitudeMeters>-46.40000152587890625</AltitudeMeters>
            <DistanceMeters>NAN</DistanceMeters>
          </Trackpoint>
          <Trackpoint>
            <Time>2022-09-24T16:18:23.000Z</Time>
            <Position>
              <LatitudeDegrees>43.36671584285795688629150390625</LatitudeDegrees>
              <LongitudeDegrees>-2.92120750062167644500732421875</LongitudeDegrees>
            </Position>
            <AltitudeMeters>-45</AltitudeMeters>
            <DistanceMeters>NAN</DistanceMeters>
          </Trackpoint>
          <Trackpoint>
            <Time>2022-09-24T16:18:24.000Z</Time>
            <Position>
              <LatitudeDegrees>43.3667360432446002960205078125</LatitudeDegrees>
              <LongitudeDegrees>-2.92128159664571285247802734375</LongitudeDegrees>
            </Position>
            <AltitudeMeters>-42.799999237060546875</AltitudeMeters>
            <DistanceMeters>NAN</DistanceMeters>
          </Trackpoint>
          <Trackpoint>
            <Time>2022-09-24T16:18:25.000Z</Time>
            <Position>
              <LatitudeDegrees>43.36675507016479969024658203125</LatitudeDegrees>
              <LongitudeDegrees>-2.9213546030223369598388671875</LongitudeDegrees>
            </Position>
            <AltitudeMeters>-42.799999237060546875</AltitudeMeters>
            <DistanceMeters>NAN</DistanceMeters>
          </Trackpoint>
          <Trackpoint>
            <Time>2022-09-24T16:18:26.000Z</Time>
            <Position>
              <LatitudeDegrees>43.36677401326596736907958984375</LatitudeDegrees>
              <LongitudeDegrees>-2.9214276932179927825927734375</LongitudeDegrees>
            </Position>
            <AltitudeMeters>-42.799999237060546875</AltitudeMeters>
            <DistanceMeters>NAN</DistanceMeters>
          </Trackpoint>
          <Trackpoint>
            <Time>2022-09-24T16:18:27.000Z</Time>
            <Position>
              <LatitudeDegrees>43.3667906932532787322998046875</LatitudeDegrees>
              <LongitudeDegrees>-2.92149893939495086669921875</LongitudeDegrees>
            </Position>
            <AltitudeMeters>-42.799999237060546875</AltitudeMeters>
            <DistanceMeters>NAN</DistanceMeters>
          </Trackpoint>
          <Trackpoint>
            <Time>2022-09-24T16:18:28.000Z</Time>
            <Position>
              <LatitudeDegrees>43.366803936660289764404296875</LatitudeDegrees>
              <LongitudeDegrees>-2.9215680062770843505859375</LongitudeDegrees>
            </Position>
            <AltitudeMeters>-42.799999237060546875</AltitudeMeters>
            <DistanceMeters>NAN</DistanceMeters>
          </Trackpoint>
          <Trackpoint>
            <Time>2022-09-24T16:18:29.000Z</Time>
            <Position>
              <LatitudeDegrees>43.36681558750569820404052734375</LatitudeDegrees>
              <LongitudeDegrees>-2.92163833044469356536865234375</LongitudeDegrees>
            </Position>
            <AltitudeMeters>-42.40000152587890625</AltitudeMeters>
            <DistanceMeters>NAN</DistanceMeters>
          </Trackpoint>
          <Trackpoint>
            <Time>2022-09-24T16:18:30.000Z</Time>
            <Position>
              <LatitudeDegrees>43.36682631634175777435302734375</LatitudeDegrees>
              <LongitudeDegrees>-2.92170815169811248779296875</LongitudeDegrees>
            </Position>
            <AltitudeMeters>-42.200000762939453125</AltitudeMeters>
            <DistanceMeters>NAN</DistanceMeters>
          </Trackpoint>
          <Trackpoint>
            <Time>2022-09-24T16:18:31.000Z</Time>
            <Position>
              <LatitudeDegrees>43.36683067493140697479248046875</LatitudeDegrees>
              <LongitudeDegrees>-2.9217780567705631256103515625</LongitudeDegrees>
            </Position>
            <AltitudeMeters>-42</AltitudeMeters>
            <DistanceMeters>NAN</DistanceMeters>
          </Trackpoint>
          <Trackpoint>
            <Time>2022-09-24T16:18:32.000Z</Time>
            <Position>
              <LatitudeDegrees>43.3668326027691364288330078125</LatitudeDegrees>
              <LongitudeDegrees>-2.92184553109109401702880859375</LongitudeDegrees>
            </Position>
            <AltitudeMeters>-41.40000152587890625</AltitudeMeters>
            <DistanceMeters>NAN</DistanceMeters>
          </Trackpoint>
          <Trackpoint>
            <Time>2022-09-24T16:18:33.000Z</Time>
            <Position>
              <LatitudeDegrees>43.3668362908065319061279296875</LatitudeDegrees>
              <LongitudeDegrees>-2.92191208340227603912353515625</LongitudeDegrees>
            </Position>
            <AltitudeMeters>-41.40000152587890625</AltitudeMeters>
            <DistanceMeters>NAN</DistanceMeters>
          </Trackpoint>
          <Trackpoint>
            <Time>2022-09-24T16:18:34.000Z</Time>
            <Position>
              <LatitudeDegrees>43.3668376319110393524169921875</LatitudeDegrees>
              <LongitudeDegrees>-2.92198014445602893829345703125</LongitudeDegrees>
            </Position>
            <AltitudeMeters>-41.200000762939453125</AltitudeMeters>
            <DistanceMeters>NAN</DistanceMeters>
          </Trackpoint>
          <Trackpoint>
            <Time>2022-09-24T16:18:35.000Z</Time>
            <Position>
              <LatitudeDegrees>43.36683218367397785186767578125</LatitudeDegrees>
              <LongitudeDegrees>-2.92205155827105045318603515625</LongitudeDegrees>
            </Position>
            <AltitudeMeters>-41.200000762939453125</AltitudeMeters>
            <DistanceMeters>NAN</DistanceMeters>
          </Trackpoint>
          <Trackpoint>
            <Time>2022-09-24T16:18:36.000Z</Time>
            <Position>
              <LatitudeDegrees>43.36681676097214221954345703125</LatitudeDegrees>
              <LongitudeDegrees>-2.92212548665702342987060546875</LongitudeDegrees>
            </Position>
            <AltitudeMeters>-41.200000762939453125</AltitudeMeters>
            <DistanceMeters>NAN</DistanceMeters>
          </Trackpoint>
          <Trackpoint>
            <Time>2022-09-24T16:18:37.000Z</Time>
            <Position>
              <LatitudeDegrees>43.36679765023291110992431640625</LatitudeDegrees>
              <LongitudeDegrees>-2.9222036898136138916015625</LongitudeDegrees>
            </Position>
            <AltitudeMeters>-41</AltitudeMeters>
            <DistanceMeters>NAN</DistanceMeters>
          </Trackpoint>
          <Trackpoint>
            <Time>2022-09-24T16:18:38.000Z</Time>
            <Position>
              <LatitudeDegrees>43.3667725883424282073974609375</LatitudeDegrees>
              <LongitudeDegrees>-2.92227736674249172210693359375</LongitudeDegrees>
            </Position>
            <AltitudeMeters>-41.200000762939453125</AltitudeMeters>
            <DistanceMeters>NAN</DistanceMeters>
          </Trackpoint>
          <Trackpoint>
            <Time>2022-09-24T16:18:39.000Z</Time>
            <Position>
              <LatitudeDegrees>43.36674325168132781982421875</LatitudeDegrees>
              <LongitudeDegrees>-2.92235414497554302215576171875</LongitudeDegrees>
            </Position>
            <AltitudeMeters>-41.200000762939453125</AltitudeMeters>
            <DistanceMeters>NAN</DistanceMeters>
          </Trackpoint>
          <Trackpoint>
            <Time>2022-09-24T16:18:40.000Z</Time>
            <Position>
              <LatitudeDegrees>43.36670712567865848541259765625</LatitudeDegrees>
              <LongitudeDegrees>-2.92242740280926227569580078125</LongitudeDegrees>
            </Position>
            <AltitudeMeters>-41.59999847412109375</AltitudeMeters>
            <DistanceMeters>NAN</DistanceMeters>
          </Trackpoint>
          <Trackpoint>
            <Time>2022-09-24T16:18:41.000Z</Time>
            <Position>
              <LatitudeDegrees>43.36666655726730823516845703125</LatitudeDegrees>
              <LongitudeDegrees>-2.92249881662428379058837890625</LongitudeDegrees>
            </Position>
            <AltitudeMeters>-41.59999847412109375</AltitudeMeters>
            <DistanceMeters>NAN</DistanceMeters>
          </Trackpoint>
          <Trackpoint>
            <Time>2022-09-24T16:18:42.000Z</Time>
            <Position>
              <LatitudeDegrees>43.3666247315704822540283203125</LatitudeDegrees>
              <LongitudeDegrees>-2.92257442139089107513427734375</LongitudeDegrees>
            </Position>
            <AltitudeMeters>-41.799999237060546875</AltitudeMeters>
            <DistanceMeters>NAN</DistanceMeters>
          </Trackpoint>
          <Trackpoint>
            <Time>2022-09-24T16:18:43.000Z</Time>
            <Position>
              <LatitudeDegrees>43.36658340878784656524658203125</LatitudeDegrees>
              <LongitudeDegrees>-2.92265086434781551361083984375</LongitudeDegrees>
            </Position>
            <AltitudeMeters>-41.799999237060546875</AltitudeMeters>
            <DistanceMeters>NAN</DistanceMeters>
          </Trackpoint>
          <Trackpoint>
            <Time>2022-09-24T16:18:44.000Z</Time>
            <Position>
              <LatitudeDegrees>43.3665399067103862762451171875</LatitudeDegrees>
              <LongitudeDegrees>-2.9227292351424694061279296875</LongitudeDegrees>
            </Position>
            <AltitudeMeters>-41.799999237060546875</AltitudeMeters>
            <DistanceMeters>NAN</DistanceMeters>
          </Trackpoint>
          <Trackpoint>
            <Time>2022-09-24T16:18:45.000Z</Time>
            <Position>
              <LatitudeDegrees>43.36649238131940364837646484375</LatitudeDegrees>
              <LongitudeDegrees>-2.92280542664229869842529296875</LongitudeDegrees>
            </Position>
            <AltitudeMeters>-42.40000152587890625</AltitudeMeters>
            <DistanceMeters>NAN</DistanceMeters>
          </Trackpoint>
          <Trackpoint>
            <Time>2022-09-24T16:18:46.000Z</Time>
            <Position>
              <LatitudeDegrees>43.366440832614898681640625</LatitudeDegrees>
              <LongitudeDegrees>-2.9228804446756839752197265625</LongitudeDegrees>
            </Position>
            <AltitudeMeters>-42.59999847412109375</AltitudeMeters>
            <DistanceMeters>NAN</DistanceMeters>
          </Trackpoint>
          <Trackpoint>
            <Time>2022-09-24T16:18:47.000Z</Time>
            <Position>
              <LatitudeDegrees>43.366389535367488861083984375</LatitudeDegrees>
              <LongitudeDegrees>-2.922953031957149505615234375</LongitudeDegrees>
            </Position>
            <AltitudeMeters>-42.799999237060546875</AltitudeMeters>
            <DistanceMeters>NAN</DistanceMeters>
          </Trackpoint>
          <Trackpoint>
            <Time>2022-09-24T16:18:48.000Z</Time>
            <Position>
              <LatitudeDegrees>43.36633882485330104827880859375</LatitudeDegrees>
              <LongitudeDegrees>-2.92302553541958332061767578125</LongitudeDegrees>
            </Position>
            <AltitudeMeters>-43.200000762939453125</AltitudeMeters>
            <DistanceMeters>NAN</DistanceMeters>
          </Trackpoint>
          <Trackpoint>
            <Time>2022-09-24T16:18:49.000Z</Time>
            <Position>
              <LatitudeDegrees>43.366301022469997406005859375</LatitudeDegrees>
              <LongitudeDegrees>-2.92308622039854526519775390625</LongitudeDegrees>
            </Position>
            <AltitudeMeters>-43.200000762939453125</AltitudeMeters>
            <DistanceMeters>NAN</DistanceMeters>
          </Trackpoint>
          <Trackpoint>
            <Time>2022-09-24T16:18:50.000Z</Time>
            <Position>
              <LatitudeDegrees>43.36624410934746265411376953125</LatitudeDegrees>
              <LongitudeDegrees>-2.9231768287718296051025390625</LongitudeDegrees>
            </Position>
            <AltitudeMeters>-43.40000152587890625</AltitudeMeters>
            <DistanceMeters>NAN</DistanceMeters>
          </Trackpoint>
          <Trackpoint>
            <Time>2022-09-24T16:18:51.000Z</Time>
            <Position>
              <LatitudeDegrees>43.3661962486803531646728515625</LatitudeDegrees>
              <LongitudeDegrees>-2.92325050570070743560791015625</LongitudeDegrees>
            </Position>
            <AltitudeMeters>-43.59999847412109375</AltitudeMeters>
            <DistanceMeters>NAN</DistanceMeters>
          </Trackpoint>
          <Trackpoint>
            <Time>2022-09-24T16:18:52.000Z</Time>
            <Position>
              <LatitudeDegrees>43.366147466003894805908203125</LatitudeDegrees>
              <LongitudeDegrees>-2.923320829868316650390625</LongitudeDegrees>
            </Position>
            <AltitudeMeters>-43.40000152587890625</AltitudeMeters>
            <DistanceMeters>NAN</DistanceMeters>
          </Trackpoint>
          <Trackpoint>
            <Time>2022-09-24T16:18:53.000Z</Time>
            <Position>
              <LatitudeDegrees>43.3660988509654998779296875</LatitudeDegrees>
              <LongitudeDegrees>-2.9233934171497821807861328125</LongitudeDegrees>
            </Position>
            <AltitudeMeters>-43.799999237060546875</AltitudeMeters>
            <DistanceMeters>NAN</DistanceMeters>
          </Trackpoint>
          <Trackpoint>
            <Time>2022-09-24T16:18:54.000Z</Time>
            <Position>
              <LatitudeDegrees>43.3660988509654998779296875</LatitudeDegrees>
              <LongitudeDegrees>-2.9233934171497821807861328125</LongitudeDegrees>
            </Position>
            <AltitudeMeters>-43.799999237060546875</AltitudeMeters>
            <DistanceMeters>NAN</DistanceMeters>
          </Trackpoint>
          <Trackpoint>
            <Time>2022-09-24T16:18:55.000Z</Time>
            <Position>
              <LatitudeDegrees>43.3660049736499786376953125</LatitudeDegrees>
              <LongitudeDegrees>-2.92352727614343166351318359375</LongitudeDegrees>
            </Position>
            <AltitudeMeters>-43.799999237060546875</AltitudeMeters>
            <DistanceMeters>NAN</DistanceMeters>
          </Trackpoint>
          <Trackpoint>
            <Time>2022-09-24T16:18:56.000Z</Time>
            <Position>
              <LatitudeDegrees>43.36596080102026462554931640625</LatitudeDegrees>
              <LongitudeDegrees>-2.92359148152172565460205078125</LongitudeDegrees>
            </Position>
            <AltitudeMeters>-43.59999847412109375</AltitudeMeters>
            <DistanceMeters>NAN</DistanceMeters>
          </Trackpoint>
          <Trackpoint>
            <Time>2022-09-24T16:18:57.000Z</Time>
            <Position>
              <LatitudeDegrees>43.36591235361993312835693359375</LatitudeDegrees>
              <LongitudeDegrees>-2.9236562736332416534423828125</LongitudeDegrees>
            </Position>
            <AltitudeMeters>-43.59999847412109375</AltitudeMeters>
            <DistanceMeters>NAN</DistanceMeters>
          </Trackpoint>
          <Trackpoint>
            <Time>2022-09-24T16:18:58.000Z</Time>
            <Position>
              <LatitudeDegrees>43.365866839885711669921875</LatitudeDegrees>
              <LongitudeDegrees>-2.9237206466495990753173828125</LongitudeDegrees>
            </Position>
            <AltitudeMeters>-43.40000152587890625</AltitudeMeters>
            <DistanceMeters>NAN</DistanceMeters>
          </Trackpoint>
          <Trackpoint>
            <Time>2022-09-24T16:18:59.000Z</Time>
            <Position>
              <LatitudeDegrees>43.3658318035304546356201171875</LatitudeDegrees>
              <LongitudeDegrees>-2.92377035133540630340576171875</LongitudeDegrees>
            </Position>
            <AltitudeMeters>-43.59999847412109375</AltitudeMeters>
            <DistanceMeters>NAN</DistanceMeters>
          </Trackpoint>
          <Trackpoint>
            <Time>2022-09-24T16:19:00.000Z</Time>
            <Position>
              <LatitudeDegrees>43.3657895587384700775146484375</LatitudeDegrees>
              <LongitudeDegrees>-2.9238306172192096710205078125</LongitudeDegrees>
            </Position>
            <AltitudeMeters>-43.40000152587890625</AltitudeMeters>
            <DistanceMeters>NAN</DistanceMeters>
          </Trackpoint>
          <Trackpoint>
            <Time>2022-09-24T16:19:01.000Z</Time>
            <Position>
              <LatitudeDegrees>43.36574907414615154266357421875</LatitudeDegrees>
              <LongitudeDegrees>-2.9238899610936641693115234375</LongitudeDegrees>
            </Position>
            <AltitudeMeters>-43.200000762939453125</AltitudeMeters>
            <DistanceMeters>NAN</DistanceMeters>
          </Trackpoint>
          <Trackpoint>
            <Time>2022-09-24T16:19:02.000Z</Time>
            <Position>
              <LatitudeDegrees>43.36574907414615154266357421875</LatitudeDegrees>
              <LongitudeDegrees>-2.9238899610936641693115234375</LongitudeDegrees>
            </Position>
            <AltitudeMeters>-43.200000762939453125</AltitudeMeters>
            <DistanceMeters>NAN</DistanceMeters>
          </Trackpoint>
          <Trackpoint>
            <Time>2022-09-24T16:19:03.000Z</Time>
            <Position>
              <LatitudeDegrees>43.36566341109573841094970703125</LatitudeDegrees>
              <LongitudeDegrees>-2.92401543818414211273193359375</LongitudeDegrees>
            </Position>
            <AltitudeMeters>-43.200000762939453125</AltitudeMeters>
            <DistanceMeters>NAN</DistanceMeters>
          </Trackpoint>
          <Trackpoint>
            <Time>2022-09-24T16:19:04.000Z</Time>
            <Position>
              <LatitudeDegrees>43.36563340388238430023193359375</LatitudeDegrees>
              <LongitudeDegrees>-2.9240575991570949554443359375</LongitudeDegrees>
            </Position>
            <AltitudeMeters>-43</AltitudeMeters>
            <DistanceMeters>NAN</DistanceMeters>
          </Trackpoint>
          <Trackpoint>
            <Time>2022-09-24T16:19:05.000Z</Time>
            <Position>
              <LatitudeDegrees>43.36559602059423923492431640625</LatitudeDegrees>
              <LongitudeDegrees>-2.92410545982420444488525390625</LongitudeDegrees>
            </Position>
            <AltitudeMeters>-43</AltitudeMeters>
            <DistanceMeters>NAN</DistanceMeters>
          </Trackpoint>
          <Trackpoint>
            <Time>2022-09-24T16:19:06.000Z</Time>
            <Position>
              <LatitudeDegrees>43.3655602298676967620849609375</LatitudeDegrees>
              <LongitudeDegrees>-2.92415441013872623443603515625</LongitudeDegrees>
            </Position>
            <AltitudeMeters>-42.799999237060546875</AltitudeMeters>
            <DistanceMeters>NAN</DistanceMeters>
          </Trackpoint>
          <Trackpoint>
            <Time>2022-09-24T16:19:07.000Z</Time>
            <Position>
              <LatitudeDegrees>43.36552863009274005889892578125</LatitudeDegrees>
              <LongitudeDegrees>-2.92420721612870693206787109375</LongitudeDegrees>
            </Position>
            <AltitudeMeters>-42.59999847412109375</AltitudeMeters>
            <DistanceMeters>NAN</DistanceMeters>
          </Trackpoint>
          <Trackpoint>
            <Time>2022-09-24T16:19:08.000Z</Time>
            <Position>
              <LatitudeDegrees>43.36549912579357624053955078125</LatitudeDegrees>
              <LongitudeDegrees>-2.9242609441280364990234375</LongitudeDegrees>
            </Position>
            <AltitudeMeters>-42.200000762939453125</AltitudeMeters>
            <DistanceMeters>NAN</DistanceMeters>
          </Trackpoint>
          <Trackpoint>
            <Time>2022-09-24T16:19:09.000Z</Time>
            <Position>
              <LatitudeDegrees>43.36549912579357624053955078125</LatitudeDegrees>
              <LongitudeDegrees>-2.9242609441280364990234375</LongitudeDegrees>
            </Position>
            <AltitudeMeters>-42.200000762939453125</AltitudeMeters>
            <DistanceMeters>NAN</DistanceMeters>
          </Trackpoint>
          <Trackpoint>
            <Time>2022-09-24T16:19:10.000Z</Time>
            <Position>
              <LatitudeDegrees>43.3654304780066013336181640625</LatitudeDegrees>
              <LongitudeDegrees>-2.9243690706789493560791015625</LongitudeDegrees>
            </Position>
            <AltitudeMeters>-42</AltitudeMeters>
            <DistanceMeters>NAN</DistanceMeters>
          </Trackpoint>
          <Trackpoint>
            <Time>2022-09-24T16:19:11.000Z</Time>
            <Position>
              <LatitudeDegrees>43.36540072225034236907958984375</LatitudeDegrees>
              <LongitudeDegrees>-2.924416176974773406982421875</LongitudeDegrees>
            </Position>
            <AltitudeMeters>-42</AltitudeMeters>
            <DistanceMeters>NAN</DistanceMeters>
          </Trackpoint>
          <Trackpoint>
            <Time>2022-09-24T16:19:12.000Z</Time>
            <Position>
              <LatitudeDegrees>43.3653714694082736968994140625</LatitudeDegrees>
              <LongitudeDegrees>-2.92446521110832691192626953125</LongitudeDegrees>
            </Position>
            <AltitudeMeters>-41.799999237060546875</AltitudeMeters>
            <DistanceMeters>NAN</DistanceMeters>
          </Trackpoint>
          <Trackpoint>
            <Time>2022-09-24T16:19:13.000Z</Time>
            <Position>
              <LatitudeDegrees>43.365347497165203094482421875</LatitudeDegrees>
              <LongitudeDegrees>-2.9245028458535671234130859375</LongitudeDegrees>
            </Position>
            <AltitudeMeters>-41.200000762939453125</AltitudeMeters>
            <DistanceMeters>NAN</DistanceMeters>
          </Trackpoint>
          <Trackpoint>
            <Time>2022-09-24T16:19:14.000Z</Time>
            <Position>
              <LatitudeDegrees>43.365347497165203094482421875</LatitudeDegrees>
              <LongitudeDegrees>-2.9245028458535671234130859375</LongitudeDegrees>
            </Position>
            <AltitudeMeters>-41.200000762939453125</AltitudeMeters>
            <DistanceMeters>NAN</DistanceMeters>
          </Trackpoint>
          <Trackpoint>
            <Time>2022-09-24T16:19:15.000Z</Time>
            <Position>
              <LatitudeDegrees>43.36527532897889614105224609375</LatitudeDegrees>
              <LongitudeDegrees>-2.92459932155907154083251953125</LongitudeDegrees>
            </Position>
            <AltitudeMeters>-41</AltitudeMeters>
            <DistanceMeters>NAN</DistanceMeters>
          </Trackpoint>
          <Trackpoint>
            <Time>2022-09-24T16:19:16.000Z</Time>
            <Position>
              <LatitudeDegrees>43.36524180136620998382568359375</LatitudeDegrees>
              <LongitudeDegrees>-2.92464324273169040679931640625</LongitudeDegrees>
            </Position>
            <AltitudeMeters>-40.799999237060546875</AltitudeMeters>
            <DistanceMeters>NAN</DistanceMeters>
          </Trackpoint>
          <Trackpoint>
            <Time>2022-09-24T16:19:17.000Z</Time>
            <Position>
              <LatitudeDegrees>43.3652162365615367889404296875</LatitudeDegrees>
              <LongitudeDegrees>-2.9246785305440425872802734375</LongitudeDegrees>
            </Position>
            <AltitudeMeters>-40.799999237060546875</AltitudeMeters>
            <DistanceMeters>NAN</DistanceMeters>
          </Trackpoint>
          <Trackpoint>
            <Time>2022-09-24T16:19:18.000Z</Time>
            <Position>
              <LatitudeDegrees>43.36518622934818267822265625</LatitudeDegrees>
              <LongitudeDegrees>-2.92472136206924915313720703125</LongitudeDegrees>
            </Position>
            <AltitudeMeters>-40.40000152587890625</AltitudeMeters>
            <DistanceMeters>NAN</DistanceMeters>
          </Trackpoint>
          <Trackpoint>
            <Time>2022-09-24T16:19:19.000Z</Time>
            <Position>
              <LatitudeDegrees>43.36515605449676513671875</LatitudeDegrees>
              <LongitudeDegrees>-2.92476452887058258056640625</LongitudeDegrees>
            </Position>
            <AltitudeMeters>-40</AltitudeMeters>
            <DistanceMeters>NAN</DistanceMeters>
          </Trackpoint>
          <Trackpoint>
            <Time>2022-09-24T16:19:20.000Z</Time>
            <Position>
              <LatitudeDegrees>43.36512722074985504150390625</LatitudeDegrees>
              <LongitudeDegrees>-2.92481289245188236236572265625</LongitudeDegrees>
            </Position>
            <AltitudeMeters>-39.799999237060546875</AltitudeMeters>
            <DistanceMeters>NAN</DistanceMeters>
          </Trackpoint>
          <Trackpoint>
            <Time>2022-09-24T16:19:21.000Z</Time>
            <Position>
              <LatitudeDegrees>43.3650982193648815155029296875</LatitudeDegrees>
              <LongitudeDegrees>-2.9248622618615627288818359375</LongitudeDegrees>
            </Position>
            <AltitudeMeters>-39.799999237060546875</AltitudeMeters>
            <DistanceMeters>NAN</DistanceMeters>
          </Trackpoint>
          <Trackpoint>
            <Time>2022-09-24T16:19:22.000Z</Time>
            <Position>
              <LatitudeDegrees>43.36506259627640247344970703125</LatitudeDegrees>
              <LongitudeDegrees>-2.92492202483117580413818359375</LongitudeDegrees>
            </Position>
            <AltitudeMeters>-39.40000152587890625</AltitudeMeters>
            <DistanceMeters>NAN</DistanceMeters>
          </Trackpoint>
          <Trackpoint>
            <Time>2022-09-24T16:19:23.000Z</Time>
            <Position>
              <LatitudeDegrees>43.36503468453884124755859375</LatitudeDegrees>
              <LongitudeDegrees>-2.92497332207858562469482421875</LongitudeDegrees>
            </Position>
            <AltitudeMeters>-39.40000152587890625</AltitudeMeters>
            <DistanceMeters>NAN</DistanceMeters>
          </Trackpoint>
          <Trackpoint>
            <Time>2022-09-24T16:19:24.000Z</Time>
            <Position>
              <LatitudeDegrees>43.36503468453884124755859375</LatitudeDegrees>
              <LongitudeDegrees>-2.92497332207858562469482421875</LongitudeDegrees>
            </Position>
            <AltitudeMeters>-39</AltitudeMeters>
            <DistanceMeters>NAN</DistanceMeters>
          </Trackpoint>
          <Trackpoint>
            <Time>2022-09-24T16:19:25.000Z</Time>
            <Position>
              <LatitudeDegrees>43.36498514749109745025634765625</LatitudeDegrees>
              <LongitudeDegrees>-2.92507306672632694244384765625</LongitudeDegrees>
            </Position>
            <AltitudeMeters>-39</AltitudeMeters>
            <DistanceMeters>NAN</DistanceMeters>
          </Trackpoint>
          <Trackpoint>
            <Time>2022-09-24T16:19:26.000Z</Time>
            <Position>
              <LatitudeDegrees>43.36495849303901195526123046875</LatitudeDegrees>
              <LongitudeDegrees>-2.9251219332218170166015625</LongitudeDegrees>
            </Position>
            <AltitudeMeters>-39</AltitudeMeters>
            <DistanceMeters>NAN</DistanceMeters>
          </Trackpoint>
          <Trackpoint>
            <Time>2022-09-24T16:19:27.000Z</Time>
            <Position>
              <LatitudeDegrees>43.3649359457194805145263671875</LatitudeDegrees>
              <LongitudeDegrees>-2.92515906505286693572998046875</LongitudeDegrees>
            </Position>
            <AltitudeMeters>-39</AltitudeMeters>
            <DistanceMeters>NAN</DistanceMeters>
          </Trackpoint>
          <Trackpoint>
            <Time>2022-09-24T16:19:28.000Z</Time>
            <Position>
              <LatitudeDegrees>43.36490836925804615020751953125</LatitudeDegrees>
              <LongitudeDegrees>-2.92520784772932529449462890625</LongitudeDegrees>
            </Position>
            <AltitudeMeters>-38</AltitudeMeters>
            <DistanceMeters>NAN</DistanceMeters>
          </Trackpoint>
          <Trackpoint>
            <Time>2022-09-24T16:19:29.000Z</Time>
            <Position>
              <LatitudeDegrees>43.3648812957108020782470703125</LatitudeDegrees>
              <LongitudeDegrees>-2.9252568818628787994384765625</LongitudeDegrees>
            </Position>
            <AltitudeMeters>-38</AltitudeMeters>
            <DistanceMeters>NAN</DistanceMeters>
          </Trackpoint>
          <Trackpoint>
            <Time>2022-09-24T16:19:30.000Z</Time>
            <Position>
              <LatitudeDegrees>43.36484785191714763641357421875</LatitudeDegrees>
              <LongitudeDegrees>-2.92531547136604785919189453125</LongitudeDegrees>
            </Position>
            <AltitudeMeters>-37.59999847412109375</AltitudeMeters>
            <DistanceMeters>NAN</DistanceMeters>
          </Trackpoint>
          <Trackpoint>
            <Time>2022-09-24T16:19:31.000Z</Time>
            <Position>
              <LatitudeDegrees>43.3648229576647281646728515625</LatitudeDegrees>
              <LongitudeDegrees>-2.9253526031970977783203125</LongitudeDegrees>
            </Position>
            <AltitudeMeters>-37.59999847412109375</AltitudeMeters>
            <DistanceMeters>NAN</DistanceMeters>
          </Trackpoint>
          <Trackpoint>
            <Time>2022-09-24T16:19:32.000Z</Time>
            <Position>
              <LatitudeDegrees>43.36479504592716693878173828125</LatitudeDegrees>
              <LongitudeDegrees>-2.925401218235492706298828125</LongitudeDegrees>
            </Position>
            <AltitudeMeters>-37.40000152587890625</AltitudeMeters>
            <DistanceMeters>NAN</DistanceMeters>
          </Trackpoint>
          <Trackpoint>
            <Time>2022-09-24T16:19:33.000Z</Time>
            <Position>
              <LatitudeDegrees>43.36476990021765232086181640625</LatitudeDegrees>
              <LongitudeDegrees>-2.92545025236904621124267578125</LongitudeDegrees>
            </Position>
            <AltitudeMeters>-37.40000152587890625</AltitudeMeters>
            <DistanceMeters>NAN</DistanceMeters>
          </Trackpoint>
          <Trackpoint>
            <Time>2022-09-24T16:19:34.000Z</Time>
            <Position>
              <LatitudeDegrees>43.36474609561264514923095703125</LatitudeDegrees>
              <LongitudeDegrees>-2.92550104670226573944091796875</LongitudeDegrees>
            </Position>
            <AltitudeMeters>-37.40000152587890625</AltitudeMeters>
            <DistanceMeters>NAN</DistanceMeters>
          </Trackpoint>
          <Trackpoint>
            <Time>2022-09-24T16:19:35.000Z</Time>
            <Position>
              <LatitudeDegrees>43.364720530807971954345703125</LatitudeDegrees>
              <LongitudeDegrees>-2.92556583881378173828125</LongitudeDegrees>
            </Position>
            <AltitudeMeters>-37.200000762939453125</AltitudeMeters>
            <DistanceMeters>NAN</DistanceMeters>
          </Trackpoint>
          <Trackpoint>
            <Time>2022-09-24T16:19:36.000Z</Time>
            <Position>
              <LatitudeDegrees>43.36470435373485088348388671875</LatitudeDegrees>
              <LongitudeDegrees>-2.9256116040050983428955078125</LongitudeDegrees>
            </Position>
            <AltitudeMeters>-37</AltitudeMeters>
            <DistanceMeters>NAN</DistanceMeters>
          </Trackpoint>
          <Trackpoint>
            <Time>2022-09-24T16:19:37.000Z</Time>
            <Position>
              <LatitudeDegrees>43.3646858297288417816162109375</LatitudeDegrees>
              <LongitudeDegrees>-2.92566767893731594085693359375</LongitudeDegrees>
            </Position>
            <AltitudeMeters>-37</AltitudeMeters>
            <DistanceMeters>NAN</DistanceMeters>
          </Trackpoint>
          <Trackpoint>
            <Time>2022-09-24T16:19:38.000Z</Time>
            <Position>
              <LatitudeDegrees>43.364668898284435272216796875</LatitudeDegrees>
              <LongitudeDegrees>-2.925739176571369171142578125</LongitudeDegrees>
            </Position>
            <AltitudeMeters>-36.799999237060546875</AltitudeMeters>
            <DistanceMeters>NAN</DistanceMeters>
          </Trackpoint>
          <Trackpoint>
            <Time>2022-09-24T16:19:39.000Z</Time>
            <Position>
              <LatitudeDegrees>43.3646585047245025634765625</LatitudeDegrees>
              <LongitudeDegrees>-2.9257953353226184844970703125</LongitudeDegrees>
            </Position>
            <AltitudeMeters>-36.799999237060546875</AltitudeMeters>
            <DistanceMeters>NAN</DistanceMeters>
          </Trackpoint>
          <Trackpoint>
            <Time>2022-09-24T16:19:40.000Z</Time>
            <Position>
              <LatitudeDegrees>43.36465087719261646270751953125</LatitudeDegrees>
              <LongitudeDegrees>-2.92585484683513641357421875</LongitudeDegrees>
            </Position>
            <AltitudeMeters>-36.59999847412109375</AltitudeMeters>
            <DistanceMeters>NAN</DistanceMeters>
          </Trackpoint>
          <Trackpoint>
            <Time>2022-09-24T16:19:41.000Z</Time>
            <Position>
              <LatitudeDegrees>43.3646479435265064239501953125</LatitudeDegrees>
              <LongitudeDegrees>-2.925914190709590911865234375</LongitudeDegrees>
            </Position>
            <AltitudeMeters>-36.40000152587890625</AltitudeMeters>
            <DistanceMeters>NAN</DistanceMeters>
          </Trackpoint>
          <Trackpoint>
            <Time>2022-09-24T16:19:42.000Z</Time>
            <Position>
              <LatitudeDegrees>43.36464601568877696990966796875</LatitudeDegrees>
              <LongitudeDegrees>-2.925961129367351531982421875</LongitudeDegrees>
            </Position>
            <AltitudeMeters>-36</AltitudeMeters>
            <DistanceMeters>NAN</DistanceMeters>
          </Trackpoint>
          <Trackpoint>
            <Time>2022-09-24T16:19:43.000Z</Time>
            <Position>
              <LatitudeDegrees>43.3646439202129840850830078125</LatitudeDegrees>
              <LongitudeDegrees>-2.926021479070186614990234375</LongitudeDegrees>
            </Position>
            <AltitudeMeters>-36</AltitudeMeters>
            <DistanceMeters>NAN</DistanceMeters>
          </Trackpoint>
          <Trackpoint>
            <Time>2022-09-24T16:19:44.000Z</Time>
            <Position>
              <LatitudeDegrees>43.3646435849368572235107421875</LatitudeDegrees>
              <LongitudeDegrees>-2.926079817116260528564453125</LongitudeDegrees>
            </Position>
            <AltitudeMeters>-35.799999237060546875</AltitudeMeters>
            <DistanceMeters>NAN</DistanceMeters>
          </Trackpoint>
          <Trackpoint>
            <Time>2022-09-24T16:19:45.000Z</Time>
            <Position>
              <LatitudeDegrees>43.36464903317391872406005859375</LatitudeDegrees>
              <LongitudeDegrees>-2.92613673023879528045654296875</LongitudeDegrees>
            </Position>
            <AltitudeMeters>-35.200000762939453125</AltitudeMeters>
            <DistanceMeters>NAN</DistanceMeters>
          </Trackpoint>
          <Trackpoint>
            <Time>2022-09-24T16:19:46.000Z</Time>
            <Position>
              <LatitudeDegrees>43.36465791799128055572509765625</LatitudeDegrees>
              <LongitudeDegrees>-2.92619992978870868682861328125</LongitudeDegrees>
            </Position>
            <AltitudeMeters>-35</AltitudeMeters>
            <DistanceMeters>NAN</DistanceMeters>
          </Trackpoint>
          <Trackpoint>
            <Time>2022-09-24T16:19:47.000Z</Time>
            <Position>
              <LatitudeDegrees>43.36466562934219837188720703125</LatitudeDegrees>
              <LongitudeDegrees>-2.9262526519596576690673828125</LongitudeDegrees>
            </Position>
            <AltitudeMeters>-34.799999237060546875</AltitudeMeters>
            <DistanceMeters>NAN</DistanceMeters>
          </Trackpoint>
          <Trackpoint>
            <Time>2022-09-24T16:19:48.000Z</Time>
            <Position>
              <LatitudeDegrees>43.36467929184436798095703125</LatitudeDegrees>
              <LongitudeDegrees>-2.92630545794963836669921875</LongitudeDegrees>
            </Position>
            <AltitudeMeters>-34.799999237060546875</AltitudeMeters>
            <DistanceMeters>NAN</DistanceMeters>
          </Trackpoint>
          <Trackpoint>
            <Time>2022-09-24T16:19:49.000Z</Time>
            <Position>
              <LatitudeDegrees>43.36469831876456737518310546875</LatitudeDegrees>
              <LongitudeDegrees>-2.92635717429220676422119140625</LongitudeDegrees>
            </Position>
            <AltitudeMeters>-34.59999847412109375</AltitudeMeters>
            <DistanceMeters>NAN</DistanceMeters>
          </Trackpoint>
          <Trackpoint>
            <Time>2022-09-24T16:19:50.000Z</Time>
            <Position>
              <LatitudeDegrees>43.36471089161932468414306640625</LatitudeDegrees>
              <LongitudeDegrees>-2.92640076018869876861572265625</LongitudeDegrees>
            </Position>
            <AltitudeMeters>-34.200000762939453125</AltitudeMeters>
            <DistanceMeters>NAN</DistanceMeters>
          </Trackpoint>
          <Trackpoint>
            <Time>2022-09-24T16:19:51.000Z</Time>
            <Position>
              <LatitudeDegrees>43.36473033763468265533447265625</LatitudeDegrees>
              <LongitudeDegrees>-2.92646312154829502105712890625</LongitudeDegrees>
            </Position>
            <AltitudeMeters>-34.200000762939453125</AltitudeMeters>
            <DistanceMeters>NAN</DistanceMeters>
          </Trackpoint>
          <Trackpoint>
            <Time>2022-09-24T16:19:52.000Z</Time>
            <Position>
              <LatitudeDegrees>43.3647528849542140960693359375</LatitudeDegrees>
              <LongitudeDegrees>-2.92650771327316761016845703125</LongitudeDegrees>
            </Position>
            <AltitudeMeters>-34.200000762939453125</AltitudeMeters>
            <DistanceMeters>NAN</DistanceMeters>
          </Trackpoint>
          <Trackpoint>
            <Time>2022-09-24T16:19:53.000Z</Time>
            <Position>
              <LatitudeDegrees>43.36477275006473064422607421875</LatitudeDegrees>
              <LongitudeDegrees>-2.926555573940277099609375</LongitudeDegrees>
            </Position>
            <AltitudeMeters>-33.799999237060546875</AltitudeMeters>
            <DistanceMeters>NAN</DistanceMeters>
          </Trackpoint>
          <Trackpoint>
            <Time>2022-09-24T16:19:54.000Z</Time>
            <Position>
              <LatitudeDegrees>43.3647964708507061004638671875</LatitudeDegrees>
              <LongitudeDegrees>-2.9266011714935302734375</LongitudeDegrees>
            </Position>
            <AltitudeMeters>-33.799999237060546875</AltitudeMeters>
            <DistanceMeters>NAN</DistanceMeters>
          </Trackpoint>
          <Trackpoint>
            <Time>2022-09-24T16:19:55.000Z</Time>
            <Position>
              <LatitudeDegrees>43.36482086218893527984619140625</LatitudeDegrees>
              <LongitudeDegrees>-2.9266440868377685546875</LongitudeDegrees>
            </Position>
            <AltitudeMeters>-33.59999847412109375</AltitudeMeters>
            <DistanceMeters>NAN</DistanceMeters>
          </Trackpoint>
          <Trackpoint>
            <Time>2022-09-24T16:19:56.000Z</Time>
            <Position>
              <LatitudeDegrees>43.3648410625755786895751953125</LatitudeDegrees>
              <LongitudeDegrees>-2.92668490670621395111083984375</LongitudeDegrees>
            </Position>
            <AltitudeMeters>-33.40000152587890625</AltitudeMeters>
            <DistanceMeters>NAN</DistanceMeters>
          </Trackpoint>
          <Trackpoint>
            <Time>2022-09-24T16:19:57.000Z</Time>
            <Position>
              <LatitudeDegrees>43.36485925130546092987060546875</LatitudeDegrees>
              <LongitudeDegrees>-2.92672681622207164764404296875</LongitudeDegrees>
            </Position>
            <AltitudeMeters>-33.40000152587890625</AltitudeMeters>
            <DistanceMeters>NAN</DistanceMeters>
          </Trackpoint>
          <Trackpoint>
            <Time>2022-09-24T16:19:58.000Z</Time>
            <Position>
              <LatitudeDegrees>43.3648816309869289398193359375</LatitudeDegrees>
              <LongitudeDegrees>-2.926768474280834197998046875</LongitudeDegrees>
            </Position>
            <AltitudeMeters>-33.40000152587890625</AltitudeMeters>
            <DistanceMeters>NAN</DistanceMeters>
          </Trackpoint>
          <Trackpoint>
            <Time>2022-09-24T16:19:59.000Z</Time>
            <Position>
              <LatitudeDegrees>43.36490618996322154998779296875</LatitudeDegrees>
              <LongitudeDegrees>-2.9268063604831695556640625</LongitudeDegrees>
            </Position>
            <AltitudeMeters>-33.40000152587890625</AltitudeMeters>
            <DistanceMeters>NAN</DistanceMeters>
          </Trackpoint>
          <Trackpoint>
            <Time>2022-09-24T16:20:00.000Z</Time>
            <Position>
              <LatitudeDegrees>43.36492605507373809814453125</LatitudeDegrees>
              <LongitudeDegrees>-2.92683997191488742828369140625</LongitudeDegrees>
            </Position>
            <AltitudeMeters>-33.200000762939453125</AltitudeMeters>
            <DistanceMeters>NAN</DistanceMeters>
          </Trackpoint>
          <Trackpoint>
            <Time>2022-09-24T16:20:01.000Z</Time>
            <Position>
              <LatitudeDegrees>43.36495698429644107818603515625</LatitudeDegrees>
              <LongitudeDegrees>-2.92689093388617038726806640625</LongitudeDegrees>
            </Position>
            <AltitudeMeters>-32.40000152587890625</AltitudeMeters>
            <DistanceMeters>NAN</DistanceMeters>
          </Trackpoint>
          <Trackpoint>
            <Time>2022-09-24T16:20:02.000Z</Time>
            <Position>
              <LatitudeDegrees>43.36497928015887737274169921875</LatitudeDegrees>
              <LongitudeDegrees>-2.92694122530519962310791015625</LongitudeDegrees>
            </Position>
            <AltitudeMeters>-32.200000762939453125</AltitudeMeters>
            <DistanceMeters>NAN</DistanceMeters>
          </Trackpoint>
          <Trackpoint>
            <Time>2022-09-24T16:20:03.000Z</Time>
            <Position>
              <LatitudeDegrees>43.36500409059226512908935546875</LatitudeDegrees>
              <LongitudeDegrees>-2.92698673903942108154296875</LongitudeDegrees>
            </Position>
            <AltitudeMeters>-32.200000762939453125</AltitudeMeters>
            <DistanceMeters>NAN</DistanceMeters>
          </Trackpoint>
          <Trackpoint>
            <Time>2022-09-24T16:20:04.000Z</Time>
            <Position>
              <LatitudeDegrees>43.36501884274184703826904296875</LatitudeDegrees>
              <LongitudeDegrees>-2.9270395450294017791748046875</LongitudeDegrees>
            </Position>
            <AltitudeMeters>-32</AltitudeMeters>
            <DistanceMeters>NAN</DistanceMeters>
          </Trackpoint>
          <Trackpoint>
            <Time>2022-09-24T16:20:05.000Z</Time>
            <Position>
              <LatitudeDegrees>43.36501884274184703826904296875</LatitudeDegrees>
              <LongitudeDegrees>-2.9270395450294017791748046875</LongitudeDegrees>
            </Position>
            <AltitudeMeters>-31.6000003814697265625</AltitudeMeters>
            <DistanceMeters>NAN</DistanceMeters>
          </Trackpoint>
          <Trackpoint>
            <Time>2022-09-24T16:20:06.000Z</Time>
            <Position>
              <LatitudeDegrees>43.36505907587707042694091796875</LatitudeDegrees>
              <LongitudeDegrees>-2.92712378315627574920654296875</LongitudeDegrees>
            </Position>
            <AltitudeMeters>-31.6000003814697265625</AltitudeMeters>
            <DistanceMeters>NAN</DistanceMeters>
          </Trackpoint>
          <Trackpoint>
            <Time>2022-09-24T16:20:07.000Z</Time>
            <Position>
              <LatitudeDegrees>43.36508220992982387542724609375</LatitudeDegrees>
              <LongitudeDegrees>-2.92716250754892826080322265625</LongitudeDegrees>
            </Position>
            <AltitudeMeters>-31.200000762939453125</AltitudeMeters>
            <DistanceMeters>NAN</DistanceMeters>
          </Trackpoint>
          <Trackpoint>
            <Time>2022-09-24T16:20:08.000Z</Time>
            <Position>
              <LatitudeDegrees>43.365106768906116485595703125</LatitudeDegrees>
              <LongitudeDegrees>-2.92720391415059566497802734375</LongitudeDegrees>
            </Position>
            <AltitudeMeters>-31.200000762939453125</AltitudeMeters>
            <DistanceMeters>NAN</DistanceMeters>
          </Trackpoint>
          <Trackpoint>
            <Time>2022-09-24T16:20:09.000Z</Time>
            <Position>
              <LatitudeDegrees>43.3651314117014408111572265625</LatitudeDegrees>
              <LongitudeDegrees>-2.92724750004708766937255859375</LongitudeDegrees>
            </Position>
            <AltitudeMeters>-31.200000762939453125</AltitudeMeters>
            <DistanceMeters>NAN</DistanceMeters>
          </Trackpoint>
          <Trackpoint>
            <Time>2022-09-24T16:20:10.000Z</Time>
            <Position>
              <LatitudeDegrees>43.3651552163064479827880859375</LatitudeDegrees>
              <LongitudeDegrees>-2.92728622443974018096923828125</LongitudeDegrees>
            </Position>
            <AltitudeMeters>-30.799999237060546875</AltitudeMeters>
            <DistanceMeters>NAN</DistanceMeters>
          </Trackpoint>
          <Trackpoint>
            <Time>2022-09-24T16:20:11.000Z</Time>
            <Position>
              <LatitudeDegrees>43.36517960764467716217041015625</LatitudeDegrees>
              <LongitudeDegrees>-2.92732126079499721527099609375</LongitudeDegrees>
            </Position>
            <AltitudeMeters>-30.3999996185302734375</AltitudeMeters>
            <DistanceMeters>NAN</DistanceMeters>
          </Trackpoint>
          <Trackpoint>
            <Time>2022-09-24T16:20:12.000Z</Time>
            <Position>
              <LatitudeDegrees>43.36520693264901638031005859375</LatitudeDegrees>
              <LongitudeDegrees>-2.9273604042828083038330078125</LongitudeDegrees>
            </Position>
            <AltitudeMeters>-30.3999996185302734375</AltitudeMeters>
            <DistanceMeters>NAN</DistanceMeters>
          </Trackpoint>
          <Trackpoint>
            <Time>2022-09-24T16:20:13.000Z</Time>
            <Position>
              <LatitudeDegrees>43.3652330003678798675537109375</LatitudeDegrees>
              <LongitudeDegrees>-2.92740382254123687744140625</LongitudeDegrees>
            </Position>
            <AltitudeMeters>-30.3999996185302734375</AltitudeMeters>
            <DistanceMeters>NAN</DistanceMeters>
          </Trackpoint>
          <Trackpoint>
            <Time>2022-09-24T16:20:14.000Z</Time>
            <Position>
              <LatitudeDegrees>43.3652591519057750701904296875</LatitudeDegrees>
              <LongitudeDegrees>-2.92744330130517482757568359375</LongitudeDegrees>
            </Position>
            <AltitudeMeters>-30</AltitudeMeters>
            <DistanceMeters>NAN</DistanceMeters>
          </Trackpoint>
          <Trackpoint>
            <Time>2022-09-24T16:20:15.000Z</Time>
            <Position>
              <LatitudeDegrees>43.3652816154062747955322265625</LatitudeDegrees>
              <LongitudeDegrees>-2.9274841211736202239990234375</LongitudeDegrees>
            </Position>
            <AltitudeMeters>-29.799999237060546875</AltitudeMeters>
            <DistanceMeters>NAN</DistanceMeters>
          </Trackpoint>
          <Trackpoint>
            <Time>2022-09-24T16:20:16.000Z</Time>
            <Position>
              <LatitudeDegrees>43.3653107844293117523193359375</LatitudeDegrees>
              <LongitudeDegrees>-2.92752049863338470458984375</LongitudeDegrees>
            </Position>
            <AltitudeMeters>-29.799999237060546875</AltitudeMeters>
            <DistanceMeters>NAN</DistanceMeters>
          </Trackpoint>
          <Trackpoint>
            <Time>2022-09-24T16:20:17.000Z</Time>
            <Position>
              <LatitudeDegrees>43.36533769033849239349365234375</LatitudeDegrees>
              <LongitudeDegrees>-2.92756165377795696258544921875</LongitudeDegrees>
            </Position>
            <AltitudeMeters>-29.6000003814697265625</AltitudeMeters>
            <DistanceMeters>NAN</DistanceMeters>
          </Trackpoint>
          <Trackpoint>
            <Time>2022-09-24T16:20:18.000Z</Time>
            <Position>
              <LatitudeDegrees>43.36536300368607044219970703125</LatitudeDegrees>
              <LongitudeDegrees>-2.92760725133121013641357421875</LongitudeDegrees>
            </Position>
            <AltitudeMeters>-29.3999996185302734375</AltitudeMeters>
            <DistanceMeters>NAN</DistanceMeters>
          </Trackpoint>
          <Trackpoint>
            <Time>2022-09-24T16:20:19.000Z</Time>
            <Position>
              <LatitudeDegrees>43.365387730300426483154296875</LatitudeDegrees>
              <LongitudeDegrees>-2.92764790356159210205078125</LongitudeDegrees>
            </Position>
            <AltitudeMeters>-29.3999996185302734375</AltitudeMeters>
            <DistanceMeters>NAN</DistanceMeters>
          </Trackpoint>
          <Trackpoint>
            <Time>2022-09-24T16:20:20.000Z</Time>
            <Position>
              <LatitudeDegrees>43.3654150553047657012939453125</LatitudeDegrees>
              <LongitudeDegrees>-2.92768545448780059814453125</LongitudeDegrees>
            </Position>
            <AltitudeMeters>-29.200000762939453125</AltitudeMeters>
            <DistanceMeters>NAN</DistanceMeters>
          </Trackpoint>
          <Trackpoint>
            <Time>2022-09-24T16:20:21.000Z</Time>
            <Position>
              <LatitudeDegrees>43.36544129066169261932373046875</LatitudeDegrees>
              <LongitudeDegrees>-2.927721329033374786376953125</LongitudeDegrees>
            </Position>
            <AltitudeMeters>-28.799999237060546875</AltitudeMeters>
            <DistanceMeters>NAN</DistanceMeters>
          </Trackpoint>
          <Trackpoint>
            <Time>2022-09-24T16:20:22.000Z</Time>
            <Position>
              <LatitudeDegrees>43.36546693928539752960205078125</LatitudeDegrees>
              <LongitudeDegrees>-2.92775812558829784393310546875</LongitudeDegrees>
            </Position>
            <AltitudeMeters>-28.799999237060546875</AltitudeMeters>
            <DistanceMeters>NAN</DistanceMeters>
          </Trackpoint>
          <Trackpoint>
            <Time>2022-09-24T16:20:23.000Z</Time>
            <Position>
              <LatitudeDegrees>43.36549066007137298583984375</LatitudeDegrees>
              <LongitudeDegrees>-2.92779550887644290924072265625</LongitudeDegrees>
            </Position>
            <AltitudeMeters>-28.6000003814697265625</AltitudeMeters>
            <DistanceMeters>NAN</DistanceMeters>
          </Trackpoint>
          <Trackpoint>
            <Time>2022-09-24T16:20:24.000Z</Time>
            <Position>
              <LatitudeDegrees>43.365513123571872711181640625</LatitudeDegrees>
              <LongitudeDegrees>-2.9278348200023174285888671875</LongitudeDegrees>
            </Position>
            <AltitudeMeters>-28.3999996185302734375</AltitudeMeters>
            <DistanceMeters>NAN</DistanceMeters>
          </Trackpoint>
          <Trackpoint>
            <Time>2022-09-24T16:20:25.000Z</Time>
            <Position>
              <LatitudeDegrees>43.36553701199591159820556640625</LatitudeDegrees>
              <LongitudeDegrees>-2.9278717003762722015380859375</LongitudeDegrees>
            </Position>
            <AltitudeMeters>-28.200000762939453125</AltitudeMeters>
            <DistanceMeters>NAN</DistanceMeters>
          </Trackpoint>
          <Trackpoint>
            <Time>2022-09-24T16:20:26.000Z</Time>
            <Position>
              <LatitudeDegrees>43.36556173861026763916015625</LatitudeDegrees>
              <LongitudeDegrees>-2.92790799401700496673583984375</LongitudeDegrees>
            </Position>
            <AltitudeMeters>-28.200000762939453125</AltitudeMeters>
            <DistanceMeters>NAN</DistanceMeters>
          </Trackpoint>
          <Trackpoint>
            <Time>2022-09-24T16:20:27.000Z</Time>
            <Position>
              <LatitudeDegrees>43.36558730341494083404541015625</LatitudeDegrees>
              <LongitudeDegrees>-2.92794085107743740081787109375</LongitudeDegrees>
            </Position>
            <AltitudeMeters>-28</AltitudeMeters>
            <DistanceMeters>NAN</DistanceMeters>
          </Trackpoint>
          <Trackpoint>
            <Time>2022-09-24T16:20:28.000Z</Time>
            <Position>
              <LatitudeDegrees>43.36561395786702632904052734375</LatitudeDegrees>
              <LongitudeDegrees>-2.927974797785282135009765625</LongitudeDegrees>
            </Position>
            <AltitudeMeters>-28</AltitudeMeters>
            <DistanceMeters>NAN</DistanceMeters>
          </Trackpoint>
          <Trackpoint>
            <Time>2022-09-24T16:20:29.000Z</Time>
            <Position>
              <LatitudeDegrees>43.36563692428171634674072265625</LatitudeDegrees>
              <LongitudeDegrees>-2.92801260016858577728271484375</LongitudeDegrees>
            </Position>
            <AltitudeMeters>-28</AltitudeMeters>
            <DistanceMeters>NAN</DistanceMeters>
          </Trackpoint>
          <Trackpoint>
            <Time>2022-09-24T16:20:30.000Z</Time>
            <Position>
              <LatitudeDegrees>43.3656598068773746490478515625</LatitudeDegrees>
              <LongitudeDegrees>-2.9280517436563968658447265625</LongitudeDegrees>
            </Position>
            <AltitudeMeters>-27.3999996185302734375</AltitudeMeters>
            <DistanceMeters>NAN</DistanceMeters>
          </Trackpoint>
          <Trackpoint>
            <Time>2022-09-24T16:20:31.000Z</Time>
            <Position>
              <LatitudeDegrees>43.365684784948825836181640625</LatitudeDegrees>
              <LongitudeDegrees>-2.92809021659195423126220703125</LongitudeDegrees>
            </Position>
            <AltitudeMeters>-27.200000762939453125</AltitudeMeters>
            <DistanceMeters>NAN</DistanceMeters>
          </Trackpoint>
          <Trackpoint>
            <Time>2022-09-24T16:20:32.000Z</Time>
            <Position>
              <LatitudeDegrees>43.365706913173198699951171875</LatitudeDegrees>
              <LongitudeDegrees>-2.9281312040984630584716796875</LongitudeDegrees>
            </Position>
            <AltitudeMeters>-27</AltitudeMeters>
            <DistanceMeters>NAN</DistanceMeters>
          </Trackpoint>
          <Trackpoint>
            <Time>2022-09-24T16:20:33.000Z</Time>
            <Position>
              <LatitudeDegrees>43.36572728119790554046630859375</LatitudeDegrees>
              <LongitudeDegrees>-2.928171940147876739501953125</LongitudeDegrees>
            </Position>
            <AltitudeMeters>-27</AltitudeMeters>
            <DistanceMeters>NAN</DistanceMeters>
          </Trackpoint>
          <Trackpoint>
            <Time>2022-09-24T16:20:34.000Z</Time>
            <Position>
              <LatitudeDegrees>43.3657476492226123809814453125</LatitudeDegrees>
              <LongitudeDegrees>-2.92821376584470272064208984375</LongitudeDegrees>
            </Position>
            <AltitudeMeters>-26.799999237060546875</AltitudeMeters>
            <DistanceMeters>NAN</DistanceMeters>
          </Trackpoint>
          <Trackpoint>
            <Time>2022-09-24T16:20:35.000Z</Time>
            <Position>
              <LatitudeDegrees>43.365765921771526336669921875</LatitudeDegrees>
              <LongitudeDegrees>-2.92825676500797271728515625</LongitudeDegrees>
            </Position>
            <AltitudeMeters>-26.6000003814697265625</AltitudeMeters>
            <DistanceMeters>NAN</DistanceMeters>
          </Trackpoint>
          <Trackpoint>
            <Time>2022-09-24T16:20:36.000Z</Time>
            <Position>
              <LatitudeDegrees>43.3657841943204402923583984375</LatitudeDegrees>
              <LongitudeDegrees>-2.92830060236155986785888671875</LongitudeDegrees>
            </Position>
            <AltitudeMeters>-26.200000762939453125</AltitudeMeters>
            <DistanceMeters>NAN</DistanceMeters>
          </Trackpoint>
          <Trackpoint>
            <Time>2022-09-24T16:20:37.000Z</Time>
            <Position>
              <LatitudeDegrees>43.36580372415482997894287109375</LatitudeDegrees>
              <LongitudeDegrees>-2.9283427633345127105712890625</LongitudeDegrees>
            </Position>
            <AltitudeMeters>-26.200000762939453125</AltitudeMeters>
            <DistanceMeters>NAN</DistanceMeters>
          </Trackpoint>
          <Trackpoint>
            <Time>2022-09-24T16:20:38.000Z</Time>
            <Position>
              <LatitudeDegrees>43.36582300253212451934814453125</LatitudeDegrees>
              <LongitudeDegrees>-2.9283826611936092376708984375</LongitudeDegrees>
            </Position>
            <AltitudeMeters>-26</AltitudeMeters>
            <DistanceMeters>NAN</DistanceMeters>
          </Trackpoint>
          <Trackpoint>
            <Time>2022-09-24T16:20:39.000Z</Time>
            <Position>
              <LatitudeDegrees>43.3658408559858798980712890625</LatitudeDegrees>
              <LongitudeDegrees>-2.9284279234707355499267578125</LongitudeDegrees>
            </Position>
            <AltitudeMeters>-26</AltitudeMeters>
            <DistanceMeters>NAN</DistanceMeters>
          </Trackpoint>
          <Trackpoint>
            <Time>2022-09-24T16:20:40.000Z</Time>
            <Position>
              <LatitudeDegrees>43.36585720069706439971923828125</LatitudeDegrees>
              <LongitudeDegrees>-2.92847259901463985443115234375</LongitudeDegrees>
            </Position>
            <AltitudeMeters>-26</AltitudeMeters>
            <DistanceMeters>NAN</DistanceMeters>
          </Trackpoint>
          <Trackpoint>
            <Time>2022-09-24T16:20:41.000Z</Time>
            <Position>
              <LatitudeDegrees>43.3658733777701854705810546875</LatitudeDegrees>
              <LongitudeDegrees>-2.9285137541592121124267578125</LongitudeDegrees>
            </Position>
            <AltitudeMeters>-25.799999237060546875</AltitudeMeters>
            <DistanceMeters>NAN</DistanceMeters>
          </Trackpoint>
          <Trackpoint>
            <Time>2022-09-24T16:20:42.000Z</Time>
            <Position>
              <LatitudeDegrees>43.3658898063004016876220703125</LatitudeDegrees>
              <LongitudeDegrees>-2.92855407111346721649169921875</LongitudeDegrees>
            </Position>
            <AltitudeMeters>-25.200000762939453125</AltitudeMeters>
            <DistanceMeters>NAN</DistanceMeters>
          </Trackpoint>
          <Trackpoint>
            <Time>2022-09-24T16:20:43.000Z</Time>
            <Position>
              <LatitudeDegrees>43.36590682156383991241455078125</LatitudeDegrees>
              <LongitudeDegrees>-2.92859363369643688201904296875</LongitudeDegrees>
            </Position>
            <AltitudeMeters>-25</AltitudeMeters>
            <DistanceMeters>NAN</DistanceMeters>
          </Trackpoint>
          <Trackpoint>
            <Time>2022-09-24T16:20:44.000Z</Time>
            <Position>
              <LatitudeDegrees>43.365924172103404998779296875</LatitudeDegrees>
              <LongitudeDegrees>-2.9286344535648822784423828125</LongitudeDegrees>
            </Position>
            <AltitudeMeters>-25</AltitudeMeters>
            <DistanceMeters>NAN</DistanceMeters>
          </Trackpoint>
          <Trackpoint>
            <Time>2022-09-24T16:20:45.000Z</Time>
            <Position>
              <LatitudeDegrees>43.365940935909748077392578125</LatitudeDegrees>
              <LongitudeDegrees>-2.92867912910878658294677734375</LongitudeDegrees>
            </Position>
            <AltitudeMeters>-25</AltitudeMeters>
            <DistanceMeters>NAN</DistanceMeters>
          </Trackpoint>
          <Trackpoint>
            <Time>2022-09-24T16:20:46.000Z</Time>
            <Position>
              <LatitudeDegrees>43.36595644243061542510986328125</LatitudeDegrees>
              <LongitudeDegrees>-2.928728163242340087890625</LongitudeDegrees>
            </Position>
            <AltitudeMeters>-24.799999237060546875</AltitudeMeters>
            <DistanceMeters>NAN</DistanceMeters>
          </Trackpoint>
          <Trackpoint>
            <Time>2022-09-24T16:20:47.000Z</Time>
            <Position>
              <LatitudeDegrees>43.3659719489514827728271484375</LatitudeDegrees>
              <LongitudeDegrees>-2.9287776164710521697998046875</LongitudeDegrees>
            </Position>
            <AltitudeMeters>-24.6000003814697265625</AltitudeMeters>
            <DistanceMeters>NAN</DistanceMeters>
          </Trackpoint>
          <Trackpoint>
            <Time>2022-09-24T16:20:48.000Z</Time>
            <Position>
              <LatitudeDegrees>43.36598661728203296661376953125</LatitudeDegrees>
              <LongitudeDegrees>-2.928823716938495635986328125</LongitudeDegrees>
            </Position>
            <AltitudeMeters>-24.3999996185302734375</AltitudeMeters>
            <DistanceMeters>NAN</DistanceMeters>
          </Trackpoint>
          <Trackpoint>
            <Time>2022-09-24T16:20:49.000Z</Time>
            <Position>
              <LatitudeDegrees>43.36600371636450290679931640625</LatitudeDegrees>
              <LongitudeDegrees>-2.928868643939495086669921875</LongitudeDegrees>
            </Position>
            <AltitudeMeters>-24.3999996185302734375</AltitudeMeters>
            <DistanceMeters>NAN</DistanceMeters>
          </Trackpoint>
          <Trackpoint>
            <Time>2022-09-24T16:20:50.000Z</Time>
            <Position>
              <LatitudeDegrees>43.36600371636450290679931640625</LatitudeDegrees>
              <LongitudeDegrees>-2.928868643939495086669921875</LongitudeDegrees>
            </Position>
            <AltitudeMeters>-24.200000762939453125</AltitudeMeters>
            <DistanceMeters>NAN</DistanceMeters>
          </Trackpoint>
          <Trackpoint>
            <Time>2022-09-24T16:20:51.000Z</Time>
            <Position>
              <LatitudeDegrees>43.36603808216750621795654296875</LatitudeDegrees>
              <LongitudeDegrees>-2.92896310798823833465576171875</LongitudeDegrees>
            </Position>
            <AltitudeMeters>-24.200000762939453125</AltitudeMeters>
            <DistanceMeters>NAN</DistanceMeters>
          </Trackpoint>
          <Trackpoint>
            <Time>2022-09-24T16:20:52.000Z</Time>
            <Position>
              <LatitudeDegrees>43.36605216376483440399169921875</LatitudeDegrees>
              <LongitudeDegrees>-2.92901054956018924713134765625</LongitudeDegrees>
            </Position>
            <AltitudeMeters>-23.799999237060546875</AltitudeMeters>
            <DistanceMeters>NAN</DistanceMeters>
          </Trackpoint>
          <Trackpoint>
            <Time>2022-09-24T16:20:53.000Z</Time>
            <Position>
              <LatitudeDegrees>43.36606741882860660552978515625</LatitudeDegrees>
              <LongitudeDegrees>-2.9290555603802204132080078125</LongitudeDegrees>
            </Position>
            <AltitudeMeters>-23.6000003814697265625</AltitudeMeters>
            <DistanceMeters>NAN</DistanceMeters>
          </Trackpoint>
          <Trackpoint>
            <Time>2022-09-24T16:20:54.000Z</Time>
            <Position>
              <LatitudeDegrees>43.366081416606903076171875</LatitudeDegrees>
              <LongitudeDegrees>-2.9291001521050930023193359375</LongitudeDegrees>
            </Position>
            <AltitudeMeters>-23.3999996185302734375</AltitudeMeters>
            <DistanceMeters>NAN</DistanceMeters>
          </Trackpoint>
          <Trackpoint>
            <Time>2022-09-24T16:20:55.000Z</Time>
            <Position>
              <LatitudeDegrees>43.36609390564262866973876953125</LatitudeDegrees>
              <LongitudeDegrees>-2.929147593677043914794921875</LongitudeDegrees>
            </Position>
            <AltitudeMeters>-23.200000762939453125</AltitudeMeters>
            <DistanceMeters>NAN</DistanceMeters>
          </Trackpoint>
          <Trackpoint>
            <Time>2022-09-24T16:20:56.000Z</Time>
            <Position>
              <LatitudeDegrees>43.366103880107402801513671875</LatitudeDegrees>
              <LongitudeDegrees>-2.92919897474348545074462890625</LongitudeDegrees>
            </Position>
            <AltitudeMeters>-23.200000762939453125</AltitudeMeters>
            <DistanceMeters>NAN</DistanceMeters>
          </Trackpoint>
          <Trackpoint>
            <Time>2022-09-24T16:20:57.000Z</Time>
            <Position>
              <LatitudeDegrees>43.36611418984830379486083984375</LatitudeDegrees>
              <LongitudeDegrees>-2.9292476736009120941162109375</LongitudeDegrees>
            </Position>
            <AltitudeMeters>-23</AltitudeMeters>
            <DistanceMeters>NAN</DistanceMeters>
          </Trackpoint>
          <Trackpoint>
            <Time>2022-09-24T16:20:58.000Z</Time>
            <Position>
              <LatitudeDegrees>43.36612366139888763427734375</LatitudeDegrees>
              <LongitudeDegrees>-2.92929771356284618377685546875</LongitudeDegrees>
            </Position>
            <AltitudeMeters>-23</AltitudeMeters>
            <DistanceMeters>NAN</DistanceMeters>
          </Trackpoint>
          <Trackpoint>
            <Time>2022-09-24T16:20:59.000Z</Time>
            <Position>
              <LatitudeDegrees>43.36613363586366176605224609375</LatitudeDegrees>
              <LongitudeDegrees>-2.92934968136250972747802734375</LongitudeDegrees>
            </Position>
            <AltitudeMeters>-23</AltitudeMeters>
            <DistanceMeters>NAN</DistanceMeters>
          </Trackpoint>
          <Trackpoint>
            <Time>2022-09-24T16:21:00.000Z</Time>
            <Position>
              <LatitudeDegrees>43.36614034138619899749755859375</LatitudeDegrees>
              <LongitudeDegrees>-2.9294008947908878326416015625</LongitudeDegrees>
            </Position>
            <AltitudeMeters>-23</AltitudeMeters>
            <DistanceMeters>NAN</DistanceMeters>
          </Trackpoint>
          <Trackpoint>
            <Time>2022-09-24T16:21:01.000Z</Time>
            <Position>
              <LatitudeDegrees>43.36614620871841907501220703125</LatitudeDegrees>
              <LongitudeDegrees>-2.9294505156576633453369140625</LongitudeDegrees>
            </Position>
            <AltitudeMeters>-22.6000003814697265625</AltitudeMeters>
            <DistanceMeters>NAN</DistanceMeters>
          </Trackpoint>
          <Trackpoint>
            <Time>2022-09-24T16:21:02.000Z</Time>
            <Position>
              <LatitudeDegrees>43.366153500974178314208984375</LatitudeDegrees>
              <LongitudeDegrees>-2.92949820868670940399169921875</LongitudeDegrees>
            </Position>
            <AltitudeMeters>-22.6000003814697265625</AltitudeMeters>
            <DistanceMeters>NAN</DistanceMeters>
          </Trackpoint>
          <Trackpoint>
            <Time>2022-09-24T16:21:03.000Z</Time>
            <Position>
              <LatitudeDegrees>43.3661590330302715301513671875</LatitudeDegrees>
              <LongitudeDegrees>-2.92954850010573863983154296875</LongitudeDegrees>
            </Position>
            <AltitudeMeters>-22</AltitudeMeters>
            <DistanceMeters>NAN</DistanceMeters>
          </Trackpoint>
          <Trackpoint>
            <Time>2022-09-24T16:21:04.000Z</Time>
            <Position>
              <LatitudeDegrees>43.3661590330302715301513671875</LatitudeDegrees>
              <LongitudeDegrees>-2.92954850010573863983154296875</LongitudeDegrees>
            </Position>
            <AltitudeMeters>-21.799999237060546875</AltitudeMeters>
            <DistanceMeters>NAN</DistanceMeters>
          </Trackpoint>
          <Trackpoint>
            <Time>2022-09-24T16:21:05.000Z</Time>
            <Position>
              <LatitudeDegrees>43.36616515181958675384521484375</LatitudeDegrees>
              <LongitudeDegrees>-2.9296513460576534271240234375</LongitudeDegrees>
            </Position>
            <AltitudeMeters>-21.6000003814697265625</AltitudeMeters>
            <DistanceMeters>NAN</DistanceMeters>
          </Trackpoint>
          <Trackpoint>
            <Time>2022-09-24T16:21:06.000Z</Time>
            <Position>
              <LatitudeDegrees>43.36617118678987026214599609375</LatitudeDegrees>
              <LongitudeDegrees>-2.92969970963895320892333984375</LongitudeDegrees>
            </Position>
            <AltitudeMeters>-21.200000762939453125</AltitudeMeters>
            <DistanceMeters>NAN</DistanceMeters>
          </Trackpoint>
          <Trackpoint>
            <Time>2022-09-24T16:21:07.000Z</Time>
            <Position>
              <LatitudeDegrees>43.3661778084933757781982421875</LatitudeDegrees>
              <LongitudeDegrees>-2.9297502525150775909423828125</LongitudeDegrees>
            </Position>
            <AltitudeMeters>-21.200000762939453125</AltitudeMeters>
            <DistanceMeters>NAN</DistanceMeters>
          </Trackpoint>
          <Trackpoint>
            <Time>2022-09-24T16:21:08.000Z</Time>
            <Position>
              <LatitudeDegrees>43.3661825023591518402099609375</LatitudeDegrees>
              <LongitudeDegrees>-2.92980263940989971160888671875</LongitudeDegrees>
            </Position>
            <AltitudeMeters>-21</AltitudeMeters>
            <DistanceMeters>NAN</DistanceMeters>
          </Trackpoint>
          <Trackpoint>
            <Time>2022-09-24T16:21:09.000Z</Time>
            <Position>
              <LatitudeDegrees>43.36618660949170589447021484375</LatitudeDegrees>
              <LongitudeDegrees>-2.9298545233905315399169921875</LongitudeDegrees>
            </Position>
            <AltitudeMeters>-20.799999237060546875</AltitudeMeters>
            <DistanceMeters>NAN</DistanceMeters>
          </Trackpoint>
          <Trackpoint>
            <Time>2022-09-24T16:21:10.000Z</Time>
            <Position>
              <LatitudeDegrees>43.3661935664713382720947265625</LatitudeDegrees>
              <LongitudeDegrees>-2.92990389280021190643310546875</LongitudeDegrees>
            </Position>
            <AltitudeMeters>-20.799999237060546875</AltitudeMeters>
            <DistanceMeters>NAN</DistanceMeters>
          </Trackpoint>
          <Trackpoint>
            <Time>2022-09-24T16:21:11.000Z</Time>
            <Position>
              <LatitudeDegrees>43.366201110184192657470703125</LatitudeDegrees>
              <LongitudeDegrees>-2.9299534298479557037353515625</LongitudeDegrees>
            </Position>
            <AltitudeMeters>-20.6000003814697265625</AltitudeMeters>
            <DistanceMeters>NAN</DistanceMeters>
          </Trackpoint>
          <Trackpoint>
            <Time>2022-09-24T16:21:12.000Z</Time>
            <Position>
              <LatitudeDegrees>43.36620722897350788116455078125</LatitudeDegrees>
              <LongitudeDegrees>-2.93000330217182636260986328125</LongitudeDegrees>
            </Position>
            <AltitudeMeters>-20.3999996185302734375</AltitudeMeters>
            <DistanceMeters>NAN</DistanceMeters>
          </Trackpoint>
          <Trackpoint>
            <Time>2022-09-24T16:21:13.000Z</Time>
            <Position>
              <LatitudeDegrees>43.3662130124866962432861328125</LatitudeDegrees>
              <LongitudeDegrees>-2.930054180324077606201171875</LongitudeDegrees>
            </Position>
            <AltitudeMeters>-20.3999996185302734375</AltitudeMeters>
            <DistanceMeters>NAN</DistanceMeters>
          </Trackpoint>
          <Trackpoint>
            <Time>2022-09-24T16:21:14.000Z</Time>
            <Position>
              <LatitudeDegrees>43.366220891475677490234375</LatitudeDegrees>
              <LongitudeDegrees>-2.93010086752474308013916015625</LongitudeDegrees>
            </Position>
            <AltitudeMeters>-19.799999237060546875</AltitudeMeters>
            <DistanceMeters>NAN</DistanceMeters>
          </Trackpoint>
          <Trackpoint>
            <Time>2022-09-24T16:21:15.000Z</Time>
            <Position>
              <LatitudeDegrees>43.36622717790305614471435546875</LatitudeDegrees>
              <LongitudeDegrees>-2.93014914728701114654541015625</LongitudeDegrees>
            </Position>
            <AltitudeMeters>-19.799999237060546875</AltitudeMeters>
            <DistanceMeters>NAN</DistanceMeters>
          </Trackpoint>
          <Trackpoint>
            <Time>2022-09-24T16:21:16.000Z</Time>
            <Position>
              <LatitudeDegrees>43.36623237468302249908447265625</LatitudeDegrees>
              <LongitudeDegrees>-2.9301968403160572052001953125</LongitudeDegrees>
            </Position>
            <AltitudeMeters>-19.799999237060546875</AltitudeMeters>
            <DistanceMeters>NAN</DistanceMeters>
          </Trackpoint>
          <Trackpoint>
            <Time>2022-09-24T16:21:17.000Z</Time>
            <Position>
              <LatitudeDegrees>43.36623773910105228424072265625</LatitudeDegrees>
              <LongitudeDegrees>-2.930242605507373809814453125</LongitudeDegrees>
            </Position>
            <AltitudeMeters>-19.200000762939453125</AltitudeMeters>
            <DistanceMeters>NAN</DistanceMeters>
          </Trackpoint>
          <Trackpoint>
            <Time>2022-09-24T16:21:18.000Z</Time>
            <Position>
              <LatitudeDegrees>43.36624260060489177703857421875</LatitudeDegrees>
              <LongitudeDegrees>-2.930289544165134429931640625</LongitudeDegrees>
            </Position>
            <AltitudeMeters>-19</AltitudeMeters>
            <DistanceMeters>NAN</DistanceMeters>
          </Trackpoint>
          <Trackpoint>
            <Time>2022-09-24T16:21:19.000Z</Time>
            <Position>
              <LatitudeDegrees>43.36625165306031703948974609375</LatitudeDegrees>
              <LongitudeDegrees>-2.930331118404865264892578125</LongitudeDegrees>
            </Position>
            <AltitudeMeters>-19</AltitudeMeters>
            <DistanceMeters>NAN</DistanceMeters>
          </Trackpoint>
          <Trackpoint>
            <Time>2022-09-24T16:21:20.000Z</Time>
            <Position>
              <LatitudeDegrees>43.36625953204929828643798828125</LatitudeDegrees>
              <LongitudeDegrees>-2.93037797324359416961669921875</LongitudeDegrees>
            </Position>
            <AltitudeMeters>-18.799999237060546875</AltitudeMeters>
            <DistanceMeters>NAN</DistanceMeters>
          </Trackpoint>
          <Trackpoint>
            <Time>2022-09-24T16:21:21.000Z</Time>
            <Position>
              <LatitudeDegrees>43.36626581847667694091796875</LatitudeDegrees>
              <LongitudeDegrees>-2.9304258339107036590576171875</LongitudeDegrees>
            </Position>
            <AltitudeMeters>-18.6000003814697265625</AltitudeMeters>
            <DistanceMeters>NAN</DistanceMeters>
          </Trackpoint>
          <Trackpoint>
            <Time>2022-09-24T16:21:22.000Z</Time>
            <Position>
              <LatitudeDegrees>43.36627378128468990325927734375</LatitudeDegrees>
              <LongitudeDegrees>-2.9304734431207180023193359375</LongitudeDegrees>
            </Position>
            <AltitudeMeters>-18.3999996185302734375</AltitudeMeters>
            <DistanceMeters>NAN</DistanceMeters>
          </Trackpoint>
          <Trackpoint>
            <Time>2022-09-24T16:21:23.000Z</Time>
            <Position>
              <LatitudeDegrees>43.3662847615778446197509765625</LatitudeDegrees>
              <LongitudeDegrees>-2.93051996268332004547119140625</LongitudeDegrees>
            </Position>
            <AltitudeMeters>-18.3999996185302734375</AltitudeMeters>
            <DistanceMeters>NAN</DistanceMeters>
          </Trackpoint>
          <Trackpoint>
            <Time>2022-09-24T16:21:24.000Z</Time>
            <Position>
              <LatitudeDegrees>43.3662985078990459442138671875</LatitudeDegrees>
              <LongitudeDegrees>-2.93056438677012920379638671875</LongitudeDegrees>
            </Position>
            <AltitudeMeters>-18.200000762939453125</AltitudeMeters>
            <DistanceMeters>NAN</DistanceMeters>
          </Trackpoint>
          <Trackpoint>
            <Time>2022-09-24T16:21:25.000Z</Time>
            <Position>
              <LatitudeDegrees>43.36631116457283496856689453125</LatitudeDegrees>
              <LongitudeDegrees>-2.93061216361820697784423828125</LongitudeDegrees>
            </Position>
            <AltitudeMeters>-18</AltitudeMeters>
            <DistanceMeters>NAN</DistanceMeters>
          </Trackpoint>
          <Trackpoint>
            <Time>2022-09-24T16:21:26.000Z</Time>
            <Position>
              <LatitudeDegrees>43.3663236536085605621337890625</LatitudeDegrees>
              <LongitudeDegrees>-2.930660359561443328857421875</LongitudeDegrees>
            </Position>
            <AltitudeMeters>-18</AltitudeMeters>
            <DistanceMeters>NAN</DistanceMeters>
          </Trackpoint>
          <Trackpoint>
            <Time>2022-09-24T16:21:27.000Z</Time>
            <Position>
              <LatitudeDegrees>43.3663348853588104248046875</LatitudeDegrees>
              <LongitudeDegrees>-2.93070754967629909515380859375</LongitudeDegrees>
            </Position>
            <AltitudeMeters>-17.799999237060546875</AltitudeMeters>
            <DistanceMeters>NAN</DistanceMeters>
          </Trackpoint>
          <Trackpoint>
            <Time>2022-09-24T16:21:28.000Z</Time>
            <Position>
              <LatitudeDegrees>43.36634754203259944915771484375</LatitudeDegrees>
              <LongitudeDegrees>-2.93075264431536197662353515625</LongitudeDegrees>
            </Position>
            <AltitudeMeters>-17.200000762939453125</AltitudeMeters>
            <DistanceMeters>NAN</DistanceMeters>
          </Trackpoint>
          <Trackpoint>
            <Time>2022-09-24T16:21:29.000Z</Time>
            <Position>
              <LatitudeDegrees>43.36636296473443508148193359375</LatitudeDegrees>
              <LongitudeDegrees>-2.93079237453639507293701171875</LongitudeDegrees>
            </Position>
            <AltitudeMeters>-17.200000762939453125</AltitudeMeters>
            <DistanceMeters>NAN</DistanceMeters>
          </Trackpoint>
          <Trackpoint>
            <Time>2022-09-24T16:21:30.000Z</Time>
            <Position>
              <LatitudeDegrees>43.3663793094456195831298828125</LatitudeDegrees>
              <LongitudeDegrees>-2.9308335296809673309326171875</LongitudeDegrees>
            </Position>
            <AltitudeMeters>-17</AltitudeMeters>
            <DistanceMeters>NAN</DistanceMeters>
          </Trackpoint>
          <Trackpoint>
            <Time>2022-09-24T16:21:31.000Z</Time>
            <Position>
              <LatitudeDegrees>43.36639431305229663848876953125</LatitudeDegrees>
              <LongitudeDegrees>-2.93087485246360301971435546875</LongitudeDegrees>
            </Position>
            <AltitudeMeters>-17</AltitudeMeters>
            <DistanceMeters>NAN</DistanceMeters>
          </Trackpoint>
          <Trackpoint>
            <Time>2022-09-24T16:21:32.000Z</Time>
            <Position>
              <LatitudeDegrees>43.3664098195731639862060546875</LatitudeDegrees>
              <LongitudeDegrees>-2.93091860599815845489501953125</LongitudeDegrees>
            </Position>
            <AltitudeMeters>-16.799999237060546875</AltitudeMeters>
            <DistanceMeters>NAN</DistanceMeters>
          </Trackpoint>
          <Trackpoint>
            <Time>2022-09-24T16:21:33.000Z</Time>
            <Position>
              <LatitudeDegrees>43.36642675101757049560546875</LatitudeDegrees>
              <LongitudeDegrees>-2.93095900677144527435302734375</LongitudeDegrees>
            </Position>
            <AltitudeMeters>-16.6000003814697265625</AltitudeMeters>
            <DistanceMeters>NAN</DistanceMeters>
          </Trackpoint>
          <Trackpoint>
            <Time>2022-09-24T16:21:34.000Z</Time>
            <Position>
              <LatitudeDegrees>43.366446532309055328369140625</LatitudeDegrees>
              <LongitudeDegrees>-2.93100611306726932525634765625</LongitudeDegrees>
            </Position>
            <AltitudeMeters>-16.6000003814697265625</AltitudeMeters>
            <DistanceMeters>NAN</DistanceMeters>
          </Trackpoint>
          <Trackpoint>
            <Time>2022-09-24T16:21:35.000Z</Time>
            <Position>
              <LatitudeDegrees>43.3664574287831783294677734375</LatitudeDegrees>
              <LongitudeDegrees>-2.9310393892228603363037109375</LongitudeDegrees>
            </Position>
            <AltitudeMeters>-16.200000762939453125</AltitudeMeters>
            <DistanceMeters>NAN</DistanceMeters>
          </Trackpoint>
          <Trackpoint>
            <Time>2022-09-24T16:21:36.000Z</Time>
            <Position>
              <LatitudeDegrees>43.36647461168467998504638671875</LatitudeDegrees>
              <LongitudeDegrees>-2.9310779459774494171142578125</LongitudeDegrees>
            </Position>
            <AltitudeMeters>-15.80000019073486328125</AltitudeMeters>
            <DistanceMeters>NAN</DistanceMeters>
          </Trackpoint>
          <Trackpoint>
            <Time>2022-09-24T16:21:37.000Z</Time>
            <Position>
              <LatitudeDegrees>43.3664912916719913482666015625</LatitudeDegrees>
              <LongitudeDegrees>-2.93111943639814853668212890625</LongitudeDegrees>
            </Position>
            <AltitudeMeters>-15.80000019073486328125</AltitudeMeters>
            <DistanceMeters>NAN</DistanceMeters>
          </Trackpoint>
          <Trackpoint>
            <Time>2022-09-24T16:21:38.000Z</Time>
            <Position>
              <LatitudeDegrees>43.3665087260305881500244140625</LatitudeDegrees>
              <LongitudeDegrees>-2.9311751760542392730712890625</LongitudeDegrees>
            </Position>
            <AltitudeMeters>-15.6000003814697265625</AltitudeMeters>
            <DistanceMeters>NAN</DistanceMeters>
          </Trackpoint>
          <Trackpoint>
            <Time>2022-09-24T16:21:39.000Z</Time>
            <Position>
              <LatitudeDegrees>43.3665214665234088897705078125</LatitudeDegrees>
              <LongitudeDegrees>-2.9312194325029850006103515625</LongitudeDegrees>
            </Position>
            <AltitudeMeters>-15.3999996185302734375</AltitudeMeters>
            <DistanceMeters>NAN</DistanceMeters>
          </Trackpoint>
          <Trackpoint>
            <Time>2022-09-24T16:21:40.000Z</Time>
            <Position>
              <LatitudeDegrees>43.36653529666364192962646484375</LatitudeDegrees>
              <LongitudeDegrees>-2.9312613420188426971435546875</LongitudeDegrees>
            </Position>
            <AltitudeMeters>-15.3999996185302734375</AltitudeMeters>
            <DistanceMeters>NAN</DistanceMeters>
          </Trackpoint>
          <Trackpoint>
            <Time>2022-09-24T16:21:41.000Z</Time>
            <Position>
              <LatitudeDegrees>43.3665452711284160614013671875</LatitudeDegrees>
              <LongitudeDegrees>-2.9312982223927974700927734375</LongitudeDegrees>
            </Position>
            <AltitudeMeters>-15.19999980926513671875</AltitudeMeters>
            <DistanceMeters>NAN</DistanceMeters>
          </Trackpoint>
          <Trackpoint>
            <Time>2022-09-24T16:21:42.000Z</Time>
            <Position>
              <LatitudeDegrees>43.36656061001121997833251953125</LatitudeDegrees>
              <LongitudeDegrees>-2.93133920989930629730224609375</LongitudeDegrees>
            </Position>
            <AltitudeMeters>-14.80000019073486328125</AltitudeMeters>
            <DistanceMeters>NAN</DistanceMeters>
          </Trackpoint>
          <Trackpoint>
            <Time>2022-09-24T16:21:43.000Z</Time>
            <Position>
              <LatitudeDegrees>43.3665791340172290802001953125</LatitudeDegrees>
              <LongitudeDegrees>-2.93139235116541385650634765625</LongitudeDegrees>
            </Position>
            <AltitudeMeters>-14.80000019073486328125</AltitudeMeters>
            <DistanceMeters>NAN</DistanceMeters>
          </Trackpoint>
          <Trackpoint>
            <Time>2022-09-24T16:21:44.000Z</Time>
            <Position>
              <LatitudeDegrees>43.36659061722457408905029296875</LatitudeDegrees>
              <LongitudeDegrees>-2.93144322931766510009765625</LongitudeDegrees>
            </Position>
            <AltitudeMeters>-14.6000003814697265625</AltitudeMeters>
            <DistanceMeters>NAN</DistanceMeters>
          </Trackpoint>
          <Trackpoint>
            <Time>2022-09-24T16:21:45.000Z</Time>
            <Position>
              <LatitudeDegrees>43.36660511791706085205078125</LatitudeDegrees>
              <LongitudeDegrees>-2.93149494566023349761962890625</LongitudeDegrees>
            </Position>
            <AltitudeMeters>-14.6000003814697265625</AltitudeMeters>
            <DistanceMeters>NAN</DistanceMeters>
          </Trackpoint>
          <Trackpoint>
            <Time>2022-09-24T16:21:46.000Z</Time>
            <Position>
              <LatitudeDegrees>43.36661727167665958404541015625</LatitudeDegrees>
              <LongitudeDegrees>-2.931530065834522247314453125</LongitudeDegrees>
            </Position>
            <AltitudeMeters>-14.3999996185302734375</AltitudeMeters>
            <DistanceMeters>NAN</DistanceMeters>
          </Trackpoint>
          <Trackpoint>
            <Time>2022-09-24T16:21:47.000Z</Time>
            <Position>
              <LatitudeDegrees>43.36663235910236835479736328125</LatitudeDegrees>
              <LongitudeDegrees>-2.93157272972166538238525390625</LongitudeDegrees>
            </Position>
            <AltitudeMeters>-14</AltitudeMeters>
            <DistanceMeters>NAN</DistanceMeters>
          </Trackpoint>
          <Trackpoint>
            <Time>2022-09-24T16:21:48.000Z</Time>
            <Position>
              <LatitudeDegrees>43.366647697985172271728515625</LatitudeDegrees>
              <LongitudeDegrees>-2.93162318877875804901123046875</LongitudeDegrees>
            </Position>
            <AltitudeMeters>-14</AltitudeMeters>
            <DistanceMeters>NAN</DistanceMeters>
          </Trackpoint>
          <Trackpoint>
            <Time>2022-09-24T16:21:49.000Z</Time>
            <Position>
              <LatitudeDegrees>43.366660773754119873046875</LatitudeDegrees>
              <LongitudeDegrees>-2.93166375719010829925537109375</LongitudeDegrees>
            </Position>
            <AltitudeMeters>-13.80000019073486328125</AltitudeMeters>
            <DistanceMeters>NAN</DistanceMeters>
          </Trackpoint>
          <Trackpoint>
            <Time>2022-09-24T16:21:50.000Z</Time>
            <Position>
              <LatitudeDegrees>43.36667628027498722076416015625</LatitudeDegrees>
              <LongitudeDegrees>-2.9317067563533782958984375</LongitudeDegrees>
            </Position>
            <AltitudeMeters>-13.3999996185302734375</AltitudeMeters>
            <DistanceMeters>NAN</DistanceMeters>
          </Trackpoint>
          <Trackpoint>
            <Time>2022-09-24T16:21:51.000Z</Time>
            <Position>
              <LatitudeDegrees>43.3666894398629665374755859375</LatitudeDegrees>
              <LongitudeDegrees>-2.93173885904252529144287109375</LongitudeDegrees>
            </Position>
            <AltitudeMeters>-13.3999996185302734375</AltitudeMeters>
            <DistanceMeters>NAN</DistanceMeters>
          </Trackpoint>
          <Trackpoint>
            <Time>2022-09-24T16:21:52.000Z</Time>
            <Position>
              <LatitudeDegrees>43.3667055331170558929443359375</LatitudeDegrees>
              <LongitudeDegrees>-2.93177808634936809539794921875</LongitudeDegrees>
            </Position>
            <AltitudeMeters>-13.19999980926513671875</AltitudeMeters>
            <DistanceMeters>NAN</DistanceMeters>
          </Trackpoint>
          <Trackpoint>
            <Time>2022-09-24T16:21:53.000Z</Time>
            <Position>
              <LatitudeDegrees>43.3667273260653018951416015625</LatitudeDegrees>
              <LongitudeDegrees>-2.931824438273906707763671875</LongitudeDegrees>
            </Position>
            <AltitudeMeters>-13.19999980926513671875</AltitudeMeters>
            <DistanceMeters>NAN</DistanceMeters>
          </Trackpoint>
          <Trackpoint>
            <Time>2022-09-24T16:21:54.000Z</Time>
            <Position>
              <LatitudeDegrees>43.3667414076626300811767578125</LatitudeDegrees>
              <LongitudeDegrees>-2.931855618953704833984375</LongitudeDegrees>
            </Position>
            <AltitudeMeters>-13</AltitudeMeters>
            <DistanceMeters>NAN</DistanceMeters>
          </Trackpoint>
          <Trackpoint>
            <Time>2022-09-24T16:21:55.000Z</Time>
            <Position>
              <LatitudeDegrees>43.366757668554782867431640625</LatitudeDegrees>
              <LongitudeDegrees>-2.93189643882215023040771484375</LongitudeDegrees>
            </Position>
            <AltitudeMeters>-12.6000003814697265625</AltitudeMeters>
            <DistanceMeters>NAN</DistanceMeters>
          </Trackpoint>
          <Trackpoint>
            <Time>2022-09-24T16:21:56.000Z</Time>
            <Position>
              <LatitudeDegrees>43.36677501909434795379638671875</LatitudeDegrees>
              <LongitudeDegrees>-2.931937091052532196044921875</LongitudeDegrees>
            </Position>
            <AltitudeMeters>-12.6000003814697265625</AltitudeMeters>
            <DistanceMeters>NAN</DistanceMeters>
          </Trackpoint>
          <Trackpoint>
            <Time>2022-09-24T16:21:57.000Z</Time>
            <Position>
              <LatitudeDegrees>43.36679195053875446319580078125</LatitudeDegrees>
              <LongitudeDegrees>-2.93197791092097759246826171875</LongitudeDegrees>
            </Position>
            <AltitudeMeters>-12.19999980926513671875</AltitudeMeters>
            <DistanceMeters>NAN</DistanceMeters>
          </Trackpoint>
          <Trackpoint>
            <Time>2022-09-24T16:21:58.000Z</Time>
            <Position>
              <LatitudeDegrees>43.366809971630573272705078125</LatitudeDegrees>
              <LongitudeDegrees>-2.93201864697039127349853515625</LongitudeDegrees>
            </Position>
            <AltitudeMeters>-12.19999980926513671875</AltitudeMeters>
            <DistanceMeters>NAN</DistanceMeters>
          </Trackpoint>
          <Trackpoint>
            <Time>2022-09-24T16:21:59.000Z</Time>
            <Position>
              <LatitudeDegrees>43.36682564578950405120849609375</LatitudeDegrees>
              <LongitudeDegrees>-2.932060472667217254638671875</LongitudeDegrees>
            </Position>
            <AltitudeMeters>-12</AltitudeMeters>
            <DistanceMeters>NAN</DistanceMeters>
          </Trackpoint>
          <Trackpoint>
            <Time>2022-09-24T16:22:00.000Z</Time>
            <Position>
              <LatitudeDegrees>43.36684710346162319183349609375</LatitudeDegrees>
              <LongitudeDegrees>-2.932108081877231597900390625</LongitudeDegrees>
            </Position>
            <AltitudeMeters>-11.80000019073486328125</AltitudeMeters>
            <DistanceMeters>NAN</DistanceMeters>
          </Trackpoint>
          <Trackpoint>
            <Time>2022-09-24T16:22:01.000Z</Time>
            <Position>
              <LatitudeDegrees>43.36686638183891773223876953125</LatitudeDegrees>
              <LongitudeDegrees>-2.93214856646955013275146484375</LongitudeDegrees>
            </Position>
            <AltitudeMeters>-11.80000019073486328125</AltitudeMeters>
            <DistanceMeters>NAN</DistanceMeters>
          </Trackpoint>
          <Trackpoint>
            <Time>2022-09-24T16:22:02.000Z</Time>
            <Position>
              <LatitudeDegrees>43.3668793737888336181640625</LatitudeDegrees>
              <LongitudeDegrees>-2.93218377046287059783935546875</LongitudeDegrees>
            </Position>
            <AltitudeMeters>-11.3999996185302734375</AltitudeMeters>
            <DistanceMeters>NAN</DistanceMeters>
          </Trackpoint>
          <Trackpoint>
            <Time>2022-09-24T16:22:03.000Z</Time>
            <Position>
              <LatitudeDegrees>43.3668973110616207122802734375</LatitudeDegrees>
              <LongitudeDegrees>-2.9322393424808979034423828125</LongitudeDegrees>
            </Position>
            <AltitudeMeters>-11.3999996185302734375</AltitudeMeters>
            <DistanceMeters>NAN</DistanceMeters>
          </Trackpoint>
          <Trackpoint>
            <Time>2022-09-24T16:22:04.000Z</Time>
            <Position>
              <LatitudeDegrees>43.366915248334407806396484375</LatitudeDegrees>
              <LongitudeDegrees>-2.93227882124483585357666015625</LongitudeDegrees>
            </Position>
            <AltitudeMeters>-11.3999996185302734375</AltitudeMeters>
            <DistanceMeters>NAN</DistanceMeters>
          </Trackpoint>
          <Trackpoint>
            <Time>2022-09-24T16:22:05.000Z</Time>
            <Position>
              <LatitudeDegrees>43.3669321797788143157958984375</LatitudeDegrees>
              <LongitudeDegrees>-2.93231553398072719573974609375</LongitudeDegrees>
            </Position>
            <AltitudeMeters>-11.19999980926513671875</AltitudeMeters>
            <DistanceMeters>NAN</DistanceMeters>
          </Trackpoint>
          <Trackpoint>
            <Time>2022-09-24T16:22:06.000Z</Time>
            <Position>
              <LatitudeDegrees>43.366949446499347686767578125</LatitudeDegrees>
              <LongitudeDegrees>-2.93235392309725284576416015625</LongitudeDegrees>
            </Position>
            <AltitudeMeters>-11</AltitudeMeters>
            <DistanceMeters>NAN</DistanceMeters>
          </Trackpoint>
          <Trackpoint>
            <Time>2022-09-24T16:22:07.000Z</Time>
            <Position>
              <LatitudeDegrees>43.36696478538215160369873046875</LatitudeDegrees>
              <LongitudeDegrees>-2.93238510377705097198486328125</LongitudeDegrees>
            </Position>
            <AltitudeMeters>-10.3999996185302734375</AltitudeMeters>
            <DistanceMeters>NAN</DistanceMeters>
          </Trackpoint>
          <Trackpoint>
            <Time>2022-09-24T16:22:08.000Z</Time>
            <Position>
              <LatitudeDegrees>43.36698909290134906768798828125</LatitudeDegrees>
              <LongitudeDegrees>-2.93242952786386013031005859375</LongitudeDegrees>
            </Position>
            <AltitudeMeters>-10.19999980926513671875</AltitudeMeters>
            <DistanceMeters>NAN</DistanceMeters>
          </Trackpoint>
          <Trackpoint>
            <Time>2022-09-24T16:22:09.000Z</Time>
            <Position>
              <LatitudeDegrees>43.3670066110789775848388671875</LatitudeDegrees>
              <LongitudeDegrees>-2.93246992863714694976806640625</LongitudeDegrees>
            </Position>
            <AltitudeMeters>-10</AltitudeMeters>
            <DistanceMeters>NAN</DistanceMeters>
          </Trackpoint>
          <Trackpoint>
            <Time>2022-09-24T16:22:10.000Z</Time>
            <Position>
              <LatitudeDegrees>43.3670233748853206634521484375</LatitudeDegrees>
              <LongitudeDegrees>-2.932497672736644744873046875</LongitudeDegrees>
            </Position>
            <AltitudeMeters>-9.80000019073486328125</AltitudeMeters>
            <DistanceMeters>NAN</DistanceMeters>
          </Trackpoint>
          <Trackpoint>
            <Time>2022-09-24T16:22:11.000Z</Time>
            <Position>
              <LatitudeDegrees>43.36704323999583721160888671875</LatitudeDegrees>
              <LongitudeDegrees>-2.93253212235867977142333984375</LongitudeDegrees>
            </Position>
            <AltitudeMeters>-9.80000019073486328125</AltitudeMeters>
            <DistanceMeters>NAN</DistanceMeters>
          </Trackpoint>
          <Trackpoint>
            <Time>2022-09-24T16:22:12.000Z</Time>
            <Position>
              <LatitudeDegrees>43.36706067435443401336669921875</LatitudeDegrees>
              <LongitudeDegrees>-2.93257134966552257537841796875</LongitudeDegrees>
            </Position>
            <AltitudeMeters>-9.6000003814697265625</AltitudeMeters>
            <DistanceMeters>NAN</DistanceMeters>
          </Trackpoint>
          <Trackpoint>
            <Time>2022-09-24T16:22:13.000Z</Time>
            <Position>
              <LatitudeDegrees>43.36708229966461658477783203125</LatitudeDegrees>
              <LongitudeDegrees>-2.93261761777102947235107421875</LongitudeDegrees>
            </Position>
            <AltitudeMeters>-9.3999996185302734375</AltitudeMeters>
            <DistanceMeters>NAN</DistanceMeters>
          </Trackpoint>
          <Trackpoint>
            <Time>2022-09-24T16:22:14.000Z</Time>
            <Position>
              <LatitudeDegrees>43.36709730327129364013671875</LatitudeDegrees>
              <LongitudeDegrees>-2.93265827000141143798828125</LongitudeDegrees>
            </Position>
            <AltitudeMeters>-9.19999980926513671875</AltitudeMeters>
            <DistanceMeters>NAN</DistanceMeters>
          </Trackpoint>
          <Trackpoint>
            <Time>2022-09-24T16:22:15.000Z</Time>
            <Position>
              <LatitudeDegrees>43.36711146868765354156494140625</LatitudeDegrees>
              <LongitudeDegrees>-2.93269850313663482666015625</LongitudeDegrees>
            </Position>
            <AltitudeMeters>-9</AltitudeMeters>
            <DistanceMeters>NAN</DistanceMeters>
          </Trackpoint>
          <Trackpoint>
            <Time>2022-09-24T16:22:16.000Z</Time>
            <Position>
              <LatitudeDegrees>43.3671269752085208892822265625</LatitudeDegrees>
              <LongitudeDegrees>-2.93273915536701679229736328125</LongitudeDegrees>
            </Position>
            <AltitudeMeters>-9</AltitudeMeters>
            <DistanceMeters>NAN</DistanceMeters>
          </Trackpoint>
          <Trackpoint>
            <Time>2022-09-24T16:22:17.000Z</Time>
            <Position>
              <LatitudeDegrees>43.36714558303356170654296875</LatitudeDegrees>
              <LongitudeDegrees>-2.93277888558804988861083984375</LongitudeDegrees>
            </Position>
            <AltitudeMeters>-8.3999996185302734375</AltitudeMeters>
            <DistanceMeters>NAN</DistanceMeters>
          </Trackpoint>
          <Trackpoint>
            <Time>2022-09-24T16:22:18.000Z</Time>
            <Position>
              <LatitudeDegrees>43.36716662161052227020263671875</LatitudeDegrees>
              <LongitudeDegrees>-2.93281383812427520751953125</LongitudeDegrees>
            </Position>
            <AltitudeMeters>-8.3999996185302734375</AltitudeMeters>
            <DistanceMeters>NAN</DistanceMeters>
          </Trackpoint>
          <Trackpoint>
            <Time>2022-09-24T16:22:19.000Z</Time>
            <Position>
              <LatitudeDegrees>43.3671824634075164794921875</LatitudeDegrees>
              <LongitudeDegrees>-2.9328522272408008575439453125</LongitudeDegrees>
            </Position>
            <AltitudeMeters>-8.19999980926513671875</AltitudeMeters>
            <DistanceMeters>NAN</DistanceMeters>
          </Trackpoint>
          <Trackpoint>
            <Time>2022-09-24T16:22:20.000Z</Time>
            <Position>
              <LatitudeDegrees>43.3671990595757961273193359375</LatitudeDegrees>
              <LongitudeDegrees>-2.93289287947118282318115234375</LongitudeDegrees>
            </Position>
            <AltitudeMeters>-7.80000019073486328125</AltitudeMeters>
            <DistanceMeters>NAN</DistanceMeters>
          </Trackpoint>
          <Trackpoint>
            <Time>2022-09-24T16:22:21.000Z</Time>
            <Position>
              <LatitudeDegrees>43.36721263825893402099609375</LatitudeDegrees>
              <LongitudeDegrees>-2.9329259879887104034423828125</LongitudeDegrees>
            </Position>
            <AltitudeMeters>-7.80000019073486328125</AltitudeMeters>
            <DistanceMeters>NAN</DistanceMeters>
          </Trackpoint>
          <Trackpoint>
            <Time>2022-09-24T16:22:22.000Z</Time>
            <Position>
              <LatitudeDegrees>43.36722797714173793792724609375</LatitudeDegrees>
              <LongitudeDegrees>-2.9329725913703441619873046875</LongitudeDegrees>
            </Position>
            <AltitudeMeters>-7.80000019073486328125</AltitudeMeters>
            <DistanceMeters>NAN</DistanceMeters>
          </Trackpoint>
          <Trackpoint>
            <Time>2022-09-24T16:22:23.000Z</Time>
            <Position>
              <LatitudeDegrees>43.3672399632632732391357421875</LatitudeDegrees>
              <LongitudeDegrees>-2.9330151714384555816650390625</LongitudeDegrees>
            </Position>
            <AltitudeMeters>-7.599999904632568359375</AltitudeMeters>
            <DistanceMeters>NAN</DistanceMeters>
          </Trackpoint>
          <Trackpoint>
            <Time>2022-09-24T16:22:24.000Z</Time>
            <Position>
              <LatitudeDegrees>43.36725245229899883270263671875</LatitudeDegrees>
              <LongitudeDegrees>-2.9330684803426265716552734375</LongitudeDegrees>
            </Position>
            <AltitudeMeters>-7.19999980926513671875</AltitudeMeters>
            <DistanceMeters>NAN</DistanceMeters>
          </Trackpoint>
          <Trackpoint>
            <Time>2022-09-24T16:22:25.000Z</Time>
            <Position>
              <LatitudeDegrees>43.3672656118869781494140625</LatitudeDegrees>
              <LongitudeDegrees>-2.93310527689754962921142578125</LongitudeDegrees>
            </Position>
            <AltitudeMeters>-7.19999980926513671875</AltitudeMeters>
            <DistanceMeters>NAN</DistanceMeters>
          </Trackpoint>
          <Trackpoint>
            <Time>2022-09-24T16:22:26.000Z</Time>
            <Position>
              <LatitudeDegrees>43.36727357469499111175537109375</LatitudeDegrees>
              <LongitudeDegrees>-2.93313964270055294036865234375</LongitudeDegrees>
            </Position>
            <AltitudeMeters>-7.19999980926513671875</AltitudeMeters>
            <DistanceMeters>NAN</DistanceMeters>
          </Trackpoint>
          <Trackpoint>
            <Time>2022-09-24T16:22:27.000Z</Time>
            <Position>
              <LatitudeDegrees>43.36728899739682674407958984375</LatitudeDegrees>
              <LongitudeDegrees>-2.93317702598869800567626953125</LongitudeDegrees>
            </Position>
            <AltitudeMeters>-6.80000019073486328125</AltitudeMeters>
            <DistanceMeters>NAN</DistanceMeters>
          </Trackpoint>
          <Trackpoint>
            <Time>2022-09-24T16:22:28.000Z</Time>
            <Position>
              <LatitudeDegrees>43.36730073206126689910888671875</LatitudeDegrees>
              <LongitudeDegrees>-2.93321390636265277862548828125</LongitudeDegrees>
            </Position>
            <AltitudeMeters>-6.80000019073486328125</AltitudeMeters>
            <DistanceMeters>NAN</DistanceMeters>
          </Trackpoint>
          <Trackpoint>
            <Time>2022-09-24T16:22:29.000Z</Time>
            <Position>
              <LatitudeDegrees>43.367306180298328399658203125</LatitudeDegrees>
              <LongitudeDegrees>-2.93325372040271759033203125</LongitudeDegrees>
            </Position>
            <AltitudeMeters>-6.19999980926513671875</AltitudeMeters>
            <DistanceMeters>NAN</DistanceMeters>
          </Trackpoint>
          <Trackpoint>
            <Time>2022-09-24T16:22:30.000Z</Time>
            <Position>
              <LatitudeDegrees>43.36730592884123325347900390625</LatitudeDegrees>
              <LongitudeDegrees>-2.93329537846148014068603515625</LongitudeDegrees>
            </Position>
            <AltitudeMeters>-6</AltitudeMeters>
            <DistanceMeters>NAN</DistanceMeters>
          </Trackpoint>
          <Trackpoint>
            <Time>2022-09-24T16:22:31.000Z</Time>
            <Position>
              <LatitudeDegrees>43.3673076890408992767333984375</LatitudeDegrees>
              <LongitudeDegrees>-2.93333946727216243743896484375</LongitudeDegrees>
            </Position>
            <AltitudeMeters>-6</AltitudeMeters>
            <DistanceMeters>NAN</DistanceMeters>
          </Trackpoint>
          <Trackpoint>
            <Time>2022-09-24T16:22:32.000Z</Time>
            <Position>
              <LatitudeDegrees>43.3673083595931529998779296875</LatitudeDegrees>
              <LongitudeDegrees>-2.93338271789252758026123046875</LongitudeDegrees>
            </Position>
            <AltitudeMeters>-6</AltitudeMeters>
            <DistanceMeters>NAN</DistanceMeters>
          </Trackpoint>
          <Trackpoint>
            <Time>2022-09-24T16:22:33.000Z</Time>
            <Position>
              <LatitudeDegrees>43.36730710230767726898193359375</LatitudeDegrees>
              <LongitudeDegrees>-2.9334349371492862701416015625</LongitudeDegrees>
            </Position>
            <AltitudeMeters>-5.80000019073486328125</AltitudeMeters>
            <DistanceMeters>NAN</DistanceMeters>
          </Trackpoint>
          <Trackpoint>
            <Time>2022-09-24T16:22:34.000Z</Time>
            <Position>
              <LatitudeDegrees>43.3673026598989963531494140625</LatitudeDegrees>
              <LongitudeDegrees>-2.93347961269319057464599609375</LongitudeDegrees>
            </Position>
            <AltitudeMeters>-5.400000095367431640625</AltitudeMeters>
            <DistanceMeters>NAN</DistanceMeters>
          </Trackpoint>
          <Trackpoint>
            <Time>2022-09-24T16:22:35.000Z</Time>
            <Position>
              <LatitudeDegrees>43.36729804985225200653076171875</LatitudeDegrees>
              <LongitudeDegrees>-2.93352420441806316375732421875</LongitudeDegrees>
            </Position>
            <AltitudeMeters>-5.19999980926513671875</AltitudeMeters>
            <DistanceMeters>NAN</DistanceMeters>
          </Trackpoint>
          <Trackpoint>
            <Time>2022-09-24T16:22:36.000Z</Time>
            <Position>
              <LatitudeDegrees>43.36729402653872966766357421875</LatitudeDegrees>
              <LongitudeDegrees>-2.93356074951589107513427734375</LongitudeDegrees>
            </Position>
            <AltitudeMeters>-5.19999980926513671875</AltitudeMeters>
            <DistanceMeters>NAN</DistanceMeters>
          </Trackpoint>
          <Trackpoint>
            <Time>2022-09-24T16:22:37.000Z</Time>
            <Position>
              <LatitudeDegrees>43.367288410663604736328125</LatitudeDegrees>
              <LongitudeDegrees>-2.933606095612049102783203125</LongitudeDegrees>
            </Position>
            <AltitudeMeters>-5</AltitudeMeters>
            <DistanceMeters>NAN</DistanceMeters>
          </Trackpoint>
          <Trackpoint>
            <Time>2022-09-24T16:22:38.000Z</Time>
            <Position>
              <LatitudeDegrees>43.367288410663604736328125</LatitudeDegrees>
              <LongitudeDegrees>-2.933606095612049102783203125</LongitudeDegrees>
            </Position>
            <AltitudeMeters>-5</AltitudeMeters>
            <DistanceMeters>NAN</DistanceMeters>
          </Trackpoint>
          <Trackpoint>
            <Time>2022-09-24T16:22:39.000Z</Time>
            <Position>
              <LatitudeDegrees>43.367272652685642242431640625</LatitudeDegrees>
              <LongitudeDegrees>-2.93370433151721954345703125</LongitudeDegrees>
            </Position>
            <AltitudeMeters>-5</AltitudeMeters>
            <DistanceMeters>NAN</DistanceMeters>
          </Trackpoint>
          <Trackpoint>
            <Time>2022-09-24T16:22:40.000Z</Time>
            <Position>
              <LatitudeDegrees>43.36726552806794643402099609375</LatitudeDegrees>
              <LongitudeDegrees>-2.9337398707866668701171875</LongitudeDegrees>
            </Position>
            <AltitudeMeters>-4.80000019073486328125</AltitudeMeters>
            <DistanceMeters>NAN</DistanceMeters>
          </Trackpoint>
          <Trackpoint>
            <Time>2022-09-24T16:22:41.000Z</Time>
            <Position>
              <LatitudeDegrees>43.36725865490734577178955078125</LatitudeDegrees>
              <LongitudeDegrees>-2.93378203175961971282958984375</LongitudeDegrees>
            </Position>
            <AltitudeMeters>-4.80000019073486328125</AltitudeMeters>
            <DistanceMeters>NAN</DistanceMeters>
          </Trackpoint>
          <Trackpoint>
            <Time>2022-09-24T16:22:42.000Z</Time>
            <Position>
              <LatitudeDegrees>43.3672535419464111328125</LatitudeDegrees>
              <LongitudeDegrees>-2.9338228516280651092529296875</LongitudeDegrees>
            </Position>
            <AltitudeMeters>-4.400000095367431640625</AltitudeMeters>
            <DistanceMeters>NAN</DistanceMeters>
          </Trackpoint>
          <Trackpoint>
            <Time>2022-09-24T16:22:43.000Z</Time>
            <Position>
              <LatitudeDegrees>43.36724792607128620147705078125</LatitudeDegrees>
              <LongitudeDegrees>-2.93386434204876422882080078125</LongitudeDegrees>
            </Position>
            <AltitudeMeters>-4</AltitudeMeters>
            <DistanceMeters>NAN</DistanceMeters>
          </Trackpoint>
          <Trackpoint>
            <Time>2022-09-24T16:22:44.000Z</Time>
            <Position>
              <LatitudeDegrees>43.3672429807484149932861328125</LatitudeDegrees>
              <LongitudeDegrees>-2.93390725739300251007080078125</LongitudeDegrees>
            </Position>
            <AltitudeMeters>-3.7999999523162841796875</AltitudeMeters>
            <DistanceMeters>NAN</DistanceMeters>
          </Trackpoint>
          <Trackpoint>
            <Time>2022-09-24T16:22:45.000Z</Time>
            <Position>
              <LatitudeDegrees>43.36723543703556060791015625</LatitudeDegrees>
              <LongitudeDegrees>-2.93394950218498706817626953125</LongitudeDegrees>
            </Position>
            <AltitudeMeters>-3.599999904632568359375</AltitudeMeters>
            <DistanceMeters>NAN</DistanceMeters>
          </Trackpoint>
          <Trackpoint>
            <Time>2022-09-24T16:22:46.000Z</Time>
            <Position>
              <LatitudeDegrees>43.36722680367529392242431640625</LatitudeDegrees>
              <LongitudeDegrees>-2.93399409390985965728759765625</LongitudeDegrees>
            </Position>
            <AltitudeMeters>-3.599999904632568359375</AltitudeMeters>
            <DistanceMeters>NAN</DistanceMeters>
          </Trackpoint>
          <Trackpoint>
            <Time>2022-09-24T16:22:47.000Z</Time>
            <Position>
              <LatitudeDegrees>43.36721800267696380615234375</LatitudeDegrees>
              <LongitudeDegrees>-2.9340380989015102386474609375</LongitudeDegrees>
            </Position>
            <AltitudeMeters>-3.400000095367431640625</AltitudeMeters>
            <DistanceMeters>NAN</DistanceMeters>
          </Trackpoint>
          <Trackpoint>
            <Time>2022-09-24T16:22:48.000Z</Time>
            <Position>
              <LatitudeDegrees>43.3672071062028408050537109375</LatitudeDegrees>
              <LongitudeDegrees>-2.9340813495218753814697265625</LongitudeDegrees>
            </Position>
            <AltitudeMeters>-3</AltitudeMeters>
            <DistanceMeters>NAN</DistanceMeters>
          </Trackpoint>
          <Trackpoint>
            <Time>2022-09-24T16:22:49.000Z</Time>
            <Position>
              <LatitudeDegrees>43.3671958744525909423828125</LatitudeDegrees>
              <LongitudeDegrees>-2.93412669561803340911865234375</LongitudeDegrees>
            </Position>
            <AltitudeMeters>-3</AltitudeMeters>
            <DistanceMeters>NAN</DistanceMeters>
          </Trackpoint>
          <Trackpoint>
            <Time>2022-09-24T16:22:50.000Z</Time>
            <Position>
              <LatitudeDegrees>43.3671846427023410797119140625</LatitudeDegrees>
              <LongitudeDegrees>-2.934180088341236114501953125</LongitudeDegrees>
            </Position>
            <AltitudeMeters>-2.599999904632568359375</AltitudeMeters>
            <DistanceMeters>NAN</DistanceMeters>
          </Trackpoint>
          <Trackpoint>
            <Time>2022-09-24T16:22:51.000Z</Time>
            <Position>
              <LatitudeDegrees>43.36717634461820125579833984375</LatitudeDegrees>
              <LongitudeDegrees>-2.9342280328273773193359375</LongitudeDegrees>
            </Position>
            <AltitudeMeters>-2.2000000476837158203125</AltitudeMeters>
            <DistanceMeters>NAN</DistanceMeters>
          </Trackpoint>
          <Trackpoint>
            <Time>2022-09-24T16:22:52.000Z</Time>
            <Position>
              <LatitudeDegrees>43.3671692200005054473876953125</LatitudeDegrees>
              <LongitudeDegrees>-2.93426625430583953857421875</LongitudeDegrees>
            </Position>
            <AltitudeMeters>-2</AltitudeMeters>
            <DistanceMeters>NAN</DistanceMeters>
          </Trackpoint>
          <Trackpoint>
            <Time>2022-09-24T16:22:53.000Z</Time>
            <Position>
              <LatitudeDegrees>43.36715991608798503875732421875</LatitudeDegrees>
              <LongitudeDegrees>-2.9343138635158538818359375</LongitudeDegrees>
            </Position>
            <AltitudeMeters>-2</AltitudeMeters>
            <DistanceMeters>NAN</DistanceMeters>
          </Trackpoint>
          <Trackpoint>
            <Time>2022-09-24T16:22:54.000Z</Time>
            <Position>
              <LatitudeDegrees>43.3671511150896549224853515625</LatitudeDegrees>
              <LongitudeDegrees>-2.93436138890683650970458984375</LongitudeDegrees>
            </Position>
            <AltitudeMeters>-1.7999999523162841796875</AltitudeMeters>
            <DistanceMeters>NAN</DistanceMeters>
          </Trackpoint>
          <Trackpoint>
            <Time>2022-09-24T16:22:55.000Z</Time>
            <Position>
              <LatitudeDegrees>43.36714147590100765228271484375</LatitudeDegrees>
              <LongitudeDegrees>-2.9344082437455654144287109375</LongitudeDegrees>
            </Position>
            <AltitudeMeters>-1.60000002384185791015625</AltitudeMeters>
            <DistanceMeters>NAN</DistanceMeters>
          </Trackpoint>
          <Trackpoint>
            <Time>2022-09-24T16:22:56.000Z</Time>
            <Position>
              <LatitudeDegrees>43.3671333454549312591552734375</LatitudeDegrees>
              <LongitudeDegrees>-2.93445476330816745758056640625</LongitudeDegrees>
            </Position>
            <AltitudeMeters>-1.60000002384185791015625</AltitudeMeters>
            <DistanceMeters>NAN</DistanceMeters>
          </Trackpoint>
          <Trackpoint>
            <Time>2022-09-24T16:22:57.000Z</Time>
            <Position>
              <LatitudeDegrees>43.36712504737079143524169921875</LatitudeDegrees>
              <LongitudeDegrees>-2.93450270779430866241455078125</LongitudeDegrees>
            </Position>
            <AltitudeMeters>-1.2000000476837158203125</AltitudeMeters>
            <DistanceMeters>NAN</DistanceMeters>
          </Trackpoint>
          <Trackpoint>
            <Time>2022-09-24T16:22:58.000Z</Time>
            <Position>
              <LatitudeDegrees>43.367117084562778472900390625</LatitudeDegrees>
              <LongitudeDegrees>-2.9345483891665935516357421875</LongitudeDegrees>
            </Position>
            <AltitudeMeters>-1.2000000476837158203125</AltitudeMeters>
            <DistanceMeters>NAN</DistanceMeters>
          </Trackpoint>
          <Trackpoint>
            <Time>2022-09-24T16:22:59.000Z</Time>
            <Position>
              <LatitudeDegrees>43.3671088702976703643798828125</LatitudeDegrees>
              <LongitudeDegrees>-2.93459256179630756378173828125</LongitudeDegrees>
            </Position>
            <AltitudeMeters>-0.800000011920928955078125</AltitudeMeters>
            <DistanceMeters>NAN</DistanceMeters>
          </Trackpoint>
          <Trackpoint>
            <Time>2022-09-24T16:23:00.000Z</Time>
            <Position>
              <LatitudeDegrees>43.3670978061854839324951171875</LatitudeDegrees>
              <LongitudeDegrees>-2.93464570306241512298583984375</LongitudeDegrees>
            </Position>
            <AltitudeMeters>-0.800000011920928955078125</AltitudeMeters>
            <DistanceMeters>NAN</DistanceMeters>
          </Trackpoint>
          <Trackpoint>
            <Time>2022-09-24T16:23:01.000Z</Time>
            <Position>
              <LatitudeDegrees>43.36709068156778812408447265625</LatitudeDegrees>
              <LongitudeDegrees>-2.93468174524605274200439453125</LongitudeDegrees>
            </Position>
            <AltitudeMeters>-0.800000011920928955078125</AltitudeMeters>
            <DistanceMeters>NAN</DistanceMeters>
          </Trackpoint>
          <Trackpoint>
            <Time>2022-09-24T16:23:02.000Z</Time>
            <Position>
              <LatitudeDegrees>43.36708045564591884613037109375</LatitudeDegrees>
              <LongitudeDegrees>-2.93473706580698490142822265625</LongitudeDegrees>
            </Position>
            <AltitudeMeters>-0.800000011920928955078125</AltitudeMeters>
            <DistanceMeters>NAN</DistanceMeters>
          </Trackpoint>
          <Trackpoint>
            <Time>2022-09-24T16:23:03.000Z</Time>
            <Position>
              <LatitudeDegrees>43.36707224138081073760986328125</LatitudeDegrees>
              <LongitudeDegrees>-2.9347834177315235137939453125</LongitudeDegrees>
            </Position>
            <AltitudeMeters>-0.4000000059604644775390625</AltitudeMeters>
            <DistanceMeters>NAN</DistanceMeters>
          </Trackpoint>
          <Trackpoint>
            <Time>2022-09-24T16:23:04.000Z</Time>
            <Position>
              <LatitudeDegrees>43.3670672960579395294189453125</LatitudeDegrees>
              <LongitudeDegrees>-2.93482909910380840301513671875</LongitudeDegrees>
            </Position>
            <AltitudeMeters>-0.20000000298023223876953125</AltitudeMeters>
            <DistanceMeters>NAN</DistanceMeters>
          </Trackpoint>
          <Trackpoint>
            <Time>2022-09-24T16:23:05.000Z</Time>
            <Position>
              <LatitudeDegrees>43.36706084199249744415283203125</LatitudeDegrees>
              <LongitudeDegrees>-2.934876121580600738525390625</LongitudeDegrees>
            </Position>
            <AltitudeMeters>-0.20000000298023223876953125</AltitudeMeters>
            <DistanceMeters>NAN</DistanceMeters>
          </Trackpoint>
          <Trackpoint>
            <Time>2022-09-24T16:23:06.000Z</Time>
            <Position>
              <LatitudeDegrees>43.367054052650928497314453125</LatitudeDegrees>
              <LongitudeDegrees>-2.93492632918059825897216796875</LongitudeDegrees>
            </Position>
            <AltitudeMeters>-0.20000000298023223876953125</AltitudeMeters>
            <DistanceMeters>NAN</DistanceMeters>
          </Trackpoint>
          <Trackpoint>
            <Time>2022-09-24T16:23:07.000Z</Time>
            <Position>
              <LatitudeDegrees>43.36704525165259838104248046875</LatitudeDegrees>
              <LongitudeDegrees>-2.93497595004737377166748046875</LongitudeDegrees>
            </Position>
            <AltitudeMeters>0</AltitudeMeters>
            <DistanceMeters>NAN</DistanceMeters>
          </Trackpoint>
          <Trackpoint>
            <Time>2022-09-24T16:23:08.000Z</Time>
            <Position>
              <LatitudeDegrees>43.3670387975871562957763671875</LatitudeDegrees>
              <LongitudeDegrees>-2.935023643076419830322265625</LongitudeDegrees>
            </Position>
            <AltitudeMeters>0.20000000298023223876953125</AltitudeMeters>
            <DistanceMeters>NAN</DistanceMeters>
          </Trackpoint>
          <Trackpoint>
            <Time>2022-09-24T16:23:09.000Z</Time>
            <Position>
              <LatitudeDegrees>43.36703385226428508758544921875</LatitudeDegrees>
              <LongitudeDegrees>-2.93507301248610019683837890625</LongitudeDegrees>
            </Position>
            <AltitudeMeters>0.4000000059604644775390625</AltitudeMeters>
            <DistanceMeters>NAN</DistanceMeters>
          </Trackpoint>
          <Trackpoint>
            <Time>2022-09-24T16:23:10.000Z</Time>
            <Position>
              <LatitudeDegrees>43.367030583322048187255859375</LatitudeDegrees>
              <LongitudeDegrees>-2.93512414209544658660888671875</LongitudeDegrees>
            </Position>
            <AltitudeMeters>0.4000000059604644775390625</AltitudeMeters>
            <DistanceMeters>NAN</DistanceMeters>
          </Trackpoint>
          <Trackpoint>
            <Time>2022-09-24T16:23:11.000Z</Time>
            <Position>
              <LatitudeDegrees>43.3670294098556041717529296875</LatitudeDegrees>
              <LongitudeDegrees>-2.93517460115253925323486328125</LongitudeDegrees>
            </Position>
            <AltitudeMeters>0.4000000059604644775390625</AltitudeMeters>
            <DistanceMeters>NAN</DistanceMeters>
          </Trackpoint>
          <Trackpoint>
            <Time>2022-09-24T16:23:12.000Z</Time>
            <Position>
              <LatitudeDegrees>43.36702848784625530242919921875</LatitudeDegrees>
              <LongitudeDegrees>-2.93522623367607593536376953125</LongitudeDegrees>
            </Position>
            <AltitudeMeters>0.60000002384185791015625</AltitudeMeters>
            <DistanceMeters>NAN</DistanceMeters>
          </Trackpoint>
          <Trackpoint>
            <Time>2022-09-24T16:23:13.000Z</Time>
            <Position>
              <LatitudeDegrees>43.36702479980885982513427734375</LatitudeDegrees>
              <LongitudeDegrees>-2.93528079986572265625</LongitudeDegrees>
            </Position>
            <AltitudeMeters>0.800000011920928955078125</AltitudeMeters>
            <DistanceMeters>NAN</DistanceMeters>
          </Trackpoint>
          <Trackpoint>
            <Time>2022-09-24T16:23:14.000Z</Time>
            <Position>
              <LatitudeDegrees>43.36702362634241580963134765625</LatitudeDegrees>
              <LongitudeDegrees>-2.93533721007406711578369140625</LongitudeDegrees>
            </Position>
            <AltitudeMeters>1</AltitudeMeters>
            <DistanceMeters>NAN</DistanceMeters>
          </Trackpoint>
          <Trackpoint>
            <Time>2022-09-24T16:23:15.000Z</Time>
            <Position>
              <LatitudeDegrees>43.3670240454375743865966796875</LatitudeDegrees>
              <LongitudeDegrees>-2.9353963024914264678955078125</LongitudeDegrees>
            </Position>
            <AltitudeMeters>1</AltitudeMeters>
            <DistanceMeters>NAN</DistanceMeters>
          </Trackpoint>
          <Trackpoint>
            <Time>2022-09-24T16:23:16.000Z</Time>
            <Position>
              <LatitudeDegrees>43.36702697910368442535400390625</LatitudeDegrees>
              <LongitudeDegrees>-2.935456819832324981689453125</LongitudeDegrees>
            </Position>
            <AltitudeMeters>1</AltitudeMeters>
            <DistanceMeters>NAN</DistanceMeters>
          </Trackpoint>
          <Trackpoint>
            <Time>2022-09-24T16:23:17.000Z</Time>
            <Position>
              <LatitudeDegrees>43.3670307509601116180419921875</LatitudeDegrees>
              <LongitudeDegrees>-2.93551624752581119537353515625</LongitudeDegrees>
            </Position>
            <AltitudeMeters>1.2000000476837158203125</AltitudeMeters>
            <DistanceMeters>NAN</DistanceMeters>
          </Trackpoint>
          <Trackpoint>
            <Time>2022-09-24T16:23:18.000Z</Time>
            <Position>
              <LatitudeDegrees>43.36703754030168056488037109375</LatitudeDegrees>
              <LongitudeDegrees>-2.93557357974350452423095703125</LongitudeDegrees>
            </Position>
            <AltitudeMeters>1.2000000476837158203125</AltitudeMeters>
            <DistanceMeters>NAN</DistanceMeters>
          </Trackpoint>
          <Trackpoint>
            <Time>2022-09-24T16:23:19.000Z</Time>
            <Position>
              <LatitudeDegrees>43.3670465089380741119384765625</LatitudeDegrees>
              <LongitudeDegrees>-2.93563015758991241455078125</LongitudeDegrees>
            </Position>
            <AltitudeMeters>1.2000000476837158203125</AltitudeMeters>
            <DistanceMeters>NAN</DistanceMeters>
          </Trackpoint>
          <Trackpoint>
            <Time>2022-09-24T16:23:20.000Z</Time>
            <Position>
              <LatitudeDegrees>43.36705707013607025146484375</LatitudeDegrees>
              <LongitudeDegrees>-2.935684137046337127685546875</LongitudeDegrees>
            </Position>
            <AltitudeMeters>1.39999997615814208984375</AltitudeMeters>
            <DistanceMeters>NAN</DistanceMeters>
          </Trackpoint>
          <Trackpoint>
            <Time>2022-09-24T16:23:21.000Z</Time>
            <Position>
              <LatitudeDegrees>43.36706520058214664459228515625</LatitudeDegrees>
              <LongitudeDegrees>-2.93573132716119289398193359375</LongitudeDegrees>
            </Position>
            <AltitudeMeters>1.7999999523162841796875</AltitudeMeters>
            <DistanceMeters>NAN</DistanceMeters>
          </Trackpoint>
          <Trackpoint>
            <Time>2022-09-24T16:23:22.000Z</Time>
            <Position>
              <LatitudeDegrees>43.36707458831369876861572265625</LatitudeDegrees>
              <LongitudeDegrees>-2.93579016812145709991455078125</LongitudeDegrees>
            </Position>
            <AltitudeMeters>1.7999999523162841796875</AltitudeMeters>
            <DistanceMeters>NAN</DistanceMeters>
          </Trackpoint>
          <Trackpoint>
            <Time>2022-09-24T16:23:23.000Z</Time>
            <Position>
              <LatitudeDegrees>43.367085568606853485107421875</LatitudeDegrees>
              <LongitudeDegrees>-2.9358596540987491607666015625</LongitudeDegrees>
            </Position>
            <AltitudeMeters>2</AltitudeMeters>
            <DistanceMeters>NAN</DistanceMeters>
          </Trackpoint>
          <Trackpoint>
            <Time>2022-09-24T16:23:24.000Z</Time>
            <Position>
              <LatitudeDegrees>43.36709369905292987823486328125</LatitudeDegrees>
              <LongitudeDegrees>-2.93590583838522434234619140625</LongitudeDegrees>
            </Position>
            <AltitudeMeters>2.2000000476837158203125</AltitudeMeters>
            <DistanceMeters>NAN</DistanceMeters>
          </Trackpoint>
          <Trackpoint>
            <Time>2022-09-24T16:23:25.000Z</Time>
            <Position>
              <LatitudeDegrees>43.367105685174465179443359375</LatitudeDegrees>
              <LongitudeDegrees>-2.935962416231632232666015625</LongitudeDegrees>
            </Position>
            <AltitudeMeters>2.2000000476837158203125</AltitudeMeters>
            <DistanceMeters>NAN</DistanceMeters>
          </Trackpoint>
          <Trackpoint>
            <Time>2022-09-24T16:23:26.000Z</Time>
            <Position>
              <LatitudeDegrees>43.3671195991337299346923828125</LatitudeDegrees>
              <LongitudeDegrees>-2.93602100573480129241943359375</LongitudeDegrees>
            </Position>
            <AltitudeMeters>2.400000095367431640625</AltitudeMeters>
            <DistanceMeters>NAN</DistanceMeters>
          </Trackpoint>
          <Trackpoint>
            <Time>2022-09-24T16:23:27.000Z</Time>
            <Position>
              <LatitudeDegrees>43.367132842540740966796875</LatitudeDegrees>
              <LongitudeDegrees>-2.936079762876033782958984375</LongitudeDegrees>
            </Position>
            <AltitudeMeters>2.599999904632568359375</AltitudeMeters>
            <DistanceMeters>NAN</DistanceMeters>
          </Trackpoint>
          <Trackpoint>
            <Time>2022-09-24T16:23:28.000Z</Time>
            <Position>
              <LatitudeDegrees>43.3671444095671176910400390625</LatitudeDegrees>
              <LongitudeDegrees>-2.93613801710307598114013671875</LongitudeDegrees>
            </Position>
            <AltitudeMeters>2.599999904632568359375</AltitudeMeters>
            <DistanceMeters>NAN</DistanceMeters>
          </Trackpoint>
          <Trackpoint>
            <Time>2022-09-24T16:23:29.000Z</Time>
            <Position>
              <LatitudeDegrees>43.36715455166995525360107421875</LatitudeDegrees>
              <LongitudeDegrees>-2.936195768415927886962890625</LongitudeDegrees>
            </Position>
            <AltitudeMeters>2.599999904632568359375</AltitudeMeters>
            <DistanceMeters>NAN</DistanceMeters>
          </Trackpoint>
          <Trackpoint>
            <Time>2022-09-24T16:23:30.000Z</Time>
            <Position>
              <LatitudeDegrees>43.3671665377914905548095703125</LatitudeDegrees>
              <LongitudeDegrees>-2.93625368736684322357177734375</LongitudeDegrees>
            </Position>
            <AltitudeMeters>2.7999999523162841796875</AltitudeMeters>
            <DistanceMeters>NAN</DistanceMeters>
          </Trackpoint>
          <Trackpoint>
            <Time>2022-09-24T16:23:31.000Z</Time>
            <Position>
              <LatitudeDegrees>43.36717969737946987152099609375</LatitudeDegrees>
              <LongitudeDegrees>-2.936310432851314544677734375</LongitudeDegrees>
            </Position>
            <AltitudeMeters>2.7999999523162841796875</AltitudeMeters>
            <DistanceMeters>NAN</DistanceMeters>
          </Trackpoint>
          <Trackpoint>
            <Time>2022-09-24T16:23:32.000Z</Time>
            <Position>
              <LatitudeDegrees>43.367192186415195465087890625</LatitudeDegrees>
              <LongitudeDegrees>-2.93636977672576904296875</LongitudeDegrees>
            </Position>
            <AltitudeMeters>3</AltitudeMeters>
            <DistanceMeters>NAN</DistanceMeters>
          </Trackpoint>
          <Trackpoint>
            <Time>2022-09-24T16:23:33.000Z</Time>
            <Position>
              <LatitudeDegrees>43.36720484308898448944091796875</LatitudeDegrees>
              <LongitudeDegrees>-2.93642652221024036407470703125</LongitudeDegrees>
            </Position>
            <AltitudeMeters>3.2000000476837158203125</AltitudeMeters>
            <DistanceMeters>NAN</DistanceMeters>
          </Trackpoint>
          <Trackpoint>
            <Time>2022-09-24T16:23:34.000Z</Time>
            <Position>
              <LatitudeDegrees>43.367217667400836944580078125</LatitudeDegrees>
              <LongitudeDegrees>-2.93648402206599712371826171875</LongitudeDegrees>
            </Position>
            <AltitudeMeters>3.400000095367431640625</AltitudeMeters>
            <DistanceMeters>NAN</DistanceMeters>
          </Trackpoint>
          <Trackpoint>
            <Time>2022-09-24T16:23:35.000Z</Time>
            <Position>
              <LatitudeDegrees>43.3672305755317211151123046875</LatitudeDegrees>
              <LongitudeDegrees>-2.9365442879498004913330078125</LongitudeDegrees>
            </Position>
            <AltitudeMeters>3.400000095367431640625</AltitudeMeters>
            <DistanceMeters>NAN</DistanceMeters>
          </Trackpoint>
          <Trackpoint>
            <Time>2022-09-24T16:23:36.000Z</Time>
            <Position>
              <LatitudeDegrees>43.3672449924051761627197265625</LatitudeDegrees>
              <LongitudeDegrees>-2.93660254217684268951416015625</LongitudeDegrees>
            </Position>
            <AltitudeMeters>3.599999904632568359375</AltitudeMeters>
            <DistanceMeters>NAN</DistanceMeters>
          </Trackpoint>
          <Trackpoint>
            <Time>2022-09-24T16:23:37.000Z</Time>
            <Position>
              <LatitudeDegrees>43.3672610856592655181884765625</LatitudeDegrees>
              <LongitudeDegrees>-2.93665618635714054107666015625</LongitudeDegrees>
            </Position>
            <AltitudeMeters>3.599999904632568359375</AltitudeMeters>
            <DistanceMeters>NAN</DistanceMeters>
          </Trackpoint>
          <Trackpoint>
            <Time>2022-09-24T16:23:38.000Z</Time>
            <Position>
              <LatitudeDegrees>43.36727893911302089691162109375</LatitudeDegrees>
              <LongitudeDegrees>-2.9367260076105594635009765625</LongitudeDegrees>
            </Position>
            <AltitudeMeters>4</AltitudeMeters>
            <DistanceMeters>NAN</DistanceMeters>
          </Trackpoint>
          <Trackpoint>
            <Time>2022-09-24T16:23:39.000Z</Time>
            <Position>
              <LatitudeDegrees>43.36728966794908046722412109375</LatitudeDegrees>
              <LongitudeDegrees>-2.9367749579250812530517578125</LongitudeDegrees>
            </Position>
            <AltitudeMeters>4.19999980926513671875</AltitudeMeters>
            <DistanceMeters>NAN</DistanceMeters>
          </Trackpoint>
          <Trackpoint>
            <Time>2022-09-24T16:23:40.000Z</Time>
            <Position>
              <LatitudeDegrees>43.36730224080383777618408203125</LatitudeDegrees>
              <LongitudeDegrees>-2.93683270923793315887451171875</LongitudeDegrees>
            </Position>
            <AltitudeMeters>4.19999980926513671875</AltitudeMeters>
            <DistanceMeters>NAN</DistanceMeters>
          </Trackpoint>
          <Trackpoint>
            <Time>2022-09-24T16:23:41.000Z</Time>
            <Position>
              <LatitudeDegrees>43.36731590330600738525390625</LatitudeDegrees>
              <LongitudeDegrees>-2.93689104728400707244873046875</LongitudeDegrees>
            </Position>
            <AltitudeMeters>4.19999980926513671875</AltitudeMeters>
            <DistanceMeters>NAN</DistanceMeters>
          </Trackpoint>
          <Trackpoint>
            <Time>2022-09-24T16:23:42.000Z</Time>
            <Position>
              <LatitudeDegrees>43.3673318289220333099365234375</LatitudeDegrees>
              <LongitudeDegrees>-2.93694905005395412445068359375</LongitudeDegrees>
            </Position>
            <AltitudeMeters>4.400000095367431640625</AltitudeMeters>
            <DistanceMeters>NAN</DistanceMeters>
          </Trackpoint>
          <Trackpoint>
            <Time>2022-09-24T16:23:43.000Z</Time>
            <Position>
              <LatitudeDegrees>43.367345742881298065185546875</LatitudeDegrees>
              <LongitudeDegrees>-2.93701015412807464599609375</LongitudeDegrees>
            </Position>
            <AltitudeMeters>4.400000095367431640625</AltitudeMeters>
            <DistanceMeters>NAN</DistanceMeters>
          </Trackpoint>
          <Trackpoint>
            <Time>2022-09-24T16:23:44.000Z</Time>
            <Position>
              <LatitudeDegrees>43.36735940538346767425537109375</LatitudeDegrees>
              <LongitudeDegrees>-2.93707058764994144439697265625</LongitudeDegrees>
            </Position>
            <AltitudeMeters>4.599999904632568359375</AltitudeMeters>
            <DistanceMeters>NAN</DistanceMeters>
          </Trackpoint>
          <Trackpoint>
            <Time>2022-09-24T16:23:45.000Z</Time>
            <Position>
              <LatitudeDegrees>43.36737298406660556793212890625</LatitudeDegrees>
              <LongitudeDegrees>-2.937130518257617950439453125</LongitudeDegrees>
            </Position>
            <AltitudeMeters>4.599999904632568359375</AltitudeMeters>
            <DistanceMeters>NAN</DistanceMeters>
          </Trackpoint>
          <Trackpoint>
            <Time>2022-09-24T16:23:46.000Z</Time>
            <Position>
              <LatitudeDegrees>43.36738807149231433868408203125</LatitudeDegrees>
              <LongitudeDegrees>-2.9371880181133747100830078125</LongitudeDegrees>
            </Position>
            <AltitudeMeters>4.599999904632568359375</AltitudeMeters>
            <DistanceMeters>NAN</DistanceMeters>
          </Trackpoint>
          <Trackpoint>
            <Time>2022-09-24T16:23:47.000Z</Time>
            <Position>
              <LatitudeDegrees>43.36740148253738880157470703125</LatitudeDegrees>
              <LongitudeDegrees>-2.9372482001781463623046875</LongitudeDegrees>
            </Position>
            <AltitudeMeters>4.80000019073486328125</AltitudeMeters>
            <DistanceMeters>NAN</DistanceMeters>
          </Trackpoint>
          <Trackpoint>
            <Time>2022-09-24T16:23:48.000Z</Time>
            <Position>
              <LatitudeDegrees>43.3674169890582561492919921875</LatitudeDegrees>
              <LongitudeDegrees>-2.93730653822422027587890625</LongitudeDegrees>
            </Position>
            <AltitudeMeters>4.80000019073486328125</AltitudeMeters>
            <DistanceMeters>NAN</DistanceMeters>
          </Trackpoint>
          <Trackpoint>
            <Time>2022-09-24T16:23:49.000Z</Time>
            <Position>
              <LatitudeDegrees>43.36743098683655261993408203125</LatitudeDegrees>
              <LongitudeDegrees>-2.93736512772738933563232421875</LongitudeDegrees>
            </Position>
            <AltitudeMeters>5.19999980926513671875</AltitudeMeters>
            <DistanceMeters>NAN</DistanceMeters>
          </Trackpoint>
          <Trackpoint>
            <Time>2022-09-24T16:23:50.000Z</Time>
            <Position>
              <LatitudeDegrees>43.36744154803454875946044921875</LatitudeDegrees>
              <LongitudeDegrees>-2.93742883019149303436279296875</LongitudeDegrees>
            </Position>
            <AltitudeMeters>5.19999980926513671875</AltitudeMeters>
            <DistanceMeters>NAN</DistanceMeters>
          </Trackpoint>
          <Trackpoint>
            <Time>2022-09-24T16:23:51.000Z</Time>
            <Position>
              <LatitudeDegrees>43.36745361797511577606201171875</LatitudeDegrees>
              <LongitudeDegrees>-2.9375048540532588958740234375</LongitudeDegrees>
            </Position>
            <AltitudeMeters>5.400000095367431640625</AltitudeMeters>
            <DistanceMeters>NAN</DistanceMeters>
          </Trackpoint>
          <Trackpoint>
            <Time>2022-09-24T16:23:52.000Z</Time>
            <Position>
              <LatitudeDegrees>43.36746535263955593109130859375</LatitudeDegrees>
              <LongitudeDegrees>-2.93755103833973407745361328125</LongitudeDegrees>
            </Position>
            <AltitudeMeters>5.400000095367431640625</AltitudeMeters>
            <DistanceMeters>NAN</DistanceMeters>
          </Trackpoint>
          <Trackpoint>
            <Time>2022-09-24T16:23:53.000Z</Time>
            <Position>
              <LatitudeDegrees>43.3674806915223598480224609375</LatitudeDegrees>
              <LongitudeDegrees>-2.93760669417679309844970703125</LongitudeDegrees>
            </Position>
            <AltitudeMeters>5.80000019073486328125</AltitudeMeters>
            <DistanceMeters>NAN</DistanceMeters>
          </Trackpoint>
          <Trackpoint>
            <Time>2022-09-24T16:23:54.000Z</Time>
            <Position>
              <LatitudeDegrees>43.36749351583421230316162109375</LatitudeDegrees>
              <LongitudeDegrees>-2.9376641102135181427001953125</LongitudeDegrees>
            </Position>
            <AltitudeMeters>5.80000019073486328125</AltitudeMeters>
            <DistanceMeters>NAN</DistanceMeters>
          </Trackpoint>
          <Trackpoint>
            <Time>2022-09-24T16:23:55.000Z</Time>
            <Position>
              <LatitudeDegrees>43.367506675422191619873046875</LatitudeDegrees>
              <LongitudeDegrees>-2.9377237893640995025634765625</LongitudeDegrees>
            </Position>
            <AltitudeMeters>6</AltitudeMeters>
            <DistanceMeters>NAN</DistanceMeters>
          </Trackpoint>
          <Trackpoint>
            <Time>2022-09-24T16:23:56.000Z</Time>
            <Position>
              <LatitudeDegrees>43.3675212599337100982666015625</LatitudeDegrees>
              <LongitudeDegrees>-2.93778321705758571624755859375</LongitudeDegrees>
            </Position>
            <AltitudeMeters>6</AltitudeMeters>
            <DistanceMeters>NAN</DistanceMeters>
          </Trackpoint>
          <Trackpoint>
            <Time>2022-09-24T16:23:57.000Z</Time>
            <Position>
              <LatitudeDegrees>43.36753374896943569183349609375</LatitudeDegrees>
              <LongitudeDegrees>-2.93784239329397678375244140625</LongitudeDegrees>
            </Position>
            <AltitudeMeters>6.19999980926513671875</AltitudeMeters>
            <DistanceMeters>NAN</DistanceMeters>
          </Trackpoint>
          <Trackpoint>
            <Time>2022-09-24T16:23:58.000Z</Time>
            <Position>
              <LatitudeDegrees>43.36754514835774898529052734375</LatitudeDegrees>
              <LongitudeDegrees>-2.93790240772068500518798828125</LongitudeDegrees>
            </Position>
            <AltitudeMeters>6.19999980926513671875</AltitudeMeters>
            <DistanceMeters>NAN</DistanceMeters>
          </Trackpoint>
          <Trackpoint>
            <Time>2022-09-24T16:23:59.000Z</Time>
            <Position>
              <LatitudeDegrees>43.367556631565093994140625</LatitudeDegrees>
              <LongitudeDegrees>-2.9379604943096637725830078125</LongitudeDegrees>
            </Position>
            <AltitudeMeters>6.400000095367431640625</AltitudeMeters>
            <DistanceMeters>NAN</DistanceMeters>
          </Trackpoint>
          <Trackpoint>
            <Time>2022-09-24T16:24:00.000Z</Time>
            <Position>
              <LatitudeDegrees>43.3675692044198513031005859375</LatitudeDegrees>
              <LongitudeDegrees>-2.93801556341350078582763671875</LongitudeDegrees>
            </Position>
            <AltitudeMeters>6.80000019073486328125</AltitudeMeters>
            <DistanceMeters>NAN</DistanceMeters>
          </Trackpoint>
          <Trackpoint>
            <Time>2022-09-24T16:24:01.000Z</Time>
            <Position>
              <LatitudeDegrees>43.36758102290332317352294921875</LatitudeDegrees>
              <LongitudeDegrees>-2.93807222507894039154052734375</LongitudeDegrees>
            </Position>
            <AltitudeMeters>6.80000019073486328125</AltitudeMeters>
            <DistanceMeters>NAN</DistanceMeters>
          </Trackpoint>
          <Trackpoint>
            <Time>2022-09-24T16:24:02.000Z</Time>
            <Position>
              <LatitudeDegrees>43.367593176662921905517578125</LatitudeDegrees>
              <LongitudeDegrees>-2.93813324533402919769287109375</LongitudeDegrees>
            </Position>
            <AltitudeMeters>7</AltitudeMeters>
            <DistanceMeters>NAN</DistanceMeters>
          </Trackpoint>
          <Trackpoint>
            <Time>2022-09-24T16:24:03.000Z</Time>
            <Position>
              <LatitudeDegrees>43.367605917155742645263671875</LatitudeDegrees>
              <LongitudeDegrees>-2.9381941817700862884521484375</LongitudeDegrees>
            </Position>
            <AltitudeMeters>7</AltitudeMeters>
            <DistanceMeters>NAN</DistanceMeters>
          </Trackpoint>
          <Trackpoint>
            <Time>2022-09-24T16:24:04.000Z</Time>
            <Position>
              <LatitudeDegrees>43.367619328200817108154296875</LatitudeDegrees>
              <LongitudeDegrees>-2.93825444765388965606689453125</LongitudeDegrees>
            </Position>
            <AltitudeMeters>7.400000095367431640625</AltitudeMeters>
            <DistanceMeters>NAN</DistanceMeters>
          </Trackpoint>
          <Trackpoint>
            <Time>2022-09-24T16:24:05.000Z</Time>
            <Position>
              <LatitudeDegrees>43.3676357567310333251953125</LatitudeDegrees>
              <LongitudeDegrees>-2.9383095167577266693115234375</LongitudeDegrees>
            </Position>
            <AltitudeMeters>7.599999904632568359375</AltitudeMeters>
            <DistanceMeters>NAN</DistanceMeters>
          </Trackpoint>
          <Trackpoint>
            <Time>2022-09-24T16:24:06.000Z</Time>
            <Position>
              <LatitudeDegrees>43.3676510117948055267333984375</LatitudeDegrees>
              <LongitudeDegrees>-2.938366346061229705810546875</LongitudeDegrees>
            </Position>
            <AltitudeMeters>7.80000019073486328125</AltitudeMeters>
            <DistanceMeters>NAN</DistanceMeters>
          </Trackpoint>
          <Trackpoint>
            <Time>2022-09-24T16:24:07.000Z</Time>
            <Position>
              <LatitudeDegrees>43.36766852997243404388427734375</LatitudeDegrees>
              <LongitudeDegrees>-2.93842627666890621185302734375</LongitudeDegrees>
            </Position>
            <AltitudeMeters>7.80000019073486328125</AltitudeMeters>
            <DistanceMeters>NAN</DistanceMeters>
          </Trackpoint>
          <Trackpoint>
            <Time>2022-09-24T16:24:08.000Z</Time>
            <Position>
              <LatitudeDegrees>43.36768738925457000732421875</LatitudeDegrees>
              <LongitudeDegrees>-2.9384895600378513336181640625</LongitudeDegrees>
            </Position>
            <AltitudeMeters>7.80000019073486328125</AltitudeMeters>
            <DistanceMeters>NAN</DistanceMeters>
          </Trackpoint>
          <Trackpoint>
            <Time>2022-09-24T16:24:09.000Z</Time>
            <Position>
              <LatitudeDegrees>43.367703147232532501220703125</LatitudeDegrees>
              <LongitudeDegrees>-2.9385552741587162017822265625</LongitudeDegrees>
            </Position>
            <AltitudeMeters>8</AltitudeMeters>
            <DistanceMeters>NAN</DistanceMeters>
          </Trackpoint>
          <Trackpoint>
            <Time>2022-09-24T16:24:10.000Z</Time>
            <Position>
              <LatitudeDegrees>43.36771865375339984893798828125</LatitudeDegrees>
              <LongitudeDegrees>-2.93861906044185161590576171875</LongitudeDegrees>
            </Position>
            <AltitudeMeters>8</AltitudeMeters>
            <DistanceMeters>NAN</DistanceMeters>
          </Trackpoint>
          <Trackpoint>
            <Time>2022-09-24T16:24:11.000Z</Time>
            <Position>
              <LatitudeDegrees>43.3677351661026477813720703125</LatitudeDegrees>
              <LongitudeDegrees>-2.938685528934001922607421875</LongitudeDegrees>
            </Position>
            <AltitudeMeters>8</AltitudeMeters>
            <DistanceMeters>NAN</DistanceMeters>
          </Trackpoint>
          <Trackpoint>
            <Time>2022-09-24T16:24:12.000Z</Time>
            <Position>
              <LatitudeDegrees>43.36775335483253002166748046875</LatitudeDegrees>
              <LongitudeDegrees>-2.9387530870735645294189453125</LongitudeDegrees>
            </Position>
            <AltitudeMeters>8</AltitudeMeters>
            <DistanceMeters>NAN</DistanceMeters>
          </Trackpoint>
          <Trackpoint>
            <Time>2022-09-24T16:24:13.000Z</Time>
            <Position>
              <LatitudeDegrees>43.36777321994304656982421875</LatitudeDegrees>
              <LongitudeDegrees>-2.93882198631763458251953125</LongitudeDegrees>
            </Position>
            <AltitudeMeters>8</AltitudeMeters>
            <DistanceMeters>NAN</DistanceMeters>
          </Trackpoint>
          <Trackpoint>
            <Time>2022-09-24T16:24:14.000Z</Time>
            <Position>
              <LatitudeDegrees>43.36779467761516571044921875</LatitudeDegrees>
              <LongitudeDegrees>-2.93889113701879978179931640625</LongitudeDegrees>
            </Position>
            <AltitudeMeters>8.19999980926513671875</AltitudeMeters>
            <DistanceMeters>NAN</DistanceMeters>
          </Trackpoint>
          <Trackpoint>
            <Time>2022-09-24T16:24:15.000Z</Time>
            <Position>
              <LatitudeDegrees>43.36781538091599941253662109375</LatitudeDegrees>
              <LongitudeDegrees>-2.93896288610994815826416015625</LongitudeDegrees>
            </Position>
            <AltitudeMeters>8.19999980926513671875</AltitudeMeters>
            <DistanceMeters>NAN</DistanceMeters>
          </Trackpoint>
          <Trackpoint>
            <Time>2022-09-24T16:24:16.000Z</Time>
            <Position>
              <LatitudeDegrees>43.36783885024487972259521484375</LatitudeDegrees>
              <LongitudeDegrees>-2.93903253972530364990234375</LongitudeDegrees>
            </Position>
            <AltitudeMeters>8.3999996185302734375</AltitudeMeters>
            <DistanceMeters>NAN</DistanceMeters>
          </Trackpoint>
          <Trackpoint>
            <Time>2022-09-24T16:24:17.000Z</Time>
            <Position>
              <LatitudeDegrees>43.36786684580147266387939453125</LatitudeDegrees>
              <LongitudeDegrees>-2.93910562992095947265625</LongitudeDegrees>
            </Position>
            <AltitudeMeters>8.3999996185302734375</AltitudeMeters>
            <DistanceMeters>NAN</DistanceMeters>
          </Trackpoint>
          <Trackpoint>
            <Time>2022-09-24T16:24:18.000Z</Time>
            <Position>
              <LatitudeDegrees>43.36789953522384166717529296875</LatitudeDegrees>
              <LongitudeDegrees>-2.9391765408217906951904296875</LongitudeDegrees>
            </Position>
            <AltitudeMeters>8.3999996185302734375</AltitudeMeters>
            <DistanceMeters>NAN</DistanceMeters>
          </Trackpoint>
          <Trackpoint>
            <Time>2022-09-24T16:24:19.000Z</Time>
            <Position>
              <LatitudeDegrees>43.36793222464621067047119140625</LatitudeDegrees>
              <LongitudeDegrees>-2.93924116529524326324462890625</LongitudeDegrees>
            </Position>
            <AltitudeMeters>8.3999996185302734375</AltitudeMeters>
            <DistanceMeters>NAN</DistanceMeters>
          </Trackpoint>
          <Trackpoint>
            <Time>2022-09-24T16:24:20.000Z</Time>
            <Position>
              <LatitudeDegrees>43.36796541698276996612548828125</LatitudeDegrees>
              <LongitudeDegrees>-2.93930520303547382354736328125</LongitudeDegrees>
            </Position>
            <AltitudeMeters>8.3999996185302734375</AltitudeMeters>
            <DistanceMeters>NAN</DistanceMeters>
          </Trackpoint>
          <Trackpoint>
            <Time>2022-09-24T16:24:21.000Z</Time>
            <Position>
              <LatitudeDegrees>43.3679996989667415618896484375</LatitudeDegrees>
              <LongitudeDegrees>-2.93937074951827526092529296875</LongitudeDegrees>
            </Position>
            <AltitudeMeters>6.599999904632568359375</AltitudeMeters>
            <DistanceMeters>NAN</DistanceMeters>
          </Trackpoint>
          <Trackpoint>
            <Time>2022-09-24T16:24:22.000Z</Time>
            <Position>
              <LatitudeDegrees>43.3680285327136516571044921875</LatitudeDegrees>
              <LongitudeDegrees>-2.939439900219440460205078125</LongitudeDegrees>
            </Position>
            <AltitudeMeters>6.599999904632568359375</AltitudeMeters>
            <DistanceMeters>NAN</DistanceMeters>
          </Trackpoint>
          <Trackpoint>
            <Time>2022-09-24T16:24:23.000Z</Time>
            <Position>
              <LatitudeDegrees>43.3680568635463714599609375</LatitudeDegrees>
              <LongitudeDegrees>-2.93951408006250858306884765625</LongitudeDegrees>
            </Position>
            <AltitudeMeters>6.599999904632568359375</AltitudeMeters>
            <DistanceMeters>NAN</DistanceMeters>
          </Trackpoint>
          <Trackpoint>
            <Time>2022-09-24T16:24:24.000Z</Time>
            <Position>
              <LatitudeDegrees>43.36809215135872364044189453125</LatitudeDegrees>
              <LongitudeDegrees>-2.9395902715623378753662109375</LongitudeDegrees>
            </Position>
            <AltitudeMeters>6.599999904632568359375</AltitudeMeters>
            <DistanceMeters>NAN</DistanceMeters>
          </Trackpoint>
          <Trackpoint>
            <Time>2022-09-24T16:24:25.000Z</Time>
            <Position>
              <LatitudeDegrees>43.36812953464686870574951171875</LatitudeDegrees>
              <LongitudeDegrees>-2.9396673850715160369873046875</LongitudeDegrees>
            </Position>
            <AltitudeMeters>6.80000019073486328125</AltitudeMeters>
            <DistanceMeters>NAN</DistanceMeters>
          </Trackpoint>
          <Trackpoint>
            <Time>2022-09-24T16:24:26.000Z</Time>
            <Position>
              <LatitudeDegrees>43.36816775612533092498779296875</LatitudeDegrees>
              <LongitudeDegrees>-2.9397444985806941986083984375</LongitudeDegrees>
            </Position>
            <AltitudeMeters>6.599999904632568359375</AltitudeMeters>
            <DistanceMeters>NAN</DistanceMeters>
          </Trackpoint>
          <Trackpoint>
            <Time>2022-09-24T16:24:27.000Z</Time>
            <Position>
              <LatitudeDegrees>43.368206061422824859619140625</LatitudeDegrees>
              <LongitudeDegrees>-2.93982446193695068359375</LongitudeDegrees>
            </Position>
            <AltitudeMeters>6.599999904632568359375</AltitudeMeters>
            <DistanceMeters>NAN</DistanceMeters>
          </Trackpoint>
          <Trackpoint>
            <Time>2022-09-24T16:24:28.000Z</Time>
            <Position>
              <LatitudeDegrees>43.36824771948158740997314453125</LatitudeDegrees>
              <LongitudeDegrees>-2.93990300036966800689697265625</LongitudeDegrees>
            </Position>
            <AltitudeMeters>6.599999904632568359375</AltitudeMeters>
            <DistanceMeters>NAN</DistanceMeters>
          </Trackpoint>
          <Trackpoint>
            <Time>2022-09-24T16:24:29.000Z</Time>
            <Position>
              <LatitudeDegrees>43.3682863600552082061767578125</LatitudeDegrees>
              <LongitudeDegrees>-2.939985059201717376708984375</LongitudeDegrees>
            </Position>
            <AltitudeMeters>6</AltitudeMeters>
            <DistanceMeters>NAN</DistanceMeters>
          </Trackpoint>
          <Trackpoint>
            <Time>2022-09-24T16:24:30.000Z</Time>
            <Position>
              <LatitudeDegrees>43.3683269284665584564208984375</LatitudeDegrees>
              <LongitudeDegrees>-2.94006410054862499237060546875</LongitudeDegrees>
            </Position>
            <AltitudeMeters>5.80000019073486328125</AltitudeMeters>
            <DistanceMeters>NAN</DistanceMeters>
          </Trackpoint>
          <Trackpoint>
            <Time>2022-09-24T16:24:31.000Z</Time>
            <Position>
              <LatitudeDegrees>43.36836875416338443756103515625</LatitudeDegrees>
              <LongitudeDegrees>-2.94014305807650089263916015625</LongitudeDegrees>
            </Position>
            <AltitudeMeters>5.400000095367431640625</AltitudeMeters>
            <DistanceMeters>NAN</DistanceMeters>
          </Trackpoint>
          <Trackpoint>
            <Time>2022-09-24T16:24:32.000Z</Time>
            <Position>
              <LatitudeDegrees>43.36841150186955928802490234375</LatitudeDegrees>
              <LongitudeDegrees>-2.94022754766047000885009765625</LongitudeDegrees>
            </Position>
            <AltitudeMeters>4.400000095367431640625</AltitudeMeters>
            <DistanceMeters>NAN</DistanceMeters>
          </Trackpoint>
          <Trackpoint>
            <Time>2022-09-24T16:24:33.000Z</Time>
            <Position>
              <LatitudeDegrees>43.3684533275663852691650390625</LatitudeDegrees>
              <LongitudeDegrees>-2.94031455181539058685302734375</LongitudeDegrees>
            </Position>
            <AltitudeMeters>3.7999999523162841796875</AltitudeMeters>
            <DistanceMeters>NAN</DistanceMeters>
          </Trackpoint>
          <Trackpoint>
            <Time>2022-09-24T16:24:34.000Z</Time>
            <Position>
              <LatitudeDegrees>43.3684980869293212890625</LatitudeDegrees>
              <LongitudeDegrees>-2.94039736501872539520263671875</LongitudeDegrees>
            </Position>
            <AltitudeMeters>3.400000095367431640625</AltitudeMeters>
            <DistanceMeters>NAN</DistanceMeters>
          </Trackpoint>
          <Trackpoint>
            <Time>2022-09-24T16:24:35.000Z</Time>
            <Position>
              <LatitudeDegrees>43.3684980869293212890625</LatitudeDegrees>
              <LongitudeDegrees>-2.94039736501872539520263671875</LongitudeDegrees>
            </Position>
            <AltitudeMeters>3</AltitudeMeters>
            <DistanceMeters>NAN</DistanceMeters>
          </Trackpoint>
          <Trackpoint>
            <Time>2022-09-24T16:24:36.000Z</Time>
            <Position>
              <LatitudeDegrees>43.36859104223549365997314453125</LatitudeDegrees>
              <LongitudeDegrees>-2.94056215323507785797119140625</LongitudeDegrees>
            </Position>
            <AltitudeMeters>3</AltitudeMeters>
            <DistanceMeters>NAN</DistanceMeters>
          </Trackpoint>
          <Trackpoint>
            <Time>2022-09-24T16:24:37.000Z</Time>
            <Position>
              <LatitudeDegrees>43.3686387352645397186279296875</LatitudeDegrees>
              <LongitudeDegrees>-2.9406438767910003662109375</LongitudeDegrees>
            </Position>
            <AltitudeMeters>2.7999999523162841796875</AltitudeMeters>
            <DistanceMeters>NAN</DistanceMeters>
          </Trackpoint>
          <Trackpoint>
            <Time>2022-09-24T16:24:38.000Z</Time>
            <Position>
              <LatitudeDegrees>43.36868843995034694671630859375</LatitudeDegrees>
              <LongitudeDegrees>-2.940723337233066558837890625</LongitudeDegrees>
            </Position>
            <AltitudeMeters>2.2000000476837158203125</AltitudeMeters>
            <DistanceMeters>NAN</DistanceMeters>
          </Trackpoint>
          <Trackpoint>
            <Time>2022-09-24T16:24:39.000Z</Time>
            <Position>
              <LatitudeDegrees>43.36873940192162990570068359375</LatitudeDegrees>
              <LongitudeDegrees>-2.9407996125519275665283203125</LongitudeDegrees>
            </Position>
            <AltitudeMeters>2.2000000476837158203125</AltitudeMeters>
            <DistanceMeters>NAN</DistanceMeters>
          </Trackpoint>
          <Trackpoint>
            <Time>2022-09-24T16:24:40.000Z</Time>
            <Position>
              <LatitudeDegrees>43.36878952570259571075439453125</LatitudeDegrees>
              <LongitudeDegrees>-2.94087521731853485107421875</LongitudeDegrees>
            </Position>
            <AltitudeMeters>2.7999999523162841796875</AltitudeMeters>
            <DistanceMeters>NAN</DistanceMeters>
          </Trackpoint>
          <Trackpoint>
            <Time>2022-09-24T16:24:41.000Z</Time>
            <Position>
              <LatitudeDegrees>43.368841074407100677490234375</LatitudeDegrees>
              <LongitudeDegrees>-2.94095031917095184326171875</LongitudeDegrees>
            </Position>
            <AltitudeMeters>2.7999999523162841796875</AltitudeMeters>
            <DistanceMeters>NAN</DistanceMeters>
          </Trackpoint>
          <Trackpoint>
            <Time>2022-09-24T16:24:42.000Z</Time>
            <Position>
              <LatitudeDegrees>43.36889413185417652130126953125</LatitudeDegrees>
              <LongitudeDegrees>-2.94102433137595653533935546875</LongitudeDegrees>
            </Position>
            <AltitudeMeters>2.7999999523162841796875</AltitudeMeters>
            <DistanceMeters>NAN</DistanceMeters>
          </Trackpoint>
          <Trackpoint>
            <Time>2022-09-24T16:24:43.000Z</Time>
            <Position>
              <LatitudeDegrees>43.36894459091126918792724609375</LatitudeDegrees>
              <LongitudeDegrees>-2.94110027141869068145751953125</LongitudeDegrees>
            </Position>
            <AltitudeMeters>2.7999999523162841796875</AltitudeMeters>
            <DistanceMeters>NAN</DistanceMeters>
          </Trackpoint>
          <Trackpoint>
            <Time>2022-09-24T16:24:44.000Z</Time>
            <Position>
              <LatitudeDegrees>43.3689964748919010162353515625</LatitudeDegrees>
              <LongitudeDegrees>-2.9411731101572513580322265625</LongitudeDegrees>
            </Position>
            <AltitudeMeters>2.7999999523162841796875</AltitudeMeters>
            <DistanceMeters>NAN</DistanceMeters>
          </Trackpoint>
          <Trackpoint>
            <Time>2022-09-24T16:24:45.000Z</Time>
            <Position>
              <LatitudeDegrees>43.36904634721577167510986328125</LatitudeDegrees>
              <LongitudeDegrees>-2.941245026886463165283203125</LongitudeDegrees>
            </Position>
            <AltitudeMeters>3</AltitudeMeters>
            <DistanceMeters>NAN</DistanceMeters>
          </Trackpoint>
          <Trackpoint>
            <Time>2022-09-24T16:24:46.000Z</Time>
            <Position>
              <LatitudeDegrees>43.369095884263515472412109375</LatitudeDegrees>
              <LongitudeDegrees>-2.9413182847201824188232421875</LongitudeDegrees>
            </Position>
            <AltitudeMeters>3</AltitudeMeters>
            <DistanceMeters>NAN</DistanceMeters>
          </Trackpoint>
          <Trackpoint>
            <Time>2022-09-24T16:24:47.000Z</Time>
            <Position>
              <LatitudeDegrees>43.36914575658738613128662109375</LatitudeDegrees>
              <LongitudeDegrees>-2.9413895308971405029296875</LongitudeDegrees>
            </Position>
            <AltitudeMeters>3</AltitudeMeters>
            <DistanceMeters>NAN</DistanceMeters>
          </Trackpoint>
          <Trackpoint>
            <Time>2022-09-24T16:24:48.000Z</Time>
            <Position>
              <LatitudeDegrees>43.36919344961643218994140625</LatitudeDegrees>
              <LongitudeDegrees>-2.9414584301412105560302734375</LongitudeDegrees>
            </Position>
            <AltitudeMeters>3.2000000476837158203125</AltitudeMeters>
            <DistanceMeters>NAN</DistanceMeters>
          </Trackpoint>
          <Trackpoint>
            <Time>2022-09-24T16:24:49.000Z</Time>
            <Position>
              <LatitudeDegrees>43.36923963390290737152099609375</LatitudeDegrees>
              <LongitudeDegrees>-2.94152623973786830902099609375</LongitudeDegrees>
            </Position>
            <AltitudeMeters>3.2000000476837158203125</AltitudeMeters>
            <DistanceMeters>NAN</DistanceMeters>
          </Trackpoint>
          <Trackpoint>
            <Time>2022-09-24T16:24:50.000Z</Time>
            <Position>
              <LatitudeDegrees>43.3692854829132556915283203125</LatitudeDegrees>
              <LongitudeDegrees>-2.94159430079162120819091796875</LongitudeDegrees>
            </Position>
            <AltitudeMeters>4.400000095367431640625</AltitudeMeters>
            <DistanceMeters>NAN</DistanceMeters>
          </Trackpoint>
          <Trackpoint>
            <Time>2022-09-24T16:24:51.000Z</Time>
            <Position>
              <LatitudeDegrees>43.3693230338394641876220703125</LatitudeDegrees>
              <LongitudeDegrees>-2.9416488669812679290771484375</LongitudeDegrees>
            </Position>
            <AltitudeMeters>4.599999904632568359375</AltitudeMeters>
            <DistanceMeters>NAN</DistanceMeters>
          </Trackpoint>
          <Trackpoint>
            <Time>2022-09-24T16:24:52.000Z</Time>
            <Position>
              <LatitudeDegrees>43.36938044987618923187255859375</LatitudeDegrees>
              <LongitudeDegrees>-2.94172774069011211395263671875</LongitudeDegrees>
            </Position>
            <AltitudeMeters>4.80000019073486328125</AltitudeMeters>
            <DistanceMeters>NAN</DistanceMeters>
          </Trackpoint>
          <Trackpoint>
            <Time>2022-09-24T16:24:53.000Z</Time>
            <Position>
              <LatitudeDegrees>43.3694252930581569671630859375</LatitudeDegrees>
              <LongitudeDegrees>-2.94179060496389865875244140625</LongitudeDegrees>
            </Position>
            <AltitudeMeters>5.400000095367431640625</AltitudeMeters>
            <DistanceMeters>NAN</DistanceMeters>
          </Trackpoint>
          <Trackpoint>
            <Time>2022-09-24T16:24:54.000Z</Time>
            <Position>
              <LatitudeDegrees>43.36946812458336353302001953125</LatitudeDegrees>
              <LongitudeDegrees>-2.941849865019321441650390625</LongitudeDegrees>
            </Position>
            <AltitudeMeters>5.400000095367431640625</AltitudeMeters>
            <DistanceMeters>NAN</DistanceMeters>
          </Trackpoint>
          <Trackpoint>
            <Time>2022-09-24T16:24:55.000Z</Time>
            <Position>
              <LatitudeDegrees>43.369510285556316375732421875</LatitudeDegrees>
              <LongitudeDegrees>-2.941908203065395355224609375</LongitudeDegrees>
            </Position>
            <AltitudeMeters>5.400000095367431640625</AltitudeMeters>
            <DistanceMeters>NAN</DistanceMeters>
          </Trackpoint>
          <Trackpoint>
            <Time>2022-09-24T16:24:56.000Z</Time>
            <Position>
              <LatitudeDegrees>43.36955026723444461822509765625</LatitudeDegrees>
              <LongitudeDegrees>-2.9419633559882640838623046875</LongitudeDegrees>
            </Position>
            <AltitudeMeters>6.400000095367431640625</AltitudeMeters>
            <DistanceMeters>NAN</DistanceMeters>
          </Trackpoint>
          <Trackpoint>
            <Time>2022-09-24T16:24:57.000Z</Time>
            <Position>
              <LatitudeDegrees>43.3695889078080654144287109375</LatitudeDegrees>
              <LongitudeDegrees>-2.94201842509210109710693359375</LongitudeDegrees>
            </Position>
            <AltitudeMeters>6.80000019073486328125</AltitudeMeters>
            <DistanceMeters>NAN</DistanceMeters>
          </Trackpoint>
          <Trackpoint>
            <Time>2022-09-24T16:24:58.000Z</Time>
            <Position>
              <LatitudeDegrees>43.36962821893393993377685546875</LatitudeDegrees>
              <LongitudeDegrees>-2.94207341037690639495849609375</LongitudeDegrees>
            </Position>
            <AltitudeMeters>6.80000019073486328125</AltitudeMeters>
            <DistanceMeters>NAN</DistanceMeters>
          </Trackpoint>
          <Trackpoint>
            <Time>2022-09-24T16:24:59.000Z</Time>
            <Position>
              <LatitudeDegrees>43.369665853679180145263671875</LatitudeDegrees>
              <LongitudeDegrees>-2.94212940149009227752685546875</LongitudeDegrees>
            </Position>
            <AltitudeMeters>7</AltitudeMeters>
            <DistanceMeters>NAN</DistanceMeters>
          </Trackpoint>
          <Trackpoint>
            <Time>2022-09-24T16:25:00.000Z</Time>
            <Position>
              <LatitudeDegrees>43.36970181204378604888916015625</LatitudeDegrees>
              <LongitudeDegrees>-2.94218673370778560638427734375</LongitudeDegrees>
            </Position>
            <AltitudeMeters>7.19999980926513671875</AltitudeMeters>
            <DistanceMeters>NAN</DistanceMeters>
          </Trackpoint>
          <Trackpoint>
            <Time>2022-09-24T16:25:01.000Z</Time>
            <Position>
              <LatitudeDegrees>43.36973584257066249847412109375</LatitudeDegrees>
              <LongitudeDegrees>-2.94223912060260772705078125</LongitudeDegrees>
            </Position>
            <AltitudeMeters>7.400000095367431640625</AltitudeMeters>
            <DistanceMeters>NAN</DistanceMeters>
          </Trackpoint>
          <Trackpoint>
            <Time>2022-09-24T16:25:02.000Z</Time>
            <Position>
              <LatitudeDegrees>43.3697686158120632171630859375</LatitudeDegrees>
              <LongitudeDegrees>-2.94228849001228809356689453125</LongitudeDegrees>
            </Position>
            <AltitudeMeters>7.400000095367431640625</AltitudeMeters>
            <DistanceMeters>NAN</DistanceMeters>
          </Trackpoint>
          <Trackpoint>
            <Time>2022-09-24T16:25:03.000Z</Time>
            <Position>
              <LatitudeDegrees>43.36980189196765422821044921875</LatitudeDegrees>
              <LongitudeDegrees>-2.94233576394617557525634765625</LongitudeDegrees>
            </Position>
            <AltitudeMeters>7.599999904632568359375</AltitudeMeters>
            <DistanceMeters>NAN</DistanceMeters>
          </Trackpoint>
          <Trackpoint>
            <Time>2022-09-24T16:25:04.000Z</Time>
            <Position>
              <LatitudeDegrees>43.36983458139002323150634765625</LatitudeDegrees>
              <LongitudeDegrees>-2.94238035567104816436767578125</LongitudeDegrees>
            </Position>
            <AltitudeMeters>7.599999904632568359375</AltitudeMeters>
            <DistanceMeters>NAN</DistanceMeters>
          </Trackpoint>
          <Trackpoint>
            <Time>2022-09-24T16:25:05.000Z</Time>
            <Position>
              <LatitudeDegrees>43.36986039765179157257080078125</LatitudeDegrees>
              <LongitudeDegrees>-2.9424139671027660369873046875</LongitudeDegrees>
            </Position>
            <AltitudeMeters>9.19999980926513671875</AltitudeMeters>
            <DistanceMeters>NAN</DistanceMeters>
          </Trackpoint>
          <Trackpoint>
            <Time>2022-09-24T16:25:06.000Z</Time>
            <Position>
              <LatitudeDegrees>43.3698919974267482757568359375</LatitudeDegrees>
              <LongitudeDegrees>-2.9424583911895751953125</LongitudeDegrees>
            </Position>
            <AltitudeMeters>9.3999996185302734375</AltitudeMeters>
            <DistanceMeters>NAN</DistanceMeters>
          </Trackpoint>
          <Trackpoint>
            <Time>2022-09-24T16:25:07.000Z</Time>
            <Position>
              <LatitudeDegrees>43.3699183166027069091796875</LatitudeDegrees>
              <LongitudeDegrees>-2.9425041563808917999267578125</LongitudeDegrees>
            </Position>
            <AltitudeMeters>10.19999980926513671875</AltitudeMeters>
            <DistanceMeters>NAN</DistanceMeters>
          </Trackpoint>
          <Trackpoint>
            <Time>2022-09-24T16:25:08.000Z</Time>
            <Position>
              <LatitudeDegrees>43.369950167834758758544921875</LatitudeDegrees>
              <LongitudeDegrees>-2.94255964457988739013671875</LongitudeDegrees>
            </Position>
            <AltitudeMeters>10.19999980926513671875</AltitudeMeters>
            <DistanceMeters>NAN</DistanceMeters>
          </Trackpoint>
          <Trackpoint>
            <Time>2022-09-24T16:25:09.000Z</Time>
            <Position>
              <LatitudeDegrees>43.36997908540070056915283203125</LatitudeDegrees>
              <LongitudeDegrees>-2.9426080919802188873291015625</LongitudeDegrees>
            </Position>
            <AltitudeMeters>10.3999996185302734375</AltitudeMeters>
            <DistanceMeters>NAN</DistanceMeters>
          </Trackpoint>
          <Trackpoint>
            <Time>2022-09-24T16:25:10.000Z</Time>
            <Position>
              <LatitudeDegrees>43.370009176433086395263671875</LatitudeDegrees>
              <LongitudeDegrees>-2.9426510073244571685791015625</LongitudeDegrees>
            </Position>
            <AltitudeMeters>11.19999980926513671875</AltitudeMeters>
            <DistanceMeters>NAN</DistanceMeters>
          </Trackpoint>
          <Trackpoint>
            <Time>2022-09-24T16:25:11.000Z</Time>
            <Position>
              <LatitudeDegrees>43.3700388483703136444091796875</LatitudeDegrees>
              <LongitudeDegrees>-2.94269350357353687286376953125</LongitudeDegrees>
            </Position>
            <AltitudeMeters>11.80000019073486328125</AltitudeMeters>
            <DistanceMeters>NAN</DistanceMeters>
          </Trackpoint>
          <Trackpoint>
            <Time>2022-09-24T16:25:12.000Z</Time>
            <Position>
              <LatitudeDegrees>43.37006826885044574737548828125</LatitudeDegrees>
              <LongitudeDegrees>-2.942735664546489715576171875</LongitudeDegrees>
            </Position>
            <AltitudeMeters>12.80000019073486328125</AltitudeMeters>
            <DistanceMeters>NAN</DistanceMeters>
          </Trackpoint>
          <Trackpoint>
            <Time>2022-09-24T16:25:13.000Z</Time>
            <Position>
              <LatitudeDegrees>43.3700985275208950042724609375</LatitudeDegrees>
              <LongitudeDegrees>-2.94277380220592021942138671875</LongitudeDegrees>
            </Position>
            <AltitudeMeters>13</AltitudeMeters>
            <DistanceMeters>NAN</DistanceMeters>
          </Trackpoint>
          <Trackpoint>
            <Time>2022-09-24T16:25:14.000Z</Time>
            <Position>
              <LatitudeDegrees>43.37012660689651966094970703125</LatitudeDegrees>
              <LongitudeDegrees>-2.9428142867982387542724609375</LongitudeDegrees>
            </Position>
            <AltitudeMeters>13.19999980926513671875</AltitudeMeters>
            <DistanceMeters>NAN</DistanceMeters>
          </Trackpoint>
          <Trackpoint>
            <Time>2022-09-24T16:25:15.000Z</Time>
            <Position>
              <LatitudeDegrees>43.37015493772923946380615234375</LatitudeDegrees>
              <LongitudeDegrees>-2.942857705056667327880859375</LongitudeDegrees>
            </Position>
            <AltitudeMeters>13.19999980926513671875</AltitudeMeters>
            <DistanceMeters>NAN</DistanceMeters>
          </Trackpoint>
          <Trackpoint>
            <Time>2022-09-24T16:25:16.000Z</Time>
            <Position>
              <LatitudeDegrees>43.37018184363842010498046875</LatitudeDegrees>
              <LongitudeDegrees>-2.9429004527628421783447265625</LongitudeDegrees>
            </Position>
            <AltitudeMeters>13.3999996185302734375</AltitudeMeters>
            <DistanceMeters>NAN</DistanceMeters>
          </Trackpoint>
          <Trackpoint>
            <Time>2022-09-24T16:25:17.000Z</Time>
            <Position>
              <LatitudeDegrees>43.37021000683307647705078125</LatitudeDegrees>
              <LongitudeDegrees>-2.942942194640636444091796875</LongitudeDegrees>
            </Position>
            <AltitudeMeters>13.6000003814697265625</AltitudeMeters>
            <DistanceMeters>NAN</DistanceMeters>
          </Trackpoint>
          <Trackpoint>
            <Time>2022-09-24T16:25:18.000Z</Time>
            <Position>
              <LatitudeDegrees>43.37023817002773284912109375</LatitudeDegrees>
              <LongitudeDegrees>-2.94298653490841388702392578125</LongitudeDegrees>
            </Position>
            <AltitudeMeters>14.3999996185302734375</AltitudeMeters>
            <DistanceMeters>NAN</DistanceMeters>
          </Trackpoint>
          <Trackpoint>
            <Time>2022-09-24T16:25:19.000Z</Time>
            <Position>
              <LatitudeDegrees>43.370265997946262359619140625</LatitudeDegrees>
              <LongitudeDegrees>-2.9430310428142547607421875</LongitudeDegrees>
            </Position>
            <AltitudeMeters>14.3999996185302734375</AltitudeMeters>
            <DistanceMeters>NAN</DistanceMeters>
          </Trackpoint>
          <Trackpoint>
            <Time>2022-09-24T16:25:20.000Z</Time>
            <Position>
              <LatitudeDegrees>43.37029625661671161651611328125</LatitudeDegrees>
              <LongitudeDegrees>-2.9430758021771907806396484375</LongitudeDegrees>
            </Position>
            <AltitudeMeters>14.3999996185302734375</AltitudeMeters>
            <DistanceMeters>NAN</DistanceMeters>
          </Trackpoint>
          <Trackpoint>
            <Time>2022-09-24T16:25:21.000Z</Time>
            <Position>
              <LatitudeDegrees>43.3703251741826534271240234375</LatitudeDegrees>
              <LongitudeDegrees>-2.943127937614917755126953125</LongitudeDegrees>
            </Position>
            <AltitudeMeters>14.3999996185302734375</AltitudeMeters>
            <DistanceMeters>NAN</DistanceMeters>
          </Trackpoint>
          <Trackpoint>
            <Time>2022-09-24T16:25:22.000Z</Time>
            <Position>
              <LatitudeDegrees>43.3703526668250560760498046875</LatitudeDegrees>
              <LongitudeDegrees>-2.94318099506199359893798828125</LongitudeDegrees>
            </Position>
            <AltitudeMeters>13.3999996185302734375</AltitudeMeters>
            <DistanceMeters>NAN</DistanceMeters>
          </Trackpoint>
          <Trackpoint>
            <Time>2022-09-24T16:25:23.000Z</Time>
            <Position>
              <LatitudeDegrees>43.3703811652958393096923828125</LatitudeDegrees>
              <LongitudeDegrees>-2.94323095120489597320556640625</LongitudeDegrees>
            </Position>
            <AltitudeMeters>13</AltitudeMeters>
            <DistanceMeters>NAN</DistanceMeters>
          </Trackpoint>
          <Trackpoint>
            <Time>2022-09-24T16:25:24.000Z</Time>
            <Position>
              <LatitudeDegrees>43.37041276507079601287841796875</LatitudeDegrees>
              <LongitudeDegrees>-2.9432799853384494781494140625</LongitudeDegrees>
            </Position>
            <AltitudeMeters>12.80000019073486328125</AltitudeMeters>
            <DistanceMeters>NAN</DistanceMeters>
          </Trackpoint>
          <Trackpoint>
            <Time>2022-09-24T16:25:25.000Z</Time>
            <Position>
              <LatitudeDegrees>43.37044344283640384674072265625</LatitudeDegrees>
              <LongitudeDegrees>-2.943329103291034698486328125</LongitudeDegrees>
            </Position>
            <AltitudeMeters>12.80000019073486328125</AltitudeMeters>
            <DistanceMeters>NAN</DistanceMeters>
          </Trackpoint>
          <Trackpoint>
            <Time>2022-09-24T16:25:26.000Z</Time>
            <Position>
              <LatitudeDegrees>43.37047361768782138824462890625</LatitudeDegrees>
              <LongitudeDegrees>-2.943376041948795318603515625</LongitudeDegrees>
            </Position>
            <AltitudeMeters>12.80000019073486328125</AltitudeMeters>
            <DistanceMeters>NAN</DistanceMeters>
          </Trackpoint>
          <Trackpoint>
            <Time>2022-09-24T16:25:27.000Z</Time>
            <Position>
              <LatitudeDegrees>43.37050295434892177581787109375</LatitudeDegrees>
              <LongitudeDegrees>-2.9434239864349365234375</LongitudeDegrees>
            </Position>
            <AltitudeMeters>12.80000019073486328125</AltitudeMeters>
            <DistanceMeters>NAN</DistanceMeters>
          </Trackpoint>
          <Trackpoint>
            <Time>2022-09-24T16:25:28.000Z</Time>
            <Position>
              <LatitudeDegrees>43.3705325424671173095703125</LatitudeDegrees>
              <LongitudeDegrees>-2.94347318820655345916748046875</LongitudeDegrees>
            </Position>
            <AltitudeMeters>13.19999980926513671875</AltitudeMeters>
            <DistanceMeters>NAN</DistanceMeters>
          </Trackpoint>
          <Trackpoint>
            <Time>2022-09-24T16:25:29.000Z</Time>
            <Position>
              <LatitudeDegrees>43.3705620467662811279296875</LatitudeDegrees>
              <LongitudeDegrees>-2.94352062977850437164306640625</LongitudeDegrees>
            </Position>
            <AltitudeMeters>13.3999996185302734375</AltitudeMeters>
            <DistanceMeters>NAN</DistanceMeters>
          </Trackpoint>
          <Trackpoint>
            <Time>2022-09-24T16:25:30.000Z</Time>
            <Position>
              <LatitudeDegrees>43.37059498764574527740478515625</LatitudeDegrees>
              <LongitudeDegrees>-2.943566143512725830078125</LongitudeDegrees>
            </Position>
            <AltitudeMeters>13.3999996185302734375</AltitudeMeters>
            <DistanceMeters>NAN</DistanceMeters>
          </Trackpoint>
          <Trackpoint>
            <Time>2022-09-24T16:25:31.000Z</Time>
            <Position>
              <LatitudeDegrees>43.37062750943005084991455078125</LatitudeDegrees>
              <LongitudeDegrees>-2.943614423274993896484375</LongitudeDegrees>
            </Position>
            <AltitudeMeters>13.3999996185302734375</AltitudeMeters>
            <DistanceMeters>NAN</DistanceMeters>
          </Trackpoint>
          <Trackpoint>
            <Time>2022-09-24T16:25:32.000Z</Time>
            <Position>
              <LatitudeDegrees>43.370658941566944122314453125</LatitudeDegrees>
              <LongitudeDegrees>-2.94366429559886455535888671875</LongitudeDegrees>
            </Position>
            <AltitudeMeters>13.3999996185302734375</AltitudeMeters>
            <DistanceMeters>NAN</DistanceMeters>
          </Trackpoint>
          <Trackpoint>
            <Time>2022-09-24T16:25:33.000Z</Time>
            <Position>
              <LatitudeDegrees>43.370691798627376556396484375</LatitudeDegrees>
              <LongitudeDegrees>-2.94371559284627437591552734375</LongitudeDegrees>
            </Position>
            <AltitudeMeters>13.3999996185302734375</AltitudeMeters>
            <DistanceMeters>NAN</DistanceMeters>
          </Trackpoint>
          <Trackpoint>
            <Time>2022-09-24T16:25:34.000Z</Time>
            <Position>
              <LatitudeDegrees>43.37072373367846012115478515625</LatitudeDegrees>
              <LongitudeDegrees>-2.94376932084560394287109375</LongitudeDegrees>
            </Position>
            <AltitudeMeters>13.3999996185302734375</AltitudeMeters>
            <DistanceMeters>NAN</DistanceMeters>
          </Trackpoint>
          <Trackpoint>
            <Time>2022-09-24T16:25:35.000Z</Time>
            <Position>
              <LatitudeDegrees>43.37075541727244853973388671875</LatitudeDegrees>
              <LongitudeDegrees>-2.94382388703525066375732421875</LongitudeDegrees>
            </Position>
            <AltitudeMeters>13.3999996185302734375</AltitudeMeters>
            <DistanceMeters>NAN</DistanceMeters>
          </Trackpoint>
          <Trackpoint>
            <Time>2022-09-24T16:25:36.000Z</Time>
            <Position>
              <LatitudeDegrees>43.37078760378062725067138671875</LatitudeDegrees>
              <LongitudeDegrees>-2.9438717477023601531982421875</LongitudeDegrees>
            </Position>
            <AltitudeMeters>13.6000003814697265625</AltitudeMeters>
            <DistanceMeters>NAN</DistanceMeters>
          </Trackpoint>
          <Trackpoint>
            <Time>2022-09-24T16:25:37.000Z</Time>
            <Position>
              <LatitudeDegrees>43.37082364596426486968994140625</LatitudeDegrees>
              <LongitudeDegrees>-2.94391818344593048095703125</LongitudeDegrees>
            </Position>
            <AltitudeMeters>13.6000003814697265625</AltitudeMeters>
            <DistanceMeters>NAN</DistanceMeters>
          </Trackpoint>
          <Trackpoint>
            <Time>2022-09-24T16:25:38.000Z</Time>
            <Position>
              <LatitudeDegrees>43.37085901759564876556396484375</LatitudeDegrees>
              <LongitudeDegrees>-2.94396587647497653961181640625</LongitudeDegrees>
            </Position>
            <AltitudeMeters>13.6000003814697265625</AltitudeMeters>
            <DistanceMeters>NAN</DistanceMeters>
          </Trackpoint>
          <Trackpoint>
            <Time>2022-09-24T16:25:39.000Z</Time>
            <Position>
              <LatitudeDegrees>43.37089220993220806121826171875</LatitudeDegrees>
              <LongitudeDegrees>-2.94401885010302066802978515625</LongitudeDegrees>
            </Position>
            <AltitudeMeters>13.6000003814697265625</AltitudeMeters>
            <DistanceMeters>NAN</DistanceMeters>
          </Trackpoint>
          <Trackpoint>
            <Time>2022-09-24T16:25:40.000Z</Time>
            <Position>
              <LatitudeDegrees>43.37092816829681396484375</LatitudeDegrees>
              <LongitudeDegrees>-2.94407584704458713531494140625</LongitudeDegrees>
            </Position>
            <AltitudeMeters>13.6000003814697265625</AltitudeMeters>
            <DistanceMeters>NAN</DistanceMeters>
          </Trackpoint>
          <Trackpoint>
            <Time>2022-09-24T16:25:41.000Z</Time>
            <Position>
              <LatitudeDegrees>43.37096504867076873779296875</LatitudeDegrees>
              <LongitudeDegrees>-2.944131083786487579345703125</LongitudeDegrees>
            </Position>
            <AltitudeMeters>13.6000003814697265625</AltitudeMeters>
            <DistanceMeters>NAN</DistanceMeters>
          </Trackpoint>
          <Trackpoint>
            <Time>2022-09-24T16:25:42.000Z</Time>
            <Position>
              <LatitudeDegrees>43.3710027672350406646728515625</LatitudeDegrees>
              <LongitudeDegrees>-2.94418598525226116180419921875</LongitudeDegrees>
            </Position>
            <AltitudeMeters>13.6000003814697265625</AltitudeMeters>
            <DistanceMeters>NAN</DistanceMeters>
          </Trackpoint>
          <Trackpoint>
            <Time>2022-09-24T16:25:43.000Z</Time>
            <Position>
              <LatitudeDegrees>43.3710396476089954376220703125</LatitudeDegrees>
              <LongitudeDegrees>-2.9442422278225421905517578125</LongitudeDegrees>
            </Position>
            <AltitudeMeters>13.6000003814697265625</AltitudeMeters>
            <DistanceMeters>NAN</DistanceMeters>
          </Trackpoint>
          <Trackpoint>
            <Time>2022-09-24T16:25:44.000Z</Time>
            <Position>
              <LatitudeDegrees>43.371076695621013641357421875</LatitudeDegrees>
              <LongitudeDegrees>-2.94429771602153778076171875</LongitudeDegrees>
            </Position>
            <AltitudeMeters>13.6000003814697265625</AltitudeMeters>
            <DistanceMeters>NAN</DistanceMeters>
          </Trackpoint>
          <Trackpoint>
            <Time>2022-09-24T16:25:45.000Z</Time>
            <Position>
              <LatitudeDegrees>43.37111550383269786834716796875</LatitudeDegrees>
              <LongitudeDegrees>-2.94435613788664340972900390625</LongitudeDegrees>
            </Position>
            <AltitudeMeters>13.6000003814697265625</AltitudeMeters>
            <DistanceMeters>NAN</DistanceMeters>
          </Trackpoint>
          <Trackpoint>
            <Time>2022-09-24T16:25:46.000Z</Time>
            <Position>
              <LatitudeDegrees>43.3711546473205089569091796875</LatitudeDegrees>
              <LongitudeDegrees>-2.94441414065659046173095703125</LongitudeDegrees>
            </Position>
            <AltitudeMeters>13.80000019073486328125</AltitudeMeters>
            <DistanceMeters>NAN</DistanceMeters>
          </Trackpoint>
          <Trackpoint>
            <Time>2022-09-24T16:25:47.000Z</Time>
            <Position>
              <LatitudeDegrees>43.37119194678962230682373046875</LatitudeDegrees>
              <LongitudeDegrees>-2.9444735683500766754150390625</LongitudeDegrees>
            </Position>
            <AltitudeMeters>13.80000019073486328125</AltitudeMeters>
            <DistanceMeters>NAN</DistanceMeters>
          </Trackpoint>
          <Trackpoint>
            <Time>2022-09-24T16:25:48.000Z</Time>
            <Position>
              <LatitudeDegrees>43.37122924625873565673828125</LatitudeDegrees>
              <LongitudeDegrees>-2.94453182257711887359619140625</LongitudeDegrees>
            </Position>
            <AltitudeMeters>14</AltitudeMeters>
            <DistanceMeters>NAN</DistanceMeters>
          </Trackpoint>
          <Trackpoint>
            <Time>2022-09-24T16:25:49.000Z</Time>
            <Position>
              <LatitudeDegrees>43.37126704864203929901123046875</LatitudeDegrees>
              <LongitudeDegrees>-2.9445894062519073486328125</LongitudeDegrees>
            </Position>
            <AltitudeMeters>14.80000019073486328125</AltitudeMeters>
            <DistanceMeters>NAN</DistanceMeters>
          </Trackpoint>
          <Trackpoint>
            <Time>2022-09-24T16:25:50.000Z</Time>
            <Position>
              <LatitudeDegrees>43.37130711413919925689697265625</LatitudeDegrees>
              <LongitudeDegrees>-2.94464698992669582366943359375</LongitudeDegrees>
            </Position>
            <AltitudeMeters>14.80000019073486328125</AltitudeMeters>
            <DistanceMeters>NAN</DistanceMeters>
          </Trackpoint>
          <Trackpoint>
            <Time>2022-09-24T16:25:51.000Z</Time>
            <Position>
              <LatitudeDegrees>43.37134567089378833770751953125</LatitudeDegrees>
              <LongitudeDegrees>-2.944700382649898529052734375</LongitudeDegrees>
            </Position>
            <AltitudeMeters>15</AltitudeMeters>
            <DistanceMeters>NAN</DistanceMeters>
          </Trackpoint>
          <Trackpoint>
            <Time>2022-09-24T16:25:52.000Z</Time>
            <Position>
              <LatitudeDegrees>43.371392525732517242431640625</LatitudeDegrees>
              <LongitudeDegrees>-2.944767773151397705078125</LongitudeDegrees>
            </Position>
            <AltitudeMeters>15</AltitudeMeters>
            <DistanceMeters>NAN</DistanceMeters>
          </Trackpoint>
          <Trackpoint>
            <Time>2022-09-24T16:25:53.000Z</Time>
            <Position>
              <LatitudeDegrees>43.37143049575388431549072265625</LatitudeDegrees>
              <LongitudeDegrees>-2.94482870958745479583740234375</LongitudeDegrees>
            </Position>
            <AltitudeMeters>15</AltitudeMeters>
            <DistanceMeters>NAN</DistanceMeters>
          </Trackpoint>
          <Trackpoint>
            <Time>2022-09-24T16:25:54.000Z</Time>
            <Position>
              <LatitudeDegrees>43.37146201170980930328369140625</LatitudeDegrees>
              <LongitudeDegrees>-2.94488168321549892425537109375</LongitudeDegrees>
            </Position>
            <AltitudeMeters>15</AltitudeMeters>
            <DistanceMeters>NAN</DistanceMeters>
          </Trackpoint>
          <Trackpoint>
            <Time>2022-09-24T16:25:55.000Z</Time>
            <Position>
              <LatitudeDegrees>43.37151213549077510833740234375</LatitudeDegrees>
              <LongitudeDegrees>-2.944961227476596832275390625</LongitudeDegrees>
            </Position>
            <AltitudeMeters>15</AltitudeMeters>
            <DistanceMeters>NAN</DistanceMeters>
          </Trackpoint>
          <Trackpoint>
            <Time>2022-09-24T16:25:56.000Z</Time>
            <Position>
              <LatitudeDegrees>43.37154683656990528106689453125</LatitudeDegrees>
              <LongitudeDegrees>-2.94501654803752899169921875</LongitudeDegrees>
            </Position>
            <AltitudeMeters>14.6000003814697265625</AltitudeMeters>
            <DistanceMeters>NAN</DistanceMeters>
          </Trackpoint>
          <Trackpoint>
            <Time>2022-09-24T16:25:57.000Z</Time>
            <Position>
              <LatitudeDegrees>43.37159796617925167083740234375</LatitudeDegrees>
              <LongitudeDegrees>-2.94509994797408580780029296875</LongitudeDegrees>
            </Position>
            <AltitudeMeters>14.6000003814697265625</AltitudeMeters>
            <DistanceMeters>NAN</DistanceMeters>
          </Trackpoint>
          <Trackpoint>
            <Time>2022-09-24T16:25:58.000Z</Time>
            <Position>
              <LatitudeDegrees>43.37163367308676242828369140625</LatitudeDegrees>
              <LongitudeDegrees>-2.94515627436339855194091796875</LongitudeDegrees>
            </Position>
            <AltitudeMeters>14.6000003814697265625</AltitudeMeters>
            <DistanceMeters>NAN</DistanceMeters>
          </Trackpoint>
          <Trackpoint>
            <Time>2022-09-24T16:25:59.000Z</Time>
            <Position>
              <LatitudeDegrees>43.37167826481163501739501953125</LatitudeDegrees>
              <LongitudeDegrees>-2.94522768817842006683349609375</LongitudeDegrees>
            </Position>
            <AltitudeMeters>14.6000003814697265625</AltitudeMeters>
            <DistanceMeters>NAN</DistanceMeters>
          </Trackpoint>
          <Trackpoint>
            <Time>2022-09-24T16:26:00.000Z</Time>
            <Position>
              <LatitudeDegrees>43.3717229403555393218994140625</LatitudeDegrees>
              <LongitudeDegrees>-2.94530094601213932037353515625</LongitudeDegrees>
            </Position>
            <AltitudeMeters>14.6000003814697265625</AltitudeMeters>
            <DistanceMeters>NAN</DistanceMeters>
          </Trackpoint>
          <Trackpoint>
            <Time>2022-09-24T16:26:01.000Z</Time>
            <Position>
              <LatitudeDegrees>43.37176795117557048797607421875</LatitudeDegrees>
              <LongitudeDegrees>-2.94537462294101715087890625</LongitudeDegrees>
            </Position>
            <AltitudeMeters>14.3999996185302734375</AltitudeMeters>
            <DistanceMeters>NAN</DistanceMeters>
          </Trackpoint>
          <Trackpoint>
            <Time>2022-09-24T16:26:02.000Z</Time>
            <Position>
              <LatitudeDegrees>43.3718121238052845001220703125</LatitudeDegrees>
              <LongitudeDegrees>-2.9454503953456878662109375</LongitudeDegrees>
            </Position>
            <AltitudeMeters>14.3999996185302734375</AltitudeMeters>
            <DistanceMeters>NAN</DistanceMeters>
          </Trackpoint>
          <Trackpoint>
            <Time>2022-09-24T16:26:03.000Z</Time>
            <Position>
              <LatitudeDegrees>43.37186333723366260528564453125</LatitudeDegrees>
              <LongitudeDegrees>-2.9455467872321605682373046875</LongitudeDegrees>
            </Position>
            <AltitudeMeters>11.3999996185302734375</AltitudeMeters>
            <DistanceMeters>NAN</DistanceMeters>
          </Trackpoint>
          <Trackpoint>
            <Time>2022-09-24T16:26:04.000Z</Time>
            <Position>
              <LatitudeDegrees>43.37189418263733386993408203125</LatitudeDegrees>
              <LongitudeDegrees>-2.94561409391462802886962890625</LongitudeDegrees>
            </Position>
            <AltitudeMeters>11.19999980926513671875</AltitudeMeters>
            <DistanceMeters>NAN</DistanceMeters>
          </Trackpoint>
          <Trackpoint>
            <Time>2022-09-24T16:26:05.000Z</Time>
            <Position>
              <LatitudeDegrees>43.37192720733582973480224609375</LatitudeDegrees>
              <LongitudeDegrees>-2.9457006789743900299072265625</LongitudeDegrees>
            </Position>
            <AltitudeMeters>11.19999980926513671875</AltitudeMeters>
            <DistanceMeters>NAN</DistanceMeters>
          </Trackpoint>
          <Trackpoint>
            <Time>2022-09-24T16:26:06.000Z</Time>
            <Position>
              <LatitudeDegrees>43.371955454349517822265625</LatitudeDegrees>
              <LongitudeDegrees>-2.94578994624316692352294921875</LongitudeDegrees>
            </Position>
            <AltitudeMeters>11.19999980926513671875</AltitudeMeters>
            <DistanceMeters>NAN</DistanceMeters>
          </Trackpoint>
          <Trackpoint>
            <Time>2022-09-24T16:26:07.000Z</Time>
            <Position>
              <LatitudeDegrees>43.37197833694517612457275390625</LatitudeDegrees>
              <LongitudeDegrees>-2.94588734395802021026611328125</LongitudeDegrees>
            </Position>
            <AltitudeMeters>11.19999980926513671875</AltitudeMeters>
            <DistanceMeters>NAN</DistanceMeters>
          </Trackpoint>
          <Trackpoint>
            <Time>2022-09-24T16:26:08.000Z</Time>
            <Position>
              <LatitudeDegrees>43.3719961903989315032958984375</LatitudeDegrees>
              <LongitudeDegrees>-2.94600586406886577606201171875</LongitudeDegrees>
            </Position>
            <AltitudeMeters>11.19999980926513671875</AltitudeMeters>
            <DistanceMeters>NAN</DistanceMeters>
          </Trackpoint>
          <Trackpoint>
            <Time>2022-09-24T16:26:09.000Z</Time>
            <Position>
              <LatitudeDegrees>43.37200214155018329620361328125</LatitudeDegrees>
              <LongitudeDegrees>-2.94608767144381999969482421875</LongitudeDegrees>
            </Position>
            <AltitudeMeters>11.80000019073486328125</AltitudeMeters>
            <DistanceMeters>NAN</DistanceMeters>
          </Trackpoint>
          <Trackpoint>
            <Time>2022-09-24T16:26:10.000Z</Time>
            <Position>
              <LatitudeDegrees>43.37200482375919818878173828125</LatitudeDegrees>
              <LongitudeDegrees>-2.94621339999139308929443359375</LongitudeDegrees>
            </Position>
            <AltitudeMeters>12.80000019073486328125</AltitudeMeters>
            <DistanceMeters>NAN</DistanceMeters>
          </Trackpoint>
          <Trackpoint>
            <Time>2022-09-24T16:26:11.000Z</Time>
            <Position>
              <LatitudeDegrees>43.37200029753148555755615234375</LatitudeDegrees>
              <LongitudeDegrees>-2.94629839248955249786376953125</LongitudeDegrees>
            </Position>
            <AltitudeMeters>13.6000003814697265625</AltitudeMeters>
            <DistanceMeters>NAN</DistanceMeters>
          </Trackpoint>
          <Trackpoint>
            <Time>2022-09-24T16:26:12.000Z</Time>
            <Position>
              <LatitudeDegrees>43.37198873050510883331298828125</LatitudeDegrees>
              <LongitudeDegrees>-2.94642604887485504150390625</LongitudeDegrees>
            </Position>
            <AltitudeMeters>14</AltitudeMeters>
            <DistanceMeters>NAN</DistanceMeters>
          </Trackpoint>
          <Trackpoint>
            <Time>2022-09-24T16:26:13.000Z</Time>
            <Position>
              <LatitudeDegrees>43.3719800971448421478271484375</LatitudeDegrees>
              <LongitudeDegrees>-2.94651112519204616546630859375</LongitudeDegrees>
            </Position>
            <AltitudeMeters>14.19999980926513671875</AltitudeMeters>
            <DistanceMeters>NAN</DistanceMeters>
          </Trackpoint>
          <Trackpoint>
            <Time>2022-09-24T16:26:14.000Z</Time>
            <Position>
              <LatitudeDegrees>43.371969200670719146728515625</LatitudeDegrees>
              <LongitudeDegrees>-2.94661388732492923736572265625</LongitudeDegrees>
            </Position>
            <AltitudeMeters>14.6000003814697265625</AltitudeMeters>
            <DistanceMeters>NAN</DistanceMeters>
          </Trackpoint>
          <Trackpoint>
            <Time>2022-09-24T16:26:15.000Z</Time>
            <Position>
              <LatitudeDegrees>43.37196542881429195404052734375</LatitudeDegrees>
              <LongitudeDegrees>-2.94671581126749515533447265625</LongitudeDegrees>
            </Position>
            <AltitudeMeters>15.3999996185302734375</AltitudeMeters>
            <DistanceMeters>NAN</DistanceMeters>
          </Trackpoint>
          <Trackpoint>
            <Time>2022-09-24T16:26:16.000Z</Time>
            <Position>
              <LatitudeDegrees>43.37197448126971721649169921875</LatitudeDegrees>
              <LongitudeDegrees>-2.9468362592160701751708984375</LongitudeDegrees>
            </Position>
            <AltitudeMeters>15.6000003814697265625</AltitudeMeters>
            <DistanceMeters>NAN</DistanceMeters>
          </Trackpoint>
          <Trackpoint>
            <Time>2022-09-24T16:26:17.000Z</Time>
            <Position>
              <LatitudeDegrees>43.371988646686077117919921875</LatitudeDegrees>
              <LongitudeDegrees>-2.9469336569309234619140625</LongitudeDegrees>
            </Position>
            <AltitudeMeters>15.80000019073486328125</AltitudeMeters>
            <DistanceMeters>NAN</DistanceMeters>
          </Trackpoint>
          <Trackpoint>
            <Time>2022-09-24T16:26:18.000Z</Time>
            <Position>
              <LatitudeDegrees>43.37200448848307132720947265625</LatitudeDegrees>
              <LongitudeDegrees>-2.94702828861773014068603515625</LongitudeDegrees>
            </Position>
            <AltitudeMeters>15.80000019073486328125</AltitudeMeters>
            <DistanceMeters>NAN</DistanceMeters>
          </Trackpoint>
          <Trackpoint>
            <Time>2022-09-24T16:26:19.000Z</Time>
            <Position>
              <LatitudeDegrees>43.37200465612113475799560546875</LatitudeDegrees>
              <LongitudeDegrees>-2.94710339047014713287353515625</LongitudeDegrees>
            </Position>
            <AltitudeMeters>15.80000019073486328125</AltitudeMeters>
            <DistanceMeters>NAN</DistanceMeters>
          </Trackpoint>
          <Trackpoint>
            <Time>2022-09-24T16:26:20.000Z</Time>
            <Position>
              <LatitudeDegrees>43.3719837851822376251220703125</LatitudeDegrees>
              <LongitudeDegrees>-2.94720414094626903533935546875</LongitudeDegrees>
            </Position>
            <AltitudeMeters>15.6000003814697265625</AltitudeMeters>
            <DistanceMeters>NAN</DistanceMeters>
          </Trackpoint>
          <Trackpoint>
            <Time>2022-09-24T16:26:21.000Z</Time>
            <Position>
              <LatitudeDegrees>43.371944390237331390380859375</LatitudeDegrees>
              <LongitudeDegrees>-2.94726247899234294891357421875</LongitudeDegrees>
            </Position>
            <AltitudeMeters>15.19999980926513671875</AltitudeMeters>
            <DistanceMeters>NAN</DistanceMeters>
          </Trackpoint>
          <Trackpoint>
            <Time>2022-09-24T16:26:22.000Z</Time>
            <Position>
              <LatitudeDegrees>43.37190248072147369384765625</LatitudeDegrees>
              <LongitudeDegrees>-2.94730070047080516815185546875</LongitudeDegrees>
            </Position>
            <AltitudeMeters>14.3999996185302734375</AltitudeMeters>
            <DistanceMeters>NAN</DistanceMeters>
          </Trackpoint>
          <Trackpoint>
            <Time>2022-09-24T16:26:23.000Z</Time>
            <Position>
              <LatitudeDegrees>43.3718681149184703826904296875</LatitudeDegrees>
              <LongitudeDegrees>-2.94730690307915210723876953125</LongitudeDegrees>
            </Position>
            <AltitudeMeters>14.3999996185302734375</AltitudeMeters>
            <DistanceMeters>NAN</DistanceMeters>
          </Trackpoint>
          <Trackpoint>
            <Time>2022-09-24T16:26:24.000Z</Time>
            <Position>
              <LatitudeDegrees>43.371824361383914947509765625</LatitudeDegrees>
              <LongitudeDegrees>-2.947287373244762420654296875</LongitudeDegrees>
            </Position>
            <AltitudeMeters>14.3999996185302734375</AltitudeMeters>
            <DistanceMeters>NAN</DistanceMeters>
          </Trackpoint>
          <Trackpoint>
            <Time>2022-09-24T16:26:25.000Z</Time>
            <Position>
              <LatitudeDegrees>43.37178052403032779693603515625</LatitudeDegrees>
              <LongitudeDegrees>-2.9472493194043636322021484375</LongitudeDegrees>
            </Position>
            <AltitudeMeters>14.3999996185302734375</AltitudeMeters>
            <DistanceMeters>NAN</DistanceMeters>
          </Trackpoint>
          <Trackpoint>
            <Time>2022-09-24T16:26:26.000Z</Time>
            <Position>
              <LatitudeDegrees>43.37173157371580600738525390625</LatitudeDegrees>
              <LongitudeDegrees>-2.94720984064042568206787109375</LongitudeDegrees>
            </Position>
            <AltitudeMeters>14.3999996185302734375</AltitudeMeters>
            <DistanceMeters>NAN</DistanceMeters>
          </Trackpoint>
          <Trackpoint>
            <Time>2022-09-24T16:26:27.000Z</Time>
            <Position>
              <LatitudeDegrees>43.371684215962886810302734375</LatitudeDegrees>
              <LongitudeDegrees>-2.94717111624777317047119140625</LongitudeDegrees>
            </Position>
            <AltitudeMeters>15</AltitudeMeters>
            <DistanceMeters>NAN</DistanceMeters>
          </Trackpoint>
          <Trackpoint>
            <Time>2022-09-24T16:26:28.000Z</Time>
            <Position>
              <LatitudeDegrees>43.371637947857379913330078125</LatitudeDegrees>
              <LongitudeDegrees>-2.94713222421705722808837890625</LongitudeDegrees>
            </Position>
            <AltitudeMeters>15</AltitudeMeters>
            <DistanceMeters>NAN</DistanceMeters>
          </Trackpoint>
          <Trackpoint>
            <Time>2022-09-24T16:26:29.000Z</Time>
            <Position>
              <LatitudeDegrees>43.37159209884703159332275390625</LatitudeDegrees>
              <LongitudeDegrees>-2.947094924747943878173828125</LongitudeDegrees>
            </Position>
            <AltitudeMeters>15.6000003814697265625</AltitudeMeters>
            <DistanceMeters>NAN</DistanceMeters>
          </Trackpoint>
          <Trackpoint>
            <Time>2022-09-24T16:26:30.000Z</Time>
            <Position>
              <LatitudeDegrees>43.3715450763702392578125</LatitudeDegrees>
              <LongitudeDegrees>-2.94706039130687713623046875</LongitudeDegrees>
            </Position>
            <AltitudeMeters>15.80000019073486328125</AltitudeMeters>
            <DistanceMeters>NAN</DistanceMeters>
          </Trackpoint>
          <Trackpoint>
            <Time>2022-09-24T16:26:31.000Z</Time>
            <Position>
              <LatitudeDegrees>43.37149889208376407623291015625</LatitudeDegrees>
              <LongitudeDegrees>-2.94702594168484210968017578125</LongitudeDegrees>
            </Position>
            <AltitudeMeters>15.80000019073486328125</AltitudeMeters>
            <DistanceMeters>NAN</DistanceMeters>
          </Trackpoint>
          <Trackpoint>
            <Time>2022-09-24T16:26:32.000Z</Time>
            <Position>
              <LatitudeDegrees>43.371452875435352325439453125</LatitudeDegrees>
              <LongitudeDegrees>-2.9469918273389339447021484375</LongitudeDegrees>
            </Position>
            <AltitudeMeters>15.80000019073486328125</AltitudeMeters>
            <DistanceMeters>NAN</DistanceMeters>
          </Trackpoint>
          <Trackpoint>
            <Time>2022-09-24T16:26:33.000Z</Time>
            <Position>
              <LatitudeDegrees>43.3714067749679088592529296875</LatitudeDegrees>
              <LongitudeDegrees>-2.94696073047816753387451171875</LongitudeDegrees>
            </Position>
            <AltitudeMeters>15.80000019073486328125</AltitudeMeters>
            <DistanceMeters>NAN</DistanceMeters>
          </Trackpoint>
          <Trackpoint>
            <Time>2022-09-24T16:26:34.000Z</Time>
            <Position>
              <LatitudeDegrees>43.3713640272617340087890625</LatitudeDegrees>
              <LongitudeDegrees>-2.94693105854094028472900390625</LongitudeDegrees>
            </Position>
            <AltitudeMeters>16.6000003814697265625</AltitudeMeters>
            <DistanceMeters>NAN</DistanceMeters>
          </Trackpoint>
          <Trackpoint>
            <Time>2022-09-24T16:26:35.000Z</Time>
            <Position>
              <LatitudeDegrees>43.3713640272617340087890625</LatitudeDegrees>
              <LongitudeDegrees>-2.94693105854094028472900390625</LongitudeDegrees>
            </Position>
            <AltitudeMeters>17.6000003814697265625</AltitudeMeters>
            <DistanceMeters>NAN</DistanceMeters>
          </Trackpoint>
          <Trackpoint>
            <Time>2022-09-24T16:26:36.000Z</Time>
            <Position>
              <LatitudeDegrees>43.371282555162906646728515625</LatitudeDegrees>
              <LongitudeDegrees>-2.94686618261039257049560546875</LongitudeDegrees>
            </Position>
            <AltitudeMeters>17.6000003814697265625</AltitudeMeters>
            <DistanceMeters>NAN</DistanceMeters>
          </Trackpoint>
          <Trackpoint>
            <Time>2022-09-24T16:26:37.000Z</Time>
            <Position>
              <LatitudeDegrees>43.37124140001833438873291015625</LatitudeDegrees>
              <LongitudeDegrees>-2.946838438510894775390625</LongitudeDegrees>
            </Position>
            <AltitudeMeters>17.6000003814697265625</AltitudeMeters>
            <DistanceMeters>NAN</DistanceMeters>
          </Trackpoint>
          <Trackpoint>
            <Time>2022-09-24T16:26:38.000Z</Time>
            <Position>
              <LatitudeDegrees>43.3712012507021427154541015625</LatitudeDegrees>
              <LongitudeDegrees>-2.94681153260171413421630859375</LongitudeDegrees>
            </Position>
            <AltitudeMeters>17.799999237060546875</AltitudeMeters>
            <DistanceMeters>NAN</DistanceMeters>
          </Trackpoint>
          <Trackpoint>
            <Time>2022-09-24T16:26:39.000Z</Time>
            <Position>
              <LatitudeDegrees>43.37116009555757045745849609375</LatitudeDegrees>
              <LongitudeDegrees>-2.946783117949962615966796875</LongitudeDegrees>
            </Position>
            <AltitudeMeters>17.799999237060546875</AltitudeMeters>
            <DistanceMeters>NAN</DistanceMeters>
          </Trackpoint>
          <Trackpoint>
            <Time>2022-09-24T16:26:40.000Z</Time>
            <Position>
              <LatitudeDegrees>43.3711224608123302459716796875</LatitudeDegrees>
              <LongitudeDegrees>-2.94675520621240139007568359375</LongitudeDegrees>
            </Position>
            <AltitudeMeters>18</AltitudeMeters>
            <DistanceMeters>NAN</DistanceMeters>
          </Trackpoint>
          <Trackpoint>
            <Time>2022-09-24T16:26:41.000Z</Time>
            <Position>
              <LatitudeDegrees>43.37108482606709003448486328125</LatitudeDegrees>
              <LongitudeDegrees>-2.946732826530933380126953125</LongitudeDegrees>
            </Position>
            <AltitudeMeters>18.3999996185302734375</AltitudeMeters>
            <DistanceMeters>NAN</DistanceMeters>
          </Trackpoint>
          <Trackpoint>
            <Time>2022-09-24T16:26:42.000Z</Time>
            <Position>
              <LatitudeDegrees>43.37104811333119869232177734375</LatitudeDegrees>
              <LongitudeDegrees>-2.94671044684946537017822265625</LongitudeDegrees>
            </Position>
            <AltitudeMeters>18.3999996185302734375</AltitudeMeters>
            <DistanceMeters>NAN</DistanceMeters>
          </Trackpoint>
          <Trackpoint>
            <Time>2022-09-24T16:26:43.000Z</Time>
            <Position>
              <LatitudeDegrees>43.37100989185273647308349609375</LatitudeDegrees>
              <LongitudeDegrees>-2.9466904141008853912353515625</LongitudeDegrees>
            </Position>
            <AltitudeMeters>18.6000003814697265625</AltitudeMeters>
            <DistanceMeters>NAN</DistanceMeters>
          </Trackpoint>
          <Trackpoint>
            <Time>2022-09-24T16:26:44.000Z</Time>
            <Position>
              <LatitudeDegrees>43.37096932344138622283935546875</LatitudeDegrees>
              <LongitudeDegrees>-2.946666441857814788818359375</LongitudeDegrees>
            </Position>
            <AltitudeMeters>19.200000762939453125</AltitudeMeters>
            <DistanceMeters>NAN</DistanceMeters>
          </Trackpoint>
          <Trackpoint>
            <Time>2022-09-24T16:26:45.000Z</Time>
            <Position>
              <LatitudeDegrees>43.3709300123155117034912109375</LatitudeDegrees>
              <LongitudeDegrees>-2.9466426372528076171875</LongitudeDegrees>
            </Position>
            <AltitudeMeters>19.6000003814697265625</AltitudeMeters>
            <DistanceMeters>NAN</DistanceMeters>
          </Trackpoint>
          <Trackpoint>
            <Time>2022-09-24T16:26:46.000Z</Time>
            <Position>
              <LatitudeDegrees>43.370890952646732330322265625</LatitudeDegrees>
              <LongitudeDegrees>-2.94661992229521274566650390625</LongitudeDegrees>
            </Position>
            <AltitudeMeters>19.799999237060546875</AltitudeMeters>
            <DistanceMeters>NAN</DistanceMeters>
          </Trackpoint>
          <Trackpoint>
            <Time>2022-09-24T16:26:47.000Z</Time>
            <Position>
              <LatitudeDegrees>43.37085264734923839569091796875</LatitudeDegrees>
              <LongitudeDegrees>-2.94660097919404506683349609375</LongitudeDegrees>
            </Position>
            <AltitudeMeters>19.799999237060546875</AltitudeMeters>
            <DistanceMeters>NAN</DistanceMeters>
          </Trackpoint>
          <Trackpoint>
            <Time>2022-09-24T16:26:48.000Z</Time>
            <Position>
              <LatitudeDegrees>43.37081350386142730712890625</LatitudeDegrees>
              <LongitudeDegrees>-2.94658220373094081878662109375</LongitudeDegrees>
            </Position>
            <AltitudeMeters>20</AltitudeMeters>
            <DistanceMeters>NAN</DistanceMeters>
          </Trackpoint>
          <Trackpoint>
            <Time>2022-09-24T16:26:49.000Z</Time>
            <Position>
              <LatitudeDegrees>43.370774947106838226318359375</LatitudeDegrees>
              <LongitudeDegrees>-2.94656175188720226287841796875</LongitudeDegrees>
            </Position>
            <AltitudeMeters>20.200000762939453125</AltitudeMeters>
            <DistanceMeters>NAN</DistanceMeters>
          </Trackpoint>
          <Trackpoint>
            <Time>2022-09-24T16:26:50.000Z</Time>
            <Position>
              <LatitudeDegrees>43.3707378990948200225830078125</LatitudeDegrees>
              <LongitudeDegrees>-2.94654280878603458404541015625</LongitudeDegrees>
            </Position>
            <AltitudeMeters>20.200000762939453125</AltitudeMeters>
            <DistanceMeters>NAN</DistanceMeters>
          </Trackpoint>
          <Trackpoint>
            <Time>2022-09-24T16:26:51.000Z</Time>
            <Position>
              <LatitudeDegrees>43.37070093490183353424072265625</LatitudeDegrees>
              <LongitudeDegrees>-2.94652621261775493621826171875</LongitudeDegrees>
            </Position>
            <AltitudeMeters>20.3999996185302734375</AltitudeMeters>
            <DistanceMeters>NAN</DistanceMeters>
          </Trackpoint>
          <Trackpoint>
            <Time>2022-09-24T16:26:52.000Z</Time>
            <Position>
              <LatitudeDegrees>43.37066187523305416107177734375</LatitudeDegrees>
              <LongitudeDegrees>-2.9465127177536487579345703125</LongitudeDegrees>
            </Position>
            <AltitudeMeters>20.3999996185302734375</AltitudeMeters>
            <DistanceMeters>NAN</DistanceMeters>
          </Trackpoint>
          <Trackpoint>
            <Time>2022-09-24T16:26:53.000Z</Time>
            <Position>
              <LatitudeDegrees>43.37062231265008449554443359375</LatitudeDegrees>
              <LongitudeDegrees>-2.94650006107985973358154296875</LongitudeDegrees>
            </Position>
            <AltitudeMeters>20.799999237060546875</AltitudeMeters>
            <DistanceMeters>NAN</DistanceMeters>
          </Trackpoint>
          <Trackpoint>
            <Time>2022-09-24T16:26:54.000Z</Time>
            <Position>
              <LatitudeDegrees>43.37058325298130512237548828125</LatitudeDegrees>
              <LongitudeDegrees>-2.94648815877735614776611328125</LongitudeDegrees>
            </Position>
            <AltitudeMeters>21</AltitudeMeters>
            <DistanceMeters>NAN</DistanceMeters>
          </Trackpoint>
          <Trackpoint>
            <Time>2022-09-24T16:26:55.000Z</Time>
            <Position>
              <LatitudeDegrees>43.37054469622671604156494140625</LatitudeDegrees>
              <LongitudeDegrees>-2.94647776521742343902587890625</LongitudeDegrees>
            </Position>
            <AltitudeMeters>21.3999996185302734375</AltitudeMeters>
            <DistanceMeters>NAN</DistanceMeters>
          </Trackpoint>
          <Trackpoint>
            <Time>2022-09-24T16:26:56.000Z</Time>
            <Position>
              <LatitudeDegrees>43.3705075643956661224365234375</LatitudeDegrees>
              <LongitudeDegrees>-2.94646921567618846893310546875</LongitudeDegrees>
            </Position>
            <AltitudeMeters>21.6000003814697265625</AltitudeMeters>
            <DistanceMeters>NAN</DistanceMeters>
          </Trackpoint>
          <Trackpoint>
            <Time>2022-09-24T16:26:57.000Z</Time>
            <Position>
              <LatitudeDegrees>43.37047076784074306488037109375</LatitudeDegrees>
              <LongitudeDegrees>-2.94646301306784152984619140625</LongitudeDegrees>
            </Position>
            <AltitudeMeters>21.6000003814697265625</AltitudeMeters>
            <DistanceMeters>NAN</DistanceMeters>
          </Trackpoint>
          <Trackpoint>
            <Time>2022-09-24T16:26:58.000Z</Time>
            <Position>
              <LatitudeDegrees>43.37043355219066143035888671875</LatitudeDegrees>
              <LongitudeDegrees>-2.94645798392593860626220703125</LongitudeDegrees>
            </Position>
            <AltitudeMeters>22</AltitudeMeters>
            <DistanceMeters>NAN</DistanceMeters>
          </Trackpoint>
          <Trackpoint>
            <Time>2022-09-24T16:26:59.000Z</Time>
            <Position>
              <LatitudeDegrees>43.37039499543607234954833984375</LatitudeDegrees>
              <LongitudeDegrees>-2.94645613990724086761474609375</LongitudeDegrees>
            </Position>
            <AltitudeMeters>22.200000762939453125</AltitudeMeters>
            <DistanceMeters>NAN</DistanceMeters>
          </Trackpoint>
          <Trackpoint>
            <Time>2022-09-24T16:27:00.000Z</Time>
            <Position>
              <LatitudeDegrees>43.37035777978599071502685546875</LatitudeDegrees>
              <LongitudeDegrees>-2.94645597226917743682861328125</LongitudeDegrees>
            </Position>
            <AltitudeMeters>22.200000762939453125</AltitudeMeters>
            <DistanceMeters>NAN</DistanceMeters>
          </Trackpoint>
          <Trackpoint>
            <Time>2022-09-24T16:27:01.000Z</Time>
            <Position>
              <LatitudeDegrees>43.3703206479549407958984375</LatitudeDegrees>
              <LongitudeDegrees>-2.9464560560882091522216796875</LongitudeDegrees>
            </Position>
            <AltitudeMeters>22.3999996185302734375</AltitudeMeters>
            <DistanceMeters>NAN</DistanceMeters>
          </Trackpoint>
          <Trackpoint>
            <Time>2022-09-24T16:27:02.000Z</Time>
            <Position>
              <LatitudeDegrees>43.37028443813323974609375</LatitudeDegrees>
              <LongitudeDegrees>-2.946457564830780029296875</LongitudeDegrees>
            </Position>
            <AltitudeMeters>22.6000003814697265625</AltitudeMeters>
            <DistanceMeters>NAN</DistanceMeters>
          </Trackpoint>
          <Trackpoint>
            <Time>2022-09-24T16:27:03.000Z</Time>
            <Position>
              <LatitudeDegrees>43.370250575244426727294921875</LatitudeDegrees>
              <LongitudeDegrees>-2.9464589059352874755859375</LongitudeDegrees>
            </Position>
            <AltitudeMeters>23.200000762939453125</AltitudeMeters>
            <DistanceMeters>NAN</DistanceMeters>
          </Trackpoint>
          <Trackpoint>
            <Time>2022-09-24T16:27:04.000Z</Time>
            <Position>
              <LatitudeDegrees>43.37021545507013797760009765625</LatitudeDegrees>
              <LongitudeDegrees>-2.946463935077190399169921875</LongitudeDegrees>
            </Position>
            <AltitudeMeters>23.3999996185302734375</AltitudeMeters>
            <DistanceMeters>NAN</DistanceMeters>
          </Trackpoint>
          <Trackpoint>
            <Time>2022-09-24T16:27:05.000Z</Time>
            <Position>
              <LatitudeDegrees>43.37018075399100780487060546875</LatitudeDegrees>
              <LongitudeDegrees>-2.9464669525623321533203125</LongitudeDegrees>
            </Position>
            <AltitudeMeters>23.3999996185302734375</AltitudeMeters>
            <DistanceMeters>NAN</DistanceMeters>
          </Trackpoint>
          <Trackpoint>
            <Time>2022-09-24T16:27:06.000Z</Time>
            <Position>
              <LatitudeDegrees>43.37014387361705303192138671875</LatitudeDegrees>
              <LongitudeDegrees>-2.94647005386650562286376953125</LongitudeDegrees>
            </Position>
            <AltitudeMeters>23.6000003814697265625</AltitudeMeters>
            <DistanceMeters>NAN</DistanceMeters>
          </Trackpoint>
          <Trackpoint>
            <Time>2022-09-24T16:27:07.000Z</Time>
            <Position>
              <LatitudeDegrees>43.370100371539592742919921875</LatitudeDegrees>
              <LongitudeDegrees>-2.9464721493422985076904296875</LongitudeDegrees>
            </Position>
            <AltitudeMeters>23.799999237060546875</AltitudeMeters>
            <DistanceMeters>NAN</DistanceMeters>
          </Trackpoint>
          <Trackpoint>
            <Time>2022-09-24T16:27:08.000Z</Time>
            <Position>
              <LatitudeDegrees>43.3700631558895111083984375</LatitudeDegrees>
              <LongitudeDegrees>-2.94647323898971080780029296875</LongitudeDegrees>
            </Position>
            <AltitudeMeters>23.799999237060546875</AltitudeMeters>
            <DistanceMeters>NAN</DistanceMeters>
          </Trackpoint>
          <Trackpoint>
            <Time>2022-09-24T16:27:09.000Z</Time>
            <Position>
              <LatitudeDegrees>43.3700251020491123199462890625</LatitudeDegrees>
              <LongitudeDegrees>-2.9464738257229328155517578125</LongitudeDegrees>
            </Position>
            <AltitudeMeters>24.3999996185302734375</AltitudeMeters>
            <DistanceMeters>NAN</DistanceMeters>
          </Trackpoint>
          <Trackpoint>
            <Time>2022-09-24T16:27:10.000Z</Time>
            <Position>
              <LatitudeDegrees>43.36998864077031612396240234375</LatitudeDegrees>
              <LongitudeDegrees>-2.94647390954196453094482421875</LongitudeDegrees>
            </Position>
            <AltitudeMeters>24.6000003814697265625</AltitudeMeters>
            <DistanceMeters>NAN</DistanceMeters>
          </Trackpoint>
          <Trackpoint>
            <Time>2022-09-24T16:27:11.000Z</Time>
            <Position>
              <LatitudeDegrees>43.36995922029018402099609375</LatitudeDegrees>
              <LongitudeDegrees>-2.9464711435139179229736328125</LongitudeDegrees>
            </Position>
            <AltitudeMeters>24.799999237060546875</AltitudeMeters>
            <DistanceMeters>NAN</DistanceMeters>
          </Trackpoint>
          <Trackpoint>
            <Time>2022-09-24T16:27:12.000Z</Time>
            <Position>
              <LatitudeDegrees>43.36991521529853343963623046875</LatitudeDegrees>
              <LongitudeDegrees>-2.94646804220974445343017578125</LongitudeDegrees>
            </Position>
            <AltitudeMeters>24.799999237060546875</AltitudeMeters>
            <DistanceMeters>NAN</DistanceMeters>
          </Trackpoint>
          <Trackpoint>
            <Time>2022-09-24T16:27:13.000Z</Time>
            <Position>
              <LatitudeDegrees>43.36987816728651523590087890625</LatitudeDegrees>
              <LongitudeDegrees>-2.94647072441875934600830078125</LongitudeDegrees>
            </Position>
            <AltitudeMeters>25</AltitudeMeters>
            <DistanceMeters>NAN</DistanceMeters>
          </Trackpoint>
          <Trackpoint>
            <Time>2022-09-24T16:27:14.000Z</Time>
            <Position>
              <LatitudeDegrees>43.369841873645782470703125</LatitudeDegrees>
              <LongitudeDegrees>-2.94647566974163055419921875</LongitudeDegrees>
            </Position>
            <AltitudeMeters>25.200000762939453125</AltitudeMeters>
            <DistanceMeters>NAN</DistanceMeters>
          </Trackpoint>
          <Trackpoint>
            <Time>2022-09-24T16:27:15.000Z</Time>
            <Position>
              <LatitudeDegrees>43.36981111206114292144775390625</LatitudeDegrees>
              <LongitudeDegrees>-2.94647927395999431610107421875</LongitudeDegrees>
            </Position>
            <AltitudeMeters>25.200000762939453125</AltitudeMeters>
            <DistanceMeters>NAN</DistanceMeters>
          </Trackpoint>
          <Trackpoint>
            <Time>2022-09-24T16:27:16.000Z</Time>
            <Position>
              <LatitudeDegrees>43.3697723038494586944580078125</LatitudeDegrees>
              <LongitudeDegrees>-2.94648162089288234710693359375</LongitudeDegrees>
            </Position>
            <AltitudeMeters>25.799999237060546875</AltitudeMeters>
            <DistanceMeters>NAN</DistanceMeters>
          </Trackpoint>
          <Trackpoint>
            <Time>2022-09-24T16:27:17.000Z</Time>
            <Position>
              <LatitudeDegrees>43.36972695775330066680908203125</LatitudeDegrees>
              <LongitudeDegrees>-2.94648262672126293182373046875</LongitudeDegrees>
            </Position>
            <AltitudeMeters>26</AltitudeMeters>
            <DistanceMeters>NAN</DistanceMeters>
          </Trackpoint>
          <Trackpoint>
            <Time>2022-09-24T16:27:18.000Z</Time>
            <Position>
              <LatitudeDegrees>43.36968890391290187835693359375</LatitudeDegrees>
              <LongitudeDegrees>-2.9464828781783580780029296875</LongitudeDegrees>
            </Position>
            <AltitudeMeters>26</AltitudeMeters>
            <DistanceMeters>NAN</DistanceMeters>
          </Trackpoint>
          <Trackpoint>
            <Time>2022-09-24T16:27:19.000Z</Time>
            <Position>
              <LatitudeDegrees>43.3696516044437885284423828125</LatitudeDegrees>
              <LongitudeDegrees>-2.94648346491158008575439453125</LongitudeDegrees>
            </Position>
            <AltitudeMeters>26</AltitudeMeters>
            <DistanceMeters>NAN</DistanceMeters>
          </Trackpoint>
          <Trackpoint>
            <Time>2022-09-24T16:27:20.000Z</Time>
            <Position>
              <LatitudeDegrees>43.3696227706968784332275390625</LatitudeDegrees>
              <LongitudeDegrees>-2.946485392749309539794921875</LongitudeDegrees>
            </Position>
            <AltitudeMeters>26.200000762939453125</AltitudeMeters>
            <DistanceMeters>NAN</DistanceMeters>
          </Trackpoint>
          <Trackpoint>
            <Time>2022-09-24T16:27:21.000Z</Time>
            <Position>
              <LatitudeDegrees>43.3695879019796848297119140625</LatitudeDegrees>
              <LongitudeDegrees>-2.94648773968219757080078125</LongitudeDegrees>
            </Position>
            <AltitudeMeters>26.3999996185302734375</AltitudeMeters>
            <DistanceMeters>NAN</DistanceMeters>
          </Trackpoint>
          <Trackpoint>
            <Time>2022-09-24T16:27:22.000Z</Time>
            <Position>
              <LatitudeDegrees>43.369545154273509979248046875</LatitudeDegrees>
              <LongitudeDegrees>-2.94648908078670501708984375</LongitudeDegrees>
            </Position>
            <AltitudeMeters>26.6000003814697265625</AltitudeMeters>
            <DistanceMeters>NAN</DistanceMeters>
          </Trackpoint>
          <Trackpoint>
            <Time>2022-09-24T16:27:23.000Z</Time>
            <Position>
              <LatitudeDegrees>43.3695161528885364532470703125</LatitudeDegrees>
              <LongitudeDegrees>-2.94649000279605388641357421875</LongitudeDegrees>
            </Position>
            <AltitudeMeters>27</AltitudeMeters>
            <DistanceMeters>NAN</DistanceMeters>
          </Trackpoint>
          <Trackpoint>
            <Time>2022-09-24T16:27:24.000Z</Time>
            <Position>
              <LatitudeDegrees>43.3694789372384548187255859375</LatitudeDegrees>
              <LongitudeDegrees>-2.9464937746524810791015625</LongitudeDegrees>
            </Position>
            <AltitudeMeters>27.200000762939453125</AltitudeMeters>
            <DistanceMeters>NAN</DistanceMeters>
          </Trackpoint>
          <Trackpoint>
            <Time>2022-09-24T16:27:25.000Z</Time>
            <Position>
              <LatitudeDegrees>43.3694789372384548187255859375</LatitudeDegrees>
              <LongitudeDegrees>-2.9464937746524810791015625</LongitudeDegrees>
            </Position>
            <AltitudeMeters>27.200000762939453125</AltitudeMeters>
            <DistanceMeters>NAN</DistanceMeters>
          </Trackpoint>
          <Trackpoint>
            <Time>2022-09-24T16:27:26.000Z</Time>
            <Position>
              <LatitudeDegrees>43.36939654313027858734130859375</LatitudeDegrees>
              <LongitudeDegrees>-2.9464912600815296173095703125</LongitudeDegrees>
            </Position>
            <AltitudeMeters>27.200000762939453125</AltitudeMeters>
            <DistanceMeters>NAN</DistanceMeters>
          </Trackpoint>
          <Trackpoint>
            <Time>2022-09-24T16:27:27.000Z</Time>
            <Position>
              <LatitudeDegrees>43.3693669550120830535888671875</LatitudeDegrees>
              <LongitudeDegrees>-2.94649100862443447113037109375</LongitudeDegrees>
            </Position>
            <AltitudeMeters>27.3999996185302734375</AltitudeMeters>
            <DistanceMeters>NAN</DistanceMeters>
          </Trackpoint>
          <Trackpoint>
            <Time>2022-09-24T16:27:28.000Z</Time>
            <Position>
              <LatitudeDegrees>43.369329236447811126708984375</LatitudeDegrees>
              <LongitudeDegrees>-2.9464889131486415863037109375</LongitudeDegrees>
            </Position>
            <AltitudeMeters>27.799999237060546875</AltitudeMeters>
            <DistanceMeters>NAN</DistanceMeters>
          </Trackpoint>
          <Trackpoint>
            <Time>2022-09-24T16:27:29.000Z</Time>
            <Position>
              <LatitudeDegrees>43.36929135024547576904296875</LatitudeDegrees>
              <LongitudeDegrees>-2.9464838840067386627197265625</LongitudeDegrees>
            </Position>
            <AltitudeMeters>28</AltitudeMeters>
            <DistanceMeters>NAN</DistanceMeters>
          </Trackpoint>
          <Trackpoint>
            <Time>2022-09-24T16:27:30.000Z</Time>
            <Position>
              <LatitudeDegrees>43.3692531287670135498046875</LatitudeDegrees>
              <LongitudeDegrees>-2.9464776813983917236328125</LongitudeDegrees>
            </Position>
            <AltitudeMeters>28.200000762939453125</AltitudeMeters>
            <DistanceMeters>NAN</DistanceMeters>
          </Trackpoint>
          <Trackpoint>
            <Time>2022-09-24T16:27:31.000Z</Time>
            <Position>
              <LatitudeDegrees>43.3692154102027416229248046875</LatitudeDegrees>
              <LongitudeDegrees>-2.94647659175097942352294921875</LongitudeDegrees>
            </Position>
            <AltitudeMeters>28.3999996185302734375</AltitudeMeters>
            <DistanceMeters>NAN</DistanceMeters>
          </Trackpoint>
          <Trackpoint>
            <Time>2022-09-24T16:27:32.000Z</Time>
            <Position>
              <LatitudeDegrees>43.36917844600975513458251953125</LatitudeDegrees>
              <LongitudeDegrees>-2.94647491537034511566162109375</LongitudeDegrees>
            </Position>
            <AltitudeMeters>28.799999237060546875</AltitudeMeters>
            <DistanceMeters>NAN</DistanceMeters>
          </Trackpoint>
          <Trackpoint>
            <Time>2022-09-24T16:27:33.000Z</Time>
            <Position>
              <LatitudeDegrees>43.36914089508354663848876953125</LatitudeDegrees>
              <LongitudeDegrees>-2.94647290371358394622802734375</LongitudeDegrees>
            </Position>
            <AltitudeMeters>28.799999237060546875</AltitudeMeters>
            <DistanceMeters>NAN</DistanceMeters>
          </Trackpoint>
          <Trackpoint>
            <Time>2022-09-24T16:27:34.000Z</Time>
            <Position>
              <LatitudeDegrees>43.369103260338306427001953125</LatitudeDegrees>
              <LongitudeDegrees>-2.94647072441875934600830078125</LongitudeDegrees>
            </Position>
            <AltitudeMeters>29</AltitudeMeters>
            <DistanceMeters>NAN</DistanceMeters>
          </Trackpoint>
          <Trackpoint>
            <Time>2022-09-24T16:27:35.000Z</Time>
            <Position>
              <LatitudeDegrees>43.369058668613433837890625</LatitudeDegrees>
              <LongitudeDegrees>-2.9464684613049030303955078125</LongitudeDegrees>
            </Position>
            <AltitudeMeters>29.200000762939453125</AltitudeMeters>
            <DistanceMeters>NAN</DistanceMeters>
          </Trackpoint>
          <Trackpoint>
            <Time>2022-09-24T16:27:36.000Z</Time>
            <Position>
              <LatitudeDegrees>43.369023464620113372802734375</LatitudeDegrees>
              <LongitudeDegrees>-2.94646569527685642242431640625</LongitudeDegrees>
            </Position>
            <AltitudeMeters>29.200000762939453125</AltitudeMeters>
            <DistanceMeters>NAN</DistanceMeters>
          </Trackpoint>
          <Trackpoint>
            <Time>2022-09-24T16:27:37.000Z</Time>
            <Position>
              <LatitudeDegrees>43.3689875900745391845703125</LatitudeDegrees>
              <LongitudeDegrees>-2.9464617557823657989501953125</LongitudeDegrees>
            </Position>
            <AltitudeMeters>29.3999996185302734375</AltitudeMeters>
            <DistanceMeters>NAN</DistanceMeters>
          </Trackpoint>
          <Trackpoint>
            <Time>2022-09-24T16:27:38.000Z</Time>
            <Position>
              <LatitudeDegrees>43.368950374424457550048828125</LatitudeDegrees>
              <LongitudeDegrees>-2.9464577324688434600830078125</LongitudeDegrees>
            </Position>
            <AltitudeMeters>29.6000003814697265625</AltitudeMeters>
            <DistanceMeters>NAN</DistanceMeters>
          </Trackpoint>
          <Trackpoint>
            <Time>2022-09-24T16:27:39.000Z</Time>
            <Position>
              <LatitudeDegrees>43.36892011575400829315185546875</LatitudeDegrees>
              <LongitudeDegrees>-2.94645580463111400604248046875</LongitudeDegrees>
            </Position>
            <AltitudeMeters>29.6000003814697265625</AltitudeMeters>
            <DistanceMeters>NAN</DistanceMeters>
          </Trackpoint>
          <Trackpoint>
            <Time>2022-09-24T16:27:40.000Z</Time>
            <Position>
              <LatitudeDegrees>43.36887736804783344268798828125</LatitudeDegrees>
              <LongitudeDegrees>-2.9464527033269405364990234375</LongitudeDegrees>
            </Position>
            <AltitudeMeters>30</AltitudeMeters>
            <DistanceMeters>NAN</DistanceMeters>
          </Trackpoint>
          <Trackpoint>
            <Time>2022-09-24T16:27:41.000Z</Time>
            <Position>
              <LatitudeDegrees>43.36887736804783344268798828125</LatitudeDegrees>
              <LongitudeDegrees>-2.9464527033269405364990234375</LongitudeDegrees>
            </Position>
            <AltitudeMeters>30</AltitudeMeters>
            <DistanceMeters>NAN</DistanceMeters>
          </Trackpoint>
          <Trackpoint>
            <Time>2022-09-24T16:27:42.000Z</Time>
            <Position>
              <LatitudeDegrees>43.36882070638239383697509765625</LatitudeDegrees>
              <LongitudeDegrees>-2.9464433155953884124755859375</LongitudeDegrees>
            </Position>
            <AltitudeMeters>30.6000003814697265625</AltitudeMeters>
            <DistanceMeters>NAN</DistanceMeters>
          </Trackpoint>
          <Trackpoint>
            <Time>2022-09-24T16:27:43.000Z</Time>
            <Position>
              <LatitudeDegrees>43.3687837421894073486328125</LatitudeDegrees>
              <LongitudeDegrees>-2.946440465748310089111328125</LongitudeDegrees>
            </Position>
            <AltitudeMeters>30.799999237060546875</AltitudeMeters>
            <DistanceMeters>NAN</DistanceMeters>
          </Trackpoint>
          <Trackpoint>
            <Time>2022-09-24T16:27:44.000Z</Time>
            <Position>
              <LatitudeDegrees>43.3687483705580234527587890625</LatitudeDegrees>
              <LongitudeDegrees>-2.9464369453489780426025390625</LongitudeDegrees>
            </Position>
            <AltitudeMeters>31</AltitudeMeters>
            <DistanceMeters>NAN</DistanceMeters>
          </Trackpoint>
          <Trackpoint>
            <Time>2022-09-24T16:27:45.000Z</Time>
            <Position>
              <LatitudeDegrees>43.36871056817471981048583984375</LatitudeDegrees>
              <LongitudeDegrees>-2.9464347660541534423828125</LongitudeDegrees>
            </Position>
            <AltitudeMeters>31.3999996185302734375</AltitudeMeters>
            <DistanceMeters>NAN</DistanceMeters>
          </Trackpoint>
          <Trackpoint>
            <Time>2022-09-24T16:27:46.000Z</Time>
            <Position>
              <LatitudeDegrees>43.36866664700210094451904296875</LatitudeDegrees>
              <LongitudeDegrees>-2.9464295692741870880126953125</LongitudeDegrees>
            </Position>
            <AltitudeMeters>31.6000003814697265625</AltitudeMeters>
            <DistanceMeters>NAN</DistanceMeters>
          </Trackpoint>
          <Trackpoint>
            <Time>2022-09-24T16:27:47.000Z</Time>
            <Position>
              <LatitudeDegrees>43.36863211356103420257568359375</LatitudeDegrees>
              <LongitudeDegrees>-2.94642445631325244903564453125</LongitudeDegrees>
            </Position>
            <AltitudeMeters>31.6000003814697265625</AltitudeMeters>
            <DistanceMeters>NAN</DistanceMeters>
          </Trackpoint>
          <Trackpoint>
            <Time>2022-09-24T16:27:48.000Z</Time>
            <Position>
              <LatitudeDegrees>43.3685958199203014373779296875</LatitudeDegrees>
              <LongitudeDegrees>-2.94641842134296894073486328125</LongitudeDegrees>
            </Position>
            <AltitudeMeters>31.799999237060546875</AltitudeMeters>
            <DistanceMeters>NAN</DistanceMeters>
          </Trackpoint>
          <Trackpoint>
            <Time>2022-09-24T16:27:49.000Z</Time>
            <Position>
              <LatitudeDegrees>43.36856623180210590362548828125</LatitudeDegrees>
              <LongitudeDegrees>-2.9464138112962245941162109375</LongitudeDegrees>
            </Position>
            <AltitudeMeters>32</AltitudeMeters>
            <DistanceMeters>NAN</DistanceMeters>
          </Trackpoint>
          <Trackpoint>
            <Time>2022-09-24T16:27:50.000Z</Time>
            <Position>
              <LatitudeDegrees>43.3685217238962650299072265625</LatitudeDegrees>
              <LongitudeDegrees>-2.9464094527065753936767578125</LongitudeDegrees>
            </Position>
            <AltitudeMeters>32.200000762939453125</AltitudeMeters>
            <DistanceMeters>NAN</DistanceMeters>
          </Trackpoint>
          <Trackpoint>
            <Time>2022-09-24T16:27:51.000Z</Time>
            <Position>
              <LatitudeDegrees>43.36849205195903778076171875</LatitudeDegrees>
              <LongitudeDegrees>-2.946406938135623931884765625</LongitudeDegrees>
            </Position>
            <AltitudeMeters>32.59999847412109375</AltitudeMeters>
            <DistanceMeters>NAN</DistanceMeters>
          </Trackpoint>
          <Trackpoint>
            <Time>2022-09-24T16:27:52.000Z</Time>
            <Position>
              <LatitudeDegrees>43.36845927871763706207275390625</LatitudeDegrees>
              <LongitudeDegrees>-2.94640651904046535491943359375</LongitudeDegrees>
            </Position>
            <AltitudeMeters>32.799999237060546875</AltitudeMeters>
            <DistanceMeters>NAN</DistanceMeters>
          </Trackpoint>
          <Trackpoint>
            <Time>2022-09-24T16:27:53.000Z</Time>
            <Position>
              <LatitudeDegrees>43.3684258349239826202392578125</LatitudeDegrees>
              <LongitudeDegrees>-2.946404926478862762451171875</LongitudeDegrees>
            </Position>
            <AltitudeMeters>32.799999237060546875</AltitudeMeters>
            <DistanceMeters>NAN</DistanceMeters>
          </Trackpoint>
          <Trackpoint>
            <Time>2022-09-24T16:27:54.000Z</Time>
            <Position>
              <LatitudeDegrees>43.36839188821613788604736328125</LatitudeDegrees>
              <LongitudeDegrees>-2.9464044235646724700927734375</LongitudeDegrees>
            </Position>
            <AltitudeMeters>33</AltitudeMeters>
            <DistanceMeters>NAN</DistanceMeters>
          </Trackpoint>
          <Trackpoint>
            <Time>2022-09-24T16:27:55.000Z</Time>
            <Position>
              <LatitudeDegrees>43.3683574385941028594970703125</LatitudeDegrees>
              <LongitudeDegrees>-2.94640165753662586212158203125</LongitudeDegrees>
            </Position>
            <AltitudeMeters>33.40000152587890625</AltitudeMeters>
            <DistanceMeters>NAN</DistanceMeters>
          </Trackpoint>
          <Trackpoint>
            <Time>2022-09-24T16:27:56.000Z</Time>
            <Position>
              <LatitudeDegrees>43.36831963621079921722412109375</LatitudeDegrees>
              <LongitudeDegrees>-2.9464027471840381622314453125</LongitudeDegrees>
            </Position>
            <AltitudeMeters>33.40000152587890625</AltitudeMeters>
            <DistanceMeters>NAN</DistanceMeters>
          </Trackpoint>
          <Trackpoint>
            <Time>2022-09-24T16:27:57.000Z</Time>
            <Position>
              <LatitudeDegrees>43.36831963621079921722412109375</LatitudeDegrees>
              <LongitudeDegrees>-2.9464027471840381622314453125</LongitudeDegrees>
            </Position>
            <AltitudeMeters>33.59999847412109375</AltitudeMeters>
            <DistanceMeters>NAN</DistanceMeters>
          </Trackpoint>
          <Trackpoint>
            <Time>2022-09-24T16:27:58.000Z</Time>
            <Position>
              <LatitudeDegrees>43.36824956350028514862060546875</LatitudeDegrees>
              <LongitudeDegrees>-2.94639922678470611572265625</LongitudeDegrees>
            </Position>
            <AltitudeMeters>33.799999237060546875</AltitudeMeters>
            <DistanceMeters>NAN</DistanceMeters>
          </Trackpoint>
          <Trackpoint>
            <Time>2022-09-24T16:27:59.000Z</Time>
            <Position>
              <LatitudeDegrees>43.36821150965988636016845703125</LatitudeDegrees>
              <LongitudeDegrees>-2.9463953711092472076416015625</LongitudeDegrees>
            </Position>
            <AltitudeMeters>34</AltitudeMeters>
            <DistanceMeters>NAN</DistanceMeters>
          </Trackpoint>
          <Trackpoint>
            <Time>2022-09-24T16:28:00.000Z</Time>
            <Position>
              <LatitudeDegrees>43.36816775612533092498779296875</LatitudeDegrees>
              <LongitudeDegrees>-2.94638774357736110687255859375</LongitudeDegrees>
            </Position>
            <AltitudeMeters>34</AltitudeMeters>
            <DistanceMeters>NAN</DistanceMeters>
          </Trackpoint>
          <Trackpoint>
            <Time>2022-09-24T16:28:01.000Z</Time>
            <Position>
              <LatitudeDegrees>43.36813339032232761383056640625</LatitudeDegrees>
              <LongitudeDegrees>-2.946380116045475006103515625</LongitudeDegrees>
            </Position>
            <AltitudeMeters>34.200000762939453125</AltitudeMeters>
            <DistanceMeters>NAN</DistanceMeters>
          </Trackpoint>
          <Trackpoint>
            <Time>2022-09-24T16:28:02.000Z</Time>
            <Position>
              <LatitudeDegrees>43.36809550411999225616455078125</LatitudeDegrees>
              <LongitudeDegrees>-2.94637433253228664398193359375</LongitudeDegrees>
            </Position>
            <AltitudeMeters>34.40000152587890625</AltitudeMeters>
            <DistanceMeters>NAN</DistanceMeters>
          </Trackpoint>
          <Trackpoint>
            <Time>2022-09-24T16:28:03.000Z</Time>
            <Position>
              <LatitudeDegrees>43.36806692183017730712890625</LatitudeDegrees>
              <LongitudeDegrees>-2.9463678784668445587158203125</LongitudeDegrees>
            </Position>
            <AltitudeMeters>34.40000152587890625</AltitudeMeters>
            <DistanceMeters>NAN</DistanceMeters>
          </Trackpoint>
          <Trackpoint>
            <Time>2022-09-24T16:28:04.000Z</Time>
            <Position>
              <LatitudeDegrees>43.368032388389110565185546875</LatitudeDegrees>
              <LongitudeDegrees>-2.94636125676333904266357421875</LongitudeDegrees>
            </Position>
            <AltitudeMeters>34.59999847412109375</AltitudeMeters>
            <DistanceMeters>NAN</DistanceMeters>
          </Trackpoint>
          <Trackpoint>
            <Time>2022-09-24T16:28:05.000Z</Time>
            <Position>
              <LatitudeDegrees>43.3679976873099803924560546875</LatitudeDegrees>
              <LongitudeDegrees>-2.9463551379740238189697265625</LongitudeDegrees>
            </Position>
            <AltitudeMeters>35.200000762939453125</AltitudeMeters>
            <DistanceMeters>NAN</DistanceMeters>
          </Trackpoint>
          <Trackpoint>
            <Time>2022-09-24T16:28:06.000Z</Time>
            <Position>
              <LatitudeDegrees>43.367961980402469635009765625</LatitudeDegrees>
              <LongitudeDegrees>-2.94635086320340633392333984375</LongitudeDegrees>
            </Position>
            <AltitudeMeters>35.40000152587890625</AltitudeMeters>
            <DistanceMeters>NAN</DistanceMeters>
          </Trackpoint>
          <Trackpoint>
            <Time>2022-09-24T16:28:07.000Z</Time>
            <Position>
              <LatitudeDegrees>43.3679272793233394622802734375</LatitudeDegrees>
              <LongitudeDegrees>-2.9463450796902179718017578125</LongitudeDegrees>
            </Position>
            <AltitudeMeters>35.40000152587890625</AltitudeMeters>
            <DistanceMeters>NAN</DistanceMeters>
          </Trackpoint>
          <Trackpoint>
            <Time>2022-09-24T16:28:08.000Z</Time>
            <Position>
              <LatitudeDegrees>43.3678927458822727203369140625</LatitudeDegrees>
              <LongitudeDegrees>-2.94634164310991764068603515625</LongitudeDegrees>
            </Position>
            <AltitudeMeters>35.59999847412109375</AltitudeMeters>
            <DistanceMeters>NAN</DistanceMeters>
          </Trackpoint>
          <Trackpoint>
            <Time>2022-09-24T16:28:09.000Z</Time>
            <Position>
              <LatitudeDegrees>43.3678558655083179473876953125</LatitudeDegrees>
              <LongitudeDegrees>-2.94633594341576099395751953125</LongitudeDegrees>
            </Position>
            <AltitudeMeters>35.799999237060546875</AltitudeMeters>
            <DistanceMeters>NAN</DistanceMeters>
          </Trackpoint>
          <Trackpoint>
            <Time>2022-09-24T16:28:10.000Z</Time>
            <Position>
              <LatitudeDegrees>43.3678558655083179473876953125</LatitudeDegrees>
              <LongitudeDegrees>-2.94633594341576099395751953125</LongitudeDegrees>
            </Position>
            <AltitudeMeters>36</AltitudeMeters>
            <DistanceMeters>NAN</DistanceMeters>
          </Trackpoint>
          <Trackpoint>
            <Time>2022-09-24T16:28:11.000Z</Time>
            <Position>
              <LatitudeDegrees>43.3677864633500576019287109375</LatitudeDegrees>
              <LongitudeDegrees>-2.9463259689509868621826171875</LongitudeDegrees>
            </Position>
            <AltitudeMeters>36</AltitudeMeters>
            <DistanceMeters>NAN</DistanceMeters>
          </Trackpoint>
          <Trackpoint>
            <Time>2022-09-24T16:28:12.000Z</Time>
            <Position>
              <LatitudeDegrees>43.36775444447994232177734375</LatitudeDegrees>
              <LongitudeDegrees>-2.94632018543779850006103515625</LongitudeDegrees>
            </Position>
            <AltitudeMeters>36.200000762939453125</AltitudeMeters>
            <DistanceMeters>NAN</DistanceMeters>
          </Trackpoint>
          <Trackpoint>
            <Time>2022-09-24T16:28:13.000Z</Time>
            <Position>
              <LatitudeDegrees>43.3677120320498943328857421875</LatitudeDegrees>
              <LongitudeDegrees>-2.9463149048388004302978515625</LongitudeDegrees>
            </Position>
            <AltitudeMeters>36.59999847412109375</AltitudeMeters>
            <DistanceMeters>NAN</DistanceMeters>
          </Trackpoint>
          <Trackpoint>
            <Time>2022-09-24T16:28:14.000Z</Time>
            <Position>
              <LatitudeDegrees>43.3676758222281932830810546875</LatitudeDegrees>
              <LongitudeDegrees>-2.94631130062043666839599609375</LongitudeDegrees>
            </Position>
            <AltitudeMeters>36.59999847412109375</AltitudeMeters>
            <DistanceMeters>NAN</DistanceMeters>
          </Trackpoint>
          <Trackpoint>
            <Time>2022-09-24T16:28:15.000Z</Time>
            <Position>
              <LatitudeDegrees>43.367640785872936248779296875</LatitudeDegrees>
              <LongitudeDegrees>-2.94630493037402629852294921875</LongitudeDegrees>
            </Position>
            <AltitudeMeters>37.200000762939453125</AltitudeMeters>
            <DistanceMeters>NAN</DistanceMeters>
          </Trackpoint>
          <Trackpoint>
            <Time>2022-09-24T16:28:16.000Z</Time>
            <Position>
              <LatitudeDegrees>43.36760482750833034515380859375</LatitudeDegrees>
              <LongitudeDegrees>-2.94629839248955249786376953125</LongitudeDegrees>
            </Position>
            <AltitudeMeters>37.200000762939453125</AltitudeMeters>
            <DistanceMeters>NAN</DistanceMeters>
          </Trackpoint>
          <Trackpoint>
            <Time>2022-09-24T16:28:17.000Z</Time>
            <Position>
              <LatitudeDegrees>43.367575071752071380615234375</LatitudeDegrees>
              <LongitudeDegrees>-2.94629336334764957427978515625</LongitudeDegrees>
            </Position>
            <AltitudeMeters>37.59999847412109375</AltitudeMeters>
            <DistanceMeters>NAN</DistanceMeters>
          </Trackpoint>
          <Trackpoint>
            <Time>2022-09-24T16:28:18.000Z</Time>
            <Position>
              <LatitudeDegrees>43.367538861930370330810546875</LatitudeDegrees>
              <LongitudeDegrees>-2.9462872445583343505859375</LongitudeDegrees>
            </Position>
            <AltitudeMeters>37.59999847412109375</AltitudeMeters>
            <DistanceMeters>NAN</DistanceMeters>
          </Trackpoint>
          <Trackpoint>
            <Time>2022-09-24T16:28:19.000Z</Time>
            <Position>
              <LatitudeDegrees>43.36750273592770099639892578125</LatitudeDegrees>
              <LongitudeDegrees>-2.9462827183306217193603515625</LongitudeDegrees>
            </Position>
            <AltitudeMeters>37.799999237060546875</AltitudeMeters>
            <DistanceMeters>NAN</DistanceMeters>
          </Trackpoint>
          <Trackpoint>
            <Time>2022-09-24T16:28:20.000Z</Time>
            <Position>
              <LatitudeDegrees>43.36746568791568279266357421875</LatitudeDegrees>
              <LongitudeDegrees>-2.9462791979312896728515625</LongitudeDegrees>
            </Position>
            <AltitudeMeters>38.200000762939453125</AltitudeMeters>
            <DistanceMeters>NAN</DistanceMeters>
          </Trackpoint>
          <Trackpoint>
            <Time>2022-09-24T16:28:21.000Z</Time>
            <Position>
              <LatitudeDegrees>43.36742813698947429656982421875</LatitudeDegrees>
              <LongitudeDegrees>-2.946275509893894195556640625</LongitudeDegrees>
            </Position>
            <AltitudeMeters>38.200000762939453125</AltitudeMeters>
            <DistanceMeters>NAN</DistanceMeters>
          </Trackpoint>
          <Trackpoint>
            <Time>2022-09-24T16:28:22.000Z</Time>
            <Position>
              <LatitudeDegrees>43.3673916757106781005859375</LatitudeDegrees>
              <LongitudeDegrees>-2.946272827684879302978515625</LongitudeDegrees>
            </Position>
            <AltitudeMeters>38.200000762939453125</AltitudeMeters>
            <DistanceMeters>NAN</DistanceMeters>
          </Trackpoint>
          <Trackpoint>
            <Time>2022-09-24T16:28:23.000Z</Time>
            <Position>
              <LatitudeDegrees>43.36735538206994533538818359375</LatitudeDegrees>
              <LongitudeDegrees>-2.94627274386584758758544921875</LongitudeDegrees>
            </Position>
            <AltitudeMeters>38.59999847412109375</AltitudeMeters>
            <DistanceMeters>NAN</DistanceMeters>
          </Trackpoint>
          <Trackpoint>
            <Time>2022-09-24T16:28:24.000Z</Time>
            <Position>
              <LatitudeDegrees>43.3673197589814662933349609375</LatitudeDegrees>
              <LongitudeDegrees>-2.94627509079873561859130859375</LongitudeDegrees>
            </Position>
            <AltitudeMeters>38.799999237060546875</AltitudeMeters>
            <DistanceMeters>NAN</DistanceMeters>
          </Trackpoint>
          <Trackpoint>
            <Time>2022-09-24T16:28:25.000Z</Time>
            <Position>
              <LatitudeDegrees>43.36728262715041637420654296875</LatitudeDegrees>
              <LongitudeDegrees>-2.9462763480842113494873046875</LongitudeDegrees>
            </Position>
            <AltitudeMeters>38.799999237060546875</AltitudeMeters>
            <DistanceMeters>NAN</DistanceMeters>
          </Trackpoint>
          <Trackpoint>
            <Time>2022-09-24T16:28:26.000Z</Time>
            <Position>
              <LatitudeDegrees>43.36723786778748035430908203125</LatitudeDegrees>
              <LongitudeDegrees>-2.946276180446147918701171875</LongitudeDegrees>
            </Position>
            <AltitudeMeters>39.200000762939453125</AltitudeMeters>
            <DistanceMeters>NAN</DistanceMeters>
          </Trackpoint>
          <Trackpoint>
            <Time>2022-09-24T16:28:27.000Z</Time>
            <Position>
              <LatitudeDegrees>43.36720325052738189697265625</LatitudeDegrees>
              <LongitudeDegrees>-2.946278862655162811279296875</LongitudeDegrees>
            </Position>
            <AltitudeMeters>39.200000762939453125</AltitudeMeters>
            <DistanceMeters>NAN</DistanceMeters>
          </Trackpoint>
          <Trackpoint>
            <Time>2022-09-24T16:28:28.000Z</Time>
            <Position>
              <LatitudeDegrees>43.36716963909566402435302734375</LatitudeDegrees>
              <LongitudeDegrees>-2.946283556520938873291015625</LongitudeDegrees>
            </Position>
            <AltitudeMeters>39.40000152587890625</AltitudeMeters>
            <DistanceMeters>NAN</DistanceMeters>
          </Trackpoint>
          <Trackpoint>
            <Time>2022-09-24T16:28:29.000Z</Time>
            <Position>
              <LatitudeDegrees>43.36713510565459728240966796875</LatitudeDegrees>
              <LongitudeDegrees>-2.946293614804744720458984375</LongitudeDegrees>
            </Position>
            <AltitudeMeters>39.799999237060546875</AltitudeMeters>
            <DistanceMeters>NAN</DistanceMeters>
          </Trackpoint>
          <Trackpoint>
            <Time>2022-09-24T16:28:30.000Z</Time>
            <Position>
              <LatitudeDegrees>43.36709939874708652496337890625</LatitudeDegrees>
              <LongitudeDegrees>-2.9463033378124237060546875</LongitudeDegrees>
            </Position>
            <AltitudeMeters>39.799999237060546875</AltitudeMeters>
            <DistanceMeters>NAN</DistanceMeters>
          </Trackpoint>
          <Trackpoint>
            <Time>2022-09-24T16:28:31.000Z</Time>
            <Position>
              <LatitudeDegrees>43.36706385947763919830322265625</LatitudeDegrees>
              <LongitudeDegrees>-2.9463098756968975067138671875</LongitudeDegrees>
            </Position>
            <AltitudeMeters>39.799999237060546875</AltitudeMeters>
            <DistanceMeters>NAN</DistanceMeters>
          </Trackpoint>
          <Trackpoint>
            <Time>2022-09-24T16:28:32.000Z</Time>
            <Position>
              <LatitudeDegrees>43.367025889456272125244140625</LatitudeDegrees>
              <LongitudeDegrees>-2.94631850905716419219970703125</LongitudeDegrees>
            </Position>
            <AltitudeMeters>40.200000762939453125</AltitudeMeters>
            <DistanceMeters>NAN</DistanceMeters>
          </Trackpoint>
          <Trackpoint>
            <Time>2022-09-24T16:28:33.000Z</Time>
            <Position>
              <LatitudeDegrees>43.3669978938996791839599609375</LatitudeDegrees>
              <LongitudeDegrees>-2.94632412493228912353515625</LongitudeDegrees>
            </Position>
            <AltitudeMeters>40.40000152587890625</AltitudeMeters>
            <DistanceMeters>NAN</DistanceMeters>
          </Trackpoint>
          <Trackpoint>
            <Time>2022-09-24T16:28:34.000Z</Time>
            <Position>
              <LatitudeDegrees>43.36696411482989788055419921875</LatitudeDegrees>
              <LongitudeDegrees>-2.9463343508541584014892578125</LongitudeDegrees>
            </Position>
            <AltitudeMeters>40.40000152587890625</AltitudeMeters>
            <DistanceMeters>NAN</DistanceMeters>
          </Trackpoint>
          <Trackpoint>
            <Time>2022-09-24T16:28:35.000Z</Time>
            <Position>
              <LatitudeDegrees>43.3669291622936725616455078125</LatitudeDegrees>
              <LongitudeDegrees>-2.94634197838604450225830078125</LongitudeDegrees>
            </Position>
            <AltitudeMeters>40.59999847412109375</AltitudeMeters>
            <DistanceMeters>NAN</DistanceMeters>
          </Trackpoint>
          <Trackpoint>
            <Time>2022-09-24T16:28:36.000Z</Time>
            <Position>
              <LatitudeDegrees>43.366894461214542388916015625</LatitudeDegrees>
              <LongitudeDegrees>-2.94634751044213771820068359375</LongitudeDegrees>
            </Position>
            <AltitudeMeters>40.799999237060546875</AltitudeMeters>
            <DistanceMeters>NAN</DistanceMeters>
          </Trackpoint>
          <Trackpoint>
            <Time>2022-09-24T16:28:37.000Z</Time>
            <Position>
              <LatitudeDegrees>43.366859592497348785400390625</LatitudeDegrees>
              <LongitudeDegrees>-2.9463542997837066650390625</LongitudeDegrees>
            </Position>
            <AltitudeMeters>41.200000762939453125</AltitudeMeters>
            <DistanceMeters>NAN</DistanceMeters>
          </Trackpoint>
          <Trackpoint>
            <Time>2022-09-24T16:28:38.000Z</Time>
            <Position>
              <LatitudeDegrees>43.3668258972465991973876953125</LatitudeDegrees>
              <LongitudeDegrees>-2.9463615082204341888427734375</LongitudeDegrees>
            </Position>
            <AltitudeMeters>41.200000762939453125</AltitudeMeters>
            <DistanceMeters>NAN</DistanceMeters>
          </Trackpoint>
          <Trackpoint>
            <Time>2022-09-24T16:28:39.000Z</Time>
            <Position>
              <LatitudeDegrees>43.3667900227010250091552734375</LatitudeDegrees>
              <LongitudeDegrees>-2.9463705606758594512939453125</LongitudeDegrees>
            </Position>
            <AltitudeMeters>41.40000152587890625</AltitudeMeters>
            <DistanceMeters>NAN</DistanceMeters>
          </Trackpoint>
          <Trackpoint>
            <Time>2022-09-24T16:28:40.000Z</Time>
            <Position>
              <LatitudeDegrees>43.36675372906029224395751953125</LatitudeDegrees>
              <LongitudeDegrees>-2.94638154096901416778564453125</LongitudeDegrees>
            </Position>
            <AltitudeMeters>41.799999237060546875</AltitudeMeters>
            <DistanceMeters>NAN</DistanceMeters>
          </Trackpoint>
          <Trackpoint>
            <Time>2022-09-24T16:28:41.000Z</Time>
            <Position>
              <LatitudeDegrees>43.36671835742890834808349609375</LatitudeDegrees>
              <LongitudeDegrees>-2.9463916830718517303466796875</LongitudeDegrees>
            </Position>
            <AltitudeMeters>42.200000762939453125</AltitudeMeters>
            <DistanceMeters>NAN</DistanceMeters>
          </Trackpoint>
          <Trackpoint>
            <Time>2022-09-24T16:28:42.000Z</Time>
            <Position>
              <LatitudeDegrees>43.366683907806873321533203125</LatitudeDegrees>
              <LongitudeDegrees>-2.946399562060832977294921875</LongitudeDegrees>
            </Position>
            <AltitudeMeters>42.40000152587890625</AltitudeMeters>
            <DistanceMeters>NAN</DistanceMeters>
          </Trackpoint>
          <Trackpoint>
            <Time>2022-09-24T16:28:43.000Z</Time>
            <Position>
              <LatitudeDegrees>43.36664895527064800262451171875</LatitudeDegrees>
              <LongitudeDegrees>-2.94641070999205112457275390625</LongitudeDegrees>
            </Position>
            <AltitudeMeters>42.40000152587890625</AltitudeMeters>
            <DistanceMeters>NAN</DistanceMeters>
          </Trackpoint>
          <Trackpoint>
            <Time>2022-09-24T16:28:44.000Z</Time>
            <Position>
              <LatitudeDegrees>43.36661458946764469146728515625</LatitudeDegrees>
              <LongitudeDegrees>-2.9464213550090789794921875</LongitudeDegrees>
            </Position>
            <AltitudeMeters>42.59999847412109375</AltitudeMeters>
            <DistanceMeters>NAN</DistanceMeters>
          </Trackpoint>
          <Trackpoint>
            <Time>2022-09-24T16:28:45.000Z</Time>
            <Position>
              <LatitudeDegrees>43.36657586507499217987060546875</LatitudeDegrees>
              <LongitudeDegrees>-2.94642847962677478790283203125</LongitudeDegrees>
            </Position>
            <AltitudeMeters>42.799999237060546875</AltitudeMeters>
            <DistanceMeters>NAN</DistanceMeters>
          </Trackpoint>
          <Trackpoint>
            <Time>2022-09-24T16:28:46.000Z</Time>
            <Position>
              <LatitudeDegrees>43.36657586507499217987060546875</LatitudeDegrees>
              <LongitudeDegrees>-2.94642847962677478790283203125</LongitudeDegrees>
            </Position>
            <AltitudeMeters>43</AltitudeMeters>
            <DistanceMeters>NAN</DistanceMeters>
          </Trackpoint>
          <Trackpoint>
            <Time>2022-09-24T16:28:47.000Z</Time>
            <Position>
              <LatitudeDegrees>43.36650797165930271148681640625</LatitudeDegrees>
              <LongitudeDegrees>-2.94644708745181560516357421875</LongitudeDegrees>
            </Position>
            <AltitudeMeters>43</AltitudeMeters>
            <DistanceMeters>NAN</DistanceMeters>
          </Trackpoint>
          <Trackpoint>
            <Time>2022-09-24T16:28:48.000Z</Time>
            <Position>
              <LatitudeDegrees>43.36647494696080684661865234375</LatitudeDegrees>
              <LongitudeDegrees>-2.946454547345638275146484375</LongitudeDegrees>
            </Position>
            <AltitudeMeters>43.200000762939453125</AltitudeMeters>
            <DistanceMeters>NAN</DistanceMeters>
          </Trackpoint>
          <Trackpoint>
            <Time>2022-09-24T16:28:49.000Z</Time>
            <Position>
              <LatitudeDegrees>43.3664394915103912353515625</LatitudeDegrees>
              <LongitudeDegrees>-2.94646049849689006805419921875</LongitudeDegrees>
            </Position>
            <AltitudeMeters>43.40000152587890625</AltitudeMeters>
            <DistanceMeters>NAN</DistanceMeters>
          </Trackpoint>
          <Trackpoint>
            <Time>2022-09-24T16:28:50.000Z</Time>
            <Position>
              <LatitudeDegrees>43.366403616964817047119140625</LatitudeDegrees>
              <LongitudeDegrees>-2.946465946733951568603515625</LongitudeDegrees>
            </Position>
            <AltitudeMeters>43.40000152587890625</AltitudeMeters>
            <DistanceMeters>NAN</DistanceMeters>
          </Trackpoint>
          <Trackpoint>
            <Time>2022-09-24T16:28:51.000Z</Time>
            <Position>
              <LatitudeDegrees>43.36637000553309917449951171875</LatitudeDegrees>
              <LongitudeDegrees>-2.94647307135164737701416015625</LongitudeDegrees>
            </Position>
            <AltitudeMeters>44</AltitudeMeters>
            <DistanceMeters>NAN</DistanceMeters>
          </Trackpoint>
          <Trackpoint>
            <Time>2022-09-24T16:28:52.000Z</Time>
            <Position>
              <LatitudeDegrees>43.366339243948459625244140625</LatitudeDegrees>
              <LongitudeDegrees>-2.94648178853094577789306640625</LongitudeDegrees>
            </Position>
            <AltitudeMeters>44.200000762939453125</AltitudeMeters>
            <DistanceMeters>NAN</DistanceMeters>
          </Trackpoint>
          <Trackpoint>
            <Time>2022-09-24T16:28:53.000Z</Time>
            <Position>
              <LatitudeDegrees>43.36630680598318576812744140625</LatitudeDegrees>
              <LongitudeDegrees>-2.94649201445281505584716796875</LongitudeDegrees>
            </Position>
            <AltitudeMeters>44.40000152587890625</AltitudeMeters>
            <DistanceMeters>NAN</DistanceMeters>
          </Trackpoint>
          <Trackpoint>
            <Time>2022-09-24T16:28:54.000Z</Time>
            <Position>
              <LatitudeDegrees>43.36627411656081676483154296875</LatitudeDegrees>
              <LongitudeDegrees>-2.946502827107906341552734375</LongitudeDegrees>
            </Position>
            <AltitudeMeters>44.40000152587890625</AltitudeMeters>
            <DistanceMeters>NAN</DistanceMeters>
          </Trackpoint>
          <Trackpoint>
            <Time>2022-09-24T16:28:55.000Z</Time>
            <Position>
              <LatitudeDegrees>43.36623891256749629974365234375</LatitudeDegrees>
              <LongitudeDegrees>-2.9465123824775218963623046875</LongitudeDegrees>
            </Position>
            <AltitudeMeters>44.59999847412109375</AltitudeMeters>
            <DistanceMeters>NAN</DistanceMeters>
          </Trackpoint>
          <Trackpoint>
            <Time>2022-09-24T16:28:56.000Z</Time>
            <Position>
              <LatitudeDegrees>43.36620387621223926544189453125</LatitudeDegrees>
              <LongitudeDegrees>-2.94651925563812255859375</LongitudeDegrees>
            </Position>
            <AltitudeMeters>45</AltitudeMeters>
            <DistanceMeters>NAN</DistanceMeters>
          </Trackpoint>
          <Trackpoint>
            <Time>2022-09-24T16:28:57.000Z</Time>
            <Position>
              <LatitudeDegrees>43.3661741204559803009033203125</LatitudeDegrees>
              <LongitudeDegrees>-2.94653191231191158294677734375</LongitudeDegrees>
            </Position>
            <AltitudeMeters>45.40000152587890625</AltitudeMeters>
            <DistanceMeters>NAN</DistanceMeters>
          </Trackpoint>
          <Trackpoint>
            <Time>2022-09-24T16:28:58.000Z</Time>
            <Position>
              <LatitudeDegrees>43.36614377796649932861328125</LatitudeDegrees>
              <LongitudeDegrees>-2.9465529508888721466064453125</LongitudeDegrees>
            </Position>
            <AltitudeMeters>45.40000152587890625</AltitudeMeters>
            <DistanceMeters>NAN</DistanceMeters>
          </Trackpoint>
          <Trackpoint>
            <Time>2022-09-24T16:28:59.000Z</Time>
            <Position>
              <LatitudeDegrees>43.36611159145832061767578125</LatitudeDegrees>
              <LongitudeDegrees>-2.9465747438371181488037109375</LongitudeDegrees>
            </Position>
            <AltitudeMeters>45.40000152587890625</AltitudeMeters>
            <DistanceMeters>NAN</DistanceMeters>
          </Trackpoint>
          <Trackpoint>
            <Time>2022-09-24T16:29:00.000Z</Time>
            <Position>
              <LatitudeDegrees>43.36607404053211212158203125</LatitudeDegrees>
              <LongitudeDegrees>-2.9466045834124088287353515625</LongitudeDegrees>
            </Position>
            <AltitudeMeters>45.59999847412109375</AltitudeMeters>
            <DistanceMeters>NAN</DistanceMeters>
          </Trackpoint>
          <Trackpoint>
            <Time>2022-09-24T16:29:01.000Z</Time>
            <Position>
              <LatitudeDegrees>43.36604990065097808837890625</LatitudeDegrees>
              <LongitudeDegrees>-2.9466317407786846160888671875</LongitudeDegrees>
            </Position>
            <AltitudeMeters>45.799999237060546875</AltitudeMeters>
            <DistanceMeters>NAN</DistanceMeters>
          </Trackpoint>
          <Trackpoint>
            <Time>2022-09-24T16:29:02.000Z</Time>
            <Position>
              <LatitudeDegrees>43.3660219050943851470947265625</LatitudeDegrees>
              <LongitudeDegrees>-2.9466729797422885894775390625</LongitudeDegrees>
            </Position>
            <AltitudeMeters>45.799999237060546875</AltitudeMeters>
            <DistanceMeters>NAN</DistanceMeters>
          </Trackpoint>
          <Trackpoint>
            <Time>2022-09-24T16:29:03.000Z</Time>
            <Position>
              <LatitudeDegrees>43.36599164642393589019775390625</LatitudeDegrees>
              <LongitudeDegrees>-2.946729473769664764404296875</LongitudeDegrees>
            </Position>
            <AltitudeMeters>46</AltitudeMeters>
            <DistanceMeters>NAN</DistanceMeters>
          </Trackpoint>
          <Trackpoint>
            <Time>2022-09-24T16:29:04.000Z</Time>
            <Position>
              <LatitudeDegrees>43.36597672663629055023193359375</LatitudeDegrees>
              <LongitudeDegrees>-2.9467702098190784454345703125</LongitudeDegrees>
            </Position>
            <AltitudeMeters>46</AltitudeMeters>
            <DistanceMeters>NAN</DistanceMeters>
          </Trackpoint>
          <Trackpoint>
            <Time>2022-09-24T16:29:05.000Z</Time>
            <Position>
              <LatitudeDegrees>43.3659645728766918182373046875</LatitudeDegrees>
              <LongitudeDegrees>-2.946825362741947174072265625</LongitudeDegrees>
            </Position>
            <AltitudeMeters>46.200000762939453125</AltitudeMeters>
            <DistanceMeters>NAN</DistanceMeters>
          </Trackpoint>
          <Trackpoint>
            <Time>2022-09-24T16:29:06.000Z</Time>
            <Position>
              <LatitudeDegrees>43.36595778353512287139892578125</LatitudeDegrees>
              <LongitudeDegrees>-2.9468826949596405029296875</LongitudeDegrees>
            </Position>
            <AltitudeMeters>46.200000762939453125</AltitudeMeters>
            <DistanceMeters>NAN</DistanceMeters>
          </Trackpoint>
          <Trackpoint>
            <Time>2022-09-24T16:29:07.000Z</Time>
            <Position>
              <LatitudeDegrees>43.3659538440406322479248046875</LatitudeDegrees>
              <LongitudeDegrees>-2.94693726114928722381591796875</LongitudeDegrees>
            </Position>
            <AltitudeMeters>46.59999847412109375</AltitudeMeters>
            <DistanceMeters>NAN</DistanceMeters>
          </Trackpoint>
          <Trackpoint>
            <Time>2022-09-24T16:29:08.000Z</Time>
            <Position>
              <LatitudeDegrees>43.3659518323838710784912109375</LatitudeDegrees>
              <LongitudeDegrees>-2.946993671357631683349609375</LongitudeDegrees>
            </Position>
            <AltitudeMeters>46.59999847412109375</AltitudeMeters>
            <DistanceMeters>NAN</DistanceMeters>
          </Trackpoint>
          <Trackpoint>
            <Time>2022-09-24T16:29:09.000Z</Time>
            <Position>
              <LatitudeDegrees>43.3659518323838710784912109375</LatitudeDegrees>
              <LongitudeDegrees>-2.946993671357631683349609375</LongitudeDegrees>
            </Position>
            <AltitudeMeters>46.59999847412109375</AltitudeMeters>
            <DistanceMeters>NAN</DistanceMeters>
          </Trackpoint>
          <Trackpoint>
            <Time>2022-09-24T16:29:10.000Z</Time>
            <Position>
              <LatitudeDegrees>43.36594638414680957794189453125</LatitudeDegrees>
              <LongitudeDegrees>-2.94711663387715816497802734375</LongitudeDegrees>
            </Position>
            <AltitudeMeters>46.59999847412109375</AltitudeMeters>
            <DistanceMeters>NAN</DistanceMeters>
          </Trackpoint>
          <Trackpoint>
            <Time>2022-09-24T16:29:11.000Z</Time>
            <Position>
              <LatitudeDegrees>43.3659501560032367706298828125</LatitudeDegrees>
              <LongitudeDegrees>-2.94717664830386638641357421875</LongitudeDegrees>
            </Position>
            <AltitudeMeters>46.799999237060546875</AltitudeMeters>
            <DistanceMeters>NAN</DistanceMeters>
          </Trackpoint>
          <Trackpoint>
            <Time>2022-09-24T16:29:12.000Z</Time>
            <Position>
              <LatitudeDegrees>43.36595334112644195556640625</LatitudeDegrees>
              <LongitudeDegrees>-2.94723850674927234649658203125</LongitudeDegrees>
            </Position>
            <AltitudeMeters>46.799999237060546875</AltitudeMeters>
            <DistanceMeters>NAN</DistanceMeters>
          </Trackpoint>
          <Trackpoint>
            <Time>2022-09-24T16:29:13.000Z</Time>
            <Position>
              <LatitudeDegrees>43.3659585379064083099365234375</LatitudeDegrees>
              <LongitudeDegrees>-2.9472996108233928680419921875</LongitudeDegrees>
            </Position>
            <AltitudeMeters>46.799999237060546875</AltitudeMeters>
            <DistanceMeters>NAN</DistanceMeters>
          </Trackpoint>
          <Trackpoint>
            <Time>2022-09-24T16:29:14.000Z</Time>
            <Position>
              <LatitudeDegrees>43.36596733890473842620849609375</LatitudeDegrees>
              <LongitudeDegrees>-2.947366498410701751708984375</LongitudeDegrees>
            </Position>
            <AltitudeMeters>46.799999237060546875</AltitudeMeters>
            <DistanceMeters>NAN</DistanceMeters>
          </Trackpoint>
          <Trackpoint>
            <Time>2022-09-24T16:29:15.000Z</Time>
            <Position>
              <LatitudeDegrees>43.36597085930407047271728515625</LatitudeDegrees>
              <LongitudeDegrees>-2.94743766076862812042236328125</LongitudeDegrees>
            </Position>
            <AltitudeMeters>46.799999237060546875</AltitudeMeters>
            <DistanceMeters>NAN</DistanceMeters>
          </Trackpoint>
          <Trackpoint>
            <Time>2022-09-24T16:29:16.000Z</Time>
            <Position>
              <LatitudeDegrees>43.36597488261759281158447265625</LatitudeDegrees>
              <LongitudeDegrees>-2.9475104995071887969970703125</LongitudeDegrees>
            </Position>
            <AltitudeMeters>46.799999237060546875</AltitudeMeters>
            <DistanceMeters>NAN</DistanceMeters>
          </Trackpoint>
          <Trackpoint>
            <Time>2022-09-24T16:29:17.000Z</Time>
            <Position>
              <LatitudeDegrees>43.36598016321659088134765625</LatitudeDegrees>
              <LongitudeDegrees>-2.94758141040802001953125</LongitudeDegrees>
            </Position>
            <AltitudeMeters>46.799999237060546875</AltitudeMeters>
            <DistanceMeters>NAN</DistanceMeters>
          </Trackpoint>
          <Trackpoint>
            <Time>2022-09-24T16:29:18.000Z</Time>
            <Position>
              <LatitudeDegrees>43.36598209105432033538818359375</LatitudeDegrees>
              <LongitudeDegrees>-2.94765709899365901947021484375</LongitudeDegrees>
            </Position>
            <AltitudeMeters>47</AltitudeMeters>
            <DistanceMeters>NAN</DistanceMeters>
          </Trackpoint>
          <Trackpoint>
            <Time>2022-09-24T16:29:19.000Z</Time>
            <Position>
              <LatitudeDegrees>43.3659850247204303741455078125</LatitudeDegrees>
              <LongitudeDegrees>-2.9477314464747905731201171875</LongitudeDegrees>
            </Position>
            <AltitudeMeters>47</AltitudeMeters>
            <DistanceMeters>NAN</DistanceMeters>
          </Trackpoint>
          <Trackpoint>
            <Time>2022-09-24T16:29:20.000Z</Time>
            <Position>
              <LatitudeDegrees>43.36598846130073070526123046875</LatitudeDegrees>
              <LongitudeDegrees>-2.947804369032382965087890625</LongitudeDegrees>
            </Position>
            <AltitudeMeters>47</AltitudeMeters>
            <DistanceMeters>NAN</DistanceMeters>
          </Trackpoint>
          <Trackpoint>
            <Time>2022-09-24T16:29:21.000Z</Time>
            <Position>
              <LatitudeDegrees>43.3659890480339527130126953125</LatitudeDegrees>
              <LongitudeDegrees>-2.94787787832319736480712890625</LongitudeDegrees>
            </Position>
            <AltitudeMeters>47</AltitudeMeters>
            <DistanceMeters>NAN</DistanceMeters>
          </Trackpoint>
          <Trackpoint>
            <Time>2022-09-24T16:29:22.000Z</Time>
            <Position>
              <LatitudeDegrees>43.365991897881031036376953125</LatitudeDegrees>
              <LongitudeDegrees>-2.94795130379498004913330078125</LongitudeDegrees>
            </Position>
            <AltitudeMeters>47</AltitudeMeters>
            <DistanceMeters>NAN</DistanceMeters>
          </Trackpoint>
          <Trackpoint>
            <Time>2022-09-24T16:29:23.000Z</Time>
            <Position>
              <LatitudeDegrees>43.36599550209939479827880859375</LatitudeDegrees>
              <LongitudeDegrees>-2.94802875258028507232666015625</LongitudeDegrees>
            </Position>
            <AltitudeMeters>47</AltitudeMeters>
            <DistanceMeters>NAN</DistanceMeters>
          </Trackpoint>
          <Trackpoint>
            <Time>2022-09-24T16:29:24.000Z</Time>
            <Position>
              <LatitudeDegrees>43.3659994415938854217529296875</LatitudeDegrees>
              <LongitudeDegrees>-2.9481062851846218109130859375</LongitudeDegrees>
            </Position>
            <AltitudeMeters>46.799999237060546875</AltitudeMeters>
            <DistanceMeters>NAN</DistanceMeters>
          </Trackpoint>
          <Trackpoint>
            <Time>2022-09-24T16:29:25.000Z</Time>
            <Position>
              <LatitudeDegrees>43.366007320582866668701171875</LatitudeDegrees>
              <LongitudeDegrees>-2.94818222522735595703125</LongitudeDegrees>
            </Position>
            <AltitudeMeters>46.799999237060546875</AltitudeMeters>
            <DistanceMeters>NAN</DistanceMeters>
          </Trackpoint>
          <Trackpoint>
            <Time>2022-09-24T16:29:26.000Z</Time>
            <Position>
              <LatitudeDegrees>43.36601042188704013824462890625</LatitudeDegrees>
              <LongitudeDegrees>-2.94825456105172634124755859375</LongitudeDegrees>
            </Position>
            <AltitudeMeters>46.799999237060546875</AltitudeMeters>
            <DistanceMeters>NAN</DistanceMeters>
          </Trackpoint>
          <Trackpoint>
            <Time>2022-09-24T16:29:27.000Z</Time>
            <Position>
              <LatitudeDegrees>43.3660118468105792999267578125</LatitudeDegrees>
              <LongitudeDegrees>-2.9483222030103206634521484375</LongitudeDegrees>
            </Position>
            <AltitudeMeters>46.799999237060546875</AltitudeMeters>
            <DistanceMeters>NAN</DistanceMeters>
          </Trackpoint>
          <Trackpoint>
            <Time>2022-09-24T16:29:28.000Z</Time>
            <Position>
              <LatitudeDegrees>43.366010673344135284423828125</LatitudeDegrees>
              <LongitudeDegrees>-2.94839403592050075531005859375</LongitudeDegrees>
            </Position>
            <AltitudeMeters>47</AltitudeMeters>
            <DistanceMeters>NAN</DistanceMeters>
          </Trackpoint>
          <Trackpoint>
            <Time>2022-09-24T16:29:29.000Z</Time>
            <Position>
              <LatitudeDegrees>43.36600455455482006072998046875</LatitudeDegrees>
              <LongitudeDegrees>-2.94846913777291774749755859375</LongitudeDegrees>
            </Position>
            <AltitudeMeters>47</AltitudeMeters>
            <DistanceMeters>NAN</DistanceMeters>
          </Trackpoint>
          <Trackpoint>
            <Time>2022-09-24T16:29:30.000Z</Time>
            <Position>
              <LatitudeDegrees>43.366002626717090606689453125</LatitudeDegrees>
              <LongitudeDegrees>-2.94854809530079364776611328125</LongitudeDegrees>
            </Position>
            <AltitudeMeters>47.200000762939453125</AltitudeMeters>
            <DistanceMeters>NAN</DistanceMeters>
          </Trackpoint>
          <Trackpoint>
            <Time>2022-09-24T16:29:31.000Z</Time>
            <Position>
              <LatitudeDegrees>43.3660071529448032379150390625</LatitudeDegrees>
              <LongitudeDegrees>-2.948631830513477325439453125</LongitudeDegrees>
            </Position>
            <AltitudeMeters>47.200000762939453125</AltitudeMeters>
            <DistanceMeters>NAN</DistanceMeters>
          </Trackpoint>
          <Trackpoint>
            <Time>2022-09-24T16:29:32.000Z</Time>
            <Position>
              <LatitudeDegrees>43.366015367209911346435546875</LatitudeDegrees>
              <LongitudeDegrees>-2.94871405698359012603759765625</LongitudeDegrees>
            </Position>
            <AltitudeMeters>47.200000762939453125</AltitudeMeters>
            <DistanceMeters>NAN</DistanceMeters>
          </Trackpoint>
          <Trackpoint>
            <Time>2022-09-24T16:29:33.000Z</Time>
            <Position>
              <LatitudeDegrees>43.36602483876049518585205078125</LatitudeDegrees>
              <LongitudeDegrees>-2.9488016478717327117919921875</LongitudeDegrees>
            </Position>
            <AltitudeMeters>47.200000762939453125</AltitudeMeters>
            <DistanceMeters>NAN</DistanceMeters>
          </Trackpoint>
          <Trackpoint>
            <Time>2022-09-24T16:29:34.000Z</Time>
            <Position>
              <LatitudeDegrees>43.36603590287268161773681640625</LatitudeDegrees>
              <LongitudeDegrees>-2.94889527373015880584716796875</LongitudeDegrees>
            </Position>
            <AltitudeMeters>47.200000762939453125</AltitudeMeters>
            <DistanceMeters>NAN</DistanceMeters>
          </Trackpoint>
          <Trackpoint>
            <Time>2022-09-24T16:29:35.000Z</Time>
            <Position>
              <LatitudeDegrees>43.3660467155277729034423828125</LatitudeDegrees>
              <LongitudeDegrees>-2.94898630119860172271728515625</LongitudeDegrees>
            </Position>
            <AltitudeMeters>47</AltitudeMeters>
            <DistanceMeters>NAN</DistanceMeters>
          </Trackpoint>
          <Trackpoint>
            <Time>2022-09-24T16:29:36.000Z</Time>
            <Position>
              <LatitudeDegrees>43.36605233140289783477783203125</LatitudeDegrees>
              <LongitudeDegrees>-2.9490732215344905853271484375</LongitudeDegrees>
            </Position>
            <AltitudeMeters>47</AltitudeMeters>
            <DistanceMeters>NAN</DistanceMeters>
          </Trackpoint>
          <Trackpoint>
            <Time>2022-09-24T16:29:37.000Z</Time>
            <Position>
              <LatitudeDegrees>43.36605719290673732757568359375</LatitudeDegrees>
              <LongitudeDegrees>-2.94918243773281574249267578125</LongitudeDegrees>
            </Position>
            <AltitudeMeters>46.59999847412109375</AltitudeMeters>
            <DistanceMeters>NAN</DistanceMeters>
          </Trackpoint>
          <Trackpoint>
            <Time>2022-09-24T16:29:38.000Z</Time>
            <Position>
              <LatitudeDegrees>43.3660614676773548126220703125</LatitudeDegrees>
              <LongitudeDegrees>-2.94925435446202754974365234375</LongitudeDegrees>
            </Position>
            <AltitudeMeters>46.59999847412109375</AltitudeMeters>
            <DistanceMeters>NAN</DistanceMeters>
          </Trackpoint>
          <Trackpoint>
            <Time>2022-09-24T16:29:39.000Z</Time>
            <Position>
              <LatitudeDegrees>43.36606222204864025115966796875</LatitudeDegrees>
              <LongitudeDegrees>-2.9493474774062633514404296875</LongitudeDegrees>
            </Position>
            <AltitudeMeters>46.59999847412109375</AltitudeMeters>
            <DistanceMeters>NAN</DistanceMeters>
          </Trackpoint>
          <Trackpoint>
            <Time>2022-09-24T16:29:40.000Z</Time>
            <Position>
              <LatitudeDegrees>43.36606465280055999755859375</LatitudeDegrees>
              <LongitudeDegrees>-2.9494388401508331298828125</LongitudeDegrees>
            </Position>
            <AltitudeMeters>47</AltitudeMeters>
            <DistanceMeters>NAN</DistanceMeters>
          </Trackpoint>
          <Trackpoint>
            <Time>2022-09-24T16:29:41.000Z</Time>
            <Position>
              <LatitudeDegrees>43.36605233140289783477783203125</LatitudeDegrees>
              <LongitudeDegrees>-2.9495372436940670013427734375</LongitudeDegrees>
            </Position>
            <AltitudeMeters>48.40000152587890625</AltitudeMeters>
            <DistanceMeters>NAN</DistanceMeters>
          </Trackpoint>
          <Trackpoint>
            <Time>2022-09-24T16:29:42.000Z</Time>
            <Position>
              <LatitudeDegrees>43.36604260839521884918212890625</LatitudeDegrees>
              <LongitudeDegrees>-2.94963665306568145751953125</LongitudeDegrees>
            </Position>
            <AltitudeMeters>48.59999847412109375</AltitudeMeters>
            <DistanceMeters>NAN</DistanceMeters>
          </Trackpoint>
          <Trackpoint>
            <Time>2022-09-24T16:29:43.000Z</Time>
            <Position>
              <LatitudeDegrees>43.36604596115648746490478515625</LatitudeDegrees>
              <LongitudeDegrees>-2.94973128475248813629150390625</LongitudeDegrees>
            </Position>
            <AltitudeMeters>48.59999847412109375</AltitudeMeters>
            <DistanceMeters>NAN</DistanceMeters>
          </Trackpoint>
          <Trackpoint>
            <Time>2022-09-24T16:29:44.000Z</Time>
            <Position>
              <LatitudeDegrees>43.3660478889942169189453125</LatitudeDegrees>
              <LongitudeDegrees>-2.94984293170273303985595703125</LongitudeDegrees>
            </Position>
            <AltitudeMeters>48.59999847412109375</AltitudeMeters>
            <DistanceMeters>NAN</DistanceMeters>
          </Trackpoint>
          <Trackpoint>
            <Time>2022-09-24T16:29:45.000Z</Time>
            <Position>
              <LatitudeDegrees>43.36605400778353214263916015625</LatitudeDegrees>
              <LongitudeDegrees>-2.94994133524596691131591796875</LongitudeDegrees>
            </Position>
            <AltitudeMeters>48.59999847412109375</AltitudeMeters>
            <DistanceMeters>NAN</DistanceMeters>
          </Trackpoint>
          <Trackpoint>
            <Time>2022-09-24T16:29:46.000Z</Time>
            <Position>
              <LatitudeDegrees>43.36606389842927455902099609375</LatitudeDegrees>
              <LongitudeDegrees>-2.9500391520559787750244140625</LongitudeDegrees>
            </Position>
            <AltitudeMeters>48.59999847412109375</AltitudeMeters>
            <DistanceMeters>NAN</DistanceMeters>
          </Trackpoint>
          <Trackpoint>
            <Time>2022-09-24T16:29:47.000Z</Time>
            <Position>
              <LatitudeDegrees>43.3660675026476383209228515625</LatitudeDegrees>
              <LongitudeDegrees>-2.95013420283794403076171875</LongitudeDegrees>
            </Position>
            <AltitudeMeters>48.59999847412109375</AltitudeMeters>
            <DistanceMeters>NAN</DistanceMeters>
          </Trackpoint>
          <Trackpoint>
            <Time>2022-09-24T16:29:48.000Z</Time>
            <Position>
              <LatitudeDegrees>43.36608066223561763763427734375</LatitudeDegrees>
              <LongitudeDegrees>-2.9502275772392749786376953125</LongitudeDegrees>
            </Position>
            <AltitudeMeters>48.40000152587890625</AltitudeMeters>
            <DistanceMeters>NAN</DistanceMeters>
          </Trackpoint>
          <Trackpoint>
            <Time>2022-09-24T16:29:49.000Z</Time>
            <Position>
              <LatitudeDegrees>43.36610044352710247039794921875</LatitudeDegrees>
              <LongitudeDegrees>-2.9503419063985347747802734375</LongitudeDegrees>
            </Position>
            <AltitudeMeters>48.40000152587890625</AltitudeMeters>
            <DistanceMeters>NAN</DistanceMeters>
          </Trackpoint>
          <Trackpoint>
            <Time>2022-09-24T16:29:50.000Z</Time>
            <Position>
              <LatitudeDegrees>43.36611385457217693328857421875</LatitudeDegrees>
              <LongitudeDegrees>-2.95041943900287151336669921875</LongitudeDegrees>
            </Position>
            <AltitudeMeters>48.59999847412109375</AltitudeMeters>
            <DistanceMeters>NAN</DistanceMeters>
          </Trackpoint>
          <Trackpoint>
            <Time>2022-09-24T16:29:51.000Z</Time>
            <Position>
              <LatitudeDegrees>43.36612910963594913482666015625</LatitudeDegrees>
              <LongitudeDegrees>-2.95051775872707366943359375</LongitudeDegrees>
            </Position>
            <AltitudeMeters>48.59999847412109375</AltitudeMeters>
            <DistanceMeters>NAN</DistanceMeters>
          </Trackpoint>
          <Trackpoint>
            <Time>2022-09-24T16:29:52.000Z</Time>
            <Position>
              <LatitudeDegrees>43.36614453233778476715087890625</LatitudeDegrees>
              <LongitudeDegrees>-2.9506134800612926483154296875</LongitudeDegrees>
            </Position>
            <AltitudeMeters>48.799999237060546875</AltitudeMeters>
            <DistanceMeters>NAN</DistanceMeters>
          </Trackpoint>
          <Trackpoint>
            <Time>2022-09-24T16:29:53.000Z</Time>
            <Position>
              <LatitudeDegrees>43.36616297252476215362548828125</LatitudeDegrees>
              <LongitudeDegrees>-2.95070777647197246551513671875</LongitudeDegrees>
            </Position>
            <AltitudeMeters>48.59999847412109375</AltitudeMeters>
            <DistanceMeters>NAN</DistanceMeters>
          </Trackpoint>
          <Trackpoint>
            <Time>2022-09-24T16:29:54.000Z</Time>
            <Position>
              <LatitudeDegrees>43.36617956869304180145263671875</LatitudeDegrees>
              <LongitudeDegrees>-2.95080685056746006011962890625</LongitudeDegrees>
            </Position>
            <AltitudeMeters>48.59999847412109375</AltitudeMeters>
            <DistanceMeters>NAN</DistanceMeters>
          </Trackpoint>
          <Trackpoint>
            <Time>2022-09-24T16:29:55.000Z</Time>
            <Position>
              <LatitudeDegrees>43.36620236746966838836669921875</LatitudeDegrees>
              <LongitudeDegrees>-2.9508947767317295074462890625</LongitudeDegrees>
            </Position>
            <AltitudeMeters>48.59999847412109375</AltitudeMeters>
            <DistanceMeters>NAN</DistanceMeters>
          </Trackpoint>
          <Trackpoint>
            <Time>2022-09-24T16:29:56.000Z</Time>
            <Position>
              <LatitudeDegrees>43.36622147820889949798583984375</LatitudeDegrees>
              <LongitudeDegrees>-2.95098446309566497802734375</LongitudeDegrees>
            </Position>
            <AltitudeMeters>49</AltitudeMeters>
            <DistanceMeters>NAN</DistanceMeters>
          </Trackpoint>
          <Trackpoint>
            <Time>2022-09-24T16:29:57.000Z</Time>
            <Position>
              <LatitudeDegrees>43.36623757146298885345458984375</LatitudeDegrees>
              <LongitudeDegrees>-2.9510761611163616180419921875</LongitudeDegrees>
            </Position>
            <AltitudeMeters>48.59999847412109375</AltitudeMeters>
            <DistanceMeters>NAN</DistanceMeters>
          </Trackpoint>
          <Trackpoint>
            <Time>2022-09-24T16:29:58.000Z</Time>
            <Position>
              <LatitudeDegrees>43.36626154370605945587158203125</LatitudeDegrees>
              <LongitudeDegrees>-2.95116475783288478851318359375</LongitudeDegrees>
            </Position>
            <AltitudeMeters>48.59999847412109375</AltitudeMeters>
            <DistanceMeters>NAN</DistanceMeters>
          </Trackpoint>
          <Trackpoint>
            <Time>2022-09-24T16:29:59.000Z</Time>
            <Position>
              <LatitudeDegrees>43.3662884496152400970458984375</LatitudeDegrees>
              <LongitudeDegrees>-2.9512726329267024993896484375</LongitudeDegrees>
            </Position>
            <AltitudeMeters>48.59999847412109375</AltitudeMeters>
            <DistanceMeters>NAN</DistanceMeters>
          </Trackpoint>
          <Trackpoint>
            <Time>2022-09-24T16:30:00.000Z</Time>
            <Position>
              <LatitudeDegrees>43.3663042075932025909423828125</LatitudeDegrees>
              <LongitudeDegrees>-2.95134698040783405303955078125</LongitudeDegrees>
            </Position>
            <AltitudeMeters>48.59999847412109375</AltitudeMeters>
            <DistanceMeters>NAN</DistanceMeters>
          </Trackpoint>
          <Trackpoint>
            <Time>2022-09-24T16:30:01.000Z</Time>
            <Position>
              <LatitudeDegrees>43.36632323451340198516845703125</LatitudeDegrees>
              <LongitudeDegrees>-2.951438762247562408447265625</LongitudeDegrees>
            </Position>
            <AltitudeMeters>48.59999847412109375</AltitudeMeters>
            <DistanceMeters>NAN</DistanceMeters>
          </Trackpoint>
          <Trackpoint>
            <Time>2022-09-24T16:30:02.000Z</Time>
            <Position>
              <LatitudeDegrees>43.36634335108101367950439453125</LatitudeDegrees>
              <LongitudeDegrees>-2.95152937062084674835205078125</LongitudeDegrees>
            </Position>
            <AltitudeMeters>48.59999847412109375</AltitudeMeters>
            <DistanceMeters>NAN</DistanceMeters>
          </Trackpoint>
          <Trackpoint>
            <Time>2022-09-24T16:30:03.000Z</Time>
            <Position>
              <LatitudeDegrees>43.36636279709637165069580078125</LatitudeDegrees>
              <LongitudeDegrees>-2.95162224210798740386962890625</LongitudeDegrees>
            </Position>
            <AltitudeMeters>48.59999847412109375</AltitudeMeters>
            <DistanceMeters>NAN</DistanceMeters>
          </Trackpoint>
          <Trackpoint>
            <Time>2022-09-24T16:30:04.000Z</Time>
            <Position>
              <LatitudeDegrees>43.36638006381690502166748046875</LatitudeDegrees>
              <LongitudeDegrees>-2.95171528123319149017333984375</LongitudeDegrees>
            </Position>
            <AltitudeMeters>48.40000152587890625</AltitudeMeters>
            <DistanceMeters>NAN</DistanceMeters>
          </Trackpoint>
          <Trackpoint>
            <Time>2022-09-24T16:30:05.000Z</Time>
            <Position>
              <LatitudeDegrees>43.3664007671177387237548828125</LatitudeDegrees>
              <LongitudeDegrees>-2.95181033201515674591064453125</LongitudeDegrees>
            </Position>
            <AltitudeMeters>48.40000152587890625</AltitudeMeters>
            <DistanceMeters>NAN</DistanceMeters>
          </Trackpoint>
          <Trackpoint>
            <Time>2022-09-24T16:30:06.000Z</Time>
            <Position>
              <LatitudeDegrees>43.36642406880855560302734375</LatitudeDegrees>
              <LongitudeDegrees>-2.9519006051123142242431640625</LongitudeDegrees>
            </Position>
            <AltitudeMeters>46.799999237060546875</AltitudeMeters>
            <DistanceMeters>NAN</DistanceMeters>
          </Trackpoint>
          <Trackpoint>
            <Time>2022-09-24T16:30:07.000Z</Time>
            <Position>
              <LatitudeDegrees>43.3664466999471187591552734375</LatitudeDegrees>
              <LongitudeDegrees>-2.9519968293607234954833984375</LongitudeDegrees>
            </Position>
            <AltitudeMeters>46.200000762939453125</AltitudeMeters>
            <DistanceMeters>NAN</DistanceMeters>
          </Trackpoint>
          <Trackpoint>
            <Time>2022-09-24T16:30:08.000Z</Time>
            <Position>
              <LatitudeDegrees>43.36646807380020618438720703125</LatitudeDegrees>
              <LongitudeDegrees>-2.95209364034235477447509765625</LongitudeDegrees>
            </Position>
            <AltitudeMeters>45.59999847412109375</AltitudeMeters>
            <DistanceMeters>NAN</DistanceMeters>
          </Trackpoint>
          <Trackpoint>
            <Time>2022-09-24T16:30:09.000Z</Time>
            <Position>
              <LatitudeDegrees>43.366484753787517547607421875</LatitudeDegrees>
              <LongitudeDegrees>-2.952193804085254669189453125</LongitudeDegrees>
            </Position>
            <AltitudeMeters>45.59999847412109375</AltitudeMeters>
            <DistanceMeters>NAN</DistanceMeters>
          </Trackpoint>
          <Trackpoint>
            <Time>2022-09-24T16:30:10.000Z</Time>
            <Position>
              <LatitudeDegrees>43.3664996735751628875732421875</LatitudeDegrees>
              <LongitudeDegrees>-2.952293716371059417724609375</LongitudeDegrees>
            </Position>
            <AltitudeMeters>45.59999847412109375</AltitudeMeters>
            <DistanceMeters>NAN</DistanceMeters>
          </Trackpoint>
          <Trackpoint>
            <Time>2022-09-24T16:30:11.000Z</Time>
            <Position>
              <LatitudeDegrees>43.36651216261088848114013671875</LatitudeDegrees>
              <LongitudeDegrees>-2.95239262282848358154296875</LongitudeDegrees>
            </Position>
            <AltitudeMeters>45.59999847412109375</AltitudeMeters>
            <DistanceMeters>NAN</DistanceMeters>
          </Trackpoint>
          <Trackpoint>
            <Time>2022-09-24T16:30:12.000Z</Time>
            <Position>
              <LatitudeDegrees>43.36652607657015323638916015625</LatitudeDegrees>
              <LongitudeDegrees>-2.95248758979141712188720703125</LongitudeDegrees>
            </Position>
            <AltitudeMeters>45.59999847412109375</AltitudeMeters>
            <DistanceMeters>NAN</DistanceMeters>
          </Trackpoint>
          <Trackpoint>
            <Time>2022-09-24T16:30:13.000Z</Time>
            <Position>
              <LatitudeDegrees>43.3665345422923564910888671875</LatitudeDegrees>
              <LongitudeDegrees>-2.95258079655468463897705078125</LongitudeDegrees>
            </Position>
            <AltitudeMeters>45.59999847412109375</AltitudeMeters>
            <DistanceMeters>NAN</DistanceMeters>
          </Trackpoint>
          <Trackpoint>
            <Time>2022-09-24T16:30:14.000Z</Time>
            <Position>
              <LatitudeDegrees>43.366541750729084014892578125</LatitudeDegrees>
              <LongitudeDegrees>-2.9526754282414913177490234375</LongitudeDegrees>
            </Position>
            <AltitudeMeters>45.40000152587890625</AltitudeMeters>
            <DistanceMeters>NAN</DistanceMeters>
          </Trackpoint>
          <Trackpoint>
            <Time>2022-09-24T16:30:15.000Z</Time>
            <Position>
              <LatitudeDegrees>43.36654753424227237701416015625</LatitudeDegrees>
              <LongitudeDegrees>-2.95277626253664493560791015625</LongitudeDegrees>
            </Position>
            <AltitudeMeters>45.40000152587890625</AltitudeMeters>
            <DistanceMeters>NAN</DistanceMeters>
          </Trackpoint>
          <Trackpoint>
            <Time>2022-09-24T16:30:16.000Z</Time>
            <Position>
              <LatitudeDegrees>43.36655541323125362396240234375</LatitudeDegrees>
              <LongitudeDegrees>-2.9528789408504962921142578125</LongitudeDegrees>
            </Position>
            <AltitudeMeters>45.40000152587890625</AltitudeMeters>
            <DistanceMeters>NAN</DistanceMeters>
          </Trackpoint>
          <Trackpoint>
            <Time>2022-09-24T16:30:17.000Z</Time>
            <Position>
              <LatitudeDegrees>43.36656681261956691741943359375</LatitudeDegrees>
              <LongitudeDegrees>-2.95298480428755283355712890625</LongitudeDegrees>
            </Position>
            <AltitudeMeters>45.59999847412109375</AltitudeMeters>
            <DistanceMeters>NAN</DistanceMeters>
          </Trackpoint>
          <Trackpoint>
            <Time>2022-09-24T16:30:18.000Z</Time>
            <Position>
              <LatitudeDegrees>43.3665804751217365264892578125</LatitudeDegrees>
              <LongitudeDegrees>-2.953086309134960174560546875</LongitudeDegrees>
            </Position>
            <AltitudeMeters>45.59999847412109375</AltitudeMeters>
            <DistanceMeters>NAN</DistanceMeters>
          </Trackpoint>
          <Trackpoint>
            <Time>2022-09-24T16:30:19.000Z</Time>
            <Position>
              <LatitudeDegrees>43.3665908686816692352294921875</LatitudeDegrees>
              <LongitudeDegrees>-2.953189909458160400390625</LongitudeDegrees>
            </Position>
            <AltitudeMeters>44.59999847412109375</AltitudeMeters>
            <DistanceMeters>NAN</DistanceMeters>
          </Trackpoint>
          <Trackpoint>
            <Time>2022-09-24T16:30:20.000Z</Time>
            <Position>
              <LatitudeDegrees>43.3666096441447734832763671875</LatitudeDegrees>
              <LongitudeDegrees>-2.9532916657626628875732421875</LongitudeDegrees>
            </Position>
            <AltitudeMeters>44.59999847412109375</AltitudeMeters>
            <DistanceMeters>NAN</DistanceMeters>
          </Trackpoint>
          <Trackpoint>
            <Time>2022-09-24T16:30:21.000Z</Time>
            <Position>
              <LatitudeDegrees>43.3666324429214000701904296875</LatitudeDegrees>
              <LongitudeDegrees>-2.9533922486007213592529296875</LongitudeDegrees>
            </Position>
            <AltitudeMeters>44.59999847412109375</AltitudeMeters>
            <DistanceMeters>NAN</DistanceMeters>
          </Trackpoint>
          <Trackpoint>
            <Time>2022-09-24T16:30:22.000Z</Time>
            <Position>
              <LatitudeDegrees>43.36665800772607326507568359375</LatitudeDegrees>
              <LongitudeDegrees>-2.95349542982876300811767578125</LongitudeDegrees>
            </Position>
            <AltitudeMeters>44.59999847412109375</AltitudeMeters>
            <DistanceMeters>NAN</DistanceMeters>
          </Trackpoint>
          <Trackpoint>
            <Time>2022-09-24T16:30:23.000Z</Time>
            <Position>
              <LatitudeDegrees>43.36668382398784160614013671875</LatitudeDegrees>
              <LongitudeDegrees>-2.9535964317619800567626953125</LongitudeDegrees>
            </Position>
            <AltitudeMeters>44.59999847412109375</AltitudeMeters>
            <DistanceMeters>NAN</DistanceMeters>
          </Trackpoint>
          <Trackpoint>
            <Time>2022-09-24T16:30:24.000Z</Time>
            <Position>
              <LatitudeDegrees>43.36671081371605396270751953125</LatitudeDegrees>
              <LongitudeDegrees>-2.95369626022875308990478515625</LongitudeDegrees>
            </Position>
            <AltitudeMeters>44.59999847412109375</AltitudeMeters>
            <DistanceMeters>NAN</DistanceMeters>
          </Trackpoint>
          <Trackpoint>
            <Time>2022-09-24T16:30:25.000Z</Time>
            <Position>
              <LatitudeDegrees>43.36673964746296405792236328125</LatitudeDegrees>
              <LongitudeDegrees>-2.953793741762638092041015625</LongitudeDegrees>
            </Position>
            <AltitudeMeters>44.40000152587890625</AltitudeMeters>
            <DistanceMeters>NAN</DistanceMeters>
          </Trackpoint>
          <Trackpoint>
            <Time>2022-09-24T16:30:26.000Z</Time>
            <Position>
              <LatitudeDegrees>43.36677233688533306121826171875</LatitudeDegrees>
              <LongitudeDegrees>-2.95389424078166484832763671875</LongitudeDegrees>
            </Position>
            <AltitudeMeters>45</AltitudeMeters>
            <DistanceMeters>NAN</DistanceMeters>
          </Trackpoint>
          <Trackpoint>
            <Time>2022-09-24T16:30:27.000Z</Time>
            <Position>
              <LatitudeDegrees>43.36680334992706775665283203125</LatitudeDegrees>
              <LongitudeDegrees>-2.95399297960102558135986328125</LongitudeDegrees>
            </Position>
            <AltitudeMeters>45</AltitudeMeters>
            <DistanceMeters>NAN</DistanceMeters>
          </Trackpoint>
          <Trackpoint>
            <Time>2022-09-24T16:30:28.000Z</Time>
            <Position>
              <LatitudeDegrees>43.3668356202542781829833984375</LatitudeDegrees>
              <LongitudeDegrees>-2.9540926404297351837158203125</LongitudeDegrees>
            </Position>
            <AltitudeMeters>45.40000152587890625</AltitudeMeters>
            <DistanceMeters>NAN</DistanceMeters>
          </Trackpoint>
          <Trackpoint>
            <Time>2022-09-24T16:30:29.000Z</Time>
            <Position>
              <LatitudeDegrees>43.3668714947998523712158203125</LatitudeDegrees>
              <LongitudeDegrees>-2.95418861322104930877685546875</LongitudeDegrees>
            </Position>
            <AltitudeMeters>45.40000152587890625</AltitudeMeters>
            <DistanceMeters>NAN</DistanceMeters>
          </Trackpoint>
          <Trackpoint>
            <Time>2022-09-24T16:30:30.000Z</Time>
            <Position>
              <LatitudeDegrees>43.36690980009734630584716796875</LatitudeDegrees>
              <LongitudeDegrees>-2.95428601093590259552001953125</LongitudeDegrees>
            </Position>
            <AltitudeMeters>45</AltitudeMeters>
            <DistanceMeters>NAN</DistanceMeters>
          </Trackpoint>
          <Trackpoint>
            <Time>2022-09-24T16:30:31.000Z</Time>
            <Position>
              <LatitudeDegrees>43.36694902740418910980224609375</LatitudeDegrees>
              <LongitudeDegrees>-2.95437670312821865081787109375</LongitudeDegrees>
            </Position>
            <AltitudeMeters>44.59999847412109375</AltitudeMeters>
            <DistanceMeters>NAN</DistanceMeters>
          </Trackpoint>
          <Trackpoint>
            <Time>2022-09-24T16:30:32.000Z</Time>
            <Position>
              <LatitudeDegrees>43.3669911883771419525146484375</LatitudeDegrees>
              <LongitudeDegrees>-2.954462952911853790283203125</LongitudeDegrees>
            </Position>
            <AltitudeMeters>45</AltitudeMeters>
            <DistanceMeters>NAN</DistanceMeters>
          </Trackpoint>
          <Trackpoint>
            <Time>2022-09-24T16:30:33.000Z</Time>
            <Position>
              <LatitudeDegrees>43.367033936083316802978515625</LatitudeDegrees>
              <LongitudeDegrees>-2.95454601757228374481201171875</LongitudeDegrees>
            </Position>
            <AltitudeMeters>44.59999847412109375</AltitudeMeters>
            <DistanceMeters>NAN</DistanceMeters>
          </Trackpoint>
          <Trackpoint>
            <Time>2022-09-24T16:30:34.000Z</Time>
            <Position>
              <LatitudeDegrees>43.36707626469433307647705078125</LatitudeDegrees>
              <LongitudeDegrees>-2.95463235117495059967041015625</LongitudeDegrees>
            </Position>
            <AltitudeMeters>46</AltitudeMeters>
            <DistanceMeters>NAN</DistanceMeters>
          </Trackpoint>
          <Trackpoint>
            <Time>2022-09-24T16:30:35.000Z</Time>
            <Position>
              <LatitudeDegrees>43.36711607873439788818359375</LatitudeDegrees>
              <LongitudeDegrees>-2.9547199420630931854248046875</LongitudeDegrees>
            </Position>
            <AltitudeMeters>44.40000152587890625</AltitudeMeters>
            <DistanceMeters>NAN</DistanceMeters>
          </Trackpoint>
          <Trackpoint>
            <Time>2022-09-24T16:30:36.000Z</Time>
            <Position>
              <LatitudeDegrees>43.3671564795076847076416015625</LatitudeDegrees>
              <LongitudeDegrees>-2.95480837114155292510986328125</LongitudeDegrees>
            </Position>
            <AltitudeMeters>44.40000152587890625</AltitudeMeters>
            <DistanceMeters>NAN</DistanceMeters>
          </Trackpoint>
          <Trackpoint>
            <Time>2022-09-24T16:30:37.000Z</Time>
            <Position>
              <LatitudeDegrees>43.36719260551035404205322265625</LatitudeDegrees>
              <LongitudeDegrees>-2.95490124262869358062744140625</LongitudeDegrees>
            </Position>
            <AltitudeMeters>45.200000762939453125</AltitudeMeters>
            <DistanceMeters>NAN</DistanceMeters>
          </Trackpoint>
          <Trackpoint>
            <Time>2022-09-24T16:30:38.000Z</Time>
            <Position>
              <LatitudeDegrees>43.36722780950367450714111328125</LatitudeDegrees>
              <LongitudeDegrees>-2.95499495230615139007568359375</LongitudeDegrees>
            </Position>
            <AltitudeMeters>45.200000762939453125</AltitudeMeters>
            <DistanceMeters>NAN</DistanceMeters>
          </Trackpoint>
          <Trackpoint>
            <Time>2022-09-24T16:30:39.000Z</Time>
            <Position>
              <LatitudeDegrees>43.3672557212412357330322265625</LatitudeDegrees>
              <LongitudeDegrees>-2.95508681796491146087646484375</LongitudeDegrees>
            </Position>
            <AltitudeMeters>45</AltitudeMeters>
            <DistanceMeters>NAN</DistanceMeters>
          </Trackpoint>
          <Trackpoint>
            <Time>2022-09-24T16:30:40.000Z</Time>
            <Position>
              <LatitudeDegrees>43.3672557212412357330322265625</LatitudeDegrees>
              <LongitudeDegrees>-2.95508681796491146087646484375</LongitudeDegrees>
            </Position>
            <AltitudeMeters>45</AltitudeMeters>
            <DistanceMeters>NAN</DistanceMeters>
          </Trackpoint>
          <Trackpoint>
            <Time>2022-09-24T16:30:41.000Z</Time>
            <Position>
              <LatitudeDegrees>43.367273323237895965576171875</LatitudeDegrees>
              <LongitudeDegrees>-2.9552909173071384429931640625</LongitudeDegrees>
            </Position>
            <AltitudeMeters>45</AltitudeMeters>
            <DistanceMeters>NAN</DistanceMeters>
          </Trackpoint>
          <Trackpoint>
            <Time>2022-09-24T16:30:42.000Z</Time>
            <Position>
              <LatitudeDegrees>43.3672510273754596710205078125</LatitudeDegrees>
              <LongitudeDegrees>-2.95539007522165775299072265625</LongitudeDegrees>
            </Position>
            <AltitudeMeters>45.200000762939453125</AltitudeMeters>
            <DistanceMeters>NAN</DistanceMeters>
          </Trackpoint>
          <Trackpoint>
            <Time>2022-09-24T16:30:43.000Z</Time>
            <Position>
              <LatitudeDegrees>43.367205597460269927978515625</LatitudeDegrees>
              <LongitudeDegrees>-2.95546936802566051483154296875</LongitudeDegrees>
            </Position>
            <AltitudeMeters>45.59999847412109375</AltitudeMeters>
            <DistanceMeters>NAN</DistanceMeters>
          </Trackpoint>
          <Trackpoint>
            <Time>2022-09-24T16:30:44.000Z</Time>
            <Position>
              <LatitudeDegrees>43.36714021861553192138671875</LatitudeDegrees>
              <LongitudeDegrees>-2.95551446266472339630126953125</LongitudeDegrees>
            </Position>
            <AltitudeMeters>45.59999847412109375</AltitudeMeters>
            <DistanceMeters>NAN</DistanceMeters>
          </Trackpoint>
          <Trackpoint>
            <Time>2022-09-24T16:30:45.000Z</Time>
            <Position>
              <LatitudeDegrees>43.36706637404859066009521484375</LatitudeDegrees>
              <LongitudeDegrees>-2.9555381834506988525390625</LongitudeDegrees>
            </Position>
            <AltitudeMeters>46</AltitudeMeters>
            <DistanceMeters>NAN</DistanceMeters>
          </Trackpoint>
          <Trackpoint>
            <Time>2022-09-24T16:30:46.000Z</Time>
            <Position>
              <LatitudeDegrees>43.366991020739078521728515625</LatitudeDegrees>
              <LongitudeDegrees>-2.955544553697109222412109375</LongitudeDegrees>
            </Position>
            <AltitudeMeters>46</AltitudeMeters>
            <DistanceMeters>NAN</DistanceMeters>
          </Trackpoint>
          <Trackpoint>
            <Time>2022-09-24T16:30:47.000Z</Time>
            <Position>
              <LatitudeDegrees>43.36691382341086864471435546875</LatitudeDegrees>
              <LongitudeDegrees>-2.95555117540061473846435546875</LongitudeDegrees>
            </Position>
            <AltitudeMeters>46</AltitudeMeters>
            <DistanceMeters>NAN</DistanceMeters>
          </Trackpoint>
          <Trackpoint>
            <Time>2022-09-24T16:30:48.000Z</Time>
            <Position>
              <LatitudeDegrees>43.3668372966349124908447265625</LatitudeDegrees>
              <LongitudeDegrees>-2.9555588029325008392333984375</LongitudeDegrees>
            </Position>
            <AltitudeMeters>46</AltitudeMeters>
            <DistanceMeters>NAN</DistanceMeters>
          </Trackpoint>
          <Trackpoint>
            <Time>2022-09-24T16:30:49.000Z</Time>
            <Position>
              <LatitudeDegrees>43.36675188504159450531005859375</LatitudeDegrees>
              <LongitudeDegrees>-2.95556559227406978607177734375</LongitudeDegrees>
            </Position>
            <AltitudeMeters>46</AltitudeMeters>
            <DistanceMeters>NAN</DistanceMeters>
          </Trackpoint>
          <Trackpoint>
            <Time>2022-09-24T16:30:50.000Z</Time>
            <Position>
              <LatitudeDegrees>43.36667125113308429718017578125</LatitudeDegrees>
              <LongitudeDegrees>-2.95557213015854358673095703125</LongitudeDegrees>
            </Position>
            <AltitudeMeters>46.200000762939453125</AltitudeMeters>
            <DistanceMeters>NAN</DistanceMeters>
          </Trackpoint>
          <Trackpoint>
            <Time>2022-09-24T16:30:51.000Z</Time>
            <Position>
              <LatitudeDegrees>43.36658927612006664276123046875</LatitudeDegrees>
              <LongitudeDegrees>-2.95559023506939411163330078125</LongitudeDegrees>
            </Position>
            <AltitudeMeters>46.200000762939453125</AltitudeMeters>
            <DistanceMeters>NAN</DistanceMeters>
          </Trackpoint>
          <Trackpoint>
            <Time>2022-09-24T16:30:52.000Z</Time>
            <Position>
              <LatitudeDegrees>43.3665201254189014434814453125</LatitudeDegrees>
              <LongitudeDegrees>-2.9556295461952686309814453125</LongitudeDegrees>
            </Position>
            <AltitudeMeters>45.799999237060546875</AltitudeMeters>
            <DistanceMeters>NAN</DistanceMeters>
          </Trackpoint>
          <Trackpoint>
            <Time>2022-09-24T16:30:53.000Z</Time>
            <Position>
              <LatitudeDegrees>43.36645885370671749114990234375</LatitudeDegrees>
              <LongitudeDegrees>-2.95569484122097492218017578125</LongitudeDegrees>
            </Position>
            <AltitudeMeters>45.799999237060546875</AltitudeMeters>
            <DistanceMeters>NAN</DistanceMeters>
          </Trackpoint>
          <Trackpoint>
            <Time>2022-09-24T16:30:54.000Z</Time>
            <Position>
              <LatitudeDegrees>43.36640336550772190093994140625</LatitudeDegrees>
              <LongitudeDegrees>-2.9557763971388339996337890625</LongitudeDegrees>
            </Position>
            <AltitudeMeters>45.799999237060546875</AltitudeMeters>
            <DistanceMeters>NAN</DistanceMeters>
          </Trackpoint>
          <Trackpoint>
            <Time>2022-09-24T16:30:55.000Z</Time>
            <Position>
              <LatitudeDegrees>43.36635793559253215789794921875</LatitudeDegrees>
              <LongitudeDegrees>-2.9558712802827358245849609375</LongitudeDegrees>
            </Position>
            <AltitudeMeters>45.799999237060546875</AltitudeMeters>
            <DistanceMeters>NAN</DistanceMeters>
          </Trackpoint>
          <Trackpoint>
            <Time>2022-09-24T16:30:56.000Z</Time>
            <Position>
              <LatitudeDegrees>43.36633195169270038604736328125</LatitudeDegrees>
              <LongitudeDegrees>-2.955974377691745758056640625</LongitudeDegrees>
            </Position>
            <AltitudeMeters>45.40000152587890625</AltitudeMeters>
            <DistanceMeters>NAN</DistanceMeters>
          </Trackpoint>
          <Trackpoint>
            <Time>2022-09-24T16:30:57.000Z</Time>
            <Position>
              <LatitudeDegrees>43.36630999110639095306396484375</LatitudeDegrees>
              <LongitudeDegrees>-2.95605811290442943572998046875</LongitudeDegrees>
            </Position>
            <AltitudeMeters>45.40000152587890625</AltitudeMeters>
            <DistanceMeters>NAN</DistanceMeters>
          </Trackpoint>
          <Trackpoint>
            <Time>2022-09-24T16:30:58.000Z</Time>
            <Position>
              <LatitudeDegrees>43.36628719232976436614990234375</LatitudeDegrees>
              <LongitudeDegrees>-2.9561777226626873016357421875</LongitudeDegrees>
            </Position>
            <AltitudeMeters>45.40000152587890625</AltitudeMeters>
            <DistanceMeters>NAN</DistanceMeters>
          </Trackpoint>
          <Trackpoint>
            <Time>2022-09-24T16:30:59.000Z</Time>
            <Position>
              <LatitudeDegrees>43.366268165409564971923828125</LatitudeDegrees>
              <LongitudeDegrees>-2.95628459192812442779541015625</LongitudeDegrees>
            </Position>
            <AltitudeMeters>45.40000152587890625</AltitudeMeters>
            <DistanceMeters>NAN</DistanceMeters>
          </Trackpoint>
          <Trackpoint>
            <Time>2022-09-24T16:31:00.000Z</Time>
            <Position>
              <LatitudeDegrees>43.3662472106516361236572265625</LatitudeDegrees>
              <LongitudeDegrees>-2.95639405958354473114013671875</LongitudeDegrees>
            </Position>
            <AltitudeMeters>45.40000152587890625</AltitudeMeters>
            <DistanceMeters>NAN</DistanceMeters>
          </Trackpoint>
          <Trackpoint>
            <Time>2022-09-24T16:31:01.000Z</Time>
            <Position>
              <LatitudeDegrees>43.366225920617580413818359375</LatitudeDegrees>
              <LongitudeDegrees>-2.95649263076484203338623046875</LongitudeDegrees>
            </Position>
            <AltitudeMeters>45.40000152587890625</AltitudeMeters>
            <DistanceMeters>NAN</DistanceMeters>
          </Trackpoint>
          <Trackpoint>
            <Time>2022-09-24T16:31:02.000Z</Time>
            <Position>
              <LatitudeDegrees>43.366185687482357025146484375</LatitudeDegrees>
              <LongitudeDegrees>-2.95658868737518787384033203125</LongitudeDegrees>
            </Position>
            <AltitudeMeters>45.40000152587890625</AltitudeMeters>
            <DistanceMeters>NAN</DistanceMeters>
          </Trackpoint>
          <Trackpoint>
            <Time>2022-09-24T16:31:03.000Z</Time>
            <Position>
              <LatitudeDegrees>43.36613573133945465087890625</LatitudeDegrees>
              <LongitudeDegrees>-2.956677787005901336669921875</LongitudeDegrees>
            </Position>
            <AltitudeMeters>45.40000152587890625</AltitudeMeters>
            <DistanceMeters>NAN</DistanceMeters>
          </Trackpoint>
          <Trackpoint>
            <Time>2022-09-24T16:31:04.000Z</Time>
            <Position>
              <LatitudeDegrees>43.36607672274112701416015625</LatitudeDegrees>
              <LongitudeDegrees>-2.9567533917725086212158203125</LongitudeDegrees>
            </Position>
            <AltitudeMeters>45.40000152587890625</AltitudeMeters>
            <DistanceMeters>NAN</DistanceMeters>
          </Trackpoint>
          <Trackpoint>
            <Time>2022-09-24T16:31:05.000Z</Time>
            <Position>
              <LatitudeDegrees>43.36607672274112701416015625</LatitudeDegrees>
              <LongitudeDegrees>-2.9567533917725086212158203125</LongitudeDegrees>
            </Position>
            <AltitudeMeters>45.200000762939453125</AltitudeMeters>
            <DistanceMeters>NAN</DistanceMeters>
          </Trackpoint>
          <Trackpoint>
            <Time>2022-09-24T16:31:06.000Z</Time>
            <Position>
              <LatitudeDegrees>43.36594370193779468536376953125</LatitudeDegrees>
              <LongitudeDegrees>-2.956855483353137969970703125</LongitudeDegrees>
            </Position>
            <AltitudeMeters>45.200000762939453125</AltitudeMeters>
            <DistanceMeters>NAN</DistanceMeters>
          </Trackpoint>
          <Trackpoint>
            <Time>2022-09-24T16:31:07.000Z</Time>
            <Position>
              <LatitudeDegrees>43.36587077938020229339599609375</LatitudeDegrees>
              <LongitudeDegrees>-2.9568750970065593719482421875</LongitudeDegrees>
            </Position>
            <AltitudeMeters>45.40000152587890625</AltitudeMeters>
            <DistanceMeters>NAN</DistanceMeters>
          </Trackpoint>
          <Trackpoint>
            <Time>2022-09-24T16:31:08.000Z</Time>
            <Position>
              <LatitudeDegrees>43.3657957613468170166015625</LatitudeDegrees>
              <LongitudeDegrees>-2.956867218017578125</LongitudeDegrees>
            </Position>
            <AltitudeMeters>45.40000152587890625</AltitudeMeters>
            <DistanceMeters>NAN</DistanceMeters>
          </Trackpoint>
          <Trackpoint>
            <Time>2022-09-24T16:31:09.000Z</Time>
            <Position>
              <LatitudeDegrees>43.3657201565802097320556640625</LatitudeDegrees>
              <LongitudeDegrees>-2.95683092437684535980224609375</LongitudeDegrees>
            </Position>
            <AltitudeMeters>45.59999847412109375</AltitudeMeters>
            <DistanceMeters>NAN</DistanceMeters>
          </Trackpoint>
          <Trackpoint>
            <Time>2022-09-24T16:31:10.000Z</Time>
            <Position>
              <LatitudeDegrees>43.36565100587904453277587890625</LatitudeDegrees>
              <LongitudeDegrees>-2.95677945949137210845947265625</LongitudeDegrees>
            </Position>
            <AltitudeMeters>46.200000762939453125</AltitudeMeters>
            <DistanceMeters>NAN</DistanceMeters>
          </Trackpoint>
          <Trackpoint>
            <Time>2022-09-24T16:31:11.000Z</Time>
            <Position>
              <LatitudeDegrees>43.36558830924332141876220703125</LatitudeDegrees>
              <LongitudeDegrees>-2.95671961270272731781005859375</LongitudeDegrees>
            </Position>
            <AltitudeMeters>46.200000762939453125</AltitudeMeters>
            <DistanceMeters>NAN</DistanceMeters>
          </Trackpoint>
          <Trackpoint>
            <Time>2022-09-24T16:31:12.000Z</Time>
            <Position>
              <LatitudeDegrees>43.3655313961207866668701171875</LatitudeDegrees>
              <LongitudeDegrees>-2.9566578380763530731201171875</LongitudeDegrees>
            </Position>
            <AltitudeMeters>46.200000762939453125</AltitudeMeters>
            <DistanceMeters>NAN</DistanceMeters>
          </Trackpoint>
          <Trackpoint>
            <Time>2022-09-24T16:31:13.000Z</Time>
            <Position>
              <LatitudeDegrees>43.3654784224927425384521484375</LatitudeDegrees>
              <LongitudeDegrees>-2.9565989971160888671875</LongitudeDegrees>
            </Position>
            <AltitudeMeters>46.40000152587890625</AltitudeMeters>
            <DistanceMeters>NAN</DistanceMeters>
          </Trackpoint>
          <Trackpoint>
            <Time>2022-09-24T16:31:14.000Z</Time>
            <Position>
              <LatitudeDegrees>43.36542452685534954071044921875</LatitudeDegrees>
              <LongitudeDegrees>-2.95654292218387126922607421875</LongitudeDegrees>
            </Position>
            <AltitudeMeters>46.40000152587890625</AltitudeMeters>
            <DistanceMeters>NAN</DistanceMeters>
          </Trackpoint>
          <Trackpoint>
            <Time>2022-09-24T16:31:15.000Z</Time>
            <Position>
              <LatitudeDegrees>43.365373648703098297119140625</LatitudeDegrees>
              <LongitudeDegrees>-2.9564868472516536712646484375</LongitudeDegrees>
            </Position>
            <AltitudeMeters>46.40000152587890625</AltitudeMeters>
            <DistanceMeters>NAN</DistanceMeters>
          </Trackpoint>
          <Trackpoint>
            <Time>2022-09-24T16:31:16.000Z</Time>
            <Position>
              <LatitudeDegrees>43.3653221838176250457763671875</LatitudeDegrees>
              <LongitudeDegrees>-2.95643412508070468902587890625</LongitudeDegrees>
            </Position>
            <AltitudeMeters>46.40000152587890625</AltitudeMeters>
            <DistanceMeters>NAN</DistanceMeters>
          </Trackpoint>
          <Trackpoint>
            <Time>2022-09-24T16:31:17.000Z</Time>
            <Position>
              <LatitudeDegrees>43.3653221838176250457763671875</LatitudeDegrees>
              <LongitudeDegrees>-2.95643412508070468902587890625</LongitudeDegrees>
            </Position>
            <AltitudeMeters>47.40000152587890625</AltitudeMeters>
            <DistanceMeters>NAN</DistanceMeters>
          </Trackpoint>
          <Trackpoint>
            <Time>2022-09-24T16:31:18.000Z</Time>
            <Position>
              <LatitudeDegrees>43.36522285826504230499267578125</LatitudeDegrees>
              <LongitudeDegrees>-2.95631191693246364593505859375</LongitudeDegrees>
            </Position>
            <AltitudeMeters>47.59999847412109375</AltitudeMeters>
            <DistanceMeters>NAN</DistanceMeters>
          </Trackpoint>
          <Trackpoint>
            <Time>2022-09-24T16:31:19.000Z</Time>
            <Position>
              <LatitudeDegrees>43.36517591960728168487548828125</LatitudeDegrees>
              <LongitudeDegrees>-2.956247627735137939453125</LongitudeDegrees>
            </Position>
            <AltitudeMeters>47.799999237060546875</AltitudeMeters>
            <DistanceMeters>NAN</DistanceMeters>
          </Trackpoint>
          <Trackpoint>
            <Time>2022-09-24T16:31:20.000Z</Time>
            <Position>
              <LatitudeDegrees>43.3651277236640453338623046875</LatitudeDegrees>
              <LongitudeDegrees>-2.95617948286235332489013671875</LongitudeDegrees>
            </Position>
            <AltitudeMeters>48.40000152587890625</AltitudeMeters>
            <DistanceMeters>NAN</DistanceMeters>
          </Trackpoint>
          <Trackpoint>
            <Time>2022-09-24T16:31:21.000Z</Time>
            <Position>
              <LatitudeDegrees>43.36508120410144329071044921875</LatitudeDegrees>
              <LongitudeDegrees>-2.95612097717821598052978515625</LongitudeDegrees>
            </Position>
            <AltitudeMeters>48.40000152587890625</AltitudeMeters>
            <DistanceMeters>NAN</DistanceMeters>
          </Trackpoint>
          <Trackpoint>
            <Time>2022-09-24T16:31:22.000Z</Time>
            <Position>
              <LatitudeDegrees>43.36503661237657070159912109375</LatitudeDegrees>
              <LongitudeDegrees>-2.95606314204633235931396484375</LongitudeDegrees>
            </Position>
            <AltitudeMeters>48.40000152587890625</AltitudeMeters>
            <DistanceMeters>NAN</DistanceMeters>
          </Trackpoint>
          <Trackpoint>
            <Time>2022-09-24T16:31:23.000Z</Time>
            <Position>
              <LatitudeDegrees>43.36499034427106380462646484375</LatitudeDegrees>
              <LongitudeDegrees>-2.95600698329508304595947265625</LongitudeDegrees>
            </Position>
            <AltitudeMeters>48.59999847412109375</AltitudeMeters>
            <DistanceMeters>NAN</DistanceMeters>
          </Trackpoint>
          <Trackpoint>
            <Time>2022-09-24T16:31:24.000Z</Time>
            <Position>
              <LatitudeDegrees>43.3649406395852565765380859375</LatitudeDegrees>
              <LongitudeDegrees>-2.9559577815234661102294921875</LongitudeDegrees>
            </Position>
            <AltitudeMeters>48.59999847412109375</AltitudeMeters>
            <DistanceMeters>NAN</DistanceMeters>
          </Trackpoint>
          <Trackpoint>
            <Time>2022-09-24T16:31:25.000Z</Time>
            <Position>
              <LatitudeDegrees>43.3648890070617198944091796875</LatitudeDegrees>
              <LongitudeDegrees>-2.9558991082012653350830078125</LongitudeDegrees>
            </Position>
            <AltitudeMeters>48.59999847412109375</AltitudeMeters>
            <DistanceMeters>NAN</DistanceMeters>
          </Trackpoint>
          <Trackpoint>
            <Time>2022-09-24T16:31:26.000Z</Time>
            <Position>
              <LatitudeDegrees>43.36483754217624664306640625</LatitudeDegrees>
              <LongitudeDegrees>-2.9558350704610347747802734375</LongitudeDegrees>
            </Position>
            <AltitudeMeters>48.799999237060546875</AltitudeMeters>
            <DistanceMeters>NAN</DistanceMeters>
          </Trackpoint>
          <Trackpoint>
            <Time>2022-09-24T16:31:27.000Z</Time>
            <Position>
              <LatitudeDegrees>43.3647845685482025146484375</LatitudeDegrees>
              <LongitudeDegrees>-2.9557934962213039398193359375</LongitudeDegrees>
            </Position>
            <AltitudeMeters>48.799999237060546875</AltitudeMeters>
            <DistanceMeters>NAN</DistanceMeters>
          </Trackpoint>
          <Trackpoint>
            <Time>2022-09-24T16:31:28.000Z</Time>
            <Position>
              <LatitudeDegrees>43.36473369039595127105712890625</LatitudeDegrees>
              <LongitudeDegrees>-2.95574781484901905059814453125</LongitudeDegrees>
            </Position>
            <AltitudeMeters>49.59999847412109375</AltitudeMeters>
            <DistanceMeters>NAN</DistanceMeters>
          </Trackpoint>
          <Trackpoint>
            <Time>2022-09-24T16:31:29.000Z</Time>
            <Position>
              <LatitudeDegrees>43.36468809284269809722900390625</LatitudeDegrees>
              <LongitudeDegrees>-2.95570825226604938507080078125</LongitudeDegrees>
            </Position>
            <AltitudeMeters>49.799999237060546875</AltitudeMeters>
            <DistanceMeters>NAN</DistanceMeters>
          </Trackpoint>
          <Trackpoint>
            <Time>2022-09-24T16:31:30.000Z</Time>
            <Position>
              <LatitudeDegrees>43.3646385557949542999267578125</LatitudeDegrees>
              <LongitudeDegrees>-2.95566667802631855010986328125</LongitudeDegrees>
            </Position>
            <AltitudeMeters>50.200000762939453125</AltitudeMeters>
            <DistanceMeters>NAN</DistanceMeters>
          </Trackpoint>
          <Trackpoint>
            <Time>2022-09-24T16:31:31.000Z</Time>
            <Position>
              <LatitudeDegrees>43.36459019221365451812744140625</LatitudeDegrees>
              <LongitudeDegrees>-2.95563281513750553131103515625</LongitudeDegrees>
            </Position>
            <AltitudeMeters>50.200000762939453125</AltitudeMeters>
            <DistanceMeters>NAN</DistanceMeters>
          </Trackpoint>
          <Trackpoint>
            <Time>2022-09-24T16:31:32.000Z</Time>
            <Position>
              <LatitudeDegrees>43.364540822803974151611328125</LatitudeDegrees>
              <LongitudeDegrees>-2.955606244504451751708984375</LongitudeDegrees>
            </Position>
            <AltitudeMeters>50.40000152587890625</AltitudeMeters>
            <DistanceMeters>NAN</DistanceMeters>
          </Trackpoint>
          <Trackpoint>
            <Time>2022-09-24T16:31:33.000Z</Time>
            <Position>
              <LatitudeDegrees>43.36448927409946918487548828125</LatitudeDegrees>
              <LongitudeDegrees>-2.9555876366794109344482421875</LongitudeDegrees>
            </Position>
            <AltitudeMeters>50.799999237060546875</AltitudeMeters>
            <DistanceMeters>NAN</DistanceMeters>
          </Trackpoint>
          <Trackpoint>
            <Time>2022-09-24T16:31:34.000Z</Time>
            <Position>
              <LatitudeDegrees>43.36443747393786907196044921875</LatitudeDegrees>
              <LongitudeDegrees>-2.95555989257991313934326171875</LongitudeDegrees>
            </Position>
            <AltitudeMeters>50.799999237060546875</AltitudeMeters>
            <DistanceMeters>NAN</DistanceMeters>
          </Trackpoint>
          <Trackpoint>
            <Time>2022-09-24T16:31:35.000Z</Time>
            <Position>
              <LatitudeDegrees>43.3643860928714275360107421875</LatitudeDegrees>
              <LongitudeDegrees>-2.9555274546146392822265625</LongitudeDegrees>
            </Position>
            <AltitudeMeters>51.200000762939453125</AltitudeMeters>
            <DistanceMeters>NAN</DistanceMeters>
          </Trackpoint>
          <Trackpoint>
            <Time>2022-09-24T16:31:36.000Z</Time>
            <Position>
              <LatitudeDegrees>43.364331610500812530517578125</LatitudeDegrees>
              <LongitudeDegrees>-2.9554940946400165557861328125</LongitudeDegrees>
            </Position>
            <AltitudeMeters>51.40000152587890625</AltitudeMeters>
            <DistanceMeters>NAN</DistanceMeters>
          </Trackpoint>
          <Trackpoint>
            <Time>2022-09-24T16:31:37.000Z</Time>
            <Position>
              <LatitudeDegrees>43.364331610500812530517578125</LatitudeDegrees>
              <LongitudeDegrees>-2.9554940946400165557861328125</LongitudeDegrees>
            </Position>
            <AltitudeMeters>51.40000152587890625</AltitudeMeters>
            <DistanceMeters>NAN</DistanceMeters>
          </Trackpoint>
          <Trackpoint>
            <Time>2022-09-24T16:31:38.000Z</Time>
            <Position>
              <LatitudeDegrees>43.3642280101776123046875</LatitudeDegrees>
              <LongitudeDegrees>-2.95544355176389217376708984375</LongitudeDegrees>
            </Position>
            <AltitudeMeters>53</AltitudeMeters>
            <DistanceMeters>NAN</DistanceMeters>
          </Trackpoint>
          <Trackpoint>
            <Time>2022-09-24T16:31:39.000Z</Time>
            <Position>
              <LatitudeDegrees>43.364171683788299560546875</LatitudeDegrees>
              <LongitudeDegrees>-2.95542930252850055694580078125</LongitudeDegrees>
            </Position>
            <AltitudeMeters>53</AltitudeMeters>
            <DistanceMeters>NAN</DistanceMeters>
          </Trackpoint>
          <Trackpoint>
            <Time>2022-09-24T16:31:40.000Z</Time>
            <Position>
              <LatitudeDegrees>43.36412197910249233245849609375</LatitudeDegrees>
              <LongitudeDegrees>-2.95541605912148952484130859375</LongitudeDegrees>
            </Position>
            <AltitudeMeters>53</AltitudeMeters>
            <DistanceMeters>NAN</DistanceMeters>
          </Trackpoint>
          <Trackpoint>
            <Time>2022-09-24T16:31:41.000Z</Time>
            <Position>
              <LatitudeDegrees>43.364073447883129119873046875</LatitudeDegrees>
              <LongitudeDegrees>-2.95540097169578075408935546875</LongitudeDegrees>
            </Position>
            <AltitudeMeters>53.40000152587890625</AltitudeMeters>
            <DistanceMeters>NAN</DistanceMeters>
          </Trackpoint>
          <Trackpoint>
            <Time>2022-09-24T16:31:42.000Z</Time>
            <Position>
              <LatitudeDegrees>43.3640201389789581298828125</LatitudeDegrees>
              <LongitudeDegrees>-2.9553928412497043609619140625</LongitudeDegrees>
            </Position>
            <AltitudeMeters>53.59999847412109375</AltitudeMeters>
            <DistanceMeters>NAN</DistanceMeters>
          </Trackpoint>
          <Trackpoint>
            <Time>2022-09-24T16:31:43.000Z</Time>
            <Position>
              <LatitudeDegrees>43.36396523751318454742431640625</LatitudeDegrees>
              <LongitudeDegrees>-2.95539963059127330780029296875</LongitudeDegrees>
            </Position>
            <AltitudeMeters>53.59999847412109375</AltitudeMeters>
            <DistanceMeters>NAN</DistanceMeters>
          </Trackpoint>
          <Trackpoint>
            <Time>2022-09-24T16:31:44.000Z</Time>
            <Position>
              <LatitudeDegrees>43.36391528137028217315673828125</LatitudeDegrees>
              <LongitudeDegrees>-2.9553951881825923919677734375</LongitudeDegrees>
            </Position>
            <AltitudeMeters>53.799999237060546875</AltitudeMeters>
            <DistanceMeters>NAN</DistanceMeters>
          </Trackpoint>
          <Trackpoint>
            <Time>2022-09-24T16:31:45.000Z</Time>
            <Position>
              <LatitudeDegrees>43.3638650737702846527099609375</LatitudeDegrees>
              <LongitudeDegrees>-2.955393679440021514892578125</LongitudeDegrees>
            </Position>
            <AltitudeMeters>53.799999237060546875</AltitudeMeters>
            <DistanceMeters>NAN</DistanceMeters>
          </Trackpoint>
          <Trackpoint>
            <Time>2022-09-24T16:31:46.000Z</Time>
            <Position>
              <LatitudeDegrees>43.3638248406350612640380859375</LatitudeDegrees>
              <LongitudeDegrees>-2.9553975351154804229736328125</LongitudeDegrees>
            </Position>
            <AltitudeMeters>54.200000762939453125</AltitudeMeters>
            <DistanceMeters>NAN</DistanceMeters>
          </Trackpoint>
          <Trackpoint>
            <Time>2022-09-24T16:31:47.000Z</Time>
            <Position>
              <LatitudeDegrees>43.3637665025889873504638671875</LatitudeDegrees>
              <LongitudeDegrees>-2.95540700666606426239013671875</LongitudeDegrees>
            </Position>
            <AltitudeMeters>54.200000762939453125</AltitudeMeters>
            <DistanceMeters>NAN</DistanceMeters>
          </Trackpoint>
          <Trackpoint>
            <Time>2022-09-24T16:31:48.000Z</Time>
            <Position>
              <LatitudeDegrees>43.36371771991252899169921875</LatitudeDegrees>
              <LongitudeDegrees>-2.95541371218860149383544921875</LongitudeDegrees>
            </Position>
            <AltitudeMeters>54.200000762939453125</AltitudeMeters>
            <DistanceMeters>NAN</DistanceMeters>
          </Trackpoint>
          <Trackpoint>
            <Time>2022-09-24T16:31:49.000Z</Time>
            <Position>
              <LatitudeDegrees>43.36366944015026092529296875</LatitudeDegrees>
              <LongitudeDegrees>-2.95542427338659763336181640625</LongitudeDegrees>
            </Position>
            <AltitudeMeters>54.40000152587890625</AltitudeMeters>
            <DistanceMeters>NAN</DistanceMeters>
          </Trackpoint>
          <Trackpoint>
            <Time>2022-09-24T16:31:50.000Z</Time>
            <Position>
              <LatitudeDegrees>43.3636250160634517669677734375</LatitudeDegrees>
              <LongitudeDegrees>-2.95544154010713100433349609375</LongitudeDegrees>
            </Position>
            <AltitudeMeters>54.59999847412109375</AltitudeMeters>
            <DistanceMeters>NAN</DistanceMeters>
          </Trackpoint>
          <Trackpoint>
            <Time>2022-09-24T16:31:51.000Z</Time>
            <Position>
              <LatitudeDegrees>43.3635804243385791778564453125</LatitudeDegrees>
              <LongitudeDegrees>-2.9554598964750766754150390625</LongitudeDegrees>
            </Position>
            <AltitudeMeters>54.799999237060546875</AltitudeMeters>
            <DistanceMeters>NAN</DistanceMeters>
          </Trackpoint>
          <Trackpoint>
            <Time>2022-09-24T16:31:52.000Z</Time>
            <Position>
              <LatitudeDegrees>43.3635344915091991424560546875</LatitudeDegrees>
              <LongitudeDegrees>-2.95547506771981716156005859375</LongitudeDegrees>
            </Position>
            <AltitudeMeters>54.799999237060546875</AltitudeMeters>
            <DistanceMeters>NAN</DistanceMeters>
          </Trackpoint>
          <Trackpoint>
            <Time>2022-09-24T16:31:53.000Z</Time>
            <Position>
              <LatitudeDegrees>43.3634902350604534149169921875</LatitudeDegrees>
              <LongitudeDegrees>-2.95549250207841396331787109375</LongitudeDegrees>
            </Position>
            <AltitudeMeters>55.200000762939453125</AltitudeMeters>
            <DistanceMeters>NAN</DistanceMeters>
          </Trackpoint>
          <Trackpoint>
            <Time>2022-09-24T16:31:54.000Z</Time>
            <Position>
              <LatitudeDegrees>43.36344555951654911041259765625</LatitudeDegrees>
              <LongitudeDegrees>-2.9555165581405162811279296875</LongitudeDegrees>
            </Position>
            <AltitudeMeters>55.40000152587890625</AltitudeMeters>
            <DistanceMeters>NAN</DistanceMeters>
          </Trackpoint>
          <Trackpoint>
            <Time>2022-09-24T16:31:55.000Z</Time>
            <Position>
              <LatitudeDegrees>43.3634013868868350982666015625</LatitudeDegrees>
              <LongitudeDegrees>-2.955541871488094329833984375</LongitudeDegrees>
            </Position>
            <AltitudeMeters>55.40000152587890625</AltitudeMeters>
            <DistanceMeters>NAN</DistanceMeters>
          </Trackpoint>
          <Trackpoint>
            <Time>2022-09-24T16:31:56.000Z</Time>
            <Position>
              <LatitudeDegrees>43.3633551187813282012939453125</LatitudeDegrees>
              <LongitudeDegrees>-2.95556299388408660888671875</LongitudeDegrees>
            </Position>
            <AltitudeMeters>55.59999847412109375</AltitudeMeters>
            <DistanceMeters>NAN</DistanceMeters>
          </Trackpoint>
          <Trackpoint>
            <Time>2022-09-24T16:31:57.000Z</Time>
            <Position>
              <LatitudeDegrees>43.36330734193325042724609375</LatitudeDegrees>
              <LongitudeDegrees>-2.95558151789009571075439453125</LongitudeDegrees>
            </Position>
            <AltitudeMeters>55.59999847412109375</AltitudeMeters>
            <DistanceMeters>NAN</DistanceMeters>
          </Trackpoint>
          <Trackpoint>
            <Time>2022-09-24T16:31:58.000Z</Time>
            <Position>
              <LatitudeDegrees>43.36326166056096553802490234375</LatitudeDegrees>
              <LongitudeDegrees>-2.95560230500996112823486328125</LongitudeDegrees>
            </Position>
            <AltitudeMeters>55.799999237060546875</AltitudeMeters>
            <DistanceMeters>NAN</DistanceMeters>
          </Trackpoint>
          <Trackpoint>
            <Time>2022-09-24T16:31:59.000Z</Time>
            <Position>
              <LatitudeDegrees>43.36321572773158550262451171875</LatitudeDegrees>
              <LongitudeDegrees>-2.95562175102531909942626953125</LongitudeDegrees>
            </Position>
            <AltitudeMeters>56.200000762939453125</AltitudeMeters>
            <DistanceMeters>NAN</DistanceMeters>
          </Trackpoint>
          <Trackpoint>
            <Time>2022-09-24T16:32:00.000Z</Time>
            <Position>
              <LatitudeDegrees>43.3631710521876811981201171875</LatitudeDegrees>
              <LongitudeDegrees>-2.955631725490093231201171875</LongitudeDegrees>
            </Position>
            <AltitudeMeters>56.40000152587890625</AltitudeMeters>
            <DistanceMeters>NAN</DistanceMeters>
          </Trackpoint>
          <Trackpoint>
            <Time>2022-09-24T16:32:01.000Z</Time>
            <Position>
              <LatitudeDegrees>43.3631247840821743011474609375</LatitudeDegrees>
              <LongitudeDegrees>-2.95562879182398319244384765625</LongitudeDegrees>
            </Position>
            <AltitudeMeters>56.59999847412109375</AltitudeMeters>
            <DistanceMeters>NAN</DistanceMeters>
          </Trackpoint>
          <Trackpoint>
            <Time>2022-09-24T16:32:02.000Z</Time>
            <Position>
              <LatitudeDegrees>43.363077677786350250244140625</LatitudeDegrees>
              <LongitudeDegrees>-2.95562795363366603851318359375</LongitudeDegrees>
            </Position>
            <AltitudeMeters>56.799999237060546875</AltitudeMeters>
            <DistanceMeters>NAN</DistanceMeters>
          </Trackpoint>
          <Trackpoint>
            <Time>2022-09-24T16:32:03.000Z</Time>
            <Position>
              <LatitudeDegrees>43.36303032003343105316162109375</LatitudeDegrees>
              <LongitudeDegrees>-2.9556213319301605224609375</LongitudeDegrees>
            </Position>
            <AltitudeMeters>57</AltitudeMeters>
            <DistanceMeters>NAN</DistanceMeters>
          </Trackpoint>
          <Trackpoint>
            <Time>2022-09-24T16:32:04.000Z</Time>
            <Position>
              <LatitudeDegrees>43.36298136971890926361083984375</LatitudeDegrees>
              <LongitudeDegrees>-2.95559895224869251251220703125</LongitudeDegrees>
            </Position>
            <AltitudeMeters>57</AltitudeMeters>
            <DistanceMeters>NAN</DistanceMeters>
          </Trackpoint>
          <Trackpoint>
            <Time>2022-09-24T16:32:05.000Z</Time>
            <Position>
              <LatitudeDegrees>43.3629410527646541595458984375</LatitudeDegrees>
              <LongitudeDegrees>-2.9555671848356723785400390625</LongitudeDegrees>
            </Position>
            <AltitudeMeters>57</AltitudeMeters>
            <DistanceMeters>NAN</DistanceMeters>
          </Trackpoint>
          <Trackpoint>
            <Time>2022-09-24T16:32:06.000Z</Time>
            <Position>
              <LatitudeDegrees>43.36290635168552398681640625</LatitudeDegrees>
              <LongitudeDegrees>-2.95552250929176807403564453125</LongitudeDegrees>
            </Position>
            <AltitudeMeters>57</AltitudeMeters>
            <DistanceMeters>NAN</DistanceMeters>
          </Trackpoint>
          <Trackpoint>
            <Time>2022-09-24T16:32:07.000Z</Time>
            <Position>
              <LatitudeDegrees>43.36287684738636016845703125</LatitudeDegrees>
              <LongitudeDegrees>-2.9554711282253265380859375</LongitudeDegrees>
            </Position>
            <AltitudeMeters>57.200000762939453125</AltitudeMeters>
            <DistanceMeters>NAN</DistanceMeters>
          </Trackpoint>
          <Trackpoint>
            <Time>2022-09-24T16:32:08.000Z</Time>
            <Position>
              <LatitudeDegrees>43.3628565631806850433349609375</LatitudeDegrees>
              <LongitudeDegrees>-2.95541237108409404754638671875</LongitudeDegrees>
            </Position>
            <AltitudeMeters>57.40000152587890625</AltitudeMeters>
            <DistanceMeters>NAN</DistanceMeters>
          </Trackpoint>
          <Trackpoint>
            <Time>2022-09-24T16:32:09.000Z</Time>
            <Position>
              <LatitudeDegrees>43.36283485405147075653076171875</LatitudeDegrees>
              <LongitudeDegrees>-2.95535403303802013397216796875</LongitudeDegrees>
            </Position>
            <AltitudeMeters>57.59999847412109375</AltitudeMeters>
            <DistanceMeters>NAN</DistanceMeters>
          </Trackpoint>
          <Trackpoint>
            <Time>2022-09-24T16:32:10.000Z</Time>
            <Position>
              <LatitudeDegrees>43.36281775496900081634521484375</LatitudeDegrees>
              <LongitudeDegrees>-2.955290414392948150634765625</LongitudeDegrees>
            </Position>
            <AltitudeMeters>57.59999847412109375</AltitudeMeters>
            <DistanceMeters>NAN</DistanceMeters>
          </Trackpoint>
          <Trackpoint>
            <Time>2022-09-24T16:32:11.000Z</Time>
            <Position>
              <LatitudeDegrees>43.362794034183025360107421875</LatitudeDegrees>
              <LongitudeDegrees>-2.9552221857011318206787109375</LongitudeDegrees>
            </Position>
            <AltitudeMeters>57.799999237060546875</AltitudeMeters>
            <DistanceMeters>NAN</DistanceMeters>
          </Trackpoint>
          <Trackpoint>
            <Time>2022-09-24T16:32:12.000Z</Time>
            <Position>
              <LatitudeDegrees>43.3627589978277683258056640625</LatitudeDegrees>
              <LongitudeDegrees>-2.9551604948937892913818359375</LongitudeDegrees>
            </Position>
            <AltitudeMeters>58.200000762939453125</AltitudeMeters>
            <DistanceMeters>NAN</DistanceMeters>
          </Trackpoint>
          <Trackpoint>
            <Time>2022-09-24T16:32:13.000Z</Time>
            <Position>
              <LatitudeDegrees>43.362720943987369537353515625</LatitudeDegrees>
              <LongitudeDegrees>-2.95510701835155487060546875</LongitudeDegrees>
            </Position>
            <AltitudeMeters>58.200000762939453125</AltitudeMeters>
            <DistanceMeters>NAN</DistanceMeters>
          </Trackpoint>
          <Trackpoint>
            <Time>2022-09-24T16:32:14.000Z</Time>
            <Position>
              <LatitudeDegrees>43.3626830577850341796875</LatitudeDegrees>
              <LongitudeDegrees>-2.95505831949412822723388671875</LongitudeDegrees>
            </Position>
            <AltitudeMeters>58.40000152587890625</AltitudeMeters>
            <DistanceMeters>NAN</DistanceMeters>
          </Trackpoint>
          <Trackpoint>
            <Time>2022-09-24T16:32:15.000Z</Time>
            <Position>
              <LatitudeDegrees>43.362638466060161590576171875</LatitudeDegrees>
              <LongitudeDegrees>-2.9550173319876194000244140625</LongitudeDegrees>
            </Position>
            <AltitudeMeters>58.40000152587890625</AltitudeMeters>
            <DistanceMeters>NAN</DistanceMeters>
          </Trackpoint>
          <Trackpoint>
            <Time>2022-09-24T16:32:16.000Z</Time>
            <Position>
              <LatitudeDegrees>43.362586162984371185302734375</LatitudeDegrees>
              <LongitudeDegrees>-2.9549864865839481353759765625</LongitudeDegrees>
            </Position>
            <AltitudeMeters>58.59999847412109375</AltitudeMeters>
            <DistanceMeters>NAN</DistanceMeters>
          </Trackpoint>
          <Trackpoint>
            <Time>2022-09-24T16:32:17.000Z</Time>
            <Position>
              <LatitudeDegrees>43.3625353686511516571044921875</LatitudeDegrees>
              <LongitudeDegrees>-2.9549656994640827178955078125</LongitudeDegrees>
            </Position>
            <AltitudeMeters>58.59999847412109375</AltitudeMeters>
            <DistanceMeters>NAN</DistanceMeters>
          </Trackpoint>
          <Trackpoint>
            <Time>2022-09-24T16:32:18.000Z</Time>
            <Position>
              <LatitudeDegrees>43.36248658597469329833984375</LatitudeDegrees>
              <LongitudeDegrees>-2.95494608581066131591796875</LongitudeDegrees>
            </Position>
            <AltitudeMeters>58.799999237060546875</AltitudeMeters>
            <DistanceMeters>NAN</DistanceMeters>
          </Trackpoint>
          <Trackpoint>
            <Time>2022-09-24T16:32:19.000Z</Time>
            <Position>
              <LatitudeDegrees>43.36243419907987117767333984375</LatitudeDegrees>
              <LongitudeDegrees>-2.95491917990148067474365234375</LongitudeDegrees>
            </Position>
            <AltitudeMeters>58.799999237060546875</AltitudeMeters>
            <DistanceMeters>NAN</DistanceMeters>
          </Trackpoint>
          <Trackpoint>
            <Time>2022-09-24T16:32:20.000Z</Time>
            <Position>
              <LatitudeDegrees>43.36238089017570018768310546875</LatitudeDegrees>
              <LongitudeDegrees>-2.95488431118428707122802734375</LongitudeDegrees>
            </Position>
            <AltitudeMeters>58.799999237060546875</AltitudeMeters>
            <DistanceMeters>NAN</DistanceMeters>
          </Trackpoint>
          <Trackpoint>
            <Time>2022-09-24T16:32:21.000Z</Time>
            <Position>
              <LatitudeDegrees>43.362338729202747344970703125</LatitudeDegrees>
              <LongitudeDegrees>-2.95485329814255237579345703125</LongitudeDegrees>
            </Position>
            <AltitudeMeters>59</AltitudeMeters>
            <DistanceMeters>NAN</DistanceMeters>
          </Trackpoint>
          <Trackpoint>
            <Time>2022-09-24T16:32:22.000Z</Time>
            <Position>
              <LatitudeDegrees>43.36228064261376857757568359375</LatitudeDegrees>
              <LongitudeDegrees>-2.95481440611183643341064453125</LongitudeDegrees>
            </Position>
            <AltitudeMeters>59</AltitudeMeters>
            <DistanceMeters>NAN</DistanceMeters>
          </Trackpoint>
          <Trackpoint>
            <Time>2022-09-24T16:32:23.000Z</Time>
            <Position>
              <LatitudeDegrees>43.36223504506051540374755859375</LatitudeDegrees>
              <LongitudeDegrees>-2.9547648690640926361083984375</LongitudeDegrees>
            </Position>
            <AltitudeMeters>59.200000762939453125</AltitudeMeters>
            <DistanceMeters>NAN</DistanceMeters>
          </Trackpoint>
          <Trackpoint>
            <Time>2022-09-24T16:32:24.000Z</Time>
            <Position>
              <LatitudeDegrees>43.36223504506051540374755859375</LatitudeDegrees>
              <LongitudeDegrees>-2.9547648690640926361083984375</LongitudeDegrees>
            </Position>
            <AltitudeMeters>59.40000152587890625</AltitudeMeters>
            <DistanceMeters>NAN</DistanceMeters>
          </Trackpoint>
          <Trackpoint>
            <Time>2022-09-24T16:32:25.000Z</Time>
            <Position>
              <LatitudeDegrees>43.36220227181911468505859375</LatitudeDegrees>
              <LongitudeDegrees>-2.95465883798897266387939453125</LongitudeDegrees>
            </Position>
            <AltitudeMeters>59.40000152587890625</AltitudeMeters>
            <DistanceMeters>NAN</DistanceMeters>
          </Trackpoint>
          <Trackpoint>
            <Time>2022-09-24T16:32:26.000Z</Time>
            <Position>
              <LatitudeDegrees>43.36220922879874706268310546875</LatitudeDegrees>
              <LongitudeDegrees>-2.954593710601329803466796875</LongitudeDegrees>
            </Position>
            <AltitudeMeters>59.59999847412109375</AltitudeMeters>
            <DistanceMeters>NAN</DistanceMeters>
          </Trackpoint>
          <Trackpoint>
            <Time>2022-09-24T16:32:27.000Z</Time>
            <Position>
              <LatitudeDegrees>43.36220973171293735504150390625</LatitudeDegrees>
              <LongitudeDegrees>-2.95452154241502285003662109375</LongitudeDegrees>
            </Position>
            <AltitudeMeters>59.59999847412109375</AltitudeMeters>
            <DistanceMeters>NAN</DistanceMeters>
          </Trackpoint>
          <Trackpoint>
            <Time>2022-09-24T16:32:28.000Z</Time>
            <Position>
              <LatitudeDegrees>43.3622230589389801025390625</LatitudeDegrees>
              <LongitudeDegrees>-2.95445180498063564300537109375</LongitudeDegrees>
            </Position>
            <AltitudeMeters>59.799999237060546875</AltitudeMeters>
            <DistanceMeters>NAN</DistanceMeters>
          </Trackpoint>
          <Trackpoint>
            <Time>2022-09-24T16:32:29.000Z</Time>
            <Position>
              <LatitudeDegrees>43.3622230589389801025390625</LatitudeDegrees>
              <LongitudeDegrees>-2.95445180498063564300537109375</LongitudeDegrees>
            </Position>
            <AltitudeMeters>60</AltitudeMeters>
            <DistanceMeters>NAN</DistanceMeters>
          </Trackpoint>
          <Trackpoint>
            <Time>2022-09-24T16:32:30.000Z</Time>
            <Position>
              <LatitudeDegrees>43.3622285909950733184814453125</LatitudeDegrees>
              <LongitudeDegrees>-2.9543095640838146209716796875</LongitudeDegrees>
            </Position>
            <AltitudeMeters>60</AltitudeMeters>
            <DistanceMeters>NAN</DistanceMeters>
          </Trackpoint>
          <Trackpoint>
            <Time>2022-09-24T16:32:31.000Z</Time>
            <Position>
              <LatitudeDegrees>43.36222951300442218780517578125</LatitudeDegrees>
              <LongitudeDegrees>-2.954235970973968505859375</LongitudeDegrees>
            </Position>
            <AltitudeMeters>60.200000762939453125</AltitudeMeters>
            <DistanceMeters>NAN</DistanceMeters>
          </Trackpoint>
          <Trackpoint>
            <Time>2022-09-24T16:32:32.000Z</Time>
            <Position>
              <LatitudeDegrees>43.3622262440621852874755859375</LatitudeDegrees>
              <LongitudeDegrees>-2.9541593603789806365966796875</LongitudeDegrees>
            </Position>
            <AltitudeMeters>60.200000762939453125</AltitudeMeters>
            <DistanceMeters>NAN</DistanceMeters>
          </Trackpoint>
          <Trackpoint>
            <Time>2022-09-24T16:32:33.000Z</Time>
            <Position>
              <LatitudeDegrees>43.36221945472061634063720703125</LatitudeDegrees>
              <LongitudeDegrees>-2.95408551581203937530517578125</LongitudeDegrees>
            </Position>
            <AltitudeMeters>60.40000152587890625</AltitudeMeters>
            <DistanceMeters>NAN</DistanceMeters>
          </Trackpoint>
          <Trackpoint>
            <Time>2022-09-24T16:32:34.000Z</Time>
            <Position>
              <LatitudeDegrees>43.36221945472061634063720703125</LatitudeDegrees>
              <LongitudeDegrees>-2.95408551581203937530517578125</LongitudeDegrees>
            </Position>
            <AltitudeMeters>60.40000152587890625</AltitudeMeters>
            <DistanceMeters>NAN</DistanceMeters>
          </Trackpoint>
          <Trackpoint>
            <Time>2022-09-24T16:32:35.000Z</Time>
            <Position>
              <LatitudeDegrees>43.36219330318272113800048828125</LatitudeDegrees>
              <LongitudeDegrees>-2.95394017361104488372802734375</LongitudeDegrees>
            </Position>
            <AltitudeMeters>60.40000152587890625</AltitudeMeters>
            <DistanceMeters>NAN</DistanceMeters>
          </Trackpoint>
          <Trackpoint>
            <Time>2022-09-24T16:32:36.000Z</Time>
            <Position>
              <LatitudeDegrees>43.36217938922345638275146484375</LatitudeDegrees>
              <LongitudeDegrees>-2.953868173062801361083984375</LongitudeDegrees>
            </Position>
            <AltitudeMeters>60.40000152587890625</AltitudeMeters>
            <DistanceMeters>NAN</DistanceMeters>
          </Trackpoint>
          <Trackpoint>
            <Time>2022-09-24T16:32:37.000Z</Time>
            <Position>
              <LatitudeDegrees>43.36216547526419162750244140625</LatitudeDegrees>
              <LongitudeDegrees>-2.95379918999969959259033203125</LongitudeDegrees>
            </Position>
            <AltitudeMeters>60.799999237060546875</AltitudeMeters>
            <DistanceMeters>NAN</DistanceMeters>
          </Trackpoint>
          <Trackpoint>
            <Time>2022-09-24T16:32:38.000Z</Time>
            <Position>
              <LatitudeDegrees>43.3621498011052608489990234375</LatitudeDegrees>
              <LongitudeDegrees>-2.9537322185933589935302734375</LongitudeDegrees>
            </Position>
            <AltitudeMeters>61</AltitudeMeters>
            <DistanceMeters>NAN</DistanceMeters>
          </Trackpoint>
          <Trackpoint>
            <Time>2022-09-24T16:32:39.000Z</Time>
            <Position>
              <LatitudeDegrees>43.3621498011052608489990234375</LatitudeDegrees>
              <LongitudeDegrees>-2.9537322185933589935302734375</LongitudeDegrees>
            </Position>
            <AltitudeMeters>61.200000762939453125</AltitudeMeters>
            <DistanceMeters>NAN</DistanceMeters>
          </Trackpoint>
          <Trackpoint>
            <Time>2022-09-24T16:32:40.000Z</Time>
            <Position>
              <LatitudeDegrees>43.36211317218840122222900390625</LatitudeDegrees>
              <LongitudeDegrees>-2.95360003598034381866455078125</LongitudeDegrees>
            </Position>
            <AltitudeMeters>61.200000762939453125</AltitudeMeters>
            <DistanceMeters>NAN</DistanceMeters>
          </Trackpoint>
          <Trackpoint>
            <Time>2022-09-24T16:32:41.000Z</Time>
            <Position>
              <LatitudeDegrees>43.36211317218840122222900390625</LatitudeDegrees>
              <LongitudeDegrees>-2.95360003598034381866455078125</LongitudeDegrees>
            </Position>
            <AltitudeMeters>61.200000762939453125</AltitudeMeters>
            <DistanceMeters>NAN</DistanceMeters>
          </Trackpoint>
          <Trackpoint>
            <Time>2022-09-24T16:32:42.000Z</Time>
            <Position>
              <LatitudeDegrees>43.3620629645884037017822265625</LatitudeDegrees>
              <LongitudeDegrees>-2.95347564853727817535400390625</LongitudeDegrees>
            </Position>
            <AltitudeMeters>61.40000152587890625</AltitudeMeters>
            <DistanceMeters>NAN</DistanceMeters>
          </Trackpoint>
          <Trackpoint>
            <Time>2022-09-24T16:32:43.000Z</Time>
            <Position>
              <LatitudeDegrees>43.362031280994415283203125</LatitudeDegrees>
              <LongitudeDegrees>-2.95341831631958484649658203125</LongitudeDegrees>
            </Position>
            <AltitudeMeters>61.40000152587890625</AltitudeMeters>
            <DistanceMeters>NAN</DistanceMeters>
          </Trackpoint>
          <Trackpoint>
            <Time>2022-09-24T16:32:44.000Z</Time>
            <Position>
              <LatitudeDegrees>43.361999429762363433837890625</LatitudeDegrees>
              <LongitudeDegrees>-2.95336358249187469482421875</LongitudeDegrees>
            </Position>
            <AltitudeMeters>61.40000152587890625</AltitudeMeters>
            <DistanceMeters>NAN</DistanceMeters>
          </Trackpoint>
          <Trackpoint>
            <Time>2022-09-24T16:32:45.000Z</Time>
            <Position>
              <LatitudeDegrees>43.36196565069258213043212890625</LatitudeDegrees>
              <LongitudeDegrees>-2.95331354252994060516357421875</LongitudeDegrees>
            </Position>
            <AltitudeMeters>61.799999237060546875</AltitudeMeters>
            <DistanceMeters>NAN</DistanceMeters>
          </Trackpoint>
          <Trackpoint>
            <Time>2022-09-24T16:32:46.000Z</Time>
            <Position>
              <LatitudeDegrees>43.3619301952421665191650390625</LatitudeDegrees>
              <LongitudeDegrees>-2.95326593331992626190185546875</LongitudeDegrees>
            </Position>
            <AltitudeMeters>61.799999237060546875</AltitudeMeters>
            <DistanceMeters>NAN</DistanceMeters>
          </Trackpoint>
          <Trackpoint>
            <Time>2022-09-24T16:32:47.000Z</Time>
            <Position>
              <LatitudeDegrees>43.36189256049692630767822265625</LatitudeDegrees>
              <LongitudeDegrees>-2.9532229341566562652587890625</LongitudeDegrees>
            </Position>
            <AltitudeMeters>62.40000152587890625</AltitudeMeters>
            <DistanceMeters>NAN</DistanceMeters>
          </Trackpoint>
          <Trackpoint>
            <Time>2022-09-24T16:32:48.000Z</Time>
            <Position>
              <LatitudeDegrees>43.36185283027589321136474609375</LatitudeDegrees>
              <LongitudeDegrees>-2.9531870596110820770263671875</LongitudeDegrees>
            </Position>
            <AltitudeMeters>62.40000152587890625</AltitudeMeters>
            <DistanceMeters>NAN</DistanceMeters>
          </Trackpoint>
          <Trackpoint>
            <Time>2022-09-24T16:32:49.000Z</Time>
            <Position>
              <LatitudeDegrees>43.36181175895035266876220703125</LatitudeDegrees>
              <LongitudeDegrees>-2.95315260998904705047607421875</LongitudeDegrees>
            </Position>
            <AltitudeMeters>62.59999847412109375</AltitudeMeters>
            <DistanceMeters>NAN</DistanceMeters>
          </Trackpoint>
          <Trackpoint>
            <Time>2022-09-24T16:32:50.000Z</Time>
            <Position>
              <LatitudeDegrees>43.36176834069192409515380859375</LatitudeDegrees>
              <LongitudeDegrees>-2.9531257040798664093017578125</LongitudeDegrees>
            </Position>
            <AltitudeMeters>62.799999237060546875</AltitudeMeters>
            <DistanceMeters>NAN</DistanceMeters>
          </Trackpoint>
          <Trackpoint>
            <Time>2022-09-24T16:32:51.000Z</Time>
            <Position>
              <LatitudeDegrees>43.36172274313867092132568359375</LatitudeDegrees>
              <LongitudeDegrees>-2.95309745706617832183837890625</LongitudeDegrees>
            </Position>
            <AltitudeMeters>62.799999237060546875</AltitudeMeters>
            <DistanceMeters>NAN</DistanceMeters>
          </Trackpoint>
          <Trackpoint>
            <Time>2022-09-24T16:32:52.000Z</Time>
            <Position>
              <LatitudeDegrees>43.3616767264902591705322265625</LatitudeDegrees>
              <LongitudeDegrees>-2.95306988060474395751953125</LongitudeDegrees>
            </Position>
            <AltitudeMeters>63</AltitudeMeters>
            <DistanceMeters>NAN</DistanceMeters>
          </Trackpoint>
          <Trackpoint>
            <Time>2022-09-24T16:32:53.000Z</Time>
            <Position>
              <LatitudeDegrees>43.3616329729557037353515625</LatitudeDegrees>
              <LongitudeDegrees>-2.9530385322868824005126953125</LongitudeDegrees>
            </Position>
            <AltitudeMeters>63</AltitudeMeters>
            <DistanceMeters>NAN</DistanceMeters>
          </Trackpoint>
          <Trackpoint>
            <Time>2022-09-24T16:32:54.000Z</Time>
            <Position>
              <LatitudeDegrees>43.3615872077643871307373046875</LatitudeDegrees>
              <LongitudeDegrees>-2.9530093632638454437255859375</LongitudeDegrees>
            </Position>
            <AltitudeMeters>63</AltitudeMeters>
            <DistanceMeters>NAN</DistanceMeters>
          </Trackpoint>
          <Trackpoint>
            <Time>2022-09-24T16:32:55.000Z</Time>
            <Position>
              <LatitudeDegrees>43.3615406043827533721923828125</LatitudeDegrees>
              <LongitudeDegrees>-2.95298547483980655670166015625</LongitudeDegrees>
            </Position>
            <AltitudeMeters>63</AltitudeMeters>
            <DistanceMeters>NAN</DistanceMeters>
          </Trackpoint>
          <Trackpoint>
            <Time>2022-09-24T16:32:56.000Z</Time>
            <Position>
              <LatitudeDegrees>43.3614919893443584442138671875</LatitudeDegrees>
              <LongitudeDegrees>-2.952966950833797454833984375</LongitudeDegrees>
            </Position>
            <AltitudeMeters>63.200000762939453125</AltitudeMeters>
            <DistanceMeters>NAN</DistanceMeters>
          </Trackpoint>
          <Trackpoint>
            <Time>2022-09-24T16:32:57.000Z</Time>
            <Position>
              <LatitudeDegrees>43.36144027300179004669189453125</LatitudeDegrees>
              <LongitudeDegrees>-2.95295479707419872283935546875</LongitudeDegrees>
            </Position>
            <AltitudeMeters>63.59999847412109375</AltitudeMeters>
            <DistanceMeters>NAN</DistanceMeters>
          </Trackpoint>
          <Trackpoint>
            <Time>2022-09-24T16:32:58.000Z</Time>
            <Position>
              <LatitudeDegrees>43.36144027300179004669189453125</LatitudeDegrees>
              <LongitudeDegrees>-2.95295479707419872283935546875</LongitudeDegrees>
            </Position>
            <AltitudeMeters>63.59999847412109375</AltitudeMeters>
            <DistanceMeters>NAN</DistanceMeters>
          </Trackpoint>
          <Trackpoint>
            <Time>2022-09-24T16:32:59.000Z</Time>
            <Position>
              <LatitudeDegrees>43.361345641314983367919921875</LatitudeDegrees>
              <LongitudeDegrees>-2.952943481504917144775390625</LongitudeDegrees>
            </Position>
            <AltitudeMeters>64</AltitudeMeters>
            <DistanceMeters>NAN</DistanceMeters>
          </Trackpoint>
          <Trackpoint>
            <Time>2022-09-24T16:33:00.000Z</Time>
            <Position>
              <LatitudeDegrees>43.36129778064787387847900390625</LatitudeDegrees>
              <LongitudeDegrees>-2.95294909738004207611083984375</LongitudeDegrees>
            </Position>
            <AltitudeMeters>64</AltitudeMeters>
            <DistanceMeters>NAN</DistanceMeters>
          </Trackpoint>
          <Trackpoint>
            <Time>2022-09-24T16:33:01.000Z</Time>
            <Position>
              <LatitudeDegrees>43.3612520992755889892578125</LatitudeDegrees>
              <LongitudeDegrees>-2.95296452008187770843505859375</LongitudeDegrees>
            </Position>
            <AltitudeMeters>64.1999969482421875</AltitudeMeters>
            <DistanceMeters>NAN</DistanceMeters>
          </Trackpoint>
          <Trackpoint>
            <Time>2022-09-24T16:33:02.000Z</Time>
            <Position>
              <LatitudeDegrees>43.36121245287358760833740234375</LatitudeDegrees>
              <LongitudeDegrees>-2.9529879055917263031005859375</LongitudeDegrees>
            </Position>
            <AltitudeMeters>64.40000152587890625</AltitudeMeters>
            <DistanceMeters>NAN</DistanceMeters>
          </Trackpoint>
          <Trackpoint>
            <Time>2022-09-24T16:33:03.000Z</Time>
            <Position>
              <LatitudeDegrees>43.36117372848093509674072265625</LatitudeDegrees>
              <LongitudeDegrees>-2.9530187509953975677490234375</LongitudeDegrees>
            </Position>
            <AltitudeMeters>64.40000152587890625</AltitudeMeters>
            <DistanceMeters>NAN</DistanceMeters>
          </Trackpoint>
          <Trackpoint>
            <Time>2022-09-24T16:33:04.000Z</Time>
            <Position>
              <LatitudeDegrees>43.3611355908215045928955078125</LatitudeDegrees>
              <LongitudeDegrees>-2.95305236242711544036865234375</LongitudeDegrees>
            </Position>
            <AltitudeMeters>64.40000152587890625</AltitudeMeters>
            <DistanceMeters>NAN</DistanceMeters>
          </Trackpoint>
          <Trackpoint>
            <Time>2022-09-24T16:33:05.000Z</Time>
            <Position>
              <LatitudeDegrees>43.36109451949596405029296875</LatitudeDegrees>
              <LongitudeDegrees>-2.95308538712561130523681640625</LongitudeDegrees>
            </Position>
            <AltitudeMeters>64.40000152587890625</AltitudeMeters>
            <DistanceMeters>NAN</DistanceMeters>
          </Trackpoint>
          <Trackpoint>
            <Time>2022-09-24T16:33:06.000Z</Time>
            <Position>
              <LatitudeDegrees>43.361052609980106353759765625</LatitudeDegrees>
              <LongitudeDegrees>-2.95311304740607738494873046875</LongitudeDegrees>
            </Position>
            <AltitudeMeters>64.8000030517578125</AltitudeMeters>
            <DistanceMeters>NAN</DistanceMeters>
          </Trackpoint>
          <Trackpoint>
            <Time>2022-09-24T16:33:07.000Z</Time>
            <Position>
              <LatitudeDegrees>43.3610107004642486572265625</LatitudeDegrees>
              <LongitudeDegrees>-2.95314322225749492645263671875</LongitudeDegrees>
            </Position>
            <AltitudeMeters>64.8000030517578125</AltitudeMeters>
            <DistanceMeters>NAN</DistanceMeters>
          </Trackpoint>
          <Trackpoint>
            <Time>2022-09-24T16:33:08.000Z</Time>
            <Position>
              <LatitudeDegrees>43.36097650229930877685546875</LatitudeDegrees>
              <LongitudeDegrees>-2.9531652666628360748291015625</LongitudeDegrees>
            </Position>
            <AltitudeMeters>65.1999969482421875</AltitudeMeters>
            <DistanceMeters>NAN</DistanceMeters>
          </Trackpoint>
          <Trackpoint>
            <Time>2022-09-24T16:33:09.000Z</Time>
            <Position>
              <LatitudeDegrees>43.36093048565089702606201171875</LatitudeDegrees>
              <LongitudeDegrees>-2.95320290140807628631591796875</LongitudeDegrees>
            </Position>
            <AltitudeMeters>65.40000152587890625</AltitudeMeters>
            <DistanceMeters>NAN</DistanceMeters>
          </Trackpoint>
          <Trackpoint>
            <Time>2022-09-24T16:33:10.000Z</Time>
            <Position>
              <LatitudeDegrees>43.3608931861817836761474609375</LatitudeDegrees>
              <LongitudeDegrees>-2.953240536153316497802734375</LongitudeDegrees>
            </Position>
            <AltitudeMeters>65.40000152587890625</AltitudeMeters>
            <DistanceMeters>NAN</DistanceMeters>
          </Trackpoint>
          <Trackpoint>
            <Time>2022-09-24T16:33:11.000Z</Time>
            <Position>
              <LatitudeDegrees>43.3608546294271945953369140625</LatitudeDegrees>
              <LongitudeDegrees>-2.95327733270823955535888671875</LongitudeDegrees>
            </Position>
            <AltitudeMeters>65.40000152587890625</AltitudeMeters>
            <DistanceMeters>NAN</DistanceMeters>
          </Trackpoint>
          <Trackpoint>
            <Time>2022-09-24T16:33:12.000Z</Time>
            <Position>
              <LatitudeDegrees>43.36081649176776409149169921875</LatitudeDegrees>
              <LongitudeDegrees>-2.95331739820539951324462890625</LongitudeDegrees>
            </Position>
            <AltitudeMeters>65.8000030517578125</AltitudeMeters>
            <DistanceMeters>NAN</DistanceMeters>
          </Trackpoint>
          <Trackpoint>
            <Time>2022-09-24T16:33:13.000Z</Time>
            <Position>
              <LatitudeDegrees>43.3607815392315387725830078125</LatitudeDegrees>
              <LongitudeDegrees>-2.953359223902225494384765625</LongitudeDegrees>
            </Position>
            <AltitudeMeters>66</AltitudeMeters>
            <DistanceMeters>NAN</DistanceMeters>
          </Trackpoint>
          <Trackpoint>
            <Time>2022-09-24T16:33:14.000Z</Time>
            <Position>
              <LatitudeDegrees>43.36075027473270893096923828125</LatitudeDegrees>
              <LongitudeDegrees>-2.9534026421606540679931640625</LongitudeDegrees>
            </Position>
            <AltitudeMeters>66.1999969482421875</AltitudeMeters>
            <DistanceMeters>NAN</DistanceMeters>
          </Trackpoint>
          <Trackpoint>
            <Time>2022-09-24T16:33:15.000Z</Time>
            <Position>
              <LatitudeDegrees>43.3607210218906402587890625</LatitudeDegrees>
              <LongitudeDegrees>-2.95345167629420757293701171875</LongitudeDegrees>
            </Position>
            <AltitudeMeters>66.1999969482421875</AltitudeMeters>
            <DistanceMeters>NAN</DistanceMeters>
          </Trackpoint>
          <Trackpoint>
            <Time>2022-09-24T16:33:16.000Z</Time>
            <Position>
              <LatitudeDegrees>43.3606916852295398712158203125</LatitudeDegrees>
              <LongitudeDegrees>-2.95350171625614166259765625</LongitudeDegrees>
            </Position>
            <AltitudeMeters>66.40000152587890625</AltitudeMeters>
            <DistanceMeters>NAN</DistanceMeters>
          </Trackpoint>
          <Trackpoint>
            <Time>2022-09-24T16:33:17.000Z</Time>
            <Position>
              <LatitudeDegrees>43.36066109128296375274658203125</LatitudeDegrees>
              <LongitudeDegrees>-2.95354999601840972900390625</LongitudeDegrees>
            </Position>
            <AltitudeMeters>66.59999847412109375</AltitudeMeters>
            <DistanceMeters>NAN</DistanceMeters>
          </Trackpoint>
          <Trackpoint>
            <Time>2022-09-24T16:33:18.000Z</Time>
            <Position>
              <LatitudeDegrees>43.36063108406960964202880859375</LatitudeDegrees>
              <LongitudeDegrees>-2.95359953306615352630615234375</LongitudeDegrees>
            </Position>
            <AltitudeMeters>66.59999847412109375</AltitudeMeters>
            <DistanceMeters>NAN</DistanceMeters>
          </Trackpoint>
          <Trackpoint>
            <Time>2022-09-24T16:33:19.000Z</Time>
            <Position>
              <LatitudeDegrees>43.3606031723320484161376953125</LatitudeDegrees>
              <LongitudeDegrees>-2.95364856719970703125</LongitudeDegrees>
            </Position>
            <AltitudeMeters>66.8000030517578125</AltitudeMeters>
            <DistanceMeters>NAN</DistanceMeters>
          </Trackpoint>
          <Trackpoint>
            <Time>2022-09-24T16:33:20.000Z</Time>
            <Position>
              <LatitudeDegrees>43.3605756796896457672119140625</LatitudeDegrees>
              <LongitudeDegrees>-2.95369609259068965911865234375</LongitudeDegrees>
            </Position>
            <AltitudeMeters>66.8000030517578125</AltitudeMeters>
            <DistanceMeters>NAN</DistanceMeters>
          </Trackpoint>
          <Trackpoint>
            <Time>2022-09-24T16:33:21.000Z</Time>
            <Position>
              <LatitudeDegrees>43.36054734885692596435546875</LatitudeDegrees>
              <LongitudeDegrees>-2.95374219305813312530517578125</LongitudeDegrees>
            </Position>
            <AltitudeMeters>66.8000030517578125</AltitudeMeters>
            <DistanceMeters>NAN</DistanceMeters>
          </Trackpoint>
          <Trackpoint>
            <Time>2022-09-24T16:33:22.000Z</Time>
            <Position>
              <LatitudeDegrees>43.3605156652629375457763671875</LatitudeDegrees>
              <LongitudeDegrees>-2.95378561131656169891357421875</LongitudeDegrees>
            </Position>
            <AltitudeMeters>66.8000030517578125</AltitudeMeters>
            <DistanceMeters>NAN</DistanceMeters>
          </Trackpoint>
          <Trackpoint>
            <Time>2022-09-24T16:33:23.000Z</Time>
            <Position>
              <LatitudeDegrees>43.3604787848889827728271484375</LatitudeDegrees>
              <LongitudeDegrees>-2.95382651500403881072998046875</LongitudeDegrees>
            </Position>
            <AltitudeMeters>66.8000030517578125</AltitudeMeters>
            <DistanceMeters>NAN</DistanceMeters>
          </Trackpoint>
          <Trackpoint>
            <Time>2022-09-24T16:33:24.000Z</Time>
            <Position>
              <LatitudeDegrees>43.3604382164776325225830078125</LatitudeDegrees>
              <LongitudeDegrees>-2.95385970734059810638427734375</LongitudeDegrees>
            </Position>
            <AltitudeMeters>66.8000030517578125</AltitudeMeters>
            <DistanceMeters>NAN</DistanceMeters>
          </Trackpoint>
          <Trackpoint>
            <Time>2022-09-24T16:33:25.000Z</Time>
            <Position>
              <LatitudeDegrees>43.360395468771457672119140625</LatitudeDegrees>
              <LongitudeDegrees>-2.95388527214527130126953125</LongitudeDegrees>
            </Position>
            <AltitudeMeters>67.59999847412109375</AltitudeMeters>
            <DistanceMeters>NAN</DistanceMeters>
          </Trackpoint>
          <Trackpoint>
            <Time>2022-09-24T16:33:26.000Z</Time>
            <Position>
              <LatitudeDegrees>43.3603503741323947906494140625</LatitudeDegrees>
              <LongitudeDegrees>-2.95390698127448558807373046875</LongitudeDegrees>
            </Position>
            <AltitudeMeters>67.8000030517578125</AltitudeMeters>
            <DistanceMeters>NAN</DistanceMeters>
          </Trackpoint>
          <Trackpoint>
            <Time>2022-09-24T16:33:27.000Z</Time>
            <Position>
              <LatitudeDegrees>43.36030754260718822479248046875</LatitudeDegrees>
              <LongitudeDegrees>-2.95392458327114582061767578125</LongitudeDegrees>
            </Position>
            <AltitudeMeters>68.1999969482421875</AltitudeMeters>
            <DistanceMeters>NAN</DistanceMeters>
          </Trackpoint>
          <Trackpoint>
            <Time>2022-09-24T16:33:28.000Z</Time>
            <Position>
              <LatitudeDegrees>43.360266387462615966796875</LatitudeDegrees>
              <LongitudeDegrees>-2.9539384134113788604736328125</LongitudeDegrees>
            </Position>
            <AltitudeMeters>68.8000030517578125</AltitudeMeters>
            <DistanceMeters>NAN</DistanceMeters>
          </Trackpoint>
          <Trackpoint>
            <Time>2022-09-24T16:33:29.000Z</Time>
            <Position>
              <LatitudeDegrees>43.36021953262388706207275390625</LatitudeDegrees>
              <LongitudeDegrees>-2.9539431072771549224853515625</LongitudeDegrees>
            </Position>
            <AltitudeMeters>69</AltitudeMeters>
            <DistanceMeters>NAN</DistanceMeters>
          </Trackpoint>
          <Trackpoint>
            <Time>2022-09-24T16:33:30.000Z</Time>
            <Position>
              <LatitudeDegrees>43.3601725101470947265625</LatitudeDegrees>
              <LongitudeDegrees>-2.95394419692456722259521484375</LongitudeDegrees>
            </Position>
            <AltitudeMeters>69.1999969482421875</AltitudeMeters>
            <DistanceMeters>NAN</DistanceMeters>
          </Trackpoint>
          <Trackpoint>
            <Time>2022-09-24T16:33:31.000Z</Time>
            <Position>
              <LatitudeDegrees>43.36012624204158782958984375</LatitudeDegrees>
              <LongitudeDegrees>-2.95394771732389926910400390625</LongitudeDegrees>
            </Position>
            <AltitudeMeters>69.1999969482421875</AltitudeMeters>
            <DistanceMeters>NAN</DistanceMeters>
          </Trackpoint>
          <Trackpoint>
            <Time>2022-09-24T16:33:32.000Z</Time>
            <Position>
              <LatitudeDegrees>43.3600808121263980865478515625</LatitudeDegrees>
              <LongitudeDegrees>-2.95395408757030963897705078125</LongitudeDegrees>
            </Position>
            <AltitudeMeters>69.40000152587890625</AltitudeMeters>
            <DistanceMeters>NAN</DistanceMeters>
          </Trackpoint>
          <Trackpoint>
            <Time>2022-09-24T16:33:33.000Z</Time>
            <Position>
              <LatitudeDegrees>43.360034711658954620361328125</LatitudeDegrees>
              <LongitudeDegrees>-2.95396347530186176300048828125</LongitudeDegrees>
            </Position>
            <AltitudeMeters>69.40000152587890625</AltitudeMeters>
            <DistanceMeters>NAN</DistanceMeters>
          </Trackpoint>
          <Trackpoint>
            <Time>2022-09-24T16:33:34.000Z</Time>
            <Position>
              <LatitudeDegrees>43.3599855937063694000244140625</LatitudeDegrees>
              <LongitudeDegrees>-2.95397135429084300994873046875</LongitudeDegrees>
            </Position>
            <AltitudeMeters>69.59999847412109375</AltitudeMeters>
            <DistanceMeters>NAN</DistanceMeters>
          </Trackpoint>
          <Trackpoint>
            <Time>2022-09-24T16:33:35.000Z</Time>
            <Position>
              <LatitudeDegrees>43.3599379844963550567626953125</LatitudeDegrees>
              <LongitudeDegrees>-2.95398560352623462677001953125</LongitudeDegrees>
            </Position>
            <AltitudeMeters>69.59999847412109375</AltitudeMeters>
            <DistanceMeters>NAN</DistanceMeters>
          </Trackpoint>
          <Trackpoint>
            <Time>2022-09-24T16:33:36.000Z</Time>
            <Position>
              <LatitudeDegrees>43.3598950691521167755126953125</LatitudeDegrees>
              <LongitudeDegrees>-2.9540078155696392059326171875</LongitudeDegrees>
            </Position>
            <AltitudeMeters>69.8000030517578125</AltitudeMeters>
            <DistanceMeters>NAN</DistanceMeters>
          </Trackpoint>
          <Trackpoint>
            <Time>2022-09-24T16:33:37.000Z</Time>
            <Position>
              <LatitudeDegrees>43.35985927842557430267333984375</LatitudeDegrees>
              <LongitudeDegrees>-2.9540480487048625946044921875</LongitudeDegrees>
            </Position>
            <AltitudeMeters>70</AltitudeMeters>
            <DistanceMeters>NAN</DistanceMeters>
          </Trackpoint>
          <Trackpoint>
            <Time>2022-09-24T16:33:38.000Z</Time>
            <Position>
              <LatitudeDegrees>43.3598223142325878143310546875</LatitudeDegrees>
              <LongitudeDegrees>-2.95409574173390865325927734375</LongitudeDegrees>
            </Position>
            <AltitudeMeters>70</AltitudeMeters>
            <DistanceMeters>NAN</DistanceMeters>
          </Trackpoint>
          <Trackpoint>
            <Time>2022-09-24T16:33:39.000Z</Time>
            <Position>
              <LatitudeDegrees>43.35979691706597805023193359375</LatitudeDegrees>
              <LongitudeDegrees>-2.95414636842906475067138671875</LongitudeDegrees>
            </Position>
            <AltitudeMeters>70.1999969482421875</AltitudeMeters>
            <DistanceMeters>NAN</DistanceMeters>
          </Trackpoint>
          <Trackpoint>
            <Time>2022-09-24T16:33:40.000Z</Time>
            <Position>
              <LatitudeDegrees>43.3597599528729915618896484375</LatitudeDegrees>
              <LongitudeDegrees>-2.9542069695889949798583984375</LongitudeDegrees>
            </Position>
            <AltitudeMeters>70.1999969482421875</AltitudeMeters>
            <DistanceMeters>NAN</DistanceMeters>
          </Trackpoint>
          <Trackpoint>
            <Time>2022-09-24T16:33:41.000Z</Time>
            <Position>
              <LatitudeDegrees>43.3597284369170665740966796875</LatitudeDegrees>
              <LongitudeDegrees>-2.95425617136061191558837890625</LongitudeDegrees>
            </Position>
            <AltitudeMeters>70.1999969482421875</AltitudeMeters>
            <DistanceMeters>NAN</DistanceMeters>
          </Trackpoint>
          <Trackpoint>
            <Time>2022-09-24T16:33:42.000Z</Time>
            <Position>
              <LatitudeDegrees>43.359704799950122833251953125</LatitudeDegrees>
              <LongitudeDegrees>-2.954295985400676727294921875</LongitudeDegrees>
            </Position>
            <AltitudeMeters>70.40000152587890625</AltitudeMeters>
            <DistanceMeters>NAN</DistanceMeters>
          </Trackpoint>
          <Trackpoint>
            <Time>2022-09-24T16:33:43.000Z</Time>
            <Position>
              <LatitudeDegrees>43.35967605002224445343017578125</LatitudeDegrees>
              <LongitudeDegrees>-2.954356670379638671875</LongitudeDegrees>
            </Position>
            <AltitudeMeters>70.8000030517578125</AltitudeMeters>
            <DistanceMeters>NAN</DistanceMeters>
          </Trackpoint>
          <Trackpoint>
            <Time>2022-09-24T16:33:44.000Z</Time>
            <Position>
              <LatitudeDegrees>43.3596563525497913360595703125</LatitudeDegrees>
              <LongitudeDegrees>-2.95440151356160640716552734375</LongitudeDegrees>
            </Position>
            <AltitudeMeters>70.8000030517578125</AltitudeMeters>
            <DistanceMeters>NAN</DistanceMeters>
          </Trackpoint>
          <Trackpoint>
            <Time>2022-09-24T16:33:45.000Z</Time>
            <Position>
              <LatitudeDegrees>43.35962492041289806365966796875</LatitudeDegrees>
              <LongitudeDegrees>-2.95445649884641170501708984375</LongitudeDegrees>
            </Position>
            <AltitudeMeters>71</AltitudeMeters>
            <DistanceMeters>NAN</DistanceMeters>
          </Trackpoint>
          <Trackpoint>
            <Time>2022-09-24T16:33:46.000Z</Time>
            <Position>
              <LatitudeDegrees>43.3595990203320980072021484375</LatitudeDegrees>
              <LongitudeDegrees>-2.95450259931385517120361328125</LongitudeDegrees>
            </Position>
            <AltitudeMeters>71</AltitudeMeters>
            <DistanceMeters>NAN</DistanceMeters>
          </Trackpoint>
          <Trackpoint>
            <Time>2022-09-24T16:33:47.000Z</Time>
            <Position>
              <LatitudeDegrees>43.3595728687942028045654296875</LatitudeDegrees>
              <LongitudeDegrees>-2.95455188490450382232666015625</LongitudeDegrees>
            </Position>
            <AltitudeMeters>71.40000152587890625</AltitudeMeters>
            <DistanceMeters>NAN</DistanceMeters>
          </Trackpoint>
          <Trackpoint>
            <Time>2022-09-24T16:33:48.000Z</Time>
            <Position>
              <LatitudeDegrees>43.3595574460923671722412109375</LatitudeDegrees>
              <LongitudeDegrees>-2.954595722258090972900390625</LongitudeDegrees>
            </Position>
            <AltitudeMeters>71.59999847412109375</AltitudeMeters>
            <DistanceMeters>NAN</DistanceMeters>
          </Trackpoint>
          <Trackpoint>
            <Time>2022-09-24T16:33:49.000Z</Time>
            <Position>
              <LatitudeDegrees>43.3595373295247554779052734375</LatitudeDegrees>
              <LongitudeDegrees>-2.95466286130249500274658203125</LongitudeDegrees>
            </Position>
            <AltitudeMeters>72</AltitudeMeters>
            <DistanceMeters>NAN</DistanceMeters>
          </Trackpoint>
          <Trackpoint>
            <Time>2022-09-24T16:33:50.000Z</Time>
            <Position>
              <LatitudeDegrees>43.35951863788068294525146484375</LatitudeDegrees>
              <LongitudeDegrees>-2.954717092216014862060546875</LongitudeDegrees>
            </Position>
            <AltitudeMeters>72</AltitudeMeters>
            <DistanceMeters>NAN</DistanceMeters>
          </Trackpoint>
          <Trackpoint>
            <Time>2022-09-24T16:33:51.000Z</Time>
            <Position>
              <LatitudeDegrees>43.35949818603694438934326171875</LatitudeDegrees>
              <LongitudeDegrees>-2.9547715745866298675537109375</LongitudeDegrees>
            </Position>
            <AltitudeMeters>72.1999969482421875</AltitudeMeters>
            <DistanceMeters>NAN</DistanceMeters>
          </Trackpoint>
          <Trackpoint>
            <Time>2022-09-24T16:33:52.000Z</Time>
            <Position>
              <LatitudeDegrees>43.35947790183126926422119140625</LatitudeDegrees>
              <LongitudeDegrees>-2.9548273980617523193359375</LongitudeDegrees>
            </Position>
            <AltitudeMeters>72.1999969482421875</AltitudeMeters>
            <DistanceMeters>NAN</DistanceMeters>
          </Trackpoint>
          <Trackpoint>
            <Time>2022-09-24T16:33:53.000Z</Time>
            <Position>
              <LatitudeDegrees>43.35945879109203815460205078125</LatitudeDegrees>
              <LongitudeDegrees>-2.95488783158361911773681640625</LongitudeDegrees>
            </Position>
            <AltitudeMeters>72.8000030517578125</AltitudeMeters>
            <DistanceMeters>NAN</DistanceMeters>
          </Trackpoint>
          <Trackpoint>
            <Time>2022-09-24T16:33:54.000Z</Time>
            <Position>
              <LatitudeDegrees>43.359443955123424530029296875</LatitudeDegrees>
              <LongitudeDegrees>-2.95493577606976032257080078125</LongitudeDegrees>
            </Position>
            <AltitudeMeters>72.8000030517578125</AltitudeMeters>
            <DistanceMeters>NAN</DistanceMeters>
          </Trackpoint>
          <Trackpoint>
            <Time>2022-09-24T16:33:55.000Z</Time>
            <Position>
              <LatitudeDegrees>43.35941989906132221221923828125</LatitudeDegrees>
              <LongitudeDegrees>-2.955002747476100921630859375</LongitudeDegrees>
            </Position>
            <AltitudeMeters>73.1999969482421875</AltitudeMeters>
            <DistanceMeters>NAN</DistanceMeters>
          </Trackpoint>
          <Trackpoint>
            <Time>2022-09-24T16:33:56.000Z</Time>
            <Position>
              <LatitudeDegrees>43.35939927957952022552490234375</LatitudeDegrees>
              <LongitudeDegrees>-2.95505681075155735015869140625</LongitudeDegrees>
            </Position>
            <AltitudeMeters>73.40000152587890625</AltitudeMeters>
            <DistanceMeters>NAN</DistanceMeters>
          </Trackpoint>
          <Trackpoint>
            <Time>2022-09-24T16:33:57.000Z</Time>
            <Position>
              <LatitudeDegrees>43.35937731899321079254150390625</LatitudeDegrees>
              <LongitudeDegrees>-2.95510509051382541656494140625</LongitudeDegrees>
            </Position>
            <AltitudeMeters>73.40000152587890625</AltitudeMeters>
            <DistanceMeters>NAN</DistanceMeters>
          </Trackpoint>
          <Trackpoint>
            <Time>2022-09-24T16:33:58.000Z</Time>
            <Position>
              <LatitudeDegrees>43.3593535982072353363037109375</LatitudeDegrees>
              <LongitudeDegrees>-2.95515320263803005218505859375</LongitudeDegrees>
            </Position>
            <AltitudeMeters>73.40000152587890625</AltitudeMeters>
            <DistanceMeters>NAN</DistanceMeters>
          </Trackpoint>
          <Trackpoint>
            <Time>2022-09-24T16:33:59.000Z</Time>
            <Position>
              <LatitudeDegrees>43.35933943279087543487548828125</LatitudeDegrees>
              <LongitudeDegrees>-2.95520366169512271881103515625</LongitudeDegrees>
            </Position>
            <AltitudeMeters>73.40000152587890625</AltitudeMeters>
            <DistanceMeters>NAN</DistanceMeters>
          </Trackpoint>
          <Trackpoint>
            <Time>2022-09-24T16:34:00.000Z</Time>
            <Position>
              <LatitudeDegrees>43.359328620135784149169921875</LatitudeDegrees>
              <LongitudeDegrees>-2.95526434667408466339111328125</LongitudeDegrees>
            </Position>
            <AltitudeMeters>73.40000152587890625</AltitudeMeters>
            <DistanceMeters>NAN</DistanceMeters>
          </Trackpoint>
          <Trackpoint>
            <Time>2022-09-24T16:34:01.000Z</Time>
            <Position>
              <LatitudeDegrees>43.359318561851978302001953125</LatitudeDegrees>
              <LongitudeDegrees>-2.95533022843301296234130859375</LongitudeDegrees>
            </Position>
            <AltitudeMeters>73.8000030517578125</AltitudeMeters>
            <DistanceMeters>NAN</DistanceMeters>
          </Trackpoint>
          <Trackpoint>
            <Time>2022-09-24T16:34:02.000Z</Time>
            <Position>
              <LatitudeDegrees>43.35929752327501773834228515625</LatitudeDegrees>
              <LongitudeDegrees>-2.955391667783260345458984375</LongitudeDegrees>
            </Position>
            <AltitudeMeters>74.1999969482421875</AltitudeMeters>
            <DistanceMeters>NAN</DistanceMeters>
          </Trackpoint>
          <Trackpoint>
            <Time>2022-09-24T16:34:03.000Z</Time>
            <Position>
              <LatitudeDegrees>43.35928830318152904510498046875</LatitudeDegrees>
              <LongitudeDegrees>-2.95544774271547794342041015625</LongitudeDegrees>
            </Position>
            <AltitudeMeters>74.40000152587890625</AltitudeMeters>
            <DistanceMeters>NAN</DistanceMeters>
          </Trackpoint>
          <Trackpoint>
            <Time>2022-09-24T16:34:04.000Z</Time>
            <Position>
              <LatitudeDegrees>43.35928000509738922119140625</LatitudeDegrees>
              <LongitudeDegrees>-2.95550742186605930328369140625</LongitudeDegrees>
            </Position>
            <AltitudeMeters>74.40000152587890625</AltitudeMeters>
            <DistanceMeters>NAN</DistanceMeters>
          </Trackpoint>
          <Trackpoint>
            <Time>2022-09-24T16:34:05.000Z</Time>
            <Position>
              <LatitudeDegrees>43.359274305403232574462890625</LatitudeDegrees>
              <LongitudeDegrees>-2.95556542463600635528564453125</LongitudeDegrees>
            </Position>
            <AltitudeMeters>74.40000152587890625</AltitudeMeters>
            <DistanceMeters>NAN</DistanceMeters>
          </Trackpoint>
          <Trackpoint>
            <Time>2022-09-24T16:34:06.000Z</Time>
            <Position>
              <LatitudeDegrees>43.35926701314747333526611328125</LatitudeDegrees>
              <LongitudeDegrees>-2.95561973936855792999267578125</LongitudeDegrees>
            </Position>
            <AltitudeMeters>74.59999847412109375</AltitudeMeters>
            <DistanceMeters>NAN</DistanceMeters>
          </Trackpoint>
          <Trackpoint>
            <Time>2022-09-24T16:34:07.000Z</Time>
            <Position>
              <LatitudeDegrees>43.35925519466400146484375</LatitudeDegrees>
              <LongitudeDegrees>-2.95568126253783702850341796875</LongitudeDegrees>
            </Position>
            <AltitudeMeters>75</AltitudeMeters>
            <DistanceMeters>NAN</DistanceMeters>
          </Trackpoint>
          <Trackpoint>
            <Time>2022-09-24T16:34:08.000Z</Time>
            <Position>
              <LatitudeDegrees>43.35925519466400146484375</LatitudeDegrees>
              <LongitudeDegrees>-2.95568126253783702850341796875</LongitudeDegrees>
            </Position>
            <AltitudeMeters>75</AltitudeMeters>
            <DistanceMeters>NAN</DistanceMeters>
          </Trackpoint>
          <Trackpoint>
            <Time>2022-09-24T16:34:09.000Z</Time>
            <Position>
              <LatitudeDegrees>43.3592270314693450927734375</LatitudeDegrees>
              <LongitudeDegrees>-2.9558064043521881103515625</LongitudeDegrees>
            </Position>
            <AltitudeMeters>75</AltitudeMeters>
            <DistanceMeters>NAN</DistanceMeters>
          </Trackpoint>
          <Trackpoint>
            <Time>2022-09-24T16:34:10.000Z</Time>
            <Position>
              <LatitudeDegrees>43.35920264013111591339111328125</LatitudeDegrees>
              <LongitudeDegrees>-2.95587220229208469390869140625</LongitudeDegrees>
            </Position>
            <AltitudeMeters>75.59999847412109375</AltitudeMeters>
            <DistanceMeters>NAN</DistanceMeters>
          </Trackpoint>
          <Trackpoint>
            <Time>2022-09-24T16:34:11.000Z</Time>
            <Position>
              <LatitudeDegrees>43.35917883552610874176025390625</LatitudeDegrees>
              <LongitudeDegrees>-2.95592802576720714569091796875</LongitudeDegrees>
            </Position>
            <AltitudeMeters>75.8000030517578125</AltitudeMeters>
            <DistanceMeters>NAN</DistanceMeters>
          </Trackpoint>
          <Trackpoint>
            <Time>2022-09-24T16:34:12.000Z</Time>
            <Position>
              <LatitudeDegrees>43.35915251635015010833740234375</LatitudeDegrees>
              <LongitudeDegrees>-2.9559695161879062652587890625</LongitudeDegrees>
            </Position>
            <AltitudeMeters>75.8000030517578125</AltitudeMeters>
            <DistanceMeters>NAN</DistanceMeters>
          </Trackpoint>
          <Trackpoint>
            <Time>2022-09-24T16:34:13.000Z</Time>
            <Position>
              <LatitudeDegrees>43.35912200622260570526123046875</LatitudeDegrees>
              <LongitudeDegrees>-2.95601201243698596954345703125</LongitudeDegrees>
            </Position>
            <AltitudeMeters>76</AltitudeMeters>
            <DistanceMeters>NAN</DistanceMeters>
          </Trackpoint>
          <Trackpoint>
            <Time>2022-09-24T16:34:14.000Z</Time>
            <Position>
              <LatitudeDegrees>43.359088562428951263427734375</LatitudeDegrees>
              <LongitudeDegrees>-2.9560446180403232574462890625</LongitudeDegrees>
            </Position>
            <AltitudeMeters>76.1999969482421875</AltitudeMeters>
            <DistanceMeters>NAN</DistanceMeters>
          </Trackpoint>
          <Trackpoint>
            <Time>2022-09-24T16:34:15.000Z</Time>
            <Position>
              <LatitudeDegrees>43.3590500056743621826171875</LatitudeDegrees>
              <LongitudeDegrees>-2.95606247149407863616943359375</LongitudeDegrees>
            </Position>
            <AltitudeMeters>76.1999969482421875</AltitudeMeters>
            <DistanceMeters>NAN</DistanceMeters>
          </Trackpoint>
          <Trackpoint>
            <Time>2022-09-24T16:34:16.000Z</Time>
            <Position>
              <LatitudeDegrees>43.35901848971843719482421875</LatitudeDegrees>
              <LongitudeDegrees>-2.95609415508806705474853515625</LongitudeDegrees>
            </Position>
            <AltitudeMeters>76.1999969482421875</AltitudeMeters>
            <DistanceMeters>NAN</DistanceMeters>
          </Trackpoint>
          <Trackpoint>
            <Time>2022-09-24T16:34:17.000Z</Time>
            <Position>
              <LatitudeDegrees>43.35898068733513355255126953125</LatitudeDegrees>
              <LongitudeDegrees>-2.95611578039824962615966796875</LongitudeDegrees>
            </Position>
            <AltitudeMeters>76.40000152587890625</AltitudeMeters>
            <DistanceMeters>NAN</DistanceMeters>
          </Trackpoint>
          <Trackpoint>
            <Time>2022-09-24T16:34:18.000Z</Time>
            <Position>
              <LatitudeDegrees>43.358930982649326324462890625</LatitudeDegrees>
              <LongitudeDegrees>-2.9561056382954120635986328125</LongitudeDegrees>
            </Position>
            <AltitudeMeters>76.59999847412109375</AltitudeMeters>
            <DistanceMeters>NAN</DistanceMeters>
          </Trackpoint>
          <Trackpoint>
            <Time>2022-09-24T16:34:19.000Z</Time>
            <Position>
              <LatitudeDegrees>43.358883373439311981201171875</LatitudeDegrees>
              <LongitudeDegrees>-2.9560878686606884002685546875</LongitudeDegrees>
            </Position>
            <AltitudeMeters>76.8000030517578125</AltitudeMeters>
            <DistanceMeters>NAN</DistanceMeters>
          </Trackpoint>
          <Trackpoint>
            <Time>2022-09-24T16:34:20.000Z</Time>
            <Position>
              <LatitudeDegrees>43.35883735679090023040771484375</LatitudeDegrees>
              <LongitudeDegrees>-2.9560717754065990447998046875</LongitudeDegrees>
            </Position>
            <AltitudeMeters>76.8000030517578125</AltitudeMeters>
            <DistanceMeters>NAN</DistanceMeters>
          </Trackpoint>
          <Trackpoint>
            <Time>2022-09-24T16:34:21.000Z</Time>
            <Position>
              <LatitudeDegrees>43.35879293270409107208251953125</LatitudeDegrees>
              <LongitudeDegrees>-2.95604118146002292633056640625</LongitudeDegrees>
            </Position>
            <AltitudeMeters>77</AltitudeMeters>
            <DistanceMeters>NAN</DistanceMeters>
          </Trackpoint>
          <Trackpoint>
            <Time>2022-09-24T16:34:22.000Z</Time>
            <Position>
              <LatitudeDegrees>43.3587373606860637664794921875</LatitudeDegrees>
              <LongitudeDegrees>-2.95600698329508304595947265625</LongitudeDegrees>
            </Position>
            <AltitudeMeters>77</AltitudeMeters>
            <DistanceMeters>NAN</DistanceMeters>
          </Trackpoint>
          <Trackpoint>
            <Time>2022-09-24T16:34:23.000Z</Time>
            <Position>
              <LatitudeDegrees>43.35869503207504749298095703125</LatitudeDegrees>
              <LongitudeDegrees>-2.95596574433147907257080078125</LongitudeDegrees>
            </Position>
            <AltitudeMeters>77.1999969482421875</AltitudeMeters>
            <DistanceMeters>NAN</DistanceMeters>
          </Trackpoint>
          <Trackpoint>
            <Time>2022-09-24T16:34:24.000Z</Time>
            <Position>
              <LatitudeDegrees>43.3586629293859004974365234375</LatitudeDegrees>
              <LongitudeDegrees>-2.95593774877488613128662109375</LongitudeDegrees>
            </Position>
            <AltitudeMeters>77.1999969482421875</AltitudeMeters>
            <DistanceMeters>NAN</DistanceMeters>
          </Trackpoint>
          <Trackpoint>
            <Time>2022-09-24T16:34:25.000Z</Time>
            <Position>
              <LatitudeDegrees>43.35861657746136188507080078125</LatitudeDegrees>
              <LongitudeDegrees>-2.95589516870677471160888671875</LongitudeDegrees>
            </Position>
            <AltitudeMeters>77.1999969482421875</AltitudeMeters>
            <DistanceMeters>NAN</DistanceMeters>
          </Trackpoint>
          <Trackpoint>
            <Time>2022-09-24T16:34:26.000Z</Time>
            <Position>
              <LatitudeDegrees>43.35858187638223171234130859375</LatitudeDegrees>
              <LongitudeDegrees>-2.9558592103421688079833984375</LongitudeDegrees>
            </Position>
            <AltitudeMeters>77.1999969482421875</AltitudeMeters>
            <DistanceMeters>NAN</DistanceMeters>
          </Trackpoint>
          <Trackpoint>
            <Time>2022-09-24T16:34:27.000Z</Time>
            <Position>
              <LatitudeDegrees>43.35854667238891124725341796875</LatitudeDegrees>
              <LongitudeDegrees>-2.9558179713785648345947265625</LongitudeDegrees>
            </Position>
            <AltitudeMeters>77.40000152587890625</AltitudeMeters>
            <DistanceMeters>NAN</DistanceMeters>
          </Trackpoint>
          <Trackpoint>
            <Time>2022-09-24T16:34:28.000Z</Time>
            <Position>
              <LatitudeDegrees>43.358511216938495635986328125</LatitudeDegrees>
              <LongitudeDegrees>-2.95577379874885082244873046875</LongitudeDegrees>
            </Position>
            <AltitudeMeters>77.59999847412109375</AltitudeMeters>
            <DistanceMeters>NAN</DistanceMeters>
          </Trackpoint>
          <Trackpoint>
            <Time>2022-09-24T16:34:29.000Z</Time>
            <Position>
              <LatitudeDegrees>43.35847643204033374786376953125</LatitudeDegrees>
              <LongitudeDegrees>-2.95573021285235881805419921875</LongitudeDegrees>
            </Position>
            <AltitudeMeters>77.8000030517578125</AltitudeMeters>
            <DistanceMeters>NAN</DistanceMeters>
          </Trackpoint>
          <Trackpoint>
            <Time>2022-09-24T16:34:30.000Z</Time>
            <Position>
              <LatitudeDegrees>43.35844022221863269805908203125</LatitudeDegrees>
              <LongitudeDegrees>-2.95568595640361309051513671875</LongitudeDegrees>
            </Position>
            <AltitudeMeters>78</AltitudeMeters>
            <DistanceMeters>NAN</DistanceMeters>
          </Trackpoint>
          <Trackpoint>
            <Time>2022-09-24T16:34:31.000Z</Time>
            <Position>
              <LatitudeDegrees>43.35841071791946887969970703125</LatitudeDegrees>
              <LongitudeDegrees>-2.95565150678157806396484375</LongitudeDegrees>
            </Position>
            <AltitudeMeters>78.40000152587890625</AltitudeMeters>
            <DistanceMeters>NAN</DistanceMeters>
          </Trackpoint>
          <Trackpoint>
            <Time>2022-09-24T16:34:32.000Z</Time>
            <Position>
              <LatitudeDegrees>43.3583742566406726837158203125</LatitudeDegrees>
              <LongitudeDegrees>-2.9556094296276569366455078125</LongitudeDegrees>
            </Position>
            <AltitudeMeters>78.40000152587890625</AltitudeMeters>
            <DistanceMeters>NAN</DistanceMeters>
          </Trackpoint>
          <Trackpoint>
            <Time>2022-09-24T16:34:33.000Z</Time>
            <Position>
              <LatitudeDegrees>43.3583403937518596649169921875</LatitudeDegrees>
              <LongitudeDegrees>-2.95556056313216686248779296875</LongitudeDegrees>
            </Position>
            <AltitudeMeters>78.40000152587890625</AltitudeMeters>
            <DistanceMeters>NAN</DistanceMeters>
          </Trackpoint>
          <Trackpoint>
            <Time>2022-09-24T16:34:34.000Z</Time>
            <Position>
              <LatitudeDegrees>43.358303345739841461181640625</LatitudeDegrees>
              <LongitudeDegrees>-2.95550088398158550262451171875</LongitudeDegrees>
            </Position>
            <AltitudeMeters>78.40000152587890625</AltitudeMeters>
            <DistanceMeters>NAN</DistanceMeters>
          </Trackpoint>
          <Trackpoint>
            <Time>2022-09-24T16:34:35.000Z</Time>
            <Position>
              <LatitudeDegrees>43.358283229172229766845703125</LatitudeDegrees>
              <LongitudeDegrees>-2.95545495115220546722412109375</LongitudeDegrees>
            </Position>
            <AltitudeMeters>78.59999847412109375</AltitudeMeters>
            <DistanceMeters>NAN</DistanceMeters>
          </Trackpoint>
          <Trackpoint>
            <Time>2022-09-24T16:34:36.000Z</Time>
            <Position>
              <LatitudeDegrees>43.3582548983395099639892578125</LatitudeDegrees>
              <LongitudeDegrees>-2.9553933441638946533203125</LongitudeDegrees>
            </Position>
            <AltitudeMeters>78.59999847412109375</AltitudeMeters>
            <DistanceMeters>NAN</DistanceMeters>
          </Trackpoint>
          <Trackpoint>
            <Time>2022-09-24T16:34:37.000Z</Time>
            <Position>
              <LatitudeDegrees>43.35822748951613903045654296875</LatitudeDegrees>
              <LongitudeDegrees>-2.9553308151662349700927734375</LongitudeDegrees>
            </Position>
            <AltitudeMeters>78.59999847412109375</AltitudeMeters>
            <DistanceMeters>NAN</DistanceMeters>
          </Trackpoint>
          <Trackpoint>
            <Time>2022-09-24T16:34:38.000Z</Time>
            <Position>
              <LatitudeDegrees>43.3582025952637195587158203125</LatitudeDegrees>
              <LongitudeDegrees>-2.95527054928243160247802734375</LongitudeDegrees>
            </Position>
            <AltitudeMeters>78.59999847412109375</AltitudeMeters>
            <DistanceMeters>NAN</DistanceMeters>
          </Trackpoint>
          <Trackpoint>
            <Time>2022-09-24T16:34:39.000Z</Time>
            <Position>
              <LatitudeDegrees>43.358176611363887786865234375</LatitudeDegrees>
              <LongitudeDegrees>-2.95520626008510589599609375</LongitudeDegrees>
            </Position>
            <AltitudeMeters>78.59999847412109375</AltitudeMeters>
            <DistanceMeters>NAN</DistanceMeters>
          </Trackpoint>
          <Trackpoint>
            <Time>2022-09-24T16:34:40.000Z</Time>
            <Position>
              <LatitudeDegrees>43.3581502921879291534423828125</LatitudeDegrees>
              <LongitudeDegrees>-2.9551353491842746734619140625</LongitudeDegrees>
            </Position>
            <AltitudeMeters>78.59999847412109375</AltitudeMeters>
            <DistanceMeters>NAN</DistanceMeters>
          </Trackpoint>
          <Trackpoint>
            <Time>2022-09-24T16:34:41.000Z</Time>
            <Position>
              <LatitudeDegrees>43.35812187753617763519287109375</LatitudeDegrees>
              <LongitudeDegrees>-2.9550652764737606048583984375</LongitudeDegrees>
            </Position>
            <AltitudeMeters>78.59999847412109375</AltitudeMeters>
            <DistanceMeters>NAN</DistanceMeters>
          </Trackpoint>
          <Trackpoint>
            <Time>2022-09-24T16:34:42.000Z</Time>
            <Position>
              <LatitudeDegrees>43.3580946363508701324462890625</LatitudeDegrees>
              <LongitudeDegrees>-2.9549962095916271209716796875</LongitudeDegrees>
            </Position>
            <AltitudeMeters>78.59999847412109375</AltitudeMeters>
            <DistanceMeters>NAN</DistanceMeters>
          </Trackpoint>
          <Trackpoint>
            <Time>2022-09-24T16:34:43.000Z</Time>
            <Position>
              <LatitudeDegrees>43.35806605406105518341064453125</LatitudeDegrees>
              <LongitudeDegrees>-2.95492873527109622955322265625</LongitudeDegrees>
            </Position>
            <AltitudeMeters>78.59999847412109375</AltitudeMeters>
            <DistanceMeters>NAN</DistanceMeters>
          </Trackpoint>
          <Trackpoint>
            <Time>2022-09-24T16:34:44.000Z</Time>
            <Position>
              <LatitudeDegrees>43.35803420282900333404541015625</LatitudeDegrees>
              <LongitudeDegrees>-2.95486419461667537689208984375</LongitudeDegrees>
            </Position>
            <AltitudeMeters>78.59999847412109375</AltitudeMeters>
            <DistanceMeters>NAN</DistanceMeters>
          </Trackpoint>
          <Trackpoint>
            <Time>2022-09-24T16:34:45.000Z</Time>
            <Position>
              <LatitudeDegrees>43.35800193250179290771484375</LatitudeDegrees>
              <LongitudeDegrees>-2.95480451546609401702880859375</LongitudeDegrees>
            </Position>
            <AltitudeMeters>78.59999847412109375</AltitudeMeters>
            <DistanceMeters>NAN</DistanceMeters>
          </Trackpoint>
          <Trackpoint>
            <Time>2022-09-24T16:34:46.000Z</Time>
            <Position>
              <LatitudeDegrees>43.35796480067074298858642578125</LatitudeDegrees>
              <LongitudeDegrees>-2.95474223792552947998046875</LongitudeDegrees>
            </Position>
            <AltitudeMeters>79</AltitudeMeters>
            <DistanceMeters>NAN</DistanceMeters>
          </Trackpoint>
          <Trackpoint>
            <Time>2022-09-24T16:34:47.000Z</Time>
            <Position>
              <LatitudeDegrees>43.357920460402965545654296875</LatitudeDegrees>
              <LongitudeDegrees>-2.95468817465007305145263671875</LongitudeDegrees>
            </Position>
            <AltitudeMeters>79</AltitudeMeters>
            <DistanceMeters>NAN</DistanceMeters>
          </Trackpoint>
          <Trackpoint>
            <Time>2022-09-24T16:34:48.000Z</Time>
            <Position>
              <LatitudeDegrees>43.3578700013458728790283203125</LatitudeDegrees>
              <LongitudeDegrees>-2.95465079136192798614501953125</LongitudeDegrees>
            </Position>
            <AltitudeMeters>79</AltitudeMeters>
            <DistanceMeters>NAN</DistanceMeters>
          </Trackpoint>
          <Trackpoint>
            <Time>2022-09-24T16:34:49.000Z</Time>
            <Position>
              <LatitudeDegrees>43.357816524803638458251953125</LatitudeDegrees>
              <LongitudeDegrees>-2.954627908766269683837890625</LongitudeDegrees>
            </Position>
            <AltitudeMeters>79.1999969482421875</AltitudeMeters>
            <DistanceMeters>NAN</DistanceMeters>
          </Trackpoint>
          <Trackpoint>
            <Time>2022-09-24T16:34:50.000Z</Time>
            <Position>
              <LatitudeDegrees>43.35776053369045257568359375</LatitudeDegrees>
              <LongitudeDegrees>-2.95462111942470073699951171875</LongitudeDegrees>
            </Position>
            <AltitudeMeters>79.1999969482421875</AltitudeMeters>
            <DistanceMeters>NAN</DistanceMeters>
          </Trackpoint>
          <Trackpoint>
            <Time>2022-09-24T16:34:51.000Z</Time>
            <Position>
              <LatitudeDegrees>43.3577053807675838470458984375</LatitudeDegrees>
              <LongitudeDegrees>-2.95463352464139461517333984375</LongitudeDegrees>
            </Position>
            <AltitudeMeters>79.40000152587890625</AltitudeMeters>
            <DistanceMeters>NAN</DistanceMeters>
          </Trackpoint>
          <Trackpoint>
            <Time>2022-09-24T16:34:52.000Z</Time>
            <Position>
              <LatitudeDegrees>43.35765617899596691131591796875</LatitudeDegrees>
              <LongitudeDegrees>-2.9546646215021610260009765625</LongitudeDegrees>
            </Position>
            <AltitudeMeters>79.59999847412109375</AltitudeMeters>
            <DistanceMeters>NAN</DistanceMeters>
          </Trackpoint>
          <Trackpoint>
            <Time>2022-09-24T16:34:53.000Z</Time>
            <Position>
              <LatitudeDegrees>43.35761343128979206085205078125</LatitudeDegrees>
              <LongitudeDegrees>-2.95470141805708408355712890625</LongitudeDegrees>
            </Position>
            <AltitudeMeters>79.8000030517578125</AltitudeMeters>
            <DistanceMeters>NAN</DistanceMeters>
          </Trackpoint>
          <Trackpoint>
            <Time>2022-09-24T16:34:54.000Z</Time>
            <Position>
              <LatitudeDegrees>43.3575702644884586334228515625</LatitudeDegrees>
              <LongitudeDegrees>-2.95473947189748287200927734375</LongitudeDegrees>
            </Position>
            <AltitudeMeters>79.8000030517578125</AltitudeMeters>
            <DistanceMeters>NAN</DistanceMeters>
          </Trackpoint>
          <Trackpoint>
            <Time>2022-09-24T16:34:55.000Z</Time>
            <Position>
              <LatitudeDegrees>43.35752290673553943634033203125</LatitudeDegrees>
              <LongitudeDegrees>-2.9547719098627567291259765625</LongitudeDegrees>
            </Position>
            <AltitudeMeters>80</AltitudeMeters>
            <DistanceMeters>NAN</DistanceMeters>
          </Trackpoint>
          <Trackpoint>
            <Time>2022-09-24T16:34:56.000Z</Time>
            <Position>
              <LatitudeDegrees>43.35747010074555873870849609375</LatitudeDegrees>
              <LongitudeDegrees>-2.9547900147736072540283203125</LongitudeDegrees>
            </Position>
            <AltitudeMeters>80.1999969482421875</AltitudeMeters>
            <DistanceMeters>NAN</DistanceMeters>
          </Trackpoint>
          <Trackpoint>
            <Time>2022-09-24T16:34:57.000Z</Time>
            <Position>
              <LatitudeDegrees>43.3574123494327068328857421875</LatitudeDegrees>
              <LongitudeDegrees>-2.95479026623070240020751953125</LongitudeDegrees>
            </Position>
            <AltitudeMeters>80.1999969482421875</AltitudeMeters>
            <DistanceMeters>NAN</DistanceMeters>
          </Trackpoint>
          <Trackpoint>
            <Time>2022-09-24T16:34:58.000Z</Time>
            <Position>
              <LatitudeDegrees>43.35735820233821868896484375</LatitudeDegrees>
              <LongitudeDegrees>-2.9547662101686000823974609375</LongitudeDegrees>
            </Position>
            <AltitudeMeters>80.40000152587890625</AltitudeMeters>
            <DistanceMeters>NAN</DistanceMeters>
          </Trackpoint>
          <Trackpoint>
            <Time>2022-09-24T16:34:59.000Z</Time>
            <Position>
              <LatitudeDegrees>43.35735820233821868896484375</LatitudeDegrees>
              <LongitudeDegrees>-2.9547662101686000823974609375</LongitudeDegrees>
            </Position>
            <AltitudeMeters>80.40000152587890625</AltitudeMeters>
            <DistanceMeters>NAN</DistanceMeters>
          </Trackpoint>
          <Trackpoint>
            <Time>2022-09-24T16:35:00.000Z</Time>
            <Position>
              <LatitudeDegrees>43.35726960562169551849365234375</LatitudeDegrees>
              <LongitudeDegrees>-2.954680882394313812255859375</LongitudeDegrees>
            </Position>
            <AltitudeMeters>80.59999847412109375</AltitudeMeters>
            <DistanceMeters>NAN</DistanceMeters>
          </Trackpoint>
          <Trackpoint>
            <Time>2022-09-24T16:35:01.000Z</Time>
            <Position>
              <LatitudeDegrees>43.35724093951284885406494140625</LatitudeDegrees>
              <LongitudeDegrees>-2.95462145470082759857177734375</LongitudeDegrees>
            </Position>
            <AltitudeMeters>80.8000030517578125</AltitudeMeters>
            <DistanceMeters>NAN</DistanceMeters>
          </Trackpoint>
          <Trackpoint>
            <Time>2022-09-24T16:35:02.000Z</Time>
            <Position>
              <LatitudeDegrees>43.357218392193317413330078125</LatitudeDegrees>
              <LongitudeDegrees>-2.9545559920370578765869140625</LongitudeDegrees>
            </Position>
            <AltitudeMeters>80.8000030517578125</AltitudeMeters>
            <DistanceMeters>NAN</DistanceMeters>
          </Trackpoint>
          <Trackpoint>
            <Time>2022-09-24T16:35:03.000Z</Time>
            <Position>
              <LatitudeDegrees>43.35719592869281768798828125</LatitudeDegrees>
              <LongitudeDegrees>-2.95448885299265384674072265625</LongitudeDegrees>
            </Position>
            <AltitudeMeters>80.8000030517578125</AltitudeMeters>
            <DistanceMeters>NAN</DistanceMeters>
          </Trackpoint>
          <Trackpoint>
            <Time>2022-09-24T16:35:04.000Z</Time>
            <Position>
              <LatitudeDegrees>43.35716969333589076995849609375</LatitudeDegrees>
              <LongitudeDegrees>-2.95442280359566211700439453125</LongitudeDegrees>
            </Position>
            <AltitudeMeters>81</AltitudeMeters>
            <DistanceMeters>NAN</DistanceMeters>
          </Trackpoint>
          <Trackpoint>
            <Time>2022-09-24T16:35:05.000Z</Time>
            <Position>
              <LatitudeDegrees>43.35714085958898067474365234375</LatitudeDegrees>
              <LongitudeDegrees>-2.954359687864780426025390625</LongitudeDegrees>
            </Position>
            <AltitudeMeters>81</AltitudeMeters>
            <DistanceMeters>NAN</DistanceMeters>
          </Trackpoint>
          <Trackpoint>
            <Time>2022-09-24T16:35:06.000Z</Time>
            <Position>
              <LatitudeDegrees>43.3571080863475799560546875</LatitudeDegrees>
              <LongitudeDegrees>-2.95429958961904048919677734375</LongitudeDegrees>
            </Position>
            <AltitudeMeters>81</AltitudeMeters>
            <DistanceMeters>NAN</DistanceMeters>
          </Trackpoint>
          <Trackpoint>
            <Time>2022-09-24T16:35:07.000Z</Time>
            <Position>
              <LatitudeDegrees>43.357068859040737152099609375</LatitudeDegrees>
              <LongitudeDegrees>-2.9542453587055206298828125</LongitudeDegrees>
            </Position>
            <AltitudeMeters>81.1999969482421875</AltitudeMeters>
            <DistanceMeters>NAN</DistanceMeters>
          </Trackpoint>
          <Trackpoint>
            <Time>2022-09-24T16:35:08.000Z</Time>
            <Position>
              <LatitudeDegrees>43.35702694952487945556640625</LatitudeDegrees>
              <LongitudeDegrees>-2.954198084771633148193359375</LongitudeDegrees>
            </Position>
            <AltitudeMeters>81.40000152587890625</AltitudeMeters>
            <DistanceMeters>NAN</DistanceMeters>
          </Trackpoint>
          <Trackpoint>
            <Time>2022-09-24T16:35:09.000Z</Time>
            <Position>
              <LatitudeDegrees>43.3569788374006748199462890625</LatitudeDegrees>
              <LongitudeDegrees>-2.9541546665132045745849609375</LongitudeDegrees>
            </Position>
            <AltitudeMeters>81.40000152587890625</AltitudeMeters>
            <DistanceMeters>NAN</DistanceMeters>
          </Trackpoint>
          <Trackpoint>
            <Time>2022-09-24T16:35:10.000Z</Time>
            <Position>
              <LatitudeDegrees>43.35692862980067729949951171875</LatitudeDegrees>
              <LongitudeDegrees>-2.954119630157947540283203125</LongitudeDegrees>
            </Position>
            <AltitudeMeters>81.59999847412109375</AltitudeMeters>
            <DistanceMeters>NAN</DistanceMeters>
          </Trackpoint>
          <Trackpoint>
            <Time>2022-09-24T16:35:11.000Z</Time>
            <Position>
              <LatitudeDegrees>43.356875739991664886474609375</LatitudeDegrees>
              <LongitudeDegrees>-2.95409423299133777618408203125</LongitudeDegrees>
            </Position>
            <AltitudeMeters>81.59999847412109375</AltitudeMeters>
            <DistanceMeters>NAN</DistanceMeters>
          </Trackpoint>
          <Trackpoint>
            <Time>2022-09-24T16:35:12.000Z</Time>
            <Position>
              <LatitudeDegrees>43.35682586766779422760009765625</LatitudeDegrees>
              <LongitudeDegrees>-2.95408031903207302093505859375</LongitudeDegrees>
            </Position>
            <AltitudeMeters>82</AltitudeMeters>
            <DistanceMeters>NAN</DistanceMeters>
          </Trackpoint>
          <Trackpoint>
            <Time>2022-09-24T16:35:13.000Z</Time>
            <Position>
              <LatitudeDegrees>43.356773816049098968505859375</LatitudeDegrees>
              <LongitudeDegrees>-2.9540765471756458282470703125</LongitudeDegrees>
            </Position>
            <AltitudeMeters>82.1999969482421875</AltitudeMeters>
            <DistanceMeters>NAN</DistanceMeters>
          </Trackpoint>
          <Trackpoint>
            <Time>2022-09-24T16:35:14.000Z</Time>
            <Position>
              <LatitudeDegrees>43.3567220158874988555908203125</LatitudeDegrees>
              <LongitudeDegrees>-2.954081408679485321044921875</LongitudeDegrees>
            </Position>
            <AltitudeMeters>82.40000152587890625</AltitudeMeters>
            <DistanceMeters>NAN</DistanceMeters>
          </Trackpoint>
          <Trackpoint>
            <Time>2022-09-24T16:35:15.000Z</Time>
            <Position>
              <LatitudeDegrees>43.35667147301137447357177734375</LatitudeDegrees>
              <LongitudeDegrees>-2.95409758575260639190673828125</LongitudeDegrees>
            </Position>
            <AltitudeMeters>82.59999847412109375</AltitudeMeters>
            <DistanceMeters>NAN</DistanceMeters>
          </Trackpoint>
          <Trackpoint>
            <Time>2022-09-24T16:35:16.000Z</Time>
            <Position>
              <LatitudeDegrees>43.35662101395428180694580078125</LatitudeDegrees>
              <LongitudeDegrees>-2.95411988161504268646240234375</LongitudeDegrees>
            </Position>
            <AltitudeMeters>82.8000030517578125</AltitudeMeters>
            <DistanceMeters>NAN</DistanceMeters>
          </Trackpoint>
          <Trackpoint>
            <Time>2022-09-24T16:35:17.000Z</Time>
            <Position>
              <LatitudeDegrees>43.35657256655395030975341796875</LatitudeDegrees>
              <LongitudeDegrees>-2.95414821244776248931884765625</LongitudeDegrees>
            </Position>
            <AltitudeMeters>82.8000030517578125</AltitudeMeters>
            <DistanceMeters>NAN</DistanceMeters>
          </Trackpoint>
          <Trackpoint>
            <Time>2022-09-24T16:35:18.000Z</Time>
            <Position>
              <LatitudeDegrees>43.35652579553425312042236328125</LatitudeDegrees>
              <LongitudeDegrees>-2.9541781358420848846435546875</LongitudeDegrees>
            </Position>
            <AltitudeMeters>82.8000030517578125</AltitudeMeters>
            <DistanceMeters>NAN</DistanceMeters>
          </Trackpoint>
          <Trackpoint>
            <Time>2022-09-24T16:35:19.000Z</Time>
            <Position>
              <LatitudeDegrees>43.35647969506680965423583984375</LatitudeDegrees>
              <LongitudeDegrees>-2.95420772396028041839599609375</LongitudeDegrees>
            </Position>
            <AltitudeMeters>83</AltitudeMeters>
            <DistanceMeters>NAN</DistanceMeters>
          </Trackpoint>
          <Trackpoint>
            <Time>2022-09-24T16:35:20.000Z</Time>
            <Position>
              <LatitudeDegrees>43.356433175504207611083984375</LatitudeDegrees>
              <LongitudeDegrees>-2.954235635697841644287109375</LongitudeDegrees>
            </Position>
            <AltitudeMeters>83</AltitudeMeters>
            <DistanceMeters>NAN</DistanceMeters>
          </Trackpoint>
          <Trackpoint>
            <Time>2022-09-24T16:35:21.000Z</Time>
            <Position>
              <LatitudeDegrees>43.35638724267482757568359375</LatitudeDegrees>
              <LongitudeDegrees>-2.9542632959783077239990234375</LongitudeDegrees>
            </Position>
            <AltitudeMeters>83</AltitudeMeters>
            <DistanceMeters>NAN</DistanceMeters>
          </Trackpoint>
          <Trackpoint>
            <Time>2022-09-24T16:35:22.000Z</Time>
            <Position>
              <LatitudeDegrees>43.356340639293193817138671875</LatitudeDegrees>
              <LongitudeDegrees>-2.95429036952555179595947265625</LongitudeDegrees>
            </Position>
            <AltitudeMeters>83.40000152587890625</AltitudeMeters>
            <DistanceMeters>NAN</DistanceMeters>
          </Trackpoint>
          <Trackpoint>
            <Time>2022-09-24T16:35:23.000Z</Time>
            <Position>
              <LatitudeDegrees>43.3562928624451160430908203125</LatitudeDegrees>
              <LongitudeDegrees>-2.95431383885443210601806640625</LongitudeDegrees>
            </Position>
            <AltitudeMeters>83.40000152587890625</AltitudeMeters>
            <DistanceMeters>NAN</DistanceMeters>
          </Trackpoint>
          <Trackpoint>
            <Time>2022-09-24T16:35:24.000Z</Time>
            <Position>
              <LatitudeDegrees>43.35624433122575283050537109375</LatitudeDegrees>
              <LongitudeDegrees>-2.9543353803455829620361328125</LongitudeDegrees>
            </Position>
            <AltitudeMeters>83.59999847412109375</AltitudeMeters>
            <DistanceMeters>NAN</DistanceMeters>
          </Trackpoint>
          <Trackpoint>
            <Time>2022-09-24T16:35:25.000Z</Time>
            <Position>
              <LatitudeDegrees>43.356195129454135894775390625</LatitudeDegrees>
              <LongitudeDegrees>-2.9543578438460826873779296875</LongitudeDegrees>
            </Position>
            <AltitudeMeters>83.59999847412109375</AltitudeMeters>
            <DistanceMeters>NAN</DistanceMeters>
          </Trackpoint>
          <Trackpoint>
            <Time>2022-09-24T16:35:26.000Z</Time>
            <Position>
              <LatitudeDegrees>43.3561463467776775360107421875</LatitudeDegrees>
              <LongitudeDegrees>-2.95438148081302642822265625</LongitudeDegrees>
            </Position>
            <AltitudeMeters>83.8000030517578125</AltitudeMeters>
            <DistanceMeters>NAN</DistanceMeters>
          </Trackpoint>
          <Trackpoint>
            <Time>2022-09-24T16:35:27.000Z</Time>
            <Position>
              <LatitudeDegrees>43.356098234653472900390625</LatitudeDegrees>
              <LongitudeDegrees>-2.95440503396093845367431640625</LongitudeDegrees>
            </Position>
            <AltitudeMeters>84</AltitudeMeters>
            <DistanceMeters>NAN</DistanceMeters>
          </Trackpoint>
          <Trackpoint>
            <Time>2022-09-24T16:35:28.000Z</Time>
            <Position>
              <LatitudeDegrees>43.356050960719585418701171875</LatitudeDegrees>
              <LongitudeDegrees>-2.95442280359566211700439453125</LongitudeDegrees>
            </Position>
            <AltitudeMeters>84</AltitudeMeters>
            <DistanceMeters>NAN</DistanceMeters>
          </Trackpoint>
          <Trackpoint>
            <Time>2022-09-24T16:35:29.000Z</Time>
            <Position>
              <LatitudeDegrees>43.356004022061824798583984375</LatitudeDegrees>
              <LongitudeDegrees>-2.9544389806687831878662109375</LongitudeDegrees>
            </Position>
            <AltitudeMeters>84</AltitudeMeters>
            <DistanceMeters>NAN</DistanceMeters>
          </Trackpoint>
          <Trackpoint>
            <Time>2022-09-24T16:35:30.000Z</Time>
            <Position>
              <LatitudeDegrees>43.35595582611858844757080078125</LatitudeDegrees>
              <LongitudeDegrees>-2.954451553523540496826171875</LongitudeDegrees>
            </Position>
            <AltitudeMeters>84</AltitudeMeters>
            <DistanceMeters>NAN</DistanceMeters>
          </Trackpoint>
          <Trackpoint>
            <Time>2022-09-24T16:35:31.000Z</Time>
            <Position>
              <LatitudeDegrees>43.3559066243469715118408203125</LatitudeDegrees>
              <LongitudeDegrees>-2.9544590972363948822021484375</LongitudeDegrees>
            </Position>
            <AltitudeMeters>84.1999969482421875</AltitudeMeters>
            <DistanceMeters>NAN</DistanceMeters>
          </Trackpoint>
          <Trackpoint>
            <Time>2022-09-24T16:35:32.000Z</Time>
            <Position>
              <LatitudeDegrees>43.3558576740324497222900390625</LatitudeDegrees>
              <LongitudeDegrees>-2.95445867814123630523681640625</LongitudeDegrees>
            </Position>
            <AltitudeMeters>84.40000152587890625</AltitudeMeters>
            <DistanceMeters>NAN</DistanceMeters>
          </Trackpoint>
          <Trackpoint>
            <Time>2022-09-24T16:35:33.000Z</Time>
            <Position>
              <LatitudeDegrees>43.35580847226083278656005859375</LatitudeDegrees>
              <LongitudeDegrees>-2.95444912277162075042724609375</LongitudeDegrees>
            </Position>
            <AltitudeMeters>84.59999847412109375</AltitudeMeters>
            <DistanceMeters>NAN</DistanceMeters>
          </Trackpoint>
          <Trackpoint>
            <Time>2022-09-24T16:35:34.000Z</Time>
            <Position>
              <LatitudeDegrees>43.35576186887919902801513671875</LatitudeDegrees>
              <LongitudeDegrees>-2.95442632399499416351318359375</LongitudeDegrees>
            </Position>
            <AltitudeMeters>84.8000030517578125</AltitudeMeters>
            <DistanceMeters>NAN</DistanceMeters>
          </Trackpoint>
          <Trackpoint>
            <Time>2022-09-24T16:35:35.000Z</Time>
            <Position>
              <LatitudeDegrees>43.3557178638875484466552734375</LatitudeDegrees>
              <LongitudeDegrees>-2.95438776724040508270263671875</LongitudeDegrees>
            </Position>
            <AltitudeMeters>85</AltitudeMeters>
            <DistanceMeters>NAN</DistanceMeters>
          </Trackpoint>
          <Trackpoint>
            <Time>2022-09-24T16:35:36.000Z</Time>
            <Position>
              <LatitudeDegrees>43.3556819893419742584228515625</LatitudeDegrees>
              <LongitudeDegrees>-2.95433848164975643157958984375</LongitudeDegrees>
            </Position>
            <AltitudeMeters>85.1999969482421875</AltitudeMeters>
            <DistanceMeters>NAN</DistanceMeters>
          </Trackpoint>
          <Trackpoint>
            <Time>2022-09-24T16:35:37.000Z</Time>
            <Position>
              <LatitudeDegrees>43.3556819893419742584228515625</LatitudeDegrees>
              <LongitudeDegrees>-2.95433848164975643157958984375</LongitudeDegrees>
            </Position>
            <AltitudeMeters>85.40000152587890625</AltitudeMeters>
            <DistanceMeters>NAN</DistanceMeters>
          </Trackpoint>
          <Trackpoint>
            <Time>2022-09-24T16:35:38.000Z</Time>
            <Position>
              <LatitudeDegrees>43.3556447736918926239013671875</LatitudeDegrees>
              <LongitudeDegrees>-2.95421979390084743499755859375</LongitudeDegrees>
            </Position>
            <AltitudeMeters>85.59999847412109375</AltitudeMeters>
            <DistanceMeters>NAN</DistanceMeters>
          </Trackpoint>
          <Trackpoint>
            <Time>2022-09-24T16:35:39.000Z</Time>
            <Position>
              <LatitudeDegrees>43.355635888874530792236328125</LatitudeDegrees>
              <LongitudeDegrees>-2.9541487991809844970703125</LongitudeDegrees>
            </Position>
            <AltitudeMeters>85.59999847412109375</AltitudeMeters>
            <DistanceMeters>NAN</DistanceMeters>
          </Trackpoint>
          <Trackpoint>
            <Time>2022-09-24T16:35:40.000Z</Time>
            <Position>
              <LatitudeDegrees>43.35563278757035732269287109375</LatitudeDegrees>
              <LongitudeDegrees>-2.954072020947933197021484375</LongitudeDegrees>
            </Position>
            <AltitudeMeters>85.59999847412109375</AltitudeMeters>
            <DistanceMeters>NAN</DistanceMeters>
          </Trackpoint>
          <Trackpoint>
            <Time>2022-09-24T16:35:41.000Z</Time>
            <Position>
              <LatitudeDegrees>43.3556343801319599151611328125</LatitudeDegrees>
              <LongitudeDegrees>-2.9539940692484378814697265625</LongitudeDegrees>
            </Position>
            <AltitudeMeters>85.59999847412109375</AltitudeMeters>
            <DistanceMeters>NAN</DistanceMeters>
          </Trackpoint>
          <Trackpoint>
            <Time>2022-09-24T16:35:42.000Z</Time>
            <Position>
              <LatitudeDegrees>43.35563781671226024627685546875</LatitudeDegrees>
              <LongitudeDegrees>-2.95390664599835872650146484375</LongitudeDegrees>
            </Position>
            <AltitudeMeters>85.59999847412109375</AltitudeMeters>
            <DistanceMeters>NAN</DistanceMeters>
          </Trackpoint>
          <Trackpoint>
            <Time>2022-09-24T16:35:43.000Z</Time>
            <Position>
              <LatitudeDegrees>43.35564217530190944671630859375</LatitudeDegrees>
              <LongitudeDegrees>-2.95384629629552364349365234375</LongitudeDegrees>
            </Position>
            <AltitudeMeters>86.1999969482421875</AltitudeMeters>
            <DistanceMeters>NAN</DistanceMeters>
          </Trackpoint>
          <Trackpoint>
            <Time>2022-09-24T16:35:44.000Z</Time>
            <Position>
              <LatitudeDegrees>43.3556477911770343780517578125</LatitudeDegrees>
              <LongitudeDegrees>-2.95377069152891635894775390625</LongitudeDegrees>
            </Position>
            <AltitudeMeters>86.40000152587890625</AltitudeMeters>
            <DistanceMeters>NAN</DistanceMeters>
          </Trackpoint>
          <Trackpoint>
            <Time>2022-09-24T16:35:45.000Z</Time>
            <Position>
              <LatitudeDegrees>43.3556516468524932861328125</LatitudeDegrees>
              <LongitudeDegrees>-2.953695170581340789794921875</LongitudeDegrees>
            </Position>
            <AltitudeMeters>86.40000152587890625</AltitudeMeters>
            <DistanceMeters>NAN</DistanceMeters>
          </Trackpoint>
          <Trackpoint>
            <Time>2022-09-24T16:35:46.000Z</Time>
            <Position>
              <LatitudeDegrees>43.35565675981342792510986328125</LatitudeDegrees>
              <LongitudeDegrees>-2.9536172188818454742431640625</LongitudeDegrees>
            </Position>
            <AltitudeMeters>86.40000152587890625</AltitudeMeters>
            <DistanceMeters>NAN</DistanceMeters>
          </Trackpoint>
          <Trackpoint>
            <Time>2022-09-24T16:35:47.000Z</Time>
            <Position>
              <LatitudeDegrees>43.35566245950758457183837890625</LatitudeDegrees>
              <LongitudeDegrees>-2.95354085974395275115966796875</LongitudeDegrees>
            </Position>
            <AltitudeMeters>86.40000152587890625</AltitudeMeters>
            <DistanceMeters>NAN</DistanceMeters>
          </Trackpoint>
          <Trackpoint>
            <Time>2022-09-24T16:35:48.000Z</Time>
            <Position>
              <LatitudeDegrees>43.35566581226885318756103515625</LatitudeDegrees>
              <LongitudeDegrees>-2.9534676857292652130126953125</LongitudeDegrees>
            </Position>
            <AltitudeMeters>86.40000152587890625</AltitudeMeters>
            <DistanceMeters>NAN</DistanceMeters>
          </Trackpoint>
          <Trackpoint>
            <Time>2022-09-24T16:35:49.000Z</Time>
            <Position>
              <LatitudeDegrees>43.35566480644047260284423828125</LatitudeDegrees>
              <LongitudeDegrees>-2.953395433723926544189453125</LongitudeDegrees>
            </Position>
            <AltitudeMeters>86.59999847412109375</AltitudeMeters>
            <DistanceMeters>NAN</DistanceMeters>
          </Trackpoint>
          <Trackpoint>
            <Time>2022-09-24T16:35:50.000Z</Time>
            <Position>
              <LatitudeDegrees>43.35566061548888683319091796875</LatitudeDegrees>
              <LongitudeDegrees>-2.95331957750022411346435546875</LongitudeDegrees>
            </Position>
            <AltitudeMeters>86.59999847412109375</AltitudeMeters>
            <DistanceMeters>NAN</DistanceMeters>
          </Trackpoint>
          <Trackpoint>
            <Time>2022-09-24T16:35:51.000Z</Time>
            <Position>
              <LatitudeDegrees>43.3556474559009075164794921875</LatitudeDegrees>
              <LongitudeDegrees>-2.95324631966650485992431640625</LongitudeDegrees>
            </Position>
            <AltitudeMeters>87</AltitudeMeters>
            <DistanceMeters>NAN</DistanceMeters>
          </Trackpoint>
          <Trackpoint>
            <Time>2022-09-24T16:35:52.000Z</Time>
            <Position>
              <LatitudeDegrees>43.355627171695232391357421875</LatitudeDegrees>
              <LongitudeDegrees>-2.953175492584705352783203125</LongitudeDegrees>
            </Position>
            <AltitudeMeters>87</AltitudeMeters>
            <DistanceMeters>NAN</DistanceMeters>
          </Trackpoint>
          <Trackpoint>
            <Time>2022-09-24T16:35:53.000Z</Time>
            <Position>
              <LatitudeDegrees>43.35559691302478313446044921875</LatitudeDegrees>
              <LongitudeDegrees>-2.953109107911586761474609375</LongitudeDegrees>
            </Position>
            <AltitudeMeters>87.1999969482421875</AltitudeMeters>
            <DistanceMeters>NAN</DistanceMeters>
          </Trackpoint>
          <Trackpoint>
            <Time>2022-09-24T16:35:54.000Z</Time>
            <Position>
              <LatitudeDegrees>43.35556271485984325408935546875</LatitudeDegrees>
              <LongitudeDegrees>-2.95304976403713226318359375</LongitudeDegrees>
            </Position>
            <AltitudeMeters>87.1999969482421875</AltitudeMeters>
            <DistanceMeters>NAN</DistanceMeters>
          </Trackpoint>
          <Trackpoint>
            <Time>2022-09-24T16:35:55.000Z</Time>
            <Position>
              <LatitudeDegrees>43.3555230684578418731689453125</LatitudeDegrees>
              <LongitudeDegrees>-2.95300056226551532745361328125</LongitudeDegrees>
            </Position>
            <AltitudeMeters>87.40000152587890625</AltitudeMeters>
            <DistanceMeters>NAN</DistanceMeters>
          </Trackpoint>
          <Trackpoint>
            <Time>2022-09-24T16:35:56.000Z</Time>
            <Position>
              <LatitudeDegrees>43.35547788999974727630615234375</LatitudeDegrees>
              <LongitudeDegrees>-2.95295798219740390777587890625</LongitudeDegrees>
            </Position>
            <AltitudeMeters>87.40000152587890625</AltitudeMeters>
            <DistanceMeters>NAN</DistanceMeters>
          </Trackpoint>
          <Trackpoint>
            <Time>2022-09-24T16:35:57.000Z</Time>
            <Position>
              <LatitudeDegrees>43.35542793385684490203857421875</LatitudeDegrees>
              <LongitudeDegrees>-2.95292194001376628875732421875</LongitudeDegrees>
            </Position>
            <AltitudeMeters>87.59999847412109375</AltitudeMeters>
            <DistanceMeters>NAN</DistanceMeters>
          </Trackpoint>
          <Trackpoint>
            <Time>2022-09-24T16:35:58.000Z</Time>
            <Position>
              <LatitudeDegrees>43.3553762175142765045166015625</LatitudeDegrees>
              <LongitudeDegrees>-2.952896542847156524658203125</LongitudeDegrees>
            </Position>
            <AltitudeMeters>87.59999847412109375</AltitudeMeters>
            <DistanceMeters>NAN</DistanceMeters>
          </Trackpoint>
          <Trackpoint>
            <Time>2022-09-24T16:35:59.000Z</Time>
            <Position>
              <LatitudeDegrees>43.3553232438862323760986328125</LatitudeDegrees>
              <LongitudeDegrees>-2.952878773212432861328125</LongitudeDegrees>
            </Position>
            <AltitudeMeters>87.8000030517578125</AltitudeMeters>
            <DistanceMeters>NAN</DistanceMeters>
          </Trackpoint>
          <Trackpoint>
            <Time>2022-09-24T16:36:00.000Z</Time>
            <Position>
              <LatitudeDegrees>43.35527085699141025543212890625</LatitudeDegrees>
              <LongitudeDegrees>-2.95286829583346843719482421875</LongitudeDegrees>
            </Position>
            <AltitudeMeters>88</AltitudeMeters>
            <DistanceMeters>NAN</DistanceMeters>
          </Trackpoint>
          <Trackpoint>
            <Time>2022-09-24T16:36:01.000Z</Time>
            <Position>
              <LatitudeDegrees>43.355218134820461273193359375</LatitudeDegrees>
              <LongitudeDegrees>-2.9528638534247875213623046875</LongitudeDegrees>
            </Position>
            <AltitudeMeters>88</AltitudeMeters>
            <DistanceMeters>NAN</DistanceMeters>
          </Trackpoint>
          <Trackpoint>
            <Time>2022-09-24T16:36:02.000Z</Time>
            <Position>
              <LatitudeDegrees>43.35516524501144886016845703125</LatitudeDegrees>
              <LongitudeDegrees>-2.95286729000508785247802734375</LongitudeDegrees>
            </Position>
            <AltitudeMeters>88</AltitudeMeters>
            <DistanceMeters>NAN</DistanceMeters>
          </Trackpoint>
          <Trackpoint>
            <Time>2022-09-24T16:36:03.000Z</Time>
            <Position>
              <LatitudeDegrees>43.3551152050495147705078125</LatitudeDegrees>
              <LongitudeDegrees>-2.95287835411727428436279296875</LongitudeDegrees>
            </Position>
            <AltitudeMeters>88.1999969482421875</AltitudeMeters>
            <DistanceMeters>NAN</DistanceMeters>
          </Trackpoint>
          <Trackpoint>
            <Time>2022-09-24T16:36:04.000Z</Time>
            <Position>
              <LatitudeDegrees>43.35507555864751338958740234375</LatitudeDegrees>
              <LongitudeDegrees>-2.95289176516234874725341796875</LongitudeDegrees>
            </Position>
            <AltitudeMeters>88.1999969482421875</AltitudeMeters>
            <DistanceMeters>NAN</DistanceMeters>
          </Trackpoint>
          <Trackpoint>
            <Time>2022-09-24T16:36:05.000Z</Time>
            <Position>
              <LatitudeDegrees>43.35501738823950290679931640625</LatitudeDegrees>
              <LongitudeDegrees>-2.95291163027286529541015625</LongitudeDegrees>
            </Position>
            <AltitudeMeters>88.40000152587890625</AltitudeMeters>
            <DistanceMeters>NAN</DistanceMeters>
          </Trackpoint>
          <Trackpoint>
            <Time>2022-09-24T16:36:06.000Z</Time>
            <Position>
              <LatitudeDegrees>43.35496827028691768646240234375</LatitudeDegrees>
              <LongitudeDegrees>-2.95292646624147891998291015625</LongitudeDegrees>
            </Position>
            <AltitudeMeters>88.59999847412109375</AltitudeMeters>
            <DistanceMeters>NAN</DistanceMeters>
          </Trackpoint>
          <Trackpoint>
            <Time>2022-09-24T16:36:07.000Z</Time>
            <Position>
              <LatitudeDegrees>43.35492074489593505859375</LatitudeDegrees>
              <LongitudeDegrees>-2.95294356532394886016845703125</LongitudeDegrees>
            </Position>
            <AltitudeMeters>88.8000030517578125</AltitudeMeters>
            <DistanceMeters>NAN</DistanceMeters>
          </Trackpoint>
          <Trackpoint>
            <Time>2022-09-24T16:36:08.000Z</Time>
            <Position>
              <LatitudeDegrees>43.3548753149807453155517578125</LatitudeDegrees>
              <LongitudeDegrees>-2.95296049676835536956787109375</LongitudeDegrees>
            </Position>
            <AltitudeMeters>88.8000030517578125</AltitudeMeters>
            <DistanceMeters>NAN</DistanceMeters>
          </Trackpoint>
          <Trackpoint>
            <Time>2022-09-24T16:36:09.000Z</Time>
            <Position>
              <LatitudeDegrees>43.35482929833233356475830078125</LatitudeDegrees>
              <LongitudeDegrees>-2.9529775120317935943603515625</LongitudeDegrees>
            </Position>
            <AltitudeMeters>89</AltitudeMeters>
            <DistanceMeters>NAN</DistanceMeters>
          </Trackpoint>
          <Trackpoint>
            <Time>2022-09-24T16:36:10.000Z</Time>
            <Position>
              <LatitudeDegrees>43.35478168912231922149658203125</LatitudeDegrees>
              <LongitudeDegrees>-2.95299536548554897308349609375</LongitudeDegrees>
            </Position>
            <AltitudeMeters>89</AltitudeMeters>
            <DistanceMeters>NAN</DistanceMeters>
          </Trackpoint>
          <Trackpoint>
            <Time>2022-09-24T16:36:11.000Z</Time>
            <Position>
              <LatitudeDegrees>43.354733325541019439697265625</LatitudeDegrees>
              <LongitudeDegrees>-2.95301481150090694427490234375</LongitudeDegrees>
            </Position>
            <AltitudeMeters>89.1999969482421875</AltitudeMeters>
            <DistanceMeters>NAN</DistanceMeters>
          </Trackpoint>
          <Trackpoint>
            <Time>2022-09-24T16:36:12.000Z</Time>
            <Position>
              <LatitudeDegrees>43.35468630306422710418701171875</LatitudeDegrees>
              <LongitudeDegrees>-2.953033335506916046142578125</LongitudeDegrees>
            </Position>
            <AltitudeMeters>89.1999969482421875</AltitudeMeters>
            <DistanceMeters>NAN</DistanceMeters>
          </Trackpoint>
          <Trackpoint>
            <Time>2022-09-24T16:36:13.000Z</Time>
            <Position>
              <LatitudeDegrees>43.35468630306422710418701171875</LatitudeDegrees>
              <LongitudeDegrees>-2.953033335506916046142578125</LongitudeDegrees>
            </Position>
            <AltitudeMeters>89.1999969482421875</AltitudeMeters>
            <DistanceMeters>NAN</DistanceMeters>
          </Trackpoint>
          <Trackpoint>
            <Time>2022-09-24T16:36:14.000Z</Time>
            <Position>
              <LatitudeDegrees>43.35459695197641849517822265625</LatitudeDegrees>
              <LongitudeDegrees>-2.953058145940303802490234375</LongitudeDegrees>
            </Position>
            <AltitudeMeters>89.40000152587890625</AltitudeMeters>
            <DistanceMeters>NAN</DistanceMeters>
          </Trackpoint>
          <Trackpoint>
            <Time>2022-09-24T16:36:15.000Z</Time>
            <Position>
              <LatitudeDegrees>43.35453794337809085845947265625</LatitudeDegrees>
              <LongitudeDegrees>-2.953074909746646881103515625</LongitudeDegrees>
            </Position>
            <AltitudeMeters>89.59999847412109375</AltitudeMeters>
            <DistanceMeters>NAN</DistanceMeters>
          </Trackpoint>
          <Trackpoint>
            <Time>2022-09-24T16:36:16.000Z</Time>
            <Position>
              <LatitudeDegrees>43.35453794337809085845947265625</LatitudeDegrees>
              <LongitudeDegrees>-2.953074909746646881103515625</LongitudeDegrees>
            </Position>
            <AltitudeMeters>89.8000030517578125</AltitudeMeters>
            <DistanceMeters>NAN</DistanceMeters>
          </Trackpoint>
          <Trackpoint>
            <Time>2022-09-24T16:36:17.000Z</Time>
            <Position>
              <LatitudeDegrees>43.35444238968193531036376953125</LatitudeDegrees>
              <LongitudeDegrees>-2.95310072600841522216796875</LongitudeDegrees>
            </Position>
            <AltitudeMeters>89.8000030517578125</AltitudeMeters>
            <DistanceMeters>NAN</DistanceMeters>
          </Trackpoint>
          <Trackpoint>
            <Time>2022-09-24T16:36:18.000Z</Time>
            <Position>
              <LatitudeDegrees>43.354394026100635528564453125</LatitudeDegrees>
              <LongitudeDegrees>-2.9531069286167621612548828125</LongitudeDegrees>
            </Position>
            <AltitudeMeters>90.1999969482421875</AltitudeMeters>
            <DistanceMeters>NAN</DistanceMeters>
          </Trackpoint>
          <Trackpoint>
            <Time>2022-09-24T16:36:19.000Z</Time>
            <Position>
              <LatitudeDegrees>43.354345746338367462158203125</LatitudeDegrees>
              <LongitudeDegrees>-2.95311137102544307708740234375</LongitudeDegrees>
            </Position>
            <AltitudeMeters>90.1999969482421875</AltitudeMeters>
            <DistanceMeters>NAN</DistanceMeters>
          </Trackpoint>
          <Trackpoint>
            <Time>2022-09-24T16:36:20.000Z</Time>
            <Position>
              <LatitudeDegrees>43.35429721511900424957275390625</LatitudeDegrees>
              <LongitudeDegrees>-2.9531045816838741302490234375</LongitudeDegrees>
            </Position>
            <AltitudeMeters>90.1999969482421875</AltitudeMeters>
            <DistanceMeters>NAN</DistanceMeters>
          </Trackpoint>
          <Trackpoint>
            <Time>2022-09-24T16:36:21.000Z</Time>
            <Position>
              <LatitudeDegrees>43.35425329394638538360595703125</LatitudeDegrees>
              <LongitudeDegrees>-2.953074239194393157958984375</LongitudeDegrees>
            </Position>
            <AltitudeMeters>90.40000152587890625</AltitudeMeters>
            <DistanceMeters>NAN</DistanceMeters>
          </Trackpoint>
          <Trackpoint>
            <Time>2022-09-24T16:36:22.000Z</Time>
            <Position>
              <LatitudeDegrees>43.35421758703887462615966796875</LatitudeDegrees>
              <LongitudeDegrees>-2.95302922837436199188232421875</LongitudeDegrees>
            </Position>
            <AltitudeMeters>90.40000152587890625</AltitudeMeters>
            <DistanceMeters>NAN</DistanceMeters>
          </Trackpoint>
          <Trackpoint>
            <Time>2022-09-24T16:36:23.000Z</Time>
            <Position>
              <LatitudeDegrees>43.3541926927864551544189453125</LatitudeDegrees>
              <LongitudeDegrees>-2.95297005213797092437744140625</LongitudeDegrees>
            </Position>
            <AltitudeMeters>90.40000152587890625</AltitudeMeters>
            <DistanceMeters>NAN</DistanceMeters>
          </Trackpoint>
          <Trackpoint>
            <Time>2022-09-24T16:36:24.000Z</Time>
            <Position>
              <LatitudeDegrees>43.35418104194104671478271484375</LatitudeDegrees>
              <LongitudeDegrees>-2.952902577817440032958984375</LongitudeDegrees>
            </Position>
            <AltitudeMeters>90.59999847412109375</AltitudeMeters>
            <DistanceMeters>NAN</DistanceMeters>
          </Trackpoint>
          <Trackpoint>
            <Time>2022-09-24T16:36:25.000Z</Time>
            <Position>
              <LatitudeDegrees>43.35418112576007843017578125</LatitudeDegrees>
              <LongitudeDegrees>-2.9528323374688625335693359375</LongitudeDegrees>
            </Position>
            <AltitudeMeters>90.59999847412109375</AltitudeMeters>
            <DistanceMeters>NAN</DistanceMeters>
          </Trackpoint>
          <Trackpoint>
            <Time>2022-09-24T16:36:26.000Z</Time>
            <Position>
              <LatitudeDegrees>43.35418573580682277679443359375</LatitudeDegrees>
              <LongitudeDegrees>-2.95276813209056854248046875</LongitudeDegrees>
            </Position>
            <AltitudeMeters>90.59999847412109375</AltitudeMeters>
            <DistanceMeters>NAN</DistanceMeters>
          </Trackpoint>
          <Trackpoint>
            <Time>2022-09-24T16:36:27.000Z</Time>
            <Position>
              <LatitudeDegrees>43.354199230670928955078125</LatitudeDegrees>
              <LongitudeDegrees>-2.9527076147496700286865234375</LongitudeDegrees>
            </Position>
            <AltitudeMeters>90.59999847412109375</AltitudeMeters>
            <DistanceMeters>NAN</DistanceMeters>
          </Trackpoint>
          <Trackpoint>
            <Time>2022-09-24T16:36:28.000Z</Time>
            <Position>
              <LatitudeDegrees>43.35422404110431671142578125</LatitudeDegrees>
              <LongitudeDegrees>-2.952647767961025238037109375</LongitudeDegrees>
            </Position>
            <AltitudeMeters>90.59999847412109375</AltitudeMeters>
            <DistanceMeters>NAN</DistanceMeters>
          </Trackpoint>
          <Trackpoint>
            <Time>2022-09-24T16:36:29.000Z</Time>
            <Position>
              <LatitudeDegrees>43.35424977354705333709716796875</LatitudeDegrees>
              <LongitudeDegrees>-2.95259990729391574859619140625</LongitudeDegrees>
            </Position>
            <AltitudeMeters>90.59999847412109375</AltitudeMeters>
            <DistanceMeters>NAN</DistanceMeters>
          </Trackpoint>
          <Trackpoint>
            <Time>2022-09-24T16:36:30.000Z</Time>
            <Position>
              <LatitudeDegrees>43.3542838878929615020751953125</LatitudeDegrees>
              <LongitudeDegrees>-2.9525309242308139801025390625</LongitudeDegrees>
            </Position>
            <AltitudeMeters>91</AltitudeMeters>
            <DistanceMeters>NAN</DistanceMeters>
          </Trackpoint>
          <Trackpoint>
            <Time>2022-09-24T16:36:31.000Z</Time>
            <Position>
              <LatitudeDegrees>43.35431263782083988189697265625</LatitudeDegrees>
              <LongitudeDegrees>-2.95247367583215236663818359375</LongitudeDegrees>
            </Position>
            <AltitudeMeters>91</AltitudeMeters>
            <DistanceMeters>NAN</DistanceMeters>
          </Trackpoint>
          <Trackpoint>
            <Time>2022-09-24T16:36:32.000Z</Time>
            <Position>
              <LatitudeDegrees>43.35433376021683216094970703125</LatitudeDegrees>
              <LongitudeDegrees>-2.95241164974868297576904296875</LongitudeDegrees>
            </Position>
            <AltitudeMeters>91.1999969482421875</AltitudeMeters>
            <DistanceMeters>NAN</DistanceMeters>
          </Trackpoint>
          <Trackpoint>
            <Time>2022-09-24T16:36:33.000Z</Time>
            <Position>
              <LatitudeDegrees>43.35435454733669757843017578125</LatitudeDegrees>
              <LongitudeDegrees>-2.95235465280711650848388671875</LongitudeDegrees>
            </Position>
            <AltitudeMeters>91.40000152587890625</AltitudeMeters>
            <DistanceMeters>NAN</DistanceMeters>
          </Trackpoint>
          <Trackpoint>
            <Time>2022-09-24T16:36:34.000Z</Time>
            <Position>
              <LatitudeDegrees>43.35438170470297336578369140625</LatitudeDegrees>
              <LongitudeDegrees>-2.95230050571262836456298828125</LongitudeDegrees>
            </Position>
            <AltitudeMeters>91.40000152587890625</AltitudeMeters>
            <DistanceMeters>NAN</DistanceMeters>
          </Trackpoint>
          <Trackpoint>
            <Time>2022-09-24T16:36:35.000Z</Time>
            <Position>
              <LatitudeDegrees>43.3544072695076465606689453125</LatitudeDegrees>
              <LongitudeDegrees>-2.9522378928959369659423828125</LongitudeDegrees>
            </Position>
            <AltitudeMeters>91.59999847412109375</AltitudeMeters>
            <DistanceMeters>NAN</DistanceMeters>
          </Trackpoint>
          <Trackpoint>
            <Time>2022-09-24T16:36:36.000Z</Time>
            <Position>
              <LatitudeDegrees>43.35442914627492427825927734375</LatitudeDegrees>
              <LongitudeDegrees>-2.952167652547359466552734375</LongitudeDegrees>
            </Position>
            <AltitudeMeters>91.59999847412109375</AltitudeMeters>
            <DistanceMeters>NAN</DistanceMeters>
          </Trackpoint>
          <Trackpoint>
            <Time>2022-09-24T16:36:37.000Z</Time>
            <Position>
              <LatitudeDegrees>43.35444406606256961822509765625</LatitudeDegrees>
              <LongitudeDegrees>-2.952100932598114013671875</LongitudeDegrees>
            </Position>
            <AltitudeMeters>91.59999847412109375</AltitudeMeters>
            <DistanceMeters>NAN</DistanceMeters>
          </Trackpoint>
          <Trackpoint>
            <Time>2022-09-24T16:36:38.000Z</Time>
            <Position>
              <LatitudeDegrees>43.35444188676774501800537109375</LatitudeDegrees>
              <LongitudeDegrees>-2.95203127898275852203369140625</LongitudeDegrees>
            </Position>
            <AltitudeMeters>91.8000030517578125</AltitudeMeters>
            <DistanceMeters>NAN</DistanceMeters>
          </Trackpoint>
          <Trackpoint>
            <Time>2022-09-24T16:36:39.000Z</Time>
            <Position>
              <LatitudeDegrees>43.3544267155230045318603515625</LatitudeDegrees>
              <LongitudeDegrees>-2.95195944607257843017578125</LongitudeDegrees>
            </Position>
            <AltitudeMeters>91.8000030517578125</AltitudeMeters>
            <DistanceMeters>NAN</DistanceMeters>
          </Trackpoint>
          <Trackpoint>
            <Time>2022-09-24T16:36:40.000Z</Time>
            <Position>
              <LatitudeDegrees>43.354418836534023284912109375</LatitudeDegrees>
              <LongitudeDegrees>-2.95188694261014461517333984375</LongitudeDegrees>
            </Position>
            <AltitudeMeters>92.1999969482421875</AltitudeMeters>
            <DistanceMeters>NAN</DistanceMeters>
          </Trackpoint>
          <Trackpoint>
            <Time>2022-09-24T16:36:41.000Z</Time>
            <Position>
              <LatitudeDegrees>43.35440902970731258392333984375</LatitudeDegrees>
              <LongitudeDegrees>-2.951817624270915985107421875</LongitudeDegrees>
            </Position>
            <AltitudeMeters>92.1999969482421875</AltitudeMeters>
            <DistanceMeters>NAN</DistanceMeters>
          </Trackpoint>
          <Trackpoint>
            <Time>2022-09-24T16:36:42.000Z</Time>
            <Position>
              <LatitudeDegrees>43.3543982170522212982177734375</LatitudeDegrees>
              <LongitudeDegrees>-2.95175291597843170166015625</LongitudeDegrees>
            </Position>
            <AltitudeMeters>92.1999969482421875</AltitudeMeters>
            <DistanceMeters>NAN</DistanceMeters>
          </Trackpoint>
          <Trackpoint>
            <Time>2022-09-24T16:36:43.000Z</Time>
            <Position>
              <LatitudeDegrees>43.35438229143619537353515625</LatitudeDegrees>
              <LongitudeDegrees>-2.9516923986375331878662109375</LongitudeDegrees>
            </Position>
            <AltitudeMeters>92.40000152587890625</AltitudeMeters>
            <DistanceMeters>NAN</DistanceMeters>
          </Trackpoint>
          <Trackpoint>
            <Time>2022-09-24T16:36:44.000Z</Time>
            <Position>
              <LatitudeDegrees>43.35436628200113773345947265625</LatitudeDegrees>
              <LongitudeDegrees>-2.9516275227069854736328125</LongitudeDegrees>
            </Position>
            <AltitudeMeters>92.59999847412109375</AltitudeMeters>
            <DistanceMeters>NAN</DistanceMeters>
          </Trackpoint>
          <Trackpoint>
            <Time>2022-09-24T16:36:45.000Z</Time>
            <Position>
              <LatitudeDegrees>43.354349434375762939453125</LatitudeDegrees>
              <LongitudeDegrees>-2.95156038366258144378662109375</LongitudeDegrees>
            </Position>
            <AltitudeMeters>92.59999847412109375</AltitudeMeters>
            <DistanceMeters>NAN</DistanceMeters>
          </Trackpoint>
          <Trackpoint>
            <Time>2022-09-24T16:36:46.000Z</Time>
            <Position>
              <LatitudeDegrees>43.35431917570531368255615234375</LatitudeDegrees>
              <LongitudeDegrees>-2.95148628763854503631591796875</LongitudeDegrees>
            </Position>
            <AltitudeMeters>93</AltitudeMeters>
            <DistanceMeters>NAN</DistanceMeters>
          </Trackpoint>
          <Trackpoint>
            <Time>2022-09-24T16:36:47.000Z</Time>
            <Position>
              <LatitudeDegrees>43.35428430698812007904052734375</LatitudeDegrees>
              <LongitudeDegrees>-2.95142794959247112274169921875</LongitudeDegrees>
            </Position>
            <AltitudeMeters>93</AltitudeMeters>
            <DistanceMeters>NAN</DistanceMeters>
          </Trackpoint>
          <Trackpoint>
            <Time>2022-09-24T16:36:48.000Z</Time>
            <Position>
              <LatitudeDegrees>43.354247845709323883056640625</LatitudeDegrees>
              <LongitudeDegrees>-2.95137380249798297882080078125</LongitudeDegrees>
            </Position>
            <AltitudeMeters>93.1999969482421875</AltitudeMeters>
            <DistanceMeters>NAN</DistanceMeters>
          </Trackpoint>
          <Trackpoint>
            <Time>2022-09-24T16:36:49.000Z</Time>
            <Position>
              <LatitudeDegrees>43.354214318096637725830078125</LatitudeDegrees>
              <LongitudeDegrees>-2.95132334344089031219482421875</LongitudeDegrees>
            </Position>
            <AltitudeMeters>93.1999969482421875</AltitudeMeters>
            <DistanceMeters>NAN</DistanceMeters>
          </Trackpoint>
          <Trackpoint>
            <Time>2022-09-24T16:36:50.000Z</Time>
            <Position>
              <LatitudeDegrees>43.354180119931697845458984375</LatitudeDegrees>
              <LongitudeDegrees>-2.95127389021217823028564453125</LongitudeDegrees>
            </Position>
            <AltitudeMeters>93.1999969482421875</AltitudeMeters>
            <DistanceMeters>NAN</DistanceMeters>
          </Trackpoint>
          <Trackpoint>
            <Time>2022-09-24T16:36:51.000Z</Time>
            <Position>
              <LatitudeDegrees>43.3541481010615825653076171875</LatitudeDegrees>
              <LongitudeDegrees>-2.95123902149498462677001953125</LongitudeDegrees>
            </Position>
            <AltitudeMeters>93.59999847412109375</AltitudeMeters>
            <DistanceMeters>NAN</DistanceMeters>
          </Trackpoint>
          <Trackpoint>
            <Time>2022-09-24T16:36:52.000Z</Time>
            <Position>
              <LatitudeDegrees>43.3540964685380458831787109375</LatitudeDegrees>
              <LongitudeDegrees>-2.9511968605220317840576171875</LongitudeDegrees>
            </Position>
            <AltitudeMeters>93.59999847412109375</AltitudeMeters>
            <DistanceMeters>NAN</DistanceMeters>
          </Trackpoint>
          <Trackpoint>
            <Time>2022-09-24T16:36:53.000Z</Time>
            <Position>
              <LatitudeDegrees>43.35405145771801471710205078125</LatitudeDegrees>
              <LongitudeDegrees>-2.95117146335542201995849609375</LongitudeDegrees>
            </Position>
            <AltitudeMeters>93.8000030517578125</AltitudeMeters>
            <DistanceMeters>NAN</DistanceMeters>
          </Trackpoint>
          <Trackpoint>
            <Time>2022-09-24T16:36:54.000Z</Time>
            <Position>
              <LatitudeDegrees>43.35400544106960296630859375</LatitudeDegrees>
              <LongitudeDegrees>-2.95115067623555660247802734375</LongitudeDegrees>
            </Position>
            <AltitudeMeters>94</AltitudeMeters>
            <DistanceMeters>NAN</DistanceMeters>
          </Trackpoint>
          <Trackpoint>
            <Time>2022-09-24T16:36:55.000Z</Time>
            <Position>
              <LatitudeDegrees>43.3539549820125102996826171875</LatitudeDegrees>
              <LongitudeDegrees>-2.95113676227629184722900390625</LongitudeDegrees>
            </Position>
            <AltitudeMeters>94</AltitudeMeters>
            <DistanceMeters>NAN</DistanceMeters>
          </Trackpoint>
          <Trackpoint>
            <Time>2022-09-24T16:36:56.000Z</Time>
            <Position>
              <LatitudeDegrees>43.3539067022502422332763671875</LatitudeDegrees>
              <LongitudeDegrees>-2.951129637658596038818359375</LongitudeDegrees>
            </Position>
            <AltitudeMeters>94.1999969482421875</AltitudeMeters>
            <DistanceMeters>NAN</DistanceMeters>
          </Trackpoint>
          <Trackpoint>
            <Time>2022-09-24T16:36:57.000Z</Time>
            <Position>
              <LatitudeDegrees>43.35385900922119617462158203125</LatitudeDegrees>
              <LongitudeDegrees>-2.9511261172592639923095703125</LongitudeDegrees>
            </Position>
            <AltitudeMeters>94.59999847412109375</AltitudeMeters>
            <DistanceMeters>NAN</DistanceMeters>
          </Trackpoint>
          <Trackpoint>
            <Time>2022-09-24T16:36:58.000Z</Time>
            <Position>
              <LatitudeDegrees>43.3538098074495792388916015625</LatitudeDegrees>
              <LongitudeDegrees>-2.9511241056025028228759765625</LongitudeDegrees>
            </Position>
            <AltitudeMeters>94.59999847412109375</AltitudeMeters>
            <DistanceMeters>NAN</DistanceMeters>
          </Trackpoint>
          <Trackpoint>
            <Time>2022-09-24T16:36:59.000Z</Time>
            <Position>
              <LatitudeDegrees>43.3537564985454082489013671875</LatitudeDegrees>
              <LongitudeDegrees>-2.9511224292218685150146484375</LongitudeDegrees>
            </Position>
            <AltitudeMeters>94.59999847412109375</AltitudeMeters>
            <DistanceMeters>NAN</DistanceMeters>
          </Trackpoint>
          <Trackpoint>
            <Time>2022-09-24T16:37:00.000Z</Time>
            <Position>
              <LatitudeDegrees>43.35371266119182109832763671875</LatitudeDegrees>
              <LongitudeDegrees>-2.95112100429832935333251953125</LongitudeDegrees>
            </Position>
            <AltitudeMeters>94.59999847412109375</AltitudeMeters>
            <DistanceMeters>NAN</DistanceMeters>
          </Trackpoint>
          <Trackpoint>
            <Time>2022-09-24T16:37:01.000Z</Time>
            <Position>
              <LatitudeDegrees>43.35366203449666500091552734375</LatitudeDegrees>
              <LongitudeDegrees>-2.95112418942153453826904296875</LongitudeDegrees>
            </Position>
            <AltitudeMeters>94.8000030517578125</AltitudeMeters>
            <DistanceMeters>NAN</DistanceMeters>
          </Trackpoint>
          <Trackpoint>
            <Time>2022-09-24T16:37:02.000Z</Time>
            <Position>
              <LatitudeDegrees>43.3536126650869846343994140625</LatitudeDegrees>
              <LongitudeDegrees>-2.95112754218280315399169921875</LongitudeDegrees>
            </Position>
            <AltitudeMeters>94.8000030517578125</AltitudeMeters>
            <DistanceMeters>NAN</DistanceMeters>
          </Trackpoint>
          <Trackpoint>
            <Time>2022-09-24T16:37:03.000Z</Time>
            <Position>
              <LatitudeDegrees>43.353564552962779998779296875</LatitudeDegrees>
              <LongitudeDegrees>-2.95113324187695980072021484375</LongitudeDegrees>
            </Position>
            <AltitudeMeters>95</AltitudeMeters>
            <DistanceMeters>NAN</DistanceMeters>
          </Trackpoint>
          <Trackpoint>
            <Time>2022-09-24T16:37:04.000Z</Time>
            <Position>
              <LatitudeDegrees>43.35351250134408473968505859375</LatitudeDegrees>
              <LongitudeDegrees>-2.95113466680049896240234375</LongitudeDegrees>
            </Position>
            <AltitudeMeters>95</AltitudeMeters>
            <DistanceMeters>NAN</DistanceMeters>
          </Trackpoint>
          <Trackpoint>
            <Time>2022-09-24T16:37:05.000Z</Time>
            <Position>
              <LatitudeDegrees>43.35346388630568981170654296875</LatitudeDegrees>
              <LongitudeDegrees>-2.95113659463822841644287109375</LongitudeDegrees>
            </Position>
            <AltitudeMeters>95</AltitudeMeters>
            <DistanceMeters>NAN</DistanceMeters>
          </Trackpoint>
          <Trackpoint>
            <Time>2022-09-24T16:37:06.000Z</Time>
            <Position>
              <LatitudeDegrees>43.353410661220550537109375</LatitudeDegrees>
              <LongitudeDegrees>-2.95113458298146724700927734375</LongitudeDegrees>
            </Position>
            <AltitudeMeters>95.1999969482421875</AltitudeMeters>
            <DistanceMeters>NAN</DistanceMeters>
          </Trackpoint>
          <Trackpoint>
            <Time>2022-09-24T16:37:07.000Z</Time>
            <Position>
              <LatitudeDegrees>43.353358022868633270263671875</LatitudeDegrees>
              <LongitudeDegrees>-2.95113022439181804656982421875</LongitudeDegrees>
            </Position>
            <AltitudeMeters>95.40000152587890625</AltitudeMeters>
            <DistanceMeters>NAN</DistanceMeters>
          </Trackpoint>
          <Trackpoint>
            <Time>2022-09-24T16:37:08.000Z</Time>
            <Position>
              <LatitudeDegrees>43.35330815054476261138916015625</LatitudeDegrees>
              <LongitudeDegrees>-2.95112536288797855377197265625</LongitudeDegrees>
            </Position>
            <AltitudeMeters>95.40000152587890625</AltitudeMeters>
            <DistanceMeters>NAN</DistanceMeters>
          </Trackpoint>
          <Trackpoint>
            <Time>2022-09-24T16:37:09.000Z</Time>
            <Position>
              <LatitudeDegrees>43.3532572723925113677978515625</LatitudeDegrees>
              <LongitudeDegrees>-2.95111320912837982177734375</LongitudeDegrees>
            </Position>
            <AltitudeMeters>95.40000152587890625</AltitudeMeters>
            <DistanceMeters>NAN</DistanceMeters>
          </Trackpoint>
          <Trackpoint>
            <Time>2022-09-24T16:37:10.000Z</Time>
            <Position>
              <LatitudeDegrees>43.3531972579658031463623046875</LatitudeDegrees>
              <LongitudeDegrees>-2.95109434984624385833740234375</LongitudeDegrees>
            </Position>
            <AltitudeMeters>95.40000152587890625</AltitudeMeters>
            <DistanceMeters>NAN</DistanceMeters>
          </Trackpoint>
          <Trackpoint>
            <Time>2022-09-24T16:37:11.000Z</Time>
            <Position>
              <LatitudeDegrees>43.35314805619418621063232421875</LatitudeDegrees>
              <LongitudeDegrees>-2.95107104815542697906494140625</LongitudeDegrees>
            </Position>
            <AltitudeMeters>95.8000030517578125</AltitudeMeters>
            <DistanceMeters>NAN</DistanceMeters>
          </Trackpoint>
          <Trackpoint>
            <Time>2022-09-24T16:37:12.000Z</Time>
            <Position>
              <LatitudeDegrees>43.35310128517448902130126953125</LatitudeDegrees>
              <LongitudeDegrees>-2.95103684999048709869384765625</LongitudeDegrees>
            </Position>
            <AltitudeMeters>96</AltitudeMeters>
            <DistanceMeters>NAN</DistanceMeters>
          </Trackpoint>
          <Trackpoint>
            <Time>2022-09-24T16:37:13.000Z</Time>
            <Position>
              <LatitudeDegrees>43.3530608005821704864501953125</LatitudeDegrees>
              <LongitudeDegrees>-2.95099041424691677093505859375</LongitudeDegrees>
            </Position>
            <AltitudeMeters>96</AltitudeMeters>
            <DistanceMeters>NAN</DistanceMeters>
          </Trackpoint>
          <Trackpoint>
            <Time>2022-09-24T16:37:14.000Z</Time>
            <Position>
              <LatitudeDegrees>43.35303707979619503021240234375</LatitudeDegrees>
              <LongitudeDegrees>-2.9509293101727962493896484375</LongitudeDegrees>
            </Position>
            <AltitudeMeters>96</AltitudeMeters>
            <DistanceMeters>NAN</DistanceMeters>
          </Trackpoint>
          <Trackpoint>
            <Time>2022-09-24T16:37:15.000Z</Time>
            <Position>
              <LatitudeDegrees>43.35303825326263904571533203125</LatitudeDegrees>
              <LongitudeDegrees>-2.95085613615810871124267578125</LongitudeDegrees>
            </Position>
            <AltitudeMeters>96.1999969482421875</AltitudeMeters>
            <DistanceMeters>NAN</DistanceMeters>
          </Trackpoint>
          <Trackpoint>
            <Time>2022-09-24T16:37:16.000Z</Time>
            <Position>
              <LatitudeDegrees>43.3530443720519542694091796875</LatitudeDegrees>
              <LongitudeDegrees>-2.950786650180816650390625</LongitudeDegrees>
            </Position>
            <AltitudeMeters>96.1999969482421875</AltitudeMeters>
            <DistanceMeters>NAN</DistanceMeters>
          </Trackpoint>
          <Trackpoint>
            <Time>2022-09-24T16:37:17.000Z</Time>
            <Position>
              <LatitudeDegrees>43.353057615458965301513671875</LatitudeDegrees>
              <LongitudeDegrees>-2.9507194273173809051513671875</LongitudeDegrees>
            </Position>
            <AltitudeMeters>96.1999969482421875</AltitudeMeters>
            <DistanceMeters>NAN</DistanceMeters>
          </Trackpoint>
          <Trackpoint>
            <Time>2022-09-24T16:37:18.000Z</Time>
            <Position>
              <LatitudeDegrees>43.35308100096881389617919921875</LatitudeDegrees>
              <LongitudeDegrees>-2.95065145008265972137451171875</LongitudeDegrees>
            </Position>
            <AltitudeMeters>96.1999969482421875</AltitudeMeters>
            <DistanceMeters>NAN</DistanceMeters>
          </Trackpoint>
          <Trackpoint>
            <Time>2022-09-24T16:37:19.000Z</Time>
            <Position>
              <LatitudeDegrees>43.35310648195445537567138671875</LatitudeDegrees>
              <LongitudeDegrees>-2.950585149228572845458984375</LongitudeDegrees>
            </Position>
            <AltitudeMeters>96.1999969482421875</AltitudeMeters>
            <DistanceMeters>NAN</DistanceMeters>
          </Trackpoint>
          <Trackpoint>
            <Time>2022-09-24T16:37:20.000Z</Time>
            <Position>
              <LatitudeDegrees>43.3531302027404308319091796875</LatitudeDegrees>
              <LongitudeDegrees>-2.95052044093608856201171875</LongitudeDegrees>
            </Position>
            <AltitudeMeters>96.40000152587890625</AltitudeMeters>
            <DistanceMeters>NAN</DistanceMeters>
          </Trackpoint>
          <Trackpoint>
            <Time>2022-09-24T16:37:21.000Z</Time>
            <Position>
              <LatitudeDegrees>43.3531556837260723114013671875</LatitudeDegrees>
              <LongitudeDegrees>-2.9504498653113842010498046875</LongitudeDegrees>
            </Position>
            <AltitudeMeters>96.59999847412109375</AltitudeMeters>
            <DistanceMeters>NAN</DistanceMeters>
          </Trackpoint>
          <Trackpoint>
            <Time>2022-09-24T16:37:22.000Z</Time>
            <Position>
              <LatitudeDegrees>43.3531556837260723114013671875</LatitudeDegrees>
              <LongitudeDegrees>-2.9504498653113842010498046875</LongitudeDegrees>
            </Position>
            <AltitudeMeters>96.59999847412109375</AltitudeMeters>
            <DistanceMeters>NAN</DistanceMeters>
          </Trackpoint>
          <Trackpoint>
            <Time>2022-09-24T16:37:23.000Z</Time>
            <Position>
              <LatitudeDegrees>43.353187702596187591552734375</LatitudeDegrees>
              <LongitudeDegrees>-2.9503355361521244049072265625</LongitudeDegrees>
            </Position>
            <AltitudeMeters>96.8000030517578125</AltitudeMeters>
            <DistanceMeters>NAN</DistanceMeters>
          </Trackpoint>
          <Trackpoint>
            <Time>2022-09-24T16:37:24.000Z</Time>
            <Position>
              <LatitudeDegrees>43.3532027900218963623046875</LatitudeDegrees>
              <LongitudeDegrees>-2.9502515494823455810546875</LongitudeDegrees>
            </Position>
            <AltitudeMeters>96.8000030517578125</AltitudeMeters>
            <DistanceMeters>NAN</DistanceMeters>
          </Trackpoint>
          <Trackpoint>
            <Time>2022-09-24T16:37:25.000Z</Time>
            <Position>
              <LatitudeDegrees>43.35320404730737209320068359375</LatitudeDegrees>
              <LongitudeDegrees>-2.9501950554549694061279296875</LongitudeDegrees>
            </Position>
            <AltitudeMeters>96.8000030517578125</AltitudeMeters>
            <DistanceMeters>NAN</DistanceMeters>
          </Trackpoint>
          <Trackpoint>
            <Time>2022-09-24T16:37:26.000Z</Time>
            <Position>
              <LatitudeDegrees>43.3532002754509449005126953125</LatitudeDegrees>
              <LongitudeDegrees>-2.95010645873844623565673828125</LongitudeDegrees>
            </Position>
            <AltitudeMeters>97.1999969482421875</AltitudeMeters>
            <DistanceMeters>NAN</DistanceMeters>
          </Trackpoint>
          <Trackpoint>
            <Time>2022-09-24T16:37:27.000Z</Time>
            <Position>
              <LatitudeDegrees>43.3531955815851688385009765625</LatitudeDegrees>
              <LongitudeDegrees>-2.95004460029304027557373046875</LongitudeDegrees>
            </Position>
            <AltitudeMeters>97.59999847412109375</AltitudeMeters>
            <DistanceMeters>NAN</DistanceMeters>
          </Trackpoint>
          <Trackpoint>
            <Time>2022-09-24T16:37:28.000Z</Time>
            <Position>
              <LatitudeDegrees>43.35317839868366718292236328125</LatitudeDegrees>
              <LongitudeDegrees>-2.9499617032706737518310546875</LongitudeDegrees>
            </Position>
            <AltitudeMeters>97.59999847412109375</AltitudeMeters>
            <DistanceMeters>NAN</DistanceMeters>
          </Trackpoint>
          <Trackpoint>
            <Time>2022-09-24T16:37:29.000Z</Time>
            <Position>
              <LatitudeDegrees>43.35315576754510402679443359375</LatitudeDegrees>
              <LongitudeDegrees>-2.94989188201725482940673828125</LongitudeDegrees>
            </Position>
            <AltitudeMeters>97.59999847412109375</AltitudeMeters>
            <DistanceMeters>NAN</DistanceMeters>
          </Trackpoint>
          <Trackpoint>
            <Time>2022-09-24T16:37:30.000Z</Time>
            <Position>
              <LatitudeDegrees>43.35312576033174991607666015625</LatitudeDegrees>
              <LongitudeDegrees>-2.9498228989541530609130859375</LongitudeDegrees>
            </Position>
            <AltitudeMeters>97.59999847412109375</AltitudeMeters>
            <DistanceMeters>NAN</DistanceMeters>
          </Trackpoint>
          <Trackpoint>
            <Time>2022-09-24T16:37:31.000Z</Time>
            <Position>
              <LatitudeDegrees>43.3530936576426029205322265625</LatitudeDegrees>
              <LongitudeDegrees>-2.94975743629038333892822265625</LongitudeDegrees>
            </Position>
            <AltitudeMeters>97.59999847412109375</AltitudeMeters>
            <DistanceMeters>NAN</DistanceMeters>
          </Trackpoint>
          <Trackpoint>
            <Time>2022-09-24T16:37:32.000Z</Time>
            <Position>
              <LatitudeDegrees>43.35306105203926563262939453125</LatitudeDegrees>
              <LongitudeDegrees>-2.94969725422561168670654296875</LongitudeDegrees>
            </Position>
            <AltitudeMeters>97.59999847412109375</AltitudeMeters>
            <DistanceMeters>NAN</DistanceMeters>
          </Trackpoint>
          <Trackpoint>
            <Time>2022-09-24T16:37:33.000Z</Time>
            <Position>
              <LatitudeDegrees>43.35302417166531085968017578125</LatitudeDegrees>
              <LongitudeDegrees>-2.94963975436985492706298828125</LongitudeDegrees>
            </Position>
            <AltitudeMeters>97.8000030517578125</AltitudeMeters>
            <DistanceMeters>NAN</DistanceMeters>
          </Trackpoint>
          <Trackpoint>
            <Time>2022-09-24T16:37:34.000Z</Time>
            <Position>
              <LatitudeDegrees>43.352986536920070648193359375</LatitudeDegrees>
              <LongitudeDegrees>-2.94958493672311305999755859375</LongitudeDegrees>
            </Position>
            <AltitudeMeters>97.8000030517578125</AltitudeMeters>
            <DistanceMeters>NAN</DistanceMeters>
          </Trackpoint>
          <Trackpoint>
            <Time>2022-09-24T16:37:35.000Z</Time>
            <Position>
              <LatitudeDegrees>43.3529461361467838287353515625</LatitudeDegrees>
              <LongitudeDegrees>-2.9495352320373058319091796875</LongitudeDegrees>
            </Position>
            <AltitudeMeters>98.1999969482421875</AltitudeMeters>
            <DistanceMeters>NAN</DistanceMeters>
          </Trackpoint>
          <Trackpoint>
            <Time>2022-09-24T16:37:36.000Z</Time>
            <Position>
              <LatitudeDegrees>43.35290363989770412445068359375</LatitudeDegrees>
              <LongitudeDegrees>-2.9494924843311309814453125</LongitudeDegrees>
            </Position>
            <AltitudeMeters>98.40000152587890625</AltitudeMeters>
            <DistanceMeters>NAN</DistanceMeters>
          </Trackpoint>
          <Trackpoint>
            <Time>2022-09-24T16:37:37.000Z</Time>
            <Position>
              <LatitudeDegrees>43.35286173038184642791748046875</LatitudeDegrees>
              <LongitudeDegrees>-2.94945560395717620849609375</LongitudeDegrees>
            </Position>
            <AltitudeMeters>98.8000030517578125</AltitudeMeters>
            <DistanceMeters>NAN</DistanceMeters>
          </Trackpoint>
          <Trackpoint>
            <Time>2022-09-24T16:37:38.000Z</Time>
            <Position>
              <LatitudeDegrees>43.352820910513401031494140625</LatitudeDegrees>
              <LongitudeDegrees>-2.94942073523998260498046875</LongitudeDegrees>
            </Position>
            <AltitudeMeters>99</AltitudeMeters>
            <DistanceMeters>NAN</DistanceMeters>
          </Trackpoint>
          <Trackpoint>
            <Time>2022-09-24T16:37:39.000Z</Time>
            <Position>
              <LatitudeDegrees>43.3527788333594799041748046875</LatitudeDegrees>
              <LongitudeDegrees>-2.94938393868505954742431640625</LongitudeDegrees>
            </Position>
            <AltitudeMeters>99</AltitudeMeters>
            <DistanceMeters>NAN</DistanceMeters>
          </Trackpoint>
          <Trackpoint>
            <Time>2022-09-24T16:37:40.000Z</Time>
            <Position>
              <LatitudeDegrees>43.35273533128201961517333984375</LatitudeDegrees>
              <LongitudeDegrees>-2.94934655539691448211669921875</LongitudeDegrees>
            </Position>
            <AltitudeMeters>99</AltitudeMeters>
            <DistanceMeters>NAN</DistanceMeters>
          </Trackpoint>
          <Trackpoint>
            <Time>2022-09-24T16:37:41.000Z</Time>
            <Position>
              <LatitudeDegrees>43.35268688388168811798095703125</LatitudeDegrees>
              <LongitudeDegrees>-2.9493012093007564544677734375</LongitudeDegrees>
            </Position>
            <AltitudeMeters>99</AltitudeMeters>
            <DistanceMeters>NAN</DistanceMeters>
          </Trackpoint>
          <Trackpoint>
            <Time>2022-09-24T16:37:42.000Z</Time>
            <Position>
              <LatitudeDegrees>43.35265570320188999176025390625</LatitudeDegrees>
              <LongitudeDegrees>-2.949267514050006866455078125</LongitudeDegrees>
            </Position>
            <AltitudeMeters>99.1999969482421875</AltitudeMeters>
            <DistanceMeters>NAN</DistanceMeters>
          </Trackpoint>
          <Trackpoint>
            <Time>2022-09-24T16:37:43.000Z</Time>
            <Position>
              <LatitudeDegrees>43.3526148833334445953369140625</LatitudeDegrees>
              <LongitudeDegrees>-2.94921864755451679229736328125</LongitudeDegrees>
            </Position>
            <AltitudeMeters>99.40000152587890625</AltitudeMeters>
            <DistanceMeters>NAN</DistanceMeters>
          </Trackpoint>
          <Trackpoint>
            <Time>2022-09-24T16:37:44.000Z</Time>
            <Position>
              <LatitudeDegrees>43.35257708095014095306396484375</LatitudeDegrees>
              <LongitudeDegrees>-2.94916131533682346343994140625</LongitudeDegrees>
            </Position>
            <AltitudeMeters>99.40000152587890625</AltitudeMeters>
            <DistanceMeters>NAN</DistanceMeters>
          </Trackpoint>
          <Trackpoint>
            <Time>2022-09-24T16:37:45.000Z</Time>
            <Position>
              <LatitudeDegrees>43.352545313537120819091796875</LatitudeDegrees>
              <LongitudeDegrees>-2.9490997083485126495361328125</LongitudeDegrees>
            </Position>
            <AltitudeMeters>99.40000152587890625</AltitudeMeters>
            <DistanceMeters>NAN</DistanceMeters>
          </Trackpoint>
          <Trackpoint>
            <Time>2022-09-24T16:37:46.000Z</Time>
            <Position>
              <LatitudeDegrees>43.35251572541892528533935546875</LatitudeDegrees>
              <LongitudeDegrees>-2.94903726316988468170166015625</LongitudeDegrees>
            </Position>
            <AltitudeMeters>99.40000152587890625</AltitudeMeters>
            <DistanceMeters>NAN</DistanceMeters>
          </Trackpoint>
          <Trackpoint>
            <Time>2022-09-24T16:37:47.000Z</Time>
            <Position>
              <LatitudeDegrees>43.35248638875782489776611328125</LatitudeDegrees>
              <LongitudeDegrees>-2.94897439889609813690185546875</LongitudeDegrees>
            </Position>
            <AltitudeMeters>99.40000152587890625</AltitudeMeters>
            <DistanceMeters>NAN</DistanceMeters>
          </Trackpoint>
          <Trackpoint>
            <Time>2022-09-24T16:37:48.000Z</Time>
            <Position>
              <LatitudeDegrees>43.35245789028704166412353515625</LatitudeDegrees>
              <LongitudeDegrees>-2.94891589321196079254150390625</LongitudeDegrees>
            </Position>
            <AltitudeMeters>99.8000030517578125</AltitudeMeters>
            <DistanceMeters>NAN</DistanceMeters>
          </Trackpoint>
          <Trackpoint>
            <Time>2022-09-24T16:37:49.000Z</Time>
            <Position>
              <LatitudeDegrees>43.35242788307368755340576171875</LatitudeDegrees>
              <LongitudeDegrees>-2.94885688461363315582275390625</LongitudeDegrees>
            </Position>
            <AltitudeMeters>99.8000030517578125</AltitudeMeters>
            <DistanceMeters>NAN</DistanceMeters>
          </Trackpoint>
          <Trackpoint>
            <Time>2022-09-24T16:37:50.000Z</Time>
            <Position>
              <LatitudeDegrees>43.35239904932677745819091796875</LatitudeDegrees>
              <LongitudeDegrees>-2.94879569672048091888427734375</LongitudeDegrees>
            </Position>
            <AltitudeMeters>100</AltitudeMeters>
            <DistanceMeters>NAN</DistanceMeters>
          </Trackpoint>
          <Trackpoint>
            <Time>2022-09-24T16:37:51.000Z</Time>
            <Position>
              <LatitudeDegrees>43.35236920975148677825927734375</LatitudeDegrees>
              <LongitudeDegrees>-2.9487349279224872589111328125</LongitudeDegrees>
            </Position>
            <AltitudeMeters>100</AltitudeMeters>
            <DistanceMeters>NAN</DistanceMeters>
          </Trackpoint>
          <Trackpoint>
            <Time>2022-09-24T16:37:52.000Z</Time>
            <Position>
              <LatitudeDegrees>43.35233735851943492889404296875</LatitudeDegrees>
              <LongitudeDegrees>-2.948675416409969329833984375</LongitudeDegrees>
            </Position>
            <AltitudeMeters>100</AltitudeMeters>
            <DistanceMeters>NAN</DistanceMeters>
          </Trackpoint>
          <Trackpoint>
            <Time>2022-09-24T16:37:53.000Z</Time>
            <Position>
              <LatitudeDegrees>43.35230215452611446380615234375</LatitudeDegrees>
              <LongitudeDegrees>-2.94861498288810253143310546875</LongitudeDegrees>
            </Position>
            <AltitudeMeters>100.1999969482421875</AltitudeMeters>
            <DistanceMeters>NAN</DistanceMeters>
          </Trackpoint>
          <Trackpoint>
            <Time>2022-09-24T16:37:54.000Z</Time>
            <Position>
              <LatitudeDegrees>43.35226711817085742950439453125</LatitudeDegrees>
              <LongitudeDegrees>-2.94855815358459949493408203125</LongitudeDegrees>
            </Position>
            <AltitudeMeters>100.1999969482421875</AltitudeMeters>
            <DistanceMeters>NAN</DistanceMeters>
          </Trackpoint>
          <Trackpoint>
            <Time>2022-09-24T16:37:55.000Z</Time>
            <Position>
              <LatitudeDegrees>43.3522296510636806488037109375</LatitudeDegrees>
              <LongitudeDegrees>-2.94850031845271587371826171875</LongitudeDegrees>
            </Position>
            <AltitudeMeters>100.1999969482421875</AltitudeMeters>
            <DistanceMeters>NAN</DistanceMeters>
          </Trackpoint>
          <Trackpoint>
            <Time>2022-09-24T16:37:56.000Z</Time>
            <Position>
              <LatitudeDegrees>43.35218958556652069091796875</LatitudeDegrees>
              <LongitudeDegrees>-2.94844483025372028350830078125</LongitudeDegrees>
            </Position>
            <AltitudeMeters>100.1999969482421875</AltitudeMeters>
            <DistanceMeters>NAN</DistanceMeters>
          </Trackpoint>
          <Trackpoint>
            <Time>2022-09-24T16:37:57.000Z</Time>
            <Position>
              <LatitudeDegrees>43.35214910097420215606689453125</LatitudeDegrees>
              <LongitudeDegrees>-2.94839210808277130126953125</LongitudeDegrees>
            </Position>
            <AltitudeMeters>100.1999969482421875</AltitudeMeters>
            <DistanceMeters>NAN</DistanceMeters>
          </Trackpoint>
          <Trackpoint>
            <Time>2022-09-24T16:37:58.000Z</Time>
            <Position>
              <LatitudeDegrees>43.35210911929607391357421875</LatitudeDegrees>
              <LongitudeDegrees>-2.94834206812083721160888671875</LongitudeDegrees>
            </Position>
            <AltitudeMeters>100.40000152587890625</AltitudeMeters>
            <DistanceMeters>NAN</DistanceMeters>
          </Trackpoint>
          <Trackpoint>
            <Time>2022-09-24T16:37:59.000Z</Time>
            <Position>
              <LatitudeDegrees>43.35206746123731136322021484375</LatitudeDegrees>
              <LongitudeDegrees>-2.94829697348177433013916015625</LongitudeDegrees>
            </Position>
            <AltitudeMeters>100.59999847412109375</AltitudeMeters>
            <DistanceMeters>NAN</DistanceMeters>
          </Trackpoint>
          <Trackpoint>
            <Time>2022-09-24T16:38:00.000Z</Time>
            <Position>
              <LatitudeDegrees>43.35202136076986789703369140625</LatitudeDegrees>
              <LongitudeDegrees>-2.94825757853686809539794921875</LongitudeDegrees>
            </Position>
            <AltitudeMeters>101</AltitudeMeters>
            <DistanceMeters>NAN</DistanceMeters>
          </Trackpoint>
          <Trackpoint>
            <Time>2022-09-24T16:38:01.000Z</Time>
            <Position>
              <LatitudeDegrees>43.35197098553180694580078125</LatitudeDegrees>
              <LongitudeDegrees>-2.9482232965528964996337890625</LongitudeDegrees>
            </Position>
            <AltitudeMeters>101.1999969482421875</AltitudeMeters>
            <DistanceMeters>NAN</DistanceMeters>
          </Trackpoint>
          <Trackpoint>
            <Time>2022-09-24T16:38:02.000Z</Time>
            <Position>
              <LatitudeDegrees>43.35191809572279453277587890625</LatitudeDegrees>
              <LongitudeDegrees>-2.94819437898695468902587890625</LongitudeDegrees>
            </Position>
            <AltitudeMeters>101.1999969482421875</AltitudeMeters>
            <DistanceMeters>NAN</DistanceMeters>
          </Trackpoint>
          <Trackpoint>
            <Time>2022-09-24T16:38:03.000Z</Time>
            <Position>
              <LatitudeDegrees>43.35186646319925785064697265625</LatitudeDegrees>
              <LongitudeDegrees>-2.94817325659096240997314453125</LongitudeDegrees>
            </Position>
            <AltitudeMeters>101.1999969482421875</AltitudeMeters>
            <DistanceMeters>NAN</DistanceMeters>
          </Trackpoint>
          <Trackpoint>
            <Time>2022-09-24T16:38:04.000Z</Time>
            <Position>
              <LatitudeDegrees>43.35181449539959430694580078125</LatitudeDegrees>
              <LongitudeDegrees>-2.94816319830715656280517578125</LongitudeDegrees>
            </Position>
            <AltitudeMeters>101.8000030517578125</AltitudeMeters>
            <DistanceMeters>NAN</DistanceMeters>
          </Trackpoint>
          <Trackpoint>
            <Time>2022-09-24T16:38:05.000Z</Time>
            <Position>
              <LatitudeDegrees>43.3517612703144550323486328125</LatitudeDegrees>
              <LongitudeDegrees>-2.9481585882604122161865234375</LongitudeDegrees>
            </Position>
            <AltitudeMeters>102.1999969482421875</AltitudeMeters>
            <DistanceMeters>NAN</DistanceMeters>
          </Trackpoint>
          <Trackpoint>
            <Time>2022-09-24T16:38:06.000Z</Time>
            <Position>
              <LatitudeDegrees>43.35170636884868144989013671875</LatitudeDegrees>
              <LongitudeDegrees>-2.9481567442417144775390625</LongitudeDegrees>
            </Position>
            <AltitudeMeters>102.1999969482421875</AltitudeMeters>
            <DistanceMeters>NAN</DistanceMeters>
          </Trackpoint>
          <Trackpoint>
            <Time>2022-09-24T16:38:07.000Z</Time>
            <Position>
              <LatitudeDegrees>43.35165037773549556732177734375</LatitudeDegrees>
              <LongitudeDegrees>-2.94815783388912677764892578125</LongitudeDegrees>
            </Position>
            <AltitudeMeters>102.1999969482421875</AltitudeMeters>
            <DistanceMeters>NAN</DistanceMeters>
          </Trackpoint>
          <Trackpoint>
            <Time>2022-09-24T16:38:08.000Z</Time>
            <Position>
              <LatitudeDegrees>43.35159505717456340789794921875</LatitudeDegrees>
              <LongitudeDegrees>-2.9481616057455539703369140625</LongitudeDegrees>
            </Position>
            <AltitudeMeters>102.1999969482421875</AltitudeMeters>
            <DistanceMeters>NAN</DistanceMeters>
          </Trackpoint>
          <Trackpoint>
            <Time>2022-09-24T16:38:09.000Z</Time>
            <Position>
              <LatitudeDegrees>43.3515426702797412872314453125</LatitudeDegrees>
              <LongitudeDegrees>-2.9481626115739345550537109375</LongitudeDegrees>
            </Position>
            <AltitudeMeters>102.1999969482421875</AltitudeMeters>
            <DistanceMeters>NAN</DistanceMeters>
          </Trackpoint>
          <Trackpoint>
            <Time>2022-09-24T16:38:10.000Z</Time>
            <Position>
              <LatitudeDegrees>43.35148877464234828948974609375</LatitudeDegrees>
              <LongitudeDegrees>-2.94815565459430217742919921875</LongitudeDegrees>
            </Position>
            <AltitudeMeters>102.1999969482421875</AltitudeMeters>
            <DistanceMeters>NAN</DistanceMeters>
          </Trackpoint>
          <Trackpoint>
            <Time>2022-09-24T16:38:11.000Z</Time>
            <Position>
              <LatitudeDegrees>43.35143479518592357635498046875</LatitudeDegrees>
              <LongitudeDegrees>-2.948133610188961029052734375</LongitudeDegrees>
            </Position>
            <AltitudeMeters>102.1999969482421875</AltitudeMeters>
            <DistanceMeters>NAN</DistanceMeters>
          </Trackpoint>
          <Trackpoint>
            <Time>2022-09-24T16:38:12.000Z</Time>
            <Position>
              <LatitudeDegrees>43.35138433612883090972900390625</LatitudeDegrees>
              <LongitudeDegrees>-2.94809396378695964813232421875</LongitudeDegrees>
            </Position>
            <AltitudeMeters>102.1999969482421875</AltitudeMeters>
            <DistanceMeters>NAN</DistanceMeters>
          </Trackpoint>
          <Trackpoint>
            <Time>2022-09-24T16:38:13.000Z</Time>
            <Position>
              <LatitudeDegrees>43.3513495512306690216064453125</LatitudeDegrees>
              <LongitudeDegrees>-2.94804333709180355072021484375</LongitudeDegrees>
            </Position>
            <AltitudeMeters>102.40000152587890625</AltitudeMeters>
            <DistanceMeters>NAN</DistanceMeters>
          </Trackpoint>
          <Trackpoint>
            <Time>2022-09-24T16:38:14.000Z</Time>
            <Position>
              <LatitudeDegrees>43.351332284510135650634765625</LatitudeDegrees>
              <LongitudeDegrees>-2.9479798860847949981689453125</LongitudeDegrees>
            </Position>
            <AltitudeMeters>102.40000152587890625</AltitudeMeters>
            <DistanceMeters>NAN</DistanceMeters>
          </Trackpoint>
          <Trackpoint>
            <Time>2022-09-24T16:38:15.000Z</Time>
            <Position>
              <LatitudeDegrees>43.35132666863501071929931640625</LatitudeDegrees>
              <LongitudeDegrees>-2.94791199266910552978515625</LongitudeDegrees>
            </Position>
            <AltitudeMeters>102.40000152587890625</AltitudeMeters>
            <DistanceMeters>NAN</DistanceMeters>
          </Trackpoint>
          <Trackpoint>
            <Time>2022-09-24T16:38:16.000Z</Time>
            <Position>
              <LatitudeDegrees>43.35133236832916736602783203125</LatitudeDegrees>
              <LongitudeDegrees>-2.94782750308513641357421875</LongitudeDegrees>
            </Position>
            <AltitudeMeters>102.8000030517578125</AltitudeMeters>
            <DistanceMeters>NAN</DistanceMeters>
          </Trackpoint>
          <Trackpoint>
            <Time>2022-09-24T16:38:17.000Z</Time>
            <Position>
              <LatitudeDegrees>43.3513364754617214202880859375</LatitudeDegrees>
              <LongitudeDegrees>-2.94775349088013172149658203125</LongitudeDegrees>
            </Position>
            <AltitudeMeters>103</AltitudeMeters>
            <DistanceMeters>NAN</DistanceMeters>
          </Trackpoint>
          <Trackpoint>
            <Time>2022-09-24T16:38:18.000Z</Time>
            <Position>
              <LatitudeDegrees>43.3513411693274974822998046875</LatitudeDegrees>
              <LongitudeDegrees>-2.94769347645342350006103515625</LongitudeDegrees>
            </Position>
            <AltitudeMeters>103.40000152587890625</AltitudeMeters>
            <DistanceMeters>NAN</DistanceMeters>
          </Trackpoint>
          <Trackpoint>
            <Time>2022-09-24T16:38:19.000Z</Time>
            <Position>
              <LatitudeDegrees>43.35134712047874927520751953125</LatitudeDegrees>
              <LongitudeDegrees>-2.94761401601135730743408203125</LongitudeDegrees>
            </Position>
            <AltitudeMeters>103.59999847412109375</AltitudeMeters>
            <DistanceMeters>NAN</DistanceMeters>
          </Trackpoint>
          <Trackpoint>
            <Time>2022-09-24T16:38:20.000Z</Time>
            <Position>
              <LatitudeDegrees>43.35134980268776416778564453125</LatitudeDegrees>
              <LongitudeDegrees>-2.947534807026386260986328125</LongitudeDegrees>
            </Position>
            <AltitudeMeters>103.8000030517578125</AltitudeMeters>
            <DistanceMeters>NAN</DistanceMeters>
          </Trackpoint>
          <Trackpoint>
            <Time>2022-09-24T16:38:21.000Z</Time>
            <Position>
              <LatitudeDegrees>43.35134695284068584442138671875</LatitudeDegrees>
              <LongitudeDegrees>-2.94745677150785923004150390625</LongitudeDegrees>
            </Position>
            <AltitudeMeters>104</AltitudeMeters>
            <DistanceMeters>NAN</DistanceMeters>
          </Trackpoint>
          <Trackpoint>
            <Time>2022-09-24T16:38:22.000Z</Time>
            <Position>
              <LatitudeDegrees>43.35133354179561138153076171875</LatitudeDegrees>
              <LongitudeDegrees>-2.9473814181983470916748046875</LongitudeDegrees>
            </Position>
            <AltitudeMeters>104.1999969482421875</AltitudeMeters>
            <DistanceMeters>NAN</DistanceMeters>
          </Trackpoint>
          <Trackpoint>
            <Time>2022-09-24T16:38:23.000Z</Time>
            <Position>
              <LatitudeDegrees>43.35133354179561138153076171875</LatitudeDegrees>
              <LongitudeDegrees>-2.9473814181983470916748046875</LongitudeDegrees>
            </Position>
            <AltitudeMeters>104.1999969482421875</AltitudeMeters>
            <DistanceMeters>NAN</DistanceMeters>
          </Trackpoint>
          <Trackpoint>
            <Time>2022-09-24T16:38:24.000Z</Time>
            <Position>
              <LatitudeDegrees>43.35128434002399444580078125</LatitudeDegrees>
              <LongitudeDegrees>-2.9472421109676361083984375</LongitudeDegrees>
            </Position>
            <AltitudeMeters>104.59999847412109375</AltitudeMeters>
            <DistanceMeters>NAN</DistanceMeters>
          </Trackpoint>
          <Trackpoint>
            <Time>2022-09-24T16:38:25.000Z</Time>
            <Position>
              <LatitudeDegrees>43.35125491954386234283447265625</LatitudeDegrees>
              <LongitudeDegrees>-2.94717815704643726348876953125</LongitudeDegrees>
            </Position>
            <AltitudeMeters>104.8000030517578125</AltitudeMeters>
            <DistanceMeters>NAN</DistanceMeters>
          </Trackpoint>
          <Trackpoint>
            <Time>2022-09-24T16:38:26.000Z</Time>
            <Position>
              <LatitudeDegrees>43.35122139193117618560791015625</LatitudeDegrees>
              <LongitudeDegrees>-2.947123087942600250244140625</LongitudeDegrees>
            </Position>
            <AltitudeMeters>104.8000030517578125</AltitudeMeters>
            <DistanceMeters>NAN</DistanceMeters>
          </Trackpoint>
          <Trackpoint>
            <Time>2022-09-24T16:38:27.000Z</Time>
            <Position>
              <LatitudeDegrees>43.35118015296757221221923828125</LatitudeDegrees>
              <LongitudeDegrees>-2.94708243571221828460693359375</LongitudeDegrees>
            </Position>
            <AltitudeMeters>105</AltitudeMeters>
            <DistanceMeters>NAN</DistanceMeters>
          </Trackpoint>
          <Trackpoint>
            <Time>2022-09-24T16:38:28.000Z</Time>
            <Position>
              <LatitudeDegrees>43.3511332981288433074951171875</LatitudeDegrees>
              <LongitudeDegrees>-2.94704966247081756591796875</LongitudeDegrees>
            </Position>
            <AltitudeMeters>105</AltitudeMeters>
            <DistanceMeters>NAN</DistanceMeters>
          </Trackpoint>
          <Trackpoint>
            <Time>2022-09-24T16:38:29.000Z</Time>
            <Position>
              <LatitudeDegrees>43.35108627565205097198486328125</LatitudeDegrees>
              <LongitudeDegrees>-2.94702108018100261688232421875</LongitudeDegrees>
            </Position>
            <AltitudeMeters>105</AltitudeMeters>
            <DistanceMeters>NAN</DistanceMeters>
          </Trackpoint>
          <Trackpoint>
            <Time>2022-09-24T16:38:30.000Z</Time>
            <Position>
              <LatitudeDegrees>43.351036570966243743896484375</LatitudeDegrees>
              <LongitudeDegrees>-2.94699979014694690704345703125</LongitudeDegrees>
            </Position>
            <AltitudeMeters>105</AltitudeMeters>
            <DistanceMeters>NAN</DistanceMeters>
          </Trackpoint>
          <Trackpoint>
            <Time>2022-09-24T16:38:31.000Z</Time>
            <Position>
              <LatitudeDegrees>43.35098485462367534637451171875</LatitudeDegrees>
              <LongitudeDegrees>-2.9469928331673145294189453125</LongitudeDegrees>
            </Position>
            <AltitudeMeters>105.1999969482421875</AltitudeMeters>
            <DistanceMeters>NAN</DistanceMeters>
          </Trackpoint>
          <Trackpoint>
            <Time>2022-09-24T16:38:32.000Z</Time>
            <Position>
              <LatitudeDegrees>43.3509421907365322113037109375</LatitudeDegrees>
              <LongitudeDegrees>-2.94699174351990222930908203125</LongitudeDegrees>
            </Position>
            <AltitudeMeters>105.1999969482421875</AltitudeMeters>
            <DistanceMeters>NAN</DistanceMeters>
          </Trackpoint>
          <Trackpoint>
            <Time>2022-09-24T16:38:33.000Z</Time>
            <Position>
              <LatitudeDegrees>43.35087806917726993560791015625</LatitudeDegrees>
              <LongitudeDegrees>-2.94699610210955142974853515625</LongitudeDegrees>
            </Position>
            <AltitudeMeters>105.1999969482421875</AltitudeMeters>
            <DistanceMeters>NAN</DistanceMeters>
          </Trackpoint>
          <Trackpoint>
            <Time>2022-09-24T16:38:34.000Z</Time>
            <Position>
              <LatitudeDegrees>43.35082325153052806854248046875</LatitudeDegrees>
              <LongitudeDegrees>-2.94700180180370807647705078125</LongitudeDegrees>
            </Position>
            <AltitudeMeters>105.40000152587890625</AltitudeMeters>
            <DistanceMeters>NAN</DistanceMeters>
          </Trackpoint>
          <Trackpoint>
            <Time>2022-09-24T16:38:35.000Z</Time>
            <Position>
              <LatitudeDegrees>43.3507675118744373321533203125</LatitudeDegrees>
              <LongitudeDegrees>-2.947012446820735931396484375</LongitudeDegrees>
            </Position>
            <AltitudeMeters>105.8000030517578125</AltitudeMeters>
            <DistanceMeters>NAN</DistanceMeters>
          </Trackpoint>
          <Trackpoint>
            <Time>2022-09-24T16:38:36.000Z</Time>
            <Position>
              <LatitudeDegrees>43.350723087787628173828125</LatitudeDegrees>
              <LongitudeDegrees>-2.94702292419970035552978515625</LongitudeDegrees>
            </Position>
            <AltitudeMeters>105.8000030517578125</AltitudeMeters>
            <DistanceMeters>NAN</DistanceMeters>
          </Trackpoint>
          <Trackpoint>
            <Time>2022-09-24T16:38:37.000Z</Time>
            <Position>
              <LatitudeDegrees>43.35065661929547786712646484375</LatitudeDegrees>
              <LongitudeDegrees>-2.94702946208417415618896484375</LongitudeDegrees>
            </Position>
            <AltitudeMeters>106</AltitudeMeters>
            <DistanceMeters>NAN</DistanceMeters>
          </Trackpoint>
          <Trackpoint>
            <Time>2022-09-24T16:38:38.000Z</Time>
            <Position>
              <LatitudeDegrees>43.35060029290616512298583984375</LatitudeDegrees>
              <LongitudeDegrees>-2.94702627696096897125244140625</LongitudeDegrees>
            </Position>
            <AltitudeMeters>106.1999969482421875</AltitudeMeters>
            <DistanceMeters>NAN</DistanceMeters>
          </Trackpoint>
          <Trackpoint>
            <Time>2022-09-24T16:38:39.000Z</Time>
            <Position>
              <LatitudeDegrees>43.35054329596459865570068359375</LatitudeDegrees>
              <LongitudeDegrees>-2.94701772741973400115966796875</LongitudeDegrees>
            </Position>
            <AltitudeMeters>106.40000152587890625</AltitudeMeters>
            <DistanceMeters>NAN</DistanceMeters>
          </Trackpoint>
          <Trackpoint>
            <Time>2022-09-24T16:38:40.000Z</Time>
            <Position>
              <LatitudeDegrees>43.35048998706042766571044921875</LatitudeDegrees>
              <LongitudeDegrees>-2.947005070745944976806640625</LongitudeDegrees>
            </Position>
            <AltitudeMeters>106.59999847412109375</AltitudeMeters>
            <DistanceMeters>NAN</DistanceMeters>
          </Trackpoint>
          <Trackpoint>
            <Time>2022-09-24T16:38:41.000Z</Time>
            <Position>
              <LatitudeDegrees>43.35044019855558872222900390625</LatitudeDegrees>
              <LongitudeDegrees>-2.94698487035930156707763671875</LongitudeDegrees>
            </Position>
            <AltitudeMeters>106.59999847412109375</AltitudeMeters>
            <DistanceMeters>NAN</DistanceMeters>
          </Trackpoint>
          <Trackpoint>
            <Time>2022-09-24T16:38:42.000Z</Time>
            <Position>
              <LatitudeDegrees>43.35039493627846240997314453125</LatitudeDegrees>
              <LongitudeDegrees>-2.9469465650618076324462890625</LongitudeDegrees>
            </Position>
            <AltitudeMeters>106.59999847412109375</AltitudeMeters>
            <DistanceMeters>NAN</DistanceMeters>
          </Trackpoint>
          <Trackpoint>
            <Time>2022-09-24T16:38:43.000Z</Time>
            <Position>
              <LatitudeDegrees>43.3503567986190319061279296875</LatitudeDegrees>
              <LongitudeDegrees>-2.9468959383666515350341796875</LongitudeDegrees>
            </Position>
            <AltitudeMeters>106.8000030517578125</AltitudeMeters>
            <DistanceMeters>NAN</DistanceMeters>
          </Trackpoint>
          <Trackpoint>
            <Time>2022-09-24T16:38:44.000Z</Time>
            <Position>
              <LatitudeDegrees>43.3503272943198680877685546875</LatitudeDegrees>
              <LongitudeDegrees>-2.94683734886348247528076171875</LongitudeDegrees>
            </Position>
            <AltitudeMeters>107</AltitudeMeters>
            <DistanceMeters>NAN</DistanceMeters>
          </Trackpoint>
          <Trackpoint>
            <Time>2022-09-24T16:38:45.000Z</Time>
            <Position>
              <LatitudeDegrees>43.35030734539031982421875</LatitudeDegrees>
              <LongitudeDegrees>-2.9467675276100635528564453125</LongitudeDegrees>
            </Position>
            <AltitudeMeters>107.1999969482421875</AltitudeMeters>
            <DistanceMeters>NAN</DistanceMeters>
          </Trackpoint>
          <Trackpoint>
            <Time>2022-09-24T16:38:46.000Z</Time>
            <Position>
              <LatitudeDegrees>43.35030189715325832366943359375</LatitudeDegrees>
              <LongitudeDegrees>-2.94669091701507568359375</LongitudeDegrees>
            </Position>
            <AltitudeMeters>107.1999969482421875</AltitudeMeters>
            <DistanceMeters>NAN</DistanceMeters>
          </Trackpoint>
          <Trackpoint>
            <Time>2022-09-24T16:38:47.000Z</Time>
            <Position>
              <LatitudeDegrees>43.35030122660100460052490234375</LatitudeDegrees>
              <LongitudeDegrees>-2.946619503200054168701171875</LongitudeDegrees>
            </Position>
            <AltitudeMeters>107.1999969482421875</AltitudeMeters>
            <DistanceMeters>NAN</DistanceMeters>
          </Trackpoint>
          <Trackpoint>
            <Time>2022-09-24T16:38:48.000Z</Time>
            <Position>
              <LatitudeDegrees>43.3503075130283832550048828125</LatitudeDegrees>
              <LongitudeDegrees>-2.94655085541307926177978515625</LongitudeDegrees>
            </Position>
            <AltitudeMeters>107.40000152587890625</AltitudeMeters>
            <DistanceMeters>NAN</DistanceMeters>
          </Trackpoint>
          <Trackpoint>
            <Time>2022-09-24T16:38:49.000Z</Time>
            <Position>
              <LatitudeDegrees>43.35032410919666290283203125</LatitudeDegrees>
              <LongitudeDegrees>-2.946478687226772308349609375</LongitudeDegrees>
            </Position>
            <AltitudeMeters>107.1999969482421875</AltitudeMeters>
            <DistanceMeters>NAN</DistanceMeters>
          </Trackpoint>
          <Trackpoint>
            <Time>2022-09-24T16:38:50.000Z</Time>
            <Position>
              <LatitudeDegrees>43.35033257491886615753173828125</LatitudeDegrees>
              <LongitudeDegrees>-2.94640366919338703155517578125</LongitudeDegrees>
            </Position>
            <AltitudeMeters>107.1999969482421875</AltitudeMeters>
            <DistanceMeters>NAN</DistanceMeters>
          </Trackpoint>
          <Trackpoint>
            <Time>2022-09-24T16:38:51.000Z</Time>
            <Position>
              <LatitudeDegrees>43.35034045390784740447998046875</LatitudeDegrees>
              <LongitudeDegrees>-2.9463293217122554779052734375</LongitudeDegrees>
            </Position>
            <AltitudeMeters>107.1999969482421875</AltitudeMeters>
            <DistanceMeters>NAN</DistanceMeters>
          </Trackpoint>
          <Trackpoint>
            <Time>2022-09-24T16:38:52.000Z</Time>
            <Position>
              <LatitudeDegrees>43.35035084746778011322021484375</LatitudeDegrees>
              <LongitudeDegrees>-2.9462558962404727935791015625</LongitudeDegrees>
            </Position>
            <AltitudeMeters>107.59999847412109375</AltitudeMeters>
            <DistanceMeters>NAN</DistanceMeters>
          </Trackpoint>
          <Trackpoint>
            <Time>2022-09-24T16:38:53.000Z</Time>
            <Position>
              <LatitudeDegrees>43.35035822354257106781005859375</LatitudeDegrees>
              <LongitudeDegrees>-2.94618205167353153228759765625</LongitudeDegrees>
            </Position>
            <AltitudeMeters>107.59999847412109375</AltitudeMeters>
            <DistanceMeters>NAN</DistanceMeters>
          </Trackpoint>
          <Trackpoint>
            <Time>2022-09-24T16:38:54.000Z</Time>
            <Position>
              <LatitudeDegrees>43.35036459378898143768310546875</LatitudeDegrees>
              <LongitudeDegrees>-2.946091778576374053955078125</LongitudeDegrees>
            </Position>
            <AltitudeMeters>107.8000030517578125</AltitudeMeters>
            <DistanceMeters>NAN</DistanceMeters>
          </Trackpoint>
          <Trackpoint>
            <Time>2022-09-24T16:38:55.000Z</Time>
            <Position>
              <LatitudeDegrees>43.35036107338964939117431640625</LatitudeDegrees>
              <LongitudeDegrees>-2.9460198618471622467041015625</LongitudeDegrees>
            </Position>
            <AltitudeMeters>107.8000030517578125</AltitudeMeters>
            <DistanceMeters>NAN</DistanceMeters>
          </Trackpoint>
          <Trackpoint>
            <Time>2022-09-24T16:38:56.000Z</Time>
            <Position>
              <LatitudeDegrees>43.35035495460033416748046875</LatitudeDegrees>
              <LongitudeDegrees>-2.9459628649055957794189453125</LongitudeDegrees>
            </Position>
            <AltitudeMeters>108.1999969482421875</AltitudeMeters>
            <DistanceMeters>NAN</DistanceMeters>
          </Trackpoint>
          <Trackpoint>
            <Time>2022-09-24T16:38:57.000Z</Time>
            <Position>
              <LatitudeDegrees>43.3503433875739574432373046875</LatitudeDegrees>
              <LongitudeDegrees>-2.9458916187286376953125</LongitudeDegrees>
            </Position>
            <AltitudeMeters>108.40000152587890625</AltitudeMeters>
            <DistanceMeters>NAN</DistanceMeters>
          </Trackpoint>
          <Trackpoint>
            <Time>2022-09-24T16:38:58.000Z</Time>
            <Position>
              <LatitudeDegrees>43.35032821632921695709228515625</LatitudeDegrees>
              <LongitudeDegrees>-2.945818193256855010986328125</LongitudeDegrees>
            </Position>
            <AltitudeMeters>108.40000152587890625</AltitudeMeters>
            <DistanceMeters>NAN</DistanceMeters>
          </Trackpoint>
          <Trackpoint>
            <Time>2022-09-24T16:38:59.000Z</Time>
            <Position>
              <LatitudeDegrees>43.3503019809722900390625</LatitudeDegrees>
              <LongitudeDegrees>-2.94573294930160045623779296875</LongitudeDegrees>
            </Position>
            <AltitudeMeters>108.40000152587890625</AltitudeMeters>
            <DistanceMeters>NAN</DistanceMeters>
          </Trackpoint>
          <Trackpoint>
            <Time>2022-09-24T16:39:00.000Z</Time>
            <Position>
              <LatitudeDegrees>43.35027717053890228271484375</LatitudeDegrees>
              <LongitudeDegrees>-2.945663630962371826171875</LongitudeDegrees>
            </Position>
            <AltitudeMeters>108.59999847412109375</AltitudeMeters>
            <DistanceMeters>NAN</DistanceMeters>
          </Trackpoint>
          <Trackpoint>
            <Time>2022-09-24T16:39:01.000Z</Time>
            <Position>
              <LatitudeDegrees>43.35024842061102390289306640625</LatitudeDegrees>
              <LongitudeDegrees>-2.94559682719409465789794921875</LongitudeDegrees>
            </Position>
            <AltitudeMeters>108.59999847412109375</AltitudeMeters>
            <DistanceMeters>NAN</DistanceMeters>
          </Trackpoint>
          <Trackpoint>
            <Time>2022-09-24T16:39:02.000Z</Time>
            <Position>
              <LatitudeDegrees>43.3502153120934963226318359375</LatitudeDegrees>
              <LongitudeDegrees>-2.94553496874868869781494140625</LongitudeDegrees>
            </Position>
            <AltitudeMeters>109</AltitudeMeters>
            <DistanceMeters>NAN</DistanceMeters>
          </Trackpoint>
          <Trackpoint>
            <Time>2022-09-24T16:39:03.000Z</Time>
            <Position>
              <LatitudeDegrees>43.35018270649015903472900390625</LatitudeDegrees>
              <LongitudeDegrees>-2.945491634309291839599609375</LongitudeDegrees>
            </Position>
            <AltitudeMeters>109</AltitudeMeters>
            <DistanceMeters>NAN</DistanceMeters>
          </Trackpoint>
          <Trackpoint>
            <Time>2022-09-24T16:39:04.000Z</Time>
            <Position>
              <LatitudeDegrees>43.35013057105243206024169921875</LatitudeDegrees>
              <LongitudeDegrees>-2.94543229043483734130859375</LongitudeDegrees>
            </Position>
            <AltitudeMeters>109.1999969482421875</AltitudeMeters>
            <DistanceMeters>NAN</DistanceMeters>
          </Trackpoint>
          <Trackpoint>
            <Time>2022-09-24T16:39:05.000Z</Time>
            <Position>
              <LatitudeDegrees>43.3500869013369083404541015625</LatitudeDegrees>
              <LongitudeDegrees>-2.9453939013183116912841796875</LongitudeDegrees>
            </Position>
            <AltitudeMeters>109.1999969482421875</AltitudeMeters>
            <DistanceMeters>NAN</DistanceMeters>
          </Trackpoint>
          <Trackpoint>
            <Time>2022-09-24T16:39:06.000Z</Time>
            <Position>
              <LatitudeDegrees>43.35004222579300403594970703125</LatitudeDegrees>
              <LongitudeDegrees>-2.94536548666656017303466796875</LongitudeDegrees>
            </Position>
            <AltitudeMeters>109.59999847412109375</AltitudeMeters>
            <DistanceMeters>NAN</DistanceMeters>
          </Trackpoint>
          <Trackpoint>
            <Time>2022-09-24T16:39:07.000Z</Time>
            <Position>
              <LatitudeDegrees>43.34999310784041881561279296875</LatitudeDegrees>
              <LongitudeDegrees>-2.945341430604457855224609375</LongitudeDegrees>
            </Position>
            <AltitudeMeters>109.8000030517578125</AltitudeMeters>
            <DistanceMeters>NAN</DistanceMeters>
          </Trackpoint>
          <Trackpoint>
            <Time>2022-09-24T16:39:08.000Z</Time>
            <Position>
              <LatitudeDegrees>43.34999310784041881561279296875</LatitudeDegrees>
              <LongitudeDegrees>-2.945341430604457855224609375</LongitudeDegrees>
            </Position>
            <AltitudeMeters>109.8000030517578125</AltitudeMeters>
            <DistanceMeters>NAN</DistanceMeters>
          </Trackpoint>
          <Trackpoint>
            <Time>2022-09-24T16:39:09.000Z</Time>
            <Position>
              <LatitudeDegrees>43.34988581947982311248779296875</LatitudeDegrees>
              <LongitudeDegrees>-2.9453137703239917755126953125</LongitudeDegrees>
            </Position>
            <AltitudeMeters>110</AltitudeMeters>
            <DistanceMeters>NAN</DistanceMeters>
          </Trackpoint>
          <Trackpoint>
            <Time>2022-09-24T16:39:10.000Z</Time>
            <Position>
              <LatitudeDegrees>43.3498334325850009918212890625</LatitudeDegrees>
              <LongitudeDegrees>-2.94530966319143772125244140625</LongitudeDegrees>
            </Position>
            <AltitudeMeters>110</AltitudeMeters>
            <DistanceMeters>NAN</DistanceMeters>
          </Trackpoint>
          <Trackpoint>
            <Time>2022-09-24T16:39:11.000Z</Time>
            <Position>
              <LatitudeDegrees>43.3497777767479419708251953125</LatitudeDegrees>
              <LongitudeDegrees>-2.945300526916980743408203125</LongitudeDegrees>
            </Position>
            <AltitudeMeters>110.40000152587890625</AltitudeMeters>
            <DistanceMeters>NAN</DistanceMeters>
          </Trackpoint>
          <Trackpoint>
            <Time>2022-09-24T16:39:12.000Z</Time>
            <Position>
              <LatitudeDegrees>43.34973092190921306610107421875</LatitudeDegrees>
              <LongitudeDegrees>-2.9453028738498687744140625</LongitudeDegrees>
            </Position>
            <AltitudeMeters>110.40000152587890625</AltitudeMeters>
            <DistanceMeters>NAN</DistanceMeters>
          </Trackpoint>
          <Trackpoint>
            <Time>2022-09-24T16:39:13.000Z</Time>
            <Position>
              <LatitudeDegrees>43.3496570773422718048095703125</LatitudeDegrees>
              <LongitudeDegrees>-2.94530765153467655181884765625</LongitudeDegrees>
            </Position>
            <AltitudeMeters>110.40000152587890625</AltitudeMeters>
            <DistanceMeters>NAN</DistanceMeters>
          </Trackpoint>
          <Trackpoint>
            <Time>2022-09-24T16:39:14.000Z</Time>
            <Position>
              <LatitudeDegrees>43.34959832020103931427001953125</LatitudeDegrees>
              <LongitudeDegrees>-2.9453164525330066680908203125</LongitudeDegrees>
            </Position>
            <AltitudeMeters>110.40000152587890625</AltitudeMeters>
            <DistanceMeters>NAN</DistanceMeters>
          </Trackpoint>
          <Trackpoint>
            <Time>2022-09-24T16:39:15.000Z</Time>
            <Position>
              <LatitudeDegrees>43.34954082034528255462646484375</LatitudeDegrees>
              <LongitudeDegrees>-2.94532408006489276885986328125</LongitudeDegrees>
            </Position>
            <AltitudeMeters>110.40000152587890625</AltitudeMeters>
            <DistanceMeters>NAN</DistanceMeters>
          </Trackpoint>
          <Trackpoint>
            <Time>2022-09-24T16:39:16.000Z</Time>
            <Position>
              <LatitudeDegrees>43.34948499687016010284423828125</LatitudeDegrees>
              <LongitudeDegrees>-2.9453291930258274078369140625</LongitudeDegrees>
            </Position>
            <AltitudeMeters>110.59999847412109375</AltitudeMeters>
            <DistanceMeters>NAN</DistanceMeters>
          </Trackpoint>
          <Trackpoint>
            <Time>2022-09-24T16:39:17.000Z</Time>
            <Position>
              <LatitudeDegrees>43.3494307659566402435302734375</LatitudeDegrees>
              <LongitudeDegrees>-2.945332042872905731201171875</LongitudeDegrees>
            </Position>
            <AltitudeMeters>110.59999847412109375</AltitudeMeters>
            <DistanceMeters>NAN</DistanceMeters>
          </Trackpoint>
          <Trackpoint>
            <Time>2022-09-24T16:39:18.000Z</Time>
            <Position>
              <LatitudeDegrees>43.3493725955486297607421875</LatitudeDegrees>
              <LongitudeDegrees>-2.9453278519213199615478515625</LongitudeDegrees>
            </Position>
            <AltitudeMeters>110.8000030517578125</AltitudeMeters>
            <DistanceMeters>NAN</DistanceMeters>
          </Trackpoint>
          <Trackpoint>
            <Time>2022-09-24T16:39:19.000Z</Time>
            <Position>
              <LatitudeDegrees>43.34931400604546070098876953125</LatitudeDegrees>
              <LongitudeDegrees>-2.945317290723323822021484375</LongitudeDegrees>
            </Position>
            <AltitudeMeters>110.8000030517578125</AltitudeMeters>
            <DistanceMeters>NAN</DistanceMeters>
          </Trackpoint>
          <Trackpoint>
            <Time>2022-09-24T16:39:20.000Z</Time>
            <Position>
              <LatitudeDegrees>43.34925583563745021820068359375</LatitudeDegrees>
              <LongitudeDegrees>-2.945299185812473297119140625</LongitudeDegrees>
            </Position>
            <AltitudeMeters>111</AltitudeMeters>
            <DistanceMeters>NAN</DistanceMeters>
          </Trackpoint>
          <Trackpoint>
            <Time>2022-09-24T16:39:21.000Z</Time>
            <Position>
              <LatitudeDegrees>43.3491994254291057586669921875</LatitudeDegrees>
              <LongitudeDegrees>-2.94527311809360980987548828125</LongitudeDegrees>
            </Position>
            <AltitudeMeters>111</AltitudeMeters>
            <DistanceMeters>NAN</DistanceMeters>
          </Trackpoint>
          <Trackpoint>
            <Time>2022-09-24T16:39:22.000Z</Time>
            <Position>
              <LatitudeDegrees>43.349146284162998199462890625</LatitudeDegrees>
              <LongitudeDegrees>-2.94523808173835277557373046875</LongitudeDegrees>
            </Position>
            <AltitudeMeters>111</AltitudeMeters>
            <DistanceMeters>NAN</DistanceMeters>
          </Trackpoint>
          <Trackpoint>
            <Time>2022-09-24T16:39:23.000Z</Time>
            <Position>
              <LatitudeDegrees>43.3490958251059055328369140625</LatitudeDegrees>
              <LongitudeDegrees>-2.94519759714603424072265625</LongitudeDegrees>
            </Position>
            <AltitudeMeters>111</AltitudeMeters>
            <DistanceMeters>NAN</DistanceMeters>
          </Trackpoint>
          <Trackpoint>
            <Time>2022-09-24T16:39:24.000Z</Time>
            <Position>
              <LatitudeDegrees>43.34905064664781093597412109375</LatitudeDegrees>
              <LongitudeDegrees>-2.9451558552682399749755859375</LongitudeDegrees>
            </Position>
            <AltitudeMeters>111</AltitudeMeters>
            <DistanceMeters>NAN</DistanceMeters>
          </Trackpoint>
          <Trackpoint>
            <Time>2022-09-24T16:39:25.000Z</Time>
            <Position>
              <LatitudeDegrees>43.34901175461709499359130859375</LatitudeDegrees>
              <LongitudeDegrees>-2.94512492604553699493408203125</LongitudeDegrees>
            </Position>
            <AltitudeMeters>111</AltitudeMeters>
            <DistanceMeters>NAN</DistanceMeters>
          </Trackpoint>
          <Trackpoint>
            <Time>2022-09-24T16:39:26.000Z</Time>
            <Position>
              <LatitudeDegrees>43.34896531887352466583251953125</LatitudeDegrees>
              <LongitudeDegrees>-2.9450777359306812286376953125</LongitudeDegrees>
            </Position>
            <AltitudeMeters>111.40000152587890625</AltitudeMeters>
            <DistanceMeters>NAN</DistanceMeters>
          </Trackpoint>
          <Trackpoint>
            <Time>2022-09-24T16:39:27.000Z</Time>
            <Position>
              <LatitudeDegrees>43.348925672471523284912109375</LatitudeDegrees>
              <LongitudeDegrees>-2.9450187273323535919189453125</LongitudeDegrees>
            </Position>
            <AltitudeMeters>111.40000152587890625</AltitudeMeters>
            <DistanceMeters>NAN</DistanceMeters>
          </Trackpoint>
          <Trackpoint>
            <Time>2022-09-24T16:39:28.000Z</Time>
            <Position>
              <LatitudeDegrees>43.34889524616301059722900390625</LatitudeDegrees>
              <LongitudeDegrees>-2.94495460577309131622314453125</LongitudeDegrees>
            </Position>
            <AltitudeMeters>111.40000152587890625</AltitudeMeters>
            <DistanceMeters>NAN</DistanceMeters>
          </Trackpoint>
          <Trackpoint>
            <Time>2022-09-24T16:39:29.000Z</Time>
            <Position>
              <LatitudeDegrees>43.34887429140508174896240234375</LatitudeDegrees>
              <LongitudeDegrees>-2.9448859579861164093017578125</LongitudeDegrees>
            </Position>
            <AltitudeMeters>111.40000152587890625</AltitudeMeters>
            <DistanceMeters>NAN</DistanceMeters>
          </Trackpoint>
          <Trackpoint>
            <Time>2022-09-24T16:39:30.000Z</Time>
            <Position>
              <LatitudeDegrees>43.3488614670932292938232421875</LatitudeDegrees>
              <LongitudeDegrees>-2.9448145441710948944091796875</LongitudeDegrees>
            </Position>
            <AltitudeMeters>111.40000152587890625</AltitudeMeters>
            <DistanceMeters>NAN</DistanceMeters>
          </Trackpoint>
          <Trackpoint>
            <Time>2022-09-24T16:39:31.000Z</Time>
            <Position>
              <LatitudeDegrees>43.34885702468454837799072265625</LatitudeDegrees>
              <LongitudeDegrees>-2.94474103488028049468994140625</LongitudeDegrees>
            </Position>
            <AltitudeMeters>111.59999847412109375</AltitudeMeters>
            <DistanceMeters>NAN</DistanceMeters>
          </Trackpoint>
          <Trackpoint>
            <Time>2022-09-24T16:39:32.000Z</Time>
            <Position>
              <LatitudeDegrees>43.348856270313262939453125</LatitudeDegrees>
              <LongitudeDegrees>-2.94466777704656124114990234375</LongitudeDegrees>
            </Position>
            <AltitudeMeters>111.59999847412109375</AltitudeMeters>
            <DistanceMeters>NAN</DistanceMeters>
          </Trackpoint>
          <Trackpoint>
            <Time>2022-09-24T16:39:33.000Z</Time>
            <Position>
              <LatitudeDegrees>43.34885735996067523956298828125</LatitudeDegrees>
              <LongitudeDegrees>-2.94458982534706592559814453125</LongitudeDegrees>
            </Position>
            <AltitudeMeters>111.59999847412109375</AltitudeMeters>
            <DistanceMeters>NAN</DistanceMeters>
          </Trackpoint>
          <Trackpoint>
            <Time>2022-09-24T16:39:34.000Z</Time>
            <Position>
              <LatitudeDegrees>43.34885752759873867034912109375</LatitudeDegrees>
              <LongitudeDegrees>-2.94449427165091037750244140625</LongitudeDegrees>
            </Position>
            <AltitudeMeters>111.59999847412109375</AltitudeMeters>
            <DistanceMeters>NAN</DistanceMeters>
          </Trackpoint>
          <Trackpoint>
            <Time>2022-09-24T16:39:35.000Z</Time>
            <Position>
              <LatitudeDegrees>43.3488571085035800933837890625</LatitudeDegrees>
              <LongitudeDegrees>-2.9444333352148532867431640625</LongitudeDegrees>
            </Position>
            <AltitudeMeters>111.59999847412109375</AltitudeMeters>
            <DistanceMeters>NAN</DistanceMeters>
          </Trackpoint>
          <Trackpoint>
            <Time>2022-09-24T16:39:36.000Z</Time>
            <Position>
              <LatitudeDegrees>43.3488561026751995086669921875</LatitudeDegrees>
              <LongitudeDegrees>-2.944357730448246002197265625</LongitudeDegrees>
            </Position>
            <AltitudeMeters>112</AltitudeMeters>
            <DistanceMeters>NAN</DistanceMeters>
          </Trackpoint>
          <Trackpoint>
            <Time>2022-09-24T16:39:37.000Z</Time>
            <Position>
              <LatitudeDegrees>43.3488564379513263702392578125</LatitudeDegrees>
              <LongitudeDegrees>-2.944282628595829010009765625</LongitudeDegrees>
            </Position>
            <AltitudeMeters>112</AltitudeMeters>
            <DistanceMeters>NAN</DistanceMeters>
          </Trackpoint>
          <Trackpoint>
            <Time>2022-09-24T16:39:38.000Z</Time>
            <Position>
              <LatitudeDegrees>43.348863981664180755615234375</LatitudeDegrees>
              <LongitudeDegrees>-2.944192104041576385498046875</LongitudeDegrees>
            </Position>
            <AltitudeMeters>112</AltitudeMeters>
            <DistanceMeters>NAN</DistanceMeters>
          </Trackpoint>
          <Trackpoint>
            <Time>2022-09-24T16:39:39.000Z</Time>
            <Position>
              <LatitudeDegrees>43.34885937161743640899658203125</LatitudeDegrees>
              <LongitudeDegrees>-2.944117672741413116455078125</LongitudeDegrees>
            </Position>
            <AltitudeMeters>112.1999969482421875</AltitudeMeters>
            <DistanceMeters>NAN</DistanceMeters>
          </Trackpoint>
          <Trackpoint>
            <Time>2022-09-24T16:39:40.000Z</Time>
            <Position>
              <LatitudeDegrees>43.34885166026651859283447265625</LatitudeDegrees>
              <LongitudeDegrees>-2.94404500164091587066650390625</LongitudeDegrees>
            </Position>
            <AltitudeMeters>112.40000152587890625</AltitudeMeters>
            <DistanceMeters>NAN</DistanceMeters>
          </Trackpoint>
          <Trackpoint>
            <Time>2022-09-24T16:39:41.000Z</Time>
            <Position>
              <LatitudeDegrees>43.34883456118404865264892578125</LatitudeDegrees>
              <LongitudeDegrees>-2.94397182762622833251953125</LongitudeDegrees>
            </Position>
            <AltitudeMeters>112.59999847412109375</AltitudeMeters>
            <DistanceMeters>NAN</DistanceMeters>
          </Trackpoint>
          <Trackpoint>
            <Time>2022-09-24T16:39:42.000Z</Time>
            <Position>
              <LatitudeDegrees>43.34883456118404865264892578125</LatitudeDegrees>
              <LongitudeDegrees>-2.94397182762622833251953125</LongitudeDegrees>
            </Position>
            <AltitudeMeters>112.8000030517578125</AltitudeMeters>
            <DistanceMeters>NAN</DistanceMeters>
          </Trackpoint>
          <Trackpoint>
            <Time>2022-09-24T16:39:43.000Z</Time>
            <Position>
              <LatitudeDegrees>43.348788209259510040283203125</LatitudeDegrees>
              <LongitudeDegrees>-2.943856827914714813232421875</LongitudeDegrees>
            </Position>
            <AltitudeMeters>113</AltitudeMeters>
            <DistanceMeters>NAN</DistanceMeters>
          </Trackpoint>
          <Trackpoint>
            <Time>2022-09-24T16:39:44.000Z</Time>
            <Position>
              <LatitudeDegrees>43.34874219261109828948974609375</LatitudeDegrees>
              <LongitudeDegrees>-2.94379404745995998382568359375</LongitudeDegrees>
            </Position>
            <AltitudeMeters>113.1999969482421875</AltitudeMeters>
            <DistanceMeters>NAN</DistanceMeters>
          </Trackpoint>
          <Trackpoint>
            <Time>2022-09-24T16:39:45.000Z</Time>
            <Position>
              <LatitudeDegrees>43.34870547987520694732666015625</LatitudeDegrees>
              <LongitudeDegrees>-2.94376169331371784210205078125</LongitudeDegrees>
            </Position>
            <AltitudeMeters>113.1999969482421875</AltitudeMeters>
            <DistanceMeters>NAN</DistanceMeters>
          </Trackpoint>
          <Trackpoint>
            <Time>2022-09-24T16:39:46.000Z</Time>
            <Position>
              <LatitudeDegrees>43.3486537635326385498046875</LatitudeDegrees>
              <LongitudeDegrees>-2.9437275789678096771240234375</LongitudeDegrees>
            </Position>
            <AltitudeMeters>113.1999969482421875</AltitudeMeters>
            <DistanceMeters>NAN</DistanceMeters>
          </Trackpoint>
          <Trackpoint>
            <Time>2022-09-24T16:39:47.000Z</Time>
            <Position>
              <LatitudeDegrees>43.3486537635326385498046875</LatitudeDegrees>
              <LongitudeDegrees>-2.9437275789678096771240234375</LongitudeDegrees>
            </Position>
            <AltitudeMeters>113.1999969482421875</AltitudeMeters>
            <DistanceMeters>NAN</DistanceMeters>
          </Trackpoint>
          <Trackpoint>
            <Time>2022-09-24T16:39:48.000Z</Time>
            <Position>
              <LatitudeDegrees>43.34855628199875354766845703125</LatitudeDegrees>
              <LongitudeDegrees>-2.94369019567966461181640625</LongitudeDegrees>
            </Position>
            <AltitudeMeters>113.1999969482421875</AltitudeMeters>
            <DistanceMeters>NAN</DistanceMeters>
          </Trackpoint>
          <Trackpoint>
            <Time>2022-09-24T16:39:49.000Z</Time>
            <Position>
              <LatitudeDegrees>43.34849861450493335723876953125</LatitudeDegrees>
              <LongitudeDegrees>-2.9436782933771610260009765625</LongitudeDegrees>
            </Position>
            <AltitudeMeters>113.1999969482421875</AltitudeMeters>
            <DistanceMeters>NAN</DistanceMeters>
          </Trackpoint>
          <Trackpoint>
            <Time>2022-09-24T16:39:50.000Z</Time>
            <Position>
              <LatitudeDegrees>43.3484494127333164215087890625</LatitudeDegrees>
              <LongitudeDegrees>-2.94367351569235324859619140625</LongitudeDegrees>
            </Position>
            <AltitudeMeters>113.40000152587890625</AltitudeMeters>
            <DistanceMeters>NAN</DistanceMeters>
          </Trackpoint>
          <Trackpoint>
            <Time>2022-09-24T16:39:51.000Z</Time>
            <Position>
              <LatitudeDegrees>43.34839669056236743927001953125</LatitudeDegrees>
              <LongitudeDegrees>-2.94366513378918170928955078125</LongitudeDegrees>
            </Position>
            <AltitudeMeters>113.59999847412109375</AltitudeMeters>
            <DistanceMeters>NAN</DistanceMeters>
          </Trackpoint>
          <Trackpoint>
            <Time>2022-09-24T16:39:52.000Z</Time>
            <Position>
              <LatitudeDegrees>43.34835343994200229644775390625</LatitudeDegrees>
              <LongitudeDegrees>-2.94365440495312213897705078125</LongitudeDegrees>
            </Position>
            <AltitudeMeters>113.59999847412109375</AltitudeMeters>
            <DistanceMeters>NAN</DistanceMeters>
          </Trackpoint>
          <Trackpoint>
            <Time>2022-09-24T16:39:53.000Z</Time>
            <Position>
              <LatitudeDegrees>43.3482901565730571746826171875</LatitudeDegrees>
              <LongitudeDegrees>-2.943638898432254791259765625</LongitudeDegrees>
            </Position>
            <AltitudeMeters>113.8000030517578125</AltitudeMeters>
            <DistanceMeters>NAN</DistanceMeters>
          </Trackpoint>
          <Trackpoint>
            <Time>2022-09-24T16:39:54.000Z</Time>
            <Position>
              <LatitudeDegrees>43.34823827259242534637451171875</LatitudeDegrees>
              <LongitudeDegrees>-2.9436273314058780670166015625</LongitudeDegrees>
            </Position>
            <AltitudeMeters>114</AltitudeMeters>
            <DistanceMeters>NAN</DistanceMeters>
          </Trackpoint>
          <Trackpoint>
            <Time>2022-09-24T16:39:55.000Z</Time>
            <Position>
              <LatitudeDegrees>43.34819686599075794219970703125</LatitudeDegrees>
              <LongitudeDegrees>-2.94361551292240619659423828125</LongitudeDegrees>
            </Position>
            <AltitudeMeters>114</AltitudeMeters>
            <DistanceMeters>NAN</DistanceMeters>
          </Trackpoint>
          <Trackpoint>
            <Time>2022-09-24T16:39:56.000Z</Time>
            <Position>
              <LatitudeDegrees>43.3481446467339992523193359375</LatitudeDegrees>
              <LongitudeDegrees>-2.94360059313476085662841796875</LongitudeDegrees>
            </Position>
            <AltitudeMeters>114</AltitudeMeters>
            <DistanceMeters>NAN</DistanceMeters>
          </Trackpoint>
          <Trackpoint>
            <Time>2022-09-24T16:39:57.000Z</Time>
            <Position>
              <LatitudeDegrees>43.34809326566755771636962890625</LatitudeDegrees>
              <LongitudeDegrees>-2.94358802028000354766845703125</LongitudeDegrees>
            </Position>
            <AltitudeMeters>114.40000152587890625</AltitudeMeters>
            <DistanceMeters>NAN</DistanceMeters>
          </Trackpoint>
          <Trackpoint>
            <Time>2022-09-24T16:39:58.000Z</Time>
            <Position>
              <LatitudeDegrees>43.3480323292315006256103515625</LatitudeDegrees>
              <LongitudeDegrees>-2.9435756988823413848876953125</LongitudeDegrees>
            </Position>
            <AltitudeMeters>114.59999847412109375</AltitudeMeters>
            <DistanceMeters>NAN</DistanceMeters>
          </Trackpoint>
          <Trackpoint>
            <Time>2022-09-24T16:39:59.000Z</Time>
            <Position>
              <LatitudeDegrees>43.34798245690762996673583984375</LatitudeDegrees>
              <LongitudeDegrees>-2.9435642994940280914306640625</LongitudeDegrees>
            </Position>
            <AltitudeMeters>114.8000030517578125</AltitudeMeters>
            <DistanceMeters>NAN</DistanceMeters>
          </Trackpoint>
          <Trackpoint>
            <Time>2022-09-24T16:40:00.000Z</Time>
            <Position>
              <LatitudeDegrees>43.3479324169456958770751953125</LatitudeDegrees>
              <LongitudeDegrees>-2.94354929588735103607177734375</LongitudeDegrees>
            </Position>
            <AltitudeMeters>115.1999969482421875</AltitudeMeters>
            <DistanceMeters>NAN</DistanceMeters>
          </Trackpoint>
          <Trackpoint>
            <Time>2022-09-24T16:40:01.000Z</Time>
            <Position>
              <LatitudeDegrees>43.3478901721537113189697265625</LatitudeDegrees>
              <LongitudeDegrees>-2.9435317777097225189208984375</LongitudeDegrees>
            </Position>
            <AltitudeMeters>115.1999969482421875</AltitudeMeters>
            <DistanceMeters>NAN</DistanceMeters>
          </Trackpoint>
          <Trackpoint>
            <Time>2022-09-24T16:40:02.000Z</Time>
            <Position>
              <LatitudeDegrees>43.34783367812633514404296875</LatitudeDegrees>
              <LongitudeDegrees>-2.94350638054311275482177734375</LongitudeDegrees>
            </Position>
            <AltitudeMeters>115.1999969482421875</AltitudeMeters>
            <DistanceMeters>NAN</DistanceMeters>
          </Trackpoint>
          <Trackpoint>
            <Time>2022-09-24T16:40:03.000Z</Time>
            <Position>
              <LatitudeDegrees>43.34777995012700557708740234375</LatitudeDegrees>
              <LongitudeDegrees>-2.94348056428134441375732421875</LongitudeDegrees>
            </Position>
            <AltitudeMeters>115.1999969482421875</AltitudeMeters>
            <DistanceMeters>NAN</DistanceMeters>
          </Trackpoint>
          <Trackpoint>
            <Time>2022-09-24T16:40:04.000Z</Time>
            <Position>
              <LatitudeDegrees>43.3477161638438701629638671875</LatitudeDegrees>
              <LongitudeDegrees>-2.94344603084027767181396484375</LongitudeDegrees>
            </Position>
            <AltitudeMeters>115.40000152587890625</AltitudeMeters>
            <DistanceMeters>NAN</DistanceMeters>
          </Trackpoint>
          <Trackpoint>
            <Time>2022-09-24T16:40:05.000Z</Time>
            <Position>
              <LatitudeDegrees>43.347662352025508880615234375</LatitudeDegrees>
              <LongitudeDegrees>-2.94341216795146465301513671875</LongitudeDegrees>
            </Position>
            <AltitudeMeters>115.40000152587890625</AltitudeMeters>
            <DistanceMeters>NAN</DistanceMeters>
          </Trackpoint>
          <Trackpoint>
            <Time>2022-09-24T16:40:06.000Z</Time>
            <Position>
              <LatitudeDegrees>43.34761918522417545318603515625</LatitudeDegrees>
              <LongitudeDegrees>-2.943387441337108612060546875</LongitudeDegrees>
            </Position>
            <AltitudeMeters>115.40000152587890625</AltitudeMeters>
            <DistanceMeters>NAN</DistanceMeters>
          </Trackpoint>
          <Trackpoint>
            <Time>2022-09-24T16:40:07.000Z</Time>
            <Position>
              <LatitudeDegrees>43.34755741059780120849609375</LatitudeDegrees>
              <LongitudeDegrees>-2.9433450289070606231689453125</LongitudeDegrees>
            </Position>
            <AltitudeMeters>115.40000152587890625</AltitudeMeters>
            <DistanceMeters>NAN</DistanceMeters>
          </Trackpoint>
          <Trackpoint>
            <Time>2022-09-24T16:40:08.000Z</Time>
            <Position>
              <LatitudeDegrees>43.34750804118812084197998046875</LatitudeDegrees>
              <LongitudeDegrees>-2.94330286793410778045654296875</LongitudeDegrees>
            </Position>
            <AltitudeMeters>115.59999847412109375</AltitudeMeters>
            <DistanceMeters>NAN</DistanceMeters>
          </Trackpoint>
          <Trackpoint>
            <Time>2022-09-24T16:40:09.000Z</Time>
            <Position>
              <LatitudeDegrees>43.34745842032134532928466796875</LatitudeDegrees>
              <LongitudeDegrees>-2.94325358234345912933349609375</LongitudeDegrees>
            </Position>
            <AltitudeMeters>115.59999847412109375</AltitudeMeters>
            <DistanceMeters>NAN</DistanceMeters>
          </Trackpoint>
          <Trackpoint>
            <Time>2022-09-24T16:40:10.000Z</Time>
            <Position>
              <LatitudeDegrees>43.34741131402552127838134765625</LatitudeDegrees>
              <LongitudeDegrees>-2.9432000219821929931640625</LongitudeDegrees>
            </Position>
            <AltitudeMeters>116</AltitudeMeters>
            <DistanceMeters>NAN</DistanceMeters>
          </Trackpoint>
          <Trackpoint>
            <Time>2022-09-24T16:40:11.000Z</Time>
            <Position>
              <LatitudeDegrees>43.3473755232989788055419921875</LatitudeDegrees>
              <LongitudeDegrees>-2.943154089152812957763671875</LongitudeDegrees>
            </Position>
            <AltitudeMeters>116.1999969482421875</AltitudeMeters>
            <DistanceMeters>NAN</DistanceMeters>
          </Trackpoint>
          <Trackpoint>
            <Time>2022-09-24T16:40:12.000Z</Time>
            <Position>
              <LatitudeDegrees>43.34732984192669391632080078125</LatitudeDegrees>
              <LongitudeDegrees>-2.943085692822933197021484375</LongitudeDegrees>
            </Position>
            <AltitudeMeters>116.40000152587890625</AltitudeMeters>
            <DistanceMeters>NAN</DistanceMeters>
          </Trackpoint>
          <Trackpoint>
            <Time>2022-09-24T16:40:13.000Z</Time>
            <Position>
              <LatitudeDegrees>43.34729195572435855865478515625</LatitudeDegrees>
              <LongitudeDegrees>-2.943027019500732421875</LongitudeDegrees>
            </Position>
            <AltitudeMeters>116.40000152587890625</AltitudeMeters>
            <DistanceMeters>NAN</DistanceMeters>
          </Trackpoint>
          <Trackpoint>
            <Time>2022-09-24T16:40:14.000Z</Time>
            <Position>
              <LatitudeDegrees>43.3472608588635921478271484375</LatitudeDegrees>
              <LongitudeDegrees>-2.9429812543094158172607421875</LongitudeDegrees>
            </Position>
            <AltitudeMeters>116.40000152587890625</AltitudeMeters>
            <DistanceMeters>NAN</DistanceMeters>
          </Trackpoint>
          <Trackpoint>
            <Time>2022-09-24T16:40:15.000Z</Time>
            <Position>
              <LatitudeDegrees>43.347221799194812774658203125</LatitudeDegrees>
              <LongitudeDegrees>-2.9429219104349613189697265625</LongitudeDegrees>
            </Position>
            <AltitudeMeters>116.59999847412109375</AltitudeMeters>
            <DistanceMeters>NAN</DistanceMeters>
          </Trackpoint>
          <Trackpoint>
            <Time>2022-09-24T16:40:16.000Z</Time>
            <Position>
              <LatitudeDegrees>43.34718751721084117889404296875</LatitudeDegrees>
              <LongitudeDegrees>-2.94286273419857025146484375</LongitudeDegrees>
            </Position>
            <AltitudeMeters>116.59999847412109375</AltitudeMeters>
            <DistanceMeters>NAN</DistanceMeters>
          </Trackpoint>
          <Trackpoint>
            <Time>2022-09-24T16:40:17.000Z</Time>
            <Position>
              <LatitudeDegrees>43.34715499542653560638427734375</LatitudeDegrees>
              <LongitudeDegrees>-2.9427864588797092437744140625</LongitudeDegrees>
            </Position>
            <AltitudeMeters>116.8000030517578125</AltitudeMeters>
            <DistanceMeters>NAN</DistanceMeters>
          </Trackpoint>
          <Trackpoint>
            <Time>2022-09-24T16:40:18.000Z</Time>
            <Position>
              <LatitudeDegrees>43.3471311070024967193603515625</LatitudeDegrees>
              <LongitudeDegrees>-2.94272191822528839111328125</LongitudeDegrees>
            </Position>
            <AltitudeMeters>116.8000030517578125</AltitudeMeters>
            <DistanceMeters>NAN</DistanceMeters>
          </Trackpoint>
          <Trackpoint>
            <Time>2022-09-24T16:40:19.000Z</Time>
            <Position>
              <LatitudeDegrees>43.3470982499420642852783203125</LatitudeDegrees>
              <LongitudeDegrees>-2.94265620410442352294921875</LongitudeDegrees>
            </Position>
            <AltitudeMeters>116.8000030517578125</AltitudeMeters>
            <DistanceMeters>NAN</DistanceMeters>
          </Trackpoint>
          <Trackpoint>
            <Time>2022-09-24T16:40:20.000Z</Time>
            <Position>
              <LatitudeDegrees>43.34706815890967845916748046875</LatitudeDegrees>
              <LongitudeDegrees>-2.94259451329708099365234375</LongitudeDegrees>
            </Position>
            <AltitudeMeters>117.40000152587890625</AltitudeMeters>
            <DistanceMeters>NAN</DistanceMeters>
          </Trackpoint>
          <Trackpoint>
            <Time>2022-09-24T16:40:21.000Z</Time>
            <Position>
              <LatitudeDegrees>43.34703781642019748687744140625</LatitudeDegrees>
              <LongitudeDegrees>-2.94253223575651645660400390625</LongitudeDegrees>
            </Position>
            <AltitudeMeters>117.40000152587890625</AltitudeMeters>
            <DistanceMeters>NAN</DistanceMeters>
          </Trackpoint>
          <Trackpoint>
            <Time>2022-09-24T16:40:22.000Z</Time>
            <Position>
              <LatitudeDegrees>43.34701015613973140716552734375</LatitudeDegrees>
              <LongitudeDegrees>-2.94247247278690338134765625</LongitudeDegrees>
            </Position>
            <AltitudeMeters>117.8000030517578125</AltitudeMeters>
            <DistanceMeters>NAN</DistanceMeters>
          </Trackpoint>
          <Trackpoint>
            <Time>2022-09-24T16:40:23.000Z</Time>
            <Position>
              <LatitudeDegrees>43.3469845913350582122802734375</LatitudeDegrees>
              <LongitudeDegrees>-2.9424139671027660369873046875</LongitudeDegrees>
            </Position>
            <AltitudeMeters>117.8000030517578125</AltitudeMeters>
            <DistanceMeters>NAN</DistanceMeters>
          </Trackpoint>
          <Trackpoint>
            <Time>2022-09-24T16:40:24.000Z</Time>
            <Position>
              <LatitudeDegrees>43.346967995166778564453125</LatitudeDegrees>
              <LongitudeDegrees>-2.9423519410192966461181640625</LongitudeDegrees>
            </Position>
            <AltitudeMeters>117.8000030517578125</AltitudeMeters>
            <DistanceMeters>NAN</DistanceMeters>
          </Trackpoint>
          <Trackpoint>
            <Time>2022-09-24T16:40:25.000Z</Time>
            <Position>
              <LatitudeDegrees>43.3469483815133571624755859375</LatitudeDegrees>
              <LongitudeDegrees>-2.94230441562831401824951171875</LongitudeDegrees>
            </Position>
            <AltitudeMeters>118</AltitudeMeters>
            <DistanceMeters>NAN</DistanceMeters>
          </Trackpoint>
          <Trackpoint>
            <Time>2022-09-24T16:40:26.000Z</Time>
            <Position>
              <LatitudeDegrees>43.34691368043422698974609375</LatitudeDegrees>
              <LongitudeDegrees>-2.94223853386938571929931640625</LongitudeDegrees>
            </Position>
            <AltitudeMeters>118</AltitudeMeters>
            <DistanceMeters>NAN</DistanceMeters>
          </Trackpoint>
          <Trackpoint>
            <Time>2022-09-24T16:40:27.000Z</Time>
            <Position>
              <LatitudeDegrees>43.34688543342053890228271484375</LatitudeDegrees>
              <LongitudeDegrees>-2.94218153692781925201416015625</LongitudeDegrees>
            </Position>
            <AltitudeMeters>118</AltitudeMeters>
            <DistanceMeters>NAN</DistanceMeters>
          </Trackpoint>
          <Trackpoint>
            <Time>2022-09-24T16:40:28.000Z</Time>
            <Position>
              <LatitudeDegrees>43.3468565158545970916748046875</LatitudeDegrees>
              <LongitudeDegrees>-2.9421232827007770538330078125</LongitudeDegrees>
            </Position>
            <AltitudeMeters>118.1999969482421875</AltitudeMeters>
            <DistanceMeters>NAN</DistanceMeters>
          </Trackpoint>
          <Trackpoint>
            <Time>2022-09-24T16:40:29.000Z</Time>
            <Position>
              <LatitudeDegrees>43.3468317054212093353271484375</LatitudeDegrees>
              <LongitudeDegrees>-2.94206066988408565521240234375</LongitudeDegrees>
            </Position>
            <AltitudeMeters>118.1999969482421875</AltitudeMeters>
            <DistanceMeters>NAN</DistanceMeters>
          </Trackpoint>
          <Trackpoint>
            <Time>2022-09-24T16:40:30.000Z</Time>
            <Position>
              <LatitudeDegrees>43.34681443870067596435546875</LatitudeDegrees>
              <LongitudeDegrees>-2.942010127007961273193359375</LongitudeDegrees>
            </Position>
            <AltitudeMeters>118.40000152587890625</AltitudeMeters>
            <DistanceMeters>NAN</DistanceMeters>
          </Trackpoint>
          <Trackpoint>
            <Time>2022-09-24T16:40:31.000Z</Time>
            <Position>
              <LatitudeDegrees>43.34677982144057750701904296875</LatitudeDegrees>
              <LongitudeDegrees>-2.941934354603290557861328125</LongitudeDegrees>
            </Position>
            <AltitudeMeters>118.59999847412109375</AltitudeMeters>
            <DistanceMeters>NAN</DistanceMeters>
          </Trackpoint>
          <Trackpoint>
            <Time>2022-09-24T16:40:32.000Z</Time>
            <Position>
              <LatitudeDegrees>43.34677982144057750701904296875</LatitudeDegrees>
              <LongitudeDegrees>-2.941934354603290557861328125</LongitudeDegrees>
            </Position>
            <AltitudeMeters>118.8000030517578125</AltitudeMeters>
            <DistanceMeters>NAN</DistanceMeters>
          </Trackpoint>
          <Trackpoint>
            <Time>2022-09-24T16:40:33.000Z</Time>
            <Position>
              <LatitudeDegrees>43.3467100001871585845947265625</LatitudeDegrees>
              <LongitudeDegrees>-2.94180870987474918365478515625</LongitudeDegrees>
            </Position>
            <AltitudeMeters>118.8000030517578125</AltitudeMeters>
            <DistanceMeters>NAN</DistanceMeters>
          </Trackpoint>
          <Trackpoint>
            <Time>2022-09-24T16:40:34.000Z</Time>
            <Position>
              <LatitudeDegrees>43.34667789749801158905029296875</LatitudeDegrees>
              <LongitudeDegrees>-2.94174919836223125457763671875</LongitudeDegrees>
            </Position>
            <AltitudeMeters>119.1999969482421875</AltitudeMeters>
            <DistanceMeters>NAN</DistanceMeters>
          </Trackpoint>
          <Trackpoint>
            <Time>2022-09-24T16:40:35.000Z</Time>
            <Position>
              <LatitudeDegrees>43.346656523644924163818359375</LatitudeDegrees>
              <LongitudeDegrees>-2.94170142151415348052978515625</LongitudeDegrees>
            </Position>
            <AltitudeMeters>119.40000152587890625</AltitudeMeters>
            <DistanceMeters>NAN</DistanceMeters>
          </Trackpoint>
          <Trackpoint>
            <Time>2022-09-24T16:40:36.000Z</Time>
            <Position>
              <LatitudeDegrees>43.34662266075611114501953125</LatitudeDegrees>
              <LongitudeDegrees>-2.94162531383335590362548828125</LongitudeDegrees>
            </Position>
            <AltitudeMeters>119.40000152587890625</AltitudeMeters>
            <DistanceMeters>NAN</DistanceMeters>
          </Trackpoint>
          <Trackpoint>
            <Time>2022-09-24T16:40:37.000Z</Time>
            <Position>
              <LatitudeDegrees>43.34659089334309101104736328125</LatitudeDegrees>
              <LongitudeDegrees>-2.94157485477626323699951171875</LongitudeDegrees>
            </Position>
            <AltitudeMeters>119.59999847412109375</AltitudeMeters>
            <DistanceMeters>NAN</DistanceMeters>
          </Trackpoint>
          <Trackpoint>
            <Time>2022-09-24T16:40:38.000Z</Time>
            <Position>
              <LatitudeDegrees>43.3465386740863323211669921875</LatitudeDegrees>
              <LongitudeDegrees>-2.9415010102093219757080078125</LongitudeDegrees>
            </Position>
            <AltitudeMeters>119.8000030517578125</AltitudeMeters>
            <DistanceMeters>NAN</DistanceMeters>
          </Trackpoint>
          <Trackpoint>
            <Time>2022-09-24T16:40:39.000Z</Time>
            <Position>
              <LatitudeDegrees>43.3465014584362506866455078125</LatitudeDegrees>
              <LongitudeDegrees>-2.94144661165773868560791015625</LongitudeDegrees>
            </Position>
            <AltitudeMeters>120</AltitudeMeters>
            <DistanceMeters>NAN</DistanceMeters>
          </Trackpoint>
          <Trackpoint>
            <Time>2022-09-24T16:40:40.000Z</Time>
            <Position>
              <LatitudeDegrees>43.3464592136442661285400390625</LatitudeDegrees>
              <LongitudeDegrees>-2.94137142598628997802734375</LongitudeDegrees>
            </Position>
            <AltitudeMeters>120</AltitudeMeters>
            <DistanceMeters>NAN</DistanceMeters>
          </Trackpoint>
          <Trackpoint>
            <Time>2022-09-24T16:40:41.000Z</Time>
            <Position>
              <LatitudeDegrees>43.34641001187264919281005859375</LatitudeDegrees>
              <LongitudeDegrees>-2.94130579568445682525634765625</LongitudeDegrees>
            </Position>
            <AltitudeMeters>120.1999969482421875</AltitudeMeters>
            <DistanceMeters>NAN</DistanceMeters>
          </Trackpoint>
          <Trackpoint>
            <Time>2022-09-24T16:40:42.000Z</Time>
            <Position>
              <LatitudeDegrees>43.34635787643492221832275390625</LatitudeDegrees>
              <LongitudeDegrees>-2.94124930165708065032958984375</LongitudeDegrees>
            </Position>
            <AltitudeMeters>120.1999969482421875</AltitudeMeters>
            <DistanceMeters>NAN</DistanceMeters>
          </Trackpoint>
          <Trackpoint>
            <Time>2022-09-24T16:40:43.000Z</Time>
            <Position>
              <LatitudeDegrees>43.3463147096335887908935546875</LatitudeDegrees>
              <LongitudeDegrees>-2.94120202772319316864013671875</LongitudeDegrees>
            </Position>
            <AltitudeMeters>120.59999847412109375</AltitudeMeters>
            <DistanceMeters>NAN</DistanceMeters>
          </Trackpoint>
          <Trackpoint>
            <Time>2022-09-24T16:40:44.000Z</Time>
            <Position>
              <LatitudeDegrees>43.3462774939835071563720703125</LatitudeDegrees>
              <LongitudeDegrees>-2.94114519841969013214111328125</LongitudeDegrees>
            </Position>
            <AltitudeMeters>120.8000030517578125</AltitudeMeters>
            <DistanceMeters>NAN</DistanceMeters>
          </Trackpoint>
          <Trackpoint>
            <Time>2022-09-24T16:40:45.000Z</Time>
            <Position>
              <LatitudeDegrees>43.34625645540654659271240234375</LatitudeDegrees>
              <LongitudeDegrees>-2.94109641574323177337646484375</LongitudeDegrees>
            </Position>
            <AltitudeMeters>120.8000030517578125</AltitudeMeters>
            <DistanceMeters>NAN</DistanceMeters>
          </Trackpoint>
          <Trackpoint>
            <Time>2022-09-24T16:40:46.000Z</Time>
            <Position>
              <LatitudeDegrees>43.34622435271739959716796875</LatitudeDegrees>
              <LongitudeDegrees>-2.941025756299495697021484375</LongitudeDegrees>
            </Position>
            <AltitudeMeters>121</AltitudeMeters>
            <DistanceMeters>NAN</DistanceMeters>
          </Trackpoint>
          <Trackpoint>
            <Time>2022-09-24T16:40:47.000Z</Time>
            <Position>
              <LatitudeDegrees>43.34620314650237560272216796875</LatitudeDegrees>
              <LongitudeDegrees>-2.9409752972424030303955078125</LongitudeDegrees>
            </Position>
            <AltitudeMeters>121</AltitudeMeters>
            <DistanceMeters>NAN</DistanceMeters>
          </Trackpoint>
          <Trackpoint>
            <Time>2022-09-24T16:40:48.000Z</Time>
            <Position>
              <LatitudeDegrees>43.34616668522357940673828125</LatitudeDegrees>
              <LongitudeDegrees>-2.94092123396694660186767578125</LongitudeDegrees>
            </Position>
            <AltitudeMeters>121.1999969482421875</AltitudeMeters>
            <DistanceMeters>NAN</DistanceMeters>
          </Trackpoint>
          <Trackpoint>
            <Time>2022-09-24T16:40:49.000Z</Time>
            <Position>
              <LatitudeDegrees>43.34613106213510036468505859375</LatitudeDegrees>
              <LongitudeDegrees>-2.94086574576795101165771484375</LongitudeDegrees>
            </Position>
            <AltitudeMeters>121.1999969482421875</AltitudeMeters>
            <DistanceMeters>NAN</DistanceMeters>
          </Trackpoint>
          <Trackpoint>
            <Time>2022-09-24T16:40:50.000Z</Time>
            <Position>
              <LatitudeDegrees>43.34609736688435077667236328125</LatitudeDegrees>
              <LongitudeDegrees>-2.94081327505409717559814453125</LongitudeDegrees>
            </Position>
            <AltitudeMeters>121.1999969482421875</AltitudeMeters>
            <DistanceMeters>NAN</DistanceMeters>
          </Trackpoint>
          <Trackpoint>
            <Time>2022-09-24T16:40:51.000Z</Time>
            <Position>
              <LatitudeDegrees>43.3460625819861888885498046875</LatitudeDegrees>
              <LongitudeDegrees>-2.94076717458665370941162109375</LongitudeDegrees>
            </Position>
            <AltitudeMeters>121.8000030517578125</AltitudeMeters>
            <DistanceMeters>NAN</DistanceMeters>
          </Trackpoint>
          <Trackpoint>
            <Time>2022-09-24T16:40:52.000Z</Time>
            <Position>
              <LatitudeDegrees>43.34602796472609043121337890625</LatitudeDegrees>
              <LongitudeDegrees>-2.94071805663406848907470703125</LongitudeDegrees>
            </Position>
            <AltitudeMeters>122</AltitudeMeters>
            <DistanceMeters>NAN</DistanceMeters>
          </Trackpoint>
          <Trackpoint>
            <Time>2022-09-24T16:40:53.000Z</Time>
            <Position>
              <LatitudeDegrees>43.345994688570499420166015625</LatitudeDegrees>
              <LongitudeDegrees>-2.9406691901385784149169921875</LongitudeDegrees>
            </Position>
            <AltitudeMeters>122.1999969482421875</AltitudeMeters>
            <DistanceMeters>NAN</DistanceMeters>
          </Trackpoint>
          <Trackpoint>
            <Time>2022-09-24T16:40:54.000Z</Time>
            <Position>
              <LatitudeDegrees>43.34595923312008380889892578125</LatitudeDegrees>
              <LongitudeDegrees>-2.9406170547008514404296875</LongitudeDegrees>
            </Position>
            <AltitudeMeters>122.1999969482421875</AltitudeMeters>
            <DistanceMeters>NAN</DistanceMeters>
          </Trackpoint>
          <Trackpoint>
            <Time>2022-09-24T16:40:55.000Z</Time>
            <Position>
              <LatitudeDegrees>43.34592453204095363616943359375</LatitudeDegrees>
              <LongitudeDegrees>-2.94056651182472705841064453125</LongitudeDegrees>
            </Position>
            <AltitudeMeters>122.1999969482421875</AltitudeMeters>
            <DistanceMeters>NAN</DistanceMeters>
          </Trackpoint>
          <Trackpoint>
            <Time>2022-09-24T16:40:56.000Z</Time>
            <Position>
              <LatitudeDegrees>43.34588295780122280120849609375</LatitudeDegrees>
              <LongitudeDegrees>-2.94051538221538066864013671875</LongitudeDegrees>
            </Position>
            <AltitudeMeters>122.59999847412109375</AltitudeMeters>
            <DistanceMeters>NAN</DistanceMeters>
          </Trackpoint>
          <Trackpoint>
            <Time>2022-09-24T16:40:57.000Z</Time>
            <Position>
              <LatitudeDegrees>43.3458429761230945587158203125</LatitudeDegrees>
              <LongitudeDegrees>-2.940465174615383148193359375</LongitudeDegrees>
            </Position>
            <AltitudeMeters>122.59999847412109375</AltitudeMeters>
            <DistanceMeters>NAN</DistanceMeters>
          </Trackpoint>
          <Trackpoint>
            <Time>2022-09-24T16:40:58.000Z</Time>
            <Position>
              <LatitudeDegrees>43.34580726921558380126953125</LatitudeDegrees>
              <LongitudeDegrees>-2.94041312299668788909912109375</LongitudeDegrees>
            </Position>
            <AltitudeMeters>122.8000030517578125</AltitudeMeters>
            <DistanceMeters>NAN</DistanceMeters>
          </Trackpoint>
          <Trackpoint>
            <Time>2022-09-24T16:40:59.000Z</Time>
            <Position>
              <LatitudeDegrees>43.34577374160289764404296875</LatitudeDegrees>
              <LongitudeDegrees>-2.94035864062607288360595703125</LongitudeDegrees>
            </Position>
            <AltitudeMeters>123.1999969482421875</AltitudeMeters>
            <DistanceMeters>NAN</DistanceMeters>
          </Trackpoint>
          <Trackpoint>
            <Time>2022-09-24T16:41:00.000Z</Time>
            <Position>
              <LatitudeDegrees>43.3457403816282749176025390625</LatitudeDegrees>
              <LongitudeDegrees>-2.94030432589352130889892578125</LongitudeDegrees>
            </Position>
            <AltitudeMeters>123.40000152587890625</AltitudeMeters>
            <DistanceMeters>NAN</DistanceMeters>
          </Trackpoint>
          <Trackpoint>
            <Time>2022-09-24T16:41:01.000Z</Time>
            <Position>
              <LatitudeDegrees>43.34570509381592273712158203125</LatitudeDegrees>
              <LongitudeDegrees>-2.9402554593980312347412109375</LongitudeDegrees>
            </Position>
            <AltitudeMeters>123.59999847412109375</AltitudeMeters>
            <DistanceMeters>NAN</DistanceMeters>
          </Trackpoint>
          <Trackpoint>
            <Time>2022-09-24T16:41:02.000Z</Time>
            <Position>
              <LatitudeDegrees>43.345670141279697418212890625</LatitudeDegrees>
              <LongitudeDegrees>-2.94020106084644794464111328125</LongitudeDegrees>
            </Position>
            <AltitudeMeters>123.59999847412109375</AltitudeMeters>
            <DistanceMeters>NAN</DistanceMeters>
          </Trackpoint>
          <Trackpoint>
            <Time>2022-09-24T16:41:03.000Z</Time>
            <Position>
              <LatitudeDegrees>43.34563963115215301513671875</LatitudeDegrees>
              <LongitudeDegrees>-2.940145991742610931396484375</LongitudeDegrees>
            </Position>
            <AltitudeMeters>123.8000030517578125</AltitudeMeters>
            <DistanceMeters>NAN</DistanceMeters>
          </Trackpoint>
          <Trackpoint>
            <Time>2022-09-24T16:41:04.000Z</Time>
            <Position>
              <LatitudeDegrees>43.3456089533865451812744140625</LatitudeDegrees>
              <LongitudeDegrees>-2.940090335905551910400390625</LongitudeDegrees>
            </Position>
            <AltitudeMeters>123.8000030517578125</AltitudeMeters>
            <DistanceMeters>NAN</DistanceMeters>
          </Trackpoint>
          <Trackpoint>
            <Time>2022-09-24T16:41:05.000Z</Time>
            <Position>
              <LatitudeDegrees>43.3455744199454784393310546875</LatitudeDegrees>
              <LongitudeDegrees>-2.9400318302214145660400390625</LongitudeDegrees>
            </Position>
            <AltitudeMeters>123.8000030517578125</AltitudeMeters>
            <DistanceMeters>NAN</DistanceMeters>
          </Trackpoint>
          <Trackpoint>
            <Time>2022-09-24T16:41:06.000Z</Time>
            <Position>
              <LatitudeDegrees>43.3455445803701877593994140625</LatitudeDegrees>
              <LongitudeDegrees>-2.9399714805185794830322265625</LongitudeDegrees>
            </Position>
            <AltitudeMeters>123.8000030517578125</AltitudeMeters>
            <DistanceMeters>NAN</DistanceMeters>
          </Trackpoint>
          <Trackpoint>
            <Time>2022-09-24T16:41:07.000Z</Time>
            <Position>
              <LatitudeDegrees>43.34551381878554821014404296875</LatitudeDegrees>
              <LongitudeDegrees>-2.9399087838828563690185546875</LongitudeDegrees>
            </Position>
            <AltitudeMeters>124.1999969482421875</AltitudeMeters>
            <DistanceMeters>NAN</DistanceMeters>
          </Trackpoint>
          <Trackpoint>
            <Time>2022-09-24T16:41:08.000Z</Time>
            <Position>
              <LatitudeDegrees>43.34548565559089183807373046875</LatitudeDegrees>
              <LongitudeDegrees>-2.939846925437450408935546875</LongitudeDegrees>
            </Position>
            <AltitudeMeters>124.1999969482421875</AltitudeMeters>
            <DistanceMeters>NAN</DistanceMeters>
          </Trackpoint>
          <Trackpoint>
            <Time>2022-09-24T16:41:09.000Z</Time>
            <Position>
              <LatitudeDegrees>43.34546067751944065093994140625</LatitudeDegrees>
              <LongitudeDegrees>-2.93978347443044185638427734375</LongitudeDegrees>
            </Position>
            <AltitudeMeters>124.1999969482421875</AltitudeMeters>
            <DistanceMeters>NAN</DistanceMeters>
          </Trackpoint>
          <Trackpoint>
            <Time>2022-09-24T16:41:10.000Z</Time>
            <Position>
              <LatitudeDegrees>43.34543980658054351806640625</LatitudeDegrees>
              <LongitudeDegrees>-2.93971608392894268035888671875</LongitudeDegrees>
            </Position>
            <AltitudeMeters>124.40000152587890625</AltitudeMeters>
            <DistanceMeters>NAN</DistanceMeters>
          </Trackpoint>
          <Trackpoint>
            <Time>2022-09-24T16:41:11.000Z</Time>
            <Position>
              <LatitudeDegrees>43.34541969001293182373046875</LatitudeDegrees>
              <LongitudeDegrees>-2.93964944779872894287109375</LongitudeDegrees>
            </Position>
            <AltitudeMeters>124.40000152587890625</AltitudeMeters>
            <DistanceMeters>NAN</DistanceMeters>
          </Trackpoint>
          <Trackpoint>
            <Time>2022-09-24T16:41:12.000Z</Time>
            <Position>
              <LatitudeDegrees>43.34539890289306640625</LatitudeDegrees>
              <LongitudeDegrees>-2.9395859129726886749267578125</LongitudeDegrees>
            </Position>
            <AltitudeMeters>124.59999847412109375</AltitudeMeters>
            <DistanceMeters>NAN</DistanceMeters>
          </Trackpoint>
          <Trackpoint>
            <Time>2022-09-24T16:41:13.000Z</Time>
            <Position>
              <LatitudeDegrees>43.34537417627871036529541015625</LatitudeDegrees>
              <LongitudeDegrees>-2.93951827101409435272216796875</LongitudeDegrees>
            </Position>
            <AltitudeMeters>125.1999969482421875</AltitudeMeters>
            <DistanceMeters>NAN</DistanceMeters>
          </Trackpoint>
          <Trackpoint>
            <Time>2022-09-24T16:41:14.000Z</Time>
            <Position>
              <LatitudeDegrees>43.34534970112144947052001953125</LatitudeDegrees>
              <LongitudeDegrees>-2.93944987468421459197998046875</LongitudeDegrees>
            </Position>
            <AltitudeMeters>125.1999969482421875</AltitudeMeters>
            <DistanceMeters>NAN</DistanceMeters>
          </Trackpoint>
          <Trackpoint>
            <Time>2022-09-24T16:41:15.000Z</Time>
            <Position>
              <LatitudeDegrees>43.345324806869029998779296875</LatitudeDegrees>
              <LongitudeDegrees>-2.93938164599239826202392578125</LongitudeDegrees>
            </Position>
            <AltitudeMeters>125.40000152587890625</AltitudeMeters>
            <DistanceMeters>NAN</DistanceMeters>
          </Trackpoint>
          <Trackpoint>
            <Time>2022-09-24T16:41:16.000Z</Time>
            <Position>
              <LatitudeDegrees>43.34530242718756198883056640625</LatitudeDegrees>
              <LongitudeDegrees>-2.93931693769991397857666015625</LongitudeDegrees>
            </Position>
            <AltitudeMeters>125.40000152587890625</AltitudeMeters>
            <DistanceMeters>NAN</DistanceMeters>
          </Trackpoint>
          <Trackpoint>
            <Time>2022-09-24T16:41:17.000Z</Time>
            <Position>
              <LatitudeDegrees>43.34528147242963314056396484375</LatitudeDegrees>
              <LongitudeDegrees>-2.93925139121711254119873046875</LongitudeDegrees>
            </Position>
            <AltitudeMeters>125.40000152587890625</AltitudeMeters>
            <DistanceMeters>NAN</DistanceMeters>
          </Trackpoint>
          <Trackpoint>
            <Time>2022-09-24T16:41:18.000Z</Time>
            <Position>
              <LatitudeDegrees>43.34526269696652889251708984375</LatitudeDegrees>
              <LongitudeDegrees>-2.93918148614466190338134765625</LongitudeDegrees>
            </Position>
            <AltitudeMeters>125.59999847412109375</AltitudeMeters>
            <DistanceMeters>NAN</DistanceMeters>
          </Trackpoint>
          <Trackpoint>
            <Time>2022-09-24T16:41:19.000Z</Time>
            <Position>
              <LatitudeDegrees>43.3452431671321392059326171875</LatitudeDegrees>
              <LongitudeDegrees>-2.93911342509090900421142578125</LongitudeDegrees>
            </Position>
            <AltitudeMeters>125.8000030517578125</AltitudeMeters>
            <DistanceMeters>NAN</DistanceMeters>
          </Trackpoint>
          <Trackpoint>
            <Time>2022-09-24T16:41:20.000Z</Time>
            <Position>
              <LatitudeDegrees>43.345221541821956634521484375</LatitudeDegrees>
              <LongitudeDegrees>-2.93904595077037811279296875</LongitudeDegrees>
            </Position>
            <AltitudeMeters>126.1999969482421875</AltitudeMeters>
            <DistanceMeters>NAN</DistanceMeters>
          </Trackpoint>
          <Trackpoint>
            <Time>2022-09-24T16:41:21.000Z</Time>
            <Position>
              <LatitudeDegrees>43.3452005870640277862548828125</LatitudeDegrees>
              <LongitudeDegrees>-2.93897763825953006744384765625</LongitudeDegrees>
            </Position>
            <AltitudeMeters>126.40000152587890625</AltitudeMeters>
            <DistanceMeters>NAN</DistanceMeters>
          </Trackpoint>
          <Trackpoint>
            <Time>2022-09-24T16:41:22.000Z</Time>
            <Position>
              <LatitudeDegrees>43.34517753683030605316162109375</LatitudeDegrees>
              <LongitudeDegrees>-2.93891309760510921478271484375</LongitudeDegrees>
            </Position>
            <AltitudeMeters>126.40000152587890625</AltitudeMeters>
            <DistanceMeters>NAN</DistanceMeters>
          </Trackpoint>
          <Trackpoint>
            <Time>2022-09-24T16:41:23.000Z</Time>
            <Position>
              <LatitudeDegrees>43.34515423513948917388916015625</LatitudeDegrees>
              <LongitudeDegrees>-2.93884671293199062347412109375</LongitudeDegrees>
            </Position>
            <AltitudeMeters>127</AltitudeMeters>
            <DistanceMeters>NAN</DistanceMeters>
          </Trackpoint>
          <Trackpoint>
            <Time>2022-09-24T16:41:24.000Z</Time>
            <Position>
              <LatitudeDegrees>43.3451293408870697021484375</LatitudeDegrees>
              <LongitudeDegrees>-2.9387822560966014862060546875</LongitudeDegrees>
            </Position>
            <AltitudeMeters>127</AltitudeMeters>
            <DistanceMeters>NAN</DistanceMeters>
          </Trackpoint>
          <Trackpoint>
            <Time>2022-09-24T16:41:25.000Z</Time>
            <Position>
              <LatitudeDegrees>43.34510562010109424591064453125</LatitudeDegrees>
              <LongitudeDegrees>-2.93871897272765636444091796875</LongitudeDegrees>
            </Position>
            <AltitudeMeters>127.1999969482421875</AltitudeMeters>
            <DistanceMeters>NAN</DistanceMeters>
          </Trackpoint>
          <Trackpoint>
            <Time>2022-09-24T16:41:26.000Z</Time>
            <Position>
              <LatitudeDegrees>43.345078714191913604736328125</LatitudeDegrees>
              <LongitudeDegrees>-2.9386548511683940887451171875</LongitudeDegrees>
            </Position>
            <AltitudeMeters>127.40000152587890625</AltitudeMeters>
            <DistanceMeters>NAN</DistanceMeters>
          </Trackpoint>
          <Trackpoint>
            <Time>2022-09-24T16:41:27.000Z</Time>
            <Position>
              <LatitudeDegrees>43.34505147300660610198974609375</LatitudeDegrees>
              <LongitudeDegrees>-2.938590981066226959228515625</LongitudeDegrees>
            </Position>
            <AltitudeMeters>127.40000152587890625</AltitudeMeters>
            <DistanceMeters>NAN</DistanceMeters>
          </Trackpoint>
          <Trackpoint>
            <Time>2022-09-24T16:41:28.000Z</Time>
            <Position>
              <LatitudeDegrees>43.34502649493515491485595703125</LatitudeDegrees>
              <LongitudeDegrees>-2.9385276138782501220703125</LongitudeDegrees>
            </Position>
            <AltitudeMeters>127.59999847412109375</AltitudeMeters>
            <DistanceMeters>NAN</DistanceMeters>
          </Trackpoint>
          <Trackpoint>
            <Time>2022-09-24T16:41:29.000Z</Time>
            <Position>
              <LatitudeDegrees>43.3450005948543548583984375</LatitudeDegrees>
              <LongitudeDegrees>-2.9384660907089710235595703125</LongitudeDegrees>
            </Position>
            <AltitudeMeters>128</AltitudeMeters>
            <DistanceMeters>NAN</DistanceMeters>
          </Trackpoint>
          <Trackpoint>
            <Time>2022-09-24T16:41:30.000Z</Time>
            <Position>
              <LatitudeDegrees>43.34497469477355480194091796875</LatitudeDegrees>
              <LongitudeDegrees>-2.9384069144725799560546875</LongitudeDegrees>
            </Position>
            <AltitudeMeters>128</AltitudeMeters>
            <DistanceMeters>NAN</DistanceMeters>
          </Trackpoint>
          <Trackpoint>
            <Time>2022-09-24T16:41:31.000Z</Time>
            <Position>
              <LatitudeDegrees>43.34494896233081817626953125</LatitudeDegrees>
              <LongitudeDegrees>-2.93834882788360118865966796875</LongitudeDegrees>
            </Position>
            <AltitudeMeters>128.1999969482421875</AltitudeMeters>
            <DistanceMeters>NAN</DistanceMeters>
          </Trackpoint>
          <Trackpoint>
            <Time>2022-09-24T16:41:32.000Z</Time>
            <Position>
              <LatitudeDegrees>43.34491920657455921173095703125</LatitudeDegrees>
              <LongitudeDegrees>-2.9382897354662418365478515625</LongitudeDegrees>
            </Position>
            <AltitudeMeters>128.1999969482421875</AltitudeMeters>
            <DistanceMeters>NAN</DistanceMeters>
          </Trackpoint>
          <Trackpoint>
            <Time>2022-09-24T16:41:33.000Z</Time>
            <Position>
              <LatitudeDegrees>43.34489238448441028594970703125</LatitudeDegrees>
              <LongitudeDegrees>-2.93823114596307277679443359375</LongitudeDegrees>
            </Position>
            <AltitudeMeters>128.399993896484375</AltitudeMeters>
            <DistanceMeters>NAN</DistanceMeters>
          </Trackpoint>
          <Trackpoint>
            <Time>2022-09-24T16:41:34.000Z</Time>
            <Position>
              <LatitudeDegrees>43.34486623294651508331298828125</LatitudeDegrees>
              <LongitudeDegrees>-2.9381708800792694091796875</LongitudeDegrees>
            </Position>
            <AltitudeMeters>128.600006103515625</AltitudeMeters>
            <DistanceMeters>NAN</DistanceMeters>
          </Trackpoint>
          <Trackpoint>
            <Time>2022-09-24T16:41:35.000Z</Time>
            <Position>
              <LatitudeDegrees>43.3448384888470172882080078125</LatitudeDegrees>
              <LongitudeDegrees>-2.93811254203319549560546875</LongitudeDegrees>
            </Position>
            <AltitudeMeters>129</AltitudeMeters>
            <DistanceMeters>NAN</DistanceMeters>
          </Trackpoint>
          <Trackpoint>
            <Time>2022-09-24T16:41:36.000Z</Time>
            <Position>
              <LatitudeDegrees>43.344811163842678070068359375</LatitudeDegrees>
              <LongitudeDegrees>-2.938051186501979827880859375</LongitudeDegrees>
            </Position>
            <AltitudeMeters>129</AltitudeMeters>
            <DistanceMeters>NAN</DistanceMeters>
          </Trackpoint>
          <Trackpoint>
            <Time>2022-09-24T16:41:37.000Z</Time>
            <Position>
              <LatitudeDegrees>43.3447918854653835296630859375</LatitudeDegrees>
              <LongitudeDegrees>-2.937989495694637298583984375</LongitudeDegrees>
            </Position>
            <AltitudeMeters>129</AltitudeMeters>
            <DistanceMeters>NAN</DistanceMeters>
          </Trackpoint>
          <Trackpoint>
            <Time>2022-09-24T16:41:38.000Z</Time>
            <Position>
              <LatitudeDegrees>43.344763219356536865234375</LatitudeDegrees>
              <LongitudeDegrees>-2.93792906217277050018310546875</LongitudeDegrees>
            </Position>
            <AltitudeMeters>129.1999969482421875</AltitudeMeters>
            <DistanceMeters>NAN</DistanceMeters>
          </Trackpoint>
          <Trackpoint>
            <Time>2022-09-24T16:41:39.000Z</Time>
            <Position>
              <LatitudeDegrees>43.34473648108541965484619140625</LatitudeDegrees>
              <LongitudeDegrees>-2.9378682933747768402099609375</LongitudeDegrees>
            </Position>
            <AltitudeMeters>129.1999969482421875</AltitudeMeters>
            <DistanceMeters>NAN</DistanceMeters>
          </Trackpoint>
          <Trackpoint>
            <Time>2022-09-24T16:41:40.000Z</Time>
            <Position>
              <LatitudeDegrees>43.34470932371914386749267578125</LatitudeDegrees>
              <LongitudeDegrees>-2.937810122966766357421875</LongitudeDegrees>
            </Position>
            <AltitudeMeters>129.1999969482421875</AltitudeMeters>
            <DistanceMeters>NAN</DistanceMeters>
          </Trackpoint>
          <Trackpoint>
            <Time>2022-09-24T16:41:41.000Z</Time>
            <Position>
              <LatitudeDegrees>43.34467277862131595611572265625</LatitudeDegrees>
              <LongitudeDegrees>-2.93774147517979145050048828125</LongitudeDegrees>
            </Position>
            <AltitudeMeters>129.399993896484375</AltitudeMeters>
            <DistanceMeters>NAN</DistanceMeters>
          </Trackpoint>
          <Trackpoint>
            <Time>2022-09-24T16:41:42.000Z</Time>
            <Position>
              <LatitudeDegrees>43.34464780054986476898193359375</LatitudeDegrees>
              <LongitudeDegrees>-2.937694452702999114990234375</LongitudeDegrees>
            </Position>
            <AltitudeMeters>129.8000030517578125</AltitudeMeters>
            <DistanceMeters>NAN</DistanceMeters>
          </Trackpoint>
          <Trackpoint>
            <Time>2022-09-24T16:41:43.000Z</Time>
            <Position>
              <LatitudeDegrees>43.34461628459393978118896484375</LatitudeDegrees>
              <LongitudeDegrees>-2.93763552792370319366455078125</LongitudeDegrees>
            </Position>
            <AltitudeMeters>130</AltitudeMeters>
            <DistanceMeters>NAN</DistanceMeters>
          </Trackpoint>
          <Trackpoint>
            <Time>2022-09-24T16:41:44.000Z</Time>
            <Position>
              <LatitudeDegrees>43.3445830084383487701416015625</LatitudeDegrees>
              <LongitudeDegrees>-2.93757651932537555694580078125</LongitudeDegrees>
            </Position>
            <AltitudeMeters>130</AltitudeMeters>
            <DistanceMeters>NAN</DistanceMeters>
          </Trackpoint>
          <Trackpoint>
            <Time>2022-09-24T16:41:45.000Z</Time>
            <Position>
              <LatitudeDegrees>43.3445498161017894744873046875</LatitudeDegrees>
              <LongitudeDegrees>-2.937515415251255035400390625</LongitudeDegrees>
            </Position>
            <AltitudeMeters>130</AltitudeMeters>
            <DistanceMeters>NAN</DistanceMeters>
          </Trackpoint>
          <Trackpoint>
            <Time>2022-09-24T16:41:46.000Z</Time>
            <Position>
              <LatitudeDegrees>43.34451436065137386322021484375</LatitudeDegrees>
              <LongitudeDegrees>-2.93744157068431377410888671875</LongitudeDegrees>
            </Position>
            <AltitudeMeters>130.1999969482421875</AltitudeMeters>
            <DistanceMeters>NAN</DistanceMeters>
          </Trackpoint>
          <Trackpoint>
            <Time>2022-09-24T16:41:47.000Z</Time>
            <Position>
              <LatitudeDegrees>43.3444901369512081146240234375</LatitudeDegrees>
              <LongitudeDegrees>-2.9373911954462528228759765625</LongitudeDegrees>
            </Position>
            <AltitudeMeters>130.1999969482421875</AltitudeMeters>
            <DistanceMeters>NAN</DistanceMeters>
          </Trackpoint>
          <Trackpoint>
            <Time>2022-09-24T16:41:48.000Z</Time>
            <Position>
              <LatitudeDegrees>43.34446105174720287322998046875</LatitudeDegrees>
              <LongitudeDegrees>-2.937324978411197662353515625</LongitudeDegrees>
            </Position>
            <AltitudeMeters>130.399993896484375</AltitudeMeters>
            <DistanceMeters>NAN</DistanceMeters>
          </Trackpoint>
          <Trackpoint>
            <Time>2022-09-24T16:41:49.000Z</Time>
            <Position>
              <LatitudeDegrees>43.34443020634353160858154296875</LatitudeDegrees>
              <LongitudeDegrees>-2.93726236559450626373291015625</LongitudeDegrees>
            </Position>
            <AltitudeMeters>130.399993896484375</AltitudeMeters>
            <DistanceMeters>NAN</DistanceMeters>
          </Trackpoint>
          <Trackpoint>
            <Time>2022-09-24T16:41:50.000Z</Time>
            <Position>
              <LatitudeDegrees>43.34439776837825775146484375</LatitudeDegrees>
              <LongitudeDegrees>-2.93720059096813201904296875</LongitudeDegrees>
            </Position>
            <AltitudeMeters>130.600006103515625</AltitudeMeters>
            <DistanceMeters>NAN</DistanceMeters>
          </Trackpoint>
          <Trackpoint>
            <Time>2022-09-24T16:41:51.000Z</Time>
            <Position>
              <LatitudeDegrees>43.3443644084036350250244140625</LatitudeDegrees>
              <LongitudeDegrees>-2.93713730759918689727783203125</LongitudeDegrees>
            </Position>
            <AltitudeMeters>130.600006103515625</AltitudeMeters>
            <DistanceMeters>NAN</DistanceMeters>
          </Trackpoint>
          <Trackpoint>
            <Time>2022-09-24T16:41:52.000Z</Time>
            <Position>
              <LatitudeDegrees>43.34433046169579029083251953125</LatitudeDegrees>
              <LongitudeDegrees>-2.9370733536779880523681640625</LongitudeDegrees>
            </Position>
            <AltitudeMeters>130.8000030517578125</AltitudeMeters>
            <DistanceMeters>NAN</DistanceMeters>
          </Trackpoint>
          <Trackpoint>
            <Time>2022-09-24T16:41:53.000Z</Time>
            <Position>
              <LatitudeDegrees>43.34428888745605945587158203125</LatitudeDegrees>
              <LongitudeDegrees>-2.936999090015888214111328125</LongitudeDegrees>
            </Position>
            <AltitudeMeters>130.8000030517578125</AltitudeMeters>
            <DistanceMeters>NAN</DistanceMeters>
          </Trackpoint>
          <Trackpoint>
            <Time>2022-09-24T16:41:54.000Z</Time>
            <Position>
              <LatitudeDegrees>43.34425963461399078369140625</LatitudeDegrees>
              <LongitudeDegrees>-2.9369519837200641632080078125</LongitudeDegrees>
            </Position>
            <AltitudeMeters>130.8000030517578125</AltitudeMeters>
            <DistanceMeters>NAN</DistanceMeters>
          </Trackpoint>
          <Trackpoint>
            <Time>2022-09-24T16:41:55.000Z</Time>
            <Position>
              <LatitudeDegrees>43.344223760068416595458984375</LatitudeDegrees>
              <LongitudeDegrees>-2.93689372949302196502685546875</LongitudeDegrees>
            </Position>
            <AltitudeMeters>130.8000030517578125</AltitudeMeters>
            <DistanceMeters>NAN</DistanceMeters>
          </Trackpoint>
          <Trackpoint>
            <Time>2022-09-24T16:41:56.000Z</Time>
            <Position>
              <LatitudeDegrees>43.34418319165706634521484375</LatitudeDegrees>
              <LongitudeDegrees>-2.9368229024112224578857421875</LongitudeDegrees>
            </Position>
            <AltitudeMeters>131.600006103515625</AltitudeMeters>
            <DistanceMeters>NAN</DistanceMeters>
          </Trackpoint>
          <Trackpoint>
            <Time>2022-09-24T16:41:57.000Z</Time>
            <Position>
              <LatitudeDegrees>43.34418319165706634521484375</LatitudeDegrees>
              <LongitudeDegrees>-2.9368229024112224578857421875</LongitudeDegrees>
            </Position>
            <AltitudeMeters>131.8000030517578125</AltitudeMeters>
            <DistanceMeters>NAN</DistanceMeters>
          </Trackpoint>
          <Trackpoint>
            <Time>2022-09-24T16:41:58.000Z</Time>
            <Position>
              <LatitudeDegrees>43.34411102347075939178466796875</LatitudeDegrees>
              <LongitudeDegrees>-2.93671553023159503936767578125</LongitudeDegrees>
            </Position>
            <AltitudeMeters>132</AltitudeMeters>
            <DistanceMeters>NAN</DistanceMeters>
          </Trackpoint>
          <Trackpoint>
            <Time>2022-09-24T16:41:59.000Z</Time>
            <Position>
              <LatitudeDegrees>43.3440834470093250274658203125</LatitudeDegrees>
              <LongitudeDegrees>-2.9366715252399444580078125</LongitudeDegrees>
            </Position>
            <AltitudeMeters>132</AltitudeMeters>
            <DistanceMeters>NAN</DistanceMeters>
          </Trackpoint>
          <Trackpoint>
            <Time>2022-09-24T16:42:00.000Z</Time>
            <Position>
              <LatitudeDegrees>43.34404983557760715484619140625</LatitudeDegrees>
              <LongitudeDegrees>-2.9366180486977100372314453125</LongitudeDegrees>
            </Position>
            <AltitudeMeters>132.1999969482421875</AltitudeMeters>
            <DistanceMeters>NAN</DistanceMeters>
          </Trackpoint>
          <Trackpoint>
            <Time>2022-09-24T16:42:01.000Z</Time>
            <Position>
              <LatitudeDegrees>43.34401446394622325897216796875</LatitudeDegrees>
              <LongitudeDegrees>-2.93656415306031703948974609375</LongitudeDegrees>
            </Position>
            <AltitudeMeters>132.1999969482421875</AltitudeMeters>
            <DistanceMeters>NAN</DistanceMeters>
          </Trackpoint>
          <Trackpoint>
            <Time>2022-09-24T16:42:02.000Z</Time>
            <Position>
              <LatitudeDegrees>43.3439801819622516632080078125</LatitudeDegrees>
              <LongitudeDegrees>-2.93651453219354152679443359375</LongitudeDegrees>
            </Position>
            <AltitudeMeters>132.600006103515625</AltitudeMeters>
            <DistanceMeters>NAN</DistanceMeters>
          </Trackpoint>
          <Trackpoint>
            <Time>2022-09-24T16:42:03.000Z</Time>
            <Position>
              <LatitudeDegrees>43.343945480883121490478515625</LatitudeDegrees>
              <LongitudeDegrees>-2.93646373786032199859619140625</LongitudeDegrees>
            </Position>
            <AltitudeMeters>132.8000030517578125</AltitudeMeters>
            <DistanceMeters>NAN</DistanceMeters>
          </Trackpoint>
          <Trackpoint>
            <Time>2022-09-24T16:42:04.000Z</Time>
            <Position>
              <LatitudeDegrees>43.34391170181334018707275390625</LatitudeDegrees>
              <LongitudeDegrees>-2.936415374279022216796875</LongitudeDegrees>
            </Position>
            <AltitudeMeters>132.8000030517578125</AltitudeMeters>
            <DistanceMeters>NAN</DistanceMeters>
          </Trackpoint>
          <Trackpoint>
            <Time>2022-09-24T16:42:05.000Z</Time>
            <Position>
              <LatitudeDegrees>43.34387850947678089141845703125</LatitudeDegrees>
              <LongitudeDegrees>-2.9363625682890415191650390625</LongitudeDegrees>
            </Position>
            <AltitudeMeters>133</AltitudeMeters>
            <DistanceMeters>NAN</DistanceMeters>
          </Trackpoint>
          <Trackpoint>
            <Time>2022-09-24T16:42:06.000Z</Time>
            <Position>
              <LatitudeDegrees>43.34384615533053874969482421875</LatitudeDegrees>
              <LongitudeDegrees>-2.93631009757518768310546875</LongitudeDegrees>
            </Position>
            <AltitudeMeters>133</AltitudeMeters>
            <DistanceMeters>NAN</DistanceMeters>
          </Trackpoint>
          <Trackpoint>
            <Time>2022-09-24T16:42:07.000Z</Time>
            <Position>
              <LatitudeDegrees>43.34381329827010631561279296875</LatitudeDegrees>
              <LongitudeDegrees>-2.9362589679658412933349609375</LongitudeDegrees>
            </Position>
            <AltitudeMeters>133</AltitudeMeters>
            <DistanceMeters>NAN</DistanceMeters>
          </Trackpoint>
          <Trackpoint>
            <Time>2022-09-24T16:42:08.000Z</Time>
            <Position>
              <LatitudeDegrees>43.34378194995224475860595703125</LatitudeDegrees>
              <LongitudeDegrees>-2.93621161021292209625244140625</LongitudeDegrees>
            </Position>
            <AltitudeMeters>133.399993896484375</AltitudeMeters>
            <DistanceMeters>NAN</DistanceMeters>
          </Trackpoint>
          <Trackpoint>
            <Time>2022-09-24T16:42:09.000Z</Time>
            <Position>
              <LatitudeDegrees>43.343749344348907470703125</LatitudeDegrees>
              <LongitudeDegrees>-2.93616835959255695343017578125</LongitudeDegrees>
            </Position>
            <AltitudeMeters>133.399993896484375</AltitudeMeters>
            <DistanceMeters>NAN</DistanceMeters>
          </Trackpoint>
          <Trackpoint>
            <Time>2022-09-24T16:42:10.000Z</Time>
            <Position>
              <LatitudeDegrees>43.34371774457395076751708984375</LatitudeDegrees>
              <LongitudeDegrees>-2.9361251927912235260009765625</LongitudeDegrees>
            </Position>
            <AltitudeMeters>133.600006103515625</AltitudeMeters>
            <DistanceMeters>NAN</DistanceMeters>
          </Trackpoint>
          <Trackpoint>
            <Time>2022-09-24T16:42:11.000Z</Time>
            <Position>
              <LatitudeDegrees>43.34368756972253322601318359375</LatitudeDegrees>
              <LongitudeDegrees>-2.9360765777528285980224609375</LongitudeDegrees>
            </Position>
            <AltitudeMeters>133.600006103515625</AltitudeMeters>
            <DistanceMeters>NAN</DistanceMeters>
          </Trackpoint>
          <Trackpoint>
            <Time>2022-09-24T16:42:12.000Z</Time>
            <Position>
              <LatitudeDegrees>43.34365085698664188385009765625</LatitudeDegrees>
              <LongitudeDegrees>-2.936022095382213592529296875</LongitudeDegrees>
            </Position>
            <AltitudeMeters>133.8000030517578125</AltitudeMeters>
            <DistanceMeters>NAN</DistanceMeters>
          </Trackpoint>
          <Trackpoint>
            <Time>2022-09-24T16:42:13.000Z</Time>
            <Position>
              <LatitudeDegrees>43.34362722001969814300537109375</LatitudeDegrees>
              <LongitudeDegrees>-2.9359848797321319580078125</LongitudeDegrees>
            </Position>
            <AltitudeMeters>133.8000030517578125</AltitudeMeters>
            <DistanceMeters>NAN</DistanceMeters>
          </Trackpoint>
          <Trackpoint>
            <Time>2022-09-24T16:42:14.000Z</Time>
            <Position>
              <LatitudeDegrees>43.34359788335859775543212890625</LatitudeDegrees>
              <LongitudeDegrees>-2.9359364323318004608154296875</LongitudeDegrees>
            </Position>
            <AltitudeMeters>133.8000030517578125</AltitudeMeters>
            <DistanceMeters>NAN</DistanceMeters>
          </Trackpoint>
          <Trackpoint>
            <Time>2022-09-24T16:42:15.000Z</Time>
            <Position>
              <LatitudeDegrees>43.3435656130313873291015625</LatitudeDegrees>
              <LongitudeDegrees>-2.93589008040726184844970703125</LongitudeDegrees>
            </Position>
            <AltitudeMeters>134</AltitudeMeters>
            <DistanceMeters>NAN</DistanceMeters>
          </Trackpoint>
          <Trackpoint>
            <Time>2022-09-24T16:42:16.000Z</Time>
            <Position>
              <LatitudeDegrees>43.343522362411022186279296875</LatitudeDegrees>
              <LongitudeDegrees>-2.9358373582363128662109375</LongitudeDegrees>
            </Position>
            <AltitudeMeters>134</AltitudeMeters>
            <DistanceMeters>NAN</DistanceMeters>
          </Trackpoint>
          <Trackpoint>
            <Time>2022-09-24T16:42:17.000Z</Time>
            <Position>
              <LatitudeDegrees>43.3434936963021755218505859375</LatitudeDegrees>
              <LongitudeDegrees>-2.93580408208072185516357421875</LongitudeDegrees>
            </Position>
            <AltitudeMeters>134.600006103515625</AltitudeMeters>
            <DistanceMeters>NAN</DistanceMeters>
          </Trackpoint>
          <Trackpoint>
            <Time>2022-09-24T16:42:18.000Z</Time>
            <Position>
              <LatitudeDegrees>43.3434514515101909637451171875</LatitudeDegrees>
              <LongitudeDegrees>-2.9357543773949146270751953125</LongitudeDegrees>
            </Position>
            <AltitudeMeters>134.600006103515625</AltitudeMeters>
            <DistanceMeters>NAN</DistanceMeters>
          </Trackpoint>
          <Trackpoint>
            <Time>2022-09-24T16:42:19.000Z</Time>
            <Position>
              <LatitudeDegrees>43.3434236235916614532470703125</LatitudeDegrees>
              <LongitudeDegrees>-2.93572378344833850860595703125</LongitudeDegrees>
            </Position>
            <AltitudeMeters>134.8000030517578125</AltitudeMeters>
            <DistanceMeters>NAN</DistanceMeters>
          </Trackpoint>
          <Trackpoint>
            <Time>2022-09-24T16:42:20.000Z</Time>
            <Position>
              <LatitudeDegrees>43.34338950924575328826904296875</LatitudeDegrees>
              <LongitudeDegrees>-2.935685478150844573974609375</LongitudeDegrees>
            </Position>
            <AltitudeMeters>135</AltitudeMeters>
            <DistanceMeters>NAN</DistanceMeters>
          </Trackpoint>
          <Trackpoint>
            <Time>2022-09-24T16:42:21.000Z</Time>
            <Position>
              <LatitudeDegrees>43.3433458395302295684814453125</LatitudeDegrees>
              <LongitudeDegrees>-2.93563929386436939239501953125</LongitudeDegrees>
            </Position>
            <AltitudeMeters>135.1999969482421875</AltitudeMeters>
            <DistanceMeters>NAN</DistanceMeters>
          </Trackpoint>
          <Trackpoint>
            <Time>2022-09-24T16:42:22.000Z</Time>
            <Position>
              <LatitudeDegrees>43.343309797346591949462890625</LatitudeDegrees>
              <LongitudeDegrees>-2.93559755198657512664794921875</LongitudeDegrees>
            </Position>
            <AltitudeMeters>135.1999969482421875</AltitudeMeters>
            <DistanceMeters>NAN</DistanceMeters>
          </Trackpoint>
          <Trackpoint>
            <Time>2022-09-24T16:42:23.000Z</Time>
            <Position>
              <LatitudeDegrees>43.34327518008649349212646484375</LatitudeDegrees>
              <LongitudeDegrees>-2.93555346317589282989501953125</LongitudeDegrees>
            </Position>
            <AltitudeMeters>135.399993896484375</AltitudeMeters>
            <DistanceMeters>NAN</DistanceMeters>
          </Trackpoint>
          <Trackpoint>
            <Time>2022-09-24T16:42:24.000Z</Time>
            <Position>
              <LatitudeDegrees>43.3432464301586151123046875</LatitudeDegrees>
              <LongitudeDegrees>-2.93552077375352382659912109375</LongitudeDegrees>
            </Position>
            <AltitudeMeters>135.8000030517578125</AltitudeMeters>
            <DistanceMeters>NAN</DistanceMeters>
          </Trackpoint>
          <Trackpoint>
            <Time>2022-09-24T16:42:25.000Z</Time>
            <Position>
              <LatitudeDegrees>43.34320929832756519317626953125</LatitudeDegrees>
              <LongitudeDegrees>-2.935476936399936676025390625</LongitudeDegrees>
            </Position>
            <AltitudeMeters>136</AltitudeMeters>
            <DistanceMeters>NAN</DistanceMeters>
          </Trackpoint>
          <Trackpoint>
            <Time>2022-09-24T16:42:26.000Z</Time>
            <Position>
              <LatitudeDegrees>43.34316738881170749664306640625</LatitudeDegrees>
              <LongitudeDegrees>-2.9354274831712245941162109375</LongitudeDegrees>
            </Position>
            <AltitudeMeters>136</AltitudeMeters>
            <DistanceMeters>NAN</DistanceMeters>
          </Trackpoint>
          <Trackpoint>
            <Time>2022-09-24T16:42:27.000Z</Time>
            <Position>
              <LatitudeDegrees>43.34313704632222652435302734375</LatitudeDegrees>
              <LongitudeDegrees>-2.93539370410144329071044921875</LongitudeDegrees>
            </Position>
            <AltitudeMeters>136.1999969482421875</AltitudeMeters>
            <DistanceMeters>NAN</DistanceMeters>
          </Trackpoint>
          <Trackpoint>
            <Time>2022-09-24T16:42:28.000Z</Time>
            <Position>
              <LatitudeDegrees>43.34309077821671962738037109375</LatitudeDegrees>
              <LongitudeDegrees>-2.9353433288633823394775390625</LongitudeDegrees>
            </Position>
            <AltitudeMeters>136.1999969482421875</AltitudeMeters>
            <DistanceMeters>NAN</DistanceMeters>
          </Trackpoint>
          <Trackpoint>
            <Time>2022-09-24T16:42:29.000Z</Time>
            <Position>
              <LatitudeDegrees>43.3430581726133823394775390625</LatitudeDegrees>
              <LongitudeDegrees>-2.93530887924134731292724609375</LongitudeDegrees>
            </Position>
            <AltitudeMeters>136.399993896484375</AltitudeMeters>
            <DistanceMeters>NAN</DistanceMeters>
          </Trackpoint>
          <Trackpoint>
            <Time>2022-09-24T16:42:30.000Z</Time>
            <Position>
              <LatitudeDegrees>43.34302204661071300506591796875</LatitudeDegrees>
              <LongitudeDegrees>-2.93526546098291873931884765625</LongitudeDegrees>
            </Position>
            <AltitudeMeters>136.600006103515625</AltitudeMeters>
            <DistanceMeters>NAN</DistanceMeters>
          </Trackpoint>
          <Trackpoint>
            <Time>2022-09-24T16:42:31.000Z</Time>
            <Position>
              <LatitudeDegrees>43.3429827354848384857177734375</LatitudeDegrees>
              <LongitudeDegrees>-2.9352085478603839874267578125</LongitudeDegrees>
            </Position>
            <AltitudeMeters>136.600006103515625</AltitudeMeters>
            <DistanceMeters>NAN</DistanceMeters>
          </Trackpoint>
          <Trackpoint>
            <Time>2022-09-24T16:42:32.000Z</Time>
            <Position>
              <LatitudeDegrees>43.342951722443103790283203125</LatitudeDegrees>
              <LongitudeDegrees>-2.93515850789844989776611328125</LongitudeDegrees>
            </Position>
            <AltitudeMeters>136.8000030517578125</AltitudeMeters>
            <DistanceMeters>NAN</DistanceMeters>
          </Trackpoint>
          <Trackpoint>
            <Time>2022-09-24T16:42:33.000Z</Time>
            <Position>
              <LatitudeDegrees>43.342915512621402740478515625</LatitudeDegrees>
              <LongitudeDegrees>-2.9351069591939449310302734375</LongitudeDegrees>
            </Position>
            <AltitudeMeters>136.8000030517578125</AltitudeMeters>
            <DistanceMeters>NAN</DistanceMeters>
          </Trackpoint>
          <Trackpoint>
            <Time>2022-09-24T16:42:34.000Z</Time>
            <Position>
              <LatitudeDegrees>43.34288223646581172943115234375</LatitudeDegrees>
              <LongitudeDegrees>-2.935063876211643218994140625</LongitudeDegrees>
            </Position>
            <AltitudeMeters>137</AltitudeMeters>
            <DistanceMeters>NAN</DistanceMeters>
          </Trackpoint>
          <Trackpoint>
            <Time>2022-09-24T16:42:35.000Z</Time>
            <Position>
              <LatitudeDegrees>43.34288223646581172943115234375</LatitudeDegrees>
              <LongitudeDegrees>-2.935063876211643218994140625</LongitudeDegrees>
            </Position>
            <AltitudeMeters>137.1999969482421875</AltitudeMeters>
            <DistanceMeters>NAN</DistanceMeters>
          </Trackpoint>
          <Trackpoint>
            <Time>2022-09-24T16:42:36.000Z</Time>
            <Position>
              <LatitudeDegrees>43.34280160255730152130126953125</LatitudeDegrees>
              <LongitudeDegrees>-2.93495424091815948486328125</LongitudeDegrees>
            </Position>
            <AltitudeMeters>137.1999969482421875</AltitudeMeters>
            <DistanceMeters>NAN</DistanceMeters>
          </Trackpoint>
          <Trackpoint>
            <Time>2022-09-24T16:42:37.000Z</Time>
            <Position>
              <LatitudeDegrees>43.3427636325359344482421875</LatitudeDegrees>
              <LongitudeDegrees>-2.934908978641033172607421875</LongitudeDegrees>
            </Position>
            <AltitudeMeters>137.1999969482421875</AltitudeMeters>
            <DistanceMeters>NAN</DistanceMeters>
          </Trackpoint>
          <Trackpoint>
            <Time>2022-09-24T16:42:38.000Z</Time>
            <Position>
              <LatitudeDegrees>43.3427269198000431060791015625</LatitudeDegrees>
              <LongitudeDegrees>-2.93486581183969974517822265625</LongitudeDegrees>
            </Position>
            <AltitudeMeters>137.1999969482421875</AltitudeMeters>
            <DistanceMeters>NAN</DistanceMeters>
          </Trackpoint>
          <Trackpoint>
            <Time>2022-09-24T16:42:39.000Z</Time>
            <Position>
              <LatitudeDegrees>43.34269456565380096435546875</LatitudeDegrees>
              <LongitudeDegrees>-2.93483077548444271087646484375</LongitudeDegrees>
            </Position>
            <AltitudeMeters>137.399993896484375</AltitudeMeters>
            <DistanceMeters>NAN</DistanceMeters>
          </Trackpoint>
          <Trackpoint>
            <Time>2022-09-24T16:42:40.000Z</Time>
            <Position>
              <LatitudeDegrees>43.3426534943282604217529296875</LatitudeDegrees>
              <LongitudeDegrees>-2.93478668667376041412353515625</LongitudeDegrees>
            </Position>
            <AltitudeMeters>137.399993896484375</AltitudeMeters>
            <DistanceMeters>NAN</DistanceMeters>
          </Trackpoint>
          <Trackpoint>
            <Time>2022-09-24T16:42:41.000Z</Time>
            <Position>
              <LatitudeDegrees>43.342613764107227325439453125</LatitudeDegrees>
              <LongitudeDegrees>-2.93474259786307811737060546875</LongitudeDegrees>
            </Position>
            <AltitudeMeters>137.399993896484375</AltitudeMeters>
            <DistanceMeters>NAN</DistanceMeters>
          </Trackpoint>
          <Trackpoint>
            <Time>2022-09-24T16:42:42.000Z</Time>
            <Position>
              <LatitudeDegrees>43.34256540052592754364013671875</LatitudeDegrees>
              <LongitudeDegrees>-2.934695743024349212646484375</LongitudeDegrees>
            </Position>
            <AltitudeMeters>137.8000030517578125</AltitudeMeters>
            <DistanceMeters>NAN</DistanceMeters>
          </Trackpoint>
          <Trackpoint>
            <Time>2022-09-24T16:42:43.000Z</Time>
            <Position>
              <LatitudeDegrees>43.34253304637968540191650390625</LatitudeDegrees>
              <LongitudeDegrees>-2.93466364033520221710205078125</LongitudeDegrees>
            </Position>
            <AltitudeMeters>138</AltitudeMeters>
            <DistanceMeters>NAN</DistanceMeters>
          </Trackpoint>
          <Trackpoint>
            <Time>2022-09-24T16:42:44.000Z</Time>
            <Position>
              <LatitudeDegrees>43.3424925617873668670654296875</LatitudeDegrees>
              <LongitudeDegrees>-2.93462391011416912078857421875</LongitudeDegrees>
            </Position>
            <AltitudeMeters>138</AltitudeMeters>
            <DistanceMeters>NAN</DistanceMeters>
          </Trackpoint>
          <Trackpoint>
            <Time>2022-09-24T16:42:45.000Z</Time>
            <Position>
              <LatitudeDegrees>43.3424925617873668670654296875</LatitudeDegrees>
              <LongitudeDegrees>-2.93462391011416912078857421875</LongitudeDegrees>
            </Position>
            <AltitudeMeters>138.1999969482421875</AltitudeMeters>
            <DistanceMeters>NAN</DistanceMeters>
          </Trackpoint>
          <Trackpoint>
            <Time>2022-09-24T16:42:46.000Z</Time>
            <Position>
              <LatitudeDegrees>43.3424131013453006744384765625</LatitudeDegrees>
              <LongitudeDegrees>-2.934537827968597412109375</LongitudeDegrees>
            </Position>
            <AltitudeMeters>138.399993896484375</AltitudeMeters>
            <DistanceMeters>NAN</DistanceMeters>
          </Trackpoint>
          <Trackpoint>
            <Time>2022-09-24T16:42:47.000Z</Time>
            <Position>
              <LatitudeDegrees>43.34237311966717243194580078125</LatitudeDegrees>
              <LongitudeDegrees>-2.93450036086142063140869140625</LongitudeDegrees>
            </Position>
            <AltitudeMeters>138.399993896484375</AltitudeMeters>
            <DistanceMeters>NAN</DistanceMeters>
          </Trackpoint>
          <Trackpoint>
            <Time>2022-09-24T16:42:48.000Z</Time>
            <Position>
              <LatitudeDegrees>43.342333473265171051025390625</LatitudeDegrees>
              <LongitudeDegrees>-2.9344612173736095428466796875</LongitudeDegrees>
            </Position>
            <AltitudeMeters>138.399993896484375</AltitudeMeters>
            <DistanceMeters>NAN</DistanceMeters>
          </Trackpoint>
          <Trackpoint>
            <Time>2022-09-24T16:42:49.000Z</Time>
            <Position>
              <LatitudeDegrees>43.342294581234455108642578125</LatitudeDegrees>
              <LongitudeDegrees>-2.93442307971417903900146484375</LongitudeDegrees>
            </Position>
            <AltitudeMeters>138.600006103515625</AltitudeMeters>
            <DistanceMeters>NAN</DistanceMeters>
          </Trackpoint>
          <Trackpoint>
            <Time>2022-09-24T16:42:50.000Z</Time>
            <Position>
              <LatitudeDegrees>43.342262394726276397705078125</LatitudeDegrees>
              <LongitudeDegrees>-2.93439039029181003570556640625</LongitudeDegrees>
            </Position>
            <AltitudeMeters>138.8000030517578125</AltitudeMeters>
            <DistanceMeters>NAN</DistanceMeters>
          </Trackpoint>
          <Trackpoint>
            <Time>2022-09-24T16:42:51.000Z</Time>
            <Position>
              <LatitudeDegrees>43.3422137796878814697265625</LatitudeDegrees>
              <LongitudeDegrees>-2.93434345163404941558837890625</LongitudeDegrees>
            </Position>
            <AltitudeMeters>138.8000030517578125</AltitudeMeters>
            <DistanceMeters>NAN</DistanceMeters>
          </Trackpoint>
          <Trackpoint>
            <Time>2022-09-24T16:42:52.000Z</Time>
            <Position>
              <LatitudeDegrees>43.34217480383813381195068359375</LatitudeDegrees>
              <LongitudeDegrees>-2.9343031346797943115234375</LongitudeDegrees>
            </Position>
            <AltitudeMeters>139</AltitudeMeters>
            <DistanceMeters>NAN</DistanceMeters>
          </Trackpoint>
          <Trackpoint>
            <Time>2022-09-24T16:42:53.000Z</Time>
            <Position>
              <LatitudeDegrees>43.34214429371058940887451171875</LatitudeDegrees>
              <LongitudeDegrees>-2.93426801450550556182861328125</LongitudeDegrees>
            </Position>
            <AltitudeMeters>139.399993896484375</AltitudeMeters>
            <DistanceMeters>NAN</DistanceMeters>
          </Trackpoint>
          <Trackpoint>
            <Time>2022-09-24T16:42:54.000Z</Time>
            <Position>
              <LatitudeDegrees>43.34210791625082492828369140625</LatitudeDegrees>
              <LongitudeDegrees>-2.934224344789981842041015625</LongitudeDegrees>
            </Position>
            <AltitudeMeters>139.600006103515625</AltitudeMeters>
            <DistanceMeters>NAN</DistanceMeters>
          </Trackpoint>
          <Trackpoint>
            <Time>2022-09-24T16:42:55.000Z</Time>
            <Position>
              <LatitudeDegrees>43.34210791625082492828369140625</LatitudeDegrees>
              <LongitudeDegrees>-2.934224344789981842041015625</LongitudeDegrees>
            </Position>
            <AltitudeMeters>139.600006103515625</AltitudeMeters>
            <DistanceMeters>NAN</DistanceMeters>
          </Trackpoint>
          <Trackpoint>
            <Time>2022-09-24T16:42:56.000Z</Time>
            <Position>
              <LatitudeDegrees>43.3420335687696933746337890625</LatitudeDegrees>
              <LongitudeDegrees>-2.93414128012955188751220703125</LongitudeDegrees>
            </Position>
            <AltitudeMeters>140</AltitudeMeters>
            <DistanceMeters>NAN</DistanceMeters>
          </Trackpoint>
          <Trackpoint>
            <Time>2022-09-24T16:42:57.000Z</Time>
            <Position>
              <LatitudeDegrees>43.3419943414628505706787109375</LatitudeDegrees>
              <LongitudeDegrees>-2.934098280966281890869140625</LongitudeDegrees>
            </Position>
            <AltitudeMeters>140</AltitudeMeters>
            <DistanceMeters>NAN</DistanceMeters>
          </Trackpoint>
          <Trackpoint>
            <Time>2022-09-24T16:42:58.000Z</Time>
            <Position>
              <LatitudeDegrees>43.34195804782211780548095703125</LatitudeDegrees>
              <LongitudeDegrees>-2.9340565390884876251220703125</LongitudeDegrees>
            </Position>
            <AltitudeMeters>140</AltitudeMeters>
            <DistanceMeters>NAN</DistanceMeters>
          </Trackpoint>
          <Trackpoint>
            <Time>2022-09-24T16:42:59.000Z</Time>
            <Position>
              <LatitudeDegrees>43.3419229276478290557861328125</LatitudeDegrees>
              <LongitudeDegrees>-2.93401186354458332061767578125</LongitudeDegrees>
            </Position>
            <AltitudeMeters>140</AltitudeMeters>
            <DistanceMeters>NAN</DistanceMeters>
          </Trackpoint>
          <Trackpoint>
            <Time>2022-09-24T16:43:00.000Z</Time>
            <Position>
              <LatitudeDegrees>43.34189116023480892181396484375</LatitudeDegrees>
              <LongitudeDegrees>-2.93396559543907642364501953125</LongitudeDegrees>
            </Position>
            <AltitudeMeters>140.1999969482421875</AltitudeMeters>
            <DistanceMeters>NAN</DistanceMeters>
          </Trackpoint>
          <Trackpoint>
            <Time>2022-09-24T16:43:01.000Z</Time>
            <Position>
              <LatitudeDegrees>43.3418598957359790802001953125</LatitudeDegrees>
              <LongitudeDegrees>-2.93392519466578960418701171875</LongitudeDegrees>
            </Position>
            <AltitudeMeters>140.399993896484375</AltitudeMeters>
            <DistanceMeters>NAN</DistanceMeters>
          </Trackpoint>
          <Trackpoint>
            <Time>2022-09-24T16:43:02.000Z</Time>
            <Position>
              <LatitudeDegrees>43.34182946942746639251708984375</LatitudeDegrees>
              <LongitudeDegrees>-2.93387733399868011474609375</LongitudeDegrees>
            </Position>
            <AltitudeMeters>140.600006103515625</AltitudeMeters>
            <DistanceMeters>NAN</DistanceMeters>
          </Trackpoint>
          <Trackpoint>
            <Time>2022-09-24T16:43:03.000Z</Time>
            <Position>
              <LatitudeDegrees>43.341803736984729766845703125</LatitudeDegrees>
              <LongitudeDegrees>-2.93382561765611171722412109375</LongitudeDegrees>
            </Position>
            <AltitudeMeters>141</AltitudeMeters>
            <DistanceMeters>NAN</DistanceMeters>
          </Trackpoint>
          <Trackpoint>
            <Time>2022-09-24T16:43:04.000Z</Time>
            <Position>
              <LatitudeDegrees>43.341775573790073394775390625</LatitudeDegrees>
              <LongitudeDegrees>-2.933769710361957550048828125</LongitudeDegrees>
            </Position>
            <AltitudeMeters>141</AltitudeMeters>
            <DistanceMeters>NAN</DistanceMeters>
          </Trackpoint>
          <Trackpoint>
            <Time>2022-09-24T16:43:05.000Z</Time>
            <Position>
              <LatitudeDegrees>43.341752775013446807861328125</LatitudeDegrees>
              <LongitudeDegrees>-2.93371514417231082916259765625</LongitudeDegrees>
            </Position>
            <AltitudeMeters>141.399993896484375</AltitudeMeters>
            <DistanceMeters>NAN</DistanceMeters>
          </Trackpoint>
          <Trackpoint>
            <Time>2022-09-24T16:43:06.000Z</Time>
            <Position>
              <LatitudeDegrees>43.3417294733226299285888671875</LatitudeDegrees>
              <LongitudeDegrees>-2.9336599074304103851318359375</LongitudeDegrees>
            </Position>
            <AltitudeMeters>141.399993896484375</AltitudeMeters>
            <DistanceMeters>NAN</DistanceMeters>
          </Trackpoint>
          <Trackpoint>
            <Time>2022-09-24T16:43:07.000Z</Time>
            <Position>
              <LatitudeDegrees>43.34170617163181304931640625</LatitudeDegrees>
              <LongitudeDegrees>-2.93360215611755847930908203125</LongitudeDegrees>
            </Position>
            <AltitudeMeters>141.399993896484375</AltitudeMeters>
            <DistanceMeters>NAN</DistanceMeters>
          </Trackpoint>
          <Trackpoint>
            <Time>2022-09-24T16:43:08.000Z</Time>
            <Position>
              <LatitudeDegrees>43.34168429486453533172607421875</LatitudeDegrees>
              <LongitudeDegrees>-2.9335288144648075103759765625</LongitudeDegrees>
            </Position>
            <AltitudeMeters>141.600006103515625</AltitudeMeters>
            <DistanceMeters>NAN</DistanceMeters>
          </Trackpoint>
          <Trackpoint>
            <Time>2022-09-24T16:43:09.000Z</Time>
            <Position>
              <LatitudeDegrees>43.34167532622814178466796875</LatitudeDegrees>
              <LongitudeDegrees>-2.933478690683841705322265625</LongitudeDegrees>
            </Position>
            <AltitudeMeters>142</AltitudeMeters>
            <DistanceMeters>NAN</DistanceMeters>
          </Trackpoint>
          <Trackpoint>
            <Time>2022-09-24T16:43:10.000Z</Time>
            <Position>
              <LatitudeDegrees>43.341662921011447906494140625</LatitudeDegrees>
              <LongitudeDegrees>-2.933414317667484283447265625</LongitudeDegrees>
            </Position>
            <AltitudeMeters>142</AltitudeMeters>
            <DistanceMeters>NAN</DistanceMeters>
          </Trackpoint>
          <Trackpoint>
            <Time>2022-09-24T16:43:11.000Z</Time>
            <Position>
              <LatitudeDegrees>43.34165252745151519775390625</LatitudeDegrees>
              <LongitudeDegrees>-2.93333494104444980621337890625</LongitudeDegrees>
            </Position>
            <AltitudeMeters>142</AltitudeMeters>
            <DistanceMeters>NAN</DistanceMeters>
          </Trackpoint>
          <Trackpoint>
            <Time>2022-09-24T16:43:12.000Z</Time>
            <Position>
              <LatitudeDegrees>43.34164448082447052001953125</LatitudeDegrees>
              <LongitudeDegrees>-2.9332689754664897918701171875</LongitudeDegrees>
            </Position>
            <AltitudeMeters>141.8000030517578125</AltitudeMeters>
            <DistanceMeters>NAN</DistanceMeters>
          </Trackpoint>
          <Trackpoint>
            <Time>2022-09-24T16:43:13.000Z</Time>
            <Position>
              <LatitudeDegrees>43.34163836203515529632568359375</LatitudeDegrees>
              <LongitudeDegrees>-2.93320099823176860809326171875</LongitudeDegrees>
            </Position>
            <AltitudeMeters>141.8000030517578125</AltitudeMeters>
            <DistanceMeters>NAN</DistanceMeters>
          </Trackpoint>
          <Trackpoint>
            <Time>2022-09-24T16:43:14.000Z</Time>
            <Position>
              <LatitudeDegrees>43.34163467399775981903076171875</LatitudeDegrees>
              <LongitudeDegrees>-2.9331455938518047332763671875</LongitudeDegrees>
            </Position>
            <AltitudeMeters>142</AltitudeMeters>
            <DistanceMeters>NAN</DistanceMeters>
          </Trackpoint>
          <Trackpoint>
            <Time>2022-09-24T16:43:15.000Z</Time>
            <Position>
              <LatitudeDegrees>43.3416312374174594879150390625</LatitudeDegrees>
              <LongitudeDegrees>-2.93307761661708354949951171875</LongitudeDegrees>
            </Position>
            <AltitudeMeters>142</AltitudeMeters>
            <DistanceMeters>NAN</DistanceMeters>
          </Trackpoint>
          <Trackpoint>
            <Time>2022-09-24T16:43:16.000Z</Time>
            <Position>
              <LatitudeDegrees>43.34163098596036434173583984375</LatitudeDegrees>
              <LongitudeDegrees>-2.93300670571625232696533203125</LongitudeDegrees>
            </Position>
            <AltitudeMeters>142</AltitudeMeters>
            <DistanceMeters>NAN</DistanceMeters>
          </Trackpoint>
          <Trackpoint>
            <Time>2022-09-24T16:43:17.000Z</Time>
            <Position>
              <LatitudeDegrees>43.3416302315890789031982421875</LatitudeDegrees>
              <LongitudeDegrees>-2.93293680064380168914794921875</LongitudeDegrees>
            </Position>
            <AltitudeMeters>142</AltitudeMeters>
            <DistanceMeters>NAN</DistanceMeters>
          </Trackpoint>
          <Trackpoint>
            <Time>2022-09-24T16:43:18.000Z</Time>
            <Position>
              <LatitudeDegrees>43.3416272141039371490478515625</LatitudeDegrees>
              <LongitudeDegrees>-2.9328535683453083038330078125</LongitudeDegrees>
            </Position>
            <AltitudeMeters>142</AltitudeMeters>
            <DistanceMeters>NAN</DistanceMeters>
          </Trackpoint>
          <Trackpoint>
            <Time>2022-09-24T16:43:19.000Z</Time>
            <Position>
              <LatitudeDegrees>43.34162595681846141815185546875</LatitudeDegrees>
              <LongitudeDegrees>-2.93279766105115413665771484375</LongitudeDegrees>
            </Position>
            <AltitudeMeters>142.1999969482421875</AltitudeMeters>
            <DistanceMeters>NAN</DistanceMeters>
          </Trackpoint>
          <Trackpoint>
            <Time>2022-09-24T16:43:20.000Z</Time>
            <Position>
              <LatitudeDegrees>43.3416265435516834259033203125</LatitudeDegrees>
              <LongitudeDegrees>-2.9327286779880523681640625</LongitudeDegrees>
            </Position>
            <AltitudeMeters>142.1999969482421875</AltitudeMeters>
            <DistanceMeters>NAN</DistanceMeters>
          </Trackpoint>
          <Trackpoint>
            <Time>2022-09-24T16:43:21.000Z</Time>
            <Position>
              <LatitudeDegrees>43.34162595681846141815185546875</LatitudeDegrees>
              <LongitudeDegrees>-2.93264485895633697509765625</LongitudeDegrees>
            </Position>
            <AltitudeMeters>142.1999969482421875</AltitudeMeters>
            <DistanceMeters>NAN</DistanceMeters>
          </Trackpoint>
          <Trackpoint>
            <Time>2022-09-24T16:43:22.000Z</Time>
            <Position>
              <LatitudeDegrees>43.341625370085239410400390625</LatitudeDegrees>
              <LongitudeDegrees>-2.932585515081882476806640625</LongitudeDegrees>
            </Position>
            <AltitudeMeters>142.1999969482421875</AltitudeMeters>
            <DistanceMeters>NAN</DistanceMeters>
          </Trackpoint>
          <Trackpoint>
            <Time>2022-09-24T16:43:23.000Z</Time>
            <Position>
              <LatitudeDegrees>43.34162344224750995635986328125</LatitudeDegrees>
              <LongitudeDegrees>-2.93251150287687778472900390625</LongitudeDegrees>
            </Position>
            <AltitudeMeters>142.399993896484375</AltitudeMeters>
            <DistanceMeters>NAN</DistanceMeters>
          </Trackpoint>
          <Trackpoint>
            <Time>2022-09-24T16:43:24.000Z</Time>
            <Position>
              <LatitudeDegrees>43.3416241966187953948974609375</LatitudeDegrees>
              <LongitudeDegrees>-2.93243564665317535400390625</LongitudeDegrees>
            </Position>
            <AltitudeMeters>142.399993896484375</AltitudeMeters>
            <DistanceMeters>NAN</DistanceMeters>
          </Trackpoint>
          <Trackpoint>
            <Time>2022-09-24T16:43:25.000Z</Time>
            <Position>
              <LatitudeDegrees>43.341626711189746856689453125</LatitudeDegrees>
              <LongitudeDegrees>-2.932343780994415283203125</LongitudeDegrees>
            </Position>
            <AltitudeMeters>142.399993896484375</AltitudeMeters>
            <DistanceMeters>NAN</DistanceMeters>
          </Trackpoint>
          <Trackpoint>
            <Time>2022-09-24T16:43:26.000Z</Time>
            <Position>
              <LatitudeDegrees>43.341624699532985687255859375</LatitudeDegrees>
              <LongitudeDegrees>-2.93226557783782482147216796875</LongitudeDegrees>
            </Position>
            <AltitudeMeters>142.399993896484375</AltitudeMeters>
            <DistanceMeters>NAN</DistanceMeters>
          </Trackpoint>
          <Trackpoint>
            <Time>2022-09-24T16:43:27.000Z</Time>
            <Position>
              <LatitudeDegrees>43.3416278846561908721923828125</LatitudeDegrees>
              <LongitudeDegrees>-2.93218620121479034423828125</LongitudeDegrees>
            </Position>
            <AltitudeMeters>142.600006103515625</AltitudeMeters>
            <DistanceMeters>NAN</DistanceMeters>
          </Trackpoint>
          <Trackpoint>
            <Time>2022-09-24T16:43:28.000Z</Time>
            <Position>
              <LatitudeDegrees>43.3416258729994297027587890625</LatitudeDegrees>
              <LongitudeDegrees>-2.93211034499108791351318359375</LongitudeDegrees>
            </Position>
            <AltitudeMeters>142.600006103515625</AltitudeMeters>
            <DistanceMeters>NAN</DistanceMeters>
          </Trackpoint>
          <Trackpoint>
            <Time>2022-09-24T16:43:29.000Z</Time>
            <Position>
              <LatitudeDegrees>43.341619335114955902099609375</LatitudeDegrees>
              <LongitudeDegrees>-2.9320505820214748382568359375</LongitudeDegrees>
            </Position>
            <AltitudeMeters>142.600006103515625</AltitudeMeters>
            <DistanceMeters>NAN</DistanceMeters>
          </Trackpoint>
          <Trackpoint>
            <Time>2022-09-24T16:43:30.000Z</Time>
            <Position>
              <LatitudeDegrees>43.3416144736111164093017578125</LatitudeDegrees>
              <LongitudeDegrees>-2.9319717921316623687744140625</LongitudeDegrees>
            </Position>
            <AltitudeMeters>142.8000030517578125</AltitudeMeters>
            <DistanceMeters>NAN</DistanceMeters>
          </Trackpoint>
          <Trackpoint>
            <Time>2022-09-24T16:43:31.000Z</Time>
            <Position>
              <LatitudeDegrees>43.34161120466887950897216796875</LatitudeDegrees>
              <LongitudeDegrees>-2.9318953491747379302978515625</LongitudeDegrees>
            </Position>
            <AltitudeMeters>142.8000030517578125</AltitudeMeters>
            <DistanceMeters>NAN</DistanceMeters>
          </Trackpoint>
          <Trackpoint>
            <Time>2022-09-24T16:43:32.000Z</Time>
            <Position>
              <LatitudeDegrees>43.34160869009792804718017578125</LatitudeDegrees>
              <LongitudeDegrees>-2.9318167269229888916015625</LongitudeDegrees>
            </Position>
            <AltitudeMeters>142.8000030517578125</AltitudeMeters>
            <DistanceMeters>NAN</DistanceMeters>
          </Trackpoint>
          <Trackpoint>
            <Time>2022-09-24T16:43:33.000Z</Time>
            <Position>
              <LatitudeDegrees>43.34160986356437206268310546875</LatitudeDegrees>
              <LongitudeDegrees>-2.9317344166338443756103515625</LongitudeDegrees>
            </Position>
            <AltitudeMeters>142.8000030517578125</AltitudeMeters>
            <DistanceMeters>NAN</DistanceMeters>
          </Trackpoint>
          <Trackpoint>
            <Time>2022-09-24T16:43:34.000Z</Time>
            <Position>
              <LatitudeDegrees>43.3416076004505157470703125</LatitudeDegrees>
              <LongitudeDegrees>-2.93164850212633609771728515625</LongitudeDegrees>
            </Position>
            <AltitudeMeters>142.8000030517578125</AltitudeMeters>
            <DistanceMeters>NAN</DistanceMeters>
          </Trackpoint>
          <Trackpoint>
            <Time>2022-09-24T16:43:35.000Z</Time>
            <Position>
              <LatitudeDegrees>43.3415899984538555145263671875</LatitudeDegrees>
              <LongitudeDegrees>-2.93157272972166538238525390625</LongitudeDegrees>
            </Position>
            <AltitudeMeters>143</AltitudeMeters>
            <DistanceMeters>NAN</DistanceMeters>
          </Trackpoint>
          <Trackpoint>
            <Time>2022-09-24T16:43:36.000Z</Time>
            <Position>
              <LatitudeDegrees>43.341570384800434112548828125</LatitudeDegrees>
              <LongitudeDegrees>-2.93149611912667751312255859375</LongitudeDegrees>
            </Position>
            <AltitudeMeters>143</AltitudeMeters>
            <DistanceMeters>NAN</DistanceMeters>
          </Trackpoint>
          <Trackpoint>
            <Time>2022-09-24T16:43:37.000Z</Time>
            <Position>
              <LatitudeDegrees>43.34155253134667873382568359375</LatitudeDegrees>
              <LongitudeDegrees>-2.9314024932682514190673828125</LongitudeDegrees>
            </Position>
            <AltitudeMeters>143.1999969482421875</AltitudeMeters>
            <DistanceMeters>NAN</DistanceMeters>
          </Trackpoint>
          <Trackpoint>
            <Time>2022-09-24T16:43:38.000Z</Time>
            <Position>
              <LatitudeDegrees>43.34154733456671237945556640625</LatitudeDegrees>
              <LongitudeDegrees>-2.931327559053897857666015625</LongitudeDegrees>
            </Position>
            <AltitudeMeters>143.399993896484375</AltitudeMeters>
            <DistanceMeters>NAN</DistanceMeters>
          </Trackpoint>
          <Trackpoint>
            <Time>2022-09-24T16:43:39.000Z</Time>
            <Position>
              <LatitudeDegrees>43.34153794683516025543212890625</LatitudeDegrees>
              <LongitudeDegrees>-2.93127014301717281341552734375</LongitudeDegrees>
            </Position>
            <AltitudeMeters>143.399993896484375</AltitudeMeters>
            <DistanceMeters>NAN</DistanceMeters>
          </Trackpoint>
          <Trackpoint>
            <Time>2022-09-24T16:43:40.000Z</Time>
            <Position>
              <LatitudeDegrees>43.3415283076465129852294921875</LatitudeDegrees>
              <LongitudeDegrees>-2.9311959631741046905517578125</LongitudeDegrees>
            </Position>
            <AltitudeMeters>143.399993896484375</AltitudeMeters>
            <DistanceMeters>NAN</DistanceMeters>
          </Trackpoint>
          <Trackpoint>
            <Time>2022-09-24T16:43:41.000Z</Time>
            <Position>
              <LatitudeDegrees>43.341512382030487060546875</LatitudeDegrees>
              <LongitudeDegrees>-2.93110937811434268951416015625</LongitudeDegrees>
            </Position>
            <AltitudeMeters>143.399993896484375</AltitudeMeters>
            <DistanceMeters>NAN</DistanceMeters>
          </Trackpoint>
          <Trackpoint>
            <Time>2022-09-24T16:43:42.000Z</Time>
            <Position>
              <LatitudeDegrees>43.34150156937539577484130859375</LatitudeDegrees>
              <LongitudeDegrees>-2.931049950420856475830078125</LongitudeDegrees>
            </Position>
            <AltitudeMeters>143</AltitudeMeters>
            <DistanceMeters>NAN</DistanceMeters>
          </Trackpoint>
          <Trackpoint>
            <Time>2022-09-24T16:43:43.000Z</Time>
            <Position>
              <LatitudeDegrees>43.34148757159709930419921875</LatitudeDegrees>
              <LongitudeDegrees>-2.9309743456542491912841796875</LongitudeDegrees>
            </Position>
            <AltitudeMeters>143.399993896484375</AltitudeMeters>
            <DistanceMeters>NAN</DistanceMeters>
          </Trackpoint>
          <Trackpoint>
            <Time>2022-09-24T16:43:44.000Z</Time>
            <Position>
              <LatitudeDegrees>43.3414734899997711181640625</LatitudeDegrees>
              <LongitudeDegrees>-2.93089346028864383697509765625</LongitudeDegrees>
            </Position>
            <AltitudeMeters>142.600006103515625</AltitudeMeters>
            <DistanceMeters>NAN</DistanceMeters>
          </Trackpoint>
          <Trackpoint>
            <Time>2022-09-24T16:43:45.000Z</Time>
            <Position>
              <LatitudeDegrees>43.34144071675837039947509765625</LatitudeDegrees>
              <LongitudeDegrees>-2.93080645613372325897216796875</LongitudeDegrees>
            </Position>
            <AltitudeMeters>142.600006103515625</AltitudeMeters>
            <DistanceMeters>NAN</DistanceMeters>
          </Trackpoint>
          <Trackpoint>
            <Time>2022-09-24T16:43:46.000Z</Time>
            <Position>
              <LatitudeDegrees>43.3414012379944324493408203125</LatitudeDegrees>
              <LongitudeDegrees>-2.93073353357613086700439453125</LongitudeDegrees>
            </Position>
            <AltitudeMeters>142.8000030517578125</AltitudeMeters>
            <DistanceMeters>NAN</DistanceMeters>
          </Trackpoint>
          <Trackpoint>
            <Time>2022-09-24T16:43:47.000Z</Time>
            <Position>
              <LatitudeDegrees>43.3413747511804103851318359375</LatitudeDegrees>
              <LongitudeDegrees>-2.93065943755209445953369140625</LongitudeDegrees>
            </Position>
            <AltitudeMeters>142.8000030517578125</AltitudeMeters>
            <DistanceMeters>NAN</DistanceMeters>
          </Trackpoint>
          <Trackpoint>
            <Time>2022-09-24T16:43:48.000Z</Time>
            <Position>
              <LatitudeDegrees>43.3413455821573734283447265625</LatitudeDegrees>
              <LongitudeDegrees>-2.9305626265704631805419921875</LongitudeDegrees>
            </Position>
            <AltitudeMeters>143</AltitudeMeters>
            <DistanceMeters>NAN</DistanceMeters>
          </Trackpoint>
          <Trackpoint>
            <Time>2022-09-24T16:43:49.000Z</Time>
            <Position>
              <LatitudeDegrees>43.3413286507129669189453125</LatitudeDegrees>
              <LongitudeDegrees>-2.93050453998148441314697265625</LongitudeDegrees>
            </Position>
            <AltitudeMeters>143.1999969482421875</AltitudeMeters>
            <DistanceMeters>NAN</DistanceMeters>
          </Trackpoint>
          <Trackpoint>
            <Time>2022-09-24T16:43:50.000Z</Time>
            <Position>
              <LatitudeDegrees>43.34132395684719085693359375</LatitudeDegrees>
              <LongitudeDegrees>-2.930429019033908843994140625</LongitudeDegrees>
            </Position>
            <AltitudeMeters>143.1999969482421875</AltitudeMeters>
            <DistanceMeters>NAN</DistanceMeters>
          </Trackpoint>
          <Trackpoint>
            <Time>2022-09-24T16:43:51.000Z</Time>
            <Position>
              <LatitudeDegrees>43.34130845032632350921630859375</LatitudeDegrees>
              <LongitudeDegrees>-2.93033673427999019622802734375</LongitudeDegrees>
            </Position>
            <AltitudeMeters>143.1999969482421875</AltitudeMeters>
            <DistanceMeters>NAN</DistanceMeters>
          </Trackpoint>
          <Trackpoint>
            <Time>2022-09-24T16:43:52.000Z</Time>
            <Position>
              <LatitudeDegrees>43.34129713475704193115234375</LatitudeDegrees>
              <LongitudeDegrees>-2.9302759654819965362548828125</LongitudeDegrees>
            </Position>
            <AltitudeMeters>144</AltitudeMeters>
            <DistanceMeters>NAN</DistanceMeters>
          </Trackpoint>
          <Trackpoint>
            <Time>2022-09-24T16:43:53.000Z</Time>
            <Position>
              <LatitudeDegrees>43.34128104150295257568359375</LatitudeDegrees>
              <LongitudeDegrees>-2.93020480312407016754150390625</LongitudeDegrees>
            </Position>
            <AltitudeMeters>144.1999969482421875</AltitudeMeters>
            <DistanceMeters>NAN</DistanceMeters>
          </Trackpoint>
          <Trackpoint>
            <Time>2022-09-24T16:43:54.000Z</Time>
            <Position>
              <LatitudeDegrees>43.3412641100585460662841796875</LatitudeDegrees>
              <LongitudeDegrees>-2.9301162064075469970703125</LongitudeDegrees>
            </Position>
            <AltitudeMeters>144.1999969482421875</AltitudeMeters>
            <DistanceMeters>NAN</DistanceMeters>
          </Trackpoint>
          <Trackpoint>
            <Time>2022-09-24T16:43:55.000Z</Time>
            <Position>
              <LatitudeDegrees>43.34125245921313762664794921875</LatitudeDegrees>
              <LongitudeDegrees>-2.93005795218050479888916015625</LongitudeDegrees>
            </Position>
            <AltitudeMeters>144.1999969482421875</AltitudeMeters>
            <DistanceMeters>NAN</DistanceMeters>
          </Trackpoint>
          <Trackpoint>
            <Time>2022-09-24T16:43:56.000Z</Time>
            <Position>
              <LatitudeDegrees>43.3412374556064605712890625</LatitudeDegrees>
              <LongitudeDegrees>-2.9299876280128955841064453125</LongitudeDegrees>
            </Position>
            <AltitudeMeters>144.1999969482421875</AltitudeMeters>
            <DistanceMeters>NAN</DistanceMeters>
          </Trackpoint>
          <Trackpoint>
            <Time>2022-09-24T16:43:57.000Z</Time>
            <Position>
              <LatitudeDegrees>43.34122228436172008514404296875</LatitudeDegrees>
              <LongitudeDegrees>-2.9299034737050533294677734375</LongitudeDegrees>
            </Position>
            <AltitudeMeters>144.1999969482421875</AltitudeMeters>
            <DistanceMeters>NAN</DistanceMeters>
          </Trackpoint>
          <Trackpoint>
            <Time>2022-09-24T16:43:58.000Z</Time>
            <Position>
              <LatitudeDegrees>43.34120593965053558349609375</LatitudeDegrees>
              <LongitudeDegrees>-2.92984924279153347015380859375</LongitudeDegrees>
            </Position>
            <AltitudeMeters>145.1999969482421875</AltitudeMeters>
            <DistanceMeters>NAN</DistanceMeters>
          </Trackpoint>
          <Trackpoint>
            <Time>2022-09-24T16:43:59.000Z</Time>
            <Position>
              <LatitudeDegrees>43.34118154831230640411376953125</LatitudeDegrees>
              <LongitudeDegrees>-2.92978302575647830963134765625</LongitudeDegrees>
            </Position>
            <AltitudeMeters>145.399993896484375</AltitudeMeters>
            <DistanceMeters>NAN</DistanceMeters>
          </Trackpoint>
          <Trackpoint>
            <Time>2022-09-24T16:44:00.000Z</Time>
            <Position>
              <LatitudeDegrees>43.3411501161754131317138671875</LatitudeDegrees>
              <LongitudeDegrees>-2.92970825918018817901611328125</LongitudeDegrees>
            </Position>
            <AltitudeMeters>145.399993896484375</AltitudeMeters>
            <DistanceMeters>NAN</DistanceMeters>
          </Trackpoint>
          <Trackpoint>
            <Time>2022-09-24T16:44:01.000Z</Time>
            <Position>
              <LatitudeDegrees>43.341135196387767791748046875</LatitudeDegrees>
              <LongitudeDegrees>-2.92964220978319644927978515625</LongitudeDegrees>
            </Position>
            <AltitudeMeters>145.399993896484375</AltitudeMeters>
            <DistanceMeters>NAN</DistanceMeters>
          </Trackpoint>
          <Trackpoint>
            <Time>2022-09-24T16:44:02.000Z</Time>
            <Position>
              <LatitudeDegrees>43.3411179296672344207763671875</LatitudeDegrees>
              <LongitudeDegrees>-2.92957180179655551910400390625</LongitudeDegrees>
            </Position>
            <AltitudeMeters>145.399993896484375</AltitudeMeters>
            <DistanceMeters>NAN</DistanceMeters>
          </Trackpoint>
          <Trackpoint>
            <Time>2022-09-24T16:44:03.000Z</Time>
            <Position>
              <LatitudeDegrees>43.34110208787024021148681640625</LatitudeDegrees>
              <LongitudeDegrees>-2.9295185767114162445068359375</LongitudeDegrees>
            </Position>
            <AltitudeMeters>145.399993896484375</AltitudeMeters>
            <DistanceMeters>NAN</DistanceMeters>
          </Trackpoint>
          <Trackpoint>
            <Time>2022-09-24T16:44:04.000Z</Time>
            <Position>
              <LatitudeDegrees>43.3410800434648990631103515625</LatitudeDegrees>
              <LongitudeDegrees>-2.92945076711475849151611328125</LongitudeDegrees>
            </Position>
            <AltitudeMeters>145.399993896484375</AltitudeMeters>
            <DistanceMeters>NAN</DistanceMeters>
          </Trackpoint>
          <Trackpoint>
            <Time>2022-09-24T16:44:05.000Z</Time>
            <Position>
              <LatitudeDegrees>43.3410535566508769989013671875</LatitudeDegrees>
              <LongitudeDegrees>-2.9293866455554962158203125</LongitudeDegrees>
            </Position>
            <AltitudeMeters>145.399993896484375</AltitudeMeters>
            <DistanceMeters>NAN</DistanceMeters>
          </Trackpoint>
          <Trackpoint>
            <Time>2022-09-24T16:44:06.000Z</Time>
            <Position>
              <LatitudeDegrees>43.34102447144687175750732421875</LatitudeDegrees>
              <LongitudeDegrees>-2.9293222725391387939453125</LongitudeDegrees>
            </Position>
            <AltitudeMeters>145.399993896484375</AltitudeMeters>
            <DistanceMeters>NAN</DistanceMeters>
          </Trackpoint>
          <Trackpoint>
            <Time>2022-09-24T16:44:07.000Z</Time>
            <Position>
              <LatitudeDegrees>43.3410014212131500244140625</LatitudeDegrees>
              <LongitudeDegrees>-2.92923971079289913177490234375</LongitudeDegrees>
            </Position>
            <AltitudeMeters>145.1999969482421875</AltitudeMeters>
            <DistanceMeters>NAN</DistanceMeters>
          </Trackpoint>
          <Trackpoint>
            <Time>2022-09-24T16:44:08.000Z</Time>
            <Position>
              <LatitudeDegrees>43.340980298817157745361328125</LatitudeDegrees>
              <LongitudeDegrees>-2.9291826300323009490966796875</LongitudeDegrees>
            </Position>
            <AltitudeMeters>145.1999969482421875</AltitudeMeters>
            <DistanceMeters>NAN</DistanceMeters>
          </Trackpoint>
          <Trackpoint>
            <Time>2022-09-24T16:44:09.000Z</Time>
            <Position>
              <LatitudeDegrees>43.34096445702016353607177734375</LatitudeDegrees>
              <LongitudeDegrees>-2.929108031094074249267578125</LongitudeDegrees>
            </Position>
            <AltitudeMeters>145.1999969482421875</AltitudeMeters>
            <DistanceMeters>NAN</DistanceMeters>
          </Trackpoint>
          <Trackpoint>
            <Time>2022-09-24T16:44:10.000Z</Time>
            <Position>
              <LatitudeDegrees>43.34094836376607418060302734375</LatitudeDegrees>
              <LongitudeDegrees>-2.929026894271373748779296875</LongitudeDegrees>
            </Position>
            <AltitudeMeters>145.1999969482421875</AltitudeMeters>
            <DistanceMeters>NAN</DistanceMeters>
          </Trackpoint>
          <Trackpoint>
            <Time>2022-09-24T16:44:11.000Z</Time>
            <Position>
              <LatitudeDegrees>43.340926654636859893798828125</LatitudeDegrees>
              <LongitudeDegrees>-2.92896294035017490386962890625</LongitudeDegrees>
            </Position>
            <AltitudeMeters>145.1999969482421875</AltitudeMeters>
            <DistanceMeters>NAN</DistanceMeters>
          </Trackpoint>
          <Trackpoint>
            <Time>2022-09-24T16:44:12.000Z</Time>
            <Position>
              <LatitudeDegrees>43.34090150892734527587890625</LatitudeDegrees>
              <LongitudeDegrees>-2.92889236472547054290771484375</LongitudeDegrees>
            </Position>
            <AltitudeMeters>145.1999969482421875</AltitudeMeters>
            <DistanceMeters>NAN</DistanceMeters>
          </Trackpoint>
          <Trackpoint>
            <Time>2022-09-24T16:44:13.000Z</Time>
            <Position>
              <LatitudeDegrees>43.34086806513369083404541015625</LatitudeDegrees>
              <LongitudeDegrees>-2.92881759814918041229248046875</LongitudeDegrees>
            </Position>
            <AltitudeMeters>145.399993896484375</AltitudeMeters>
            <DistanceMeters>NAN</DistanceMeters>
          </Trackpoint>
          <Trackpoint>
            <Time>2022-09-24T16:44:14.000Z</Time>
            <Position>
              <LatitudeDegrees>43.34083386696875095367431640625</LatitudeDegrees>
              <LongitudeDegrees>-2.928760349750518798828125</LongitudeDegrees>
            </Position>
            <AltitudeMeters>145.399993896484375</AltitudeMeters>
            <DistanceMeters>NAN</DistanceMeters>
          </Trackpoint>
          <Trackpoint>
            <Time>2022-09-24T16:44:15.000Z</Time>
            <Position>
              <LatitudeDegrees>43.340799249708652496337890625</LatitudeDegrees>
              <LongitudeDegrees>-2.9286817274987697601318359375</LongitudeDegrees>
            </Position>
            <AltitudeMeters>146</AltitudeMeters>
            <DistanceMeters>NAN</DistanceMeters>
          </Trackpoint>
          <Trackpoint>
            <Time>2022-09-24T16:44:16.000Z</Time>
            <Position>
              <LatitudeDegrees>43.34075507707893848419189453125</LatitudeDegrees>
              <LongitudeDegrees>-2.928611822426319122314453125</LongitudeDegrees>
            </Position>
            <AltitudeMeters>146</AltitudeMeters>
            <DistanceMeters>NAN</DistanceMeters>
          </Trackpoint>
          <Trackpoint>
            <Time>2022-09-24T16:44:17.000Z</Time>
            <Position>
              <LatitudeDegrees>43.34075507707893848419189453125</LatitudeDegrees>
              <LongitudeDegrees>-2.928611822426319122314453125</LongitudeDegrees>
            </Position>
            <AltitudeMeters>146</AltitudeMeters>
            <DistanceMeters>NAN</DistanceMeters>
          </Trackpoint>
          <Trackpoint>
            <Time>2022-09-24T16:44:18.000Z</Time>
            <Position>
              <LatitudeDegrees>43.3406559191644191741943359375</LatitudeDegrees>
              <LongitudeDegrees>-2.9285036958754062652587890625</LongitudeDegrees>
            </Position>
            <AltitudeMeters>146</AltitudeMeters>
            <DistanceMeters>NAN</DistanceMeters>
          </Trackpoint>
          <Trackpoint>
            <Time>2022-09-24T16:44:19.000Z</Time>
            <Position>
              <LatitudeDegrees>43.34058894775807857513427734375</LatitudeDegrees>
              <LongitudeDegrees>-2.9284487105906009674072265625</LongitudeDegrees>
            </Position>
            <AltitudeMeters>146</AltitudeMeters>
            <DistanceMeters>NAN</DistanceMeters>
          </Trackpoint>
          <Trackpoint>
            <Time>2022-09-24T16:44:20.000Z</Time>
            <Position>
              <LatitudeDegrees>43.3405288495123386383056640625</LatitudeDegrees>
              <LongitudeDegrees>-2.9284091480076313018798828125</LongitudeDegrees>
            </Position>
            <AltitudeMeters>146.600006103515625</AltitudeMeters>
            <DistanceMeters>NAN</DistanceMeters>
          </Trackpoint>
          <Trackpoint>
            <Time>2022-09-24T16:44:21.000Z</Time>
            <Position>
              <LatitudeDegrees>43.34046875126659870147705078125</LatitudeDegrees>
              <LongitudeDegrees>-2.92836983688175678253173828125</LongitudeDegrees>
            </Position>
            <AltitudeMeters>148.1999969482421875</AltitudeMeters>
            <DistanceMeters>NAN</DistanceMeters>
          </Trackpoint>
          <Trackpoint>
            <Time>2022-09-24T16:44:22.000Z</Time>
            <Position>
              <LatitudeDegrees>43.34041845984756946563720703125</LatitudeDegrees>
              <LongitudeDegrees>-2.92833731509745121002197265625</LongitudeDegrees>
            </Position>
            <AltitudeMeters>148.8000030517578125</AltitudeMeters>
            <DistanceMeters>NAN</DistanceMeters>
          </Trackpoint>
          <Trackpoint>
            <Time>2022-09-24T16:44:23.000Z</Time>
            <Position>
              <LatitudeDegrees>43.3403550088405609130859375</LatitudeDegrees>
              <LongitudeDegrees>-2.928302027285099029541015625</LongitudeDegrees>
            </Position>
            <AltitudeMeters>148.8000030517578125</AltitudeMeters>
            <DistanceMeters>NAN</DistanceMeters>
          </Trackpoint>
          <Trackpoint>
            <Time>2022-09-24T16:44:24.000Z</Time>
            <Position>
              <LatitudeDegrees>43.34029507823288440704345703125</LatitudeDegrees>
              <LongitudeDegrees>-2.928272522985935211181640625</LongitudeDegrees>
            </Position>
            <AltitudeMeters>149.1999969482421875</AltitudeMeters>
            <DistanceMeters>NAN</DistanceMeters>
          </Trackpoint>
          <Trackpoint>
            <Time>2022-09-24T16:44:25.000Z</Time>
            <Position>
              <LatitudeDegrees>43.34023959003388881683349609375</LatitudeDegrees>
              <LongitudeDegrees>-2.928238995373249053955078125</LongitudeDegrees>
            </Position>
            <AltitudeMeters>149.1999969482421875</AltitudeMeters>
            <DistanceMeters>NAN</DistanceMeters>
          </Trackpoint>
          <Trackpoint>
            <Time>2022-09-24T16:44:26.000Z</Time>
            <Position>
              <LatitudeDegrees>43.34018141962587833404541015625</LatitudeDegrees>
              <LongitudeDegrees>-2.92820773087441921234130859375</LongitudeDegrees>
            </Position>
            <AltitudeMeters>149.1999969482421875</AltitudeMeters>
            <DistanceMeters>NAN</DistanceMeters>
          </Trackpoint>
          <Trackpoint>
            <Time>2022-09-24T16:44:27.000Z</Time>
            <Position>
              <LatitudeDegrees>43.34013012237846851348876953125</LatitudeDegrees>
              <LongitudeDegrees>-2.9281784780323505401611328125</LongitudeDegrees>
            </Position>
            <AltitudeMeters>149.1999969482421875</AltitudeMeters>
            <DistanceMeters>NAN</DistanceMeters>
          </Trackpoint>
          <Trackpoint>
            <Time>2022-09-24T16:44:28.000Z</Time>
            <Position>
              <LatitudeDegrees>43.34007329307496547698974609375</LatitudeDegrees>
              <LongitudeDegrees>-2.92814587242901325225830078125</LongitudeDegrees>
            </Position>
            <AltitudeMeters>149.1999969482421875</AltitudeMeters>
            <DistanceMeters>NAN</DistanceMeters>
          </Trackpoint>
          <Trackpoint>
            <Time>2022-09-24T16:44:29.000Z</Time>
            <Position>
              <LatitudeDegrees>43.340014703571796417236328125</LatitudeDegrees>
              <LongitudeDegrees>-2.92810966260731220245361328125</LongitudeDegrees>
            </Position>
            <AltitudeMeters>149.1999969482421875</AltitudeMeters>
            <DistanceMeters>NAN</DistanceMeters>
          </Trackpoint>
          <Trackpoint>
            <Time>2022-09-24T16:44:30.000Z</Time>
            <Position>
              <LatitudeDegrees>43.340014703571796417236328125</LatitudeDegrees>
              <LongitudeDegrees>-2.92810966260731220245361328125</LongitudeDegrees>
            </Position>
            <AltitudeMeters>149.1999969482421875</AltitudeMeters>
            <DistanceMeters>NAN</DistanceMeters>
          </Trackpoint>
          <Trackpoint>
            <Time>2022-09-24T16:44:31.000Z</Time>
            <Position>
              <LatitudeDegrees>43.33991286344826221466064453125</LatitudeDegrees>
              <LongitudeDegrees>-2.928046882152557373046875</LongitudeDegrees>
            </Position>
            <AltitudeMeters>149.1999969482421875</AltitudeMeters>
            <DistanceMeters>NAN</DistanceMeters>
          </Trackpoint>
          <Trackpoint>
            <Time>2022-09-24T16:44:32.000Z</Time>
            <Position>
              <LatitudeDegrees>43.3398636616766452789306640625</LatitudeDegrees>
              <LongitudeDegrees>-2.92801695875823497772216796875</LongitudeDegrees>
            </Position>
            <AltitudeMeters>149.1999969482421875</AltitudeMeters>
            <DistanceMeters>NAN</DistanceMeters>
          </Trackpoint>
          <Trackpoint>
            <Time>2022-09-24T16:44:33.000Z</Time>
            <Position>
              <LatitudeDegrees>43.33981479518115520477294921875</LatitudeDegrees>
              <LongitudeDegrees>-2.92798544280230998992919921875</LongitudeDegrees>
            </Position>
            <AltitudeMeters>149.1999969482421875</AltitudeMeters>
            <DistanceMeters>NAN</DistanceMeters>
          </Trackpoint>
          <Trackpoint>
            <Time>2022-09-24T16:44:34.000Z</Time>
            <Position>
              <LatitudeDegrees>43.3397674374282360076904296875</LatitudeDegrees>
              <LongitudeDegrees>-2.9279531724750995635986328125</LongitudeDegrees>
            </Position>
            <AltitudeMeters>149.399993896484375</AltitudeMeters>
            <DistanceMeters>NAN</DistanceMeters>
          </Trackpoint>
          <Trackpoint>
            <Time>2022-09-24T16:44:35.000Z</Time>
            <Position>
              <LatitudeDegrees>43.33971806801855564117431640625</LatitudeDegrees>
              <LongitudeDegrees>-2.92791746556758880615234375</LongitudeDegrees>
            </Position>
            <AltitudeMeters>149.399993896484375</AltitudeMeters>
            <DistanceMeters>NAN</DistanceMeters>
          </Trackpoint>
          <Trackpoint>
            <Time>2022-09-24T16:44:36.000Z</Time>
            <Position>
              <LatitudeDegrees>43.339669369161128997802734375</LatitudeDegrees>
              <LongitudeDegrees>-2.92787991464138031005859375</LongitudeDegrees>
            </Position>
            <AltitudeMeters>149.8000030517578125</AltitudeMeters>
            <DistanceMeters>NAN</DistanceMeters>
          </Trackpoint>
          <Trackpoint>
            <Time>2022-09-24T16:44:37.000Z</Time>
            <Position>
              <LatitudeDegrees>43.33961983211338520050048828125</LatitudeDegrees>
              <LongitudeDegrees>-2.92784060351550579071044921875</LongitudeDegrees>
            </Position>
            <AltitudeMeters>149.8000030517578125</AltitudeMeters>
            <DistanceMeters>NAN</DistanceMeters>
          </Trackpoint>
          <Trackpoint>
            <Time>2022-09-24T16:44:38.000Z</Time>
            <Position>
              <LatitudeDegrees>43.3395744860172271728515625</LatitudeDegrees>
              <LongitudeDegrees>-2.92780372314155101776123046875</LongitudeDegrees>
            </Position>
            <AltitudeMeters>149.8000030517578125</AltitudeMeters>
            <DistanceMeters>NAN</DistanceMeters>
          </Trackpoint>
          <Trackpoint>
            <Time>2022-09-24T16:44:39.000Z</Time>
            <Position>
              <LatitudeDegrees>43.33952964283525943756103515625</LatitudeDegrees>
              <LongitudeDegrees>-2.92776080779731273651123046875</LongitudeDegrees>
            </Position>
            <AltitudeMeters>150.1999969482421875</AltitudeMeters>
            <DistanceMeters>NAN</DistanceMeters>
          </Trackpoint>
          <Trackpoint>
            <Time>2022-09-24T16:44:40.000Z</Time>
            <Position>
              <LatitudeDegrees>43.339480943977832794189453125</LatitudeDegrees>
              <LongitudeDegrees>-2.92771738953888416290283203125</LongitudeDegrees>
            </Position>
            <AltitudeMeters>150.1999969482421875</AltitudeMeters>
            <DistanceMeters>NAN</DistanceMeters>
          </Trackpoint>
          <Trackpoint>
            <Time>2022-09-24T16:44:41.000Z</Time>
            <Position>
              <LatitudeDegrees>43.3394336700439453125</LatitudeDegrees>
              <LongitudeDegrees>-2.9276727139949798583984375</LongitudeDegrees>
            </Position>
            <AltitudeMeters>150.1999969482421875</AltitudeMeters>
            <DistanceMeters>NAN</DistanceMeters>
          </Trackpoint>
          <Trackpoint>
            <Time>2022-09-24T16:44:42.000Z</Time>
            <Position>
              <LatitudeDegrees>43.33938413299620151519775390625</LatitudeDegrees>
              <LongitudeDegrees>-2.92763072066009044647216796875</LongitudeDegrees>
            </Position>
            <AltitudeMeters>150.1999969482421875</AltitudeMeters>
            <DistanceMeters>NAN</DistanceMeters>
          </Trackpoint>
          <Trackpoint>
            <Time>2022-09-24T16:44:43.000Z</Time>
            <Position>
              <LatitudeDegrees>43.3393352665007114410400390625</LatitudeDegrees>
              <LongitudeDegrees>-2.92758889496326446533203125</LongitudeDegrees>
            </Position>
            <AltitudeMeters>150.1999969482421875</AltitudeMeters>
            <DistanceMeters>NAN</DistanceMeters>
          </Trackpoint>
          <Trackpoint>
            <Time>2022-09-24T16:44:44.000Z</Time>
            <Position>
              <LatitudeDegrees>43.33928505890071392059326171875</LatitudeDegrees>
              <LongitudeDegrees>-2.92754522524774074554443359375</LongitudeDegrees>
            </Position>
            <AltitudeMeters>150.1999969482421875</AltitudeMeters>
            <DistanceMeters>NAN</DistanceMeters>
          </Trackpoint>
          <Trackpoint>
            <Time>2022-09-24T16:44:45.000Z</Time>
            <Position>
              <LatitudeDegrees>43.33923644386231899261474609375</LatitudeDegrees>
              <LongitudeDegrees>-2.9275002144277095794677734375</LongitudeDegrees>
            </Position>
            <AltitudeMeters>150</AltitudeMeters>
            <DistanceMeters>NAN</DistanceMeters>
          </Trackpoint>
          <Trackpoint>
            <Time>2022-09-24T16:44:46.000Z</Time>
            <Position>
              <LatitudeDegrees>43.33918732590973377227783203125</LatitudeDegrees>
              <LongitudeDegrees>-2.9274566285312175750732421875</LongitudeDegrees>
            </Position>
            <AltitudeMeters>150</AltitudeMeters>
            <DistanceMeters>NAN</DistanceMeters>
          </Trackpoint>
          <Trackpoint>
            <Time>2022-09-24T16:44:47.000Z</Time>
            <Position>
              <LatitudeDegrees>43.33913720212876796722412109375</LatitudeDegrees>
              <LongitudeDegrees>-2.927414216101169586181640625</LongitudeDegrees>
            </Position>
            <AltitudeMeters>150</AltitudeMeters>
            <DistanceMeters>NAN</DistanceMeters>
          </Trackpoint>
          <Trackpoint>
            <Time>2022-09-24T16:44:48.000Z</Time>
            <Position>
              <LatitudeDegrees>43.3390881679952144622802734375</LatitudeDegrees>
              <LongitudeDegrees>-2.927371300756931304931640625</LongitudeDegrees>
            </Position>
            <AltitudeMeters>150</AltitudeMeters>
            <DistanceMeters>NAN</DistanceMeters>
          </Trackpoint>
          <Trackpoint>
            <Time>2022-09-24T16:44:49.000Z</Time>
            <Position>
              <LatitudeDegrees>43.3390395529568195343017578125</LatitudeDegrees>
              <LongitudeDegrees>-2.92732746340334415435791015625</LongitudeDegrees>
            </Position>
            <AltitudeMeters>150.1999969482421875</AltitudeMeters>
            <DistanceMeters>NAN</DistanceMeters>
          </Trackpoint>
          <Trackpoint>
            <Time>2022-09-24T16:44:50.000Z</Time>
            <Position>
              <LatitudeDegrees>43.338989429175853729248046875</LatitudeDegrees>
              <LongitudeDegrees>-2.92728337459266185760498046875</LongitudeDegrees>
            </Position>
            <AltitudeMeters>150.1999969482421875</AltitudeMeters>
            <DistanceMeters>NAN</DistanceMeters>
          </Trackpoint>
          <Trackpoint>
            <Time>2022-09-24T16:44:51.000Z</Time>
            <Position>
              <LatitudeDegrees>43.33894081413745880126953125</LatitudeDegrees>
              <LongitudeDegrees>-2.92724020779132843017578125</LongitudeDegrees>
            </Position>
            <AltitudeMeters>150.1999969482421875</AltitudeMeters>
            <DistanceMeters>NAN</DistanceMeters>
          </Trackpoint>
          <Trackpoint>
            <Time>2022-09-24T16:44:52.000Z</Time>
            <Position>
              <LatitudeDegrees>43.3388953842222690582275390625</LatitudeDegrees>
              <LongitudeDegrees>-2.9271941073238849639892578125</LongitudeDegrees>
            </Position>
            <AltitudeMeters>150.399993896484375</AltitudeMeters>
            <DistanceMeters>NAN</DistanceMeters>
          </Trackpoint>
          <Trackpoint>
            <Time>2022-09-24T16:44:53.000Z</Time>
            <Position>
              <LatitudeDegrees>43.33884961903095245361328125</LatitudeDegrees>
              <LongitudeDegrees>-2.9271471686661243438720703125</LongitudeDegrees>
            </Position>
            <AltitudeMeters>150.399993896484375</AltitudeMeters>
            <DistanceMeters>NAN</DistanceMeters>
          </Trackpoint>
          <Trackpoint>
            <Time>2022-09-24T16:44:54.000Z</Time>
            <Position>
              <LatitudeDegrees>43.33880092017352581024169921875</LatitudeDegrees>
              <LongitudeDegrees>-2.92709712870419025421142578125</LongitudeDegrees>
            </Position>
            <AltitudeMeters>150.399993896484375</AltitudeMeters>
            <DistanceMeters>NAN</DistanceMeters>
          </Trackpoint>
          <Trackpoint>
            <Time>2022-09-24T16:44:55.000Z</Time>
            <Position>
              <LatitudeDegrees>43.33875171840190887451171875</LatitudeDegrees>
              <LongitudeDegrees>-2.927046082913875579833984375</LongitudeDegrees>
            </Position>
            <AltitudeMeters>150.399993896484375</AltitudeMeters>
            <DistanceMeters>NAN</DistanceMeters>
          </Trackpoint>
          <Trackpoint>
            <Time>2022-09-24T16:44:56.000Z</Time>
            <Position>
              <LatitudeDegrees>43.3387027680873870849609375</LatitudeDegrees>
              <LongitudeDegrees>-2.92699721641838550567626953125</LongitudeDegrees>
            </Position>
            <AltitudeMeters>150.399993896484375</AltitudeMeters>
            <DistanceMeters>NAN</DistanceMeters>
          </Trackpoint>
          <Trackpoint>
            <Time>2022-09-24T16:44:57.000Z</Time>
            <Position>
              <LatitudeDegrees>43.33865582942962646484375</LatitudeDegrees>
              <LongitudeDegrees>-2.926946841180324554443359375</LongitudeDegrees>
            </Position>
            <AltitudeMeters>150.399993896484375</AltitudeMeters>
            <DistanceMeters>NAN</DistanceMeters>
          </Trackpoint>
          <Trackpoint>
            <Time>2022-09-24T16:44:58.000Z</Time>
            <Position>
              <LatitudeDegrees>43.3386083878576755523681640625</LatitudeDegrees>
              <LongitudeDegrees>-2.9268933646380901336669921875</LongitudeDegrees>
            </Position>
            <AltitudeMeters>150.1999969482421875</AltitudeMeters>
            <DistanceMeters>NAN</DistanceMeters>
          </Trackpoint>
          <Trackpoint>
            <Time>2022-09-24T16:44:59.000Z</Time>
            <Position>
              <LatitudeDegrees>43.3385627903044223785400390625</LatitudeDegrees>
              <LongitudeDegrees>-2.92683913372457027435302734375</LongitudeDegrees>
            </Position>
            <AltitudeMeters>150</AltitudeMeters>
            <DistanceMeters>NAN</DistanceMeters>
          </Trackpoint>
          <Trackpoint>
            <Time>2022-09-24T16:45:00.000Z</Time>
            <Position>
              <LatitudeDegrees>43.33851777948439121246337890625</LatitudeDegrees>
              <LongitudeDegrees>-2.926780879497528076171875</LongitudeDegrees>
            </Position>
            <AltitudeMeters>149.399993896484375</AltitudeMeters>
            <DistanceMeters>NAN</DistanceMeters>
          </Trackpoint>
          <Trackpoint>
            <Time>2022-09-24T16:45:01.000Z</Time>
            <Position>
              <LatitudeDegrees>43.33847100846469402313232421875</LatitudeDegrees>
              <LongitudeDegrees>-2.9267190210521221160888671875</LongitudeDegrees>
            </Position>
            <AltitudeMeters>149.399993896484375</AltitudeMeters>
            <DistanceMeters>NAN</DistanceMeters>
          </Trackpoint>
          <Trackpoint>
            <Time>2022-09-24T16:45:02.000Z</Time>
            <Position>
              <LatitudeDegrees>43.33842356689274311065673828125</LatitudeDegrees>
              <LongitudeDegrees>-2.9266549833118915557861328125</LongitudeDegrees>
            </Position>
            <AltitudeMeters>148.399993896484375</AltitudeMeters>
            <DistanceMeters>NAN</DistanceMeters>
          </Trackpoint>
          <Trackpoint>
            <Time>2022-09-24T16:45:03.000Z</Time>
            <Position>
              <LatitudeDegrees>43.3383767120540142059326171875</LatitudeDegrees>
              <LongitudeDegrees>-2.92659245431423187255859375</LongitudeDegrees>
            </Position>
            <AltitudeMeters>148</AltitudeMeters>
            <DistanceMeters>NAN</DistanceMeters>
          </Trackpoint>
          <Trackpoint>
            <Time>2022-09-24T16:45:04.000Z</Time>
            <Position>
              <LatitudeDegrees>43.33832901902496814727783203125</LatitudeDegrees>
              <LongitudeDegrees>-2.92652808129787445068359375</LongitudeDegrees>
            </Position>
            <AltitudeMeters>147.8000030517578125</AltitudeMeters>
            <DistanceMeters>NAN</DistanceMeters>
          </Trackpoint>
          <Trackpoint>
            <Time>2022-09-24T16:45:05.000Z</Time>
            <Position>
              <LatitudeDegrees>43.33826623857021331787109375</LatitudeDegrees>
              <LongitudeDegrees>-2.92645038105547428131103515625</LongitudeDegrees>
            </Position>
            <AltitudeMeters>147.600006103515625</AltitudeMeters>
            <DistanceMeters>NAN</DistanceMeters>
          </Trackpoint>
          <Trackpoint>
            <Time>2022-09-24T16:45:06.000Z</Time>
            <Position>
              <LatitudeDegrees>43.3382187969982624053955078125</LatitudeDegrees>
              <LongitudeDegrees>-2.92638936080038547515869140625</LongitudeDegrees>
            </Position>
            <AltitudeMeters>146.399993896484375</AltitudeMeters>
            <DistanceMeters>NAN</DistanceMeters>
          </Trackpoint>
          <Trackpoint>
            <Time>2022-09-24T16:45:07.000Z</Time>
            <Position>
              <LatitudeDegrees>43.3381550945341587066650390625</LatitudeDegrees>
              <LongitudeDegrees>-2.92631886899471282958984375</LongitudeDegrees>
            </Position>
            <AltitudeMeters>146.1999969482421875</AltitudeMeters>
            <DistanceMeters>NAN</DistanceMeters>
          </Trackpoint>
          <Trackpoint>
            <Time>2022-09-24T16:45:08.000Z</Time>
            <Position>
              <LatitudeDegrees>43.3380836807191371917724609375</LatitudeDegrees>
              <LongitudeDegrees>-2.926259525120258331298828125</LongitudeDegrees>
            </Position>
            <AltitudeMeters>145.8000030517578125</AltitudeMeters>
            <DistanceMeters>NAN</DistanceMeters>
          </Trackpoint>
          <Trackpoint>
            <Time>2022-09-24T16:45:09.000Z</Time>
            <Position>
              <LatitudeDegrees>43.33800497464835643768310546875</LatitudeDegrees>
              <LongitudeDegrees>-2.92621870525181293487548828125</LongitudeDegrees>
            </Position>
            <AltitudeMeters>145.1999969482421875</AltitudeMeters>
            <DistanceMeters>NAN</DistanceMeters>
          </Trackpoint>
          <Trackpoint>
            <Time>2022-09-24T16:45:10.000Z</Time>
            <Position>
              <LatitudeDegrees>43.337923921644687652587890625</LatitudeDegrees>
              <LongitudeDegrees>-2.92618685401976108551025390625</LongitudeDegrees>
            </Position>
            <AltitudeMeters>144.600006103515625</AltitudeMeters>
            <DistanceMeters>NAN</DistanceMeters>
          </Trackpoint>
          <Trackpoint>
            <Time>2022-09-24T16:45:11.000Z</Time>
            <Position>
              <LatitudeDegrees>43.3378390967845916748046875</LatitudeDegrees>
              <LongitudeDegrees>-2.9261664859950542449951171875</LongitudeDegrees>
            </Position>
            <AltitudeMeters>144.600006103515625</AltitudeMeters>
            <DistanceMeters>NAN</DistanceMeters>
          </Trackpoint>
          <Trackpoint>
            <Time>2022-09-24T16:45:12.000Z</Time>
            <Position>
              <LatitudeDegrees>43.33776340819895267486572265625</LatitudeDegrees>
              <LongitudeDegrees>-2.92613958008587360382080078125</LongitudeDegrees>
            </Position>
            <AltitudeMeters>144.1999969482421875</AltitudeMeters>
            <DistanceMeters>NAN</DistanceMeters>
          </Trackpoint>
          <Trackpoint>
            <Time>2022-09-24T16:45:13.000Z</Time>
            <Position>
              <LatitudeDegrees>43.33768310956656932830810546875</LatitudeDegrees>
              <LongitudeDegrees>-2.92611594311892986297607421875</LongitudeDegrees>
            </Position>
            <AltitudeMeters>144</AltitudeMeters>
            <DistanceMeters>NAN</DistanceMeters>
          </Trackpoint>
          <Trackpoint>
            <Time>2022-09-24T16:45:14.000Z</Time>
            <Position>
              <LatitudeDegrees>43.33758370019495487213134765625</LatitudeDegrees>
              <LongitudeDegrees>-2.92608828283846378326416015625</LongitudeDegrees>
            </Position>
            <AltitudeMeters>143.600006103515625</AltitudeMeters>
            <DistanceMeters>NAN</DistanceMeters>
          </Trackpoint>
          <Trackpoint>
            <Time>2022-09-24T16:45:15.000Z</Time>
            <Position>
              <LatitudeDegrees>43.33750407211482524871826171875</LatitudeDegrees>
              <LongitudeDegrees>-2.92605726979672908782958984375</LongitudeDegrees>
            </Position>
            <AltitudeMeters>143.600006103515625</AltitudeMeters>
            <DistanceMeters>NAN</DistanceMeters>
          </Trackpoint>
          <Trackpoint>
            <Time>2022-09-24T16:45:16.000Z</Time>
            <Position>
              <LatitudeDegrees>43.33742360584437847137451171875</LatitudeDegrees>
              <LongitudeDegrees>-2.92601888068020343780517578125</LongitudeDegrees>
            </Position>
            <AltitudeMeters>143.600006103515625</AltitudeMeters>
            <DistanceMeters>NAN</DistanceMeters>
          </Trackpoint>
          <Trackpoint>
            <Time>2022-09-24T16:45:17.000Z</Time>
            <Position>
              <LatitudeDegrees>43.33736208267509937286376953125</LatitudeDegrees>
              <LongitudeDegrees>-2.9259884543716907501220703125</LongitudeDegrees>
            </Position>
            <AltitudeMeters>143.399993896484375</AltitudeMeters>
            <DistanceMeters>NAN</DistanceMeters>
          </Trackpoint>
          <Trackpoint>
            <Time>2022-09-24T16:45:18.000Z</Time>
            <Position>
              <LatitudeDegrees>43.3372833766043186187744140625</LatitudeDegrees>
              <LongitudeDegrees>-2.92595140635967254638671875</LongitudeDegrees>
            </Position>
            <AltitudeMeters>143.399993896484375</AltitudeMeters>
            <DistanceMeters>NAN</DistanceMeters>
          </Trackpoint>
          <Trackpoint>
            <Time>2022-09-24T16:45:19.000Z</Time>
            <Position>
              <LatitudeDegrees>43.33720534108579158782958984375</LatitudeDegrees>
              <LongitudeDegrees>-2.9259113408625125885009765625</LongitudeDegrees>
            </Position>
            <AltitudeMeters>143.399993896484375</AltitudeMeters>
            <DistanceMeters>NAN</DistanceMeters>
          </Trackpoint>
          <Trackpoint>
            <Time>2022-09-24T16:45:20.000Z</Time>
            <Position>
              <LatitudeDegrees>43.3371113799512386322021484375</LatitudeDegrees>
              <LongitudeDegrees>-2.92585694231092929840087890625</LongitudeDegrees>
            </Position>
            <AltitudeMeters>142.8000030517578125</AltitudeMeters>
            <DistanceMeters>NAN</DistanceMeters>
          </Trackpoint>
          <Trackpoint>
            <Time>2022-09-24T16:45:21.000Z</Time>
            <Position>
              <LatitudeDegrees>43.3370532095432281494140625</LatitudeDegrees>
              <LongitudeDegrees>-2.92581318877637386322021484375</LongitudeDegrees>
            </Position>
            <AltitudeMeters>142.8000030517578125</AltitudeMeters>
            <DistanceMeters>NAN</DistanceMeters>
          </Trackpoint>
          <Trackpoint>
            <Time>2022-09-24T16:45:22.000Z</Time>
            <Position>
              <LatitudeDegrees>43.33697986789047718048095703125</LatitudeDegrees>
              <LongitudeDegrees>-2.925743199884891510009765625</LongitudeDegrees>
            </Position>
            <AltitudeMeters>142.600006103515625</AltitudeMeters>
            <DistanceMeters>NAN</DistanceMeters>
          </Trackpoint>
          <Trackpoint>
            <Time>2022-09-24T16:45:23.000Z</Time>
            <Position>
              <LatitudeDegrees>43.33690241910517215728759765625</LatitudeDegrees>
              <LongitudeDegrees>-2.9256558604538440704345703125</LongitudeDegrees>
            </Position>
            <AltitudeMeters>141.1999969482421875</AltitudeMeters>
            <DistanceMeters>NAN</DistanceMeters>
          </Trackpoint>
          <Trackpoint>
            <Time>2022-09-24T16:45:24.000Z</Time>
            <Position>
              <LatitudeDegrees>43.3368304185569286346435546875</LatitudeDegrees>
              <LongitudeDegrees>-2.925560474395751953125</LongitudeDegrees>
            </Position>
            <AltitudeMeters>141</AltitudeMeters>
            <DistanceMeters>NAN</DistanceMeters>
          </Trackpoint>
          <Trackpoint>
            <Time>2022-09-24T16:45:25.000Z</Time>
            <Position>
              <LatitudeDegrees>43.3367499522864818572998046875</LatitudeDegrees>
              <LongitudeDegrees>-2.925438769161701202392578125</LongitudeDegrees>
            </Position>
            <AltitudeMeters>141</AltitudeMeters>
            <DistanceMeters>NAN</DistanceMeters>
          </Trackpoint>
          <Trackpoint>
            <Time>2022-09-24T16:45:26.000Z</Time>
            <Position>
              <LatitudeDegrees>43.33669253624975681304931640625</LatitudeDegrees>
              <LongitudeDegrees>-2.92533189989626407623291015625</LongitudeDegrees>
            </Position>
            <AltitudeMeters>140.600006103515625</AltitudeMeters>
            <DistanceMeters>NAN</DistanceMeters>
          </Trackpoint>
          <Trackpoint>
            <Time>2022-09-24T16:45:27.000Z</Time>
            <Position>
              <LatitudeDegrees>43.3366359584033489227294921875</LatitudeDegrees>
              <LongitudeDegrees>-2.9252238571643829345703125</LongitudeDegrees>
            </Position>
            <AltitudeMeters>140.600006103515625</AltitudeMeters>
            <DistanceMeters>NAN</DistanceMeters>
          </Trackpoint>
          <Trackpoint>
            <Time>2022-09-24T16:45:28.000Z</Time>
            <Position>
              <LatitudeDegrees>43.3365833200514316558837890625</LatitudeDegrees>
              <LongitudeDegrees>-2.9251418821513652801513671875</LongitudeDegrees>
            </Position>
            <AltitudeMeters>140.399993896484375</AltitudeMeters>
            <DistanceMeters>NAN</DistanceMeters>
          </Trackpoint>
          <Trackpoint>
            <Time>2022-09-24T16:45:29.000Z</Time>
            <Position>
              <LatitudeDegrees>43.33651685155928134918212890625</LatitudeDegrees>
              <LongitudeDegrees>-2.9250402934849262237548828125</LongitudeDegrees>
            </Position>
            <AltitudeMeters>139.600006103515625</AltitudeMeters>
            <DistanceMeters>NAN</DistanceMeters>
          </Trackpoint>
          <Trackpoint>
            <Time>2022-09-24T16:45:30.000Z</Time>
            <Position>
              <LatitudeDegrees>43.33643655292689800262451171875</LatitudeDegrees>
              <LongitudeDegrees>-2.92495387606322765350341796875</LongitudeDegrees>
            </Position>
            <AltitudeMeters>139.1999969482421875</AltitudeMeters>
            <DistanceMeters>NAN</DistanceMeters>
          </Trackpoint>
          <Trackpoint>
            <Time>2022-09-24T16:45:31.000Z</Time>
            <Position>
              <LatitudeDegrees>43.33634753711521625518798828125</LatitudeDegrees>
              <LongitudeDegrees>-2.92488832958042621612548828125</LongitudeDegrees>
            </Position>
            <AltitudeMeters>138.8000030517578125</AltitudeMeters>
            <DistanceMeters>NAN</DistanceMeters>
          </Trackpoint>
          <Trackpoint>
            <Time>2022-09-24T16:45:32.000Z</Time>
            <Position>
              <LatitudeDegrees>43.3362537436187267303466796875</LatitudeDegrees>
              <LongitudeDegrees>-2.92483937926590442657470703125</LongitudeDegrees>
            </Position>
            <AltitudeMeters>138.600006103515625</AltitudeMeters>
            <DistanceMeters>NAN</DistanceMeters>
          </Trackpoint>
          <Trackpoint>
            <Time>2022-09-24T16:45:33.000Z</Time>
            <Position>
              <LatitudeDegrees>43.33614871837198734283447265625</LatitudeDegrees>
              <LongitudeDegrees>-2.92480769567191600799560546875</LongitudeDegrees>
            </Position>
            <AltitudeMeters>138.600006103515625</AltitudeMeters>
            <DistanceMeters>NAN</DistanceMeters>
          </Trackpoint>
          <Trackpoint>
            <Time>2022-09-24T16:45:34.000Z</Time>
            <Position>
              <LatitudeDegrees>43.33602114580571651458740234375</LatitudeDegrees>
              <LongitudeDegrees>-2.9247942008078098297119140625</LongitudeDegrees>
            </Position>
            <AltitudeMeters>138.399993896484375</AltitudeMeters>
            <DistanceMeters>NAN</DistanceMeters>
          </Trackpoint>
          <Trackpoint>
            <Time>2022-09-24T16:45:35.000Z</Time>
            <Position>
              <LatitudeDegrees>43.33593900315463542938232421875</LatitudeDegrees>
              <LongitudeDegrees>-2.92479512281715869903564453125</LongitudeDegrees>
            </Position>
            <AltitudeMeters>138.399993896484375</AltitudeMeters>
            <DistanceMeters>NAN</DistanceMeters>
          </Trackpoint>
          <Trackpoint>
            <Time>2022-09-24T16:45:36.000Z</Time>
            <Position>
              <LatitudeDegrees>43.3358175493776798248291015625</LatitudeDegrees>
              <LongitudeDegrees>-2.92480786330997943878173828125</LongitudeDegrees>
            </Position>
            <AltitudeMeters>137.8000030517578125</AltitudeMeters>
            <DistanceMeters>NAN</DistanceMeters>
          </Trackpoint>
          <Trackpoint>
            <Time>2022-09-24T16:45:37.000Z</Time>
            <Position>
              <LatitudeDegrees>43.33571654744446277618408203125</LatitudeDegrees>
              <LongitudeDegrees>-2.92482756078243255615234375</LongitudeDegrees>
            </Position>
            <AltitudeMeters>137.1999969482421875</AltitudeMeters>
            <DistanceMeters>NAN</DistanceMeters>
          </Trackpoint>
          <Trackpoint>
            <Time>2022-09-24T16:45:38.000Z</Time>
            <Position>
              <LatitudeDegrees>43.3356344886124134063720703125</LatitudeDegrees>
              <LongitudeDegrees>-2.9248304106295108795166015625</LongitudeDegrees>
            </Position>
            <AltitudeMeters>136.600006103515625</AltitudeMeters>
            <DistanceMeters>NAN</DistanceMeters>
          </Trackpoint>
          <Trackpoint>
            <Time>2022-09-24T16:45:39.000Z</Time>
            <Position>
              <LatitudeDegrees>43.33553248085081577301025390625</LatitudeDegrees>
              <LongitudeDegrees>-2.924813814461231231689453125</LongitudeDegrees>
            </Position>
            <AltitudeMeters>136.399993896484375</AltitudeMeters>
            <DistanceMeters>NAN</DistanceMeters>
          </Trackpoint>
          <Trackpoint>
            <Time>2022-09-24T16:45:40.000Z</Time>
            <Position>
              <LatitudeDegrees>43.33543382585048675537109375</LatitudeDegrees>
              <LongitudeDegrees>-2.9247734136879444122314453125</LongitudeDegrees>
            </Position>
            <AltitudeMeters>136.399993896484375</AltitudeMeters>
            <DistanceMeters>NAN</DistanceMeters>
          </Trackpoint>
          <Trackpoint>
            <Time>2022-09-24T16:45:41.000Z</Time>
            <Position>
              <LatitudeDegrees>43.3353500068187713623046875</LatitudeDegrees>
              <LongitudeDegrees>-2.92470225133001804351806640625</LongitudeDegrees>
            </Position>
            <AltitudeMeters>136.399993896484375</AltitudeMeters>
            <DistanceMeters>NAN</DistanceMeters>
          </Trackpoint>
          <Trackpoint>
            <Time>2022-09-24T16:45:42.000Z</Time>
            <Position>
              <LatitudeDegrees>43.3352821134030818939208984375</LatitudeDegrees>
              <LongitudeDegrees>-2.92460854165256023406982421875</LongitudeDegrees>
            </Position>
            <AltitudeMeters>136.399993896484375</AltitudeMeters>
            <DistanceMeters>NAN</DistanceMeters>
          </Trackpoint>
          <Trackpoint>
            <Time>2022-09-24T16:45:43.000Z</Time>
            <Position>
              <LatitudeDegrees>43.33522100932896137237548828125</LatitudeDegrees>
              <LongitudeDegrees>-2.92451466433703899383544921875</LongitudeDegrees>
            </Position>
            <AltitudeMeters>141</AltitudeMeters>
            <DistanceMeters>NAN</DistanceMeters>
          </Trackpoint>
          <Trackpoint>
            <Time>2022-09-24T16:45:44.000Z</Time>
            <Position>
              <LatitudeDegrees>43.3351563848555088043212890625</LatitudeDegrees>
              <LongitudeDegrees>-2.9244438372552394866943359375</LongitudeDegrees>
            </Position>
            <AltitudeMeters>141.399993896484375</AltitudeMeters>
            <DistanceMeters>NAN</DistanceMeters>
          </Trackpoint>
          <Trackpoint>
            <Time>2022-09-24T16:45:45.000Z</Time>
            <Position>
              <LatitudeDegrees>43.3350819535553455352783203125</LatitudeDegrees>
              <LongitudeDegrees>-2.92439647950232028961181640625</LongitudeDegrees>
            </Position>
            <AltitudeMeters>141.399993896484375</AltitudeMeters>
            <DistanceMeters>NAN</DistanceMeters>
          </Trackpoint>
          <Trackpoint>
            <Time>2022-09-24T16:45:46.000Z</Time>
            <Position>
              <LatitudeDegrees>43.33499796688556671142578125</LatitudeDegrees>
              <LongitudeDegrees>-2.9243910312652587890625</LongitudeDegrees>
            </Position>
            <AltitudeMeters>141.399993896484375</AltitudeMeters>
            <DistanceMeters>NAN</DistanceMeters>
          </Trackpoint>
          <Trackpoint>
            <Time>2022-09-24T16:45:47.000Z</Time>
            <Position>
              <LatitudeDegrees>43.33491347730159759521484375</LatitudeDegrees>
              <LongitudeDegrees>-2.9244243912398815155029296875</LongitudeDegrees>
            </Position>
            <AltitudeMeters>141.399993896484375</AltitudeMeters>
            <DistanceMeters>NAN</DistanceMeters>
          </Trackpoint>
          <Trackpoint>
            <Time>2022-09-24T16:45:48.000Z</Time>
            <Position>
              <LatitudeDegrees>43.3348144032061100006103515625</LatitudeDegrees>
              <LongitudeDegrees>-2.92449438013136386871337890625</LongitudeDegrees>
            </Position>
            <AltitudeMeters>141</AltitudeMeters>
            <DistanceMeters>NAN</DistanceMeters>
          </Trackpoint>
          <Trackpoint>
            <Time>2022-09-24T16:45:49.000Z</Time>
            <Position>
              <LatitudeDegrees>43.33475246094167232513427734375</LatitudeDegrees>
              <LongitudeDegrees>-2.92458171956241130828857421875</LongitudeDegrees>
            </Position>
            <AltitudeMeters>140.600006103515625</AltitudeMeters>
            <DistanceMeters>NAN</DistanceMeters>
          </Trackpoint>
          <Trackpoint>
            <Time>2022-09-24T16:45:50.000Z</Time>
            <Position>
              <LatitudeDegrees>43.3347101323306560516357421875</LatitudeDegrees>
              <LongitudeDegrees>-2.92469034902751445770263671875</LongitudeDegrees>
            </Position>
            <AltitudeMeters>139.1999969482421875</AltitudeMeters>
            <DistanceMeters>NAN</DistanceMeters>
          </Trackpoint>
          <Trackpoint>
            <Time>2022-09-24T16:45:51.000Z</Time>
            <Position>
              <LatitudeDegrees>43.33468741737306118011474609375</LatitudeDegrees>
              <LongitudeDegrees>-2.92479361407458782196044921875</LongitudeDegrees>
            </Position>
            <AltitudeMeters>138.1999969482421875</AltitudeMeters>
            <DistanceMeters>NAN</DistanceMeters>
          </Trackpoint>
          <Trackpoint>
            <Time>2022-09-24T16:45:52.000Z</Time>
            <Position>
              <LatitudeDegrees>43.33466059528291225433349609375</LatitudeDegrees>
              <LongitudeDegrees>-2.9249484278261661529541015625</LongitudeDegrees>
            </Position>
            <AltitudeMeters>134.399993896484375</AltitudeMeters>
            <DistanceMeters>NAN</DistanceMeters>
          </Trackpoint>
          <Trackpoint>
            <Time>2022-09-24T16:45:53.000Z</Time>
            <Position>
              <LatitudeDegrees>43.33464869298040866851806640625</LatitudeDegrees>
              <LongitudeDegrees>-2.925059907138347625732421875</LongitudeDegrees>
            </Position>
            <AltitudeMeters>133.8000030517578125</AltitudeMeters>
            <DistanceMeters>NAN</DistanceMeters>
          </Trackpoint>
          <Trackpoint>
            <Time>2022-09-24T16:45:54.000Z</Time>
            <Position>
              <LatitudeDegrees>43.3346373774111270904541015625</LatitudeDegrees>
              <LongitudeDegrees>-2.92519577778875827789306640625</LongitudeDegrees>
            </Position>
            <AltitudeMeters>133.600006103515625</AltitudeMeters>
            <DistanceMeters>NAN</DistanceMeters>
          </Trackpoint>
          <Trackpoint>
            <Time>2022-09-24T16:45:55.000Z</Time>
            <Position>
              <LatitudeDegrees>43.33463645540177822113037109375</LatitudeDegrees>
              <LongitudeDegrees>-2.9253336600959300994873046875</LongitudeDegrees>
            </Position>
            <AltitudeMeters>132.600006103515625</AltitudeMeters>
            <DistanceMeters>NAN</DistanceMeters>
          </Trackpoint>
          <Trackpoint>
            <Time>2022-09-24T16:45:56.000Z</Time>
            <Position>
              <LatitudeDegrees>43.33463645540177822113037109375</LatitudeDegrees>
              <LongitudeDegrees>-2.9253336600959300994873046875</LongitudeDegrees>
            </Position>
            <AltitudeMeters>132.399993896484375</AltitudeMeters>
            <DistanceMeters>NAN</DistanceMeters>
          </Trackpoint>
          <Trackpoint>
            <Time>2022-09-24T16:45:57.000Z</Time>
            <Position>
              <LatitudeDegrees>43.33465489558875560760498046875</LatitudeDegrees>
              <LongitudeDegrees>-2.92561219073832035064697265625</LongitudeDegrees>
            </Position>
            <AltitudeMeters>131.399993896484375</AltitudeMeters>
            <DistanceMeters>NAN</DistanceMeters>
          </Trackpoint>
          <Trackpoint>
            <Time>2022-09-24T16:45:58.000Z</Time>
            <Position>
              <LatitudeDegrees>43.33466612733900547027587890625</LatitudeDegrees>
              <LongitudeDegrees>-2.92575267143547534942626953125</LongitudeDegrees>
            </Position>
            <AltitudeMeters>130.399993896484375</AltitudeMeters>
            <DistanceMeters>NAN</DistanceMeters>
          </Trackpoint>
          <Trackpoint>
            <Time>2022-09-24T16:45:59.000Z</Time>
            <Position>
              <LatitudeDegrees>43.334671072661876678466796875</LatitudeDegrees>
              <LongitudeDegrees>-2.92592114768922328948974609375</LongitudeDegrees>
            </Position>
            <AltitudeMeters>130.1999969482421875</AltitudeMeters>
            <DistanceMeters>NAN</DistanceMeters>
          </Trackpoint>
          <Trackpoint>
            <Time>2022-09-24T16:46:00.000Z</Time>
            <Position>
              <LatitudeDegrees>43.334666378796100616455078125</LatitudeDegrees>
              <LongitudeDegrees>-2.92603480629622936248779296875</LongitudeDegrees>
            </Position>
            <AltitudeMeters>130</AltitudeMeters>
            <DistanceMeters>NAN</DistanceMeters>
          </Trackpoint>
          <Trackpoint>
            <Time>2022-09-24T16:46:01.000Z</Time>
            <Position>
              <LatitudeDegrees>43.33465020172297954559326171875</LatitudeDegrees>
              <LongitudeDegrees>-2.92620345018804073333740234375</LongitudeDegrees>
            </Position>
            <AltitudeMeters>130</AltitudeMeters>
            <DistanceMeters>NAN</DistanceMeters>
          </Trackpoint>
          <Trackpoint>
            <Time>2022-09-24T16:46:02.000Z</Time>
            <Position>
              <LatitudeDegrees>43.33462405018508434295654296875</LatitudeDegrees>
              <LongitudeDegrees>-2.92635130695998668670654296875</LongitudeDegrees>
            </Position>
            <AltitudeMeters>128.1999969482421875</AltitudeMeters>
            <DistanceMeters>NAN</DistanceMeters>
          </Trackpoint>
          <Trackpoint>
            <Time>2022-09-24T16:46:03.000Z</Time>
            <Position>
              <LatitudeDegrees>43.3345981501042842864990234375</LatitudeDegrees>
              <LongitudeDegrees>-2.9265041090548038482666015625</LongitudeDegrees>
            </Position>
            <AltitudeMeters>128.1999969482421875</AltitudeMeters>
            <DistanceMeters>NAN</DistanceMeters>
          </Trackpoint>
          <Trackpoint>
            <Time>2022-09-24T16:46:04.000Z</Time>
            <Position>
              <LatitudeDegrees>43.33457225002348423004150390625</LatitudeDegrees>
              <LongitudeDegrees>-2.926657497882843017578125</LongitudeDegrees>
            </Position>
            <AltitudeMeters>127.8000030517578125</AltitudeMeters>
            <DistanceMeters>NAN</DistanceMeters>
          </Trackpoint>
          <Trackpoint>
            <Time>2022-09-24T16:46:05.000Z</Time>
            <Position>
              <LatitudeDegrees>43.33454777486622333526611328125</LatitudeDegrees>
              <LongitudeDegrees>-2.92678129859268665313720703125</LongitudeDegrees>
            </Position>
            <AltitudeMeters>127.59999847412109375</AltitudeMeters>
            <DistanceMeters>NAN</DistanceMeters>
          </Trackpoint>
          <Trackpoint>
            <Time>2022-09-24T16:46:06.000Z</Time>
            <Position>
              <LatitudeDegrees>43.334518857300281524658203125</LatitudeDegrees>
              <LongitudeDegrees>-2.9269646108150482177734375</LongitudeDegrees>
            </Position>
            <AltitudeMeters>127.1999969482421875</AltitudeMeters>
            <DistanceMeters>NAN</DistanceMeters>
          </Trackpoint>
          <Trackpoint>
            <Time>2022-09-24T16:46:07.000Z</Time>
            <Position>
              <LatitudeDegrees>43.33449698053300380706787109375</LatitudeDegrees>
              <LongitudeDegrees>-2.927109785377979278564453125</LongitudeDegrees>
            </Position>
            <AltitudeMeters>127</AltitudeMeters>
            <DistanceMeters>NAN</DistanceMeters>
          </Trackpoint>
          <Trackpoint>
            <Time>2022-09-24T16:46:08.000Z</Time>
            <Position>
              <LatitudeDegrees>43.3344734273850917816162109375</LatitudeDegrees>
              <LongitudeDegrees>-2.9272584803402423858642578125</LongitudeDegrees>
            </Position>
            <AltitudeMeters>127</AltitudeMeters>
            <DistanceMeters>NAN</DistanceMeters>
          </Trackpoint>
          <Trackpoint>
            <Time>2022-09-24T16:46:09.000Z</Time>
            <Position>
              <LatitudeDegrees>43.33445155061781406402587890625</LatitudeDegrees>
              <LongitudeDegrees>-2.9274153895676136016845703125</LongitudeDegrees>
            </Position>
            <AltitudeMeters>126.1999969482421875</AltitudeMeters>
            <DistanceMeters>NAN</DistanceMeters>
          </Trackpoint>
          <Trackpoint>
            <Time>2022-09-24T16:46:10.000Z</Time>
            <Position>
              <LatitudeDegrees>43.33441634662449359893798828125</LatitudeDegrees>
              <LongitudeDegrees>-2.9275783337652683258056640625</LongitudeDegrees>
            </Position>
            <AltitudeMeters>126.1999969482421875</AltitudeMeters>
            <DistanceMeters>NAN</DistanceMeters>
          </Trackpoint>
          <Trackpoint>
            <Time>2022-09-24T16:46:11.000Z</Time>
            <Position>
              <LatitudeDegrees>43.334386758506298065185546875</LatitudeDegrees>
              <LongitudeDegrees>-2.9277349077165126800537109375</LongitudeDegrees>
            </Position>
            <AltitudeMeters>125.8000030517578125</AltitudeMeters>
            <DistanceMeters>NAN</DistanceMeters>
          </Trackpoint>
          <Trackpoint>
            <Time>2022-09-24T16:46:12.000Z</Time>
            <Position>
              <LatitudeDegrees>43.33437343128025531768798828125</LatitudeDegrees>
              <LongitudeDegrees>-2.927883602678775787353515625</LongitudeDegrees>
            </Position>
            <AltitudeMeters>125.8000030517578125</AltitudeMeters>
            <DistanceMeters>NAN</DistanceMeters>
          </Trackpoint>
          <Trackpoint>
            <Time>2022-09-24T16:46:13.000Z</Time>
            <Position>
              <LatitudeDegrees>43.33435700275003910064697265625</LatitudeDegrees>
              <LongitudeDegrees>-2.9280390031635761260986328125</LongitudeDegrees>
            </Position>
            <AltitudeMeters>125.8000030517578125</AltitudeMeters>
            <DistanceMeters>NAN</DistanceMeters>
          </Trackpoint>
          <Trackpoint>
            <Time>2022-09-24T16:46:14.000Z</Time>
            <Position>
              <LatitudeDegrees>43.3343413285911083221435546875</LatitudeDegrees>
              <LongitudeDegrees>-2.92818711139261722564697265625</LongitudeDegrees>
            </Position>
            <AltitudeMeters>125.8000030517578125</AltitudeMeters>
            <DistanceMeters>NAN</DistanceMeters>
          </Trackpoint>
          <Trackpoint>
            <Time>2022-09-24T16:46:15.000Z</Time>
            <Position>
              <LatitudeDegrees>43.33432934246957302093505859375</LatitudeDegrees>
              <LongitudeDegrees>-2.92831082828342914581298828125</LongitudeDegrees>
            </Position>
            <AltitudeMeters>125.59999847412109375</AltitudeMeters>
            <DistanceMeters>NAN</DistanceMeters>
          </Trackpoint>
          <Trackpoint>
            <Time>2022-09-24T16:46:16.000Z</Time>
            <Position>
              <LatitudeDegrees>43.33431475795805454254150390625</LatitudeDegrees>
              <LongitudeDegrees>-2.92849992401897907257080078125</LongitudeDegrees>
            </Position>
            <AltitudeMeters>124.8000030517578125</AltitudeMeters>
            <DistanceMeters>NAN</DistanceMeters>
          </Trackpoint>
          <Trackpoint>
            <Time>2022-09-24T16:46:17.000Z</Time>
            <Position>
              <LatitudeDegrees>43.33430595695972442626953125</LatitudeDegrees>
              <LongitudeDegrees>-2.92866253294050693511962890625</LongitudeDegrees>
            </Position>
            <AltitudeMeters>123.8000030517578125</AltitudeMeters>
            <DistanceMeters>NAN</DistanceMeters>
          </Trackpoint>
          <Trackpoint>
            <Time>2022-09-24T16:46:18.000Z</Time>
            <Position>
              <LatitudeDegrees>43.33430595695972442626953125</LatitudeDegrees>
              <LongitudeDegrees>-2.92866253294050693511962890625</LongitudeDegrees>
            </Position>
            <AltitudeMeters>122.1999969482421875</AltitudeMeters>
            <DistanceMeters>NAN</DistanceMeters>
          </Trackpoint>
          <Trackpoint>
            <Time>2022-09-24T16:46:19.000Z</Time>
            <Position>
              <LatitudeDegrees>43.3342953957617282867431640625</LatitudeDegrees>
              <LongitudeDegrees>-2.928985320031642913818359375</LongitudeDegrees>
            </Position>
            <AltitudeMeters>122</AltitudeMeters>
            <DistanceMeters>NAN</DistanceMeters>
          </Trackpoint>
          <Trackpoint>
            <Time>2022-09-24T16:46:20.000Z</Time>
            <Position>
              <LatitudeDegrees>43.3342964015901088714599609375</LatitudeDegrees>
              <LongitudeDegrees>-2.92915337719023227691650390625</LongitudeDegrees>
            </Position>
            <AltitudeMeters>122</AltitudeMeters>
            <DistanceMeters>NAN</DistanceMeters>
          </Trackpoint>
          <Trackpoint>
            <Time>2022-09-24T16:46:21.000Z</Time>
            <Position>
              <LatitudeDegrees>43.3342967368662357330322265625</LatitudeDegrees>
              <LongitudeDegrees>-2.92932470329105854034423828125</LongitudeDegrees>
            </Position>
            <AltitudeMeters>121</AltitudeMeters>
            <DistanceMeters>NAN</DistanceMeters>
          </Trackpoint>
          <Trackpoint>
            <Time>2022-09-24T16:46:22.000Z</Time>
            <Position>
              <LatitudeDegrees>43.33429899998009204864501953125</LatitudeDegrees>
              <LongitudeDegrees>-2.92949519120156764984130859375</LongitudeDegrees>
            </Position>
            <AltitudeMeters>121</AltitudeMeters>
            <DistanceMeters>NAN</DistanceMeters>
          </Trackpoint>
          <Trackpoint>
            <Time>2022-09-24T16:46:23.000Z</Time>
            <Position>
              <LatitudeDegrees>43.3343037776648998260498046875</LatitudeDegrees>
              <LongitudeDegrees>-2.92965419590473175048828125</LongitudeDegrees>
            </Position>
            <AltitudeMeters>120.8000030517578125</AltitudeMeters>
            <DistanceMeters>NAN</DistanceMeters>
          </Trackpoint>
          <Trackpoint>
            <Time>2022-09-24T16:46:24.000Z</Time>
            <Position>
              <LatitudeDegrees>43.334313668310642242431640625</LatitudeDegrees>
              <LongitudeDegrees>-2.929812110960483551025390625</LongitudeDegrees>
            </Position>
            <AltitudeMeters>119.59999847412109375</AltitudeMeters>
            <DistanceMeters>NAN</DistanceMeters>
          </Trackpoint>
          <Trackpoint>
            <Time>2022-09-24T16:46:25.000Z</Time>
            <Position>
              <LatitudeDegrees>43.33432213403284549713134765625</LatitudeDegrees>
              <LongitudeDegrees>-2.9299779050052165985107421875</LongitudeDegrees>
            </Position>
            <AltitudeMeters>119.40000152587890625</AltitudeMeters>
            <DistanceMeters>NAN</DistanceMeters>
          </Trackpoint>
          <Trackpoint>
            <Time>2022-09-24T16:46:26.000Z</Time>
            <Position>
              <LatitudeDegrees>43.334330432116985321044921875</LatitudeDegrees>
              <LongitudeDegrees>-2.93011159636080265045166015625</LongitudeDegrees>
            </Position>
            <AltitudeMeters>119.1999969482421875</AltitudeMeters>
            <DistanceMeters>NAN</DistanceMeters>
          </Trackpoint>
          <Trackpoint>
            <Time>2022-09-24T16:46:27.000Z</Time>
            <Position>
              <LatitudeDegrees>43.334345519542694091796875</LatitudeDegrees>
              <LongitudeDegrees>-2.93031494133174419403076171875</LongitudeDegrees>
            </Position>
            <AltitudeMeters>119</AltitudeMeters>
            <DistanceMeters>NAN</DistanceMeters>
          </Trackpoint>
          <Trackpoint>
            <Time>2022-09-24T16:46:28.000Z</Time>
            <Position>
              <LatitudeDegrees>43.33435289561748504638671875</LatitudeDegrees>
              <LongitudeDegrees>-2.93045072816312313079833984375</LongitudeDegrees>
            </Position>
            <AltitudeMeters>117.1999969482421875</AltitudeMeters>
            <DistanceMeters>NAN</DistanceMeters>
          </Trackpoint>
          <Trackpoint>
            <Time>2022-09-24T16:46:29.000Z</Time>
            <Position>
              <LatitudeDegrees>43.33436991088092327117919921875</LatitudeDegrees>
              <LongitudeDegrees>-2.9306457750499248504638671875</LongitudeDegrees>
            </Position>
            <AltitudeMeters>117.1999969482421875</AltitudeMeters>
            <DistanceMeters>NAN</DistanceMeters>
          </Trackpoint>
          <Trackpoint>
            <Time>2022-09-24T16:46:30.000Z</Time>
            <Position>
              <LatitudeDegrees>43.3343825675547122955322265625</LatitudeDegrees>
              <LongitudeDegrees>-2.93080477975308895111083984375</LongitudeDegrees>
            </Position>
            <AltitudeMeters>117</AltitudeMeters>
            <DistanceMeters>NAN</DistanceMeters>
          </Trackpoint>
          <Trackpoint>
            <Time>2022-09-24T16:46:31.000Z</Time>
            <Position>
              <LatitudeDegrees>43.3343929611146450042724609375</LatitudeDegrees>
              <LongitudeDegrees>-2.93096420355141162872314453125</LongitudeDegrees>
            </Position>
            <AltitudeMeters>115.8000030517578125</AltitudeMeters>
            <DistanceMeters>NAN</DistanceMeters>
          </Trackpoint>
          <Trackpoint>
            <Time>2022-09-24T16:46:32.000Z</Time>
            <Position>
              <LatitudeDegrees>43.33439371548593044281005859375</LatitudeDegrees>
              <LongitudeDegrees>-2.9310920275747776031494140625</LongitudeDegrees>
            </Position>
            <AltitudeMeters>115.8000030517578125</AltitudeMeters>
            <DistanceMeters>NAN</DistanceMeters>
          </Trackpoint>
          <Trackpoint>
            <Time>2022-09-24T16:46:33.000Z</Time>
            <Position>
              <LatitudeDegrees>43.3343949727714061737060546875</LatitudeDegrees>
              <LongitudeDegrees>-2.931244075298309326171875</LongitudeDegrees>
            </Position>
            <AltitudeMeters>115.8000030517578125</AltitudeMeters>
            <DistanceMeters>NAN</DistanceMeters>
          </Trackpoint>
          <Trackpoint>
            <Time>2022-09-24T16:46:34.000Z</Time>
            <Position>
              <LatitudeDegrees>43.334393464028835296630859375</LatitudeDegrees>
              <LongitudeDegrees>-2.931405343115329742431640625</LongitudeDegrees>
            </Position>
            <AltitudeMeters>115.40000152587890625</AltitudeMeters>
            <DistanceMeters>NAN</DistanceMeters>
          </Trackpoint>
          <Trackpoint>
            <Time>2022-09-24T16:46:35.000Z</Time>
            <Position>
              <LatitudeDegrees>43.33439472131431102752685546875</LatitudeDegrees>
              <LongitudeDegrees>-2.931601144373416900634765625</LongitudeDegrees>
            </Position>
            <AltitudeMeters>115</AltitudeMeters>
            <DistanceMeters>NAN</DistanceMeters>
          </Trackpoint>
          <Trackpoint>
            <Time>2022-09-24T16:46:36.000Z</Time>
            <Position>
              <LatitudeDegrees>43.33439136855304241180419921875</LatitudeDegrees>
              <LongitudeDegrees>-2.93173215351998805999755859375</LongitudeDegrees>
            </Position>
            <AltitudeMeters>115</AltitudeMeters>
            <DistanceMeters>NAN</DistanceMeters>
          </Trackpoint>
          <Trackpoint>
            <Time>2022-09-24T16:46:37.000Z</Time>
            <Position>
              <LatitudeDegrees>43.33438801579177379608154296875</LatitudeDegrees>
              <LongitudeDegrees>-2.93190901167690753936767578125</LongitudeDegrees>
            </Position>
            <AltitudeMeters>114</AltitudeMeters>
            <DistanceMeters>NAN</DistanceMeters>
          </Trackpoint>
          <Trackpoint>
            <Time>2022-09-24T16:46:38.000Z</Time>
            <Position>
              <LatitudeDegrees>43.334380723536014556884765625</LatitudeDegrees>
              <LongitudeDegrees>-2.932086624205112457275390625</LongitudeDegrees>
            </Position>
            <AltitudeMeters>114</AltitudeMeters>
            <DistanceMeters>NAN</DistanceMeters>
          </Trackpoint>
          <Trackpoint>
            <Time>2022-09-24T16:46:39.000Z</Time>
            <Position>
              <LatitudeDegrees>43.33437192253768444061279296875</LatitudeDegrees>
              <LongitudeDegrees>-2.93227798305451869964599609375</LongitudeDegrees>
            </Position>
            <AltitudeMeters>112.59999847412109375</AltitudeMeters>
            <DistanceMeters>NAN</DistanceMeters>
          </Trackpoint>
          <Trackpoint>
            <Time>2022-09-24T16:46:40.000Z</Time>
            <Position>
              <LatitudeDegrees>43.33435985259711742401123046875</LatitudeDegrees>
              <LongitudeDegrees>-2.9324411787092685699462890625</LongitudeDegrees>
            </Position>
            <AltitudeMeters>112.1999969482421875</AltitudeMeters>
            <DistanceMeters>NAN</DistanceMeters>
          </Trackpoint>
          <Trackpoint>
            <Time>2022-09-24T16:46:41.000Z</Time>
            <Position>
              <LatitudeDegrees>43.3343389816582202911376953125</LatitudeDegrees>
              <LongitudeDegrees>-2.9326366446912288665771484375</LongitudeDegrees>
            </Position>
            <AltitudeMeters>112.1999969482421875</AltitudeMeters>
            <DistanceMeters>NAN</DistanceMeters>
          </Trackpoint>
          <Trackpoint>
            <Time>2022-09-24T16:46:42.000Z</Time>
            <Position>
              <LatitudeDegrees>43.3343389816582202911376953125</LatitudeDegrees>
              <LongitudeDegrees>-2.9326366446912288665771484375</LongitudeDegrees>
            </Position>
            <AltitudeMeters>111.8000030517578125</AltitudeMeters>
            <DistanceMeters>NAN</DistanceMeters>
          </Trackpoint>
          <Trackpoint>
            <Time>2022-09-24T16:46:43.000Z</Time>
            <Position>
              <LatitudeDegrees>43.3343111537396907806396484375</LatitudeDegrees>
              <LongitudeDegrees>-2.93291903100907802581787109375</LongitudeDegrees>
            </Position>
            <AltitudeMeters>111.59999847412109375</AltitudeMeters>
            <DistanceMeters>NAN</DistanceMeters>
          </Trackpoint>
          <Trackpoint>
            <Time>2022-09-24T16:46:44.000Z</Time>
            <Position>
              <LatitudeDegrees>43.334296904504299163818359375</LatitudeDegrees>
              <LongitudeDegrees>-2.93307493440806865692138671875</LongitudeDegrees>
            </Position>
            <AltitudeMeters>111</AltitudeMeters>
            <DistanceMeters>NAN</DistanceMeters>
          </Trackpoint>
          <Trackpoint>
            <Time>2022-09-24T16:46:45.000Z</Time>
            <Position>
              <LatitudeDegrees>43.3342752791941165924072265625</LatitudeDegrees>
              <LongitudeDegrees>-2.93325598351657390594482421875</LongitudeDegrees>
            </Position>
            <AltitudeMeters>111</AltitudeMeters>
            <DistanceMeters>NAN</DistanceMeters>
          </Trackpoint>
          <Trackpoint>
            <Time>2022-09-24T16:46:46.000Z</Time>
            <Position>
              <LatitudeDegrees>43.33425574935972690582275390625</LatitudeDegrees>
              <LongitudeDegrees>-2.93341389857232570648193359375</LongitudeDegrees>
            </Position>
            <AltitudeMeters>110.59999847412109375</AltitudeMeters>
            <DistanceMeters>NAN</DistanceMeters>
          </Trackpoint>
          <Trackpoint>
            <Time>2022-09-24T16:46:47.000Z</Time>
            <Position>
              <LatitudeDegrees>43.33423563279211521148681640625</LatitudeDegrees>
              <LongitudeDegrees>-2.93354163877665996551513671875</LongitudeDegrees>
            </Position>
            <AltitudeMeters>110</AltitudeMeters>
            <DistanceMeters>NAN</DistanceMeters>
          </Trackpoint>
          <Trackpoint>
            <Time>2022-09-24T16:46:48.000Z</Time>
            <Position>
              <LatitudeDegrees>43.33421350456774234771728515625</LatitudeDegrees>
              <LongitudeDegrees>-2.93369636870920658111572265625</LongitudeDegrees>
            </Position>
            <AltitudeMeters>110</AltitudeMeters>
            <DistanceMeters>NAN</DistanceMeters>
          </Trackpoint>
          <Trackpoint>
            <Time>2022-09-24T16:46:49.000Z</Time>
            <Position>
              <LatitudeDegrees>43.33418467082083225250244140625</LatitudeDegrees>
              <LongitudeDegrees>-2.9338820278644561767578125</LongitudeDegrees>
            </Position>
            <AltitudeMeters>109.8000030517578125</AltitudeMeters>
            <DistanceMeters>NAN</DistanceMeters>
          </Trackpoint>
          <Trackpoint>
            <Time>2022-09-24T16:46:50.000Z</Time>
            <Position>
              <LatitudeDegrees>43.33415709435939788818359375</LatitudeDegrees>
              <LongitudeDegrees>-2.93403558433055877685546875</LongitudeDegrees>
            </Position>
            <AltitudeMeters>108.8000030517578125</AltitudeMeters>
            <DistanceMeters>NAN</DistanceMeters>
          </Trackpoint>
          <Trackpoint>
            <Time>2022-09-24T16:46:51.000Z</Time>
            <Position>
              <LatitudeDegrees>43.3341284282505512237548828125</LatitudeDegrees>
              <LongitudeDegrees>-2.9341877996921539306640625</LongitudeDegrees>
            </Position>
            <AltitudeMeters>107.59999847412109375</AltitudeMeters>
            <DistanceMeters>NAN</DistanceMeters>
          </Trackpoint>
          <Trackpoint>
            <Time>2022-09-24T16:46:52.000Z</Time>
            <Position>
              <LatitudeDegrees>43.33410479128360748291015625</LatitudeDegrees>
              <LongitudeDegrees>-2.9343111813068389892578125</LongitudeDegrees>
            </Position>
            <AltitudeMeters>106.1999969482421875</AltitudeMeters>
            <DistanceMeters>NAN</DistanceMeters>
          </Trackpoint>
          <Trackpoint>
            <Time>2022-09-24T16:46:53.000Z</Time>
            <Position>
              <LatitudeDegrees>43.3340741135179996490478515625</LatitudeDegrees>
              <LongitudeDegrees>-2.9344669170677661895751953125</LongitudeDegrees>
            </Position>
            <AltitudeMeters>105.8000030517578125</AltitudeMeters>
            <DistanceMeters>NAN</DistanceMeters>
          </Trackpoint>
          <Trackpoint>
            <Time>2022-09-24T16:46:54.000Z</Time>
            <Position>
              <LatitudeDegrees>43.334037400782108306884765625</LatitudeDegrees>
              <LongitudeDegrees>-2.934620641171932220458984375</LongitudeDegrees>
            </Position>
            <AltitudeMeters>105.8000030517578125</AltitudeMeters>
            <DistanceMeters>NAN</DistanceMeters>
          </Trackpoint>
          <Trackpoint>
            <Time>2022-09-24T16:46:55.000Z</Time>
            <Position>
              <LatitudeDegrees>43.3339926414191722869873046875</LatitudeDegrees>
              <LongitudeDegrees>-2.934807725250720977783203125</LongitudeDegrees>
            </Position>
            <AltitudeMeters>104.59999847412109375</AltitudeMeters>
            <DistanceMeters>NAN</DistanceMeters>
          </Trackpoint>
          <Trackpoint>
            <Time>2022-09-24T16:46:56.000Z</Time>
            <Position>
              <LatitudeDegrees>43.33395198918879032135009765625</LatitudeDegrees>
              <LongitudeDegrees>-2.93496170081198215484619140625</LongitudeDegrees>
            </Position>
            <AltitudeMeters>104.40000152587890625</AltitudeMeters>
            <DistanceMeters>NAN</DistanceMeters>
          </Trackpoint>
          <Trackpoint>
            <Time>2022-09-24T16:46:57.000Z</Time>
            <Position>
              <LatitudeDegrees>43.3339161984622478485107421875</LatitudeDegrees>
              <LongitudeDegrees>-2.93508457951247692108154296875</LongitudeDegrees>
            </Position>
            <AltitudeMeters>104.40000152587890625</AltitudeMeters>
            <DistanceMeters>NAN</DistanceMeters>
          </Trackpoint>
          <Trackpoint>
            <Time>2022-09-24T16:46:58.000Z</Time>
            <Position>
              <LatitudeDegrees>43.33387034945189952850341796875</LatitudeDegrees>
              <LongitudeDegrees>-2.93523696251213550567626953125</LongitudeDegrees>
            </Position>
            <AltitudeMeters>104.40000152587890625</AltitudeMeters>
            <DistanceMeters>NAN</DistanceMeters>
          </Trackpoint>
          <Trackpoint>
            <Time>2022-09-24T16:46:59.000Z</Time>
            <Position>
              <LatitudeDegrees>43.333824165165424346923828125</LatitudeDegrees>
              <LongitudeDegrees>-2.93539571575820446014404296875</LongitudeDegrees>
            </Position>
            <AltitudeMeters>103.1999969482421875</AltitudeMeters>
            <DistanceMeters>NAN</DistanceMeters>
          </Trackpoint>
          <Trackpoint>
            <Time>2022-09-24T16:47:00.000Z</Time>
            <Position>
              <LatitudeDegrees>43.33375970833003520965576171875</LatitudeDegrees>
              <LongitudeDegrees>-2.9355900920927524566650390625</LongitudeDegrees>
            </Position>
            <AltitudeMeters>101.8000030517578125</AltitudeMeters>
            <DistanceMeters>NAN</DistanceMeters>
          </Trackpoint>
          <Trackpoint>
            <Time>2022-09-24T16:47:01.000Z</Time>
            <Position>
              <LatitudeDegrees>43.33370111882686614990234375</LatitudeDegrees>
              <LongitudeDegrees>-2.93574959971010684967041015625</LongitudeDegrees>
            </Position>
            <AltitudeMeters>101.40000152587890625</AltitudeMeters>
            <DistanceMeters>NAN</DistanceMeters>
          </Trackpoint>
          <Trackpoint>
            <Time>2022-09-24T16:47:02.000Z</Time>
            <Position>
              <LatitudeDegrees>43.33365443162620067596435546875</LatitudeDegrees>
              <LongitudeDegrees>-2.93586476705968379974365234375</LongitudeDegrees>
            </Position>
            <AltitudeMeters>101</AltitudeMeters>
            <DistanceMeters>NAN</DistanceMeters>
          </Trackpoint>
          <Trackpoint>
            <Time>2022-09-24T16:47:03.000Z</Time>
            <Position>
              <LatitudeDegrees>43.33357849158346652984619140625</LatitudeDegrees>
              <LongitudeDegrees>-2.93603944592177867889404296875</LongitudeDegrees>
            </Position>
            <AltitudeMeters>99.8000030517578125</AltitudeMeters>
            <DistanceMeters>NAN</DistanceMeters>
          </Trackpoint>
          <Trackpoint>
            <Time>2022-09-24T16:47:04.000Z</Time>
            <Position>
              <LatitudeDegrees>43.33352350629866123199462890625</LatitudeDegrees>
              <LongitudeDegrees>-2.9361590556800365447998046875</LongitudeDegrees>
            </Position>
            <AltitudeMeters>99.1999969482421875</AltitudeMeters>
            <DistanceMeters>NAN</DistanceMeters>
          </Trackpoint>
          <Trackpoint>
            <Time>2022-09-24T16:47:05.000Z</Time>
            <Position>
              <LatitudeDegrees>43.33345158956944942474365234375</LatitudeDegrees>
              <LongitudeDegrees>-2.9363075830042362213134765625</LongitudeDegrees>
            </Position>
            <AltitudeMeters>99</AltitudeMeters>
            <DistanceMeters>NAN</DistanceMeters>
          </Trackpoint>
          <Trackpoint>
            <Time>2022-09-24T16:47:06.000Z</Time>
            <Position>
              <LatitudeDegrees>43.33337254822254180908203125</LatitudeDegrees>
              <LongitudeDegrees>-2.93645485304296016693115234375</LongitudeDegrees>
            </Position>
            <AltitudeMeters>98.8000030517578125</AltitudeMeters>
            <DistanceMeters>NAN</DistanceMeters>
          </Trackpoint>
          <Trackpoint>
            <Time>2022-09-24T16:47:07.000Z</Time>
            <Position>
              <LatitudeDegrees>43.33329250104725360870361328125</LatitudeDegrees>
              <LongitudeDegrees>-2.93660153634846210479736328125</LongitudeDegrees>
            </Position>
            <AltitudeMeters>97.8000030517578125</AltitudeMeters>
            <DistanceMeters>NAN</DistanceMeters>
          </Trackpoint>
          <Trackpoint>
            <Time>2022-09-24T16:47:08.000Z</Time>
            <Position>
              <LatitudeDegrees>43.3331899903714656829833984375</LatitudeDegrees>
              <LongitudeDegrees>-2.9367680847644805908203125</LongitudeDegrees>
            </Position>
            <AltitudeMeters>96</AltitudeMeters>
            <DistanceMeters>NAN</DistanceMeters>
          </Trackpoint>
          <Trackpoint>
            <Time>2022-09-24T16:47:09.000Z</Time>
            <Position>
              <LatitudeDegrees>43.333096615970134735107421875</LatitudeDegrees>
              <LongitudeDegrees>-2.9368973337113857269287109375</LongitudeDegrees>
            </Position>
            <AltitudeMeters>93.1999969482421875</AltitudeMeters>
            <DistanceMeters>NAN</DistanceMeters>
          </Trackpoint>
          <Trackpoint>
            <Time>2022-09-24T16:47:10.000Z</Time>
            <Position>
              <LatitudeDegrees>43.332998044788837432861328125</LatitudeDegrees>
              <LongitudeDegrees>-2.9370294325053691864013671875</LongitudeDegrees>
            </Position>
            <AltitudeMeters>91</AltitudeMeters>
            <DistanceMeters>NAN</DistanceMeters>
          </Trackpoint>
          <Trackpoint>
            <Time>2022-09-24T16:47:11.000Z</Time>
            <Position>
              <LatitudeDegrees>43.33291447721421718597412109375</LatitudeDegrees>
              <LongitudeDegrees>-2.93713311664760112762451171875</LongitudeDegrees>
            </Position>
            <AltitudeMeters>90.40000152587890625</AltitudeMeters>
            <DistanceMeters>NAN</DistanceMeters>
          </Trackpoint>
          <Trackpoint>
            <Time>2022-09-24T16:47:12.000Z</Time>
            <Position>
              <LatitudeDegrees>43.33280920051038265228271484375</LatitudeDegrees>
              <LongitudeDegrees>-2.93725616298615932464599609375</LongitudeDegrees>
            </Position>
            <AltitudeMeters>88.59999847412109375</AltitudeMeters>
            <DistanceMeters>NAN</DistanceMeters>
          </Trackpoint>
          <Trackpoint>
            <Time>2022-09-24T16:47:13.000Z</Time>
            <Position>
              <LatitudeDegrees>43.3326776884496212005615234375</LatitudeDegrees>
              <LongitudeDegrees>-2.9374039359390735626220703125</LongitudeDegrees>
            </Position>
            <AltitudeMeters>88.40000152587890625</AltitudeMeters>
            <DistanceMeters>NAN</DistanceMeters>
          </Trackpoint>
          <Trackpoint>
            <Time>2022-09-24T16:47:14.000Z</Time>
            <Position>
              <LatitudeDegrees>43.33258557133376598358154296875</LatitudeDegrees>
              <LongitudeDegrees>-2.93749739415943622589111328125</LongitudeDegrees>
            </Position>
            <AltitudeMeters>88.40000152587890625</AltitudeMeters>
            <DistanceMeters>NAN</DistanceMeters>
          </Trackpoint>
          <Trackpoint>
            <Time>2022-09-24T16:47:15.000Z</Time>
            <Position>
              <LatitudeDegrees>43.3324684761464595794677734375</LatitudeDegrees>
              <LongitudeDegrees>-2.93761155568063259124755859375</LongitudeDegrees>
            </Position>
            <AltitudeMeters>88.1999969482421875</AltitudeMeters>
            <DistanceMeters>NAN</DistanceMeters>
          </Trackpoint>
          <Trackpoint>
            <Time>2022-09-24T16:47:16.000Z</Time>
            <Position>
              <LatitudeDegrees>43.33234526216983795166015625</LatitudeDegrees>
              <LongitudeDegrees>-2.937717251479625701904296875</LongitudeDegrees>
            </Position>
            <AltitudeMeters>87.59999847412109375</AltitudeMeters>
            <DistanceMeters>NAN</DistanceMeters>
          </Trackpoint>
          <Trackpoint>
            <Time>2022-09-24T16:47:17.000Z</Time>
            <Position>
              <LatitudeDegrees>43.33219145424664020538330078125</LatitudeDegrees>
              <LongitudeDegrees>-2.93783501721918582916259765625</LongitudeDegrees>
            </Position>
            <AltitudeMeters>86.59999847412109375</AltitudeMeters>
            <DistanceMeters>NAN</DistanceMeters>
          </Trackpoint>
          <Trackpoint>
            <Time>2022-09-24T16:47:18.000Z</Time>
            <Position>
              <LatitudeDegrees>43.3320852555334568023681640625</LatitudeDegrees>
              <LongitudeDegrees>-2.9379095323383808135986328125</LongitudeDegrees>
            </Position>
            <AltitudeMeters>84.59999847412109375</AltitudeMeters>
            <DistanceMeters>NAN</DistanceMeters>
          </Trackpoint>
          <Trackpoint>
            <Time>2022-09-24T16:47:19.000Z</Time>
            <Position>
              <LatitudeDegrees>43.33194888196885585784912109375</LatitudeDegrees>
              <LongitudeDegrees>-2.9379993863403797149658203125</LongitudeDegrees>
            </Position>
            <AltitudeMeters>84</AltitudeMeters>
            <DistanceMeters>NAN</DistanceMeters>
          </Trackpoint>
          <Trackpoint>
            <Time>2022-09-24T16:47:20.000Z</Time>
            <Position>
              <LatitudeDegrees>43.33178174681961536407470703125</LatitudeDegrees>
              <LongitudeDegrees>-2.93809686787426471710205078125</LongitudeDegrees>
            </Position>
            <AltitudeMeters>83.40000152587890625</AltitudeMeters>
            <DistanceMeters>NAN</DistanceMeters>
          </Trackpoint>
          <Trackpoint>
            <Time>2022-09-24T16:47:21.000Z</Time>
            <Position>
              <LatitudeDegrees>43.33166842348873615264892578125</LatitudeDegrees>
              <LongitudeDegrees>-2.938155792653560638427734375</LongitudeDegrees>
            </Position>
            <AltitudeMeters>83.1999969482421875</AltitudeMeters>
            <DistanceMeters>NAN</DistanceMeters>
          </Trackpoint>
          <Trackpoint>
            <Time>2022-09-24T16:47:22.000Z</Time>
            <Position>
              <LatitudeDegrees>43.33149441517889499664306640625</LatitudeDegrees>
              <LongitudeDegrees>-2.93824388645589351654052734375</LongitudeDegrees>
            </Position>
            <AltitudeMeters>81.8000030517578125</AltitudeMeters>
            <DistanceMeters>NAN</DistanceMeters>
          </Trackpoint>
          <Trackpoint>
            <Time>2022-09-24T16:47:23.000Z</Time>
            <Position>
              <LatitudeDegrees>43.3313513360917568206787109375</LatitudeDegrees>
              <LongitudeDegrees>-2.93830557726323604583740234375</LongitudeDegrees>
            </Position>
            <AltitudeMeters>80</AltitudeMeters>
            <DistanceMeters>NAN</DistanceMeters>
          </Trackpoint>
          <Trackpoint>
            <Time>2022-09-24T16:47:24.000Z</Time>
            <Position>
              <LatitudeDegrees>43.331231810152530670166015625</LatitudeDegrees>
              <LongitudeDegrees>-2.93834899552166461944580078125</LongitudeDegrees>
            </Position>
            <AltitudeMeters>79.8000030517578125</AltitudeMeters>
            <DistanceMeters>NAN</DistanceMeters>
          </Trackpoint>
          <Trackpoint>
            <Time>2022-09-24T16:47:25.000Z</Time>
            <Position>
              <LatitudeDegrees>43.33108864724636077880859375</LatitudeDegrees>
              <LongitudeDegrees>-2.93841068632900714874267578125</LongitudeDegrees>
            </Position>
            <AltitudeMeters>77.40000152587890625</AltitudeMeters>
            <DistanceMeters>NAN</DistanceMeters>
          </Trackpoint>
          <Trackpoint>
            <Time>2022-09-24T16:47:26.000Z</Time>
            <Position>
              <LatitudeDegrees>43.3309458196163177490234375</LatitudeDegrees>
              <LongitudeDegrees>-2.938474975526332855224609375</LongitudeDegrees>
            </Position>
            <AltitudeMeters>76.8000030517578125</AltitudeMeters>
            <DistanceMeters>NAN</DistanceMeters>
          </Trackpoint>
          <Trackpoint>
            <Time>2022-09-24T16:47:27.000Z</Time>
            <Position>
              <LatitudeDegrees>43.33080693148076534271240234375</LatitudeDegrees>
              <LongitudeDegrees>-2.93853943236172199249267578125</LongitudeDegrees>
            </Position>
            <AltitudeMeters>73</AltitudeMeters>
            <DistanceMeters>NAN</DistanceMeters>
          </Trackpoint>
          <Trackpoint>
            <Time>2022-09-24T16:47:28.000Z</Time>
            <Position>
              <LatitudeDegrees>43.3306677080690860748291015625</LatitudeDegrees>
              <LongitudeDegrees>-2.9385894723236560821533203125</LongitudeDegrees>
            </Position>
            <AltitudeMeters>73</AltitudeMeters>
            <DistanceMeters>NAN</DistanceMeters>
          </Trackpoint>
          <Trackpoint>
            <Time>2022-09-24T16:47:29.000Z</Time>
            <Position>
              <LatitudeDegrees>43.3305305801331996917724609375</LatitudeDegrees>
              <LongitudeDegrees>-2.9386389255523681640625</LongitudeDegrees>
            </Position>
            <AltitudeMeters>72.8000030517578125</AltitudeMeters>
            <DistanceMeters>NAN</DistanceMeters>
          </Trackpoint>
          <Trackpoint>
            <Time>2022-09-24T16:47:30.000Z</Time>
            <Position>
              <LatitudeDegrees>43.33039253018796443939208984375</LatitudeDegrees>
              <LongitudeDegrees>-2.93868360109627246856689453125</LongitudeDegrees>
            </Position>
            <AltitudeMeters>70.40000152587890625</AltitudeMeters>
            <DistanceMeters>NAN</DistanceMeters>
          </Trackpoint>
          <Trackpoint>
            <Time>2022-09-24T16:47:31.000Z</Time>
            <Position>
              <LatitudeDegrees>43.33025439642369747161865234375</LatitudeDegrees>
              <LongitudeDegrees>-2.93872433714568614959716796875</LongitudeDegrees>
            </Position>
            <AltitudeMeters>69.40000152587890625</AltitudeMeters>
            <DistanceMeters>NAN</DistanceMeters>
          </Trackpoint>
          <Trackpoint>
            <Time>2022-09-24T16:47:32.000Z</Time>
            <Position>
              <LatitudeDegrees>43.3301161788403987884521484375</LatitudeDegrees>
              <LongitudeDegrees>-2.93876389972865581512451171875</LongitudeDegrees>
            </Position>
            <AltitudeMeters>69.40000152587890625</AltitudeMeters>
            <DistanceMeters>NAN</DistanceMeters>
          </Trackpoint>
          <Trackpoint>
            <Time>2022-09-24T16:47:33.000Z</Time>
            <Position>
              <LatitudeDegrees>43.32994963042438030242919921875</LatitudeDegrees>
              <LongitudeDegrees>-2.93880857527256011962890625</LongitudeDegrees>
            </Position>
            <AltitudeMeters>69.40000152587890625</AltitudeMeters>
            <DistanceMeters>NAN</DistanceMeters>
          </Trackpoint>
          <Trackpoint>
            <Time>2022-09-24T16:47:34.000Z</Time>
            <Position>
              <LatitudeDegrees>43.32983915694057941436767578125</LatitudeDegrees>
              <LongitudeDegrees>-2.93883414007723331451416015625</LongitudeDegrees>
            </Position>
            <AltitudeMeters>70.40000152587890625</AltitudeMeters>
            <DistanceMeters>NAN</DistanceMeters>
          </Trackpoint>
          <Trackpoint>
            <Time>2022-09-24T16:47:35.000Z</Time>
            <Position>
              <LatitudeDegrees>43.3297039568424224853515625</LatitudeDegrees>
              <LongitudeDegrees>-2.93886129744350910186767578125</LongitudeDegrees>
            </Position>
            <AltitudeMeters>70.40000152587890625</AltitudeMeters>
            <DistanceMeters>NAN</DistanceMeters>
          </Trackpoint>
          <Trackpoint>
            <Time>2022-09-24T16:47:36.000Z</Time>
            <Position>
              <LatitudeDegrees>43.32956850528717041015625</LatitudeDegrees>
              <LongitudeDegrees>-2.9388818331062793731689453125</LongitudeDegrees>
            </Position>
            <AltitudeMeters>70.40000152587890625</AltitudeMeters>
            <DistanceMeters>NAN</DistanceMeters>
          </Trackpoint>
          <Trackpoint>
            <Time>2022-09-24T16:47:37.000Z</Time>
            <Position>
              <LatitudeDegrees>43.3294325508177280426025390625</LatitudeDegrees>
              <LongitudeDegrees>-2.9388935677707195281982421875</LongitudeDegrees>
            </Position>
            <AltitudeMeters>70.8000030517578125</AltitudeMeters>
            <DistanceMeters>NAN</DistanceMeters>
          </Trackpoint>
          <Trackpoint>
            <Time>2022-09-24T16:47:38.000Z</Time>
            <Position>
              <LatitudeDegrees>43.32927136681973934173583984375</LatitudeDegrees>
              <LongitudeDegrees>-2.938899435102939605712890625</LongitudeDegrees>
            </Position>
            <AltitudeMeters>71</AltitudeMeters>
            <DistanceMeters>NAN</DistanceMeters>
          </Trackpoint>
          <Trackpoint>
            <Time>2022-09-24T16:47:39.000Z</Time>
            <Position>
              <LatitudeDegrees>43.32914010621607303619384765625</LatitudeDegrees>
              <LongitudeDegrees>-2.93889440596103668212890625</LongitudeDegrees>
            </Position>
            <AltitudeMeters>74</AltitudeMeters>
            <DistanceMeters>NAN</DistanceMeters>
          </Trackpoint>
          <Trackpoint>
            <Time>2022-09-24T16:47:40.000Z</Time>
            <Position>
              <LatitudeDegrees>43.3290362544357776641845703125</LatitudeDegrees>
              <LongitudeDegrees>-2.93888392858207225799560546875</LongitudeDegrees>
            </Position>
            <AltitudeMeters>75</AltitudeMeters>
            <DistanceMeters>NAN</DistanceMeters>
          </Trackpoint>
          <Trackpoint>
            <Time>2022-09-24T16:47:41.000Z</Time>
            <Position>
              <LatitudeDegrees>43.3289073407649993896484375</LatitudeDegrees>
              <LongitudeDegrees>-2.93886096216738224029541015625</LongitudeDegrees>
            </Position>
            <AltitudeMeters>75.40000152587890625</AltitudeMeters>
            <DistanceMeters>NAN</DistanceMeters>
          </Trackpoint>
          <Trackpoint>
            <Time>2022-09-24T16:47:42.000Z</Time>
            <Position>
              <LatitudeDegrees>43.32875705324113368988037109375</LatitudeDegrees>
              <LongitudeDegrees>-2.938829027116298675537109375</LongitudeDegrees>
            </Position>
            <AltitudeMeters>75.40000152587890625</AltitudeMeters>
            <DistanceMeters>NAN</DistanceMeters>
          </Trackpoint>
          <Trackpoint>
            <Time>2022-09-24T16:47:43.000Z</Time>
            <Position>
              <LatitudeDegrees>43.328640460968017578125</LatitudeDegrees>
              <LongitudeDegrees>-2.9387960024178028106689453125</LongitudeDegrees>
            </Position>
            <AltitudeMeters>75.40000152587890625</AltitudeMeters>
            <DistanceMeters>NAN</DistanceMeters>
          </Trackpoint>
          <Trackpoint>
            <Time>2022-09-24T16:47:44.000Z</Time>
            <Position>
              <LatitudeDegrees>43.32855320535600185394287109375</LatitudeDegrees>
              <LongitudeDegrees>-2.938766665756702423095703125</LongitudeDegrees>
            </Position>
            <AltitudeMeters>75</AltitudeMeters>
            <DistanceMeters>NAN</DistanceMeters>
          </Trackpoint>
          <Trackpoint>
            <Time>2022-09-24T16:47:45.000Z</Time>
            <Position>
              <LatitudeDegrees>43.32845203578472137451171875</LatitudeDegrees>
              <LongitudeDegrees>-2.93872676789760589599609375</LongitudeDegrees>
            </Position>
            <AltitudeMeters>72.8000030517578125</AltitudeMeters>
            <DistanceMeters>NAN</DistanceMeters>
          </Trackpoint>
          <Trackpoint>
            <Time>2022-09-24T16:47:46.000Z</Time>
            <Position>
              <LatitudeDegrees>43.32834114320576190948486328125</LatitudeDegrees>
              <LongitudeDegrees>-2.9386763088405132293701171875</LongitudeDegrees>
            </Position>
            <AltitudeMeters>72</AltitudeMeters>
            <DistanceMeters>NAN</DistanceMeters>
          </Trackpoint>
          <Trackpoint>
            <Time>2022-09-24T16:47:47.000Z</Time>
            <Position>
              <LatitudeDegrees>43.32827308215200901031494140625</LatitudeDegrees>
              <LongitudeDegrees>-2.93863934464752674102783203125</LongitudeDegrees>
            </Position>
            <AltitudeMeters>71</AltitudeMeters>
            <DistanceMeters>NAN</DistanceMeters>
          </Trackpoint>
          <Trackpoint>
            <Time>2022-09-24T16:47:48.000Z</Time>
            <Position>
              <LatitudeDegrees>43.3281735889613628387451171875</LatitudeDegrees>
              <LongitudeDegrees>-2.93859056197106838226318359375</LongitudeDegrees>
            </Position>
            <AltitudeMeters>70.40000152587890625</AltitudeMeters>
            <DistanceMeters>NAN</DistanceMeters>
          </Trackpoint>
          <Trackpoint>
            <Time>2022-09-24T16:47:49.000Z</Time>
            <Position>
              <LatitudeDegrees>43.3281735889613628387451171875</LatitudeDegrees>
              <LongitudeDegrees>-2.93859056197106838226318359375</LongitudeDegrees>
            </Position>
            <AltitudeMeters>70</AltitudeMeters>
            <DistanceMeters>NAN</DistanceMeters>
          </Trackpoint>
          <Trackpoint>
            <Time>2022-09-24T16:47:50.000Z</Time>
            <Position>
              <LatitudeDegrees>43.328033275902271270751953125</LatitudeDegrees>
              <LongitudeDegrees>-2.93856055475771427154541015625</LongitudeDegrees>
            </Position>
            <AltitudeMeters>69.8000030517578125</AltitudeMeters>
            <DistanceMeters>NAN</DistanceMeters>
          </Trackpoint>
          <Trackpoint>
            <Time>2022-09-24T16:47:51.000Z</Time>
            <Position>
              <LatitudeDegrees>43.32794149406254291534423828125</LatitudeDegrees>
              <LongitudeDegrees>-2.9385733790695667266845703125</LongitudeDegrees>
            </Position>
            <AltitudeMeters>68.8000030517578125</AltitudeMeters>
            <DistanceMeters>NAN</DistanceMeters>
          </Trackpoint>
          <Trackpoint>
            <Time>2022-09-24T16:47:52.000Z</Time>
            <Position>
              <LatitudeDegrees>43.3278684876859188079833984375</LatitudeDegrees>
              <LongitudeDegrees>-2.93860875070095062255859375</LongitudeDegrees>
            </Position>
            <AltitudeMeters>68.8000030517578125</AltitudeMeters>
            <DistanceMeters>NAN</DistanceMeters>
          </Trackpoint>
          <Trackpoint>
            <Time>2022-09-24T16:47:53.000Z</Time>
            <Position>
              <LatitudeDegrees>43.327805288136005401611328125</LatitudeDegrees>
              <LongitudeDegrees>-2.9386659152805805206298828125</LongitudeDegrees>
            </Position>
            <AltitudeMeters>68.59999847412109375</AltitudeMeters>
            <DistanceMeters>NAN</DistanceMeters>
          </Trackpoint>
          <Trackpoint>
            <Time>2022-09-24T16:47:54.000Z</Time>
            <Position>
              <LatitudeDegrees>43.327763043344020843505859375</LatitudeDegrees>
              <LongitudeDegrees>-2.93872936628758907318115234375</LongitudeDegrees>
            </Position>
            <AltitudeMeters>68.59999847412109375</AltitudeMeters>
            <DistanceMeters>NAN</DistanceMeters>
          </Trackpoint>
          <Trackpoint>
            <Time>2022-09-24T16:47:55.000Z</Time>
            <Position>
              <LatitudeDegrees>43.327721469104290008544921875</LatitudeDegrees>
              <LongitudeDegrees>-2.9388241656124591827392578125</LongitudeDegrees>
            </Position>
            <AltitudeMeters>68.59999847412109375</AltitudeMeters>
            <DistanceMeters>NAN</DistanceMeters>
          </Trackpoint>
          <Trackpoint>
            <Time>2022-09-24T16:47:56.000Z</Time>
            <Position>
              <LatitudeDegrees>43.3276901207864284515380859375</LatitudeDegrees>
              <LongitudeDegrees>-2.938927598297595977783203125</LongitudeDegrees>
            </Position>
            <AltitudeMeters>68.40000152587890625</AltitudeMeters>
            <DistanceMeters>NAN</DistanceMeters>
          </Trackpoint>
          <Trackpoint>
            <Time>2022-09-24T16:47:57.000Z</Time>
            <Position>
              <LatitudeDegrees>43.32766824401915073394775390625</LatitudeDegrees>
              <LongitudeDegrees>-2.93903681449592113494873046875</LongitudeDegrees>
            </Position>
            <AltitudeMeters>67.8000030517578125</AltitudeMeters>
            <DistanceMeters>NAN</DistanceMeters>
          </Trackpoint>
          <Trackpoint>
            <Time>2022-09-24T16:47:58.000Z</Time>
            <Position>
              <LatitudeDegrees>43.3276493847370147705078125</LatitudeDegrees>
              <LongitudeDegrees>-2.939148209989070892333984375</LongitudeDegrees>
            </Position>
            <AltitudeMeters>67.8000030517578125</AltitudeMeters>
            <DistanceMeters>NAN</DistanceMeters>
          </Trackpoint>
          <Trackpoint>
            <Time>2022-09-24T16:47:59.000Z</Time>
            <Position>
              <LatitudeDegrees>43.3276297710835933685302734375</LatitudeDegrees>
              <LongitudeDegrees>-2.93927821330726146697998046875</LongitudeDegrees>
            </Position>
            <AltitudeMeters>66.59999847412109375</AltitudeMeters>
            <DistanceMeters>NAN</DistanceMeters>
          </Trackpoint>
          <Trackpoint>
            <Time>2022-09-24T16:48:00.000Z</Time>
            <Position>
              <LatitudeDegrees>43.32761962898075580596923828125</LatitudeDegrees>
              <LongitudeDegrees>-2.939365468919277191162109375</LongitudeDegrees>
            </Position>
            <AltitudeMeters>66.40000152587890625</AltitudeMeters>
            <DistanceMeters>NAN</DistanceMeters>
          </Trackpoint>
          <Trackpoint>
            <Time>2022-09-24T16:48:01.000Z</Time>
            <Position>
              <LatitudeDegrees>43.327609486877918243408203125</LatitudeDegrees>
              <LongitudeDegrees>-2.9394752718508243560791015625</LongitudeDegrees>
            </Position>
            <AltitudeMeters>66.1999969482421875</AltitudeMeters>
            <DistanceMeters>NAN</DistanceMeters>
          </Trackpoint>
          <Trackpoint>
            <Time>2022-09-24T16:48:02.000Z</Time>
            <Position>
              <LatitudeDegrees>43.32760043442249298095703125</LatitudeDegrees>
              <LongitudeDegrees>-2.93961164541542530059814453125</LongitudeDegrees>
            </Position>
            <AltitudeMeters>66.1999969482421875</AltitudeMeters>
            <DistanceMeters>NAN</DistanceMeters>
          </Trackpoint>
          <Trackpoint>
            <Time>2022-09-24T16:48:03.000Z</Time>
            <Position>
              <LatitudeDegrees>43.3275942318141460418701171875</LatitudeDegrees>
              <LongitudeDegrees>-2.93972429819405078887939453125</LongitudeDegrees>
            </Position>
            <AltitudeMeters>66</AltitudeMeters>
            <DistanceMeters>NAN</DistanceMeters>
          </Trackpoint>
          <Trackpoint>
            <Time>2022-09-24T16:48:04.000Z</Time>
            <Position>
              <LatitudeDegrees>43.32759045995771884918212890625</LatitudeDegrees>
              <LongitudeDegrees>-2.93983678333461284637451171875</LongitudeDegrees>
            </Position>
            <AltitudeMeters>66.1999969482421875</AltitudeMeters>
            <DistanceMeters>NAN</DistanceMeters>
          </Trackpoint>
          <Trackpoint>
            <Time>2022-09-24T16:48:05.000Z</Time>
            <Position>
              <LatitudeDegrees>43.32758526317775249481201171875</LatitudeDegrees>
              <LongitudeDegrees>-2.9399470053613185882568359375</LongitudeDegrees>
            </Position>
            <AltitudeMeters>66.1999969482421875</AltitudeMeters>
            <DistanceMeters>NAN</DistanceMeters>
          </Trackpoint>
          <Trackpoint>
            <Time>2022-09-24T16:48:06.000Z</Time>
            <Position>
              <LatitudeDegrees>43.3275841735303401947021484375</LatitudeDegrees>
              <LongitudeDegrees>-2.94005739502608776092529296875</LongitudeDegrees>
            </Position>
            <AltitudeMeters>66.1999969482421875</AltitudeMeters>
            <DistanceMeters>NAN</DistanceMeters>
          </Trackpoint>
          <Trackpoint>
            <Time>2022-09-24T16:48:07.000Z</Time>
            <Position>
              <LatitudeDegrees>43.327585346996784210205078125</LatitudeDegrees>
              <LongitudeDegrees>-2.94016485102474689483642578125</LongitudeDegrees>
            </Position>
            <AltitudeMeters>66.59999847412109375</AltitudeMeters>
            <DistanceMeters>NAN</DistanceMeters>
          </Trackpoint>
          <Trackpoint>
            <Time>2022-09-24T16:48:08.000Z</Time>
            <Position>
              <LatitudeDegrees>43.32758492790162563323974609375</LatitudeDegrees>
              <LongitudeDegrees>-2.940268032252788543701171875</LongitudeDegrees>
            </Position>
            <AltitudeMeters>66.8000030517578125</AltitudeMeters>
            <DistanceMeters>NAN</DistanceMeters>
          </Trackpoint>
          <Trackpoint>
            <Time>2022-09-24T16:48:09.000Z</Time>
            <Position>
              <LatitudeDegrees>43.32758140750229358673095703125</LatitudeDegrees>
              <LongitudeDegrees>-2.9403702914714813232421875</LongitudeDegrees>
            </Position>
            <AltitudeMeters>67</AltitudeMeters>
            <DistanceMeters>NAN</DistanceMeters>
          </Trackpoint>
          <Trackpoint>
            <Time>2022-09-24T16:48:10.000Z</Time>
            <Position>
              <LatitudeDegrees>43.32757755182683467864990234375</LatitudeDegrees>
              <LongitudeDegrees>-2.9404723830521106719970703125</LongitudeDegrees>
            </Position>
            <AltitudeMeters>67</AltitudeMeters>
            <DistanceMeters>NAN</DistanceMeters>
          </Trackpoint>
          <Trackpoint>
            <Time>2022-09-24T16:48:11.000Z</Time>
            <Position>
              <LatitudeDegrees>43.32757621072232723236083984375</LatitudeDegrees>
              <LongitudeDegrees>-2.94057405553758144378662109375</LongitudeDegrees>
            </Position>
            <AltitudeMeters>67</AltitudeMeters>
            <DistanceMeters>NAN</DistanceMeters>
          </Trackpoint>
          <Trackpoint>
            <Time>2022-09-24T16:48:12.000Z</Time>
            <Position>
              <LatitudeDegrees>43.32757721655070781707763671875</LatitudeDegrees>
              <LongitudeDegrees>-2.94067430309951305389404296875</LongitudeDegrees>
            </Position>
            <AltitudeMeters>67</AltitudeMeters>
            <DistanceMeters>NAN</DistanceMeters>
          </Trackpoint>
          <Trackpoint>
            <Time>2022-09-24T16:48:13.000Z</Time>
            <Position>
              <LatitudeDegrees>43.32757872529327869415283203125</LatitudeDegrees>
              <LongitudeDegrees>-2.94077597558498382568359375</LongitudeDegrees>
            </Position>
            <AltitudeMeters>67</AltitudeMeters>
            <DistanceMeters>NAN</DistanceMeters>
          </Trackpoint>
          <Trackpoint>
            <Time>2022-09-24T16:48:14.000Z</Time>
            <Position>
              <LatitudeDegrees>43.32757839001715183258056640625</LatitudeDegrees>
              <LongitudeDegrees>-2.94087580405175685882568359375</LongitudeDegrees>
            </Position>
            <AltitudeMeters>67</AltitudeMeters>
            <DistanceMeters>NAN</DistanceMeters>
          </Trackpoint>
          <Trackpoint>
            <Time>2022-09-24T16:48:15.000Z</Time>
            <Position>
              <LatitudeDegrees>43.32757470197975635528564453125</LatitudeDegrees>
              <LongitudeDegrees>-2.94097387231886386871337890625</LongitudeDegrees>
            </Position>
            <AltitudeMeters>67</AltitudeMeters>
            <DistanceMeters>NAN</DistanceMeters>
          </Trackpoint>
          <Trackpoint>
            <Time>2022-09-24T16:48:16.000Z</Time>
            <Position>
              <LatitudeDegrees>43.32757269032299518585205078125</LatitudeDegrees>
              <LongitudeDegrees>-2.94107277877628803253173828125</LongitudeDegrees>
            </Position>
            <AltitudeMeters>67.1999969482421875</AltitudeMeters>
            <DistanceMeters>NAN</DistanceMeters>
          </Trackpoint>
          <Trackpoint>
            <Time>2022-09-24T16:48:17.000Z</Time>
            <Position>
              <LatitudeDegrees>43.32756950519979000091552734375</LatitudeDegrees>
              <LongitudeDegrees>-2.94117319397628307342529296875</LongitudeDegrees>
            </Position>
            <AltitudeMeters>67.1999969482421875</AltitudeMeters>
            <DistanceMeters>NAN</DistanceMeters>
          </Trackpoint>
          <Trackpoint>
            <Time>2022-09-24T16:48:18.000Z</Time>
            <Position>
              <LatitudeDegrees>43.32756699062883853912353515625</LatitudeDegrees>
              <LongitudeDegrees>-2.941256426274776458740234375</LongitudeDegrees>
            </Position>
            <AltitudeMeters>67.8000030517578125</AltitudeMeters>
            <DistanceMeters>NAN</DistanceMeters>
          </Trackpoint>
          <Trackpoint>
            <Time>2022-09-24T16:48:19.000Z</Time>
            <Position>
              <LatitudeDegrees>43.3275674097239971160888671875</LatitudeDegrees>
              <LongitudeDegrees>-2.94138173572719097137451171875</LongitudeDegrees>
            </Position>
            <AltitudeMeters>67.8000030517578125</AltitudeMeters>
            <DistanceMeters>NAN</DistanceMeters>
          </Trackpoint>
          <Trackpoint>
            <Time>2022-09-24T16:48:20.000Z</Time>
            <Position>
              <LatitudeDegrees>43.3275640569627285003662109375</LatitudeDegrees>
              <LongitudeDegrees>-2.94148600660264492034912109375</LongitudeDegrees>
            </Position>
            <AltitudeMeters>67.8000030517578125</AltitudeMeters>
            <DistanceMeters>NAN</DistanceMeters>
          </Trackpoint>
          <Trackpoint>
            <Time>2022-09-24T16:48:21.000Z</Time>
            <Position>
              <LatitudeDegrees>43.3275603689253330230712890625</LatitudeDegrees>
              <LongitudeDegrees>-2.9415818117558956146240234375</LongitudeDegrees>
            </Position>
            <AltitudeMeters>66.8000030517578125</AltitudeMeters>
            <DistanceMeters>NAN</DistanceMeters>
          </Trackpoint>
          <Trackpoint>
            <Time>2022-09-24T16:48:22.000Z</Time>
            <Position>
              <LatitudeDegrees>43.32755274139344692230224609375</LatitudeDegrees>
              <LongitudeDegrees>-2.94168055057525634765625</LongitudeDegrees>
            </Position>
            <AltitudeMeters>67.40000152587890625</AltitudeMeters>
            <DistanceMeters>NAN</DistanceMeters>
          </Trackpoint>
          <Trackpoint>
            <Time>2022-09-24T16:48:23.000Z</Time>
            <Position>
              <LatitudeDegrees>43.32754670642316341400146484375</LatitudeDegrees>
              <LongitudeDegrees>-2.941756658256053924560546875</LongitudeDegrees>
            </Position>
            <AltitudeMeters>67.40000152587890625</AltitudeMeters>
            <DistanceMeters>NAN</DistanceMeters>
          </Trackpoint>
          <Trackpoint>
            <Time>2022-09-24T16:48:24.000Z</Time>
            <Position>
              <LatitudeDegrees>43.32753731869161128997802734375</LatitudeDegrees>
              <LongitudeDegrees>-2.94187660329043865203857421875</LongitudeDegrees>
            </Position>
            <AltitudeMeters>66.59999847412109375</AltitudeMeters>
            <DistanceMeters>NAN</DistanceMeters>
          </Trackpoint>
          <Trackpoint>
            <Time>2022-09-24T16:48:25.000Z</Time>
            <Position>
              <LatitudeDegrees>43.3275335468351840972900390625</LatitudeDegrees>
              <LongitudeDegrees>-2.9419720731675624847412109375</LongitudeDegrees>
            </Position>
            <AltitudeMeters>66.59999847412109375</AltitudeMeters>
            <DistanceMeters>NAN</DistanceMeters>
          </Trackpoint>
          <Trackpoint>
            <Time>2022-09-24T16:48:26.000Z</Time>
            <Position>
              <LatitudeDegrees>43.32752139307558536529541015625</LatitudeDegrees>
              <LongitudeDegrees>-2.9420681297779083251953125</LongitudeDegrees>
            </Position>
            <AltitudeMeters>66.59999847412109375</AltitudeMeters>
            <DistanceMeters>NAN</DistanceMeters>
          </Trackpoint>
          <Trackpoint>
            <Time>2022-09-24T16:48:27.000Z</Time>
            <Position>
              <LatitudeDegrees>43.32750814966857433319091796875</LatitudeDegrees>
              <LongitudeDegrees>-2.94216427020728588104248046875</LongitudeDegrees>
            </Position>
            <AltitudeMeters>66.59999847412109375</AltitudeMeters>
            <DistanceMeters>NAN</DistanceMeters>
          </Trackpoint>
          <Trackpoint>
            <Time>2022-09-24T16:48:28.000Z</Time>
            <Position>
              <LatitudeDegrees>43.3274983428418636322021484375</LatitudeDegrees>
              <LongitudeDegrees>-2.94225923717021942138671875</LongitudeDegrees>
            </Position>
            <AltitudeMeters>66.8000030517578125</AltitudeMeters>
            <DistanceMeters>NAN</DistanceMeters>
          </Trackpoint>
          <Trackpoint>
            <Time>2022-09-24T16:48:29.000Z</Time>
            <Position>
              <LatitudeDegrees>43.32748518325388431549072265625</LatitudeDegrees>
              <LongitudeDegrees>-2.94235520996153354644775390625</LongitudeDegrees>
            </Position>
            <AltitudeMeters>66.8000030517578125</AltitudeMeters>
            <DistanceMeters>NAN</DistanceMeters>
          </Trackpoint>
          <Trackpoint>
            <Time>2022-09-24T16:48:30.000Z</Time>
            <Position>
              <LatitudeDegrees>43.32747177220880985260009765625</LatitudeDegrees>
              <LongitudeDegrees>-2.94245495460927486419677734375</LongitudeDegrees>
            </Position>
            <AltitudeMeters>66.8000030517578125</AltitudeMeters>
            <DistanceMeters>NAN</DistanceMeters>
          </Trackpoint>
          <Trackpoint>
            <Time>2022-09-24T16:48:31.000Z</Time>
            <Position>
              <LatitudeDegrees>43.32745936699211597442626953125</LatitudeDegrees>
              <LongitudeDegrees>-2.9425567947328090667724609375</LongitudeDegrees>
            </Position>
            <AltitudeMeters>66.8000030517578125</AltitudeMeters>
            <DistanceMeters>NAN</DistanceMeters>
          </Trackpoint>
          <Trackpoint>
            <Time>2022-09-24T16:48:32.000Z</Time>
            <Position>
              <LatitudeDegrees>43.3274436928331851959228515625</LatitudeDegrees>
              <LongitudeDegrees>-2.94265528209507465362548828125</LongitudeDegrees>
            </Position>
            <AltitudeMeters>66.8000030517578125</AltitudeMeters>
            <DistanceMeters>NAN</DistanceMeters>
          </Trackpoint>
          <Trackpoint>
            <Time>2022-09-24T16:48:33.000Z</Time>
            <Position>
              <LatitudeDegrees>43.32743011415004730224609375</LatitudeDegrees>
              <LongitudeDegrees>-2.94275167398154735565185546875</LongitudeDegrees>
            </Position>
            <AltitudeMeters>67.40000152587890625</AltitudeMeters>
            <DistanceMeters>NAN</DistanceMeters>
          </Trackpoint>
          <Trackpoint>
            <Time>2022-09-24T16:48:34.000Z</Time>
            <Position>
              <LatitudeDegrees>43.3274212293326854705810546875</LatitudeDegrees>
              <LongitudeDegrees>-2.94285468757152557373046875</LongitudeDegrees>
            </Position>
            <AltitudeMeters>68.1999969482421875</AltitudeMeters>
            <DistanceMeters>NAN</DistanceMeters>
          </Trackpoint>
          <Trackpoint>
            <Time>2022-09-24T16:48:35.000Z</Time>
            <Position>
              <LatitudeDegrees>43.32741402089595794677734375</LatitudeDegrees>
              <LongitudeDegrees>-2.94296004809439182281494140625</LongitudeDegrees>
            </Position>
            <AltitudeMeters>68.1999969482421875</AltitudeMeters>
            <DistanceMeters>NAN</DistanceMeters>
          </Trackpoint>
          <Trackpoint>
            <Time>2022-09-24T16:48:36.000Z</Time>
            <Position>
              <LatitudeDegrees>43.3274004422128200531005859375</LatitudeDegrees>
              <LongitudeDegrees>-2.94306448660790920257568359375</LongitudeDegrees>
            </Position>
            <AltitudeMeters>68.1999969482421875</AltitudeMeters>
            <DistanceMeters>NAN</DistanceMeters>
          </Trackpoint>
          <Trackpoint>
            <Time>2022-09-24T16:48:37.000Z</Time>
            <Position>
              <LatitudeDegrees>43.3273840136826038360595703125</LatitudeDegrees>
              <LongitudeDegrees>-2.94316641055047512054443359375</LongitudeDegrees>
            </Position>
            <AltitudeMeters>67.8000030517578125</AltitudeMeters>
            <DistanceMeters>NAN</DistanceMeters>
          </Trackpoint>
          <Trackpoint>
            <Time>2022-09-24T16:48:38.000Z</Time>
            <Position>
              <LatitudeDegrees>43.3273650705814361572265625</LatitudeDegrees>
              <LongitudeDegrees>-2.9432705976068973541259765625</LongitudeDegrees>
            </Position>
            <AltitudeMeters>67.8000030517578125</AltitudeMeters>
            <DistanceMeters>NAN</DistanceMeters>
          </Trackpoint>
          <Trackpoint>
            <Time>2022-09-24T16:48:39.000Z</Time>
            <Position>
              <LatitudeDegrees>43.3273431099951267242431640625</LatitudeDegrees>
              <LongitudeDegrees>-2.9433743655681610107421875</LongitudeDegrees>
            </Position>
            <AltitudeMeters>67.8000030517578125</AltitudeMeters>
            <DistanceMeters>NAN</DistanceMeters>
          </Trackpoint>
          <Trackpoint>
            <Time>2022-09-24T16:48:40.000Z</Time>
            <Position>
              <LatitudeDegrees>43.327319137752056121826171875</LatitudeDegrees>
              <LongitudeDegrees>-2.94347704388201236724853515625</LongitudeDegrees>
            </Position>
            <AltitudeMeters>67.8000030517578125</AltitudeMeters>
            <DistanceMeters>NAN</DistanceMeters>
          </Trackpoint>
          <Trackpoint>
            <Time>2022-09-24T16:48:41.000Z</Time>
            <Position>
              <LatitudeDegrees>43.327319137752056121826171875</LatitudeDegrees>
              <LongitudeDegrees>-2.94347704388201236724853515625</LongitudeDegrees>
            </Position>
            <AltitudeMeters>67.8000030517578125</AltitudeMeters>
            <DistanceMeters>NAN</DistanceMeters>
          </Trackpoint>
          <Trackpoint>
            <Time>2022-09-24T16:48:42.000Z</Time>
            <Position>
              <LatitudeDegrees>43.3272685110569000244140625</LatitudeDegrees>
              <LongitudeDegrees>-2.94366337358951568603515625</LongitudeDegrees>
            </Position>
            <AltitudeMeters>67.8000030517578125</AltitudeMeters>
            <DistanceMeters>NAN</DistanceMeters>
          </Trackpoint>
          <Trackpoint>
            <Time>2022-09-24T16:48:43.000Z</Time>
            <Position>
              <LatitudeDegrees>43.32723255269229412078857421875</LatitudeDegrees>
              <LongitudeDegrees>-2.9437909461557865142822265625</LongitudeDegrees>
            </Position>
            <AltitudeMeters>67.59999847412109375</AltitudeMeters>
            <DistanceMeters>NAN</DistanceMeters>
          </Trackpoint>
          <Trackpoint>
            <Time>2022-09-24T16:48:44.000Z</Time>
            <Position>
              <LatitudeDegrees>43.3271972648799419403076171875</LatitudeDegrees>
              <LongitudeDegrees>-2.94390133582055568695068359375</LongitudeDegrees>
            </Position>
            <AltitudeMeters>67.40000152587890625</AltitudeMeters>
            <DistanceMeters>NAN</DistanceMeters>
          </Trackpoint>
          <Trackpoint>
            <Time>2022-09-24T16:48:45.000Z</Time>
            <Position>
              <LatitudeDegrees>43.32715879194438457489013671875</LatitudeDegrees>
              <LongitudeDegrees>-2.94400694780051708221435546875</LongitudeDegrees>
            </Position>
            <AltitudeMeters>67.1999969482421875</AltitudeMeters>
            <DistanceMeters>NAN</DistanceMeters>
          </Trackpoint>
          <Trackpoint>
            <Time>2022-09-24T16:48:46.000Z</Time>
            <Position>
              <LatitudeDegrees>43.32712358795106410980224609375</LatitudeDegrees>
              <LongitudeDegrees>-2.944117002189159393310546875</LongitudeDegrees>
            </Position>
            <AltitudeMeters>67</AltitudeMeters>
            <DistanceMeters>NAN</DistanceMeters>
          </Trackpoint>
          <Trackpoint>
            <Time>2022-09-24T16:48:47.000Z</Time>
            <Position>
              <LatitudeDegrees>43.32709341309964656829833984375</LatitudeDegrees>
              <LongitudeDegrees>-2.94423728249967098236083984375</LongitudeDegrees>
            </Position>
            <AltitudeMeters>66.8000030517578125</AltitudeMeters>
            <DistanceMeters>NAN</DistanceMeters>
          </Trackpoint>
          <Trackpoint>
            <Time>2022-09-24T16:48:48.000Z</Time>
            <Position>
              <LatitudeDegrees>43.3270725421607494354248046875</LatitudeDegrees>
              <LongitudeDegrees>-2.94436083175241947174072265625</LongitudeDegrees>
            </Position>
            <AltitudeMeters>66.59999847412109375</AltitudeMeters>
            <DistanceMeters>NAN</DistanceMeters>
          </Trackpoint>
          <Trackpoint>
            <Time>2022-09-24T16:48:49.000Z</Time>
            <Position>
              <LatitudeDegrees>43.3270537666976451873779296875</LatitudeDegrees>
              <LongitudeDegrees>-2.94448588974773883819580078125</LongitudeDegrees>
            </Position>
            <AltitudeMeters>66.1999969482421875</AltitudeMeters>
            <DistanceMeters>NAN</DistanceMeters>
          </Trackpoint>
          <Trackpoint>
            <Time>2022-09-24T16:48:50.000Z</Time>
            <Position>
              <LatitudeDegrees>43.32704161293804645538330078125</LatitudeDegrees>
              <LongitudeDegrees>-2.94462033547461032867431640625</LongitudeDegrees>
            </Position>
            <AltitudeMeters>65.40000152587890625</AltitudeMeters>
            <DistanceMeters>NAN</DistanceMeters>
          </Trackpoint>
          <Trackpoint>
            <Time>2022-09-24T16:48:51.000Z</Time>
            <Position>
              <LatitudeDegrees>43.3270376734435558319091796875</LatitudeDegrees>
              <LongitudeDegrees>-2.94475545175373554229736328125</LongitudeDegrees>
            </Position>
            <AltitudeMeters>64.59999847412109375</AltitudeMeters>
            <DistanceMeters>NAN</DistanceMeters>
          </Trackpoint>
          <Trackpoint>
            <Time>2022-09-24T16:48:52.000Z</Time>
            <Position>
              <LatitudeDegrees>43.32704119384288787841796875</LatitudeDegrees>
              <LongitudeDegrees>-2.944891154766082763671875</LongitudeDegrees>
            </Position>
            <AltitudeMeters>63.799999237060546875</AltitudeMeters>
            <DistanceMeters>NAN</DistanceMeters>
          </Trackpoint>
          <Trackpoint>
            <Time>2022-09-24T16:48:53.000Z</Time>
            <Position>
              <LatitudeDegrees>43.327052257955074310302734375</LatitudeDegrees>
              <LongitudeDegrees>-2.94502635486423969268798828125</LongitudeDegrees>
            </Position>
            <AltitudeMeters>63.799999237060546875</AltitudeMeters>
            <DistanceMeters>NAN</DistanceMeters>
          </Trackpoint>
          <Trackpoint>
            <Time>2022-09-24T16:48:54.000Z</Time>
            <Position>
              <LatitudeDegrees>43.32706793211400508880615234375</LatitudeDegrees>
              <LongitudeDegrees>-2.94516499154269695281982421875</LongitudeDegrees>
            </Position>
            <AltitudeMeters>63.40000152587890625</AltitudeMeters>
            <DistanceMeters>NAN</DistanceMeters>
          </Trackpoint>
          <Trackpoint>
            <Time>2022-09-24T16:48:55.000Z</Time>
            <Position>
              <LatitudeDegrees>43.327085785567760467529296875</LatitudeDegrees>
              <LongitudeDegrees>-2.9453090764582157135009765625</LongitudeDegrees>
            </Position>
            <AltitudeMeters>63.40000152587890625</AltitudeMeters>
            <DistanceMeters>NAN</DistanceMeters>
          </Trackpoint>
          <Trackpoint>
            <Time>2022-09-24T16:48:56.000Z</Time>
            <Position>
              <LatitudeDegrees>43.3271057344973087310791015625</LatitudeDegrees>
              <LongitudeDegrees>-2.94545651413500308990478515625</LongitudeDegrees>
            </Position>
            <AltitudeMeters>62.200000762939453125</AltitudeMeters>
            <DistanceMeters>NAN</DistanceMeters>
          </Trackpoint>
          <Trackpoint>
            <Time>2022-09-24T16:48:57.000Z</Time>
            <Position>
              <LatitudeDegrees>43.327130377292633056640625</LatitudeDegrees>
              <LongitudeDegrees>-2.94560487382113933563232421875</LongitudeDegrees>
            </Position>
            <AltitudeMeters>61.799999237060546875</AltitudeMeters>
            <DistanceMeters>NAN</DistanceMeters>
          </Trackpoint>
          <Trackpoint>
            <Time>2022-09-24T16:48:58.000Z</Time>
            <Position>
              <LatitudeDegrees>43.32715359516441822052001953125</LatitudeDegrees>
              <LongitudeDegrees>-2.94571752659976482391357421875</LongitudeDegrees>
            </Position>
            <AltitudeMeters>61.59999847412109375</AltitudeMeters>
            <DistanceMeters>NAN</DistanceMeters>
          </Trackpoint>
          <Trackpoint>
            <Time>2022-09-24T16:48:59.000Z</Time>
            <Position>
              <LatitudeDegrees>43.3271845243871212005615234375</LatitudeDegrees>
              <LongitudeDegrees>-2.94585700146853923797607421875</LongitudeDegrees>
            </Position>
            <AltitudeMeters>61.59999847412109375</AltitudeMeters>
            <DistanceMeters>NAN</DistanceMeters>
          </Trackpoint>
          <Trackpoint>
            <Time>2022-09-24T16:49:00.000Z</Time>
            <Position>
              <LatitudeDegrees>43.32722065038979053497314453125</LatitudeDegrees>
              <LongitudeDegrees>-2.9459906928241252899169921875</LongitudeDegrees>
            </Position>
            <AltitudeMeters>61</AltitudeMeters>
            <DistanceMeters>NAN</DistanceMeters>
          </Trackpoint>
          <Trackpoint>
            <Time>2022-09-24T16:49:01.000Z</Time>
            <Position>
              <LatitudeDegrees>43.3272579498589038848876953125</LatitudeDegrees>
              <LongitudeDegrees>-2.94612572528421878814697265625</LongitudeDegrees>
            </Position>
            <AltitudeMeters>60.799999237060546875</AltitudeMeters>
            <DistanceMeters>NAN</DistanceMeters>
          </Trackpoint>
          <Trackpoint>
            <Time>2022-09-24T16:49:02.000Z</Time>
            <Position>
              <LatitudeDegrees>43.32729374058544635772705078125</LatitudeDegrees>
              <LongitudeDegrees>-2.9462629370391368865966796875</LongitudeDegrees>
            </Position>
            <AltitudeMeters>60.40000152587890625</AltitudeMeters>
            <DistanceMeters>NAN</DistanceMeters>
          </Trackpoint>
          <Trackpoint>
            <Time>2022-09-24T16:49:03.000Z</Time>
            <Position>
              <LatitudeDegrees>43.32733414135873317718505859375</LatitudeDegrees>
              <LongitudeDegrees>-2.946429736912250518798828125</LongitudeDegrees>
            </Position>
            <AltitudeMeters>59.40000152587890625</AltitudeMeters>
            <DistanceMeters>NAN</DistanceMeters>
          </Trackpoint>
          <Trackpoint>
            <Time>2022-09-24T16:49:04.000Z</Time>
            <Position>
              <LatitudeDegrees>43.32735995762050151824951171875</LatitudeDegrees>
              <LongitudeDegrees>-2.9465402103960514068603515625</LongitudeDegrees>
            </Position>
            <AltitudeMeters>59.200000762939453125</AltitudeMeters>
            <DistanceMeters>NAN</DistanceMeters>
          </Trackpoint>
          <Trackpoint>
            <Time>2022-09-24T16:49:05.000Z</Time>
            <Position>
              <LatitudeDegrees>43.32739449106156826019287109375</LatitudeDegrees>
              <LongitudeDegrees>-2.9466749913990497589111328125</LongitudeDegrees>
            </Position>
            <AltitudeMeters>59.200000762939453125</AltitudeMeters>
            <DistanceMeters>NAN</DistanceMeters>
          </Trackpoint>
          <Trackpoint>
            <Time>2022-09-24T16:49:06.000Z</Time>
            <Position>
              <LatitudeDegrees>43.3274279348552227020263671875</LatitudeDegrees>
              <LongitudeDegrees>-2.94680952094495296478271484375</LongitudeDegrees>
            </Position>
            <AltitudeMeters>59.200000762939453125</AltitudeMeters>
            <DistanceMeters>NAN</DistanceMeters>
          </Trackpoint>
          <Trackpoint>
            <Time>2022-09-24T16:49:07.000Z</Time>
            <Position>
              <LatitudeDegrees>43.3274279348552227020263671875</LatitudeDegrees>
              <LongitudeDegrees>-2.94680952094495296478271484375</LongitudeDegrees>
            </Position>
            <AltitudeMeters>59.200000762939453125</AltitudeMeters>
            <DistanceMeters>NAN</DistanceMeters>
          </Trackpoint>
          <Trackpoint>
            <Time>2022-09-24T16:49:08.000Z</Time>
            <Position>
              <LatitudeDegrees>43.32748711109161376953125</LatitudeDegrees>
              <LongitudeDegrees>-2.9470672644674777984619140625</LongitudeDegrees>
            </Position>
            <AltitudeMeters>59.200000762939453125</AltitudeMeters>
            <DistanceMeters>NAN</DistanceMeters>
          </Trackpoint>
          <Trackpoint>
            <Time>2022-09-24T16:49:09.000Z</Time>
            <Position>
              <LatitudeDegrees>43.3275181241333484649658203125</LatitudeDegrees>
              <LongitudeDegrees>-2.9471963457763195037841796875</LongitudeDegrees>
            </Position>
            <AltitudeMeters>59.200000762939453125</AltitudeMeters>
            <DistanceMeters>NAN</DistanceMeters>
          </Trackpoint>
          <Trackpoint>
            <Time>2022-09-24T16:49:10.000Z</Time>
            <Position>
              <LatitudeDegrees>43.32755190320312976837158203125</LatitudeDegrees>
              <LongitudeDegrees>-2.9473488964140415191650390625</LongitudeDegrees>
            </Position>
            <AltitudeMeters>58.59999847412109375</AltitudeMeters>
            <DistanceMeters>NAN</DistanceMeters>
          </Trackpoint>
          <Trackpoint>
            <Time>2022-09-24T16:49:11.000Z</Time>
            <Position>
              <LatitudeDegrees>43.327575288712978363037109375</LatitudeDegrees>
              <LongitudeDegrees>-2.94745601713657379150390625</LongitudeDegrees>
            </Position>
            <AltitudeMeters>58.59999847412109375</AltitudeMeters>
            <DistanceMeters>NAN</DistanceMeters>
          </Trackpoint>
          <Trackpoint>
            <Time>2022-09-24T16:49:12.000Z</Time>
            <Position>
              <LatitudeDegrees>43.327605463564395904541015625</LatitudeDegrees>
              <LongitudeDegrees>-2.9475866071879863739013671875</LongitudeDegrees>
            </Position>
            <AltitudeMeters>58.799999237060546875</AltitudeMeters>
            <DistanceMeters>NAN</DistanceMeters>
          </Trackpoint>
          <Trackpoint>
            <Time>2022-09-24T16:49:13.000Z</Time>
            <Position>
              <LatitudeDegrees>43.32764142192900180816650390625</LatitudeDegrees>
              <LongitudeDegrees>-2.94773706234991550445556640625</LongitudeDegrees>
            </Position>
            <AltitudeMeters>58.799999237060546875</AltitudeMeters>
            <DistanceMeters>NAN</DistanceMeters>
          </Trackpoint>
          <Trackpoint>
            <Time>2022-09-24T16:49:14.000Z</Time>
            <Position>
              <LatitudeDegrees>43.3276736922562122344970703125</LatitudeDegrees>
              <LongitudeDegrees>-2.94785742647945880889892578125</LongitudeDegrees>
            </Position>
            <AltitudeMeters>58.799999237060546875</AltitudeMeters>
            <DistanceMeters>NAN</DistanceMeters>
          </Trackpoint>
          <Trackpoint>
            <Time>2022-09-24T16:49:15.000Z</Time>
            <Position>
              <LatitudeDegrees>43.3277008496224880218505859375</LatitudeDegrees>
              <LongitudeDegrees>-2.94795465655624866485595703125</LongitudeDegrees>
            </Position>
            <AltitudeMeters>58.799999237060546875</AltitudeMeters>
            <DistanceMeters>NAN</DistanceMeters>
          </Trackpoint>
          <Trackpoint>
            <Time>2022-09-24T16:49:16.000Z</Time>
            <Position>
              <LatitudeDegrees>43.32773387432098388671875</LatitudeDegrees>
              <LongitudeDegrees>-2.9480767808854579925537109375</LongitudeDegrees>
            </Position>
            <AltitudeMeters>58.799999237060546875</AltitudeMeters>
            <DistanceMeters>NAN</DistanceMeters>
          </Trackpoint>
          <Trackpoint>
            <Time>2022-09-24T16:49:17.000Z</Time>
            <Position>
              <LatitudeDegrees>43.32777033559978008270263671875</LatitudeDegrees>
              <LongitudeDegrees>-2.948221452534198760986328125</LongitudeDegrees>
            </Position>
            <AltitudeMeters>58.799999237060546875</AltitudeMeters>
            <DistanceMeters>NAN</DistanceMeters>
          </Trackpoint>
          <Trackpoint>
            <Time>2022-09-24T16:49:18.000Z</Time>
            <Position>
              <LatitudeDegrees>43.32780034281313419342041015625</LatitudeDegrees>
              <LongitudeDegrees>-2.9483403079211711883544921875</LongitudeDegrees>
            </Position>
            <AltitudeMeters>58.799999237060546875</AltitudeMeters>
            <DistanceMeters>NAN</DistanceMeters>
          </Trackpoint>
          <Trackpoint>
            <Time>2022-09-24T16:49:19.000Z</Time>
            <Position>
              <LatitudeDegrees>43.3278235606849193572998046875</LatitudeDegrees>
              <LongitudeDegrees>-2.9484372027218341827392578125</LongitudeDegrees>
            </Position>
            <AltitudeMeters>59.40000152587890625</AltitudeMeters>
            <DistanceMeters>NAN</DistanceMeters>
          </Trackpoint>
          <Trackpoint>
            <Time>2022-09-24T16:49:20.000Z</Time>
            <Position>
              <LatitudeDegrees>43.32785348407924175262451171875</LatitudeDegrees>
              <LongitudeDegrees>-2.948556728661060333251953125</LongitudeDegrees>
            </Position>
            <AltitudeMeters>59.40000152587890625</AltitudeMeters>
            <DistanceMeters>NAN</DistanceMeters>
          </Trackpoint>
          <Trackpoint>
            <Time>2022-09-24T16:49:21.000Z</Time>
            <Position>
              <LatitudeDegrees>43.32788332365453243255615234375</LatitudeDegrees>
              <LongitudeDegrees>-2.94867298565804958343505859375</LongitudeDegrees>
            </Position>
            <AltitudeMeters>59.40000152587890625</AltitudeMeters>
            <DistanceMeters>NAN</DistanceMeters>
          </Trackpoint>
          <Trackpoint>
            <Time>2022-09-24T16:49:22.000Z</Time>
            <Position>
              <LatitudeDegrees>43.3279090560972690582275390625</LatitudeDegrees>
              <LongitudeDegrees>-2.94878748245537281036376953125</LongitudeDegrees>
            </Position>
            <AltitudeMeters>59.40000152587890625</AltitudeMeters>
            <DistanceMeters>NAN</DistanceMeters>
          </Trackpoint>
          <Trackpoint>
            <Time>2022-09-24T16:49:23.000Z</Time>
            <Position>
              <LatitudeDegrees>43.3279345370829105377197265625</LatitudeDegrees>
              <LongitudeDegrees>-2.94890197925269603729248046875</LongitudeDegrees>
            </Position>
            <AltitudeMeters>59.40000152587890625</AltitudeMeters>
            <DistanceMeters>NAN</DistanceMeters>
          </Trackpoint>
          <Trackpoint>
            <Time>2022-09-24T16:49:24.000Z</Time>
            <Position>
              <LatitudeDegrees>43.32795825786888599395751953125</LatitudeDegrees>
              <LongitudeDegrees>-2.949017398059368133544921875</LongitudeDegrees>
            </Position>
            <AltitudeMeters>59.40000152587890625</AltitudeMeters>
            <DistanceMeters>NAN</DistanceMeters>
          </Trackpoint>
          <Trackpoint>
            <Time>2022-09-24T16:49:25.000Z</Time>
            <Position>
              <LatitudeDegrees>43.32797904498875141143798828125</LatitudeDegrees>
              <LongitudeDegrees>-2.9491369239985942840576171875</LongitudeDegrees>
            </Position>
            <AltitudeMeters>59.59999847412109375</AltitudeMeters>
            <DistanceMeters>NAN</DistanceMeters>
          </Trackpoint>
          <Trackpoint>
            <Time>2022-09-24T16:49:26.000Z</Time>
            <Position>
              <LatitudeDegrees>43.32800016738474369049072265625</LatitudeDegrees>
              <LongitudeDegrees>-2.94925888068974018096923828125</LongitudeDegrees>
            </Position>
            <AltitudeMeters>59.799999237060546875</AltitudeMeters>
            <DistanceMeters>NAN</DistanceMeters>
          </Trackpoint>
          <Trackpoint>
            <Time>2022-09-24T16:49:27.000Z</Time>
            <Position>
              <LatitudeDegrees>43.3280190266668796539306640625</LatitudeDegrees>
              <LongitudeDegrees>-2.94938360340893268585205078125</LongitudeDegrees>
            </Position>
            <AltitudeMeters>60</AltitudeMeters>
            <DistanceMeters>NAN</DistanceMeters>
          </Trackpoint>
          <Trackpoint>
            <Time>2022-09-24T16:49:28.000Z</Time>
            <Position>
              <LatitudeDegrees>43.328036628663539886474609375</LatitudeDegrees>
              <LongitudeDegrees>-2.94950664974749088287353515625</LongitudeDegrees>
            </Position>
            <AltitudeMeters>59.799999237060546875</AltitudeMeters>
            <DistanceMeters>NAN</DistanceMeters>
          </Trackpoint>
          <Trackpoint>
            <Time>2022-09-24T16:49:29.000Z</Time>
            <Position>
              <LatitudeDegrees>43.328036628663539886474609375</LatitudeDegrees>
              <LongitudeDegrees>-2.94950664974749088287353515625</LongitudeDegrees>
            </Position>
            <AltitudeMeters>59.799999237060546875</AltitudeMeters>
            <DistanceMeters>NAN</DistanceMeters>
          </Trackpoint>
          <Trackpoint>
            <Time>2022-09-24T16:49:30.000Z</Time>
            <Position>
              <LatitudeDegrees>43.3280686475336551666259765625</LatitudeDegrees>
              <LongitudeDegrees>-2.94975860975682735443115234375</LongitudeDegrees>
            </Position>
            <AltitudeMeters>59.799999237060546875</AltitudeMeters>
            <DistanceMeters>NAN</DistanceMeters>
          </Trackpoint>
          <Trackpoint>
            <Time>2022-09-24T16:49:31.000Z</Time>
            <Position>
              <LatitudeDegrees>43.32808415405452251434326171875</LatitudeDegrees>
              <LongitudeDegrees>-2.94988567940890789031982421875</LongitudeDegrees>
            </Position>
            <AltitudeMeters>59.799999237060546875</AltitudeMeters>
            <DistanceMeters>NAN</DistanceMeters>
          </Trackpoint>
          <Trackpoint>
            <Time>2022-09-24T16:49:32.000Z</Time>
            <Position>
              <LatitudeDegrees>43.32810091786086559295654296875</LatitudeDegrees>
              <LongitudeDegrees>-2.95001375488936901092529296875</LongitudeDegrees>
            </Position>
            <AltitudeMeters>59.40000152587890625</AltitudeMeters>
            <DistanceMeters>NAN</DistanceMeters>
          </Trackpoint>
          <Trackpoint>
            <Time>2022-09-24T16:49:33.000Z</Time>
            <Position>
              <LatitudeDegrees>43.32812103442847728729248046875</LatitudeDegrees>
              <LongitudeDegrees>-2.95016982592642307281494140625</LongitudeDegrees>
            </Position>
            <AltitudeMeters>59.40000152587890625</AltitudeMeters>
            <DistanceMeters>NAN</DistanceMeters>
          </Trackpoint>
          <Trackpoint>
            <Time>2022-09-24T16:49:34.000Z</Time>
            <Position>
              <LatitudeDegrees>43.32813955843448638916015625</LatitudeDegrees>
              <LongitudeDegrees>-2.95029840432107448577880859375</LongitudeDegrees>
            </Position>
            <AltitudeMeters>58.200000762939453125</AltitudeMeters>
            <DistanceMeters>NAN</DistanceMeters>
          </Trackpoint>
          <Trackpoint>
            <Time>2022-09-24T16:49:35.000Z</Time>
            <Position>
              <LatitudeDegrees>43.3281534723937511444091796875</LatitudeDegrees>
              <LongitudeDegrees>-2.9504019208252429962158203125</LongitudeDegrees>
            </Position>
            <AltitudeMeters>58</AltitudeMeters>
            <DistanceMeters>NAN</DistanceMeters>
          </Trackpoint>
          <Trackpoint>
            <Time>2022-09-24T16:49:36.000Z</Time>
            <Position>
              <LatitudeDegrees>43.32817308604717254638671875</LatitudeDegrees>
              <LongitudeDegrees>-2.95052991248667240142822265625</LongitudeDegrees>
            </Position>
            <AltitudeMeters>57.799999237060546875</AltitudeMeters>
            <DistanceMeters>NAN</DistanceMeters>
          </Trackpoint>
          <Trackpoint>
            <Time>2022-09-24T16:49:37.000Z</Time>
            <Position>
              <LatitudeDegrees>43.32819177769124507904052734375</LatitudeDegrees>
              <LongitudeDegrees>-2.95065647922456264495849609375</LongitudeDegrees>
            </Position>
            <AltitudeMeters>57.799999237060546875</AltitudeMeters>
            <DistanceMeters>NAN</DistanceMeters>
          </Trackpoint>
          <Trackpoint>
            <Time>2022-09-24T16:49:38.000Z</Time>
            <Position>
              <LatitudeDegrees>43.32820988260209560394287109375</LatitudeDegrees>
              <LongitudeDegrees>-2.9507826268672943115234375</LongitudeDegrees>
            </Position>
            <AltitudeMeters>57.799999237060546875</AltitudeMeters>
            <DistanceMeters>NAN</DistanceMeters>
          </Trackpoint>
          <Trackpoint>
            <Time>2022-09-24T16:49:39.000Z</Time>
            <Position>
              <LatitudeDegrees>43.3282302506268024444580078125</LatitudeDegrees>
              <LongitudeDegrees>-2.950905673205852508544921875</LongitudeDegrees>
            </Position>
            <AltitudeMeters>57.799999237060546875</AltitudeMeters>
            <DistanceMeters>NAN</DistanceMeters>
          </Trackpoint>
          <Trackpoint>
            <Time>2022-09-24T16:49:40.000Z</Time>
            <Position>
              <LatitudeDegrees>43.3282302506268024444580078125</LatitudeDegrees>
              <LongitudeDegrees>-2.950905673205852508544921875</LongitudeDegrees>
            </Position>
            <AltitudeMeters>57.59999847412109375</AltitudeMeters>
            <DistanceMeters>NAN</DistanceMeters>
          </Trackpoint>
          <Trackpoint>
            <Time>2022-09-24T16:49:41.000Z</Time>
            <Position>
              <LatitudeDegrees>43.3282795362174510955810546875</LatitudeDegrees>
              <LongitudeDegrees>-2.9511693678796291351318359375</LongitudeDegrees>
            </Position>
            <AltitudeMeters>57.40000152587890625</AltitudeMeters>
            <DistanceMeters>NAN</DistanceMeters>
          </Trackpoint>
          <Trackpoint>
            <Time>2022-09-24T16:49:42.000Z</Time>
            <Position>
              <LatitudeDegrees>43.32830183207988739013671875</LatitudeDegrees>
              <LongitudeDegrees>-2.95128880999982357025146484375</LongitudeDegrees>
            </Position>
            <AltitudeMeters>57.200000762939453125</AltitudeMeters>
            <DistanceMeters>NAN</DistanceMeters>
          </Trackpoint>
          <Trackpoint>
            <Time>2022-09-24T16:49:43.000Z</Time>
            <Position>
              <LatitudeDegrees>43.32832555286586284637451171875</LatitudeDegrees>
              <LongitudeDegrees>-2.95140464790165424346923828125</LongitudeDegrees>
            </Position>
            <AltitudeMeters>57.200000762939453125</AltitudeMeters>
            <DistanceMeters>NAN</DistanceMeters>
          </Trackpoint>
          <Trackpoint>
            <Time>2022-09-24T16:49:44.000Z</Time>
            <Position>
              <LatitudeDegrees>43.3283482678234577178955078125</LatitudeDegrees>
              <LongitudeDegrees>-2.95151746831834316253662109375</LongitudeDegrees>
            </Position>
            <AltitudeMeters>57.200000762939453125</AltitudeMeters>
            <DistanceMeters>NAN</DistanceMeters>
          </Trackpoint>
          <Trackpoint>
            <Time>2022-09-24T16:49:45.000Z</Time>
            <Position>
              <LatitudeDegrees>43.3283710666000843048095703125</LatitudeDegrees>
              <LongitudeDegrees>-2.95162710361182689666748046875</LongitudeDegrees>
            </Position>
            <AltitudeMeters>57.200000762939453125</AltitudeMeters>
            <DistanceMeters>NAN</DistanceMeters>
          </Trackpoint>
          <Trackpoint>
            <Time>2022-09-24T16:49:48.000Z</Time>
            <Position>
              <LatitudeDegrees>43.3284151554107666015625</LatitudeDegrees>
              <LongitudeDegrees>-2.95183799229562282562255859375</LongitudeDegrees>
            </Position>
            <AltitudeMeters>56.799999237060546875</AltitudeMeters>
            <DistanceMeters>NAN</DistanceMeters>
          </Trackpoint>
          <Trackpoint>
            <Time>2022-09-24T16:49:49.000Z</Time>
            <Position>
              <LatitudeDegrees>43.3284337632358074188232421875</LatitudeDegrees>
              <LongitudeDegrees>-2.9519547522068023681640625</LongitudeDegrees>
            </Position>
            <AltitudeMeters>56.799999237060546875</AltitudeMeters>
            <DistanceMeters>NAN</DistanceMeters>
          </Trackpoint>
          <Trackpoint>
            <Time>2022-09-24T16:49:50.000Z</Time>
            <Position>
              <LatitudeDegrees>43.32845312543213367462158203125</LatitudeDegrees>
              <LongitudeDegrees>-2.9520709253847599029541015625</LongitudeDegrees>
            </Position>
            <AltitudeMeters>57</AltitudeMeters>
            <DistanceMeters>NAN</DistanceMeters>
          </Trackpoint>
          <Trackpoint>
            <Time>2022-09-24T16:49:51.000Z</Time>
            <Position>
              <LatitudeDegrees>43.3284733258187770843505859375</LatitudeDegrees>
              <LongitudeDegrees>-2.95218500308692455291748046875</LongitudeDegrees>
            </Position>
            <AltitudeMeters>56.59999847412109375</AltitudeMeters>
            <DistanceMeters>NAN</DistanceMeters>
          </Trackpoint>
          <Trackpoint>
            <Time>2022-09-24T16:49:52.000Z</Time>
            <Position>
              <LatitudeDegrees>43.3284964598715305328369140625</LatitudeDegrees>
              <LongitudeDegrees>-2.9522985778748989105224609375</LongitudeDegrees>
            </Position>
            <AltitudeMeters>56.40000152587890625</AltitudeMeters>
            <DistanceMeters>NAN</DistanceMeters>
          </Trackpoint>
          <Trackpoint>
            <Time>2022-09-24T16:49:53.000Z</Time>
            <Position>
              <LatitudeDegrees>43.32852085120975971221923828125</LatitudeDegrees>
              <LongitudeDegrees>-2.95241466723382472991943359375</LongitudeDegrees>
            </Position>
            <AltitudeMeters>56.40000152587890625</AltitudeMeters>
            <DistanceMeters>NAN</DistanceMeters>
          </Trackpoint>
          <Trackpoint>
            <Time>2022-09-24T16:49:54.000Z</Time>
            <Position>
              <LatitudeDegrees>43.32854415290057659149169921875</LatitudeDegrees>
              <LongitudeDegrees>-2.95253352262079715728759765625</LongitudeDegrees>
            </Position>
            <AltitudeMeters>56</AltitudeMeters>
            <DistanceMeters>NAN</DistanceMeters>
          </Trackpoint>
          <Trackpoint>
            <Time>2022-09-24T16:49:55.000Z</Time>
            <Position>
              <LatitudeDegrees>43.32856846041977405548095703125</LatitudeDegrees>
              <LongitudeDegrees>-2.95265573076903820037841796875</LongitudeDegrees>
            </Position>
            <AltitudeMeters>56</AltitudeMeters>
            <DistanceMeters>NAN</DistanceMeters>
          </Trackpoint>
          <Trackpoint>
            <Time>2022-09-24T16:49:56.000Z</Time>
            <Position>
              <LatitudeDegrees>43.328592516481876373291015625</LatitudeDegrees>
              <LongitudeDegrees>-2.95278112404048442840576171875</LongitudeDegrees>
            </Position>
            <AltitudeMeters>56</AltitudeMeters>
            <DistanceMeters>NAN</DistanceMeters>
          </Trackpoint>
          <Trackpoint>
            <Time>2022-09-24T16:49:57.000Z</Time>
            <Position>
              <LatitudeDegrees>43.32861657254397869110107421875</LatitudeDegrees>
              <LongitudeDegrees>-2.95290584675967693328857421875</LongitudeDegrees>
            </Position>
            <AltitudeMeters>55.40000152587890625</AltitudeMeters>
            <DistanceMeters>NAN</DistanceMeters>
          </Trackpoint>
          <Trackpoint>
            <Time>2022-09-24T16:49:58.000Z</Time>
            <Position>
              <LatitudeDegrees>43.3286402933299541473388671875</LatitudeDegrees>
              <LongitudeDegrees>-2.95303459279239177703857421875</LongitudeDegrees>
            </Position>
            <AltitudeMeters>55.200000762939453125</AltitudeMeters>
            <DistanceMeters>NAN</DistanceMeters>
          </Trackpoint>
          <Trackpoint>
            <Time>2022-09-24T16:49:59.000Z</Time>
            <Position>
              <LatitudeDegrees>43.3286614157259464263916015625</LatitudeDegrees>
              <LongitudeDegrees>-2.95316719450056552886962890625</LongitudeDegrees>
            </Position>
            <AltitudeMeters>55.200000762939453125</AltitudeMeters>
            <DistanceMeters>NAN</DistanceMeters>
          </Trackpoint>
          <Trackpoint>
            <Time>2022-09-24T16:50:00.000Z</Time>
            <Position>
              <LatitudeDegrees>43.32868530414998531341552734375</LatitudeDegrees>
              <LongitudeDegrees>-2.9533013887703418731689453125</LongitudeDegrees>
            </Position>
            <AltitudeMeters>55</AltitudeMeters>
            <DistanceMeters>NAN</DistanceMeters>
          </Trackpoint>
          <Trackpoint>
            <Time>2022-09-24T16:50:01.000Z</Time>
            <Position>
              <LatitudeDegrees>43.3287110365927219390869140625</LatitudeDegrees>
              <LongitudeDegrees>-2.95343600213527679443359375</LongitudeDegrees>
            </Position>
            <AltitudeMeters>54.799999237060546875</AltitudeMeters>
            <DistanceMeters>NAN</DistanceMeters>
          </Trackpoint>
          <Trackpoint>
            <Time>2022-09-24T16:50:02.000Z</Time>
            <Position>
              <LatitudeDegrees>43.32874246872961521148681640625</LatitudeDegrees>
              <LongitudeDegrees>-2.95357304625213146209716796875</LongitudeDegrees>
            </Position>
            <AltitudeMeters>54.40000152587890625</AltitudeMeters>
            <DistanceMeters>NAN</DistanceMeters>
          </Trackpoint>
          <Trackpoint>
            <Time>2022-09-24T16:50:03.000Z</Time>
            <Position>
              <LatitudeDegrees>43.32877331413328647613525390625</LatitudeDegrees>
              <LongitudeDegrees>-2.953711934387683868408203125</LongitudeDegrees>
            </Position>
            <AltitudeMeters>53.200000762939453125</AltitudeMeters>
            <DistanceMeters>NAN</DistanceMeters>
          </Trackpoint>
          <Trackpoint>
            <Time>2022-09-24T16:50:04.000Z</Time>
            <Position>
              <LatitudeDegrees>43.32880449481308460235595703125</LatitudeDegrees>
              <LongitudeDegrees>-2.9538542591035366058349609375</LongitudeDegrees>
            </Position>
            <AltitudeMeters>52.200000762939453125</AltitudeMeters>
            <DistanceMeters>NAN</DistanceMeters>
          </Trackpoint>
          <Trackpoint>
            <Time>2022-09-24T16:50:05.000Z</Time>
            <Position>
              <LatitudeDegrees>43.32883852533996105194091796875</LatitudeDegrees>
              <LongitudeDegrees>-2.95399515889585018157958984375</LongitudeDegrees>
            </Position>
            <AltitudeMeters>50.799999237060546875</AltitudeMeters>
            <DistanceMeters>NAN</DistanceMeters>
          </Trackpoint>
          <Trackpoint>
            <Time>2022-09-24T16:50:06.000Z</Time>
            <Position>
              <LatitudeDegrees>43.328872807323932647705078125</LatitudeDegrees>
              <LongitudeDegrees>-2.954139411449432373046875</LongitudeDegrees>
            </Position>
            <AltitudeMeters>50.40000152587890625</AltitudeMeters>
            <DistanceMeters>NAN</DistanceMeters>
          </Trackpoint>
          <Trackpoint>
            <Time>2022-09-24T16:50:07.000Z</Time>
            <Position>
              <LatitudeDegrees>43.3289044909179210662841796875</LatitudeDegrees>
              <LongitudeDegrees>-2.95429137535393238067626953125</LongitudeDegrees>
            </Position>
            <AltitudeMeters>50.200000762939453125</AltitudeMeters>
            <DistanceMeters>NAN</DistanceMeters>
          </Trackpoint>
          <Trackpoint>
            <Time>2022-09-24T16:50:08.000Z</Time>
            <Position>
              <LatitudeDegrees>43.32893424667418003082275390625</LatitudeDegrees>
              <LongitudeDegrees>-2.95444744639098644256591796875</LongitudeDegrees>
            </Position>
            <AltitudeMeters>49</AltitudeMeters>
            <DistanceMeters>NAN</DistanceMeters>
          </Trackpoint>
          <Trackpoint>
            <Time>2022-09-24T16:50:09.000Z</Time>
            <Position>
              <LatitudeDegrees>43.32896458916366100311279296875</LatitudeDegrees>
              <LongitudeDegrees>-2.95460410416126251220703125</LongitudeDegrees>
            </Position>
            <AltitudeMeters>48.799999237060546875</AltitudeMeters>
            <DistanceMeters>NAN</DistanceMeters>
          </Trackpoint>
          <Trackpoint>
            <Time>2022-09-24T16:50:10.000Z</Time>
            <Position>
              <LatitudeDegrees>43.32898889668285846710205078125</LatitudeDegrees>
              <LongitudeDegrees>-2.95473016798496246337890625</LongitudeDegrees>
            </Position>
            <AltitudeMeters>47.799999237060546875</AltitudeMeters>
            <DistanceMeters>NAN</DistanceMeters>
          </Trackpoint>
          <Trackpoint>
            <Time>2022-09-24T16:50:11.000Z</Time>
            <Position>
              <LatitudeDegrees>43.329024016857147216796875</LatitudeDegrees>
              <LongitudeDegrees>-2.95492194592952728271484375</LongitudeDegrees>
            </Position>
            <AltitudeMeters>45.59999847412109375</AltitudeMeters>
            <DistanceMeters>NAN</DistanceMeters>
          </Trackpoint>
          <Trackpoint>
            <Time>2022-09-24T16:50:12.000Z</Time>
            <Position>
              <LatitudeDegrees>43.32905150949954986572265625</LatitudeDegrees>
              <LongitudeDegrees>-2.95508463867008686065673828125</LongitudeDegrees>
            </Position>
            <AltitudeMeters>45</AltitudeMeters>
            <DistanceMeters>NAN</DistanceMeters>
          </Trackpoint>
          <Trackpoint>
            <Time>2022-09-24T16:50:13.000Z</Time>
            <Position>
              <LatitudeDegrees>43.32907875068485736846923828125</LatitudeDegrees>
              <LongitudeDegrees>-2.95525160618126392364501953125</LongitudeDegrees>
            </Position>
            <AltitudeMeters>44.59999847412109375</AltitudeMeters>
            <DistanceMeters>NAN</DistanceMeters>
          </Trackpoint>
          <Trackpoint>
            <Time>2022-09-24T16:50:14.000Z</Time>
            <Position>
              <LatitudeDegrees>43.3291080035269260406494140625</LatitudeDegrees>
              <LongitudeDegrees>-2.9554159753024578094482421875</LongitudeDegrees>
            </Position>
            <AltitudeMeters>44.59999847412109375</AltitudeMeters>
            <DistanceMeters>NAN</DistanceMeters>
          </Trackpoint>
          <Trackpoint>
            <Time>2022-09-24T16:50:15.000Z</Time>
            <Position>
              <LatitudeDegrees>43.329138346016407012939453125</LatitudeDegrees>
              <LongitudeDegrees>-2.955582104623317718505859375</LongitudeDegrees>
            </Position>
            <AltitudeMeters>43.59999847412109375</AltitudeMeters>
            <DistanceMeters>NAN</DistanceMeters>
          </Trackpoint>
          <Trackpoint>
            <Time>2022-09-24T16:50:16.000Z</Time>
            <Position>
              <LatitudeDegrees>43.32916676066815853118896484375</LatitudeDegrees>
              <LongitudeDegrees>-2.955749072134494781494140625</LongitudeDegrees>
            </Position>
            <AltitudeMeters>42.799999237060546875</AltitudeMeters>
            <DistanceMeters>NAN</DistanceMeters>
          </Trackpoint>
          <Trackpoint>
            <Time>2022-09-24T16:50:17.000Z</Time>
            <Position>
              <LatitudeDegrees>43.32919660024344921112060546875</LatitudeDegrees>
              <LongitudeDegrees>-2.9559175483882427215576171875</LongitudeDegrees>
            </Position>
            <AltitudeMeters>42.40000152587890625</AltitudeMeters>
            <DistanceMeters>NAN</DistanceMeters>
          </Trackpoint>
          <Trackpoint>
            <Time>2022-09-24T16:50:18.000Z</Time>
            <Position>
              <LatitudeDegrees>43.32922719419002532958984375</LatitudeDegrees>
              <LongitudeDegrees>-2.956086359918117523193359375</LongitudeDegrees>
            </Position>
            <AltitudeMeters>42</AltitudeMeters>
            <DistanceMeters>NAN</DistanceMeters>
          </Trackpoint>
          <Trackpoint>
            <Time>2022-09-24T16:50:19.000Z</Time>
            <Position>
              <LatitudeDegrees>43.32925762049853801727294921875</LatitudeDegrees>
              <LongitudeDegrees>-2.95625844039022922515869140625</LongitudeDegrees>
            </Position>
            <AltitudeMeters>40.40000152587890625</AltitudeMeters>
            <DistanceMeters>NAN</DistanceMeters>
          </Trackpoint>
          <Trackpoint>
            <Time>2022-09-24T16:50:20.000Z</Time>
            <Position>
              <LatitudeDegrees>43.3292917348444461822509765625</LatitudeDegrees>
              <LongitudeDegrees>-2.95643496327102184295654296875</LongitudeDegrees>
            </Position>
            <AltitudeMeters>38</AltitudeMeters>
            <DistanceMeters>NAN</DistanceMeters>
          </Trackpoint>
          <Trackpoint>
            <Time>2022-09-24T16:50:21.000Z</Time>
            <Position>
              <LatitudeDegrees>43.329326771199703216552734375</LatitudeDegrees>
              <LongitudeDegrees>-2.9566110670566558837890625</LongitudeDegrees>
            </Position>
            <AltitudeMeters>38</AltitudeMeters>
            <DistanceMeters>NAN</DistanceMeters>
          </Trackpoint>
          <Trackpoint>
            <Time>2022-09-24T16:50:22.000Z</Time>
            <Position>
              <LatitudeDegrees>43.32935920916497707366943359375</LatitudeDegrees>
              <LongitudeDegrees>-2.95678918249905109405517578125</LongitudeDegrees>
            </Position>
            <AltitudeMeters>36.59999847412109375</AltitudeMeters>
            <DistanceMeters>NAN</DistanceMeters>
          </Trackpoint>
          <Trackpoint>
            <Time>2022-09-24T16:50:23.000Z</Time>
            <Position>
              <LatitudeDegrees>43.32939122803509235382080078125</LatitudeDegrees>
              <LongitudeDegrees>-2.95696939341723918914794921875</LongitudeDegrees>
            </Position>
            <AltitudeMeters>36.40000152587890625</AltitudeMeters>
            <DistanceMeters>NAN</DistanceMeters>
          </Trackpoint>
          <Trackpoint>
            <Time>2022-09-24T16:50:24.000Z</Time>
            <Position>
              <LatitudeDegrees>43.3294248394668102264404296875</LatitudeDegrees>
              <LongitudeDegrees>-2.95715329237282276153564453125</LongitudeDegrees>
            </Position>
            <AltitudeMeters>36</AltitudeMeters>
            <DistanceMeters>NAN</DistanceMeters>
          </Trackpoint>
          <Trackpoint>
            <Time>2022-09-24T16:50:25.000Z</Time>
            <Position>
              <LatitudeDegrees>43.32945761270821094512939453125</LatitudeDegrees>
              <LongitudeDegrees>-2.9573397897183895111083984375</LongitudeDegrees>
            </Position>
            <AltitudeMeters>34.799999237060546875</AltitudeMeters>
            <DistanceMeters>NAN</DistanceMeters>
          </Trackpoint>
          <Trackpoint>
            <Time>2022-09-24T16:50:26.000Z</Time>
            <Position>
              <LatitudeDegrees>43.3294848538935184478759765625</LatitudeDegrees>
              <LongitudeDegrees>-2.9574889875948429107666015625</LongitudeDegrees>
            </Position>
            <AltitudeMeters>31</AltitudeMeters>
            <DistanceMeters>NAN</DistanceMeters>
          </Trackpoint>
          <Trackpoint>
            <Time>2022-09-24T16:50:27.000Z</Time>
            <Position>
              <LatitudeDegrees>43.32952450029551982879638671875</LatitudeDegrees>
              <LongitudeDegrees>-2.95770867727696895599365234375</LongitudeDegrees>
            </Position>
            <AltitudeMeters>30.799999237060546875</AltitudeMeters>
            <DistanceMeters>NAN</DistanceMeters>
          </Trackpoint>
          <Trackpoint>
            <Time>2022-09-24T16:50:28.000Z</Time>
            <Position>
              <LatitudeDegrees>43.32955048419535160064697265625</LatitudeDegrees>
              <LongitudeDegrees>-2.95785686932504177093505859375</LongitudeDegrees>
            </Position>
            <AltitudeMeters>30</AltitudeMeters>
            <DistanceMeters>NAN</DistanceMeters>
          </Trackpoint>
          <Trackpoint>
            <Time>2022-09-24T16:50:29.000Z</Time>
            <Position>
              <LatitudeDegrees>43.32958987914025783538818359375</LatitudeDegrees>
              <LongitudeDegrees>-2.95807546935975551605224609375</LongitudeDegrees>
            </Position>
            <AltitudeMeters>28.799999237060546875</AltitudeMeters>
            <DistanceMeters>NAN</DistanceMeters>
          </Trackpoint>
          <Trackpoint>
            <Time>2022-09-24T16:50:30.000Z</Time>
            <Position>
              <LatitudeDegrees>43.32962340675294399261474609375</LatitudeDegrees>
              <LongitudeDegrees>-2.9582547582685947418212890625</LongitudeDegrees>
            </Position>
            <AltitudeMeters>28.3999996185302734375</AltitudeMeters>
            <DistanceMeters>NAN</DistanceMeters>
          </Trackpoint>
          <Trackpoint>
            <Time>2022-09-24T16:50:31.000Z</Time>
            <Position>
              <LatitudeDegrees>43.329658694565296173095703125</LatitudeDegrees>
              <LongitudeDegrees>-2.9584301076829433441162109375</LongitudeDegrees>
            </Position>
            <AltitudeMeters>28</AltitudeMeters>
            <DistanceMeters>NAN</DistanceMeters>
          </Trackpoint>
          <Trackpoint>
            <Time>2022-09-24T16:50:32.000Z</Time>
            <Position>
              <LatitudeDegrees>43.32969314418733119964599609375</LatitudeDegrees>
              <LongitudeDegrees>-2.95860487036406993865966796875</LongitudeDegrees>
            </Position>
            <AltitudeMeters>28</AltitudeMeters>
            <DistanceMeters>NAN</DistanceMeters>
          </Trackpoint>
          <Trackpoint>
            <Time>2022-09-24T16:50:33.000Z</Time>
            <Position>
              <LatitudeDegrees>43.32972499541938304901123046875</LatitudeDegrees>
              <LongitudeDegrees>-2.95878256671130657196044921875</LongitudeDegrees>
            </Position>
            <AltitudeMeters>27.3999996185302734375</AltitudeMeters>
            <DistanceMeters>NAN</DistanceMeters>
          </Trackpoint>
          <Trackpoint>
            <Time>2022-09-24T16:50:34.000Z</Time>
            <Position>
              <LatitudeDegrees>43.329759947955608367919921875</LatitudeDegrees>
              <LongitudeDegrees>-2.9589579999446868896484375</LongitudeDegrees>
            </Position>
            <AltitudeMeters>27.3999996185302734375</AltitudeMeters>
            <DistanceMeters>NAN</DistanceMeters>
          </Trackpoint>
          <Trackpoint>
            <Time>2022-09-24T16:50:35.000Z</Time>
            <Position>
              <LatitudeDegrees>43.3297973312437534332275390625</LatitudeDegrees>
              <LongitudeDegrees>-2.95912739820778369903564453125</LongitudeDegrees>
            </Position>
            <AltitudeMeters>26.6000003814697265625</AltitudeMeters>
            <DistanceMeters>NAN</DistanceMeters>
          </Trackpoint>
          <Trackpoint>
            <Time>2022-09-24T16:50:36.000Z</Time>
            <Position>
              <LatitudeDegrees>43.329839073121547698974609375</LatitudeDegrees>
              <LongitudeDegrees>-2.959296293556690216064453125</LongitudeDegrees>
            </Position>
            <AltitudeMeters>26.200000762939453125</AltitudeMeters>
            <DistanceMeters>NAN</DistanceMeters>
          </Trackpoint>
          <Trackpoint>
            <Time>2022-09-24T16:50:37.000Z</Time>
            <Position>
              <LatitudeDegrees>43.329886011779308319091796875</LatitudeDegrees>
              <LongitudeDegrees>-2.959464602172374725341796875</LongitudeDegrees>
            </Position>
            <AltitudeMeters>26.200000762939453125</AltitudeMeters>
            <DistanceMeters>NAN</DistanceMeters>
          </Trackpoint>
          <Trackpoint>
            <Time>2022-09-24T16:50:38.000Z</Time>
            <Position>
              <LatitudeDegrees>43.3299386501312255859375</LatitudeDegrees>
              <LongitudeDegrees>-2.95962243340909481048583984375</LongitudeDegrees>
            </Position>
            <AltitudeMeters>25.200000762939453125</AltitudeMeters>
            <DistanceMeters>NAN</DistanceMeters>
          </Trackpoint>
          <Trackpoint>
            <Time>2022-09-24T16:50:39.000Z</Time>
            <Position>
              <LatitudeDegrees>43.32998533733189105987548828125</LatitudeDegrees>
              <LongitudeDegrees>-2.959740199148654937744140625</LongitudeDegrees>
            </Position>
            <AltitudeMeters>25.200000762939453125</AltitudeMeters>
            <DistanceMeters>NAN</DistanceMeters>
          </Trackpoint>
          <Trackpoint>
            <Time>2022-09-24T16:50:40.000Z</Time>
            <Position>
              <LatitudeDegrees>43.33005155436694622039794921875</LatitudeDegrees>
              <LongitudeDegrees>-2.95992292463779449462890625</LongitudeDegrees>
            </Position>
            <AltitudeMeters>25</AltitudeMeters>
            <DistanceMeters>NAN</DistanceMeters>
          </Trackpoint>
          <Trackpoint>
            <Time>2022-09-24T16:50:41.000Z</Time>
            <Position>
              <LatitudeDegrees>43.33010536618530750274658203125</LatitudeDegrees>
              <LongitudeDegrees>-2.960075475275516510009765625</LongitudeDegrees>
            </Position>
            <AltitudeMeters>24.6000003814697265625</AltitudeMeters>
            <DistanceMeters>NAN</DistanceMeters>
          </Trackpoint>
          <Trackpoint>
            <Time>2022-09-24T16:50:42.000Z</Time>
            <Position>
              <LatitudeDegrees>43.3301480300724506378173828125</LatitudeDegrees>
              <LongitudeDegrees>-2.9601960070431232452392578125</LongitudeDegrees>
            </Position>
            <AltitudeMeters>24.200000762939453125</AltitudeMeters>
            <DistanceMeters>NAN</DistanceMeters>
          </Trackpoint>
          <Trackpoint>
            <Time>2022-09-24T16:50:43.000Z</Time>
            <Position>
              <LatitudeDegrees>43.330211900174617767333984375</LatitudeDegrees>
              <LongitudeDegrees>-2.96037630178034305572509765625</LongitudeDegrees>
            </Position>
            <AltitudeMeters>23.799999237060546875</AltitudeMeters>
            <DistanceMeters>NAN</DistanceMeters>
          </Trackpoint>
          <Trackpoint>
            <Time>2022-09-24T16:50:44.000Z</Time>
            <Position>
              <LatitudeDegrees>43.3302605152130126953125</LatitudeDegrees>
              <LongitudeDegrees>-2.9605279304087162017822265625</LongitudeDegrees>
            </Position>
            <AltitudeMeters>23.3999996185302734375</AltitudeMeters>
            <DistanceMeters>NAN</DistanceMeters>
          </Trackpoint>
          <Trackpoint>
            <Time>2022-09-24T16:50:45.000Z</Time>
            <Position>
              <LatitudeDegrees>43.3303039334714412689208984375</LatitudeDegrees>
              <LongitudeDegrees>-2.96068022958934307098388671875</LongitudeDegrees>
            </Position>
            <AltitudeMeters>23.3999996185302734375</AltitudeMeters>
            <DistanceMeters>NAN</DistanceMeters>
          </Trackpoint>
          <Trackpoint>
            <Time>2022-09-24T16:50:46.000Z</Time>
            <Position>
              <LatitudeDegrees>43.33034207113087177276611328125</LatitudeDegrees>
              <LongitudeDegrees>-2.96083194203674793243408203125</LongitudeDegrees>
            </Position>
            <AltitudeMeters>23.3999996185302734375</AltitudeMeters>
            <DistanceMeters>NAN</DistanceMeters>
          </Trackpoint>
          <Trackpoint>
            <Time>2022-09-24T16:50:47.000Z</Time>
            <Position>
              <LatitudeDegrees>43.33037593401968479156494140625</LatitudeDegrees>
              <LongitudeDegrees>-2.96098298393189907073974609375</LongitudeDegrees>
            </Position>
            <AltitudeMeters>22.6000003814697265625</AltitudeMeters>
            <DistanceMeters>NAN</DistanceMeters>
          </Trackpoint>
          <Trackpoint>
            <Time>2022-09-24T16:50:48.000Z</Time>
            <Position>
              <LatitudeDegrees>43.33040334284305572509765625</LatitudeDegrees>
              <LongitudeDegrees>-2.96113486401736736297607421875</LongitudeDegrees>
            </Position>
            <AltitudeMeters>22</AltitudeMeters>
            <DistanceMeters>NAN</DistanceMeters>
          </Trackpoint>
          <Trackpoint>
            <Time>2022-09-24T16:50:49.000Z</Time>
            <Position>
              <LatitudeDegrees>43.3304229564964771270751953125</LatitudeDegrees>
              <LongitudeDegrees>-2.96125321649014949798583984375</LongitudeDegrees>
            </Position>
            <AltitudeMeters>22.6000003814697265625</AltitudeMeters>
            <DistanceMeters>NAN</DistanceMeters>
          </Trackpoint>
          <Trackpoint>
            <Time>2022-09-24T16:50:50.000Z</Time>
            <Position>
              <LatitudeDegrees>43.3304469287395477294921875</LatitudeDegrees>
              <LongitudeDegrees>-2.96140023507177829742431640625</LongitudeDegrees>
            </Position>
            <AltitudeMeters>23.3999996185302734375</AltitudeMeters>
            <DistanceMeters>NAN</DistanceMeters>
          </Trackpoint>
          <Trackpoint>
            <Time>2022-09-24T16:50:51.000Z</Time>
            <Position>
              <LatitudeDegrees>43.330468051135540008544921875</LatitudeDegrees>
              <LongitudeDegrees>-2.9615733213722705841064453125</LongitudeDegrees>
            </Position>
            <AltitudeMeters>25</AltitudeMeters>
            <DistanceMeters>NAN</DistanceMeters>
          </Trackpoint>
          <Trackpoint>
            <Time>2022-09-24T16:50:52.000Z</Time>
            <Position>
              <LatitudeDegrees>43.33048003725707530975341796875</LatitudeDegrees>
              <LongitudeDegrees>-2.9617151431739330291748046875</LongitudeDegrees>
            </Position>
            <AltitudeMeters>27.200000762939453125</AltitudeMeters>
            <DistanceMeters>NAN</DistanceMeters>
          </Trackpoint>
          <Trackpoint>
            <Time>2022-09-24T16:50:53.000Z</Time>
            <Position>
              <LatitudeDegrees>43.33049328066408634185791015625</LatitudeDegrees>
              <LongitudeDegrees>-2.961848415434360504150390625</LongitudeDegrees>
            </Position>
            <AltitudeMeters>27.200000762939453125</AltitudeMeters>
            <DistanceMeters>NAN</DistanceMeters>
          </Trackpoint>
          <Trackpoint>
            <Time>2022-09-24T16:50:54.000Z</Time>
            <Position>
              <LatitudeDegrees>43.33050836808979511260986328125</LatitudeDegrees>
              <LongitudeDegrees>-2.96197841875255107879638671875</LongitudeDegrees>
            </Position>
            <AltitudeMeters>27.6000003814697265625</AltitudeMeters>
            <DistanceMeters>NAN</DistanceMeters>
          </Trackpoint>
          <Trackpoint>
            <Time>2022-09-24T16:50:55.000Z</Time>
            <Position>
              <LatitudeDegrees>43.3305305801331996917724609375</LatitudeDegrees>
              <LongitudeDegrees>-2.96210364438593387603759765625</LongitudeDegrees>
            </Position>
            <AltitudeMeters>27.6000003814697265625</AltitudeMeters>
            <DistanceMeters>NAN</DistanceMeters>
          </Trackpoint>
          <Trackpoint>
            <Time>2022-09-24T16:50:56.000Z</Time>
            <Position>
              <LatitudeDegrees>43.33056637085974216461181640625</LatitudeDegrees>
              <LongitudeDegrees>-2.962218225002288818359375</LongitudeDegrees>
            </Position>
            <AltitudeMeters>27.200000762939453125</AltitudeMeters>
            <DistanceMeters>NAN</DistanceMeters>
          </Trackpoint>
          <Trackpoint>
            <Time>2022-09-24T16:50:57.000Z</Time>
            <Position>
              <LatitudeDegrees>43.3306003175675868988037109375</LatitudeDegrees>
              <LongitudeDegrees>-2.9623000323772430419921875</LongitudeDegrees>
            </Position>
            <AltitudeMeters>27</AltitudeMeters>
            <DistanceMeters>NAN</DistanceMeters>
          </Trackpoint>
          <Trackpoint>
            <Time>2022-09-24T16:50:58.000Z</Time>
            <Position>
              <LatitudeDegrees>43.330638371407985687255859375</LatitudeDegrees>
              <LongitudeDegrees>-2.96242282725870609283447265625</LongitudeDegrees>
            </Position>
            <AltitudeMeters>26.799999237060546875</AltitudeMeters>
            <DistanceMeters>NAN</DistanceMeters>
          </Trackpoint>
          <Trackpoint>
            <Time>2022-09-24T16:50:59.000Z</Time>
            <Position>
              <LatitudeDegrees>43.3306480944156646728515625</LatitudeDegrees>
              <LongitudeDegrees>-2.96252257190644741058349609375</LongitudeDegrees>
            </Position>
            <AltitudeMeters>25.799999237060546875</AltitudeMeters>
            <DistanceMeters>NAN</DistanceMeters>
          </Trackpoint>
          <Trackpoint>
            <Time>2022-09-24T16:51:00.000Z</Time>
            <Position>
              <LatitudeDegrees>43.33063560537993907928466796875</LatitudeDegrees>
              <LongitudeDegrees>-2.9626130126416683197021484375</LongitudeDegrees>
            </Position>
            <AltitudeMeters>25.799999237060546875</AltitudeMeters>
            <DistanceMeters>NAN</DistanceMeters>
          </Trackpoint>
          <Trackpoint>
            <Time>2022-09-24T16:51:01.000Z</Time>
            <Position>
              <LatitudeDegrees>43.33059646189212799072265625</LatitudeDegrees>
              <LongitudeDegrees>-2.9626894555985927581787109375</LongitudeDegrees>
            </Position>
            <AltitudeMeters>25.200000762939453125</AltitudeMeters>
            <DistanceMeters>NAN</DistanceMeters>
          </Trackpoint>
          <Trackpoint>
            <Time>2022-09-24T16:51:02.000Z</Time>
            <Position>
              <LatitudeDegrees>43.3305399678647518157958984375</LatitudeDegrees>
              <LongitudeDegrees>-2.9627363942563533782958984375</LongitudeDegrees>
            </Position>
            <AltitudeMeters>25</AltitudeMeters>
            <DistanceMeters>NAN</DistanceMeters>
          </Trackpoint>
          <Trackpoint>
            <Time>2022-09-24T16:51:03.000Z</Time>
            <Position>
              <LatitudeDegrees>43.33047031424939632415771484375</LatitudeDegrees>
              <LongitudeDegrees>-2.962744943797588348388671875</LongitudeDegrees>
            </Position>
            <AltitudeMeters>25</AltitudeMeters>
            <DistanceMeters>NAN</DistanceMeters>
          </Trackpoint>
          <Trackpoint>
            <Time>2022-09-24T16:51:04.000Z</Time>
            <Position>
              <LatitudeDegrees>43.330399654805660247802734375</LatitudeDegrees>
              <LongitudeDegrees>-2.96272943727672100067138671875</LongitudeDegrees>
            </Position>
            <AltitudeMeters>25</AltitudeMeters>
            <DistanceMeters>NAN</DistanceMeters>
          </Trackpoint>
          <Trackpoint>
            <Time>2022-09-24T16:51:05.000Z</Time>
            <Position>
              <LatitudeDegrees>43.33032798953354358673095703125</LatitudeDegrees>
              <LongitudeDegrees>-2.96270110644400119781494140625</LongitudeDegrees>
            </Position>
            <AltitudeMeters>24.6000003814697265625</AltitudeMeters>
            <DistanceMeters>NAN</DistanceMeters>
          </Trackpoint>
          <Trackpoint>
            <Time>2022-09-24T16:51:06.000Z</Time>
            <Position>
              <LatitudeDegrees>43.33025054074823856353759765625</LatitudeDegrees>
              <LongitudeDegrees>-2.96267352998256683349609375</LongitudeDegrees>
            </Position>
            <AltitudeMeters>24.6000003814697265625</AltitudeMeters>
            <DistanceMeters>NAN</DistanceMeters>
          </Trackpoint>
          <Trackpoint>
            <Time>2022-09-24T16:51:07.000Z</Time>
            <Position>
              <LatitudeDegrees>43.3301872573792934417724609375</LatitudeDegrees>
              <LongitudeDegrees>-2.9626636393368244171142578125</LongitudeDegrees>
            </Position>
            <AltitudeMeters>24.3999996185302734375</AltitudeMeters>
            <DistanceMeters>NAN</DistanceMeters>
          </Trackpoint>
          <Trackpoint>
            <Time>2022-09-24T16:51:08.000Z</Time>
            <Position>
              <LatitudeDegrees>43.33010427653789520263671875</LatitudeDegrees>
              <LongitudeDegrees>-2.96266288496553897857666015625</LongitudeDegrees>
            </Position>
            <AltitudeMeters>24.6000003814697265625</AltitudeMeters>
            <DistanceMeters>NAN</DistanceMeters>
          </Trackpoint>
          <Trackpoint>
            <Time>2022-09-24T16:51:09.000Z</Time>
            <Position>
              <LatitudeDegrees>43.33000277169048786163330078125</LatitudeDegrees>
              <LongitudeDegrees>-2.9626743681728839874267578125</LongitudeDegrees>
            </Position>
            <AltitudeMeters>24.3999996185302734375</AltitudeMeters>
            <DistanceMeters>NAN</DistanceMeters>
          </Trackpoint>
          <Trackpoint>
            <Time>2022-09-24T16:51:10.000Z</Time>
            <Position>
              <LatitudeDegrees>43.32992054522037506103515625</LatitudeDegrees>
              <LongitudeDegrees>-2.96270035207271575927734375</LongitudeDegrees>
            </Position>
            <AltitudeMeters>24.3999996185302734375</AltitudeMeters>
            <DistanceMeters>NAN</DistanceMeters>
          </Trackpoint>
          <Trackpoint>
            <Time>2022-09-24T16:51:11.000Z</Time>
            <Position>
              <LatitudeDegrees>43.32983731292188167572021484375</LatitudeDegrees>
              <LongitudeDegrees>-2.96273161657154560089111328125</LongitudeDegrees>
            </Position>
            <AltitudeMeters>24.3999996185302734375</AltitudeMeters>
            <DistanceMeters>NAN</DistanceMeters>
          </Trackpoint>
          <Trackpoint>
            <Time>2022-09-24T16:51:12.000Z</Time>
            <Position>
              <LatitudeDegrees>43.329755254089832305908203125</LatitudeDegrees>
              <LongitudeDegrees>-2.96277101151645183563232421875</LongitudeDegrees>
            </Position>
            <AltitudeMeters>24</AltitudeMeters>
            <DistanceMeters>NAN</DistanceMeters>
          </Trackpoint>
          <Trackpoint>
            <Time>2022-09-24T16:51:13.000Z</Time>
            <Position>
              <LatitudeDegrees>43.32967420108616352081298828125</LatitudeDegrees>
              <LongitudeDegrees>-2.96282163821160793304443359375</LongitudeDegrees>
            </Position>
            <AltitudeMeters>23.6000003814697265625</AltitudeMeters>
            <DistanceMeters>NAN</DistanceMeters>
          </Trackpoint>
          <Trackpoint>
            <Time>2022-09-24T16:51:14.000Z</Time>
            <Position>
              <LatitudeDegrees>43.3295931480824947357177734375</LatitudeDegrees>
              <LongitudeDegrees>-2.96287327073514461517333984375</LongitudeDegrees>
            </Position>
            <AltitudeMeters>22.200000762939453125</AltitudeMeters>
            <DistanceMeters>NAN</DistanceMeters>
          </Trackpoint>
          <Trackpoint>
            <Time>2022-09-24T16:51:15.000Z</Time>
            <Position>
              <LatitudeDegrees>43.32951259799301624298095703125</LatitudeDegrees>
              <LongitudeDegrees>-2.96292071230709552764892578125</LongitudeDegrees>
            </Position>
            <AltitudeMeters>21.799999237060546875</AltitudeMeters>
            <DistanceMeters>NAN</DistanceMeters>
          </Trackpoint>
          <Trackpoint>
            <Time>2022-09-24T16:51:16.000Z</Time>
            <Position>
              <LatitudeDegrees>43.329428695142269134521484375</LatitudeDegrees>
              <LongitudeDegrees>-2.96295247972011566162109375</LongitudeDegrees>
            </Position>
            <AltitudeMeters>21.6000003814697265625</AltitudeMeters>
            <DistanceMeters>NAN</DistanceMeters>
          </Trackpoint>
          <Trackpoint>
            <Time>2022-09-24T16:51:17.000Z</Time>
            <Position>
              <LatitudeDegrees>43.32933540455996990203857421875</LatitudeDegrees>
              <LongitudeDegrees>-2.962953150272369384765625</LongitudeDegrees>
            </Position>
            <AltitudeMeters>21.3999996185302734375</AltitudeMeters>
            <DistanceMeters>NAN</DistanceMeters>
          </Trackpoint>
          <Trackpoint>
            <Time>2022-09-24T16:51:18.000Z</Time>
            <Position>
              <LatitudeDegrees>43.32923817448318004608154296875</LatitudeDegrees>
              <LongitudeDegrees>-2.9629462771117687225341796875</LongitudeDegrees>
            </Position>
            <AltitudeMeters>21</AltitudeMeters>
            <DistanceMeters>NAN</DistanceMeters>
          </Trackpoint>
          <Trackpoint>
            <Time>2022-09-24T16:51:19.000Z</Time>
            <Position>
              <LatitudeDegrees>43.3291418664157390594482421875</LatitudeDegrees>
              <LongitudeDegrees>-2.9629543237388134002685546875</LongitudeDegrees>
            </Position>
            <AltitudeMeters>20.6000003814697265625</AltitudeMeters>
            <DistanceMeters>NAN</DistanceMeters>
          </Trackpoint>
          <Trackpoint>
            <Time>2022-09-24T16:51:20.000Z</Time>
            <Position>
              <LatitudeDegrees>43.32904136739671230316162109375</LatitudeDegrees>
              <LongitudeDegrees>-2.96297687105834484100341796875</LongitudeDegrees>
            </Position>
            <AltitudeMeters>20.3999996185302734375</AltitudeMeters>
            <DistanceMeters>NAN</DistanceMeters>
          </Trackpoint>
          <Trackpoint>
            <Time>2022-09-24T16:51:21.000Z</Time>
            <Position>
              <LatitudeDegrees>43.32893751561641693115234375</LatitudeDegrees>
              <LongitudeDegrees>-2.9630103148519992828369140625</LongitudeDegrees>
            </Position>
            <AltitudeMeters>20</AltitudeMeters>
            <DistanceMeters>NAN</DistanceMeters>
          </Trackpoint>
          <Trackpoint>
            <Time>2022-09-24T16:51:22.000Z</Time>
            <Position>
              <LatitudeDegrees>43.3288267068564891815185546875</LatitudeDegrees>
              <LongitudeDegrees>-2.96304996125400066375732421875</LongitudeDegrees>
            </Position>
            <AltitudeMeters>18.6000003814697265625</AltitudeMeters>
            <DistanceMeters>NAN</DistanceMeters>
          </Trackpoint>
          <Trackpoint>
            <Time>2022-09-24T16:51:23.000Z</Time>
            <Position>
              <LatitudeDegrees>43.32871212624013423919677734375</LatitudeDegrees>
              <LongitudeDegrees>-2.96308818273246288299560546875</LongitudeDegrees>
            </Position>
            <AltitudeMeters>17.6000003814697265625</AltitudeMeters>
            <DistanceMeters>NAN</DistanceMeters>
          </Trackpoint>
          <Trackpoint>
            <Time>2022-09-24T16:51:24.000Z</Time>
            <Position>
              <LatitudeDegrees>43.32858824171125888824462890625</LatitudeDegrees>
              <LongitudeDegrees>-2.96313352882862091064453125</LongitudeDegrees>
            </Position>
            <AltitudeMeters>15.6000003814697265625</AltitudeMeters>
            <DistanceMeters>NAN</DistanceMeters>
          </Trackpoint>
          <Trackpoint>
            <Time>2022-09-24T16:51:25.000Z</Time>
            <Position>
              <LatitudeDegrees>43.32847240380942821502685546875</LatitudeDegrees>
              <LongitudeDegrees>-2.963182814419269561767578125</LongitudeDegrees>
            </Position>
            <AltitudeMeters>14.6000003814697265625</AltitudeMeters>
            <DistanceMeters>NAN</DistanceMeters>
          </Trackpoint>
          <Trackpoint>
            <Time>2022-09-24T16:51:26.000Z</Time>
            <Position>
              <LatitudeDegrees>43.32847240380942821502685546875</LatitudeDegrees>
              <LongitudeDegrees>-2.963182814419269561767578125</LongitudeDegrees>
            </Position>
            <AltitudeMeters>14.3999996185302734375</AltitudeMeters>
            <DistanceMeters>NAN</DistanceMeters>
          </Trackpoint>
          <Trackpoint>
            <Time>2022-09-24T16:51:27.000Z</Time>
            <Position>
              <LatitudeDegrees>43.3282483555376529693603515625</LatitudeDegrees>
              <LongitudeDegrees>-2.96336059458553791046142578125</LongitudeDegrees>
            </Position>
            <AltitudeMeters>12.3999996185302734375</AltitudeMeters>
            <DistanceMeters>NAN</DistanceMeters>
          </Trackpoint>
          <Trackpoint>
            <Time>2022-09-24T16:51:28.000Z</Time>
            <Position>
              <LatitudeDegrees>43.32814626395702362060546875</LatitudeDegrees>
              <LongitudeDegrees>-2.963475845754146575927734375</LongitudeDegrees>
            </Position>
            <AltitudeMeters>9.80000019073486328125</AltitudeMeters>
            <DistanceMeters>NAN</DistanceMeters>
          </Trackpoint>
          <Trackpoint>
            <Time>2022-09-24T16:51:29.000Z</Time>
            <Position>
              <LatitudeDegrees>43.328058756887912750244140625</LatitudeDegrees>
              <LongitudeDegrees>-2.9636111296713352203369140625</LongitudeDegrees>
            </Position>
            <AltitudeMeters>9.6000003814697265625</AltitudeMeters>
            <DistanceMeters>NAN</DistanceMeters>
          </Trackpoint>
          <Trackpoint>
            <Time>2022-09-24T16:51:30.000Z</Time>
            <Position>
              <LatitudeDegrees>43.32798642106354236602783203125</LatitudeDegrees>
              <LongitudeDegrees>-2.96377013437449932098388671875</LongitudeDegrees>
            </Position>
            <AltitudeMeters>9.19999980926513671875</AltitudeMeters>
            <DistanceMeters>NAN</DistanceMeters>
          </Trackpoint>
          <Trackpoint>
            <Time>2022-09-24T16:51:31.000Z</Time>
            <Position>
              <LatitudeDegrees>43.32792171277105808258056640625</LatitudeDegrees>
              <LongitudeDegrees>-2.963944561779499053955078125</LongitudeDegrees>
            </Position>
            <AltitudeMeters>8.3999996185302734375</AltitudeMeters>
            <DistanceMeters>NAN</DistanceMeters>
          </Trackpoint>
          <Trackpoint>
            <Time>2022-09-24T16:51:32.000Z</Time>
            <Position>
              <LatitudeDegrees>43.32786840386688709259033203125</LatitudeDegrees>
              <LongitudeDegrees>-2.9641227610409259796142578125</LongitudeDegrees>
            </Position>
            <AltitudeMeters>5.80000019073486328125</AltitudeMeters>
            <DistanceMeters>NAN</DistanceMeters>
          </Trackpoint>
          <Trackpoint>
            <Time>2022-09-24T16:51:33.000Z</Time>
            <Position>
              <LatitudeDegrees>43.32782096229493618011474609375</LatitudeDegrees>
              <LongitudeDegrees>-2.9643017984926700592041015625</LongitudeDegrees>
            </Position>
            <AltitudeMeters>5.599999904632568359375</AltitudeMeters>
            <DistanceMeters>NAN</DistanceMeters>
          </Trackpoint>
          <Trackpoint>
            <Time>2022-09-24T16:51:34.000Z</Time>
            <Position>
              <LatitudeDegrees>43.327775783836841583251953125</LatitudeDegrees>
              <LongitudeDegrees>-2.9644805006682872772216796875</LongitudeDegrees>
            </Position>
            <AltitudeMeters>4.80000019073486328125</AltitudeMeters>
            <DistanceMeters>NAN</DistanceMeters>
          </Trackpoint>
          <Trackpoint>
            <Time>2022-09-24T16:51:35.000Z</Time>
            <Position>
              <LatitudeDegrees>43.327732868492603302001953125</LatitudeDegrees>
              <LongitudeDegrees>-2.96466171741485595703125</LongitudeDegrees>
            </Position>
            <AltitudeMeters>1.60000002384185791015625</AltitudeMeters>
            <DistanceMeters>NAN</DistanceMeters>
          </Trackpoint>
          <Trackpoint>
            <Time>2022-09-24T16:51:36.000Z</Time>
            <Position>
              <LatitudeDegrees>43.32768769003450870513916015625</LatitudeDegrees>
              <LongitudeDegrees>-2.96484452672302722930908203125</LongitudeDegrees>
            </Position>
            <AltitudeMeters>0.60000002384185791015625</AltitudeMeters>
            <DistanceMeters>NAN</DistanceMeters>
          </Trackpoint>
          <Trackpoint>
            <Time>2022-09-24T16:51:37.000Z</Time>
            <Position>
              <LatitudeDegrees>43.32763991318643093109130859375</LatitudeDegrees>
              <LongitudeDegrees>-2.96502716839313507080078125</LongitudeDegrees>
            </Position>
            <AltitudeMeters>0.60000002384185791015625</AltitudeMeters>
            <DistanceMeters>NAN</DistanceMeters>
          </Trackpoint>
          <Trackpoint>
            <Time>2022-09-24T16:51:38.000Z</Time>
            <Position>
              <LatitudeDegrees>43.3275922201573848724365234375</LatitudeDegrees>
              <LongitudeDegrees>-2.965209893882274627685546875</LongitudeDegrees>
            </Position>
            <AltitudeMeters>-0.4000000059604644775390625</AltitudeMeters>
            <DistanceMeters>NAN</DistanceMeters>
          </Trackpoint>
          <Trackpoint>
            <Time>2022-09-24T16:51:39.000Z</Time>
            <Position>
              <LatitudeDegrees>43.327544443309307098388671875</LatitudeDegrees>
              <LongitudeDegrees>-2.9653947986662387847900390625</LongitudeDegrees>
            </Position>
            <AltitudeMeters>-2</AltitudeMeters>
            <DistanceMeters>NAN</DistanceMeters>
          </Trackpoint>
          <Trackpoint>
            <Time>2022-09-24T16:51:40.000Z</Time>
            <Position>
              <LatitudeDegrees>43.32749876193702220916748046875</LatitudeDegrees>
              <LongitudeDegrees>-2.9655818827450275421142578125</LongitudeDegrees>
            </Position>
            <AltitudeMeters>-3.599999904632568359375</AltitudeMeters>
            <DistanceMeters>NAN</DistanceMeters>
          </Trackpoint>
          <Trackpoint>
            <Time>2022-09-24T16:51:41.000Z</Time>
            <Position>
              <LatitudeDegrees>43.32745282910764217376708984375</LatitudeDegrees>
              <LongitudeDegrees>-2.9657706432044506072998046875</LongitudeDegrees>
            </Position>
            <AltitudeMeters>-3.599999904632568359375</AltitudeMeters>
            <DistanceMeters>NAN</DistanceMeters>
          </Trackpoint>
          <Trackpoint>
            <Time>2022-09-24T16:51:42.000Z</Time>
            <Position>
              <LatitudeDegrees>43.32740605808794498443603515625</LatitudeDegrees>
              <LongitudeDegrees>-2.96596015803515911102294921875</LongitudeDegrees>
            </Position>
            <AltitudeMeters>-3.599999904632568359375</AltitudeMeters>
            <DistanceMeters>NAN</DistanceMeters>
          </Trackpoint>
          <Trackpoint>
            <Time>2022-09-24T16:51:43.000Z</Time>
            <Position>
              <LatitudeDegrees>43.32735844887793064117431640625</LatitudeDegrees>
              <LongitudeDegrees>-2.96615009196102619171142578125</LongitudeDegrees>
            </Position>
            <AltitudeMeters>-3.599999904632568359375</AltitudeMeters>
            <DistanceMeters>NAN</DistanceMeters>
          </Trackpoint>
          <Trackpoint>
            <Time>2022-09-24T16:51:44.000Z</Time>
            <Position>
              <LatitudeDegrees>43.327319808304309844970703125</LatitudeDegrees>
              <LongitudeDegrees>-2.96630255877971649169921875</LongitudeDegrees>
            </Position>
            <AltitudeMeters>-3.599999904632568359375</AltitudeMeters>
            <DistanceMeters>NAN</DistanceMeters>
          </Trackpoint>
          <Trackpoint>
            <Time>2022-09-24T16:51:45.000Z</Time>
            <Position>
              <LatitudeDegrees>43.3272696845233440399169921875</LatitudeDegrees>
              <LongitudeDegrees>-2.96649324707686901092529296875</LongitudeDegrees>
            </Position>
            <AltitudeMeters>-3.599999904632568359375</AltitudeMeters>
            <DistanceMeters>NAN</DistanceMeters>
          </Trackpoint>
          <Trackpoint>
            <Time>2022-09-24T16:51:46.000Z</Time>
            <Position>
              <LatitudeDegrees>43.3272146992385387420654296875</LatitudeDegrees>
              <LongitudeDegrees>-2.96667966060340404510498046875</LongitudeDegrees>
            </Position>
            <AltitudeMeters>-11.6000003814697265625</AltitudeMeters>
            <DistanceMeters>NAN</DistanceMeters>
          </Trackpoint>
          <Trackpoint>
            <Time>2022-09-24T16:51:47.000Z</Time>
            <Position>
              <LatitudeDegrees>43.32713984884321689605712890625</LatitudeDegrees>
              <LongitudeDegrees>-2.96689725480973720550537109375</LongitudeDegrees>
            </Position>
            <AltitudeMeters>-13</AltitudeMeters>
            <DistanceMeters>NAN</DistanceMeters>
          </Trackpoint>
          <Trackpoint>
            <Time>2022-09-24T16:51:48.000Z</Time>
            <Position>
              <LatitudeDegrees>43.32707044668495655059814453125</LatitudeDegrees>
              <LongitudeDegrees>-2.96707570552825927734375</LongitudeDegrees>
            </Position>
            <AltitudeMeters>-11.6000003814697265625</AltitudeMeters>
            <DistanceMeters>NAN</DistanceMeters>
          </Trackpoint>
          <Trackpoint>
            <Time>2022-09-24T16:51:49.000Z</Time>
            <Position>
              <LatitudeDegrees>43.32699081860482692718505859375</LatitudeDegrees>
              <LongitudeDegrees>-2.967244684696197509765625</LongitudeDegrees>
            </Position>
            <AltitudeMeters>-11.6000003814697265625</AltitudeMeters>
            <DistanceMeters>NAN</DistanceMeters>
          </Trackpoint>
          <Trackpoint>
            <Time>2022-09-24T16:51:50.000Z</Time>
            <Position>
              <LatitudeDegrees>43.32690347917377948760986328125</LatitudeDegrees>
              <LongitudeDegrees>-2.9674064554274082183837890625</LongitudeDegrees>
            </Position>
            <AltitudeMeters>-9.3999996185302734375</AltitudeMeters>
            <DistanceMeters>NAN</DistanceMeters>
          </Trackpoint>
          <Trackpoint>
            <Time>2022-09-24T16:51:51.000Z</Time>
            <Position>
              <LatitudeDegrees>43.32680775783956050872802734375</LatitudeDegrees>
              <LongitudeDegrees>-2.96755942516028881072998046875</LongitudeDegrees>
            </Position>
            <AltitudeMeters>-9.3999996185302734375</AltitudeMeters>
            <DistanceMeters>NAN</DistanceMeters>
          </Trackpoint>
          <Trackpoint>
            <Time>2022-09-24T16:51:52.000Z</Time>
            <Position>
              <LatitudeDegrees>43.3267040736973285675048828125</LatitudeDegrees>
              <LongitudeDegrees>-2.967703677713871002197265625</LongitudeDegrees>
            </Position>
            <AltitudeMeters>-9</AltitudeMeters>
            <DistanceMeters>NAN</DistanceMeters>
          </Trackpoint>
          <Trackpoint>
            <Time>2022-09-24T16:51:53.000Z</Time>
            <Position>
              <LatitudeDegrees>43.32658949308097362518310546875</LatitudeDegrees>
              <LongitudeDegrees>-2.9678325913846492767333984375</LongitudeDegrees>
            </Position>
            <AltitudeMeters>-9</AltitudeMeters>
            <DistanceMeters>NAN</DistanceMeters>
          </Trackpoint>
          <Trackpoint>
            <Time>2022-09-24T16:51:54.000Z</Time>
            <Position>
              <LatitudeDegrees>43.32646728493273258209228515625</LatitudeDegrees>
              <LongitudeDegrees>-2.96794365160167217254638671875</LongitudeDegrees>
            </Position>
            <AltitudeMeters>-9.3999996185302734375</AltitudeMeters>
            <DistanceMeters>NAN</DistanceMeters>
          </Trackpoint>
          <Trackpoint>
            <Time>2022-09-24T16:51:55.000Z</Time>
            <Position>
              <LatitudeDegrees>43.32636502571403980255126953125</LatitudeDegrees>
              <LongitudeDegrees>-2.96802260912954807281494140625</LongitudeDegrees>
            </Position>
            <AltitudeMeters>-9.80000019073486328125</AltitudeMeters>
            <DistanceMeters>NAN</DistanceMeters>
          </Trackpoint>
          <Trackpoint>
            <Time>2022-09-24T16:51:56.000Z</Time>
            <Position>
              <LatitudeDegrees>43.32620526663959026336669921875</LatitudeDegrees>
              <LongitudeDegrees>-2.96812872402369976043701171875</LongitudeDegrees>
            </Position>
            <AltitudeMeters>-10.3999996185302734375</AltitudeMeters>
            <DistanceMeters>NAN</DistanceMeters>
          </Trackpoint>
          <Trackpoint>
            <Time>2022-09-24T16:51:57.000Z</Time>
            <Position>
              <LatitudeDegrees>43.3260667137801647186279296875</LatitudeDegrees>
              <LongitudeDegrees>-2.9681967012584209442138671875</LongitudeDegrees>
            </Position>
            <AltitudeMeters>-11.3999996185302734375</AltitudeMeters>
            <DistanceMeters>NAN</DistanceMeters>
          </Trackpoint>
          <Trackpoint>
            <Time>2022-09-24T16:51:58.000Z</Time>
            <Position>
              <LatitudeDegrees>43.32592614926397800445556640625</LatitudeDegrees>
              <LongitudeDegrees>-2.96824992634356021881103515625</LongitudeDegrees>
            </Position>
            <AltitudeMeters>-12.19999980926513671875</AltitudeMeters>
            <DistanceMeters>NAN</DistanceMeters>
          </Trackpoint>
          <Trackpoint>
            <Time>2022-09-24T16:51:59.000Z</Time>
            <Position>
              <LatitudeDegrees>43.325811065733432769775390625</LatitudeDegrees>
              <LongitudeDegrees>-2.9682805202901363372802734375</LongitudeDegrees>
            </Position>
            <AltitudeMeters>-12.19999980926513671875</AltitudeMeters>
            <DistanceMeters>NAN</DistanceMeters>
          </Trackpoint>
          <Trackpoint>
            <Time>2022-09-24T16:52:00.000Z</Time>
            <Position>
              <LatitudeDegrees>43.32563948817551136016845703125</LatitudeDegrees>
              <LongitudeDegrees>-2.96830876730382442474365234375</LongitudeDegrees>
            </Position>
            <AltitudeMeters>-12.6000003814697265625</AltitudeMeters>
            <DistanceMeters>NAN</DistanceMeters>
          </Trackpoint>
          <Trackpoint>
            <Time>2022-09-24T16:52:01.000Z</Time>
            <Position>
              <LatitudeDegrees>43.32549154758453369140625</LatitudeDegrees>
              <LongitudeDegrees>-2.96831111423671245574951171875</LongitudeDegrees>
            </Position>
            <AltitudeMeters>-15</AltitudeMeters>
            <DistanceMeters>NAN</DistanceMeters>
          </Trackpoint>
          <Trackpoint>
            <Time>2022-09-24T16:52:02.000Z</Time>
            <Position>
              <LatitudeDegrees>43.325345702469348907470703125</LatitudeDegrees>
              <LongitudeDegrees>-2.968295775353908538818359375</LongitudeDegrees>
            </Position>
            <AltitudeMeters>-17.6000003814697265625</AltitudeMeters>
            <DistanceMeters>NAN</DistanceMeters>
          </Trackpoint>
          <Trackpoint>
            <Time>2022-09-24T16:52:03.000Z</Time>
            <Position>
              <LatitudeDegrees>43.3252005279064178466796875</LatitudeDegrees>
              <LongitudeDegrees>-2.96826451085507869720458984375</LongitudeDegrees>
            </Position>
            <AltitudeMeters>-18.6000003814697265625</AltitudeMeters>
            <DistanceMeters>NAN</DistanceMeters>
          </Trackpoint>
          <Trackpoint>
            <Time>2022-09-24T16:52:04.000Z</Time>
            <Position>
              <LatitudeDegrees>43.32505811937153339385986328125</LatitudeDegrees>
              <LongitudeDegrees>-2.9682201705873012542724609375</LongitudeDegrees>
            </Position>
            <AltitudeMeters>-21.3999996185302734375</AltitudeMeters>
            <DistanceMeters>NAN</DistanceMeters>
          </Trackpoint>
          <Trackpoint>
            <Time>2022-09-24T16:52:05.000Z</Time>
            <Position>
              <LatitudeDegrees>43.32492065615952014923095703125</LatitudeDegrees>
              <LongitudeDegrees>-2.96816376037895679473876953125</LongitudeDegrees>
            </Position>
            <AltitudeMeters>-22.200000762939453125</AltitudeMeters>
            <DistanceMeters>NAN</DistanceMeters>
          </Trackpoint>
          <Trackpoint>
            <Time>2022-09-24T16:52:06.000Z</Time>
            <Position>
              <LatitudeDegrees>43.3247859589755535125732421875</LatitudeDegrees>
              <LongitudeDegrees>-2.9680951125919818878173828125</LongitudeDegrees>
            </Position>
            <AltitudeMeters>-28.799999237060546875</AltitudeMeters>
            <DistanceMeters>NAN</DistanceMeters>
          </Trackpoint>
          <Trackpoint>
            <Time>2022-09-24T16:52:07.000Z</Time>
            <Position>
              <LatitudeDegrees>43.32465679384768009185791015625</LatitudeDegrees>
              <LongitudeDegrees>-2.9680144786834716796875</LongitudeDegrees>
            </Position>
            <AltitudeMeters>-29.6000003814697265625</AltitudeMeters>
            <DistanceMeters>NAN</DistanceMeters>
          </Trackpoint>
          <Trackpoint>
            <Time>2022-09-24T16:52:08.000Z</Time>
            <Position>
              <LatitudeDegrees>43.32453039474785327911376953125</LatitudeDegrees>
              <LongitudeDegrees>-2.967926971614360809326171875</LongitudeDegrees>
            </Position>
            <AltitudeMeters>-31</AltitudeMeters>
            <DistanceMeters>NAN</DistanceMeters>
          </Trackpoint>
          <Trackpoint>
            <Time>2022-09-24T16:52:09.000Z</Time>
            <Position>
              <LatitudeDegrees>43.3244070969521999359130859375</LatitudeDegrees>
              <LongitudeDegrees>-2.96783544123172760009765625</LongitudeDegrees>
            </Position>
            <AltitudeMeters>-36</AltitudeMeters>
            <DistanceMeters>NAN</DistanceMeters>
          </Trackpoint>
          <Trackpoint>
            <Time>2022-09-24T16:52:10.000Z</Time>
            <Position>
              <LatitudeDegrees>43.3242840506136417388916015625</LatitudeDegrees>
              <LongitudeDegrees>-2.96774131245911121368408203125</LongitudeDegrees>
            </Position>
            <AltitudeMeters>-40.40000152587890625</AltitudeMeters>
            <DistanceMeters>NAN</DistanceMeters>
          </Trackpoint>
          <Trackpoint>
            <Time>2022-09-24T16:52:11.000Z</Time>
            <Position>
              <LatitudeDegrees>43.3241583220660686492919921875</LatitudeDegrees>
              <LongitudeDegrees>-2.96764827333390712738037109375</LongitudeDegrees>
            </Position>
            <AltitudeMeters>-40.40000152587890625</AltitudeMeters>
            <DistanceMeters>NAN</DistanceMeters>
          </Trackpoint>
          <Trackpoint>
            <Time>2022-09-24T16:52:12.000Z</Time>
            <Position>
              <LatitudeDegrees>43.3240302465856075286865234375</LatitudeDegrees>
              <LongitudeDegrees>-2.96756361611187458038330078125</LongitudeDegrees>
            </Position>
            <AltitudeMeters>-40.40000152587890625</AltitudeMeters>
            <DistanceMeters>NAN</DistanceMeters>
          </Trackpoint>
          <Trackpoint>
            <Time>2022-09-24T16:52:13.000Z</Time>
            <Position>
              <LatitudeDegrees>43.3238998241722583770751953125</LatitudeDegrees>
              <LongitudeDegrees>-2.9674896039068698883056640625</LongitudeDegrees>
            </Position>
            <AltitudeMeters>-40.40000152587890625</AltitudeMeters>
            <DistanceMeters>NAN</DistanceMeters>
          </Trackpoint>
          <Trackpoint>
            <Time>2022-09-24T16:52:14.000Z</Time>
            <Position>
              <LatitudeDegrees>43.3237670548260211944580078125</LatitudeDegrees>
              <LongitudeDegrees>-2.9674342833459377288818359375</LongitudeDegrees>
            </Position>
            <AltitudeMeters>-40.40000152587890625</AltitudeMeters>
            <DistanceMeters>NAN</DistanceMeters>
          </Trackpoint>
          <Trackpoint>
            <Time>2022-09-24T16:52:15.000Z</Time>
            <Position>
              <LatitudeDegrees>43.3236322738230228424072265625</LatitudeDegrees>
              <LongitudeDegrees>-2.9673920385539531707763671875</LongitudeDegrees>
            </Position>
            <AltitudeMeters>-40.200000762939453125</AltitudeMeters>
            <DistanceMeters>NAN</DistanceMeters>
          </Trackpoint>
          <Trackpoint>
            <Time>2022-09-24T16:52:16.000Z</Time>
            <Position>
              <LatitudeDegrees>43.323492296040058135986328125</LatitudeDegrees>
              <LongitudeDegrees>-2.967359013855457305908203125</LongitudeDegrees>
            </Position>
            <AltitudeMeters>-40.40000152587890625</AltitudeMeters>
            <DistanceMeters>NAN</DistanceMeters>
          </Trackpoint>
          <Trackpoint>
            <Time>2022-09-24T16:52:17.000Z</Time>
            <Position>
              <LatitudeDegrees>43.32335391081869602203369140625</LatitudeDegrees>
              <LongitudeDegrees>-2.96734300442039966583251953125</LongitudeDegrees>
            </Position>
            <AltitudeMeters>-43.799999237060546875</AltitudeMeters>
            <DistanceMeters>NAN</DistanceMeters>
          </Trackpoint>
          <Trackpoint>
            <Time>2022-09-24T16:52:18.000Z</Time>
            <Position>
              <LatitudeDegrees>43.323242850601673126220703125</LatitudeDegrees>
              <LongitudeDegrees>-2.96733856201171875</LongitudeDegrees>
            </Position>
            <AltitudeMeters>-47</AltitudeMeters>
            <DistanceMeters>NAN</DistanceMeters>
          </Trackpoint>
          <Trackpoint>
            <Time>2022-09-24T16:52:19.000Z</Time>
            <Position>
              <LatitudeDegrees>43.3231042139232158660888671875</LatitudeDegrees>
              <LongitudeDegrees>-2.967343591153621673583984375</LongitudeDegrees>
            </Position>
            <AltitudeMeters>-47</AltitudeMeters>
            <DistanceMeters>NAN</DistanceMeters>
          </Trackpoint>
          <Trackpoint>
            <Time>2022-09-24T16:52:20.000Z</Time>
            <Position>
              <LatitudeDegrees>43.32294386811554431915283203125</LatitudeDegrees>
              <LongitudeDegrees>-2.967373766005039215087890625</LongitudeDegrees>
            </Position>
            <AltitudeMeters>-45.40000152587890625</AltitudeMeters>
            <DistanceMeters>NAN</DistanceMeters>
          </Trackpoint>
          <Trackpoint>
            <Time>2022-09-24T16:52:21.000Z</Time>
            <Position>
              <LatitudeDegrees>43.32281411625444889068603515625</LatitudeDegrees>
              <LongitudeDegrees>-2.96741441823542118072509765625</LongitudeDegrees>
            </Position>
            <AltitudeMeters>-45.59999847412109375</AltitudeMeters>
            <DistanceMeters>NAN</DistanceMeters>
          </Trackpoint>
          <Trackpoint>
            <Time>2022-09-24T16:52:22.000Z</Time>
            <Position>
              <LatitudeDegrees>43.32268822006881237030029296875</LatitudeDegrees>
              <LongitudeDegrees>-2.96746705658733844757080078125</LongitudeDegrees>
            </Position>
            <AltitudeMeters>-45.59999847412109375</AltitudeMeters>
            <DistanceMeters>NAN</DistanceMeters>
          </Trackpoint>
          <Trackpoint>
            <Time>2022-09-24T16:52:23.000Z</Time>
            <Position>
              <LatitudeDegrees>43.32256651483476161956787109375</LatitudeDegrees>
              <LongitudeDegrees>-2.96753696165978908538818359375</LongitudeDegrees>
            </Position>
            <AltitudeMeters>-45.799999237060546875</AltitudeMeters>
            <DistanceMeters>NAN</DistanceMeters>
          </Trackpoint>
          <Trackpoint>
            <Time>2022-09-24T16:52:24.000Z</Time>
            <Position>
              <LatitudeDegrees>43.32245034165680408477783203125</LatitudeDegrees>
              <LongitudeDegrees>-2.967623881995677947998046875</LongitudeDegrees>
            </Position>
            <AltitudeMeters>-45.59999847412109375</AltitudeMeters>
            <DistanceMeters>NAN</DistanceMeters>
          </Trackpoint>
          <Trackpoint>
            <Time>2022-09-24T16:52:25.000Z</Time>
            <Position>
              <LatitudeDegrees>43.3223438076674938201904296875</LatitudeDegrees>
              <LongitudeDegrees>-2.96772681176662445068359375</LongitudeDegrees>
            </Position>
            <AltitudeMeters>-45.799999237060546875</AltitudeMeters>
            <DistanceMeters>NAN</DistanceMeters>
          </Trackpoint>
          <Trackpoint>
            <Time>2022-09-24T16:52:26.000Z</Time>
            <Position>
              <LatitudeDegrees>43.32224297337234020233154296875</LatitudeDegrees>
              <LongitudeDegrees>-2.96783410012722015380859375</LongitudeDegrees>
            </Position>
            <AltitudeMeters>-45.799999237060546875</AltitudeMeters>
            <DistanceMeters>NAN</DistanceMeters>
          </Trackpoint>
          <Trackpoint>
            <Time>2022-09-24T16:52:27.000Z</Time>
            <Position>
              <LatitudeDegrees>43.32214574329555034637451171875</LatitudeDegrees>
              <LongitudeDegrees>-2.9679472558200359344482421875</LongitudeDegrees>
            </Position>
            <AltitudeMeters>-46</AltitudeMeters>
            <DistanceMeters>NAN</DistanceMeters>
          </Trackpoint>
          <Trackpoint>
            <Time>2022-09-24T16:52:28.000Z</Time>
            <Position>
              <LatitudeDegrees>43.3220558054745197296142578125</LatitudeDegrees>
              <LongitudeDegrees>-2.96806787140667438507080078125</LongitudeDegrees>
            </Position>
            <AltitudeMeters>-46</AltitudeMeters>
            <DistanceMeters>NAN</DistanceMeters>
          </Trackpoint>
          <Trackpoint>
            <Time>2022-09-24T16:52:29.000Z</Time>
            <Position>
              <LatitudeDegrees>43.32197290845215320587158203125</LatitudeDegrees>
              <LongitudeDegrees>-2.9681982100009918212890625</LongitudeDegrees>
            </Position>
            <AltitudeMeters>-47</AltitudeMeters>
            <DistanceMeters>NAN</DistanceMeters>
          </Trackpoint>
          <Trackpoint>
            <Time>2022-09-24T16:52:30.000Z</Time>
            <Position>
              <LatitudeDegrees>43.32189805805683135986328125</LatitudeDegrees>
              <LongitudeDegrees>-2.96833525411784648895263671875</LongitudeDegrees>
            </Position>
            <AltitudeMeters>-47</AltitudeMeters>
            <DistanceMeters>NAN</DistanceMeters>
          </Trackpoint>
          <Trackpoint>
            <Time>2022-09-24T16:52:31.000Z</Time>
            <Position>
              <LatitudeDegrees>43.3218331821262836456298828125</LatitudeDegrees>
              <LongitudeDegrees>-2.96847573481500148773193359375</LongitudeDegrees>
            </Position>
            <AltitudeMeters>-47.200000762939453125</AltitudeMeters>
            <DistanceMeters>NAN</DistanceMeters>
          </Trackpoint>
          <Trackpoint>
            <Time>2022-09-24T16:52:32.000Z</Time>
            <Position>
              <LatitudeDegrees>43.321790434420108795166015625</LatitudeDegrees>
              <LongitudeDegrees>-2.96859308145940303802490234375</LongitudeDegrees>
            </Position>
            <AltitudeMeters>-47</AltitudeMeters>
            <DistanceMeters>NAN</DistanceMeters>
          </Trackpoint>
          <Trackpoint>
            <Time>2022-09-24T16:52:33.000Z</Time>
            <Position>
              <LatitudeDegrees>43.3217379637062549591064453125</LatitudeDegrees>
              <LongitudeDegrees>-2.96873574145138263702392578125</LongitudeDegrees>
            </Position>
            <AltitudeMeters>-47.59999847412109375</AltitudeMeters>
            <DistanceMeters>NAN</DistanceMeters>
          </Trackpoint>
          <Trackpoint>
            <Time>2022-09-24T16:52:34.000Z</Time>
            <Position>
              <LatitudeDegrees>43.32167543470859527587890625</LatitudeDegrees>
              <LongitudeDegrees>-2.968908660113811492919921875</LongitudeDegrees>
            </Position>
            <AltitudeMeters>-47.59999847412109375</AltitudeMeters>
            <DistanceMeters>NAN</DistanceMeters>
          </Trackpoint>
          <Trackpoint>
            <Time>2022-09-24T16:52:35.000Z</Time>
            <Position>
              <LatitudeDegrees>43.321624808013439178466796875</LatitudeDegrees>
              <LongitudeDegrees>-2.96905408613383769989013671875</LongitudeDegrees>
            </Position>
            <AltitudeMeters>-48</AltitudeMeters>
            <DistanceMeters>NAN</DistanceMeters>
          </Trackpoint>
          <Trackpoint>
            <Time>2022-09-24T16:52:36.000Z</Time>
            <Position>
              <LatitudeDegrees>43.3215753547847270965576171875</LatitudeDegrees>
              <LongitudeDegrees>-2.96919993124902248382568359375</LongitudeDegrees>
            </Position>
            <AltitudeMeters>-47.799999237060546875</AltitudeMeters>
            <DistanceMeters>NAN</DistanceMeters>
          </Trackpoint>
          <Trackpoint>
            <Time>2022-09-24T16:52:37.000Z</Time>
            <Position>
              <LatitudeDegrees>43.321535624563694000244140625</LatitudeDegrees>
              <LongitudeDegrees>-2.96931736171245574951171875</LongitudeDegrees>
            </Position>
            <AltitudeMeters>-48</AltitudeMeters>
            <DistanceMeters>NAN</DistanceMeters>
          </Trackpoint>
          <Trackpoint>
            <Time>2022-09-24T16:52:38.000Z</Time>
            <Position>
              <LatitudeDegrees>43.32147234119474887847900390625</LatitudeDegrees>
              <LongitudeDegrees>-2.9694881848990917205810546875</LongitudeDegrees>
            </Position>
            <AltitudeMeters>-47.799999237060546875</AltitudeMeters>
            <DistanceMeters>NAN</DistanceMeters>
          </Trackpoint>
          <Trackpoint>
            <Time>2022-09-24T16:52:39.000Z</Time>
            <Position>
              <LatitudeDegrees>43.3214184455573558807373046875</LatitudeDegrees>
              <LongitudeDegrees>-2.96962405554950237274169921875</LongitudeDegrees>
            </Position>
            <AltitudeMeters>-47.799999237060546875</AltitudeMeters>
            <DistanceMeters>NAN</DistanceMeters>
          </Trackpoint>
          <Trackpoint>
            <Time>2022-09-24T16:52:40.000Z</Time>
            <Position>
              <LatitudeDegrees>43.32136220298707485198974609375</LatitudeDegrees>
              <LongitudeDegrees>-2.9697543941438198089599609375</LongitudeDegrees>
            </Position>
            <AltitudeMeters>-47.200000762939453125</AltitudeMeters>
            <DistanceMeters>NAN</DistanceMeters>
          </Trackpoint>
          <Trackpoint>
            <Time>2022-09-24T16:52:41.000Z</Time>
            <Position>
              <LatitudeDegrees>43.3212994225323200225830078125</LatitudeDegrees>
              <LongitudeDegrees>-2.96987903304398059844970703125</LongitudeDegrees>
            </Position>
            <AltitudeMeters>-47.200000762939453125</AltitudeMeters>
            <DistanceMeters>NAN</DistanceMeters>
          </Trackpoint>
          <Trackpoint>
            <Time>2022-09-24T16:52:42.000Z</Time>
            <Position>
              <LatitudeDegrees>43.32122893072664737701416015625</LatitudeDegrees>
              <LongitudeDegrees>-2.969998978078365325927734375</LongitudeDegrees>
            </Position>
            <AltitudeMeters>-47.200000762939453125</AltitudeMeters>
            <DistanceMeters>NAN</DistanceMeters>
          </Trackpoint>
          <Trackpoint>
            <Time>2022-09-24T16:52:43.000Z</Time>
            <Position>
              <LatitudeDegrees>43.32115969620645046234130859375</LatitudeDegrees>
              <LongitudeDegrees>-2.97011204995214939117431640625</LongitudeDegrees>
            </Position>
            <AltitudeMeters>-47</AltitudeMeters>
            <DistanceMeters>NAN</DistanceMeters>
          </Trackpoint>
          <Trackpoint>
            <Time>2022-09-24T16:52:44.000Z</Time>
            <Position>
              <LatitudeDegrees>43.32108057104051113128662109375</LatitudeDegrees>
              <LongitudeDegrees>-2.9702177457511425018310546875</LongitudeDegrees>
            </Position>
            <AltitudeMeters>-46.59999847412109375</AltitudeMeters>
            <DistanceMeters>NAN</DistanceMeters>
          </Trackpoint>
          <Trackpoint>
            <Time>2022-09-24T16:52:45.000Z</Time>
            <Position>
              <LatitudeDegrees>43.32099574618041515350341796875</LatitudeDegrees>
              <LongitudeDegrees>-2.970316819846630096435546875</LongitudeDegrees>
            </Position>
            <AltitudeMeters>-46.40000152587890625</AltitudeMeters>
            <DistanceMeters>NAN</DistanceMeters>
          </Trackpoint>
          <Trackpoint>
            <Time>2022-09-24T16:52:46.000Z</Time>
            <Position>
              <LatitudeDegrees>43.32091125659644603729248046875</LatitudeDegrees>
              <LongitudeDegrees>-2.97041078098118305206298828125</LongitudeDegrees>
            </Position>
            <AltitudeMeters>-46.59999847412109375</AltitudeMeters>
            <DistanceMeters>NAN</DistanceMeters>
          </Trackpoint>
          <Trackpoint>
            <Time>2022-09-24T16:52:47.000Z</Time>
            <Position>
              <LatitudeDegrees>43.32082374952733516693115234375</LatitudeDegrees>
              <LongitudeDegrees>-2.970495522022247314453125</LongitudeDegrees>
            </Position>
            <AltitudeMeters>-46.59999847412109375</AltitudeMeters>
            <DistanceMeters>NAN</DistanceMeters>
          </Trackpoint>
          <Trackpoint>
            <Time>2022-09-24T16:52:48.000Z</Time>
            <Position>
              <LatitudeDegrees>43.32073490135371685028076171875</LatitudeDegrees>
              <LongitudeDegrees>-2.970574982464313507080078125</LongitudeDegrees>
            </Position>
            <AltitudeMeters>-46.59999847412109375</AltitudeMeters>
            <DistanceMeters>NAN</DistanceMeters>
          </Trackpoint>
          <Trackpoint>
            <Time>2022-09-24T16:52:49.000Z</Time>
            <Position>
              <LatitudeDegrees>43.32064236514270305633544921875</LatitudeDegrees>
              <LongitudeDegrees>-2.970644719898700714111328125</LongitudeDegrees>
            </Position>
            <AltitudeMeters>-46.59999847412109375</AltitudeMeters>
            <DistanceMeters>NAN</DistanceMeters>
          </Trackpoint>
          <Trackpoint>
            <Time>2022-09-24T16:52:50.000Z</Time>
            <Position>
              <LatitudeDegrees>43.3205460570752620697021484375</LatitudeDegrees>
              <LongitudeDegrees>-2.97070682980120182037353515625</LongitudeDegrees>
            </Position>
            <AltitudeMeters>-46.799999237060546875</AltitudeMeters>
            <DistanceMeters>NAN</DistanceMeters>
          </Trackpoint>
          <Trackpoint>
            <Time>2022-09-24T16:52:51.000Z</Time>
            <Position>
              <LatitudeDegrees>43.3204501681029796600341796875</LatitudeDegrees>
              <LongitudeDegrees>-2.9707615636289119720458984375</LongitudeDegrees>
            </Position>
            <AltitudeMeters>-47.799999237060546875</AltitudeMeters>
            <DistanceMeters>NAN</DistanceMeters>
          </Trackpoint>
          <Trackpoint>
            <Time>2022-09-24T16:52:52.000Z</Time>
            <Position>
              <LatitudeDegrees>43.3203725516796112060546875</LatitudeDegrees>
              <LongitudeDegrees>-2.97079819254577159881591796875</LongitudeDegrees>
            </Position>
            <AltitudeMeters>-48</AltitudeMeters>
            <DistanceMeters>NAN</DistanceMeters>
          </Trackpoint>
          <Trackpoint>
            <Time>2022-09-24T16:52:53.000Z</Time>
            <Position>
              <LatitudeDegrees>43.320274315774440765380859375</LatitudeDegrees>
              <LongitudeDegrees>-2.970835827291011810302734375</LongitudeDegrees>
            </Position>
            <AltitudeMeters>-48</AltitudeMeters>
            <DistanceMeters>NAN</DistanceMeters>
          </Trackpoint>
          <Trackpoint>
            <Time>2022-09-24T16:52:54.000Z</Time>
            <Position>
              <LatitudeDegrees>43.320173062384128570556640625</LatitudeDegrees>
              <LongitudeDegrees>-2.97086499631404876708984375</LongitudeDegrees>
            </Position>
            <AltitudeMeters>-48</AltitudeMeters>
            <DistanceMeters>NAN</DistanceMeters>
          </Trackpoint>
          <Trackpoint>
            <Time>2022-09-24T16:52:55.000Z</Time>
            <Position>
              <LatitudeDegrees>43.320050351321697235107421875</LatitudeDegrees>
              <LongitudeDegrees>-2.970892824232578277587890625</LongitudeDegrees>
            </Position>
            <AltitudeMeters>-48.59999847412109375</AltitudeMeters>
            <DistanceMeters>NAN</DistanceMeters>
          </Trackpoint>
          <Trackpoint>
            <Time>2022-09-24T16:52:56.000Z</Time>
            <Position>
              <LatitudeDegrees>43.31996879540383815765380859375</LatitudeDegrees>
              <LongitudeDegrees>-2.970904894173145294189453125</LongitudeDegrees>
            </Position>
            <AltitudeMeters>-48</AltitudeMeters>
            <DistanceMeters>NAN</DistanceMeters>
          </Trackpoint>
          <Trackpoint>
            <Time>2022-09-24T16:52:57.000Z</Time>
            <Position>
              <LatitudeDegrees>43.31986452452838420867919921875</LatitudeDegrees>
              <LongitudeDegrees>-2.970910929143428802490234375</LongitudeDegrees>
            </Position>
            <AltitudeMeters>-48</AltitudeMeters>
            <DistanceMeters>NAN</DistanceMeters>
          </Trackpoint>
          <Trackpoint>
            <Time>2022-09-24T16:52:58.000Z</Time>
            <Position>
              <LatitudeDegrees>43.319739215075969696044921875</LatitudeDegrees>
              <LongitudeDegrees>-2.97090128995478153228759765625</LongitudeDegrees>
            </Position>
            <AltitudeMeters>-48</AltitudeMeters>
            <DistanceMeters>NAN</DistanceMeters>
          </Trackpoint>
          <Trackpoint>
            <Time>2022-09-24T16:52:59.000Z</Time>
            <Position>
              <LatitudeDegrees>43.3196331001818180084228515625</LatitudeDegrees>
              <LongitudeDegrees>-2.970881424844264984130859375</LongitudeDegrees>
            </Position>
            <AltitudeMeters>-48.200000762939453125</AltitudeMeters>
            <DistanceMeters>NAN</DistanceMeters>
          </Trackpoint>
          <Trackpoint>
            <Time>2022-09-24T16:53:00.000Z</Time>
            <Position>
              <LatitudeDegrees>43.31952790729701519012451171875</LatitudeDegrees>
              <LongitudeDegrees>-2.970860637724399566650390625</LongitudeDegrees>
            </Position>
            <AltitudeMeters>-48.200000762939453125</AltitudeMeters>
            <DistanceMeters>NAN</DistanceMeters>
          </Trackpoint>
          <Trackpoint>
            <Time>2022-09-24T16:53:01.000Z</Time>
            <Position>
              <LatitudeDegrees>43.31942967139184474945068359375</LatitudeDegrees>
              <LongitudeDegrees>-2.97083272598683834075927734375</LongitudeDegrees>
            </Position>
            <AltitudeMeters>-48.40000152587890625</AltitudeMeters>
            <DistanceMeters>NAN</DistanceMeters>
          </Trackpoint>
          <Trackpoint>
            <Time>2022-09-24T16:53:02.000Z</Time>
            <Position>
              <LatitudeDegrees>43.3193372189998626708984375</LatitudeDegrees>
              <LongitudeDegrees>-2.9708064906299114227294921875</LongitudeDegrees>
            </Position>
            <AltitudeMeters>-48.200000762939453125</AltitudeMeters>
            <DistanceMeters>NAN</DistanceMeters>
          </Trackpoint>
          <Trackpoint>
            <Time>2022-09-24T16:53:03.000Z</Time>
            <Position>
              <LatitudeDegrees>43.31926002167165279388427734375</LatitudeDegrees>
              <LongitudeDegrees>-2.970779500901699066162109375</LongitudeDegrees>
            </Position>
            <AltitudeMeters>-48.40000152587890625</AltitudeMeters>
            <DistanceMeters>NAN</DistanceMeters>
          </Trackpoint>
          <Trackpoint>
            <Time>2022-09-24T16:53:04.000Z</Time>
            <Position>
              <LatitudeDegrees>43.31915818154811859130859375</LatitudeDegrees>
              <LongitudeDegrees>-2.97073566354811191558837890625</LongitudeDegrees>
            </Position>
            <AltitudeMeters>-48.40000152587890625</AltitudeMeters>
            <DistanceMeters>NAN</DistanceMeters>
          </Trackpoint>
          <Trackpoint>
            <Time>2022-09-24T16:53:05.000Z</Time>
            <Position>
              <LatitudeDegrees>43.31904628314077854156494140625</LatitudeDegrees>
              <LongitudeDegrees>-2.97066743485629558563232421875</LongitudeDegrees>
            </Position>
            <AltitudeMeters>-48.40000152587890625</AltitudeMeters>
            <DistanceMeters>NAN</DistanceMeters>
          </Trackpoint>
          <Trackpoint>
            <Time>2022-09-24T16:53:06.000Z</Time>
            <Position>
              <LatitudeDegrees>43.31896967254579067230224609375</LatitudeDegrees>
              <LongitudeDegrees>-2.97061747871339321136474609375</LongitudeDegrees>
            </Position>
            <AltitudeMeters>-48.40000152587890625</AltitudeMeters>
            <DistanceMeters>NAN</DistanceMeters>
          </Trackpoint>
          <Trackpoint>
            <Time>2022-09-24T16:53:07.000Z</Time>
            <Position>
              <LatitudeDegrees>43.3188767172396183013916015625</LatitudeDegrees>
              <LongitudeDegrees>-2.97054656781256198883056640625</LongitudeDegrees>
            </Position>
            <AltitudeMeters>-49</AltitudeMeters>
            <DistanceMeters>NAN</DistanceMeters>
          </Trackpoint>
          <Trackpoint>
            <Time>2022-09-24T16:53:08.000Z</Time>
            <Position>
              <LatitudeDegrees>43.31878937780857086181640625</LatitudeDegrees>
              <LongitudeDegrees>-2.97045822255313396453857421875</LongitudeDegrees>
            </Position>
            <AltitudeMeters>-49.799999237060546875</AltitudeMeters>
            <DistanceMeters>NAN</DistanceMeters>
          </Trackpoint>
          <Trackpoint>
            <Time>2022-09-24T16:53:09.000Z</Time>
            <Position>
              <LatitudeDegrees>43.3187067322432994842529296875</LatitudeDegrees>
              <LongitudeDegrees>-2.97037473879754543304443359375</LongitudeDegrees>
            </Position>
            <AltitudeMeters>-49.799999237060546875</AltitudeMeters>
            <DistanceMeters>NAN</DistanceMeters>
          </Trackpoint>
          <Trackpoint>
            <Time>2022-09-24T16:53:10.000Z</Time>
            <Position>
              <LatitudeDegrees>43.31861025653779506683349609375</LatitudeDegrees>
              <LongitudeDegrees>-2.97027222812175750732421875</LongitudeDegrees>
            </Position>
            <AltitudeMeters>-50.200000762939453125</AltitudeMeters>
            <DistanceMeters>NAN</DistanceMeters>
          </Trackpoint>
          <Trackpoint>
            <Time>2022-09-24T16:53:11.000Z</Time>
            <Position>
              <LatitudeDegrees>43.31854957155883312225341796875</LatitudeDegrees>
              <LongitudeDegrees>-2.970194108784198760986328125</LongitudeDegrees>
            </Position>
            <AltitudeMeters>-50.200000762939453125</AltitudeMeters>
            <DistanceMeters>NAN</DistanceMeters>
          </Trackpoint>
          <Trackpoint>
            <Time>2022-09-24T16:53:12.000Z</Time>
            <Position>
              <LatitudeDegrees>43.3184757269918918609619140625</LatitudeDegrees>
              <LongitudeDegrees>-2.97009562142193317413330078125</LongitudeDegrees>
            </Position>
            <AltitudeMeters>-50.200000762939453125</AltitudeMeters>
            <DistanceMeters>NAN</DistanceMeters>
          </Trackpoint>
          <Trackpoint>
            <Time>2022-09-24T16:53:13.000Z</Time>
            <Position>
              <LatitudeDegrees>43.31840808503329753875732421875</LatitudeDegrees>
              <LongitudeDegrees>-2.96999386511743068695068359375</LongitudeDegrees>
            </Position>
            <AltitudeMeters>-50.200000762939453125</AltitudeMeters>
            <DistanceMeters>NAN</DistanceMeters>
          </Trackpoint>
          <Trackpoint>
            <Time>2022-09-24T16:53:14.000Z</Time>
            <Position>
              <LatitudeDegrees>43.31834220327436923980712890625</LatitudeDegrees>
              <LongitudeDegrees>-2.969886995851993560791015625</LongitudeDegrees>
            </Position>
            <AltitudeMeters>-50.200000762939453125</AltitudeMeters>
            <DistanceMeters>NAN</DistanceMeters>
          </Trackpoint>
          <Trackpoint>
            <Time>2022-09-24T16:53:15.000Z</Time>
            <Position>
              <LatitudeDegrees>43.31827246583998203277587890625</LatitudeDegrees>
              <LongitudeDegrees>-2.96977643854916095733642578125</LongitudeDegrees>
            </Position>
            <AltitudeMeters>-50.200000762939453125</AltitudeMeters>
            <DistanceMeters>NAN</DistanceMeters>
          </Trackpoint>
          <Trackpoint>
            <Time>2022-09-24T16:53:16.000Z</Time>
            <Position>
              <LatitudeDegrees>43.31820926629006862640380859375</LatitudeDegrees>
              <LongitudeDegrees>-2.9696642048656940460205078125</LongitudeDegrees>
            </Position>
            <AltitudeMeters>-50.59999847412109375</AltitudeMeters>
            <DistanceMeters>NAN</DistanceMeters>
          </Trackpoint>
          <Trackpoint>
            <Time>2022-09-24T16:53:17.000Z</Time>
            <Position>
              <LatitudeDegrees>43.31814858131110668182373046875</LatitudeDegrees>
              <LongitudeDegrees>-2.96954828314483165740966796875</LongitudeDegrees>
            </Position>
            <AltitudeMeters>-50.200000762939453125</AltitudeMeters>
            <DistanceMeters>NAN</DistanceMeters>
          </Trackpoint>
          <Trackpoint>
            <Time>2022-09-24T16:53:18.000Z</Time>
            <Position>
              <LatitudeDegrees>43.31808806397020816802978515625</LatitudeDegrees>
              <LongitudeDegrees>-2.96943563036620616912841796875</LongitudeDegrees>
            </Position>
            <AltitudeMeters>-50.59999847412109375</AltitudeMeters>
            <DistanceMeters>NAN</DistanceMeters>
          </Trackpoint>
          <Trackpoint>
            <Time>2022-09-24T16:53:19.000Z</Time>
            <Position>
              <LatitudeDegrees>43.31802855245769023895263671875</LatitudeDegrees>
              <LongitudeDegrees>-2.969323731958866119384765625</LongitudeDegrees>
            </Position>
            <AltitudeMeters>-50.59999847412109375</AltitudeMeters>
            <DistanceMeters>NAN</DistanceMeters>
          </Trackpoint>
          <Trackpoint>
            <Time>2022-09-24T16:53:20.000Z</Time>
            <Position>
              <LatitudeDegrees>43.31796728074550628662109375</LatitudeDegrees>
              <LongitudeDegrees>-2.96921074390411376953125</LongitudeDegrees>
            </Position>
            <AltitudeMeters>-50.799999237060546875</AltitudeMeters>
            <DistanceMeters>NAN</DistanceMeters>
          </Trackpoint>
          <Trackpoint>
            <Time>2022-09-24T16:53:21.000Z</Time>
            <Position>
              <LatitudeDegrees>43.31790835596621036529541015625</LatitudeDegrees>
              <LongitudeDegrees>-2.96909733675420284271240234375</LongitudeDegrees>
            </Position>
            <AltitudeMeters>-50.799999237060546875</AltitudeMeters>
            <DistanceMeters>NAN</DistanceMeters>
          </Trackpoint>
          <Trackpoint>
            <Time>2022-09-24T16:53:22.000Z</Time>
            <Position>
              <LatitudeDegrees>43.317850939929485321044921875</LatitudeDegrees>
              <LongitudeDegrees>-2.96898208558559417724609375</LongitudeDegrees>
            </Position>
            <AltitudeMeters>-51.40000152587890625</AltitudeMeters>
            <DistanceMeters>NAN</DistanceMeters>
          </Trackpoint>
          <Trackpoint>
            <Time>2022-09-24T16:53:23.000Z</Time>
            <Position>
              <LatitudeDegrees>43.317850939929485321044921875</LatitudeDegrees>
              <LongitudeDegrees>-2.96898208558559417724609375</LongitudeDegrees>
            </Position>
            <AltitudeMeters>-51.40000152587890625</AltitudeMeters>
            <DistanceMeters>NAN</DistanceMeters>
          </Trackpoint>
          <Trackpoint>
            <Time>2022-09-24T16:53:24.000Z</Time>
            <Position>
              <LatitudeDegrees>43.3177468366920948028564453125</LatitudeDegrees>
              <LongitudeDegrees>-2.968753091990947723388671875</LongitudeDegrees>
            </Position>
            <AltitudeMeters>-51.40000152587890625</AltitudeMeters>
            <DistanceMeters>NAN</DistanceMeters>
          </Trackpoint>
          <Trackpoint>
            <Time>2022-09-24T16:53:25.000Z</Time>
            <Position>
              <LatitudeDegrees>43.3176898397505283355712890625</LatitudeDegrees>
              <LongitudeDegrees>-2.96864144504070281982421875</LongitudeDegrees>
            </Position>
            <AltitudeMeters>-51.40000152587890625</AltitudeMeters>
            <DistanceMeters>NAN</DistanceMeters>
          </Trackpoint>
          <Trackpoint>
            <Time>2022-09-24T16:53:26.000Z</Time>
            <Position>
              <LatitudeDegrees>43.3176313340663909912109375</LatitudeDegrees>
              <LongitudeDegrees>-2.96853742562234401702880859375</LongitudeDegrees>
            </Position>
            <AltitudeMeters>-51.40000152587890625</AltitudeMeters>
            <DistanceMeters>NAN</DistanceMeters>
          </Trackpoint>
          <Trackpoint>
            <Time>2022-09-24T16:53:27.000Z</Time>
            <Position>
              <LatitudeDegrees>43.31757358275353908538818359375</LatitudeDegrees>
              <LongitudeDegrees>-2.9684340767562389373779296875</LongitudeDegrees>
            </Position>
            <AltitudeMeters>-51.40000152587890625</AltitudeMeters>
            <DistanceMeters>NAN</DistanceMeters>
          </Trackpoint>
          <Trackpoint>
            <Time>2022-09-24T16:53:28.000Z</Time>
            <Position>
              <LatitudeDegrees>43.31751155667006969451904296875</LatitudeDegrees>
              <LongitudeDegrees>-2.96833139844238758087158203125</LongitudeDegrees>
            </Position>
            <AltitudeMeters>-51.59999847412109375</AltitudeMeters>
            <DistanceMeters>NAN</DistanceMeters>
          </Trackpoint>
          <Trackpoint>
            <Time>2022-09-24T16:53:29.000Z</Time>
            <Position>
              <LatitudeDegrees>43.31744332797825336456298828125</LatitudeDegrees>
              <LongitudeDegrees>-2.96823517419397830963134765625</LongitudeDegrees>
            </Position>
            <AltitudeMeters>-51.200000762939453125</AltitudeMeters>
            <DistanceMeters>NAN</DistanceMeters>
          </Trackpoint>
          <Trackpoint>
            <Time>2022-09-24T16:53:30.000Z</Time>
            <Position>
              <LatitudeDegrees>43.31737291999161243438720703125</LatitudeDegrees>
              <LongitudeDegrees>-2.96813978813588619232177734375</LongitudeDegrees>
            </Position>
            <AltitudeMeters>-51.200000762939453125</AltitudeMeters>
            <DistanceMeters>NAN</DistanceMeters>
          </Trackpoint>
          <Trackpoint>
            <Time>2022-09-24T16:53:31.000Z</Time>
            <Position>
              <LatitudeDegrees>43.31737291999161243438720703125</LatitudeDegrees>
              <LongitudeDegrees>-2.96813978813588619232177734375</LongitudeDegrees>
            </Position>
            <AltitudeMeters>-51.200000762939453125</AltitudeMeters>
            <DistanceMeters>NAN</DistanceMeters>
          </Trackpoint>
          <Trackpoint>
            <Time>2022-09-24T16:53:32.000Z</Time>
            <Position>
              <LatitudeDegrees>43.3172228001058101654052734375</LatitudeDegrees>
              <LongitudeDegrees>-2.96796661801636219024658203125</LongitudeDegrees>
            </Position>
            <AltitudeMeters>-51.200000762939453125</AltitudeMeters>
            <DistanceMeters>NAN</DistanceMeters>
          </Trackpoint>
          <Trackpoint>
            <Time>2022-09-24T16:53:33.000Z</Time>
            <Position>
              <LatitudeDegrees>43.31712045706808567047119140625</LatitudeDegrees>
              <LongitudeDegrees>-2.96788531355559825897216796875</LongitudeDegrees>
            </Position>
            <AltitudeMeters>-51.59999847412109375</AltitudeMeters>
            <DistanceMeters>NAN</DistanceMeters>
          </Trackpoint>
          <Trackpoint>
            <Time>2022-09-24T16:53:34.000Z</Time>
            <Position>
              <LatitudeDegrees>43.3170316927134990692138671875</LatitudeDegrees>
              <LongitudeDegrees>-2.96784214675426483154296875</LongitudeDegrees>
            </Position>
            <AltitudeMeters>-51.200000762939453125</AltitudeMeters>
            <DistanceMeters>NAN</DistanceMeters>
          </Trackpoint>
          <Trackpoint>
            <Time>2022-09-24T16:53:35.000Z</Time>
            <Position>
              <LatitudeDegrees>43.3169500529766082763671875</LatitudeDegrees>
              <LongitudeDegrees>-2.96783418394625186920166015625</LongitudeDegrees>
            </Position>
            <AltitudeMeters>-50</AltitudeMeters>
            <DistanceMeters>NAN</DistanceMeters>
          </Trackpoint>
          <Trackpoint>
            <Time>2022-09-24T16:53:36.000Z</Time>
            <Position>
              <LatitudeDegrees>43.31685625948011875152587890625</LatitudeDegrees>
              <LongitudeDegrees>-2.96782898716628551483154296875</LongitudeDegrees>
            </Position>
            <AltitudeMeters>-49</AltitudeMeters>
            <DistanceMeters>NAN</DistanceMeters>
          </Trackpoint>
          <Trackpoint>
            <Time>2022-09-24T16:53:37.000Z</Time>
            <Position>
              <LatitudeDegrees>43.31676565110683441162109375</LatitudeDegrees>
              <LongitudeDegrees>-2.96784675680100917816162109375</LongitudeDegrees>
            </Position>
            <AltitudeMeters>-48.59999847412109375</AltitudeMeters>
            <DistanceMeters>NAN</DistanceMeters>
          </Trackpoint>
          <Trackpoint>
            <Time>2022-09-24T16:53:38.000Z</Time>
            <Position>
              <LatitudeDegrees>43.316680826246738433837890625</LatitudeDegrees>
              <LongitudeDegrees>-2.96789201907813549041748046875</LongitudeDegrees>
            </Position>
            <AltitudeMeters>-48.59999847412109375</AltitudeMeters>
            <DistanceMeters>NAN</DistanceMeters>
          </Trackpoint>
          <Trackpoint>
            <Time>2022-09-24T16:53:39.000Z</Time>
            <Position>
              <LatitudeDegrees>43.31659943796694278717041015625</LatitudeDegrees>
              <LongitudeDegrees>-2.96794750727713108062744140625</LongitudeDegrees>
            </Position>
            <AltitudeMeters>-48.59999847412109375</AltitudeMeters>
            <DistanceMeters>NAN</DistanceMeters>
          </Trackpoint>
          <Trackpoint>
            <Time>2022-09-24T16:53:40.000Z</Time>
            <Position>
              <LatitudeDegrees>43.316523246467113494873046875</LatitudeDegrees>
              <LongitudeDegrees>-2.96801925636827945709228515625</LongitudeDegrees>
            </Position>
            <AltitudeMeters>-48.59999847412109375</AltitudeMeters>
            <DistanceMeters>NAN</DistanceMeters>
          </Trackpoint>
          <Trackpoint>
            <Time>2022-09-24T16:53:41.000Z</Time>
            <Position>
              <LatitudeDegrees>43.31644269637763500213623046875</LatitudeDegrees>
              <LongitudeDegrees>-2.968086898326873779296875</LongitudeDegrees>
            </Position>
            <AltitudeMeters>-49.59999847412109375</AltitudeMeters>
            <DistanceMeters>NAN</DistanceMeters>
          </Trackpoint>
          <Trackpoint>
            <Time>2022-09-24T16:53:42.000Z</Time>
            <Position>
              <LatitudeDegrees>43.31635602749884128570556640625</LatitudeDegrees>
              <LongitudeDegrees>-2.96814389526844024658203125</LongitudeDegrees>
            </Position>
            <AltitudeMeters>-49.799999237060546875</AltitudeMeters>
            <DistanceMeters>NAN</DistanceMeters>
          </Trackpoint>
          <Trackpoint>
            <Time>2022-09-24T16:53:43.000Z</Time>
            <Position>
              <LatitudeDegrees>43.31626784987747669219970703125</LatitudeDegrees>
              <LongitudeDegrees>-2.96818689443171024322509765625</LongitudeDegrees>
            </Position>
            <AltitudeMeters>-50.200000762939453125</AltitudeMeters>
            <DistanceMeters>NAN</DistanceMeters>
          </Trackpoint>
          <Trackpoint>
            <Time>2022-09-24T16:53:44.000Z</Time>
            <Position>
              <LatitudeDegrees>43.31616508774459362030029296875</LatitudeDegrees>
              <LongitudeDegrees>-2.968241460621356964111328125</LongitudeDegrees>
            </Position>
            <AltitudeMeters>-50.40000152587890625</AltitudeMeters>
            <DistanceMeters>NAN</DistanceMeters>
          </Trackpoint>
          <Trackpoint>
            <Time>2022-09-24T16:53:45.000Z</Time>
            <Position>
              <LatitudeDegrees>43.3161009661853313446044921875</LatitudeDegrees>
              <LongitudeDegrees>-2.96828873455524444580078125</LongitudeDegrees>
            </Position>
            <AltitudeMeters>-50.200000762939453125</AltitudeMeters>
            <DistanceMeters>NAN</DistanceMeters>
          </Trackpoint>
          <Trackpoint>
            <Time>2022-09-24T16:53:46.000Z</Time>
            <Position>
              <LatitudeDegrees>43.3160228468477725982666015625</LatitudeDegrees>
              <LongitudeDegrees>-2.96835252083837985992431640625</LongitudeDegrees>
            </Position>
            <AltitudeMeters>-50.40000152587890625</AltitudeMeters>
            <DistanceMeters>NAN</DistanceMeters>
          </Trackpoint>
          <Trackpoint>
            <Time>2022-09-24T16:53:47.000Z</Time>
            <Position>
              <LatitudeDegrees>43.31593575887382030487060546875</LatitudeDegrees>
              <LongitudeDegrees>-2.9684525169432163238525390625</LongitudeDegrees>
            </Position>
            <AltitudeMeters>-50.40000152587890625</AltitudeMeters>
            <DistanceMeters>NAN</DistanceMeters>
          </Trackpoint>
          <Trackpoint>
            <Time>2022-09-24T16:53:48.000Z</Time>
            <Position>
              <LatitudeDegrees>43.315866775810718536376953125</LatitudeDegrees>
              <LongitudeDegrees>-2.96854111365973949432373046875</LongitudeDegrees>
            </Position>
            <AltitudeMeters>-50.40000152587890625</AltitudeMeters>
            <DistanceMeters>NAN</DistanceMeters>
          </Trackpoint>
          <Trackpoint>
            <Time>2022-09-24T16:53:49.000Z</Time>
            <Position>
              <LatitudeDegrees>43.3158042468130588531494140625</LatitudeDegrees>
              <LongitudeDegrees>-2.9686060734093189239501953125</LongitudeDegrees>
            </Position>
            <AltitudeMeters>-50.59999847412109375</AltitudeMeters>
            <DistanceMeters>NAN</DistanceMeters>
          </Trackpoint>
          <Trackpoint>
            <Time>2022-09-24T16:53:50.000Z</Time>
            <Position>
              <LatitudeDegrees>43.31573425792157649993896484375</LatitudeDegrees>
              <LongitudeDegrees>-2.9686992801725864410400390625</LongitudeDegrees>
            </Position>
            <AltitudeMeters>-50.59999847412109375</AltitudeMeters>
            <DistanceMeters>NAN</DistanceMeters>
          </Trackpoint>
          <Trackpoint>
            <Time>2022-09-24T16:53:51.000Z</Time>
            <Position>
              <LatitudeDegrees>43.315678350627422332763671875</LatitudeDegrees>
              <LongitudeDegrees>-2.96881042420864105224609375</LongitudeDegrees>
            </Position>
            <AltitudeMeters>-50.59999847412109375</AltitudeMeters>
            <DistanceMeters>NAN</DistanceMeters>
          </Trackpoint>
          <Trackpoint>
            <Time>2022-09-24T16:53:52.000Z</Time>
            <Position>
              <LatitudeDegrees>43.31565094180405139923095703125</LatitudeDegrees>
              <LongitudeDegrees>-2.96893246471881866455078125</LongitudeDegrees>
            </Position>
            <AltitudeMeters>-50.59999847412109375</AltitudeMeters>
            <DistanceMeters>NAN</DistanceMeters>
          </Trackpoint>
          <Trackpoint>
            <Time>2022-09-24T16:53:53.000Z</Time>
            <Position>
              <LatitudeDegrees>43.31562696956098079681396484375</LatitudeDegrees>
              <LongitudeDegrees>-2.9690379090607166290283203125</LongitudeDegrees>
            </Position>
            <AltitudeMeters>-50.59999847412109375</AltitudeMeters>
            <DistanceMeters>NAN</DistanceMeters>
          </Trackpoint>
          <Trackpoint>
            <Time>2022-09-24T16:53:54.000Z</Time>
            <Position>
              <LatitudeDegrees>43.31558925099670886993408203125</LatitudeDegrees>
              <LongitudeDegrees>-2.96914008446037769317626953125</LongitudeDegrees>
            </Position>
            <AltitudeMeters>-50.59999847412109375</AltitudeMeters>
            <DistanceMeters>NAN</DistanceMeters>
          </Trackpoint>
          <Trackpoint>
            <Time>2022-09-24T16:53:55.000Z</Time>
            <Position>
              <LatitudeDegrees>43.31553493626415729522705078125</LatitudeDegrees>
              <LongitudeDegrees>-2.96923396177589893341064453125</LongitudeDegrees>
            </Position>
            <AltitudeMeters>-50.59999847412109375</AltitudeMeters>
            <DistanceMeters>NAN</DistanceMeters>
          </Trackpoint>
          <Trackpoint>
            <Time>2022-09-24T16:53:56.000Z</Time>
            <Position>
              <LatitudeDegrees>43.3154739998281002044677734375</LatitudeDegrees>
              <LongitudeDegrees>-2.9693081416189670562744140625</LongitudeDegrees>
            </Position>
            <AltitudeMeters>-50.59999847412109375</AltitudeMeters>
            <DistanceMeters>NAN</DistanceMeters>
          </Trackpoint>
          <Trackpoint>
            <Time>2022-09-24T16:53:57.000Z</Time>
            <Position>
              <LatitudeDegrees>43.31540434621274471282958984375</LatitudeDegrees>
              <LongitudeDegrees>-2.969374023377895355224609375</LongitudeDegrees>
            </Position>
            <AltitudeMeters>-51.40000152587890625</AltitudeMeters>
            <DistanceMeters>NAN</DistanceMeters>
          </Trackpoint>
          <Trackpoint>
            <Time>2022-09-24T16:53:58.000Z</Time>
            <Position>
              <LatitudeDegrees>43.315335698425769805908203125</LatitudeDegrees>
              <LongitudeDegrees>-2.9694422520697116851806640625</LongitudeDegrees>
            </Position>
            <AltitudeMeters>-51.200000762939453125</AltitudeMeters>
            <DistanceMeters>NAN</DistanceMeters>
          </Trackpoint>
          <Trackpoint>
            <Time>2022-09-24T16:53:59.000Z</Time>
            <Position>
              <LatitudeDegrees>43.3152691461145877838134765625</LatitudeDegrees>
              <LongitudeDegrees>-2.96951609663665294647216796875</LongitudeDegrees>
            </Position>
            <AltitudeMeters>-51.200000762939453125</AltitudeMeters>
            <DistanceMeters>NAN</DistanceMeters>
          </Trackpoint>
          <Trackpoint>
            <Time>2022-09-24T16:54:00.000Z</Time>
            <Position>
              <LatitudeDegrees>43.3152017556130886077880859375</LatitudeDegrees>
              <LongitudeDegrees>-2.9695884324610233306884765625</LongitudeDegrees>
            </Position>
            <AltitudeMeters>-50.799999237060546875</AltitudeMeters>
            <DistanceMeters>NAN</DistanceMeters>
          </Trackpoint>
          <Trackpoint>
            <Time>2022-09-24T16:54:01.000Z</Time>
            <Position>
              <LatitudeDegrees>43.31513562239706516265869140625</LatitudeDegrees>
              <LongitudeDegrees>-2.969665713608264923095703125</LongitudeDegrees>
            </Position>
            <AltitudeMeters>-50.799999237060546875</AltitudeMeters>
            <DistanceMeters>NAN</DistanceMeters>
          </Trackpoint>
          <Trackpoint>
            <Time>2022-09-24T16:54:02.000Z</Time>
            <Position>
              <LatitudeDegrees>43.31507259048521518707275390625</LatitudeDegrees>
              <LongitudeDegrees>-2.9697413183748722076416015625</LongitudeDegrees>
            </Position>
            <AltitudeMeters>-50.799999237060546875</AltitudeMeters>
            <DistanceMeters>NAN</DistanceMeters>
          </Trackpoint>
          <Trackpoint>
            <Time>2022-09-24T16:54:03.000Z</Time>
            <Position>
              <LatitudeDegrees>43.3150072954595088958740234375</LatitudeDegrees>
              <LongitudeDegrees>-2.969813235104084014892578125</LongitudeDegrees>
            </Position>
            <AltitudeMeters>-51</AltitudeMeters>
            <DistanceMeters>NAN</DistanceMeters>
          </Trackpoint>
          <Trackpoint>
            <Time>2022-09-24T16:54:04.000Z</Time>
            <Position>
              <LatitudeDegrees>43.31494283862411975860595703125</LatitudeDegrees>
              <LongitudeDegrees>-2.96988087706267833709716796875</LongitudeDegrees>
            </Position>
            <AltitudeMeters>-51</AltitudeMeters>
            <DistanceMeters>NAN</DistanceMeters>
          </Trackpoint>
          <Trackpoint>
            <Time>2022-09-24T16:54:05.000Z</Time>
            <Position>
              <LatitudeDegrees>43.3148775435984134674072265625</LatitudeDegrees>
              <LongitudeDegrees>-2.96994499862194061279296875</LongitudeDegrees>
            </Position>
            <AltitudeMeters>-50.799999237060546875</AltitudeMeters>
            <DistanceMeters>NAN</DistanceMeters>
          </Trackpoint>
          <Trackpoint>
            <Time>2022-09-24T16:54:06.000Z</Time>
            <Position>
              <LatitudeDegrees>43.3148135058581829071044921875</LatitudeDegrees>
              <LongitudeDegrees>-2.9700092040002346038818359375</LongitudeDegrees>
            </Position>
            <AltitudeMeters>-50.799999237060546875</AltitudeMeters>
            <DistanceMeters>NAN</DistanceMeters>
          </Trackpoint>
          <Trackpoint>
            <Time>2022-09-24T16:54:07.000Z</Time>
            <Position>
              <LatitudeDegrees>43.31475256942212581634521484375</LatitudeDegrees>
              <LongitudeDegrees>-2.97007240355014801025390625</LongitudeDegrees>
            </Position>
            <AltitudeMeters>-50.799999237060546875</AltitudeMeters>
            <DistanceMeters>NAN</DistanceMeters>
          </Trackpoint>
          <Trackpoint>
            <Time>2022-09-24T16:54:08.000Z</Time>
            <Position>
              <LatitudeDegrees>43.314692638814449310302734375</LatitudeDegrees>
              <LongitudeDegrees>-2.9701389558613300323486328125</LongitudeDegrees>
            </Position>
            <AltitudeMeters>-50.59999847412109375</AltitudeMeters>
            <DistanceMeters>NAN</DistanceMeters>
          </Trackpoint>
          <Trackpoint>
            <Time>2022-09-24T16:54:09.000Z</Time>
            <Position>
              <LatitudeDegrees>43.314636312425136566162109375</LatitudeDegrees>
              <LongitudeDegrees>-2.970206178724765777587890625</LongitudeDegrees>
            </Position>
            <AltitudeMeters>-50.59999847412109375</AltitudeMeters>
            <DistanceMeters>NAN</DistanceMeters>
          </Trackpoint>
          <Trackpoint>
            <Time>2022-09-24T16:54:10.000Z</Time>
            <Position>
              <LatitudeDegrees>43.31458392553031444549560546875</LatitudeDegrees>
              <LongitudeDegrees>-2.9702764190733432769775390625</LongitudeDegrees>
            </Position>
            <AltitudeMeters>-50.40000152587890625</AltitudeMeters>
            <DistanceMeters>NAN</DistanceMeters>
          </Trackpoint>
          <Trackpoint>
            <Time>2022-09-24T16:54:11.000Z</Time>
            <Position>
              <LatitudeDegrees>43.3145395852625370025634765625</LatitudeDegrees>
              <LongitudeDegrees>-2.97035596333444118499755859375</LongitudeDegrees>
            </Position>
            <AltitudeMeters>-50.40000152587890625</AltitudeMeters>
            <DistanceMeters>NAN</DistanceMeters>
          </Trackpoint>
          <Trackpoint>
            <Time>2022-09-24T16:54:12.000Z</Time>
            <Position>
              <LatitudeDegrees>43.31450295634567737579345703125</LatitudeDegrees>
              <LongitudeDegrees>-2.970440201461315155029296875</LongitudeDegrees>
            </Position>
            <AltitudeMeters>-50.200000762939453125</AltitudeMeters>
            <DistanceMeters>NAN</DistanceMeters>
          </Trackpoint>
          <Trackpoint>
            <Time>2022-09-24T16:54:13.000Z</Time>
            <Position>
              <LatitudeDegrees>43.3144690096378326416015625</LatitudeDegrees>
              <LongitudeDegrees>-2.97052795998752117156982421875</LongitudeDegrees>
            </Position>
            <AltitudeMeters>-50.200000762939453125</AltitudeMeters>
            <DistanceMeters>NAN</DistanceMeters>
          </Trackpoint>
          <Trackpoint>
            <Time>2022-09-24T16:54:14.000Z</Time>
            <Position>
              <LatitudeDegrees>43.3144390024244785308837890625</LatitudeDegrees>
              <LongitudeDegrees>-2.970619238913059234619140625</LongitudeDegrees>
            </Position>
            <AltitudeMeters>-50.200000762939453125</AltitudeMeters>
            <DistanceMeters>NAN</DistanceMeters>
          </Trackpoint>
          <Trackpoint>
            <Time>2022-09-24T16:54:15.000Z</Time>
            <Position>
              <LatitudeDegrees>43.3144168742001056671142578125</LatitudeDegrees>
              <LongitudeDegrees>-2.97070951201021671295166015625</LongitudeDegrees>
            </Position>
            <AltitudeMeters>-50.200000762939453125</AltitudeMeters>
            <DistanceMeters>NAN</DistanceMeters>
          </Trackpoint>
          <Trackpoint>
            <Time>2022-09-24T16:54:16.000Z</Time>
            <Position>
              <LatitudeDegrees>43.31439969129860401153564453125</LatitudeDegrees>
              <LongitudeDegrees>-2.97080523334443569183349609375</LongitudeDegrees>
            </Position>
            <AltitudeMeters>-50.200000762939453125</AltitudeMeters>
            <DistanceMeters>NAN</DistanceMeters>
          </Trackpoint>
          <Trackpoint>
            <Time>2022-09-24T16:54:17.000Z</Time>
            <Position>
              <LatitudeDegrees>43.31439147703349590301513671875</LatitudeDegrees>
              <LongitudeDegrees>-2.97090388834476470947265625</LongitudeDegrees>
            </Position>
            <AltitudeMeters>-50.200000762939453125</AltitudeMeters>
            <DistanceMeters>NAN</DistanceMeters>
          </Trackpoint>
          <Trackpoint>
            <Time>2022-09-24T16:54:18.000Z</Time>
            <Position>
              <LatitudeDegrees>43.31439181230962276458740234375</LatitudeDegrees>
              <LongitudeDegrees>-2.9710011184215545654296875</LongitudeDegrees>
            </Position>
            <AltitudeMeters>-50.200000762939453125</AltitudeMeters>
            <DistanceMeters>NAN</DistanceMeters>
          </Trackpoint>
          <Trackpoint>
            <Time>2022-09-24T16:54:19.000Z</Time>
            <Position>
              <LatitudeDegrees>43.31439650617539882659912109375</LatitudeDegrees>
              <LongitudeDegrees>-2.971099354326725006103515625</LongitudeDegrees>
            </Position>
            <AltitudeMeters>-50.200000762939453125</AltitudeMeters>
            <DistanceMeters>NAN</DistanceMeters>
          </Trackpoint>
          <Trackpoint>
            <Time>2022-09-24T16:54:20.000Z</Time>
            <Position>
              <LatitudeDegrees>43.31440606154501438140869140625</LatitudeDegrees>
              <LongitudeDegrees>-2.971197925508022308349609375</LongitudeDegrees>
            </Position>
            <AltitudeMeters>-50</AltitudeMeters>
            <DistanceMeters>NAN</DistanceMeters>
          </Trackpoint>
          <Trackpoint>
            <Time>2022-09-24T16:54:21.000Z</Time>
            <Position>
              <LatitudeDegrees>43.3144239149987697601318359375</LatitudeDegrees>
              <LongitudeDegrees>-2.97129959799349308013916015625</LongitudeDegrees>
            </Position>
            <AltitudeMeters>-49.40000152587890625</AltitudeMeters>
            <DistanceMeters>NAN</DistanceMeters>
          </Trackpoint>
          <Trackpoint>
            <Time>2022-09-24T16:54:22.000Z</Time>
            <Position>
              <LatitudeDegrees>43.31444847397506237030029296875</LatitudeDegrees>
              <LongitudeDegrees>-2.9713965766131877899169921875</LongitudeDegrees>
            </Position>
            <AltitudeMeters>-49.40000152587890625</AltitudeMeters>
            <DistanceMeters>NAN</DistanceMeters>
          </Trackpoint>
          <Trackpoint>
            <Time>2022-09-24T16:54:23.000Z</Time>
            <Position>
              <LatitudeDegrees>43.3144802413880825042724609375</LatitudeDegrees>
              <LongitudeDegrees>-2.9714897833764553070068359375</LongitudeDegrees>
            </Position>
            <AltitudeMeters>-49.40000152587890625</AltitudeMeters>
            <DistanceMeters>NAN</DistanceMeters>
          </Trackpoint>
          <Trackpoint>
            <Time>2022-09-24T16:54:24.000Z</Time>
            <Position>
              <LatitudeDegrees>43.31451837904751300811767578125</LatitudeDegrees>
              <LongitudeDegrees>-2.9715769551694393157958984375</LongitudeDegrees>
            </Position>
            <AltitudeMeters>-49.200000762939453125</AltitudeMeters>
            <DistanceMeters>NAN</DistanceMeters>
          </Trackpoint>
          <Trackpoint>
            <Time>2022-09-24T16:54:25.000Z</Time>
            <Position>
              <LatitudeDegrees>43.31455760635435581207275390625</LatitudeDegrees>
              <LongitudeDegrees>-2.97166605480015277862548828125</LongitudeDegrees>
            </Position>
            <AltitudeMeters>-48.40000152587890625</AltitudeMeters>
            <DistanceMeters>NAN</DistanceMeters>
          </Trackpoint>
          <Trackpoint>
            <Time>2022-09-24T16:54:26.000Z</Time>
            <Position>
              <LatitudeDegrees>43.31459566019475460052490234375</LatitudeDegrees>
              <LongitudeDegrees>-2.97175741754472255706787109375</LongitudeDegrees>
            </Position>
            <AltitudeMeters>-48.40000152587890625</AltitudeMeters>
            <DistanceMeters>NAN</DistanceMeters>
          </Trackpoint>
          <Trackpoint>
            <Time>2022-09-24T16:54:27.000Z</Time>
            <Position>
              <LatitudeDegrees>43.314635641872882843017578125</LatitudeDegrees>
              <LongitudeDegrees>-2.97184794209897518157958984375</LongitudeDegrees>
            </Position>
            <AltitudeMeters>-49.40000152587890625</AltitudeMeters>
            <DistanceMeters>NAN</DistanceMeters>
          </Trackpoint>
          <Trackpoint>
            <Time>2022-09-24T16:54:28.000Z</Time>
            <Position>
              <LatitudeDegrees>43.3146760426461696624755859375</LatitudeDegrees>
              <LongitudeDegrees>-2.97193964011967182159423828125</LongitudeDegrees>
            </Position>
            <AltitudeMeters>-49.40000152587890625</AltitudeMeters>
            <DistanceMeters>NAN</DistanceMeters>
          </Trackpoint>
          <Trackpoint>
            <Time>2022-09-24T16:54:29.000Z</Time>
            <Position>
              <LatitudeDegrees>43.31471753306686878204345703125</LatitudeDegrees>
              <LongitudeDegrees>-2.9720309190452098846435546875</LongitudeDegrees>
            </Position>
            <AltitudeMeters>-49.40000152587890625</AltitudeMeters>
            <DistanceMeters>NAN</DistanceMeters>
          </Trackpoint>
          <Trackpoint>
            <Time>2022-09-24T16:54:30.000Z</Time>
            <Position>
              <LatitudeDegrees>43.3147591911256313323974609375</LatitudeDegrees>
              <LongitudeDegrees>-2.97212052159011363983154296875</LongitudeDegrees>
            </Position>
            <AltitudeMeters>-49.40000152587890625</AltitudeMeters>
            <DistanceMeters>NAN</DistanceMeters>
          </Trackpoint>
          <Trackpoint>
            <Time>2022-09-24T16:54:31.000Z</Time>
            <Position>
              <LatitudeDegrees>43.31480118446052074432373046875</LatitudeDegrees>
              <LongitudeDegrees>-2.97220836393535137176513671875</LongitudeDegrees>
            </Position>
            <AltitudeMeters>-49.40000152587890625</AltitudeMeters>
            <DistanceMeters>NAN</DistanceMeters>
          </Trackpoint>
          <Trackpoint>
            <Time>2022-09-24T16:54:32.000Z</Time>
            <Position>
              <LatitudeDegrees>43.314840160310268402099609375</LatitudeDegrees>
              <LongitudeDegrees>-2.9722954519093036651611328125</LongitudeDegrees>
            </Position>
            <AltitudeMeters>-49.799999237060546875</AltitudeMeters>
            <DistanceMeters>NAN</DistanceMeters>
          </Trackpoint>
          <Trackpoint>
            <Time>2022-09-24T16:54:33.000Z</Time>
            <Position>
              <LatitudeDegrees>43.3148792199790477752685546875</LatitudeDegrees>
              <LongitudeDegrees>-2.9723863117396831512451171875</LongitudeDegrees>
            </Position>
            <AltitudeMeters>-49.59999847412109375</AltitudeMeters>
            <DistanceMeters>NAN</DistanceMeters>
          </Trackpoint>
          <Trackpoint>
            <Time>2022-09-24T16:54:34.000Z</Time>
            <Position>
              <LatitudeDegrees>43.31491484306752681732177734375</LatitudeDegrees>
              <LongitudeDegrees>-2.97248027287423610687255859375</LongitudeDegrees>
            </Position>
            <AltitudeMeters>-49.40000152587890625</AltitudeMeters>
            <DistanceMeters>NAN</DistanceMeters>
          </Trackpoint>
          <Trackpoint>
            <Time>2022-09-24T16:54:35.000Z</Time>
            <Position>
              <LatitudeDegrees>43.31494954414665699005126953125</LatitudeDegrees>
              <LongitudeDegrees>-2.9725737310945987701416015625</LongitudeDegrees>
            </Position>
            <AltitudeMeters>-49.59999847412109375</AltitudeMeters>
            <DistanceMeters>NAN</DistanceMeters>
          </Trackpoint>
          <Trackpoint>
            <Time>2022-09-24T16:54:36.000Z</Time>
            <Position>
              <LatitudeDegrees>43.31498592160642147064208984375</LatitudeDegrees>
              <LongitudeDegrees>-2.97266718931496143341064453125</LongitudeDegrees>
            </Position>
            <AltitudeMeters>-49.799999237060546875</AltitudeMeters>
            <DistanceMeters>NAN</DistanceMeters>
          </Trackpoint>
          <Trackpoint>
            <Time>2022-09-24T16:54:37.000Z</Time>
            <Position>
              <LatitudeDegrees>43.315022550523281097412109375</LatitudeDegrees>
              <LongitudeDegrees>-2.972759306430816650390625</LongitudeDegrees>
            </Position>
            <AltitudeMeters>-49.799999237060546875</AltitudeMeters>
            <DistanceMeters>NAN</DistanceMeters>
          </Trackpoint>
          <Trackpoint>
            <Time>2022-09-24T16:54:38.000Z</Time>
            <Position>
              <LatitudeDegrees>43.31505733542144298553466796875</LatitudeDegrees>
              <LongitudeDegrees>-2.97285259701311588287353515625</LongitudeDegrees>
            </Position>
            <AltitudeMeters>-49.799999237060546875</AltitudeMeters>
            <DistanceMeters>NAN</DistanceMeters>
          </Trackpoint>
          <Trackpoint>
            <Time>2022-09-24T16:54:39.000Z</Time>
            <Position>
              <LatitudeDegrees>43.31508683972060680389404296875</LatitudeDegrees>
              <LongitudeDegrees>-2.9729472286999225616455078125</LongitudeDegrees>
            </Position>
            <AltitudeMeters>-49.59999847412109375</AltitudeMeters>
            <DistanceMeters>NAN</DistanceMeters>
          </Trackpoint>
          <Trackpoint>
            <Time>2022-09-24T16:54:40.000Z</Time>
            <Position>
              <LatitudeDegrees>43.31511676311492919921875</LatitudeDegrees>
              <LongitudeDegrees>-2.97304236330091953277587890625</LongitudeDegrees>
            </Position>
            <AltitudeMeters>-49.799999237060546875</AltitudeMeters>
            <DistanceMeters>NAN</DistanceMeters>
          </Trackpoint>
          <Trackpoint>
            <Time>2022-09-24T16:54:41.000Z</Time>
            <Position>
              <LatitudeDegrees>43.31514702178537845611572265625</LatitudeDegrees>
              <LongitudeDegrees>-2.97313741408288478851318359375</LongitudeDegrees>
            </Position>
            <AltitudeMeters>-49.799999237060546875</AltitudeMeters>
            <DistanceMeters>NAN</DistanceMeters>
          </Trackpoint>
          <Trackpoint>
            <Time>2022-09-24T16:54:42.000Z</Time>
            <Position>
              <LatitudeDegrees>43.3151782862842082977294921875</LatitudeDegrees>
              <LongitudeDegrees>-2.9732295311987400054931640625</LongitudeDegrees>
            </Position>
            <AltitudeMeters>-49.799999237060546875</AltitudeMeters>
            <DistanceMeters>NAN</DistanceMeters>
          </Trackpoint>
          <Trackpoint>
            <Time>2022-09-24T16:54:43.000Z</Time>
            <Position>
              <LatitudeDegrees>43.31520904786884784698486328125</LatitudeDegrees>
              <LongitudeDegrees>-2.9733200557529926300048828125</LongitudeDegrees>
            </Position>
            <AltitudeMeters>-50.200000762939453125</AltitudeMeters>
            <DistanceMeters>NAN</DistanceMeters>
          </Trackpoint>
          <Trackpoint>
            <Time>2022-09-24T16:54:44.000Z</Time>
            <Position>
              <LatitudeDegrees>43.31524006091058254241943359375</LatitudeDegrees>
              <LongitudeDegrees>-2.97340831719338893890380859375</LongitudeDegrees>
            </Position>
            <AltitudeMeters>-50.200000762939453125</AltitudeMeters>
            <DistanceMeters>NAN</DistanceMeters>
          </Trackpoint>
          <Trackpoint>
            <Time>2022-09-24T16:54:45.000Z</Time>
            <Position>
              <LatitudeDegrees>43.31526822410523891448974609375</LatitudeDegrees>
              <LongitudeDegrees>-2.9734937287867069244384765625</LongitudeDegrees>
            </Position>
            <AltitudeMeters>-50.200000762939453125</AltitudeMeters>
            <DistanceMeters>NAN</DistanceMeters>
          </Trackpoint>
          <Trackpoint>
            <Time>2022-09-24T16:54:46.000Z</Time>
            <Position>
              <LatitudeDegrees>43.31526822410523891448974609375</LatitudeDegrees>
              <LongitudeDegrees>-2.9734937287867069244384765625</LongitudeDegrees>
            </Position>
            <AltitudeMeters>-50.200000762939453125</AltitudeMeters>
            <DistanceMeters>NAN</DistanceMeters>
          </Trackpoint>
          <Trackpoint>
            <Time>2022-09-24T16:54:47.000Z</Time>
            <Position>
              <LatitudeDegrees>43.31532220356166362762451171875</LatitudeDegrees>
              <LongitudeDegrees>-2.973656170070171356201171875</LongitudeDegrees>
            </Position>
            <AltitudeMeters>-50.200000762939453125</AltitudeMeters>
            <DistanceMeters>NAN</DistanceMeters>
          </Trackpoint>
          <Trackpoint>
            <Time>2022-09-24T16:54:48.000Z</Time>
            <Position>
              <LatitudeDegrees>43.315353132784366607666015625</LatitudeDegrees>
              <LongitudeDegrees>-2.97373135574162006378173828125</LongitudeDegrees>
            </Position>
            <AltitudeMeters>-49.40000152587890625</AltitudeMeters>
            <DistanceMeters>NAN</DistanceMeters>
          </Trackpoint>
          <Trackpoint>
            <Time>2022-09-24T16:54:49.000Z</Time>
            <Position>
              <LatitudeDegrees>43.315353132784366607666015625</LatitudeDegrees>
              <LongitudeDegrees>-2.97373135574162006378173828125</LongitudeDegrees>
            </Position>
            <AltitudeMeters>-49.200000762939453125</AltitudeMeters>
            <DistanceMeters>NAN</DistanceMeters>
          </Trackpoint>
          <Trackpoint>
            <Time>2022-09-24T16:54:50.000Z</Time>
            <Position>
              <LatitudeDegrees>43.3154109679162502288818359375</LatitudeDegrees>
              <LongitudeDegrees>-2.97388155944645404815673828125</LongitudeDegrees>
            </Position>
            <AltitudeMeters>-48.799999237060546875</AltitudeMeters>
            <DistanceMeters>NAN</DistanceMeters>
          </Trackpoint>
          <Trackpoint>
            <Time>2022-09-24T16:54:51.000Z</Time>
            <Position>
              <LatitudeDegrees>43.3154384605586528778076171875</LatitudeDegrees>
              <LongitudeDegrees>-2.97395548783242702484130859375</LongitudeDegrees>
            </Position>
            <AltitudeMeters>-48.59999847412109375</AltitudeMeters>
            <DistanceMeters>NAN</DistanceMeters>
          </Trackpoint>
          <Trackpoint>
            <Time>2022-09-24T16:54:52.000Z</Time>
            <Position>
              <LatitudeDegrees>43.31546419300138950347900390625</LatitudeDegrees>
              <LongitudeDegrees>-2.974029667675495147705078125</LongitudeDegrees>
            </Position>
            <AltitudeMeters>-48</AltitudeMeters>
            <DistanceMeters>NAN</DistanceMeters>
          </Trackpoint>
          <Trackpoint>
            <Time>2022-09-24T16:54:53.000Z</Time>
            <Position>
              <LatitudeDegrees>43.31548967398703098297119140625</LatitudeDegrees>
              <LongitudeDegrees>-2.9741019196808338165283203125</LongitudeDegrees>
            </Position>
            <AltitudeMeters>-47.59999847412109375</AltitudeMeters>
            <DistanceMeters>NAN</DistanceMeters>
          </Trackpoint>
          <Trackpoint>
            <Time>2022-09-24T16:54:54.000Z</Time>
            <Position>
              <LatitudeDegrees>43.31551716662943363189697265625</LatitudeDegrees>
              <LongitudeDegrees>-2.97417107038199901580810546875</LongitudeDegrees>
            </Position>
            <AltitudeMeters>-47.59999847412109375</AltitudeMeters>
            <DistanceMeters>NAN</DistanceMeters>
          </Trackpoint>
          <Trackpoint>
            <Time>2022-09-24T16:54:55.000Z</Time>
            <Position>
              <LatitudeDegrees>43.3155460841953754425048828125</LatitudeDegrees>
              <LongitudeDegrees>-2.97424030490219593048095703125</LongitudeDegrees>
            </Position>
            <AltitudeMeters>-47.200000762939453125</AltitudeMeters>
            <DistanceMeters>NAN</DistanceMeters>
          </Trackpoint>
          <Trackpoint>
            <Time>2022-09-24T16:54:56.000Z</Time>
            <Position>
              <LatitudeDegrees>43.31557609140872955322265625</LatitudeDegrees>
              <LongitudeDegrees>-2.9743084497749805450439453125</LongitudeDegrees>
            </Position>
            <AltitudeMeters>-47</AltitudeMeters>
            <DistanceMeters>NAN</DistanceMeters>
          </Trackpoint>
          <Trackpoint>
            <Time>2022-09-24T16:54:57.000Z</Time>
            <Position>
              <LatitudeDegrees>43.31560651771724224090576171875</LatitudeDegrees>
              <LongitudeDegrees>-2.97437475062906742095947265625</LongitudeDegrees>
            </Position>
            <AltitudeMeters>-46.799999237060546875</AltitudeMeters>
            <DistanceMeters>NAN</DistanceMeters>
          </Trackpoint>
          <Trackpoint>
            <Time>2022-09-24T16:54:58.000Z</Time>
            <Position>
              <LatitudeDegrees>43.31563753075897693634033203125</LatitudeDegrees>
              <LongitudeDegrees>-2.97444012947380542755126953125</LongitudeDegrees>
            </Position>
            <AltitudeMeters>-46.59999847412109375</AltitudeMeters>
            <DistanceMeters>NAN</DistanceMeters>
          </Trackpoint>
          <Trackpoint>
            <Time>2022-09-24T16:54:59.000Z</Time>
            <Position>
              <LatitudeDegrees>43.31566996872425079345703125</LatitudeDegrees>
              <LongitudeDegrees>-2.97450550831854343414306640625</LongitudeDegrees>
            </Position>
            <AltitudeMeters>-46.40000152587890625</AltitudeMeters>
            <DistanceMeters>NAN</DistanceMeters>
          </Trackpoint>
          <Trackpoint>
            <Time>2022-09-24T16:55:00.000Z</Time>
            <Position>
              <LatitudeDegrees>43.3157033286988735198974609375</LatitudeDegrees>
              <LongitudeDegrees>-2.97456786967813968658447265625</LongitudeDegrees>
            </Position>
            <AltitudeMeters>-46.200000762939453125</AltitudeMeters>
            <DistanceMeters>NAN</DistanceMeters>
          </Trackpoint>
          <Trackpoint>
            <Time>2022-09-24T16:55:01.000Z</Time>
            <Position>
              <LatitudeDegrees>43.31573434174060821533203125</LatitudeDegrees>
              <LongitudeDegrees>-2.97463224269449710845947265625</LongitudeDegrees>
            </Position>
            <AltitudeMeters>-46.200000762939453125</AltitudeMeters>
            <DistanceMeters>NAN</DistanceMeters>
          </Trackpoint>
          <Trackpoint>
            <Time>2022-09-24T16:55:02.000Z</Time>
            <Position>
              <LatitudeDegrees>43.31576577387750148773193359375</LatitudeDegrees>
              <LongitudeDegrees>-2.9746990464627742767333984375</LongitudeDegrees>
            </Position>
            <AltitudeMeters>-46.200000762939453125</AltitudeMeters>
            <DistanceMeters>NAN</DistanceMeters>
          </Trackpoint>
          <Trackpoint>
            <Time>2022-09-24T16:55:03.000Z</Time>
            <Position>
              <LatitudeDegrees>43.3157985471189022064208984375</LatitudeDegrees>
              <LongitudeDegrees>-2.97476501204073429107666015625</LongitudeDegrees>
            </Position>
            <AltitudeMeters>-46.200000762939453125</AltitudeMeters>
            <DistanceMeters>NAN</DistanceMeters>
          </Trackpoint>
          <Trackpoint>
            <Time>2022-09-24T16:55:04.000Z</Time>
            <Position>
              <LatitudeDegrees>43.315831236541271209716796875</LatitudeDegrees>
              <LongitudeDegrees>-2.97483055852353572845458984375</LongitudeDegrees>
            </Position>
            <AltitudeMeters>-46</AltitudeMeters>
            <DistanceMeters>NAN</DistanceMeters>
          </Trackpoint>
          <Trackpoint>
            <Time>2022-09-24T16:55:05.000Z</Time>
            <Position>
              <LatitudeDegrees>43.3158666081726551055908203125</LatitudeDegrees>
              <LongitudeDegrees>-2.97489476390182971954345703125</LongitudeDegrees>
            </Position>
            <AltitudeMeters>-46</AltitudeMeters>
            <DistanceMeters>NAN</DistanceMeters>
          </Trackpoint>
          <Trackpoint>
            <Time>2022-09-24T16:55:06.000Z</Time>
            <Position>
              <LatitudeDegrees>43.3158987946808338165283203125</LatitudeDegrees>
              <LongitudeDegrees>-2.97496131621301174163818359375</LongitudeDegrees>
            </Position>
            <AltitudeMeters>-46</AltitudeMeters>
            <DistanceMeters>NAN</DistanceMeters>
          </Trackpoint>
          <Trackpoint>
            <Time>2022-09-24T16:55:07.000Z</Time>
            <Position>
              <LatitudeDegrees>43.315930478274822235107421875</LatitudeDegrees>
              <LongitudeDegrees>-2.97503088600933551788330078125</LongitudeDegrees>
            </Position>
            <AltitudeMeters>-46</AltitudeMeters>
            <DistanceMeters>NAN</DistanceMeters>
          </Trackpoint>
          <Trackpoint>
            <Time>2022-09-24T16:55:08.000Z</Time>
            <Position>
              <LatitudeDegrees>43.315930478274822235107421875</LatitudeDegrees>
              <LongitudeDegrees>-2.97503088600933551788330078125</LongitudeDegrees>
            </Position>
            <AltitudeMeters>-46</AltitudeMeters>
            <DistanceMeters>NAN</DistanceMeters>
          </Trackpoint>
          <Trackpoint>
            <Time>2022-09-24T16:55:09.000Z</Time>
            <Position>
              <LatitudeDegrees>43.3160017244517803192138671875</LatitudeDegrees>
              <LongitudeDegrees>-2.97517086379230022430419921875</LongitudeDegrees>
            </Position>
            <AltitudeMeters>-46</AltitudeMeters>
            <DistanceMeters>NAN</DistanceMeters>
          </Trackpoint>
          <Trackpoint>
            <Time>2022-09-24T16:55:10.000Z</Time>
            <Position>
              <LatitudeDegrees>43.31603617407381534576416015625</LatitudeDegrees>
              <LongitudeDegrees>-2.97524143941700458526611328125</LongitudeDegrees>
            </Position>
            <AltitudeMeters>-46</AltitudeMeters>
            <DistanceMeters>NAN</DistanceMeters>
          </Trackpoint>
          <Trackpoint>
            <Time>2022-09-24T16:55:11.000Z</Time>
            <Position>
              <LatitudeDegrees>43.31607171334326267242431640625</LatitudeDegrees>
              <LongitudeDegrees>-2.97531335614621639251708984375</LongitudeDegrees>
            </Position>
            <AltitudeMeters>-46</AltitudeMeters>
            <DistanceMeters>NAN</DistanceMeters>
          </Trackpoint>
          <Trackpoint>
            <Time>2022-09-24T16:55:12.000Z</Time>
            <Position>
              <LatitudeDegrees>43.31611010245978832244873046875</LatitudeDegrees>
              <LongitudeDegrees>-2.97538510523736476898193359375</LongitudeDegrees>
            </Position>
            <AltitudeMeters>-46</AltitudeMeters>
            <DistanceMeters>NAN</DistanceMeters>
          </Trackpoint>
          <Trackpoint>
            <Time>2022-09-24T16:55:13.000Z</Time>
            <Position>
              <LatitudeDegrees>43.31615008413791656494140625</LatitudeDegrees>
              <LongitudeDegrees>-2.97545702196657657623291015625</LongitudeDegrees>
            </Position>
            <AltitudeMeters>-46</AltitudeMeters>
            <DistanceMeters>NAN</DistanceMeters>
          </Trackpoint>
          <Trackpoint>
            <Time>2022-09-24T16:55:14.000Z</Time>
            <Position>
              <LatitudeDegrees>43.31618922762572765350341796875</LatitudeDegrees>
              <LongitudeDegrees>-2.9755318723618984222412109375</LongitudeDegrees>
            </Position>
            <AltitudeMeters>-46.40000152587890625</AltitudeMeters>
            <DistanceMeters>NAN</DistanceMeters>
          </Trackpoint>
          <Trackpoint>
            <Time>2022-09-24T16:55:15.000Z</Time>
            <Position>
              <LatitudeDegrees>43.31622761674225330352783203125</LatitudeDegrees>
              <LongitudeDegrees>-2.97561275772750377655029296875</LongitudeDegrees>
            </Position>
            <AltitudeMeters>-46.59999847412109375</AltitudeMeters>
            <DistanceMeters>NAN</DistanceMeters>
          </Trackpoint>
          <Trackpoint>
            <Time>2022-09-24T16:55:16.000Z</Time>
            <Position>
              <LatitudeDegrees>43.31626567058265209197998046875</LatitudeDegrees>
              <LongitudeDegrees>-2.97569322399795055389404296875</LongitudeDegrees>
            </Position>
            <AltitudeMeters>-46.799999237060546875</AltitudeMeters>
            <DistanceMeters>NAN</DistanceMeters>
          </Trackpoint>
          <Trackpoint>
            <Time>2022-09-24T16:55:17.000Z</Time>
            <Position>
              <LatitudeDegrees>43.316303305327892303466796875</LatitudeDegrees>
              <LongitudeDegrees>-2.97577679157257080078125</LongitudeDegrees>
            </Position>
            <AltitudeMeters>-46.799999237060546875</AltitudeMeters>
            <DistanceMeters>NAN</DistanceMeters>
          </Trackpoint>
          <Trackpoint>
            <Time>2022-09-24T16:55:18.000Z</Time>
            <Position>
              <LatitudeDegrees>43.3163400180637836456298828125</LatitudeDegrees>
              <LongitudeDegrees>-2.97586329281330108642578125</LongitudeDegrees>
            </Position>
            <AltitudeMeters>-47</AltitudeMeters>
            <DistanceMeters>NAN</DistanceMeters>
          </Trackpoint>
          <Trackpoint>
            <Time>2022-09-24T16:55:19.000Z</Time>
            <Position>
              <LatitudeDegrees>43.31637941300868988037109375</LatitudeDegrees>
              <LongitudeDegrees>-2.975949458777904510498046875</LongitudeDegrees>
            </Position>
            <AltitudeMeters>-47.200000762939453125</AltitudeMeters>
            <DistanceMeters>NAN</DistanceMeters>
          </Trackpoint>
          <Trackpoint>
            <Time>2022-09-24T16:55:20.000Z</Time>
            <Position>
              <LatitudeDegrees>43.31641822122037410736083984375</LatitudeDegrees>
              <LongitudeDegrees>-2.9760357923805713653564453125</LongitudeDegrees>
            </Position>
            <AltitudeMeters>-47.40000152587890625</AltitudeMeters>
            <DistanceMeters>NAN</DistanceMeters>
          </Trackpoint>
          <Trackpoint>
            <Time>2022-09-24T16:55:21.000Z</Time>
            <Position>
              <LatitudeDegrees>43.3164563588798046112060546875</LatitudeDegrees>
              <LongitudeDegrees>-2.97612120397388935089111328125</LongitudeDegrees>
            </Position>
            <AltitudeMeters>-47.59999847412109375</AltitudeMeters>
            <DistanceMeters>NAN</DistanceMeters>
          </Trackpoint>
          <Trackpoint>
            <Time>2022-09-24T16:55:22.000Z</Time>
            <Position>
              <LatitudeDegrees>43.31649248488247394561767578125</LatitudeDegrees>
              <LongitudeDegrees>-2.9762077890336513519287109375</LongitudeDegrees>
            </Position>
            <AltitudeMeters>-48</AltitudeMeters>
            <DistanceMeters>NAN</DistanceMeters>
          </Trackpoint>
          <Trackpoint>
            <Time>2022-09-24T16:55:23.000Z</Time>
            <Position>
              <LatitudeDegrees>43.31652265973389148712158203125</LatitudeDegrees>
              <LongitudeDegrees>-2.97630594111979007720947265625</LongitudeDegrees>
            </Position>
            <AltitudeMeters>-48.200000762939453125</AltitudeMeters>
            <DistanceMeters>NAN</DistanceMeters>
          </Trackpoint>
          <Trackpoint>
            <Time>2022-09-24T16:55:24.000Z</Time>
            <Position>
              <LatitudeDegrees>43.3165490627288818359375</LatitudeDegrees>
              <LongitudeDegrees>-2.97641088254749774932861328125</LongitudeDegrees>
            </Position>
            <AltitudeMeters>-48.59999847412109375</AltitudeMeters>
            <DistanceMeters>NAN</DistanceMeters>
          </Trackpoint>
          <Trackpoint>
            <Time>2022-09-24T16:55:25.000Z</Time>
            <Position>
              <LatitudeDegrees>43.31657177768647670745849609375</LatitudeDegrees>
              <LongitudeDegrees>-2.97651850618422031402587890625</LongitudeDegrees>
            </Position>
            <AltitudeMeters>-49.200000762939453125</AltitudeMeters>
            <DistanceMeters>NAN</DistanceMeters>
          </Trackpoint>
          <Trackpoint>
            <Time>2022-09-24T16:55:26.000Z</Time>
            <Position>
              <LatitudeDegrees>43.3165906369686126708984375</LatitudeDegrees>
              <LongitudeDegrees>-2.97662495635449886322021484375</LongitudeDegrees>
            </Position>
            <AltitudeMeters>-50.40000152587890625</AltitudeMeters>
            <DistanceMeters>NAN</DistanceMeters>
          </Trackpoint>
          <Trackpoint>
            <Time>2022-09-24T16:55:27.000Z</Time>
            <Position>
              <LatitudeDegrees>43.3166065625846385955810546875</LatitudeDegrees>
              <LongitudeDegrees>-2.97673023305833339691162109375</LongitudeDegrees>
            </Position>
            <AltitudeMeters>-50.799999237060546875</AltitudeMeters>
            <DistanceMeters>NAN</DistanceMeters>
          </Trackpoint>
          <Trackpoint>
            <Time>2022-09-24T16:55:28.000Z</Time>
            <Position>
              <LatitudeDegrees>43.316622488200664520263671875</LatitudeDegrees>
              <LongitudeDegrees>-2.976835928857326507568359375</LongitudeDegrees>
            </Position>
            <AltitudeMeters>-51.799999237060546875</AltitudeMeters>
            <DistanceMeters>NAN</DistanceMeters>
          </Trackpoint>
          <Trackpoint>
            <Time>2022-09-24T16:55:29.000Z</Time>
            <Position>
              <LatitudeDegrees>43.31663690507411956787109375</LatitudeDegrees>
              <LongitudeDegrees>-2.976945899426937103271484375</LongitudeDegrees>
            </Position>
            <AltitudeMeters>-52</AltitudeMeters>
            <DistanceMeters>NAN</DistanceMeters>
          </Trackpoint>
          <Trackpoint>
            <Time>2022-09-24T16:55:30.000Z</Time>
            <Position>
              <LatitudeDegrees>43.31664872355759143829345703125</LatitudeDegrees>
              <LongitudeDegrees>-2.97706249170005321502685546875</LongitudeDegrees>
            </Position>
            <AltitudeMeters>-52.200000762939453125</AltitudeMeters>
            <DistanceMeters>NAN</DistanceMeters>
          </Trackpoint>
          <Trackpoint>
            <Time>2022-09-24T16:55:31.000Z</Time>
            <Position>
              <LatitudeDegrees>43.3166592009365558624267578125</LatitudeDegrees>
              <LongitudeDegrees>-2.9771814309060573577880859375</LongitudeDegrees>
            </Position>
            <AltitudeMeters>-52.799999237060546875</AltitudeMeters>
            <DistanceMeters>NAN</DistanceMeters>
          </Trackpoint>
          <Trackpoint>
            <Time>2022-09-24T16:55:32.000Z</Time>
            <Position>
              <LatitudeDegrees>43.31666900776326656341552734375</LatitudeDegrees>
              <LongitudeDegrees>-2.97730321995913982391357421875</LongitudeDegrees>
            </Position>
            <AltitudeMeters>-52.799999237060546875</AltitudeMeters>
            <DistanceMeters>NAN</DistanceMeters>
          </Trackpoint>
          <Trackpoint>
            <Time>2022-09-24T16:55:33.000Z</Time>
            <Position>
              <LatitudeDegrees>43.31667940132319927215576171875</LatitudeDegrees>
              <LongitudeDegrees>-2.97742827795445919036865234375</LongitudeDegrees>
            </Position>
            <AltitudeMeters>-52.799999237060546875</AltitudeMeters>
            <DistanceMeters>NAN</DistanceMeters>
          </Trackpoint>
          <Trackpoint>
            <Time>2022-09-24T16:55:34.000Z</Time>
            <Position>
              <LatitudeDegrees>43.3166890405118465423583984375</LatitudeDegrees>
              <LongitudeDegrees>-2.9775505699217319488525390625</LongitudeDegrees>
            </Position>
            <AltitudeMeters>-52.799999237060546875</AltitudeMeters>
            <DistanceMeters>NAN</DistanceMeters>
          </Trackpoint>
          <Trackpoint>
            <Time>2022-09-24T16:55:35.000Z</Time>
            <Position>
              <LatitudeDegrees>43.316701613366603851318359375</LatitudeDegrees>
              <LongitudeDegrees>-2.9776709340512752532958984375</LongitudeDegrees>
            </Position>
            <AltitudeMeters>-52.799999237060546875</AltitudeMeters>
            <DistanceMeters>NAN</DistanceMeters>
          </Trackpoint>
          <Trackpoint>
            <Time>2022-09-24T16:55:36.000Z</Time>
            <Position>
              <LatitudeDegrees>43.316701613366603851318359375</LatitudeDegrees>
              <LongitudeDegrees>-2.9776709340512752532958984375</LongitudeDegrees>
            </Position>
            <AltitudeMeters>-52.799999237060546875</AltitudeMeters>
            <DistanceMeters>NAN</DistanceMeters>
          </Trackpoint>
          <Trackpoint>
            <Time>2022-09-24T16:55:37.000Z</Time>
            <Position>
              <LatitudeDegrees>43.3167326264083385467529296875</LatitudeDegrees>
              <LongitudeDegrees>-2.97792213968932628631591796875</LongitudeDegrees>
            </Position>
            <AltitudeMeters>-53</AltitudeMeters>
            <DistanceMeters>NAN</DistanceMeters>
          </Trackpoint>
          <Trackpoint>
            <Time>2022-09-24T16:55:38.000Z</Time>
            <Position>
              <LatitudeDegrees>43.31674980930984020233154296875</LatitudeDegrees>
              <LongitudeDegrees>-2.9780440963804721832275390625</LongitudeDegrees>
            </Position>
            <AltitudeMeters>-53</AltitudeMeters>
            <DistanceMeters>NAN</DistanceMeters>
          </Trackpoint>
          <Trackpoint>
            <Time>2022-09-24T16:55:39.000Z</Time>
            <Position>
              <LatitudeDegrees>43.31676967442035675048828125</LatitudeDegrees>
              <LongitudeDegrees>-2.9781671427190303802490234375</LongitudeDegrees>
            </Position>
            <AltitudeMeters>-53.200000762939453125</AltitudeMeters>
            <DistanceMeters>NAN</DistanceMeters>
          </Trackpoint>
          <Trackpoint>
            <Time>2022-09-24T16:55:40.000Z</Time>
            <Position>
              <LatitudeDegrees>43.3167923055589199066162109375</LatitudeDegrees>
              <LongitudeDegrees>-2.97828205861151218414306640625</LongitudeDegrees>
            </Position>
            <AltitudeMeters>-53.200000762939453125</AltitudeMeters>
            <DistanceMeters>NAN</DistanceMeters>
          </Trackpoint>
          <Trackpoint>
            <Time>2022-09-24T16:55:41.000Z</Time>
            <Position>
              <LatitudeDegrees>43.31682407297194004058837890625</LatitudeDegrees>
              <LongitudeDegrees>-2.97839957289397716522216796875</LongitudeDegrees>
            </Position>
            <AltitudeMeters>-53.200000762939453125</AltitudeMeters>
            <DistanceMeters>NAN</DistanceMeters>
          </Trackpoint>
          <Trackpoint>
            <Time>2022-09-24T16:55:42.000Z</Time>
            <Position>
              <LatitudeDegrees>43.3168576844036579132080078125</LatitudeDegrees>
              <LongitudeDegrees>-2.978514991700649261474609375</LongitudeDegrees>
            </Position>
            <AltitudeMeters>-52.59999847412109375</AltitudeMeters>
            <DistanceMeters>NAN</DistanceMeters>
          </Trackpoint>
          <Trackpoint>
            <Time>2022-09-24T16:55:43.000Z</Time>
            <Position>
              <LatitudeDegrees>43.316893391311168670654296875</LatitudeDegrees>
              <LongitudeDegrees>-2.978626303374767303466796875</LongitudeDegrees>
            </Position>
            <AltitudeMeters>-52.59999847412109375</AltitudeMeters>
            <DistanceMeters>NAN</DistanceMeters>
          </Trackpoint>
          <Trackpoint>
            <Time>2022-09-24T16:55:44.000Z</Time>
            <Position>
              <LatitudeDegrees>43.31693102605640888214111328125</LatitudeDegrees>
              <LongitudeDegrees>-2.97873602248728275299072265625</LongitudeDegrees>
            </Position>
            <AltitudeMeters>-52.59999847412109375</AltitudeMeters>
            <DistanceMeters>NAN</DistanceMeters>
          </Trackpoint>
          <Trackpoint>
            <Time>2022-09-24T16:55:45.000Z</Time>
            <Position>
              <LatitudeDegrees>43.31697511486709117889404296875</LatitudeDegrees>
              <LongitudeDegrees>-2.97884515486657619476318359375</LongitudeDegrees>
            </Position>
            <AltitudeMeters>-52.59999847412109375</AltitudeMeters>
            <DistanceMeters>NAN</DistanceMeters>
          </Trackpoint>
          <Trackpoint>
            <Time>2022-09-24T16:55:46.000Z</Time>
            <Position>
              <LatitudeDegrees>43.31697511486709117889404296875</LatitudeDegrees>
              <LongitudeDegrees>-2.97884515486657619476318359375</LongitudeDegrees>
            </Position>
            <AltitudeMeters>-52.59999847412109375</AltitudeMeters>
            <DistanceMeters>NAN</DistanceMeters>
          </Trackpoint>
          <Trackpoint>
            <Time>2022-09-24T16:55:47.000Z</Time>
            <Position>
              <LatitudeDegrees>43.31707586534321308135986328125</LatitudeDegrees>
              <LongitudeDegrees>-2.979052104055881500244140625</LongitudeDegrees>
            </Position>
            <AltitudeMeters>-52.59999847412109375</AltitudeMeters>
            <DistanceMeters>NAN</DistanceMeters>
          </Trackpoint>
          <Trackpoint>
            <Time>2022-09-24T16:55:48.000Z</Time>
            <Position>
              <LatitudeDegrees>43.31712850369513034820556640625</LatitudeDegrees>
              <LongitudeDegrees>-2.9791496694087982177734375</LongitudeDegrees>
            </Position>
            <AltitudeMeters>-53</AltitudeMeters>
            <DistanceMeters>NAN</DistanceMeters>
          </Trackpoint>
          <Trackpoint>
            <Time>2022-09-24T16:55:49.000Z</Time>
            <Position>
              <LatitudeDegrees>43.3171862550079822540283203125</LatitudeDegrees>
              <LongitudeDegrees>-2.97924295999109745025634765625</LongitudeDegrees>
            </Position>
            <AltitudeMeters>-53</AltitudeMeters>
            <DistanceMeters>NAN</DistanceMeters>
          </Trackpoint>
          <Trackpoint>
            <Time>2022-09-24T16:55:50.000Z</Time>
            <Position>
              <LatitudeDegrees>43.317248784005641937255859375</LatitudeDegrees>
              <LongitudeDegrees>-2.9793293774127960205078125</LongitudeDegrees>
            </Position>
            <AltitudeMeters>-53</AltitudeMeters>
            <DistanceMeters>NAN</DistanceMeters>
          </Trackpoint>
          <Trackpoint>
            <Time>2022-09-24T16:55:51.000Z</Time>
            <Position>
              <LatitudeDegrees>43.31731374375522136688232421875</LatitudeDegrees>
              <LongitudeDegrees>-2.9794044792652130126953125</LongitudeDegrees>
            </Position>
            <AltitudeMeters>-53.40000152587890625</AltitudeMeters>
            <DistanceMeters>NAN</DistanceMeters>
          </Trackpoint>
          <Trackpoint>
            <Time>2022-09-24T16:55:52.000Z</Time>
            <Position>
              <LatitudeDegrees>43.317395634949207305908203125</LatitudeDegrees>
              <LongitudeDegrees>-2.9794847778975963592529296875</LongitudeDegrees>
            </Position>
            <AltitudeMeters>-53.40000152587890625</AltitudeMeters>
            <DistanceMeters>NAN</DistanceMeters>
          </Trackpoint>
          <Trackpoint>
            <Time>2022-09-24T16:55:53.000Z</Time>
            <Position>
              <LatitudeDegrees>43.31745087169110774993896484375</LatitudeDegrees>
              <LongitudeDegrees>-2.97954537905752658843994140625</LongitudeDegrees>
            </Position>
            <AltitudeMeters>-53.40000152587890625</AltitudeMeters>
            <DistanceMeters>NAN</DistanceMeters>
          </Trackpoint>
          <Trackpoint>
            <Time>2022-09-24T16:55:54.000Z</Time>
            <Position>
              <LatitudeDegrees>43.3175141550600528717041015625</LatitudeDegrees>
              <LongitudeDegrees>-2.97962634824216365814208984375</LongitudeDegrees>
            </Position>
            <AltitudeMeters>-53.40000152587890625</AltitudeMeters>
            <DistanceMeters>NAN</DistanceMeters>
          </Trackpoint>
          <Trackpoint>
            <Time>2022-09-24T16:55:55.000Z</Time>
            <Position>
              <LatitudeDegrees>43.3175775222480297088623046875</LatitudeDegrees>
              <LongitudeDegrees>-2.9797050543129444122314453125</LongitudeDegrees>
            </Position>
            <AltitudeMeters>-55</AltitudeMeters>
            <DistanceMeters>NAN</DistanceMeters>
          </Trackpoint>
          <Trackpoint>
            <Time>2022-09-24T16:55:56.000Z</Time>
            <Position>
              <LatitudeDegrees>43.31764264963567256927490234375</LatitudeDegrees>
              <LongitudeDegrees>-2.9797791503369808197021484375</LongitudeDegrees>
            </Position>
            <AltitudeMeters>-55.40000152587890625</AltitudeMeters>
            <DistanceMeters>NAN</DistanceMeters>
          </Trackpoint>
          <Trackpoint>
            <Time>2022-09-24T16:55:57.000Z</Time>
            <Position>
              <LatitudeDegrees>43.31770618446171283721923828125</LatitudeDegrees>
              <LongitudeDegrees>-2.97985819168388843536376953125</LongitudeDegrees>
            </Position>
            <AltitudeMeters>-55.200000762939453125</AltitudeMeters>
            <DistanceMeters>NAN</DistanceMeters>
          </Trackpoint>
          <Trackpoint>
            <Time>2022-09-24T16:55:58.000Z</Time>
            <Position>
              <LatitudeDegrees>43.3177686296403408050537109375</LatitudeDegrees>
              <LongitudeDegrees>-2.9799397476017475128173828125</LongitudeDegrees>
            </Position>
            <AltitudeMeters>-55.799999237060546875</AltitudeMeters>
            <DistanceMeters>NAN</DistanceMeters>
          </Trackpoint>
          <Trackpoint>
            <Time>2022-09-24T16:55:59.000Z</Time>
            <Position>
              <LatitudeDegrees>43.3177686296403408050537109375</LatitudeDegrees>
              <LongitudeDegrees>-2.9799397476017475128173828125</LongitudeDegrees>
            </Position>
            <AltitudeMeters>-55.799999237060546875</AltitudeMeters>
            <DistanceMeters>NAN</DistanceMeters>
          </Trackpoint>
          <Trackpoint>
            <Time>2022-09-24T16:56:00.000Z</Time>
            <Position>
              <LatitudeDegrees>43.3178903348743915557861328125</LatitudeDegrees>
              <LongitudeDegrees>-2.980091460049152374267578125</LongitudeDegrees>
            </Position>
            <AltitudeMeters>-55.200000762939453125</AltitudeMeters>
            <DistanceMeters>NAN</DistanceMeters>
          </Trackpoint>
          <Trackpoint>
            <Time>2022-09-24T16:56:01.000Z</Time>
            <Position>
              <LatitudeDegrees>43.31794959492981433868408203125</LatitudeDegrees>
              <LongitudeDegrees>-2.980165891349315643310546875</LongitudeDegrees>
            </Position>
            <AltitudeMeters>-56.40000152587890625</AltitudeMeters>
            <DistanceMeters>NAN</DistanceMeters>
          </Trackpoint>
          <Trackpoint>
            <Time>2022-09-24T16:56:02.000Z</Time>
            <Position>
              <LatitudeDegrees>43.318002484738826751708984375</LatitudeDegrees>
              <LongitudeDegrees>-2.98024711199104785919189453125</LongitudeDegrees>
            </Position>
            <AltitudeMeters>-56.40000152587890625</AltitudeMeters>
            <DistanceMeters>NAN</DistanceMeters>
          </Trackpoint>
          <Trackpoint>
            <Time>2022-09-24T16:56:03.000Z</Time>
            <Position>
              <LatitudeDegrees>43.31805101595818996429443359375</LatitudeDegrees>
              <LongitudeDegrees>-2.98033042810857295989990234375</LongitudeDegrees>
            </Position>
            <AltitudeMeters>-55.200000762939453125</AltitudeMeters>
            <DistanceMeters>NAN</DistanceMeters>
          </Trackpoint>
          <Trackpoint>
            <Time>2022-09-24T16:56:04.000Z</Time>
            <Position>
              <LatitudeDegrees>43.3180961944162845611572265625</LatitudeDegrees>
              <LongitudeDegrees>-2.9804158397018909454345703125</LongitudeDegrees>
            </Position>
            <AltitudeMeters>-55.200000762939453125</AltitudeMeters>
            <DistanceMeters>NAN</DistanceMeters>
          </Trackpoint>
          <Trackpoint>
            <Time>2022-09-24T16:56:05.000Z</Time>
            <Position>
              <LatitudeDegrees>43.31813802011311054229736328125</LatitudeDegrees>
              <LongitudeDegrees>-2.98050359822809696197509765625</LongitudeDegrees>
            </Position>
            <AltitudeMeters>-54.799999237060546875</AltitudeMeters>
            <DistanceMeters>NAN</DistanceMeters>
          </Trackpoint>
          <Trackpoint>
            <Time>2022-09-24T16:56:06.000Z</Time>
            <Position>
              <LatitudeDegrees>43.31817649304866790771484375</LatitudeDegrees>
              <LongitudeDegrees>-2.98059294931590557098388671875</LongitudeDegrees>
            </Position>
            <AltitudeMeters>-54.200000762939453125</AltitudeMeters>
            <DistanceMeters>NAN</DistanceMeters>
          </Trackpoint>
          <Trackpoint>
            <Time>2022-09-24T16:56:07.000Z</Time>
            <Position>
              <LatitudeDegrees>43.31821094267070293426513671875</LatitudeDegrees>
              <LongitudeDegrees>-2.9806813783943653106689453125</LongitudeDegrees>
            </Position>
            <AltitudeMeters>-53.40000152587890625</AltitudeMeters>
            <DistanceMeters>NAN</DistanceMeters>
          </Trackpoint>
          <Trackpoint>
            <Time>2022-09-24T16:56:08.000Z</Time>
            <Position>
              <LatitudeDegrees>43.318241536617279052734375</LatitudeDegrees>
              <LongitudeDegrees>-2.98077307641506195068359375</LongitudeDegrees>
            </Position>
            <AltitudeMeters>-52.799999237060546875</AltitudeMeters>
            <DistanceMeters>NAN</DistanceMeters>
          </Trackpoint>
          <Trackpoint>
            <Time>2022-09-24T16:56:09.000Z</Time>
            <Position>
              <LatitudeDegrees>43.31826928071677684783935546875</LatitudeDegrees>
              <LongitudeDegrees>-2.9808647744357585906982421875</LongitudeDegrees>
            </Position>
            <AltitudeMeters>-52.200000762939453125</AltitudeMeters>
            <DistanceMeters>NAN</DistanceMeters>
          </Trackpoint>
          <Trackpoint>
            <Time>2022-09-24T16:56:10.000Z</Time>
            <Position>
              <LatitudeDegrees>43.31829492934048175811767578125</LatitudeDegrees>
              <LongitudeDegrees>-2.98095705918967723846435546875</LongitudeDegrees>
            </Position>
            <AltitudeMeters>-52.200000762939453125</AltitudeMeters>
            <DistanceMeters>NAN</DistanceMeters>
          </Trackpoint>
          <Trackpoint>
            <Time>2022-09-24T16:56:11.000Z</Time>
            <Position>
              <LatitudeDegrees>43.3183168061077594757080078125</LatitudeDegrees>
              <LongitudeDegrees>-2.98104926012456417083740234375</LongitudeDegrees>
            </Position>
            <AltitudeMeters>-51.59999847412109375</AltitudeMeters>
            <DistanceMeters>NAN</DistanceMeters>
          </Trackpoint>
          <Trackpoint>
            <Time>2022-09-24T16:56:12.000Z</Time>
            <Position>
              <LatitudeDegrees>43.3183168061077594757080078125</LatitudeDegrees>
              <LongitudeDegrees>-2.98104926012456417083740234375</LongitudeDegrees>
            </Position>
            <AltitudeMeters>-51.40000152587890625</AltitudeMeters>
            <DistanceMeters>NAN</DistanceMeters>
          </Trackpoint>
          <Trackpoint>
            <Time>2022-09-24T16:56:13.000Z</Time>
            <Position>
              <LatitudeDegrees>43.31835544668138027191162109375</LatitudeDegrees>
              <LongitudeDegrees>-2.981234081089496612548828125</LongitudeDegrees>
            </Position>
            <AltitudeMeters>-51.40000152587890625</AltitudeMeters>
            <DistanceMeters>NAN</DistanceMeters>
          </Trackpoint>
          <Trackpoint>
            <Time>2022-09-24T16:56:14.000Z</Time>
            <Position>
              <LatitudeDegrees>43.318376652896404266357421875</LatitudeDegrees>
              <LongitudeDegrees>-2.98132334835827350616455078125</LongitudeDegrees>
            </Position>
            <AltitudeMeters>-50.799999237060546875</AltitudeMeters>
            <DistanceMeters>NAN</DistanceMeters>
          </Trackpoint>
          <Trackpoint>
            <Time>2022-09-24T16:56:15.000Z</Time>
            <Position>
              <LatitudeDegrees>43.318376652896404266357421875</LatitudeDegrees>
              <LongitudeDegrees>-2.98132334835827350616455078125</LongitudeDegrees>
            </Position>
            <AltitudeMeters>-50.799999237060546875</AltitudeMeters>
            <DistanceMeters>NAN</DistanceMeters>
          </Trackpoint>
          <Trackpoint>
            <Time>2022-09-24T16:56:16.000Z</Time>
            <Position>
              <LatitudeDegrees>43.318413197994232177734375</LatitudeDegrees>
              <LongitudeDegrees>-2.98149517737329006195068359375</LongitudeDegrees>
            </Position>
            <AltitudeMeters>-51</AltitudeMeters>
            <DistanceMeters>NAN</DistanceMeters>
          </Trackpoint>
          <Trackpoint>
            <Time>2022-09-24T16:56:17.000Z</Time>
            <Position>
              <LatitudeDegrees>43.31842937506735324859619140625</LatitudeDegrees>
              <LongitudeDegrees>-2.981583774089813232421875</LongitudeDegrees>
            </Position>
            <AltitudeMeters>-50.59999847412109375</AltitudeMeters>
            <DistanceMeters>NAN</DistanceMeters>
          </Trackpoint>
          <Trackpoint>
            <Time>2022-09-24T16:56:18.000Z</Time>
            <Position>
              <LatitudeDegrees>43.31844479776918888092041015625</LatitudeDegrees>
              <LongitudeDegrees>-2.9816687665879726409912109375</LongitudeDegrees>
            </Position>
            <AltitudeMeters>-50.59999847412109375</AltitudeMeters>
            <DistanceMeters>NAN</DistanceMeters>
          </Trackpoint>
          <Trackpoint>
            <Time>2022-09-24T16:56:19.000Z</Time>
            <Position>
              <LatitudeDegrees>43.31846105866134166717529296875</LatitudeDegrees>
              <LongitudeDegrees>-2.98175216652452945709228515625</LongitudeDegrees>
            </Position>
            <AltitudeMeters>-50.59999847412109375</AltitudeMeters>
            <DistanceMeters>NAN</DistanceMeters>
          </Trackpoint>
          <Trackpoint>
            <Time>2022-09-24T16:56:20.000Z</Time>
            <Position>
              <LatitudeDegrees>43.31847648136317729949951171875</LatitudeDegrees>
              <LongitudeDegrees>-2.98183615319430828094482421875</LongitudeDegrees>
            </Position>
            <AltitudeMeters>-50.59999847412109375</AltitudeMeters>
            <DistanceMeters>NAN</DistanceMeters>
          </Trackpoint>
          <Trackpoint>
            <Time>2022-09-24T16:56:21.000Z</Time>
            <Position>
              <LatitudeDegrees>43.3184965141117572784423828125</LatitudeDegrees>
              <LongitudeDegrees>-2.98193606548011302947998046875</LongitudeDegrees>
            </Position>
            <AltitudeMeters>-50.59999847412109375</AltitudeMeters>
            <DistanceMeters>NAN</DistanceMeters>
          </Trackpoint>
          <Trackpoint>
            <Time>2022-09-24T16:56:22.000Z</Time>
            <Position>
              <LatitudeDegrees>43.31851118244230747222900390625</LatitudeDegrees>
              <LongitudeDegrees>-2.98200060613453388214111328125</LongitudeDegrees>
            </Position>
            <AltitudeMeters>-50.59999847412109375</AltitudeMeters>
            <DistanceMeters>NAN</DistanceMeters>
          </Trackpoint>
          <Trackpoint>
            <Time>2022-09-24T16:56:23.000Z</Time>
            <Position>
              <LatitudeDegrees>43.3185300417244434356689453125</LatitudeDegrees>
              <LongitudeDegrees>-2.982078976929187774658203125</LongitudeDegrees>
            </Position>
            <AltitudeMeters>-50.40000152587890625</AltitudeMeters>
            <DistanceMeters>NAN</DistanceMeters>
          </Trackpoint>
          <Trackpoint>
            <Time>2022-09-24T16:56:24.000Z</Time>
            <Position>
              <LatitudeDegrees>43.31854605115950107574462890625</LatitudeDegrees>
              <LongitudeDegrees>-2.98215969465672969818115234375</LongitudeDegrees>
            </Position>
            <AltitudeMeters>-50.59999847412109375</AltitudeMeters>
            <DistanceMeters>NAN</DistanceMeters>
          </Trackpoint>
          <Trackpoint>
            <Time>2022-09-24T16:56:25.000Z</Time>
            <Position>
              <LatitudeDegrees>43.318561725318431854248046875</LatitudeDegrees>
              <LongitudeDegrees>-2.98224351368844509124755859375</LongitudeDegrees>
            </Position>
            <AltitudeMeters>-49.799999237060546875</AltitudeMeters>
            <DistanceMeters>NAN</DistanceMeters>
          </Trackpoint>
          <Trackpoint>
            <Time>2022-09-24T16:56:26.000Z</Time>
            <Position>
              <LatitudeDegrees>43.31857840530574321746826171875</LatitudeDegrees>
              <LongitudeDegrees>-2.982326410710811614990234375</LongitudeDegrees>
            </Position>
            <AltitudeMeters>-49.799999237060546875</AltitudeMeters>
            <DistanceMeters>NAN</DistanceMeters>
          </Trackpoint>
          <Trackpoint>
            <Time>2022-09-24T16:56:27.000Z</Time>
            <Position>
              <LatitudeDegrees>43.31859718076884746551513671875</LatitudeDegrees>
              <LongitudeDegrees>-2.9824080504477024078369140625</LongitudeDegrees>
            </Position>
            <AltitudeMeters>-49.799999237060546875</AltitudeMeters>
            <DistanceMeters>NAN</DistanceMeters>
          </Trackpoint>
          <Trackpoint>
            <Time>2022-09-24T16:56:28.000Z</Time>
            <Position>
              <LatitudeDegrees>43.31861662678420543670654296875</LatitudeDegrees>
              <LongitudeDegrees>-2.98248508013784885406494140625</LongitudeDegrees>
            </Position>
            <AltitudeMeters>-49.59999847412109375</AltitudeMeters>
            <DistanceMeters>NAN</DistanceMeters>
          </Trackpoint>
          <Trackpoint>
            <Time>2022-09-24T16:56:29.000Z</Time>
            <Position>
              <LatitudeDegrees>43.31863456405699253082275390625</LatitudeDegrees>
              <LongitudeDegrees>-2.9825619421899318695068359375</LongitudeDegrees>
            </Position>
            <AltitudeMeters>-49.59999847412109375</AltitudeMeters>
            <DistanceMeters>NAN</DistanceMeters>
          </Trackpoint>
          <Trackpoint>
            <Time>2022-09-24T16:56:30.000Z</Time>
            <Position>
              <LatitudeDegrees>43.31865250132977962493896484375</LatitudeDegrees>
              <LongitudeDegrees>-2.98264265991747379302978515625</LongitudeDegrees>
            </Position>
            <AltitudeMeters>-49.59999847412109375</AltitudeMeters>
            <DistanceMeters>NAN</DistanceMeters>
          </Trackpoint>
          <Trackpoint>
            <Time>2022-09-24T16:56:31.000Z</Time>
            <Position>
              <LatitudeDegrees>43.3186675049364566802978515625</LatitudeDegrees>
              <LongitudeDegrees>-2.98272329382598400115966796875</LongitudeDegrees>
            </Position>
            <AltitudeMeters>-49.59999847412109375</AltitudeMeters>
            <DistanceMeters>NAN</DistanceMeters>
          </Trackpoint>
          <Trackpoint>
            <Time>2022-09-24T16:56:32.000Z</Time>
            <Position>
              <LatitudeDegrees>43.31868753768503665924072265625</LatitudeDegrees>
              <LongitudeDegrees>-2.9828180931508541107177734375</LongitudeDegrees>
            </Position>
            <AltitudeMeters>-49.59999847412109375</AltitudeMeters>
            <DistanceMeters>NAN</DistanceMeters>
          </Trackpoint>
          <Trackpoint>
            <Time>2022-09-24T16:56:33.000Z</Time>
            <Position>
              <LatitudeDegrees>43.31870891153812408447265625</LatitudeDegrees>
              <LongitudeDegrees>-2.9828958772122859954833984375</LongitudeDegrees>
            </Position>
            <AltitudeMeters>-49.59999847412109375</AltitudeMeters>
            <DistanceMeters>NAN</DistanceMeters>
          </Trackpoint>
          <Trackpoint>
            <Time>2022-09-24T16:56:34.000Z</Time>
            <Position>
              <LatitudeDegrees>43.3187248371541500091552734375</LatitudeDegrees>
              <LongitudeDegrees>-2.98296452499926090240478515625</LongitudeDegrees>
            </Position>
            <AltitudeMeters>-50.59999847412109375</AltitudeMeters>
            <DistanceMeters>NAN</DistanceMeters>
          </Trackpoint>
          <Trackpoint>
            <Time>2022-09-24T16:56:35.000Z</Time>
            <Position>
              <LatitudeDegrees>43.31874118186533451080322265625</LatitudeDegrees>
              <LongitudeDegrees>-2.98304758965969085693359375</LongitudeDegrees>
            </Position>
            <AltitudeMeters>-50.799999237060546875</AltitudeMeters>
            <DistanceMeters>NAN</DistanceMeters>
          </Trackpoint>
          <Trackpoint>
            <Time>2022-09-24T16:56:36.000Z</Time>
            <Position>
              <LatitudeDegrees>43.318762220442295074462890625</LatitudeDegrees>
              <LongitudeDegrees>-2.983144819736480712890625</LongitudeDegrees>
            </Position>
            <AltitudeMeters>-50.799999237060546875</AltitudeMeters>
            <DistanceMeters>NAN</DistanceMeters>
          </Trackpoint>
          <Trackpoint>
            <Time>2022-09-24T16:56:37.000Z</Time>
            <Position>
              <LatitudeDegrees>43.3187751285731792449951171875</LatitudeDegrees>
              <LongitudeDegrees>-2.98322805203497409820556640625</LongitudeDegrees>
            </Position>
            <AltitudeMeters>-50.799999237060546875</AltitudeMeters>
            <DistanceMeters>NAN</DistanceMeters>
          </Trackpoint>
          <Trackpoint>
            <Time>2022-09-24T16:56:38.000Z</Time>
            <Position>
              <LatitudeDegrees>43.318786360323429107666015625</LatitudeDegrees>
              <LongitudeDegrees>-2.98331103287637233734130859375</LongitudeDegrees>
            </Position>
            <AltitudeMeters>-50.799999237060546875</AltitudeMeters>
            <DistanceMeters>NAN</DistanceMeters>
          </Trackpoint>
          <Trackpoint>
            <Time>2022-09-24T16:56:39.000Z</Time>
            <Position>
              <LatitudeDegrees>43.318796418607234954833984375</LatitudeDegrees>
              <LongitudeDegrees>-2.9833783395588397979736328125</LongitudeDegrees>
            </Position>
            <AltitudeMeters>-50.799999237060546875</AltitudeMeters>
            <DistanceMeters>NAN</DistanceMeters>
          </Trackpoint>
          <Trackpoint>
            <Time>2022-09-24T16:56:40.000Z</Time>
            <Position>
              <LatitudeDegrees>43.318810500204563140869140625</LatitudeDegrees>
              <LongitudeDegrees>-2.98346207477152347564697265625</LongitudeDegrees>
            </Position>
            <AltitudeMeters>-50.799999237060546875</AltitudeMeters>
            <DistanceMeters>NAN</DistanceMeters>
          </Trackpoint>
          <Trackpoint>
            <Time>2022-09-24T16:56:41.000Z</Time>
            <Position>
              <LatitudeDegrees>43.318826593458652496337890625</LatitudeDegrees>
              <LongitudeDegrees>-2.98354706726968288421630859375</LongitudeDegrees>
            </Position>
            <AltitudeMeters>-50</AltitudeMeters>
            <DistanceMeters>NAN</DistanceMeters>
          </Trackpoint>
          <Trackpoint>
            <Time>2022-09-24T16:56:42.000Z</Time>
            <Position>
              <LatitudeDegrees>43.31884595565497875213623046875</LatitudeDegrees>
              <LongitudeDegrees>-2.9836571216583251953125</LongitudeDegrees>
            </Position>
            <AltitudeMeters>-50</AltitudeMeters>
            <DistanceMeters>NAN</DistanceMeters>
          </Trackpoint>
          <Trackpoint>
            <Time>2022-09-24T16:56:43.000Z</Time>
            <Position>
              <LatitudeDegrees>43.3188579417765140533447265625</LatitudeDegrees>
              <LongitudeDegrees>-2.98373850993812084197998046875</LongitudeDegrees>
            </Position>
            <AltitudeMeters>-50</AltitudeMeters>
            <DistanceMeters>NAN</DistanceMeters>
          </Trackpoint>
          <Trackpoint>
            <Time>2022-09-24T16:56:44.000Z</Time>
            <Position>
              <LatitudeDegrees>43.3188760466873645782470703125</LatitudeDegrees>
              <LongitudeDegrees>-2.98383641056716442108154296875</LongitudeDegrees>
            </Position>
            <AltitudeMeters>-50</AltitudeMeters>
            <DistanceMeters>NAN</DistanceMeters>
          </Trackpoint>
          <Trackpoint>
            <Time>2022-09-24T16:56:45.000Z</Time>
            <Position>
              <LatitudeDegrees>43.31889524124562740325927734375</LatitudeDegrees>
              <LongitudeDegrees>-2.983922325074672698974609375</LongitudeDegrees>
            </Position>
            <AltitudeMeters>-49.799999237060546875</AltitudeMeters>
            <DistanceMeters>NAN</DistanceMeters>
          </Trackpoint>
          <Trackpoint>
            <Time>2022-09-24T16:56:46.000Z</Time>
            <Position>
              <LatitudeDegrees>43.31891317851841449737548828125</LatitudeDegrees>
              <LongitudeDegrees>-2.98400455154478549957275390625</LongitudeDegrees>
            </Position>
            <AltitudeMeters>-49.40000152587890625</AltitudeMeters>
            <DistanceMeters>NAN</DistanceMeters>
          </Trackpoint>
          <Trackpoint>
            <Time>2022-09-24T16:56:47.000Z</Time>
            <Position>
              <LatitudeDegrees>43.3189327083528041839599609375</LatitudeDegrees>
              <LongitudeDegrees>-2.98410697840154170989990234375</LongitudeDegrees>
            </Position>
            <AltitudeMeters>-49.200000762939453125</AltitudeMeters>
            <DistanceMeters>NAN</DistanceMeters>
          </Trackpoint>
          <Trackpoint>
            <Time>2022-09-24T16:56:48.000Z</Time>
            <Position>
              <LatitudeDegrees>43.3189437724649906158447265625</LatitudeDegrees>
              <LongitudeDegrees>-2.9841756261885166168212890625</LongitudeDegrees>
            </Position>
            <AltitudeMeters>-49.200000762939453125</AltitudeMeters>
            <DistanceMeters>NAN</DistanceMeters>
          </Trackpoint>
          <Trackpoint>
            <Time>2022-09-24T16:56:49.000Z</Time>
            <Position>
              <LatitudeDegrees>43.318953998386859893798828125</LatitudeDegrees>
              <LongitudeDegrees>-2.98424494452774524688720703125</LongitudeDegrees>
            </Position>
            <AltitudeMeters>-49.200000762939453125</AltitudeMeters>
            <DistanceMeters>NAN</DistanceMeters>
          </Trackpoint>
          <Trackpoint>
            <Time>2022-09-24T16:56:50.000Z</Time>
            <Position>
              <LatitudeDegrees>43.31896841526031494140625</LatitudeDegrees>
              <LongitudeDegrees>-2.98434921540319919586181640625</LongitudeDegrees>
            </Position>
            <AltitudeMeters>-49.799999237060546875</AltitudeMeters>
            <DistanceMeters>NAN</DistanceMeters>
          </Trackpoint>
          <Trackpoint>
            <Time>2022-09-24T16:56:51.000Z</Time>
            <Position>
              <LatitudeDegrees>43.31897922791540622711181640625</LatitudeDegrees>
              <LongitudeDegrees>-2.98443119041621685028076171875</LongitudeDegrees>
            </Position>
            <AltitudeMeters>-49.799999237060546875</AltitudeMeters>
            <DistanceMeters>NAN</DistanceMeters>
          </Trackpoint>
          <Trackpoint>
            <Time>2022-09-24T16:56:52.000Z</Time>
            <Position>
              <LatitudeDegrees>43.3189853467047214508056640625</LatitudeDegrees>
              <LongitudeDegrees>-2.98451886512339115142822265625</LongitudeDegrees>
            </Position>
            <AltitudeMeters>-50</AltitudeMeters>
            <DistanceMeters>NAN</DistanceMeters>
          </Trackpoint>
          <Trackpoint>
            <Time>2022-09-24T16:56:53.000Z</Time>
            <Position>
              <LatitudeDegrees>43.31898140721023082733154296875</LatitudeDegrees>
              <LongitudeDegrees>-2.98461542464792728424072265625</LongitudeDegrees>
            </Position>
            <AltitudeMeters>-50</AltitudeMeters>
            <DistanceMeters>NAN</DistanceMeters>
          </Trackpoint>
          <Trackpoint>
            <Time>2022-09-24T16:56:54.000Z</Time>
            <Position>
              <LatitudeDegrees>43.3189778029918670654296875</LatitudeDegrees>
              <LongitudeDegrees>-2.98470921814441680908203125</LongitudeDegrees>
            </Position>
            <AltitudeMeters>-50.59999847412109375</AltitudeMeters>
            <DistanceMeters>NAN</DistanceMeters>
          </Trackpoint>
          <Trackpoint>
            <Time>2022-09-24T16:56:55.000Z</Time>
            <Position>
              <LatitudeDegrees>43.31897252239286899566650390625</LatitudeDegrees>
              <LongitudeDegrees>-2.98479907214641571044921875</LongitudeDegrees>
            </Position>
            <AltitudeMeters>-50.59999847412109375</AltitudeMeters>
            <DistanceMeters>NAN</DistanceMeters>
          </Trackpoint>
          <Trackpoint>
            <Time>2022-09-24T16:56:56.000Z</Time>
            <Position>
              <LatitudeDegrees>43.31896372139453887939453125</LatitudeDegrees>
              <LongitudeDegrees>-2.98488750122487545013427734375</LongitudeDegrees>
            </Position>
            <AltitudeMeters>-49.799999237060546875</AltitudeMeters>
            <DistanceMeters>NAN</DistanceMeters>
          </Trackpoint>
          <Trackpoint>
            <Time>2022-09-24T16:56:57.000Z</Time>
            <Position>
              <LatitudeDegrees>43.3189511485397815704345703125</LatitudeDegrees>
              <LongitudeDegrees>-2.98497534357011318206787109375</LongitudeDegrees>
            </Position>
            <AltitudeMeters>-49.799999237060546875</AltitudeMeters>
            <DistanceMeters>NAN</DistanceMeters>
          </Trackpoint>
          <Trackpoint>
            <Time>2022-09-24T16:56:58.000Z</Time>
            <Position>
              <LatitudeDegrees>43.31894201226532459259033203125</LatitudeDegrees>
              <LongitudeDegrees>-2.9850681312382221221923828125</LongitudeDegrees>
            </Position>
            <AltitudeMeters>-49.799999237060546875</AltitudeMeters>
            <DistanceMeters>NAN</DistanceMeters>
          </Trackpoint>
          <Trackpoint>
            <Time>2022-09-24T16:56:59.000Z</Time>
            <Position>
              <LatitudeDegrees>43.31893212161958217620849609375</LatitudeDegrees>
              <LongitudeDegrees>-2.98515840433537960052490234375</LongitudeDegrees>
            </Position>
            <AltitudeMeters>-49.59999847412109375</AltitudeMeters>
            <DistanceMeters>NAN</DistanceMeters>
          </Trackpoint>
          <Trackpoint>
            <Time>2022-09-24T16:57:00.000Z</Time>
            <Position>
              <LatitudeDegrees>43.3189132623374462127685546875</LatitudeDegrees>
              <LongitudeDegrees>-2.98524834215641021728515625</LongitudeDegrees>
            </Position>
            <AltitudeMeters>-49.59999847412109375</AltitudeMeters>
            <DistanceMeters>NAN</DistanceMeters>
          </Trackpoint>
          <Trackpoint>
            <Time>2022-09-24T16:57:01.000Z</Time>
            <Position>
              <LatitudeDegrees>43.31889255903661251068115234375</LatitudeDegrees>
              <LongitudeDegrees>-2.9853410460054874420166015625</LongitudeDegrees>
            </Position>
            <AltitudeMeters>-49.59999847412109375</AltitudeMeters>
            <DistanceMeters>NAN</DistanceMeters>
          </Trackpoint>
          <Trackpoint>
            <Time>2022-09-24T16:57:02.000Z</Time>
            <Position>
              <LatitudeDegrees>43.3188659884035587310791015625</LatitudeDegrees>
              <LongitudeDegrees>-2.98542779870331287384033203125</LongitudeDegrees>
            </Position>
            <AltitudeMeters>-49.40000152587890625</AltitudeMeters>
            <DistanceMeters>NAN</DistanceMeters>
          </Trackpoint>
          <Trackpoint>
            <Time>2022-09-24T16:57:03.000Z</Time>
            <Position>
              <LatitudeDegrees>43.31883363425731658935546875</LatitudeDegrees>
              <LongitudeDegrees>-2.9855177365243434906005859375</LongitudeDegrees>
            </Position>
            <AltitudeMeters>-49.40000152587890625</AltitudeMeters>
            <DistanceMeters>NAN</DistanceMeters>
          </Trackpoint>
          <Trackpoint>
            <Time>2022-09-24T16:57:04.000Z</Time>
            <Position>
              <LatitudeDegrees>43.318799771368503570556640625</LatitudeDegrees>
              <LongitudeDegrees>-2.98559694550931453704833984375</LongitudeDegrees>
            </Position>
            <AltitudeMeters>-48.200000762939453125</AltitudeMeters>
            <DistanceMeters>NAN</DistanceMeters>
          </Trackpoint>
          <Trackpoint>
            <Time>2022-09-24T16:57:05.000Z</Time>
            <Position>
              <LatitudeDegrees>43.31876917742192745208740234375</LatitudeDegrees>
              <LongitudeDegrees>-2.98566810786724090576171875</LongitudeDegrees>
            </Position>
            <AltitudeMeters>-48.200000762939453125</AltitudeMeters>
            <DistanceMeters>NAN</DistanceMeters>
          </Trackpoint>
          <Trackpoint>
            <Time>2022-09-24T16:57:06.000Z</Time>
            <Position>
              <LatitudeDegrees>43.3187338896095752716064453125</LatitudeDegrees>
              <LongitudeDegrees>-2.98573792912065982818603515625</LongitudeDegrees>
            </Position>
            <AltitudeMeters>-48.200000762939453125</AltitudeMeters>
            <DistanceMeters>NAN</DistanceMeters>
          </Trackpoint>
          <Trackpoint>
            <Time>2022-09-24T16:57:07.000Z</Time>
            <Position>
              <LatitudeDegrees>43.31869424320757389068603515625</LatitudeDegrees>
              <LongitudeDegrees>-2.9858033917844295501708984375</LongitudeDegrees>
            </Position>
            <AltitudeMeters>-48.200000762939453125</AltitudeMeters>
            <DistanceMeters>NAN</DistanceMeters>
          </Trackpoint>
          <Trackpoint>
            <Time>2022-09-24T16:57:08.000Z</Time>
            <Position>
              <LatitudeDegrees>43.3186504058539867401123046875</LatitudeDegrees>
              <LongitudeDegrees>-2.98586851917207241058349609375</LongitudeDegrees>
            </Position>
            <AltitudeMeters>-48.200000762939453125</AltitudeMeters>
            <DistanceMeters>NAN</DistanceMeters>
          </Trackpoint>
          <Trackpoint>
            <Time>2022-09-24T16:57:09.000Z</Time>
            <Position>
              <LatitudeDegrees>43.3186051435768604278564453125</LatitudeDegrees>
              <LongitudeDegrees>-2.98592769540846347808837890625</LongitudeDegrees>
            </Position>
            <AltitudeMeters>-48.200000762939453125</AltitudeMeters>
            <DistanceMeters>NAN</DistanceMeters>
          </Trackpoint>
          <Trackpoint>
            <Time>2022-09-24T16:57:10.000Z</Time>
            <Position>
              <LatitudeDegrees>43.318559043109416961669921875</LatitudeDegrees>
              <LongitudeDegrees>-2.9859847761690616607666015625</LongitudeDegrees>
            </Position>
            <AltitudeMeters>-48.40000152587890625</AltitudeMeters>
            <DistanceMeters>NAN</DistanceMeters>
          </Trackpoint>
          <Trackpoint>
            <Time>2022-09-24T16:57:11.000Z</Time>
            <Position>
              <LatitudeDegrees>43.3185110986232757568359375</LatitudeDegrees>
              <LongitudeDegrees>-2.98603825271129608154296875</LongitudeDegrees>
            </Position>
            <AltitudeMeters>-48.40000152587890625</AltitudeMeters>
            <DistanceMeters>NAN</DistanceMeters>
          </Trackpoint>
          <Trackpoint>
            <Time>2022-09-24T16:57:12.000Z</Time>
            <Position>
              <LatitudeDegrees>43.31846172921359539031982421875</LatitudeDegrees>
              <LongitudeDegrees>-2.9860877059400081634521484375</LongitudeDegrees>
            </Position>
            <AltitudeMeters>-48.40000152587890625</AltitudeMeters>
            <DistanceMeters>NAN</DistanceMeters>
          </Trackpoint>
          <Trackpoint>
            <Time>2022-09-24T16:57:13.000Z</Time>
            <Position>
              <LatitudeDegrees>43.31841244362294673919677734375</LatitudeDegrees>
              <LongitudeDegrees>-2.98612986691296100616455078125</LongitudeDegrees>
            </Position>
            <AltitudeMeters>-47.40000152587890625</AltitudeMeters>
            <DistanceMeters>NAN</DistanceMeters>
          </Trackpoint>
          <Trackpoint>
            <Time>2022-09-24T16:57:14.000Z</Time>
            <Position>
              <LatitudeDegrees>43.318359889090061187744140625</LatitudeDegrees>
              <LongitudeDegrees>-2.98616833984851837158203125</LongitudeDegrees>
            </Position>
            <AltitudeMeters>-47.40000152587890625</AltitudeMeters>
            <DistanceMeters>NAN</DistanceMeters>
          </Trackpoint>
          <Trackpoint>
            <Time>2022-09-24T16:57:15.000Z</Time>
            <Position>
              <LatitudeDegrees>43.31830649636685848236083984375</LatitudeDegrees>
              <LongitudeDegrees>-2.98620454967021942138671875</LongitudeDegrees>
            </Position>
            <AltitudeMeters>-46.40000152587890625</AltitudeMeters>
            <DistanceMeters>NAN</DistanceMeters>
          </Trackpoint>
          <Trackpoint>
            <Time>2022-09-24T16:57:16.000Z</Time>
            <Position>
              <LatitudeDegrees>43.31825427711009979248046875</LatitudeDegrees>
              <LongitudeDegrees>-2.98623464070260524749755859375</LongitudeDegrees>
            </Position>
            <AltitudeMeters>-46.40000152587890625</AltitudeMeters>
            <DistanceMeters>NAN</DistanceMeters>
          </Trackpoint>
          <Trackpoint>
            <Time>2022-09-24T16:57:17.000Z</Time>
            <Position>
              <LatitudeDegrees>43.31820121966302394866943359375</LatitudeDegrees>
              <LongitudeDegrees>-2.98626297153532505035400390625</LongitudeDegrees>
            </Position>
            <AltitudeMeters>-46.200000762939453125</AltitudeMeters>
            <DistanceMeters>NAN</DistanceMeters>
          </Trackpoint>
          <Trackpoint>
            <Time>2022-09-24T16:57:18.000Z</Time>
            <Position>
              <LatitudeDegrees>43.31815260462462902069091796875</LatitudeDegrees>
              <LongitudeDegrees>-2.98628945834934711456298828125</LongitudeDegrees>
            </Position>
            <AltitudeMeters>-46</AltitudeMeters>
            <DistanceMeters>NAN</DistanceMeters>
          </Trackpoint>
          <Trackpoint>
            <Time>2022-09-24T16:57:19.000Z</Time>
            <Position>
              <LatitudeDegrees>43.3181008882820606231689453125</LatitudeDegrees>
              <LongitudeDegrees>-2.9863111674785614013671875</LongitudeDegrees>
            </Position>
            <AltitudeMeters>-46</AltitudeMeters>
            <DistanceMeters>NAN</DistanceMeters>
          </Trackpoint>
          <Trackpoint>
            <Time>2022-09-24T16:57:20.000Z</Time>
            <Position>
              <LatitudeDegrees>43.3180452324450016021728515625</LatitudeDegrees>
              <LongitudeDegrees>-2.98632147721946239471435546875</LongitudeDegrees>
            </Position>
            <AltitudeMeters>-45.59999847412109375</AltitudeMeters>
            <DistanceMeters>NAN</DistanceMeters>
          </Trackpoint>
          <Trackpoint>
            <Time>2022-09-24T16:57:21.000Z</Time>
            <Position>
              <LatitudeDegrees>43.317989744246006011962890625</LatitudeDegrees>
              <LongitudeDegrees>-2.98633790574967861175537109375</LongitudeDegrees>
            </Position>
            <AltitudeMeters>-45.59999847412109375</AltitudeMeters>
            <DistanceMeters>NAN</DistanceMeters>
          </Trackpoint>
          <Trackpoint>
            <Time>2022-09-24T16:57:22.000Z</Time>
            <Position>
              <LatitudeDegrees>43.31793735735118389129638671875</LatitudeDegrees>
              <LongitudeDegrees>-2.98635886050760746002197265625</LongitudeDegrees>
            </Position>
            <AltitudeMeters>-45.40000152587890625</AltitudeMeters>
            <DistanceMeters>NAN</DistanceMeters>
          </Trackpoint>
          <Trackpoint>
            <Time>2022-09-24T16:57:23.000Z</Time>
            <Position>
              <LatitudeDegrees>43.31793735735118389129638671875</LatitudeDegrees>
              <LongitudeDegrees>-2.98635886050760746002197265625</LongitudeDegrees>
            </Position>
            <AltitudeMeters>-45</AltitudeMeters>
            <DistanceMeters>NAN</DistanceMeters>
          </Trackpoint>
          <Trackpoint>
            <Time>2022-09-24T16:57:24.000Z</Time>
            <Position>
              <LatitudeDegrees>43.31782520748674869537353515625</LatitudeDegrees>
              <LongitudeDegrees>-2.98637009225785732269287109375</LongitudeDegrees>
            </Position>
            <AltitudeMeters>-44.200000762939453125</AltitudeMeters>
            <DistanceMeters>NAN</DistanceMeters>
          </Trackpoint>
          <Trackpoint>
            <Time>2022-09-24T16:57:25.000Z</Time>
            <Position>
              <LatitudeDegrees>43.317770473659038543701171875</LatitudeDegrees>
              <LongitudeDegrees>-2.98637193627655506134033203125</LongitudeDegrees>
            </Position>
            <AltitudeMeters>-44.200000762939453125</AltitudeMeters>
            <DistanceMeters>NAN</DistanceMeters>
          </Trackpoint>
          <Trackpoint>
            <Time>2022-09-24T16:57:26.000Z</Time>
            <Position>
              <LatitudeDegrees>43.317713476717472076416015625</LatitudeDegrees>
              <LongitudeDegrees>-2.986366488039493560791015625</LongitudeDegrees>
            </Position>
            <AltitudeMeters>-43.799999237060546875</AltitudeMeters>
            <DistanceMeters>NAN</DistanceMeters>
          </Trackpoint>
          <Trackpoint>
            <Time>2022-09-24T16:57:27.000Z</Time>
            <Position>
              <LatitudeDegrees>43.31765756942331790924072265625</LatitudeDegrees>
              <LongitudeDegrees>-2.9863579384982585906982421875</LongitudeDegrees>
            </Position>
            <AltitudeMeters>-43.59999847412109375</AltitudeMeters>
            <DistanceMeters>NAN</DistanceMeters>
          </Trackpoint>
          <Trackpoint>
            <Time>2022-09-24T16:57:28.000Z</Time>
            <Position>
              <LatitudeDegrees>43.31760342232882976531982421875</LatitudeDegrees>
              <LongitudeDegrees>-2.9863478802144527435302734375</LongitudeDegrees>
            </Position>
            <AltitudeMeters>-43.59999847412109375</AltitudeMeters>
            <DistanceMeters>NAN</DistanceMeters>
          </Trackpoint>
          <Trackpoint>
            <Time>2022-09-24T16:57:29.000Z</Time>
            <Position>
              <LatitudeDegrees>43.3175490237772464752197265625</LatitudeDegrees>
              <LongitudeDegrees>-2.9863384924829006195068359375</LongitudeDegrees>
            </Position>
            <AltitudeMeters>-43.59999847412109375</AltitudeMeters>
            <DistanceMeters>NAN</DistanceMeters>
          </Trackpoint>
          <Trackpoint>
            <Time>2022-09-24T16:57:30.000Z</Time>
            <Position>
              <LatitudeDegrees>43.3174940384924411773681640625</LatitudeDegrees>
              <LongitudeDegrees>-2.98632684163749217987060546875</LongitudeDegrees>
            </Position>
            <AltitudeMeters>-43.59999847412109375</AltitudeMeters>
            <DistanceMeters>NAN</DistanceMeters>
          </Trackpoint>
          <Trackpoint>
            <Time>2022-09-24T16:57:31.000Z</Time>
            <Position>
              <LatitudeDegrees>43.31743930466473102569580078125</LatitudeDegrees>
              <LongitudeDegrees>-2.98631024546921253204345703125</LongitudeDegrees>
            </Position>
            <AltitudeMeters>-43.59999847412109375</AltitudeMeters>
            <DistanceMeters>NAN</DistanceMeters>
          </Trackpoint>
          <Trackpoint>
            <Time>2022-09-24T16:57:32.000Z</Time>
            <Position>
              <LatitudeDegrees>43.31738851033151149749755859375</LatitudeDegrees>
              <LongitudeDegrees>-2.98629079945385456085205078125</LongitudeDegrees>
            </Position>
            <AltitudeMeters>-43.40000152587890625</AltitudeMeters>
            <DistanceMeters>NAN</DistanceMeters>
          </Trackpoint>
          <Trackpoint>
            <Time>2022-09-24T16:57:33.000Z</Time>
            <Position>
              <LatitudeDegrees>43.31733754836022853851318359375</LatitudeDegrees>
              <LongitudeDegrees>-2.9862657375633716583251953125</LongitudeDegrees>
            </Position>
            <AltitudeMeters>-43.40000152587890625</AltitudeMeters>
            <DistanceMeters>NAN</DistanceMeters>
          </Trackpoint>
          <Trackpoint>
            <Time>2022-09-24T16:57:34.000Z</Time>
            <Position>
              <LatitudeDegrees>43.31728692166507244110107421875</LatitudeDegrees>
              <LongitudeDegrees>-2.986238412559032440185546875</LongitudeDegrees>
            </Position>
            <AltitudeMeters>-43.200000762939453125</AltitudeMeters>
            <DistanceMeters>NAN</DistanceMeters>
          </Trackpoint>
          <Trackpoint>
            <Time>2022-09-24T16:57:35.000Z</Time>
            <Position>
              <LatitudeDegrees>43.31723646260797977447509765625</LatitudeDegrees>
              <LongitudeDegrees>-2.98620966263115406036376953125</LongitudeDegrees>
            </Position>
            <AltitudeMeters>-43</AltitudeMeters>
            <DistanceMeters>NAN</DistanceMeters>
          </Trackpoint>
          <Trackpoint>
            <Time>2022-09-24T16:57:36.000Z</Time>
            <Position>
              <LatitudeDegrees>43.31718617118895053863525390625</LatitudeDegrees>
              <LongitudeDegrees>-2.98617948777973651885986328125</LongitudeDegrees>
            </Position>
            <AltitudeMeters>-43</AltitudeMeters>
            <DistanceMeters>NAN</DistanceMeters>
          </Trackpoint>
          <Trackpoint>
            <Time>2022-09-24T16:57:37.000Z</Time>
            <Position>
              <LatitudeDegrees>43.317135460674762725830078125</LatitudeDegrees>
              <LongitudeDegrees>-2.98614847473800182342529296875</LongitudeDegrees>
            </Position>
            <AltitudeMeters>-43</AltitudeMeters>
            <DistanceMeters>NAN</DistanceMeters>
          </Trackpoint>
          <Trackpoint>
            <Time>2022-09-24T16:57:38.000Z</Time>
            <Position>
              <LatitudeDegrees>43.3170855045318603515625</LatitudeDegrees>
              <LongitudeDegrees>-2.9861198924481868743896484375</LongitudeDegrees>
            </Position>
            <AltitudeMeters>-42.799999237060546875</AltitudeMeters>
            <DistanceMeters>NAN</DistanceMeters>
          </Trackpoint>
          <Trackpoint>
            <Time>2022-09-24T16:57:39.000Z</Time>
            <Position>
              <LatitudeDegrees>43.31703479401767253875732421875</LatitudeDegrees>
              <LongitudeDegrees>-2.98609457910060882568359375</LongitudeDegrees>
            </Position>
            <AltitudeMeters>-42.799999237060546875</AltitudeMeters>
            <DistanceMeters>NAN</DistanceMeters>
          </Trackpoint>
          <Trackpoint>
            <Time>2022-09-24T16:57:40.000Z</Time>
            <Position>
              <LatitudeDegrees>43.316982574760913848876953125</LatitudeDegrees>
              <LongitudeDegrees>-2.98606884665787220001220703125</LongitudeDegrees>
            </Position>
            <AltitudeMeters>-42.799999237060546875</AltitudeMeters>
            <DistanceMeters>NAN</DistanceMeters>
          </Trackpoint>
          <Trackpoint>
            <Time>2022-09-24T16:57:41.000Z</Time>
            <Position>
              <LatitudeDegrees>43.3169307745993137359619140625</LatitudeDegrees>
              <LongitudeDegrees>-2.98604135401546955108642578125</LongitudeDegrees>
            </Position>
            <AltitudeMeters>-42.799999237060546875</AltitudeMeters>
            <DistanceMeters>NAN</DistanceMeters>
          </Trackpoint>
          <Trackpoint>
            <Time>2022-09-24T16:57:42.000Z</Time>
            <Position>
              <LatitudeDegrees>43.316881991922855377197265625</LatitudeDegrees>
              <LongitudeDegrees>-2.98601335845887660980224609375</LongitudeDegrees>
            </Position>
            <AltitudeMeters>-41.799999237060546875</AltitudeMeters>
            <DistanceMeters>NAN</DistanceMeters>
          </Trackpoint>
          <Trackpoint>
            <Time>2022-09-24T16:57:43.000Z</Time>
            <Position>
              <LatitudeDegrees>43.3168311975896358489990234375</LatitudeDegrees>
              <LongitudeDegrees>-2.98598519526422023773193359375</LongitudeDegrees>
            </Position>
            <AltitudeMeters>-41.799999237060546875</AltitudeMeters>
            <DistanceMeters>NAN</DistanceMeters>
          </Trackpoint>
          <Trackpoint>
            <Time>2022-09-24T16:57:44.000Z</Time>
            <Position>
              <LatitudeDegrees>43.3167812414467334747314453125</LatitudeDegrees>
              <LongitudeDegrees>-2.985961139202117919921875</LongitudeDegrees>
            </Position>
            <AltitudeMeters>-41.59999847412109375</AltitudeMeters>
            <DistanceMeters>NAN</DistanceMeters>
          </Trackpoint>
          <Trackpoint>
            <Time>2022-09-24T16:57:45.000Z</Time>
            <Position>
              <LatitudeDegrees>43.31673103384673595428466796875</LatitudeDegrees>
              <LongitudeDegrees>-2.985935322940349578857421875</LongitudeDegrees>
            </Position>
            <AltitudeMeters>-41.40000152587890625</AltitudeMeters>
            <DistanceMeters>NAN</DistanceMeters>
          </Trackpoint>
          <Trackpoint>
            <Time>2022-09-24T16:57:46.000Z</Time>
            <Position>
              <LatitudeDegrees>43.31668040715157985687255859375</LatitudeDegrees>
              <LongitudeDegrees>-2.985909841954708099365234375</LongitudeDegrees>
            </Position>
            <AltitudeMeters>-41.40000152587890625</AltitudeMeters>
            <DistanceMeters>NAN</DistanceMeters>
          </Trackpoint>
          <Trackpoint>
            <Time>2022-09-24T16:57:47.000Z</Time>
            <Position>
              <LatitudeDegrees>43.31662944518029689788818359375</LatitudeDegrees>
              <LongitudeDegrees>-2.98588209785521030426025390625</LongitudeDegrees>
            </Position>
            <AltitudeMeters>-41</AltitudeMeters>
            <DistanceMeters>NAN</DistanceMeters>
          </Trackpoint>
          <Trackpoint>
            <Time>2022-09-24T16:57:48.000Z</Time>
            <Position>
              <LatitudeDegrees>43.3165780641138553619384765625</LatitudeDegrees>
              <LongitudeDegrees>-2.985856868326663970947265625</LongitudeDegrees>
            </Position>
            <AltitudeMeters>-41</AltitudeMeters>
            <DistanceMeters>NAN</DistanceMeters>
          </Trackpoint>
          <Trackpoint>
            <Time>2022-09-24T16:57:49.000Z</Time>
            <Position>
              <LatitudeDegrees>43.3165274374186992645263671875</LatitudeDegrees>
              <LongitudeDegrees>-2.98582862131297588348388671875</LongitudeDegrees>
            </Position>
            <AltitudeMeters>-40.59999847412109375</AltitudeMeters>
            <DistanceMeters>NAN</DistanceMeters>
          </Trackpoint>
          <Trackpoint>
            <Time>2022-09-24T16:57:50.000Z</Time>
            <Position>
              <LatitudeDegrees>43.3164779841899871826171875</LatitudeDegrees>
              <LongitudeDegrees>-2.985801883041858673095703125</LongitudeDegrees>
            </Position>
            <AltitudeMeters>-40.59999847412109375</AltitudeMeters>
            <DistanceMeters>NAN</DistanceMeters>
          </Trackpoint>
          <Trackpoint>
            <Time>2022-09-24T16:57:51.000Z</Time>
            <Position>
              <LatitudeDegrees>43.31643129698932170867919921875</LatitudeDegrees>
              <LongitudeDegrees>-2.9857762344181537628173828125</LongitudeDegrees>
            </Position>
            <AltitudeMeters>-40.40000152587890625</AltitudeMeters>
            <DistanceMeters>NAN</DistanceMeters>
          </Trackpoint>
          <Trackpoint>
            <Time>2022-09-24T16:57:52.000Z</Time>
            <Position>
              <LatitudeDegrees>43.3163852803409099578857421875</LatitudeDegrees>
              <LongitudeDegrees>-2.98575050197541713714599609375</LongitudeDegrees>
            </Position>
            <AltitudeMeters>-40.200000762939453125</AltitudeMeters>
            <DistanceMeters>NAN</DistanceMeters>
          </Trackpoint>
          <Trackpoint>
            <Time>2022-09-24T16:57:53.000Z</Time>
            <Position>
              <LatitudeDegrees>43.3163385093212127685546875</LatitudeDegrees>
              <LongitudeDegrees>-2.98572636209428310394287109375</LongitudeDegrees>
            </Position>
            <AltitudeMeters>-40</AltitudeMeters>
            <DistanceMeters>NAN</DistanceMeters>
          </Trackpoint>
          <Trackpoint>
            <Time>2022-09-24T16:57:54.000Z</Time>
            <Position>
              <LatitudeDegrees>43.31628813408315181732177734375</LatitudeDegrees>
              <LongitudeDegrees>-2.98569786362349987030029296875</LongitudeDegrees>
            </Position>
            <AltitudeMeters>-39.59999847412109375</AltitudeMeters>
            <DistanceMeters>NAN</DistanceMeters>
          </Trackpoint>
          <Trackpoint>
            <Time>2022-09-24T16:57:55.000Z</Time>
            <Position>
              <LatitudeDegrees>43.31623935140669345855712890625</LatitudeDegrees>
              <LongitudeDegrees>-2.9856701195240020751953125</LongitudeDegrees>
            </Position>
            <AltitudeMeters>-39.40000152587890625</AltitudeMeters>
            <DistanceMeters>NAN</DistanceMeters>
          </Trackpoint>
          <Trackpoint>
            <Time>2022-09-24T16:57:56.000Z</Time>
            <Position>
              <LatitudeDegrees>43.31619031727313995361328125</LatitudeDegrees>
              <LongitudeDegrees>-2.9856459796428680419921875</LongitudeDegrees>
            </Position>
            <AltitudeMeters>-39.40000152587890625</AltitudeMeters>
            <DistanceMeters>NAN</DistanceMeters>
          </Trackpoint>
          <Trackpoint>
            <Time>2022-09-24T16:57:57.000Z</Time>
            <Position>
              <LatitudeDegrees>43.31613541580736637115478515625</LatitudeDegrees>
              <LongitudeDegrees>-2.98561924137175083160400390625</LongitudeDegrees>
            </Position>
            <AltitudeMeters>-39.40000152587890625</AltitudeMeters>
            <DistanceMeters>NAN</DistanceMeters>
          </Trackpoint>
          <Trackpoint>
            <Time>2022-09-24T16:57:58.000Z</Time>
            <Position>
              <LatitudeDegrees>43.31607875414192676544189453125</LatitudeDegrees>
              <LongitudeDegrees>-2.9855911619961261749267578125</LongitudeDegrees>
            </Position>
            <AltitudeMeters>-39.40000152587890625</AltitudeMeters>
            <DistanceMeters>NAN</DistanceMeters>
          </Trackpoint>
          <Trackpoint>
            <Time>2022-09-24T16:57:59.000Z</Time>
            <Position>
              <LatitudeDegrees>43.31602293066680431365966796875</LatitudeDegrees>
              <LongitudeDegrees>-2.98556358553469181060791015625</LongitudeDegrees>
            </Position>
            <AltitudeMeters>-39.40000152587890625</AltitudeMeters>
            <DistanceMeters>NAN</DistanceMeters>
          </Trackpoint>
          <Trackpoint>
            <Time>2022-09-24T16:58:00.000Z</Time>
            <Position>
              <LatitudeDegrees>43.315965346992015838623046875</LatitudeDegrees>
              <LongitudeDegrees>-2.98553391359746456146240234375</LongitudeDegrees>
            </Position>
            <AltitudeMeters>-39.799999237060546875</AltitudeMeters>
            <DistanceMeters>NAN</DistanceMeters>
          </Trackpoint>
          <Trackpoint>
            <Time>2022-09-24T16:58:01.000Z</Time>
            <Position>
              <LatitudeDegrees>43.31590374000370502471923828125</LatitudeDegrees>
              <LongitudeDegrees>-2.98550306819379329681396484375</LongitudeDegrees>
            </Position>
            <AltitudeMeters>-39.799999237060546875</AltitudeMeters>
            <DistanceMeters>NAN</DistanceMeters>
          </Trackpoint>
          <Trackpoint>
            <Time>2022-09-24T16:58:02.000Z</Time>
            <Position>
              <LatitudeDegrees>43.315841294825077056884765625</LatitudeDegrees>
              <LongitudeDegrees>-2.985474653542041778564453125</LongitudeDegrees>
            </Position>
            <AltitudeMeters>-40</AltitudeMeters>
            <DistanceMeters>NAN</DistanceMeters>
          </Trackpoint>
          <Trackpoint>
            <Time>2022-09-24T16:58:03.000Z</Time>
            <Position>
              <LatitudeDegrees>43.31577415578067302703857421875</LatitudeDegrees>
              <LongitudeDegrees>-2.98545160330832004547119140625</LongitudeDegrees>
            </Position>
            <AltitudeMeters>-40</AltitudeMeters>
            <DistanceMeters>NAN</DistanceMeters>
          </Trackpoint>
          <Trackpoint>
            <Time>2022-09-24T16:58:04.000Z</Time>
            <Position>
              <LatitudeDegrees>43.31570081412792205810546875</LatitudeDegrees>
              <LongitudeDegrees>-2.98544087447226047515869140625</LongitudeDegrees>
            </Position>
            <AltitudeMeters>-40</AltitudeMeters>
            <DistanceMeters>NAN</DistanceMeters>
          </Trackpoint>
          <Trackpoint>
            <Time>2022-09-24T16:58:05.000Z</Time>
            <Position>
              <LatitudeDegrees>43.31562437117099761962890625</LatitudeDegrees>
              <LongitudeDegrees>-2.9854567162692546844482421875</LongitudeDegrees>
            </Position>
            <AltitudeMeters>-40</AltitudeMeters>
            <DistanceMeters>NAN</DistanceMeters>
          </Trackpoint>
          <Trackpoint>
            <Time>2022-09-24T16:58:06.000Z</Time>
            <Position>
              <LatitudeDegrees>43.3155494369566440582275390625</LatitudeDegrees>
              <LongitudeDegrees>-2.98548915423452854156494140625</LongitudeDegrees>
            </Position>
            <AltitudeMeters>-40.40000152587890625</AltitudeMeters>
            <DistanceMeters>NAN</DistanceMeters>
          </Trackpoint>
          <Trackpoint>
            <Time>2022-09-24T16:58:07.000Z</Time>
            <Position>
              <LatitudeDegrees>43.31547056324779987335205078125</LatitudeDegrees>
              <LongitudeDegrees>-2.9855264537036418914794921875</LongitudeDegrees>
            </Position>
            <AltitudeMeters>-40.799999237060546875</AltitudeMeters>
            <DistanceMeters>NAN</DistanceMeters>
          </Trackpoint>
          <Trackpoint>
            <Time>2022-09-24T16:58:08.000Z</Time>
            <Position>
              <LatitudeDegrees>43.31538909114897251129150390625</LatitudeDegrees>
              <LongitudeDegrees>-2.9855593107640743255615234375</LongitudeDegrees>
            </Position>
            <AltitudeMeters>-40.799999237060546875</AltitudeMeters>
            <DistanceMeters>NAN</DistanceMeters>
          </Trackpoint>
          <Trackpoint>
            <Time>2022-09-24T16:58:09.000Z</Time>
            <Position>
              <LatitudeDegrees>43.31530661322176456451416015625</LatitudeDegrees>
              <LongitudeDegrees>-2.98559845425188541412353515625</LongitudeDegrees>
            </Position>
            <AltitudeMeters>-40.799999237060546875</AltitudeMeters>
            <DistanceMeters>NAN</DistanceMeters>
          </Trackpoint>
          <Trackpoint>
            <Time>2022-09-24T16:58:10.000Z</Time>
            <Position>
              <LatitudeDegrees>43.3152262307703495025634765625</LatitudeDegrees>
              <LongitudeDegrees>-2.9856521822512149810791015625</LongitudeDegrees>
            </Position>
            <AltitudeMeters>-40.799999237060546875</AltitudeMeters>
            <DistanceMeters>NAN</DistanceMeters>
          </Trackpoint>
          <Trackpoint>
            <Time>2022-09-24T16:58:11.000Z</Time>
            <Position>
              <LatitudeDegrees>43.3151578344404697418212890625</LatitudeDegrees>
              <LongitudeDegrees>-2.985730804502964019775390625</LongitudeDegrees>
            </Position>
            <AltitudeMeters>-41.200000762939453125</AltitudeMeters>
            <DistanceMeters>NAN</DistanceMeters>
          </Trackpoint>
          <Trackpoint>
            <Time>2022-09-24T16:58:12.000Z</Time>
            <Position>
              <LatitudeDegrees>43.31510268151760101318359375</LatitudeDegrees>
              <LongitudeDegrees>-2.985830716788768768310546875</LongitudeDegrees>
            </Position>
            <AltitudeMeters>-42</AltitudeMeters>
            <DistanceMeters>NAN</DistanceMeters>
          </Trackpoint>
          <Trackpoint>
            <Time>2022-09-24T16:58:13.000Z</Time>
            <Position>
              <LatitudeDegrees>43.31504912115633487701416015625</LatitudeDegrees>
              <LongitudeDegrees>-2.98593674786388874053955078125</LongitudeDegrees>
            </Position>
            <AltitudeMeters>-44.200000762939453125</AltitudeMeters>
            <DistanceMeters>NAN</DistanceMeters>
          </Trackpoint>
          <Trackpoint>
            <Time>2022-09-24T16:58:14.000Z</Time>
            <Position>
              <LatitudeDegrees>43.314989022910594940185546875</LatitudeDegrees>
              <LongitudeDegrees>-2.98603431321680545806884765625</LongitudeDegrees>
            </Position>
            <AltitudeMeters>-50.799999237060546875</AltitudeMeters>
            <DistanceMeters>NAN</DistanceMeters>
          </Trackpoint>
          <Trackpoint>
            <Time>2022-09-24T16:58:15.000Z</Time>
            <Position>
              <LatitudeDegrees>43.31491786055266857147216796875</LatitudeDegrees>
              <LongitudeDegrees>-2.98612265847623348236083984375</LongitudeDegrees>
            </Position>
            <AltitudeMeters>-50.799999237060546875</AltitudeMeters>
            <DistanceMeters>NAN</DistanceMeters>
          </Trackpoint>
          <Trackpoint>
            <Time>2022-09-24T16:58:16.000Z</Time>
            <Position>
              <LatitudeDegrees>43.31483337096869945526123046875</LatitudeDegrees>
              <LongitudeDegrees>-2.98619541339576244354248046875</LongitudeDegrees>
            </Position>
            <AltitudeMeters>-50.799999237060546875</AltitudeMeters>
            <DistanceMeters>NAN</DistanceMeters>
          </Trackpoint>
          <Trackpoint>
            <Time>2022-09-24T16:58:17.000Z</Time>
            <Position>
              <LatitudeDegrees>43.31474049948155879974365234375</LatitudeDegrees>
              <LongitudeDegrees>-2.98624637536704540252685546875</LongitudeDegrees>
            </Position>
            <AltitudeMeters>-50.799999237060546875</AltitudeMeters>
            <DistanceMeters>NAN</DistanceMeters>
          </Trackpoint>
          <Trackpoint>
            <Time>2022-09-24T16:58:18.000Z</Time>
            <Position>
              <LatitudeDegrees>43.31464662216603755950927734375</LatitudeDegrees>
              <LongitudeDegrees>-2.986271940171718597412109375</LongitudeDegrees>
            </Position>
            <AltitudeMeters>-50.799999237060546875</AltitudeMeters>
            <DistanceMeters>NAN</DistanceMeters>
          </Trackpoint>
          <Trackpoint>
            <Time>2022-09-24T16:58:19.000Z</Time>
            <Position>
              <LatitudeDegrees>43.3145546726882457733154296875</LatitudeDegrees>
              <LongitudeDegrees>-2.98627160489559173583984375</LongitudeDegrees>
            </Position>
            <AltitudeMeters>-50.799999237060546875</AltitudeMeters>
            <DistanceMeters>NAN</DistanceMeters>
          </Trackpoint>
          <Trackpoint>
            <Time>2022-09-24T16:58:20.000Z</Time>
            <Position>
              <LatitudeDegrees>43.314470686018466949462890625</LatitudeDegrees>
              <LongitudeDegrees>-2.986241094768047332763671875</LongitudeDegrees>
            </Position>
            <AltitudeMeters>-50</AltitudeMeters>
            <DistanceMeters>NAN</DistanceMeters>
          </Trackpoint>
          <Trackpoint>
            <Time>2022-09-24T16:58:21.000Z</Time>
            <Position>
              <LatitudeDegrees>43.31439918838441371917724609375</LatitudeDegrees>
              <LongitudeDegrees>-2.98618267290294170379638671875</LongitudeDegrees>
            </Position>
            <AltitudeMeters>-49</AltitudeMeters>
            <DistanceMeters>NAN</DistanceMeters>
          </Trackpoint>
          <Trackpoint>
            <Time>2022-09-24T16:58:22.000Z</Time>
            <Position>
              <LatitudeDegrees>43.31432475708425045013427734375</LatitudeDegrees>
              <LongitudeDegrees>-2.9860994406044483184814453125</LongitudeDegrees>
            </Position>
            <AltitudeMeters>-49.200000762939453125</AltitudeMeters>
            <DistanceMeters>NAN</DistanceMeters>
          </Trackpoint>
          <Trackpoint>
            <Time>2022-09-24T16:58:23.000Z</Time>
            <Position>
              <LatitudeDegrees>43.31424982286989688873291015625</LatitudeDegrees>
              <LongitudeDegrees>-2.9859777353703975677490234375</LongitudeDegrees>
            </Position>
            <AltitudeMeters>-49.200000762939453125</AltitudeMeters>
            <DistanceMeters>NAN</DistanceMeters>
          </Trackpoint>
          <Trackpoint>
            <Time>2022-09-24T16:58:24.000Z</Time>
            <Position>
              <LatitudeDegrees>43.314184360206127166748046875</LatitudeDegrees>
              <LongitudeDegrees>-2.9858900606632232666015625</LongitudeDegrees>
            </Position>
            <AltitudeMeters>-49.200000762939453125</AltitudeMeters>
            <DistanceMeters>NAN</DistanceMeters>
          </Trackpoint>
          <Trackpoint>
            <Time>2022-09-24T16:58:25.000Z</Time>
            <Position>
              <LatitudeDegrees>43.3141339011490345001220703125</LatitudeDegrees>
              <LongitudeDegrees>-2.98581001348793506622314453125</LongitudeDegrees>
            </Position>
            <AltitudeMeters>-47.59999847412109375</AltitudeMeters>
            <DistanceMeters>NAN</DistanceMeters>
          </Trackpoint>
          <Trackpoint>
            <Time>2022-09-24T16:58:26.000Z</Time>
            <Position>
              <LatitudeDegrees>43.31408067606389522552490234375</LatitudeDegrees>
              <LongitudeDegrees>-2.9857249371707439422607421875</LongitudeDegrees>
            </Position>
            <AltitudeMeters>-47.40000152587890625</AltitudeMeters>
            <DistanceMeters>NAN</DistanceMeters>
          </Trackpoint>
          <Trackpoint>
            <Time>2022-09-24T16:58:27.000Z</Time>
            <Position>
              <LatitudeDegrees>43.31403491087257862091064453125</LatitudeDegrees>
              <LongitudeDegrees>-2.98564991913735866546630859375</LongitudeDegrees>
            </Position>
            <AltitudeMeters>-47.40000152587890625</AltitudeMeters>
            <DistanceMeters>NAN</DistanceMeters>
          </Trackpoint>
          <Trackpoint>
            <Time>2022-09-24T16:58:28.000Z</Time>
            <Position>
              <LatitudeDegrees>43.3139870502054691314697265625</LatitudeDegrees>
              <LongitudeDegrees>-2.98557749949395656585693359375</LongitudeDegrees>
            </Position>
            <AltitudeMeters>-46.59999847412109375</AltitudeMeters>
            <DistanceMeters>NAN</DistanceMeters>
          </Trackpoint>
          <Trackpoint>
            <Time>2022-09-24T16:58:29.000Z</Time>
            <Position>
              <LatitudeDegrees>43.31394396722316741943359375</LatitudeDegrees>
              <LongitudeDegrees>-2.985506169497966766357421875</LongitudeDegrees>
            </Position>
            <AltitudeMeters>-45.799999237060546875</AltitudeMeters>
            <DistanceMeters>NAN</DistanceMeters>
          </Trackpoint>
          <Trackpoint>
            <Time>2022-09-24T16:58:30.000Z</Time>
            <Position>
              <LatitudeDegrees>43.31390180625021457672119140625</LatitudeDegrees>
              <LongitudeDegrees>-2.98544238321483135223388671875</LongitudeDegrees>
            </Position>
            <AltitudeMeters>-45.59999847412109375</AltitudeMeters>
            <DistanceMeters>NAN</DistanceMeters>
          </Trackpoint>
          <Trackpoint>
            <Time>2022-09-24T16:58:31.000Z</Time>
            <Position>
              <LatitudeDegrees>43.31386509351432323455810546875</LatitudeDegrees>
              <LongitudeDegrees>-2.98539192415773868560791015625</LongitudeDegrees>
            </Position>
            <AltitudeMeters>-45.40000152587890625</AltitudeMeters>
            <DistanceMeters>NAN</DistanceMeters>
          </Trackpoint>
          <Trackpoint>
            <Time>2022-09-24T16:58:32.000Z</Time>
            <Position>
              <LatitudeDegrees>43.31382385455071926116943359375</LatitudeDegrees>
              <LongitudeDegrees>-2.9853279702365398406982421875</LongitudeDegrees>
            </Position>
            <AltitudeMeters>-45.200000762939453125</AltitudeMeters>
            <DistanceMeters>NAN</DistanceMeters>
          </Trackpoint>
          <Trackpoint>
            <Time>2022-09-24T16:58:33.000Z</Time>
            <Position>
              <LatitudeDegrees>43.3137848787009716033935546875</LatitudeDegrees>
              <LongitudeDegrees>-2.985262759029865264892578125</LongitudeDegrees>
            </Position>
            <AltitudeMeters>-44.59999847412109375</AltitudeMeters>
            <DistanceMeters>NAN</DistanceMeters>
          </Trackpoint>
          <Trackpoint>
            <Time>2022-09-24T16:58:34.000Z</Time>
            <Position>
              <LatitudeDegrees>43.31375545822083950042724609375</LatitudeDegrees>
              <LongitudeDegrees>-2.98518598079681396484375</LongitudeDegrees>
            </Position>
            <AltitudeMeters>-44.200000762939453125</AltitudeMeters>
            <DistanceMeters>NAN</DistanceMeters>
          </Trackpoint>
          <Trackpoint>
            <Time>2022-09-24T16:58:35.000Z</Time>
            <Position>
              <LatitudeDegrees>43.31372939050197601318359375</LatitudeDegrees>
              <LongitudeDegrees>-2.98510408960282802581787109375</LongitudeDegrees>
            </Position>
            <AltitudeMeters>-43.799999237060546875</AltitudeMeters>
            <DistanceMeters>NAN</DistanceMeters>
          </Trackpoint>
          <Trackpoint>
            <Time>2022-09-24T16:58:36.000Z</Time>
            <Position>
              <LatitudeDegrees>43.31370525062084197998046875</LatitudeDegrees>
              <LongitudeDegrees>-2.98501725308597087860107421875</LongitudeDegrees>
            </Position>
            <AltitudeMeters>-43.799999237060546875</AltitudeMeters>
            <DistanceMeters>NAN</DistanceMeters>
          </Trackpoint>
          <Trackpoint>
            <Time>2022-09-24T16:58:37.000Z</Time>
            <Position>
              <LatitudeDegrees>43.313675411045551300048828125</LatitudeDegrees>
              <LongitudeDegrees>-2.98492790199816226959228515625</LongitudeDegrees>
            </Position>
            <AltitudeMeters>-43.799999237060546875</AltitudeMeters>
            <DistanceMeters>NAN</DistanceMeters>
          </Trackpoint>
          <Trackpoint>
            <Time>2022-09-24T16:58:38.000Z</Time>
            <Position>
              <LatitudeDegrees>43.31364548765122890472412109375</LatitudeDegrees>
              <LongitudeDegrees>-2.98484073020517826080322265625</LongitudeDegrees>
            </Position>
            <AltitudeMeters>-44</AltitudeMeters>
            <DistanceMeters>NAN</DistanceMeters>
          </Trackpoint>
          <Trackpoint>
            <Time>2022-09-24T16:58:39.000Z</Time>
            <Position>
              <LatitudeDegrees>43.313612043857574462890625</LatitudeDegrees>
              <LongitudeDegrees>-2.984751798212528228759765625</LongitudeDegrees>
            </Position>
            <AltitudeMeters>-44.200000762939453125</AltitudeMeters>
            <DistanceMeters>NAN</DistanceMeters>
          </Trackpoint>
          <Trackpoint>
            <Time>2022-09-24T16:58:40.000Z</Time>
            <Position>
              <LatitudeDegrees>43.31357994116842746734619140625</LatitudeDegrees>
              <LongitudeDegrees>-2.98465515486896038055419921875</LongitudeDegrees>
            </Position>
            <AltitudeMeters>-44.200000762939453125</AltitudeMeters>
            <DistanceMeters>NAN</DistanceMeters>
          </Trackpoint>
          <Trackpoint>
            <Time>2022-09-24T16:58:41.000Z</Time>
            <Position>
              <LatitudeDegrees>43.3135485090315341949462890625</LatitudeDegrees>
              <LongitudeDegrees>-2.98455205745995044708251953125</LongitudeDegrees>
            </Position>
            <AltitudeMeters>-44.200000762939453125</AltitudeMeters>
            <DistanceMeters>NAN</DistanceMeters>
          </Trackpoint>
          <Trackpoint>
            <Time>2022-09-24T16:58:42.000Z</Time>
            <Position>
              <LatitudeDegrees>43.31351690925657749176025390625</LatitudeDegrees>
              <LongitudeDegrees>-2.98444057814776897430419921875</LongitudeDegrees>
            </Position>
            <AltitudeMeters>-45.200000762939453125</AltitudeMeters>
            <DistanceMeters>NAN</DistanceMeters>
          </Trackpoint>
          <Trackpoint>
            <Time>2022-09-24T16:58:43.000Z</Time>
            <Position>
              <LatitudeDegrees>43.313483297824859619140625</LatitudeDegrees>
              <LongitudeDegrees>-2.98432457260787487030029296875</LongitudeDegrees>
            </Position>
            <AltitudeMeters>-45.59999847412109375</AltitudeMeters>
            <DistanceMeters>NAN</DistanceMeters>
          </Trackpoint>
          <Trackpoint>
            <Time>2022-09-24T16:58:44.000Z</Time>
            <Position>
              <LatitudeDegrees>43.31344365142285823822021484375</LatitudeDegrees>
              <LongitudeDegrees>-2.98420487903058528900146484375</LongitudeDegrees>
            </Position>
            <AltitudeMeters>-46</AltitudeMeters>
            <DistanceMeters>NAN</DistanceMeters>
          </Trackpoint>
          <Trackpoint>
            <Time>2022-09-24T16:58:45.000Z</Time>
            <Position>
              <LatitudeDegrees>43.31340677104890346527099609375</LatitudeDegrees>
              <LongitudeDegrees>-2.984083928167819976806640625</LongitudeDegrees>
            </Position>
            <AltitudeMeters>-46.200000762939453125</AltitudeMeters>
            <DistanceMeters>NAN</DistanceMeters>
          </Trackpoint>
          <Trackpoint>
            <Time>2022-09-24T16:58:46.000Z</Time>
            <Position>
              <LatitudeDegrees>43.31336854957044124603271484375</LatitudeDegrees>
              <LongitudeDegrees>-2.98396549187600612640380859375</LongitudeDegrees>
            </Position>
            <AltitudeMeters>-46.799999237060546875</AltitudeMeters>
            <DistanceMeters>NAN</DistanceMeters>
          </Trackpoint>
          <Trackpoint>
            <Time>2022-09-24T16:58:47.000Z</Time>
            <Position>
              <LatitudeDegrees>43.31332177855074405670166015625</LatitudeDegrees>
              <LongitudeDegrees>-2.983849234879016876220703125</LongitudeDegrees>
            </Position>
            <AltitudeMeters>-46.799999237060546875</AltitudeMeters>
            <DistanceMeters>NAN</DistanceMeters>
          </Trackpoint>
          <Trackpoint>
            <Time>2022-09-24T16:58:48.000Z</Time>
            <Position>
              <LatitudeDegrees>43.31326310522854328155517578125</LatitudeDegrees>
              <LongitudeDegrees>-2.98374152742326259613037109375</LongitudeDegrees>
            </Position>
            <AltitudeMeters>-48.200000762939453125</AltitudeMeters>
            <DistanceMeters>NAN</DistanceMeters>
          </Trackpoint>
          <Trackpoint>
            <Time>2022-09-24T16:58:49.000Z</Time>
            <Position>
              <LatitudeDegrees>43.3131922781467437744140625</LatitudeDegrees>
              <LongitudeDegrees>-2.98365988768637180328369140625</LongitudeDegrees>
            </Position>
            <AltitudeMeters>-49.59999847412109375</AltitudeMeters>
            <DistanceMeters>NAN</DistanceMeters>
          </Trackpoint>
          <Trackpoint>
            <Time>2022-09-24T16:58:50.000Z</Time>
            <Position>
              <LatitudeDegrees>43.31312228925526142120361328125</LatitudeDegrees>
              <LongitudeDegrees>-2.98358830623328685760498046875</LongitudeDegrees>
            </Position>
            <AltitudeMeters>-50.200000762939453125</AltitudeMeters>
            <DistanceMeters>NAN</DistanceMeters>
          </Trackpoint>
          <Trackpoint>
            <Time>2022-09-24T16:58:51.000Z</Time>
            <Position>
              <LatitudeDegrees>43.31305707804858684539794921875</LatitudeDegrees>
              <LongitudeDegrees>-2.9835131205618381500244140625</LongitudeDegrees>
            </Position>
            <AltitudeMeters>-51.40000152587890625</AltitudeMeters>
            <DistanceMeters>NAN</DistanceMeters>
          </Trackpoint>
          <Trackpoint>
            <Time>2022-09-24T16:58:52.000Z</Time>
            <Position>
              <LatitudeDegrees>43.31299874000251293182373046875</LatitudeDegrees>
              <LongitudeDegrees>-2.983424775302410125732421875</LongitudeDegrees>
            </Position>
            <AltitudeMeters>-51.799999237060546875</AltitudeMeters>
            <DistanceMeters>NAN</DistanceMeters>
          </Trackpoint>
          <Trackpoint>
            <Time>2022-09-24T16:58:53.000Z</Time>
            <Position>
              <LatitudeDegrees>43.312955908477306365966796875</LatitudeDegrees>
              <LongitudeDegrees>-2.98332528211176395416259765625</LongitudeDegrees>
            </Position>
            <AltitudeMeters>-52</AltitudeMeters>
            <DistanceMeters>NAN</DistanceMeters>
          </Trackpoint>
          <Trackpoint>
            <Time>2022-09-24T16:58:54.000Z</Time>
            <Position>
              <LatitudeDegrees>43.3129225485026836395263671875</LatitudeDegrees>
              <LongitudeDegrees>-2.98321665264666080474853515625</LongitudeDegrees>
            </Position>
            <AltitudeMeters>-52</AltitudeMeters>
            <DistanceMeters>NAN</DistanceMeters>
          </Trackpoint>
          <Trackpoint>
            <Time>2022-09-24T16:58:55.000Z</Time>
            <Position>
              <LatitudeDegrees>43.31289564259350299835205078125</LatitudeDegrees>
              <LongitudeDegrees>-2.98309930600225925445556640625</LongitudeDegrees>
            </Position>
            <AltitudeMeters>-52.200000762939453125</AltitudeMeters>
            <DistanceMeters>NAN</DistanceMeters>
          </Trackpoint>
          <Trackpoint>
            <Time>2022-09-24T16:58:56.000Z</Time>
            <Position>
              <LatitudeDegrees>43.31287368200719356536865234375</LatitudeDegrees>
              <LongitudeDegrees>-2.9829813726246356964111328125</LongitudeDegrees>
            </Position>
            <AltitudeMeters>-53.40000152587890625</AltitudeMeters>
            <DistanceMeters>NAN</DistanceMeters>
          </Trackpoint>
          <Trackpoint>
            <Time>2022-09-24T16:58:57.000Z</Time>
            <Position>
              <LatitudeDegrees>43.31284903921186923980712890625</LatitudeDegrees>
              <LongitudeDegrees>-2.9828600026667118072509765625</LongitudeDegrees>
            </Position>
            <AltitudeMeters>-54.799999237060546875</AltitudeMeters>
            <DistanceMeters>NAN</DistanceMeters>
          </Trackpoint>
          <Trackpoint>
            <Time>2022-09-24T16:58:58.000Z</Time>
            <Position>
              <LatitudeDegrees>43.3128226362168788909912109375</LatitudeDegrees>
              <LongitudeDegrees>-2.9827409796416759490966796875</LongitudeDegrees>
            </Position>
            <AltitudeMeters>-54.799999237060546875</AltitudeMeters>
            <DistanceMeters>NAN</DistanceMeters>
          </Trackpoint>
          <Trackpoint>
            <Time>2022-09-24T16:58:59.000Z</Time>
            <Position>
              <LatitudeDegrees>43.312794305384159088134765625</LatitudeDegrees>
              <LongitudeDegrees>-2.98262321390211582183837890625</LongitudeDegrees>
            </Position>
            <AltitudeMeters>-55</AltitudeMeters>
            <DistanceMeters>NAN</DistanceMeters>
          </Trackpoint>
          <Trackpoint>
            <Time>2022-09-24T16:59:00.000Z</Time>
            <Position>
              <LatitudeDegrees>43.31276069395244121551513671875</LatitudeDegrees>
              <LongitudeDegrees>-2.98250670544803142547607421875</LongitudeDegrees>
            </Position>
            <AltitudeMeters>-55</AltitudeMeters>
            <DistanceMeters>NAN</DistanceMeters>
          </Trackpoint>
          <Trackpoint>
            <Time>2022-09-24T16:59:01.000Z</Time>
            <Position>
              <LatitudeDegrees>43.31271777860820293426513671875</LatitudeDegrees>
              <LongitudeDegrees>-2.982367984950542449951171875</LongitudeDegrees>
            </Position>
            <AltitudeMeters>-55</AltitudeMeters>
            <DistanceMeters>NAN</DistanceMeters>
          </Trackpoint>
          <Trackpoint>
            <Time>2022-09-24T16:59:02.000Z</Time>
            <Position>
              <LatitudeDegrees>43.3126808144152164459228515625</LatitudeDegrees>
              <LongitudeDegrees>-2.982256673276424407958984375</LongitudeDegrees>
            </Position>
            <AltitudeMeters>-55</AltitudeMeters>
            <DistanceMeters>NAN</DistanceMeters>
          </Trackpoint>
          <Trackpoint>
            <Time>2022-09-24T16:59:03.000Z</Time>
            <Position>
              <LatitudeDegrees>43.31263513304293155670166015625</LatitudeDegrees>
              <LongitudeDegrees>-2.98214812763035297393798828125</LongitudeDegrees>
            </Position>
            <AltitudeMeters>-55</AltitudeMeters>
            <DistanceMeters>NAN</DistanceMeters>
          </Trackpoint>
          <Trackpoint>
            <Time>2022-09-24T16:59:04.000Z</Time>
            <Position>
              <LatitudeDegrees>43.312579728662967681884765625</LatitudeDegrees>
              <LongitudeDegrees>-2.98204687424004077911376953125</LongitudeDegrees>
            </Position>
            <AltitudeMeters>-55</AltitudeMeters>
            <DistanceMeters>NAN</DistanceMeters>
          </Trackpoint>
          <Trackpoint>
            <Time>2022-09-24T16:59:05.000Z</Time>
            <Position>
              <LatitudeDegrees>43.312530107796192169189453125</LatitudeDegrees>
              <LongitudeDegrees>-2.98194377683103084564208984375</LongitudeDegrees>
            </Position>
            <AltitudeMeters>-55.40000152587890625</AltitudeMeters>
            <DistanceMeters>NAN</DistanceMeters>
          </Trackpoint>
          <Trackpoint>
            <Time>2022-09-24T16:59:06.000Z</Time>
            <Position>
              <LatitudeDegrees>43.312491215765476226806640625</LatitudeDegrees>
              <LongitudeDegrees>-2.981860376894474029541015625</LongitudeDegrees>
            </Position>
            <AltitudeMeters>-55</AltitudeMeters>
            <DistanceMeters>NAN</DistanceMeters>
          </Trackpoint>
          <Trackpoint>
            <Time>2022-09-24T16:59:07.000Z</Time>
            <Position>
              <LatitudeDegrees>43.3124424330890178680419921875</LatitudeDegrees>
              <LongitudeDegrees>-2.9817540943622589111328125</LongitudeDegrees>
            </Position>
            <AltitudeMeters>-55</AltitudeMeters>
            <DistanceMeters>NAN</DistanceMeters>
          </Trackpoint>
          <Trackpoint>
            <Time>2022-09-24T16:59:08.000Z</Time>
            <Position>
              <LatitudeDegrees>43.31238635815680027008056640625</LatitudeDegrees>
              <LongitudeDegrees>-2.98162593506276607513427734375</LongitudeDegrees>
            </Position>
            <AltitudeMeters>-55.200000762939453125</AltitudeMeters>
            <DistanceMeters>NAN</DistanceMeters>
          </Trackpoint>
          <Trackpoint>
            <Time>2022-09-24T16:59:09.000Z</Time>
            <Position>
              <LatitudeDegrees>43.31233992241322994232177734375</LatitudeDegrees>
              <LongitudeDegrees>-2.98151998780667781829833984375</LongitudeDegrees>
            </Position>
            <AltitudeMeters>-55.200000762939453125</AltitudeMeters>
            <DistanceMeters>NAN</DistanceMeters>
          </Trackpoint>
          <Trackpoint>
            <Time>2022-09-24T16:59:10.000Z</Time>
            <Position>
              <LatitudeDegrees>43.31230103038251399993896484375</LatitudeDegrees>
              <LongitudeDegrees>-2.9814367555081844329833984375</LongitudeDegrees>
            </Position>
            <AltitudeMeters>-54.799999237060546875</AltitudeMeters>
            <DistanceMeters>NAN</DistanceMeters>
          </Trackpoint>
          <Trackpoint>
            <Time>2022-09-24T16:59:11.000Z</Time>
            <Position>
              <LatitudeDegrees>43.31224881112575531005859375</LatitudeDegrees>
              <LongitudeDegrees>-2.9813304729759693145751953125</LongitudeDegrees>
            </Position>
            <AltitudeMeters>-54.799999237060546875</AltitudeMeters>
            <DistanceMeters>NAN</DistanceMeters>
          </Trackpoint>
          <Trackpoint>
            <Time>2022-09-24T16:59:12.000Z</Time>
            <Position>
              <LatitudeDegrees>43.31219114363193511962890625</LatitudeDegrees>
              <LongitudeDegrees>-2.98122444190084934234619140625</LongitudeDegrees>
            </Position>
            <AltitudeMeters>-54.799999237060546875</AltitudeMeters>
            <DistanceMeters>NAN</DistanceMeters>
          </Trackpoint>
          <Trackpoint>
            <Time>2022-09-24T16:59:13.000Z</Time>
            <Position>
              <LatitudeDegrees>43.31214060075581073760986328125</LatitudeDegrees>
              <LongitudeDegrees>-2.98112251795828342437744140625</LongitudeDegrees>
            </Position>
            <AltitudeMeters>-54.799999237060546875</AltitudeMeters>
            <DistanceMeters>NAN</DistanceMeters>
          </Trackpoint>
          <Trackpoint>
            <Time>2022-09-24T16:59:14.000Z</Time>
            <Position>
              <LatitudeDegrees>43.31208410672843456268310546875</LatitudeDegrees>
              <LongitudeDegrees>-2.98100299201905727386474609375</LongitudeDegrees>
            </Position>
            <AltitudeMeters>-54.799999237060546875</AltitudeMeters>
            <DistanceMeters>NAN</DistanceMeters>
          </Trackpoint>
          <Trackpoint>
            <Time>2022-09-24T16:59:15.000Z</Time>
            <Position>
              <LatitudeDegrees>43.31204622052609920501708984375</LatitudeDegrees>
              <LongitudeDegrees>-2.98092084936797618865966796875</LongitudeDegrees>
            </Position>
            <AltitudeMeters>-54.799999237060546875</AltitudeMeters>
            <DistanceMeters>NAN</DistanceMeters>
          </Trackpoint>
          <Trackpoint>
            <Time>2022-09-24T16:59:16.000Z</Time>
            <Position>
              <LatitudeDegrees>43.3119884692132472991943359375</LatitudeDegrees>
              <LongitudeDegrees>-2.9807953722774982452392578125</LongitudeDegrees>
            </Position>
            <AltitudeMeters>-54.799999237060546875</AltitudeMeters>
            <DistanceMeters>NAN</DistanceMeters>
          </Trackpoint>
          <Trackpoint>
            <Time>2022-09-24T16:59:17.000Z</Time>
            <Position>
              <LatitudeDegrees>43.31194111146032810211181640625</LatitudeDegrees>
              <LongitudeDegrees>-2.98068984411656856536865234375</LongitudeDegrees>
            </Position>
            <AltitudeMeters>-55.40000152587890625</AltitudeMeters>
            <DistanceMeters>NAN</DistanceMeters>
          </Trackpoint>
          <Trackpoint>
            <Time>2022-09-24T16:59:18.000Z</Time>
            <Position>
              <LatitudeDegrees>43.3118912391364574432373046875</LatitudeDegrees>
              <LongitudeDegrees>-2.98058532178401947021484375</LongitudeDegrees>
            </Position>
            <AltitudeMeters>-55.40000152587890625</AltitudeMeters>
            <DistanceMeters>NAN</DistanceMeters>
          </Trackpoint>
          <Trackpoint>
            <Time>2022-09-24T16:59:19.000Z</Time>
            <Position>
              <LatitudeDegrees>43.311840109527111053466796875</LatitudeDegrees>
              <LongitudeDegrees>-2.9804825596511363983154296875</LongitudeDegrees>
            </Position>
            <AltitudeMeters>-55.40000152587890625</AltitudeMeters>
            <DistanceMeters>NAN</DistanceMeters>
          </Trackpoint>
          <Trackpoint>
            <Time>2022-09-24T16:59:20.000Z</Time>
            <Position>
              <LatitudeDegrees>43.311840109527111053466796875</LatitudeDegrees>
              <LongitudeDegrees>-2.9804825596511363983154296875</LongitudeDegrees>
            </Position>
            <AltitudeMeters>-55.40000152587890625</AltitudeMeters>
            <DistanceMeters>NAN</DistanceMeters>
          </Trackpoint>
          <Trackpoint>
            <Time>2022-09-24T16:59:21.000Z</Time>
            <Position>
              <LatitudeDegrees>43.3117386884987354278564453125</LatitudeDegrees>
              <LongitudeDegrees>-2.9803008399903774261474609375</LongitudeDegrees>
            </Position>
            <AltitudeMeters>-55.799999237060546875</AltitudeMeters>
            <DistanceMeters>NAN</DistanceMeters>
          </Trackpoint>
          <Trackpoint>
            <Time>2022-09-24T16:59:22.000Z</Time>
            <Position>
              <LatitudeDegrees>43.311681188642978668212890625</LatitudeDegrees>
              <LongitudeDegrees>-2.98020335845649242401123046875</LongitudeDegrees>
            </Position>
            <AltitudeMeters>-55.799999237060546875</AltitudeMeters>
            <DistanceMeters>NAN</DistanceMeters>
          </Trackpoint>
          <Trackpoint>
            <Time>2022-09-24T16:59:23.000Z</Time>
            <Position>
              <LatitudeDegrees>43.31162293441593647003173828125</LatitudeDegrees>
              <LongitudeDegrees>-2.98010478727519512176513671875</LongitudeDegrees>
            </Position>
            <AltitudeMeters>-55</AltitudeMeters>
            <DistanceMeters>NAN</DistanceMeters>
          </Trackpoint>
          <Trackpoint>
            <Time>2022-09-24T16:59:24.000Z</Time>
            <Position>
              <LatitudeDegrees>43.31156484782695770263671875</LatitudeDegrees>
              <LongitudeDegrees>-2.98000453971326351165771484375</LongitudeDegrees>
            </Position>
            <AltitudeMeters>-55</AltitudeMeters>
            <DistanceMeters>NAN</DistanceMeters>
          </Trackpoint>
          <Trackpoint>
            <Time>2022-09-24T16:59:25.000Z</Time>
            <Position>
              <LatitudeDegrees>43.31150139681994915008544921875</LatitudeDegrees>
              <LongitudeDegrees>-2.97990831546485424041748046875</LongitudeDegrees>
            </Position>
            <AltitudeMeters>-55.40000152587890625</AltitudeMeters>
            <DistanceMeters>NAN</DistanceMeters>
          </Trackpoint>
          <Trackpoint>
            <Time>2022-09-24T16:59:26.000Z</Time>
            <Position>
              <LatitudeDegrees>43.311447165906429290771484375</LatitudeDegrees>
              <LongitudeDegrees>-2.97981929965317249298095703125</LongitudeDegrees>
            </Position>
            <AltitudeMeters>-55.40000152587890625</AltitudeMeters>
            <DistanceMeters>NAN</DistanceMeters>
          </Trackpoint>
          <Trackpoint>
            <Time>2022-09-24T16:59:27.000Z</Time>
            <Position>
              <LatitudeDegrees>43.31138782203197479248046875</LatitudeDegrees>
              <LongitudeDegrees>-2.97973078675568103790283203125</LongitudeDegrees>
            </Position>
            <AltitudeMeters>-55.200000762939453125</AltitudeMeters>
            <DistanceMeters>NAN</DistanceMeters>
          </Trackpoint>
          <Trackpoint>
            <Time>2022-09-24T16:59:28.000Z</Time>
            <Position>
              <LatitudeDegrees>43.31132068298757076263427734375</LatitudeDegrees>
              <LongitudeDegrees>-2.97963590361177921295166015625</LongitudeDegrees>
            </Position>
            <AltitudeMeters>-55</AltitudeMeters>
            <DistanceMeters>NAN</DistanceMeters>
          </Trackpoint>
          <Trackpoint>
            <Time>2022-09-24T16:59:29.000Z</Time>
            <Position>
              <LatitudeDegrees>43.311247341334819793701171875</LatitudeDegrees>
              <LongitudeDegrees>-2.97951537184417247772216796875</LongitudeDegrees>
            </Position>
            <AltitudeMeters>-55.200000762939453125</AltitudeMeters>
            <DistanceMeters>NAN</DistanceMeters>
          </Trackpoint>
          <Trackpoint>
            <Time>2022-09-24T16:59:30.000Z</Time>
            <Position>
              <LatitudeDegrees>43.3111878298223018646240234375</LatitudeDegrees>
              <LongitudeDegrees>-2.9794150404632091522216796875</LongitudeDegrees>
            </Position>
            <AltitudeMeters>-55.200000762939453125</AltitudeMeters>
            <DistanceMeters>NAN</DistanceMeters>
          </Trackpoint>
          <Trackpoint>
            <Time>2022-09-24T16:59:31.000Z</Time>
            <Position>
              <LatitudeDegrees>43.3111241273581981658935546875</LatitudeDegrees>
              <LongitudeDegrees>-2.979320995509624481201171875</LongitudeDegrees>
            </Position>
            <AltitudeMeters>-55.200000762939453125</AltitudeMeters>
            <DistanceMeters>NAN</DistanceMeters>
          </Trackpoint>
          <Trackpoint>
            <Time>2022-09-24T16:59:32.000Z</Time>
            <Position>
              <LatitudeDegrees>43.31106151454150676727294921875</LatitudeDegrees>
              <LongitudeDegrees>-2.9792247712612152099609375</LongitudeDegrees>
            </Position>
            <AltitudeMeters>-55.200000762939453125</AltitudeMeters>
            <DistanceMeters>NAN</DistanceMeters>
          </Trackpoint>
          <Trackpoint>
            <Time>2022-09-24T16:59:33.000Z</Time>
            <Position>
              <LatitudeDegrees>43.31100217066705226898193359375</LatitudeDegrees>
              <LongitudeDegrees>-2.97912846319377422332763671875</LongitudeDegrees>
            </Position>
            <AltitudeMeters>-55.40000152587890625</AltitudeMeters>
            <DistanceMeters>NAN</DistanceMeters>
          </Trackpoint>
          <Trackpoint>
            <Time>2022-09-24T16:59:34.000Z</Time>
            <Position>
              <LatitudeDegrees>43.31094198860228061676025390625</LatitudeDegrees>
              <LongitudeDegrees>-2.97903659753501415252685546875</LongitudeDegrees>
            </Position>
            <AltitudeMeters>-55.40000152587890625</AltitudeMeters>
            <DistanceMeters>NAN</DistanceMeters>
          </Trackpoint>
          <Trackpoint>
            <Time>2022-09-24T16:59:35.000Z</Time>
            <Position>
              <LatitudeDegrees>43.310875855386257171630859375</LatitudeDegrees>
              <LongitudeDegrees>-2.9789463244378566741943359375</LongitudeDegrees>
            </Position>
            <AltitudeMeters>-55.40000152587890625</AltitudeMeters>
            <DistanceMeters>NAN</DistanceMeters>
          </Trackpoint>
          <Trackpoint>
            <Time>2022-09-24T16:59:36.000Z</Time>
            <Position>
              <LatitudeDegrees>43.3108136616647243499755859375</LatitudeDegrees>
              <LongitudeDegrees>-2.97886208631098270416259765625</LongitudeDegrees>
            </Position>
            <AltitudeMeters>-55.40000152587890625</AltitudeMeters>
            <DistanceMeters>NAN</DistanceMeters>
          </Trackpoint>
          <Trackpoint>
            <Time>2022-09-24T16:59:37.000Z</Time>
            <Position>
              <LatitudeDegrees>43.31074954010546207427978515625</LatitudeDegrees>
              <LongitudeDegrees>-2.978777848184108734130859375</LongitudeDegrees>
            </Position>
            <AltitudeMeters>-55.40000152587890625</AltitudeMeters>
            <DistanceMeters>NAN</DistanceMeters>
          </Trackpoint>
          <Trackpoint>
            <Time>2022-09-24T16:59:38.000Z</Time>
            <Position>
              <LatitudeDegrees>43.31068835221230983734130859375</LatitudeDegrees>
              <LongitudeDegrees>-2.97869436442852020263671875</LongitudeDegrees>
            </Position>
            <AltitudeMeters>-55.200000762939453125</AltitudeMeters>
            <DistanceMeters>NAN</DistanceMeters>
          </Trackpoint>
          <Trackpoint>
            <Time>2022-09-24T16:59:39.000Z</Time>
            <Position>
              <LatitudeDegrees>43.3106295950710773468017578125</LatitudeDegrees>
              <LongitudeDegrees>-2.978613562881946563720703125</LongitudeDegrees>
            </Position>
            <AltitudeMeters>-55</AltitudeMeters>
            <DistanceMeters>NAN</DistanceMeters>
          </Trackpoint>
          <Trackpoint>
            <Time>2022-09-24T16:59:40.000Z</Time>
            <Position>
              <LatitudeDegrees>43.31057016737759113311767578125</LatitudeDegrees>
              <LongitudeDegrees>-2.9785287380218505859375</LongitudeDegrees>
            </Position>
            <AltitudeMeters>-55</AltitudeMeters>
            <DistanceMeters>NAN</DistanceMeters>
          </Trackpoint>
          <Trackpoint>
            <Time>2022-09-24T16:59:41.000Z</Time>
            <Position>
              <LatitudeDegrees>43.3105068840086460113525390625</LatitudeDegrees>
              <LongitudeDegrees>-2.97844584099948406219482421875</LongitudeDegrees>
            </Position>
            <AltitudeMeters>-55</AltitudeMeters>
            <DistanceMeters>NAN</DistanceMeters>
          </Trackpoint>
          <Trackpoint>
            <Time>2022-09-24T16:59:42.000Z</Time>
            <Position>
              <LatitudeDegrees>43.31044343300163745880126953125</LatitudeDegrees>
              <LongitudeDegrees>-2.97836151905357837677001953125</LongitudeDegrees>
            </Position>
            <AltitudeMeters>-55</AltitudeMeters>
            <DistanceMeters>NAN</DistanceMeters>
          </Trackpoint>
          <Trackpoint>
            <Time>2022-09-24T16:59:43.000Z</Time>
            <Position>
              <LatitudeDegrees>43.31037805415689945220947265625</LatitudeDegrees>
              <LongitudeDegrees>-2.978276275098323822021484375</LongitudeDegrees>
            </Position>
            <AltitudeMeters>-55</AltitudeMeters>
            <DistanceMeters>NAN</DistanceMeters>
          </Trackpoint>
          <Trackpoint>
            <Time>2022-09-24T16:59:44.000Z</Time>
            <Position>
              <LatitudeDegrees>43.310326002538204193115234375</LatitudeDegrees>
              <LongitudeDegrees>-2.97820963896811008453369140625</LongitudeDegrees>
            </Position>
            <AltitudeMeters>-55</AltitudeMeters>
            <DistanceMeters>NAN</DistanceMeters>
          </Trackpoint>
          <Trackpoint>
            <Time>2022-09-24T16:59:45.000Z</Time>
            <Position>
              <LatitudeDegrees>43.3102498948574066162109375</LatitudeDegrees>
              <LongitudeDegrees>-2.97810788266360759735107421875</LongitudeDegrees>
            </Position>
            <AltitudeMeters>-55</AltitudeMeters>
            <DistanceMeters>NAN</DistanceMeters>
          </Trackpoint>
          <Trackpoint>
            <Time>2022-09-24T16:59:46.000Z</Time>
            <Position>
              <LatitudeDegrees>43.31018795259296894073486328125</LatitudeDegrees>
              <LongitudeDegrees>-2.9780280031263828277587890625</LongitudeDegrees>
            </Position>
            <AltitudeMeters>-55.200000762939453125</AltitudeMeters>
            <DistanceMeters>NAN</DistanceMeters>
          </Trackpoint>
          <Trackpoint>
            <Time>2022-09-24T16:59:47.000Z</Time>
            <Position>
              <LatitudeDegrees>43.3101189695298671722412109375</LatitudeDegrees>
              <LongitudeDegrees>-2.9779542423784732818603515625</LongitudeDegrees>
            </Position>
            <AltitudeMeters>-55.200000762939453125</AltitudeMeters>
            <DistanceMeters>NAN</DistanceMeters>
          </Trackpoint>
          <Trackpoint>
            <Time>2022-09-24T16:59:48.000Z</Time>
            <Position>
              <LatitudeDegrees>43.3100445382297039031982421875</LatitudeDegrees>
              <LongitudeDegrees>-2.97788190655410289764404296875</LongitudeDegrees>
            </Position>
            <AltitudeMeters>-55.200000762939453125</AltitudeMeters>
            <DistanceMeters>NAN</DistanceMeters>
          </Trackpoint>
          <Trackpoint>
            <Time>2022-09-24T16:59:49.000Z</Time>
            <Position>
              <LatitudeDegrees>43.3099657483398914337158203125</LatitudeDegrees>
              <LongitudeDegrees>-2.977815605700016021728515625</LongitudeDegrees>
            </Position>
            <AltitudeMeters>-55.59999847412109375</AltitudeMeters>
            <DistanceMeters>NAN</DistanceMeters>
          </Trackpoint>
          <Trackpoint>
            <Time>2022-09-24T16:59:50.000Z</Time>
            <Position>
              <LatitudeDegrees>43.3098846115171909332275390625</LatitudeDegrees>
              <LongitudeDegrees>-2.9777571000158786773681640625</LongitudeDegrees>
            </Position>
            <AltitudeMeters>-55.40000152587890625</AltitudeMeters>
            <DistanceMeters>NAN</DistanceMeters>
          </Trackpoint>
          <Trackpoint>
            <Time>2022-09-24T16:59:51.000Z</Time>
            <Position>
              <LatitudeDegrees>43.30980137921869754791259765625</LatitudeDegrees>
              <LongitudeDegrees>-2.97770052216947078704833984375</LongitudeDegrees>
            </Position>
            <AltitudeMeters>-55.59999847412109375</AltitudeMeters>
            <DistanceMeters>NAN</DistanceMeters>
          </Trackpoint>
          <Trackpoint>
            <Time>2022-09-24T16:59:52.000Z</Time>
            <Position>
              <LatitudeDegrees>43.30973424017429351806640625</LatitudeDegrees>
              <LongitudeDegrees>-2.97765676863491535186767578125</LongitudeDegrees>
            </Position>
            <AltitudeMeters>-55.59999847412109375</AltitudeMeters>
            <DistanceMeters>NAN</DistanceMeters>
          </Trackpoint>
          <Trackpoint>
            <Time>2022-09-24T16:59:53.000Z</Time>
            <Position>
              <LatitudeDegrees>43.30964983440935611724853515625</LatitudeDegrees>
              <LongitudeDegrees>-2.977599687874317169189453125</LongitudeDegrees>
            </Position>
            <AltitudeMeters>-55.59999847412109375</AltitudeMeters>
            <DistanceMeters>NAN</DistanceMeters>
          </Trackpoint>
          <Trackpoint>
            <Time>2022-09-24T16:59:54.000Z</Time>
            <Position>
              <LatitudeDegrees>43.30954874865710735321044921875</LatitudeDegrees>
              <LongitudeDegrees>-2.97753296792507171630859375</LongitudeDegrees>
            </Position>
            <AltitudeMeters>-55.59999847412109375</AltitudeMeters>
            <DistanceMeters>NAN</DistanceMeters>
          </Trackpoint>
          <Trackpoint>
            <Time>2022-09-24T16:59:55.000Z</Time>
            <Position>
              <LatitudeDegrees>43.3094685338437557220458984375</LatitudeDegrees>
              <LongitudeDegrees>-2.9774898849427700042724609375</LongitudeDegrees>
            </Position>
            <AltitudeMeters>-55.799999237060546875</AltitudeMeters>
            <DistanceMeters>NAN</DistanceMeters>
          </Trackpoint>
          <Trackpoint>
            <Time>2022-09-24T16:59:56.000Z</Time>
            <Position>
              <LatitudeDegrees>43.309384882450103759765625</LatitudeDegrees>
              <LongitudeDegrees>-2.9774442873895168304443359375</LongitudeDegrees>
            </Position>
            <AltitudeMeters>-55.799999237060546875</AltitudeMeters>
            <DistanceMeters>NAN</DistanceMeters>
          </Trackpoint>
          <Trackpoint>
            <Time>2022-09-24T16:59:57.000Z</Time>
            <Position>
              <LatitudeDegrees>43.30929829739034175872802734375</LatitudeDegrees>
              <LongitudeDegrees>-2.97740648500621318817138671875</LongitudeDegrees>
            </Position>
            <AltitudeMeters>-55.799999237060546875</AltitudeMeters>
            <DistanceMeters>NAN</DistanceMeters>
          </Trackpoint>
          <Trackpoint>
            <Time>2022-09-24T16:59:58.000Z</Time>
            <Position>
              <LatitudeDegrees>43.30929829739034175872802734375</LatitudeDegrees>
              <LongitudeDegrees>-2.97740648500621318817138671875</LongitudeDegrees>
            </Position>
            <AltitudeMeters>-55.799999237060546875</AltitudeMeters>
            <DistanceMeters>NAN</DistanceMeters>
          </Trackpoint>
          <Trackpoint>
            <Time>2022-09-24T16:59:59.000Z</Time>
            <Position>
              <LatitudeDegrees>43.30911942757666110992431640625</LatitudeDegrees>
              <LongitudeDegrees>-2.97734043560922145843505859375</LongitudeDegrees>
            </Position>
            <AltitudeMeters>-55.799999237060546875</AltitudeMeters>
            <DistanceMeters>NAN</DistanceMeters>
          </Trackpoint>
          <Trackpoint>
            <Time>2022-09-24T17:00:00.000Z</Time>
            <Position>
              <LatitudeDegrees>43.3090316690504550933837890625</LatitudeDegrees>
              <LongitudeDegrees>-2.9773131944239139556884765625</LongitudeDegrees>
            </Position>
            <AltitudeMeters>-56</AltitudeMeters>
            <DistanceMeters>NAN</DistanceMeters>
          </Trackpoint>
          <Trackpoint>
            <Time>2022-09-24T17:00:01.000Z</Time>
            <Position>
              <LatitudeDegrees>43.3089414797723293304443359375</LatitudeDegrees>
              <LongitudeDegrees>-2.977287210524082183837890625</LongitudeDegrees>
            </Position>
            <AltitudeMeters>-56</AltitudeMeters>
            <DistanceMeters>NAN</DistanceMeters>
          </Trackpoint>
          <Trackpoint>
            <Time>2022-09-24T17:00:02.000Z</Time>
            <Position>
              <LatitudeDegrees>43.308850117027759552001953125</LatitudeDegrees>
              <LongitudeDegrees>-2.97726600430905818939208984375</LongitudeDegrees>
            </Position>
            <AltitudeMeters>-56.59999847412109375</AltitudeMeters>
            <DistanceMeters>NAN</DistanceMeters>
          </Trackpoint>
          <Trackpoint>
            <Time>2022-09-24T17:00:03.000Z</Time>
            <Position>
              <LatitudeDegrees>43.30875883810222148895263671875</LatitudeDegrees>
              <LongitudeDegrees>-2.9772474803030490875244140625</LongitudeDegrees>
            </Position>
            <AltitudeMeters>-56.799999237060546875</AltitudeMeters>
            <DistanceMeters>NAN</DistanceMeters>
          </Trackpoint>
          <Trackpoint>
            <Time>2022-09-24T17:00:04.000Z</Time>
            <Position>
              <LatitudeDegrees>43.30866496078670024871826171875</LatitudeDegrees>
              <LongitudeDegrees>-2.97722610644996166229248046875</LongitudeDegrees>
            </Position>
            <AltitudeMeters>-57.200000762939453125</AltitudeMeters>
            <DistanceMeters>NAN</DistanceMeters>
          </Trackpoint>
          <Trackpoint>
            <Time>2022-09-24T17:00:05.000Z</Time>
            <Position>
              <LatitudeDegrees>43.30857074819505214691162109375</LatitudeDegrees>
              <LongitudeDegrees>-2.97720917500555515289306640625</LongitudeDegrees>
            </Position>
            <AltitudeMeters>-57.200000762939453125</AltitudeMeters>
            <DistanceMeters>NAN</DistanceMeters>
          </Trackpoint>
          <Trackpoint>
            <Time>2022-09-24T17:00:06.000Z</Time>
            <Position>
              <LatitudeDegrees>43.3084724284708499908447265625</LatitudeDegrees>
              <LongitudeDegrees>-2.9771945066750049591064453125</LongitudeDegrees>
            </Position>
            <AltitudeMeters>-57.40000152587890625</AltitudeMeters>
            <DistanceMeters>NAN</DistanceMeters>
          </Trackpoint>
          <Trackpoint>
            <Time>2022-09-24T17:00:07.000Z</Time>
            <Position>
              <LatitudeDegrees>43.30837880261242389678955078125</LatitudeDegrees>
              <LongitudeDegrees>-2.97717564739286899566650390625</LongitudeDegrees>
            </Position>
            <AltitudeMeters>-57.40000152587890625</AltitudeMeters>
            <DistanceMeters>NAN</DistanceMeters>
          </Trackpoint>
          <Trackpoint>
            <Time>2022-09-24T17:00:08.000Z</Time>
            <Position>
              <LatitudeDegrees>43.30829112790524959564208984375</LatitudeDegrees>
              <LongitudeDegrees>-2.9771603085100650787353515625</LongitudeDegrees>
            </Position>
            <AltitudeMeters>-57.200000762939453125</AltitudeMeters>
            <DistanceMeters>NAN</DistanceMeters>
          </Trackpoint>
          <Trackpoint>
            <Time>2022-09-24T17:00:09.000Z</Time>
            <Position>
              <LatitudeDegrees>43.308206386864185333251953125</LatitudeDegrees>
              <LongitudeDegrees>-2.97714748419821262359619140625</LongitudeDegrees>
            </Position>
            <AltitudeMeters>-57.200000762939453125</AltitudeMeters>
            <DistanceMeters>NAN</DistanceMeters>
          </Trackpoint>
          <Trackpoint>
            <Time>2022-09-24T17:00:10.000Z</Time>
            <Position>
              <LatitudeDegrees>43.30811913125216960906982421875</LatitudeDegrees>
              <LongitudeDegrees>-2.97713424079120159149169921875</LongitudeDegrees>
            </Position>
            <AltitudeMeters>-57.40000152587890625</AltitudeMeters>
            <DistanceMeters>NAN</DistanceMeters>
          </Trackpoint>
          <Trackpoint>
            <Time>2022-09-24T17:00:11.000Z</Time>
            <Position>
              <LatitudeDegrees>43.308034054934978485107421875</LatitudeDegrees>
              <LongitudeDegrees>-2.9771246016025543212890625</LongitudeDegrees>
            </Position>
            <AltitudeMeters>-57.200000762939453125</AltitudeMeters>
            <DistanceMeters>NAN</DistanceMeters>
          </Trackpoint>
          <Trackpoint>
            <Time>2022-09-24T17:00:12.000Z</Time>
            <Position>
              <LatitudeDegrees>43.30794914625585079193115234375</LatitudeDegrees>
              <LongitudeDegrees>-2.97711412422358989715576171875</LongitudeDegrees>
            </Position>
            <AltitudeMeters>-56.59999847412109375</AltitudeMeters>
            <DistanceMeters>NAN</DistanceMeters>
          </Trackpoint>
          <Trackpoint>
            <Time>2022-09-24T17:00:13.000Z</Time>
            <Position>
              <LatitudeDegrees>43.30786381848156452178955078125</LatitudeDegrees>
              <LongitudeDegrees>-2.97709937207400798797607421875</LongitudeDegrees>
            </Position>
            <AltitudeMeters>-56.59999847412109375</AltitudeMeters>
            <DistanceMeters>NAN</DistanceMeters>
          </Trackpoint>
          <Trackpoint>
            <Time>2022-09-24T17:00:14.000Z</Time>
            <Position>
              <LatitudeDegrees>43.30777849070727825164794921875</LatitudeDegrees>
              <LongitudeDegrees>-2.97708730213344097137451171875</LongitudeDegrees>
            </Position>
            <AltitudeMeters>-56.59999847412109375</AltitudeMeters>
            <DistanceMeters>NAN</DistanceMeters>
          </Trackpoint>
          <Trackpoint>
            <Time>2022-09-24T17:00:15.000Z</Time>
            <Position>
              <LatitudeDegrees>43.30768997780978679656982421875</LatitudeDegrees>
              <LongitudeDegrees>-2.97707204706966876983642578125</LongitudeDegrees>
            </Position>
            <AltitudeMeters>-56.59999847412109375</AltitudeMeters>
            <DistanceMeters>NAN</DistanceMeters>
          </Trackpoint>
          <Trackpoint>
            <Time>2022-09-24T17:00:16.000Z</Time>
            <Position>
              <LatitudeDegrees>43.30760263837873935699462890625</LatitudeDegrees>
              <LongitudeDegrees>-2.97705695964395999908447265625</LongitudeDegrees>
            </Position>
            <AltitudeMeters>-56.59999847412109375</AltitudeMeters>
            <DistanceMeters>NAN</DistanceMeters>
          </Trackpoint>
          <Trackpoint>
            <Time>2022-09-24T17:00:17.000Z</Time>
            <Position>
              <LatitudeDegrees>43.3075153827667236328125</LatitudeDegrees>
              <LongitudeDegrees>-2.97704488970339298248291015625</LongitudeDegrees>
            </Position>
            <AltitudeMeters>-56.200000762939453125</AltitudeMeters>
            <DistanceMeters>NAN</DistanceMeters>
          </Trackpoint>
          <Trackpoint>
            <Time>2022-09-24T17:00:18.000Z</Time>
            <Position>
              <LatitudeDegrees>43.3074260316789150238037109375</LatitudeDegrees>
              <LongitudeDegrees>-2.9770332388579845428466796875</LongitudeDegrees>
            </Position>
            <AltitudeMeters>-56.59999847412109375</AltitudeMeters>
            <DistanceMeters>NAN</DistanceMeters>
          </Trackpoint>
          <Trackpoint>
            <Time>2022-09-24T17:00:19.000Z</Time>
            <Position>
              <LatitudeDegrees>43.3073396980762481689453125</LatitudeDegrees>
              <LongitudeDegrees>-2.97702326439321041107177734375</LongitudeDegrees>
            </Position>
            <AltitudeMeters>-57</AltitudeMeters>
            <DistanceMeters>NAN</DistanceMeters>
          </Trackpoint>
          <Trackpoint>
            <Time>2022-09-24T17:00:20.000Z</Time>
            <Position>
              <LatitudeDegrees>43.30725294537842273712158203125</LatitudeDegrees>
              <LongitudeDegrees>-2.97701354138553142547607421875</LongitudeDegrees>
            </Position>
            <AltitudeMeters>-56.40000152587890625</AltitudeMeters>
            <DistanceMeters>NAN</DistanceMeters>
          </Trackpoint>
          <Trackpoint>
            <Time>2022-09-24T17:00:21.000Z</Time>
            <Position>
              <LatitudeDegrees>43.3071651868522167205810546875</LatitudeDegrees>
              <LongitudeDegrees>-2.97700130380690097808837890625</LongitudeDegrees>
            </Position>
            <AltitudeMeters>-56.40000152587890625</AltitudeMeters>
            <DistanceMeters>NAN</DistanceMeters>
          </Trackpoint>
          <Trackpoint>
            <Time>2022-09-24T17:00:22.000Z</Time>
            <Position>
              <LatitudeDegrees>43.30707885324954986572265625</LatitudeDegrees>
              <LongitudeDegrees>-2.9769906587898731231689453125</LongitudeDegrees>
            </Position>
            <AltitudeMeters>-56.40000152587890625</AltitudeMeters>
            <DistanceMeters>NAN</DistanceMeters>
          </Trackpoint>
          <Trackpoint>
            <Time>2022-09-24T17:00:23.000Z</Time>
            <Position>
              <LatitudeDegrees>43.30698992125689983367919921875</LatitudeDegrees>
              <LongitudeDegrees>-2.97697640955448150634765625</LongitudeDegrees>
            </Position>
            <AltitudeMeters>-56.59999847412109375</AltitudeMeters>
            <DistanceMeters>NAN</DistanceMeters>
          </Trackpoint>
          <Trackpoint>
            <Time>2022-09-24T17:00:24.000Z</Time>
            <Position>
              <LatitudeDegrees>43.306901492178440093994140625</LatitudeDegrees>
              <LongitudeDegrees>-2.97696609981358051300048828125</LongitudeDegrees>
            </Position>
            <AltitudeMeters>-56.59999847412109375</AltitudeMeters>
            <DistanceMeters>NAN</DistanceMeters>
          </Trackpoint>
          <Trackpoint>
            <Time>2022-09-24T17:00:25.000Z</Time>
            <Position>
              <LatitudeDegrees>43.30681608058512210845947265625</LatitudeDegrees>
              <LongitudeDegrees>-2.9769608192145824432373046875</LongitudeDegrees>
            </Position>
            <AltitudeMeters>-56.40000152587890625</AltitudeMeters>
            <DistanceMeters>NAN</DistanceMeters>
          </Trackpoint>
          <Trackpoint>
            <Time>2022-09-24T17:00:26.000Z</Time>
            <Position>
              <LatitudeDegrees>43.306750617921352386474609375</LatitudeDegrees>
              <LongitudeDegrees>-2.97696559689939022064208984375</LongitudeDegrees>
            </Position>
            <AltitudeMeters>-56.200000762939453125</AltitudeMeters>
            <DistanceMeters>NAN</DistanceMeters>
          </Trackpoint>
          <Trackpoint>
            <Time>2022-09-24T17:00:27.000Z</Time>
            <Position>
              <LatitudeDegrees>43.30665078945457935333251953125</LatitudeDegrees>
              <LongitudeDegrees>-2.976968698203563690185546875</LongitudeDegrees>
            </Position>
            <AltitudeMeters>-56.200000762939453125</AltitudeMeters>
            <DistanceMeters>NAN</DistanceMeters>
          </Trackpoint>
          <Trackpoint>
            <Time>2022-09-24T17:00:28.000Z</Time>
            <Position>
              <LatitudeDegrees>43.306570239365100860595703125</LatitudeDegrees>
              <LongitudeDegrees>-2.97698135487735271453857421875</LongitudeDegrees>
            </Position>
            <AltitudeMeters>-56.200000762939453125</AltitudeMeters>
            <DistanceMeters>NAN</DistanceMeters>
          </Trackpoint>
          <Trackpoint>
            <Time>2022-09-24T17:00:29.000Z</Time>
            <Position>
              <LatitudeDegrees>43.30648968927562236785888671875</LatitudeDegrees>
              <LongitudeDegrees>-2.97699476592242717742919921875</LongitudeDegrees>
            </Position>
            <AltitudeMeters>-56.200000762939453125</AltitudeMeters>
            <DistanceMeters>NAN</DistanceMeters>
          </Trackpoint>
          <Trackpoint>
            <Time>2022-09-24T17:00:30.000Z</Time>
            <Position>
              <LatitudeDegrees>43.30642464570701122283935546875</LatitudeDegrees>
              <LongitudeDegrees>-2.97700331546366214752197265625</LongitudeDegrees>
            </Position>
            <AltitudeMeters>-55.799999237060546875</AltitudeMeters>
            <DistanceMeters>NAN</DistanceMeters>
          </Trackpoint>
          <Trackpoint>
            <Time>2022-09-24T17:00:31.000Z</Time>
            <Position>
              <LatitudeDegrees>43.30634082667529582977294921875</LatitudeDegrees>
              <LongitudeDegrees>-2.97700532712042331695556640625</LongitudeDegrees>
            </Position>
            <AltitudeMeters>-55.799999237060546875</AltitudeMeters>
            <DistanceMeters>NAN</DistanceMeters>
          </Trackpoint>
          <Trackpoint>
            <Time>2022-09-24T17:00:32.000Z</Time>
            <Position>
              <LatitudeDegrees>43.30624057911336421966552734375</LatitudeDegrees>
              <LongitudeDegrees>-2.9770084284245967864990234375</LongitudeDegrees>
            </Position>
            <AltitudeMeters>-55.799999237060546875</AltitudeMeters>
            <DistanceMeters>NAN</DistanceMeters>
          </Trackpoint>
          <Trackpoint>
            <Time>2022-09-24T17:00:33.000Z</Time>
            <Position>
              <LatitudeDegrees>43.3061560057103633880615234375</LatitudeDegrees>
              <LongitudeDegrees>-2.97700985334813594818115234375</LongitudeDegrees>
            </Position>
            <AltitudeMeters>-56</AltitudeMeters>
            <DistanceMeters>NAN</DistanceMeters>
          </Trackpoint>
          <Trackpoint>
            <Time>2022-09-24T17:00:34.000Z</Time>
            <Position>
              <LatitudeDegrees>43.30607235431671142578125</LatitudeDegrees>
              <LongitudeDegrees>-2.9770119488239288330078125</LongitudeDegrees>
            </Position>
            <AltitudeMeters>-55.799999237060546875</AltitudeMeters>
            <DistanceMeters>NAN</DistanceMeters>
          </Trackpoint>
          <Trackpoint>
            <Time>2022-09-24T17:00:35.000Z</Time>
            <Position>
              <LatitudeDegrees>43.30600655637681484222412109375</LatitudeDegrees>
              <LongitudeDegrees>-2.9770173132419586181640625</LongitudeDegrees>
            </Position>
            <AltitudeMeters>-55.799999237060546875</AltitudeMeters>
            <DistanceMeters>NAN</DistanceMeters>
          </Trackpoint>
          <Trackpoint>
            <Time>2022-09-24T17:00:36.000Z</Time>
            <Position>
              <LatitudeDegrees>43.305907063186168670654296875</LatitudeDegrees>
              <LongitudeDegrees>-2.9770241864025592803955078125</LongitudeDegrees>
            </Position>
            <AltitudeMeters>-56</AltitudeMeters>
            <DistanceMeters>NAN</DistanceMeters>
          </Trackpoint>
          <Trackpoint>
            <Time>2022-09-24T17:00:37.000Z</Time>
            <Position>
              <LatitudeDegrees>43.305821232497692108154296875</LatitudeDegrees>
              <LongitudeDegrees>-2.97702946700155735015869140625</LongitudeDegrees>
            </Position>
            <AltitudeMeters>-56</AltitudeMeters>
            <DistanceMeters>NAN</DistanceMeters>
          </Trackpoint>
          <Trackpoint>
            <Time>2022-09-24T17:00:38.000Z</Time>
            <Position>
              <LatitudeDegrees>43.305736742913722991943359375</LatitudeDegrees>
              <LongitudeDegrees>-2.97703667543828487396240234375</LongitudeDegrees>
            </Position>
            <AltitudeMeters>-56.200000762939453125</AltitudeMeters>
            <DistanceMeters>NAN</DistanceMeters>
          </Trackpoint>
          <Trackpoint>
            <Time>2022-09-24T17:00:39.000Z</Time>
            <Position>
              <LatitudeDegrees>43.305736742913722991943359375</LatitudeDegrees>
              <LongitudeDegrees>-2.97703667543828487396240234375</LongitudeDegrees>
            </Position>
            <AltitudeMeters>-56.40000152587890625</AltitudeMeters>
            <DistanceMeters>NAN</DistanceMeters>
          </Trackpoint>
          <Trackpoint>
            <Time>2022-09-24T17:00:40.000Z</Time>
            <Position>
              <LatitudeDegrees>43.3055957593023777008056640625</LatitudeDegrees>
              <LongitudeDegrees>-2.97705595381557941436767578125</LongitudeDegrees>
            </Position>
            <AltitudeMeters>-56.40000152587890625</AltitudeMeters>
            <DistanceMeters>NAN</DistanceMeters>
          </Trackpoint>
          <Trackpoint>
            <Time>2022-09-24T17:00:41.000Z</Time>
            <Position>
              <LatitudeDegrees>43.30549324862658977508544921875</LatitudeDegrees>
              <LongitudeDegrees>-2.97706081531941890716552734375</LongitudeDegrees>
            </Position>
            <AltitudeMeters>-56.40000152587890625</AltitudeMeters>
            <DistanceMeters>NAN</DistanceMeters>
          </Trackpoint>
          <Trackpoint>
            <Time>2022-09-24T17:00:42.000Z</Time>
            <Position>
              <LatitudeDegrees>43.30541060306131839752197265625</LatitudeDegrees>
              <LongitudeDegrees>-2.97706668265163898468017578125</LongitudeDegrees>
            </Position>
            <AltitudeMeters>-56.40000152587890625</AltitudeMeters>
            <DistanceMeters>NAN</DistanceMeters>
          </Trackpoint>
          <Trackpoint>
            <Time>2022-09-24T17:00:43.000Z</Time>
            <Position>
              <LatitudeDegrees>43.3053307235240936279296875</LatitudeDegrees>
              <LongitudeDegrees>-2.97707925550639629364013671875</LongitudeDegrees>
            </Position>
            <AltitudeMeters>-58.40000152587890625</AltitudeMeters>
            <DistanceMeters>NAN</DistanceMeters>
          </Trackpoint>
          <Trackpoint>
            <Time>2022-09-24T17:00:44.000Z</Time>
            <Position>
              <LatitudeDegrees>43.30525101162493228912353515625</LatitudeDegrees>
              <LongitudeDegrees>-2.97708612866699695587158203125</LongitudeDegrees>
            </Position>
            <AltitudeMeters>-58.799999237060546875</AltitudeMeters>
            <DistanceMeters>NAN</DistanceMeters>
          </Trackpoint>
          <Trackpoint>
            <Time>2022-09-24T17:00:45.000Z</Time>
            <Position>
              <LatitudeDegrees>43.3051863871514797210693359375</LatitudeDegrees>
              <LongitudeDegrees>-2.97709031961858272552490234375</LongitudeDegrees>
            </Position>
            <AltitudeMeters>-58.40000152587890625</AltitudeMeters>
            <DistanceMeters>NAN</DistanceMeters>
          </Trackpoint>
          <Trackpoint>
            <Time>2022-09-24T17:00:46.000Z</Time>
            <Position>
              <LatitudeDegrees>43.3050898276269435882568359375</LatitudeDegrees>
              <LongitudeDegrees>-2.97709870152175426483154296875</LongitudeDegrees>
            </Position>
            <AltitudeMeters>-57.799999237060546875</AltitudeMeters>
            <DistanceMeters>NAN</DistanceMeters>
          </Trackpoint>
          <Trackpoint>
            <Time>2022-09-24T17:00:47.000Z</Time>
            <Position>
              <LatitudeDegrees>43.30502637661993503570556640625</LatitudeDegrees>
              <LongitudeDegrees>-2.9771049879491329193115234375</LongitudeDegrees>
            </Position>
            <AltitudeMeters>-58.40000152587890625</AltitudeMeters>
            <DistanceMeters>NAN</DistanceMeters>
          </Trackpoint>
          <Trackpoint>
            <Time>2022-09-24T17:00:48.000Z</Time>
            <Position>
              <LatitudeDegrees>43.30492679961025714874267578125</LatitudeDegrees>
              <LongitudeDegrees>-2.977109514176845550537109375</LongitudeDegrees>
            </Position>
            <AltitudeMeters>-58.59999847412109375</AltitudeMeters>
            <DistanceMeters>NAN</DistanceMeters>
          </Trackpoint>
          <Trackpoint>
            <Time>2022-09-24T17:00:49.000Z</Time>
            <Position>
              <LatitudeDegrees>43.3048433996737003326416015625</LatitudeDegrees>
              <LongitudeDegrees>-2.977114878594875335693359375</LongitudeDegrees>
            </Position>
            <AltitudeMeters>-58.59999847412109375</AltitudeMeters>
            <DistanceMeters>NAN</DistanceMeters>
          </Trackpoint>
          <Trackpoint>
            <Time>2022-09-24T17:00:50.000Z</Time>
            <Position>
              <LatitudeDegrees>43.30477659590542316436767578125</LatitudeDegrees>
              <LongitudeDegrees>-2.9771187342703342437744140625</LongitudeDegrees>
            </Position>
            <AltitudeMeters>-58.40000152587890625</AltitudeMeters>
            <DistanceMeters>NAN</DistanceMeters>
          </Trackpoint>
          <Trackpoint>
            <Time>2022-09-24T17:00:51.000Z</Time>
            <Position>
              <LatitudeDegrees>43.3046931959688663482666015625</LatitudeDegrees>
              <LongitudeDegrees>-2.97712317667901515960693359375</LongitudeDegrees>
            </Position>
            <AltitudeMeters>-58.40000152587890625</AltitudeMeters>
            <DistanceMeters>NAN</DistanceMeters>
          </Trackpoint>
          <Trackpoint>
            <Time>2022-09-24T17:00:52.000Z</Time>
            <Position>
              <LatitudeDegrees>43.30459219403564929962158203125</LatitudeDegrees>
              <LongitudeDegrees>-2.97712451778352260589599609375</LongitudeDegrees>
            </Position>
            <AltitudeMeters>-58.40000152587890625</AltitudeMeters>
            <DistanceMeters>NAN</DistanceMeters>
          </Trackpoint>
          <Trackpoint>
            <Time>2022-09-24T17:00:53.000Z</Time>
            <Position>
              <LatitudeDegrees>43.30452547408640384674072265625</LatitudeDegrees>
              <LongitudeDegrees>-2.97712351195514202117919921875</LongitudeDegrees>
            </Position>
            <AltitudeMeters>-58.40000152587890625</AltitudeMeters>
            <DistanceMeters>NAN</DistanceMeters>
          </Trackpoint>
          <Trackpoint>
            <Time>2022-09-24T17:00:54.000Z</Time>
            <Position>
              <LatitudeDegrees>43.3044420741498470306396484375</LatitudeDegrees>
              <LongitudeDegrees>-2.9771234281361103057861328125</LongitudeDegrees>
            </Position>
            <AltitudeMeters>-58.40000152587890625</AltitudeMeters>
            <DistanceMeters>NAN</DistanceMeters>
          </Trackpoint>
          <Trackpoint>
            <Time>2022-09-24T17:00:55.000Z</Time>
            <Position>
              <LatitudeDegrees>43.3044420741498470306396484375</LatitudeDegrees>
              <LongitudeDegrees>-2.9771234281361103057861328125</LongitudeDegrees>
            </Position>
            <AltitudeMeters>-58</AltitudeMeters>
            <DistanceMeters>NAN</DistanceMeters>
          </Trackpoint>
          <Trackpoint>
            <Time>2022-09-24T17:00:56.000Z</Time>
            <Position>
              <LatitudeDegrees>43.30427871085703372955322265625</LatitudeDegrees>
              <LongitudeDegrees>-2.97712334431707859039306640625</LongitudeDegrees>
            </Position>
            <AltitudeMeters>-57.59999847412109375</AltitudeMeters>
            <DistanceMeters>NAN</DistanceMeters>
          </Trackpoint>
          <Trackpoint>
            <Time>2022-09-24T17:00:57.000Z</Time>
            <Position>
              <LatitudeDegrees>43.304195813834667205810546875</LatitudeDegrees>
              <LongitudeDegrees>-2.97712049447000026702880859375</LongitudeDegrees>
            </Position>
            <AltitudeMeters>-57.200000762939453125</AltitudeMeters>
            <DistanceMeters>NAN</DistanceMeters>
          </Trackpoint>
          <Trackpoint>
            <Time>2022-09-24T17:00:58.000Z</Time>
            <Position>
              <LatitudeDegrees>43.3041178621351718902587890625</LatitudeDegrees>
              <LongitudeDegrees>-2.977115549147129058837890625</LongitudeDegrees>
            </Position>
            <AltitudeMeters>-57.200000762939453125</AltitudeMeters>
            <DistanceMeters>NAN</DistanceMeters>
          </Trackpoint>
          <Trackpoint>
            <Time>2022-09-24T17:00:59.000Z</Time>
            <Position>
              <LatitudeDegrees>43.304045610129833221435546875</LatitudeDegrees>
              <LongitudeDegrees>-2.97710171900689601898193359375</LongitudeDegrees>
            </Position>
            <AltitudeMeters>-56.799999237060546875</AltitudeMeters>
            <DistanceMeters>NAN</DistanceMeters>
          </Trackpoint>
          <Trackpoint>
            <Time>2022-09-24T17:01:00.000Z</Time>
            <Position>
              <LatitudeDegrees>43.303971849381923675537109375</LatitudeDegrees>
              <LongitudeDegrees>-2.9770842008292675018310546875</LongitudeDegrees>
            </Position>
            <AltitudeMeters>-56.799999237060546875</AltitudeMeters>
            <DistanceMeters>NAN</DistanceMeters>
          </Trackpoint>
          <Trackpoint>
            <Time>2022-09-24T17:01:01.000Z</Time>
            <Position>
              <LatitudeDegrees>43.3038912154734134674072265625</LatitudeDegrees>
              <LongitudeDegrees>-2.97706886194646358489990234375</LongitudeDegrees>
            </Position>
            <AltitudeMeters>-57.200000762939453125</AltitudeMeters>
            <DistanceMeters>NAN</DistanceMeters>
          </Trackpoint>
          <Trackpoint>
            <Time>2022-09-24T17:01:02.000Z</Time>
            <Position>
              <LatitudeDegrees>43.3038094080984592437744140625</LatitudeDegrees>
              <LongitudeDegrees>-2.97704522497951984405517578125</LongitudeDegrees>
            </Position>
            <AltitudeMeters>-57.59999847412109375</AltitudeMeters>
            <DistanceMeters>NAN</DistanceMeters>
          </Trackpoint>
          <Trackpoint>
            <Time>2022-09-24T17:01:03.000Z</Time>
            <Position>
              <LatitudeDegrees>43.3037115074694156646728515625</LatitudeDegrees>
              <LongitudeDegrees>-2.97702276147902011871337890625</LongitudeDegrees>
            </Position>
            <AltitudeMeters>-57.59999847412109375</AltitudeMeters>
            <DistanceMeters>NAN</DistanceMeters>
          </Trackpoint>
          <Trackpoint>
            <Time>2022-09-24T17:01:04.000Z</Time>
            <Position>
              <LatitudeDegrees>43.3036293648183345794677734375</LatitudeDegrees>
              <LongitudeDegrees>-2.9770181514322757720947265625</LongitudeDegrees>
            </Position>
            <AltitudeMeters>-57.59999847412109375</AltitudeMeters>
            <DistanceMeters>NAN</DistanceMeters>
          </Trackpoint>
          <Trackpoint>
            <Time>2022-09-24T17:01:05.000Z</Time>
            <Position>
              <LatitudeDegrees>43.3035438694059848785400390625</LatitudeDegrees>
              <LongitudeDegrees>-2.97701320610940456390380859375</LongitudeDegrees>
            </Position>
            <AltitudeMeters>-57.59999847412109375</AltitudeMeters>
            <DistanceMeters>NAN</DistanceMeters>
          </Trackpoint>
          <Trackpoint>
            <Time>2022-09-24T17:01:06.000Z</Time>
            <Position>
              <LatitudeDegrees>43.30345091409981250762939453125</LatitudeDegrees>
              <LongitudeDegrees>-2.9770047403872013092041015625</LongitudeDegrees>
            </Position>
            <AltitudeMeters>-57.59999847412109375</AltitudeMeters>
            <DistanceMeters>NAN</DistanceMeters>
          </Trackpoint>
          <Trackpoint>
            <Time>2022-09-24T17:01:07.000Z</Time>
            <Position>
              <LatitudeDegrees>43.3033619821071624755859375</LatitudeDegrees>
              <LongitudeDegrees>-2.976986803114414215087890625</LongitudeDegrees>
            </Position>
            <AltitudeMeters>-56.799999237060546875</AltitudeMeters>
            <DistanceMeters>NAN</DistanceMeters>
          </Trackpoint>
          <Trackpoint>
            <Time>2022-09-24T17:01:08.000Z</Time>
            <Position>
              <LatitudeDegrees>43.3032806776463985443115234375</LatitudeDegrees>
              <LongitudeDegrees>-2.976961322128772735595703125</LongitudeDegrees>
            </Position>
            <AltitudeMeters>-56.59999847412109375</AltitudeMeters>
            <DistanceMeters>NAN</DistanceMeters>
          </Trackpoint>
          <Trackpoint>
            <Time>2022-09-24T17:01:09.000Z</Time>
            <Position>
              <LatitudeDegrees>43.30321504734456539154052734375</LatitudeDegrees>
              <LongitudeDegrees>-2.97694615088403224945068359375</LongitudeDegrees>
            </Position>
            <AltitudeMeters>-56.59999847412109375</AltitudeMeters>
            <DistanceMeters>NAN</DistanceMeters>
          </Trackpoint>
          <Trackpoint>
            <Time>2022-09-24T17:01:10.000Z</Time>
            <Position>
              <LatitudeDegrees>43.30312251113355159759521484375</LatitudeDegrees>
              <LongitudeDegrees>-2.97692888416349887847900390625</LongitudeDegrees>
            </Position>
            <AltitudeMeters>-56.799999237060546875</AltitudeMeters>
            <DistanceMeters>NAN</DistanceMeters>
          </Trackpoint>
          <Trackpoint>
            <Time>2022-09-24T17:01:11.000Z</Time>
            <Position>
              <LatitudeDegrees>43.3030402846634387969970703125</LatitudeDegrees>
              <LongitudeDegrees>-2.97691966407001018524169921875</LongitudeDegrees>
            </Position>
            <AltitudeMeters>-57</AltitudeMeters>
            <DistanceMeters>NAN</DistanceMeters>
          </Trackpoint>
          <Trackpoint>
            <Time>2022-09-24T17:01:12.000Z</Time>
            <Position>
              <LatitudeDegrees>43.302956633269786834716796875</LatitudeDegrees>
              <LongitudeDegrees>-2.97691932879388332366943359375</LongitudeDegrees>
            </Position>
            <AltitudeMeters>-56.799999237060546875</AltitudeMeters>
            <DistanceMeters>NAN</DistanceMeters>
          </Trackpoint>
          <Trackpoint>
            <Time>2022-09-24T17:01:13.000Z</Time>
            <Position>
              <LatitudeDegrees>43.30287314951419830322265625</LatitudeDegrees>
              <LongitudeDegrees>-2.97690977342426776885986328125</LongitudeDegrees>
            </Position>
            <AltitudeMeters>-56.59999847412109375</AltitudeMeters>
            <DistanceMeters>NAN</DistanceMeters>
          </Trackpoint>
          <Trackpoint>
            <Time>2022-09-24T17:01:14.000Z</Time>
            <Position>
              <LatitudeDegrees>43.302795030176639556884765625</LatitudeDegrees>
              <LongitudeDegrees>-2.97690189443528652191162109375</LongitudeDegrees>
            </Position>
            <AltitudeMeters>-56.200000762939453125</AltitudeMeters>
            <DistanceMeters>NAN</DistanceMeters>
          </Trackpoint>
          <Trackpoint>
            <Time>2022-09-24T17:01:15.000Z</Time>
            <Position>
              <LatitudeDegrees>43.3027154020965099334716796875</LatitudeDegrees>
              <LongitudeDegrees>-2.97688630409538745880126953125</LongitudeDegrees>
            </Position>
            <AltitudeMeters>-57</AltitudeMeters>
            <DistanceMeters>NAN</DistanceMeters>
          </Trackpoint>
          <Trackpoint>
            <Time>2022-09-24T17:01:16.000Z</Time>
            <Position>
              <LatitudeDegrees>43.30264038406312465667724609375</LatitudeDegrees>
              <LongitudeDegrees>-2.976857721805572509765625</LongitudeDegrees>
            </Position>
            <AltitudeMeters>-56.200000762939453125</AltitudeMeters>
            <DistanceMeters>NAN</DistanceMeters>
          </Trackpoint>
          <Trackpoint>
            <Time>2022-09-24T17:01:17.000Z</Time>
            <Position>
              <LatitudeDegrees>43.302574418485164642333984375</LatitudeDegrees>
              <LongitudeDegrees>-2.97680868767201900482177734375</LongitudeDegrees>
            </Position>
            <AltitudeMeters>-56.200000762939453125</AltitudeMeters>
            <DistanceMeters>NAN</DistanceMeters>
          </Trackpoint>
          <Trackpoint>
            <Time>2022-09-24T17:01:18.000Z</Time>
            <Position>
              <LatitudeDegrees>43.30250074155628681182861328125</LatitudeDegrees>
              <LongitudeDegrees>-2.97676384449005126953125</LongitudeDegrees>
            </Position>
            <AltitudeMeters>-56.200000762939453125</AltitudeMeters>
            <DistanceMeters>NAN</DistanceMeters>
          </Trackpoint>
          <Trackpoint>
            <Time>2022-09-24T17:01:19.000Z</Time>
            <Position>
              <LatitudeDegrees>43.30240988172590732574462890625</LatitudeDegrees>
              <LongitudeDegrees>-2.97674632631242275238037109375</LongitudeDegrees>
            </Position>
            <AltitudeMeters>-56.200000762939453125</AltitudeMeters>
            <DistanceMeters>NAN</DistanceMeters>
          </Trackpoint>
          <Trackpoint>
            <Time>2022-09-24T17:01:20.000Z</Time>
            <Position>
              <LatitudeDegrees>43.302343748509883880615234375</LatitudeDegrees>
              <LongitudeDegrees>-2.97672805376350879669189453125</LongitudeDegrees>
            </Position>
            <AltitudeMeters>-56.200000762939453125</AltitudeMeters>
            <DistanceMeters>NAN</DistanceMeters>
          </Trackpoint>
          <Trackpoint>
            <Time>2022-09-24T17:01:21.000Z</Time>
            <Position>
              <LatitudeDegrees>43.30225917510688304901123046875</LatitudeDegrees>
              <LongitudeDegrees>-2.97671045176684856414794921875</LongitudeDegrees>
            </Position>
            <AltitudeMeters>-56.200000762939453125</AltitudeMeters>
            <DistanceMeters>NAN</DistanceMeters>
          </Trackpoint>
          <Trackpoint>
            <Time>2022-09-24T17:01:22.000Z</Time>
            <Position>
              <LatitudeDegrees>43.30217334441840648651123046875</LatitudeDegrees>
              <LongitudeDegrees>-2.9767053388059139251708984375</LongitudeDegrees>
            </Position>
            <AltitudeMeters>-56</AltitudeMeters>
            <DistanceMeters>NAN</DistanceMeters>
          </Trackpoint>
          <Trackpoint>
            <Time>2022-09-24T17:01:23.000Z</Time>
            <Position>
              <LatitudeDegrees>43.302076868712902069091796875</LatitudeDegrees>
              <LongitudeDegrees>-2.97668010927736759185791015625</LongitudeDegrees>
            </Position>
            <AltitudeMeters>-56</AltitudeMeters>
            <DistanceMeters>NAN</DistanceMeters>
          </Trackpoint>
          <Trackpoint>
            <Time>2022-09-24T17:01:24.000Z</Time>
            <Position>
              <LatitudeDegrees>43.30201090313494205474853515625</LatitudeDegrees>
              <LongitudeDegrees>-2.97666728496551513671875</LongitudeDegrees>
            </Position>
            <AltitudeMeters>-55.799999237060546875</AltitudeMeters>
            <DistanceMeters>NAN</DistanceMeters>
          </Trackpoint>
          <Trackpoint>
            <Time>2022-09-24T17:01:25.000Z</Time>
            <Position>
              <LatitudeDegrees>43.3019323647022247314453125</LatitudeDegrees>
              <LongitudeDegrees>-2.9766443185508251190185546875</LongitudeDegrees>
            </Position>
            <AltitudeMeters>-55.799999237060546875</AltitudeMeters>
            <DistanceMeters>NAN</DistanceMeters>
          </Trackpoint>
          <Trackpoint>
            <Time>2022-09-24T17:01:26.000Z</Time>
            <Position>
              <LatitudeDegrees>43.30185399390757083892822265625</LatitudeDegrees>
              <LongitudeDegrees>-2.9766242019832134246826171875</LongitudeDegrees>
            </Position>
            <AltitudeMeters>-55.799999237060546875</AltitudeMeters>
            <DistanceMeters>NAN</DistanceMeters>
          </Trackpoint>
          <Trackpoint>
            <Time>2022-09-24T17:01:27.000Z</Time>
            <Position>
              <LatitudeDegrees>43.30177478492259979248046875</LatitudeDegrees>
              <LongitudeDegrees>-2.9766060970723628997802734375</LongitudeDegrees>
            </Position>
            <AltitudeMeters>-55.799999237060546875</AltitudeMeters>
            <DistanceMeters>NAN</DistanceMeters>
          </Trackpoint>
          <Trackpoint>
            <Time>2022-09-24T17:01:28.000Z</Time>
            <Position>
              <LatitudeDegrees>43.30169540829956531524658203125</LatitudeDegrees>
              <LongitudeDegrees>-2.97658254392445087432861328125</LongitudeDegrees>
            </Position>
            <AltitudeMeters>-55.59999847412109375</AltitudeMeters>
            <DistanceMeters>NAN</DistanceMeters>
          </Trackpoint>
          <Trackpoint>
            <Time>2022-09-24T17:01:29.000Z</Time>
            <Position>
              <LatitudeDegrees>43.30161477439105510711669921875</LatitudeDegrees>
              <LongitudeDegrees>-2.97657449729740619659423828125</LongitudeDegrees>
            </Position>
            <AltitudeMeters>-55.59999847412109375</AltitudeMeters>
            <DistanceMeters>NAN</DistanceMeters>
          </Trackpoint>
          <Trackpoint>
            <Time>2022-09-24T17:01:30.000Z</Time>
            <Position>
              <LatitudeDegrees>43.30161477439105510711669921875</LatitudeDegrees>
              <LongitudeDegrees>-2.97657449729740619659423828125</LongitudeDegrees>
            </Position>
            <AltitudeMeters>-55.799999237060546875</AltitudeMeters>
            <DistanceMeters>NAN</DistanceMeters>
          </Trackpoint>
          <Trackpoint>
            <Time>2022-09-24T17:01:31.000Z</Time>
            <Position>
              <LatitudeDegrees>43.301464654505252838134765625</LatitudeDegrees>
              <LongitudeDegrees>-2.97654650174081325531005859375</LongitudeDegrees>
            </Position>
            <AltitudeMeters>-55.799999237060546875</AltitudeMeters>
            <DistanceMeters>NAN</DistanceMeters>
          </Trackpoint>
          <Trackpoint>
            <Time>2022-09-24T17:01:32.000Z</Time>
            <Position>
              <LatitudeDegrees>43.30138863064348697662353515625</LatitudeDegrees>
              <LongitudeDegrees>-2.97652789391577243804931640625</LongitudeDegrees>
            </Position>
            <AltitudeMeters>-55.799999237060546875</AltitudeMeters>
            <DistanceMeters>NAN</DistanceMeters>
          </Trackpoint>
          <Trackpoint>
            <Time>2022-09-24T17:01:33.000Z</Time>
            <Position>
              <LatitudeDegrees>43.3013136126101016998291015625</LatitudeDegrees>
              <LongitudeDegrees>-2.9765076935291290283203125</LongitudeDegrees>
            </Position>
            <AltitudeMeters>-55.799999237060546875</AltitudeMeters>
            <DistanceMeters>NAN</DistanceMeters>
          </Trackpoint>
          <Trackpoint>
            <Time>2022-09-24T17:01:34.000Z</Time>
            <Position>
              <LatitudeDegrees>43.30124060623347759246826171875</LatitudeDegrees>
              <LongitudeDegrees>-2.976485900580883026123046875</LongitudeDegrees>
            </Position>
            <AltitudeMeters>-56.799999237060546875</AltitudeMeters>
            <DistanceMeters>NAN</DistanceMeters>
          </Trackpoint>
          <Trackpoint>
            <Time>2022-09-24T17:01:35.000Z</Time>
            <Position>
              <LatitudeDegrees>43.30116600729525089263916015625</LatitudeDegrees>
              <LongitudeDegrees>-2.9764609225094318389892578125</LongitudeDegrees>
            </Position>
            <AltitudeMeters>-56.799999237060546875</AltitudeMeters>
            <DistanceMeters>NAN</DistanceMeters>
          </Trackpoint>
          <Trackpoint>
            <Time>2022-09-24T17:01:36.000Z</Time>
            <Position>
              <LatitudeDegrees>43.30108839087188243865966796875</LatitudeDegrees>
              <LongitudeDegrees>-2.97643753699958324432373046875</LongitudeDegrees>
            </Position>
            <AltitudeMeters>-56.799999237060546875</AltitudeMeters>
            <DistanceMeters>NAN</DistanceMeters>
          </Trackpoint>
          <Trackpoint>
            <Time>2022-09-24T17:01:37.000Z</Time>
            <Position>
              <LatitudeDegrees>43.30100859515368938446044921875</LatitudeDegrees>
              <LongitudeDegrees>-2.9764126427471637725830078125</LongitudeDegrees>
            </Position>
            <AltitudeMeters>-57</AltitudeMeters>
            <DistanceMeters>NAN</DistanceMeters>
          </Trackpoint>
          <Trackpoint>
            <Time>2022-09-24T17:01:38.000Z</Time>
            <Position>
              <LatitudeDegrees>43.300930894911289215087890625</LatitudeDegrees>
              <LongitudeDegrees>-2.9763896763324737548828125</LongitudeDegrees>
            </Position>
            <AltitudeMeters>-57</AltitudeMeters>
            <DistanceMeters>NAN</DistanceMeters>
          </Trackpoint>
          <Trackpoint>
            <Time>2022-09-24T17:01:39.000Z</Time>
            <Position>
              <LatitudeDegrees>43.30085554160177707672119140625</LatitudeDegrees>
              <LongitudeDegrees>-2.9763677157461643218994140625</LongitudeDegrees>
            </Position>
            <AltitudeMeters>-57</AltitudeMeters>
            <DistanceMeters>NAN</DistanceMeters>
          </Trackpoint>
          <Trackpoint>
            <Time>2022-09-24T17:01:40.000Z</Time>
            <Position>
              <LatitudeDegrees>43.30078396014869213104248046875</LatitudeDegrees>
              <LongitudeDegrees>-2.97634466551244258880615234375</LongitudeDegrees>
            </Position>
            <AltitudeMeters>-57</AltitudeMeters>
            <DistanceMeters>NAN</DistanceMeters>
          </Trackpoint>
          <Trackpoint>
            <Time>2022-09-24T17:01:41.000Z</Time>
            <Position>
              <LatitudeDegrees>43.3007119596004486083984375</LatitudeDegrees>
              <LongitudeDegrees>-2.9763180948793888092041015625</LongitudeDegrees>
            </Position>
            <AltitudeMeters>-56.799999237060546875</AltitudeMeters>
            <DistanceMeters>NAN</DistanceMeters>
          </Trackpoint>
          <Trackpoint>
            <Time>2022-09-24T17:01:42.000Z</Time>
            <Position>
              <LatitudeDegrees>43.30063777975738048553466796875</LatitudeDegrees>
              <LongitudeDegrees>-2.9762922786176204681396484375</LongitudeDegrees>
            </Position>
            <AltitudeMeters>-56</AltitudeMeters>
            <DistanceMeters>NAN</DistanceMeters>
          </Trackpoint>
          <Trackpoint>
            <Time>2022-09-24T17:01:43.000Z</Time>
            <Position>
              <LatitudeDegrees>43.30063777975738048553466796875</LatitudeDegrees>
              <LongitudeDegrees>-2.9762922786176204681396484375</LongitudeDegrees>
            </Position>
            <AltitudeMeters>-56</AltitudeMeters>
            <DistanceMeters>NAN</DistanceMeters>
          </Trackpoint>
          <Trackpoint>
            <Time>2022-09-24T17:01:44.000Z</Time>
            <Position>
              <LatitudeDegrees>43.3004918508231639862060546875</LatitudeDegrees>
              <LongitudeDegrees>-2.97624642960727214813232421875</LongitudeDegrees>
            </Position>
            <AltitudeMeters>-56</AltitudeMeters>
            <DistanceMeters>NAN</DistanceMeters>
          </Trackpoint>
          <Trackpoint>
            <Time>2022-09-24T17:01:45.000Z</Time>
            <Position>
              <LatitudeDegrees>43.30041482113301753997802734375</LatitudeDegrees>
              <LongitudeDegrees>-2.9762295819818973541259765625</LongitudeDegrees>
            </Position>
            <AltitudeMeters>-56</AltitudeMeters>
            <DistanceMeters>NAN</DistanceMeters>
          </Trackpoint>
          <Trackpoint>
            <Time>2022-09-24T17:01:46.000Z</Time>
            <Position>
              <LatitudeDegrees>43.30033720470964908599853515625</LatitudeDegrees>
              <LongitudeDegrees>-2.976212315261363983154296875</LongitudeDegrees>
            </Position>
            <AltitudeMeters>-56</AltitudeMeters>
            <DistanceMeters>NAN</DistanceMeters>
          </Trackpoint>
          <Trackpoint>
            <Time>2022-09-24T17:01:47.000Z</Time>
            <Position>
              <LatitudeDegrees>43.30025791190564632415771484375</LatitudeDegrees>
              <LongitudeDegrees>-2.9761880077421665191650390625</LongitudeDegrees>
            </Position>
            <AltitudeMeters>-56</AltitudeMeters>
            <DistanceMeters>NAN</DistanceMeters>
          </Trackpoint>
          <Trackpoint>
            <Time>2022-09-24T17:01:48.000Z</Time>
            <Position>
              <LatitudeDegrees>43.30017887055873870849609375</LatitudeDegrees>
              <LongitudeDegrees>-2.97615967690944671630859375</LongitudeDegrees>
            </Position>
            <AltitudeMeters>-57.40000152587890625</AltitudeMeters>
            <DistanceMeters>NAN</DistanceMeters>
          </Trackpoint>
          <Trackpoint>
            <Time>2022-09-24T17:01:49.000Z</Time>
            <Position>
              <LatitudeDegrees>43.3000992424786090850830078125</LatitudeDegrees>
              <LongitudeDegrees>-2.9761300049722194671630859375</LongitudeDegrees>
            </Position>
            <AltitudeMeters>-57.40000152587890625</AltitudeMeters>
            <DistanceMeters>NAN</DistanceMeters>
          </Trackpoint>
          <Trackpoint>
            <Time>2022-09-24T17:01:50.000Z</Time>
            <Position>
              <LatitudeDegrees>43.300018608570098876953125</LatitudeDegrees>
              <LongitudeDegrees>-2.9760981537401676177978515625</LongitudeDegrees>
            </Position>
            <AltitudeMeters>-57.59999847412109375</AltitudeMeters>
            <DistanceMeters>NAN</DistanceMeters>
          </Trackpoint>
          <Trackpoint>
            <Time>2022-09-24T17:01:51.000Z</Time>
            <Position>
              <LatitudeDegrees>43.299943171441555023193359375</LatitudeDegrees>
              <LongitudeDegrees>-2.97606957145035266876220703125</LongitudeDegrees>
            </Position>
            <AltitudeMeters>-57.59999847412109375</AltitudeMeters>
            <DistanceMeters>NAN</DistanceMeters>
          </Trackpoint>
          <Trackpoint>
            <Time>2022-09-24T17:01:52.000Z</Time>
            <Position>
              <LatitudeDegrees>43.29986614175140857696533203125</LatitudeDegrees>
              <LongitudeDegrees>-2.9760421626269817352294921875</LongitudeDegrees>
            </Position>
            <AltitudeMeters>-57.40000152587890625</AltitudeMeters>
            <DistanceMeters>NAN</DistanceMeters>
          </Trackpoint>
          <Trackpoint>
            <Time>2022-09-24T17:01:53.000Z</Time>
            <Position>
              <LatitudeDegrees>43.29979129135608673095703125</LatitudeDegrees>
              <LongitudeDegrees>-2.9760156758129596710205078125</LongitudeDegrees>
            </Position>
            <AltitudeMeters>-56.40000152587890625</AltitudeMeters>
            <DistanceMeters>NAN</DistanceMeters>
          </Trackpoint>
          <Trackpoint>
            <Time>2022-09-24T17:01:54.000Z</Time>
            <Position>
              <LatitudeDegrees>43.29971359111368656158447265625</LatitudeDegrees>
              <LongitudeDegrees>-2.97598692588508129119873046875</LongitudeDegrees>
            </Position>
            <AltitudeMeters>-56.40000152587890625</AltitudeMeters>
            <DistanceMeters>NAN</DistanceMeters>
          </Trackpoint>
          <Trackpoint>
            <Time>2022-09-24T17:01:55.000Z</Time>
            <Position>
              <LatitudeDegrees>43.2996385730803012847900390625</LatitudeDegrees>
              <LongitudeDegrees>-2.9759578406810760498046875</LongitudeDegrees>
            </Position>
            <AltitudeMeters>-56.40000152587890625</AltitudeMeters>
            <DistanceMeters>NAN</DistanceMeters>
          </Trackpoint>
          <Trackpoint>
            <Time>2022-09-24T17:01:56.000Z</Time>
            <Position>
              <LatitudeDegrees>43.29956271685659885406494140625</LatitudeDegrees>
              <LongitudeDegrees>-2.97592875547707080841064453125</LongitudeDegrees>
            </Position>
            <AltitudeMeters>-56.40000152587890625</AltitudeMeters>
            <DistanceMeters>NAN</DistanceMeters>
          </Trackpoint>
          <Trackpoint>
            <Time>2022-09-24T17:01:57.000Z</Time>
            <Position>
              <LatitudeDegrees>43.299485184252262115478515625</LatitudeDegrees>
              <LongitudeDegrees>-2.975898496806621551513671875</LongitudeDegrees>
            </Position>
            <AltitudeMeters>-56.200000762939453125</AltitudeMeters>
            <DistanceMeters>NAN</DistanceMeters>
          </Trackpoint>
          <Trackpoint>
            <Time>2022-09-24T17:01:58.000Z</Time>
            <Position>
              <LatitudeDegrees>43.29940480180084705352783203125</LatitudeDegrees>
              <LongitudeDegrees>-2.9758668132126331329345703125</LongitudeDegrees>
            </Position>
            <AltitudeMeters>-56.40000152587890625</AltitudeMeters>
            <DistanceMeters>NAN</DistanceMeters>
          </Trackpoint>
          <Trackpoint>
            <Time>2022-09-24T17:01:59.000Z</Time>
            <Position>
              <LatitudeDegrees>43.29932483844459056854248046875</LatitudeDegrees>
              <LongitudeDegrees>-2.9758349619805812835693359375</LongitudeDegrees>
            </Position>
            <AltitudeMeters>-56.200000762939453125</AltitudeMeters>
            <DistanceMeters>NAN</DistanceMeters>
          </Trackpoint>
          <Trackpoint>
            <Time>2022-09-24T17:02:00.000Z</Time>
            <Position>
              <LatitudeDegrees>43.2992452941834926605224609375</LatitudeDegrees>
              <LongitudeDegrees>-2.9758057929575443267822265625</LongitudeDegrees>
            </Position>
            <AltitudeMeters>-56.200000762939453125</AltitudeMeters>
            <DistanceMeters>NAN</DistanceMeters>
          </Trackpoint>
          <Trackpoint>
            <Time>2022-09-24T17:02:01.000Z</Time>
            <Position>
              <LatitudeDegrees>43.29916491173207759857177734375</LatitudeDegrees>
              <LongitudeDegrees>-2.97577603720128536224365234375</LongitudeDegrees>
            </Position>
            <AltitudeMeters>-56.200000762939453125</AltitudeMeters>
            <DistanceMeters>NAN</DistanceMeters>
          </Trackpoint>
          <Trackpoint>
            <Time>2022-09-24T17:02:02.000Z</Time>
            <Position>
              <LatitudeDegrees>43.29908478073775768280029296875</LatitudeDegrees>
              <LongitudeDegrees>-2.97574468888342380523681640625</LongitudeDegrees>
            </Position>
            <AltitudeMeters>-56</AltitudeMeters>
            <DistanceMeters>NAN</DistanceMeters>
          </Trackpoint>
          <Trackpoint>
            <Time>2022-09-24T17:02:03.000Z</Time>
            <Position>
              <LatitudeDegrees>43.299003727734088897705078125</LatitudeDegrees>
              <LongitudeDegrees>-2.97571518458425998687744140625</LongitudeDegrees>
            </Position>
            <AltitudeMeters>-56</AltitudeMeters>
            <DistanceMeters>NAN</DistanceMeters>
          </Trackpoint>
          <Trackpoint>
            <Time>2022-09-24T17:02:04.000Z</Time>
            <Position>
              <LatitudeDegrees>43.298927284777164459228515625</LatitudeDegrees>
              <LongitudeDegrees>-2.9756827466189861297607421875</LongitudeDegrees>
            </Position>
            <AltitudeMeters>-55.799999237060546875</AltitudeMeters>
            <DistanceMeters>NAN</DistanceMeters>
          </Trackpoint>
          <Trackpoint>
            <Time>2022-09-24T17:02:05.000Z</Time>
            <Position>
              <LatitudeDegrees>43.29885117709636688232421875</LatitudeDegrees>
              <LongitudeDegrees>-2.97565064392983913421630859375</LongitudeDegrees>
            </Position>
            <AltitudeMeters>-55.799999237060546875</AltitudeMeters>
            <DistanceMeters>NAN</DistanceMeters>
          </Trackpoint>
          <Trackpoint>
            <Time>2022-09-24T17:02:06.000Z</Time>
            <Position>
              <LatitudeDegrees>43.29877481795847415924072265625</LatitudeDegrees>
              <LongitudeDegrees>-2.97561828978359699249267578125</LongitudeDegrees>
            </Position>
            <AltitudeMeters>-55.799999237060546875</AltitudeMeters>
            <DistanceMeters>NAN</DistanceMeters>
          </Trackpoint>
          <Trackpoint>
            <Time>2022-09-24T17:02:07.000Z</Time>
            <Position>
              <LatitudeDegrees>43.2986997999250888824462890625</LatitudeDegrees>
              <LongitudeDegrees>-2.9755875281989574432373046875</LongitudeDegrees>
            </Position>
            <AltitudeMeters>-55.799999237060546875</AltitudeMeters>
            <DistanceMeters>NAN</DistanceMeters>
          </Trackpoint>
          <Trackpoint>
            <Time>2022-09-24T17:02:08.000Z</Time>
            <Position>
              <LatitudeDegrees>43.2986230216920375823974609375</LatitudeDegrees>
              <LongitudeDegrees>-2.97555207274854183197021484375</LongitudeDegrees>
            </Position>
            <AltitudeMeters>-56</AltitudeMeters>
            <DistanceMeters>NAN</DistanceMeters>
          </Trackpoint>
          <Trackpoint>
            <Time>2022-09-24T17:02:09.000Z</Time>
            <Position>
              <LatitudeDegrees>43.29855211079120635986328125</LatitudeDegrees>
              <LongitudeDegrees>-2.97551502473652362823486328125</LongitudeDegrees>
            </Position>
            <AltitudeMeters>-56</AltitudeMeters>
            <DistanceMeters>NAN</DistanceMeters>
          </Trackpoint>
          <Trackpoint>
            <Time>2022-09-24T17:02:10.000Z</Time>
            <Position>
              <LatitudeDegrees>43.29848178662359714508056640625</LatitudeDegrees>
              <LongitudeDegrees>-2.97547613270580768585205078125</LongitudeDegrees>
            </Position>
            <AltitudeMeters>-55.40000152587890625</AltitudeMeters>
            <DistanceMeters>NAN</DistanceMeters>
          </Trackpoint>
          <Trackpoint>
            <Time>2022-09-24T17:02:11.000Z</Time>
            <Position>
              <LatitudeDegrees>43.298409618437290191650390625</LatitudeDegrees>
              <LongitudeDegrees>-2.9754322953522205352783203125</LongitudeDegrees>
            </Position>
            <AltitudeMeters>-56</AltitudeMeters>
            <DistanceMeters>NAN</DistanceMeters>
          </Trackpoint>
          <Trackpoint>
            <Time>2022-09-24T17:02:12.000Z</Time>
            <Position>
              <LatitudeDegrees>43.2983407191932201385498046875</LatitudeDegrees>
              <LongitudeDegrees>-2.97538493759930133819580078125</LongitudeDegrees>
            </Position>
            <AltitudeMeters>-56</AltitudeMeters>
            <DistanceMeters>NAN</DistanceMeters>
          </Trackpoint>
          <Trackpoint>
            <Time>2022-09-24T17:02:13.000Z</Time>
            <Position>
              <LatitudeDegrees>43.29827240668237209320068359375</LatitudeDegrees>
              <LongitudeDegrees>-2.97533665783703327178955078125</LongitudeDegrees>
            </Position>
            <AltitudeMeters>-55.40000152587890625</AltitudeMeters>
            <DistanceMeters>NAN</DistanceMeters>
          </Trackpoint>
          <Trackpoint>
            <Time>2022-09-24T17:02:14.000Z</Time>
            <Position>
              <LatitudeDegrees>43.2981988973915576934814453125</LatitudeDegrees>
              <LongitudeDegrees>-2.9752886295318603515625</LongitudeDegrees>
            </Position>
            <AltitudeMeters>-55.40000152587890625</AltitudeMeters>
            <DistanceMeters>NAN</DistanceMeters>
          </Trackpoint>
          <Trackpoint>
            <Time>2022-09-24T17:02:15.000Z</Time>
            <Position>
              <LatitudeDegrees>43.29812907613813877105712890625</LatitudeDegrees>
              <LongitudeDegrees>-2.97523674555122852325439453125</LongitudeDegrees>
            </Position>
            <AltitudeMeters>-55</AltitudeMeters>
            <DistanceMeters>NAN</DistanceMeters>
          </Trackpoint>
          <Trackpoint>
            <Time>2022-09-24T17:02:16.000Z</Time>
            <Position>
              <LatitudeDegrees>43.2980590872466564178466796875</LatitudeDegrees>
              <LongitudeDegrees>-2.97518075443804264068603515625</LongitudeDegrees>
            </Position>
            <AltitudeMeters>-55.200000762939453125</AltitudeMeters>
            <DistanceMeters>NAN</DistanceMeters>
          </Trackpoint>
          <Trackpoint>
            <Time>2022-09-24T17:02:17.000Z</Time>
            <Position>
              <LatitudeDegrees>43.29799018800258636474609375</LatitudeDegrees>
              <LongitudeDegrees>-2.97512568533420562744140625</LongitudeDegrees>
            </Position>
            <AltitudeMeters>-55.200000762939453125</AltitudeMeters>
            <DistanceMeters>NAN</DistanceMeters>
          </Trackpoint>
          <Trackpoint>
            <Time>2022-09-24T17:02:18.000Z</Time>
            <Position>
              <LatitudeDegrees>43.2979219593107700347900390625</LatitudeDegrees>
              <LongitudeDegrees>-2.975071370601654052734375</LongitudeDegrees>
            </Position>
            <AltitudeMeters>-55</AltitudeMeters>
            <DistanceMeters>NAN</DistanceMeters>
          </Trackpoint>
          <Trackpoint>
            <Time>2022-09-24T17:02:19.000Z</Time>
            <Position>
              <LatitudeDegrees>43.29785331152379512786865234375</LatitudeDegrees>
              <LongitudeDegrees>-2.9750155471265316009521484375</LongitudeDegrees>
            </Position>
            <AltitudeMeters>-55</AltitudeMeters>
            <DistanceMeters>NAN</DistanceMeters>
          </Trackpoint>
          <Trackpoint>
            <Time>2022-09-24T17:02:20.000Z</Time>
            <Position>
              <LatitudeDegrees>43.2977883517742156982421875</LatitudeDegrees>
              <LongitudeDegrees>-2.9749608971178531646728515625</LongitudeDegrees>
            </Position>
            <AltitudeMeters>-55.200000762939453125</AltitudeMeters>
            <DistanceMeters>NAN</DistanceMeters>
          </Trackpoint>
          <Trackpoint>
            <Time>2022-09-24T17:02:21.000Z</Time>
            <Position>
              <LatitudeDegrees>43.29772062599658966064453125</LatitudeDegrees>
              <LongitudeDegrees>-2.97490666620433330535888671875</LongitudeDegrees>
            </Position>
            <AltitudeMeters>-55</AltitudeMeters>
            <DistanceMeters>NAN</DistanceMeters>
          </Trackpoint>
          <Trackpoint>
            <Time>2022-09-24T17:02:22.000Z</Time>
            <Position>
              <LatitudeDegrees>43.29772062599658966064453125</LatitudeDegrees>
              <LongitudeDegrees>-2.97490666620433330535888671875</LongitudeDegrees>
            </Position>
            <AltitudeMeters>-55</AltitudeMeters>
            <DistanceMeters>NAN</DistanceMeters>
          </Trackpoint>
          <Trackpoint>
            <Time>2022-09-24T17:02:23.000Z</Time>
            <Position>
              <LatitudeDegrees>43.29757712781429290771484375</LatitudeDegrees>
              <LongitudeDegrees>-2.97479233704507350921630859375</LongitudeDegrees>
            </Position>
            <AltitudeMeters>-55</AltitudeMeters>
            <DistanceMeters>NAN</DistanceMeters>
          </Trackpoint>
          <Trackpoint>
            <Time>2022-09-24T17:02:24.000Z</Time>
            <Position>
              <LatitudeDegrees>43.2975085638463497161865234375</LatitudeDegrees>
              <LongitudeDegrees>-2.97473567537963390350341796875</LongitudeDegrees>
            </Position>
            <AltitudeMeters>-55</AltitudeMeters>
            <DistanceMeters>NAN</DistanceMeters>
          </Trackpoint>
          <Trackpoint>
            <Time>2022-09-24T17:02:25.000Z</Time>
            <Position>
              <LatitudeDegrees>43.297441340982913970947265625</LatitudeDegrees>
              <LongitudeDegrees>-2.97467918135225772857666015625</LongitudeDegrees>
            </Position>
            <AltitudeMeters>-55.40000152587890625</AltitudeMeters>
            <DistanceMeters>NAN</DistanceMeters>
          </Trackpoint>
          <Trackpoint>
            <Time>2022-09-24T17:02:26.000Z</Time>
            <Position>
              <LatitudeDegrees>43.29737319611012935638427734375</LatitudeDegrees>
              <LongitudeDegrees>-2.9746247828006744384765625</LongitudeDegrees>
            </Position>
            <AltitudeMeters>-55.40000152587890625</AltitudeMeters>
            <DistanceMeters>NAN</DistanceMeters>
          </Trackpoint>
          <Trackpoint>
            <Time>2022-09-24T17:02:27.000Z</Time>
            <Position>
              <LatitudeDegrees>43.29730496741831302642822265625</LatitudeDegrees>
              <LongitudeDegrees>-2.97457256354391574859619140625</LongitudeDegrees>
            </Position>
            <AltitudeMeters>-55.40000152587890625</AltitudeMeters>
            <DistanceMeters>NAN</DistanceMeters>
          </Trackpoint>
          <Trackpoint>
            <Time>2022-09-24T17:02:28.000Z</Time>
            <Position>
              <LatitudeDegrees>43.2972356490790843963623046875</LatitudeDegrees>
              <LongitudeDegrees>-2.97451606951653957366943359375</LongitudeDegrees>
            </Position>
            <AltitudeMeters>-55.40000152587890625</AltitudeMeters>
            <DistanceMeters>NAN</DistanceMeters>
          </Trackpoint>
          <Trackpoint>
            <Time>2022-09-24T17:02:29.000Z</Time>
            <Position>
              <LatitudeDegrees>43.29716431908309459686279296875</LatitudeDegrees>
              <LongitudeDegrees>-2.9744613356888294219970703125</LongitudeDegrees>
            </Position>
            <AltitudeMeters>-55.40000152587890625</AltitudeMeters>
            <DistanceMeters>NAN</DistanceMeters>
          </Trackpoint>
          <Trackpoint>
            <Time>2022-09-24T17:02:30.000Z</Time>
            <Position>
              <LatitudeDegrees>43.29709290526807308197021484375</LatitudeDegrees>
              <LongitudeDegrees>-2.97440593130886554718017578125</LongitudeDegrees>
            </Position>
            <AltitudeMeters>-55.799999237060546875</AltitudeMeters>
            <DistanceMeters>NAN</DistanceMeters>
          </Trackpoint>
          <Trackpoint>
            <Time>2022-09-24T17:02:31.000Z</Time>
            <Position>
              <LatitudeDegrees>43.29702232964336872100830078125</LatitudeDegrees>
              <LongitudeDegrees>-2.97435052692890167236328125</LongitudeDegrees>
            </Position>
            <AltitudeMeters>-56.200000762939453125</AltitudeMeters>
            <DistanceMeters>NAN</DistanceMeters>
          </Trackpoint>
          <Trackpoint>
            <Time>2022-09-24T17:02:32.000Z</Time>
            <Position>
              <LatitudeDegrees>43.2969367504119873046875</LatitudeDegrees>
              <LongitudeDegrees>-2.97428472898900508880615234375</LongitudeDegrees>
            </Position>
            <AltitudeMeters>-56.200000762939453125</AltitudeMeters>
            <DistanceMeters>NAN</DistanceMeters>
          </Trackpoint>
          <Trackpoint>
            <Time>2022-09-24T17:02:33.000Z</Time>
            <Position>
              <LatitudeDegrees>43.29687774181365966796875</LatitudeDegrees>
              <LongitudeDegrees>-2.9742358624935150146484375</LongitudeDegrees>
            </Position>
            <AltitudeMeters>-55.59999847412109375</AltitudeMeters>
            <DistanceMeters>NAN</DistanceMeters>
          </Trackpoint>
          <Trackpoint>
            <Time>2022-09-24T17:02:34.000Z</Time>
            <Position>
              <LatitudeDegrees>43.29678880982100963592529296875</LatitudeDegrees>
              <LongitudeDegrees>-2.97416939400136470794677734375</LongitudeDegrees>
            </Position>
            <AltitudeMeters>-55.59999847412109375</AltitudeMeters>
            <DistanceMeters>NAN</DistanceMeters>
          </Trackpoint>
          <Trackpoint>
            <Time>2022-09-24T17:02:35.000Z</Time>
            <Position>
              <LatitudeDegrees>43.2967163063585758209228515625</LatitudeDegrees>
              <LongitudeDegrees>-2.97411289997398853302001953125</LongitudeDegrees>
            </Position>
            <AltitudeMeters>-55.59999847412109375</AltitudeMeters>
            <DistanceMeters>NAN</DistanceMeters>
          </Trackpoint>
          <Trackpoint>
            <Time>2022-09-24T17:02:36.000Z</Time>
            <Position>
              <LatitudeDegrees>43.29665713012218475341796875</LatitudeDegrees>
              <LongitudeDegrees>-2.9740668833255767822265625</LongitudeDegrees>
            </Position>
            <AltitudeMeters>-55.59999847412109375</AltitudeMeters>
            <DistanceMeters>NAN</DistanceMeters>
          </Trackpoint>
          <Trackpoint>
            <Time>2022-09-24T17:02:37.000Z</Time>
            <Position>
              <LatitudeDegrees>43.296583034098148345947265625</LatitudeDegrees>
              <LongitudeDegrees>-2.97400913201272487640380859375</LongitudeDegrees>
            </Position>
            <AltitudeMeters>-54.799999237060546875</AltitudeMeters>
            <DistanceMeters>NAN</DistanceMeters>
          </Trackpoint>
          <Trackpoint>
            <Time>2022-09-24T17:02:38.000Z</Time>
            <Position>
              <LatitudeDegrees>43.296583034098148345947265625</LatitudeDegrees>
              <LongitudeDegrees>-2.97400913201272487640380859375</LongitudeDegrees>
            </Position>
            <AltitudeMeters>-54.799999237060546875</AltitudeMeters>
            <DistanceMeters>NAN</DistanceMeters>
          </Trackpoint>
          <Trackpoint>
            <Time>2022-09-24T17:02:39.000Z</Time>
            <Position>
              <LatitudeDegrees>43.29643006436526775360107421875</LatitudeDegrees>
              <LongitudeDegrees>-2.97390301711857318878173828125</LongitudeDegrees>
            </Position>
            <AltitudeMeters>-54.59999847412109375</AltitudeMeters>
            <DistanceMeters>NAN</DistanceMeters>
          </Trackpoint>
          <Trackpoint>
            <Time>2022-09-24T17:02:40.000Z</Time>
            <Position>
              <LatitudeDegrees>43.29635244794189929962158203125</LatitudeDegrees>
              <LongitudeDegrees>-2.9738554917275905609130859375</LongitudeDegrees>
            </Position>
            <AltitudeMeters>-54.799999237060546875</AltitudeMeters>
            <DistanceMeters>NAN</DistanceMeters>
          </Trackpoint>
          <Trackpoint>
            <Time>2022-09-24T17:02:41.000Z</Time>
            <Position>
              <LatitudeDegrees>43.29627550207078456878662109375</LatitudeDegrees>
              <LongitudeDegrees>-2.9738065414130687713623046875</LongitudeDegrees>
            </Position>
            <AltitudeMeters>-54.799999237060546875</AltitudeMeters>
            <DistanceMeters>NAN</DistanceMeters>
          </Trackpoint>
          <Trackpoint>
            <Time>2022-09-24T17:02:42.000Z</Time>
            <Position>
              <LatitudeDegrees>43.296199142932891845703125</LatitudeDegrees>
              <LongitudeDegrees>-2.973757423460483551025390625</LongitudeDegrees>
            </Position>
            <AltitudeMeters>-54.799999237060546875</AltitudeMeters>
            <DistanceMeters>NAN</DistanceMeters>
          </Trackpoint>
          <Trackpoint>
            <Time>2022-09-24T17:02:43.000Z</Time>
            <Position>
              <LatitudeDegrees>43.2961235381662845611572265625</LatitudeDegrees>
              <LongitudeDegrees>-2.9737039469182491302490234375</LongitudeDegrees>
            </Position>
            <AltitudeMeters>-54.799999237060546875</AltitudeMeters>
            <DistanceMeters>NAN</DistanceMeters>
          </Trackpoint>
          <Trackpoint>
            <Time>2022-09-24T17:02:44.000Z</Time>
            <Position>
              <LatitudeDegrees>43.2960484363138675689697265625</LatitudeDegrees>
              <LongitudeDegrees>-2.97365072183310985565185546875</LongitudeDegrees>
            </Position>
            <AltitudeMeters>-54.799999237060546875</AltitudeMeters>
            <DistanceMeters>NAN</DistanceMeters>
          </Trackpoint>
          <Trackpoint>
            <Time>2022-09-24T17:02:45.000Z</Time>
            <Position>
              <LatitudeDegrees>43.29597392119467258453369140625</LatitudeDegrees>
              <LongitudeDegrees>-2.97359607182443141937255859375</LongitudeDegrees>
            </Position>
            <AltitudeMeters>-55</AltitudeMeters>
            <DistanceMeters>NAN</DistanceMeters>
          </Trackpoint>
          <Trackpoint>
            <Time>2022-09-24T17:02:46.000Z</Time>
            <Position>
              <LatitudeDegrees>43.2959009148180484771728515625</LatitudeDegrees>
              <LongitudeDegrees>-2.973544858396053314208984375</LongitudeDegrees>
            </Position>
            <AltitudeMeters>-55.40000152587890625</AltitudeMeters>
            <DistanceMeters>NAN</DistanceMeters>
          </Trackpoint>
          <Trackpoint>
            <Time>2022-09-24T17:02:47.000Z</Time>
            <Position>
              <LatitudeDegrees>43.2958238013088703155517578125</LatitudeDegrees>
              <LongitudeDegrees>-2.973494231700897216796875</LongitudeDegrees>
            </Position>
            <AltitudeMeters>-55</AltitudeMeters>
            <DistanceMeters>NAN</DistanceMeters>
          </Trackpoint>
          <Trackpoint>
            <Time>2022-09-24T17:02:48.000Z</Time>
            <Position>
              <LatitudeDegrees>43.29574610106647014617919921875</LatitudeDegrees>
              <LongitudeDegrees>-2.97344335354864597320556640625</LongitudeDegrees>
            </Position>
            <AltitudeMeters>-55</AltitudeMeters>
            <DistanceMeters>NAN</DistanceMeters>
          </Trackpoint>
          <Trackpoint>
            <Time>2022-09-24T17:02:49.000Z</Time>
            <Position>
              <LatitudeDegrees>43.2956662215292453765869140625</LatitudeDegrees>
              <LongitudeDegrees>-2.97339423559606075286865234375</LongitudeDegrees>
            </Position>
            <AltitudeMeters>-55</AltitudeMeters>
            <DistanceMeters>NAN</DistanceMeters>
          </Trackpoint>
          <Trackpoint>
            <Time>2022-09-24T17:02:50.000Z</Time>
            <Position>
              <LatitudeDegrees>43.29558818601071834564208984375</LatitudeDegrees>
              <LongitudeDegrees>-2.97334461472928524017333984375</LongitudeDegrees>
            </Position>
            <AltitudeMeters>-55.40000152587890625</AltitudeMeters>
            <DistanceMeters>NAN</DistanceMeters>
          </Trackpoint>
          <Trackpoint>
            <Time>2022-09-24T17:02:51.000Z</Time>
            <Position>
              <LatitudeDegrees>43.295512497425079345703125</LatitudeDegrees>
              <LongitudeDegrees>-2.97329583205282688140869140625</LongitudeDegrees>
            </Position>
            <AltitudeMeters>-55.40000152587890625</AltitudeMeters>
            <DistanceMeters>NAN</DistanceMeters>
          </Trackpoint>
          <Trackpoint>
            <Time>2022-09-24T17:02:52.000Z</Time>
            <Position>
              <LatitudeDegrees>43.29543747939169406890869140625</LatitudeDegrees>
              <LongitudeDegrees>-2.97324771992862224578857421875</LongitudeDegrees>
            </Position>
            <AltitudeMeters>-54.799999237060546875</AltitudeMeters>
            <DistanceMeters>NAN</DistanceMeters>
          </Trackpoint>
          <Trackpoint>
            <Time>2022-09-24T17:02:53.000Z</Time>
            <Position>
              <LatitudeDegrees>43.29534410499036312103271484375</LatitudeDegrees>
              <LongitudeDegrees>-2.97318418510258197784423828125</LongitudeDegrees>
            </Position>
            <AltitudeMeters>-54.799999237060546875</AltitudeMeters>
            <DistanceMeters>NAN</DistanceMeters>
          </Trackpoint>
          <Trackpoint>
            <Time>2022-09-24T17:02:54.000Z</Time>
            <Position>
              <LatitudeDegrees>43.29526162706315517425537109375</LatitudeDegrees>
              <LongitudeDegrees>-2.9731306247413158416748046875</LongitudeDegrees>
            </Position>
            <AltitudeMeters>-55.40000152587890625</AltitudeMeters>
            <DistanceMeters>NAN</DistanceMeters>
          </Trackpoint>
          <Trackpoint>
            <Time>2022-09-24T17:02:55.000Z</Time>
            <Position>
              <LatitudeDegrees>43.29519155435264110565185546875</LatitudeDegrees>
              <LongitudeDegrees>-2.97309114597737789154052734375</LongitudeDegrees>
            </Position>
            <AltitudeMeters>-55.40000152587890625</AltitudeMeters>
            <DistanceMeters>NAN</DistanceMeters>
          </Trackpoint>
          <Trackpoint>
            <Time>2022-09-24T17:02:56.000Z</Time>
            <Position>
              <LatitudeDegrees>43.29510807059705257415771484375</LatitudeDegrees>
              <LongitudeDegrees>-2.97304789535701274871826171875</LongitudeDegrees>
            </Position>
            <AltitudeMeters>-54.59999847412109375</AltitudeMeters>
            <DistanceMeters>NAN</DistanceMeters>
          </Trackpoint>
          <Trackpoint>
            <Time>2022-09-24T17:02:57.000Z</Time>
            <Position>
              <LatitudeDegrees>43.2950283586978912353515625</LatitudeDegrees>
              <LongitudeDegrees>-2.97300799749791622161865234375</LongitudeDegrees>
            </Position>
            <AltitudeMeters>-54.200000762939453125</AltitudeMeters>
            <DistanceMeters>NAN</DistanceMeters>
          </Trackpoint>
          <Trackpoint>
            <Time>2022-09-24T17:02:58.000Z</Time>
            <Position>
              <LatitudeDegrees>43.2949514128267765045166015625</LatitudeDegrees>
              <LongitudeDegrees>-2.9729673452675342559814453125</LongitudeDegrees>
            </Position>
            <AltitudeMeters>-54.200000762939453125</AltitudeMeters>
            <DistanceMeters>NAN</DistanceMeters>
          </Trackpoint>
          <Trackpoint>
            <Time>2022-09-24T17:02:59.000Z</Time>
            <Position>
              <LatitudeDegrees>43.2948739640414714813232421875</LatitudeDegrees>
              <LongitudeDegrees>-2.9729261063039302825927734375</LongitudeDegrees>
            </Position>
            <AltitudeMeters>-54.200000762939453125</AltitudeMeters>
            <DistanceMeters>NAN</DistanceMeters>
          </Trackpoint>
          <Trackpoint>
            <Time>2022-09-24T17:03:00.000Z</Time>
            <Position>
              <LatitudeDegrees>43.29479693435132503509521484375</LatitudeDegrees>
              <LongitudeDegrees>-2.97288495115935802459716796875</LongitudeDegrees>
            </Position>
            <AltitudeMeters>-54.200000762939453125</AltitudeMeters>
            <DistanceMeters>NAN</DistanceMeters>
          </Trackpoint>
          <Trackpoint>
            <Time>2022-09-24T17:03:01.000Z</Time>
            <Position>
              <LatitudeDegrees>43.29471814446151256561279296875</LatitudeDegrees>
              <LongitudeDegrees>-2.972846142947673797607421875</LongitudeDegrees>
            </Position>
            <AltitudeMeters>-54.200000762939453125</AltitudeMeters>
            <DistanceMeters>NAN</DistanceMeters>
          </Trackpoint>
          <Trackpoint>
            <Time>2022-09-24T17:03:02.000Z</Time>
            <Position>
              <LatitudeDegrees>43.294639773666858673095703125</LatitudeDegrees>
              <LongitudeDegrees>-2.9728040657937526702880859375</LongitudeDegrees>
            </Position>
            <AltitudeMeters>-54.59999847412109375</AltitudeMeters>
            <DistanceMeters>NAN</DistanceMeters>
          </Trackpoint>
          <Trackpoint>
            <Time>2022-09-24T17:03:03.000Z</Time>
            <Position>
              <LatitudeDegrees>43.29456056468188762664794921875</LatitudeDegrees>
              <LongitudeDegrees>-2.9727634973824024200439453125</LongitudeDegrees>
            </Position>
            <AltitudeMeters>-54.59999847412109375</AltitudeMeters>
            <DistanceMeters>NAN</DistanceMeters>
          </Trackpoint>
          <Trackpoint>
            <Time>2022-09-24T17:03:04.000Z</Time>
            <Position>
              <LatitudeDegrees>43.29448160715401172637939453125</LatitudeDegrees>
              <LongitudeDegrees>-2.9727239347994327545166015625</LongitudeDegrees>
            </Position>
            <AltitudeMeters>-55</AltitudeMeters>
            <DistanceMeters>NAN</DistanceMeters>
          </Trackpoint>
          <Trackpoint>
            <Time>2022-09-24T17:03:05.000Z</Time>
            <Position>
              <LatitudeDegrees>43.29440264962613582611083984375</LatitudeDegrees>
              <LongitudeDegrees>-2.97268294729292392730712890625</LongitudeDegrees>
            </Position>
            <AltitudeMeters>-54.59999847412109375</AltitudeMeters>
            <DistanceMeters>NAN</DistanceMeters>
          </Trackpoint>
          <Trackpoint>
            <Time>2022-09-24T17:03:06.000Z</Time>
            <Position>
              <LatitudeDegrees>43.29432486556470394134521484375</LatitudeDegrees>
              <LongitudeDegrees>-2.972638607025146484375</LongitudeDegrees>
            </Position>
            <AltitudeMeters>-54.59999847412109375</AltitudeMeters>
            <DistanceMeters>NAN</DistanceMeters>
          </Trackpoint>
          <Trackpoint>
            <Time>2022-09-24T17:03:07.000Z</Time>
            <Position>
              <LatitudeDegrees>43.29424959607422351837158203125</LatitudeDegrees>
              <LongitudeDegrees>-2.97260013408958911895751953125</LongitudeDegrees>
            </Position>
            <AltitudeMeters>-54.59999847412109375</AltitudeMeters>
            <DistanceMeters>NAN</DistanceMeters>
          </Trackpoint>
          <Trackpoint>
            <Time>2022-09-24T17:03:08.000Z</Time>
            <Position>
              <LatitudeDegrees>43.29417197965085506439208984375</LatitudeDegrees>
              <LongitudeDegrees>-2.97255788929760456085205078125</LongitudeDegrees>
            </Position>
            <AltitudeMeters>-54.59999847412109375</AltitudeMeters>
            <DistanceMeters>NAN</DistanceMeters>
          </Trackpoint>
          <Trackpoint>
            <Time>2022-09-24T17:03:09.000Z</Time>
            <Position>
              <LatitudeDegrees>43.294077850878238677978515625</LatitudeDegrees>
              <LongitudeDegrees>-2.97250541858375072479248046875</LongitudeDegrees>
            </Position>
            <AltitudeMeters>-54.799999237060546875</AltitudeMeters>
            <DistanceMeters>NAN</DistanceMeters>
          </Trackpoint>
          <Trackpoint>
            <Time>2022-09-24T17:03:10.000Z</Time>
            <Position>
              <LatitudeDegrees>43.29401372931897640228271484375</LatitudeDegrees>
              <LongitudeDegrees>-2.9724718071520328521728515625</LongitudeDegrees>
            </Position>
            <AltitudeMeters>-54.799999237060546875</AltitudeMeters>
            <DistanceMeters>NAN</DistanceMeters>
          </Trackpoint>
          <Trackpoint>
            <Time>2022-09-24T17:03:11.000Z</Time>
            <Position>
              <LatitudeDegrees>43.29401372931897640228271484375</LatitudeDegrees>
              <LongitudeDegrees>-2.9724718071520328521728515625</LongitudeDegrees>
            </Position>
            <AltitudeMeters>-54.799999237060546875</AltitudeMeters>
            <DistanceMeters>NAN</DistanceMeters>
          </Trackpoint>
          <Trackpoint>
            <Time>2022-09-24T17:03:12.000Z</Time>
            <Position>
              <LatitudeDegrees>43.2938535511493682861328125</LatitudeDegrees>
              <LongitudeDegrees>-2.97238606028258800506591796875</LongitudeDegrees>
            </Position>
            <AltitudeMeters>-54.799999237060546875</AltitudeMeters>
            <DistanceMeters>NAN</DistanceMeters>
          </Trackpoint>
          <Trackpoint>
            <Time>2022-09-24T17:03:13.000Z</Time>
            <Position>
              <LatitudeDegrees>43.29375959001481533050537109375</LatitudeDegrees>
              <LongitudeDegrees>-2.97233610413968563079833984375</LongitudeDegrees>
            </Position>
            <AltitudeMeters>-54.799999237060546875</AltitudeMeters>
            <DistanceMeters>NAN</DistanceMeters>
          </Trackpoint>
          <Trackpoint>
            <Time>2022-09-24T17:03:14.000Z</Time>
            <Position>
              <LatitudeDegrees>43.29368012957274913787841796875</LatitudeDegrees>
              <LongitudeDegrees>-2.9722954519093036651611328125</LongitudeDegrees>
            </Position>
            <AltitudeMeters>-54.799999237060546875</AltitudeMeters>
            <DistanceMeters>NAN</DistanceMeters>
          </Trackpoint>
          <Trackpoint>
            <Time>2022-09-24T17:03:15.000Z</Time>
            <Position>
              <LatitudeDegrees>43.29361625947058200836181640625</LatitudeDegrees>
              <LongitudeDegrees>-2.97226242721080780029296875</LongitudeDegrees>
            </Position>
            <AltitudeMeters>-54.799999237060546875</AltitudeMeters>
            <DistanceMeters>NAN</DistanceMeters>
          </Trackpoint>
          <Trackpoint>
            <Time>2022-09-24T17:03:16.000Z</Time>
            <Position>
              <LatitudeDegrees>43.29353780485689640045166015625</LatitudeDegrees>
              <LongitudeDegrees>-2.9722220264375209808349609375</LongitudeDegrees>
            </Position>
            <AltitudeMeters>-54.799999237060546875</AltitudeMeters>
            <DistanceMeters>NAN</DistanceMeters>
          </Trackpoint>
          <Trackpoint>
            <Time>2022-09-24T17:03:17.000Z</Time>
            <Position>
              <LatitudeDegrees>43.29353780485689640045166015625</LatitudeDegrees>
              <LongitudeDegrees>-2.9722220264375209808349609375</LongitudeDegrees>
            </Position>
            <AltitudeMeters>-54.799999237060546875</AltitudeMeters>
            <DistanceMeters>NAN</DistanceMeters>
          </Trackpoint>
          <Trackpoint>
            <Time>2022-09-24T17:03:18.000Z</Time>
            <Position>
              <LatitudeDegrees>43.2933850027620792388916015625</LatitudeDegrees>
              <LongitudeDegrees>-2.972146756947040557861328125</LongitudeDegrees>
            </Position>
            <AltitudeMeters>-54.799999237060546875</AltitudeMeters>
            <DistanceMeters>NAN</DistanceMeters>
          </Trackpoint>
          <Trackpoint>
            <Time>2022-09-24T17:03:19.000Z</Time>
            <Position>
              <LatitudeDegrees>43.29330973327159881591796875</LatitudeDegrees>
              <LongitudeDegrees>-2.9721123911440372467041015625</LongitudeDegrees>
            </Position>
            <AltitudeMeters>-54.799999237060546875</AltitudeMeters>
            <DistanceMeters>NAN</DistanceMeters>
          </Trackpoint>
          <Trackpoint>
            <Time>2022-09-24T17:03:20.000Z</Time>
            <Position>
              <LatitudeDegrees>43.2932358048856258392333984375</LatitudeDegrees>
              <LongitudeDegrees>-2.97207911498844623565673828125</LongitudeDegrees>
            </Position>
            <AltitudeMeters>-54.799999237060546875</AltitudeMeters>
            <DistanceMeters>NAN</DistanceMeters>
          </Trackpoint>
          <Trackpoint>
            <Time>2022-09-24T17:03:21.000Z</Time>
            <Position>
              <LatitudeDegrees>43.29316698946058750152587890625</LatitudeDegrees>
              <LongitudeDegrees>-2.97204759903252124786376953125</LongitudeDegrees>
            </Position>
            <AltitudeMeters>-54</AltitudeMeters>
            <DistanceMeters>NAN</DistanceMeters>
          </Trackpoint>
          <Trackpoint>
            <Time>2022-09-24T17:03:22.000Z</Time>
            <Position>
              <LatitudeDegrees>43.29309540800750255584716796875</LatitudeDegrees>
              <LongitudeDegrees>-2.97201910056173801422119140625</LongitudeDegrees>
            </Position>
            <AltitudeMeters>-54</AltitudeMeters>
            <DistanceMeters>NAN</DistanceMeters>
          </Trackpoint>
          <Trackpoint>
            <Time>2022-09-24T17:03:23.000Z</Time>
            <Position>
              <LatitudeDegrees>43.29302382655441761016845703125</LatitudeDegrees>
              <LongitudeDegrees>-2.97198942862451076507568359375</LongitudeDegrees>
            </Position>
            <AltitudeMeters>-53.40000152587890625</AltitudeMeters>
            <DistanceMeters>NAN</DistanceMeters>
          </Trackpoint>
          <Trackpoint>
            <Time>2022-09-24T17:03:24.000Z</Time>
            <Position>
              <LatitudeDegrees>43.2929545082151889801025390625</LatitudeDegrees>
              <LongitudeDegrees>-2.97196193598210811614990234375</LongitudeDegrees>
            </Position>
            <AltitudeMeters>-53.40000152587890625</AltitudeMeters>
            <DistanceMeters>NAN</DistanceMeters>
          </Trackpoint>
          <Trackpoint>
            <Time>2022-09-24T17:03:25.000Z</Time>
            <Position>
              <LatitudeDegrees>43.2928985171020030975341796875</LatitudeDegrees>
              <LongitudeDegrees>-2.97193628735840320587158203125</LongitudeDegrees>
            </Position>
            <AltitudeMeters>-52.799999237060546875</AltitudeMeters>
            <DistanceMeters>NAN</DistanceMeters>
          </Trackpoint>
          <Trackpoint>
            <Time>2022-09-24T17:03:26.000Z</Time>
            <Position>
              <LatitudeDegrees>43.292815871536731719970703125</LatitudeDegrees>
              <LongitudeDegrees>-2.9719011671841144561767578125</LongitudeDegrees>
            </Position>
            <AltitudeMeters>-52.799999237060546875</AltitudeMeters>
            <DistanceMeters>NAN</DistanceMeters>
          </Trackpoint>
          <Trackpoint>
            <Time>2022-09-24T17:03:27.000Z</Time>
            <Position>
              <LatitudeDegrees>43.292750827968120574951171875</LatitudeDegrees>
              <LongitudeDegrees>-2.97187761403620243072509765625</LongitudeDegrees>
            </Position>
            <AltitudeMeters>-52.200000762939453125</AltitudeMeters>
            <DistanceMeters>NAN</DistanceMeters>
          </Trackpoint>
          <Trackpoint>
            <Time>2022-09-24T17:03:28.000Z</Time>
            <Position>
              <LatitudeDegrees>43.2926846109330654144287109375</LatitudeDegrees>
              <LongitudeDegrees>-2.97185204923152923583984375</LongitudeDegrees>
            </Position>
            <AltitudeMeters>-52</AltitudeMeters>
            <DistanceMeters>NAN</DistanceMeters>
          </Trackpoint>
          <Trackpoint>
            <Time>2022-09-24T17:03:29.000Z</Time>
            <Position>
              <LatitudeDegrees>43.2926162146031856536865234375</LatitudeDegrees>
              <LongitudeDegrees>-2.97182195819914340972900390625</LongitudeDegrees>
            </Position>
            <AltitudeMeters>-52</AltitudeMeters>
            <DistanceMeters>NAN</DistanceMeters>
          </Trackpoint>
          <Trackpoint>
            <Time>2022-09-24T17:03:30.000Z</Time>
            <Position>
              <LatitudeDegrees>43.2925468124449253082275390625</LatitudeDegrees>
              <LongitudeDegrees>-2.971793375909328460693359375</LongitudeDegrees>
            </Position>
            <AltitudeMeters>-52</AltitudeMeters>
            <DistanceMeters>NAN</DistanceMeters>
          </Trackpoint>
          <Trackpoint>
            <Time>2022-09-24T17:03:31.000Z</Time>
            <Position>
              <LatitudeDegrees>43.29247849993407726287841796875</LatitudeDegrees>
              <LongitudeDegrees>-2.97176781110465526580810546875</LongitudeDegrees>
            </Position>
            <AltitudeMeters>-52</AltitudeMeters>
            <DistanceMeters>NAN</DistanceMeters>
          </Trackpoint>
          <Trackpoint>
            <Time>2022-09-24T17:03:32.000Z</Time>
            <Position>
              <LatitudeDegrees>43.29240985214710235595703125</LatitudeDegrees>
              <LongitudeDegrees>-2.97174383886158466339111328125</LongitudeDegrees>
            </Position>
            <AltitudeMeters>-52.40000152587890625</AltitudeMeters>
            <DistanceMeters>NAN</DistanceMeters>
          </Trackpoint>
          <Trackpoint>
            <Time>2022-09-24T17:03:33.000Z</Time>
            <Position>
              <LatitudeDegrees>43.2923372648656368255615234375</LatitudeDegrees>
              <LongitudeDegrees>-2.9717154242098331451416015625</LongitudeDegrees>
            </Position>
            <AltitudeMeters>-52.59999847412109375</AltitudeMeters>
            <DistanceMeters>NAN</DistanceMeters>
          </Trackpoint>
          <Trackpoint>
            <Time>2022-09-24T17:03:34.000Z</Time>
            <Position>
              <LatitudeDegrees>43.29226233065128326416015625</LatitudeDegrees>
              <LongitudeDegrees>-2.97168365679681301116943359375</LongitudeDegrees>
            </Position>
            <AltitudeMeters>-52.59999847412109375</AltitudeMeters>
            <DistanceMeters>NAN</DistanceMeters>
          </Trackpoint>
          <Trackpoint>
            <Time>2022-09-24T17:03:35.000Z</Time>
            <Position>
              <LatitudeDegrees>43.292185552418231964111328125</LatitudeDegrees>
              <LongitudeDegrees>-2.97165113501250743865966796875</LongitudeDegrees>
            </Position>
            <AltitudeMeters>-53.200000762939453125</AltitudeMeters>
            <DistanceMeters>NAN</DistanceMeters>
          </Trackpoint>
          <Trackpoint>
            <Time>2022-09-24T17:03:36.000Z</Time>
            <Position>
              <LatitudeDegrees>43.292111456394195556640625</LatitudeDegrees>
              <LongitudeDegrees>-2.97162297181785106658935546875</LongitudeDegrees>
            </Position>
            <AltitudeMeters>-53.200000762939453125</AltitudeMeters>
            <DistanceMeters>NAN</DistanceMeters>
          </Trackpoint>
          <Trackpoint>
            <Time>2022-09-24T17:03:37.000Z</Time>
            <Position>
              <LatitudeDegrees>43.29203291796147823333740234375</LatitudeDegrees>
              <LongitudeDegrees>-2.971592210233211517333984375</LongitudeDegrees>
            </Position>
            <AltitudeMeters>-53.40000152587890625</AltitudeMeters>
            <DistanceMeters>NAN</DistanceMeters>
          </Trackpoint>
          <Trackpoint>
            <Time>2022-09-24T17:03:38.000Z</Time>
            <Position>
              <LatitudeDegrees>43.2919537089765071868896484375</LatitudeDegrees>
              <LongitudeDegrees>-2.97156237065792083740234375</LongitudeDegrees>
            </Position>
            <AltitudeMeters>-53.40000152587890625</AltitudeMeters>
            <DistanceMeters>NAN</DistanceMeters>
          </Trackpoint>
          <Trackpoint>
            <Time>2022-09-24T17:03:39.000Z</Time>
            <Position>
              <LatitudeDegrees>43.2918702252209186553955078125</LatitudeDegrees>
              <LongitudeDegrees>-2.97152825631201267242431640625</LongitudeDegrees>
            </Position>
            <AltitudeMeters>-53.59999847412109375</AltitudeMeters>
            <DistanceMeters>NAN</DistanceMeters>
          </Trackpoint>
          <Trackpoint>
            <Time>2022-09-24T17:03:40.000Z</Time>
            <Position>
              <LatitudeDegrees>43.29178431071341037750244140625</LatitudeDegrees>
              <LongitudeDegrees>-2.9714924655854701995849609375</LongitudeDegrees>
            </Position>
            <AltitudeMeters>-53.799999237060546875</AltitudeMeters>
            <DistanceMeters>NAN</DistanceMeters>
          </Trackpoint>
          <Trackpoint>
            <Time>2022-09-24T17:03:41.000Z</Time>
            <Position>
              <LatitudeDegrees>43.2916972227394580841064453125</LatitudeDegrees>
              <LongitudeDegrees>-2.97145818360149860382080078125</LongitudeDegrees>
            </Position>
            <AltitudeMeters>-54.200000762939453125</AltitudeMeters>
            <DistanceMeters>NAN</DistanceMeters>
          </Trackpoint>
          <Trackpoint>
            <Time>2022-09-24T17:03:42.000Z</Time>
            <Position>
              <LatitudeDegrees>43.2916112244129180908203125</LatitudeDegrees>
              <LongitudeDegrees>-2.97142180614173412322998046875</LongitudeDegrees>
            </Position>
            <AltitudeMeters>-55.40000152587890625</AltitudeMeters>
            <DistanceMeters>NAN</DistanceMeters>
          </Trackpoint>
          <Trackpoint>
            <Time>2022-09-24T17:03:43.000Z</Time>
            <Position>
              <LatitudeDegrees>43.29152598045766353607177734375</LatitudeDegrees>
              <LongitudeDegrees>-2.9713871888816356658935546875</LongitudeDegrees>
            </Position>
            <AltitudeMeters>-55.40000152587890625</AltitudeMeters>
            <DistanceMeters>NAN</DistanceMeters>
          </Trackpoint>
          <Trackpoint>
            <Time>2022-09-24T17:03:44.000Z</Time>
            <Position>
              <LatitudeDegrees>43.291440904140472412109375</LatitudeDegrees>
              <LongitudeDegrees>-2.97135257162153720855712890625</LongitudeDegrees>
            </Position>
            <AltitudeMeters>-55.59999847412109375</AltitudeMeters>
            <DistanceMeters>NAN</DistanceMeters>
          </Trackpoint>
          <Trackpoint>
            <Time>2022-09-24T17:03:45.000Z</Time>
            <Position>
              <LatitudeDegrees>43.29135431908071041107177734375</LatitudeDegrees>
              <LongitudeDegrees>-2.9713184572756290435791015625</LongitudeDegrees>
            </Position>
            <AltitudeMeters>-55.59999847412109375</AltitudeMeters>
            <DistanceMeters>NAN</DistanceMeters>
          </Trackpoint>
          <Trackpoint>
            <Time>2022-09-24T17:03:46.000Z</Time>
            <Position>
              <LatitudeDegrees>43.291267566382884979248046875</LatitudeDegrees>
              <LongitudeDegrees>-2.97128283418715000152587890625</LongitudeDegrees>
            </Position>
            <AltitudeMeters>-56.40000152587890625</AltitudeMeters>
            <DistanceMeters>NAN</DistanceMeters>
          </Trackpoint>
          <Trackpoint>
            <Time>2022-09-24T17:03:47.000Z</Time>
            <Position>
              <LatitudeDegrees>43.29118274152278900146484375</LatitudeDegrees>
              <LongitudeDegrees>-2.9712416790425777435302734375</LongitudeDegrees>
            </Position>
            <AltitudeMeters>-57.59999847412109375</AltitudeMeters>
            <DistanceMeters>NAN</DistanceMeters>
          </Trackpoint>
          <Trackpoint>
            <Time>2022-09-24T17:03:48.000Z</Time>
            <Position>
              <LatitudeDegrees>43.2910980843007564544677734375</LatitudeDegrees>
              <LongitudeDegrees>-2.9711954109370708465576171875</LongitudeDegrees>
            </Position>
            <AltitudeMeters>-58.40000152587890625</AltitudeMeters>
            <DistanceMeters>NAN</DistanceMeters>
          </Trackpoint>
          <Trackpoint>
            <Time>2022-09-24T17:03:49.000Z</Time>
            <Position>
              <LatitudeDegrees>43.2910105772316455841064453125</LatitudeDegrees>
              <LongitudeDegrees>-2.97115040011703968048095703125</LongitudeDegrees>
            </Position>
            <AltitudeMeters>-58.40000152587890625</AltitudeMeters>
            <DistanceMeters>NAN</DistanceMeters>
          </Trackpoint>
          <Trackpoint>
            <Time>2022-09-24T17:03:50.000Z</Time>
            <Position>
              <LatitudeDegrees>43.29092181287705898284912109375</LatitudeDegrees>
              <LongitudeDegrees>-2.971109412610530853271484375</LongitudeDegrees>
            </Position>
            <AltitudeMeters>-58.40000152587890625</AltitudeMeters>
            <DistanceMeters>NAN</DistanceMeters>
          </Trackpoint>
          <Trackpoint>
            <Time>2022-09-24T17:03:51.000Z</Time>
            <Position>
              <LatitudeDegrees>43.29083262942731380462646484375</LatitudeDegrees>
              <LongitudeDegrees>-2.9710680060088634490966796875</LongitudeDegrees>
            </Position>
            <AltitudeMeters>-57.799999237060546875</AltitudeMeters>
            <DistanceMeters>NAN</DistanceMeters>
          </Trackpoint>
          <Trackpoint>
            <Time>2022-09-24T17:03:52.000Z</Time>
            <Position>
              <LatitudeDegrees>43.2907426916062831878662109375</LatitudeDegrees>
              <LongitudeDegrees>-2.97103154473006725311279296875</LongitudeDegrees>
            </Position>
            <AltitudeMeters>-58.40000152587890625</AltitudeMeters>
            <DistanceMeters>NAN</DistanceMeters>
          </Trackpoint>
          <Trackpoint>
            <Time>2022-09-24T17:03:53.000Z</Time>
            <Position>
              <LatitudeDegrees>43.2906575314700603485107421875</LatitudeDegrees>
              <LongitudeDegrees>-2.97100002877414226531982421875</LongitudeDegrees>
            </Position>
            <AltitudeMeters>-58.40000152587890625</AltitudeMeters>
            <DistanceMeters>NAN</DistanceMeters>
          </Trackpoint>
          <Trackpoint>
            <Time>2022-09-24T17:03:54.000Z</Time>
            <Position>
              <LatitudeDegrees>43.29057580791413784027099609375</LatitudeDegrees>
              <LongitudeDegrees>-2.97096163965761661529541015625</LongitudeDegrees>
            </Position>
            <AltitudeMeters>-58.40000152587890625</AltitudeMeters>
            <DistanceMeters>NAN</DistanceMeters>
          </Trackpoint>
          <Trackpoint>
            <Time>2022-09-24T17:03:55.000Z</Time>
            <Position>
              <LatitudeDegrees>43.29050338827073574066162109375</LatitudeDegrees>
              <LongitudeDegrees>-2.97091453336179256439208984375</LongitudeDegrees>
            </Position>
            <AltitudeMeters>-58.40000152587890625</AltitudeMeters>
            <DistanceMeters>NAN</DistanceMeters>
          </Trackpoint>
          <Trackpoint>
            <Time>2022-09-24T17:03:56.000Z</Time>
            <Position>
              <LatitudeDegrees>43.2904298789799213409423828125</LatitudeDegrees>
              <LongitudeDegrees>-2.97088100574910640716552734375</LongitudeDegrees>
            </Position>
            <AltitudeMeters>-58.40000152587890625</AltitudeMeters>
            <DistanceMeters>NAN</DistanceMeters>
          </Trackpoint>
          <Trackpoint>
            <Time>2022-09-24T17:03:57.000Z</Time>
            <Position>
              <LatitudeDegrees>43.29034614376723766326904296875</LatitudeDegrees>
              <LongitudeDegrees>-2.97086323611438274383544921875</LongitudeDegrees>
            </Position>
            <AltitudeMeters>-58.40000152587890625</AltitudeMeters>
            <DistanceMeters>NAN</DistanceMeters>
          </Trackpoint>
          <Trackpoint>
            <Time>2022-09-24T17:03:58.000Z</Time>
            <Position>
              <LatitudeDegrees>43.29025804996490478515625</LatitudeDegrees>
              <LongitudeDegrees>-2.97085183672606945037841796875</LongitudeDegrees>
            </Position>
            <AltitudeMeters>-58.40000152587890625</AltitudeMeters>
            <DistanceMeters>NAN</DistanceMeters>
          </Trackpoint>
          <Trackpoint>
            <Time>2022-09-24T17:03:59.000Z</Time>
            <Position>
              <LatitudeDegrees>43.2901754043996334075927734375</LatitudeDegrees>
              <LongitudeDegrees>-2.97081730328500270843505859375</LongitudeDegrees>
            </Position>
            <AltitudeMeters>-58</AltitudeMeters>
            <DistanceMeters>NAN</DistanceMeters>
          </Trackpoint>
          <Trackpoint>
            <Time>2022-09-24T17:04:00.000Z</Time>
            <Position>
              <LatitudeDegrees>43.29009451903402805328369140625</LatitudeDegrees>
              <LongitudeDegrees>-2.97077941708266735076904296875</LongitudeDegrees>
            </Position>
            <AltitudeMeters>-57.799999237060546875</AltitudeMeters>
            <DistanceMeters>NAN</DistanceMeters>
          </Trackpoint>
          <Trackpoint>
            <Time>2022-09-24T17:04:01.000Z</Time>
            <Position>
              <LatitudeDegrees>43.290000222623348236083984375</LatitudeDegrees>
              <LongitudeDegrees>-2.970732562243938446044921875</LongitudeDegrees>
            </Position>
            <AltitudeMeters>-56.799999237060546875</AltitudeMeters>
            <DistanceMeters>NAN</DistanceMeters>
          </Trackpoint>
          <Trackpoint>
            <Time>2022-09-24T17:04:02.000Z</Time>
            <Position>
              <LatitudeDegrees>43.290000222623348236083984375</LatitudeDegrees>
              <LongitudeDegrees>-2.970732562243938446044921875</LongitudeDegrees>
            </Position>
            <AltitudeMeters>-56.59999847412109375</AltitudeMeters>
            <DistanceMeters>NAN</DistanceMeters>
          </Trackpoint>
          <Trackpoint>
            <Time>2022-09-24T17:04:03.000Z</Time>
            <Position>
              <LatitudeDegrees>43.28985773026943206787109375</LatitudeDegrees>
              <LongitudeDegrees>-2.97059702686965465545654296875</LongitudeDegrees>
            </Position>
            <AltitudeMeters>-56</AltitudeMeters>
            <DistanceMeters>NAN</DistanceMeters>
          </Trackpoint>
          <Trackpoint>
            <Time>2022-09-24T17:04:04.000Z</Time>
            <Position>
              <LatitudeDegrees>43.28978262841701507568359375</LatitudeDegrees>
              <LongitudeDegrees>-2.9705315642058849334716796875</LongitudeDegrees>
            </Position>
            <AltitudeMeters>-56</AltitudeMeters>
            <DistanceMeters>NAN</DistanceMeters>
          </Trackpoint>
          <Trackpoint>
            <Time>2022-09-24T17:04:05.000Z</Time>
            <Position>
              <LatitudeDegrees>43.2897087000310420989990234375</LatitudeDegrees>
              <LongitudeDegrees>-2.97047364525496959686279296875</LongitudeDegrees>
            </Position>
            <AltitudeMeters>-55.799999237060546875</AltitudeMeters>
            <DistanceMeters>NAN</DistanceMeters>
          </Trackpoint>
          <Trackpoint>
            <Time>2022-09-24T17:04:06.000Z</Time>
            <Position>
              <LatitudeDegrees>43.28963418491184711456298828125</LatitudeDegrees>
              <LongitudeDegrees>-2.970409691333770751953125</LongitudeDegrees>
            </Position>
            <AltitudeMeters>-55.799999237060546875</AltitudeMeters>
            <DistanceMeters>NAN</DistanceMeters>
          </Trackpoint>
          <Trackpoint>
            <Time>2022-09-24T17:04:07.000Z</Time>
            <Position>
              <LatitudeDegrees>43.28956536948680877685546875</LatitudeDegrees>
              <LongitudeDegrees>-2.97034121118485927581787109375</LongitudeDegrees>
            </Position>
            <AltitudeMeters>-55.59999847412109375</AltitudeMeters>
            <DistanceMeters>NAN</DistanceMeters>
          </Trackpoint>
          <Trackpoint>
            <Time>2022-09-24T17:04:08.000Z</Time>
            <Position>
              <LatitudeDegrees>43.2894957996904850006103515625</LatitudeDegrees>
              <LongitudeDegrees>-2.97028119675815105438232421875</LongitudeDegrees>
            </Position>
            <AltitudeMeters>-55.59999847412109375</AltitudeMeters>
            <DistanceMeters>NAN</DistanceMeters>
          </Trackpoint>
          <Trackpoint>
            <Time>2022-09-24T17:04:09.000Z</Time>
            <Position>
              <LatitudeDegrees>43.2894287444651126861572265625</LatitudeDegrees>
              <LongitudeDegrees>-2.970218248665332794189453125</LongitudeDegrees>
            </Position>
            <AltitudeMeters>-55.59999847412109375</AltitudeMeters>
            <DistanceMeters>NAN</DistanceMeters>
          </Trackpoint>
          <Trackpoint>
            <Time>2022-09-24T17:04:10.000Z</Time>
            <Position>
              <LatitudeDegrees>43.28936160542070865631103515625</LatitudeDegrees>
              <LongitudeDegrees>-2.97014507465064525604248046875</LongitudeDegrees>
            </Position>
            <AltitudeMeters>-55.59999847412109375</AltitudeMeters>
            <DistanceMeters>NAN</DistanceMeters>
          </Trackpoint>
          <Trackpoint>
            <Time>2022-09-24T17:04:11.000Z</Time>
            <Position>
              <LatitudeDegrees>43.289281390607357025146484375</LatitudeDegrees>
              <LongitudeDegrees>-2.9700682125985622406005859375</LongitudeDegrees>
            </Position>
            <AltitudeMeters>-55.59999847412109375</AltitudeMeters>
            <DistanceMeters>NAN</DistanceMeters>
          </Trackpoint>
          <Trackpoint>
            <Time>2022-09-24T17:04:12.000Z</Time>
            <Position>
              <LatitudeDegrees>43.28919924795627593994140625</LatitudeDegrees>
              <LongitudeDegrees>-2.96998430974781513214111328125</LongitudeDegrees>
            </Position>
            <AltitudeMeters>-55.799999237060546875</AltitudeMeters>
            <DistanceMeters>NAN</DistanceMeters>
          </Trackpoint>
          <Trackpoint>
            <Time>2022-09-24T17:04:13.000Z</Time>
            <Position>
              <LatitudeDegrees>43.28912573866546154022216796875</LatitudeDegrees>
              <LongitudeDegrees>-2.96989747323095798492431640625</LongitudeDegrees>
            </Position>
            <AltitudeMeters>-56</AltitudeMeters>
            <DistanceMeters>NAN</DistanceMeters>
          </Trackpoint>
          <Trackpoint>
            <Time>2022-09-24T17:04:14.000Z</Time>
            <Position>
              <LatitudeDegrees>43.2890495471656322479248046875</LatitudeDegrees>
              <LongitudeDegrees>-2.969818599522113800048828125</LongitudeDegrees>
            </Position>
            <AltitudeMeters>-56.40000152587890625</AltitudeMeters>
            <DistanceMeters>NAN</DistanceMeters>
          </Trackpoint>
          <Trackpoint>
            <Time>2022-09-24T17:04:15.000Z</Time>
            <Position>
              <LatitudeDegrees>43.28897989355027675628662109375</LatitudeDegrees>
              <LongitudeDegrees>-2.96974525786936283111572265625</LongitudeDegrees>
            </Position>
            <AltitudeMeters>-56.40000152587890625</AltitudeMeters>
            <DistanceMeters>NAN</DistanceMeters>
          </Trackpoint>
          <Trackpoint>
            <Time>2022-09-24T17:04:16.000Z</Time>
            <Position>
              <LatitudeDegrees>43.28889976255595684051513671875</LatitudeDegrees>
              <LongitudeDegrees>-2.96965892426669597625732421875</LongitudeDegrees>
            </Position>
            <AltitudeMeters>-56.59999847412109375</AltitudeMeters>
            <DistanceMeters>NAN</DistanceMeters>
          </Trackpoint>
          <Trackpoint>
            <Time>2022-09-24T17:04:17.000Z</Time>
            <Position>
              <LatitudeDegrees>43.28881963156163692474365234375</LatitudeDegrees>
              <LongitudeDegrees>-2.96957158483564853668212890625</LongitudeDegrees>
            </Position>
            <AltitudeMeters>-56</AltitudeMeters>
            <DistanceMeters>NAN</DistanceMeters>
          </Trackpoint>
          <Trackpoint>
            <Time>2022-09-24T17:04:18.000Z</Time>
            <Position>
              <LatitudeDegrees>43.28881963156163692474365234375</LatitudeDegrees>
              <LongitudeDegrees>-2.96957158483564853668212890625</LongitudeDegrees>
            </Position>
            <AltitudeMeters>-56.59999847412109375</AltitudeMeters>
            <DistanceMeters>NAN</DistanceMeters>
          </Trackpoint>
          <Trackpoint>
            <Time>2022-09-24T17:04:19.000Z</Time>
            <Position>
              <LatitudeDegrees>43.2886887900531291961669921875</LatitudeDegrees>
              <LongitudeDegrees>-2.969453148543834686279296875</LongitudeDegrees>
            </Position>
            <AltitudeMeters>-56.59999847412109375</AltitudeMeters>
            <DistanceMeters>NAN</DistanceMeters>
          </Trackpoint>
          <Trackpoint>
            <Time>2022-09-24T17:04:20.000Z</Time>
            <Position>
              <LatitudeDegrees>43.2886324636638164520263671875</LatitudeDegrees>
              <LongitudeDegrees>-2.9693916253745555877685546875</LongitudeDegrees>
            </Position>
            <AltitudeMeters>-56.40000152587890625</AltitudeMeters>
            <DistanceMeters>NAN</DistanceMeters>
          </Trackpoint>
          <Trackpoint>
            <Time>2022-09-24T17:04:21.000Z</Time>
            <Position>
              <LatitudeDegrees>43.28856398351490497589111328125</LatitudeDegrees>
              <LongitudeDegrees>-2.96932565979659557342529296875</LongitudeDegrees>
            </Position>
            <AltitudeMeters>-56.40000152587890625</AltitudeMeters>
            <DistanceMeters>NAN</DistanceMeters>
          </Trackpoint>
          <Trackpoint>
            <Time>2022-09-24T17:04:22.000Z</Time>
            <Position>
              <LatitudeDegrees>43.288501538336277008056640625</LatitudeDegrees>
              <LongitudeDegrees>-2.96925969421863555908203125</LongitudeDegrees>
            </Position>
            <AltitudeMeters>-56.40000152587890625</AltitudeMeters>
            <DistanceMeters>NAN</DistanceMeters>
          </Trackpoint>
          <Trackpoint>
            <Time>2022-09-24T17:04:23.000Z</Time>
            <Position>
              <LatitudeDegrees>43.28843339346349239349365234375</LatitudeDegrees>
              <LongitudeDegrees>-2.9691961593925952911376953125</LongitudeDegrees>
            </Position>
            <AltitudeMeters>-56.40000152587890625</AltitudeMeters>
            <DistanceMeters>NAN</DistanceMeters>
          </Trackpoint>
          <Trackpoint>
            <Time>2022-09-24T17:04:24.000Z</Time>
            <Position>
              <LatitudeDegrees>43.2883702777326107025146484375</LatitudeDegrees>
              <LongitudeDegrees>-2.96912566758692264556884765625</LongitudeDegrees>
            </Position>
            <AltitudeMeters>-56.59999847412109375</AltitudeMeters>
            <DistanceMeters>NAN</DistanceMeters>
          </Trackpoint>
          <Trackpoint>
            <Time>2022-09-24T17:04:25.000Z</Time>
            <Position>
              <LatitudeDegrees>43.28830431215465068817138671875</LatitudeDegrees>
              <LongitudeDegrees>-2.96905207447707653045654296875</LongitudeDegrees>
            </Position>
            <AltitudeMeters>-56.59999847412109375</AltitudeMeters>
            <DistanceMeters>NAN</DistanceMeters>
          </Trackpoint>
          <Trackpoint>
            <Time>2022-09-24T17:04:26.000Z</Time>
            <Position>
              <LatitudeDegrees>43.28823566436767578125</LatitudeDegrees>
              <LongitudeDegrees>-2.96897646971046924591064453125</LongitudeDegrees>
            </Position>
            <AltitudeMeters>-56.59999847412109375</AltitudeMeters>
            <DistanceMeters>NAN</DistanceMeters>
          </Trackpoint>
          <Trackpoint>
            <Time>2022-09-24T17:04:27.000Z</Time>
            <Position>
              <LatitudeDegrees>43.28816617839038372039794921875</LatitudeDegrees>
              <LongitudeDegrees>-2.96890136785805225372314453125</LongitudeDegrees>
            </Position>
            <AltitudeMeters>-56.59999847412109375</AltitudeMeters>
            <DistanceMeters>NAN</DistanceMeters>
          </Trackpoint>
          <Trackpoint>
            <Time>2022-09-24T17:04:28.000Z</Time>
            <Position>
              <LatitudeDegrees>43.28809476457536220550537109375</LatitudeDegrees>
              <LongitudeDegrees>-2.9688270203769207000732421875</LongitudeDegrees>
            </Position>
            <AltitudeMeters>-56.799999237060546875</AltitudeMeters>
            <DistanceMeters>NAN</DistanceMeters>
          </Trackpoint>
          <Trackpoint>
            <Time>2022-09-24T17:04:29.000Z</Time>
            <Position>
              <LatitudeDegrees>43.28802351839840412139892578125</LatitudeDegrees>
              <LongitudeDegrees>-2.96874873340129852294921875</LongitudeDegrees>
            </Position>
            <AltitudeMeters>-56.799999237060546875</AltitudeMeters>
            <DistanceMeters>NAN</DistanceMeters>
          </Trackpoint>
          <Trackpoint>
            <Time>2022-09-24T17:04:30.000Z</Time>
            <Position>
              <LatitudeDegrees>43.28795076347887516021728515625</LatitudeDegrees>
              <LongitudeDegrees>-2.9686727933585643768310546875</LongitudeDegrees>
            </Position>
            <AltitudeMeters>-56.59999847412109375</AltitudeMeters>
            <DistanceMeters>NAN</DistanceMeters>
          </Trackpoint>
          <Trackpoint>
            <Time>2022-09-24T17:04:31.000Z</Time>
            <Position>
              <LatitudeDegrees>43.2878797687590122222900390625</LatitudeDegrees>
              <LongitudeDegrees>-2.9686023853719234466552734375</LongitudeDegrees>
            </Position>
            <AltitudeMeters>-56.59999847412109375</AltitudeMeters>
            <DistanceMeters>NAN</DistanceMeters>
          </Trackpoint>
          <Trackpoint>
            <Time>2022-09-24T17:04:32.000Z</Time>
            <Position>
              <LatitudeDegrees>43.28780961222946643829345703125</LatitudeDegrees>
              <LongitudeDegrees>-2.9685316421091556549072265625</LongitudeDegrees>
            </Position>
            <AltitudeMeters>-56.59999847412109375</AltitudeMeters>
            <DistanceMeters>NAN</DistanceMeters>
          </Trackpoint>
          <Trackpoint>
            <Time>2022-09-24T17:04:33.000Z</Time>
            <Position>
              <LatitudeDegrees>43.28774054534733295440673828125</LatitudeDegrees>
              <LongitudeDegrees>-2.9684578813612461090087890625</LongitudeDegrees>
            </Position>
            <AltitudeMeters>-56.59999847412109375</AltitudeMeters>
            <DistanceMeters>NAN</DistanceMeters>
          </Trackpoint>
          <Trackpoint>
            <Time>2022-09-24T17:04:34.000Z</Time>
            <Position>
              <LatitudeDegrees>43.287668041884899139404296875</LatitudeDegrees>
              <LongitudeDegrees>-2.96837967820465564727783203125</LongitudeDegrees>
            </Position>
            <AltitudeMeters>-56.59999847412109375</AltitudeMeters>
            <DistanceMeters>NAN</DistanceMeters>
          </Trackpoint>
          <Trackpoint>
            <Time>2022-09-24T17:04:35.000Z</Time>
            <Position>
              <LatitudeDegrees>43.28759528696537017822265625</LatitudeDegrees>
              <LongitudeDegrees>-2.968297787010669708251953125</LongitudeDegrees>
            </Position>
            <AltitudeMeters>-56.200000762939453125</AltitudeMeters>
            <DistanceMeters>NAN</DistanceMeters>
          </Trackpoint>
          <Trackpoint>
            <Time>2022-09-24T17:04:36.000Z</Time>
            <Position>
              <LatitudeDegrees>43.28752286732196807861328125</LatitudeDegrees>
              <LongitudeDegrees>-2.9682265408337116241455078125</LongitudeDegrees>
            </Position>
            <AltitudeMeters>-56.59999847412109375</AltitudeMeters>
            <DistanceMeters>NAN</DistanceMeters>
          </Trackpoint>
          <Trackpoint>
            <Time>2022-09-24T17:04:37.000Z</Time>
            <Position>
              <LatitudeDegrees>43.287446089088916778564453125</LatitudeDegrees>
              <LongitudeDegrees>-2.96815739013254642486572265625</LongitudeDegrees>
            </Position>
            <AltitudeMeters>-56.59999847412109375</AltitudeMeters>
            <DistanceMeters>NAN</DistanceMeters>
          </Trackpoint>
          <Trackpoint>
            <Time>2022-09-24T17:04:38.000Z</Time>
            <Position>
              <LatitudeDegrees>43.2873731665313243865966796875</LatitudeDegrees>
              <LongitudeDegrees>-2.9680907540023326873779296875</LongitudeDegrees>
            </Position>
            <AltitudeMeters>-55.799999237060546875</AltitudeMeters>
            <DistanceMeters>NAN</DistanceMeters>
          </Trackpoint>
          <Trackpoint>
            <Time>2022-09-24T17:04:39.000Z</Time>
            <Position>
              <LatitudeDegrees>43.2873014174401760101318359375</LatitudeDegrees>
              <LongitudeDegrees>-2.96802478842437267303466796875</LongitudeDegrees>
            </Position>
            <AltitudeMeters>-55.799999237060546875</AltitudeMeters>
            <DistanceMeters>NAN</DistanceMeters>
          </Trackpoint>
          <Trackpoint>
            <Time>2022-09-24T17:04:40.000Z</Time>
            <Position>
              <LatitudeDegrees>43.28722941689193248748779296875</LatitudeDegrees>
              <LongitudeDegrees>-2.9679594933986663818359375</LongitudeDegrees>
            </Position>
            <AltitudeMeters>-56.59999847412109375</AltitudeMeters>
            <DistanceMeters>NAN</DistanceMeters>
          </Trackpoint>
          <Trackpoint>
            <Time>2022-09-24T17:04:41.000Z</Time>
            <Position>
              <LatitudeDegrees>43.2871585898101329803466796875</LatitudeDegrees>
              <LongitudeDegrees>-2.96789872460067272186279296875</LongitudeDegrees>
            </Position>
            <AltitudeMeters>-56.59999847412109375</AltitudeMeters>
            <DistanceMeters>NAN</DistanceMeters>
          </Trackpoint>
          <Trackpoint>
            <Time>2022-09-24T17:04:42.000Z</Time>
            <Position>
              <LatitudeDegrees>43.2870881818234920501708984375</LatitudeDegrees>
              <LongitudeDegrees>-2.9678392969071865081787109375</LongitudeDegrees>
            </Position>
            <AltitudeMeters>-56.59999847412109375</AltitudeMeters>
            <DistanceMeters>NAN</DistanceMeters>
          </Trackpoint>
          <Trackpoint>
            <Time>2022-09-24T17:04:43.000Z</Time>
            <Position>
              <LatitudeDegrees>43.28701165504753589630126953125</LatitudeDegrees>
              <LongitudeDegrees>-2.96777383424341678619384765625</LongitudeDegrees>
            </Position>
            <AltitudeMeters>-56.200000762939453125</AltitudeMeters>
            <DistanceMeters>NAN</DistanceMeters>
          </Trackpoint>
          <Trackpoint>
            <Time>2022-09-24T17:04:44.000Z</Time>
            <Position>
              <LatitudeDegrees>43.28693470917642116546630859375</LatitudeDegrees>
              <LongitudeDegrees>-2.96770711429417133331298828125</LongitudeDegrees>
            </Position>
            <AltitudeMeters>-55.799999237060546875</AltitudeMeters>
            <DistanceMeters>NAN</DistanceMeters>
          </Trackpoint>
          <Trackpoint>
            <Time>2022-09-24T17:04:45.000Z</Time>
            <Position>
              <LatitudeDegrees>43.28685390762984752655029296875</LatitudeDegrees>
              <LongitudeDegrees>-2.9676398076117038726806640625</LongitudeDegrees>
            </Position>
            <AltitudeMeters>-55.799999237060546875</AltitudeMeters>
            <DistanceMeters>NAN</DistanceMeters>
          </Trackpoint>
          <Trackpoint>
            <Time>2022-09-24T17:04:46.000Z</Time>
            <Position>
              <LatitudeDegrees>43.2867752015590667724609375</LatitudeDegrees>
              <LongitudeDegrees>-2.96757794916629791259765625</LongitudeDegrees>
            </Position>
            <AltitudeMeters>-55.59999847412109375</AltitudeMeters>
            <DistanceMeters>NAN</DistanceMeters>
          </Trackpoint>
          <Trackpoint>
            <Time>2022-09-24T17:04:47.000Z</Time>
            <Position>
              <LatitudeDegrees>43.286698758602142333984375</LatitudeDegrees>
              <LongitudeDegrees>-2.967520616948604583740234375</LongitudeDegrees>
            </Position>
            <AltitudeMeters>-55.59999847412109375</AltitudeMeters>
            <DistanceMeters>NAN</DistanceMeters>
          </Trackpoint>
          <Trackpoint>
            <Time>2022-09-24T17:04:48.000Z</Time>
            <Position>
              <LatitudeDegrees>43.28662239946424961090087890625</LatitudeDegrees>
              <LongitudeDegrees>-2.9674714989960193634033203125</LongitudeDegrees>
            </Position>
            <AltitudeMeters>-55.59999847412109375</AltitudeMeters>
            <DistanceMeters>NAN</DistanceMeters>
          </Trackpoint>
          <Trackpoint>
            <Time>2022-09-24T17:04:49.000Z</Time>
            <Position>
              <LatitudeDegrees>43.28653757460415363311767578125</LatitudeDegrees>
              <LongitudeDegrees>-2.9674252308905124664306640625</LongitudeDegrees>
            </Position>
            <AltitudeMeters>-55.59999847412109375</AltitudeMeters>
            <DistanceMeters>NAN</DistanceMeters>
          </Trackpoint>
          <Trackpoint>
            <Time>2022-09-24T17:04:50.000Z</Time>
            <Position>
              <LatitudeDegrees>43.28653757460415363311767578125</LatitudeDegrees>
              <LongitudeDegrees>-2.9674252308905124664306640625</LongitudeDegrees>
            </Position>
            <AltitudeMeters>-55.59999847412109375</AltitudeMeters>
            <DistanceMeters>NAN</DistanceMeters>
          </Trackpoint>
          <Trackpoint>
            <Time>2022-09-24T17:04:51.000Z</Time>
            <Position>
              <LatitudeDegrees>43.286373205482959747314453125</LatitudeDegrees>
              <LongitudeDegrees>-2.96734032221138477325439453125</LongitudeDegrees>
            </Position>
            <AltitudeMeters>-55.59999847412109375</AltitudeMeters>
            <DistanceMeters>NAN</DistanceMeters>
          </Trackpoint>
          <Trackpoint>
            <Time>2022-09-24T17:04:52.000Z</Time>
            <Position>
              <LatitudeDegrees>43.2862962596118450164794921875</LatitudeDegrees>
              <LongitudeDegrees>-2.9673085547983646392822265625</LongitudeDegrees>
            </Position>
            <AltitudeMeters>-55.59999847412109375</AltitudeMeters>
            <DistanceMeters>NAN</DistanceMeters>
          </Trackpoint>
          <Trackpoint>
            <Time>2022-09-24T17:04:53.000Z</Time>
            <Position>
              <LatitudeDegrees>43.2862173020839691162109375</LatitudeDegrees>
              <LongitudeDegrees>-2.96727712266147136688232421875</LongitudeDegrees>
            </Position>
            <AltitudeMeters>-56</AltitudeMeters>
            <DistanceMeters>NAN</DistanceMeters>
          </Trackpoint>
          <Trackpoint>
            <Time>2022-09-24T17:04:54.000Z</Time>
            <Position>
              <LatitudeDegrees>43.28612149693071842193603515625</LatitudeDegrees>
              <LongitudeDegrees>-2.9672357998788356781005859375</LongitudeDegrees>
            </Position>
            <AltitudeMeters>-57</AltitudeMeters>
            <DistanceMeters>NAN</DistanceMeters>
          </Trackpoint>
          <Trackpoint>
            <Time>2022-09-24T17:04:55.000Z</Time>
            <Position>
              <LatitudeDegrees>43.2860582135617733001708984375</LatitudeDegrees>
              <LongitudeDegrees>-2.967210151255130767822265625</LongitudeDegrees>
            </Position>
            <AltitudeMeters>-57</AltitudeMeters>
            <DistanceMeters>NAN</DistanceMeters>
          </Trackpoint>
          <Trackpoint>
            <Time>2022-09-24T17:04:56.000Z</Time>
            <Position>
              <LatitudeDegrees>43.285974897444248199462890625</LatitudeDegrees>
              <LongitudeDegrees>-2.967180646955966949462890625</LongitudeDegrees>
            </Position>
            <AltitudeMeters>-57</AltitudeMeters>
            <DistanceMeters>NAN</DistanceMeters>
          </Trackpoint>
          <Trackpoint>
            <Time>2022-09-24T17:04:57.000Z</Time>
            <Position>
              <LatitudeDegrees>43.285883702337741851806640625</LatitudeDegrees>
              <LongitudeDegrees>-2.967148125171661376953125</LongitudeDegrees>
            </Position>
            <AltitudeMeters>-57</AltitudeMeters>
            <DistanceMeters>NAN</DistanceMeters>
          </Trackpoint>
          <Trackpoint>
            <Time>2022-09-24T17:04:58.000Z</Time>
            <Position>
              <LatitudeDegrees>43.28579954802989959716796875</LatitudeDegrees>
              <LongitudeDegrees>-2.967118285596370697021484375</LongitudeDegrees>
            </Position>
            <AltitudeMeters>-56.799999237060546875</AltitudeMeters>
            <DistanceMeters>NAN</DistanceMeters>
          </Trackpoint>
          <Trackpoint>
            <Time>2022-09-24T17:04:59.000Z</Time>
            <Position>
              <LatitudeDegrees>43.285693936049938201904296875</LatitudeDegrees>
              <LongitudeDegrees>-2.9670912958681583404541015625</LongitudeDegrees>
            </Position>
            <AltitudeMeters>-56.799999237060546875</AltitudeMeters>
            <DistanceMeters>NAN</DistanceMeters>
          </Trackpoint>
          <Trackpoint>
            <Time>2022-09-24T17:05:00.000Z</Time>
            <Position>
              <LatitudeDegrees>43.28561942093074321746826171875</LatitudeDegrees>
              <LongitudeDegrees>-2.96707277186214923858642578125</LongitudeDegrees>
            </Position>
            <AltitudeMeters>-56.799999237060546875</AltitudeMeters>
            <DistanceMeters>NAN</DistanceMeters>
          </Trackpoint>
          <Trackpoint>
            <Time>2022-09-24T17:05:01.000Z</Time>
            <Position>
              <LatitudeDegrees>43.28553074039518833160400390625</LatitudeDegrees>
              <LongitudeDegrees>-2.96705768443644046783447265625</LongitudeDegrees>
            </Position>
            <AltitudeMeters>-56.799999237060546875</AltitudeMeters>
            <DistanceMeters>NAN</DistanceMeters>
          </Trackpoint>
          <Trackpoint>
            <Time>2022-09-24T17:05:02.000Z</Time>
            <Position>
              <LatitudeDegrees>43.28544289804995059967041015625</LatitudeDegrees>
              <LongitudeDegrees>-2.967041842639446258544921875</LongitudeDegrees>
            </Position>
            <AltitudeMeters>-56.799999237060546875</AltitudeMeters>
            <DistanceMeters>NAN</DistanceMeters>
          </Trackpoint>
          <Trackpoint>
            <Time>2022-09-24T17:05:03.000Z</Time>
            <Position>
              <LatitudeDegrees>43.28535740263760089874267578125</LatitudeDegrees>
              <LongitudeDegrees>-2.9670235700905323028564453125</LongitudeDegrees>
            </Position>
            <AltitudeMeters>-56.40000152587890625</AltitudeMeters>
            <DistanceMeters>NAN</DistanceMeters>
          </Trackpoint>
          <Trackpoint>
            <Time>2022-09-24T17:05:04.000Z</Time>
            <Position>
              <LatitudeDegrees>43.2852750085294246673583984375</LatitudeDegrees>
              <LongitudeDegrees>-2.96700722537934780120849609375</LongitudeDegrees>
            </Position>
            <AltitudeMeters>-56.40000152587890625</AltitudeMeters>
            <DistanceMeters>NAN</DistanceMeters>
          </Trackpoint>
          <Trackpoint>
            <Time>2022-09-24T17:05:05.000Z</Time>
            <Position>
              <LatitudeDegrees>43.28519060276448726654052734375</LatitudeDegrees>
              <LongitudeDegrees>-2.966994903981685638427734375</LongitudeDegrees>
            </Position>
            <AltitudeMeters>-56</AltitudeMeters>
            <DistanceMeters>NAN</DistanceMeters>
          </Trackpoint>
          <Trackpoint>
            <Time>2022-09-24T17:05:06.000Z</Time>
            <Position>
              <LatitudeDegrees>43.28519060276448726654052734375</LatitudeDegrees>
              <LongitudeDegrees>-2.966994903981685638427734375</LongitudeDegrees>
            </Position>
            <AltitudeMeters>-56</AltitudeMeters>
            <DistanceMeters>NAN</DistanceMeters>
          </Trackpoint>
          <Trackpoint>
            <Time>2022-09-24T17:05:07.000Z</Time>
            <Position>
              <LatitudeDegrees>43.28501642681658267974853515625</LatitudeDegrees>
              <LongitudeDegrees>-2.9669736139476299285888671875</LongitudeDegrees>
            </Position>
            <AltitudeMeters>-56</AltitudeMeters>
            <DistanceMeters>NAN</DistanceMeters>
          </Trackpoint>
          <Trackpoint>
            <Time>2022-09-24T17:05:08.000Z</Time>
            <Position>
              <LatitudeDegrees>43.28492724336683750152587890625</LatitudeDegrees>
              <LongitudeDegrees>-2.96696615405380725860595703125</LongitudeDegrees>
            </Position>
            <AltitudeMeters>-56</AltitudeMeters>
            <DistanceMeters>NAN</DistanceMeters>
          </Trackpoint>
          <Trackpoint>
            <Time>2022-09-24T17:05:09.000Z</Time>
            <Position>
              <LatitudeDegrees>43.28483956865966320037841796875</LatitudeDegrees>
              <LongitudeDegrees>-2.966965734958648681640625</LongitudeDegrees>
            </Position>
            <AltitudeMeters>-55.799999237060546875</AltitudeMeters>
            <DistanceMeters>NAN</DistanceMeters>
          </Trackpoint>
          <Trackpoint>
            <Time>2022-09-24T17:05:10.000Z</Time>
            <Position>
              <LatitudeDegrees>43.284753151237964630126953125</LatitudeDegrees>
              <LongitudeDegrees>-2.9669665731489658355712890625</LongitudeDegrees>
            </Position>
            <AltitudeMeters>-55.799999237060546875</AltitudeMeters>
            <DistanceMeters>NAN</DistanceMeters>
          </Trackpoint>
          <Trackpoint>
            <Time>2022-09-24T17:05:11.000Z</Time>
            <Position>
              <LatitudeDegrees>43.284753151237964630126953125</LatitudeDegrees>
              <LongitudeDegrees>-2.9669665731489658355712890625</LongitudeDegrees>
            </Position>
            <AltitudeMeters>-55.799999237060546875</AltitudeMeters>
            <DistanceMeters>NAN</DistanceMeters>
          </Trackpoint>
          <Trackpoint>
            <Time>2022-09-24T17:05:12.000Z</Time>
            <Position>
              <LatitudeDegrees>43.2845809869468212127685546875</LatitudeDegrees>
              <LongitudeDegrees>-2.966966070234775543212890625</LongitudeDegrees>
            </Position>
            <AltitudeMeters>-55.799999237060546875</AltitudeMeters>
            <DistanceMeters>NAN</DistanceMeters>
          </Trackpoint>
          <Trackpoint>
            <Time>2022-09-24T17:05:13.000Z</Time>
            <Position>
              <LatitudeDegrees>43.284497670829296112060546875</LatitudeDegrees>
              <LongitudeDegrees>-2.9669695906341075897216796875</LongitudeDegrees>
            </Position>
            <AltitudeMeters>-55.200000762939453125</AltitudeMeters>
            <DistanceMeters>NAN</DistanceMeters>
          </Trackpoint>
          <Trackpoint>
            <Time>2022-09-24T17:05:14.000Z</Time>
            <Position>
              <LatitudeDegrees>43.28441619873046875</LatitudeDegrees>
              <LongitudeDegrees>-2.96697705052793025970458984375</LongitudeDegrees>
            </Position>
            <AltitudeMeters>-55.200000762939453125</AltitudeMeters>
            <DistanceMeters>NAN</DistanceMeters>
          </Trackpoint>
          <Trackpoint>
            <Time>2022-09-24T17:05:15.000Z</Time>
            <Position>
              <LatitudeDegrees>43.2843372412025928497314453125</LatitudeDegrees>
              <LongitudeDegrees>-2.96698727644979953765869140625</LongitudeDegrees>
            </Position>
            <AltitudeMeters>-55.200000762939453125</AltitudeMeters>
            <DistanceMeters>NAN</DistanceMeters>
          </Trackpoint>
          <Trackpoint>
            <Time>2022-09-24T17:05:16.000Z</Time>
            <Position>
              <LatitudeDegrees>43.28425727784633636474609375</LatitudeDegrees>
              <LongitudeDegrees>-2.96699398197233676910400390625</LongitudeDegrees>
            </Position>
            <AltitudeMeters>-55.200000762939453125</AltitudeMeters>
            <DistanceMeters>NAN</DistanceMeters>
          </Trackpoint>
          <Trackpoint>
            <Time>2022-09-24T17:05:17.000Z</Time>
            <Position>
              <LatitudeDegrees>43.2841682620346546173095703125</LatitudeDegrees>
              <LongitudeDegrees>-2.9669987596571445465087890625</LongitudeDegrees>
            </Position>
            <AltitudeMeters>-55.200000762939453125</AltitudeMeters>
            <DistanceMeters>NAN</DistanceMeters>
          </Trackpoint>
          <Trackpoint>
            <Time>2022-09-24T17:05:18.000Z</Time>
            <Position>
              <LatitudeDegrees>43.28408117406070232391357421875</LatitudeDegrees>
              <LongitudeDegrees>-2.96701108105480670928955078125</LongitudeDegrees>
            </Position>
            <AltitudeMeters>-54.200000762939453125</AltitudeMeters>
            <DistanceMeters>NAN</DistanceMeters>
          </Trackpoint>
          <Trackpoint>
            <Time>2022-09-24T17:05:19.000Z</Time>
            <Position>
              <LatitudeDegrees>43.28399517573416233062744140625</LatitudeDegrees>
              <LongitudeDegrees>-2.96701225452125072479248046875</LongitudeDegrees>
            </Position>
            <AltitudeMeters>-54.200000762939453125</AltitudeMeters>
            <DistanceMeters>NAN</DistanceMeters>
          </Trackpoint>
          <Trackpoint>
            <Time>2022-09-24T17:05:20.000Z</Time>
            <Position>
              <LatitudeDegrees>43.28390565700829029083251953125</LatitudeDegrees>
              <LongitudeDegrees>-2.9669923894107341766357421875</LongitudeDegrees>
            </Position>
            <AltitudeMeters>-54.799999237060546875</AltitudeMeters>
            <DistanceMeters>NAN</DistanceMeters>
          </Trackpoint>
          <Trackpoint>
            <Time>2022-09-24T17:05:21.000Z</Time>
            <Position>
              <LatitudeDegrees>43.283821083605289459228515625</LatitudeDegrees>
              <LongitudeDegrees>-2.9669551737606525421142578125</LongitudeDegrees>
            </Position>
            <AltitudeMeters>-54.200000762939453125</AltitudeMeters>
            <DistanceMeters>NAN</DistanceMeters>
          </Trackpoint>
          <Trackpoint>
            <Time>2022-09-24T17:05:22.000Z</Time>
            <Position>
              <LatitudeDegrees>43.2837448082864284515380859375</LatitudeDegrees>
              <LongitudeDegrees>-2.96690647490322589874267578125</LongitudeDegrees>
            </Position>
            <AltitudeMeters>-54.200000762939453125</AltitudeMeters>
            <DistanceMeters>NAN</DistanceMeters>
          </Trackpoint>
          <Trackpoint>
            <Time>2022-09-24T17:05:23.000Z</Time>
            <Position>
              <LatitudeDegrees>43.2836723886430263519287109375</LatitudeDegrees>
              <LongitudeDegrees>-2.9668431915342807769775390625</LongitudeDegrees>
            </Position>
            <AltitudeMeters>-54.799999237060546875</AltitudeMeters>
            <DistanceMeters>NAN</DistanceMeters>
          </Trackpoint>
          <Trackpoint>
            <Time>2022-09-24T17:05:24.000Z</Time>
            <Position>
              <LatitudeDegrees>43.28360944055020809173583984375</LatitudeDegrees>
              <LongitudeDegrees>-2.96676482073962688446044921875</LongitudeDegrees>
            </Position>
            <AltitudeMeters>-55</AltitudeMeters>
            <DistanceMeters>NAN</DistanceMeters>
          </Trackpoint>
          <Trackpoint>
            <Time>2022-09-24T17:05:25.000Z</Time>
            <Position>
              <LatitudeDegrees>43.28360944055020809173583984375</LatitudeDegrees>
              <LongitudeDegrees>-2.96676482073962688446044921875</LongitudeDegrees>
            </Position>
            <AltitudeMeters>-55</AltitudeMeters>
            <DistanceMeters>NAN</DistanceMeters>
          </Trackpoint>
          <Trackpoint>
            <Time>2022-09-24T17:05:26.000Z</Time>
            <Position>
              <LatitudeDegrees>43.283497877418994903564453125</LatitudeDegrees>
              <LongitudeDegrees>-2.96659014187753200531005859375</LongitudeDegrees>
            </Position>
            <AltitudeMeters>-54.799999237060546875</AltitudeMeters>
            <DistanceMeters>NAN</DistanceMeters>
          </Trackpoint>
          <Trackpoint>
            <Time>2022-09-24T17:05:27.000Z</Time>
            <Position>
              <LatitudeDegrees>43.28343526460230350494384765625</LatitudeDegrees>
              <LongitudeDegrees>-2.96650984324514865875244140625</LongitudeDegrees>
            </Position>
            <AltitudeMeters>-54.59999847412109375</AltitudeMeters>
            <DistanceMeters>NAN</DistanceMeters>
          </Trackpoint>
          <Trackpoint>
            <Time>2022-09-24T17:05:28.000Z</Time>
            <Position>
              <LatitudeDegrees>43.2833646051585674285888671875</LatitudeDegrees>
              <LongitudeDegrees>-2.96644270420074462890625</LongitudeDegrees>
            </Position>
            <AltitudeMeters>-54.59999847412109375</AltitudeMeters>
            <DistanceMeters>NAN</DistanceMeters>
          </Trackpoint>
          <Trackpoint>
            <Time>2022-09-24T17:05:29.000Z</Time>
            <Position>
              <LatitudeDegrees>43.28328891657292842864990234375</LatitudeDegrees>
              <LongitudeDegrees>-2.96639182604849338531494140625</LongitudeDegrees>
            </Position>
            <AltitudeMeters>-54.200000762939453125</AltitudeMeters>
            <DistanceMeters>NAN</DistanceMeters>
          </Trackpoint>
          <Trackpoint>
            <Time>2022-09-24T17:05:30.000Z</Time>
            <Position>
              <LatitudeDegrees>43.28320585191249847412109375</LatitudeDegrees>
              <LongitudeDegrees>-2.96634756959974765777587890625</LongitudeDegrees>
            </Position>
            <AltitudeMeters>-54.200000762939453125</AltitudeMeters>
            <DistanceMeters>NAN</DistanceMeters>
          </Trackpoint>
          <Trackpoint>
            <Time>2022-09-24T17:05:31.000Z</Time>
            <Position>
              <LatitudeDegrees>43.28312731347978115081787109375</LatitudeDegrees>
              <LongitudeDegrees>-2.96630951575934886932373046875</LongitudeDegrees>
            </Position>
            <AltitudeMeters>-54.200000762939453125</AltitudeMeters>
            <DistanceMeters>NAN</DistanceMeters>
          </Trackpoint>
          <Trackpoint>
            <Time>2022-09-24T17:05:32.000Z</Time>
            <Position>
              <LatitudeDegrees>43.28304835595190525054931640625</LatitudeDegrees>
              <LongitudeDegrees>-2.96626366674900054931640625</LongitudeDegrees>
            </Position>
            <AltitudeMeters>-54.40000152587890625</AltitudeMeters>
            <DistanceMeters>NAN</DistanceMeters>
          </Trackpoint>
          <Trackpoint>
            <Time>2022-09-24T17:05:33.000Z</Time>
            <Position>
              <LatitudeDegrees>43.28296847641468048095703125</LatitudeDegrees>
              <LongitudeDegrees>-2.966217063367366790771484375</LongitudeDegrees>
            </Position>
            <AltitudeMeters>-54.40000152587890625</AltitudeMeters>
            <DistanceMeters>NAN</DistanceMeters>
          </Trackpoint>
          <Trackpoint>
            <Time>2022-09-24T17:05:34.000Z</Time>
            <Position>
              <LatitudeDegrees>43.282887674868106842041015625</LatitudeDegrees>
              <LongitudeDegrees>-2.9661706276237964630126953125</LongitudeDegrees>
            </Position>
            <AltitudeMeters>-54.59999847412109375</AltitudeMeters>
            <DistanceMeters>NAN</DistanceMeters>
          </Trackpoint>
          <Trackpoint>
            <Time>2022-09-24T17:05:35.000Z</Time>
            <Position>
              <LatitudeDegrees>43.2828097231686115264892578125</LatitudeDegrees>
              <LongitudeDegrees>-2.9661283828318119049072265625</LongitudeDegrees>
            </Position>
            <AltitudeMeters>-54.59999847412109375</AltitudeMeters>
            <DistanceMeters>NAN</DistanceMeters>
          </Trackpoint>
          <Trackpoint>
            <Time>2022-09-24T17:05:36.000Z</Time>
            <Position>
              <LatitudeDegrees>43.28273118473589420318603515625</LatitudeDegrees>
              <LongitudeDegrees>-2.9660874791443347930908203125</LongitudeDegrees>
            </Position>
            <AltitudeMeters>-54.799999237060546875</AltitudeMeters>
            <DistanceMeters>NAN</DistanceMeters>
          </Trackpoint>
          <Trackpoint>
            <Time>2022-09-24T17:05:37.000Z</Time>
            <Position>
              <LatitudeDegrees>43.28265063464641571044921875</LatitudeDegrees>
              <LongitudeDegrees>-2.9660472460091114044189453125</LongitudeDegrees>
            </Position>
            <AltitudeMeters>-54.799999237060546875</AltitudeMeters>
            <DistanceMeters>NAN</DistanceMeters>
          </Trackpoint>
          <Trackpoint>
            <Time>2022-09-24T17:05:38.000Z</Time>
            <Position>
              <LatitudeDegrees>43.28257259912788867950439453125</LatitudeDegrees>
              <LongitudeDegrees>-2.9660050012171268463134765625</LongitudeDegrees>
            </Position>
            <AltitudeMeters>-54.799999237060546875</AltitudeMeters>
            <DistanceMeters>NAN</DistanceMeters>
          </Trackpoint>
          <Trackpoint>
            <Time>2022-09-24T17:05:39.000Z</Time>
            <Position>
              <LatitudeDegrees>43.28249582089483737945556640625</LatitudeDegrees>
              <LongitudeDegrees>-2.96596485190093517303466796875</LongitudeDegrees>
            </Position>
            <AltitudeMeters>-54.799999237060546875</AltitudeMeters>
            <DistanceMeters>NAN</DistanceMeters>
          </Trackpoint>
          <Trackpoint>
            <Time>2022-09-24T17:05:40.000Z</Time>
            <Position>
              <LatitudeDegrees>43.2824166119098663330078125</LatitudeDegrees>
              <LongitudeDegrees>-2.96592378057539463043212890625</LongitudeDegrees>
            </Position>
            <AltitudeMeters>-55</AltitudeMeters>
            <DistanceMeters>NAN</DistanceMeters>
          </Trackpoint>
          <Trackpoint>
            <Time>2022-09-24T17:05:41.000Z</Time>
            <Position>
              <LatitudeDegrees>43.2823369838297367095947265625</LatitudeDegrees>
              <LongitudeDegrees>-2.96588388271629810333251953125</LongitudeDegrees>
            </Position>
            <AltitudeMeters>-55</AltitudeMeters>
            <DistanceMeters>NAN</DistanceMeters>
          </Trackpoint>
          <Trackpoint>
            <Time>2022-09-24T17:05:42.000Z</Time>
            <Position>
              <LatitudeDegrees>43.28226129524409770965576171875</LatitudeDegrees>
              <LongitudeDegrees>-2.965842895209789276123046875</LongitudeDegrees>
            </Position>
            <AltitudeMeters>-55.59999847412109375</AltitudeMeters>
            <DistanceMeters>NAN</DistanceMeters>
          </Trackpoint>
          <Trackpoint>
            <Time>2022-09-24T17:05:43.000Z</Time>
            <Position>
              <LatitudeDegrees>43.28218652866780757904052734375</LatitudeDegrees>
              <LongitudeDegrees>-2.9658011533319950103759765625</LongitudeDegrees>
            </Position>
            <AltitudeMeters>-56.40000152587890625</AltitudeMeters>
            <DistanceMeters>NAN</DistanceMeters>
          </Trackpoint>
          <Trackpoint>
            <Time>2022-09-24T17:05:44.000Z</Time>
            <Position>
              <LatitudeDegrees>43.28211025334894657135009765625</LatitudeDegrees>
              <LongitudeDegrees>-2.9657612554728984832763671875</LongitudeDegrees>
            </Position>
            <AltitudeMeters>-56.40000152587890625</AltitudeMeters>
            <DistanceMeters>NAN</DistanceMeters>
          </Trackpoint>
          <Trackpoint>
            <Time>2022-09-24T17:05:45.000Z</Time>
            <Position>
              <LatitudeDegrees>43.28203163109719753265380859375</LatitudeDegrees>
              <LongitudeDegrees>-2.96572278253734111785888671875</LongitudeDegrees>
            </Position>
            <AltitudeMeters>-56.40000152587890625</AltitudeMeters>
            <DistanceMeters>NAN</DistanceMeters>
          </Trackpoint>
          <Trackpoint>
            <Time>2022-09-24T17:05:46.000Z</Time>
            <Position>
              <LatitudeDegrees>43.281936161220073699951171875</LatitudeDegrees>
              <LongitudeDegrees>-2.96567953191697597503662109375</LongitudeDegrees>
            </Position>
            <AltitudeMeters>-56.40000152587890625</AltitudeMeters>
            <DistanceMeters>NAN</DistanceMeters>
          </Trackpoint>
          <Trackpoint>
            <Time>2022-09-24T17:05:47.000Z</Time>
            <Position>
              <LatitudeDegrees>43.28185527585446834564208984375</LatitudeDegrees>
              <LongitudeDegrees>-2.965642400085926055908203125</LongitudeDegrees>
            </Position>
            <AltitudeMeters>-56.200000762939453125</AltitudeMeters>
            <DistanceMeters>NAN</DistanceMeters>
          </Trackpoint>
          <Trackpoint>
            <Time>2022-09-24T17:05:48.000Z</Time>
            <Position>
              <LatitudeDegrees>43.28185527585446834564208984375</LatitudeDegrees>
              <LongitudeDegrees>-2.965642400085926055908203125</LongitudeDegrees>
            </Position>
            <AltitudeMeters>-55</AltitudeMeters>
            <DistanceMeters>NAN</DistanceMeters>
          </Trackpoint>
          <Trackpoint>
            <Time>2022-09-24T17:05:49.000Z</Time>
            <Position>
              <LatitudeDegrees>43.281718231737613677978515625</LatitudeDegrees>
              <LongitudeDegrees>-2.96558263711631298065185546875</LongitudeDegrees>
            </Position>
            <AltitudeMeters>-55</AltitudeMeters>
            <DistanceMeters>NAN</DistanceMeters>
          </Trackpoint>
          <Trackpoint>
            <Time>2022-09-24T17:05:50.000Z</Time>
            <Position>
              <LatitudeDegrees>43.28164354898035526275634765625</LatitudeDegrees>
              <LongitudeDegrees>-2.965534441173076629638671875</LongitudeDegrees>
            </Position>
            <AltitudeMeters>-54.799999237060546875</AltitudeMeters>
            <DistanceMeters>NAN</DistanceMeters>
          </Trackpoint>
          <Trackpoint>
            <Time>2022-09-24T17:05:51.000Z</Time>
            <Position>
              <LatitudeDegrees>43.28157129697501659393310546875</LatitudeDegrees>
              <LongitudeDegrees>-2.9654957167804241180419921875</LongitudeDegrees>
            </Position>
            <AltitudeMeters>-55</AltitudeMeters>
            <DistanceMeters>NAN</DistanceMeters>
          </Trackpoint>
          <Trackpoint>
            <Time>2022-09-24T17:05:52.000Z</Time>
            <Position>
              <LatitudeDegrees>43.28150264918804168701171875</LatitudeDegrees>
              <LongitudeDegrees>-2.9654434137046337127685546875</LongitudeDegrees>
            </Position>
            <AltitudeMeters>-55</AltitudeMeters>
            <DistanceMeters>NAN</DistanceMeters>
          </Trackpoint>
          <Trackpoint>
            <Time>2022-09-24T17:05:53.000Z</Time>
            <Position>
              <LatitudeDegrees>43.28143157064914703369140625</LatitudeDegrees>
              <LongitudeDegrees>-2.96540594659745693206787109375</LongitudeDegrees>
            </Position>
            <AltitudeMeters>-55</AltitudeMeters>
            <DistanceMeters>NAN</DistanceMeters>
          </Trackpoint>
          <Trackpoint>
            <Time>2022-09-24T17:05:54.000Z</Time>
            <Position>
              <LatitudeDegrees>43.28136091120541095733642578125</LatitudeDegrees>
              <LongitudeDegrees>-2.96537124551832675933837890625</LongitudeDegrees>
            </Position>
            <AltitudeMeters>-55</AltitudeMeters>
            <DistanceMeters>NAN</DistanceMeters>
          </Trackpoint>
          <Trackpoint>
            <Time>2022-09-24T17:05:55.000Z</Time>
            <Position>
              <LatitudeDegrees>43.28128337860107421875</LatitudeDegrees>
              <LongitudeDegrees>-2.9653317667543888092041015625</LongitudeDegrees>
            </Position>
            <AltitudeMeters>-55</AltitudeMeters>
            <DistanceMeters>NAN</DistanceMeters>
          </Trackpoint>
          <Trackpoint>
            <Time>2022-09-24T17:05:56.000Z</Time>
            <Position>
              <LatitudeDegrees>43.28121028840541839599609375</LatitudeDegrees>
              <LongitudeDegrees>-2.96526462770998477935791015625</LongitudeDegrees>
            </Position>
            <AltitudeMeters>-55</AltitudeMeters>
            <DistanceMeters>NAN</DistanceMeters>
          </Trackpoint>
          <Trackpoint>
            <Time>2022-09-24T17:05:57.000Z</Time>
            <Position>
              <LatitudeDegrees>43.28113493509590625762939453125</LatitudeDegrees>
              <LongitudeDegrees>-2.96521299518644809722900390625</LongitudeDegrees>
            </Position>
            <AltitudeMeters>-55</AltitudeMeters>
            <DistanceMeters>NAN</DistanceMeters>
          </Trackpoint>
          <Trackpoint>
            <Time>2022-09-24T17:05:58.000Z</Time>
            <Position>
              <LatitudeDegrees>43.2810605876147747039794921875</LatitudeDegrees>
              <LongitudeDegrees>-2.96516773290932178497314453125</LongitudeDegrees>
            </Position>
            <AltitudeMeters>-55</AltitudeMeters>
            <DistanceMeters>NAN</DistanceMeters>
          </Trackpoint>
          <Trackpoint>
            <Time>2022-09-24T17:05:59.000Z</Time>
            <Position>
              <LatitudeDegrees>43.280984647572040557861328125</LatitudeDegrees>
              <LongitudeDegrees>-2.9651218838989734649658203125</LongitudeDegrees>
            </Position>
            <AltitudeMeters>-55.200000762939453125</AltitudeMeters>
            <DistanceMeters>NAN</DistanceMeters>
          </Trackpoint>
          <Trackpoint>
            <Time>2022-09-24T17:06:00.000Z</Time>
            <Position>
              <LatitudeDegrees>43.2809083722531795501708984375</LatitudeDegrees>
              <LongitudeDegrees>-2.965082488954067230224609375</LongitudeDegrees>
            </Position>
            <AltitudeMeters>-55.200000762939453125</AltitudeMeters>
            <DistanceMeters>NAN</DistanceMeters>
          </Trackpoint>
          <Trackpoint>
            <Time>2022-09-24T17:06:01.000Z</Time>
            <Position>
              <LatitudeDegrees>43.28083184547722339630126953125</LatitudeDegrees>
              <LongitudeDegrees>-2.965043596923351287841796875</LongitudeDegrees>
            </Position>
            <AltitudeMeters>-55</AltitudeMeters>
            <DistanceMeters>NAN</DistanceMeters>
          </Trackpoint>
          <Trackpoint>
            <Time>2022-09-24T17:06:02.000Z</Time>
            <Position>
              <LatitudeDegrees>43.28075439669191837310791015625</LatitudeDegrees>
              <LongitudeDegrees>-2.9650035314261913299560546875</LongitudeDegrees>
            </Position>
            <AltitudeMeters>-54.799999237060546875</AltitudeMeters>
            <DistanceMeters>NAN</DistanceMeters>
          </Trackpoint>
          <Trackpoint>
            <Time>2022-09-24T17:06:03.000Z</Time>
            <Position>
              <LatitudeDegrees>43.28067560680210590362548828125</LatitudeDegrees>
              <LongitudeDegrees>-2.96496623195707798004150390625</LongitudeDegrees>
            </Position>
            <AltitudeMeters>-54.799999237060546875</AltitudeMeters>
            <DistanceMeters>NAN</DistanceMeters>
          </Trackpoint>
          <Trackpoint>
            <Time>2022-09-24T17:06:04.000Z</Time>
            <Position>
              <LatitudeDegrees>43.28067560680210590362548828125</LatitudeDegrees>
              <LongitudeDegrees>-2.96496623195707798004150390625</LongitudeDegrees>
            </Position>
            <AltitudeMeters>-54.799999237060546875</AltitudeMeters>
            <DistanceMeters>NAN</DistanceMeters>
          </Trackpoint>
          <Trackpoint>
            <Time>2022-09-24T17:06:05.000Z</Time>
            <Position>
              <LatitudeDegrees>43.2805305160582065582275390625</LatitudeDegrees>
              <LongitudeDegrees>-2.9648928903043270111083984375</LongitudeDegrees>
            </Position>
            <AltitudeMeters>-55</AltitudeMeters>
            <DistanceMeters>NAN</DistanceMeters>
          </Trackpoint>
          <Trackpoint>
            <Time>2022-09-24T17:06:06.000Z</Time>
            <Position>
              <LatitudeDegrees>43.28045834787189960479736328125</LatitudeDegrees>
              <LongitudeDegrees>-2.96485391445457935333251953125</LongitudeDegrees>
            </Position>
            <AltitudeMeters>-54.799999237060546875</AltitudeMeters>
            <DistanceMeters>NAN</DistanceMeters>
          </Trackpoint>
          <Trackpoint>
            <Time>2022-09-24T17:06:07.000Z</Time>
            <Position>
              <LatitudeDegrees>43.28038173727691173553466796875</LatitudeDegrees>
              <LongitudeDegrees>-2.96481384895741939544677734375</LongitudeDegrees>
            </Position>
            <AltitudeMeters>-54.799999237060546875</AltitudeMeters>
            <DistanceMeters>NAN</DistanceMeters>
          </Trackpoint>
          <Trackpoint>
            <Time>2022-09-24T17:06:08.000Z</Time>
            <Position>
              <LatitudeDegrees>43.280307389795780181884765625</LatitudeDegrees>
              <LongitudeDegrees>-2.9647743701934814453125</LongitudeDegrees>
            </Position>
            <AltitudeMeters>-54.59999847412109375</AltitudeMeters>
            <DistanceMeters>NAN</DistanceMeters>
          </Trackpoint>
          <Trackpoint>
            <Time>2022-09-24T17:06:09.000Z</Time>
            <Position>
              <LatitudeDegrees>43.28023262321949005126953125</LatitudeDegrees>
              <LongitudeDegrees>-2.9647354781627655029296875</LongitudeDegrees>
            </Position>
            <AltitudeMeters>-54.59999847412109375</AltitudeMeters>
            <DistanceMeters>NAN</DistanceMeters>
          </Trackpoint>
          <Trackpoint>
            <Time>2022-09-24T17:06:10.000Z</Time>
            <Position>
              <LatitudeDegrees>43.2801583595573902130126953125</LatitudeDegrees>
              <LongitudeDegrees>-2.9646967537701129913330078125</LongitudeDegrees>
            </Position>
            <AltitudeMeters>-54.40000152587890625</AltitudeMeters>
            <DistanceMeters>NAN</DistanceMeters>
          </Trackpoint>
          <Trackpoint>
            <Time>2022-09-24T17:06:11.000Z</Time>
            <Position>
              <LatitudeDegrees>43.28008300624787807464599609375</LatitudeDegrees>
              <LongitudeDegrees>-2.9646548442542552947998046875</LongitudeDegrees>
            </Position>
            <AltitudeMeters>-54.40000152587890625</AltitudeMeters>
            <DistanceMeters>NAN</DistanceMeters>
          </Trackpoint>
          <Trackpoint>
            <Time>2022-09-24T17:06:12.000Z</Time>
            <Position>
              <LatitudeDegrees>43.28000639565289020538330078125</LatitudeDegrees>
              <LongitudeDegrees>-2.96461276710033416748046875</LongitudeDegrees>
            </Position>
            <AltitudeMeters>-54.40000152587890625</AltitudeMeters>
            <DistanceMeters>NAN</DistanceMeters>
          </Trackpoint>
          <Trackpoint>
            <Time>2022-09-24T17:06:13.000Z</Time>
            <Position>
              <LatitudeDegrees>43.2799350656569004058837890625</LatitudeDegrees>
              <LongitudeDegrees>-2.96457261778414249420166015625</LongitudeDegrees>
            </Position>
            <AltitudeMeters>-54.200000762939453125</AltitudeMeters>
            <DistanceMeters>NAN</DistanceMeters>
          </Trackpoint>
          <Trackpoint>
            <Time>2022-09-24T17:06:14.000Z</Time>
            <Position>
              <LatitudeDegrees>43.27985803596675395965576171875</LatitudeDegrees>
              <LongitudeDegrees>-2.96453389339148998260498046875</LongitudeDegrees>
            </Position>
            <AltitudeMeters>-54.200000762939453125</AltitudeMeters>
            <DistanceMeters>NAN</DistanceMeters>
          </Trackpoint>
          <Trackpoint>
            <Time>2022-09-24T17:06:15.000Z</Time>
            <Position>
              <LatitudeDegrees>43.27978326939046382904052734375</LatitudeDegrees>
              <LongitudeDegrees>-2.9644942469894886016845703125</LongitudeDegrees>
            </Position>
            <AltitudeMeters>-54.40000152587890625</AltitudeMeters>
            <DistanceMeters>NAN</DistanceMeters>
          </Trackpoint>
          <Trackpoint>
            <Time>2022-09-24T17:06:16.000Z</Time>
            <Position>
              <LatitudeDegrees>43.27970582060515880584716796875</LatitudeDegrees>
              <LongitudeDegrees>-2.964455187320709228515625</LongitudeDegrees>
            </Position>
            <AltitudeMeters>-54.59999847412109375</AltitudeMeters>
            <DistanceMeters>NAN</DistanceMeters>
          </Trackpoint>
          <Trackpoint>
            <Time>2022-09-24T17:06:17.000Z</Time>
            <Position>
              <LatitudeDegrees>43.27963138930499553680419921875</LatitudeDegrees>
              <LongitudeDegrees>-2.96441654674708843231201171875</LongitudeDegrees>
            </Position>
            <AltitudeMeters>-54.799999237060546875</AltitudeMeters>
            <DistanceMeters>NAN</DistanceMeters>
          </Trackpoint>
          <Trackpoint>
            <Time>2022-09-24T17:06:18.000Z</Time>
            <Position>
              <LatitudeDegrees>43.27955804765224456787109375</LatitudeDegrees>
              <LongitudeDegrees>-2.96437539160251617431640625</LongitudeDegrees>
            </Position>
            <AltitudeMeters>-54.799999237060546875</AltitudeMeters>
            <DistanceMeters>NAN</DistanceMeters>
          </Trackpoint>
          <Trackpoint>
            <Time>2022-09-24T17:06:19.000Z</Time>
            <Position>
              <LatitudeDegrees>43.27948831021785736083984375</LatitudeDegrees>
              <LongitudeDegrees>-2.96433658339083194732666015625</LongitudeDegrees>
            </Position>
            <AltitudeMeters>-54.799999237060546875</AltitudeMeters>
            <DistanceMeters>NAN</DistanceMeters>
          </Trackpoint>
          <Trackpoint>
            <Time>2022-09-24T17:06:20.000Z</Time>
            <Position>
              <LatitudeDegrees>43.27941597439348697662353515625</LatitudeDegrees>
              <LongitudeDegrees>-2.9642981104552745819091796875</LongitudeDegrees>
            </Position>
            <AltitudeMeters>-54.799999237060546875</AltitudeMeters>
            <DistanceMeters>NAN</DistanceMeters>
          </Trackpoint>
          <Trackpoint>
            <Time>2022-09-24T17:06:21.000Z</Time>
            <Position>
              <LatitudeDegrees>43.279344141483306884765625</LatitudeDegrees>
              <LongitudeDegrees>-2.9642602242529392242431640625</LongitudeDegrees>
            </Position>
            <AltitudeMeters>-54.799999237060546875</AltitudeMeters>
            <DistanceMeters>NAN</DistanceMeters>
          </Trackpoint>
          <Trackpoint>
            <Time>2022-09-24T17:06:22.000Z</Time>
            <Position>
              <LatitudeDegrees>43.2792718894779682159423828125</LatitudeDegrees>
              <LongitudeDegrees>-2.9642206616699695587158203125</LongitudeDegrees>
            </Position>
            <AltitudeMeters>-54.40000152587890625</AltitudeMeters>
            <DistanceMeters>NAN</DistanceMeters>
          </Trackpoint>
          <Trackpoint>
            <Time>2022-09-24T17:06:23.000Z</Time>
            <Position>
              <LatitudeDegrees>43.2791977934539318084716796875</LatitudeDegrees>
              <LongitudeDegrees>-2.964181602001190185546875</LongitudeDegrees>
            </Position>
            <AltitudeMeters>-54.40000152587890625</AltitudeMeters>
            <DistanceMeters>NAN</DistanceMeters>
          </Trackpoint>
          <Trackpoint>
            <Time>2022-09-24T17:06:24.000Z</Time>
            <Position>
              <LatitudeDegrees>43.2791270501911640167236328125</LatitudeDegrees>
              <LongitudeDegrees>-2.96414463780820369720458984375</LongitudeDegrees>
            </Position>
            <AltitudeMeters>-54</AltitudeMeters>
            <DistanceMeters>NAN</DistanceMeters>
          </Trackpoint>
          <Trackpoint>
            <Time>2022-09-24T17:06:25.000Z</Time>
            <Position>
              <LatitudeDegrees>43.27905722893774509429931640625</LatitudeDegrees>
              <LongitudeDegrees>-2.96410909853875637054443359375</LongitudeDegrees>
            </Position>
            <AltitudeMeters>-54</AltitudeMeters>
            <DistanceMeters>NAN</DistanceMeters>
          </Trackpoint>
          <Trackpoint>
            <Time>2022-09-24T17:06:26.000Z</Time>
            <Position>
              <LatitudeDegrees>43.278985060751438140869140625</LatitudeDegrees>
              <LongitudeDegrees>-2.96407104469835758209228515625</LongitudeDegrees>
            </Position>
            <AltitudeMeters>-54.40000152587890625</AltitudeMeters>
            <DistanceMeters>NAN</DistanceMeters>
          </Trackpoint>
          <Trackpoint>
            <Time>2022-09-24T17:06:27.000Z</Time>
            <Position>
              <LatitudeDegrees>43.27891163527965545654296875</LatitudeDegrees>
              <LongitudeDegrees>-2.9640308953821659088134765625</LongitudeDegrees>
            </Position>
            <AltitudeMeters>-54.40000152587890625</AltitudeMeters>
            <DistanceMeters>NAN</DistanceMeters>
          </Trackpoint>
          <Trackpoint>
            <Time>2022-09-24T17:06:28.000Z</Time>
            <Position>
              <LatitudeDegrees>43.27885237522423267364501953125</LatitudeDegrees>
              <LongitudeDegrees>-2.96399979852139949798583984375</LongitudeDegrees>
            </Position>
            <AltitudeMeters>-54.200000762939453125</AltitudeMeters>
            <DistanceMeters>NAN</DistanceMeters>
          </Trackpoint>
          <Trackpoint>
            <Time>2022-09-24T17:06:29.000Z</Time>
            <Position>
              <LatitudeDegrees>43.27876168303191661834716796875</LatitudeDegrees>
              <LongitudeDegrees>-2.96394984237849712371826171875</LongitudeDegrees>
            </Position>
            <AltitudeMeters>-55.40000152587890625</AltitudeMeters>
            <DistanceMeters>NAN</DistanceMeters>
          </Trackpoint>
          <Trackpoint>
            <Time>2022-09-24T17:06:30.000Z</Time>
            <Position>
              <LatitudeDegrees>43.27868406660854816436767578125</LatitudeDegrees>
              <LongitudeDegrees>-2.963907681405544281005859375</LongitudeDegrees>
            </Position>
            <AltitudeMeters>-55.40000152587890625</AltitudeMeters>
            <DistanceMeters>NAN</DistanceMeters>
          </Trackpoint>
          <Trackpoint>
            <Time>2022-09-24T17:06:31.000Z</Time>
            <Position>
              <LatitudeDegrees>43.27861013822257518768310546875</LatitudeDegrees>
              <LongitudeDegrees>-2.9638699628412723541259765625</LongitudeDegrees>
            </Position>
            <AltitudeMeters>-55.40000152587890625</AltitudeMeters>
            <DistanceMeters>NAN</DistanceMeters>
          </Trackpoint>
          <Trackpoint>
            <Time>2022-09-24T17:06:32.000Z</Time>
            <Position>
              <LatitudeDegrees>43.2785383053123950958251953125</LatitudeDegrees>
              <LongitudeDegrees>-2.963832914829254150390625</LongitudeDegrees>
            </Position>
            <AltitudeMeters>-55.200000762939453125</AltitudeMeters>
            <DistanceMeters>NAN</DistanceMeters>
          </Trackpoint>
          <Trackpoint>
            <Time>2022-09-24T17:06:33.000Z</Time>
            <Position>
              <LatitudeDegrees>43.2784662209451198577880859375</LatitudeDegrees>
              <LongitudeDegrees>-2.96379678882658481597900390625</LongitudeDegrees>
            </Position>
            <AltitudeMeters>-55.200000762939453125</AltitudeMeters>
            <DistanceMeters>NAN</DistanceMeters>
          </Trackpoint>
          <Trackpoint>
            <Time>2022-09-24T17:06:34.000Z</Time>
            <Position>
              <LatitudeDegrees>43.27839673496782779693603515625</LatitudeDegrees>
              <LongitudeDegrees>-2.96376376412808895111083984375</LongitudeDegrees>
            </Position>
            <AltitudeMeters>-55.200000762939453125</AltitudeMeters>
            <DistanceMeters>NAN</DistanceMeters>
          </Trackpoint>
          <Trackpoint>
            <Time>2022-09-24T17:06:35.000Z</Time>
            <Position>
              <LatitudeDegrees>43.27832850627601146697998046875</LatitudeDegrees>
              <LongitudeDegrees>-2.96373057179152965545654296875</LongitudeDegrees>
            </Position>
            <AltitudeMeters>-55.799999237060546875</AltitudeMeters>
            <DistanceMeters>NAN</DistanceMeters>
          </Trackpoint>
          <Trackpoint>
            <Time>2022-09-24T17:06:36.000Z</Time>
            <Position>
              <LatitudeDegrees>43.27825625427067279815673828125</LatitudeDegrees>
              <LongitudeDegrees>-2.96369402669370174407958984375</LongitudeDegrees>
            </Position>
            <AltitudeMeters>-55.799999237060546875</AltitudeMeters>
            <DistanceMeters>NAN</DistanceMeters>
          </Trackpoint>
          <Trackpoint>
            <Time>2022-09-24T17:06:37.000Z</Time>
            <Position>
              <LatitudeDegrees>43.27818651683628559112548828125</LatitudeDegrees>
              <LongitudeDegrees>-2.96365094371140003204345703125</LongitudeDegrees>
            </Position>
            <AltitudeMeters>-56.200000762939453125</AltitudeMeters>
            <DistanceMeters>NAN</DistanceMeters>
          </Trackpoint>
          <Trackpoint>
            <Time>2022-09-24T17:06:38.000Z</Time>
            <Position>
              <LatitudeDegrees>43.27811376191675662994384765625</LatitudeDegrees>
              <LongitudeDegrees>-2.96360962092876434326171875</LongitudeDegrees>
            </Position>
            <AltitudeMeters>-56.200000762939453125</AltitudeMeters>
            <DistanceMeters>NAN</DistanceMeters>
          </Trackpoint>
          <Trackpoint>
            <Time>2022-09-24T17:06:39.000Z</Time>
            <Position>
              <LatitudeDegrees>43.27804050408303737640380859375</LatitudeDegrees>
              <LongitudeDegrees>-2.96356662176549434661865234375</LongitudeDegrees>
            </Position>
            <AltitudeMeters>-56.200000762939453125</AltitudeMeters>
            <DistanceMeters>NAN</DistanceMeters>
          </Trackpoint>
          <Trackpoint>
            <Time>2022-09-24T17:06:40.000Z</Time>
            <Position>
              <LatitudeDegrees>43.27797160483896732330322265625</LatitudeDegrees>
              <LongitudeDegrees>-2.9635286517441272735595703125</LongitudeDegrees>
            </Position>
            <AltitudeMeters>-56.200000762939453125</AltitudeMeters>
            <DistanceMeters>NAN</DistanceMeters>
          </Trackpoint>
          <Trackpoint>
            <Time>2022-09-24T17:06:41.000Z</Time>
            <Position>
              <LatitudeDegrees>43.27790119685232639312744140625</LatitudeDegrees>
              <LongitudeDegrees>-2.9634917713701725006103515625</LongitudeDegrees>
            </Position>
            <AltitudeMeters>-56.200000762939453125</AltitudeMeters>
            <DistanceMeters>NAN</DistanceMeters>
          </Trackpoint>
          <Trackpoint>
            <Time>2022-09-24T17:06:42.000Z</Time>
            <Position>
              <LatitudeDegrees>43.2778312079608440399169921875</LatitudeDegrees>
              <LongitudeDegrees>-2.9634475149214267730712890625</LongitudeDegrees>
            </Position>
            <AltitudeMeters>-56.40000152587890625</AltitudeMeters>
            <DistanceMeters>NAN</DistanceMeters>
          </Trackpoint>
          <Trackpoint>
            <Time>2022-09-24T17:06:43.000Z</Time>
            <Position>
              <LatitudeDegrees>43.2777584530413150787353515625</LatitudeDegrees>
              <LongitudeDegrees>-2.9634024202823638916015625</LongitudeDegrees>
            </Position>
            <AltitudeMeters>-56.200000762939453125</AltitudeMeters>
            <DistanceMeters>NAN</DistanceMeters>
          </Trackpoint>
          <Trackpoint>
            <Time>2022-09-24T17:06:44.000Z</Time>
            <Position>
              <LatitudeDegrees>43.2776729576289653778076171875</LatitudeDegrees>
              <LongitudeDegrees>-2.96335422433912754058837890625</LongitudeDegrees>
            </Position>
            <AltitudeMeters>-56.200000762939453125</AltitudeMeters>
            <DistanceMeters>NAN</DistanceMeters>
          </Trackpoint>
          <Trackpoint>
            <Time>2022-09-24T17:06:45.000Z</Time>
            <Position>
              <LatitudeDegrees>43.27761352993547916412353515625</LatitudeDegrees>
              <LongitudeDegrees>-2.96332974918186664581298828125</LongitudeDegrees>
            </Position>
            <AltitudeMeters>-56.200000762939453125</AltitudeMeters>
            <DistanceMeters>NAN</DistanceMeters>
          </Trackpoint>
          <Trackpoint>
            <Time>2022-09-24T17:06:46.000Z</Time>
            <Position>
              <LatitudeDegrees>43.2775411941111087799072265625</LatitudeDegrees>
              <LongitudeDegrees>-2.96329890377819538116455078125</LongitudeDegrees>
            </Position>
            <AltitudeMeters>-56.200000762939453125</AltitudeMeters>
            <DistanceMeters>NAN</DistanceMeters>
          </Trackpoint>
          <Trackpoint>
            <Time>2022-09-24T17:06:47.000Z</Time>
            <Position>
              <LatitudeDegrees>43.2774679362773895263671875</LatitudeDegrees>
              <LongitudeDegrees>-2.96324810944497585296630859375</LongitudeDegrees>
            </Position>
            <AltitudeMeters>-56.200000762939453125</AltitudeMeters>
            <DistanceMeters>NAN</DistanceMeters>
          </Trackpoint>
          <Trackpoint>
            <Time>2022-09-24T17:06:48.000Z</Time>
            <Position>
              <LatitudeDegrees>43.2773960195481777191162109375</LatitudeDegrees>
              <LongitudeDegrees>-2.9632039368152618408203125</LongitudeDegrees>
            </Position>
            <AltitudeMeters>-56</AltitudeMeters>
            <DistanceMeters>NAN</DistanceMeters>
          </Trackpoint>
          <Trackpoint>
            <Time>2022-09-24T17:06:49.000Z</Time>
            <Position>
              <LatitudeDegrees>43.27732536010444164276123046875</LatitudeDegrees>
              <LongitudeDegrees>-2.9631663858890533447265625</LongitudeDegrees>
            </Position>
            <AltitudeMeters>-56</AltitudeMeters>
            <DistanceMeters>NAN</DistanceMeters>
          </Trackpoint>
          <Trackpoint>
            <Time>2022-09-24T17:06:50.000Z</Time>
            <Position>
              <LatitudeDegrees>43.2772548682987689971923828125</LatitudeDegrees>
              <LongitudeDegrees>-2.96312523074448108673095703125</LongitudeDegrees>
            </Position>
            <AltitudeMeters>-56</AltitudeMeters>
            <DistanceMeters>NAN</DistanceMeters>
          </Trackpoint>
          <Trackpoint>
            <Time>2022-09-24T17:06:51.000Z</Time>
            <Position>
              <LatitudeDegrees>43.2772548682987689971923828125</LatitudeDegrees>
              <LongitudeDegrees>-2.96312523074448108673095703125</LongitudeDegrees>
            </Position>
            <AltitudeMeters>-56</AltitudeMeters>
            <DistanceMeters>NAN</DistanceMeters>
          </Trackpoint>
          <Trackpoint>
            <Time>2022-09-24T17:06:52.000Z</Time>
            <Position>
              <LatitudeDegrees>43.2771019823849201202392578125</LatitudeDegrees>
              <LongitudeDegrees>-2.96306052245199680328369140625</LongitudeDegrees>
            </Position>
            <AltitudeMeters>-56</AltitudeMeters>
            <DistanceMeters>NAN</DistanceMeters>
          </Trackpoint>
          <Trackpoint>
            <Time>2022-09-24T17:06:53.000Z</Time>
            <Position>
              <LatitudeDegrees>43.277023695409297943115234375</LatitudeDegrees>
              <LongitudeDegrees>-2.96302263624966144561767578125</LongitudeDegrees>
            </Position>
            <AltitudeMeters>-56.200000762939453125</AltitudeMeters>
            <DistanceMeters>NAN</DistanceMeters>
          </Trackpoint>
          <Trackpoint>
            <Time>2022-09-24T17:06:54.000Z</Time>
            <Position>
              <LatitudeDegrees>43.27694096602499485015869140625</LatitudeDegrees>
              <LongitudeDegrees>-2.9629866778850555419921875</LongitudeDegrees>
            </Position>
            <AltitudeMeters>-56.40000152587890625</AltitudeMeters>
            <DistanceMeters>NAN</DistanceMeters>
          </Trackpoint>
          <Trackpoint>
            <Time>2022-09-24T17:06:55.000Z</Time>
            <Position>
              <LatitudeDegrees>43.27684474177658557891845703125</LatitudeDegrees>
              <LongitudeDegrees>-2.96294267289340496063232421875</LongitudeDegrees>
            </Position>
            <AltitudeMeters>-56.59999847412109375</AltitudeMeters>
            <DistanceMeters>NAN</DistanceMeters>
          </Trackpoint>
          <Trackpoint>
            <Time>2022-09-24T17:06:56.000Z</Time>
            <Position>
              <LatitudeDegrees>43.27678422443568706512451171875</LatitudeDegrees>
              <LongitudeDegrees>-2.962913922965526580810546875</LongitudeDegrees>
            </Position>
            <AltitudeMeters>-56.40000152587890625</AltitudeMeters>
            <DistanceMeters>NAN</DistanceMeters>
          </Trackpoint>
          <Trackpoint>
            <Time>2022-09-24T17:06:57.000Z</Time>
            <Position>
              <LatitudeDegrees>43.27669906429946422576904296875</LatitudeDegrees>
              <LongitudeDegrees>-2.96286371536552906036376953125</LongitudeDegrees>
            </Position>
            <AltitudeMeters>-56.59999847412109375</AltitudeMeters>
            <DistanceMeters>NAN</DistanceMeters>
          </Trackpoint>
          <Trackpoint>
            <Time>2022-09-24T17:06:58.000Z</Time>
            <Position>
              <LatitudeDegrees>43.276635110378265380859375</LatitudeDegrees>
              <LongitudeDegrees>-2.9628158546984195709228515625</LongitudeDegrees>
            </Position>
            <AltitudeMeters>-57.200000762939453125</AltitudeMeters>
            <DistanceMeters>NAN</DistanceMeters>
          </Trackpoint>
          <Trackpoint>
            <Time>2022-09-24T17:06:59.000Z</Time>
            <Position>
              <LatitudeDegrees>43.27656746841967105865478515625</LatitudeDegrees>
              <LongitudeDegrees>-2.96276698820292949676513671875</LongitudeDegrees>
            </Position>
            <AltitudeMeters>-57.200000762939453125</AltitudeMeters>
            <DistanceMeters>NAN</DistanceMeters>
          </Trackpoint>
          <Trackpoint>
            <Time>2022-09-24T17:07:00.000Z</Time>
            <Position>
              <LatitudeDegrees>43.2764942944049835205078125</LatitudeDegrees>
              <LongitudeDegrees>-2.96271376311779022216796875</LongitudeDegrees>
            </Position>
            <AltitudeMeters>-57.40000152587890625</AltitudeMeters>
            <DistanceMeters>NAN</DistanceMeters>
          </Trackpoint>
          <Trackpoint>
            <Time>2022-09-24T17:07:01.000Z</Time>
            <Position>
              <LatitudeDegrees>43.27642095275223255157470703125</LatitudeDegrees>
              <LongitudeDegrees>-2.96266607008874416351318359375</LongitudeDegrees>
            </Position>
            <AltitudeMeters>-57.40000152587890625</AltitudeMeters>
            <DistanceMeters>NAN</DistanceMeters>
          </Trackpoint>
          <Trackpoint>
            <Time>2022-09-24T17:07:02.000Z</Time>
            <Position>
              <LatitudeDegrees>43.27635171823203563690185546875</LatitudeDegrees>
              <LongitudeDegrees>-2.96263170428574085235595703125</LongitudeDegrees>
            </Position>
            <AltitudeMeters>-57.799999237060546875</AltitudeMeters>
            <DistanceMeters>NAN</DistanceMeters>
          </Trackpoint>
          <Trackpoint>
            <Time>2022-09-24T17:07:03.000Z</Time>
            <Position>
              <LatitudeDegrees>43.2762761972844600677490234375</LatitudeDegrees>
              <LongitudeDegrees>-2.9625865258276462554931640625</LongitudeDegrees>
            </Position>
            <AltitudeMeters>-57.799999237060546875</AltitudeMeters>
            <DistanceMeters>NAN</DistanceMeters>
          </Trackpoint>
          <Trackpoint>
            <Time>2022-09-24T17:07:04.000Z</Time>
            <Position>
              <LatitudeDegrees>43.27617972157895565032958984375</LatitudeDegrees>
              <LongitudeDegrees>-2.96254687942564487457275390625</LongitudeDegrees>
            </Position>
            <AltitudeMeters>-57.799999237060546875</AltitudeMeters>
            <DistanceMeters>NAN</DistanceMeters>
          </Trackpoint>
          <Trackpoint>
            <Time>2022-09-24T17:07:05.000Z</Time>
            <Position>
              <LatitudeDegrees>43.27609070576727390289306640625</LatitudeDegrees>
              <LongitudeDegrees>-2.96251402236521244049072265625</LongitudeDegrees>
            </Position>
            <AltitudeMeters>-57.40000152587890625</AltitudeMeters>
            <DistanceMeters>NAN</DistanceMeters>
          </Trackpoint>
          <Trackpoint>
            <Time>2022-09-24T17:07:06.000Z</Time>
            <Position>
              <LatitudeDegrees>43.2760056294500827789306640625</LatitudeDegrees>
              <LongitudeDegrees>-2.96247831545770168304443359375</LongitudeDegrees>
            </Position>
            <AltitudeMeters>-57.40000152587890625</AltitudeMeters>
            <DistanceMeters>NAN</DistanceMeters>
          </Trackpoint>
          <Trackpoint>
            <Time>2022-09-24T17:07:07.000Z</Time>
            <Position>
              <LatitudeDegrees>43.27594335190951824188232421875</LatitudeDegrees>
              <LongitudeDegrees>-2.96244679950177669525146484375</LongitudeDegrees>
            </Position>
            <AltitudeMeters>-57.40000152587890625</AltitudeMeters>
            <DistanceMeters>NAN</DistanceMeters>
          </Trackpoint>
          <Trackpoint>
            <Time>2022-09-24T17:07:08.000Z</Time>
            <Position>
              <LatitudeDegrees>43.27586690895259380340576171875</LatitudeDegrees>
              <LongitudeDegrees>-2.9624121822416782379150390625</LongitudeDegrees>
            </Position>
            <AltitudeMeters>-57.40000152587890625</AltitudeMeters>
            <DistanceMeters>NAN</DistanceMeters>
          </Trackpoint>
          <Trackpoint>
            <Time>2022-09-24T17:07:09.000Z</Time>
            <Position>
              <LatitudeDegrees>43.27577906660735607147216796875</LatitudeDegrees>
              <LongitudeDegrees>-2.962378151714801788330078125</LongitudeDegrees>
            </Position>
            <AltitudeMeters>-57.200000762939453125</AltitudeMeters>
            <DistanceMeters>NAN</DistanceMeters>
          </Trackpoint>
          <Trackpoint>
            <Time>2022-09-24T17:07:10.000Z</Time>
            <Position>
              <LatitudeDegrees>43.2757189683616161346435546875</LatitudeDegrees>
              <LongitudeDegrees>-2.96236448921263217926025390625</LongitudeDegrees>
            </Position>
            <AltitudeMeters>-57</AltitudeMeters>
            <DistanceMeters>NAN</DistanceMeters>
          </Trackpoint>
          <Trackpoint>
            <Time>2022-09-24T17:07:11.000Z</Time>
            <Position>
              <LatitudeDegrees>43.2756545953452587127685546875</LatitudeDegrees>
              <LongitudeDegrees>-2.96234588138759136199951171875</LongitudeDegrees>
            </Position>
            <AltitudeMeters>-56.59999847412109375</AltitudeMeters>
            <DistanceMeters>NAN</DistanceMeters>
          </Trackpoint>
          <Trackpoint>
            <Time>2022-09-24T17:07:12.000Z</Time>
            <Position>
              <LatitudeDegrees>43.27558209188282489776611328125</LatitudeDegrees>
              <LongitudeDegrees>-2.96231671236455440521240234375</LongitudeDegrees>
            </Position>
            <AltitudeMeters>-55.59999847412109375</AltitudeMeters>
            <DistanceMeters>NAN</DistanceMeters>
          </Trackpoint>
          <Trackpoint>
            <Time>2022-09-24T17:07:13.000Z</Time>
            <Position>
              <LatitudeDegrees>43.2755147852003574371337890625</LatitudeDegrees>
              <LongitudeDegrees>-2.96229374594986438751220703125</LongitudeDegrees>
            </Position>
            <AltitudeMeters>-55.59999847412109375</AltitudeMeters>
            <DistanceMeters>NAN</DistanceMeters>
          </Trackpoint>
          <Trackpoint>
            <Time>2022-09-24T17:07:14.000Z</Time>
            <Position>
              <LatitudeDegrees>43.27543876133859157562255859375</LatitudeDegrees>
              <LongitudeDegrees>-2.9622649960219860076904296875</LongitudeDegrees>
            </Position>
            <AltitudeMeters>-55.40000152587890625</AltitudeMeters>
            <DistanceMeters>NAN</DistanceMeters>
          </Trackpoint>
          <Trackpoint>
            <Time>2022-09-24T17:07:15.000Z</Time>
            <Position>
              <LatitudeDegrees>43.27538914047181606292724609375</LatitudeDegrees>
              <LongitudeDegrees>-2.9622515849769115447998046875</LongitudeDegrees>
            </Position>
            <AltitudeMeters>-55.40000152587890625</AltitudeMeters>
            <DistanceMeters>NAN</DistanceMeters>
          </Trackpoint>
          <Trackpoint>
            <Time>2022-09-24T17:07:16.000Z</Time>
            <Position>
              <LatitudeDegrees>43.275335915386676788330078125</LatitudeDegrees>
              <LongitudeDegrees>-2.96220389194786548614501953125</LongitudeDegrees>
            </Position>
            <AltitudeMeters>-54.59999847412109375</AltitudeMeters>
            <DistanceMeters>NAN</DistanceMeters>
          </Trackpoint>
          <Trackpoint>
            <Time>2022-09-24T17:07:17.000Z</Time>
            <Position>
              <LatitudeDegrees>43.275335915386676788330078125</LatitudeDegrees>
              <LongitudeDegrees>-2.96220389194786548614501953125</LongitudeDegrees>
            </Position>
            <AltitudeMeters>-54.40000152587890625</AltitudeMeters>
            <DistanceMeters>NAN</DistanceMeters>
          </Trackpoint>
          <Trackpoint>
            <Time>2022-09-24T17:07:18.000Z</Time>
            <Position>
              <LatitudeDegrees>43.27522200532257556915283203125</LatitudeDegrees>
              <LongitudeDegrees>-2.96206600964069366455078125</LongitudeDegrees>
            </Position>
            <AltitudeMeters>-54.200000762939453125</AltitudeMeters>
            <DistanceMeters>NAN</DistanceMeters>
          </Trackpoint>
          <Trackpoint>
            <Time>2022-09-24T17:07:19.000Z</Time>
            <Position>
              <LatitudeDegrees>43.27516316436231136322021484375</LatitudeDegrees>
              <LongitudeDegrees>-2.9620205797255039215087890625</LongitudeDegrees>
            </Position>
            <AltitudeMeters>-54.200000762939453125</AltitudeMeters>
            <DistanceMeters>NAN</DistanceMeters>
          </Trackpoint>
          <Trackpoint>
            <Time>2022-09-24T17:07:20.000Z</Time>
            <Position>
              <LatitudeDegrees>43.2751013897359371185302734375</LatitudeDegrees>
              <LongitudeDegrees>-2.96199358999729156494140625</LongitudeDegrees>
            </Position>
            <AltitudeMeters>-54.200000762939453125</AltitudeMeters>
            <DistanceMeters>NAN</DistanceMeters>
          </Trackpoint>
          <Trackpoint>
            <Time>2022-09-24T17:07:21.000Z</Time>
            <Position>
              <LatitudeDegrees>43.275042884051799774169921875</LatitudeDegrees>
              <LongitudeDegrees>-2.96196484006941318511962890625</LongitudeDegrees>
            </Position>
            <AltitudeMeters>-54.200000762939453125</AltitudeMeters>
            <DistanceMeters>NAN</DistanceMeters>
          </Trackpoint>
          <Trackpoint>
            <Time>2022-09-24T17:07:22.000Z</Time>
            <Position>
              <LatitudeDegrees>43.27497809194028377532958984375</LatitudeDegrees>
              <LongitudeDegrees>-2.96192829497158527374267578125</LongitudeDegrees>
            </Position>
            <AltitudeMeters>-54.200000762939453125</AltitudeMeters>
            <DistanceMeters>NAN</DistanceMeters>
          </Trackpoint>
          <Trackpoint>
            <Time>2022-09-24T17:07:23.000Z</Time>
            <Position>
              <LatitudeDegrees>43.27492260374128818511962890625</LatitudeDegrees>
              <LongitudeDegrees>-2.9618950188159942626953125</LongitudeDegrees>
            </Position>
            <AltitudeMeters>-53.799999237060546875</AltitudeMeters>
            <DistanceMeters>NAN</DistanceMeters>
          </Trackpoint>
          <Trackpoint>
            <Time>2022-09-24T17:07:24.000Z</Time>
            <Position>
              <LatitudeDegrees>43.27486376278102397918701171875</LatitudeDegrees>
              <LongitudeDegrees>-2.96185201965272426605224609375</LongitudeDegrees>
            </Position>
            <AltitudeMeters>-53.799999237060546875</AltitudeMeters>
            <DistanceMeters>NAN</DistanceMeters>
          </Trackpoint>
          <Trackpoint>
            <Time>2022-09-24T17:07:25.000Z</Time>
            <Position>
              <LatitudeDegrees>43.27481581829488277435302734375</LatitudeDegrees>
              <LongitudeDegrees>-2.96181580983102321624755859375</LongitudeDegrees>
            </Position>
            <AltitudeMeters>-53.799999237060546875</AltitudeMeters>
            <DistanceMeters>NAN</DistanceMeters>
          </Trackpoint>
          <Trackpoint>
            <Time>2022-09-24T17:07:26.000Z</Time>
            <Position>
              <LatitudeDegrees>43.27475982718169689178466796875</LatitudeDegrees>
              <LongitudeDegrees>-2.96177675016224384307861328125</LongitudeDegrees>
            </Position>
            <AltitudeMeters>-53.799999237060546875</AltitudeMeters>
            <DistanceMeters>NAN</DistanceMeters>
          </Trackpoint>
          <Trackpoint>
            <Time>2022-09-24T17:07:27.000Z</Time>
            <Position>
              <LatitudeDegrees>43.2747027464210987091064453125</LatitudeDegrees>
              <LongitudeDegrees>-2.9617421329021453857421875</LongitudeDegrees>
            </Position>
            <AltitudeMeters>-53.40000152587890625</AltitudeMeters>
            <DistanceMeters>NAN</DistanceMeters>
          </Trackpoint>
          <Trackpoint>
            <Time>2022-09-24T17:07:28.000Z</Time>
            <Position>
              <LatitudeDegrees>43.27464516274631023406982421875</LatitudeDegrees>
              <LongitudeDegrees>-2.9617064259946346282958984375</LongitudeDegrees>
            </Position>
            <AltitudeMeters>-53.40000152587890625</AltitudeMeters>
            <DistanceMeters>NAN</DistanceMeters>
          </Trackpoint>
          <Trackpoint>
            <Time>2022-09-24T17:07:29.000Z</Time>
            <Position>
              <LatitudeDegrees>43.27458389103412628173828125</LatitudeDegrees>
              <LongitudeDegrees>-2.9616678692400455474853515625</LongitudeDegrees>
            </Position>
            <AltitudeMeters>-53.40000152587890625</AltitudeMeters>
            <DistanceMeters>NAN</DistanceMeters>
          </Trackpoint>
          <Trackpoint>
            <Time>2022-09-24T17:07:30.000Z</Time>
            <Position>
              <LatitudeDegrees>43.2745094597339630126953125</LatitudeDegrees>
              <LongitudeDegrees>-2.96162637881934642791748046875</LongitudeDegrees>
            </Position>
            <AltitudeMeters>-53</AltitudeMeters>
            <DistanceMeters>NAN</DistanceMeters>
          </Trackpoint>
          <Trackpoint>
            <Time>2022-09-24T17:07:31.000Z</Time>
            <Position>
              <LatitudeDegrees>43.2744439132511615753173828125</LatitudeDegrees>
              <LongitudeDegrees>-2.96158782206475734710693359375</LongitudeDegrees>
            </Position>
            <AltitudeMeters>-53</AltitudeMeters>
            <DistanceMeters>NAN</DistanceMeters>
          </Trackpoint>
          <Trackpoint>
            <Time>2022-09-24T17:07:32.000Z</Time>
            <Position>
              <LatitudeDegrees>43.2743788696825504302978515625</LatitudeDegrees>
              <LongitudeDegrees>-2.9615602456033229827880859375</LongitudeDegrees>
            </Position>
            <AltitudeMeters>-52.799999237060546875</AltitudeMeters>
            <DistanceMeters>NAN</DistanceMeters>
          </Trackpoint>
          <Trackpoint>
            <Time>2022-09-24T17:07:33.000Z</Time>
            <Position>
              <LatitudeDegrees>43.27431307174265384674072265625</LatitudeDegrees>
              <LongitudeDegrees>-2.961529232561588287353515625</LongitudeDegrees>
            </Position>
            <AltitudeMeters>-52.799999237060546875</AltitudeMeters>
            <DistanceMeters>NAN</DistanceMeters>
          </Trackpoint>
          <Trackpoint>
            <Time>2022-09-24T17:07:34.000Z</Time>
            <Position>
              <LatitudeDegrees>43.2742450945079326629638671875</LatitudeDegrees>
              <LongitudeDegrees>-2.96148933470249176025390625</LongitudeDegrees>
            </Position>
            <AltitudeMeters>-53.200000762939453125</AltitudeMeters>
            <DistanceMeters>NAN</DistanceMeters>
          </Trackpoint>
          <Trackpoint>
            <Time>2022-09-24T17:07:35.000Z</Time>
            <Position>
              <LatitudeDegrees>43.274177871644496917724609375</LatitudeDegrees>
              <LongitudeDegrees>-2.96145203523337841033935546875</LongitudeDegrees>
            </Position>
            <AltitudeMeters>-52.799999237060546875</AltitudeMeters>
            <DistanceMeters>NAN</DistanceMeters>
          </Trackpoint>
          <Trackpoint>
            <Time>2022-09-24T17:07:36.000Z</Time>
            <Position>
              <LatitudeDegrees>43.27412548474967479705810546875</LatitudeDegrees>
              <LongitudeDegrees>-2.96142202802002429962158203125</LongitudeDegrees>
            </Position>
            <AltitudeMeters>-52.40000152587890625</AltitudeMeters>
            <DistanceMeters>NAN</DistanceMeters>
          </Trackpoint>
          <Trackpoint>
            <Time>2022-09-24T17:07:37.000Z</Time>
            <Position>
              <LatitudeDegrees>43.27404719777405261993408203125</LatitudeDegrees>
              <LongitudeDegrees>-2.96137844212353229522705078125</LongitudeDegrees>
            </Position>
            <AltitudeMeters>-52.40000152587890625</AltitudeMeters>
            <DistanceMeters>NAN</DistanceMeters>
          </Trackpoint>
          <Trackpoint>
            <Time>2022-09-24T17:07:38.000Z</Time>
            <Position>
              <LatitudeDegrees>43.273978717625141143798828125</LatitudeDegrees>
              <LongitudeDegrees>-2.961340807378292083740234375</LongitudeDegrees>
            </Position>
            <AltitudeMeters>-52.40000152587890625</AltitudeMeters>
            <DistanceMeters>NAN</DistanceMeters>
          </Trackpoint>
          <Trackpoint>
            <Time>2022-09-24T17:07:39.000Z</Time>
            <Position>
              <LatitudeDegrees>43.27391375787556171417236328125</LatitudeDegrees>
              <LongitudeDegrees>-2.96131574548780918121337890625</LongitudeDegrees>
            </Position>
            <AltitudeMeters>-53.799999237060546875</AltitudeMeters>
            <DistanceMeters>NAN</DistanceMeters>
          </Trackpoint>
          <Trackpoint>
            <Time>2022-09-24T17:07:40.000Z</Time>
            <Position>
              <LatitudeDegrees>43.273850642144680023193359375</LatitudeDegrees>
              <LongitudeDegrees>-2.96128439716994762420654296875</LongitudeDegrees>
            </Position>
            <AltitudeMeters>-53.799999237060546875</AltitudeMeters>
            <DistanceMeters>NAN</DistanceMeters>
          </Trackpoint>
          <Trackpoint>
            <Time>2022-09-24T17:07:41.000Z</Time>
            <Position>
              <LatitudeDegrees>43.27379087917506694793701171875</LatitudeDegrees>
              <LongitudeDegrees>-2.96124014072120189666748046875</LongitudeDegrees>
            </Position>
            <AltitudeMeters>-52.40000152587890625</AltitudeMeters>
            <DistanceMeters>NAN</DistanceMeters>
          </Trackpoint>
          <Trackpoint>
            <Time>2022-09-24T17:07:42.000Z</Time>
            <Position>
              <LatitudeDegrees>43.27373689971864223480224609375</LatitudeDegrees>
              <LongitudeDegrees>-2.96119772829115390777587890625</LongitudeDegrees>
            </Position>
            <AltitudeMeters>-52.40000152587890625</AltitudeMeters>
            <DistanceMeters>NAN</DistanceMeters>
          </Trackpoint>
          <Trackpoint>
            <Time>2022-09-24T17:07:43.000Z</Time>
            <Position>
              <LatitudeDegrees>43.273682333528995513916015625</LatitudeDegrees>
              <LongitudeDegrees>-2.961166799068450927734375</LongitudeDegrees>
            </Position>
            <AltitudeMeters>-52.40000152587890625</AltitudeMeters>
            <DistanceMeters>NAN</DistanceMeters>
          </Trackpoint>
          <Trackpoint>
            <Time>2022-09-24T17:07:44.000Z</Time>
            <Position>
              <LatitudeDegrees>43.27360999770462512969970703125</LatitudeDegrees>
              <LongitudeDegrees>-2.96112631447613239288330078125</LongitudeDegrees>
            </Position>
            <AltitudeMeters>-51.59999847412109375</AltitudeMeters>
            <DistanceMeters>NAN</DistanceMeters>
          </Trackpoint>
          <Trackpoint>
            <Time>2022-09-24T17:07:45.000Z</Time>
            <Position>
              <LatitudeDegrees>43.27353380620479583740234375</LatitudeDegrees>
              <LongitudeDegrees>-2.9611136578023433685302734375</LongitudeDegrees>
            </Position>
            <AltitudeMeters>-51.40000152587890625</AltitudeMeters>
            <DistanceMeters>NAN</DistanceMeters>
          </Trackpoint>
          <Trackpoint>
            <Time>2022-09-24T17:07:46.000Z</Time>
            <Position>
              <LatitudeDegrees>43.27345794998109340667724609375</LatitudeDegrees>
              <LongitudeDegrees>-2.96109773218631744384765625</LongitudeDegrees>
            </Position>
            <AltitudeMeters>-50.200000762939453125</AltitudeMeters>
            <DistanceMeters>NAN</DistanceMeters>
          </Trackpoint>
          <Trackpoint>
            <Time>2022-09-24T17:07:47.000Z</Time>
            <Position>
              <LatitudeDegrees>43.273394666612148284912109375</LatitudeDegrees>
              <LongitudeDegrees>-2.9610710777342319488525390625</LongitudeDegrees>
            </Position>
            <AltitudeMeters>-50.200000762939453125</AltitudeMeters>
            <DistanceMeters>NAN</DistanceMeters>
          </Trackpoint>
          <Trackpoint>
            <Time>2022-09-24T17:07:48.000Z</Time>
            <Position>
              <LatitudeDegrees>43.27333959750831127166748046875</LatitudeDegrees>
              <LongitudeDegrees>-2.9610462673008441925048828125</LongitudeDegrees>
            </Position>
            <AltitudeMeters>-50</AltitudeMeters>
            <DistanceMeters>NAN</DistanceMeters>
          </Trackpoint>
          <Trackpoint>
            <Time>2022-09-24T17:07:49.000Z</Time>
            <Position>
              <LatitudeDegrees>43.27328561805188655853271484375</LatitudeDegrees>
              <LongitudeDegrees>-2.9610221274197101593017578125</LongitudeDegrees>
            </Position>
            <AltitudeMeters>-49.40000152587890625</AltitudeMeters>
            <DistanceMeters>NAN</DistanceMeters>
          </Trackpoint>
          <Trackpoint>
            <Time>2022-09-24T17:07:50.000Z</Time>
            <Position>
              <LatitudeDegrees>43.27324572019279003143310546875</LatitudeDegrees>
              <LongitudeDegrees>-2.960998155176639556884765625</LongitudeDegrees>
            </Position>
            <AltitudeMeters>-49.200000762939453125</AltitudeMeters>
            <DistanceMeters>NAN</DistanceMeters>
          </Trackpoint>
          <Trackpoint>
            <Time>2022-09-24T17:07:51.000Z</Time>
            <Position>
              <LatitudeDegrees>43.27319048345088958740234375</LatitudeDegrees>
              <LongitudeDegrees>-2.96095984987914562225341796875</LongitudeDegrees>
            </Position>
            <AltitudeMeters>-49</AltitudeMeters>
            <DistanceMeters>NAN</DistanceMeters>
          </Trackpoint>
          <Trackpoint>
            <Time>2022-09-24T17:07:52.000Z</Time>
            <Position>
              <LatitudeDegrees>43.27319048345088958740234375</LatitudeDegrees>
              <LongitudeDegrees>-2.96095984987914562225341796875</LongitudeDegrees>
            </Position>
            <AltitudeMeters>-49</AltitudeMeters>
            <DistanceMeters>NAN</DistanceMeters>
          </Trackpoint>
          <Trackpoint>
            <Time>2022-09-24T17:07:53.000Z</Time>
            <Position>
              <LatitudeDegrees>43.273106329143047332763671875</LatitudeDegrees>
              <LongitudeDegrees>-2.9609044454991817474365234375</LongitudeDegrees>
            </Position>
            <AltitudeMeters>-49</AltitudeMeters>
            <DistanceMeters>NAN</DistanceMeters>
          </Trackpoint>
          <Trackpoint>
            <Time>2022-09-24T17:07:54.000Z</Time>
            <Position>
              <LatitudeDegrees>43.27305226586759090423583984375</LatitudeDegrees>
              <LongitudeDegrees>-2.960876114666461944580078125</LongitudeDegrees>
            </Position>
            <AltitudeMeters>-49</AltitudeMeters>
            <DistanceMeters>NAN</DistanceMeters>
          </Trackpoint>
          <Trackpoint>
            <Time>2022-09-24T17:07:55.000Z</Time>
            <Position>
              <LatitudeDegrees>43.2729993760585784912109375</LatitudeDegrees>
              <LongitudeDegrees>-2.96085096895694732666015625</LongitudeDegrees>
            </Position>
            <AltitudeMeters>-49</AltitudeMeters>
            <DistanceMeters>NAN</DistanceMeters>
          </Trackpoint>
          <Trackpoint>
            <Time>2022-09-24T17:07:56.000Z</Time>
            <Position>
              <LatitudeDegrees>43.2729338295757770538330078125</LatitudeDegrees>
              <LongitudeDegrees>-2.9608139209449291229248046875</LongitudeDegrees>
            </Position>
            <AltitudeMeters>-49</AltitudeMeters>
            <DistanceMeters>NAN</DistanceMeters>
          </Trackpoint>
          <Trackpoint>
            <Time>2022-09-24T17:07:57.000Z</Time>
            <Position>
              <LatitudeDegrees>43.27287674881517887115478515625</LatitudeDegrees>
              <LongitudeDegrees>-2.96078332699835300445556640625</LongitudeDegrees>
            </Position>
            <AltitudeMeters>-49</AltitudeMeters>
            <DistanceMeters>NAN</DistanceMeters>
          </Trackpoint>
          <Trackpoint>
            <Time>2022-09-24T17:07:58.000Z</Time>
            <Position>
              <LatitudeDegrees>43.2728107832372188568115234375</LatitudeDegrees>
              <LongitudeDegrees>-2.9607470333576202392578125</LongitudeDegrees>
            </Position>
            <AltitudeMeters>-49</AltitudeMeters>
            <DistanceMeters>NAN</DistanceMeters>
          </Trackpoint>
          <Trackpoint>
            <Time>2022-09-24T17:07:59.000Z</Time>
            <Position>
              <LatitudeDegrees>43.272747583687305450439453125</LatitudeDegrees>
              <LongitudeDegrees>-2.96070856042206287384033203125</LongitudeDegrees>
            </Position>
            <AltitudeMeters>-49</AltitudeMeters>
            <DistanceMeters>NAN</DistanceMeters>
          </Trackpoint>
          <Trackpoint>
            <Time>2022-09-24T17:08:00.000Z</Time>
            <Position>
              <LatitudeDegrees>43.272685892879962921142578125</LatitudeDegrees>
              <LongitudeDegrees>-2.9606667347252368927001953125</LongitudeDegrees>
            </Position>
            <AltitudeMeters>-49</AltitudeMeters>
            <DistanceMeters>NAN</DistanceMeters>
          </Trackpoint>
          <Trackpoint>
            <Time>2022-09-24T17:08:01.000Z</Time>
            <Position>
              <LatitudeDegrees>43.2726314105093479156494140625</LatitudeDegrees>
              <LongitudeDegrees>-2.96061904169619083404541015625</LongitudeDegrees>
            </Position>
            <AltitudeMeters>-48.799999237060546875</AltitudeMeters>
            <DistanceMeters>NAN</DistanceMeters>
          </Trackpoint>
          <Trackpoint>
            <Time>2022-09-24T17:08:02.000Z</Time>
            <Position>
              <LatitudeDegrees>43.27257935889065265655517578125</LatitudeDegrees>
              <LongitudeDegrees>-2.96057579107582569122314453125</LongitudeDegrees>
            </Position>
            <AltitudeMeters>-48.59999847412109375</AltitudeMeters>
            <DistanceMeters>NAN</DistanceMeters>
          </Trackpoint>
          <Trackpoint>
            <Time>2022-09-24T17:08:03.000Z</Time>
            <Position>
              <LatitudeDegrees>43.27252688817679882049560546875</LatitudeDegrees>
              <LongitudeDegrees>-2.96053455211222171783447265625</LongitudeDegrees>
            </Position>
            <AltitudeMeters>-48.59999847412109375</AltitudeMeters>
            <DistanceMeters>NAN</DistanceMeters>
          </Trackpoint>
          <Trackpoint>
            <Time>2022-09-24T17:08:04.000Z</Time>
            <Position>
              <LatitudeDegrees>43.2724775187671184539794921875</LatitudeDegrees>
              <LongitudeDegrees>-2.960491217672824859619140625</LongitudeDegrees>
            </Position>
            <AltitudeMeters>-48.59999847412109375</AltitudeMeters>
            <DistanceMeters>NAN</DistanceMeters>
          </Trackpoint>
          <Trackpoint>
            <Time>2022-09-24T17:08:05.000Z</Time>
            <Position>
              <LatitudeDegrees>43.27242680825293064117431640625</LatitudeDegrees>
              <LongitudeDegrees>-2.9604494757950305938720703125</LongitudeDegrees>
            </Position>
            <AltitudeMeters>-48.40000152587890625</AltitudeMeters>
            <DistanceMeters>NAN</DistanceMeters>
          </Trackpoint>
          <Trackpoint>
            <Time>2022-09-24T17:08:06.000Z</Time>
            <Position>
              <LatitudeDegrees>43.272378444671630859375</LatitudeDegrees>
              <LongitudeDegrees>-2.960410080850124359130859375</LongitudeDegrees>
            </Position>
            <AltitudeMeters>-48</AltitudeMeters>
            <DistanceMeters>NAN</DistanceMeters>
          </Trackpoint>
          <Trackpoint>
            <Time>2022-09-24T17:08:07.000Z</Time>
            <Position>
              <LatitudeDegrees>43.272327482700347900390625</LatitudeDegrees>
              <LongitudeDegrees>-2.960373871028423309326171875</LongitudeDegrees>
            </Position>
            <AltitudeMeters>-48</AltitudeMeters>
            <DistanceMeters>NAN</DistanceMeters>
          </Trackpoint>
          <Trackpoint>
            <Time>2022-09-24T17:08:08.000Z</Time>
            <Position>
              <LatitudeDegrees>43.27226914465427398681640625</LatitudeDegrees>
              <LongitudeDegrees>-2.96034310944378376007080078125</LongitudeDegrees>
            </Position>
            <AltitudeMeters>-48</AltitudeMeters>
            <DistanceMeters>NAN</DistanceMeters>
          </Trackpoint>
          <Trackpoint>
            <Time>2022-09-24T17:08:09.000Z</Time>
            <Position>
              <LatitudeDegrees>43.27222346328198909759521484375</LatitudeDegrees>
              <LongitudeDegrees>-2.96031796373426914215087890625</LongitudeDegrees>
            </Position>
            <AltitudeMeters>-47.799999237060546875</AltitudeMeters>
            <DistanceMeters>NAN</DistanceMeters>
          </Trackpoint>
          <Trackpoint>
            <Time>2022-09-24T17:08:10.000Z</Time>
            <Position>
              <LatitudeDegrees>43.27215506695210933685302734375</LatitudeDegrees>
              <LongitudeDegrees>-2.9602774791419506072998046875</LongitudeDegrees>
            </Position>
            <AltitudeMeters>-47.799999237060546875</AltitudeMeters>
            <DistanceMeters>NAN</DistanceMeters>
          </Trackpoint>
          <Trackpoint>
            <Time>2022-09-24T17:08:11.000Z</Time>
            <Position>
              <LatitudeDegrees>43.2720949687063694000244140625</LatitudeDegrees>
              <LongitudeDegrees>-2.9602449573576450347900390625</LongitudeDegrees>
            </Position>
            <AltitudeMeters>-47.799999237060546875</AltitudeMeters>
            <DistanceMeters>NAN</DistanceMeters>
          </Trackpoint>
          <Trackpoint>
            <Time>2022-09-24T17:08:12.000Z</Time>
            <Position>
              <LatitudeDegrees>43.2720332778990268707275390625</LatitudeDegrees>
              <LongitudeDegrees>-2.96021972782909870147705078125</LongitudeDegrees>
            </Position>
            <AltitudeMeters>-47.799999237060546875</AltitudeMeters>
            <DistanceMeters>NAN</DistanceMeters>
          </Trackpoint>
          <Trackpoint>
            <Time>2022-09-24T17:08:13.000Z</Time>
            <Position>
              <LatitudeDegrees>43.2719712518155574798583984375</LatitudeDegrees>
              <LongitudeDegrees>-2.96019382774829864501953125</LongitudeDegrees>
            </Position>
            <AltitudeMeters>-47.59999847412109375</AltitudeMeters>
            <DistanceMeters>NAN</DistanceMeters>
          </Trackpoint>
          <Trackpoint>
            <Time>2022-09-24T17:08:14.000Z</Time>
            <Position>
              <LatitudeDegrees>43.2719149254262447357177734375</LatitudeDegrees>
              <LongitudeDegrees>-2.9601618088781833648681640625</LongitudeDegrees>
            </Position>
            <AltitudeMeters>-47.59999847412109375</AltitudeMeters>
            <DistanceMeters>NAN</DistanceMeters>
          </Trackpoint>
          <Trackpoint>
            <Time>2022-09-24T17:08:15.000Z</Time>
            <Position>
              <LatitudeDegrees>43.2718629576265811920166015625</LatitudeDegrees>
              <LongitudeDegrees>-2.9601383395493030548095703125</LongitudeDegrees>
            </Position>
            <AltitudeMeters>-47.40000152587890625</AltitudeMeters>
            <DistanceMeters>NAN</DistanceMeters>
          </Trackpoint>
          <Trackpoint>
            <Time>2022-09-24T17:08:16.000Z</Time>
            <Position>
              <LatitudeDegrees>43.27180587686598300933837890625</LatitudeDegrees>
              <LongitudeDegrees>-2.96011612750589847564697265625</LongitudeDegrees>
            </Position>
            <AltitudeMeters>-46.799999237060546875</AltitudeMeters>
            <DistanceMeters>NAN</DistanceMeters>
          </Trackpoint>
          <Trackpoint>
            <Time>2022-09-24T17:08:17.000Z</Time>
            <Position>
              <LatitudeDegrees>43.27174820937216281890869140625</LatitudeDegrees>
              <LongitudeDegrees>-2.96009299345314502716064453125</LongitudeDegrees>
            </Position>
            <AltitudeMeters>-46.799999237060546875</AltitudeMeters>
            <DistanceMeters>NAN</DistanceMeters>
          </Trackpoint>
          <Trackpoint>
            <Time>2022-09-24T17:08:18.000Z</Time>
            <Position>
              <LatitudeDegrees>43.27170110307633876800537109375</LatitudeDegrees>
              <LongitudeDegrees>-2.96007371507585048675537109375</LongitudeDegrees>
            </Position>
            <AltitudeMeters>-46.799999237060546875</AltitudeMeters>
            <DistanceMeters>NAN</DistanceMeters>
          </Trackpoint>
          <Trackpoint>
            <Time>2022-09-24T17:08:19.000Z</Time>
            <Position>
              <LatitudeDegrees>43.2716366462409496307373046875</LatitudeDegrees>
              <LongitudeDegrees>-2.96004186384379863739013671875</LongitudeDegrees>
            </Position>
            <AltitudeMeters>-46.799999237060546875</AltitudeMeters>
            <DistanceMeters>NAN</DistanceMeters>
          </Trackpoint>
          <Trackpoint>
            <Time>2022-09-24T17:08:20.000Z</Time>
            <Position>
              <LatitudeDegrees>43.27159532345831394195556640625</LatitudeDegrees>
              <LongitudeDegrees>-2.9600206576287746429443359375</LongitudeDegrees>
            </Position>
            <AltitudeMeters>-47.200000762939453125</AltitudeMeters>
            <DistanceMeters>NAN</DistanceMeters>
          </Trackpoint>
          <Trackpoint>
            <Time>2022-09-24T17:08:21.000Z</Time>
            <Position>
              <LatitudeDegrees>43.271541595458984375</LatitudeDegrees>
              <LongitudeDegrees>-2.95999266207218170166015625</LongitudeDegrees>
            </Position>
            <AltitudeMeters>-47.200000762939453125</AltitudeMeters>
            <DistanceMeters>NAN</DistanceMeters>
          </Trackpoint>
          <Trackpoint>
            <Time>2022-09-24T17:08:22.000Z</Time>
            <Position>
              <LatitudeDegrees>43.2714777253568172454833984375</LatitudeDegrees>
              <LongitudeDegrees>-2.95996122993528842926025390625</LongitudeDegrees>
            </Position>
            <AltitudeMeters>-46.799999237060546875</AltitudeMeters>
            <DistanceMeters>NAN</DistanceMeters>
          </Trackpoint>
          <Trackpoint>
            <Time>2022-09-24T17:08:23.000Z</Time>
            <Position>
              <LatitudeDegrees>43.2714348100125789642333984375</LatitudeDegrees>
              <LongitudeDegrees>-2.95994170010089874267578125</LongitudeDegrees>
            </Position>
            <AltitudeMeters>-46.799999237060546875</AltitudeMeters>
            <DistanceMeters>NAN</DistanceMeters>
          </Trackpoint>
          <Trackpoint>
            <Time>2022-09-24T17:08:24.000Z</Time>
            <Position>
              <LatitudeDegrees>43.27137957327067852020263671875</LatitudeDegrees>
              <LongitudeDegrees>-2.95991496182978153228759765625</LongitudeDegrees>
            </Position>
            <AltitudeMeters>-46.799999237060546875</AltitudeMeters>
            <DistanceMeters>NAN</DistanceMeters>
          </Trackpoint>
          <Trackpoint>
            <Time>2022-09-24T17:08:25.000Z</Time>
            <Position>
              <LatitudeDegrees>43.27131352387368679046630859375</LatitudeDegrees>
              <LongitudeDegrees>-2.95988000929355621337890625</LongitudeDegrees>
            </Position>
            <AltitudeMeters>-46.59999847412109375</AltitudeMeters>
            <DistanceMeters>NAN</DistanceMeters>
          </Trackpoint>
          <Trackpoint>
            <Time>2022-09-24T17:08:26.000Z</Time>
            <Position>
              <LatitudeDegrees>43.27127270400524139404296875</LatitudeDegrees>
              <LongitudeDegrees>-2.95985578559339046478271484375</LongitudeDegrees>
            </Position>
            <AltitudeMeters>-46.59999847412109375</AltitudeMeters>
            <DistanceMeters>NAN</DistanceMeters>
          </Trackpoint>
          <Trackpoint>
            <Time>2022-09-24T17:08:27.000Z</Time>
            <Position>
              <LatitudeDegrees>43.271221406757831573486328125</LatitudeDegrees>
              <LongitudeDegrees>-2.95982108451426029205322265625</LongitudeDegrees>
            </Position>
            <AltitudeMeters>-46.59999847412109375</AltitudeMeters>
            <DistanceMeters>NAN</DistanceMeters>
          </Trackpoint>
          <Trackpoint>
            <Time>2022-09-24T17:08:28.000Z</Time>
            <Position>
              <LatitudeDegrees>43.27117078006267547607421875</LatitudeDegrees>
              <LongitudeDegrees>-2.95978034846484661102294921875</LongitudeDegrees>
            </Position>
            <AltitudeMeters>-46.59999847412109375</AltitudeMeters>
            <DistanceMeters>NAN</DistanceMeters>
          </Trackpoint>
          <Trackpoint>
            <Time>2022-09-24T17:08:29.000Z</Time>
            <Position>
              <LatitudeDegrees>43.271118141710758209228515625</LatitudeDegrees>
              <LongitudeDegrees>-2.959734834730625152587890625</LongitudeDegrees>
            </Position>
            <AltitudeMeters>-46.59999847412109375</AltitudeMeters>
            <DistanceMeters>NAN</DistanceMeters>
          </Trackpoint>
          <Trackpoint>
            <Time>2022-09-24T17:08:30.000Z</Time>
            <Position>
              <LatitudeDegrees>43.27106407843530178070068359375</LatitudeDegrees>
              <LongitudeDegrees>-2.95968580059707164764404296875</LongitudeDegrees>
            </Position>
            <AltitudeMeters>-46.59999847412109375</AltitudeMeters>
            <DistanceMeters>NAN</DistanceMeters>
          </Trackpoint>
          <Trackpoint>
            <Time>2022-09-24T17:08:31.000Z</Time>
            <Position>
              <LatitudeDegrees>43.271008171141147613525390625</LatitudeDegrees>
              <LongitudeDegrees>-2.95963148586452007293701171875</LongitudeDegrees>
            </Position>
            <AltitudeMeters>-46.59999847412109375</AltitudeMeters>
            <DistanceMeters>NAN</DistanceMeters>
          </Trackpoint>
          <Trackpoint>
            <Time>2022-09-24T17:08:32.000Z</Time>
            <Position>
              <LatitudeDegrees>43.27095176093280315399169921875</LatitudeDegrees>
              <LongitudeDegrees>-2.95956744812428951263427734375</LongitudeDegrees>
            </Position>
            <AltitudeMeters>-46.799999237060546875</AltitudeMeters>
            <DistanceMeters>NAN</DistanceMeters>
          </Trackpoint>
          <Trackpoint>
            <Time>2022-09-24T17:08:33.000Z</Time>
            <Position>
              <LatitudeDegrees>43.270898200571537017822265625</LatitudeDegrees>
              <LongitudeDegrees>-2.959504835307598114013671875</LongitudeDegrees>
            </Position>
            <AltitudeMeters>-47.200000762939453125</AltitudeMeters>
            <DistanceMeters>NAN</DistanceMeters>
          </Trackpoint>
          <Trackpoint>
            <Time>2022-09-24T17:08:34.000Z</Time>
            <Position>
              <LatitudeDegrees>43.27084614895284175872802734375</LatitudeDegrees>
              <LongitudeDegrees>-2.95943752862513065338134765625</LongitudeDegrees>
            </Position>
            <AltitudeMeters>-47.40000152587890625</AltitudeMeters>
            <DistanceMeters>NAN</DistanceMeters>
          </Trackpoint>
          <Trackpoint>
            <Time>2022-09-24T17:08:35.000Z</Time>
            <Position>
              <LatitudeDegrees>43.2707934267818927764892578125</LatitudeDegrees>
              <LongitudeDegrees>-2.95936100184917449951171875</LongitudeDegrees>
            </Position>
            <AltitudeMeters>-48</AltitudeMeters>
            <DistanceMeters>NAN</DistanceMeters>
          </Trackpoint>
          <Trackpoint>
            <Time>2022-09-24T17:08:36.000Z</Time>
            <Position>
              <LatitudeDegrees>43.27074162662029266357421875</LatitudeDegrees>
              <LongitudeDegrees>-2.95928145758807659149169921875</LongitudeDegrees>
            </Position>
            <AltitudeMeters>-48</AltitudeMeters>
            <DistanceMeters>NAN</DistanceMeters>
          </Trackpoint>
          <Trackpoint>
            <Time>2022-09-24T17:08:37.000Z</Time>
            <Position>
              <LatitudeDegrees>43.270690999925136566162109375</LatitudeDegrees>
              <LongitudeDegrees>-2.959199063479900360107421875</LongitudeDegrees>
            </Position>
            <AltitudeMeters>-48</AltitudeMeters>
            <DistanceMeters>NAN</DistanceMeters>
          </Trackpoint>
          <Trackpoint>
            <Time>2022-09-24T17:08:38.000Z</Time>
            <Position>
              <LatitudeDegrees>43.2706428878009319305419921875</LatitudeDegrees>
              <LongitudeDegrees>-2.9591164179146289825439453125</LongitudeDegrees>
            </Position>
            <AltitudeMeters>-48.200000762939453125</AltitudeMeters>
            <DistanceMeters>NAN</DistanceMeters>
          </Trackpoint>
          <Trackpoint>
            <Time>2022-09-24T17:08:39.000Z</Time>
            <Position>
              <LatitudeDegrees>43.27059586532413959503173828125</LatitudeDegrees>
              <LongitudeDegrees>-2.95902765356004238128662109375</LongitudeDegrees>
            </Position>
            <AltitudeMeters>-48.200000762939453125</AltitudeMeters>
            <DistanceMeters>NAN</DistanceMeters>
          </Trackpoint>
          <Trackpoint>
            <Time>2022-09-24T17:08:40.000Z</Time>
            <Position>
              <LatitudeDegrees>43.2705490104854106903076171875</LatitudeDegrees>
              <LongitudeDegrees>-2.9589360393583774566650390625</LongitudeDegrees>
            </Position>
            <AltitudeMeters>-48.200000762939453125</AltitudeMeters>
            <DistanceMeters>NAN</DistanceMeters>
          </Trackpoint>
          <Trackpoint>
            <Time>2022-09-24T17:08:41.000Z</Time>
            <Position>
              <LatitudeDegrees>43.27050031162798404693603515625</LatitudeDegrees>
              <LongitudeDegrees>-2.95884333550930023193359375</LongitudeDegrees>
            </Position>
            <AltitudeMeters>-48.200000762939453125</AltitudeMeters>
            <DistanceMeters>NAN</DistanceMeters>
          </Trackpoint>
          <Trackpoint>
            <Time>2022-09-24T17:08:42.000Z</Time>
            <Position>
              <LatitudeDegrees>43.270450942218303680419921875</LatitudeDegrees>
              <LongitudeDegrees>-2.9587469436228275299072265625</LongitudeDegrees>
            </Position>
            <AltitudeMeters>-48.200000762939453125</AltitudeMeters>
            <DistanceMeters>NAN</DistanceMeters>
          </Trackpoint>
          <Trackpoint>
            <Time>2022-09-24T17:08:43.000Z</Time>
            <Position>
              <LatitudeDegrees>43.270450942218303680419921875</LatitudeDegrees>
              <LongitudeDegrees>-2.9587469436228275299072265625</LongitudeDegrees>
            </Position>
            <AltitudeMeters>-48.200000762939453125</AltitudeMeters>
            <DistanceMeters>NAN</DistanceMeters>
          </Trackpoint>
          <Trackpoint>
            <Time>2022-09-24T17:08:44.000Z</Time>
            <Position>
              <LatitudeDegrees>43.27034994028508663177490234375</LatitudeDegrees>
              <LongitudeDegrees>-2.95853563584387302398681640625</LongitudeDegrees>
            </Position>
            <AltitudeMeters>-48.799999237060546875</AltitudeMeters>
            <DistanceMeters>NAN</DistanceMeters>
          </Trackpoint>
          <Trackpoint>
            <Time>2022-09-24T17:08:45.000Z</Time>
            <Position>
              <LatitudeDegrees>43.27029378153383731842041015625</LatitudeDegrees>
              <LongitudeDegrees>-2.9584247432649135589599609375</LongitudeDegrees>
            </Position>
            <AltitudeMeters>-49.200000762939453125</AltitudeMeters>
            <DistanceMeters>NAN</DistanceMeters>
          </Trackpoint>
          <Trackpoint>
            <Time>2022-09-24T17:08:46.000Z</Time>
            <Position>
              <LatitudeDegrees>43.270235024392604827880859375</LatitudeDegrees>
              <LongitudeDegrees>-2.95830680988729000091552734375</LongitudeDegrees>
            </Position>
            <AltitudeMeters>-49.40000152587890625</AltitudeMeters>
            <DistanceMeters>NAN</DistanceMeters>
          </Trackpoint>
          <Trackpoint>
            <Time>2022-09-24T17:08:47.000Z</Time>
            <Position>
              <LatitudeDegrees>43.270174674689769744873046875</LatitudeDegrees>
              <LongitudeDegrees>-2.9581893794238567352294921875</LongitudeDegrees>
            </Position>
            <AltitudeMeters>-50.40000152587890625</AltitudeMeters>
            <DistanceMeters>NAN</DistanceMeters>
          </Trackpoint>
          <Trackpoint>
            <Time>2022-09-24T17:08:48.000Z</Time>
            <Position>
              <LatitudeDegrees>43.27010267414152622222900390625</LatitudeDegrees>
              <LongitudeDegrees>-2.95804076828062534332275390625</LongitudeDegrees>
            </Position>
            <AltitudeMeters>-51</AltitudeMeters>
            <DistanceMeters>NAN</DistanceMeters>
          </Trackpoint>
          <Trackpoint>
            <Time>2022-09-24T17:08:49.000Z</Time>
            <Position>
              <LatitudeDegrees>43.27004400081932544708251953125</LatitudeDegrees>
              <LongitudeDegrees>-2.95791537500917911529541015625</LongitudeDegrees>
            </Position>
            <AltitudeMeters>-52</AltitudeMeters>
            <DistanceMeters>NAN</DistanceMeters>
          </Trackpoint>
          <Trackpoint>
            <Time>2022-09-24T17:08:50.000Z</Time>
            <Position>
              <LatitudeDegrees>43.2699854113161563873291015625</LatitudeDegrees>
              <LongitudeDegrees>-2.9577944241464138031005859375</LongitudeDegrees>
            </Position>
            <AltitudeMeters>-52</AltitudeMeters>
            <DistanceMeters>NAN</DistanceMeters>
          </Trackpoint>
          <Trackpoint>
            <Time>2022-09-24T17:08:51.000Z</Time>
            <Position>
              <LatitudeDegrees>43.269929923117160797119140625</LatitudeDegrees>
              <LongitudeDegrees>-2.95766928233206272125244140625</LongitudeDegrees>
            </Position>
            <AltitudeMeters>-54.40000152587890625</AltitudeMeters>
            <DistanceMeters>NAN</DistanceMeters>
          </Trackpoint>
          <Trackpoint>
            <Time>2022-09-24T17:08:52.000Z</Time>
            <Position>
              <LatitudeDegrees>43.2698764465749263763427734375</LatitudeDegrees>
              <LongitudeDegrees>-2.957547493278980255126953125</LongitudeDegrees>
            </Position>
            <AltitudeMeters>-54.799999237060546875</AltitudeMeters>
            <DistanceMeters>NAN</DistanceMeters>
          </Trackpoint>
          <Trackpoint>
            <Time>2022-09-24T17:08:53.000Z</Time>
            <Position>
              <LatitudeDegrees>43.2698274962604045867919921875</LatitudeDegrees>
              <LongitudeDegrees>-2.95743458904325962066650390625</LongitudeDegrees>
            </Position>
            <AltitudeMeters>-54.799999237060546875</AltitudeMeters>
            <DistanceMeters>NAN</DistanceMeters>
          </Trackpoint>
          <Trackpoint>
            <Time>2022-09-24T17:08:54.000Z</Time>
            <Position>
              <LatitudeDegrees>43.26977460645139217376708984375</LatitudeDegrees>
              <LongitudeDegrees>-2.95732143335044384002685546875</LongitudeDegrees>
            </Position>
            <AltitudeMeters>-54.799999237060546875</AltitudeMeters>
            <DistanceMeters>NAN</DistanceMeters>
          </Trackpoint>
          <Trackpoint>
            <Time>2022-09-24T17:08:55.000Z</Time>
            <Position>
              <LatitudeDegrees>43.26972180046141147613525390625</LatitudeDegrees>
              <LongitudeDegrees>-2.9572200961410999298095703125</LongitudeDegrees>
            </Position>
            <AltitudeMeters>-55.200000762939453125</AltitudeMeters>
            <DistanceMeters>NAN</DistanceMeters>
          </Trackpoint>
          <Trackpoint>
            <Time>2022-09-24T17:08:56.000Z</Time>
            <Position>
              <LatitudeDegrees>43.26967033557593822479248046875</LatitudeDegrees>
              <LongitudeDegrees>-2.95712177641689777374267578125</LongitudeDegrees>
            </Position>
            <AltitudeMeters>-55.200000762939453125</AltitudeMeters>
            <DistanceMeters>NAN</DistanceMeters>
          </Trackpoint>
          <Trackpoint>
            <Time>2022-09-24T17:08:57.000Z</Time>
            <Position>
              <LatitudeDegrees>43.26963161118328571319580078125</LatitudeDegrees>
              <LongitudeDegrees>-2.95704298652708530426025390625</LongitudeDegrees>
            </Position>
            <AltitudeMeters>-55.40000152587890625</AltitudeMeters>
            <DistanceMeters>NAN</DistanceMeters>
          </Trackpoint>
          <Trackpoint>
            <Time>2022-09-24T17:08:58.000Z</Time>
            <Position>
              <LatitudeDegrees>43.26957352459430694580078125</LatitudeDegrees>
              <LongitudeDegrees>-2.95691692270338535308837890625</LongitudeDegrees>
            </Position>
            <AltitudeMeters>-55.40000152587890625</AltitudeMeters>
            <DistanceMeters>NAN</DistanceMeters>
          </Trackpoint>
          <Trackpoint>
            <Time>2022-09-24T17:08:59.000Z</Time>
            <Position>
              <LatitudeDegrees>43.2695285975933074951171875</LatitudeDegrees>
              <LongitudeDegrees>-2.9568204469978809356689453125</LongitudeDegrees>
            </Position>
            <AltitudeMeters>-55.40000152587890625</AltitudeMeters>
            <DistanceMeters>NAN</DistanceMeters>
          </Trackpoint>
          <Trackpoint>
            <Time>2022-09-24T17:09:00.000Z</Time>
            <Position>
              <LatitudeDegrees>43.2694925554096698760986328125</LatitudeDegrees>
              <LongitudeDegrees>-2.95674853026866912841796875</LongitudeDegrees>
            </Position>
            <AltitudeMeters>-55.40000152587890625</AltitudeMeters>
            <DistanceMeters>NAN</DistanceMeters>
          </Trackpoint>
          <Trackpoint>
            <Time>2022-09-24T17:09:01.000Z</Time>
            <Position>
              <LatitudeDegrees>43.26944385655224323272705078125</LatitudeDegrees>
              <LongitudeDegrees>-2.9566271603107452392578125</LongitudeDegrees>
            </Position>
            <AltitudeMeters>-55.40000152587890625</AltitudeMeters>
            <DistanceMeters>NAN</DistanceMeters>
          </Trackpoint>
          <Trackpoint>
            <Time>2022-09-24T17:09:02.000Z</Time>
            <Position>
              <LatitudeDegrees>43.2694114185869693756103515625</LatitudeDegrees>
              <LongitudeDegrees>-2.95654811896383762359619140625</LongitudeDegrees>
            </Position>
            <AltitudeMeters>-55</AltitudeMeters>
            <DistanceMeters>NAN</DistanceMeters>
          </Trackpoint>
          <Trackpoint>
            <Time>2022-09-24T17:09:03.000Z</Time>
            <Position>
              <LatitudeDegrees>43.26935953460633754730224609375</LatitudeDegrees>
              <LongitudeDegrees>-2.956439740955829620361328125</LongitudeDegrees>
            </Position>
            <AltitudeMeters>-54.200000762939453125</AltitudeMeters>
            <DistanceMeters>NAN</DistanceMeters>
          </Trackpoint>
          <Trackpoint>
            <Time>2022-09-24T17:09:04.000Z</Time>
            <Position>
              <LatitudeDegrees>43.2693088240921497344970703125</LatitudeDegrees>
              <LongitudeDegrees>-2.95635499991476535797119140625</LongitudeDegrees>
            </Position>
            <AltitudeMeters>-53.59999847412109375</AltitudeMeters>
            <DistanceMeters>NAN</DistanceMeters>
          </Trackpoint>
          <Trackpoint>
            <Time>2022-09-24T17:09:05.000Z</Time>
            <Position>
              <LatitudeDegrees>43.2692625559866428375244140625</LatitudeDegrees>
              <LongitudeDegrees>-2.9562772996723651885986328125</LongitudeDegrees>
            </Position>
            <AltitudeMeters>-53.59999847412109375</AltitudeMeters>
            <DistanceMeters>NAN</DistanceMeters>
          </Trackpoint>
          <Trackpoint>
            <Time>2022-09-24T17:09:06.000Z</Time>
            <Position>
              <LatitudeDegrees>43.2692186348140239715576171875</LatitudeDegrees>
              <LongitudeDegrees>-2.95622348785400390625</LongitudeDegrees>
            </Position>
            <AltitudeMeters>-52.799999237060546875</AltitudeMeters>
            <DistanceMeters>NAN</DistanceMeters>
          </Trackpoint>
          <Trackpoint>
            <Time>2022-09-24T17:09:07.000Z</Time>
            <Position>
              <LatitudeDegrees>43.26914194040000438690185546875</LatitudeDegrees>
              <LongitudeDegrees>-2.9561515711247920989990234375</LongitudeDegrees>
            </Position>
            <AltitudeMeters>-52.799999237060546875</AltitudeMeters>
            <DistanceMeters>NAN</DistanceMeters>
          </Trackpoint>
          <Trackpoint>
            <Time>2022-09-24T17:09:08.000Z</Time>
            <Position>
              <LatitudeDegrees>43.26907329261302947998046875</LatitudeDegrees>
              <LongitudeDegrees>-2.956105135381221771240234375</LongitudeDegrees>
            </Position>
            <AltitudeMeters>-52.59999847412109375</AltitudeMeters>
            <DistanceMeters>NAN</DistanceMeters>
          </Trackpoint>
          <Trackpoint>
            <Time>2022-09-24T17:09:09.000Z</Time>
            <Position>
              <LatitudeDegrees>43.269001208245754241943359375</LatitudeDegrees>
              <LongitudeDegrees>-2.95606917701661586761474609375</LongitudeDegrees>
            </Position>
            <AltitudeMeters>-52.40000152587890625</AltitudeMeters>
            <DistanceMeters>NAN</DistanceMeters>
          </Trackpoint>
          <Trackpoint>
            <Time>2022-09-24T17:09:10.000Z</Time>
            <Position>
              <LatitudeDegrees>43.26892820186913013458251953125</LatitudeDegrees>
              <LongitudeDegrees>-2.9560343921184539794921875</LongitudeDegrees>
            </Position>
            <AltitudeMeters>-52.40000152587890625</AltitudeMeters>
            <DistanceMeters>NAN</DistanceMeters>
          </Trackpoint>
          <Trackpoint>
            <Time>2022-09-24T17:09:11.000Z</Time>
            <Position>
              <LatitudeDegrees>43.26887120492756366729736328125</LatitudeDegrees>
              <LongitudeDegrees>-2.95600212179124355316162109375</LongitudeDegrees>
            </Position>
            <AltitudeMeters>-52.40000152587890625</AltitudeMeters>
            <DistanceMeters>NAN</DistanceMeters>
          </Trackpoint>
          <Trackpoint>
            <Time>2022-09-24T17:09:12.000Z</Time>
            <Position>
              <LatitudeDegrees>43.26878872700035572052001953125</LatitudeDegrees>
              <LongitudeDegrees>-2.95595048926770687103271484375</LongitudeDegrees>
            </Position>
            <AltitudeMeters>-52.59999847412109375</AltitudeMeters>
            <DistanceMeters>NAN</DistanceMeters>
          </Trackpoint>
          <Trackpoint>
            <Time>2022-09-24T17:09:13.000Z</Time>
            <Position>
              <LatitudeDegrees>43.2687217555940151214599609375</LatitudeDegrees>
              <LongitudeDegrees>-2.9559021256864070892333984375</LongitudeDegrees>
            </Position>
            <AltitudeMeters>-52.59999847412109375</AltitudeMeters>
            <DistanceMeters>NAN</DistanceMeters>
          </Trackpoint>
          <Trackpoint>
            <Time>2022-09-24T17:09:14.000Z</Time>
            <Position>
              <LatitudeDegrees>43.26866216026246547698974609375</LatitudeDegrees>
              <LongitudeDegrees>-2.9558385908603668212890625</LongitudeDegrees>
            </Position>
            <AltitudeMeters>-52.59999847412109375</AltitudeMeters>
            <DistanceMeters>NAN</DistanceMeters>
          </Trackpoint>
          <Trackpoint>
            <Time>2022-09-24T17:09:15.000Z</Time>
            <Position>
              <LatitudeDegrees>43.26860868372023105621337890625</LatitudeDegrees>
              <LongitudeDegrees>-2.95577824115753173828125</LongitudeDegrees>
            </Position>
            <AltitudeMeters>-53.200000762939453125</AltitudeMeters>
            <DistanceMeters>NAN</DistanceMeters>
          </Trackpoint>
          <Trackpoint>
            <Time>2022-09-24T17:09:16.000Z</Time>
            <Position>
              <LatitudeDegrees>43.2685712166130542755126953125</LatitudeDegrees>
              <LongitudeDegrees>-2.95572124421596527099609375</LongitudeDegrees>
            </Position>
            <AltitudeMeters>-53.200000762939453125</AltitudeMeters>
            <DistanceMeters>NAN</DistanceMeters>
          </Trackpoint>
          <Trackpoint>
            <Time>2022-09-24T17:09:17.000Z</Time>
            <Position>
              <LatitudeDegrees>43.26851681806147098541259765625</LatitudeDegrees>
              <LongitudeDegrees>-2.95562728308141231536865234375</LongitudeDegrees>
            </Position>
            <AltitudeMeters>-53.40000152587890625</AltitudeMeters>
            <DistanceMeters>NAN</DistanceMeters>
          </Trackpoint>
          <Trackpoint>
            <Time>2022-09-24T17:09:18.000Z</Time>
            <Position>
              <LatitudeDegrees>43.2684718072414398193359375</LatitudeDegrees>
              <LongitudeDegrees>-2.95554078184068202972412109375</LongitudeDegrees>
            </Position>
            <AltitudeMeters>-53.59999847412109375</AltitudeMeters>
            <DistanceMeters>NAN</DistanceMeters>
          </Trackpoint>
          <Trackpoint>
            <Time>2022-09-24T17:09:19.000Z</Time>
            <Position>
              <LatitudeDegrees>43.2684307359158992767333984375</LatitudeDegrees>
              <LongitudeDegrees>-2.95545428059995174407958984375</LongitudeDegrees>
            </Position>
            <AltitudeMeters>-53.59999847412109375</AltitudeMeters>
            <DistanceMeters>NAN</DistanceMeters>
          </Trackpoint>
          <Trackpoint>
            <Time>2022-09-24T17:09:20.000Z</Time>
            <Position>
              <LatitudeDegrees>43.26840282417833805084228515625</LatitudeDegrees>
              <LongitudeDegrees>-2.955384291708469390869140625</LongitudeDegrees>
            </Position>
            <AltitudeMeters>-54</AltitudeMeters>
            <DistanceMeters>NAN</DistanceMeters>
          </Trackpoint>
          <Trackpoint>
            <Time>2022-09-24T17:09:21.000Z</Time>
            <Position>
              <LatitudeDegrees>43.268368542194366455078125</LatitudeDegrees>
              <LongitudeDegrees>-2.95529368333518505096435546875</LongitudeDegrees>
            </Position>
            <AltitudeMeters>-54</AltitudeMeters>
            <DistanceMeters>NAN</DistanceMeters>
          </Trackpoint>
          <Trackpoint>
            <Time>2022-09-24T17:09:22.000Z</Time>
            <Position>
              <LatitudeDegrees>43.26832956634461879730224609375</LatitudeDegrees>
              <LongitudeDegrees>-2.955194525420665740966796875</LongitudeDegrees>
            </Position>
            <AltitudeMeters>-54</AltitudeMeters>
            <DistanceMeters>NAN</DistanceMeters>
          </Trackpoint>
          <Trackpoint>
            <Time>2022-09-24T17:09:23.000Z</Time>
            <Position>
              <LatitudeDegrees>43.2683043368160724639892578125</LatitudeDegrees>
              <LongitudeDegrees>-2.9550636000931262969970703125</LongitudeDegrees>
            </Position>
            <AltitudeMeters>-54</AltitudeMeters>
            <DistanceMeters>NAN</DistanceMeters>
          </Trackpoint>
          <Trackpoint>
            <Time>2022-09-24T17:09:24.000Z</Time>
            <Position>
              <LatitudeDegrees>43.2682786881923675537109375</LatitudeDegrees>
              <LongitudeDegrees>-2.95495572499930858612060546875</LongitudeDegrees>
            </Position>
            <AltitudeMeters>-54</AltitudeMeters>
            <DistanceMeters>NAN</DistanceMeters>
          </Trackpoint>
          <Trackpoint>
            <Time>2022-09-24T17:09:25.000Z</Time>
            <Position>
              <LatitudeDegrees>43.26825790107250213623046875</LatitudeDegrees>
              <LongitudeDegrees>-2.954870648682117462158203125</LongitudeDegrees>
            </Position>
            <AltitudeMeters>-52.799999237060546875</AltitudeMeters>
            <DistanceMeters>NAN</DistanceMeters>
          </Trackpoint>
          <Trackpoint>
            <Time>2022-09-24T17:09:26.000Z</Time>
            <Position>
              <LatitudeDegrees>43.2682121358811855316162109375</LatitudeDegrees>
              <LongitudeDegrees>-2.954746596515178680419921875</LongitudeDegrees>
            </Position>
            <AltitudeMeters>-52.40000152587890625</AltitudeMeters>
            <DistanceMeters>NAN</DistanceMeters>
          </Trackpoint>
          <Trackpoint>
            <Time>2022-09-24T17:09:27.000Z</Time>
            <Position>
              <LatitudeDegrees>43.26817802153527736663818359375</LatitudeDegrees>
              <LongitudeDegrees>-2.9546458460390567779541015625</LongitudeDegrees>
            </Position>
            <AltitudeMeters>-52</AltitudeMeters>
            <DistanceMeters>NAN</DistanceMeters>
          </Trackpoint>
          <Trackpoint>
            <Time>2022-09-24T17:09:28.000Z</Time>
            <Position>
              <LatitudeDegrees>43.2681497745215892791748046875</LatitudeDegrees>
              <LongitudeDegrees>-2.9545647092163562774658203125</LongitudeDegrees>
            </Position>
            <AltitudeMeters>-52</AltitudeMeters>
            <DistanceMeters>NAN</DistanceMeters>
          </Trackpoint>
          <Trackpoint>
            <Time>2022-09-24T17:09:29.000Z</Time>
            <Position>
              <LatitudeDegrees>43.26812219806015491485595703125</LatitudeDegrees>
              <LongitudeDegrees>-2.954463623464107513427734375</LongitudeDegrees>
            </Position>
            <AltitudeMeters>-52</AltitudeMeters>
            <DistanceMeters>NAN</DistanceMeters>
          </Trackpoint>
          <Trackpoint>
            <Time>2022-09-24T17:09:30.000Z</Time>
            <Position>
              <LatitudeDegrees>43.26808783225715160369873046875</LatitudeDegrees>
              <LongitudeDegrees>-2.95434870757162570953369140625</LongitudeDegrees>
            </Position>
            <AltitudeMeters>-52</AltitudeMeters>
            <DistanceMeters>NAN</DistanceMeters>
          </Trackpoint>
          <Trackpoint>
            <Time>2022-09-24T17:09:31.000Z</Time>
            <Position>
              <LatitudeDegrees>43.26805673539638519287109375</LatitudeDegrees>
              <LongitudeDegrees>-2.954251728951930999755859375</LongitudeDegrees>
            </Position>
            <AltitudeMeters>-52</AltitudeMeters>
            <DistanceMeters>NAN</DistanceMeters>
          </Trackpoint>
          <Trackpoint>
            <Time>2022-09-24T17:09:32.000Z</Time>
            <Position>
              <LatitudeDegrees>43.26802513562142848968505859375</LatitudeDegrees>
              <LongitudeDegrees>-2.95417034067213535308837890625</LongitudeDegrees>
            </Position>
            <AltitudeMeters>-52.59999847412109375</AltitudeMeters>
            <DistanceMeters>NAN</DistanceMeters>
          </Trackpoint>
          <Trackpoint>
            <Time>2022-09-24T17:09:33.000Z</Time>
            <Position>
              <LatitudeDegrees>43.267988674342632293701171875</LatitudeDegrees>
              <LongitudeDegrees>-2.95407378114759922027587890625</LongitudeDegrees>
            </Position>
            <AltitudeMeters>-52.59999847412109375</AltitudeMeters>
            <DistanceMeters>NAN</DistanceMeters>
          </Trackpoint>
          <Trackpoint>
            <Time>2022-09-24T17:09:34.000Z</Time>
            <Position>
              <LatitudeDegrees>43.2679472677409648895263671875</LatitudeDegrees>
              <LongitudeDegrees>-2.9539588652551174163818359375</LongitudeDegrees>
            </Position>
            <AltitudeMeters>-52.59999847412109375</AltitudeMeters>
            <DistanceMeters>NAN</DistanceMeters>
          </Trackpoint>
          <Trackpoint>
            <Time>2022-09-24T17:09:35.000Z</Time>
            <Position>
              <LatitudeDegrees>43.26791969127953052520751953125</LatitudeDegrees>
              <LongitudeDegrees>-2.95388451777398586273193359375</LongitudeDegrees>
            </Position>
            <AltitudeMeters>-52.59999847412109375</AltitudeMeters>
            <DistanceMeters>NAN</DistanceMeters>
          </Trackpoint>
          <Trackpoint>
            <Time>2022-09-24T17:09:36.000Z</Time>
            <Position>
              <LatitudeDegrees>43.2678828947246074676513671875</LatitudeDegrees>
              <LongitudeDegrees>-2.95378443785011768341064453125</LongitudeDegrees>
            </Position>
            <AltitudeMeters>-52.59999847412109375</AltitudeMeters>
            <DistanceMeters>NAN</DistanceMeters>
          </Trackpoint>
          <Trackpoint>
            <Time>2022-09-24T17:09:37.000Z</Time>
            <Position>
              <LatitudeDegrees>43.267845176160335540771484375</LatitudeDegrees>
              <LongitudeDegrees>-2.953682430088520050048828125</LongitudeDegrees>
            </Position>
            <AltitudeMeters>-52.59999847412109375</AltitudeMeters>
            <DistanceMeters>NAN</DistanceMeters>
          </Trackpoint>
          <Trackpoint>
            <Time>2022-09-24T17:09:38.000Z</Time>
            <Position>
              <LatitudeDegrees>43.2678074575960636138916015625</LatitudeDegrees>
              <LongitudeDegrees>-2.9535796679556369781494140625</LongitudeDegrees>
            </Position>
            <AltitudeMeters>-52.59999847412109375</AltitudeMeters>
            <DistanceMeters>NAN</DistanceMeters>
          </Trackpoint>
          <Trackpoint>
            <Time>2022-09-24T17:09:39.000Z</Time>
            <Position>
              <LatitudeDegrees>43.2677712477743625640869140625</LatitudeDegrees>
              <LongitudeDegrees>-2.953473888337612152099609375</LongitudeDegrees>
            </Position>
            <AltitudeMeters>-53</AltitudeMeters>
            <DistanceMeters>NAN</DistanceMeters>
          </Trackpoint>
          <Trackpoint>
            <Time>2022-09-24T17:09:40.000Z</Time>
            <Position>
              <LatitudeDegrees>43.26774132438004016876220703125</LatitudeDegrees>
              <LongitudeDegrees>-2.9533607326447963714599609375</LongitudeDegrees>
            </Position>
            <AltitudeMeters>-53</AltitudeMeters>
            <DistanceMeters>NAN</DistanceMeters>
          </Trackpoint>
          <Trackpoint>
            <Time>2022-09-24T17:09:41.000Z</Time>
            <Position>
              <LatitudeDegrees>43.267721123993396759033203125</LatitudeDegrees>
              <LongitudeDegrees>-2.95326626859605312347412109375</LongitudeDegrees>
            </Position>
            <AltitudeMeters>-53.200000762939453125</AltitudeMeters>
            <DistanceMeters>NAN</DistanceMeters>
          </Trackpoint>
          <Trackpoint>
            <Time>2022-09-24T17:09:42.000Z</Time>
            <Position>
              <LatitudeDegrees>43.26769455336034297943115234375</LatitudeDegrees>
              <LongitudeDegrees>-2.95315160416066646575927734375</LongitudeDegrees>
            </Position>
            <AltitudeMeters>-53.40000152587890625</AltitudeMeters>
            <DistanceMeters>NAN</DistanceMeters>
          </Trackpoint>
          <Trackpoint>
            <Time>2022-09-24T17:09:43.000Z</Time>
            <Position>
              <LatitudeDegrees>43.26767058111727237701416015625</LatitudeDegrees>
              <LongitudeDegrees>-2.95303995721042156219482421875</LongitudeDegrees>
            </Position>
            <AltitudeMeters>-53.40000152587890625</AltitudeMeters>
            <DistanceMeters>NAN</DistanceMeters>
          </Trackpoint>
          <Trackpoint>
            <Time>2022-09-24T17:09:44.000Z</Time>
            <Position>
              <LatitudeDegrees>43.2676510512828826904296875</LatitudeDegrees>
              <LongitudeDegrees>-2.95292881317436695098876953125</LongitudeDegrees>
            </Position>
            <AltitudeMeters>-53.59999847412109375</AltitudeMeters>
            <DistanceMeters>NAN</DistanceMeters>
          </Trackpoint>
          <Trackpoint>
            <Time>2022-09-24T17:09:45.000Z</Time>
            <Position>
              <LatitudeDegrees>43.26763068325817584991455078125</LatitudeDegrees>
              <LongitudeDegrees>-2.95278917066752910614013671875</LongitudeDegrees>
            </Position>
            <AltitudeMeters>-55</AltitudeMeters>
            <DistanceMeters>NAN</DistanceMeters>
          </Trackpoint>
          <Trackpoint>
            <Time>2022-09-24T17:09:46.000Z</Time>
            <Position>
              <LatitudeDegrees>43.2676163502037525177001953125</LatitudeDegrees>
              <LongitudeDegrees>-2.9526700638234615325927734375</LongitudeDegrees>
            </Position>
            <AltitudeMeters>-55.40000152587890625</AltitudeMeters>
            <DistanceMeters>NAN</DistanceMeters>
          </Trackpoint>
          <Trackpoint>
            <Time>2022-09-24T17:09:47.000Z</Time>
            <Position>
              <LatitudeDegrees>43.26759950257837772369384765625</LatitudeDegrees>
              <LongitudeDegrees>-2.952549867331981658935546875</LongitudeDegrees>
            </Position>
            <AltitudeMeters>-55.40000152587890625</AltitudeMeters>
            <DistanceMeters>NAN</DistanceMeters>
          </Trackpoint>
          <Trackpoint>
            <Time>2022-09-24T17:09:48.000Z</Time>
            <Position>
              <LatitudeDegrees>43.26759950257837772369384765625</LatitudeDegrees>
              <LongitudeDegrees>-2.952549867331981658935546875</LongitudeDegrees>
            </Position>
            <AltitudeMeters>-56.40000152587890625</AltitudeMeters>
            <DistanceMeters>NAN</DistanceMeters>
          </Trackpoint>
          <Trackpoint>
            <Time>2022-09-24T17:09:49.000Z</Time>
            <Position>
              <LatitudeDegrees>43.26756027527153491973876953125</LatitudeDegrees>
              <LongitudeDegrees>-2.95231282711029052734375</LongitudeDegrees>
            </Position>
            <AltitudeMeters>-57</AltitudeMeters>
            <DistanceMeters>NAN</DistanceMeters>
          </Trackpoint>
          <Trackpoint>
            <Time>2022-09-24T17:09:50.000Z</Time>
            <Position>
              <LatitudeDegrees>43.267534710466861724853515625</LatitudeDegrees>
              <LongitudeDegrees>-2.9521963186562061309814453125</LongitudeDegrees>
            </Position>
            <AltitudeMeters>-57</AltitudeMeters>
            <DistanceMeters>NAN</DistanceMeters>
          </Trackpoint>
          <Trackpoint>
            <Time>2022-09-24T17:09:51.000Z</Time>
            <Position>
              <LatitudeDegrees>43.26751082204282283782958984375</LatitudeDegrees>
              <LongitudeDegrees>-2.95208224095404148101806640625</LongitudeDegrees>
            </Position>
            <AltitudeMeters>-57</AltitudeMeters>
            <DistanceMeters>NAN</DistanceMeters>
          </Trackpoint>
          <Trackpoint>
            <Time>2022-09-24T17:09:52.000Z</Time>
            <Position>
              <LatitudeDegrees>43.26749690808355808258056640625</LatitudeDegrees>
              <LongitudeDegrees>-2.95196187682449817657470703125</LongitudeDegrees>
            </Position>
            <AltitudeMeters>-56.59999847412109375</AltitudeMeters>
            <DistanceMeters>NAN</DistanceMeters>
          </Trackpoint>
          <Trackpoint>
            <Time>2022-09-24T17:09:53.000Z</Time>
            <Position>
              <LatitudeDegrees>43.2674901187419891357421875</LatitudeDegrees>
              <LongitudeDegrees>-2.951838076114654541015625</LongitudeDegrees>
            </Position>
            <AltitudeMeters>-56.59999847412109375</AltitudeMeters>
            <DistanceMeters>NAN</DistanceMeters>
          </Trackpoint>
          <Trackpoint>
            <Time>2022-09-24T17:09:54.000Z</Time>
            <Position>
              <LatitudeDegrees>43.267483413219451904296875</LatitudeDegrees>
              <LongitudeDegrees>-2.95171444304287433624267578125</LongitudeDegrees>
            </Position>
            <AltitudeMeters>-56.59999847412109375</AltitudeMeters>
            <DistanceMeters>NAN</DistanceMeters>
          </Trackpoint>
          <Trackpoint>
            <Time>2022-09-24T17:09:55.000Z</Time>
            <Position>
              <LatitudeDegrees>43.267475031316280364990234375</LatitudeDegrees>
              <LongitudeDegrees>-2.9515924863517284393310546875</LongitudeDegrees>
            </Position>
            <AltitudeMeters>-56.40000152587890625</AltitudeMeters>
            <DistanceMeters>NAN</DistanceMeters>
          </Trackpoint>
          <Trackpoint>
            <Time>2022-09-24T17:09:56.000Z</Time>
            <Position>
              <LatitudeDegrees>43.26746136881411075592041015625</LatitudeDegrees>
              <LongitudeDegrees>-2.9514768160879611968994140625</LongitudeDegrees>
            </Position>
            <AltitudeMeters>-55.200000762939453125</AltitudeMeters>
            <DistanceMeters>NAN</DistanceMeters>
          </Trackpoint>
          <Trackpoint>
            <Time>2022-09-24T17:09:57.000Z</Time>
            <Position>
              <LatitudeDegrees>43.26743421144783496856689453125</LatitudeDegrees>
              <LongitudeDegrees>-2.95136257074773311614990234375</LongitudeDegrees>
            </Position>
            <AltitudeMeters>-54</AltitudeMeters>
            <DistanceMeters>NAN</DistanceMeters>
          </Trackpoint>
          <Trackpoint>
            <Time>2022-09-24T17:09:58.000Z</Time>
            <Position>
              <LatitudeDegrees>43.26742448844015598297119140625</LatitudeDegrees>
              <LongitudeDegrees>-2.9512520134449005126953125</LongitudeDegrees>
            </Position>
            <AltitudeMeters>-54</AltitudeMeters>
            <DistanceMeters>NAN</DistanceMeters>
          </Trackpoint>
          <Trackpoint>
            <Time>2022-09-24T17:09:59.000Z</Time>
            <Position>
              <LatitudeDegrees>43.26741526834666728973388671875</LatitudeDegrees>
              <LongitudeDegrees>-2.95113609172403812408447265625</LongitudeDegrees>
            </Position>
            <AltitudeMeters>-54</AltitudeMeters>
            <DistanceMeters>NAN</DistanceMeters>
          </Trackpoint>
          <Trackpoint>
            <Time>2022-09-24T17:10:00.000Z</Time>
            <Position>
              <LatitudeDegrees>43.2674044556915760040283203125</LatitudeDegrees>
              <LongitudeDegrees>-2.951017320156097412109375</LongitudeDegrees>
            </Position>
            <AltitudeMeters>-54</AltitudeMeters>
            <DistanceMeters>NAN</DistanceMeters>
          </Trackpoint>
          <Trackpoint>
            <Time>2022-09-24T17:10:01.000Z</Time>
            <Position>
              <LatitudeDegrees>43.2673970796167850494384765625</LatitudeDegrees>
              <LongitudeDegrees>-2.9508981294929981231689453125</LongitudeDegrees>
            </Position>
            <AltitudeMeters>-54.59999847412109375</AltitudeMeters>
            <DistanceMeters>NAN</DistanceMeters>
          </Trackpoint>
          <Trackpoint>
            <Time>2022-09-24T17:10:02.000Z</Time>
            <Position>
              <LatitudeDegrees>43.26739364303648471832275390625</LatitudeDegrees>
              <LongitudeDegrees>-2.9507797770202159881591796875</LongitudeDegrees>
            </Position>
            <AltitudeMeters>-54.59999847412109375</AltitudeMeters>
            <DistanceMeters>NAN</DistanceMeters>
          </Trackpoint>
          <Trackpoint>
            <Time>2022-09-24T17:10:03.000Z</Time>
            <Position>
              <LatitudeDegrees>43.26739481650292873382568359375</LatitudeDegrees>
              <LongitudeDegrees>-2.95066217891871929168701171875</LongitudeDegrees>
            </Position>
            <AltitudeMeters>-54.200000762939453125</AltitudeMeters>
            <DistanceMeters>NAN</DistanceMeters>
          </Trackpoint>
          <Trackpoint>
            <Time>2022-09-24T17:10:04.000Z</Time>
            <Position>
              <LatitudeDegrees>43.26739490032196044921875</LatitudeDegrees>
              <LongitudeDegrees>-2.9505454190075397491455078125</LongitudeDegrees>
            </Position>
            <AltitudeMeters>-54.59999847412109375</AltitudeMeters>
            <DistanceMeters>NAN</DistanceMeters>
          </Trackpoint>
          <Trackpoint>
            <Time>2022-09-24T17:10:05.000Z</Time>
            <Position>
              <LatitudeDegrees>43.267392553389072418212890625</LatitudeDegrees>
              <LongitudeDegrees>-2.95040586031973361968994140625</LongitudeDegrees>
            </Position>
            <AltitudeMeters>-54.59999847412109375</AltitudeMeters>
            <DistanceMeters>NAN</DistanceMeters>
          </Trackpoint>
          <Trackpoint>
            <Time>2022-09-24T17:10:06.000Z</Time>
            <Position>
              <LatitudeDegrees>43.26739045791327953338623046875</LatitudeDegrees>
              <LongitudeDegrees>-2.950287424027919769287109375</LongitudeDegrees>
            </Position>
            <AltitudeMeters>-54.799999237060546875</AltitudeMeters>
            <DistanceMeters>NAN</DistanceMeters>
          </Trackpoint>
          <Trackpoint>
            <Time>2022-09-24T17:10:07.000Z</Time>
            <Position>
              <LatitudeDegrees>43.26738744042813777923583984375</LatitudeDegrees>
              <LongitudeDegrees>-2.950172089040279388427734375</LongitudeDegrees>
            </Position>
            <AltitudeMeters>-54.799999237060546875</AltitudeMeters>
            <DistanceMeters>NAN</DistanceMeters>
          </Trackpoint>
          <Trackpoint>
            <Time>2022-09-24T17:10:08.000Z</Time>
            <Position>
              <LatitudeDegrees>43.26738710515201091766357421875</LatitudeDegrees>
              <LongitudeDegrees>-2.95006019063293933868408203125</LongitudeDegrees>
            </Position>
            <AltitudeMeters>-54.799999237060546875</AltitudeMeters>
            <DistanceMeters>NAN</DistanceMeters>
          </Trackpoint>
          <Trackpoint>
            <Time>2022-09-24T17:10:09.000Z</Time>
            <Position>
              <LatitudeDegrees>43.26739079318940639495849609375</LatitudeDegrees>
              <LongitudeDegrees>-2.94997050426900386810302734375</LongitudeDegrees>
            </Position>
            <AltitudeMeters>-54.799999237060546875</AltitudeMeters>
            <DistanceMeters>NAN</DistanceMeters>
          </Trackpoint>
          <Trackpoint>
            <Time>2022-09-24T17:10:10.000Z</Time>
            <Position>
              <LatitudeDegrees>43.26740001328289508819580078125</LatitudeDegrees>
              <LongitudeDegrees>-2.94983270578086376190185546875</LongitudeDegrees>
            </Position>
            <AltitudeMeters>-54.799999237060546875</AltitudeMeters>
            <DistanceMeters>NAN</DistanceMeters>
          </Trackpoint>
          <Trackpoint>
            <Time>2022-09-24T17:10:11.000Z</Time>
            <Position>
              <LatitudeDegrees>43.26741241849958896636962890625</LatitudeDegrees>
              <LongitudeDegrees>-2.9497159458696842193603515625</LongitudeDegrees>
            </Position>
            <AltitudeMeters>-54.40000152587890625</AltitudeMeters>
            <DistanceMeters>NAN</DistanceMeters>
          </Trackpoint>
          <Trackpoint>
            <Time>2022-09-24T17:10:12.000Z</Time>
            <Position>
              <LatitudeDegrees>43.26742884702980518341064453125</LatitudeDegrees>
              <LongitudeDegrees>-2.949598096311092376708984375</LongitudeDegrees>
            </Position>
            <AltitudeMeters>-54.799999237060546875</AltitudeMeters>
            <DistanceMeters>NAN</DistanceMeters>
          </Trackpoint>
          <Trackpoint>
            <Time>2022-09-24T17:10:13.000Z</Time>
            <Position>
              <LatitudeDegrees>43.2674480415880680084228515625</LatitudeDegrees>
              <LongitudeDegrees>-2.94948033057153224945068359375</LongitudeDegrees>
            </Position>
            <AltitudeMeters>-54.799999237060546875</AltitudeMeters>
            <DistanceMeters>NAN</DistanceMeters>
          </Trackpoint>
          <Trackpoint>
            <Time>2022-09-24T17:10:14.000Z</Time>
            <Position>
              <LatitudeDegrees>43.26746656559407711029052734375</LatitudeDegrees>
              <LongitudeDegrees>-2.94936248101294040679931640625</LongitudeDegrees>
            </Position>
            <AltitudeMeters>-55.40000152587890625</AltitudeMeters>
            <DistanceMeters>NAN</DistanceMeters>
          </Trackpoint>
          <Trackpoint>
            <Time>2022-09-24T17:10:15.000Z</Time>
            <Position>
              <LatitudeDegrees>43.26748274266719818115234375</LatitudeDegrees>
              <LongitudeDegrees>-2.94926793314516544342041015625</LongitudeDegrees>
            </Position>
            <AltitudeMeters>-55.40000152587890625</AltitudeMeters>
            <DistanceMeters>NAN</DistanceMeters>
          </Trackpoint>
          <Trackpoint>
            <Time>2022-09-24T17:10:16.000Z</Time>
            <Position>
              <LatitudeDegrees>43.26750646345317363739013671875</LatitudeDegrees>
              <LongitudeDegrees>-2.94912829063832759857177734375</LongitudeDegrees>
            </Position>
            <AltitudeMeters>-56</AltitudeMeters>
            <DistanceMeters>NAN</DistanceMeters>
          </Trackpoint>
          <Trackpoint>
            <Time>2022-09-24T17:10:17.000Z</Time>
            <Position>
              <LatitudeDegrees>43.2675330340862274169921875</LatitudeDegrees>
              <LongitudeDegrees>-2.94901731424033641815185546875</LongitudeDegrees>
            </Position>
            <AltitudeMeters>-56</AltitudeMeters>
            <DistanceMeters>NAN</DistanceMeters>
          </Trackpoint>
          <Trackpoint>
            <Time>2022-09-24T17:10:18.000Z</Time>
            <Position>
              <LatitudeDegrees>43.26755390502512454986572265625</LatitudeDegrees>
              <LongitudeDegrees>-2.94893265701830387115478515625</LongitudeDegrees>
            </Position>
            <AltitudeMeters>-56</AltitudeMeters>
            <DistanceMeters>NAN</DistanceMeters>
          </Trackpoint>
          <Trackpoint>
            <Time>2022-09-24T17:10:19.000Z</Time>
            <Position>
              <LatitudeDegrees>43.26758173294365406036376953125</LatitudeDegrees>
              <LongitudeDegrees>-2.94880894012749195098876953125</LongitudeDegrees>
            </Position>
            <AltitudeMeters>-56</AltitudeMeters>
            <DistanceMeters>NAN</DistanceMeters>
          </Trackpoint>
          <Trackpoint>
            <Time>2022-09-24T17:10:20.000Z</Time>
            <Position>
              <LatitudeDegrees>43.26760319061577320098876953125</LatitudeDegrees>
              <LongitudeDegrees>-2.94871288351714611053466796875</LongitudeDegrees>
            </Position>
            <AltitudeMeters>-54.799999237060546875</AltitudeMeters>
            <DistanceMeters>NAN</DistanceMeters>
          </Trackpoint>
          <Trackpoint>
            <Time>2022-09-24T17:10:21.000Z</Time>
            <Position>
              <LatitudeDegrees>43.26762280426919460296630859375</LatitudeDegrees>
              <LongitudeDegrees>-2.94862001203000545501708984375</LongitudeDegrees>
            </Position>
            <AltitudeMeters>-54.40000152587890625</AltitudeMeters>
            <DistanceMeters>NAN</DistanceMeters>
          </Trackpoint>
          <Trackpoint>
            <Time>2022-09-24T17:10:22.000Z</Time>
            <Position>
              <LatitudeDegrees>43.26764610596001148223876953125</LatitudeDegrees>
              <LongitudeDegrees>-2.9485320858657360076904296875</LongitudeDegrees>
            </Position>
            <AltitudeMeters>-53</AltitudeMeters>
            <DistanceMeters>NAN</DistanceMeters>
          </Trackpoint>
          <Trackpoint>
            <Time>2022-09-24T17:10:23.000Z</Time>
            <Position>
              <LatitudeDegrees>43.26767091639339923858642578125</LatitudeDegrees>
              <LongitudeDegrees>-2.94844977557659149169921875</LongitudeDegrees>
            </Position>
            <AltitudeMeters>-51.799999237060546875</AltitudeMeters>
            <DistanceMeters>NAN</DistanceMeters>
          </Trackpoint>
          <Trackpoint>
            <Time>2022-09-24T17:10:24.000Z</Time>
            <Position>
              <LatitudeDegrees>43.26769321225583553314208984375</LatitudeDegrees>
              <LongitudeDegrees>-2.9483694769442081451416015625</LongitudeDegrees>
            </Position>
            <AltitudeMeters>-51.59999847412109375</AltitudeMeters>
            <DistanceMeters>NAN</DistanceMeters>
          </Trackpoint>
          <Trackpoint>
            <Time>2022-09-24T17:10:25.000Z</Time>
            <Position>
              <LatitudeDegrees>43.26771198771893978118896484375</LatitudeDegrees>
              <LongitudeDegrees>-2.94830770231783390045166015625</LongitudeDegrees>
            </Position>
            <AltitudeMeters>-51.59999847412109375</AltitudeMeters>
            <DistanceMeters>NAN</DistanceMeters>
          </Trackpoint>
          <Trackpoint>
            <Time>2022-09-24T17:10:26.000Z</Time>
            <Position>
              <LatitudeDegrees>43.267733864486217498779296875</LatitudeDegrees>
              <LongitudeDegrees>-2.94821432791650295257568359375</LongitudeDegrees>
            </Position>
            <AltitudeMeters>-51</AltitudeMeters>
            <DistanceMeters>NAN</DistanceMeters>
          </Trackpoint>
          <Trackpoint>
            <Time>2022-09-24T17:10:27.000Z</Time>
            <Position>
              <LatitudeDegrees>43.26774694025516510009765625</LatitudeDegrees>
              <LongitudeDegrees>-2.94814190827310085296630859375</LongitudeDegrees>
            </Position>
            <AltitudeMeters>-50.799999237060546875</AltitudeMeters>
            <DistanceMeters>NAN</DistanceMeters>
          </Trackpoint>
          <Trackpoint>
            <Time>2022-09-24T17:10:28.000Z</Time>
            <Position>
              <LatitudeDegrees>43.26776009984314441680908203125</LatitudeDegrees>
              <LongitudeDegrees>-2.948072589933872222900390625</LongitudeDegrees>
            </Position>
            <AltitudeMeters>-50.59999847412109375</AltitudeMeters>
            <DistanceMeters>NAN</DistanceMeters>
          </Trackpoint>
          <Trackpoint>
            <Time>2022-09-24T17:10:29.000Z</Time>
            <Position>
              <LatitudeDegrees>43.26777351088821887969970703125</LatitudeDegrees>
              <LongitudeDegrees>-2.94800142757594585418701171875</LongitudeDegrees>
            </Position>
            <AltitudeMeters>-50.40000152587890625</AltitudeMeters>
            <DistanceMeters>NAN</DistanceMeters>
          </Trackpoint>
          <Trackpoint>
            <Time>2022-09-24T17:10:30.000Z</Time>
            <Position>
              <LatitudeDegrees>43.26778407208621501922607421875</LatitudeDegrees>
              <LongitudeDegrees>-2.947933115065097808837890625</LongitudeDegrees>
            </Position>
            <AltitudeMeters>-50.200000762939453125</AltitudeMeters>
            <DistanceMeters>NAN</DistanceMeters>
          </Trackpoint>
          <Trackpoint>
            <Time>2022-09-24T17:10:31.000Z</Time>
            <Position>
              <LatitudeDegrees>43.26779111288487911224365234375</LatitudeDegrees>
              <LongitudeDegrees>-2.947866059839725494384765625</LongitudeDegrees>
            </Position>
            <AltitudeMeters>-49.59999847412109375</AltitudeMeters>
            <DistanceMeters>NAN</DistanceMeters>
          </Trackpoint>
          <Trackpoint>
            <Time>2022-09-24T17:10:32.000Z</Time>
            <Position>
              <LatitudeDegrees>43.26779614202678203582763671875</LatitudeDegrees>
              <LongitudeDegrees>-2.94779858551919460296630859375</LongitudeDegrees>
            </Position>
            <AltitudeMeters>-49.59999847412109375</AltitudeMeters>
            <DistanceMeters>NAN</DistanceMeters>
          </Trackpoint>
          <Trackpoint>
            <Time>2022-09-24T17:10:33.000Z</Time>
            <Position>
              <LatitudeDegrees>43.2678007520735263824462890625</LatitudeDegrees>
              <LongitudeDegrees>-2.94773085974156856536865234375</LongitudeDegrees>
            </Position>
            <AltitudeMeters>-49.59999847412109375</AltitudeMeters>
            <DistanceMeters>NAN</DistanceMeters>
          </Trackpoint>
          <Trackpoint>
            <Time>2022-09-24T17:10:34.000Z</Time>
            <Position>
              <LatitudeDegrees>43.2678017579019069671630859375</LatitudeDegrees>
              <LongitudeDegrees>-2.94766388833522796630859375</LongitudeDegrees>
            </Position>
            <AltitudeMeters>-49.200000762939453125</AltitudeMeters>
            <DistanceMeters>NAN</DistanceMeters>
          </Trackpoint>
          <Trackpoint>
            <Time>2022-09-24T17:10:35.000Z</Time>
            <Position>
              <LatitudeDegrees>43.2677985727787017822265625</LatitudeDegrees>
              <LongitudeDegrees>-2.94759549200534820556640625</LongitudeDegrees>
            </Position>
            <AltitudeMeters>-49</AltitudeMeters>
            <DistanceMeters>NAN</DistanceMeters>
          </Trackpoint>
          <Trackpoint>
            <Time>2022-09-24T17:10:36.000Z</Time>
            <Position>
              <LatitudeDegrees>43.26779262162744998931884765625</LatitudeDegrees>
              <LongitudeDegrees>-2.94752634130418300628662109375</LongitudeDegrees>
            </Position>
            <AltitudeMeters>-48.200000762939453125</AltitudeMeters>
            <DistanceMeters>NAN</DistanceMeters>
          </Trackpoint>
          <Trackpoint>
            <Time>2022-09-24T17:10:37.000Z</Time>
            <Position>
              <LatitudeDegrees>43.26778558082878589630126953125</LatitudeDegrees>
              <LongitudeDegrees>-2.94747185893356800079345703125</LongitudeDegrees>
            </Position>
            <AltitudeMeters>-47.799999237060546875</AltitudeMeters>
            <DistanceMeters>NAN</DistanceMeters>
          </Trackpoint>
          <Trackpoint>
            <Time>2022-09-24T17:10:38.000Z</Time>
            <Position>
              <LatitudeDegrees>43.2677786238491535186767578125</LatitudeDegrees>
              <LongitudeDegrees>-2.9473944939672946929931640625</LongitudeDegrees>
            </Position>
            <AltitudeMeters>-47.59999847412109375</AltitudeMeters>
            <DistanceMeters>NAN</DistanceMeters>
          </Trackpoint>
          <Trackpoint>
            <Time>2022-09-24T17:10:39.000Z</Time>
            <Position>
              <LatitudeDegrees>43.2677678950130939483642578125</LatitudeDegrees>
              <LongitudeDegrees>-2.94732869602739810943603515625</LongitudeDegrees>
            </Position>
            <AltitudeMeters>-47.200000762939453125</AltitudeMeters>
            <DistanceMeters>NAN</DistanceMeters>
          </Trackpoint>
          <Trackpoint>
            <Time>2022-09-24T17:10:40.000Z</Time>
            <Position>
              <LatitudeDegrees>43.26775959692895412445068359375</LatitudeDegrees>
              <LongitudeDegrees>-2.947275973856449127197265625</LongitudeDegrees>
            </Position>
            <AltitudeMeters>-47</AltitudeMeters>
            <DistanceMeters>NAN</DistanceMeters>
          </Trackpoint>
          <Trackpoint>
            <Time>2022-09-24T17:10:41.000Z</Time>
            <Position>
              <LatitudeDegrees>43.26774048618972301483154296875</LatitudeDegrees>
              <LongitudeDegrees>-2.9471956752240657806396484375</LongitudeDegrees>
            </Position>
            <AltitudeMeters>-47</AltitudeMeters>
            <DistanceMeters>NAN</DistanceMeters>
          </Trackpoint>
          <Trackpoint>
            <Time>2022-09-24T17:10:42.000Z</Time>
            <Position>
              <LatitudeDegrees>43.26774048618972301483154296875</LatitudeDegrees>
              <LongitudeDegrees>-2.9471956752240657806396484375</LongitudeDegrees>
            </Position>
            <AltitudeMeters>-47</AltitudeMeters>
            <DistanceMeters>NAN</DistanceMeters>
          </Trackpoint>
          <Trackpoint>
            <Time>2022-09-24T17:10:43.000Z</Time>
            <Position>
              <LatitudeDegrees>43.26770159415900707244873046875</LatitudeDegrees>
              <LongitudeDegrees>-2.94707338325679302215576171875</LongitudeDegrees>
            </Position>
            <AltitudeMeters>-47.200000762939453125</AltitudeMeters>
            <DistanceMeters>NAN</DistanceMeters>
          </Trackpoint>
          <Trackpoint>
            <Time>2022-09-24T17:10:44.000Z</Time>
            <Position>
              <LatitudeDegrees>43.2676733471453189849853515625</LatitudeDegrees>
              <LongitudeDegrees>-2.947004400193691253662109375</LongitudeDegrees>
            </Position>
            <AltitudeMeters>-47</AltitudeMeters>
            <DistanceMeters>NAN</DistanceMeters>
          </Trackpoint>
          <Trackpoint>
            <Time>2022-09-24T17:10:45.000Z</Time>
            <Position>
              <LatitudeDegrees>43.26764442957937717437744140625</LatitudeDegrees>
              <LongitudeDegrees>-2.94693944044411182403564453125</LongitudeDegrees>
            </Position>
            <AltitudeMeters>-47</AltitudeMeters>
            <DistanceMeters>NAN</DistanceMeters>
          </Trackpoint>
          <Trackpoint>
            <Time>2022-09-24T17:10:46.000Z</Time>
            <Position>
              <LatitudeDegrees>43.26761207543313503265380859375</LatitudeDegrees>
              <LongitudeDegrees>-2.9468744806945323944091796875</LongitudeDegrees>
            </Position>
            <AltitudeMeters>-47</AltitudeMeters>
            <DistanceMeters>NAN</DistanceMeters>
          </Trackpoint>
          <Trackpoint>
            <Time>2022-09-24T17:10:47.000Z</Time>
            <Position>
              <LatitudeDegrees>43.26758022420108318328857421875</LatitudeDegrees>
              <LongitudeDegrees>-2.94681538827717304229736328125</LongitudeDegrees>
            </Position>
            <AltitudeMeters>-47</AltitudeMeters>
            <DistanceMeters>NAN</DistanceMeters>
          </Trackpoint>
          <Trackpoint>
            <Time>2022-09-24T17:10:48.000Z</Time>
            <Position>
              <LatitudeDegrees>43.2675432600080966949462890625</LatitudeDegrees>
              <LongitudeDegrees>-2.94675855897367000579833984375</LongitudeDegrees>
            </Position>
            <AltitudeMeters>-46.200000762939453125</AltitudeMeters>
            <DistanceMeters>NAN</DistanceMeters>
          </Trackpoint>
          <Trackpoint>
            <Time>2022-09-24T17:10:49.000Z</Time>
            <Position>
              <LatitudeDegrees>43.267505876719951629638671875</LatitudeDegrees>
              <LongitudeDegrees>-2.94670164585113525390625</LongitudeDegrees>
            </Position>
            <AltitudeMeters>-46.200000762939453125</AltitudeMeters>
            <DistanceMeters>NAN</DistanceMeters>
          </Trackpoint>
          <Trackpoint>
            <Time>2022-09-24T17:10:50.000Z</Time>
            <Position>
              <LatitudeDegrees>43.26746706850826740264892578125</LatitudeDegrees>
              <LongitudeDegrees>-2.94664674438536167144775390625</LongitudeDegrees>
            </Position>
            <AltitudeMeters>-46.200000762939453125</AltitudeMeters>
            <DistanceMeters>NAN</DistanceMeters>
          </Trackpoint>
          <Trackpoint>
            <Time>2022-09-24T17:10:51.000Z</Time>
            <Position>
              <LatitudeDegrees>43.26742415316402912139892578125</LatitudeDegrees>
              <LongitudeDegrees>-2.94659427367150783538818359375</LongitudeDegrees>
            </Position>
            <AltitudeMeters>-46</AltitudeMeters>
            <DistanceMeters>NAN</DistanceMeters>
          </Trackpoint>
          <Trackpoint>
            <Time>2022-09-24T17:10:52.000Z</Time>
            <Position>
              <LatitudeDegrees>43.26737788505852222442626953125</LatitudeDegrees>
              <LongitudeDegrees>-2.94654515571892261505126953125</LongitudeDegrees>
            </Position>
            <AltitudeMeters>-46</AltitudeMeters>
            <DistanceMeters>NAN</DistanceMeters>
          </Trackpoint>
          <Trackpoint>
            <Time>2022-09-24T17:10:53.000Z</Time>
            <Position>
              <LatitudeDegrees>43.2673280127346515655517578125</LatitudeDegrees>
              <LongitudeDegrees>-2.9465006478130817413330078125</LongitudeDegrees>
            </Position>
            <AltitudeMeters>-46</AltitudeMeters>
            <DistanceMeters>NAN</DistanceMeters>
          </Trackpoint>
          <Trackpoint>
            <Time>2022-09-24T17:10:54.000Z</Time>
            <Position>
              <LatitudeDegrees>43.2672770507633686065673828125</LatitudeDegrees>
              <LongitudeDegrees>-2.946460582315921783447265625</LongitudeDegrees>
            </Position>
            <AltitudeMeters>-46</AltitudeMeters>
            <DistanceMeters>NAN</DistanceMeters>
          </Trackpoint>
          <Trackpoint>
            <Time>2022-09-24T17:10:55.000Z</Time>
            <Position>
              <LatitudeDegrees>43.26722516678273677825927734375</LatitudeDegrees>
              <LongitudeDegrees>-2.946423031389713287353515625</LongitudeDegrees>
            </Position>
            <AltitudeMeters>-45.59999847412109375</AltitudeMeters>
            <DistanceMeters>NAN</DistanceMeters>
          </Trackpoint>
          <Trackpoint>
            <Time>2022-09-24T17:10:56.000Z</Time>
            <Position>
              <LatitudeDegrees>43.26716816984117031097412109375</LatitudeDegrees>
              <LongitudeDegrees>-2.946388162672519683837890625</LongitudeDegrees>
            </Position>
            <AltitudeMeters>-45.59999847412109375</AltitudeMeters>
            <DistanceMeters>NAN</DistanceMeters>
          </Trackpoint>
          <Trackpoint>
            <Time>2022-09-24T17:10:57.000Z</Time>
            <Position>
              <LatitudeDegrees>43.2671090774238109588623046875</LatitudeDegrees>
              <LongitudeDegrees>-2.946355640888214111328125</LongitudeDegrees>
            </Position>
            <AltitudeMeters>-45.40000152587890625</AltitudeMeters>
            <DistanceMeters>NAN</DistanceMeters>
          </Trackpoint>
          <Trackpoint>
            <Time>2022-09-24T17:10:58.000Z</Time>
            <Position>
              <LatitudeDegrees>43.26705099083483219146728515625</LatitudeDegrees>
              <LongitudeDegrees>-2.9463229514658451080322265625</LongitudeDegrees>
            </Position>
            <AltitudeMeters>-45.40000152587890625</AltitudeMeters>
            <DistanceMeters>NAN</DistanceMeters>
          </Trackpoint>
          <Trackpoint>
            <Time>2022-09-24T17:10:59.000Z</Time>
            <Position>
              <LatitudeDegrees>43.26699198223650455474853515625</LatitudeDegrees>
              <LongitudeDegrees>-2.94628866948187351226806640625</LongitudeDegrees>
            </Position>
            <AltitudeMeters>-45.40000152587890625</AltitudeMeters>
            <DistanceMeters>NAN</DistanceMeters>
          </Trackpoint>
          <Trackpoint>
            <Time>2022-09-24T17:11:00.000Z</Time>
            <Position>
              <LatitudeDegrees>43.26693280600011348724365234375</LatitudeDegrees>
              <LongitudeDegrees>-2.9462538845837116241455078125</LongitudeDegrees>
            </Position>
            <AltitudeMeters>-45.40000152587890625</AltitudeMeters>
            <DistanceMeters>NAN</DistanceMeters>
          </Trackpoint>
          <Trackpoint>
            <Time>2022-09-24T17:11:01.000Z</Time>
            <Position>
              <LatitudeDegrees>43.26687497086822986602783203125</LatitudeDegrees>
              <LongitudeDegrees>-2.94621759094297885894775390625</LongitudeDegrees>
            </Position>
            <AltitudeMeters>-45.40000152587890625</AltitudeMeters>
            <DistanceMeters>NAN</DistanceMeters>
          </Trackpoint>
          <Trackpoint>
            <Time>2022-09-24T17:11:02.000Z</Time>
            <Position>
              <LatitudeDegrees>43.26681998558342456817626953125</LatitudeDegrees>
              <LongitudeDegrees>-2.94618129730224609375</LongitudeDegrees>
            </Position>
            <AltitudeMeters>-45.40000152587890625</AltitudeMeters>
            <DistanceMeters>NAN</DistanceMeters>
          </Trackpoint>
          <Trackpoint>
            <Time>2022-09-24T17:11:03.000Z</Time>
            <Position>
              <LatitudeDegrees>43.26676416210830211639404296875</LatitudeDegrees>
              <LongitudeDegrees>-2.946149446070194244384765625</LongitudeDegrees>
            </Position>
            <AltitudeMeters>-45.40000152587890625</AltitudeMeters>
            <DistanceMeters>NAN</DistanceMeters>
          </Trackpoint>
          <Trackpoint>
            <Time>2022-09-24T17:11:04.000Z</Time>
            <Position>
              <LatitudeDegrees>43.26670892536640167236328125</LatitudeDegrees>
              <LongitudeDegrees>-2.94611901976168155670166015625</LongitudeDegrees>
            </Position>
            <AltitudeMeters>-45.40000152587890625</AltitudeMeters>
            <DistanceMeters>NAN</DistanceMeters>
          </Trackpoint>
          <Trackpoint>
            <Time>2022-09-24T17:11:05.000Z</Time>
            <Position>
              <LatitudeDegrees>43.26665301807224750518798828125</LatitudeDegrees>
              <LongitudeDegrees>-2.9460887610912322998046875</LongitudeDegrees>
            </Position>
            <AltitudeMeters>-45</AltitudeMeters>
            <DistanceMeters>NAN</DistanceMeters>
          </Trackpoint>
          <Trackpoint>
            <Time>2022-09-24T17:11:06.000Z</Time>
            <Position>
              <LatitudeDegrees>43.266596607863903045654296875</LatitudeDegrees>
              <LongitudeDegrees>-2.94605783186852931976318359375</LongitudeDegrees>
            </Position>
            <AltitudeMeters>-45</AltitudeMeters>
            <DistanceMeters>NAN</DistanceMeters>
          </Trackpoint>
          <Trackpoint>
            <Time>2022-09-24T17:11:07.000Z</Time>
            <Position>
              <LatitudeDegrees>43.266537599265575408935546875</LatitudeDegrees>
              <LongitudeDegrees>-2.9460225440561771392822265625</LongitudeDegrees>
            </Position>
            <AltitudeMeters>-44</AltitudeMeters>
            <DistanceMeters>NAN</DistanceMeters>
          </Trackpoint>
          <Trackpoint>
            <Time>2022-09-24T17:11:08.000Z</Time>
            <Position>
              <LatitudeDegrees>43.26648051850497722625732421875</LatitudeDegrees>
              <LongitudeDegrees>-2.94599530287086963653564453125</LongitudeDegrees>
            </Position>
            <AltitudeMeters>-43.799999237060546875</AltitudeMeters>
            <DistanceMeters>NAN</DistanceMeters>
          </Trackpoint>
          <Trackpoint>
            <Time>2022-09-24T17:11:09.000Z</Time>
            <Position>
              <LatitudeDegrees>43.2664170674979686737060546875</LatitudeDegrees>
              <LongitudeDegrees>-2.9459886811673641204833984375</LongitudeDegrees>
            </Position>
            <AltitudeMeters>-43.799999237060546875</AltitudeMeters>
            <DistanceMeters>NAN</DistanceMeters>
          </Trackpoint>
          <Trackpoint>
            <Time>2022-09-24T17:11:10.000Z</Time>
            <Position>
              <LatitudeDegrees>43.26635596342384815216064453125</LatitudeDegrees>
              <LongitudeDegrees>-2.946003265678882598876953125</LongitudeDegrees>
            </Position>
            <AltitudeMeters>-43.799999237060546875</AltitudeMeters>
            <DistanceMeters>NAN</DistanceMeters>
          </Trackpoint>
          <Trackpoint>
            <Time>2022-09-24T17:11:11.000Z</Time>
            <Position>
              <LatitudeDegrees>43.26630097813904285430908203125</LatitudeDegrees>
              <LongitudeDegrees>-2.9460356198251247406005859375</LongitudeDegrees>
            </Position>
            <AltitudeMeters>-43.799999237060546875</AltitudeMeters>
            <DistanceMeters>NAN</DistanceMeters>
          </Trackpoint>
          <Trackpoint>
            <Time>2022-09-24T17:11:12.000Z</Time>
            <Position>
              <LatitudeDegrees>43.266251273453235626220703125</LatitudeDegrees>
              <LongitudeDegrees>-2.9460802115499973297119140625</LongitudeDegrees>
            </Position>
            <AltitudeMeters>-44</AltitudeMeters>
            <DistanceMeters>NAN</DistanceMeters>
          </Trackpoint>
          <Trackpoint>
            <Time>2022-09-24T17:11:13.000Z</Time>
            <Position>
              <LatitudeDegrees>43.26620508916676044464111328125</LatitudeDegrees>
              <LongitudeDegrees>-2.94613159261643886566162109375</LongitudeDegrees>
            </Position>
            <AltitudeMeters>-44.200000762939453125</AltitudeMeters>
            <DistanceMeters>NAN</DistanceMeters>
          </Trackpoint>
          <Trackpoint>
            <Time>2022-09-24T17:11:14.000Z</Time>
            <Position>
              <LatitudeDegrees>43.266159407794475555419921875</LatitudeDegrees>
              <LongitudeDegrees>-2.94618557207286357879638671875</LongitudeDegrees>
            </Position>
            <AltitudeMeters>-44.40000152587890625</AltitudeMeters>
            <DistanceMeters>NAN</DistanceMeters>
          </Trackpoint>
          <Trackpoint>
            <Time>2022-09-24T17:11:15.000Z</Time>
            <Position>
              <LatitudeDegrees>43.2661183364689350128173828125</LatitudeDegrees>
              <LongitudeDegrees>-2.946242652833461761474609375</LongitudeDegrees>
            </Position>
            <AltitudeMeters>-44.40000152587890625</AltitudeMeters>
            <DistanceMeters>NAN</DistanceMeters>
          </Trackpoint>
          <Trackpoint>
            <Time>2022-09-24T17:11:16.000Z</Time>
            <Position>
              <LatitudeDegrees>43.26608405448496341705322265625</LatitudeDegrees>
              <LongitudeDegrees>-2.94630937278270721435546875</LongitudeDegrees>
            </Position>
            <AltitudeMeters>-44.40000152587890625</AltitudeMeters>
            <DistanceMeters>NAN</DistanceMeters>
          </Trackpoint>
          <Trackpoint>
            <Time>2022-09-24T17:11:17.000Z</Time>
            <Position>
              <LatitudeDegrees>43.2660605013370513916015625</LatitudeDegrees>
              <LongitudeDegrees>-2.9463806189596652984619140625</LongitudeDegrees>
            </Position>
            <AltitudeMeters>-44.40000152587890625</AltitudeMeters>
            <DistanceMeters>NAN</DistanceMeters>
          </Trackpoint>
          <Trackpoint>
            <Time>2022-09-24T17:11:18.000Z</Time>
            <Position>
              <LatitudeDegrees>43.2660439051687717437744140625</LatitudeDegrees>
              <LongitudeDegrees>-2.94645211659371852874755859375</LongitudeDegrees>
            </Position>
            <AltitudeMeters>-44.40000152587890625</AltitudeMeters>
            <DistanceMeters>NAN</DistanceMeters>
          </Trackpoint>
          <Trackpoint>
            <Time>2022-09-24T17:11:19.000Z</Time>
            <Position>
              <LatitudeDegrees>43.26603208668529987335205078125</LatitudeDegrees>
              <LongitudeDegrees>-2.946522943675518035888671875</LongitudeDegrees>
            </Position>
            <AltitudeMeters>-44.59999847412109375</AltitudeMeters>
            <DistanceMeters>NAN</DistanceMeters>
          </Trackpoint>
          <Trackpoint>
            <Time>2022-09-24T17:11:20.000Z</Time>
            <Position>
              <LatitudeDegrees>43.2660201005637645721435546875</LatitudeDegrees>
              <LongitudeDegrees>-2.9466019012033939361572265625</LongitudeDegrees>
            </Position>
            <AltitudeMeters>-44.799999237060546875</AltitudeMeters>
            <DistanceMeters>NAN</DistanceMeters>
          </Trackpoint>
          <Trackpoint>
            <Time>2022-09-24T17:11:21.000Z</Time>
            <Position>
              <LatitudeDegrees>43.2660068571567535400390625</LatitudeDegrees>
              <LongitudeDegrees>-2.9466922581195831298828125</LongitudeDegrees>
            </Position>
            <AltitudeMeters>-44.59999847412109375</AltitudeMeters>
            <DistanceMeters>NAN</DistanceMeters>
          </Trackpoint>
          <Trackpoint>
            <Time>2022-09-24T17:11:22.000Z</Time>
            <Position>
              <LatitudeDegrees>43.26599386520683765411376953125</LatitudeDegrees>
              <LongitudeDegrees>-2.94679351150989532470703125</LongitudeDegrees>
            </Position>
            <AltitudeMeters>-44.59999847412109375</AltitudeMeters>
            <DistanceMeters>NAN</DistanceMeters>
          </Trackpoint>
          <Trackpoint>
            <Time>2022-09-24T17:11:23.000Z</Time>
            <Position>
              <LatitudeDegrees>43.2659771852195262908935546875</LatitudeDegrees>
              <LongitudeDegrees>-2.94690256007015705108642578125</LongitudeDegrees>
            </Position>
            <AltitudeMeters>-44.59999847412109375</AltitudeMeters>
            <DistanceMeters>NAN</DistanceMeters>
          </Trackpoint>
          <Trackpoint>
            <Time>2022-09-24T17:11:24.000Z</Time>
            <Position>
              <LatitudeDegrees>43.26596016995608806610107421875</LatitudeDegrees>
              <LongitudeDegrees>-2.94702158309519290924072265625</LongitudeDegrees>
            </Position>
            <AltitudeMeters>-45</AltitudeMeters>
            <DistanceMeters>NAN</DistanceMeters>
          </Trackpoint>
          <Trackpoint>
            <Time>2022-09-24T17:11:25.000Z</Time>
            <Position>
              <LatitudeDegrees>43.26594290323555469512939453125</LatitudeDegrees>
              <LongitudeDegrees>-2.9471510834991931915283203125</LongitudeDegrees>
            </Position>
            <AltitudeMeters>-45.799999237060546875</AltitudeMeters>
            <DistanceMeters>NAN</DistanceMeters>
          </Trackpoint>
          <Trackpoint>
            <Time>2022-09-24T17:11:26.000Z</Time>
            <Position>
              <LatitudeDegrees>43.26592161320149898529052734375</LatitudeDegrees>
              <LongitudeDegrees>-2.9472877085208892822265625</LongitudeDegrees>
            </Position>
            <AltitudeMeters>-45.799999237060546875</AltitudeMeters>
            <DistanceMeters>NAN</DistanceMeters>
          </Trackpoint>
          <Trackpoint>
            <Time>2022-09-24T17:11:27.000Z</Time>
            <Position>
              <LatitudeDegrees>43.26590015552937984466552734375</LatitudeDegrees>
              <LongitudeDegrees>-2.94742827303707599639892578125</LongitudeDegrees>
            </Position>
            <AltitudeMeters>-46.799999237060546875</AltitudeMeters>
            <DistanceMeters>NAN</DistanceMeters>
          </Trackpoint>
          <Trackpoint>
            <Time>2022-09-24T17:11:28.000Z</Time>
            <Position>
              <LatitudeDegrees>43.265877775847911834716796875</LatitudeDegrees>
              <LongitudeDegrees>-2.94756858609616756439208984375</LongitudeDegrees>
            </Position>
            <AltitudeMeters>-47.799999237060546875</AltitudeMeters>
            <DistanceMeters>NAN</DistanceMeters>
          </Trackpoint>
          <Trackpoint>
            <Time>2022-09-24T17:11:29.000Z</Time>
            <Position>
              <LatitudeDegrees>43.26585656963288784027099609375</LatitudeDegrees>
              <LongitudeDegrees>-2.94770956970751285552978515625</LongitudeDegrees>
            </Position>
            <AltitudeMeters>-49.799999237060546875</AltitudeMeters>
            <DistanceMeters>NAN</DistanceMeters>
          </Trackpoint>
          <Trackpoint>
            <Time>2022-09-24T17:11:30.000Z</Time>
            <Position>
              <LatitudeDegrees>43.26583796180784702301025390625</LatitudeDegrees>
              <LongitudeDegrees>-2.94784988276660442352294921875</LongitudeDegrees>
            </Position>
            <AltitudeMeters>-51</AltitudeMeters>
            <DistanceMeters>NAN</DistanceMeters>
          </Trackpoint>
          <Trackpoint>
            <Time>2022-09-24T17:11:31.000Z</Time>
            <Position>
              <LatitudeDegrees>43.26581432484090328216552734375</LatitudeDegrees>
              <LongitudeDegrees>-2.9480160959064960479736328125</LongitudeDegrees>
            </Position>
            <AltitudeMeters>-51.59999847412109375</AltitudeMeters>
            <DistanceMeters>NAN</DistanceMeters>
          </Trackpoint>
          <Trackpoint>
            <Time>2022-09-24T17:11:32.000Z</Time>
            <Position>
              <LatitudeDegrees>43.2657976448535919189453125</LatitudeDegrees>
              <LongitudeDegrees>-2.94814509339630603790283203125</LongitudeDegrees>
            </Position>
            <AltitudeMeters>-51.59999847412109375</AltitudeMeters>
            <DistanceMeters>NAN</DistanceMeters>
          </Trackpoint>
          <Trackpoint>
            <Time>2022-09-24T17:11:33.000Z</Time>
            <Position>
              <LatitudeDegrees>43.2657815515995025634765625</LatitudeDegrees>
              <LongitudeDegrees>-2.94826805591583251953125</LongitudeDegrees>
            </Position>
            <AltitudeMeters>-51.59999847412109375</AltitudeMeters>
            <DistanceMeters>NAN</DistanceMeters>
          </Trackpoint>
          <Trackpoint>
            <Time>2022-09-24T17:11:34.000Z</Time>
            <Position>
              <LatitudeDegrees>43.2657693140208721160888671875</LatitudeDegrees>
              <LongitudeDegrees>-2.9483641125261783599853515625</LongitudeDegrees>
            </Position>
            <AltitudeMeters>-52.40000152587890625</AltitudeMeters>
            <DistanceMeters>NAN</DistanceMeters>
          </Trackpoint>
          <Trackpoint>
            <Time>2022-09-24T17:11:35.000Z</Time>
            <Position>
              <LatitudeDegrees>43.26575632207095623016357421875</LatitudeDegrees>
              <LongitudeDegrees>-2.94847886078059673309326171875</LongitudeDegrees>
            </Position>
            <AltitudeMeters>-52.40000152587890625</AltitudeMeters>
            <DistanceMeters>NAN</DistanceMeters>
          </Trackpoint>
          <Trackpoint>
            <Time>2022-09-24T17:11:36.000Z</Time>
            <Position>
              <LatitudeDegrees>43.2657404802739620208740234375</LatitudeDegrees>
              <LongitudeDegrees>-2.94860668480396270751953125</LongitudeDegrees>
            </Position>
            <AltitudeMeters>-52.40000152587890625</AltitudeMeters>
            <DistanceMeters>NAN</DistanceMeters>
          </Trackpoint>
          <Trackpoint>
            <Time>2022-09-24T17:11:37.000Z</Time>
            <Position>
              <LatitudeDegrees>43.26572723686695098876953125</LatitudeDegrees>
              <LongitudeDegrees>-2.94871070422232151031494140625</LongitudeDegrees>
            </Position>
            <AltitudeMeters>-52.40000152587890625</AltitudeMeters>
            <DistanceMeters>NAN</DistanceMeters>
          </Trackpoint>
          <Trackpoint>
            <Time>2022-09-24T17:11:38.000Z</Time>
            <Position>
              <LatitudeDegrees>43.2657163403928279876708984375</LatitudeDegrees>
              <LongitudeDegrees>-2.9488016478717327117919921875</LongitudeDegrees>
            </Position>
            <AltitudeMeters>-52.40000152587890625</AltitudeMeters>
            <DistanceMeters>NAN</DistanceMeters>
          </Trackpoint>
          <Trackpoint>
            <Time>2022-09-24T17:11:39.000Z</Time>
            <Position>
              <LatitudeDegrees>43.2657091319561004638671875</LatitudeDegrees>
              <LongitudeDegrees>-2.94886509887874126434326171875</LongitudeDegrees>
            </Position>
            <AltitudeMeters>-53</AltitudeMeters>
            <DistanceMeters>NAN</DistanceMeters>
          </Trackpoint>
          <Trackpoint>
            <Time>2022-09-24T17:11:40.000Z</Time>
            <Position>
              <LatitudeDegrees>43.26569580473005771636962890625</LatitudeDegrees>
              <LongitudeDegrees>-2.9489297233521938323974609375</LongitudeDegrees>
            </Position>
            <AltitudeMeters>-53</AltitudeMeters>
            <DistanceMeters>NAN</DistanceMeters>
          </Trackpoint>
          <Trackpoint>
            <Time>2022-09-24T17:11:41.000Z</Time>
            <Position>
              <LatitudeDegrees>43.26569345779716968536376953125</LatitudeDegrees>
              <LongitudeDegrees>-2.948985882103443145751953125</LongitudeDegrees>
            </Position>
            <AltitudeMeters>-54.799999237060546875</AltitudeMeters>
            <DistanceMeters>NAN</DistanceMeters>
          </Trackpoint>
          <Trackpoint>
            <Time>2022-09-24T17:11:42.000Z</Time>
            <Position>
              <LatitudeDegrees>43.26568968594074249267578125</LatitudeDegrees>
              <LongitudeDegrees>-2.94902938418090343475341796875</LongitudeDegrees>
            </Position>
            <AltitudeMeters>-55</AltitudeMeters>
            <DistanceMeters>NAN</DistanceMeters>
          </Trackpoint>
          <Trackpoint>
            <Time>2022-09-24T17:11:43.000Z</Time>
            <Position>
              <LatitudeDegrees>43.2656903564929962158203125</LatitudeDegrees>
              <LongitudeDegrees>-2.949041537940502166748046875</LongitudeDegrees>
            </Position>
            <AltitudeMeters>-55</AltitudeMeters>
            <DistanceMeters>NAN</DistanceMeters>
          </Trackpoint>
        </Track>
      </Lap>
    </Activity>
  </Activities>
</TrainingCenterDatabase>
